<?xml version='1.0' encoding='UTF-8'?><gpx version="1.1" creator="JPX - https://github.com/jenetics/jpx" xmlns="http://www.topografix.com/GPX/1/1"><trk><trkseg><trkpt lat="33.339675113716694" lon="-7.510470277389156"><ele>211.0</ele><time>2026-04-23T09:30:09Z</time></trkpt><trkpt lat="33.33939579846453" lon="-7.510653280367272"><ele>211.0</ele><time>2026-04-23T09:30:10Z</time></trkpt><trkpt lat="33.339110014368714" lon="-7.510836733382538"><ele>210.5</ele><time>2026-04-23T09:30:11Z</time></trkpt><trkpt lat="33.33882958871526" lon="-7.511024128172104"><ele>210.0</ele><time>2026-04-23T09:30:12Z</time></trkpt><trkpt lat="33.338547861630744" lon="-7.511213601262373"><ele>210.5</ele><time>2026-04-23T09:30:13Z</time></trkpt><trkpt lat="33.33826785451629" lon="-7.511406595163787"><ele>211.0</ele><time>2026-04-23T09:30:14Z</time></trkpt><trkpt lat="33.33799163266488" lon="-7.511600171502013"><ele>210.0</ele><time>2026-04-23T09:30:15Z</time></trkpt><trkpt lat="33.33771503125052" lon="-7.511801805846657"><ele>209.0</ele><time>2026-04-23T09:30:16Z</time></trkpt><trkpt lat="33.337441687210855" lon="-7.512004404800623"><ele>209.5</ele><time>2026-04-23T09:30:17Z</time></trkpt><trkpt lat="33.33717030158799" lon="-7.51221519713968"><ele>210.0</ele><time>2026-04-23T09:30:18Z</time></trkpt><trkpt lat="33.33689655871833" lon="-7.512424878498319"><ele>210.0</ele><time>2026-04-23T09:30:19Z</time></trkpt><trkpt lat="33.33662849194641" lon="-7.512636433676729"><ele>210.0</ele><time>2026-04-23T09:30:19.999Z</time></trkpt><trkpt lat="33.33635818886799" lon="-7.512848913633208"><ele>210.5</ele><time>2026-04-23T09:30:20.999Z</time></trkpt><trkpt lat="33.3360888112241" lon="-7.513065526649727"><ele>211.0</ele><time>2026-04-23T09:30:21.999Z</time></trkpt><trkpt lat="33.335822416962294" lon="-7.513278051824754"><ele>211.0</ele><time>2026-04-23T09:30:22.999Z</time></trkpt><trkpt lat="33.335560897818226" lon="-7.513501012528544"><ele>211.0</ele><time>2026-04-23T09:30:23.999Z</time></trkpt><trkpt lat="33.335303147075614" lon="-7.5137224141634436"><ele>211.0</ele><time>2026-04-23T09:30:24.999Z</time></trkpt><trkpt lat="33.335050747522544" lon="-7.513947546477279"><ele>211.0</ele><time>2026-04-23T09:30:25.999Z</time></trkpt><trkpt lat="33.3347951670428" lon="-7.514172780659964"><ele>211.0</ele><time>2026-04-23T09:30:26.999Z</time></trkpt><trkpt lat="33.334545358537305" lon="-7.514403995641757"><ele>211.0</ele><time>2026-04-23T09:30:27.999Z</time></trkpt><trkpt lat="33.33430728889791" lon="-7.514623913970069"><ele>211.0</ele><time>2026-04-23T09:30:28.999Z</time></trkpt><trkpt lat="33.33407676923749" lon="-7.514843923541447"><ele>211.0</ele><time>2026-04-23T09:30:29.999Z</time></trkpt><trkpt lat="33.33384239951391" lon="-7.515064728552547"><ele>211.0</ele><time>2026-04-23T09:30:30.999Z</time></trkpt><trkpt lat="33.33359995206214" lon="-7.515300055633025"><ele>211.0</ele><time>2026-04-23T09:30:31.999Z</time></trkpt><trkpt lat="33.333360548993014" lon="-7.515541170492773"><ele>210.5</ele><time>2026-04-23T09:30:32.999Z</time></trkpt><trkpt lat="33.33312068933829" lon="-7.515788228035158"><ele>210.0</ele><time>2026-04-23T09:30:33.999Z</time></trkpt><trkpt lat="33.3328720297388" lon="-7.516039522740934"><ele>209.5</ele><time>2026-04-23T09:30:34.999Z</time></trkpt><trkpt lat="33.33262891633207" lon="-7.516289796376156"><ele>209.0</ele><time>2026-04-23T09:30:35.999Z</time></trkpt><trkpt lat="33.33239003535001" lon="-7.516543835673581"><ele>209.5</ele><time>2026-04-23T09:30:36.999Z</time></trkpt><trkpt lat="33.332153571952865" lon="-7.516811625053295"><ele>210.0</ele><time>2026-04-23T09:30:37.999Z</time></trkpt><trkpt lat="33.331917920449406" lon="-7.5170761671707025"><ele>210.0</ele><time>2026-04-23T09:30:38.999Z</time></trkpt><trkpt lat="33.331683926325496" lon="-7.517343937395138"><ele>210.0</ele><time>2026-04-23T09:30:39.999Z</time></trkpt><trkpt lat="33.33145390550079" lon="-7.517613487198528"><ele>209.5</ele><time>2026-04-23T09:30:40.999Z</time></trkpt><trkpt lat="33.33122193400672" lon="-7.517883699592178"><ele>209.0</ele><time>2026-04-23T09:30:41.999Z</time></trkpt><trkpt lat="33.330987276280766" lon="-7.518154323788646"><ele>209.0</ele><time>2026-04-23T09:30:42.999Z</time></trkpt><trkpt lat="33.330759439492205" lon="-7.518426890430855"><ele>209.0</ele><time>2026-04-23T09:30:43.999Z</time></trkpt><trkpt lat="33.33053018400493" lon="-7.518696747663976"><ele>209.0</ele><time>2026-04-23T09:30:44.999Z</time></trkpt><trkpt lat="33.33030005717177" lon="-7.518968953349987"><ele>209.0</ele><time>2026-04-23T09:30:45.999Z</time></trkpt><trkpt lat="33.33007014958176" lon="-7.519242029178251"><ele>209.0</ele><time>2026-04-23T09:30:46.999Z</time></trkpt><trkpt lat="33.329836618335825" lon="-7.519511186826194"><ele>209.0</ele><time>2026-04-23T09:30:47.999Z</time></trkpt><trkpt lat="33.32960926752752" lon="-7.519781515315613"><ele>209.5</ele><time>2026-04-23T09:30:48.999Z</time></trkpt><trkpt lat="33.32938254742077" lon="-7.520050526355733"><ele>210.0</ele><time>2026-04-23T09:30:49.999Z</time></trkpt><trkpt lat="33.32915927068978" lon="-7.520313951035462"><ele>209.5</ele><time>2026-04-23T09:30:50.999Z</time></trkpt><trkpt lat="33.32893619062444" lon="-7.520584871958223"><ele>209.0</ele><time>2026-04-23T09:30:51.999Z</time></trkpt><trkpt lat="33.32871211829226" lon="-7.520853885536688"><ele>209.0</ele><time>2026-04-23T09:30:52.999Z</time></trkpt><trkpt lat="33.328485566965924" lon="-7.521115437486047"><ele>209.0</ele><time>2026-04-23T09:30:53.999Z</time></trkpt><trkpt lat="33.32825844724705" lon="-7.521376659346126"><ele>209.0</ele><time>2026-04-23T09:30:54.999Z</time></trkpt><trkpt lat="33.32802815369999" lon="-7.521642282318728"><ele>209.0</ele><time>2026-04-23T09:30:55.999Z</time></trkpt><trkpt lat="33.32780548496057" lon="-7.5219046635392806"><ele>208.0</ele><time>2026-04-23T09:30:56.999Z</time></trkpt><trkpt lat="33.32758424669624" lon="-7.522169583805759"><ele>207.0</ele><time>2026-04-23T09:30:57.999Z</time></trkpt><trkpt lat="33.32735965261736" lon="-7.522430285538854"><ele>208.0</ele><time>2026-04-23T09:30:58.999Z</time></trkpt><trkpt lat="33.327134463158984" lon="-7.52269341728969"><ele>209.0</ele><time>2026-04-23T09:30:59.999Z</time></trkpt><trkpt lat="33.326905712318776" lon="-7.522958935940145"><ele>209.0</ele><time>2026-04-23T09:31:00.999Z</time></trkpt><trkpt lat="33.32668336211526" lon="-7.5232266827468"><ele>209.0</ele><time>2026-04-23T09:31:01.999Z</time></trkpt><trkpt lat="33.32646065992862" lon="-7.523488475239778"><ele>208.5</ele><time>2026-04-23T09:31:02.999Z</time></trkpt><trkpt lat="33.32623889246647" lon="-7.52375279322703"><ele>208.0</ele><time>2026-04-23T09:31:03.999Z</time></trkpt><trkpt lat="33.32601357648774" lon="-7.52401746020015"><ele>208.0</ele><time>2026-04-23T09:31:04.999Z</time></trkpt><trkpt lat="33.325786493024445" lon="-7.524280679418077"><ele>208.0</ele><time>2026-04-23T09:31:05.999Z</time></trkpt><trkpt lat="33.32555959172827" lon="-7.524544766424493"><ele>208.5</ele><time>2026-04-23T09:31:06.999Z</time></trkpt><trkpt lat="33.325334789528625" lon="-7.524809108491759"><ele>209.0</ele><time>2026-04-23T09:31:07.999Z</time></trkpt><trkpt lat="33.32511197332245" lon="-7.525068950765166"><ele>209.0</ele><time>2026-04-23T09:31:08.999Z</time></trkpt><trkpt lat="33.32488492744536" lon="-7.5253330730737416"><ele>209.0</ele><time>2026-04-23T09:31:09.999Z</time></trkpt><trkpt lat="33.3246673714036" lon="-7.525595195209075"><ele>209.0</ele><time>2026-04-23T09:31:10.999Z</time></trkpt><trkpt lat="33.32444066436424" lon="-7.525857699405635"><ele>209.0</ele><time>2026-04-23T09:31:11.999Z</time></trkpt><trkpt lat="33.32421299242123" lon="-7.526116463271907"><ele>209.5</ele><time>2026-04-23T09:31:12.999Z</time></trkpt><trkpt lat="33.323983116443166" lon="-7.526376021731381"><ele>210.0</ele><time>2026-04-23T09:31:13.999Z</time></trkpt><trkpt lat="33.3237541178076" lon="-7.526631905707317"><ele>210.0</ele><time>2026-04-23T09:31:14.999Z</time></trkpt><trkpt lat="33.32352632715525" lon="-7.526890376366842"><ele>210.0</ele><time>2026-04-23T09:31:15.999Z</time></trkpt><trkpt lat="33.32329431999561" lon="-7.527148570647324"><ele>210.5</ele><time>2026-04-23T09:31:16.999Z</time></trkpt><trkpt lat="33.32306011218139" lon="-7.527402239314556"><ele>211.0</ele><time>2026-04-23T09:31:17.999Z</time></trkpt><trkpt lat="33.322824732580905" lon="-7.527655857245331"><ele>210.5</ele><time>2026-04-23T09:31:18.999Z</time></trkpt><trkpt lat="33.322592317701165" lon="-7.527906798294268"><ele>210.0</ele><time>2026-04-23T09:31:19.999Z</time></trkpt><trkpt lat="33.32235770276682" lon="-7.528160004564272"><ele>210.5</ele><time>2026-04-23T09:31:20.999Z</time></trkpt><trkpt lat="33.32212744531899" lon="-7.5284149769470465"><ele>211.0</ele><time>2026-04-23T09:31:21.999Z</time></trkpt><trkpt lat="33.32189540411874" lon="-7.528666651245065"><ele>211.0</ele><time>2026-04-23T09:31:22.999Z</time></trkpt><trkpt lat="33.3216572981364" lon="-7.528912003868907"><ele>211.0</ele><time>2026-04-23T09:31:23.999Z</time></trkpt><trkpt lat="33.321419507370706" lon="-7.529160159469697"><ele>209.5</ele><time>2026-04-23T09:31:24.999Z</time></trkpt><trkpt lat="33.32118362526596" lon="-7.529405036716886"><ele>208.0</ele><time>2026-04-23T09:31:25.999Z</time></trkpt><trkpt lat="33.32094881040359" lon="-7.529652518752409"><ele>208.0</ele><time>2026-04-23T09:31:26.999Z</time></trkpt><trkpt lat="33.32071006015255" lon="-7.529903563418875"><ele>208.0</ele><time>2026-04-23T09:31:27.999Z</time></trkpt><trkpt lat="33.32047138316288" lon="-7.530148468430323"><ele>208.5</ele><time>2026-04-23T09:31:28.999Z</time></trkpt><trkpt lat="33.320231363572844" lon="-7.530391454228147"><ele>209.0</ele><time>2026-04-23T09:31:29.999Z</time></trkpt><trkpt lat="33.31999286461066" lon="-7.530632820322679"><ele>209.0</ele><time>2026-04-23T09:31:30.999Z</time></trkpt><trkpt lat="33.31975055853436" lon="-7.53087663008373"><ele>209.0</ele><time>2026-04-23T09:31:31.999Z</time></trkpt><trkpt lat="33.31950991226246" lon="-7.531114793488781"><ele>209.5</ele><time>2026-04-23T09:31:32.999Z</time></trkpt><trkpt lat="33.31926320188106" lon="-7.531350936950712"><ele>210.0</ele><time>2026-04-23T09:31:33.999Z</time></trkpt><trkpt lat="33.31901711779829" lon="-7.531588872294884"><ele>210.5</ele><time>2026-04-23T09:31:34.999Z</time></trkpt><trkpt lat="33.31877270355188" lon="-7.53182676232181"><ele>211.0</ele><time>2026-04-23T09:31:35.999Z</time></trkpt><trkpt lat="33.31853137545592" lon="-7.532064877930074"><ele>211.0</ele><time>2026-04-23T09:31:36.999Z</time></trkpt><trkpt lat="33.318285385057315" lon="-7.532300144339964"><ele>211.0</ele><time>2026-04-23T09:31:37.999Z</time></trkpt><trkpt lat="33.31804066589459" lon="-7.532540799983314"><ele>211.0</ele><time>2026-04-23T09:31:38.999Z</time></trkpt><trkpt lat="33.317795655537445" lon="-7.532774944491999"><ele>211.0</ele><time>2026-04-23T09:31:39.999Z</time></trkpt><trkpt lat="33.31755462158362" lon="-7.53301334172654"><ele>211.0</ele><time>2026-04-23T09:31:40.999Z</time></trkpt><trkpt lat="33.317303737816374" lon="-7.533253027020912"><ele>211.0</ele><time>2026-04-23T09:31:41.999Z</time></trkpt><trkpt lat="33.31705970000937" lon="-7.533495162534659"><ele>211.5</ele><time>2026-04-23T09:31:42.999Z</time></trkpt><trkpt lat="33.3168111194296" lon="-7.533732648899649"><ele>212.0</ele><time>2026-04-23T09:31:43.999Z</time></trkpt><trkpt lat="33.31656847525177" lon="-7.533967670216396"><ele>211.0</ele><time>2026-04-23T09:31:44.999Z</time></trkpt><trkpt lat="33.31632519851475" lon="-7.5342051668588566"><ele>210.0</ele><time>2026-04-23T09:31:45.999Z</time></trkpt><trkpt lat="33.31608387857557" lon="-7.534442502067223"><ele>210.0</ele><time>2026-04-23T09:31:46.999Z</time></trkpt><trkpt lat="33.31583654137903" lon="-7.534684639548468"><ele>210.0</ele><time>2026-04-23T09:31:48Z</time></trkpt><trkpt lat="33.31559112140663" lon="-7.53492478774341"><ele>210.5</ele><time>2026-04-23T09:31:49Z</time></trkpt><trkpt lat="33.31534704141879" lon="-7.535164587923062"><ele>211.0</ele><time>2026-04-23T09:31:50Z</time></trkpt><trkpt lat="33.31509986740228" lon="-7.53540473095716"><ele>211.0</ele><time>2026-04-23T09:31:51Z</time></trkpt><trkpt lat="33.31485722669351" lon="-7.53564709891124"><ele>211.0</ele><time>2026-04-23T09:31:52Z</time></trkpt><trkpt lat="33.31461357055518" lon="-7.535885125148172"><ele>211.0</ele><time>2026-04-23T09:31:53Z</time></trkpt><trkpt lat="33.3143734913734" lon="-7.536121778935024"><ele>211.0</ele><time>2026-04-23T09:31:54Z</time></trkpt><trkpt lat="33.31412714331101" lon="-7.536358803396306"><ele>211.0</ele><time>2026-04-23T09:31:55Z</time></trkpt><trkpt lat="33.3138804664516" lon="-7.536600452953387"><ele>211.0</ele><time>2026-04-23T09:31:56Z</time></trkpt><trkpt lat="33.31362976954304" lon="-7.536836582871267"><ele>211.0</ele><time>2026-04-23T09:31:57Z</time></trkpt><trkpt lat="33.31338482160947" lon="-7.537078334636064"><ele>211.0</ele><time>2026-04-23T09:31:58Z</time></trkpt><trkpt lat="33.31313976095986" lon="-7.537315758388154"><ele>211.5</ele><time>2026-04-23T09:31:59Z</time></trkpt><trkpt lat="33.31289472188338" lon="-7.537555170483372"><ele>212.0</ele><time>2026-04-23T09:32:00Z</time></trkpt><trkpt lat="33.31265142759564" lon="-7.537794619727519"><ele>212.0</ele><time>2026-04-23T09:32:01Z</time></trkpt><trkpt lat="33.312407038596916" lon="-7.538030743220622"><ele>212.0</ele><time>2026-04-23T09:32:02Z</time></trkpt><trkpt lat="33.312163845325564" lon="-7.538268348697686"><ele>212.0</ele><time>2026-04-23T09:32:03Z</time></trkpt><trkpt lat="33.311917310918" lon="-7.538510023624369"><ele>212.0</ele><time>2026-04-23T09:32:04Z</time></trkpt><trkpt lat="33.311673389454015" lon="-7.53874954120815"><ele>212.0</ele><time>2026-04-23T09:32:05Z</time></trkpt><trkpt lat="33.31143023334174" lon="-7.538984125705134"><ele>212.0</ele><time>2026-04-23T09:32:06Z</time></trkpt><trkpt lat="33.31118469986836" lon="-7.539224449245717"><ele>212.0</ele><time>2026-04-23T09:32:07Z</time></trkpt><trkpt lat="33.31093856274032" lon="-7.539461020094002"><ele>212.0</ele><time>2026-04-23T09:32:08Z</time></trkpt><trkpt lat="33.31069966421898" lon="-7.53970048254414"><ele>212.0</ele><time>2026-04-23T09:32:09Z</time></trkpt><trkpt lat="33.31045881365871" lon="-7.539935338627807"><ele>212.0</ele><time>2026-04-23T09:32:10Z</time></trkpt><trkpt lat="33.31021419035735" lon="-7.540175683835045"><ele>211.5</ele><time>2026-04-23T09:32:11Z</time></trkpt><trkpt lat="33.309969320036465" lon="-7.540413568606468"><ele>211.0</ele><time>2026-04-23T09:32:12Z</time></trkpt><trkpt lat="33.30972150834363" lon="-7.540647648986377"><ele>210.5</ele><time>2026-04-23T09:32:13Z</time></trkpt><trkpt lat="33.30947045698607" lon="-7.540879793927159"><ele>210.0</ele><time>2026-04-23T09:32:14Z</time></trkpt><trkpt lat="33.309218026491834" lon="-7.541106488058478"><ele>209.5</ele><time>2026-04-23T09:32:15Z</time></trkpt><trkpt lat="33.30896023480975" lon="-7.541324757368821"><ele>209.0</ele><time>2026-04-23T09:32:16Z</time></trkpt><trkpt lat="33.30870197177971" lon="-7.541542591609708"><ele>210.0</ele><time>2026-04-23T09:32:17Z</time></trkpt><trkpt lat="33.308444572083346" lon="-7.541753394668508"><ele>211.0</ele><time>2026-04-23T09:32:18Z</time></trkpt><trkpt lat="33.308182137788414" lon="-7.541967903074374"><ele>210.5</ele><time>2026-04-23T09:32:19Z</time></trkpt><trkpt lat="33.307913227954494" lon="-7.542169092727151"><ele>210.0</ele><time>2026-04-23T09:32:20Z</time></trkpt><trkpt lat="33.307646562670676" lon="-7.542374961466142"><ele>210.0</ele><time>2026-04-23T09:32:21Z</time></trkpt><trkpt lat="33.30738106823575" lon="-7.54257113441004"><ele>210.0</ele><time>2026-04-23T09:32:22Z</time></trkpt><trkpt lat="33.3071068745751" lon="-7.542763965873703"><ele>210.5</ele><time>2026-04-23T09:32:23Z</time></trkpt><trkpt lat="33.30683361945117" lon="-7.542955749582403"><ele>211.0</ele><time>2026-04-23T09:32:24Z</time></trkpt><trkpt lat="33.30655604971362" lon="-7.543141899086894"><ele>210.5</ele><time>2026-04-23T09:32:25Z</time></trkpt><trkpt lat="33.30627635116432" lon="-7.543325058922582"><ele>210.0</ele><time>2026-04-23T09:32:26Z</time></trkpt><trkpt lat="33.30599483713174" lon="-7.543501466196391"><ele>210.0</ele><time>2026-04-23T09:32:27Z</time></trkpt><trkpt lat="33.30570826625282" lon="-7.543678677235595"><ele>210.0</ele><time>2026-04-23T09:32:28Z</time></trkpt><trkpt lat="33.30542291259398" lon="-7.543857950789995"><ele>210.5</ele><time>2026-04-23T09:32:29Z</time></trkpt><trkpt lat="33.30513248917711" lon="-7.544034399031276"><ele>211.0</ele><time>2026-04-23T09:32:30Z</time></trkpt><trkpt lat="33.30484091830009" lon="-7.54419720515906"><ele>211.0</ele><time>2026-04-23T09:32:31Z</time></trkpt><trkpt lat="33.30454324136128" lon="-7.544351654016563"><ele>211.0</ele><time>2026-04-23T09:32:32Z</time></trkpt><trkpt lat="33.30424671793764" lon="-7.544503755669831"><ele>210.5</ele><time>2026-04-23T09:32:33Z</time></trkpt><trkpt lat="33.3039486440427" lon="-7.544649285004327"><ele>210.0</ele><time>2026-04-23T09:32:34Z</time></trkpt><trkpt lat="33.30364987267601" lon="-7.544785849644189"><ele>211.0</ele><time>2026-04-23T09:32:35Z</time></trkpt><trkpt lat="33.303347402387615" lon="-7.544914855014131"><ele>212.0</ele><time>2026-04-23T09:32:36Z</time></trkpt><trkpt lat="33.303039890467446" lon="-7.54503904415295"><ele>212.0</ele><time>2026-04-23T09:32:37Z</time></trkpt><trkpt lat="33.30274077089061" lon="-7.545156887080041"><ele>212.0</ele><time>2026-04-23T09:32:38Z</time></trkpt><trkpt lat="33.30244437363186" lon="-7.545256245140296"><ele>212.0</ele><time>2026-04-23T09:32:39Z</time></trkpt><trkpt lat="33.30214552507907" lon="-7.5453575716691255"><ele>212.0</ele><time>2026-04-23T09:32:40Z</time></trkpt><trkpt lat="33.30184133027223" lon="-7.5454583204122265"><ele>212.0</ele><time>2026-04-23T09:32:41Z</time></trkpt><trkpt lat="33.30153603693012" lon="-7.545555817634545"><ele>212.0</ele><time>2026-04-23T09:32:42Z</time></trkpt><trkpt lat="33.30122734786211" lon="-7.545644491203719"><ele>212.0</ele><time>2026-04-23T09:32:43Z</time></trkpt><trkpt lat="33.300918570292886" lon="-7.545735978875941"><ele>212.0</ele><time>2026-04-23T09:32:44Z</time></trkpt><trkpt lat="33.30060625733386" lon="-7.545819961258639"><ele>213.0</ele><time>2026-04-23T09:32:45Z</time></trkpt><trkpt lat="33.30029082310721" lon="-7.5459033476107225"><ele>214.0</ele><time>2026-04-23T09:32:46Z</time></trkpt><trkpt lat="33.299975979367574" lon="-7.545980839496582"><ele>212.5</ele><time>2026-04-23T09:32:47Z</time></trkpt><trkpt lat="33.299658157878845" lon="-7.546050538766274"><ele>211.0</ele><time>2026-04-23T09:32:48Z</time></trkpt><trkpt lat="33.29934145478012" lon="-7.54612014993718"><ele>211.0</ele><time>2026-04-23T09:32:49Z</time></trkpt><trkpt lat="33.29902139146801" lon="-7.54617857274165"><ele>211.0</ele><time>2026-04-23T09:32:50Z</time></trkpt><trkpt lat="33.298702938183354" lon="-7.546234683881442"><ele>212.0</ele><time>2026-04-23T09:32:50.999Z</time></trkpt><trkpt lat="33.298385611557656" lon="-7.546287485279344"><ele>213.0</ele><time>2026-04-23T09:32:51.999Z</time></trkpt><trkpt lat="33.298063035480084" lon="-7.546331071464258"><ele>213.0</ele><time>2026-04-23T09:32:52.999Z</time></trkpt><trkpt lat="33.297739129831015" lon="-7.546365680005172"><ele>213.0</ele><time>2026-04-23T09:32:53.999Z</time></trkpt><trkpt lat="33.29741573280753" lon="-7.546399141772624"><ele>213.5</ele><time>2026-04-23T09:32:54.999Z</time></trkpt><trkpt lat="33.29709276253351" lon="-7.54641993620786"><ele>214.0</ele><time>2026-04-23T09:32:55.999Z</time></trkpt><trkpt lat="33.29677771856143" lon="-7.546443774760962"><ele>214.0</ele><time>2026-04-23T09:32:56.999Z</time></trkpt><trkpt lat="33.29645645365591" lon="-7.546465868953892"><ele>214.0</ele><time>2026-04-23T09:32:57.999Z</time></trkpt><trkpt lat="33.29613586914294" lon="-7.546483388191407"><ele>214.0</ele><time>2026-04-23T09:32:58.999Z</time></trkpt><trkpt lat="33.295813195670455" lon="-7.54649537446069"><ele>214.0</ele><time>2026-04-23T09:32:59.999Z</time></trkpt><trkpt lat="33.29549567473124" lon="-7.546511669980588"><ele>214.0</ele><time>2026-04-23T09:33:00.999Z</time></trkpt><trkpt lat="33.29518072146614" lon="-7.546526043698614"><ele>214.0</ele><time>2026-04-23T09:33:01.999Z</time></trkpt><trkpt lat="33.29486439052485" lon="-7.54653917940824"><ele>214.0</ele><time>2026-04-23T09:33:02.999Z</time></trkpt><trkpt lat="33.29454741521332" lon="-7.546553261134667"><ele>214.0</ele><time>2026-04-23T09:33:03.999Z</time></trkpt><trkpt lat="33.29423297879569" lon="-7.5465662710929555"><ele>214.5</ele><time>2026-04-23T09:33:04.999Z</time></trkpt><trkpt lat="33.29391525397364" lon="-7.546579494394792"><ele>215.0</ele><time>2026-04-23T09:33:05.999Z</time></trkpt><trkpt lat="33.29360002046731" lon="-7.546590268125115"><ele>215.0</ele><time>2026-04-23T09:33:06.999Z</time></trkpt><trkpt lat="33.29328194409254" lon="-7.546600804966601"><ele>215.0</ele><time>2026-04-23T09:33:07.999Z</time></trkpt><trkpt lat="33.29296160615854" lon="-7.5466135970055355"><ele>216.0</ele><time>2026-04-23T09:33:08.999Z</time></trkpt><trkpt lat="33.29264316980276" lon="-7.546631531331236"><ele>217.0</ele><time>2026-04-23T09:33:09.999Z</time></trkpt><trkpt lat="33.29232177644912" lon="-7.546656667243044"><ele>216.5</ele><time>2026-04-23T09:33:10.999Z</time></trkpt><trkpt lat="33.2920014924552" lon="-7.5466919086764355"><ele>216.0</ele><time>2026-04-23T09:33:11.999Z</time></trkpt><trkpt lat="33.291681260607" lon="-7.546741610157063"><ele>215.5</ele><time>2026-04-23T09:33:12.999Z</time></trkpt><trkpt lat="33.2913672707249" lon="-7.54680940656374"><ele>215.0</ele><time>2026-04-23T09:33:13.999Z</time></trkpt><trkpt lat="33.29105678016127" lon="-7.546897664399133"><ele>215.0</ele><time>2026-04-23T09:33:14.999Z</time></trkpt><trkpt lat="33.290749324621956" lon="-7.547000774469267"><ele>215.0</ele><time>2026-04-23T09:33:15.999Z</time></trkpt><trkpt lat="33.290447113259376" lon="-7.547125058368679"><ele>216.5</ele><time>2026-04-23T09:33:16.999Z</time></trkpt><trkpt lat="33.29014969390818" lon="-7.547268054981055"><ele>218.0</ele><time>2026-04-23T09:33:17.999Z</time></trkpt><trkpt lat="33.28985886049243" lon="-7.547420491950334"><ele>218.5</ele><time>2026-04-23T09:33:18.999Z</time></trkpt><trkpt lat="33.2895682667601" lon="-7.547573674759327"><ele>219.0</ele><time>2026-04-23T09:33:19.999Z</time></trkpt><trkpt lat="33.289275341820556" lon="-7.547735464869783"><ele>217.5</ele><time>2026-04-23T09:33:20.999Z</time></trkpt><trkpt lat="33.28899089816719" lon="-7.547893511853787"><ele>216.0</ele><time>2026-04-23T09:33:21.999Z</time></trkpt><trkpt lat="33.288727753497916" lon="-7.548036680731387"><ele>216.0</ele><time>2026-04-23T09:33:22.999Z</time></trkpt><trkpt lat="33.28847500741909" lon="-7.548174367146896"><ele>216.0</ele><time>2026-04-23T09:33:23.999Z</time></trkpt><trkpt lat="33.288228450899915" lon="-7.548304041290356"><ele>217.0</ele><time>2026-04-23T09:33:24.999Z</time></trkpt><trkpt lat="33.28797655999768" lon="-7.548424928044687"><ele>218.0</ele><time>2026-04-23T09:33:25.999Z</time></trkpt><trkpt lat="33.287716074350975" lon="-7.548542290931975"><ele>218.0</ele><time>2026-04-23T09:33:26.999Z</time></trkpt><trkpt lat="33.287449582751854" lon="-7.548644460092106"><ele>218.0</ele><time>2026-04-23T09:33:27.999Z</time></trkpt><trkpt lat="33.28717783462365" lon="-7.548722585609206"><ele>217.0</ele><time>2026-04-23T09:33:28.999Z</time></trkpt><trkpt lat="33.28690202261173" lon="-7.548794138191681"><ele>216.0</ele><time>2026-04-23T09:33:29.999Z</time></trkpt><trkpt lat="33.28662298720519" lon="-7.548844429565851"><ele>217.0</ele><time>2026-04-23T09:33:30.999Z</time></trkpt><trkpt lat="33.28633995303546" lon="-7.548880901245938"><ele>218.0</ele><time>2026-04-23T09:33:31.999Z</time></trkpt><trkpt lat="33.28605856051122" lon="-7.548904833660169"><ele>218.0</ele><time>2026-04-23T09:33:32.999Z</time></trkpt><trkpt lat="33.28577357773329" lon="-7.54890947799142"><ele>218.0</ele><time>2026-04-23T09:33:33.999Z</time></trkpt><trkpt lat="33.28548547384085" lon="-7.548896913133054"><ele>218.0</ele><time>2026-04-23T09:33:34.999Z</time></trkpt><trkpt lat="33.28519968047878" lon="-7.54887031996821"><ele>218.0</ele><time>2026-04-23T09:33:35.999Z</time></trkpt><trkpt lat="33.28491407542018" lon="-7.548819894060266"><ele>217.5</ele><time>2026-04-23T09:33:36.999Z</time></trkpt><trkpt lat="33.284632605574906" lon="-7.548758446526037"><ele>217.0</ele><time>2026-04-23T09:33:37.999Z</time></trkpt><trkpt lat="33.28434955899746" lon="-7.548679861484205"><ele>217.0</ele><time>2026-04-23T09:33:38.999Z</time></trkpt><trkpt lat="33.284067866499534" lon="-7.548584907988858"><ele>217.0</ele><time>2026-04-23T09:33:39.999Z</time></trkpt><trkpt lat="33.28379453872091" lon="-7.548477140401851"><ele>216.5</ele><time>2026-04-23T09:33:40.999Z</time></trkpt><trkpt lat="33.28351838763134" lon="-7.548348116854445"><ele>216.0</ele><time>2026-04-23T09:33:41.999Z</time></trkpt><trkpt lat="33.28324247541464" lon="-7.548205336288193"><ele>217.0</ele><time>2026-04-23T09:33:42.999Z</time></trkpt><trkpt lat="33.28296705264392" lon="-7.548059354516153"><ele>218.0</ele><time>2026-04-23T09:33:43.999Z</time></trkpt><trkpt lat="33.28268729503353" lon="-7.547909184304104"><ele>218.0</ele><time>2026-04-23T09:33:44.999Z</time></trkpt><trkpt lat="33.28240397560197" lon="-7.54776981005609"><ele>218.0</ele><time>2026-04-23T09:33:45.999Z</time></trkpt><trkpt lat="33.28211709692813" lon="-7.547647835630925"><ele>218.0</ele><time>2026-04-23T09:33:46.999Z</time></trkpt><trkpt lat="33.281821756527435" lon="-7.547538515619294"><ele>218.0</ele><time>2026-04-23T09:33:47.999Z</time></trkpt><trkpt lat="33.2815229299473" lon="-7.547447579511227"><ele>218.0</ele><time>2026-04-23T09:33:48.999Z</time></trkpt><trkpt lat="33.281223906316626" lon="-7.547368953157805"><ele>218.0</ele><time>2026-04-23T09:33:49.999Z</time></trkpt><trkpt lat="33.28092551177229" lon="-7.547308323245504"><ele>218.0</ele><time>2026-04-23T09:33:50.999Z</time></trkpt><trkpt lat="33.280623041208464" lon="-7.547270272648177"><ele>218.0</ele><time>2026-04-23T09:33:51.999Z</time></trkpt><trkpt lat="33.28031750920435" lon="-7.547255528589429"><ele>219.0</ele><time>2026-04-23T09:33:52.999Z</time></trkpt><trkpt lat="33.280010805343004" lon="-7.547255313034497"><ele>220.0</ele><time>2026-04-23T09:33:54Z</time></trkpt><trkpt lat="33.27969812013237" lon="-7.5472570869031985"><ele>220.0</ele><time>2026-04-23T09:33:55Z</time></trkpt><trkpt lat="33.27938283010256" lon="-7.5472629151592034"><ele>220.0</ele><time>2026-04-23T09:33:56Z</time></trkpt><trkpt lat="33.27906603810966" lon="-7.547271507663034"><ele>219.5</ele><time>2026-04-23T09:33:57Z</time></trkpt><trkpt lat="33.27874920489092" lon="-7.547274290726301"><ele>219.0</ele><time>2026-04-23T09:33:58Z</time></trkpt><trkpt lat="33.27843191244501" lon="-7.5472805689966505"><ele>219.0</ele><time>2026-04-23T09:33:59Z</time></trkpt><trkpt lat="33.27811309403545" lon="-7.54728518203946"><ele>219.0</ele><time>2026-04-23T09:34:00Z</time></trkpt><trkpt lat="33.2777923256265" lon="-7.547294156205677"><ele>218.5</ele><time>2026-04-23T09:34:01Z</time></trkpt><trkpt lat="33.2774667783906" lon="-7.54730086272521"><ele>218.0</ele><time>2026-04-23T09:34:02Z</time></trkpt><trkpt lat="33.27714437089668" lon="-7.54730419325562"><ele>218.0</ele><time>2026-04-23T09:34:03Z</time></trkpt><trkpt lat="33.276819840054" lon="-7.547314205822737"><ele>218.0</ele><time>2026-04-23T09:34:04Z</time></trkpt><trkpt lat="33.27649591062409" lon="-7.547327156537812"><ele>219.0</ele><time>2026-04-23T09:34:05Z</time></trkpt><trkpt lat="33.27617301841356" lon="-7.547337140915169"><ele>220.0</ele><time>2026-04-23T09:34:06Z</time></trkpt><trkpt lat="33.27584938480362" lon="-7.5473501211481215"><ele>220.5</ele><time>2026-04-23T09:34:07Z</time></trkpt><trkpt lat="33.27552549666998" lon="-7.547368477659421"><ele>221.0</ele><time>2026-04-23T09:34:08Z</time></trkpt><trkpt lat="33.275209328014874" lon="-7.547398450178439"><ele>221.0</ele><time>2026-04-23T09:34:09Z</time></trkpt><trkpt lat="33.27488669100533" lon="-7.547432876600204"><ele>221.0</ele><time>2026-04-23T09:34:10Z</time></trkpt><trkpt lat="33.27456720450991" lon="-7.547478636106026"><ele>221.0</ele><time>2026-04-23T09:34:11Z</time></trkpt><trkpt lat="33.27424898998582" lon="-7.547527373352834"><ele>221.0</ele><time>2026-04-23T09:34:12Z</time></trkpt><trkpt lat="33.273926872936016" lon="-7.547578668114224"><ele>221.0</ele><time>2026-04-23T09:34:13Z</time></trkpt><trkpt lat="33.273609827498376" lon="-7.5476418016408875"><ele>221.0</ele><time>2026-04-23T09:34:14Z</time></trkpt><trkpt lat="33.27329178582276" lon="-7.547712506211742"><ele>220.5</ele><time>2026-04-23T09:34:15Z</time></trkpt><trkpt lat="33.2729776522108" lon="-7.547786393787249"><ele>220.0</ele><time>2026-04-23T09:34:16Z</time></trkpt><trkpt lat="33.27265959803078" lon="-7.547870681218648"><ele>220.0</ele><time>2026-04-23T09:34:17Z</time></trkpt><trkpt lat="33.27234961493534" lon="-7.547962068056433"><ele>220.0</ele><time>2026-04-23T09:34:18Z</time></trkpt><trkpt lat="33.272039358639624" lon="-7.548061852212663"><ele>220.0</ele><time>2026-04-23T09:34:19Z</time></trkpt><trkpt lat="33.27173136932926" lon="-7.548172122160321"><ele>220.0</ele><time>2026-04-23T09:34:20Z</time></trkpt><trkpt lat="33.27141821349803" lon="-7.548287938677804"><ele>220.0</ele><time>2026-04-23T09:34:21Z</time></trkpt><trkpt lat="33.2711100809415" lon="-7.548403030614253"><ele>220.0</ele><time>2026-04-23T09:34:22Z</time></trkpt><trkpt lat="33.27080290420605" lon="-7.548530716004456"><ele>220.5</ele><time>2026-04-23T09:34:23Z</time></trkpt><trkpt lat="33.2704976642924" lon="-7.548663400275235"><ele>221.0</ele><time>2026-04-23T09:34:24Z</time></trkpt><trkpt lat="33.2701962795381" lon="-7.548797445978231"><ele>221.0</ele><time>2026-04-23T09:34:25Z</time></trkpt><trkpt lat="33.269896985663834" lon="-7.548939555849406"><ele>221.0</ele><time>2026-04-23T09:34:26Z</time></trkpt><trkpt lat="33.2696007935756" lon="-7.549096083950642"><ele>221.5</ele><time>2026-04-23T09:34:27Z</time></trkpt><trkpt lat="33.26930269625384" lon="-7.549251564071964"><ele>222.0</ele><time>2026-04-23T09:34:28Z</time></trkpt><trkpt lat="33.26901218764029" lon="-7.549417611096374"><ele>222.0</ele><time>2026-04-23T09:34:29Z</time></trkpt><trkpt lat="33.26872509068603" lon="-7.549590233633662"><ele>222.0</ele><time>2026-04-23T09:34:30Z</time></trkpt><trkpt lat="33.26843866071616" lon="-7.549764455493455"><ele>222.0</ele><time>2026-04-23T09:34:31Z</time></trkpt><trkpt lat="33.26815559720578" lon="-7.549947487120606"><ele>222.0</ele><time>2026-04-23T09:34:32Z</time></trkpt><trkpt lat="33.26787527082219" lon="-7.550135987040553"><ele>222.0</ele><time>2026-04-23T09:34:33Z</time></trkpt><trkpt lat="33.267594021212375" lon="-7.550329496712186"><ele>222.0</ele><time>2026-04-23T09:34:34Z</time></trkpt><trkpt lat="33.26731091614226" lon="-7.5505241982639255"><ele>222.0</ele><time>2026-04-23T09:34:35Z</time></trkpt><trkpt lat="33.26703469605242" lon="-7.55072727033783"><ele>222.0</ele><time>2026-04-23T09:34:36Z</time></trkpt><trkpt lat="33.266756962317636" lon="-7.550933997821115"><ele>222.0</ele><time>2026-04-23T09:34:37Z</time></trkpt><trkpt lat="33.26648254926503" lon="-7.551143737271465"><ele>222.0</ele><time>2026-04-23T09:34:38Z</time></trkpt><trkpt lat="33.266212239738756" lon="-7.551354111411175"><ele>222.5</ele><time>2026-04-23T09:34:39Z</time></trkpt><trkpt lat="33.265940836254174" lon="-7.55156528859177"><ele>223.0</ele><time>2026-04-23T09:34:40Z</time></trkpt><trkpt lat="33.26567082450627" lon="-7.551779981377974"><ele>224.0</ele><time>2026-04-23T09:34:41Z</time></trkpt><trkpt lat="33.26539849401356" lon="-7.5519929472131055"><ele>225.0</ele><time>2026-04-23T09:34:42Z</time></trkpt><trkpt lat="33.26512313274622" lon="-7.552205347336348"><ele>225.5</ele><time>2026-04-23T09:34:43Z</time></trkpt><trkpt lat="33.26485312470607" lon="-7.552414254940945"><ele>226.0</ele><time>2026-04-23T09:34:44Z</time></trkpt><trkpt lat="33.2645801297877" lon="-7.552620441029203"><ele>225.5</ele><time>2026-04-23T09:34:45Z</time></trkpt><trkpt lat="33.26430867110714" lon="-7.552825419125587"><ele>225.0</ele><time>2026-04-23T09:34:46Z</time></trkpt><trkpt lat="33.26403463179287" lon="-7.553029387070924"><ele>224.0</ele><time>2026-04-23T09:34:47Z</time></trkpt><trkpt lat="33.2637611723699" lon="-7.553233426521209"><ele>223.0</ele><time>2026-04-23T09:34:48Z</time></trkpt><trkpt lat="33.26349312635946" lon="-7.553437326051105"><ele>223.0</ele><time>2026-04-23T09:34:49Z</time></trkpt><trkpt lat="33.26323117077978" lon="-7.553639180420346"><ele>223.0</ele><time>2026-04-23T09:34:50Z</time></trkpt><trkpt lat="33.26297217152268" lon="-7.5538401693883666"><ele>222.0</ele><time>2026-04-23T09:34:51Z</time></trkpt><trkpt lat="33.26272079007937" lon="-7.554036683779675"><ele>221.0</ele><time>2026-04-23T09:34:52Z</time></trkpt><trkpt lat="33.26247466248904" lon="-7.554225138317908"><ele>221.0</ele><time>2026-04-23T09:34:53Z</time></trkpt><trkpt lat="33.26222853137083" lon="-7.554416845048687"><ele>221.0</ele><time>2026-04-23T09:34:54Z</time></trkpt><trkpt lat="33.26198532614459" lon="-7.554602689953465"><ele>221.0</ele><time>2026-04-23T09:34:55Z</time></trkpt><trkpt lat="33.26174167720245" lon="-7.554787358756763"><ele>221.0</ele><time>2026-04-23T09:34:56Z</time></trkpt><trkpt lat="33.261497046878596" lon="-7.554977919330162"><ele>220.5</ele><time>2026-04-23T09:34:57Z</time></trkpt><trkpt lat="33.26125288842413" lon="-7.555168368957646"><ele>220.0</ele><time>2026-04-23T09:34:58Z</time></trkpt><trkpt lat="33.26100739084853" lon="-7.555361985597607"><ele>221.0</ele><time>2026-04-23T09:34:59Z</time></trkpt><trkpt lat="33.26075814228643" lon="-7.555554290249579"><ele>222.0</ele><time>2026-04-23T09:35:00Z</time></trkpt><trkpt lat="33.260505108759965" lon="-7.5557506548577535"><ele>223.0</ele><time>2026-04-23T09:35:01Z</time></trkpt><trkpt lat="33.260249650803104" lon="-7.555951934692011"><ele>224.0</ele><time>2026-04-23T09:35:02Z</time></trkpt><trkpt lat="33.259988010568414" lon="-7.556148378797908"><ele>223.5</ele><time>2026-04-23T09:35:03Z</time></trkpt><trkpt lat="33.25972195787612" lon="-7.556349753409604"><ele>223.0</ele><time>2026-04-23T09:35:04Z</time></trkpt><trkpt lat="33.259450005466206" lon="-7.55654682746567"><ele>223.0</ele><time>2026-04-23T09:35:05Z</time></trkpt><trkpt lat="33.25917750541401" lon="-7.5567417976141655"><ele>223.0</ele><time>2026-04-23T09:35:06Z</time></trkpt><trkpt lat="33.25890441701673" lon="-7.556939391817673"><ele>223.5</ele><time>2026-04-23T09:35:07Z</time></trkpt><trkpt lat="33.258629797905634" lon="-7.5571340918429435"><ele>224.0</ele><time>2026-04-23T09:35:08Z</time></trkpt><trkpt lat="33.25835076485818" lon="-7.557323533179349"><ele>223.5</ele><time>2026-04-23T09:35:09Z</time></trkpt><trkpt lat="33.25806453968202" lon="-7.5575107137937225"><ele>223.0</ele><time>2026-04-23T09:35:10Z</time></trkpt><trkpt lat="33.257780049418805" lon="-7.5576939165413775"><ele>223.0</ele><time>2026-04-23T09:35:11Z</time></trkpt><trkpt lat="33.25749480632498" lon="-7.557874251636448"><ele>223.0</ele><time>2026-04-23T09:35:12Z</time></trkpt><trkpt lat="33.25721069292412" lon="-7.558054423603334"><ele>223.0</ele><time>2026-04-23T09:35:13Z</time></trkpt><trkpt lat="33.25691941188329" lon="-7.558235711872857"><ele>223.0</ele><time>2026-04-23T09:35:14Z</time></trkpt><trkpt lat="33.25663875034474" lon="-7.558414741103728"><ele>223.0</ele><time>2026-04-23T09:35:15Z</time></trkpt><trkpt lat="33.25635441076058" lon="-7.558597581978975"><ele>223.0</ele><time>2026-04-23T09:35:15.999Z</time></trkpt><trkpt lat="33.256067957114695" lon="-7.558776197762764"><ele>223.0</ele><time>2026-04-23T09:35:16.999Z</time></trkpt><trkpt lat="33.25578527431946" lon="-7.5589515527980025"><ele>223.0</ele><time>2026-04-23T09:35:17.999Z</time></trkpt><trkpt lat="33.255500865528255" lon="-7.559130119771629"><ele>222.0</ele><time>2026-04-23T09:35:18.999Z</time></trkpt><trkpt lat="33.25521430658154" lon="-7.559310068230816"><ele>221.0</ele><time>2026-04-23T09:35:19.999Z</time></trkpt><trkpt lat="33.254927601181116" lon="-7.559492486180214"><ele>221.0</ele><time>2026-04-23T09:35:20.999Z</time></trkpt><trkpt lat="33.25463670276481" lon="-7.55967570436679"><ele>221.0</ele><time>2026-04-23T09:35:21.999Z</time></trkpt><trkpt lat="33.25434841411321" lon="-7.559853542099895"><ele>221.0</ele><time>2026-04-23T09:35:22.999Z</time></trkpt><trkpt lat="33.25406469069278" lon="-7.5600294139841235"><ele>221.0</ele><time>2026-04-23T09:35:23.999Z</time></trkpt><trkpt lat="33.253776917831566" lon="-7.56020619290473"><ele>221.0</ele><time>2026-04-23T09:35:24.999Z</time></trkpt><trkpt lat="33.25348879464713" lon="-7.5603855440624175"><ele>221.0</ele><time>2026-04-23T09:35:25.999Z</time></trkpt><trkpt lat="33.2532038023923" lon="-7.560567774915408"><ele>220.5</ele><time>2026-04-23T09:35:26.999Z</time></trkpt><trkpt lat="33.252913154784096" lon="-7.56074793938822"><ele>220.0</ele><time>2026-04-23T09:35:27.999Z</time></trkpt><trkpt lat="33.25262560732076" lon="-7.560929117520664"><ele>220.0</ele><time>2026-04-23T09:35:28.999Z</time></trkpt><trkpt lat="33.25234112398677" lon="-7.561106154420124"><ele>220.0</ele><time>2026-04-23T09:35:29.999Z</time></trkpt><trkpt lat="33.25205260921938" lon="-7.561288017433257"><ele>220.5</ele><time>2026-04-23T09:35:30.999Z</time></trkpt><trkpt lat="33.25176676492991" lon="-7.561468295272695"><ele>221.0</ele><time>2026-04-23T09:35:31.999Z</time></trkpt><trkpt lat="33.25148170281911" lon="-7.561646146298073"><ele>222.0</ele><time>2026-04-23T09:35:32.999Z</time></trkpt><trkpt lat="33.251192197669525" lon="-7.561827044255723"><ele>223.0</ele><time>2026-04-23T09:35:33.999Z</time></trkpt><trkpt lat="33.250908614666834" lon="-7.5620060501947535"><ele>221.5</ele><time>2026-04-23T09:35:34.999Z</time></trkpt><trkpt lat="33.25062444505603" lon="-7.562185962371238"><ele>220.0</ele><time>2026-04-23T09:35:35.999Z</time></trkpt><trkpt lat="33.250340588040274" lon="-7.562364412795341"><ele>220.0</ele><time>2026-04-23T09:35:36.999Z</time></trkpt><trkpt lat="33.25005454794972" lon="-7.562542593349853"><ele>220.0</ele><time>2026-04-23T09:35:37.999Z</time></trkpt><trkpt lat="33.24976734419546" lon="-7.562720024963869"><ele>220.5</ele><time>2026-04-23T09:35:38.999Z</time></trkpt><trkpt lat="33.24947860034059" lon="-7.562900758362104"><ele>221.0</ele><time>2026-04-23T09:35:39.999Z</time></trkpt><trkpt lat="33.24919394255084" lon="-7.5630808108554035"><ele>222.5</ele><time>2026-04-23T09:35:40.999Z</time></trkpt><trkpt lat="33.24891006112412" lon="-7.563259372064436"><ele>224.0</ele><time>2026-04-23T09:35:41.999Z</time></trkpt><trkpt lat="33.24862538231699" lon="-7.563441367439918"><ele>224.0</ele><time>2026-04-23T09:35:42.999Z</time></trkpt><trkpt lat="33.248341525938955" lon="-7.563622438008269"><ele>224.0</ele><time>2026-04-23T09:35:43.999Z</time></trkpt><trkpt lat="33.2480553266113" lon="-7.563803301797728"><ele>222.5</ele><time>2026-04-23T09:35:44.999Z</time></trkpt><trkpt lat="33.24776855844226" lon="-7.563978292552064"><ele>221.0</ele><time>2026-04-23T09:35:45.999Z</time></trkpt><trkpt lat="33.24749562479682" lon="-7.564151495789254"><ele>221.0</ele><time>2026-04-23T09:35:46.999Z</time></trkpt><trkpt lat="33.24724101842554" lon="-7.56431116732181"><ele>221.0</ele><time>2026-04-23T09:35:47.999Z</time></trkpt><trkpt lat="33.246998214081444" lon="-7.564464179858032"><ele>221.0</ele><time>2026-04-23T09:35:48.999Z</time></trkpt><trkpt lat="33.24676607309893" lon="-7.564605556610711"><ele>221.0</ele><time>2026-04-23T09:35:49.999Z</time></trkpt><trkpt lat="33.2465322539833" lon="-7.564756365210769"><ele>220.5</ele><time>2026-04-23T09:35:50.999Z</time></trkpt><trkpt lat="33.246292834473145" lon="-7.5649040142284"><ele>220.0</ele><time>2026-04-23T09:35:51.999Z</time></trkpt><trkpt lat="33.2460519955648" lon="-7.565054074684053"><ele>220.0</ele><time>2026-04-23T09:35:52.999Z</time></trkpt><trkpt lat="33.2458064626732" lon="-7.5652092084774925"><ele>220.0</ele><time>2026-04-23T09:35:53.999Z</time></trkpt><trkpt lat="33.24556038651147" lon="-7.565361434697777"><ele>220.0</ele><time>2026-04-23T09:35:54.999Z</time></trkpt><trkpt lat="33.24531145014057" lon="-7.56551855294464"><ele>220.0</ele><time>2026-04-23T09:35:55.999Z</time></trkpt><trkpt lat="33.2450564536141" lon="-7.565679549482469"><ele>220.0</ele><time>2026-04-23T09:35:56.999Z</time></trkpt><trkpt lat="33.24479740859091" lon="-7.5658423011393605"><ele>220.0</ele><time>2026-04-23T09:35:57.999Z</time></trkpt><trkpt lat="33.24453782455071" lon="-7.566007108263248"><ele>221.0</ele><time>2026-04-23T09:35:58.999Z</time></trkpt><trkpt lat="33.24427418264428" lon="-7.566167928467062"><ele>222.0</ele><time>2026-04-23T09:36:00Z</time></trkpt><trkpt lat="33.24401057122872" lon="-7.5663346391048565"><ele>224.0</ele><time>2026-04-23T09:36:01Z</time></trkpt><trkpt lat="33.24374450688255" lon="-7.5665001209221305"><ele>226.0</ele><time>2026-04-23T09:36:02Z</time></trkpt><trkpt lat="33.2434790241846" lon="-7.566669510823166"><ele>226.0</ele><time>2026-04-23T09:36:03Z</time></trkpt><trkpt lat="33.24321341749787" lon="-7.566837236143708"><ele>226.0</ele><time>2026-04-23T09:36:04Z</time></trkpt><trkpt lat="33.24294586501492" lon="-7.567004755009373"><ele>225.0</ele><time>2026-04-23T09:36:05Z</time></trkpt><trkpt lat="33.2426773653046" lon="-7.567174947050504"><ele>224.0</ele><time>2026-04-23T09:36:06Z</time></trkpt><trkpt lat="33.24240411954685" lon="-7.567346092463944"><ele>223.5</ele><time>2026-04-23T09:36:07Z</time></trkpt><trkpt lat="33.24212392177491" lon="-7.567521208233979"><ele>223.0</ele><time>2026-04-23T09:36:08Z</time></trkpt><trkpt lat="33.241840830060084" lon="-7.567703378647608"><ele>223.5</ele><time>2026-04-23T09:36:09Z</time></trkpt><trkpt lat="33.241558316958255" lon="-7.5678804690303485"><ele>224.0</ele><time>2026-04-23T09:36:10Z</time></trkpt><trkpt lat="33.241274740301485" lon="-7.568057019371955"><ele>224.0</ele><time>2026-04-23T09:36:11Z</time></trkpt><trkpt lat="33.24098875670559" lon="-7.568238635959578"><ele>224.0</ele><time>2026-04-23T09:36:12Z</time></trkpt><trkpt lat="33.24069990309528" lon="-7.568412180226064"><ele>224.0</ele><time>2026-04-23T09:36:13Z</time></trkpt><trkpt lat="33.24041073842751" lon="-7.568587624229302"><ele>224.0</ele><time>2026-04-23T09:36:14Z</time></trkpt><trkpt lat="33.24012194756711" lon="-7.56875407736281"><ele>224.0</ele><time>2026-04-23T09:36:15Z</time></trkpt><trkpt lat="33.239840659091044" lon="-7.568918899850413"><ele>224.0</ele><time>2026-04-23T09:36:16Z</time></trkpt><trkpt lat="33.23956258796979" lon="-7.569074979162457"><ele>224.5</ele><time>2026-04-23T09:36:17Z</time></trkpt><trkpt lat="33.2392906384919" lon="-7.569229977122487"><ele>225.0</ele><time>2026-04-23T09:36:18Z</time></trkpt><trkpt lat="33.23902099092497" lon="-7.569378641433472"><ele>225.0</ele><time>2026-04-23T09:36:19Z</time></trkpt><trkpt lat="33.23875475661813" lon="-7.569525716241309"><ele>225.0</ele><time>2026-04-23T09:36:20Z</time></trkpt><trkpt lat="33.23849193212096" lon="-7.569665547934645"><ele>225.0</ele><time>2026-04-23T09:36:21Z</time></trkpt><trkpt lat="33.23823244731802" lon="-7.569798964310228"><ele>225.0</ele><time>2026-04-23T09:36:22Z</time></trkpt><trkpt lat="33.23797518287069" lon="-7.569936413115581"><ele>224.5</ele><time>2026-04-23T09:36:23Z</time></trkpt><trkpt lat="33.23771853102273" lon="-7.570064713565249"><ele>224.0</ele><time>2026-04-23T09:36:24Z</time></trkpt><trkpt lat="33.237466000049814" lon="-7.570197363652654"><ele>224.5</ele><time>2026-04-23T09:36:25Z</time></trkpt><trkpt lat="33.237212383737145" lon="-7.570322984511982"><ele>225.0</ele><time>2026-04-23T09:36:26Z</time></trkpt><trkpt lat="33.236961424544155" lon="-7.570442422874096"><ele>225.0</ele><time>2026-04-23T09:36:27Z</time></trkpt><trkpt lat="33.236708753738945" lon="-7.5705586243757095"><ele>225.0</ele><time>2026-04-23T09:36:28Z</time></trkpt><trkpt lat="33.236462194741705" lon="-7.57066998450696"><ele>225.0</ele><time>2026-04-23T09:36:29Z</time></trkpt><trkpt lat="33.23620887817671" lon="-7.570779263549567"><ele>225.0</ele><time>2026-04-23T09:36:30Z</time></trkpt><trkpt lat="33.23595610578197" lon="-7.570893173760619"><ele>225.0</ele><time>2026-04-23T09:36:31Z</time></trkpt><trkpt lat="33.23570255520238" lon="-7.571001606946076"><ele>225.0</ele><time>2026-04-23T09:36:32Z</time></trkpt><trkpt lat="33.23545323558668" lon="-7.571109692767475"><ele>225.5</ele><time>2026-04-23T09:36:33Z</time></trkpt><trkpt lat="33.23520542978899" lon="-7.571220784926117"><ele>226.0</ele><time>2026-04-23T09:36:34Z</time></trkpt><trkpt lat="33.23495309080908" lon="-7.571327424155005"><ele>225.5</ele><time>2026-04-23T09:36:35Z</time></trkpt><trkpt lat="33.234700548895184" lon="-7.571435358017256"><ele>225.0</ele><time>2026-04-23T09:36:36Z</time></trkpt><trkpt lat="33.23444124250553" lon="-7.571533560013482"><ele>225.0</ele><time>2026-04-23T09:36:37Z</time></trkpt><trkpt lat="33.234187008272805" lon="-7.57163527527039"><ele>225.0</ele><time>2026-04-23T09:36:38Z</time></trkpt><trkpt lat="33.23393066278622" lon="-7.571735483801381"><ele>225.5</ele><time>2026-04-23T09:36:39Z</time></trkpt><trkpt lat="33.23367320476125" lon="-7.571834783130076"><ele>226.0</ele><time>2026-04-23T09:36:40Z</time></trkpt><trkpt lat="33.23341774466269" lon="-7.57193079252408"><ele>226.0</ele><time>2026-04-23T09:36:41Z</time></trkpt><trkpt lat="33.23315679598653" lon="-7.572022595609421"><ele>226.0</ele><time>2026-04-23T09:36:42Z</time></trkpt><trkpt lat="33.232897671675715" lon="-7.572112986618154"><ele>226.5</ele><time>2026-04-23T09:36:43Z</time></trkpt><trkpt lat="33.232641250125596" lon="-7.572209316825298"><ele>227.0</ele><time>2026-04-23T09:36:44Z</time></trkpt><trkpt lat="33.23237112352341" lon="-7.572298926344034"><ele>228.0</ele><time>2026-04-23T09:36:45Z</time></trkpt><trkpt lat="33.232092228390535" lon="-7.572392478735771"><ele>229.0</ele><time>2026-04-23T09:36:46Z</time></trkpt><trkpt lat="33.23180754013379" lon="-7.572483104211609"><ele>229.0</ele><time>2026-04-23T09:36:47Z</time></trkpt><trkpt lat="33.23151499639311" lon="-7.5725734441362205"><ele>229.0</ele><time>2026-04-23T09:36:48Z</time></trkpt><trkpt lat="33.23121275029768" lon="-7.572665228220369"><ele>228.5</ele><time>2026-04-23T09:36:49Z</time></trkpt><trkpt lat="33.23090632110028" lon="-7.572756199180288"><ele>228.0</ele><time>2026-04-23T09:36:50Z</time></trkpt><trkpt lat="33.23059420483796" lon="-7.57284464651517"><ele>227.0</ele><time>2026-04-23T09:36:51Z</time></trkpt><trkpt lat="33.230280297857995" lon="-7.5729299877476555"><ele>226.0</ele><time>2026-04-23T09:36:52Z</time></trkpt><trkpt lat="33.22996464410791" lon="-7.573013423052692"><ele>226.0</ele><time>2026-04-23T09:36:53Z</time></trkpt><trkpt lat="33.22965075748604" lon="-7.573097299224255"><ele>226.0</ele><time>2026-04-23T09:36:54Z</time></trkpt><trkpt lat="33.22933415686311" lon="-7.573178153773133"><ele>226.0</ele><time>2026-04-23T09:36:55Z</time></trkpt><trkpt lat="33.22901781706341" lon="-7.573252894682151"><ele>226.0</ele><time>2026-04-23T09:36:56Z</time></trkpt><trkpt lat="33.22870025314505" lon="-7.573329165879441"><ele>227.0</ele><time>2026-04-23T09:36:57Z</time></trkpt><trkpt lat="33.22838329212238" lon="-7.573405576702607"><ele>228.0</ele><time>2026-04-23T09:36:58Z</time></trkpt><trkpt lat="33.22806692028941" lon="-7.573478550678707"><ele>228.5</ele><time>2026-04-23T09:36:59Z</time></trkpt><trkpt lat="33.22775195015019" lon="-7.5735442854514545"><ele>229.0</ele><time>2026-04-23T09:37:00Z</time></trkpt><trkpt lat="33.22743340355466" lon="-7.57360770989493"><ele>229.0</ele><time>2026-04-23T09:37:01Z</time></trkpt><trkpt lat="33.227114809150834" lon="-7.573667560362384"><ele>229.0</ele><time>2026-04-23T09:37:02Z</time></trkpt><trkpt lat="33.22679671257282" lon="-7.573725449648125"><ele>228.0</ele><time>2026-04-23T09:37:03Z</time></trkpt><trkpt lat="33.22649891705182" lon="-7.573777584138227"><ele>227.0</ele><time>2026-04-23T09:37:04Z</time></trkpt><trkpt lat="33.22621141829403" lon="-7.573825256698605"><ele>226.5</ele><time>2026-04-23T09:37:05Z</time></trkpt><trkpt lat="33.22593711802796" lon="-7.573866708998451"><ele>226.0</ele><time>2026-04-23T09:37:06Z</time></trkpt><trkpt lat="33.22567054183286" lon="-7.573908380615798"><ele>226.5</ele><time>2026-04-23T09:37:07Z</time></trkpt><trkpt lat="33.22540077413795" lon="-7.573944768011826"><ele>227.0</ele><time>2026-04-23T09:37:08Z</time></trkpt><trkpt lat="33.225126320566346" lon="-7.573985411724557"><ele>227.0</ele><time>2026-04-23T09:37:09Z</time></trkpt><trkpt lat="33.22484223546762" lon="-7.574024470131093"><ele>227.0</ele><time>2026-04-23T09:37:10Z</time></trkpt><trkpt lat="33.224565118328336" lon="-7.574060561829803"><ele>228.5</ele><time>2026-04-23T09:37:10.999Z</time></trkpt><trkpt lat="33.224282659227114" lon="-7.574091383698442"><ele>230.0</ele><time>2026-04-23T09:37:11.999Z</time></trkpt><trkpt lat="33.223998191809564" lon="-7.574120566697208"><ele>230.0</ele><time>2026-04-23T09:37:12.999Z</time></trkpt><trkpt lat="33.223711955888454" lon="-7.574150028112173"><ele>230.0</ele><time>2026-04-23T09:37:13.999Z</time></trkpt><trkpt lat="33.223426560271854" lon="-7.574172257911881"><ele>229.5</ele><time>2026-04-23T09:37:14.999Z</time></trkpt><trkpt lat="33.223140548660204" lon="-7.5741941508189585"><ele>229.0</ele><time>2026-04-23T09:37:15.999Z</time></trkpt><trkpt lat="33.22285315807094" lon="-7.574216768398824"><ele>229.0</ele><time>2026-04-23T09:37:16.999Z</time></trkpt><trkpt lat="33.222567152947256" lon="-7.574237667515494"><ele>229.0</ele><time>2026-04-23T09:37:17.999Z</time></trkpt><trkpt lat="33.222282293538775" lon="-7.574254686654059"><ele>229.5</ele><time>2026-04-23T09:37:18.999Z</time></trkpt><trkpt lat="33.221998882309215" lon="-7.574275483681687"><ele>230.0</ele><time>2026-04-23T09:37:19.999Z</time></trkpt><trkpt lat="33.22171954246165" lon="-7.574296916505453"><ele>229.5</ele><time>2026-04-23T09:37:20.999Z</time></trkpt><trkpt lat="33.221444021840526" lon="-7.574321115602533"><ele>229.0</ele><time>2026-04-23T09:37:21.999Z</time></trkpt><trkpt lat="33.22116995560531" lon="-7.574342076635642"><ele>229.0</ele><time>2026-04-23T09:37:22.999Z</time></trkpt><trkpt lat="33.220895848288414" lon="-7.574360697263946"><ele>229.0</ele><time>2026-04-23T09:37:23.999Z</time></trkpt><trkpt lat="33.220621318105955" lon="-7.5743854996489945"><ele>227.5</ele><time>2026-04-23T09:37:24.999Z</time></trkpt><trkpt lat="33.22034527615358" lon="-7.574405328353917"><ele>226.0</ele><time>2026-04-23T09:37:25.999Z</time></trkpt><trkpt lat="33.220069822492796" lon="-7.5744255442530575"><ele>225.5</ele><time>2026-04-23T09:37:26.999Z</time></trkpt><trkpt lat="33.21979530459914" lon="-7.574445516368523"><ele>225.0</ele><time>2026-04-23T09:37:27.999Z</time></trkpt><trkpt lat="33.21952042958671" lon="-7.574465159742578"><ele>225.0</ele><time>2026-04-23T09:37:28.999Z</time></trkpt><trkpt lat="33.21924656557253" lon="-7.574486548633961"><ele>225.0</ele><time>2026-04-23T09:37:29.999Z</time></trkpt><trkpt lat="33.21897440162851" lon="-7.574506477173408"><ele>224.5</ele><time>2026-04-23T09:37:30.999Z</time></trkpt><trkpt lat="33.21870605109453" lon="-7.574522309401361"><ele>224.0</ele><time>2026-04-23T09:37:31.999Z</time></trkpt><trkpt lat="33.218434773806926" lon="-7.574545488870233"><ele>224.0</ele><time>2026-04-23T09:37:32.999Z</time></trkpt><trkpt lat="33.2181657927903" lon="-7.574567545648277"><ele>224.0</ele><time>2026-04-23T09:37:33.999Z</time></trkpt><trkpt lat="33.21789170798052" lon="-7.574587790228119"><ele>224.5</ele><time>2026-04-23T09:37:34.999Z</time></trkpt><trkpt lat="33.21761927720123" lon="-7.574609651672813"><ele>225.0</ele><time>2026-04-23T09:37:35.999Z</time></trkpt><trkpt lat="33.217348195924394" lon="-7.5746309211069285"><ele>223.5</ele><time>2026-04-23T09:37:36.999Z</time></trkpt><trkpt lat="33.21707928506985" lon="-7.574655625142184"><ele>222.0</ele><time>2026-04-23T09:37:37.999Z</time></trkpt><trkpt lat="33.21681179304372" lon="-7.574673831111147"><ele>222.0</ele><time>2026-04-23T09:37:38.999Z</time></trkpt><trkpt lat="33.21654944054822" lon="-7.574693142414689"><ele>222.0</ele><time>2026-04-23T09:37:39.999Z</time></trkpt><trkpt lat="33.21628982246949" lon="-7.574713263848172"><ele>223.5</ele><time>2026-04-23T09:37:40.999Z</time></trkpt><trkpt lat="33.21603064415355" lon="-7.574728691320046"><ele>225.0</ele><time>2026-04-23T09:37:41.999Z</time></trkpt><trkpt lat="33.21577496648315" lon="-7.574752452641341"><ele>225.5</ele><time>2026-04-23T09:37:42.999Z</time></trkpt><trkpt lat="33.21551758079256" lon="-7.5747679186443255"><ele>226.0</ele><time>2026-04-23T09:37:43.999Z</time></trkpt><trkpt lat="33.21526259809916" lon="-7.574782392369854"><ele>226.0</ele><time>2026-04-23T09:37:44.999Z</time></trkpt><trkpt lat="33.21501507453827" lon="-7.5747997300131145"><ele>226.0</ele><time>2026-04-23T09:37:45.999Z</time></trkpt><trkpt lat="33.21477493828885" lon="-7.574827675563013"><ele>227.0</ele><time>2026-04-23T09:37:46.999Z</time></trkpt><trkpt lat="33.21453721697891" lon="-7.574846179415049"><ele>228.0</ele><time>2026-04-23T09:37:47.999Z</time></trkpt><trkpt lat="33.214299659555145" lon="-7.574863043865648"><ele>228.0</ele><time>2026-04-23T09:37:48.999Z</time></trkpt><trkpt lat="33.214070250138676" lon="-7.574882901444839"><ele>228.0</ele><time>2026-04-23T09:37:49.999Z</time></trkpt><trkpt lat="33.213843205363304" lon="-7.574898697206636"><ele>227.33333333333331</ele><time>2026-04-23T09:37:50.999Z</time></trkpt><trkpt lat="33.21361653036879" lon="-7.574915846073097"><ele>226.66666666666666</ele><time>2026-04-23T09:37:51.999Z</time></trkpt><trkpt lat="33.213395028275336" lon="-7.57493516891597"><ele>226.0</ele><time>2026-04-23T09:37:52.999Z</time></trkpt><trkpt lat="33.213173944464124" lon="-7.574952302667758"><ele>226.5</ele><time>2026-04-23T09:37:53.999Z</time></trkpt><trkpt lat="33.2129508054564" lon="-7.574965609780739"><ele>227.0</ele><time>2026-04-23T09:37:54.999Z</time></trkpt><trkpt lat="33.21272293799427" lon="-7.574980687649146"><ele>227.0</ele><time>2026-04-23T09:37:55.999Z</time></trkpt><trkpt lat="33.21249566379106" lon="-7.574995594856922"><ele>227.0</ele><time>2026-04-23T09:37:56.999Z</time></trkpt><trkpt lat="33.212268152785455" lon="-7.575011669175865"><ele>228.0</ele><time>2026-04-23T09:37:57.999Z</time></trkpt><trkpt lat="33.212046144586616" lon="-7.575032386339945"><ele>229.0</ele><time>2026-04-23T09:37:58.999Z</time></trkpt><trkpt lat="33.21183416691241" lon="-7.575048664300837"><ele>230.0</ele><time>2026-04-23T09:37:59.999Z</time></trkpt><trkpt lat="33.21162691704539" lon="-7.575063179764047"><ele>230.66666666666669</ele><time>2026-04-23T09:38:00.999Z</time></trkpt><trkpt lat="33.211415691274546" lon="-7.575075289579341"><ele>231.33333333333331</ele><time>2026-04-23T09:38:01.999Z</time></trkpt><trkpt lat="33.21121777192556" lon="-7.57509073561476"><ele>232.0</ele><time>2026-04-23T09:38:02.999Z</time></trkpt><trkpt lat="33.21101702742005" lon="-7.575109699811695"><ele>232.0</ele><time>2026-04-23T09:38:03.999Z</time></trkpt><trkpt lat="33.21081177811445" lon="-7.575126214462141"><ele>232.0</ele><time>2026-04-23T09:38:04.999Z</time></trkpt><trkpt lat="33.21059120947892" lon="-7.575145675185268"><ele>232.0</ele><time>2026-04-23T09:38:06Z</time></trkpt><trkpt lat="33.210356017043594" lon="-7.575171390865643"><ele>230.0</ele><time>2026-04-23T09:38:07Z</time></trkpt><trkpt lat="33.21010140636049" lon="-7.575199436426682"><ele>228.0</ele><time>2026-04-23T09:38:08Z</time></trkpt><trkpt lat="33.20983537014163" lon="-7.575222546882292"><ele>228.5</ele><time>2026-04-23T09:38:09Z</time></trkpt><trkpt lat="33.20956236122982" lon="-7.575242980885555"><ele>229.0</ele><time>2026-04-23T09:38:10Z</time></trkpt><trkpt lat="33.20928396316274" lon="-7.575267448268403"><ele>229.0</ele><time>2026-04-23T09:38:11Z</time></trkpt><trkpt lat="33.20900698866593" lon="-7.5752909414788165"><ele>229.0</ele><time>2026-04-23T09:38:12Z</time></trkpt><trkpt lat="33.20872962873855" lon="-7.575311809459074"><ele>230.5</ele><time>2026-04-23T09:38:13Z</time></trkpt><trkpt lat="33.20845156277813" lon="-7.575333635235322"><ele>232.0</ele><time>2026-04-23T09:38:14Z</time></trkpt><trkpt lat="33.20817320039751" lon="-7.575354237502774"><ele>232.0</ele><time>2026-04-23T09:38:15Z</time></trkpt><trkpt lat="33.207888241724795" lon="-7.575370725658684"><ele>232.0</ele><time>2026-04-23T09:38:16Z</time></trkpt><trkpt lat="33.207604336056356" lon="-7.575391708444932"><ele>233.5</ele><time>2026-04-23T09:38:17Z</time></trkpt><trkpt lat="33.20732064507758" lon="-7.575412894375014"><ele>235.0</ele><time>2026-04-23T09:38:18Z</time></trkpt><trkpt lat="33.20703925198265" lon="-7.575429799938815"><ele>235.0</ele><time>2026-04-23T09:38:19Z</time></trkpt><trkpt lat="33.20675962133285" lon="-7.5754492572570475"><ele>235.0</ele><time>2026-04-23T09:38:20Z</time></trkpt><trkpt lat="33.20649137583588" lon="-7.575468506922184"><ele>236.5</ele><time>2026-04-23T09:38:21Z</time></trkpt><trkpt lat="33.20623891571306" lon="-7.575483910818038"><ele>238.0</ele><time>2026-04-23T09:38:22Z</time></trkpt><trkpt lat="33.20598976704576" lon="-7.575501181206329"><ele>238.0</ele><time>2026-04-23T09:38:23Z</time></trkpt><trkpt lat="33.205737992353754" lon="-7.575517584843796"><ele>238.0</ele><time>2026-04-23T09:38:24Z</time></trkpt><trkpt lat="33.20548074517387" lon="-7.575536224366181"><ele>236.5</ele><time>2026-04-23T09:38:25Z</time></trkpt><trkpt lat="33.205218037771" lon="-7.575550773967698"><ele>235.0</ele><time>2026-04-23T09:38:26Z</time></trkpt><trkpt lat="33.20495456053095" lon="-7.575564818803345"><ele>234.0</ele><time>2026-04-23T09:38:27Z</time></trkpt><trkpt lat="33.20469354256081" lon="-7.575579556648488"><ele>233.0</ele><time>2026-04-23T09:38:28Z</time></trkpt><trkpt lat="33.20443736634653" lon="-7.575594721146718"><ele>233.0</ele><time>2026-04-23T09:38:29Z</time></trkpt><trkpt lat="33.20417697370343" lon="-7.5756129031060695"><ele>233.0</ele><time>2026-04-23T09:38:30Z</time></trkpt><trkpt lat="33.203923771683314" lon="-7.575633824547731"><ele>234.0</ele><time>2026-04-23T09:38:31Z</time></trkpt><trkpt lat="33.203666875992006" lon="-7.575652563071462"><ele>235.0</ele><time>2026-04-23T09:38:32Z</time></trkpt><trkpt lat="33.20340909718305" lon="-7.57567298054913"><ele>234.5</ele><time>2026-04-23T09:38:33Z</time></trkpt><trkpt lat="33.20315643561822" lon="-7.575689649458578"><ele>234.0</ele><time>2026-04-23T09:38:34Z</time></trkpt><trkpt lat="33.20290134472798" lon="-7.575715612089674"><ele>234.0</ele><time>2026-04-23T09:38:35Z</time></trkpt><trkpt lat="33.20263532869035" lon="-7.575734489985562"><ele>234.0</ele><time>2026-04-23T09:38:36Z</time></trkpt><trkpt lat="33.20236514013584" lon="-7.575753406890327"><ele>233.5</ele><time>2026-04-23T09:38:37Z</time></trkpt><trkpt lat="33.202097604753234" lon="-7.575769876656166"><ele>233.0</ele><time>2026-04-23T09:38:38Z</time></trkpt><trkpt lat="33.201827645872484" lon="-7.575792803529004"><ele>233.0</ele><time>2026-04-23T09:38:39Z</time></trkpt><trkpt lat="33.20156355602202" lon="-7.575817469231657"><ele>233.0</ele><time>2026-04-23T09:38:40Z</time></trkpt><trkpt lat="33.20130116674204" lon="-7.575838065082559"><ele>233.5</ele><time>2026-04-23T09:38:41Z</time></trkpt><trkpt lat="33.20103950538547" lon="-7.575856552609882"><ele>234.0</ele><time>2026-04-23T09:38:42Z</time></trkpt><trkpt lat="33.20077672868316" lon="-7.575876422386485"><ele>234.5</ele><time>2026-04-23T09:38:43Z</time></trkpt><trkpt lat="33.20051498966191" lon="-7.575892755096"><ele>235.0</ele><time>2026-04-23T09:38:44Z</time></trkpt><trkpt lat="33.200259423309326" lon="-7.575913325416092"><ele>235.0</ele><time>2026-04-23T09:38:45Z</time></trkpt><trkpt lat="33.20000245560331" lon="-7.57593192415003"><ele>235.0</ele><time>2026-04-23T09:38:46Z</time></trkpt><trkpt lat="33.19974043696513" lon="-7.575954242537721"><ele>235.0</ele><time>2026-04-23T09:38:47Z</time></trkpt><trkpt lat="33.19947907093506" lon="-7.575970443301612"><ele>235.0</ele><time>2026-04-23T09:38:48Z</time></trkpt><trkpt lat="33.199217043009085" lon="-7.5759845865336075"><ele>233.5</ele><time>2026-04-23T09:38:49Z</time></trkpt><trkpt lat="33.19894890785309" lon="-7.575992411647358"><ele>232.0</ele><time>2026-04-23T09:38:50Z</time></trkpt><trkpt lat="33.19867849021476" lon="-7.576002270003658"><ele>232.0</ele><time>2026-04-23T09:38:51Z</time></trkpt><trkpt lat="33.198405281392894" lon="-7.576012074550711"><ele>232.0</ele><time>2026-04-23T09:38:52Z</time></trkpt><trkpt lat="33.198130656416595" lon="-7.576018742861656"><ele>233.0</ele><time>2026-04-23T09:38:53Z</time></trkpt><trkpt lat="33.19785879283839" lon="-7.576025647550038"><ele>234.0</ele><time>2026-04-23T09:38:54Z</time></trkpt><trkpt lat="33.19758370183848" lon="-7.576031540889511"><ele>234.0</ele><time>2026-04-23T09:38:55Z</time></trkpt><trkpt lat="33.19730744657464" lon="-7.576039059874885"><ele>234.0</ele><time>2026-04-23T09:38:56Z</time></trkpt><trkpt lat="33.197034795211785" lon="-7.576038668407164"><ele>234.0</ele><time>2026-04-23T09:38:57Z</time></trkpt><trkpt lat="33.196761165634754" lon="-7.576034029957507"><ele>234.0</ele><time>2026-04-23T09:38:58Z</time></trkpt><trkpt lat="33.19648463731694" lon="-7.576027213244865"><ele>233.5</ele><time>2026-04-23T09:38:59Z</time></trkpt><trkpt lat="33.196205816982555" lon="-7.576018976911035"><ele>233.0</ele><time>2026-04-23T09:39:00Z</time></trkpt><trkpt lat="33.19592675587996" lon="-7.576009249514879"><ele>231.5</ele><time>2026-04-23T09:39:01Z</time></trkpt><trkpt lat="33.19564313411839" lon="-7.5760012538689105"><ele>230.0</ele><time>2026-04-23T09:39:02Z</time></trkpt><trkpt lat="33.195354152078664" lon="-7.575991723342802"><ele>230.0</ele><time>2026-04-23T09:39:03Z</time></trkpt><trkpt lat="33.19506858550367" lon="-7.575978552157346"><ele>230.0</ele><time>2026-04-23T09:39:04Z</time></trkpt><trkpt lat="33.19478231226924" lon="-7.575956733643153"><ele>230.5</ele><time>2026-04-23T09:39:05Z</time></trkpt><trkpt lat="33.19449650028244" lon="-7.575937095390897"><ele>231.0</ele><time>2026-04-23T09:39:06Z</time></trkpt><trkpt lat="33.19421552074126" lon="-7.575914428842305"><ele>232.5</ele><time>2026-04-23T09:39:07Z</time></trkpt><trkpt lat="33.1939300469276" lon="-7.575887643682669"><ele>234.0</ele><time>2026-04-23T09:39:08Z</time></trkpt><trkpt lat="33.19364737999974" lon="-7.575861581242856"><ele>234.0</ele><time>2026-04-23T09:39:09Z</time></trkpt><trkpt lat="33.19336768178491" lon="-7.5758313725940845"><ele>234.0</ele><time>2026-04-23T09:39:10Z</time></trkpt><trkpt lat="33.19308627673499" lon="-7.575801962355299"><ele>234.0</ele><time>2026-04-23T09:39:11Z</time></trkpt><trkpt lat="33.1928031125581" lon="-7.575778024411427"><ele>234.0</ele><time>2026-04-23T09:39:11.999Z</time></trkpt><trkpt lat="33.19252349226127" lon="-7.575745808818517"><ele>234.5</ele><time>2026-04-23T09:39:12.999Z</time></trkpt><trkpt lat="33.19224624311538" lon="-7.575711281375654"><ele>235.0</ele><time>2026-04-23T09:39:13.999Z</time></trkpt><trkpt lat="33.191972934871316" lon="-7.575672439633041"><ele>235.0</ele><time>2026-04-23T09:39:14.999Z</time></trkpt><trkpt lat="33.19170150533188" lon="-7.575636036177928"><ele>235.0</ele><time>2026-04-23T09:39:15.999Z</time></trkpt><trkpt lat="33.19143167508998" lon="-7.575597204696969"><ele>235.0</ele><time>2026-04-23T09:39:16.999Z</time></trkpt><trkpt lat="33.19116165828364" lon="-7.575555080025371"><ele>235.0</ele><time>2026-04-23T09:39:17.999Z</time></trkpt><trkpt lat="33.190894866946806" lon="-7.575509192520881"><ele>234.0</ele><time>2026-04-23T09:39:18.999Z</time></trkpt><trkpt lat="33.19062846139484" lon="-7.575459922039522"><ele>233.0</ele><time>2026-04-23T09:39:19.999Z</time></trkpt><trkpt lat="33.1903580115915" lon="-7.5754078616310405"><ele>233.0</ele><time>2026-04-23T09:39:20.999Z</time></trkpt><trkpt lat="33.190089168172506" lon="-7.575356754175417"><ele>233.0</ele><time>2026-04-23T09:39:21.999Z</time></trkpt><trkpt lat="33.18981884765337" lon="-7.575303466815684"><ele>232.0</ele><time>2026-04-23T09:39:22.999Z</time></trkpt><trkpt lat="33.18954272169243" lon="-7.575248881348501"><ele>231.0</ele><time>2026-04-23T09:39:23.999Z</time></trkpt><trkpt lat="33.18926948098888" lon="-7.575195504688079"><ele>230.5</ele><time>2026-04-23T09:39:24.999Z</time></trkpt><trkpt lat="33.188993243608046" lon="-7.575130092822083"><ele>230.0</ele><time>2026-04-23T09:39:25.999Z</time></trkpt><trkpt lat="33.18871740326369" lon="-7.57506777312889"><ele>230.0</ele><time>2026-04-23T09:39:26.999Z</time></trkpt><trkpt lat="33.18844108845075" lon="-7.575005799573326"><ele>230.0</ele><time>2026-04-23T09:39:27.999Z</time></trkpt><trkpt lat="33.188161473692894" lon="-7.574936195984248"><ele>231.0</ele><time>2026-04-23T09:39:28.999Z</time></trkpt><trkpt lat="33.18787942879521" lon="-7.574863037985246"><ele>232.0</ele><time>2026-04-23T09:39:29.999Z</time></trkpt><trkpt lat="33.187597968708005" lon="-7.574787464399769"><ele>232.5</ele><time>2026-04-23T09:39:30.999Z</time></trkpt><trkpt lat="33.187317768533525" lon="-7.574720699417617"><ele>233.0</ele><time>2026-04-23T09:39:31.999Z</time></trkpt><trkpt lat="33.187036498042424" lon="-7.5746502414770385"><ele>233.0</ele><time>2026-04-23T09:39:32.999Z</time></trkpt><trkpt lat="33.186753059954455" lon="-7.574574560970985"><ele>233.0</ele><time>2026-04-23T09:39:33.999Z</time></trkpt><trkpt lat="33.186472197996984" lon="-7.574510641211539"><ele>231.5</ele><time>2026-04-23T09:39:34.999Z</time></trkpt><trkpt lat="33.186188740339915" lon="-7.574439291779454"><ele>230.0</ele><time>2026-04-23T09:39:35.999Z</time></trkpt><trkpt lat="33.185903602934644" lon="-7.574368875681922"><ele>231.0</ele><time>2026-04-23T09:39:36.999Z</time></trkpt><trkpt lat="33.18562029910091" lon="-7.574296573679415"><ele>232.0</ele><time>2026-04-23T09:39:37.999Z</time></trkpt><trkpt lat="33.18533398527318" lon="-7.574225206144825"><ele>232.0</ele><time>2026-04-23T09:39:38.999Z</time></trkpt><trkpt lat="33.185046405603806" lon="-7.5741518070061336"><ele>232.0</ele><time>2026-04-23T09:39:39.999Z</time></trkpt><trkpt lat="33.18475998516055" lon="-7.574078820697501"><ele>233.5</ele><time>2026-04-23T09:39:40.999Z</time></trkpt><trkpt lat="33.184473288114894" lon="-7.574009285675444"><ele>235.0</ele><time>2026-04-23T09:39:41.999Z</time></trkpt><trkpt lat="33.18418876275054" lon="-7.573935359407275"><ele>233.5</ele><time>2026-04-23T09:39:42.999Z</time></trkpt><trkpt lat="33.18390279402274" lon="-7.573865019448192"><ele>232.0</ele><time>2026-04-23T09:39:43.999Z</time></trkpt><trkpt lat="33.18361890984333" lon="-7.5737992270586"><ele>232.0</ele><time>2026-04-23T09:39:44.999Z</time></trkpt><trkpt lat="33.183331741800075" lon="-7.573724666315609"><ele>232.0</ele><time>2026-04-23T09:39:45.999Z</time></trkpt><trkpt lat="33.18304863582921" lon="-7.573655042971155"><ele>233.0</ele><time>2026-04-23T09:39:46.999Z</time></trkpt><trkpt lat="33.18276861330974" lon="-7.573583590148475"><ele>234.0</ele><time>2026-04-23T09:39:47.999Z</time></trkpt><trkpt lat="33.182490119744614" lon="-7.57351243100709"><ele>234.0</ele><time>2026-04-23T09:39:48.999Z</time></trkpt><trkpt lat="33.182207543316274" lon="-7.573441139360025"><ele>234.0</ele><time>2026-04-23T09:39:49.999Z</time></trkpt><trkpt lat="33.18192516170474" lon="-7.573363320725349"><ele>234.0</ele><time>2026-04-23T09:39:50.999Z</time></trkpt><trkpt lat="33.18164435536148" lon="-7.573289855772473"><ele>234.0</ele><time>2026-04-23T09:39:51.999Z</time></trkpt><trkpt lat="33.18135879833372" lon="-7.573216971159217"><ele>234.0</ele><time>2026-04-23T09:39:52.999Z</time></trkpt><trkpt lat="33.181072667734725" lon="-7.573145754709242"><ele>234.0</ele><time>2026-04-23T09:39:53.999Z</time></trkpt><trkpt lat="33.18078888533226" lon="-7.573079463653312"><ele>232.5</ele><time>2026-04-23T09:39:54.999Z</time></trkpt><trkpt lat="33.180510026306564" lon="-7.573009522828647"><ele>231.0</ele><time>2026-04-23T09:39:55.999Z</time></trkpt><trkpt lat="33.180222235722525" lon="-7.5729334659870435"><ele>231.0</ele><time>2026-04-23T09:39:56.999Z</time></trkpt><trkpt lat="33.17993721720239" lon="-7.572860837096246"><ele>231.0</ele><time>2026-04-23T09:39:57.999Z</time></trkpt><trkpt lat="33.17965234785635" lon="-7.572789396472026"><ele>232.0</ele><time>2026-04-23T09:39:58.999Z</time></trkpt><trkpt lat="33.179371978186566" lon="-7.572722768523122"><ele>233.0</ele><time>2026-04-23T09:39:59.999Z</time></trkpt><trkpt lat="33.17908887444737" lon="-7.57264936171984"><ele>234.0</ele><time>2026-04-23T09:40:00.999Z</time></trkpt><trkpt lat="33.17880576961531" lon="-7.572578072757562"><ele>235.0</ele><time>2026-04-23T09:40:01.999Z</time></trkpt><trkpt lat="33.17851992984899" lon="-7.572506241817771"><ele>235.0</ele><time>2026-04-23T09:40:02.999Z</time></trkpt><trkpt lat="33.178239567390314" lon="-7.5724319511315406"><ele>235.0</ele><time>2026-04-23T09:40:03.999Z</time></trkpt><trkpt lat="33.177955663113295" lon="-7.572364041295999"><ele>235.0</ele><time>2026-04-23T09:40:04.999Z</time></trkpt><trkpt lat="33.17766933885189" lon="-7.572290336427347"><ele>235.0</ele><time>2026-04-23T09:40:05.999Z</time></trkpt><trkpt lat="33.17738262046597" lon="-7.57222519176317"><ele>234.5</ele><time>2026-04-23T09:40:06.999Z</time></trkpt><trkpt lat="33.17709837637414" lon="-7.572160440913842"><ele>234.0</ele><time>2026-04-23T09:40:07.999Z</time></trkpt><trkpt lat="33.1768148256863" lon="-7.5720988922867285"><ele>234.0</ele><time>2026-04-23T09:40:08.999Z</time></trkpt><trkpt lat="33.17653484740995" lon="-7.572031938878959"><ele>234.0</ele><time>2026-04-23T09:40:09.999Z</time></trkpt><trkpt lat="33.17626006044112" lon="-7.571961394886153"><ele>234.5</ele><time>2026-04-23T09:40:10.999Z</time></trkpt><trkpt lat="33.17598687839058" lon="-7.571892275424662"><ele>235.0</ele><time>2026-04-23T09:40:12Z</time></trkpt><trkpt lat="33.17571416225295" lon="-7.57182286046996"><ele>236.5</ele><time>2026-04-23T09:40:13Z</time></trkpt><trkpt lat="33.175445800556695" lon="-7.571754098149988"><ele>238.0</ele><time>2026-04-23T09:40:14Z</time></trkpt><trkpt lat="33.1751814122272" lon="-7.571688218016698"><ele>238.0</ele><time>2026-04-23T09:40:15Z</time></trkpt><trkpt lat="33.17491671197191" lon="-7.571614838351214"><ele>238.0</ele><time>2026-04-23T09:40:16Z</time></trkpt><trkpt lat="33.17464165739787" lon="-7.571542318656147"><ele>236.5</ele><time>2026-04-23T09:40:17Z</time></trkpt><trkpt lat="33.17435900533821" lon="-7.571468588269907"><ele>235.0</ele><time>2026-04-23T09:40:18Z</time></trkpt><trkpt lat="33.17407435033792" lon="-7.571396831494214"><ele>234.5</ele><time>2026-04-23T09:40:19Z</time></trkpt><trkpt lat="33.173785669678104" lon="-7.571337587113016"><ele>234.0</ele><time>2026-04-23T09:40:20Z</time></trkpt><trkpt lat="33.173489559124604" lon="-7.571274425535163"><ele>234.0</ele><time>2026-04-23T09:40:21Z</time></trkpt><trkpt lat="33.1731974852346" lon="-7.571215979419947"><ele>234.0</ele><time>2026-04-23T09:40:22Z</time></trkpt><trkpt lat="33.172898510333155" lon="-7.571164105987251"><ele>234.5</ele><time>2026-04-23T09:40:23Z</time></trkpt><trkpt lat="33.17260290581627" lon="-7.571107640889502"><ele>235.0</ele><time>2026-04-23T09:40:24Z</time></trkpt><trkpt lat="33.17230629629221" lon="-7.571049658193037"><ele>236.0</ele><time>2026-04-23T09:40:25Z</time></trkpt><trkpt lat="33.172010186994896" lon="-7.570996978124882"><ele>237.0</ele><time>2026-04-23T09:40:26Z</time></trkpt><trkpt lat="33.17171511930017" lon="-7.570949087110913"><ele>237.0</ele><time>2026-04-23T09:40:27Z</time></trkpt><trkpt lat="33.17141829861872" lon="-7.5709017338451075"><ele>237.0</ele><time>2026-04-23T09:40:28Z</time></trkpt><trkpt lat="33.17112017094502" lon="-7.5708553172107536"><ele>237.0</ele><time>2026-04-23T09:40:29Z</time></trkpt><trkpt lat="33.17082264311744" lon="-7.570811410942737"><ele>237.0</ele><time>2026-04-23T09:40:30Z</time></trkpt><trkpt lat="33.17051877377981" lon="-7.570770078172827"><ele>236.0</ele><time>2026-04-23T09:40:31Z</time></trkpt><trkpt lat="33.17022005709613" lon="-7.570732812766504"><ele>235.0</ele><time>2026-04-23T09:40:32Z</time></trkpt><trkpt lat="33.16992246330114" lon="-7.570696431630303"><ele>235.0</ele><time>2026-04-23T09:40:33Z</time></trkpt><trkpt lat="33.169624057354255" lon="-7.570659098634916"><ele>235.0</ele><time>2026-04-23T09:40:34Z</time></trkpt><trkpt lat="33.16932362634038" lon="-7.570627175853093"><ele>236.0</ele><time>2026-04-23T09:40:35Z</time></trkpt><trkpt lat="33.169021890647166" lon="-7.570589766218187"><ele>237.0</ele><time>2026-04-23T09:40:36Z</time></trkpt><trkpt lat="33.16871946220875" lon="-7.570557037979998"><ele>237.0</ele><time>2026-04-23T09:40:37Z</time></trkpt><trkpt lat="33.16842074050999" lon="-7.570530532764056"><ele>237.0</ele><time>2026-04-23T09:40:38Z</time></trkpt><trkpt lat="33.1681207438555" lon="-7.570506952617441"><ele>236.0</ele><time>2026-04-23T09:40:39Z</time></trkpt><trkpt lat="33.16782213608267" lon="-7.570482791762221"><ele>235.0</ele><time>2026-04-23T09:40:40Z</time></trkpt><trkpt lat="33.1675214999229" lon="-7.570461964704774"><ele>236.0</ele><time>2026-04-23T09:40:41Z</time></trkpt><trkpt lat="33.16722126285359" lon="-7.570449475678457"><ele>237.0</ele><time>2026-04-23T09:40:42Z</time></trkpt><trkpt lat="33.16692118368943" lon="-7.570433560194446"><ele>237.0</ele><time>2026-04-23T09:40:43Z</time></trkpt><trkpt lat="33.16661854298057" lon="-7.57041998614933"><ele>237.0</ele><time>2026-04-23T09:40:44Z</time></trkpt><trkpt lat="33.16631401998977" lon="-7.57040413489631"><ele>238.0</ele><time>2026-04-23T09:40:45Z</time></trkpt><trkpt lat="33.16601316845814" lon="-7.570395864241705"><ele>239.0</ele><time>2026-04-23T09:40:46Z</time></trkpt><trkpt lat="33.16571262259954" lon="-7.570386833532208"><ele>238.0</ele><time>2026-04-23T09:40:47Z</time></trkpt><trkpt lat="33.16541086192535" lon="-7.570376067003371"><ele>237.0</ele><time>2026-04-23T09:40:48Z</time></trkpt><trkpt lat="33.16511002193942" lon="-7.570369545000548"><ele>237.5</ele><time>2026-04-23T09:40:49Z</time></trkpt><trkpt lat="33.164810343970466" lon="-7.570363061926434"><ele>238.0</ele><time>2026-04-23T09:40:50Z</time></trkpt><trkpt lat="33.16451134130596" lon="-7.570359736736383"><ele>238.0</ele><time>2026-04-23T09:40:51Z</time></trkpt><trkpt lat="33.16420862855729" lon="-7.570360594321158"><ele>238.0</ele><time>2026-04-23T09:40:52Z</time></trkpt><trkpt lat="33.16390917343317" lon="-7.57036048391419"><ele>238.0</ele><time>2026-04-23T09:40:53Z</time></trkpt><trkpt lat="33.16360819337934" lon="-7.570363444745809"><ele>238.0</ele><time>2026-04-23T09:40:54Z</time></trkpt><trkpt lat="33.16331285113859" lon="-7.570371683599497"><ele>239.0</ele><time>2026-04-23T09:40:55Z</time></trkpt><trkpt lat="33.163011983799166" lon="-7.570376180859821"><ele>240.0</ele><time>2026-04-23T09:40:56Z</time></trkpt><trkpt lat="33.162710746603686" lon="-7.570386159860957"><ele>240.0</ele><time>2026-04-23T09:40:57Z</time></trkpt><trkpt lat="33.162408782091546" lon="-7.570397081938846"><ele>240.0</ele><time>2026-04-23T09:40:58Z</time></trkpt><trkpt lat="33.16210608103757" lon="-7.570408377010589"><ele>240.5</ele><time>2026-04-23T09:40:59Z</time></trkpt><trkpt lat="33.16180832005349" lon="-7.570424314201872"><ele>241.0</ele><time>2026-04-23T09:41:00Z</time></trkpt><trkpt lat="33.16150664997385" lon="-7.570436496246806"><ele>241.0</ele><time>2026-04-23T09:41:01Z</time></trkpt><trkpt lat="33.16120460740417" lon="-7.570451163018408"><ele>241.0</ele><time>2026-04-23T09:41:02Z</time></trkpt><trkpt lat="33.16090474033494" lon="-7.570468697060063"><ele>240.5</ele><time>2026-04-23T09:41:03Z</time></trkpt><trkpt lat="33.1606065301824" lon="-7.570491630387983"><ele>240.0</ele><time>2026-04-23T09:41:04Z</time></trkpt><trkpt lat="33.160306899539535" lon="-7.570514766116815"><ele>240.0</ele><time>2026-04-23T09:41:05Z</time></trkpt><trkpt lat="33.16000789127252" lon="-7.570532324622122"><ele>240.0</ele><time>2026-04-23T09:41:06Z</time></trkpt><trkpt lat="33.159703304504966" lon="-7.570558049455546"><ele>241.0</ele><time>2026-04-23T09:41:07Z</time></trkpt><trkpt lat="33.15940303507805" lon="-7.570583018960106"><ele>242.0</ele><time>2026-04-23T09:41:08Z</time></trkpt><trkpt lat="33.15910020687671" lon="-7.570613539624603"><ele>242.0</ele><time>2026-04-23T09:41:08.999Z</time></trkpt><trkpt lat="33.158804350394355" lon="-7.570648331636967"><ele>242.0</ele><time>2026-04-23T09:41:09.999Z</time></trkpt><trkpt lat="33.15850205765497" lon="-7.570682018472415"><ele>242.0</ele><time>2026-04-23T09:41:10.999Z</time></trkpt><trkpt lat="33.1582018429602" lon="-7.570724299760671"><ele>242.0</ele><time>2026-04-23T09:41:11.999Z</time></trkpt><trkpt lat="33.157904455280466" lon="-7.570766010048769"><ele>242.0</ele><time>2026-04-23T09:41:12.999Z</time></trkpt><trkpt lat="33.157609755821355" lon="-7.57081493743971"><ele>242.0</ele><time>2026-04-23T09:41:13.999Z</time></trkpt><trkpt lat="33.15731345443393" lon="-7.570861298341506"><ele>242.5</ele><time>2026-04-23T09:41:14.999Z</time></trkpt><trkpt lat="33.15701202015255" lon="-7.570906808836446"><ele>243.0</ele><time>2026-04-23T09:41:15.999Z</time></trkpt><trkpt lat="33.15671176768418" lon="-7.570952015626534"><ele>243.5</ele><time>2026-04-23T09:41:16.999Z</time></trkpt><trkpt lat="33.15640841540244" lon="-7.571000563496452"><ele>244.0</ele><time>2026-04-23T09:41:17.999Z</time></trkpt><trkpt lat="33.15611399257299" lon="-7.571054517998594"><ele>244.0</ele><time>2026-04-23T09:41:18.999Z</time></trkpt><trkpt lat="33.155816972587616" lon="-7.571109656889417"><ele>244.0</ele><time>2026-04-23T09:41:19.999Z</time></trkpt><trkpt lat="33.15551910027431" lon="-7.571167912924482"><ele>244.0</ele><time>2026-04-23T09:41:20.999Z</time></trkpt><trkpt lat="33.155223857843175" lon="-7.5712279497432515"><ele>244.0</ele><time>2026-04-23T09:41:21.999Z</time></trkpt><trkpt lat="33.15492224510465" lon="-7.571287959222856"><ele>244.5</ele><time>2026-04-23T09:41:22.999Z</time></trkpt><trkpt lat="33.15462251980189" lon="-7.571349897528203"><ele>245.0</ele><time>2026-04-23T09:41:23.999Z</time></trkpt><trkpt lat="33.154328528504216" lon="-7.57141371129518"><ele>244.5</ele><time>2026-04-23T09:41:24.999Z</time></trkpt><trkpt lat="33.154032833481075" lon="-7.57147852594405"><ele>244.0</ele><time>2026-04-23T09:41:25.999Z</time></trkpt><trkpt lat="33.15374334158203" lon="-7.571546028120807"><ele>244.0</ele><time>2026-04-23T09:41:26.999Z</time></trkpt><trkpt lat="33.153450229716924" lon="-7.571618985130214"><ele>244.0</ele><time>2026-04-23T09:41:27.999Z</time></trkpt><trkpt lat="33.15315817679017" lon="-7.571691867764091"><ele>243.5</ele><time>2026-04-23T09:41:28.999Z</time></trkpt><trkpt lat="33.15287348486251" lon="-7.571766873248497"><ele>243.0</ele><time>2026-04-23T09:41:29.999Z</time></trkpt><trkpt lat="33.1525840846187" lon="-7.571844063765278"><ele>243.0</ele><time>2026-04-23T09:41:30.999Z</time></trkpt><trkpt lat="33.15229251669976" lon="-7.571917482171504"><ele>243.0</ele><time>2026-04-23T09:41:31.999Z</time></trkpt><trkpt lat="33.15201090704331" lon="-7.571988052112863"><ele>243.0</ele><time>2026-04-23T09:41:32.999Z</time></trkpt><trkpt lat="33.15172775939006" lon="-7.572065166292798"><ele>243.0</ele><time>2026-04-23T09:41:33.999Z</time></trkpt><trkpt lat="33.151444656045115" lon="-7.572148729735942"><ele>243.5</ele><time>2026-04-23T09:41:34.999Z</time></trkpt><trkpt lat="33.15116257993397" lon="-7.572231670412444"><ele>244.0</ele><time>2026-04-23T09:41:35.999Z</time></trkpt><trkpt lat="33.150881660768086" lon="-7.572319045572663"><ele>245.0</ele><time>2026-04-23T09:41:36.999Z</time></trkpt><trkpt lat="33.150604287908884" lon="-7.5724060160249556"><ele>246.0</ele><time>2026-04-23T09:41:37.999Z</time></trkpt><trkpt lat="33.15032315389395" lon="-7.572492541744845"><ele>246.0</ele><time>2026-04-23T09:41:38.999Z</time></trkpt><trkpt lat="33.1500398246198" lon="-7.572586626979173"><ele>246.0</ele><time>2026-04-23T09:41:39.999Z</time></trkpt><trkpt lat="33.14975127823689" lon="-7.572680444463884"><ele>246.0</ele><time>2026-04-23T09:41:40.999Z</time></trkpt><trkpt lat="33.149467616753505" lon="-7.5727759712686575"><ele>246.0</ele><time>2026-04-23T09:41:41.999Z</time></trkpt><trkpt lat="33.14918732096249" lon="-7.572865829587027"><ele>246.0</ele><time>2026-04-23T09:41:42.999Z</time></trkpt><trkpt lat="33.1489086928791" lon="-7.572953660785784"><ele>246.0</ele><time>2026-04-23T09:41:43.999Z</time></trkpt><trkpt lat="33.14863353229776" lon="-7.573039362760732"><ele>246.0</ele><time>2026-04-23T09:41:44.999Z</time></trkpt><trkpt lat="33.14836333630198" lon="-7.573120910383158"><ele>246.0</ele><time>2026-04-23T09:41:45.999Z</time></trkpt><trkpt lat="33.14809966648843" lon="-7.573200630484792"><ele>246.0</ele><time>2026-04-23T09:41:46.999Z</time></trkpt><trkpt lat="33.14783725114882" lon="-7.573280574113721"><ele>246.0</ele><time>2026-04-23T09:41:47.999Z</time></trkpt><trkpt lat="33.147579017215904" lon="-7.573355122388839"><ele>247.0</ele><time>2026-04-23T09:41:48.999Z</time></trkpt><trkpt lat="33.14731146850629" lon="-7.573432565427292"><ele>248.0</ele><time>2026-04-23T09:41:49.999Z</time></trkpt><trkpt lat="33.147036477488356" lon="-7.573513263207245"><ele>248.0</ele><time>2026-04-23T09:41:50.999Z</time></trkpt><trkpt lat="33.14676107611122" lon="-7.573586640663136"><ele>248.0</ele><time>2026-04-23T09:41:51.999Z</time></trkpt><trkpt lat="33.14647962467781" lon="-7.573666198293571"><ele>247.0</ele><time>2026-04-23T09:41:52.999Z</time></trkpt><trkpt lat="33.14620127795098" lon="-7.5737461445692364"><ele>246.0</ele><time>2026-04-23T09:41:53.999Z</time></trkpt><trkpt lat="33.14592362257902" lon="-7.573831480931049"><ele>246.0</ele><time>2026-04-23T09:41:54.999Z</time></trkpt><trkpt lat="33.145642504399376" lon="-7.573919249146591"><ele>246.0</ele><time>2026-04-23T09:41:55.999Z</time></trkpt><trkpt lat="33.145365867681456" lon="-7.574008009664929"><ele>246.0</ele><time>2026-04-23T09:41:56.999Z</time></trkpt><trkpt lat="33.14508697598962" lon="-7.574093346790137"><ele>246.0</ele><time>2026-04-23T09:41:57.999Z</time></trkpt><trkpt lat="33.14480938377762" lon="-7.5741783561552"><ele>247.5</ele><time>2026-04-23T09:41:58.999Z</time></trkpt><trkpt lat="33.14452884286051" lon="-7.574264422666036"><ele>249.0</ele><time>2026-04-23T09:41:59.999Z</time></trkpt><trkpt lat="33.1442496574706" lon="-7.574348960171142"><ele>249.0</ele><time>2026-04-23T09:42:00.999Z</time></trkpt><trkpt lat="33.14396805461689" lon="-7.574437924746085"><ele>249.0</ele><time>2026-04-23T09:42:01.999Z</time></trkpt><trkpt lat="33.143683308179945" lon="-7.574527521306047"><ele>249.0</ele><time>2026-04-23T09:42:02.999Z</time></trkpt><trkpt lat="33.14339766473211" lon="-7.574616710494506"><ele>249.0</ele><time>2026-04-23T09:42:03.999Z</time></trkpt><trkpt lat="33.14310765933278" lon="-7.5747077681720905"><ele>248.0</ele><time>2026-04-23T09:42:04.999Z</time></trkpt><trkpt lat="33.14281670568665" lon="-7.574797944708237"><ele>247.0</ele><time>2026-04-23T09:42:05.999Z</time></trkpt><trkpt lat="33.14252662215599" lon="-7.574887290431505"><ele>248.0</ele><time>2026-04-23T09:42:06.999Z</time></trkpt><trkpt lat="33.14223430579909" lon="-7.574971780083501"><ele>249.0</ele><time>2026-04-23T09:42:07.999Z</time></trkpt><trkpt lat="33.14194063293376" lon="-7.57506051371725"><ele>249.0</ele><time>2026-04-23T09:42:08.999Z</time></trkpt><trkpt lat="33.14164916095462" lon="-7.575144340155256"><ele>249.0</ele><time>2026-04-23T09:42:09.999Z</time></trkpt><trkpt lat="33.14135898237953" lon="-7.575235009171199"><ele>249.0</ele><time>2026-04-23T09:42:10.999Z</time></trkpt><trkpt lat="33.141067201240475" lon="-7.575329760619493"><ele>249.0</ele><time>2026-04-23T09:42:11.999Z</time></trkpt><trkpt lat="33.14077480367084" lon="-7.575425503411607"><ele>248.5</ele><time>2026-04-23T09:42:12.999Z</time></trkpt><trkpt lat="33.140486380114154" lon="-7.575522038816654"><ele>248.0</ele><time>2026-04-23T09:42:13.999Z</time></trkpt><trkpt lat="33.14019380381776" lon="-7.575615105674202"><ele>248.0</ele><time>2026-04-23T09:42:14.999Z</time></trkpt><trkpt lat="33.13990491940107" lon="-7.5757056193775805"><ele>248.0</ele><time>2026-04-23T09:42:15.999Z</time></trkpt><trkpt lat="33.13961377415146" lon="-7.575796293357519"><ele>248.5</ele><time>2026-04-23T09:42:16.999Z</time></trkpt><trkpt lat="33.13932293304024" lon="-7.575885620464666"><ele>249.0</ele><time>2026-04-23T09:42:18Z</time></trkpt><trkpt lat="33.1390319369995" lon="-7.575976657673463"><ele>249.5</ele><time>2026-04-23T09:42:19Z</time></trkpt><trkpt lat="33.13874068934521" lon="-7.576069381848952"><ele>250.0</ele><time>2026-04-23T09:42:20Z</time></trkpt><trkpt lat="33.13844894065805" lon="-7.57615605118016"><ele>250.0</ele><time>2026-04-23T09:42:21Z</time></trkpt><trkpt lat="33.138159437941596" lon="-7.57624556177147"><ele>250.0</ele><time>2026-04-23T09:42:22Z</time></trkpt><trkpt lat="33.137867454697336" lon="-7.576336091523994"><ele>250.0</ele><time>2026-04-23T09:42:23Z</time></trkpt><trkpt lat="33.137576004427416" lon="-7.5764237291998064"><ele>250.0</ele><time>2026-04-23T09:42:24Z</time></trkpt><trkpt lat="33.13728467945419" lon="-7.576512873291358"><ele>249.5</ele><time>2026-04-23T09:42:25Z</time></trkpt><trkpt lat="33.136990630270724" lon="-7.576599985792849"><ele>249.0</ele><time>2026-04-23T09:42:26Z</time></trkpt><trkpt lat="33.13670223225637" lon="-7.5766882371555"><ele>250.0</ele><time>2026-04-23T09:42:27Z</time></trkpt><trkpt lat="33.1364111136741" lon="-7.576777571273877"><ele>251.0</ele><time>2026-04-23T09:42:28Z</time></trkpt><trkpt lat="33.136120481685225" lon="-7.576868021410481"><ele>251.0</ele><time>2026-04-23T09:42:29Z</time></trkpt><trkpt lat="33.13582716883015" lon="-7.576958832087601"><ele>251.0</ele><time>2026-04-23T09:42:30Z</time></trkpt><trkpt lat="33.1355394468842" lon="-7.57704805018664"><ele>251.5</ele><time>2026-04-23T09:42:31Z</time></trkpt><trkpt lat="33.135250489917084" lon="-7.5771347996735345"><ele>252.0</ele><time>2026-04-23T09:42:32Z</time></trkpt><trkpt lat="33.13496592088065" lon="-7.577213828029213"><ele>252.0</ele><time>2026-04-23T09:42:33Z</time></trkpt><trkpt lat="33.13467588501204" lon="-7.577294551471446"><ele>252.0</ele><time>2026-04-23T09:42:34Z</time></trkpt><trkpt lat="33.13438502610409" lon="-7.577380677277202"><ele>252.0</ele><time>2026-04-23T09:42:35Z</time></trkpt><trkpt lat="33.13409336550591" lon="-7.577465166431448"><ele>252.0</ele><time>2026-04-23T09:42:36Z</time></trkpt><trkpt lat="33.13380412605143" lon="-7.577552137175675"><ele>252.0</ele><time>2026-04-23T09:42:37Z</time></trkpt><trkpt lat="33.13351313694258" lon="-7.577639601656976"><ele>252.0</ele><time>2026-04-23T09:42:38Z</time></trkpt><trkpt lat="33.13321846402774" lon="-7.577725986963346"><ele>252.0</ele><time>2026-04-23T09:42:39Z</time></trkpt><trkpt lat="33.1329286146963" lon="-7.577810187533471"><ele>252.0</ele><time>2026-04-23T09:42:40Z</time></trkpt><trkpt lat="33.13264072303202" lon="-7.577898212288656"><ele>250.5</ele><time>2026-04-23T09:42:41Z</time></trkpt><trkpt lat="33.132348768893856" lon="-7.57798475741388"><ele>249.0</ele><time>2026-04-23T09:42:42Z</time></trkpt><trkpt lat="33.13205990151843" lon="-7.578074371451389"><ele>249.0</ele><time>2026-04-23T09:42:43Z</time></trkpt><trkpt lat="33.131763725155636" lon="-7.578155816113569"><ele>249.0</ele><time>2026-04-23T09:42:44Z</time></trkpt><trkpt lat="33.131471132118065" lon="-7.578231578459413"><ele>250.0</ele><time>2026-04-23T09:42:45Z</time></trkpt><trkpt lat="33.131177578664854" lon="-7.5783080189061165"><ele>251.0</ele><time>2026-04-23T09:42:46Z</time></trkpt><trkpt lat="33.13088458801924" lon="-7.578383230213452"><ele>252.0</ele><time>2026-04-23T09:42:47Z</time></trkpt><trkpt lat="33.130589336697945" lon="-7.578453998128925"><ele>253.0</ele><time>2026-04-23T09:42:48Z</time></trkpt><trkpt lat="33.13029468642471" lon="-7.578528545011169"><ele>253.0</ele><time>2026-04-23T09:42:49Z</time></trkpt><trkpt lat="33.13000706666546" lon="-7.578601587155594"><ele>253.0</ele><time>2026-04-23T09:42:50Z</time></trkpt><trkpt lat="33.12971221239746" lon="-7.578671271002486"><ele>254.5</ele><time>2026-04-23T09:42:51Z</time></trkpt><trkpt lat="33.129415835599076" lon="-7.57873739779328"><ele>256.0</ele><time>2026-04-23T09:42:52Z</time></trkpt><trkpt lat="33.12912335353347" lon="-7.57879891891928"><ele>255.0</ele><time>2026-04-23T09:42:53Z</time></trkpt><trkpt lat="33.12882555794658" lon="-7.578870493185009"><ele>254.0</ele><time>2026-04-23T09:42:54Z</time></trkpt><trkpt lat="33.12853251264501" lon="-7.5789361121917596"><ele>254.0</ele><time>2026-04-23T09:42:55Z</time></trkpt><trkpt lat="33.12823837399718" lon="-7.579001018916035"><ele>254.0</ele><time>2026-04-23T09:42:56Z</time></trkpt><trkpt lat="33.1279410850168" lon="-7.5790664878566725"><ele>255.0</ele><time>2026-04-23T09:42:57Z</time></trkpt><trkpt lat="33.12764583817715" lon="-7.579128673096604"><ele>256.0</ele><time>2026-04-23T09:42:58Z</time></trkpt><trkpt lat="33.12734875807288" lon="-7.579188717377895"><ele>257.0</ele><time>2026-04-23T09:42:59Z</time></trkpt><trkpt lat="33.12705188531351" lon="-7.579251267801927"><ele>258.0</ele><time>2026-04-23T09:43:00Z</time></trkpt><trkpt lat="33.12675489576558" lon="-7.579313462066917"><ele>257.0</ele><time>2026-04-23T09:43:01Z</time></trkpt><trkpt lat="33.126458617738464" lon="-7.579368684799792"><ele>256.0</ele><time>2026-04-23T09:43:02Z</time></trkpt><trkpt lat="33.12616410904685" lon="-7.579426267883201"><ele>256.0</ele><time>2026-04-23T09:43:03Z</time></trkpt><trkpt lat="33.125868920482084" lon="-7.579480002831701"><ele>256.0</ele><time>2026-04-23T09:43:04Z</time></trkpt><trkpt lat="33.12557573999065" lon="-7.579530587629556"><ele>255.5</ele><time>2026-04-23T09:43:05Z</time></trkpt><trkpt lat="33.1252791461465" lon="-7.57957662044907"><ele>255.0</ele><time>2026-04-23T09:43:06Z</time></trkpt><trkpt lat="33.12498324656775" lon="-7.579627935148536"><ele>254.5</ele><time>2026-04-23T09:43:07Z</time></trkpt><trkpt lat="33.12468121149158" lon="-7.579683858379229"><ele>254.0</ele><time>2026-04-23T09:43:08Z</time></trkpt><trkpt lat="33.124383234268585" lon="-7.579731161815044"><ele>254.0</ele><time>2026-04-23T09:43:09Z</time></trkpt><trkpt lat="33.12408588066949" lon="-7.579777814104307"><ele>254.0</ele><time>2026-04-23T09:43:10Z</time></trkpt><trkpt lat="33.12379023506415" lon="-7.579828719914796"><ele>255.0</ele><time>2026-04-23T09:43:10.999Z</time></trkpt><trkpt lat="33.12348788552009" lon="-7.579874617611459"><ele>256.0</ele><time>2026-04-23T09:43:11.999Z</time></trkpt><trkpt lat="33.1231901724697" lon="-7.579920783562575"><ele>257.5</ele><time>2026-04-23T09:43:12.999Z</time></trkpt><trkpt lat="33.12289304511931" lon="-7.579967044724098"><ele>259.0</ele><time>2026-04-23T09:43:13.999Z</time></trkpt><trkpt lat="33.12259456370722" lon="-7.580011781931997"><ele>259.0</ele><time>2026-04-23T09:43:14.999Z</time></trkpt><trkpt lat="33.12229652737364" lon="-7.580058979667649"><ele>259.0</ele><time>2026-04-23T09:43:15.999Z</time></trkpt><trkpt lat="33.12199874504516" lon="-7.580106393578336"><ele>259.0</ele><time>2026-04-23T09:43:16.999Z</time></trkpt><trkpt lat="33.121701128085476" lon="-7.580154504556641"><ele>259.0</ele><time>2026-04-23T09:43:17.999Z</time></trkpt><trkpt lat="33.12140295322481" lon="-7.580201664412497"><ele>259.0</ele><time>2026-04-23T09:43:18.999Z</time></trkpt><trkpt lat="33.121103259491974" lon="-7.580244708939073"><ele>259.0</ele><time>2026-04-23T09:43:19.999Z</time></trkpt><trkpt lat="33.12080075722206" lon="-7.580288662984723"><ele>259.0</ele><time>2026-04-23T09:43:20.999Z</time></trkpt><trkpt lat="33.12050371656724" lon="-7.580330044346033"><ele>259.0</ele><time>2026-04-23T09:43:21.999Z</time></trkpt><trkpt lat="33.120209996605325" lon="-7.580370654692603"><ele>258.5</ele><time>2026-04-23T09:43:22.999Z</time></trkpt><trkpt lat="33.11992538810191" lon="-7.580410316141618"><ele>258.0</ele><time>2026-04-23T09:43:23.999Z</time></trkpt><trkpt lat="33.11964505615089" lon="-7.5804502234404225"><ele>259.0</ele><time>2026-04-23T09:43:24.999Z</time></trkpt><trkpt lat="33.11937075884135" lon="-7.58048769998463"><ele>260.0</ele><time>2026-04-23T09:43:25.999Z</time></trkpt><trkpt lat="33.119098145362294" lon="-7.580529043150487"><ele>260.0</ele><time>2026-04-23T09:43:26.999Z</time></trkpt><trkpt lat="33.11882841327474" lon="-7.580568434348556"><ele>260.0</ele><time>2026-04-23T09:43:27.999Z</time></trkpt><trkpt lat="33.11856343838452" lon="-7.580608266384665"><ele>260.0</ele><time>2026-04-23T09:43:28.999Z</time></trkpt><trkpt lat="33.11829643480517" lon="-7.580651024891991"><ele>260.0</ele><time>2026-04-23T09:43:29.999Z</time></trkpt><trkpt lat="33.11803396156378" lon="-7.580689762705037"><ele>260.0</ele><time>2026-04-23T09:43:30.999Z</time></trkpt><trkpt lat="33.11777288516465" lon="-7.580734533064145"><ele>260.0</ele><time>2026-04-23T09:43:31.999Z</time></trkpt><trkpt lat="33.11751361995408" lon="-7.580775093176413"><ele>259.5</ele><time>2026-04-23T09:43:32.999Z</time></trkpt><trkpt lat="33.11725580305915" lon="-7.580815704846044"><ele>259.0</ele><time>2026-04-23T09:43:33.999Z</time></trkpt><trkpt lat="33.11700211200904" lon="-7.5808569405226764"><ele>259.0</ele><time>2026-04-23T09:43:34.999Z</time></trkpt><trkpt lat="33.11675299640669" lon="-7.580896500520203"><ele>259.0</ele><time>2026-04-23T09:43:35.999Z</time></trkpt><trkpt lat="33.1165049858477" lon="-7.580936551834499"><ele>260.5</ele><time>2026-04-23T09:43:36.999Z</time></trkpt><trkpt lat="33.11624859843091" lon="-7.580976912099112"><ele>262.0</ele><time>2026-04-23T09:43:37.999Z</time></trkpt><trkpt lat="33.11599091960357" lon="-7.581015619943845"><ele>261.5</ele><time>2026-04-23T09:43:38.999Z</time></trkpt><trkpt lat="33.11573066793189" lon="-7.5810561286276945"><ele>261.0</ele><time>2026-04-23T09:43:39.999Z</time></trkpt><trkpt lat="33.11546251343345" lon="-7.581100698705099"><ele>261.0</ele><time>2026-04-23T09:43:40.999Z</time></trkpt><trkpt lat="33.1151922851372" lon="-7.5811405338818565"><ele>261.0</ele><time>2026-04-23T09:43:41.999Z</time></trkpt><trkpt lat="33.11492260264358" lon="-7.581181134897817"><ele>262.0</ele><time>2026-04-23T09:43:42.999Z</time></trkpt><trkpt lat="33.114655067023676" lon="-7.581218267235221"><ele>263.0</ele><time>2026-04-23T09:43:43.999Z</time></trkpt><trkpt lat="33.114387211103995" lon="-7.581258142432653"><ele>263.0</ele><time>2026-04-23T09:43:44.999Z</time></trkpt><trkpt lat="33.11411992253211" lon="-7.581298746019797"><ele>263.0</ele><time>2026-04-23T09:43:45.999Z</time></trkpt><trkpt lat="33.11385164187352" lon="-7.581342744153923"><ele>262.5</ele><time>2026-04-23T09:43:46.999Z</time></trkpt><trkpt lat="33.113579899167384" lon="-7.581386738508444"><ele>262.0</ele><time>2026-04-23T09:43:47.999Z</time></trkpt><trkpt lat="33.11330748369951" lon="-7.5814261081335355"><ele>261.5</ele><time>2026-04-23T09:43:48.999Z</time></trkpt><trkpt lat="33.11303197621512" lon="-7.581467750564518"><ele>261.0</ele><time>2026-04-23T09:43:49.999Z</time></trkpt><trkpt lat="33.112753547124385" lon="-7.581510542341943"><ele>261.0</ele><time>2026-04-23T09:43:50.999Z</time></trkpt><trkpt lat="33.11246913177718" lon="-7.5815573849797335"><ele>261.0</ele><time>2026-04-23T09:43:51.999Z</time></trkpt><trkpt lat="33.11217786783962" lon="-7.581604906572728"><ele>260.5</ele><time>2026-04-23T09:43:52.999Z</time></trkpt><trkpt lat="33.111882441542335" lon="-7.581649541032527"><ele>260.0</ele><time>2026-04-23T09:43:53.999Z</time></trkpt><trkpt lat="33.11158617790169" lon="-7.581696947213353"><ele>260.5</ele><time>2026-04-23T09:43:54.999Z</time></trkpt><trkpt lat="33.111287370771755" lon="-7.581741702891951"><ele>261.0</ele><time>2026-04-23T09:43:55.999Z</time></trkpt><trkpt lat="33.110990330838796" lon="-7.581790375724175"><ele>260.0</ele><time>2026-04-23T09:43:56.999Z</time></trkpt><trkpt lat="33.11071245078976" lon="-7.581832900515285"><ele>259.0</ele><time>2026-04-23T09:43:57.999Z</time></trkpt><trkpt lat="33.11046155309766" lon="-7.581870358414762"><ele>259.0</ele><time>2026-04-23T09:43:58.999Z</time></trkpt><trkpt lat="33.11022732294184" lon="-7.581905324932267"><ele>259.0</ele><time>2026-04-23T09:43:59.999Z</time></trkpt><trkpt lat="33.10998590270307" lon="-7.581943882108531"><ele>260.0</ele><time>2026-04-23T09:44:00.999Z</time></trkpt><trkpt lat="33.10973395723127" lon="-7.58198663399124"><ele>261.0</ele><time>2026-04-23T09:44:01.999Z</time></trkpt><trkpt lat="33.109467093646195" lon="-7.582026399634483"><ele>261.0</ele><time>2026-04-23T09:44:02.999Z</time></trkpt><trkpt lat="33.109189686397485" lon="-7.5820690824371"><ele>261.0</ele><time>2026-04-23T09:44:03.999Z</time></trkpt><trkpt lat="33.10890224852633" lon="-7.582114279478512"><ele>261.0</ele><time>2026-04-23T09:44:04.999Z</time></trkpt><trkpt lat="33.108614004305466" lon="-7.582164384545815"><ele>261.0</ele><time>2026-04-23T09:44:05.999Z</time></trkpt><trkpt lat="33.10831388880655" lon="-7.582212278525795"><ele>260.5</ele><time>2026-04-23T09:44:06.999Z</time></trkpt><trkpt lat="33.108015545777086" lon="-7.582261763645932"><ele>260.0</ele><time>2026-04-23T09:44:07.999Z</time></trkpt><trkpt lat="33.1077158932117" lon="-7.582314410400449"><ele>260.0</ele><time>2026-04-23T09:44:08.999Z</time></trkpt><trkpt lat="33.10741548434094" lon="-7.582363011878099"><ele>260.0</ele><time>2026-04-23T09:44:09.999Z</time></trkpt><trkpt lat="33.107112152452736" lon="-7.582408580511865"><ele>260.0</ele><time>2026-04-23T09:44:10.999Z</time></trkpt><trkpt lat="33.106811415318866" lon="-7.582455839496888"><ele>260.0</ele><time>2026-04-23T09:44:11.999Z</time></trkpt><trkpt lat="33.106511231426595" lon="-7.582504324846222"><ele>260.0</ele><time>2026-04-23T09:44:12.999Z</time></trkpt><trkpt lat="33.106214673305665" lon="-7.582551434351638"><ele>260.0</ele><time>2026-04-23T09:44:13.999Z</time></trkpt><trkpt lat="33.10591275178984" lon="-7.5825985166549"><ele>259.5</ele><time>2026-04-23T09:44:14.999Z</time></trkpt><trkpt lat="33.105614340084315" lon="-7.582647827074941"><ele>259.0</ele><time>2026-04-23T09:44:15.999Z</time></trkpt><trkpt lat="33.10531482509631" lon="-7.5826982149369755"><ele>259.0</ele><time>2026-04-23T09:44:16.999Z</time></trkpt><trkpt lat="33.105017460650636" lon="-7.582752235683874"><ele>259.0</ele><time>2026-04-23T09:44:17.999Z</time></trkpt><trkpt lat="33.104717061136036" lon="-7.582806628848684"><ele>259.0</ele><time>2026-04-23T09:44:18.999Z</time></trkpt><trkpt lat="33.1044177924558" lon="-7.582869931803518"><ele>259.0</ele><time>2026-04-23T09:44:19.999Z</time></trkpt><trkpt lat="33.104123027783444" lon="-7.582935364731866"><ele>258.5</ele><time>2026-04-23T09:44:20.999Z</time></trkpt><trkpt lat="33.10382853179401" lon="-7.582999788525156"><ele>258.0</ele><time>2026-04-23T09:44:21.999Z</time></trkpt><trkpt lat="33.10353520845372" lon="-7.583071519640015"><ele>258.5</ele><time>2026-04-23T09:44:22.999Z</time></trkpt><trkpt lat="33.103241807452164" lon="-7.583145288865013"><ele>259.0</ele><time>2026-04-23T09:44:24Z</time></trkpt><trkpt lat="33.10294852163471" lon="-7.5832157758636916"><ele>259.0</ele><time>2026-04-23T09:44:25Z</time></trkpt><trkpt lat="33.10265280815671" lon="-7.583286911490801"><ele>259.0</ele><time>2026-04-23T09:44:26Z</time></trkpt><trkpt lat="33.102355617640455" lon="-7.583361492255061"><ele>258.5</ele><time>2026-04-23T09:44:27Z</time></trkpt><trkpt lat="33.102062446985215" lon="-7.583444478058488"><ele>258.0</ele><time>2026-04-23T09:44:28Z</time></trkpt><trkpt lat="33.10177463382766" lon="-7.583524146846204"><ele>258.0</ele><time>2026-04-23T09:44:29Z</time></trkpt><trkpt lat="33.10148290389614" lon="-7.583611000481385"><ele>258.0</ele><time>2026-04-23T09:44:30Z</time></trkpt><trkpt lat="33.10118931969237" lon="-7.583700350833741"><ele>258.0</ele><time>2026-04-23T09:44:31Z</time></trkpt><trkpt lat="33.1008997916325" lon="-7.583789072243391"><ele>258.0</ele><time>2026-04-23T09:44:32Z</time></trkpt><trkpt lat="33.10060490256101" lon="-7.583881036058862"><ele>259.0</ele><time>2026-04-23T09:44:33Z</time></trkpt><trkpt lat="33.10031558145089" lon="-7.583974087409447"><ele>260.0</ele><time>2026-04-23T09:44:34Z</time></trkpt><trkpt lat="33.10002382126577" lon="-7.584066893726597"><ele>259.5</ele><time>2026-04-23T09:44:35Z</time></trkpt><trkpt lat="33.099735451135885" lon="-7.58416615061857"><ele>259.0</ele><time>2026-04-23T09:44:36Z</time></trkpt><trkpt lat="33.09944916374946" lon="-7.584264530059619"><ele>259.0</ele><time>2026-04-23T09:44:37Z</time></trkpt><trkpt lat="33.09916047021252" lon="-7.584371177122742"><ele>259.0</ele><time>2026-04-23T09:44:38Z</time></trkpt><trkpt lat="33.098874392434" lon="-7.5844750461131625"><ele>259.5</ele><time>2026-04-23T09:44:39Z</time></trkpt><trkpt lat="33.098589699023584" lon="-7.584580222516575"><ele>260.0</ele><time>2026-04-23T09:44:40Z</time></trkpt><trkpt lat="33.09830063974297" lon="-7.584675766588894"><ele>260.0</ele><time>2026-04-23T09:44:41Z</time></trkpt><trkpt lat="33.09801479305726" lon="-7.584781721532541"><ele>260.0</ele><time>2026-04-23T09:44:42Z</time></trkpt><trkpt lat="33.09772756104327" lon="-7.584878928088117"><ele>260.0</ele><time>2026-04-23T09:44:43Z</time></trkpt><trkpt lat="33.0974387309907" lon="-7.584982424789165"><ele>260.0</ele><time>2026-04-23T09:44:44Z</time></trkpt><trkpt lat="33.097149768146814" lon="-7.585083442622936"><ele>260.5</ele><time>2026-04-23T09:44:45Z</time></trkpt><trkpt lat="33.09686360218243" lon="-7.5851843473474"><ele>261.0</ele><time>2026-04-23T09:44:46Z</time></trkpt><trkpt lat="33.09657521503706" lon="-7.585285678994724"><ele>260.5</ele><time>2026-04-23T09:44:47Z</time></trkpt><trkpt lat="33.096287690785374" lon="-7.5853854050918095"><ele>260.0</ele><time>2026-04-23T09:44:48Z</time></trkpt><trkpt lat="33.09600096394537" lon="-7.585489674902398"><ele>260.5</ele><time>2026-04-23T09:44:49Z</time></trkpt><trkpt lat="33.095716133699625" lon="-7.58559618349624"><ele>261.0</ele><time>2026-04-23T09:44:50Z</time></trkpt><trkpt lat="33.095433992505065" lon="-7.585698558656729"><ele>261.0</ele><time>2026-04-23T09:44:51Z</time></trkpt><trkpt lat="33.09515160380838" lon="-7.58579914745952"><ele>261.0</ele><time>2026-04-23T09:44:52Z</time></trkpt><trkpt lat="33.094862454283934" lon="-7.585902966320243"><ele>262.5</ele><time>2026-04-23T09:44:53Z</time></trkpt><trkpt lat="33.0945766550609" lon="-7.586007472931733"><ele>264.0</ele><time>2026-04-23T09:44:54Z</time></trkpt><trkpt lat="33.09428801499791" lon="-7.586109162004104"><ele>265.5</ele><time>2026-04-23T09:44:55Z</time></trkpt><trkpt lat="33.09400111989799" lon="-7.586212731368843"><ele>267.0</ele><time>2026-04-23T09:44:56Z</time></trkpt><trkpt lat="33.093711989986275" lon="-7.586322597993445"><ele>267.0</ele><time>2026-04-23T09:44:57Z</time></trkpt><trkpt lat="33.09342428523802" lon="-7.586426028260658"><ele>267.0</ele><time>2026-04-23T09:44:58Z</time></trkpt><trkpt lat="33.09313841868638" lon="-7.586527907954563"><ele>267.5</ele><time>2026-04-23T09:44:59Z</time></trkpt><trkpt lat="33.09285075740938" lon="-7.586628643445593"><ele>268.0</ele><time>2026-04-23T09:45:00Z</time></trkpt><trkpt lat="33.09256144787646" lon="-7.586731672484186"><ele>268.5</ele><time>2026-04-23T09:45:01Z</time></trkpt><trkpt lat="33.09227443582002" lon="-7.586834218869874"><ele>269.0</ele><time>2026-04-23T09:45:02Z</time></trkpt><trkpt lat="33.091991316756406" lon="-7.586939136532266"><ele>268.5</ele><time>2026-04-23T09:45:03Z</time></trkpt><trkpt lat="33.09170056836634" lon="-7.587043623752743"><ele>268.0</ele><time>2026-04-23T09:45:04Z</time></trkpt><trkpt lat="33.0914102608547" lon="-7.587153438898173"><ele>269.0</ele><time>2026-04-23T09:45:05Z</time></trkpt><trkpt lat="33.09112071682385" lon="-7.587253639613562"><ele>270.0</ele><time>2026-04-23T09:45:06Z</time></trkpt><trkpt lat="33.090832750715265" lon="-7.587357276024062"><ele>271.0</ele><time>2026-04-23T09:45:07Z</time></trkpt><trkpt lat="33.09054283013687" lon="-7.587458634686615"><ele>272.0</ele><time>2026-04-23T09:45:08Z</time></trkpt><trkpt lat="33.09025325166404" lon="-7.587562716508053"><ele>272.0</ele><time>2026-04-23T09:45:09Z</time></trkpt><trkpt lat="33.08996541167975" lon="-7.5876686007550145"><ele>272.0</ele><time>2026-04-23T09:45:10Z</time></trkpt><trkpt lat="33.08967714859079" lon="-7.587774187398913"><ele>271.5</ele><time>2026-04-23T09:45:11Z</time></trkpt><trkpt lat="33.089388413493054" lon="-7.587876259111715"><ele>271.0</ele><time>2026-04-23T09:45:12Z</time></trkpt><trkpt lat="33.08910388799714" lon="-7.587977819941152"><ele>271.0</ele><time>2026-04-23T09:45:13Z</time></trkpt><trkpt lat="33.088812029451425" lon="-7.5880793202043275"><ele>271.0</ele><time>2026-04-23T09:45:14Z</time></trkpt><trkpt lat="33.08852359007217" lon="-7.588186207149512"><ele>272.0</ele><time>2026-04-23T09:45:14.999Z</time></trkpt><trkpt lat="33.088235138773484" lon="-7.588287340460358"><ele>273.0</ele><time>2026-04-23T09:45:15.999Z</time></trkpt><trkpt lat="33.08794581635709" lon="-7.588387478348447"><ele>273.0</ele><time>2026-04-23T09:45:16.999Z</time></trkpt><trkpt lat="33.08765578753311" lon="-7.588492677086057"><ele>273.0</ele><time>2026-04-23T09:45:17.999Z</time></trkpt><trkpt lat="33.087366833094734" lon="-7.58860837765015"><ele>274.5</ele><time>2026-04-23T09:45:18.999Z</time></trkpt><trkpt lat="33.08708233875329" lon="-7.588719455556841"><ele>276.0</ele><time>2026-04-23T09:45:19.999Z</time></trkpt><trkpt lat="33.08679459350964" lon="-7.5888287963122165"><ele>276.0</ele><time>2026-04-23T09:45:20.999Z</time></trkpt><trkpt lat="33.08651165749226" lon="-7.588932927063841"><ele>276.0</ele><time>2026-04-23T09:45:21.999Z</time></trkpt><trkpt lat="33.08622036286564" lon="-7.589036796751603"><ele>276.0</ele><time>2026-04-23T09:45:22.999Z</time></trkpt><trkpt lat="33.08593433241222" lon="-7.589144703916697"><ele>276.0</ele><time>2026-04-23T09:45:23.999Z</time></trkpt><trkpt lat="33.08564706362193" lon="-7.5892446538528135"><ele>276.5</ele><time>2026-04-23T09:45:24.999Z</time></trkpt><trkpt lat="33.08535523040649" lon="-7.589343548240705"><ele>277.0</ele><time>2026-04-23T09:45:25.999Z</time></trkpt><trkpt lat="33.085066805412275" lon="-7.58945062364533"><ele>275.5</ele><time>2026-04-23T09:45:26.999Z</time></trkpt><trkpt lat="33.08477883305436" lon="-7.589554201240942"><ele>274.0</ele><time>2026-04-23T09:45:27.999Z</time></trkpt><trkpt lat="33.08448986208775" lon="-7.589654546918084"><ele>274.0</ele><time>2026-04-23T09:45:28.999Z</time></trkpt><trkpt lat="33.084202319424136" lon="-7.589762023846339"><ele>274.0</ele><time>2026-04-23T09:45:29.999Z</time></trkpt><trkpt lat="33.08391742724978" lon="-7.589871969556956"><ele>274.5</ele><time>2026-04-23T09:45:30.999Z</time></trkpt><trkpt lat="33.08362745048439" lon="-7.58997987752431"><ele>275.0</ele><time>2026-04-23T09:45:31.999Z</time></trkpt><trkpt lat="33.08334321051728" lon="-7.5900957916380785"><ele>275.0</ele><time>2026-04-23T09:45:32.999Z</time></trkpt><trkpt lat="33.0830568715447" lon="-7.590217081702848"><ele>275.0</ele><time>2026-04-23T09:45:33.999Z</time></trkpt><trkpt lat="33.08277638499039" lon="-7.590342475189392"><ele>275.0</ele><time>2026-04-23T09:45:34.999Z</time></trkpt><trkpt lat="33.082493545038304" lon="-7.590463573860686"><ele>275.0</ele><time>2026-04-23T09:45:35.999Z</time></trkpt><trkpt lat="33.08221382647717" lon="-7.590599222985107"><ele>275.5</ele><time>2026-04-23T09:45:36.999Z</time></trkpt><trkpt lat="33.08194032607741" lon="-7.590743658669901"><ele>276.0</ele><time>2026-04-23T09:45:37.999Z</time></trkpt><trkpt lat="33.08166155271959" lon="-7.590886068373985"><ele>275.0</ele><time>2026-04-23T09:45:38.999Z</time></trkpt><trkpt lat="33.08139188021932" lon="-7.591037629243542"><ele>274.0</ele><time>2026-04-23T09:45:39.999Z</time></trkpt><trkpt lat="33.081120563889044" lon="-7.591191885192596"><ele>273.0</ele><time>2026-04-23T09:45:40.999Z</time></trkpt><trkpt lat="33.08085039680334" lon="-7.5913551527908245"><ele>272.0</ele><time>2026-04-23T09:45:41.999Z</time></trkpt><trkpt lat="33.0805879079512" lon="-7.5915248306991"><ele>272.0</ele><time>2026-04-23T09:45:42.999Z</time></trkpt><trkpt lat="33.08032544741587" lon="-7.591700780909735"><ele>272.0</ele><time>2026-04-23T09:45:43.999Z</time></trkpt><trkpt lat="33.080065533048256" lon="-7.591881715899685"><ele>271.0</ele><time>2026-04-23T09:45:44.999Z</time></trkpt><trkpt lat="33.07981127304697" lon="-7.592064508128935"><ele>270.0</ele><time>2026-04-23T09:45:45.999Z</time></trkpt><trkpt lat="33.07955720731532" lon="-7.5922544436897885"><ele>270.0</ele><time>2026-04-23T09:45:46.999Z</time></trkpt><trkpt lat="33.07930367543764" lon="-7.592449847342344"><ele>270.0</ele><time>2026-04-23T09:45:47.999Z</time></trkpt><trkpt lat="33.07905668021335" lon="-7.5926466849567245"><ele>269.5</ele><time>2026-04-23T09:45:48.999Z</time></trkpt><trkpt lat="33.07881399951531" lon="-7.592845731874661"><ele>269.0</ele><time>2026-04-23T09:45:49.999Z</time></trkpt><trkpt lat="33.07857264602642" lon="-7.593038136700718"><ele>269.0</ele><time>2026-04-23T09:45:50.999Z</time></trkpt><trkpt lat="33.07833090047843" lon="-7.593231886570601"><ele>269.0</ele><time>2026-04-23T09:45:51.999Z</time></trkpt><trkpt lat="33.07809603597025" lon="-7.593432386728849"><ele>269.0</ele><time>2026-04-23T09:45:52.999Z</time></trkpt><trkpt lat="33.07785897595011" lon="-7.59362898367074"><ele>269.0</ele><time>2026-04-23T09:45:53.999Z</time></trkpt><trkpt lat="33.077626659380755" lon="-7.593819401382349"><ele>269.5</ele><time>2026-04-23T09:45:54.999Z</time></trkpt><trkpt lat="33.07739509228832" lon="-7.594012270898398"><ele>270.0</ele><time>2026-04-23T09:45:55.999Z</time></trkpt><trkpt lat="33.07716395369229" lon="-7.594204452959663"><ele>270.0</ele><time>2026-04-23T09:45:56.999Z</time></trkpt><trkpt lat="33.07693751622909" lon="-7.594391600641252"><ele>270.0</ele><time>2026-04-23T09:45:57.999Z</time></trkpt><trkpt lat="33.07670968116239" lon="-7.59457379344395"><ele>270.5</ele><time>2026-04-23T09:45:58.999Z</time></trkpt><trkpt lat="33.076483001408086" lon="-7.594751085923128"><ele>271.0</ele><time>2026-04-23T09:45:59.999Z</time></trkpt><trkpt lat="33.076257287682054" lon="-7.594927877166149"><ele>271.0</ele><time>2026-04-23T09:46:00.999Z</time></trkpt><trkpt lat="33.076031654843945" lon="-7.595099689884313"><ele>271.0</ele><time>2026-04-23T09:46:01.999Z</time></trkpt><trkpt lat="33.075798438065135" lon="-7.595260268948346"><ele>270.5</ele><time>2026-04-23T09:46:02.999Z</time></trkpt><trkpt lat="33.07556506192151" lon="-7.595423425591679"><ele>270.0</ele><time>2026-04-23T09:46:03.999Z</time></trkpt><trkpt lat="33.0753227689636" lon="-7.595586291364553"><ele>270.0</ele><time>2026-04-23T09:46:04.999Z</time></trkpt><trkpt lat="33.07507151435817" lon="-7.595757757714145"><ele>270.0</ele><time>2026-04-23T09:46:05.999Z</time></trkpt><trkpt lat="33.074814601727844" lon="-7.595924471623375"><ele>272.0</ele><time>2026-04-23T09:46:06.999Z</time></trkpt><trkpt lat="33.07455723850241" lon="-7.596088115205672"><ele>274.0</ele><time>2026-04-23T09:46:07.999Z</time></trkpt><trkpt lat="33.07429407068522" lon="-7.59624868432779"><ele>277.0</ele><time>2026-04-23T09:46:08.999Z</time></trkpt><trkpt lat="33.074027282469345" lon="-7.596405954880066"><ele>280.0</ele><time>2026-04-23T09:46:09.999Z</time></trkpt><trkpt lat="33.07375859304516" lon="-7.596559665672579"><ele>280.0</ele><time>2026-04-23T09:46:10.999Z</time></trkpt><trkpt lat="33.07348634973957" lon="-7.596711846803496"><ele>280.0</ele><time>2026-04-23T09:46:11.999Z</time></trkpt><trkpt lat="33.0732122604366" lon="-7.596859893699046"><ele>282.0</ele><time>2026-04-23T09:46:12.999Z</time></trkpt><trkpt lat="33.072941126757726" lon="-7.597007269848185"><ele>284.0</ele><time>2026-04-23T09:46:13.999Z</time></trkpt><trkpt lat="33.07266385736876" lon="-7.597148258995225"><ele>286.5</ele><time>2026-04-23T09:46:14.999Z</time></trkpt><trkpt lat="33.072386067684526" lon="-7.597279218884015"><ele>289.0</ele><time>2026-04-23T09:46:15.999Z</time></trkpt><trkpt lat="33.072103542439244" lon="-7.5974063229701905"><ele>289.0</ele><time>2026-04-23T09:46:16.999Z</time></trkpt><trkpt lat="33.07182575993495" lon="-7.597527270398716"><ele>289.0</ele><time>2026-04-23T09:46:17.999Z</time></trkpt><trkpt lat="33.07154443126095" lon="-7.597644086518263"><ele>293.5</ele><time>2026-04-23T09:46:18.999Z</time></trkpt><trkpt lat="33.07126165810319" lon="-7.597760182371548"><ele>298.0</ele><time>2026-04-23T09:46:19.999Z</time></trkpt><trkpt lat="33.070975378046654" lon="-7.597862514344916"><ele>304.5</ele><time>2026-04-23T09:46:20.999Z</time></trkpt><trkpt lat="33.07068690123059" lon="-7.5979708605348195"><ele>311.0</ele><time>2026-04-23T09:46:21.999Z</time></trkpt><trkpt lat="33.07040593313839" lon="-7.598075061154662"><ele>311.0</ele><time>2026-04-23T09:46:22.999Z</time></trkpt><trkpt lat="33.07011726495476" lon="-7.598175421592475"><ele>311.0</ele><time>2026-04-23T09:46:23.999Z</time></trkpt><trkpt lat="33.06983106598229" lon="-7.598267599228194"><ele>316.0</ele><time>2026-04-23T09:46:24.999Z</time></trkpt><trkpt lat="33.06954038296907" lon="-7.598356641801127"><ele>321.0</ele><time>2026-04-23T09:46:25.999Z</time></trkpt><trkpt lat="33.069248695497265" lon="-7.598441629993559"><ele>322.0</ele><time>2026-04-23T09:46:26.999Z</time></trkpt><trkpt lat="33.0689554465616" lon="-7.598524788450279"><ele>323.0</ele><time>2026-04-23T09:46:27.999Z</time></trkpt><trkpt lat="33.068662324178256" lon="-7.598601965835971"><ele>319.0</ele><time>2026-04-23T09:46:29Z</time></trkpt><trkpt lat="33.06837103060009" lon="-7.598671154262652"><ele>315.0</ele><time>2026-04-23T09:46:30Z</time></trkpt><trkpt lat="33.06807765753312" lon="-7.5987356726723085"><ele>313.0</ele><time>2026-04-23T09:46:31Z</time></trkpt><trkpt lat="33.06778253348099" lon="-7.598797801245576"><ele>311.0</ele><time>2026-04-23T09:46:32Z</time></trkpt><trkpt lat="33.06748618403809" lon="-7.598860009411006"><ele>308.5</ele><time>2026-04-23T09:46:33Z</time></trkpt><trkpt lat="33.06718519484384" lon="-7.598916459450201"><ele>306.0</ele><time>2026-04-23T09:46:34Z</time></trkpt><trkpt lat="33.06688936416122" lon="-7.598962958177799"><ele>308.0</ele><time>2026-04-23T09:46:35Z</time></trkpt><trkpt lat="33.066595947697095" lon="-7.5990080229462675"><ele>310.0</ele><time>2026-04-23T09:46:36Z</time></trkpt><trkpt lat="33.06629253690814" lon="-7.599047748217282"><ele>310.0</ele><time>2026-04-23T09:46:37Z</time></trkpt><trkpt lat="33.06599400440511" lon="-7.599079926961652"><ele>310.0</ele><time>2026-04-23T09:46:38Z</time></trkpt><trkpt lat="33.06569448169777" lon="-7.599113732706417"><ele>311.0</ele><time>2026-04-23T09:46:39Z</time></trkpt><trkpt lat="33.065394673403475" lon="-7.599140613687297"><ele>312.0</ele><time>2026-04-23T09:46:40Z</time></trkpt><trkpt lat="33.06509478578975" lon="-7.59917415610324"><ele>315.5</ele><time>2026-04-23T09:46:41Z</time></trkpt><trkpt lat="33.06479447614143" lon="-7.599200966961908"><ele>319.0</ele><time>2026-04-23T09:46:42Z</time></trkpt><trkpt lat="33.064498532118066" lon="-7.599225362817764"><ele>319.0</ele><time>2026-04-23T09:46:43Z</time></trkpt><trkpt lat="33.06421098120605" lon="-7.599253769253347"><ele>319.0</ele><time>2026-04-23T09:46:44Z</time></trkpt><trkpt lat="33.06393044672655" lon="-7.599276568674566"><ele>324.0</ele><time>2026-04-23T09:46:45Z</time></trkpt><trkpt lat="33.06365695590042" lon="-7.599290133148387"><ele>329.0</ele><time>2026-04-23T09:46:46Z</time></trkpt><trkpt lat="33.0633856964232" lon="-7.599315608128886"><ele>334.0</ele><time>2026-04-23T09:46:47Z</time></trkpt><trkpt lat="33.06311670765975" lon="-7.5993384312756485"><ele>339.0</ele><time>2026-04-23T09:46:48Z</time></trkpt><trkpt lat="33.062851483986165" lon="-7.599361935880477"><ele>339.0</ele><time>2026-04-23T09:46:49Z</time></trkpt><trkpt lat="33.06258028343293" lon="-7.599378926345746"><ele>339.0</ele><time>2026-04-23T09:46:50Z</time></trkpt><trkpt lat="33.0623074425723" lon="-7.599398628542899"><ele>340.0</ele><time>2026-04-23T09:46:51Z</time></trkpt><trkpt lat="33.06203199487078" lon="-7.599419821242113"><ele>341.0</ele><time>2026-04-23T09:46:52Z</time></trkpt><trkpt lat="33.06175234002445" lon="-7.599437754257547"><ele>339.5</ele><time>2026-04-23T09:46:53Z</time></trkpt><trkpt lat="33.06146821811761" lon="-7.599464659996174"><ele>338.0</ele><time>2026-04-23T09:46:54Z</time></trkpt><trkpt lat="33.06117657479674" lon="-7.599485916569107"><ele>336.0</ele><time>2026-04-23T09:46:55Z</time></trkpt><trkpt lat="33.06089061859939" lon="-7.599512946390487"><ele>334.0</ele><time>2026-04-23T09:46:56Z</time></trkpt><trkpt lat="33.06059425195027" lon="-7.599537784867021"><ele>334.0</ele><time>2026-04-23T09:46:57Z</time></trkpt><trkpt lat="33.060296579106975" lon="-7.599562429614674"><ele>334.0</ele><time>2026-04-23T09:46:58Z</time></trkpt><trkpt lat="33.06000008748527" lon="-7.599592525025845"><ele>337.5</ele><time>2026-04-23T09:46:59Z</time></trkpt><trkpt lat="33.05969883771636" lon="-7.599614043653994"><ele>341.0</ele><time>2026-04-23T09:47:00Z</time></trkpt><trkpt lat="33.05940205411385" lon="-7.599640414250886"><ele>341.5</ele><time>2026-04-23T09:47:01Z</time></trkpt><trkpt lat="33.05910176882044" lon="-7.599671870292857"><ele>342.0</ele><time>2026-04-23T09:47:02Z</time></trkpt><trkpt lat="33.05880255943757" lon="-7.599705923775163"><ele>342.0</ele><time>2026-04-23T09:47:03Z</time></trkpt><trkpt lat="33.058502566467006" lon="-7.599739977219728"><ele>342.0</ele><time>2026-04-23T09:47:04Z</time></trkpt><trkpt lat="33.05820613180126" lon="-7.59976659170609"><ele>343.0</ele><time>2026-04-23T09:47:05Z</time></trkpt><trkpt lat="33.057905179106854" lon="-7.59979473811468"><ele>344.0</ele><time>2026-04-23T09:47:06Z</time></trkpt><trkpt lat="33.05760372844683" lon="-7.5998190301976685"><ele>348.0</ele><time>2026-04-23T09:47:07Z</time></trkpt><trkpt lat="33.05730501499876" lon="-7.599845244866316"><ele>352.0</ele><time>2026-04-23T09:47:08Z</time></trkpt><trkpt lat="33.057004082390655" lon="-7.599865921366661"><ele>352.0</ele><time>2026-04-23T09:47:09Z</time></trkpt><trkpt lat="33.05670600010725" lon="-7.59987848542008"><ele>352.0</ele><time>2026-04-23T09:47:09.999Z</time></trkpt><trkpt lat="33.05641095140417" lon="-7.599890391490133"><ele>355.5</ele><time>2026-04-23T09:47:10.999Z</time></trkpt><trkpt lat="33.056112205466974" lon="-7.599892218080592"><ele>359.0</ele><time>2026-04-23T09:47:11.999Z</time></trkpt><trkpt lat="33.05580918780306" lon="-7.599892500645648"><ele>361.0</ele><time>2026-04-23T09:47:12.999Z</time></trkpt><trkpt lat="33.05550993241545" lon="-7.599884303726806"><ele>363.0</ele><time>2026-04-23T09:47:13.999Z</time></trkpt><trkpt lat="33.05521066103943" lon="-7.599870850240376"><ele>367.5</ele><time>2026-04-23T09:47:14.999Z</time></trkpt><trkpt lat="33.05491049742494" lon="-7.599856907985761"><ele>372.0</ele><time>2026-04-23T09:47:15.999Z</time></trkpt><trkpt lat="33.05460929644454" lon="-7.599834256216214"><ele>372.0</ele><time>2026-04-23T09:47:16.999Z</time></trkpt><trkpt lat="33.05431066862791" lon="-7.599806289409352"><ele>372.0</ele><time>2026-04-23T09:47:17.999Z</time></trkpt><trkpt lat="33.054010865037185" lon="-7.59977268677784"><ele>378.0</ele><time>2026-04-23T09:47:18.999Z</time></trkpt><trkpt lat="33.053713682923835" lon="-7.599735336751044"><ele>384.0</ele><time>2026-04-23T09:47:19.999Z</time></trkpt><trkpt lat="33.05341796937983" lon="-7.599691307143135"><ele>387.0</ele><time>2026-04-23T09:47:20.999Z</time></trkpt><trkpt lat="33.05311964148263" lon="-7.599637676829505"><ele>390.0</ele><time>2026-04-23T09:47:21.999Z</time></trkpt><trkpt lat="33.05282617142042" lon="-7.599577853269848"><ele>390.0</ele><time>2026-04-23T09:47:22.999Z</time></trkpt><trkpt lat="33.052534937500965" lon="-7.599511505044641"><ele>390.0</ele><time>2026-04-23T09:47:23.999Z</time></trkpt><trkpt lat="33.0522428872003" lon="-7.599440565678782"><ele>388.0</ele><time>2026-04-23T09:47:24.999Z</time></trkpt><trkpt lat="33.051944565280515" lon="-7.599366924221016"><ele>386.0</ele><time>2026-04-23T09:47:25.999Z</time></trkpt><trkpt lat="33.05164754658004" lon="-7.599287887749098"><ele>383.5</ele><time>2026-04-23T09:47:26.999Z</time></trkpt><trkpt lat="33.051351347086964" lon="-7.599206585800282"><ele>381.0</ele><time>2026-04-23T09:47:27.999Z</time></trkpt><trkpt lat="33.05106132709736" lon="-7.5991284611103485"><ele>376.5</ele><time>2026-04-23T09:47:28.999Z</time></trkpt><trkpt lat="33.050766188737555" lon="-7.599047809758151"><ele>372.0</ele><time>2026-04-23T09:47:29.999Z</time></trkpt><trkpt lat="33.05046938961038" lon="-7.598968940354609"><ele>372.0</ele><time>2026-04-23T09:47:30.999Z</time></trkpt><trkpt lat="33.050170672299885" lon="-7.598887130428216"><ele>372.0</ele><time>2026-04-23T09:47:31.999Z</time></trkpt><trkpt lat="33.04987877244641" lon="-7.598811671049819"><ele>373.0</ele><time>2026-04-23T09:47:32.999Z</time></trkpt><trkpt lat="33.049581269220994" lon="-7.59874413637987"><ele>374.0</ele><time>2026-04-23T09:47:33.999Z</time></trkpt><trkpt lat="33.04928065808141" lon="-7.598676604116115"><ele>377.5</ele><time>2026-04-23T09:47:34.999Z</time></trkpt><trkpt lat="33.048987915117486" lon="-7.598614308408889"><ele>381.0</ele><time>2026-04-23T09:47:35.999Z</time></trkpt><trkpt lat="33.04869300758506" lon="-7.598562071252401"><ele>381.0</ele><time>2026-04-23T09:47:36.999Z</time></trkpt><trkpt lat="33.04839426564683" lon="-7.598514295192999"><ele>381.0</ele><time>2026-04-23T09:47:37.999Z</time></trkpt><trkpt lat="33.04809710167504" lon="-7.598471639583204"><ele>384.0</ele><time>2026-04-23T09:47:38.999Z</time></trkpt><trkpt lat="33.04779856221749" lon="-7.598429009961246"><ele>387.0</ele><time>2026-04-23T09:47:39.999Z</time></trkpt><trkpt lat="33.04749631663777" lon="-7.598396979509866"><ele>388.5</ele><time>2026-04-23T09:47:40.999Z</time></trkpt><trkpt lat="33.047194018803204" lon="-7.598365932870333"><ele>390.0</ele><time>2026-04-23T09:47:41.999Z</time></trkpt><trkpt lat="33.04689449933942" lon="-7.598345535091068"><ele>390.0</ele><time>2026-04-23T09:47:42.999Z</time></trkpt><trkpt lat="33.0466031879037" lon="-7.59832823549217"><ele>390.0</ele><time>2026-04-23T09:47:43.999Z</time></trkpt><trkpt lat="33.0463039986293" lon="-7.598316869722867"><ele>390.0</ele><time>2026-04-23T09:47:44.999Z</time></trkpt><trkpt lat="33.04600753920669" lon="-7.598308558095782"><ele>390.0</ele><time>2026-04-23T09:47:45.999Z</time></trkpt><trkpt lat="33.04570579957245" lon="-7.598309556990446"><ele>389.5</ele><time>2026-04-23T09:47:46.999Z</time></trkpt><trkpt lat="33.04540546459296" lon="-7.5983195133178825"><ele>389.0</ele><time>2026-04-23T09:47:47.999Z</time></trkpt><trkpt lat="33.045103500222794" lon="-7.598337064605503"><ele>389.0</ele><time>2026-04-23T09:47:48.999Z</time></trkpt><trkpt lat="33.044806187139564" lon="-7.598357102680164"><ele>389.0</ele><time>2026-04-23T09:47:49.999Z</time></trkpt><trkpt lat="33.04450772864749" lon="-7.5983845331852065"><ele>389.0</ele><time>2026-04-23T09:47:50.999Z</time></trkpt><trkpt lat="33.04420247080259" lon="-7.598412423240187"><ele>389.0</ele><time>2026-04-23T09:47:51.999Z</time></trkpt><trkpt lat="33.04390562709769" lon="-7.5984395337788735"><ele>390.5</ele><time>2026-04-23T09:47:52.999Z</time></trkpt><trkpt lat="33.04360336739166" lon="-7.598470328215618"><ele>392.0</ele><time>2026-04-23T09:47:53.999Z</time></trkpt><trkpt lat="33.04330442802035" lon="-7.59849968390969"><ele>392.5</ele><time>2026-04-23T09:47:54.999Z</time></trkpt><trkpt lat="33.0430047351878" lon="-7.598531818662426"><ele>393.0</ele><time>2026-04-23T09:47:55.999Z</time></trkpt><trkpt lat="33.04270338914686" lon="-7.598570491604727"><ele>392.0</ele><time>2026-04-23T09:47:56.999Z</time></trkpt><trkpt lat="33.04240492385839" lon="-7.5986034772543265"><ele>391.0</ele><time>2026-04-23T09:47:57.999Z</time></trkpt><trkpt lat="33.04210279631886" lon="-7.598635780770403"><ele>391.0</ele><time>2026-04-23T09:47:58.999Z</time></trkpt><trkpt lat="33.04179971742633" lon="-7.598663521275309"><ele>391.0</ele><time>2026-04-23T09:47:59.999Z</time></trkpt><trkpt lat="33.04149835878555" lon="-7.5986913422845"><ele>391.0</ele><time>2026-04-23T09:48:00.999Z</time></trkpt><trkpt lat="33.04119664662664" lon="-7.59871991932834"><ele>391.0</ele><time>2026-04-23T09:48:01.999Z</time></trkpt><trkpt lat="33.04089685552173" lon="-7.598748675586435"><ele>388.5</ele><time>2026-04-23T09:48:02.999Z</time></trkpt><trkpt lat="33.04059798773366" lon="-7.598774013237944"><ele>386.0</ele><time>2026-04-23T09:48:03.999Z</time></trkpt><trkpt lat="33.04029578829926" lon="-7.5987953190813435"><ele>386.0</ele><time>2026-04-23T09:48:04.999Z</time></trkpt><trkpt lat="33.039997499406596" lon="-7.598819595758587"><ele>386.0</ele><time>2026-04-23T09:48:05.999Z</time></trkpt><trkpt lat="33.03969370682834" lon="-7.598845480271673"><ele>386.5</ele><time>2026-04-23T09:48:06.999Z</time></trkpt><trkpt lat="33.03939273528657" lon="-7.598866069692529"><ele>387.0</ele><time>2026-04-23T09:48:07.999Z</time></trkpt><trkpt lat="33.03909241086214" lon="-7.598890733056712"><ele>387.0</ele><time>2026-04-23T09:48:08.999Z</time></trkpt><trkpt lat="33.038792913328436" lon="-7.598915852767421"><ele>387.0</ele><time>2026-04-23T09:48:09.999Z</time></trkpt><trkpt lat="33.03849073024503" lon="-7.598936000423613"><ele>387.0</ele><time>2026-04-23T09:48:10.999Z</time></trkpt><trkpt lat="33.03819117836978" lon="-7.598954824047912"><ele>387.0</ele><time>2026-04-23T09:48:11.999Z</time></trkpt><trkpt lat="33.03788971398209" lon="-7.598970443537977"><ele>387.0</ele><time>2026-04-23T09:48:12.999Z</time></trkpt><trkpt lat="33.03758894640215" lon="-7.59898247360691"><ele>387.0</ele><time>2026-04-23T09:48:13.999Z</time></trkpt><trkpt lat="33.037287761498604" lon="-7.598992141032314"><ele>384.5</ele><time>2026-04-23T09:48:14.999Z</time></trkpt><trkpt lat="33.03698931626445" lon="-7.598997764857776"><ele>382.0</ele><time>2026-04-23T09:48:15.999Z</time></trkpt><trkpt lat="33.036688717317176" lon="-7.598999981119561"><ele>387.0</ele><time>2026-04-23T09:48:16.999Z</time></trkpt><trkpt lat="33.03638829031535" lon="-7.5989992900606"><ele>392.0</ele><time>2026-04-23T09:48:17.999Z</time></trkpt><trkpt lat="33.03608938821984" lon="-7.598992446718276"><ele>393.5</ele><time>2026-04-23T09:48:18.999Z</time></trkpt><trkpt lat="33.035789632390085" lon="-7.598981986686684"><ele>395.0</ele><time>2026-04-23T09:48:19.999Z</time></trkpt><trkpt lat="33.03549202918357" lon="-7.598965013854134"><ele>395.0</ele><time>2026-04-23T09:48:20.999Z</time></trkpt><trkpt lat="33.03519272319337" lon="-7.598941196304349"><ele>395.0</ele><time>2026-04-23T09:48:21.999Z</time></trkpt><trkpt lat="33.034894348519984" lon="-7.598913724244278"><ele>396.0</ele><time>2026-04-23T09:48:22.999Z</time></trkpt><trkpt lat="33.034596327485374" lon="-7.5988799902184665"><ele>397.0</ele><time>2026-04-23T09:48:23.999Z</time></trkpt><trkpt lat="33.034298064743766" lon="-7.598841529805654"><ele>397.5</ele><time>2026-04-23T09:48:24.999Z</time></trkpt><trkpt lat="33.034000444587264" lon="-7.5987976696957755"><ele>398.0</ele><time>2026-04-23T09:48:25.999Z</time></trkpt><trkpt lat="33.03370295519638" lon="-7.598751696593739"><ele>398.0</ele><time>2026-04-23T09:48:26.999Z</time></trkpt><trkpt lat="33.03340657128174" lon="-7.598700427560725"><ele>398.0</ele><time>2026-04-23T09:48:27.999Z</time></trkpt><trkpt lat="33.033110072627856" lon="-7.598642145524742"><ele>393.5</ele><time>2026-04-23T09:48:28.998Z</time></trkpt><trkpt lat="33.03281500411171" lon="-7.598579164837276"><ele>389.0</ele><time>2026-04-23T09:48:29.998Z</time></trkpt><trkpt lat="33.03252069421753" lon="-7.59851046757584"><ele>385.0</ele><time>2026-04-23T09:48:30.998Z</time></trkpt><trkpt lat="33.03222708451381" lon="-7.598437061329875"><ele>381.0</ele><time>2026-04-23T09:48:31.998Z</time></trkpt><trkpt lat="33.031934554549075" lon="-7.598359290543809"><ele>381.0</ele><time>2026-04-23T09:48:32.998Z</time></trkpt><trkpt lat="33.03164118443709" lon="-7.598280044956245"><ele>381.0</ele><time>2026-04-23T09:48:34Z</time></trkpt><trkpt lat="33.0313489080391" lon="-7.598197557303595"><ele>381.0</ele><time>2026-04-23T09:48:35Z</time></trkpt><trkpt lat="33.03105819460342" lon="-7.598107764100723"><ele>381.0</ele><time>2026-04-23T09:48:36Z</time></trkpt><trkpt lat="33.03076973787577" lon="-7.598011373564391"><ele>386.0</ele><time>2026-04-23T09:48:37Z</time></trkpt><trkpt lat="33.03048304289215" lon="-7.597909943625695"><ele>391.0</ele><time>2026-04-23T09:48:38Z</time></trkpt><trkpt lat="33.03019587349695" lon="-7.597806122461023"><ele>396.5</ele><time>2026-04-23T09:48:39Z</time></trkpt><trkpt lat="33.02991199132328" lon="-7.597698557634709"><ele>402.0</ele><time>2026-04-23T09:48:40Z</time></trkpt><trkpt lat="33.02963521828888" lon="-7.597584954670585"><ele>402.0</ele><time>2026-04-23T09:48:41Z</time></trkpt><trkpt lat="33.02935985778436" lon="-7.597463961936002"><ele>402.0</ele><time>2026-04-23T09:48:42Z</time></trkpt><trkpt lat="33.029082495055114" lon="-7.597339116837896"><ele>403.5</ele><time>2026-04-23T09:48:43Z</time></trkpt><trkpt lat="33.02880446667129" lon="-7.597213591921969"><ele>405.0</ele><time>2026-04-23T09:48:44Z</time></trkpt><trkpt lat="33.02852447951407" lon="-7.5970902486834895"><ele>402.5</ele><time>2026-04-23T09:48:45Z</time></trkpt><trkpt lat="33.028244991498674" lon="-7.596965760065187"><ele>400.0</ele><time>2026-04-23T09:48:46Z</time></trkpt><trkpt lat="33.02796491275173" lon="-7.596840310556244"><ele>400.0</ele><time>2026-04-23T09:48:47Z</time></trkpt><trkpt lat="33.027684987056396" lon="-7.596713872814972"><ele>400.0</ele><time>2026-04-23T09:48:48Z</time></trkpt><trkpt lat="33.027404530816334" lon="-7.596589966643694"><ele>402.0</ele><time>2026-04-23T09:48:49Z</time></trkpt><trkpt lat="33.02712422423118" lon="-7.596466119116606"><ele>404.0</ele><time>2026-04-23T09:48:50Z</time></trkpt><trkpt lat="33.026842975855274" lon="-7.596343358221176"><ele>405.5</ele><time>2026-04-23T09:48:51Z</time></trkpt><trkpt lat="33.0265615874085" lon="-7.596224213874617"><ele>407.0</ele><time>2026-04-23T09:48:52Z</time></trkpt><trkpt lat="33.026277679784826" lon="-7.596105429639617"><ele>407.0</ele><time>2026-04-23T09:48:53Z</time></trkpt><trkpt lat="33.02599521206719" lon="-7.59598311039354"><ele>407.0</ele><time>2026-04-23T09:48:54Z</time></trkpt><trkpt lat="33.02571309432546" lon="-7.595860236891382"><ele>408.5</ele><time>2026-04-23T09:48:55Z</time></trkpt><trkpt lat="33.02543030937088" lon="-7.59573463628926"><ele>410.0</ele><time>2026-04-23T09:48:56Z</time></trkpt><trkpt lat="33.02514715007882" lon="-7.595609107708368"><ele>410.5</ele><time>2026-04-23T09:48:57Z</time></trkpt><trkpt lat="33.02486356012697" lon="-7.59548306080013"><ele>411.0</ele><time>2026-04-23T09:48:58Z</time></trkpt><trkpt lat="33.024580197400454" lon="-7.59535658865225"><ele>410.0</ele><time>2026-04-23T09:48:59Z</time></trkpt><trkpt lat="33.02429579320061" lon="-7.595231727454645"><ele>409.0</ele><time>2026-04-23T09:49:00Z</time></trkpt><trkpt lat="33.02401170223829" lon="-7.595108812318263"><ele>408.5</ele><time>2026-04-23T09:49:01Z</time></trkpt><trkpt lat="33.02372944922884" lon="-7.594984982422141"><ele>408.0</ele><time>2026-04-23T09:49:02Z</time></trkpt><trkpt lat="33.023447710182765" lon="-7.5948592564596025"><ele>409.5</ele><time>2026-04-23T09:49:03Z</time></trkpt><trkpt lat="33.02316674635915" lon="-7.594732964367886"><ele>411.0</ele><time>2026-04-23T09:49:04Z</time></trkpt><trkpt lat="33.0228867189923" lon="-7.594605935593568"><ele>410.5</ele><time>2026-04-23T09:49:04.999Z</time></trkpt><trkpt lat="33.02260586804951" lon="-7.594479793774281"><ele>410.0</ele><time>2026-04-23T09:49:05.999Z</time></trkpt><trkpt lat="33.0223230746611" lon="-7.5943556958396705"><ele>409.5</ele><time>2026-04-23T09:49:06.999Z</time></trkpt><trkpt lat="33.02204264215229" lon="-7.594233783025624"><ele>409.0</ele><time>2026-04-23T09:49:07.999Z</time></trkpt><trkpt lat="33.02176109889287" lon="-7.594110992507135"><ele>410.5</ele><time>2026-04-23T09:49:08.999Z</time></trkpt><trkpt lat="33.02147917141452" lon="-7.593987717225303"><ele>412.0</ele><time>2026-04-23T09:49:09.999Z</time></trkpt><trkpt lat="33.021198295006855" lon="-7.593865354339975"><ele>412.0</ele><time>2026-04-23T09:49:10.999Z</time></trkpt><trkpt lat="33.02091596976742" lon="-7.593739724573345"><ele>412.0</ele><time>2026-04-23T09:49:11.999Z</time></trkpt><trkpt lat="33.02063640709118" lon="-7.59361290009957"><ele>410.5</ele><time>2026-04-23T09:49:12.999Z</time></trkpt><trkpt lat="33.020356389710926" lon="-7.593487142665659"><ele>409.0</ele><time>2026-04-23T09:49:13.999Z</time></trkpt><trkpt lat="33.02007579876736" lon="-7.593362113232551"><ele>411.0</ele><time>2026-04-23T09:49:14.999Z</time></trkpt><trkpt lat="33.01979458668336" lon="-7.5932384889425695"><ele>413.0</ele><time>2026-04-23T09:49:15.999Z</time></trkpt><trkpt lat="33.01951301891413" lon="-7.593113734328443"><ele>413.0</ele><time>2026-04-23T09:49:16.999Z</time></trkpt><trkpt lat="33.01923161617532" lon="-7.592989228719619"><ele>413.0</ele><time>2026-04-23T09:49:17.999Z</time></trkpt><trkpt lat="33.018950989059185" lon="-7.592866747403673"><ele>414.5</ele><time>2026-04-23T09:49:18.999Z</time></trkpt><trkpt lat="33.018669770717196" lon="-7.592744575692076"><ele>416.0</ele><time>2026-04-23T09:49:19.999Z</time></trkpt><trkpt lat="33.01838854171204" lon="-7.592621311177362"><ele>417.0</ele><time>2026-04-23T09:49:20.999Z</time></trkpt><trkpt lat="33.01810654475835" lon="-7.592497150651759"><ele>418.0</ele><time>2026-04-23T09:49:21.999Z</time></trkpt><trkpt lat="33.017818757742816" lon="-7.592390628893655"><ele>418.0</ele><time>2026-04-23T09:49:22.999Z</time></trkpt><trkpt lat="33.01754310695595" lon="-7.592247145775622"><ele>418.0</ele><time>2026-04-23T09:49:23.999Z</time></trkpt><trkpt lat="33.01726195990171" lon="-7.592121741478502"><ele>417.5</ele><time>2026-04-23T09:49:24.999Z</time></trkpt><trkpt lat="33.01698127381972" lon="-7.591995297974366"><ele>417.0</ele><time>2026-04-23T09:49:25.999Z</time></trkpt><trkpt lat="33.01669941326195" lon="-7.591869381204773"><ele>415.0</ele><time>2026-04-23T09:49:26.999Z</time></trkpt><trkpt lat="33.01641741321073" lon="-7.591744781238044"><ele>413.0</ele><time>2026-04-23T09:49:27.999Z</time></trkpt><trkpt lat="33.016135444315104" lon="-7.591620416384593"><ele>413.0</ele><time>2026-04-23T09:49:28.999Z</time></trkpt><trkpt lat="33.01585325491999" lon="-7.591495621782249"><ele>413.0</ele><time>2026-04-23T09:49:29.999Z</time></trkpt><trkpt lat="33.01557098755977" lon="-7.591374121127155"><ele>411.0</ele><time>2026-04-23T09:49:30.999Z</time></trkpt><trkpt lat="33.015288784375564" lon="-7.591256622421874"><ele>409.0</ele><time>2026-04-23T09:49:31.999Z</time></trkpt><trkpt lat="33.01500575221656" lon="-7.591141689767173"><ele>407.5</ele><time>2026-04-23T09:49:32.999Z</time></trkpt><trkpt lat="33.01472221629812" lon="-7.591029658500817"><ele>406.0</ele><time>2026-04-23T09:49:33.999Z</time></trkpt><trkpt lat="33.014436856169624" lon="-7.590919506202403"><ele>409.5</ele><time>2026-04-23T09:49:34.999Z</time></trkpt><trkpt lat="33.01415186235714" lon="-7.590812057744823"><ele>413.0</ele><time>2026-04-23T09:49:35.999Z</time></trkpt><trkpt lat="33.01386579717494" lon="-7.590706165744907"><ele>413.0</ele><time>2026-04-23T09:49:36.999Z</time></trkpt><trkpt lat="33.01357892405642" lon="-7.590603456627645"><ele>413.0</ele><time>2026-04-23T09:49:37.999Z</time></trkpt><trkpt lat="33.013289362981965" lon="-7.590504196116284"><ele>413.0</ele><time>2026-04-23T09:49:38.999Z</time></trkpt><trkpt lat="33.012997557174714" lon="-7.590407233656557"><ele>413.0</ele><time>2026-04-23T09:49:39.999Z</time></trkpt><trkpt lat="33.01270692415971" lon="-7.5903129919675365"><ele>414.0</ele><time>2026-04-23T09:49:40.999Z</time></trkpt><trkpt lat="33.01241645984184" lon="-7.59022123655302"><ele>415.0</ele><time>2026-04-23T09:49:41.999Z</time></trkpt><trkpt lat="33.012125589479005" lon="-7.590132852381662"><ele>415.0</ele><time>2026-04-23T09:49:42.999Z</time></trkpt><trkpt lat="33.011834440159" lon="-7.590045137327645"><ele>415.0</ele><time>2026-04-23T09:49:43.999Z</time></trkpt><trkpt lat="33.01154225876054" lon="-7.589962230014776"><ele>415.5</ele><time>2026-04-23T09:49:44.999Z</time></trkpt><trkpt lat="33.011249675712214" lon="-7.5898814768992375"><ele>416.0</ele><time>2026-04-23T09:49:45.999Z</time></trkpt><trkpt lat="33.01095540060058" lon="-7.589803847494732"><ele>416.0</ele><time>2026-04-23T09:49:46.999Z</time></trkpt><trkpt lat="33.01065898180558" lon="-7.58972761208912"><ele>416.0</ele><time>2026-04-23T09:49:47.999Z</time></trkpt><trkpt lat="33.010363650791824" lon="-7.589654617428221"><ele>416.0</ele><time>2026-04-23T09:49:48.999Z</time></trkpt><trkpt lat="33.01006782473696" lon="-7.589584596416525"><ele>416.0</ele><time>2026-04-23T09:49:49.999Z</time></trkpt><trkpt lat="33.00977060514496" lon="-7.589516759220427"><ele>416.0</ele><time>2026-04-23T09:49:50.999Z</time></trkpt><trkpt lat="33.009474000236104" lon="-7.58945136693829"><ele>416.0</ele><time>2026-04-23T09:49:51.999Z</time></trkpt><trkpt lat="33.009175616697846" lon="-7.58938693357504"><ele>417.0</ele><time>2026-04-23T09:49:52.999Z</time></trkpt><trkpt lat="33.00887646265003" lon="-7.589325345289339"><ele>418.0</ele><time>2026-04-23T09:49:53.999Z</time></trkpt><trkpt lat="33.00857821073282" lon="-7.589265905679779"><ele>418.5</ele><time>2026-04-23T09:49:54.999Z</time></trkpt><trkpt lat="33.008279950041484" lon="-7.589210670309172"><ele>419.0</ele><time>2026-04-23T09:49:55.999Z</time></trkpt><trkpt lat="33.007981424671605" lon="-7.589157936277397"><ele>419.0</ele><time>2026-04-23T09:49:56.999Z</time></trkpt><trkpt lat="33.00768186043906" lon="-7.589108137202423"><ele>419.0</ele><time>2026-04-23T09:49:57.999Z</time></trkpt><trkpt lat="33.00738259162725" lon="-7.589059863515504"><ele>419.5</ele><time>2026-04-23T09:49:58.999Z</time></trkpt><trkpt lat="33.00708263417912" lon="-7.589014231708522"><ele>420.0</ele><time>2026-04-23T09:49:59.999Z</time></trkpt><trkpt lat="33.006782106961026" lon="-7.588968538785874"><ele>421.0</ele><time>2026-04-23T09:50:00.999Z</time></trkpt><trkpt lat="33.00648185495583" lon="-7.588926818369212"><ele>422.0</ele><time>2026-04-23T09:50:01.999Z</time></trkpt><trkpt lat="33.00618100416578" lon="-7.588887740379407"><ele>422.0</ele><time>2026-04-23T09:50:02.999Z</time></trkpt><trkpt lat="33.00587998129652" lon="-7.588851776343589"><ele>422.0</ele><time>2026-04-23T09:50:03.999Z</time></trkpt><trkpt lat="33.005578817837936" lon="-7.588817792003533"><ele>420.5</ele><time>2026-04-23T09:50:04.999Z</time></trkpt><trkpt lat="33.00527724359173" lon="-7.5887866047916965"><ele>419.0</ele><time>2026-04-23T09:50:05.999Z</time></trkpt><trkpt lat="33.004975466184085" lon="-7.588757712094485"><ele>418.0</ele><time>2026-04-23T09:50:06.999Z</time></trkpt><trkpt lat="33.00467412638281" lon="-7.588731617135947"><ele>417.0</ele><time>2026-04-23T09:50:07.999Z</time></trkpt><trkpt lat="33.004374187683915" lon="-7.588706627864918"><ele>417.5</ele><time>2026-04-23T09:50:08.999Z</time></trkpt><trkpt lat="33.00407450593359" lon="-7.588683633274243"><ele>418.0</ele><time>2026-04-23T09:50:09.999Z</time></trkpt><trkpt lat="33.00377367779135" lon="-7.588662160619251"><ele>416.5</ele><time>2026-04-23T09:50:10.999Z</time></trkpt><trkpt lat="33.00347352364108" lon="-7.588646168392187"><ele>415.0</ele><time>2026-04-23T09:50:11.999Z</time></trkpt><trkpt lat="33.003173157828726" lon="-7.588632982848381"><ele>415.0</ele><time>2026-04-23T09:50:12.999Z</time></trkpt><trkpt lat="33.00287343204621" lon="-7.588621854075862"><ele>415.0</ele><time>2026-04-23T09:50:13.999Z</time></trkpt><trkpt lat="33.002572872964" lon="-7.58861260286141"><ele>412.5</ele><time>2026-04-23T09:50:14.999Z</time></trkpt><trkpt lat="33.00227225264131" lon="-7.588606418041909"><ele>410.0</ele><time>2026-04-23T09:50:15.999Z</time></trkpt><trkpt lat="33.001971873728614" lon="-7.588604582203998"><ele>410.0</ele><time>2026-04-23T09:50:16.999Z</time></trkpt><trkpt lat="33.00167068926839" lon="-7.588604873747262"><ele>410.0</ele><time>2026-04-23T09:50:17.999Z</time></trkpt><trkpt lat="33.00137649789426" lon="-7.588610407213542"><ele>407.0</ele><time>2026-04-23T09:50:18.999Z</time></trkpt><trkpt lat="33.001091178217955" lon="-7.588618564953438"><ele>404.0</ele><time>2026-04-23T09:50:19.999Z</time></trkpt><trkpt lat="33.00081648748836" lon="-7.588628736255267"><ele>403.0</ele><time>2026-04-23T09:50:20.999Z</time></trkpt><trkpt lat="33.00054635713341" lon="-7.5886372074317405"><ele>402.0</ele><time>2026-04-23T09:50:21.999Z</time></trkpt><trkpt lat="33.00028248001523" lon="-7.588645919741301"><ele>402.0</ele><time>2026-04-23T09:50:22.999Z</time></trkpt><trkpt lat="33.00002425864645" lon="-7.588657621029885"><ele>402.0</ele><time>2026-04-23T09:50:23.999Z</time></trkpt><trkpt lat="32.999769559545314" lon="-7.588671284109104"><ele>404.0</ele><time>2026-04-23T09:50:24.999Z</time></trkpt><trkpt lat="32.99951968217727" lon="-7.588687301633978"><ele>406.0</ele><time>2026-04-23T09:50:25.998Z</time></trkpt><trkpt lat="32.99926976525413" lon="-7.588705454583598"><ele>404.5</ele><time>2026-04-23T09:50:26.998Z</time></trkpt><trkpt lat="32.99902153217473" lon="-7.588725736442885"><ele>403.0</ele><time>2026-04-23T09:50:27.998Z</time></trkpt><trkpt lat="32.998774781739165" lon="-7.5887492711402205"><ele>403.0</ele><time>2026-04-23T09:50:28.998Z</time></trkpt><trkpt lat="32.99852871638532" lon="-7.588777419479793"><ele>403.0</ele><time>2026-04-23T09:50:29.998Z</time></trkpt><trkpt lat="32.998279644487766" lon="-7.588806406363125"><ele>401.0</ele><time>2026-04-23T09:50:30.998Z</time></trkpt><trkpt lat="32.99802966818619" lon="-7.588836562641097"><ele>399.0</ele><time>2026-04-23T09:50:31.998Z</time></trkpt><trkpt lat="32.9977779971164" lon="-7.588870440180455"><ele>399.0</ele><time>2026-04-23T09:50:32.998Z</time></trkpt><trkpt lat="32.997522709072015" lon="-7.588902733588487"><ele>399.0</ele><time>2026-04-23T09:50:33.998Z</time></trkpt><trkpt lat="32.997261263274446" lon="-7.58893674538475"><ele>398.0</ele><time>2026-04-23T09:50:34.998Z</time></trkpt><trkpt lat="32.99698211028448" lon="-7.588976004433721"><ele>397.0</ele><time>2026-04-23T09:50:35.998Z</time></trkpt><trkpt lat="32.996689718714606" lon="-7.589020190357212"><ele>397.5</ele><time>2026-04-23T09:50:36.998Z</time></trkpt><trkpt lat="32.99639196826905" lon="-7.58906757804375"><ele>398.0</ele><time>2026-04-23T09:50:37.998Z</time></trkpt><trkpt lat="32.996086757129156" lon="-7.5891193317157555"><ele>399.5</ele><time>2026-04-23T09:50:38.998Z</time></trkpt><trkpt lat="32.9957826459756" lon="-7.589175040103472"><ele>401.0</ele><time>2026-04-23T09:50:40Z</time></trkpt><trkpt lat="32.995481171095165" lon="-7.589232619615094"><ele>401.0</ele><time>2026-04-23T09:50:41Z</time></trkpt><trkpt lat="32.9951828565542" lon="-7.5892917758756635"><ele>401.0</ele><time>2026-04-23T09:50:42Z</time></trkpt><trkpt lat="32.99488925803112" lon="-7.58935294167691"><ele>403.5</ele><time>2026-04-23T09:50:43Z</time></trkpt><trkpt lat="32.99459591339828" lon="-7.589416196287188"><ele>406.0</ele><time>2026-04-23T09:50:44Z</time></trkpt><trkpt lat="32.99430532439656" lon="-7.5894841692482995"><ele>406.0</ele><time>2026-04-23T09:50:45Z</time></trkpt><trkpt lat="32.99401206868049" lon="-7.589553380729763"><ele>406.0</ele><time>2026-04-23T09:50:46Z</time></trkpt><trkpt lat="32.99372021737906" lon="-7.589624590771378"><ele>406.0</ele><time>2026-04-23T09:50:47Z</time></trkpt><trkpt lat="32.993430297249866" lon="-7.589700490172125"><ele>406.0</ele><time>2026-04-23T09:50:48Z</time></trkpt><trkpt lat="32.99313785207393" lon="-7.589778198784731"><ele>404.5</ele><time>2026-04-23T09:50:49Z</time></trkpt><trkpt lat="32.99284564546587" lon="-7.589858974562073"><ele>403.0</ele><time>2026-04-23T09:50:50Z</time></trkpt><trkpt lat="32.99255469607058" lon="-7.589943734065283"><ele>402.5</ele><time>2026-04-23T09:50:51Z</time></trkpt><trkpt lat="32.99226392536623" lon="-7.590032763301758"><ele>402.0</ele><time>2026-04-23T09:50:52Z</time></trkpt><trkpt lat="32.99197579778949" lon="-7.590124098790793"><ele>402.0</ele><time>2026-04-23T09:50:53Z</time></trkpt><trkpt lat="32.99168597493085" lon="-7.590219044758022"><ele>402.0</ele><time>2026-04-23T09:50:54Z</time></trkpt><trkpt lat="32.991397790128346" lon="-7.590315446029256"><ele>402.0</ele><time>2026-04-23T09:50:55Z</time></trkpt><trkpt lat="32.99110924935028" lon="-7.590413245771622"><ele>402.0</ele><time>2026-04-23T09:50:56Z</time></trkpt><trkpt lat="32.9908193079312" lon="-7.590512380249784"><ele>402.0</ele><time>2026-04-23T09:50:57Z</time></trkpt><trkpt lat="32.99053120814116" lon="-7.590613327976652"><ele>402.0</ele><time>2026-04-23T09:50:58Z</time></trkpt><trkpt lat="32.99024429239585" lon="-7.590714041937148"><ele>402.5</ele><time>2026-04-23T09:50:59Z</time></trkpt><trkpt lat="32.98995805634305" lon="-7.590818594092888"><ele>403.0</ele><time>2026-04-23T09:50:59.999Z</time></trkpt><trkpt lat="32.98967209308508" lon="-7.590926608999999"><ele>403.0</ele><time>2026-04-23T09:51:00.999Z</time></trkpt><trkpt lat="32.989385986799704" lon="-7.591034829906588"><ele>403.0</ele><time>2026-04-23T09:51:01.999Z</time></trkpt><trkpt lat="32.98909962822615" lon="-7.591143953583428"><ele>404.5</ele><time>2026-04-23T09:51:02.999Z</time></trkpt><trkpt lat="32.98881338573957" lon="-7.591257424538966"><ele>406.0</ele><time>2026-04-23T09:51:03.999Z</time></trkpt><trkpt lat="32.988526563955254" lon="-7.591368221577052"><ele>405.0</ele><time>2026-04-23T09:51:04.999Z</time></trkpt><trkpt lat="32.98823971228324" lon="-7.591477494423873"><ele>404.0</ele><time>2026-04-23T09:51:05.999Z</time></trkpt><trkpt lat="32.98795313707678" lon="-7.591586298550451"><ele>404.0</ele><time>2026-04-23T09:51:06.999Z</time></trkpt><trkpt lat="32.98766698680433" lon="-7.5916944980198355"><ele>404.0</ele><time>2026-04-23T09:51:07.999Z</time></trkpt><trkpt lat="32.98738149079746" lon="-7.59180377634473"><ele>404.0</ele><time>2026-04-23T09:51:08.999Z</time></trkpt><trkpt lat="32.98709646832397" lon="-7.591914154333909"><ele>404.0</ele><time>2026-04-23T09:51:09.999Z</time></trkpt><trkpt lat="32.9868135122578" lon="-7.592024773795825"><ele>405.0</ele><time>2026-04-23T09:51:10.999Z</time></trkpt><trkpt lat="32.986531526439165" lon="-7.592131774258711"><ele>406.0</ele><time>2026-04-23T09:51:11.999Z</time></trkpt><trkpt lat="32.98625001153599" lon="-7.592236661813264"><ele>406.0</ele><time>2026-04-23T09:51:12.999Z</time></trkpt><trkpt lat="32.98596730127152" lon="-7.592342398209558"><ele>406.0</ele><time>2026-04-23T09:51:13.999Z</time></trkpt><trkpt lat="32.98568406395902" lon="-7.592449728066162"><ele>405.0</ele><time>2026-04-23T09:51:14.999Z</time></trkpt><trkpt lat="32.98540195377671" lon="-7.59255781777042"><ele>404.0</ele><time>2026-04-23T09:51:15.999Z</time></trkpt><trkpt lat="32.98511751882151" lon="-7.592667132861043"><ele>405.0</ele><time>2026-04-23T09:51:16.999Z</time></trkpt><trkpt lat="32.98483302240846" lon="-7.592776370946381"><ele>406.0</ele><time>2026-04-23T09:51:17.999Z</time></trkpt><trkpt lat="32.984549880818626" lon="-7.592886719410948"><ele>406.0</ele><time>2026-04-23T09:51:18.999Z</time></trkpt><trkpt lat="32.984268790338895" lon="-7.592995328186652"><ele>406.0</ele><time>2026-04-23T09:51:19.999Z</time></trkpt><trkpt lat="32.98398613271611" lon="-7.593105775176511"><ele>407.0</ele><time>2026-04-23T09:51:20.999Z</time></trkpt><trkpt lat="32.98370390819616" lon="-7.593217721043601"><ele>408.0</ele><time>2026-04-23T09:51:21.999Z</time></trkpt><trkpt lat="32.983419802179895" lon="-7.593330165786926"><ele>410.0</ele><time>2026-04-23T09:51:22.999Z</time></trkpt><trkpt lat="32.983136297092585" lon="-7.593440980384272"><ele>412.0</ele><time>2026-04-23T09:51:23.999Z</time></trkpt><trkpt lat="32.98285179485577" lon="-7.593550736227643"><ele>412.0</ele><time>2026-04-23T09:51:24.999Z</time></trkpt><trkpt lat="32.98256886053135" lon="-7.593657931193635"><ele>412.0</ele><time>2026-04-23T09:51:25.999Z</time></trkpt><trkpt lat="32.98228516067083" lon="-7.593767933080347"><ele>412.0</ele><time>2026-04-23T09:51:26.999Z</time></trkpt><trkpt lat="32.98200292730702" lon="-7.593879227434163"><ele>412.0</ele><time>2026-04-23T09:51:27.999Z</time></trkpt><trkpt lat="32.981720854424864" lon="-7.5939920303375725"><ele>411.5</ele><time>2026-04-23T09:51:28.999Z</time></trkpt><trkpt lat="32.981436539428934" lon="-7.59410519483325"><ele>411.0</ele><time>2026-04-23T09:51:29.999Z</time></trkpt><trkpt lat="32.98115071925082" lon="-7.594216600912934"><ele>411.0</ele><time>2026-04-23T09:51:30.999Z</time></trkpt><trkpt lat="32.980866781552955" lon="-7.594326472396736"><ele>411.0</ele><time>2026-04-23T09:51:31.999Z</time></trkpt><trkpt lat="32.980581979932914" lon="-7.594434769945771"><ele>411.0</ele><time>2026-04-23T09:51:32.999Z</time></trkpt><trkpt lat="32.98029938925786" lon="-7.594542655518632"><ele>411.0</ele><time>2026-04-23T09:51:33.999Z</time></trkpt><trkpt lat="32.98001518709682" lon="-7.594651541279158"><ele>413.0</ele><time>2026-04-23T09:51:34.999Z</time></trkpt><trkpt lat="32.97973146721975" lon="-7.594762859698302"><ele>415.0</ele><time>2026-04-23T09:51:35.999Z</time></trkpt><trkpt lat="32.9794487938192" lon="-7.594875280745218"><ele>415.5</ele><time>2026-04-23T09:51:36.999Z</time></trkpt><trkpt lat="32.97916506095158" lon="-7.594987420399542"><ele>416.0</ele><time>2026-04-23T09:51:37.999Z</time></trkpt><trkpt lat="32.978882085491264" lon="-7.595097099725792"><ele>416.0</ele><time>2026-04-23T09:51:38.999Z</time></trkpt><trkpt lat="32.978597279642514" lon="-7.595206959424114"><ele>416.0</ele><time>2026-04-23T09:51:39.999Z</time></trkpt><trkpt lat="32.97831081985984" lon="-7.595316492318574"><ele>418.0</ele><time>2026-04-23T09:51:40.999Z</time></trkpt><trkpt lat="32.9780251970053" lon="-7.595425078087903"><ele>420.0</ele><time>2026-04-23T09:51:41.999Z</time></trkpt><trkpt lat="32.97773969236289" lon="-7.595533351203426"><ele>421.5</ele><time>2026-04-23T09:51:42.999Z</time></trkpt><trkpt lat="32.97745446282858" lon="-7.595641662275121"><ele>423.0</ele><time>2026-04-23T09:51:43.999Z</time></trkpt><trkpt lat="32.97717295409159" lon="-7.595752252146708"><ele>423.0</ele><time>2026-04-23T09:51:44.999Z</time></trkpt><trkpt lat="32.97689224427043" lon="-7.595869197942449"><ele>423.0</ele><time>2026-04-23T09:51:45.999Z</time></trkpt><trkpt lat="32.97661225954872" lon="-7.595986020720281"><ele>424.0</ele><time>2026-04-23T09:51:46.999Z</time></trkpt><trkpt lat="32.976332618982696" lon="-7.596100018023042"><ele>425.0</ele><time>2026-04-23T09:51:47.999Z</time></trkpt><trkpt lat="32.97605048521683" lon="-7.596213116042911"><ele>424.0</ele><time>2026-04-23T09:51:48.999Z</time></trkpt><trkpt lat="32.97576688490829" lon="-7.596327657948547"><ele>423.0</ele><time>2026-04-23T09:51:49.999Z</time></trkpt><trkpt lat="32.97548410256054" lon="-7.596442301709575"><ele>423.0</ele><time>2026-04-23T09:51:50.999Z</time></trkpt><trkpt lat="32.97520240492675" lon="-7.596557359825435"><ele>423.0</ele><time>2026-04-23T09:51:51.999Z</time></trkpt><trkpt lat="32.97491830022033" lon="-7.596672631075903"><ele>423.5</ele><time>2026-04-23T09:51:52.999Z</time></trkpt><trkpt lat="32.974633948348945" lon="-7.596787706944592"><ele>424.0</ele><time>2026-04-23T09:51:53.999Z</time></trkpt><trkpt lat="32.97434952678284" lon="-7.596899741055784"><ele>419.5</ele><time>2026-04-23T09:51:54.999Z</time></trkpt><trkpt lat="32.974063753651656" lon="-7.59701068226696"><ele>415.0</ele><time>2026-04-23T09:51:55.999Z</time></trkpt><trkpt lat="32.97377866528678" lon="-7.597119347605973"><ele>415.0</ele><time>2026-04-23T09:51:56.999Z</time></trkpt><trkpt lat="32.97349336357152" lon="-7.597226718914193"><ele>415.0</ele><time>2026-04-23T09:51:57.999Z</time></trkpt><trkpt lat="32.973212119599594" lon="-7.597338390004301"><ele>417.0</ele><time>2026-04-23T09:51:58.999Z</time></trkpt><trkpt lat="32.97293035208677" lon="-7.597450490071391"><ele>419.0</ele><time>2026-04-23T09:51:59.999Z</time></trkpt><trkpt lat="32.97264744295585" lon="-7.5975618624607915"><ele>424.0</ele><time>2026-04-23T09:52:00.999Z</time></trkpt><trkpt lat="32.97236140342675" lon="-7.597673339077531"><ele>429.0</ele><time>2026-04-23T09:52:01.999Z</time></trkpt><trkpt lat="32.97207480003155" lon="-7.597785109912934"><ele>427.0</ele><time>2026-04-23T09:52:02.999Z</time></trkpt><trkpt lat="32.97179011055875" lon="-7.597897556592979"><ele>425.0</ele><time>2026-04-23T09:52:03.999Z</time></trkpt><trkpt lat="32.971505868114946" lon="-7.59801024401701"><ele>424.5</ele><time>2026-04-23T09:52:04.999Z</time></trkpt><trkpt lat="32.971218901607415" lon="-7.5981210648705515"><ele>424.0</ele><time>2026-04-23T09:52:05.999Z</time></trkpt><trkpt lat="32.97093420932279" lon="-7.59823014834164"><ele>422.0</ele><time>2026-04-23T09:52:06.999Z</time></trkpt><trkpt lat="32.9706505124309" lon="-7.598342368854585"><ele>420.0</ele><time>2026-04-23T09:52:07.999Z</time></trkpt><trkpt lat="32.970366094129425" lon="-7.598454095134158"><ele>420.0</ele><time>2026-04-23T09:52:08.999Z</time></trkpt><trkpt lat="32.9700826756318" lon="-7.598565118508949"><ele>420.0</ele><time>2026-04-23T09:52:09.999Z</time></trkpt><trkpt lat="32.969798061030936" lon="-7.598676092503936"><ele>417.5</ele><time>2026-04-23T09:52:10.999Z</time></trkpt><trkpt lat="32.96951485074099" lon="-7.598785057467135"><ele>415.0</ele><time>2026-04-23T09:52:11.999Z</time></trkpt><trkpt lat="32.96923162908062" lon="-7.598897258517215"><ele>415.5</ele><time>2026-04-23T09:52:12.999Z</time></trkpt><trkpt lat="32.968952451956795" lon="-7.599010534155476"><ele>416.0</ele><time>2026-04-23T09:52:13.999Z</time></trkpt><trkpt lat="32.968685504966636" lon="-7.599128648471618"><ele>416.0</ele><time>2026-04-23T09:52:14.999Z</time></trkpt><trkpt lat="32.968421070011075" lon="-7.599250666643674"><ele>416.0</ele><time>2026-04-23T09:52:15.999Z</time></trkpt><trkpt lat="32.96815573849449" lon="-7.59937655641088"><ele>413.5</ele><time>2026-04-23T09:52:16.999Z</time></trkpt><trkpt lat="32.96789257303288" lon="-7.5995036108452"><ele>411.0</ele><time>2026-04-23T09:52:17.999Z</time></trkpt><trkpt lat="32.967629932925014" lon="-7.599630367152"><ele>409.0</ele><time>2026-04-23T09:52:18.999Z</time></trkpt><trkpt lat="32.96736748333852" lon="-7.599755760914504"><ele>407.0</ele><time>2026-04-23T09:52:19.999Z</time></trkpt><trkpt lat="32.967107041008845" lon="-7.599884454969605"><ele>407.0</ele><time>2026-04-23T09:52:20.998Z</time></trkpt><trkpt lat="32.966849281652664" lon="-7.600015937766758"><ele>407.0</ele><time>2026-04-23T09:52:21.998Z</time></trkpt><trkpt lat="32.96659307090498" lon="-7.600149371464031"><ele>406.0</ele><time>2026-04-23T09:52:22.998Z</time></trkpt><trkpt lat="32.966334120190496" lon="-7.600289234484912"><ele>405.0</ele><time>2026-04-23T09:52:23.998Z</time></trkpt><trkpt lat="32.96607651970823" lon="-7.6004361509688865"><ele>403.5</ele><time>2026-04-23T09:52:24.998Z</time></trkpt><trkpt lat="32.96581713386586" lon="-7.600588414251413"><ele>402.0</ele><time>2026-04-23T09:52:25.998Z</time></trkpt><trkpt lat="32.96555750682213" lon="-7.600746540384628"><ele>402.0</ele><time>2026-04-23T09:52:26.998Z</time></trkpt><trkpt lat="32.96529893592808" lon="-7.600905825032381"><ele>402.0</ele><time>2026-04-23T09:52:27.998Z</time></trkpt><trkpt lat="32.96504358383058" lon="-7.6010661608529375"><ele>404.5</ele><time>2026-04-23T09:52:28.998Z</time></trkpt><trkpt lat="32.964791445334384" lon="-7.60122540606917"><ele>407.0</ele><time>2026-04-23T09:52:29.998Z</time></trkpt><trkpt lat="32.96454304002603" lon="-7.601384208052065"><ele>407.0</ele><time>2026-04-23T09:52:30.998Z</time></trkpt><trkpt lat="32.96429954472675" lon="-7.601544353083937"><ele>407.0</ele><time>2026-04-23T09:52:31.998Z</time></trkpt><trkpt lat="32.964057106079025" lon="-7.601704836540732"><ele>409.0</ele><time>2026-04-23T09:52:32.998Z</time></trkpt><trkpt lat="32.96381917389755" lon="-7.601867131731913"><ele>411.0</ele><time>2026-04-23T09:52:33.998Z</time></trkpt><trkpt lat="32.963584935201624" lon="-7.602031193760448"><ele>413.5</ele><time>2026-04-23T09:52:34.998Z</time></trkpt><trkpt lat="32.9633552638877" lon="-7.602198169586043"><ele>416.0</ele><time>2026-04-23T09:52:35.998Z</time></trkpt><trkpt lat="32.96312665085869" lon="-7.602367482435802"><ele>416.0</ele><time>2026-04-23T09:52:36.998Z</time></trkpt><trkpt lat="32.96290051368141" lon="-7.602538280768468"><ele>416.0</ele><time>2026-04-23T09:52:37.998Z</time></trkpt><trkpt lat="32.96267470334518" lon="-7.6027095730756935"><ele>419.0</ele><time>2026-04-23T09:52:38.998Z</time></trkpt><trkpt lat="32.962447794114006" lon="-7.602881051331006"><ele>422.0</ele><time>2026-04-23T09:52:39.998Z</time></trkpt><trkpt lat="32.96221927980985" lon="-7.603053071671824"><ele>422.0</ele><time>2026-04-23T09:52:40.998Z</time></trkpt><trkpt lat="32.9619918393914" lon="-7.603231451778491"><ele>422.0</ele><time>2026-04-23T09:52:41.998Z</time></trkpt><trkpt lat="32.961765751403696" lon="-7.603414693021754"><ele>421.5</ele><time>2026-04-23T09:52:42.998Z</time></trkpt><trkpt lat="32.96154000316547" lon="-7.603603785269873"><ele>421.0</ele><time>2026-04-23T09:52:43.998Z</time></trkpt><trkpt lat="32.961313915847605" lon="-7.603798393455959"><ele>426.5</ele><time>2026-04-23T09:52:45Z</time></trkpt><trkpt lat="32.96108841616133" lon="-7.603998456502407"><ele>432.0</ele><time>2026-04-23T09:52:46Z</time></trkpt><trkpt lat="32.96086090451418" lon="-7.60420119988062"><ele>432.0</ele><time>2026-04-23T09:52:47Z</time></trkpt><trkpt lat="32.960630181351526" lon="-7.6044028125551275"><ele>432.0</ele><time>2026-04-23T09:52:48Z</time></trkpt><trkpt lat="32.960396897853215" lon="-7.604607342614448"><ele>433.5</ele><time>2026-04-23T09:52:49Z</time></trkpt><trkpt lat="32.96016153947105" lon="-7.604818479251866"><ele>435.0</ele><time>2026-04-23T09:52:50Z</time></trkpt><trkpt lat="32.95992689506126" lon="-7.605032527808511"><ele>435.0</ele><time>2026-04-23T09:52:51Z</time></trkpt><trkpt lat="32.959694466832005" lon="-7.6052505665282855"><ele>435.0</ele><time>2026-04-23T09:52:52Z</time></trkpt><trkpt lat="32.95946344454833" lon="-7.6054748244015435"><ele>437.0</ele><time>2026-04-23T09:52:53Z</time></trkpt><trkpt lat="32.959236711941784" lon="-7.605704192313568"><ele>439.0</ele><time>2026-04-23T09:52:54Z</time></trkpt><trkpt lat="32.95901314590047" lon="-7.605934564826478"><ele>440.0</ele><time>2026-04-23T09:52:55Z</time></trkpt><trkpt lat="32.95879015611826" lon="-7.606167156680556"><ele>441.0</ele><time>2026-04-23T09:52:56Z</time></trkpt><trkpt lat="32.958567915282806" lon="-7.606398568962934"><ele>439.0</ele><time>2026-04-23T09:52:57Z</time></trkpt><trkpt lat="32.95834655556399" lon="-7.606633042335192"><ele>437.0</ele><time>2026-04-23T09:52:58Z</time></trkpt><trkpt lat="32.95812811227543" lon="-7.606871159197784"><ele>440.0</ele><time>2026-04-23T09:52:59Z</time></trkpt><trkpt lat="32.95791112764427" lon="-7.607113700326343"><ele>443.0</ele><time>2026-04-23T09:53:00Z</time></trkpt><trkpt lat="32.9576960348946" lon="-7.607358607794534"><ele>443.5</ele><time>2026-04-23T09:53:01Z</time></trkpt><trkpt lat="32.95748375443102" lon="-7.607607005991024"><ele>444.0</ele><time>2026-04-23T09:53:02Z</time></trkpt><trkpt lat="32.95727236739844" lon="-7.607856160776911"><ele>444.0</ele><time>2026-04-23T09:53:02.999Z</time></trkpt><trkpt lat="32.95706156827986" lon="-7.608105311896753"><ele>444.0</ele><time>2026-04-23T09:53:03.999Z</time></trkpt><trkpt lat="32.95684979311673" lon="-7.608353293506647"><ele>445.5</ele><time>2026-04-23T09:53:04.999Z</time></trkpt><trkpt lat="32.95663742836527" lon="-7.608603100564754"><ele>447.0</ele><time>2026-04-23T09:53:05.999Z</time></trkpt><trkpt lat="32.95642509242785" lon="-7.608852732910458"><ele>449.5</ele><time>2026-04-23T09:53:06.999Z</time></trkpt><trkpt lat="32.95621181217111" lon="-7.60910422903095"><ele>452.0</ele><time>2026-04-23T09:53:07.999Z</time></trkpt><trkpt lat="32.955997307284704" lon="-7.609356668302504"><ele>452.0</ele><time>2026-04-23T09:53:08.999Z</time></trkpt><trkpt lat="32.95578322186541" lon="-7.609607359984191"><ele>452.0</ele><time>2026-04-23T09:53:09.999Z</time></trkpt><trkpt lat="32.95557065304544" lon="-7.609858864066564"><ele>452.0</ele><time>2026-04-23T09:53:10.999Z</time></trkpt><trkpt lat="32.95535771284947" lon="-7.610110712984776"><ele>452.0</ele><time>2026-04-23T09:53:11.999Z</time></trkpt><trkpt lat="32.95514505487426" lon="-7.610360776686213"><ele>451.5</ele><time>2026-04-23T09:53:12.999Z</time></trkpt><trkpt lat="32.95493215713553" lon="-7.610610991699038"><ele>451.0</ele><time>2026-04-23T09:53:13.999Z</time></trkpt><trkpt lat="32.954720312013976" lon="-7.610860017278336"><ele>451.0</ele><time>2026-04-23T09:53:14.999Z</time></trkpt><trkpt lat="32.95450785942747" lon="-7.611109048255719"><ele>451.0</ele><time>2026-04-23T09:53:15.999Z</time></trkpt><trkpt lat="32.95429476390478" lon="-7.611357826243833"><ele>452.5</ele><time>2026-04-23T09:53:16.999Z</time></trkpt><trkpt lat="32.95408179765292" lon="-7.611606395674913"><ele>454.0</ele><time>2026-04-23T09:53:17.999Z</time></trkpt><trkpt lat="32.95386884830302" lon="-7.611855216628099"><ele>453.0</ele><time>2026-04-23T09:53:18.999Z</time></trkpt><trkpt lat="32.95365469823444" lon="-7.612104482294057"><ele>452.0</ele><time>2026-04-23T09:53:19.999Z</time></trkpt><trkpt lat="32.95343937988199" lon="-7.612355084204085"><ele>452.0</ele><time>2026-04-23T09:53:20.999Z</time></trkpt><trkpt lat="32.953223952667216" lon="-7.612604872667841"><ele>452.0</ele><time>2026-04-23T09:53:21.999Z</time></trkpt><trkpt lat="32.95300923759688" lon="-7.612853922407518"><ele>450.5</ele><time>2026-04-23T09:53:22.999Z</time></trkpt><trkpt lat="32.95279490890268" lon="-7.613102637712687"><ele>449.0</ele><time>2026-04-23T09:53:23.999Z</time></trkpt><trkpt lat="32.95258149328137" lon="-7.613352346407194"><ele>448.5</ele><time>2026-04-23T09:53:24.999Z</time></trkpt><trkpt lat="32.952368706580906" lon="-7.613601350939308"><ele>448.0</ele><time>2026-04-23T09:53:25.999Z</time></trkpt><trkpt lat="32.95215476265258" lon="-7.613848496367099"><ele>446.5</ele><time>2026-04-23T09:53:26.999Z</time></trkpt><trkpt lat="32.951940561587726" lon="-7.6140960777147715"><ele>445.0</ele><time>2026-04-23T09:53:27.999Z</time></trkpt><trkpt lat="32.95172686406102" lon="-7.614346435418648"><ele>447.5</ele><time>2026-04-23T09:53:28.999Z</time></trkpt><trkpt lat="32.95151320606009" lon="-7.614597541050732"><ele>450.0</ele><time>2026-04-23T09:53:29.999Z</time></trkpt><trkpt lat="32.9512999426088" lon="-7.614845891196274"><ele>450.0</ele><time>2026-04-23T09:53:30.999Z</time></trkpt><trkpt lat="32.951086091191705" lon="-7.615094126343328"><ele>450.0</ele><time>2026-04-23T09:53:31.999Z</time></trkpt><trkpt lat="32.950872169683855" lon="-7.615342349439909"><ele>450.5</ele><time>2026-04-23T09:53:32.999Z</time></trkpt><trkpt lat="32.95065748279097" lon="-7.6155906814811125"><ele>451.0</ele><time>2026-04-23T09:53:33.999Z</time></trkpt><trkpt lat="32.950442484974644" lon="-7.615839205196404"><ele>451.0</ele><time>2026-04-23T09:53:34.999Z</time></trkpt><trkpt lat="32.95022794818895" lon="-7.6160884507829225"><ele>451.0</ele><time>2026-04-23T09:53:35.999Z</time></trkpt><trkpt lat="32.950014295135674" lon="-7.61633825131559"><ele>449.5</ele><time>2026-04-23T09:53:36.999Z</time></trkpt><trkpt lat="32.949801727748245" lon="-7.6165885261506014"><ele>448.0</ele><time>2026-04-23T09:53:37.999Z</time></trkpt><trkpt lat="32.94958849643773" lon="-7.616842383227644"><ele>448.5</ele><time>2026-04-23T09:53:38.999Z</time></trkpt><trkpt lat="32.94937797718818" lon="-7.617095634260885"><ele>449.0</ele><time>2026-04-23T09:53:39.999Z</time></trkpt><trkpt lat="32.94916782159917" lon="-7.617350351169198"><ele>447.0</ele><time>2026-04-23T09:53:40.999Z</time></trkpt><trkpt lat="32.94896100217521" lon="-7.617606945589747"><ele>445.0</ele><time>2026-04-23T09:53:41.999Z</time></trkpt><trkpt lat="32.94875628621979" lon="-7.617866649067776"><ele>444.5</ele><time>2026-04-23T09:53:42.999Z</time></trkpt><trkpt lat="32.948554300137225" lon="-7.6181264975685705"><ele>444.0</ele><time>2026-04-23T09:53:43.999Z</time></trkpt><trkpt lat="32.948356848506165" lon="-7.6183895407779225"><ele>443.0</ele><time>2026-04-23T09:53:44.999Z</time></trkpt><trkpt lat="32.94816535347708" lon="-7.618657137437977"><ele>442.0</ele><time>2026-04-23T09:53:45.999Z</time></trkpt><trkpt lat="32.94798088719924" lon="-7.618931462739726"><ele>442.0</ele><time>2026-04-23T09:53:46.999Z</time></trkpt><trkpt lat="32.947801098531706" lon="-7.619210752615634"><ele>442.0</ele><time>2026-04-23T09:53:47.999Z</time></trkpt><trkpt lat="32.94762297534781" lon="-7.619492847522793"><ele>441.5</ele><time>2026-04-23T09:53:48.999Z</time></trkpt><trkpt lat="32.94744601103819" lon="-7.619778236728785"><ele>441.0</ele><time>2026-04-23T09:53:49.999Z</time></trkpt><trkpt lat="32.947272800501516" lon="-7.6200659701714635"><ele>441.0</ele><time>2026-04-23T09:53:50.999Z</time></trkpt><trkpt lat="32.947103017762984" lon="-7.6203578886530865"><ele>441.0</ele><time>2026-04-23T09:53:51.999Z</time></trkpt><trkpt lat="32.94693760529266" lon="-7.62065490357826"><ele>441.0</ele><time>2026-04-23T09:53:52.999Z</time></trkpt><trkpt lat="32.946775667032476" lon="-7.620954029799065"><ele>441.0</ele><time>2026-04-23T09:53:53.999Z</time></trkpt><trkpt lat="32.94661973929431" lon="-7.621255659660058"><ele>438.5</ele><time>2026-04-23T09:53:54.999Z</time></trkpt><trkpt lat="32.94646829242674" lon="-7.621561880838876"><ele>436.0</ele><time>2026-04-23T09:53:55.999Z</time></trkpt><trkpt lat="32.946319719382174" lon="-7.621870571307917"><ele>434.5</ele><time>2026-04-23T09:53:56.999Z</time></trkpt><trkpt lat="32.94617604547679" lon="-7.622182408830257"><ele>433.0</ele><time>2026-04-23T09:53:57.999Z</time></trkpt><trkpt lat="32.94603577601727" lon="-7.622492197628065"><ele>433.0</ele><time>2026-04-23T09:53:58.999Z</time></trkpt><trkpt lat="32.94589426331205" lon="-7.622802475892418"><ele>433.0</ele><time>2026-04-23T09:53:59.999Z</time></trkpt><trkpt lat="32.945749905965464" lon="-7.623113055693508"><ele>427.0</ele><time>2026-04-23T09:54:00.999Z</time></trkpt><trkpt lat="32.94560692629473" lon="-7.6234246750231875"><ele>421.0</ele><time>2026-04-23T09:54:01.999Z</time></trkpt><trkpt lat="32.9454646644596" lon="-7.623737433211051"><ele>419.5</ele><time>2026-04-23T09:54:02.999Z</time></trkpt><trkpt lat="32.94532173767792" lon="-7.6240492021128"><ele>418.0</ele><time>2026-04-23T09:54:03.999Z</time></trkpt><trkpt lat="32.94517669350521" lon="-7.62436014252612"><ele>415.5</ele><time>2026-04-23T09:54:04.999Z</time></trkpt><trkpt lat="32.94503164123216" lon="-7.624671859598826"><ele>413.0</ele><time>2026-04-23T09:54:05.999Z</time></trkpt><trkpt lat="32.94488792926487" lon="-7.624985015618292"><ele>413.0</ele><time>2026-04-23T09:54:06.999Z</time></trkpt><trkpt lat="32.94474567796961" lon="-7.625295773194128"><ele>413.0</ele><time>2026-04-23T09:54:07.999Z</time></trkpt><trkpt lat="32.94460525977582" lon="-7.62560646622432"><ele>413.5</ele><time>2026-04-23T09:54:08.999Z</time></trkpt><trkpt lat="32.944465308066064" lon="-7.625920082370334"><ele>414.0</ele><time>2026-04-23T09:54:09.999Z</time></trkpt><trkpt lat="32.94432395792897" lon="-7.626231571840397"><ele>417.5</ele><time>2026-04-23T09:54:10.999Z</time></trkpt><trkpt lat="32.94418235324031" lon="-7.62654146269014"><ele>421.0</ele><time>2026-04-23T09:54:11.999Z</time></trkpt><trkpt lat="32.94403611604516" lon="-7.626846431383822"><ele>423.5</ele><time>2026-04-23T09:54:12.999Z</time></trkpt><trkpt lat="32.943887460071956" lon="-7.627147292743271"><ele>426.0</ele><time>2026-04-23T09:54:13.999Z</time></trkpt><trkpt lat="32.943736104042145" lon="-7.627448341470003"><ele>426.0</ele><time>2026-04-23T09:54:14.999Z</time></trkpt><trkpt lat="32.943580565178294" lon="-7.627745925534303"><ele>426.0</ele><time>2026-04-23T09:54:15.999Z</time></trkpt><trkpt lat="32.94342092328248" lon="-7.628040293412249"><ele>427.0</ele><time>2026-04-23T09:54:16.999Z</time></trkpt><trkpt lat="32.94325931287763" lon="-7.628335133960156"><ele>428.0</ele><time>2026-04-23T09:54:17.998Z</time></trkpt><trkpt lat="32.94309390229782" lon="-7.628626890238562"><ele>430.0</ele><time>2026-04-23T09:54:18.998Z</time></trkpt><trkpt lat="32.94292301068728" lon="-7.628915827118804"><ele>432.0</ele><time>2026-04-23T09:54:19.998Z</time></trkpt><trkpt lat="32.94275146410068" lon="-7.629201581065641"><ele>433.0</ele><time>2026-04-23T09:54:20.998Z</time></trkpt><trkpt lat="32.94257855228621" lon="-7.629488708191707"><ele>434.0</ele><time>2026-04-23T09:54:21.998Z</time></trkpt><trkpt lat="32.94240375344659" lon="-7.629776378593418"><ele>433.5</ele><time>2026-04-23T09:54:22.998Z</time></trkpt><trkpt lat="32.94222604166742" lon="-7.630061089197368"><ele>433.0</ele><time>2026-04-23T09:54:23.998Z</time></trkpt><trkpt lat="32.94204585688351" lon="-7.63034313319187"><ele>433.0</ele><time>2026-04-23T09:54:24.998Z</time></trkpt><trkpt lat="32.94186277818207" lon="-7.630622822764865"><ele>433.0</ele><time>2026-04-23T09:54:25.998Z</time></trkpt><trkpt lat="32.941676690174184" lon="-7.630899131066797"><ele>433.5</ele><time>2026-04-23T09:54:26.998Z</time></trkpt><trkpt lat="32.9414885546737" lon="-7.631173607921684"><ele>434.0</ele><time>2026-04-23T09:54:27.998Z</time></trkpt><trkpt lat="32.94129723162148" lon="-7.631445010214183"><ele>434.0</ele><time>2026-04-23T09:54:28.998Z</time></trkpt><trkpt lat="32.941104133186464" lon="-7.631717134563579"><ele>434.0</ele><time>2026-04-23T09:54:29.998Z</time></trkpt><trkpt lat="32.94090930419599" lon="-7.631986294313765"><ele>435.5</ele><time>2026-04-23T09:54:30.998Z</time></trkpt><trkpt lat="32.94071144259958" lon="-7.632252131987237"><ele>437.0</ele><time>2026-04-23T09:54:31.998Z</time></trkpt><trkpt lat="32.94050915143369" lon="-7.632513401760882"><ele>437.0</ele><time>2026-04-23T09:54:32.998Z</time></trkpt><trkpt lat="32.940304161601496" lon="-7.632772166676175"><ele>437.0</ele><time>2026-04-23T09:54:33.998Z</time></trkpt><trkpt lat="32.94009556912568" lon="-7.633028152833635"><ele>436.5</ele><time>2026-04-23T09:54:34.998Z</time></trkpt><trkpt lat="32.93988495277058" lon="-7.633280656897003"><ele>436.0</ele><time>2026-04-23T09:54:35.998Z</time></trkpt><trkpt lat="32.939671167157826" lon="-7.6335303520472655"><ele>432.5</ele><time>2026-04-23T09:54:36.998Z</time></trkpt><trkpt lat="32.93945438778522" lon="-7.633773265412077"><ele>429.0</ele><time>2026-04-23T09:54:37.998Z</time></trkpt><trkpt lat="32.93923632511376" lon="-7.6340125351441825"><ele>430.0</ele><time>2026-04-23T09:54:38.998Z</time></trkpt><trkpt lat="32.9390206804875" lon="-7.6342454888359885"><ele>431.0</ele><time>2026-04-23T09:54:39.998Z</time></trkpt><trkpt lat="32.93880531867374" lon="-7.634474221355484"><ele>431.5</ele><time>2026-04-23T09:54:40.998Z</time></trkpt><trkpt lat="32.93858698293891" lon="-7.6346997718548035"><ele>432.0</ele><time>2026-04-23T09:54:41.998Z</time></trkpt><trkpt lat="32.93836497706543" lon="-7.634926191948163"><ele>434.0</ele><time>2026-04-23T09:54:42.998Z</time></trkpt><trkpt lat="32.93814016117464" lon="-7.635153115823117"><ele>436.0</ele><time>2026-04-23T09:54:43.998Z</time></trkpt><trkpt lat="32.937913084590484" lon="-7.6353780801452835"><ele>438.5</ele><time>2026-04-23T09:54:44.998Z</time></trkpt><trkpt lat="32.93768321535174" lon="-7.635600746794225"><ele>441.0</ele><time>2026-04-23T09:54:45.998Z</time></trkpt><trkpt lat="32.937449363864104" lon="-7.635821194642796"><ele>442.0</ele><time>2026-04-23T09:54:46.998Z</time></trkpt><trkpt lat="32.93721503973936" lon="-7.636039767385028"><ele>443.0</ele><time>2026-04-23T09:54:47.998Z</time></trkpt><trkpt lat="32.936981072633614" lon="-7.636258063532401"><ele>443.5</ele><time>2026-04-23T09:54:48.998Z</time></trkpt><trkpt lat="32.93674663717156" lon="-7.636476184456246"><ele>444.0</ele><time>2026-04-23T09:54:49.998Z</time></trkpt><trkpt lat="32.93650914203938" lon="-7.636691665420906"><ele>444.5</ele><time>2026-04-23T09:54:50.999Z</time></trkpt><trkpt lat="32.9362703565904" lon="-7.636902433260295"><ele>445.0</ele><time>2026-04-23T09:54:51.999Z</time></trkpt><trkpt lat="32.936028245512986" lon="-7.637109527853184"><ele>446.5</ele><time>2026-04-23T09:54:52.999Z</time></trkpt><trkpt lat="32.93578465577885" lon="-7.637312384439722"><ele>448.0</ele><time>2026-04-23T09:54:53.999Z</time></trkpt><trkpt lat="32.935540091065356" lon="-7.637510646705307"><ele>448.0</ele><time>2026-04-23T09:54:54.999Z</time></trkpt><trkpt lat="32.93529439215515" lon="-7.6377053962802"><ele>448.0</ele><time>2026-04-23T09:54:55.999Z</time></trkpt><trkpt lat="32.935046686851635" lon="-7.63789762687524"><ele>449.0</ele><time>2026-04-23T09:54:56.999Z</time></trkpt><trkpt lat="32.934793993008206" lon="-7.638084223278022"><ele>450.0</ele><time>2026-04-23T09:54:57.999Z</time></trkpt><trkpt lat="32.93453954609928" lon="-7.638266775426934"><ele>450.0</ele><time>2026-04-23T09:54:59Z</time></trkpt><trkpt lat="32.934283041979974" lon="-7.638446005881502"><ele>450.0</ele><time>2026-04-23T09:55:00Z</time></trkpt><trkpt lat="32.93402419341691" lon="-7.638625383453233"><ele>449.5</ele><time>2026-04-23T09:55:01Z</time></trkpt><trkpt lat="32.933765367690405" lon="-7.638798571052534"><ele>449.0</ele><time>2026-04-23T09:55:02Z</time></trkpt><trkpt lat="32.933502678475406" lon="-7.638970494187807"><ele>448.5</ele><time>2026-04-23T09:55:03Z</time></trkpt><trkpt lat="32.93323931544395" lon="-7.639137345515417"><ele>448.0</ele><time>2026-04-23T09:55:04Z</time></trkpt><trkpt lat="32.93297346471197" lon="-7.639300036129203"><ele>448.0</ele><time>2026-04-23T09:55:05Z</time></trkpt><trkpt lat="32.932706222395694" lon="-7.639458417226987"><ele>448.0</ele><time>2026-04-23T09:55:06Z</time></trkpt><trkpt lat="32.93243774879321" lon="-7.639614689369327"><ele>446.0</ele><time>2026-04-23T09:55:07Z</time></trkpt><trkpt lat="32.93216800937637" lon="-7.63977007557181"><ele>444.0</ele><time>2026-04-23T09:55:08Z</time></trkpt><trkpt lat="32.931897823763" lon="-7.639923480681337"><ele>445.5</ele><time>2026-04-23T09:55:09Z</time></trkpt><trkpt lat="32.931626771465005" lon="-7.640072232230826"><ele>447.0</ele><time>2026-04-23T09:55:10Z</time></trkpt><trkpt lat="32.9313536855513" lon="-7.640215602939587"><ele>446.0</ele><time>2026-04-23T09:55:11Z</time></trkpt><trkpt lat="32.93107780577112" lon="-7.640354109619903"><ele>445.0</ele><time>2026-04-23T09:55:12Z</time></trkpt><trkpt lat="32.93080325843155" lon="-7.640487145417648"><ele>444.5</ele><time>2026-04-23T09:55:13Z</time></trkpt><trkpt lat="32.93052506566343" lon="-7.64061746992875"><ele>444.0</ele><time>2026-04-23T09:55:14Z</time></trkpt><trkpt lat="32.930247243446246" lon="-7.6407419648455175"><ele>445.0</ele><time>2026-04-23T09:55:15Z</time></trkpt><trkpt lat="32.929966628131424" lon="-7.640864183456566"><ele>446.0</ele><time>2026-04-23T09:55:16Z</time></trkpt><trkpt lat="32.92968540838532" lon="-7.640985086120773"><ele>446.0</ele><time>2026-04-23T09:55:17Z</time></trkpt><trkpt lat="32.92940230480788" lon="-7.641103135957104"><ele>446.0</ele><time>2026-04-23T09:55:18Z</time></trkpt><trkpt lat="32.92911874574963" lon="-7.641223127138976"><ele>445.5</ele><time>2026-04-23T09:55:19Z</time></trkpt><trkpt lat="32.92883658113887" lon="-7.641344933955316"><ele>445.0</ele><time>2026-04-23T09:55:20Z</time></trkpt><trkpt lat="32.92855579070308" lon="-7.641467123506777"><ele>445.5</ele><time>2026-04-23T09:55:21Z</time></trkpt><trkpt lat="32.92827335504353" lon="-7.641588736763443"><ele>446.0</ele><time>2026-04-23T09:55:22Z</time></trkpt><trkpt lat="32.92799150329802" lon="-7.641709096092709"><ele>446.0</ele><time>2026-04-23T09:55:23Z</time></trkpt><trkpt lat="32.927709378281826" lon="-7.641830133910248"><ele>446.0</ele><time>2026-04-23T09:55:24Z</time></trkpt><trkpt lat="32.92742838084706" lon="-7.6419516995949754"><ele>446.0</ele><time>2026-04-23T09:55:25Z</time></trkpt><trkpt lat="32.92714475866412" lon="-7.642074179898776"><ele>446.0</ele><time>2026-04-23T09:55:26Z</time></trkpt><trkpt lat="32.92686408948578" lon="-7.642195228565488"><ele>444.0</ele><time>2026-04-23T09:55:27Z</time></trkpt><trkpt lat="32.926583604309066" lon="-7.6423156795704"><ele>442.0</ele><time>2026-04-23T09:55:28Z</time></trkpt><trkpt lat="32.9263037942788" lon="-7.642435476207183"><ele>442.0</ele><time>2026-04-23T09:55:29Z</time></trkpt><trkpt lat="32.92602560859639" lon="-7.6425559049342535"><ele>442.0</ele><time>2026-04-23T09:55:30Z</time></trkpt><trkpt lat="32.92574675010352" lon="-7.6426765562819545"><ele>441.5</ele><time>2026-04-23T09:55:31Z</time></trkpt><trkpt lat="32.92546723075895" lon="-7.642799146529006"><ele>441.0</ele><time>2026-04-23T09:55:32Z</time></trkpt><trkpt lat="32.9251882394484" lon="-7.6429217803816005"><ele>440.0</ele><time>2026-04-23T09:55:33Z</time></trkpt><trkpt lat="32.92490661501575" lon="-7.64304597787293"><ele>439.0</ele><time>2026-04-23T09:55:34Z</time></trkpt><trkpt lat="32.9246256840149" lon="-7.6431677585913445"><ele>439.0</ele><time>2026-04-23T09:55:35Z</time></trkpt><trkpt lat="32.92434606731961" lon="-7.643288278329886"><ele>439.0</ele><time>2026-04-23T09:55:36Z</time></trkpt><trkpt lat="32.924063206579916" lon="-7.643408042102881"><ele>439.5</ele><time>2026-04-23T09:55:37Z</time></trkpt><trkpt lat="32.92378235623437" lon="-7.643526549274309"><ele>440.0</ele><time>2026-04-23T09:55:38Z</time></trkpt><trkpt lat="32.9235019537658" lon="-7.643645623369692"><ele>441.5</ele><time>2026-04-23T09:55:39Z</time></trkpt><trkpt lat="32.923221356044166" lon="-7.643765656843931"><ele>443.0</ele><time>2026-04-23T09:55:40Z</time></trkpt><trkpt lat="32.92294110213534" lon="-7.643885026858801"><ele>443.0</ele><time>2026-04-23T09:55:41Z</time></trkpt><trkpt lat="32.92265891351863" lon="-7.644005196237168"><ele>443.0</ele><time>2026-04-23T09:55:42Z</time></trkpt><trkpt lat="32.922378524739074" lon="-7.644126048851864"><ele>443.0</ele><time>2026-04-23T09:55:43Z</time></trkpt><trkpt lat="32.92209644106901" lon="-7.644248482195894"><ele>443.0</ele><time>2026-04-23T09:55:44Z</time></trkpt><trkpt lat="32.92181463949397" lon="-7.644373004323484"><ele>442.0</ele><time>2026-04-23T09:55:45Z</time></trkpt><trkpt lat="32.921533061144935" lon="-7.644498815099404"><ele>441.0</ele><time>2026-04-23T09:55:46Z</time></trkpt><trkpt lat="32.921252288043156" lon="-7.644626922014639"><ele>441.0</ele><time>2026-04-23T09:55:47Z</time></trkpt><trkpt lat="32.92097444586725" lon="-7.6447571689975105"><ele>441.0</ele><time>2026-04-23T09:55:48Z</time></trkpt><trkpt lat="32.9206991258599" lon="-7.644891430821321"><ele>440.5</ele><time>2026-04-23T09:55:49Z</time></trkpt><trkpt lat="32.920425903534536" lon="-7.645029678535015"><ele>440.0</ele><time>2026-04-23T09:55:50Z</time></trkpt><trkpt lat="32.920154279485494" lon="-7.645172489837895"><ele>439.0</ele><time>2026-04-23T09:55:51Z</time></trkpt><trkpt lat="32.919883137463515" lon="-7.6453208181944445"><ele>438.0</ele><time>2026-04-23T09:55:52Z</time></trkpt><trkpt lat="32.919613220545564" lon="-7.6454702955452065"><ele>438.0</ele><time>2026-04-23T09:55:53Z</time></trkpt><trkpt lat="32.919345341534964" lon="-7.645622770826101"><ele>438.0</ele><time>2026-04-23T09:55:54Z</time></trkpt><trkpt lat="32.91907892637411" lon="-7.6457775036821385"><ele>437.0</ele><time>2026-04-23T09:55:55Z</time></trkpt><trkpt lat="32.91881301838078" lon="-7.645937098241667"><ele>436.0</ele><time>2026-04-23T09:55:56Z</time></trkpt><trkpt lat="32.91855083377542" lon="-7.6461011170614945"><ele>436.5</ele><time>2026-04-23T09:55:57Z</time></trkpt><trkpt lat="32.9182878976163" lon="-7.646268529372978"><ele>437.0</ele><time>2026-04-23T09:55:58Z</time></trkpt><trkpt lat="32.91802646541652" lon="-7.646438501195213"><ele>437.0</ele><time>2026-04-23T09:55:59Z</time></trkpt><trkpt lat="32.91776733349218" lon="-7.646611517578795"><ele>437.0</ele><time>2026-04-23T09:56:00Z</time></trkpt><trkpt lat="32.91750934584721" lon="-7.646787384905319"><ele>438.5</ele><time>2026-04-23T09:56:01Z</time></trkpt><trkpt lat="32.917252834232066" lon="-7.646966633946974"><ele>440.0</ele><time>2026-04-23T09:56:02Z</time></trkpt><trkpt lat="32.916997649857066" lon="-7.647149854325834"><ele>440.0</ele><time>2026-04-23T09:56:03Z</time></trkpt><trkpt lat="32.91674350958427" lon="-7.647337533971875"><ele>440.0</ele><time>2026-04-23T09:56:04Z</time></trkpt><trkpt lat="32.91649198468419" lon="-7.647528656799156"><ele>440.5</ele><time>2026-04-23T09:56:05Z</time></trkpt><trkpt lat="32.91624194238889" lon="-7.647723703590195"><ele>441.0</ele><time>2026-04-23T09:56:06Z</time></trkpt><trkpt lat="32.91599431255412" lon="-7.647921248270225"><ele>440.0</ele><time>2026-04-23T09:56:07Z</time></trkpt><trkpt lat="32.91574869480548" lon="-7.648120732926319"><ele>439.0</ele><time>2026-04-23T09:56:08Z</time></trkpt><trkpt lat="32.915506390244246" lon="-7.648322692111557"><ele>439.0</ele><time>2026-04-23T09:56:09Z</time></trkpt><trkpt lat="32.91526513529734" lon="-7.648528256562398"><ele>439.0</ele><time>2026-04-23T09:56:10Z</time></trkpt><trkpt lat="32.91502535052191" lon="-7.648737155021118"><ele>439.0</ele><time>2026-04-23T09:56:11Z</time></trkpt><trkpt lat="32.91478813277185" lon="-7.64894736821884"><ele>439.0</ele><time>2026-04-23T09:56:12Z</time></trkpt><trkpt lat="32.91455216718815" lon="-7.649162575355187"><ele>439.0</ele><time>2026-04-23T09:56:13Z</time></trkpt><trkpt lat="32.91431765717536" lon="-7.6493794593517155"><ele>439.0</ele><time>2026-04-23T09:56:14Z</time></trkpt><trkpt lat="32.91408537486719" lon="-7.649602611641377"><ele>439.0</ele><time>2026-04-23T09:56:15Z</time></trkpt><trkpt lat="32.913856712126915" lon="-7.649831900453929"><ele>439.0</ele><time>2026-04-23T09:56:16Z</time></trkpt><trkpt lat="32.91362968977402" lon="-7.650062308166383"><ele>439.0</ele><time>2026-04-23T09:56:17Z</time></trkpt><trkpt lat="32.913402523014135" lon="-7.650294042931432"><ele>439.0</ele><time>2026-04-23T09:56:18Z</time></trkpt><trkpt lat="32.91317560840323" lon="-7.650524608594116"><ele>439.0</ele><time>2026-04-23T09:56:19Z</time></trkpt><trkpt lat="32.912949283404735" lon="-7.6507571249823965"><ele>439.0</ele><time>2026-04-23T09:56:20Z</time></trkpt><trkpt lat="32.9127248520733" lon="-7.650991669887"><ele>438.0</ele><time>2026-04-23T09:56:21Z</time></trkpt><trkpt lat="32.91250131334206" lon="-7.651226275047414"><ele>437.0</ele><time>2026-04-23T09:56:22Z</time></trkpt><trkpt lat="32.91227860867293" lon="-7.651460737323595"><ele>437.0</ele><time>2026-04-23T09:56:22.999Z</time></trkpt><trkpt lat="32.912054398360745" lon="-7.651697156212015"><ele>437.0</ele><time>2026-04-23T09:56:23.999Z</time></trkpt><trkpt lat="32.91183135989791" lon="-7.651936215638679"><ele>436.0</ele><time>2026-04-23T09:56:24.999Z</time></trkpt><trkpt lat="32.911607720641115" lon="-7.65217374702469"><ele>435.0</ele><time>2026-04-23T09:56:25.999Z</time></trkpt><trkpt lat="32.911384340361444" lon="-7.652410185439134"><ele>435.0</ele><time>2026-04-23T09:56:26.999Z</time></trkpt><trkpt lat="32.91116299869174" lon="-7.652648971414778"><ele>435.0</ele><time>2026-04-23T09:56:27.999Z</time></trkpt><trkpt lat="32.91094227807014" lon="-7.652888196511077"><ele>433.0</ele><time>2026-04-23T09:56:28.999Z</time></trkpt><trkpt lat="32.91071955481505" lon="-7.653126010664515"><ele>431.0</ele><time>2026-04-23T09:56:29.999Z</time></trkpt><trkpt lat="32.91049566320837" lon="-7.6533609279000405"><ele>431.0</ele><time>2026-04-23T09:56:30.999Z</time></trkpt><trkpt lat="32.91027391537632" lon="-7.653595492268842"><ele>431.0</ele><time>2026-04-23T09:56:31.999Z</time></trkpt><trkpt lat="32.9100515959113" lon="-7.653831621801017"><ele>430.0</ele><time>2026-04-23T09:56:32.999Z</time></trkpt><trkpt lat="32.90982992903691" lon="-7.654066844373733"><ele>429.0</ele><time>2026-04-23T09:56:33.999Z</time></trkpt><trkpt lat="32.9096085376822" lon="-7.6543020261027355"><ele>429.0</ele><time>2026-04-23T09:56:34.999Z</time></trkpt><trkpt lat="32.90938790773909" lon="-7.654538105525043"><ele>429.0</ele><time>2026-04-23T09:56:35.999Z</time></trkpt><trkpt lat="32.909166048100644" lon="-7.654773829264424"><ele>428.0</ele><time>2026-04-23T09:56:36.999Z</time></trkpt><trkpt lat="32.90894410531862" lon="-7.655007394545479"><ele>427.0</ele><time>2026-04-23T09:56:37.999Z</time></trkpt><trkpt lat="32.90872314610133" lon="-7.655240820440959"><ele>426.5</ele><time>2026-04-23T09:56:38.999Z</time></trkpt><trkpt lat="32.90850105799821" lon="-7.655475835591067"><ele>426.0</ele><time>2026-04-23T09:56:39.999Z</time></trkpt><trkpt lat="32.90827931498337" lon="-7.655710946897632"><ele>426.0</ele><time>2026-04-23T09:56:40.999Z</time></trkpt><trkpt lat="32.90805856913026" lon="-7.655946107948468"><ele>426.0</ele><time>2026-04-23T09:56:41.999Z</time></trkpt><trkpt lat="32.907836761551096" lon="-7.656179715675968"><ele>426.0</ele><time>2026-04-23T09:56:42.999Z</time></trkpt><trkpt lat="32.907616022898445" lon="-7.656414221023843"><ele>426.0</ele><time>2026-04-23T09:56:43.999Z</time></trkpt><trkpt lat="32.90739153162022" lon="-7.656650965239726"><ele>427.0</ele><time>2026-04-23T09:56:44.999Z</time></trkpt><trkpt lat="32.907170691158875" lon="-7.656884963929335"><ele>428.0</ele><time>2026-04-23T09:56:45.999Z</time></trkpt><trkpt lat="32.90694739542594" lon="-7.657118046830307"><ele>428.5</ele><time>2026-04-23T09:56:46.999Z</time></trkpt><trkpt lat="32.90672677743586" lon="-7.657350992013992"><ele>429.0</ele><time>2026-04-23T09:56:47.999Z</time></trkpt><trkpt lat="32.90650560710664" lon="-7.6575854566018595"><ele>429.5</ele><time>2026-04-23T09:56:48.999Z</time></trkpt><trkpt lat="32.90628319407264" lon="-7.657820350102374"><ele>430.0</ele><time>2026-04-23T09:56:49.999Z</time></trkpt><trkpt lat="32.90606154136273" lon="-7.65805626763645"><ele>429.5</ele><time>2026-04-23T09:56:50.999Z</time></trkpt><trkpt lat="32.90583961912876" lon="-7.6582915358254064"><ele>429.0</ele><time>2026-04-23T09:56:51.999Z</time></trkpt><trkpt lat="32.90561888639712" lon="-7.6585269264351385"><ele>428.5</ele><time>2026-04-23T09:56:52.999Z</time></trkpt><trkpt lat="32.905397615903865" lon="-7.658762068110878"><ele>428.0</ele><time>2026-04-23T09:56:53.999Z</time></trkpt><trkpt lat="32.90517768856069" lon="-7.658994713752348"><ele>427.5</ele><time>2026-04-23T09:56:54.999Z</time></trkpt><trkpt lat="32.90495619270564" lon="-7.659227086675713"><ele>427.0</ele><time>2026-04-23T09:56:55.999Z</time></trkpt><trkpt lat="32.90473448363855" lon="-7.659459822556544"><ele>427.0</ele><time>2026-04-23T09:56:57Z</time></trkpt><trkpt lat="32.904513249198125" lon="-7.659694594656472"><ele>427.0</ele><time>2026-04-23T09:56:58Z</time></trkpt><trkpt lat="32.904291977050825" lon="-7.659930826476074"><ele>427.0</ele><time>2026-04-23T09:56:59Z</time></trkpt><trkpt lat="32.904070451411805" lon="-7.660167390467473"><ele>427.0</ele><time>2026-04-23T09:57:00Z</time></trkpt><trkpt lat="32.903848357933654" lon="-7.660404489631386"><ele>427.0</ele><time>2026-04-23T09:57:01Z</time></trkpt><trkpt lat="32.90362441875125" lon="-7.660643786013818"><ele>427.0</ele><time>2026-04-23T09:57:02Z</time></trkpt><trkpt lat="32.90339972172267" lon="-7.6608821546198245"><ele>427.5</ele><time>2026-04-23T09:57:03Z</time></trkpt><trkpt lat="32.90317505624715" lon="-7.661121008486342"><ele>428.0</ele><time>2026-04-23T09:57:04Z</time></trkpt><trkpt lat="32.902950856683816" lon="-7.661358552088251"><ele>428.0</ele><time>2026-04-23T09:57:05Z</time></trkpt><trkpt lat="32.90272585046844" lon="-7.661596343400654"><ele>428.0</ele><time>2026-04-23T09:57:06Z</time></trkpt><trkpt lat="32.9025023053975" lon="-7.661832428146667"><ele>426.5</ele><time>2026-04-23T09:57:07Z</time></trkpt><trkpt lat="32.902279969107674" lon="-7.662069913443453"><ele>425.0</ele><time>2026-04-23T09:57:08Z</time></trkpt><trkpt lat="32.90205750971049" lon="-7.662307791486562"><ele>425.0</ele><time>2026-04-23T09:57:09Z</time></trkpt><trkpt lat="32.90183602991779" lon="-7.662544104407708"><ele>425.0</ele><time>2026-04-23T09:57:10Z</time></trkpt><trkpt lat="32.9016147701133" lon="-7.662778436742835"><ele>425.5</ele><time>2026-04-23T09:57:11Z</time></trkpt><trkpt lat="32.9013968636308" lon="-7.663011287502652"><ele>426.0</ele><time>2026-04-23T09:57:12Z</time></trkpt><trkpt lat="32.90118473810552" lon="-7.663236754910399"><ele>426.0</ele><time>2026-04-23T09:57:13Z</time></trkpt><trkpt lat="32.90098038317163" lon="-7.663455406122524"><ele>426.0</ele><time>2026-04-23T09:57:14Z</time></trkpt><trkpt lat="32.90078080048352" lon="-7.663667805666149"><ele>427.0</ele><time>2026-04-23T09:57:15Z</time></trkpt><trkpt lat="32.90058346625903" lon="-7.663877286350522"><ele>428.0</ele><time>2026-04-23T09:57:16Z</time></trkpt><trkpt lat="32.90038942311961" lon="-7.664084481882668"><ele>428.0</ele><time>2026-04-23T09:57:17Z</time></trkpt><trkpt lat="32.900200591548646" lon="-7.6642895386569565"><ele>428.0</ele><time>2026-04-23T09:57:18Z</time></trkpt><trkpt lat="32.9000202590148" lon="-7.664486813691072"><ele>428.5</ele><time>2026-04-23T09:57:19Z</time></trkpt><trkpt lat="32.89984802708546" lon="-7.664673271020651"><ele>429.0</ele><time>2026-04-23T09:57:20Z</time></trkpt><trkpt lat="32.899679607063675" lon="-7.664855530271358"><ele>429.0</ele><time>2026-04-23T09:57:21Z</time></trkpt><trkpt lat="32.89952055452508" lon="-7.665029377381593"><ele>429.0</ele><time>2026-04-23T09:57:22Z</time></trkpt><trkpt lat="32.89936852943459" lon="-7.665196975922545"><ele>429.0</ele><time>2026-04-23T09:57:23Z</time></trkpt><trkpt lat="32.89921224076818" lon="-7.665339704504783"><ele>429.33333333333337</ele><time>2026-04-23T09:57:24Z</time></trkpt><trkpt lat="32.8990714848452" lon="-7.665486495221654"><ele>429.6666666666667</ele><time>2026-04-23T09:57:25Z</time></trkpt><trkpt lat="32.89893265425694" lon="-7.6656248921390455"><ele>430.0</ele><time>2026-04-23T09:57:26Z</time></trkpt><trkpt lat="32.89883101800768" lon="-7.665813156178294"><ele>430.0</ele><time>2026-04-23T09:57:27Z</time></trkpt><trkpt lat="32.89871296947926" lon="-7.665972113784857"><ele>430.0</ele><time>2026-04-23T09:57:28Z</time></trkpt><trkpt lat="32.898603481520446" lon="-7.6661352527388935"><ele>430.0</ele><time>2026-04-23T09:57:29Z</time></trkpt><trkpt lat="32.89850600570229" lon="-7.666302720054633"><ele>430.6666666666667</ele><time>2026-04-23T09:57:30Z</time></trkpt><trkpt lat="32.89846773759034" lon="-7.666492447360019"><ele>431.33333333333337</ele><time>2026-04-23T09:57:31Z</time></trkpt><trkpt lat="32.89840140242589" lon="-7.666652036369867"><ele>432.0</ele><time>2026-04-23T09:57:32Z</time></trkpt><trkpt lat="32.89834022181682" lon="-7.66679947718441"><ele>432.0</ele><time>2026-04-23T09:57:33Z</time></trkpt><trkpt lat="32.898283012692964" lon="-7.6669375402569955"><ele>432.00000000000006</ele><time>2026-04-23T09:57:34Z</time></trkpt><trkpt lat="32.89823008887151" lon="-7.667065715773531"><ele>432.00000000000006</ele><time>2026-04-23T09:57:35Z</time></trkpt><trkpt lat="32.898182816138245" lon="-7.667180204852981"><ele>432.0</ele><time>2026-04-23T09:57:36Z</time></trkpt><trkpt lat="32.898141733641864" lon="-7.667279701971267"><ele>432.0</ele><time>2026-04-23T09:57:37Z</time></trkpt><trkpt lat="32.89811318818958" lon="-7.667388279063306"><ele>432.0</ele><time>2026-04-23T09:57:38Z</time></trkpt><trkpt lat="32.89806636849981" lon="-7.667469485483299"><ele>432.0</ele><time>2026-04-23T09:57:39Z</time></trkpt><trkpt lat="32.89802422098215" lon="-7.667542018604853"><ele>432.0</ele><time>2026-04-23T09:57:40Z</time></trkpt><trkpt lat="32.89795789385298" lon="-7.667655697002243"><ele>432.0</ele><time>2026-04-23T09:57:42Z</time></trkpt><trkpt lat="32.89791374399594" lon="-7.6677313655274615"><ele>432.0</ele><time>2026-04-23T09:57:44Z</time></trkpt><trkpt lat="32.8978252741738" lon="-7.667691151187902"><ele>432.0</ele><time>2026-04-23T09:57:45Z</time></trkpt><trkpt lat="32.89777459587111" lon="-7.667738662532427"><ele>432.0</ele><time>2026-04-23T09:57:49Z</time></trkpt><trkpt lat="32.89769010144047" lon="-7.667470924118878"><ele>432.0</ele><time>2026-04-23T09:57:55Z</time></trkpt><trkpt lat="32.89760750222316" lon="-7.6675444319414625"><ele>432.0</ele><time>2026-04-23T09:57:58Z</time></trkpt><trkpt lat="32.89770597896268" lon="-7.667463058193655"><ele>432.0</ele><time>2026-04-23T09:57:59Z</time></trkpt><trkpt lat="32.89761731715438" lon="-7.667529112629387"><ele>432.00000000000006</ele><time>2026-04-23T10:02:02Z</time></trkpt><trkpt lat="32.89757145955015" lon="-7.667600689943125"><ele>432.00000000000006</ele><time>2026-04-23T10:02:05Z</time></trkpt><trkpt lat="32.89765835820841" lon="-7.667785946524455"><ele>432.0</ele><time>2026-04-23T10:02:09Z</time></trkpt><trkpt lat="32.897593675615454" lon="-7.667792996967536"><ele>432.0</ele><time>2026-04-23T10:02:12Z</time></trkpt><trkpt lat="32.89751476969718" lon="-7.6677297791537455"><ele>432.0</ele><time>2026-04-23T10:02:13Z</time></trkpt><trkpt lat="32.8974555080591" lon="-7.667781672212655"><ele>432.0</ele><time>2026-04-23T10:03:13.999Z</time></trkpt><trkpt lat="32.89741636110464" lon="-7.667844178281254"><ele>432.0</ele><time>2026-04-23T10:03:37Z</time></trkpt><trkpt lat="32.897354963959515" lon="-7.6678998948975945"><ele>432.0</ele><time>2026-04-23T10:03:42Z</time></trkpt><trkpt lat="32.89738088917747" lon="-7.667994678363428"><ele>432.0</ele><time>2026-04-23T10:03:49Z</time></trkpt><trkpt lat="32.8973450681335" lon="-7.668079608755668"><ele>432.0</ele><time>2026-04-23T10:03:59Z</time></trkpt><trkpt lat="32.89731009855448" lon="-7.668150424822868"><ele>432.0</ele><time>2026-04-23T10:04:03Z</time></trkpt><trkpt lat="32.89737158186104" lon="-7.668167010802236"><ele>432.0</ele><time>2026-04-23T10:06:29Z</time></trkpt><trkpt lat="32.89743733258966" lon="-7.668147631375597"><ele>432.00000000000006</ele><time>2026-04-23T10:07:14Z</time></trkpt><trkpt lat="32.89750348115284" lon="-7.6681239385482725"><ele>432.00000000000006</ele><time>2026-04-23T10:07:15.999Z</time></trkpt><trkpt lat="32.89744498019649" lon="-7.66839896860335"><ele>432.0</ele><time>2026-04-23T10:07:49.999Z</time></trkpt><trkpt lat="32.89750361010818" lon="-7.668354119869628"><ele>432.0</ele><time>2026-04-23T10:07:56.999Z</time></trkpt><trkpt lat="32.89746372599698" lon="-7.668254405497161"><ele>432.0</ele><time>2026-04-23T10:08:04.999Z</time></trkpt><trkpt lat="32.89761981518877" lon="-7.668183287892271"><ele>432.0</ele><time>2026-04-23T10:08:05.999Z</time></trkpt><trkpt lat="32.8976567018147" lon="-7.668401302949134"><ele>432.0</ele><time>2026-04-23T10:08:28Z</time></trkpt><trkpt lat="32.89764053329438" lon="-7.668325520312087"><ele>432.0</ele><time>2026-04-23T10:08:47Z</time></trkpt><trkpt lat="32.89750694307741" lon="-7.668338387582"><ele>432.0</ele><time>2026-04-23T10:09:10Z</time></trkpt><trkpt lat="32.897510693321934" lon="-7.668252661196544"><ele>432.0</ele><time>2026-04-23T10:09:33.483Z</time></trkpt><trkpt lat="32.89746355671254" lon="-7.668188173624664"><ele>432.0</ele><time>2026-04-23T10:10:28.09Z</time></trkpt><trkpt lat="32.89736534400775" lon="-7.668094133874173"><ele>432.0</ele><time>2026-04-23T10:10:35.248Z</time></trkpt><trkpt lat="32.89739359321821" lon="-7.668025715015583"><ele>432.0</ele><time>2026-04-23T10:11:43Z</time></trkpt><trkpt lat="32.89743768147321" lon="-7.667965242510265"><ele>432.0</ele><time>2026-04-23T10:11:50Z</time></trkpt><trkpt lat="32.89748177500088" lon="-7.667903899450864"><ele>432.0</ele><time>2026-04-23T10:11:53Z</time></trkpt><trkpt lat="32.897527420151604" lon="-7.6678389009962045"><ele>432.0</ele><time>2026-04-23T10:12:40Z</time></trkpt><trkpt lat="32.89747847540534" lon="-7.667769526760072"><ele>432.0</ele><time>2026-04-23T10:24:09.999Z</time></trkpt><trkpt lat="32.897409901502435" lon="-7.667786698706085"><ele>432.0</ele><time>2026-04-23T10:24:11.999Z</time></trkpt><trkpt lat="32.897318478805836" lon="-7.6678530539523555"><ele>432.0</ele><time>2026-04-23T10:24:13.999Z</time></trkpt><trkpt lat="32.897262721083834" lon="-7.667971515779314"><ele>432.0</ele><time>2026-04-23T10:24:15.999Z</time></trkpt><trkpt lat="32.89718570684208" lon="-7.66805350006763"><ele>432.0</ele><time>2026-04-23T10:24:17.999Z</time></trkpt><trkpt lat="32.89711744058351" lon="-7.668126171863276"><ele>432.0</ele><time>2026-04-23T10:24:19.999Z</time></trkpt><trkpt lat="32.89705463653131" lon="-7.6681931547991375"><ele>432.0</ele><time>2026-04-23T10:24:21.999Z</time></trkpt><trkpt lat="32.89699786005141" lon="-7.668253982131521"><ele>432.0</ele><time>2026-04-23T10:24:23.999Z</time></trkpt><trkpt lat="32.89694533221715" lon="-7.668310257516198"><ele>432.0</ele><time>2026-04-23T10:24:25.999Z</time></trkpt><trkpt lat="32.896897917892154" lon="-7.668361054633407"><ele>432.0</ele><time>2026-04-23T10:24:27.999Z</time></trkpt><trkpt lat="32.89684699045069" lon="-7.668413632088341"><ele>432.0</ele><time>2026-04-23T10:24:30.999Z</time></trkpt><trkpt lat="32.8967798360037" lon="-7.668472262234847"><ele>432.0</ele><time>2026-04-23T10:24:34.999Z</time></trkpt><trkpt lat="32.89673733845735" lon="-7.668532855045458"><ele>432.0</ele><time>2026-04-23T10:24:36.999Z</time></trkpt><trkpt lat="32.896651253457264" lon="-7.668624821467497"><ele>432.0</ele><time>2026-04-23T10:24:38.999Z</time></trkpt><trkpt lat="32.89660015501562" lon="-7.668679411000232"><ele>432.0</ele><time>2026-04-23T10:24:39.999Z</time></trkpt><trkpt lat="32.89654623387706" lon="-7.668736999162471"><ele>432.0</ele><time>2026-04-23T10:24:40.999Z</time></trkpt><trkpt lat="32.89649149913037" lon="-7.668795449810496"><ele>432.0</ele><time>2026-04-23T10:24:41.999Z</time></trkpt><trkpt lat="32.89643772504088" lon="-7.668852874646595"><ele>432.0</ele><time>2026-04-23T10:24:42.999Z</time></trkpt><trkpt lat="32.89638286985128" lon="-7.668911453938991"><ele>432.0</ele><time>2026-04-23T10:24:43.999Z</time></trkpt><trkpt lat="32.89632747419567" lon="-7.668970610399085"><ele>432.0</ele><time>2026-04-23T10:24:44.999Z</time></trkpt><trkpt lat="32.89627010602285" lon="-7.66903190444964"><ele>432.0</ele><time>2026-04-23T10:24:45.999Z</time></trkpt><trkpt lat="32.896211495086455" lon="-7.669094537176887"><ele>432.0</ele><time>2026-04-23T10:24:46.999Z</time></trkpt><trkpt lat="32.89615156456478" lon="-7.669158579984802"><ele>432.0</ele><time>2026-04-23T10:24:47.999Z</time></trkpt><trkpt lat="32.896086663528386" lon="-7.669225432009395"><ele>432.0</ele><time>2026-04-23T10:24:48.999Z</time></trkpt><trkpt lat="32.89601873543248" lon="-7.669288610969763"><ele>432.0</ele><time>2026-04-23T10:24:49.999Z</time></trkpt><trkpt lat="32.89595365873425" lon="-7.6693491378935015"><ele>432.0</ele><time>2026-04-23T10:24:50.999Z</time></trkpt><trkpt lat="32.89589080939623" lon="-7.669407314102065"><ele>432.0</ele><time>2026-04-23T10:24:51.999Z</time></trkpt><trkpt lat="32.89582115040009" lon="-7.669450965021323"><ele>432.0</ele><time>2026-04-23T10:24:52.999Z</time></trkpt><trkpt lat="32.89576271618355" lon="-7.669509494930783"><ele>431.6</ele><time>2026-04-23T10:24:53.999Z</time></trkpt><trkpt lat="32.895703948854354" lon="-7.669570455004076"><ele>431.20000000000005</ele><time>2026-04-23T10:24:54.999Z</time></trkpt><trkpt lat="32.89563601155914" lon="-7.6696417176297"><ele>430.8</ele><time>2026-04-23T10:24:55.999Z</time></trkpt><trkpt lat="32.89556446640666" lon="-7.669716976461118"><ele>430.4</ele><time>2026-04-23T10:24:56.999Z</time></trkpt><trkpt lat="32.89548953202756" lon="-7.669794994906489"><ele>430.0</ele><time>2026-04-23T10:24:57.999Z</time></trkpt><trkpt lat="32.89541204602904" lon="-7.669876628574909"><ele>430.0</ele><time>2026-04-23T10:24:58.999Z</time></trkpt><trkpt lat="32.89533493483486" lon="-7.669958100770625"><ele>430.0</ele><time>2026-04-23T10:24:59.999Z</time></trkpt><trkpt lat="32.895266820996746" lon="-7.670032570496515"><ele>430.0</ele><time>2026-04-23T10:25:00.999Z</time></trkpt><trkpt lat="32.89518723375372" lon="-7.670083209528095"><ele>430.0</ele><time>2026-04-23T10:25:01.999Z</time></trkpt><trkpt lat="32.89511362813225" lon="-7.670151420179721"><ele>430.0</ele><time>2026-04-23T10:25:02.999Z</time></trkpt><trkpt lat="32.89503383018287" lon="-7.670225369188111"><ele>430.6</ele><time>2026-04-23T10:25:03.999Z</time></trkpt><trkpt lat="32.894949413199924" lon="-7.670302959986053"><ele>431.2</ele><time>2026-04-23T10:25:04.999Z</time></trkpt><trkpt lat="32.89486271484735" lon="-7.670383226644114"><ele>431.79999999999995</ele><time>2026-04-23T10:25:05.999Z</time></trkpt><trkpt lat="32.89477514869099" lon="-7.670464443161216"><ele>432.4</ele><time>2026-04-23T10:25:06.999Z</time></trkpt><trkpt lat="32.89468486562686" lon="-7.670531202340779"><ele>433.0</ele><time>2026-04-23T10:25:07.999Z</time></trkpt><trkpt lat="32.89458002390097" lon="-7.670604904581828"><ele>433.0</ele><time>2026-04-23T10:25:08.999Z</time></trkpt><trkpt lat="32.89447303734807" lon="-7.670683510137495"><ele>433.0</ele><time>2026-04-23T10:25:09.999Z</time></trkpt><trkpt lat="32.894363780451634" lon="-7.670763705470026"><ele>433.0</ele><time>2026-04-23T10:25:10.999Z</time></trkpt><trkpt lat="32.89424988810085" lon="-7.670847487104191"><ele>433.0</ele><time>2026-04-23T10:25:11.999Z</time></trkpt><trkpt lat="32.89413041130318" lon="-7.670922255270587"><ele>432.6666666666667</ele><time>2026-04-23T10:25:12.999Z</time></trkpt><trkpt lat="32.89400012701903" lon="-7.670999510001261"><ele>432.33333333333337</ele><time>2026-04-23T10:25:13.999Z</time></trkpt><trkpt lat="32.893862171133144" lon="-7.671084159720975"><ele>432.0</ele><time>2026-04-23T10:25:14.999Z</time></trkpt><trkpt lat="32.893730486840745" lon="-7.671177354954167"><ele>432.0</ele><time>2026-04-23T10:25:15.999Z</time></trkpt><trkpt lat="32.89360367820863" lon="-7.671267253133169"><ele>432.0</ele><time>2026-04-23T10:25:16.999Z</time></trkpt><trkpt lat="32.89347852268083" lon="-7.671361365642985"><ele>432.0</ele><time>2026-04-23T10:25:17.999Z</time></trkpt><trkpt lat="32.89335774411061" lon="-7.671453146240557"><ele>432.0</ele><time>2026-04-23T10:25:18.999Z</time></trkpt><trkpt lat="32.893237360980834" lon="-7.671544150347884"><ele>432.66666666666663</ele><time>2026-04-23T10:25:19.999Z</time></trkpt><trkpt lat="32.89311022738116" lon="-7.6716403356559875"><ele>433.3333333333333</ele><time>2026-04-23T10:25:20.999Z</time></trkpt><trkpt lat="32.892979698481156" lon="-7.67173820078503"><ele>434.0</ele><time>2026-04-23T10:25:21.999Z</time></trkpt><trkpt lat="32.89287264588093" lon="-7.671908527739386"><ele>432.66666666666663</ele><time>2026-04-23T10:25:22.999Z</time></trkpt><trkpt lat="32.89274221221582" lon="-7.672032872003502"><ele>431.33333333333337</ele><time>2026-04-23T10:25:23.999Z</time></trkpt><trkpt lat="32.8926039605367" lon="-7.672164980865554"><ele>430.0</ele><time>2026-04-23T10:25:24.999Z</time></trkpt><trkpt lat="32.8924628565831" lon="-7.672300029390294"><ele>430.0</ele><time>2026-04-23T10:25:25.999Z</time></trkpt><trkpt lat="32.89231870652668" lon="-7.672437892091124"><ele>430.0</ele><time>2026-04-23T10:25:26.999Z</time></trkpt><trkpt lat="32.89217113461731" lon="-7.672578630470243"><ele>430.0</ele><time>2026-04-23T10:25:27.999Z</time></trkpt><trkpt lat="32.89202261050488" lon="-7.672720782273765"><ele>430.0</ele><time>2026-04-23T10:25:28.999Z</time></trkpt><trkpt lat="32.89186939233063" lon="-7.672867170308581"><ele>430.0</ele><time>2026-04-23T10:25:29.999Z</time></trkpt><trkpt lat="32.89171643965567" lon="-7.673026366758716"><ele>430.0</ele><time>2026-04-23T10:25:30.999Z</time></trkpt><trkpt lat="32.89154955442467" lon="-7.673167637553949"><ele>430.0</ele><time>2026-04-23T10:25:31.999Z</time></trkpt><trkpt lat="32.891382824981726" lon="-7.673311602137372"><ele>430.0</ele><time>2026-04-23T10:25:32.999Z</time></trkpt><trkpt lat="32.89121260324611" lon="-7.673455494621195"><ele>430.0</ele><time>2026-04-23T10:25:33.999Z</time></trkpt><trkpt lat="32.891041077716935" lon="-7.673595738949654"><ele>428.33333333333337</ele><time>2026-04-23T10:25:34.999Z</time></trkpt><trkpt lat="32.890870698871225" lon="-7.6737379493488325"><ele>426.66666666666663</ele><time>2026-04-23T10:25:35.999Z</time></trkpt><trkpt lat="32.890698394876445" lon="-7.673879612510409"><ele>425.0</ele><time>2026-04-23T10:25:36.999Z</time></trkpt><trkpt lat="32.89052224257638" lon="-7.674021140336882"><ele>425.0</ele><time>2026-04-23T10:25:37.999Z</time></trkpt><trkpt lat="32.890348627848965" lon="-7.674159027229833"><ele>425.0</ele><time>2026-04-23T10:25:38.999Z</time></trkpt><trkpt lat="32.89017141533596" lon="-7.674294127419105"><ele>425.0</ele><time>2026-04-23T10:25:39.999Z</time></trkpt><trkpt lat="32.88999668653804" lon="-7.674423773911101"><ele>423.66666666666663</ele><time>2026-04-23T10:25:40.999Z</time></trkpt><trkpt lat="32.889827396897836" lon="-7.674553689268883"><ele>422.33333333333337</ele><time>2026-04-23T10:25:41.999Z</time></trkpt><trkpt lat="32.889646681586605" lon="-7.67468443188126"><ele>421.0</ele><time>2026-04-23T10:25:42.999Z</time></trkpt><trkpt lat="32.88946530629953" lon="-7.674809344873067"><ele>421.0</ele><time>2026-04-23T10:25:43.999Z</time></trkpt><trkpt lat="32.88928969602446" lon="-7.674934128515908"><ele>421.0</ele><time>2026-04-23T10:25:44.999Z</time></trkpt><trkpt lat="32.889122091487565" lon="-7.6750489709083825"><ele>421.0</ele><time>2026-04-23T10:25:45.999Z</time></trkpt><trkpt lat="32.88896157695372" lon="-7.67516867066772"><ele>420.0</ele><time>2026-04-23T10:25:46.999Z</time></trkpt><trkpt lat="32.88879600901094" lon="-7.675287125665419"><ele>419.0</ele><time>2026-04-23T10:25:47.999Z</time></trkpt><trkpt lat="32.88862426969932" lon="-7.675410382558772"><ele>418.0</ele><time>2026-04-23T10:25:48.999Z</time></trkpt><trkpt lat="32.888439314703575" lon="-7.675543222475054"><ele>417.33333333333337</ele><time>2026-04-23T10:25:49.999Z</time></trkpt><trkpt lat="32.888253129402194" lon="-7.675669963231313"><ele>416.66666666666663</ele><time>2026-04-23T10:25:50.999Z</time></trkpt><trkpt lat="32.88805875466646" lon="-7.675802022431173"><ele>416.0</ele><time>2026-04-23T10:25:51.999Z</time></trkpt><trkpt lat="32.8878553678308" lon="-7.675942920955646"><ele>416.0</ele><time>2026-04-23T10:25:52.999Z</time></trkpt><trkpt lat="32.88764042813586" lon="-7.676084164412304"><ele>416.0</ele><time>2026-04-23T10:25:53.999Z</time></trkpt><trkpt lat="32.88742002539115" lon="-7.676230099568116"><ele>415.5</ele><time>2026-04-23T10:25:54.999Z</time></trkpt><trkpt lat="32.887189157248386" lon="-7.676377251523703"><ele>415.0</ele><time>2026-04-23T10:25:55.999Z</time></trkpt><trkpt lat="32.88695021269069" lon="-7.676530437785446"><ele>416.5</ele><time>2026-04-23T10:25:56.999Z</time></trkpt><trkpt lat="32.88670545520599" lon="-7.676681253715473"><ele>418.0</ele><time>2026-04-23T10:25:57.999Z</time></trkpt><trkpt lat="32.88645178803944" lon="-7.676838213006629"><ele>417.5</ele><time>2026-04-23T10:25:58.999Z</time></trkpt><trkpt lat="32.88619557365093" lon="-7.6769879125644716"><ele>417.0</ele><time>2026-04-23T10:25:59.999Z</time></trkpt><trkpt lat="32.88593604804684" lon="-7.67713838710174"><ele>417.0</ele><time>2026-04-23T10:26:00.999Z</time></trkpt><trkpt lat="32.88566981006146" lon="-7.677289811852021"><ele>417.0</ele><time>2026-04-23T10:26:01.999Z</time></trkpt><trkpt lat="32.88539936753829" lon="-7.677441594794744"><ele>417.0</ele><time>2026-04-23T10:26:02.998Z</time></trkpt><trkpt lat="32.885131805819036" lon="-7.677589572313741"><ele>417.0</ele><time>2026-04-23T10:26:03.998Z</time></trkpt><trkpt lat="32.88486457567762" lon="-7.677734691882655"><ele>417.5</ele><time>2026-04-23T10:26:04.998Z</time></trkpt><trkpt lat="32.88459347445688" lon="-7.677871055519274"><ele>418.0</ele><time>2026-04-23T10:26:05.998Z</time></trkpt><trkpt lat="32.88433105303444" lon="-7.6780000560183606"><ele>418.5</ele><time>2026-04-23T10:26:06.998Z</time></trkpt><trkpt lat="32.88407761136241" lon="-7.678126259118376"><ele>419.0</ele><time>2026-04-23T10:26:07.998Z</time></trkpt><trkpt lat="32.883835427677155" lon="-7.67823987187554"><ele>419.0</ele><time>2026-04-23T10:26:08.998Z</time></trkpt><trkpt lat="32.88359000684522" lon="-7.678353636528408"><ele>419.0</ele><time>2026-04-23T10:26:09.998Z</time></trkpt><trkpt lat="32.88333225662227" lon="-7.678470215597741"><ele>419.0</ele><time>2026-04-23T10:26:10.998Z</time></trkpt><trkpt lat="32.88307164415589" lon="-7.6785882865042066"><ele>419.0</ele><time>2026-04-23T10:26:11.998Z</time></trkpt><trkpt lat="32.88280492443583" lon="-7.678711127736902"><ele>419.5</ele><time>2026-04-23T10:26:12.998Z</time></trkpt><trkpt lat="32.88253283532333" lon="-7.6788320865819495"><ele>420.0</ele><time>2026-04-23T10:26:13.998Z</time></trkpt><trkpt lat="32.88226088880426" lon="-7.678953311788163"><ele>420.0</ele><time>2026-04-23T10:26:14.998Z</time></trkpt><trkpt lat="32.88198201189097" lon="-7.679072876765591"><ele>420.0</ele><time>2026-04-23T10:26:15.998Z</time></trkpt><trkpt lat="32.88170553101726" lon="-7.679184338661081"><ele>420.5</ele><time>2026-04-23T10:26:16.999Z</time></trkpt><trkpt lat="32.88142467737296" lon="-7.679295711266916"><ele>421.0</ele><time>2026-04-23T10:26:17.999Z</time></trkpt><trkpt lat="32.88114396856595" lon="-7.67940497277803"><ele>419.5</ele><time>2026-04-23T10:26:18.999Z</time></trkpt><trkpt lat="32.88086105649617" lon="-7.679510309723072"><ele>418.0</ele><time>2026-04-23T10:26:19.999Z</time></trkpt><trkpt lat="32.880577850721004" lon="-7.679612088920357"><ele>418.0</ele><time>2026-04-23T10:26:20.999Z</time></trkpt><trkpt lat="32.88029534453619" lon="-7.679711568197261"><ele>418.0</ele><time>2026-04-23T10:26:21.999Z</time></trkpt><trkpt lat="32.88000980797482" lon="-7.679807372857395"><ele>418.5</ele><time>2026-04-23T10:26:22.999Z</time></trkpt><trkpt lat="32.879719383132034" lon="-7.679901054003023"><ele>419.0</ele><time>2026-04-23T10:26:23.999Z</time></trkpt><trkpt lat="32.879430633775044" lon="-7.6799935929726155"><ele>419.5</ele><time>2026-04-23T10:26:24.999Z</time></trkpt><trkpt lat="32.87914102997452" lon="-7.680085119197867"><ele>420.0</ele><time>2026-04-23T10:26:25.999Z</time></trkpt><trkpt lat="32.87885201078231" lon="-7.680171238301758"><ele>420.0</ele><time>2026-04-23T10:26:26.999Z</time></trkpt><trkpt lat="32.87856236393728" lon="-7.680252983562202"><ele>420.0</ele><time>2026-04-23T10:26:27.999Z</time></trkpt><trkpt lat="32.87827046258199" lon="-7.680335382570737"><ele>420.5</ele><time>2026-04-23T10:26:28.999Z</time></trkpt><trkpt lat="32.87798242316024" lon="-7.680413101335935"><ele>421.0</ele><time>2026-04-23T10:26:29.999Z</time></trkpt><trkpt lat="32.877693928584236" lon="-7.680490266404763"><ele>420.5</ele><time>2026-04-23T10:26:30.999Z</time></trkpt><trkpt lat="32.877397773117444" lon="-7.680565267413345"><ele>420.0</ele><time>2026-04-23T10:26:31.999Z</time></trkpt><trkpt lat="32.877104968447696" lon="-7.680633799876978"><ele>420.0</ele><time>2026-04-23T10:26:32.999Z</time></trkpt><trkpt lat="32.876812102800315" lon="-7.680704306141446"><ele>420.0</ele><time>2026-04-23T10:26:33.999Z</time></trkpt><trkpt lat="32.87651773543123" lon="-7.680773955444604"><ele>419.0</ele><time>2026-04-23T10:26:34.999Z</time></trkpt><trkpt lat="32.87622132638644" lon="-7.6808449179482245"><ele>418.0</ele><time>2026-04-23T10:26:35.999Z</time></trkpt><trkpt lat="32.87592449188151" lon="-7.680913977250704"><ele>418.0</ele><time>2026-04-23T10:26:36.999Z</time></trkpt><trkpt lat="32.87562978659111" lon="-7.680982114307821"><ele>418.0</ele><time>2026-04-23T10:26:37.999Z</time></trkpt><trkpt lat="32.87534288371438" lon="-7.68105104556591"><ele>417.0</ele><time>2026-04-23T10:26:38.999Z</time></trkpt><trkpt lat="32.875048173551896" lon="-7.681117863876693"><ele>416.0</ele><time>2026-04-23T10:26:39.999Z</time></trkpt><trkpt lat="32.87475469731196" lon="-7.681185040493467"><ele>416.0</ele><time>2026-04-23T10:26:40.999Z</time></trkpt><trkpt lat="32.87446246209512" lon="-7.681249458681382"><ele>416.0</ele><time>2026-04-23T10:26:41.999Z</time></trkpt><trkpt lat="32.87416602016682" lon="-7.681318822213893"><ele>417.5</ele><time>2026-04-23T10:26:42.999Z</time></trkpt><trkpt lat="32.87387122502013" lon="-7.6813884320018415"><ele>419.0</ele><time>2026-04-23T10:26:43.999Z</time></trkpt><trkpt lat="32.873575996986624" lon="-7.681456487084839"><ele>419.5</ele><time>2026-04-23T10:26:44.999Z</time></trkpt><trkpt lat="32.87328602085336" lon="-7.681521060124693"><ele>420.0</ele><time>2026-04-23T10:26:45.999Z</time></trkpt><trkpt lat="32.872995151921664" lon="-7.681592999773891"><ele>420.0</ele><time>2026-04-23T10:26:46.999Z</time></trkpt><trkpt lat="32.87270247849689" lon="-7.681660930646181"><ele>420.0</ele><time>2026-04-23T10:26:47.999Z</time></trkpt><trkpt lat="32.87241056457718" lon="-7.681723537468516"><ele>419.0</ele><time>2026-04-23T10:26:48.999Z</time></trkpt><trkpt lat="32.8721186603917" lon="-7.681788372035043"><ele>418.0</ele><time>2026-04-23T10:26:49.999Z</time></trkpt><trkpt lat="32.87182679764458" lon="-7.681859533342881"><ele>418.0</ele><time>2026-04-23T10:26:50.999Z</time></trkpt><trkpt lat="32.87153332488852" lon="-7.6819263084909295"><ele>418.0</ele><time>2026-04-23T10:26:51.999Z</time></trkpt><trkpt lat="32.871241031997286" lon="-7.6819935986197185"><ele>418.0</ele><time>2026-04-23T10:26:52.999Z</time></trkpt><trkpt lat="32.870954117455334" lon="-7.682060954761393"><ele>418.0</ele><time>2026-04-23T10:26:53.999Z</time></trkpt><trkpt lat="32.8706650019283" lon="-7.682124717140226"><ele>418.0</ele><time>2026-04-23T10:26:54.999Z</time></trkpt><trkpt lat="32.87036847767967" lon="-7.682188175708309"><ele>418.0</ele><time>2026-04-23T10:26:55.999Z</time></trkpt><trkpt lat="32.87007442935124" lon="-7.682248749813148"><ele>418.0</ele><time>2026-04-23T10:26:56.999Z</time></trkpt><trkpt lat="32.869779592636505" lon="-7.682318247512979"><ele>418.0</ele><time>2026-04-23T10:26:57.999Z</time></trkpt><trkpt lat="32.8694859928845" lon="-7.682384840367471"><ele>417.5</ele><time>2026-04-23T10:26:58.999Z</time></trkpt><trkpt lat="32.8691919775971" lon="-7.682447920906446"><ele>417.0</ele><time>2026-04-23T10:26:59.999Z</time></trkpt><trkpt lat="32.86889982149832" lon="-7.6825111668251305"><ele>417.0</ele><time>2026-04-23T10:27:00.999Z</time></trkpt><trkpt lat="32.86860562364506" lon="-7.682571247503491"><ele>417.0</ele><time>2026-04-23T10:27:01.999Z</time></trkpt><trkpt lat="32.86831104992574" lon="-7.6826438709876825"><ele>416.5</ele><time>2026-04-23T10:27:02.999Z</time></trkpt><trkpt lat="32.86801723577684" lon="-7.682714324354551"><ele>416.0</ele><time>2026-04-23T10:27:03.999Z</time></trkpt><trkpt lat="32.86772842696569" lon="-7.682783157865797"><ele>416.0</ele><time>2026-04-23T10:27:04.999Z</time></trkpt><trkpt lat="32.86743372285985" lon="-7.682855379040439"><ele>416.0</ele><time>2026-04-23T10:27:05.999Z</time></trkpt><trkpt lat="32.86714271979115" lon="-7.682924936185191"><ele>416.0</ele><time>2026-04-23T10:27:06.999Z</time></trkpt><trkpt lat="32.866850785552366" lon="-7.682990966871423"><ele>416.0</ele><time>2026-04-23T10:27:07.999Z</time></trkpt><trkpt lat="32.86656006433224" lon="-7.683055383958211"><ele>415.0</ele><time>2026-04-23T10:27:08.999Z</time></trkpt><trkpt lat="32.86626035401596" lon="-7.683118235271111"><ele>414.0</ele><time>2026-04-23T10:27:09.999Z</time></trkpt><trkpt lat="32.86596294293077" lon="-7.683186555105298"><ele>415.0</ele><time>2026-04-23T10:27:10.999Z</time></trkpt><trkpt lat="32.865669580291026" lon="-7.683254289522568"><ele>416.0</ele><time>2026-04-23T10:27:11.999Z</time></trkpt><trkpt lat="32.86537760757258" lon="-7.683317115013076"><ele>416.0</ele><time>2026-04-23T10:27:12.999Z</time></trkpt><trkpt lat="32.8650850345838" lon="-7.683380961460153"><ele>416.0</ele><time>2026-04-23T10:27:13.999Z</time></trkpt><trkpt lat="32.864791038628255" lon="-7.683448920883944"><ele>416.0</ele><time>2026-04-23T10:27:14.999Z</time></trkpt><trkpt lat="32.86450047115178" lon="-7.683517946980804"><ele>416.0</ele><time>2026-04-23T10:27:15.999Z</time></trkpt><trkpt lat="32.86420850459999" lon="-7.6835883432737875"><ele>416.0</ele><time>2026-04-23T10:27:16.999Z</time></trkpt><trkpt lat="32.8639151071019" lon="-7.683655418265437"><ele>416.0</ele><time>2026-04-23T10:27:17.999Z</time></trkpt><trkpt lat="32.8636209251352" lon="-7.683723796299463"><ele>416.0</ele><time>2026-04-23T10:27:18.999Z</time></trkpt><trkpt lat="32.86332775476142" lon="-7.6837932618610125"><ele>416.0</ele><time>2026-04-23T10:27:19.999Z</time></trkpt><trkpt lat="32.863033558847924" lon="-7.6838586855927"><ele>416.0</ele><time>2026-04-23T10:27:20.999Z</time></trkpt><trkpt lat="32.86273844597071" lon="-7.68392773443998"><ele>416.0</ele><time>2026-04-23T10:27:21.999Z</time></trkpt><trkpt lat="32.8624464016522" lon="-7.683996408253996"><ele>416.0</ele><time>2026-04-23T10:27:22.999Z</time></trkpt><trkpt lat="32.862151476780014" lon="-7.684067640718737"><ele>416.0</ele><time>2026-04-23T10:27:23.999Z</time></trkpt><trkpt lat="32.8618582750655" lon="-7.68413852742992"><ele>416.5</ele><time>2026-04-23T10:27:24.999Z</time></trkpt><trkpt lat="32.86156401005847" lon="-7.6842000725276325"><ele>417.0</ele><time>2026-04-23T10:27:25.999Z</time></trkpt><trkpt lat="32.86126782836395" lon="-7.6842670843352465"><ele>417.0</ele><time>2026-04-23T10:27:26.999Z</time></trkpt><trkpt lat="32.86097669826361" lon="-7.684335217381107"><ele>417.0</ele><time>2026-04-23T10:27:27.999Z</time></trkpt><trkpt lat="32.86069079575288" lon="-7.684406891141468"><ele>416.5</ele><time>2026-04-23T10:27:28.999Z</time></trkpt><trkpt lat="32.86040025108875" lon="-7.684484254341048"><ele>416.0</ele><time>2026-04-23T10:27:29.999Z</time></trkpt><trkpt lat="32.86011113527016" lon="-7.684561695302098"><ele>416.0</ele><time>2026-04-23T10:27:30.999Z</time></trkpt><trkpt lat="32.859817882653" lon="-7.684641105815462"><ele>416.0</ele><time>2026-04-23T10:27:31.999Z</time></trkpt><trkpt lat="32.8595276009042" lon="-7.684721583790844"><ele>416.5</ele><time>2026-04-23T10:27:32.999Z</time></trkpt><trkpt lat="32.85923769640969" lon="-7.684803980206876"><ele>417.0</ele><time>2026-04-23T10:27:33.999Z</time></trkpt><trkpt lat="32.858947571070956" lon="-7.684889851798066"><ele>417.0</ele><time>2026-04-23T10:27:34.999Z</time></trkpt><trkpt lat="32.858657675321155" lon="-7.684978353598127"><ele>417.0</ele><time>2026-04-23T10:27:35.999Z</time></trkpt><trkpt lat="32.85836745084607" lon="-7.685071579839246"><ele>417.5</ele><time>2026-04-23T10:27:36.999Z</time></trkpt><trkpt lat="32.858079733163194" lon="-7.68516139259872"><ele>418.0</ele><time>2026-04-23T10:27:37.999Z</time></trkpt><trkpt lat="32.85779569789521" lon="-7.685255506311885"><ele>418.0</ele><time>2026-04-23T10:27:38.999Z</time></trkpt><trkpt lat="32.85751118855541" lon="-7.6853514654620065"><ele>418.0</ele><time>2026-04-23T10:27:39.999Z</time></trkpt><trkpt lat="32.85722782442396" lon="-7.685454177319578"><ele>418.0</ele><time>2026-04-23T10:27:40.999Z</time></trkpt><trkpt lat="32.85694173253995" lon="-7.685553924579156"><ele>418.0</ele><time>2026-04-23T10:27:41.999Z</time></trkpt><trkpt lat="32.85665757948305" lon="-7.6856555822689785"><ele>418.5</ele><time>2026-04-23T10:27:42.999Z</time></trkpt><trkpt lat="32.85637762043317" lon="-7.685756111532479"><ele>419.0</ele><time>2026-04-23T10:27:43.999Z</time></trkpt><trkpt lat="32.85609977981501" lon="-7.685855001115055"><ele>418.5</ele><time>2026-04-23T10:27:44.999Z</time></trkpt><trkpt lat="32.855818481377234" lon="-7.685952779921873"><ele>418.0</ele><time>2026-04-23T10:27:45.999Z</time></trkpt><trkpt lat="32.85553786056344" lon="-7.6860567203639105"><ele>418.0</ele><time>2026-04-23T10:27:46.999Z</time></trkpt><trkpt lat="32.8552562129285" lon="-7.686164363293035"><ele>418.0</ele><time>2026-04-23T10:27:47.999Z</time></trkpt><trkpt lat="32.854973347536124" lon="-7.68627060106416"><ele>418.0</ele><time>2026-04-23T10:27:48.999Z</time></trkpt><trkpt lat="32.85468835289136" lon="-7.6863771322304935"><ele>418.0</ele><time>2026-04-23T10:27:49.999Z</time></trkpt><trkpt lat="32.85440379867395" lon="-7.68648853541177"><ele>418.0</ele><time>2026-04-23T10:27:50.999Z</time></trkpt><trkpt lat="32.85412262867616" lon="-7.686596303319878"><ele>418.0</ele><time>2026-04-23T10:27:51.999Z</time></trkpt><trkpt lat="32.85384178851787" lon="-7.686704910839617"><ele>418.0</ele><time>2026-04-23T10:27:52.999Z</time></trkpt><trkpt lat="32.85356100070967" lon="-7.68681057919552"><ele>418.0</ele><time>2026-04-23T10:27:53.999Z</time></trkpt><trkpt lat="32.85327784421191" lon="-7.686917888217566"><ele>417.0</ele><time>2026-04-23T10:27:54.999Z</time></trkpt><trkpt lat="32.852994427441914" lon="-7.687030091748726"><ele>416.0</ele><time>2026-04-23T10:27:55.999Z</time></trkpt><trkpt lat="32.85271142881301" lon="-7.687143035775663"><ele>415.5</ele><time>2026-04-23T10:27:56.999Z</time></trkpt><trkpt lat="32.85242993326761" lon="-7.687255831188245"><ele>415.0</ele><time>2026-04-23T10:27:57.999Z</time></trkpt><trkpt lat="32.85214630065351" lon="-7.687369289306072"><ele>415.0</ele><time>2026-04-23T10:27:58.999Z</time></trkpt><trkpt lat="32.8518623028922" lon="-7.687481416860078"><ele>415.0</ele><time>2026-04-23T10:27:59.999Z</time></trkpt><trkpt lat="32.851579801149484" lon="-7.6875921818588235"><ele>415.0</ele><time>2026-04-23T10:28:00.999Z</time></trkpt><trkpt lat="32.85129845047892" lon="-7.687695543712429"><ele>415.0</ele><time>2026-04-23T10:28:01.999Z</time></trkpt><trkpt lat="32.85101622244171" lon="-7.6878071025361185"><ele>417.0</ele><time>2026-04-23T10:28:02.999Z</time></trkpt><trkpt lat="32.850729902845615" lon="-7.68791909520659"><ele>419.0</ele><time>2026-04-23T10:28:03.999Z</time></trkpt><trkpt lat="32.85044239988028" lon="-7.688029718088488"><ele>419.0</ele><time>2026-04-23T10:28:04.999Z</time></trkpt><trkpt lat="32.85016153710256" lon="-7.688140004427162"><ele>419.0</ele><time>2026-04-23T10:28:05.999Z</time></trkpt><trkpt lat="32.84987936217278" lon="-7.688245433885862"><ele>418.5</ele><time>2026-04-23T10:28:06.999Z</time></trkpt><trkpt lat="32.849594483092055" lon="-7.6883544367892815"><ele>418.0</ele><time>2026-04-23T10:28:07.999Z</time></trkpt><trkpt lat="32.849310570284054" lon="-7.68846551888759"><ele>418.5</ele><time>2026-04-23T10:28:08.999Z</time></trkpt><trkpt lat="32.849026149173994" lon="-7.688576575496669"><ele>419.0</ele><time>2026-04-23T10:28:09.999Z</time></trkpt><trkpt lat="32.84874024734894" lon="-7.688684468349795"><ele>419.0</ele><time>2026-04-23T10:28:10.999Z</time></trkpt><trkpt lat="32.84845858437002" lon="-7.6887939979038755"><ele>419.0</ele><time>2026-04-23T10:28:11.999Z</time></trkpt><trkpt lat="32.848171062714826" lon="-7.6889068211505265"><ele>419.0</ele><time>2026-04-23T10:28:12.999Z</time></trkpt><trkpt lat="32.8478817992761" lon="-7.68902062542107"><ele>419.0</ele><time>2026-04-23T10:28:13.999Z</time></trkpt><trkpt lat="32.847597959529224" lon="-7.6891341790640695"><ele>419.5</ele><time>2026-04-23T10:28:14.999Z</time></trkpt><trkpt lat="32.84731482634393" lon="-7.6892399098582604"><ele>420.0</ele><time>2026-04-23T10:28:15.999Z</time></trkpt><trkpt lat="32.847032980652756" lon="-7.689348805227617"><ele>420.0</ele><time>2026-04-23T10:28:16.999Z</time></trkpt><trkpt lat="32.84675245230719" lon="-7.689458226397132"><ele>420.0</ele><time>2026-04-23T10:28:17.999Z</time></trkpt><trkpt lat="32.84646746420216" lon="-7.689571126181384"><ele>420.0</ele><time>2026-04-23T10:28:18.999Z</time></trkpt><trkpt lat="32.846184683862774" lon="-7.689678272911813"><ele>420.0</ele><time>2026-04-23T10:28:19.999Z</time></trkpt><trkpt lat="32.845900422288686" lon="-7.689790837490845"><ele>419.0</ele><time>2026-04-23T10:28:20.999Z</time></trkpt><trkpt lat="32.845619180648136" lon="-7.689901603371651"><ele>418.0</ele><time>2026-04-23T10:28:21.999Z</time></trkpt><trkpt lat="32.845335920309864" lon="-7.690010204128455"><ele>419.0</ele><time>2026-04-23T10:28:22.999Z</time></trkpt><trkpt lat="32.8450485429155" lon="-7.690123449523959"><ele>420.0</ele><time>2026-04-23T10:28:23.999Z</time></trkpt><trkpt lat="32.84476377963877" lon="-7.690238705738801"><ele>420.0</ele><time>2026-04-23T10:28:24.999Z</time></trkpt><trkpt lat="32.84448265253405" lon="-7.690347685034322"><ele>420.0</ele><time>2026-04-23T10:28:25.999Z</time></trkpt><trkpt lat="32.844196225716416" lon="-7.6904607273874666"><ele>419.5</ele><time>2026-04-23T10:28:26.999Z</time></trkpt><trkpt lat="32.84391063670149" lon="-7.690574259680322"><ele>419.0</ele><time>2026-04-23T10:28:27.999Z</time></trkpt><trkpt lat="32.843627863391156" lon="-7.6906841490747695"><ele>419.0</ele><time>2026-04-23T10:28:28.999Z</time></trkpt><trkpt lat="32.843345650696044" lon="-7.690794655408708"><ele>419.0</ele><time>2026-04-23T10:28:29.999Z</time></trkpt><trkpt lat="32.84306352211518" lon="-7.690903649788873"><ele>419.0</ele><time>2026-04-23T10:28:30.999Z</time></trkpt><trkpt lat="32.842780554362406" lon="-7.691013098592135"><ele>419.0</ele><time>2026-04-23T10:28:31.999Z</time></trkpt><trkpt lat="32.84249748221577" lon="-7.691121973298358"><ele>420.5</ele><time>2026-04-23T10:28:32.999Z</time></trkpt><trkpt lat="32.8422117401993" lon="-7.691226361812566"><ele>422.0</ele><time>2026-04-23T10:28:33.999Z</time></trkpt><trkpt lat="32.8419286040633" lon="-7.691335190343674"><ele>422.0</ele><time>2026-04-23T10:28:34.999Z</time></trkpt><trkpt lat="32.84164470291148" lon="-7.691443946196036"><ele>422.0</ele><time>2026-04-23T10:28:35.999Z</time></trkpt><trkpt lat="32.84136020718007" lon="-7.691557703128273"><ele>422.0</ele><time>2026-04-23T10:28:36.999Z</time></trkpt><trkpt lat="32.84108053152759" lon="-7.691664579003291"><ele>422.0</ele><time>2026-04-23T10:28:37.999Z</time></trkpt><trkpt lat="32.84079257859154" lon="-7.691774291394709"><ele>421.0</ele><time>2026-04-23T10:28:38.999Z</time></trkpt><trkpt lat="32.84050848445583" lon="-7.691884365606395"><ele>420.0</ele><time>2026-04-23T10:28:39.999Z</time></trkpt><trkpt lat="32.840225619835266" lon="-7.691993438435462"><ele>418.0</ele><time>2026-04-23T10:28:40.999Z</time></trkpt><trkpt lat="32.8399443492741" lon="-7.692102987971518"><ele>416.0</ele><time>2026-04-23T10:28:41.999Z</time></trkpt><trkpt lat="32.83965985789802" lon="-7.692211927023818"><ele>416.0</ele><time>2026-04-23T10:28:42.999Z</time></trkpt><trkpt lat="32.83937837898184" lon="-7.692318648423081"><ele>416.0</ele><time>2026-04-23T10:28:43.999Z</time></trkpt><trkpt lat="32.83909343399547" lon="-7.692425295514341"><ele>416.0</ele><time>2026-04-23T10:28:44.999Z</time></trkpt><trkpt lat="32.83881188419827" lon="-7.692531219433657"><ele>416.0</ele><time>2026-04-23T10:28:45.999Z</time></trkpt><trkpt lat="32.838529248774016" lon="-7.692637759657178"><ele>414.5</ele><time>2026-04-23T10:28:46.999Z</time></trkpt><trkpt lat="32.838249225492156" lon="-7.692743603104358"><ele>413.0</ele><time>2026-04-23T10:28:47.999Z</time></trkpt><trkpt lat="32.83796453569865" lon="-7.6928504221081075"><ele>412.5</ele><time>2026-04-23T10:28:48.999Z</time></trkpt><trkpt lat="32.837681568613434" lon="-7.692963905829099"><ele>412.0</ele><time>2026-04-23T10:28:49.999Z</time></trkpt><trkpt lat="32.837402123266365" lon="-7.69308002240231"><ele>411.5</ele><time>2026-04-23T10:28:50.999Z</time></trkpt><trkpt lat="32.837119523324105" lon="-7.693198184299677"><ele>411.0</ele><time>2026-04-23T10:28:51.999Z</time></trkpt><trkpt lat="32.8368377380985" lon="-7.6933207610322025"><ele>410.5</ele><time>2026-04-23T10:28:52.999Z</time></trkpt><trkpt lat="32.8365592066188" lon="-7.693444118506355"><ele>410.0</ele><time>2026-04-23T10:28:53.999Z</time></trkpt><trkpt lat="32.836284710023655" lon="-7.6935721825022005"><ele>410.0</ele><time>2026-04-23T10:28:54.999Z</time></trkpt><trkpt lat="32.83600363740554" lon="-7.693706378007347"><ele>410.0</ele><time>2026-04-23T10:28:55.999Z</time></trkpt><trkpt lat="32.835726684114505" lon="-7.693842223400469"><ele>409.0</ele><time>2026-04-23T10:28:56.999Z</time></trkpt><trkpt lat="32.83545002745684" lon="-7.693981237356804"><ele>408.0</ele><time>2026-04-23T10:28:57.999Z</time></trkpt><trkpt lat="32.835182008012836" lon="-7.694128393452518"><ele>407.0</ele><time>2026-04-23T10:28:58.999Z</time></trkpt><trkpt lat="32.83491172566116" lon="-7.694277798793568"><ele>406.0</ele><time>2026-04-23T10:28:59.999Z</time></trkpt><trkpt lat="32.834641727127206" lon="-7.694425298641136"><ele>406.0</ele><time>2026-04-23T10:29:00.999Z</time></trkpt><trkpt lat="32.83437630166286" lon="-7.694582011526256"><ele>406.0</ele><time>2026-04-23T10:29:01.999Z</time></trkpt><trkpt lat="32.834109032228426" lon="-7.694744739175605"><ele>407.0</ele><time>2026-04-23T10:29:02.999Z</time></trkpt><trkpt lat="32.833841849480116" lon="-7.694909382020206"><ele>408.0</ele><time>2026-04-23T10:29:03.999Z</time></trkpt><trkpt lat="32.83358128176891" lon="-7.695071441744445"><ele>407.5</ele><time>2026-04-23T10:29:04.999Z</time></trkpt><trkpt lat="32.833317350187805" lon="-7.695240035166228"><ele>407.0</ele><time>2026-04-23T10:29:05.999Z</time></trkpt><trkpt lat="32.83305825428488" lon="-7.695410479601562"><ele>406.0</ele><time>2026-04-23T10:29:06.999Z</time></trkpt><trkpt lat="32.832798987743466" lon="-7.695586619089101"><ele>405.0</ele><time>2026-04-23T10:29:07.999Z</time></trkpt><trkpt lat="32.83254069667081" lon="-7.695768315079731"><ele>405.5</ele><time>2026-04-23T10:29:08.999Z</time></trkpt><trkpt lat="32.83228441923117" lon="-7.695952758109669"><ele>406.0</ele><time>2026-04-23T10:29:09.999Z</time></trkpt><trkpt lat="32.83202994254834" lon="-7.696141710249245"><ele>407.0</ele><time>2026-04-23T10:29:10.999Z</time></trkpt><trkpt lat="32.83178113870488" lon="-7.696329536995017"><ele>408.0</ele><time>2026-04-23T10:29:11.999Z</time></trkpt><trkpt lat="32.83152862350662" lon="-7.696520116345149"><ele>408.0</ele><time>2026-04-23T10:29:12.999Z</time></trkpt><trkpt lat="32.83128010040033" lon="-7.696717304364784"><ele>408.0</ele><time>2026-04-23T10:29:13.999Z</time></trkpt><trkpt lat="32.83102841703" lon="-7.69691337055195"><ele>408.5</ele><time>2026-04-23T10:29:14.999Z</time></trkpt><trkpt lat="32.83078477323939" lon="-7.697115805074761"><ele>409.0</ele><time>2026-04-23T10:29:15.999Z</time></trkpt><trkpt lat="32.83054534862309" lon="-7.697319018341199"><ele>409.0</ele><time>2026-04-23T10:29:16.999Z</time></trkpt><trkpt lat="32.830305151487124" lon="-7.697526756115248"><ele>409.0</ele><time>2026-04-23T10:29:17.999Z</time></trkpt><trkpt lat="32.83006695494238" lon="-7.697739999101395"><ele>409.0</ele><time>2026-04-23T10:29:18.999Z</time></trkpt><trkpt lat="32.82982208500897" lon="-7.6979476915546705"><ele>409.0</ele><time>2026-04-23T10:29:19.999Z</time></trkpt><trkpt lat="32.829581185280894" lon="-7.698157305379369"><ele>409.0</ele><time>2026-04-23T10:29:20.999Z</time></trkpt><trkpt lat="32.82934101321522" lon="-7.698365799577011"><ele>409.0</ele><time>2026-04-23T10:29:21.999Z</time></trkpt><trkpt lat="32.829099649554536" lon="-7.698578523018208"><ele>409.0</ele><time>2026-04-23T10:29:22.999Z</time></trkpt><trkpt lat="32.82885871085426" lon="-7.698783934840233"><ele>409.0</ele><time>2026-04-23T10:29:23.999Z</time></trkpt><trkpt lat="32.82861966833548" lon="-7.698991580731641"><ele>409.5</ele><time>2026-04-23T10:29:24.999Z</time></trkpt><trkpt lat="32.828379526346026" lon="-7.6992014330724095"><ele>410.0</ele><time>2026-04-23T10:29:25.999Z</time></trkpt><trkpt lat="32.8281395349711" lon="-7.699413089966602"><ele>409.5</ele><time>2026-04-23T10:29:26.999Z</time></trkpt><trkpt lat="32.82789656610621" lon="-7.699620886143934"><ele>409.0</ele><time>2026-04-23T10:29:27.999Z</time></trkpt><trkpt lat="32.827649628268404" lon="-7.699826146249655"><ele>408.0</ele><time>2026-04-23T10:29:28.999Z</time></trkpt><trkpt lat="32.82740786898857" lon="-7.700038281249334"><ele>407.0</ele><time>2026-04-23T10:29:29.999Z</time></trkpt><trkpt lat="32.82717000609778" lon="-7.700249015340787"><ele>407.5</ele><time>2026-04-23T10:29:30.999Z</time></trkpt><trkpt lat="32.826932803570884" lon="-7.70045386734624"><ele>408.0</ele><time>2026-04-23T10:29:31.999Z</time></trkpt><trkpt lat="32.82669668353024" lon="-7.700662590695012"><ele>408.0</ele><time>2026-04-23T10:29:32.999Z</time></trkpt><trkpt lat="32.82645754187686" lon="-7.700870828740226"><ele>408.0</ele><time>2026-04-23T10:29:33.999Z</time></trkpt><trkpt lat="32.826225077501746" lon="-7.701085296521332"><ele>407.0</ele><time>2026-04-23T10:29:34.999Z</time></trkpt><trkpt lat="32.825988143676014" lon="-7.7013015692458"><ele>406.0</ele><time>2026-04-23T10:29:35.999Z</time></trkpt><trkpt lat="32.82575340157086" lon="-7.701518519861514"><ele>406.0</ele><time>2026-04-23T10:29:36.999Z</time></trkpt><trkpt lat="32.825516536277476" lon="-7.701731282389956"><ele>406.0</ele><time>2026-04-23T10:29:37.999Z</time></trkpt><trkpt lat="32.82527533937107" lon="-7.701937914247272"><ele>406.5</ele><time>2026-04-23T10:29:38.999Z</time></trkpt><trkpt lat="32.825038041437686" lon="-7.70215168754442"><ele>407.0</ele><time>2026-04-23T10:29:39.999Z</time></trkpt><trkpt lat="32.82480200967504" lon="-7.702360509585337"><ele>407.0</ele><time>2026-04-23T10:29:40.999Z</time></trkpt><trkpt lat="32.82456023577111" lon="-7.702571534140375"><ele>407.0</ele><time>2026-04-23T10:29:41.999Z</time></trkpt><trkpt lat="32.82431527122708" lon="-7.702779374615077"><ele>407.0</ele><time>2026-04-23T10:29:42.999Z</time></trkpt><trkpt lat="32.82407253930636" lon="-7.702989772122772"><ele>407.0</ele><time>2026-04-23T10:29:43.999Z</time></trkpt><trkpt lat="32.823835746845646" lon="-7.703201310965195"><ele>407.0</ele><time>2026-04-23T10:29:44.999Z</time></trkpt><trkpt lat="32.82359592059508" lon="-7.7034103272047645"><ele>407.0</ele><time>2026-04-23T10:29:45.999Z</time></trkpt><trkpt lat="32.8233578619567" lon="-7.703618659468107"><ele>405.0</ele><time>2026-04-23T10:29:46.999Z</time></trkpt><trkpt lat="32.82311563562492" lon="-7.70382791660994"><ele>403.0</ele><time>2026-04-23T10:29:47.999Z</time></trkpt><trkpt lat="32.822880799325326" lon="-7.704031287411319"><ele>403.5</ele><time>2026-04-23T10:29:48.999Z</time></trkpt><trkpt lat="32.82264297797592" lon="-7.704237651643225"><ele>404.0</ele><time>2026-04-23T10:29:49.999Z</time></trkpt><trkpt lat="32.82240463268588" lon="-7.704449481860574"><ele>404.0</ele><time>2026-04-23T10:29:50.999Z</time></trkpt><trkpt lat="32.82216423666128" lon="-7.704655424086368"><ele>404.0</ele><time>2026-04-23T10:29:51.999Z</time></trkpt><trkpt lat="32.821927984616494" lon="-7.704864335002673"><ele>403.0</ele><time>2026-04-23T10:29:52.999Z</time></trkpt><trkpt lat="32.82168454739386" lon="-7.705075237132784"><ele>402.0</ele><time>2026-04-23T10:29:53.999Z</time></trkpt><trkpt lat="32.821442957132916" lon="-7.705281968052448"><ele>401.0</ele><time>2026-04-23T10:29:54.999Z</time></trkpt><trkpt lat="32.82120095541642" lon="-7.705490818473455"><ele>400.0</ele><time>2026-04-23T10:29:55.999Z</time></trkpt><trkpt lat="32.82096103402206" lon="-7.7057003616653095"><ele>400.0</ele><time>2026-04-23T10:29:56.999Z</time></trkpt><trkpt lat="32.820717980008695" lon="-7.705903141256927"><ele>400.0</ele><time>2026-04-23T10:29:57.999Z</time></trkpt><trkpt lat="32.820476239221684" lon="-7.706110969317117"><ele>400.0</ele><time>2026-04-23T10:29:58.999Z</time></trkpt><trkpt lat="32.82023164614823" lon="-7.706312855271343"><ele>400.0</ele><time>2026-04-23T10:29:59.999Z</time></trkpt><trkpt lat="32.819987790537446" lon="-7.70651051258218"><ele>401.0</ele><time>2026-04-23T10:30:00.999Z</time></trkpt><trkpt lat="32.81974003951614" lon="-7.706705448994637"><ele>402.0</ele><time>2026-04-23T10:30:01.999Z</time></trkpt><trkpt lat="32.819489535540114" lon="-7.706899439543211"><ele>403.0</ele><time>2026-04-23T10:30:02.999Z</time></trkpt><trkpt lat="32.819235903671135" lon="-7.707092116501264"><ele>404.0</ele><time>2026-04-23T10:30:03.999Z</time></trkpt><trkpt lat="32.81898393690121" lon="-7.7072863973644745"><ele>404.0</ele><time>2026-04-23T10:30:04.999Z</time></trkpt><trkpt lat="32.81873035802392" lon="-7.70747489537995"><ele>404.0</ele><time>2026-04-23T10:30:05.999Z</time></trkpt><trkpt lat="32.8184744756259" lon="-7.707658130307867"><ele>405.0</ele><time>2026-04-23T10:30:06.999Z</time></trkpt><trkpt lat="32.818218126918275" lon="-7.707839774167536"><ele>406.0</ele><time>2026-04-23T10:30:07.999Z</time></trkpt><trkpt lat="32.81795873934486" lon="-7.708014146572454"><ele>406.0</ele><time>2026-04-23T10:30:08.999Z</time></trkpt><trkpt lat="32.81769263829767" lon="-7.708191929658179"><ele>406.0</ele><time>2026-04-23T10:30:09.999Z</time></trkpt><trkpt lat="32.81742838815978" lon="-7.708361712280496"><ele>407.0</ele><time>2026-04-23T10:30:10.999Z</time></trkpt><trkpt lat="32.817166038090924" lon="-7.7085296153192155"><ele>408.0</ele><time>2026-04-23T10:30:11.999Z</time></trkpt><trkpt lat="32.81690040960666" lon="-7.708693565012944"><ele>407.0</ele><time>2026-04-23T10:30:12.999Z</time></trkpt><trkpt lat="32.81663196748947" lon="-7.708855106013482"><ele>406.0</ele><time>2026-04-23T10:30:13.999Z</time></trkpt><trkpt lat="32.81636759564878" lon="-7.709015862967518"><ele>406.0</ele><time>2026-04-23T10:30:14.999Z</time></trkpt><trkpt lat="32.81610740958085" lon="-7.709174968876495"><ele>406.0</ele><time>2026-04-23T10:30:15.999Z</time></trkpt><trkpt lat="32.81583760198046" lon="-7.709334392909181"><ele>407.5</ele><time>2026-04-23T10:30:16.999Z</time></trkpt><trkpt lat="32.8155700466171" lon="-7.709489465246565"><ele>409.0</ele><time>2026-04-23T10:30:17.999Z</time></trkpt><trkpt lat="32.81530156337277" lon="-7.709644833591769"><ele>409.5</ele><time>2026-04-23T10:30:18.999Z</time></trkpt><trkpt lat="32.81503291546898" lon="-7.709798622819563"><ele>410.0</ele><time>2026-04-23T10:30:19.999Z</time></trkpt><trkpt lat="32.814756395658456" lon="-7.709946100132214"><ele>410.0</ele><time>2026-04-23T10:30:20.999Z</time></trkpt><trkpt lat="32.81448284209639" lon="-7.710094239263746"><ele>410.0</ele><time>2026-04-23T10:30:21.999Z</time></trkpt><trkpt lat="32.814212261877195" lon="-7.710237680719517"><ele>409.5</ele><time>2026-04-23T10:30:22.999Z</time></trkpt><trkpt lat="32.81393645930752" lon="-7.71038151326754"><ele>409.0</ele><time>2026-04-23T10:30:23.999Z</time></trkpt><trkpt lat="32.81366551456485" lon="-7.710519259472992"><ele>408.5</ele><time>2026-04-23T10:30:24.999Z</time></trkpt><trkpt lat="32.81338685073391" lon="-7.710661250086557"><ele>408.0</ele><time>2026-04-23T10:30:25.999Z</time></trkpt><trkpt lat="32.81310971359248" lon="-7.710789277198721"><ele>408.0</ele><time>2026-04-23T10:30:26.999Z</time></trkpt><trkpt lat="32.812831795483184" lon="-7.710921829807184"><ele>408.0</ele><time>2026-04-23T10:30:28Z</time></trkpt><trkpt lat="32.81255208216055" lon="-7.7110523425550594"><ele>404.5</ele><time>2026-04-23T10:30:29Z</time></trkpt><trkpt lat="32.81227330523605" lon="-7.711174840287507"><ele>401.0</ele><time>2026-04-23T10:30:30Z</time></trkpt><trkpt lat="32.811992490051885" lon="-7.711297825247729"><ele>401.5</ele><time>2026-04-23T10:30:31Z</time></trkpt><trkpt lat="32.81171551824442" lon="-7.711416570692663"><ele>402.0</ele><time>2026-04-23T10:30:32Z</time></trkpt><trkpt lat="32.8114381020853" lon="-7.711543935546318"><ele>402.0</ele><time>2026-04-23T10:30:33Z</time></trkpt><trkpt lat="32.81115906961516" lon="-7.711666375490647"><ele>402.0</ele><time>2026-04-23T10:30:34Z</time></trkpt><trkpt lat="32.8108769609898" lon="-7.711787670642461"><ele>399.5</ele><time>2026-04-23T10:30:35Z</time></trkpt><trkpt lat="32.810596953974695" lon="-7.711912009176217"><ele>397.0</ele><time>2026-04-23T10:30:36Z</time></trkpt><trkpt lat="32.81031654612882" lon="-7.71203012417463"><ele>397.0</ele><time>2026-04-23T10:30:37Z</time></trkpt><trkpt lat="32.81004119254022" lon="-7.712151463455884"><ele>397.0</ele><time>2026-04-23T10:30:38Z</time></trkpt><trkpt lat="32.80976005902986" lon="-7.7122751922088595"><ele>397.0</ele><time>2026-04-23T10:30:39Z</time></trkpt><trkpt lat="32.809479262639236" lon="-7.7123997003818685"><ele>397.0</ele><time>2026-04-23T10:30:40Z</time></trkpt><trkpt lat="32.809197663629625" lon="-7.712524217384338"><ele>396.5</ele><time>2026-04-23T10:30:41Z</time></trkpt><trkpt lat="32.80891899277419" lon="-7.712645246842497"><ele>396.0</ele><time>2026-04-23T10:30:42Z</time></trkpt><trkpt lat="32.80864282195446" lon="-7.712762580533401"><ele>396.5</ele><time>2026-04-23T10:30:43Z</time></trkpt><trkpt lat="32.80836569925078" lon="-7.71288138649688"><ele>397.0</ele><time>2026-04-23T10:30:44Z</time></trkpt><trkpt lat="32.80808699950899" lon="-7.713001194621"><ele>397.0</ele><time>2026-04-23T10:30:45Z</time></trkpt><trkpt lat="32.8078081234091" lon="-7.713123252981959"><ele>397.0</ele><time>2026-04-23T10:30:46Z</time></trkpt><trkpt lat="32.80752430689327" lon="-7.713245473753851"><ele>397.5</ele><time>2026-04-23T10:30:47Z</time></trkpt><trkpt lat="32.80724471893196" lon="-7.713369198542721"><ele>398.0</ele><time>2026-04-23T10:30:48Z</time></trkpt><trkpt lat="32.80696509565267" lon="-7.713487802252545"><ele>397.0</ele><time>2026-04-23T10:30:49Z</time></trkpt><trkpt lat="32.80668023497589" lon="-7.7136120954299985"><ele>396.0</ele><time>2026-04-23T10:30:50Z</time></trkpt><trkpt lat="32.80640097841372" lon="-7.713727806607886"><ele>396.0</ele><time>2026-04-23T10:30:51Z</time></trkpt><trkpt lat="32.80612290308245" lon="-7.713845824564768"><ele>396.0</ele><time>2026-04-23T10:30:52Z</time></trkpt><trkpt lat="32.80584140521303" lon="-7.713960534993501"><ele>396.0</ele><time>2026-04-23T10:30:53Z</time></trkpt><trkpt lat="32.80555981013204" lon="-7.7140767339885645"><ele>396.0</ele><time>2026-04-23T10:30:54Z</time></trkpt><trkpt lat="32.80527792904147" lon="-7.7141925776720655"><ele>396.0</ele><time>2026-04-23T10:30:55Z</time></trkpt><trkpt lat="32.80499698883644" lon="-7.714308252334999"><ele>396.0</ele><time>2026-04-23T10:30:56Z</time></trkpt><trkpt lat="32.80472152436237" lon="-7.71442984922785"><ele>396.5</ele><time>2026-04-23T10:30:57Z</time></trkpt><trkpt lat="32.80444258283762" lon="-7.714552365740569"><ele>397.0</ele><time>2026-04-23T10:30:58Z</time></trkpt><trkpt lat="32.80416067127108" lon="-7.71466990461931"><ele>395.5</ele><time>2026-04-23T10:30:59Z</time></trkpt><trkpt lat="32.803882411945594" lon="-7.714787342578389"><ele>394.0</ele><time>2026-04-23T10:31:00Z</time></trkpt><trkpt lat="32.803600075845154" lon="-7.714909068585217"><ele>395.0</ele><time>2026-04-23T10:31:01Z</time></trkpt><trkpt lat="32.80331886160942" lon="-7.715029599692448"><ele>396.0</ele><time>2026-04-23T10:31:02Z</time></trkpt><trkpt lat="32.803037168486554" lon="-7.715147600766808"><ele>396.5</ele><time>2026-04-23T10:31:03Z</time></trkpt><trkpt lat="32.80276071732964" lon="-7.715261598794914"><ele>397.0</ele><time>2026-04-23T10:31:04Z</time></trkpt><trkpt lat="32.80248248899313" lon="-7.715381632366085"><ele>397.0</ele><time>2026-04-23T10:31:05Z</time></trkpt><trkpt lat="32.802201396844275" lon="-7.715504811546297"><ele>397.0</ele><time>2026-04-23T10:31:06Z</time></trkpt><trkpt lat="32.80192121853593" lon="-7.715623358717675"><ele>398.0</ele><time>2026-04-23T10:31:07Z</time></trkpt><trkpt lat="32.8016431209132" lon="-7.715747267006323"><ele>399.0</ele><time>2026-04-23T10:31:08Z</time></trkpt><trkpt lat="32.80136814790364" lon="-7.715875184805199"><ele>399.0</ele><time>2026-04-23T10:31:09Z</time></trkpt><trkpt lat="32.80109426409236" lon="-7.716005245454541"><ele>399.0</ele><time>2026-04-23T10:31:10Z</time></trkpt><trkpt lat="32.800820431917174" lon="-7.716140184280329"><ele>399.0</ele><time>2026-04-23T10:31:11Z</time></trkpt><trkpt lat="32.800541937472964" lon="-7.716275158418469"><ele>399.0</ele><time>2026-04-23T10:31:12Z</time></trkpt><trkpt lat="32.80026858035615" lon="-7.716416229871367"><ele>402.0</ele><time>2026-04-23T10:31:13Z</time></trkpt><trkpt lat="32.80000007974563" lon="-7.716558040305483"><ele>405.0</ele><time>2026-04-23T10:31:14Z</time></trkpt><trkpt lat="32.7997283944969" lon="-7.716704536828463"><ele>405.0</ele><time>2026-04-23T10:31:15Z</time></trkpt><trkpt lat="32.7994603704921" lon="-7.7168582810907465"><ele>405.0</ele><time>2026-04-23T10:31:16Z</time></trkpt><trkpt lat="32.79919075423975" lon="-7.717019036272066"><ele>404.0</ele><time>2026-04-23T10:31:17Z</time></trkpt><trkpt lat="32.79892945134097" lon="-7.717179662529918"><ele>403.0</ele><time>2026-04-23T10:31:18Z</time></trkpt><trkpt lat="32.798668170148616" lon="-7.717345407462626"><ele>404.0</ele><time>2026-04-23T10:31:19Z</time></trkpt><trkpt lat="32.798405134556596" lon="-7.717508635193492"><ele>405.0</ele><time>2026-04-23T10:31:20Z</time></trkpt><trkpt lat="32.7981396445356" lon="-7.717676552624515"><ele>405.5</ele><time>2026-04-23T10:31:21Z</time></trkpt><trkpt lat="32.79788174049301" lon="-7.717845999340696"><ele>406.0</ele><time>2026-04-23T10:31:22Z</time></trkpt><trkpt lat="32.7976283470157" lon="-7.71802340788487"><ele>407.5</ele><time>2026-04-23T10:31:23Z</time></trkpt><trkpt lat="32.79737329103398" lon="-7.7182030635137195"><ele>409.0</ele><time>2026-04-23T10:31:24Z</time></trkpt><trkpt lat="32.797121513250346" lon="-7.718387765518678"><ele>409.0</ele><time>2026-04-23T10:31:25Z</time></trkpt><trkpt lat="32.79686894849156" lon="-7.718576137016063"><ele>409.0</ele><time>2026-04-23T10:31:26Z</time></trkpt><trkpt lat="32.796621061551264" lon="-7.718769622518217"><ele>409.0</ele><time>2026-04-23T10:31:27Z</time></trkpt><trkpt lat="32.79637254282537" lon="-7.71896424923032"><ele>409.0</ele><time>2026-04-23T10:31:28Z</time></trkpt><trkpt lat="32.796123821818455" lon="-7.719164820557292"><ele>410.5</ele><time>2026-04-23T10:31:29Z</time></trkpt><trkpt lat="32.79587454322955" lon="-7.719363216147386"><ele>412.0</ele><time>2026-04-23T10:31:30Z</time></trkpt><trkpt lat="32.795618795692995" lon="-7.719543850343195"><ele>414.5</ele><time>2026-04-23T10:31:31Z</time></trkpt><trkpt lat="32.79536601192746" lon="-7.719737171827671"><ele>417.0</ele><time>2026-04-23T10:31:32Z</time></trkpt><trkpt lat="32.79511423719777" lon="-7.719928436313057"><ele>417.5</ele><time>2026-04-23T10:31:33Z</time></trkpt><trkpt lat="32.794868266627006" lon="-7.720127666568124"><ele>418.0</ele><time>2026-04-23T10:31:34Z</time></trkpt><trkpt lat="32.794621982431956" lon="-7.720334048310511"><ele>418.0</ele><time>2026-04-23T10:31:35Z</time></trkpt><trkpt lat="32.79437196056476" lon="-7.720536364605982"><ele>418.0</ele><time>2026-04-23T10:31:36Z</time></trkpt><trkpt lat="32.79413011515517" lon="-7.720737195125033"><ele>416.5</ele><time>2026-04-23T10:31:37Z</time></trkpt><trkpt lat="32.79388462321929" lon="-7.720946138370291"><ele>415.0</ele><time>2026-04-23T10:31:38Z</time></trkpt><trkpt lat="32.79365072329199" lon="-7.721172362263526"><ele>411.5</ele><time>2026-04-23T10:31:39Z</time></trkpt><trkpt lat="32.79340189480213" lon="-7.721370417959024"><ele>408.0</ele><time>2026-04-23T10:31:40Z</time></trkpt><trkpt lat="32.79315336309048" lon="-7.721563950712565"><ele>408.0</ele><time>2026-04-23T10:31:41Z</time></trkpt><trkpt lat="32.79290655084799" lon="-7.721762646587373"><ele>408.0</ele><time>2026-04-23T10:31:42Z</time></trkpt><trkpt lat="32.79265959405814" lon="-7.7219601382567555"><ele>407.5</ele><time>2026-04-23T10:31:43Z</time></trkpt><trkpt lat="32.79241501117099" lon="-7.722160530661808"><ele>407.0</ele><time>2026-04-23T10:31:44Z</time></trkpt><trkpt lat="32.79216809110481" lon="-7.722356354547305"><ele>407.0</ele><time>2026-04-23T10:31:45Z</time></trkpt><trkpt lat="32.79192140400307" lon="-7.722557498294482"><ele>407.0</ele><time>2026-04-23T10:31:46Z</time></trkpt><trkpt lat="32.7916749996019" lon="-7.722754397366431"><ele>405.5</ele><time>2026-04-23T10:31:47Z</time></trkpt><trkpt lat="32.79143057571287" lon="-7.722951941770682"><ele>404.0</ele><time>2026-04-23T10:31:48Z</time></trkpt><trkpt lat="32.791181079549226" lon="-7.7231553844323315"><ele>402.5</ele><time>2026-04-23T10:31:49Z</time></trkpt><trkpt lat="32.79093249497467" lon="-7.72335442342094"><ele>401.0</ele><time>2026-04-23T10:31:50Z</time></trkpt><trkpt lat="32.7906866721284" lon="-7.72355568582338"><ele>400.5</ele><time>2026-04-23T10:31:51Z</time></trkpt><trkpt lat="32.7904413109116" lon="-7.723757307465281"><ele>400.0</ele><time>2026-04-23T10:31:52Z</time></trkpt><trkpt lat="32.79019224030302" lon="-7.723959122278024"><ele>400.0</ele><time>2026-04-23T10:31:53Z</time></trkpt><trkpt lat="32.78994622044236" lon="-7.724154287210633"><ele>400.0</ele><time>2026-04-23T10:31:54Z</time></trkpt><trkpt lat="32.78969990301221" lon="-7.724354650060514"><ele>399.5</ele><time>2026-04-23T10:31:55Z</time></trkpt><trkpt lat="32.78945479980685" lon="-7.724549040773278"><ele>399.0</ele><time>2026-04-23T10:31:56Z</time></trkpt><trkpt lat="32.78920899616775" lon="-7.724745992854028"><ele>399.0</ele><time>2026-04-23T10:31:57Z</time></trkpt><trkpt lat="32.788964814247194" lon="-7.724947038676749"><ele>399.0</ele><time>2026-04-23T10:31:58Z</time></trkpt><trkpt lat="32.788720538765816" lon="-7.725144707011786"><ele>398.0</ele><time>2026-04-23T10:31:59Z</time></trkpt><trkpt lat="32.78847627991199" lon="-7.725339375183853"><ele>397.0</ele><time>2026-04-23T10:32:00Z</time></trkpt><trkpt lat="32.78822663830752" lon="-7.725536322926638"><ele>397.0</ele><time>2026-04-23T10:32:01Z</time></trkpt><trkpt lat="32.78797683646774" lon="-7.7257350051125355"><ele>397.0</ele><time>2026-04-23T10:32:02Z</time></trkpt><trkpt lat="32.7877310501807" lon="-7.725934922311353"><ele>396.5</ele><time>2026-04-23T10:32:03Z</time></trkpt><trkpt lat="32.78748966773772" lon="-7.726134217284773"><ele>396.0</ele><time>2026-04-23T10:32:04Z</time></trkpt><trkpt lat="32.787245413689675" lon="-7.726334235188515"><ele>396.0</ele><time>2026-04-23T10:32:05Z</time></trkpt><trkpt lat="32.78699494560753" lon="-7.726532709470216"><ele>396.0</ele><time>2026-04-23T10:32:06Z</time></trkpt><trkpt lat="32.78675242992939" lon="-7.726734634559057"><ele>393.5</ele><time>2026-04-23T10:32:07Z</time></trkpt><trkpt lat="32.786509923310064" lon="-7.726932110311258"><ele>391.0</ele><time>2026-04-23T10:32:08Z</time></trkpt><trkpt lat="32.78626479977976" lon="-7.727128827849843"><ele>391.0</ele><time>2026-04-23T10:32:09Z</time></trkpt><trkpt lat="32.78602270389758" lon="-7.727324413295485"><ele>391.0</ele><time>2026-04-23T10:32:10Z</time></trkpt><trkpt lat="32.785774253655006" lon="-7.727522038343047"><ele>391.5</ele><time>2026-04-23T10:32:11Z</time></trkpt><trkpt lat="32.785528436420215" lon="-7.727717328403794"><ele>392.0</ele><time>2026-04-23T10:32:12Z</time></trkpt><trkpt lat="32.78528320548226" lon="-7.727914947815333"><ele>393.5</ele><time>2026-04-23T10:32:13Z</time></trkpt><trkpt lat="32.78503978106103" lon="-7.728110081957557"><ele>395.0</ele><time>2026-04-23T10:32:14Z</time></trkpt><trkpt lat="32.78479325486528" lon="-7.7283065811371605"><ele>395.0</ele><time>2026-04-23T10:32:15Z</time></trkpt><trkpt lat="32.78454683242845" lon="-7.728504381456905"><ele>395.0</ele><time>2026-04-23T10:32:16Z</time></trkpt><trkpt lat="32.78430010017466" lon="-7.728698704235205"><ele>394.0</ele><time>2026-04-23T10:32:17Z</time></trkpt><trkpt lat="32.78405571067582" lon="-7.728892080761061"><ele>393.0</ele><time>2026-04-23T10:32:18Z</time></trkpt><trkpt lat="32.783806887934965" lon="-7.7290974582012195"><ele>393.0</ele><time>2026-04-23T10:32:19Z</time></trkpt><trkpt lat="32.783559145948466" lon="-7.729295454115999"><ele>393.0</ele><time>2026-04-23T10:32:20Z</time></trkpt><trkpt lat="32.783313331109085" lon="-7.729493846642384"><ele>395.5</ele><time>2026-04-23T10:32:21Z</time></trkpt><trkpt lat="32.783063844125856" lon="-7.729690779658899"><ele>398.0</ele><time>2026-04-23T10:32:22Z</time></trkpt><trkpt lat="32.78281260095104" lon="-7.729883228173706"><ele>398.0</ele><time>2026-04-23T10:32:22.999Z</time></trkpt><trkpt lat="32.78256425514683" lon="-7.730078434608436"><ele>398.0</ele><time>2026-04-23T10:32:23.999Z</time></trkpt><trkpt lat="32.782318070081445" lon="-7.730277643124794"><ele>397.5</ele><time>2026-04-23T10:32:24.999Z</time></trkpt><trkpt lat="32.78207098598775" lon="-7.7304696082800275"><ele>397.0</ele><time>2026-04-23T10:32:25.999Z</time></trkpt><trkpt lat="32.78182505280982" lon="-7.730668369566489"><ele>397.0</ele><time>2026-04-23T10:32:26.999Z</time></trkpt><trkpt lat="32.78157833604895" lon="-7.730867454435342"><ele>397.0</ele><time>2026-04-23T10:32:27.999Z</time></trkpt><trkpt lat="32.78132955053166" lon="-7.731064606136651"><ele>397.0</ele><time>2026-04-23T10:32:28.999Z</time></trkpt><trkpt lat="32.78108132473219" lon="-7.731257851083846"><ele>397.0</ele><time>2026-04-23T10:32:29.999Z</time></trkpt><trkpt lat="32.78083227337928" lon="-7.731457451887159"><ele>397.0</ele><time>2026-04-23T10:32:30.999Z</time></trkpt><trkpt lat="32.78058357453811" lon="-7.731657353550797"><ele>397.0</ele><time>2026-04-23T10:32:31.999Z</time></trkpt><trkpt lat="32.780338216639336" lon="-7.731854920093511"><ele>395.5</ele><time>2026-04-23T10:32:32.999Z</time></trkpt><trkpt lat="32.780088445832256" lon="-7.732053972449585"><ele>394.0</ele><time>2026-04-23T10:32:34.001Z</time></trkpt><trkpt lat="32.779839988667526" lon="-7.732248219763951"><ele>394.0</ele><time>2026-04-23T10:32:35.001Z</time></trkpt><trkpt lat="32.77958549520575" lon="-7.732443443880699"><ele>394.0</ele><time>2026-04-23T10:32:36.001Z</time></trkpt><trkpt lat="32.779333432953386" lon="-7.73262955631392"><ele>394.0</ele><time>2026-04-23T10:32:37.001Z</time></trkpt><trkpt lat="32.77908068274856" lon="-7.73281053600559"><ele>394.0</ele><time>2026-04-23T10:32:38.001Z</time></trkpt><trkpt lat="32.778824048441805" lon="-7.732996663843529"><ele>394.0</ele><time>2026-04-23T10:32:39.001Z</time></trkpt><trkpt lat="32.77856822567406" lon="-7.733178698187216"><ele>394.0</ele><time>2026-04-23T10:32:40.001Z</time></trkpt><trkpt lat="32.77830857181696" lon="-7.733350968037608"><ele>394.5</ele><time>2026-04-23T10:32:41.001Z</time></trkpt><trkpt lat="32.77804837538873" lon="-7.733528480715613"><ele>395.0</ele><time>2026-04-23T10:32:42.001Z</time></trkpt><trkpt lat="32.77779153511299" lon="-7.733700553735161"><ele>395.5</ele><time>2026-04-23T10:32:43.001Z</time></trkpt><trkpt lat="32.77753022062733" lon="-7.733871142798885"><ele>396.0</ele><time>2026-04-23T10:32:44.001Z</time></trkpt><trkpt lat="32.77726666391133" lon="-7.7340377387854335"><ele>396.0</ele><time>2026-04-23T10:32:45.001Z</time></trkpt><trkpt lat="32.777002617586234" lon="-7.734201328772177"><ele>396.0</ele><time>2026-04-23T10:32:46.001Z</time></trkpt><trkpt lat="32.776738655645296" lon="-7.734363328717753"><ele>396.0</ele><time>2026-04-23T10:32:47.001Z</time></trkpt><trkpt lat="32.776473087084064" lon="-7.734523356848747"><ele>396.0</ele><time>2026-04-23T10:32:48.001Z</time></trkpt><trkpt lat="32.77620351995179" lon="-7.734683000954839"><ele>396.5</ele><time>2026-04-23T10:32:49.001Z</time></trkpt><trkpt lat="32.77593969614827" lon="-7.734836893511499"><ele>397.0</ele><time>2026-04-23T10:32:50.001Z</time></trkpt><trkpt lat="32.77567129154574" lon="-7.734993082592652"><ele>397.0</ele><time>2026-04-23T10:32:51.001Z</time></trkpt><trkpt lat="32.7753997131219" lon="-7.735145995338247"><ele>397.0</ele><time>2026-04-23T10:32:52.001Z</time></trkpt><trkpt lat="32.77513077736014" lon="-7.735298290960761"><ele>397.0</ele><time>2026-04-23T10:32:53.001Z</time></trkpt><trkpt lat="32.77485762697974" lon="-7.735446314979974"><ele>397.0</ele><time>2026-04-23T10:32:54.001Z</time></trkpt><trkpt lat="32.77458491199194" lon="-7.735588811372413"><ele>397.5</ele><time>2026-04-23T10:32:55.001Z</time></trkpt><trkpt lat="32.77431252818522" lon="-7.735725463656672"><ele>398.0</ele><time>2026-04-23T10:32:56.001Z</time></trkpt><trkpt lat="32.77403286428388" lon="-7.73585962240438"><ele>398.0</ele><time>2026-04-23T10:32:57.001Z</time></trkpt><trkpt lat="32.77376024954964" lon="-7.735992470186247"><ele>398.0</ele><time>2026-04-23T10:32:58.001Z</time></trkpt><trkpt lat="32.77348308617692" lon="-7.736124632868131"><ele>398.5</ele><time>2026-04-23T10:32:59Z</time></trkpt><trkpt lat="32.773203790145075" lon="-7.736256326424697"><ele>399.0</ele><time>2026-04-23T10:33:00Z</time></trkpt><trkpt lat="32.772923572300456" lon="-7.736383050477916"><ele>400.0</ele><time>2026-04-23T10:33:01Z</time></trkpt><trkpt lat="32.77264141363983" lon="-7.736506732497532"><ele>401.0</ele><time>2026-04-23T10:33:02Z</time></trkpt><trkpt lat="32.77236258722782" lon="-7.736631875231146"><ele>401.0</ele><time>2026-04-23T10:33:03Z</time></trkpt><trkpt lat="32.77208097612106" lon="-7.736757616626113"><ele>401.0</ele><time>2026-04-23T10:33:04Z</time></trkpt><trkpt lat="32.7717989243114" lon="-7.736885402791178"><ele>399.5</ele><time>2026-04-23T10:33:05Z</time></trkpt><trkpt lat="32.771517487995865" lon="-7.7370161961657775"><ele>398.0</ele><time>2026-04-23T10:33:06Z</time></trkpt><trkpt lat="32.771238382016556" lon="-7.737150178096853"><ele>398.0</ele><time>2026-04-23T10:33:07Z</time></trkpt><trkpt lat="32.770960327119575" lon="-7.737279033618529"><ele>398.0</ele><time>2026-04-23T10:33:08Z</time></trkpt><trkpt lat="32.77068065627527" lon="-7.737405869291698"><ele>398.0</ele><time>2026-04-23T10:33:09Z</time></trkpt><trkpt lat="32.770406837574484" lon="-7.7375323437479055"><ele>398.0</ele><time>2026-04-23T10:33:10Z</time></trkpt><trkpt lat="32.77013184681104" lon="-7.737660106011976"><ele>397.5</ele><time>2026-04-23T10:33:11Z</time></trkpt><trkpt lat="32.76985005844184" lon="-7.737793730128609"><ele>397.0</ele><time>2026-04-23T10:33:12Z</time></trkpt><trkpt lat="32.76957397786585" lon="-7.737921345204593"><ele>399.0</ele><time>2026-04-23T10:33:13Z</time></trkpt><trkpt lat="32.76929525382452" lon="-7.738054284594556"><ele>401.0</ele><time>2026-04-23T10:33:14Z</time></trkpt><trkpt lat="32.76901345449674" lon="-7.738182504719815"><ele>401.0</ele><time>2026-04-23T10:33:15Z</time></trkpt><trkpt lat="32.768738896832964" lon="-7.738311380854812"><ele>401.0</ele><time>2026-04-23T10:33:16Z</time></trkpt><trkpt lat="32.76846069681113" lon="-7.738440333951625"><ele>398.5</ele><time>2026-04-23T10:33:17Z</time></trkpt><trkpt lat="32.76818004909194" lon="-7.738569852105997"><ele>396.0</ele><time>2026-04-23T10:33:18Z</time></trkpt><trkpt lat="32.76789968545212" lon="-7.738699981334079"><ele>396.5</ele><time>2026-04-23T10:33:19Z</time></trkpt><trkpt lat="32.76761946080359" lon="-7.738829270564385"><ele>397.0</ele><time>2026-04-23T10:33:20Z</time></trkpt><trkpt lat="32.76733817760321" lon="-7.738957268013866"><ele>397.0</ele><time>2026-04-23T10:33:21Z</time></trkpt><trkpt lat="32.76706034983996" lon="-7.739086792170448"><ele>397.0</ele><time>2026-04-23T10:33:22Z</time></trkpt><trkpt lat="32.76678286605613" lon="-7.739217454388488"><ele>398.0</ele><time>2026-04-23T10:33:23Z</time></trkpt><trkpt lat="32.76650395659867" lon="-7.739348930674347"><ele>399.0</ele><time>2026-04-23T10:33:24Z</time></trkpt><trkpt lat="32.766231648519174" lon="-7.739473260432048"><ele>396.5</ele><time>2026-04-23T10:33:25Z</time></trkpt><trkpt lat="32.76595886173393" lon="-7.739604920124482"><ele>394.0</ele><time>2026-04-23T10:33:26Z</time></trkpt><trkpt lat="32.76568169305979" lon="-7.7397309324503105"><ele>394.0</ele><time>2026-04-23T10:33:27Z</time></trkpt><trkpt lat="32.76540324790977" lon="-7.7398545117860476"><ele>394.0</ele><time>2026-04-23T10:33:28Z</time></trkpt><trkpt lat="32.765126769878925" lon="-7.7399742241527765"><ele>396.0</ele><time>2026-04-23T10:33:29Z</time></trkpt><trkpt lat="32.764848019176796" lon="-7.7400882211364"><ele>398.0</ele><time>2026-04-23T10:33:30Z</time></trkpt><trkpt lat="32.76456493050789" lon="-7.740199687371092"><ele>397.5</ele><time>2026-04-23T10:33:31Z</time></trkpt><trkpt lat="32.76428035685296" lon="-7.740306879306561"><ele>397.0</ele><time>2026-04-23T10:33:32Z</time></trkpt><trkpt lat="32.76399722628064" lon="-7.740413896519614"><ele>397.0</ele><time>2026-04-23T10:33:33Z</time></trkpt><trkpt lat="32.76371246216778" lon="-7.740518796401194"><ele>397.0</ele><time>2026-04-23T10:33:34Z</time></trkpt><trkpt lat="32.76342620022525" lon="-7.740622914190875"><ele>398.5</ele><time>2026-04-23T10:33:35Z</time></trkpt><trkpt lat="32.76313970348484" lon="-7.74072124712853"><ele>400.0</ele><time>2026-04-23T10:33:36Z</time></trkpt><trkpt lat="32.76285271361842" lon="-7.740819178181228"><ele>401.0</ele><time>2026-04-23T10:33:37Z</time></trkpt><trkpt lat="32.76256411408444" lon="-7.740913551889945"><ele>402.0</ele><time>2026-04-23T10:33:38Z</time></trkpt><trkpt lat="32.76227481456594" lon="-7.741003718831961"><ele>401.5</ele><time>2026-04-23T10:33:39Z</time></trkpt><trkpt lat="32.76198744455073" lon="-7.7410897136957795"><ele>401.0</ele><time>2026-04-23T10:33:40Z</time></trkpt><trkpt lat="32.76169829669917" lon="-7.741175808132929"><ele>401.0</ele><time>2026-04-23T10:33:41Z</time></trkpt><trkpt lat="32.7614105825527" lon="-7.741257586003441"><ele>401.0</ele><time>2026-04-23T10:33:42Z</time></trkpt><trkpt lat="32.76112198966319" lon="-7.7413334546348125"><ele>402.0</ele><time>2026-04-23T10:33:43Z</time></trkpt><trkpt lat="32.76082803769557" lon="-7.741414203484259"><ele>403.0</ele><time>2026-04-23T10:33:44Z</time></trkpt><trkpt lat="32.76053600389779" lon="-7.741487788265644"><ele>403.0</ele><time>2026-04-23T10:33:45Z</time></trkpt><trkpt lat="32.760247816405816" lon="-7.741559995317203"><ele>403.0</ele><time>2026-04-23T10:33:46Z</time></trkpt><trkpt lat="32.75995696308623" lon="-7.741627857279049"><ele>404.5</ele><time>2026-04-23T10:33:47Z</time></trkpt><trkpt lat="32.75966678515807" lon="-7.741687771107964"><ele>406.0</ele><time>2026-04-23T10:33:48Z</time></trkpt><trkpt lat="32.75937153840372" lon="-7.741747163817885"><ele>407.0</ele><time>2026-04-23T10:33:49Z</time></trkpt><trkpt lat="32.759075743898464" lon="-7.74180077546434"><ele>408.0</ele><time>2026-04-23T10:33:50Z</time></trkpt><trkpt lat="32.75877809009204" lon="-7.741856351906901"><ele>408.0</ele><time>2026-04-23T10:33:51Z</time></trkpt><trkpt lat="32.7584824339663" lon="-7.7419078771679315"><ele>408.0</ele><time>2026-04-23T10:33:52Z</time></trkpt><trkpt lat="32.758184750934824" lon="-7.741956949001621"><ele>408.0</ele><time>2026-04-23T10:33:53Z</time></trkpt><trkpt lat="32.75789031293574" lon="-7.742007293467326"><ele>408.0</ele><time>2026-04-23T10:33:54Z</time></trkpt><trkpt lat="32.757592624302966" lon="-7.742060076261057"><ele>408.0</ele><time>2026-04-23T10:33:55Z</time></trkpt><trkpt lat="32.757294050574075" lon="-7.742115351795171"><ele>408.0</ele><time>2026-04-23T10:33:56Z</time></trkpt><trkpt lat="32.7569987257212" lon="-7.742163690664699"><ele>407.0</ele><time>2026-04-23T10:33:57Z</time></trkpt><trkpt lat="32.75670272724029" lon="-7.742213292161505"><ele>406.0</ele><time>2026-04-23T10:33:58Z</time></trkpt><trkpt lat="32.75640764651138" lon="-7.742264266416076"><ele>406.0</ele><time>2026-04-23T10:33:59Z</time></trkpt><trkpt lat="32.75611242912801" lon="-7.742314195560918"><ele>406.0</ele><time>2026-04-23T10:34:00Z</time></trkpt><trkpt lat="32.75581596020754" lon="-7.742369353854106"><ele>406.5</ele><time>2026-04-23T10:34:01Z</time></trkpt><trkpt lat="32.755520229489605" lon="-7.742423715429872"><ele>407.0</ele><time>2026-04-23T10:34:02Z</time></trkpt><trkpt lat="32.75522551732249" lon="-7.742476138545365"><ele>406.0</ele><time>2026-04-23T10:34:03Z</time></trkpt><trkpt lat="32.75492851210949" lon="-7.7425281501480745"><ele>405.0</ele><time>2026-04-23T10:34:04Z</time></trkpt><trkpt lat="32.75463176158235" lon="-7.74257716450689"><ele>405.0</ele><time>2026-04-23T10:34:05Z</time></trkpt><trkpt lat="32.754335395998964" lon="-7.7426286279564245"><ele>405.0</ele><time>2026-04-23T10:34:06Z</time></trkpt><trkpt lat="32.75403690521789" lon="-7.742679964558598"><ele>403.0</ele><time>2026-04-23T10:34:07Z</time></trkpt><trkpt lat="32.75374124149387" lon="-7.742734666933389"><ele>401.0</ele><time>2026-04-23T10:34:08Z</time></trkpt><trkpt lat="32.753446305500916" lon="-7.742789992848274"><ele>400.0</ele><time>2026-04-23T10:34:09Z</time></trkpt><trkpt lat="32.75315075252462" lon="-7.74284340311386"><ele>399.0</ele><time>2026-04-23T10:34:10Z</time></trkpt><trkpt lat="32.75285468596535" lon="-7.742894615728561"><ele>399.0</ele><time>2026-04-23T10:34:11Z</time></trkpt><trkpt lat="32.75256114792895" lon="-7.74295116758139"><ele>399.0</ele><time>2026-04-23T10:34:12Z</time></trkpt><trkpt lat="32.752264539206855" lon="-7.743001519629507"><ele>399.0</ele><time>2026-04-23T10:34:13Z</time></trkpt><trkpt lat="32.75197328865371" lon="-7.743052427733876"><ele>399.0</ele><time>2026-04-23T10:34:14Z</time></trkpt><trkpt lat="32.75167580217287" lon="-7.7431037706623265"><ele>397.5</ele><time>2026-04-23T10:34:15Z</time></trkpt><trkpt lat="32.75138199470346" lon="-7.743153613164672"><ele>396.0</ele><time>2026-04-23T10:34:16Z</time></trkpt><trkpt lat="32.751085642430134" lon="-7.743198605629142"><ele>394.5</ele><time>2026-04-23T10:34:17Z</time></trkpt><trkpt lat="32.75079425554032" lon="-7.743240297257858"><ele>393.0</ele><time>2026-04-23T10:34:18Z</time></trkpt><trkpt lat="32.75049950124789" lon="-7.743278147311593"><ele>393.0</ele><time>2026-04-23T10:34:19Z</time></trkpt><trkpt lat="32.750201493299876" lon="-7.743313395870458"><ele>393.0</ele><time>2026-04-23T10:34:20Z</time></trkpt><trkpt lat="32.749905117045515" lon="-7.7433389483532835"><ele>393.0</ele><time>2026-04-23T10:34:21Z</time></trkpt><trkpt lat="32.7496123810139" lon="-7.743366333613656"><ele>393.0</ele><time>2026-04-23T10:34:22Z</time></trkpt><trkpt lat="32.749315699609504" lon="-7.743392630245576"><ele>391.5</ele><time>2026-04-23T10:34:23Z</time></trkpt><trkpt lat="32.749016661225504" lon="-7.7434138480808095"><ele>390.0</ele><time>2026-04-23T10:34:24Z</time></trkpt><trkpt lat="32.74871608025842" lon="-7.743429681664"><ele>389.0</ele><time>2026-04-23T10:34:25Z</time></trkpt><trkpt lat="32.748417646125425" lon="-7.743434929441939"><ele>388.0</ele><time>2026-04-23T10:34:26Z</time></trkpt><trkpt lat="32.74812002035137" lon="-7.7434405324169"><ele>388.0</ele><time>2026-04-23T10:34:27Z</time></trkpt><trkpt lat="32.74782135921055" lon="-7.743441023212071"><ele>388.0</ele><time>2026-04-23T10:34:28Z</time></trkpt><trkpt lat="32.74752318657265" lon="-7.743441926508551"><ele>387.5</ele><time>2026-04-23T10:34:29Z</time></trkpt><trkpt lat="32.74722038039292" lon="-7.74344092818287"><ele>387.0</ele><time>2026-04-23T10:34:30Z</time></trkpt><trkpt lat="32.74692133955191" lon="-7.743426937616894"><ele>386.5</ele><time>2026-04-23T10:34:31Z</time></trkpt><trkpt lat="32.74662227476915" lon="-7.743414965349497"><ele>386.0</ele><time>2026-04-23T10:34:32Z</time></trkpt><trkpt lat="32.74632253393485" lon="-7.743395474246861"><ele>386.0</ele><time>2026-04-23T10:34:33Z</time></trkpt><trkpt lat="32.74602382288781" lon="-7.743369084340667"><ele>386.0</ele><time>2026-04-23T10:34:34Z</time></trkpt><trkpt lat="32.74572661641461" lon="-7.743339270496776"><ele>386.0</ele><time>2026-04-23T10:34:35Z</time></trkpt><trkpt lat="32.74542674092036" lon="-7.743309060632525"><ele>386.0</ele><time>2026-04-23T10:34:36Z</time></trkpt><trkpt lat="32.74512735171597" lon="-7.74327258204303"><ele>385.5</ele><time>2026-04-23T10:34:37Z</time></trkpt><trkpt lat="32.74483035147957" lon="-7.743234618007144"><ele>385.0</ele><time>2026-04-23T10:34:38Z</time></trkpt><trkpt lat="32.744534452841826" lon="-7.74318984960243"><ele>386.0</ele><time>2026-04-23T10:34:39Z</time></trkpt><trkpt lat="32.7442373609032" lon="-7.743145845383575"><ele>387.0</ele><time>2026-04-23T10:34:40.001Z</time></trkpt><trkpt lat="32.743939549124036" lon="-7.743097732081689"><ele>387.0</ele><time>2026-04-23T10:34:41.001Z</time></trkpt><trkpt lat="32.74364502964653" lon="-7.743044475025209"><ele>387.0</ele><time>2026-04-23T10:34:42.001Z</time></trkpt><trkpt lat="32.74334820444573" lon="-7.742989250349698"><ele>387.0</ele><time>2026-04-23T10:34:43.001Z</time></trkpt><trkpt lat="32.743051740473106" lon="-7.742936316895998"><ele>387.0</ele><time>2026-04-23T10:34:44.001Z</time></trkpt><trkpt lat="32.742757174811246" lon="-7.742879029408266"><ele>386.5</ele><time>2026-04-23T10:34:45.001Z</time></trkpt><trkpt lat="32.74245786752249" lon="-7.74282322475023"><ele>386.0</ele><time>2026-04-23T10:34:46.001Z</time></trkpt><trkpt lat="32.74216504898544" lon="-7.742761457572958"><ele>385.5</ele><time>2026-04-23T10:34:47.001Z</time></trkpt><trkpt lat="32.74187510797161" lon="-7.7426893640490775"><ele>385.0</ele><time>2026-04-23T10:34:48.001Z</time></trkpt><trkpt lat="32.74158368902388" lon="-7.7426153134283755"><ele>385.0</ele><time>2026-04-23T10:34:49.001Z</time></trkpt><trkpt lat="32.741290585715426" lon="-7.742536941176688"><ele>385.0</ele><time>2026-04-23T10:34:50.001Z</time></trkpt><trkpt lat="32.74100090811885" lon="-7.742455076039898"><ele>383.0</ele><time>2026-04-23T10:34:51.001Z</time></trkpt><trkpt lat="32.74071274147786" lon="-7.742360678585681"><ele>381.0</ele><time>2026-04-23T10:34:52.001Z</time></trkpt><trkpt lat="32.74042626440282" lon="-7.74226301961377"><ele>380.0</ele><time>2026-04-23T10:34:53.001Z</time></trkpt><trkpt lat="32.74013895353874" lon="-7.742161422259965"><ele>379.0</ele><time>2026-04-23T10:34:54.001Z</time></trkpt><trkpt lat="32.73985361722584" lon="-7.742059906455933"><ele>379.0</ele><time>2026-04-23T10:34:55.001Z</time></trkpt><trkpt lat="32.739570118932825" lon="-7.741951126891104"><ele>379.0</ele><time>2026-04-23T10:34:56.001Z</time></trkpt><trkpt lat="32.739284430626356" lon="-7.741839585609449"><ele>374.5</ele><time>2026-04-23T10:34:57.001Z</time></trkpt><trkpt lat="32.73899807859421" lon="-7.741731760017788"><ele>370.0</ele><time>2026-04-23T10:34:58.001Z</time></trkpt><trkpt lat="32.738714897656514" lon="-7.741623433876234"><ele>371.5</ele><time>2026-04-23T10:34:59.001Z</time></trkpt><trkpt lat="32.738432737012346" lon="-7.741509197992781"><ele>373.0</ele><time>2026-04-23T10:35:00.001Z</time></trkpt><trkpt lat="32.73815038532154" lon="-7.741394012846078"><ele>373.0</ele><time>2026-04-23T10:35:01.001Z</time></trkpt><trkpt lat="32.73786665184265" lon="-7.741272194140291"><ele>373.0</ele><time>2026-04-23T10:35:02.001Z</time></trkpt><trkpt lat="32.73758714615943" lon="-7.74115387241824"><ele>369.5</ele><time>2026-04-23T10:35:03.001Z</time></trkpt><trkpt lat="32.73730417649404" lon="-7.741037435372425"><ele>366.0</ele><time>2026-04-23T10:35:04.001Z</time></trkpt><trkpt lat="32.73702034177117" lon="-7.740918186921209"><ele>366.5</ele><time>2026-04-23T10:35:05.001Z</time></trkpt><trkpt lat="32.73673426859645" lon="-7.740800104815151"><ele>367.0</ele><time>2026-04-23T10:35:06Z</time></trkpt><trkpt lat="32.73645719883129" lon="-7.740688496071738"><ele>367.0</ele><time>2026-04-23T10:35:07Z</time></trkpt><trkpt lat="32.736172405373786" lon="-7.7405790280039986"><ele>367.0</ele><time>2026-04-23T10:35:08Z</time></trkpt><trkpt lat="32.735888577029534" lon="-7.740465689193385"><ele>368.5</ele><time>2026-04-23T10:35:09Z</time></trkpt><trkpt lat="32.735609437944206" lon="-7.7403502945285725"><ele>370.0</ele><time>2026-04-23T10:35:10Z</time></trkpt><trkpt lat="32.735326071698154" lon="-7.740234506856743"><ele>362.0</ele><time>2026-04-23T10:35:11Z</time></trkpt><trkpt lat="32.73504202076139" lon="-7.74012209677362"><ele>354.0</ele><time>2026-04-23T10:35:12Z</time></trkpt><trkpt lat="32.73475849613558" lon="-7.740008604203866"><ele>354.0</ele><time>2026-04-23T10:35:13Z</time></trkpt><trkpt lat="32.73447770242103" lon="-7.739894950488703"><ele>354.0</ele><time>2026-04-23T10:35:14Z</time></trkpt><trkpt lat="32.734195177324374" lon="-7.739778403734342"><ele>356.5</ele><time>2026-04-23T10:35:15Z</time></trkpt><trkpt lat="32.73391565071075" lon="-7.7396653460124325"><ele>359.0</ele><time>2026-04-23T10:35:16Z</time></trkpt><trkpt lat="32.73363362394482" lon="-7.739551338325331"><ele>356.5</ele><time>2026-04-23T10:35:17Z</time></trkpt><trkpt lat="32.7333506230219" lon="-7.73943373270775"><ele>354.0</ele><time>2026-04-23T10:35:18Z</time></trkpt><trkpt lat="32.73306842150777" lon="-7.739318696821501"><ele>354.0</ele><time>2026-04-23T10:35:19Z</time></trkpt><trkpt lat="32.73278498967037" lon="-7.739203713073484"><ele>354.0</ele><time>2026-04-23T10:35:20Z</time></trkpt><trkpt lat="32.732502104690504" lon="-7.739091205640848"><ele>350.0</ele><time>2026-04-23T10:35:21Z</time></trkpt><trkpt lat="32.73221769677029" lon="-7.738981969215157"><ele>346.0</ele><time>2026-04-23T10:35:22Z</time></trkpt><trkpt lat="32.73193551761398" lon="-7.738871107087899"><ele>350.0</ele><time>2026-04-23T10:35:23Z</time></trkpt><trkpt lat="32.73165136394499" lon="-7.738764141001926"><ele>354.0</ele><time>2026-04-23T10:35:24Z</time></trkpt><trkpt lat="32.731365280191646" lon="-7.738661963683209"><ele>354.0</ele><time>2026-04-23T10:35:25Z</time></trkpt><trkpt lat="32.73107707332127" lon="-7.738562134057864"><ele>354.0</ele><time>2026-04-23T10:35:26Z</time></trkpt><trkpt lat="32.73078994733168" lon="-7.73846865029925"><ele>347.0</ele><time>2026-04-23T10:35:27Z</time></trkpt><trkpt lat="32.730500323272615" lon="-7.7383733310628156"><ele>340.0</ele><time>2026-04-23T10:35:28Z</time></trkpt><trkpt lat="32.730210537069425" lon="-7.7382806017673325"><ele>340.0</ele><time>2026-04-23T10:35:29Z</time></trkpt><trkpt lat="32.729922189388525" lon="-7.738202077938445"><ele>340.0</ele><time>2026-04-23T10:35:30Z</time></trkpt><trkpt lat="32.72963313327704" lon="-7.738128018173146"><ele>350.0</ele><time>2026-04-23T10:35:31Z</time></trkpt><trkpt lat="32.729343933589405" lon="-7.738054123884803"><ele>360.0</ele><time>2026-04-23T10:35:32Z</time></trkpt><trkpt lat="32.72905213767268" lon="-7.737989064310674"><ele>360.0</ele><time>2026-04-23T10:35:33Z</time></trkpt><trkpt lat="32.728757779452586" lon="-7.737929260908324"><ele>360.0</ele><time>2026-04-23T10:35:34Z</time></trkpt><trkpt lat="32.728460180426374" lon="-7.737868195754006"><ele>357.0</ele><time>2026-04-23T10:35:35Z</time></trkpt><trkpt lat="32.728167660701935" lon="-7.7378079863475335"><ele>354.0</ele><time>2026-04-23T10:35:36Z</time></trkpt><trkpt lat="32.72786947346423" lon="-7.737747629694907"><ele>346.0</ele><time>2026-04-23T10:35:37Z</time></trkpt><trkpt lat="32.72757167816262" lon="-7.73769815993139"><ele>338.0</ele><time>2026-04-23T10:35:38Z</time></trkpt><trkpt lat="32.727275250660846" lon="-7.737653168461183"><ele>338.0</ele><time>2026-04-23T10:35:39Z</time></trkpt><trkpt lat="32.72697648111301" lon="-7.737610507088165"><ele>338.0</ele><time>2026-04-23T10:35:40Z</time></trkpt><trkpt lat="32.726680083603334" lon="-7.737579109177757"><ele>343.5</ele><time>2026-04-23T10:35:41Z</time></trkpt><trkpt lat="32.72638599208717" lon="-7.737548997525786"><ele>349.0</ele><time>2026-04-23T10:35:42Z</time></trkpt><trkpt lat="32.7260904296886" lon="-7.737521093587509"><ele>349.5</ele><time>2026-04-23T10:35:43Z</time></trkpt><trkpt lat="32.72579626344921" lon="-7.737503105632215"><ele>350.0</ele><time>2026-04-23T10:35:44Z</time></trkpt><trkpt lat="32.72550200719025" lon="-7.737483131992063"><ele>342.5</ele><time>2026-04-23T10:35:45Z</time></trkpt><trkpt lat="32.72520582947073" lon="-7.737465656852149"><ele>335.0</ele><time>2026-04-23T10:35:46Z</time></trkpt><trkpt lat="32.724904808681956" lon="-7.737453724049061"><ele>335.0</ele><time>2026-04-23T10:35:47Z</time></trkpt><trkpt lat="32.72460315717617" lon="-7.737445244644609"><ele>335.0</ele><time>2026-04-23T10:35:48Z</time></trkpt><trkpt lat="32.724311926097776" lon="-7.737450425679153"><ele>329.5</ele><time>2026-04-23T10:35:49Z</time></trkpt><trkpt lat="32.724011592025626" lon="-7.737447150629297"><ele>324.0</ele><time>2026-04-23T10:35:50Z</time></trkpt><trkpt lat="32.723710815277926" lon="-7.737455664399381"><ele>320.5</ele><time>2026-04-23T10:35:51Z</time></trkpt><trkpt lat="32.72341055491087" lon="-7.737469403442541"><ele>317.0</ele><time>2026-04-23T10:35:52Z</time></trkpt><trkpt lat="32.72311322713497" lon="-7.737483298171119"><ele>317.0</ele><time>2026-04-23T10:35:53Z</time></trkpt><trkpt lat="32.72281673125407" lon="-7.737506272149466"><ele>317.0</ele><time>2026-04-23T10:35:54Z</time></trkpt><trkpt lat="32.72251959942712" lon="-7.737532256615779"><ele>315.0</ele><time>2026-04-23T10:35:55Z</time></trkpt><trkpt lat="32.72222206304615" lon="-7.7375566493798935"><ele>313.0</ele><time>2026-04-23T10:35:56Z</time></trkpt><trkpt lat="32.72192185454611" lon="-7.737594200271688"><ele>311.5</ele><time>2026-04-23T10:35:57Z</time></trkpt><trkpt lat="32.721625128045524" lon="-7.737627565128534"><ele>310.0</ele><time>2026-04-23T10:35:58Z</time></trkpt><trkpt lat="32.721326777442535" lon="-7.7376683102467965"><ele>309.5</ele><time>2026-04-23T10:35:59Z</time></trkpt><trkpt lat="32.721027549194325" lon="-7.737709380026464"><ele>309.0</ele><time>2026-04-23T10:36:00Z</time></trkpt><trkpt lat="32.72072937425333" lon="-7.737750601081097"><ele>309.0</ele><time>2026-04-23T10:36:01Z</time></trkpt><trkpt lat="32.72043201101706" lon="-7.7377942652041805"><ele>309.0</ele><time>2026-04-23T10:36:02Z</time></trkpt><trkpt lat="32.72013278654721" lon="-7.737837241276183"><ele>309.0</ele><time>2026-04-23T10:36:03Z</time></trkpt><trkpt lat="32.719836710859546" lon="-7.737876871570706"><ele>309.0</ele><time>2026-04-23T10:36:04Z</time></trkpt><trkpt lat="32.71953915958678" lon="-7.737916062851115"><ele>311.0</ele><time>2026-04-23T10:36:05Z</time></trkpt><trkpt lat="32.71924303617132" lon="-7.737957378509374"><ele>313.0</ele><time>2026-04-23T10:36:06Z</time></trkpt><trkpt lat="32.718947173266514" lon="-7.73799992808482"><ele>313.0</ele><time>2026-04-23T10:36:07Z</time></trkpt><trkpt lat="32.71864958727303" lon="-7.738043351207353"><ele>313.0</ele><time>2026-04-23T10:36:08Z</time></trkpt><trkpt lat="32.71835426821821" lon="-7.73808484077398"><ele>318.5</ele><time>2026-04-23T10:36:09Z</time></trkpt><trkpt lat="32.71806019997217" lon="-7.738124940232981"><ele>324.0</ele><time>2026-04-23T10:36:10Z</time></trkpt><trkpt lat="32.717763138605875" lon="-7.73817422864121"><ele>318.0</ele><time>2026-04-23T10:36:11Z</time></trkpt><trkpt lat="32.7174644334677" lon="-7.738216353690426"><ele>312.0</ele><time>2026-04-23T10:36:12Z</time></trkpt><trkpt lat="32.71716750778669" lon="-7.738249558746775"><ele>307.5</ele><time>2026-04-23T10:36:13Z</time></trkpt><trkpt lat="32.716871898774016" lon="-7.7382908540792945"><ele>303.0</ele><time>2026-04-23T10:36:14Z</time></trkpt><trkpt lat="32.716573619817986" lon="-7.738331250750843"><ele>303.0</ele><time>2026-04-23T10:36:15Z</time></trkpt><trkpt lat="32.71627417800107" lon="-7.73836818963133"><ele>303.0</ele><time>2026-04-23T10:36:16Z</time></trkpt><trkpt lat="32.715976522242144" lon="-7.738406831505698"><ele>300.0</ele><time>2026-04-23T10:36:17Z</time></trkpt><trkpt lat="32.71568263832752" lon="-7.7384482454064285"><ele>297.0</ele><time>2026-04-23T10:36:18Z</time></trkpt><trkpt lat="32.71538853285305" lon="-7.7384885414130915"><ele>296.0</ele><time>2026-04-23T10:36:19Z</time></trkpt><trkpt lat="32.71509223780924" lon="-7.738534193612719"><ele>295.0</ele><time>2026-04-23T10:36:20Z</time></trkpt><trkpt lat="32.714792843023076" lon="-7.738576204023731"><ele>295.0</ele><time>2026-04-23T10:36:21Z</time></trkpt><trkpt lat="32.71449442511524" lon="-7.738619026671279"><ele>295.0</ele><time>2026-04-23T10:36:22Z</time></trkpt><trkpt lat="32.71419922931761" lon="-7.738659994662932"><ele>293.0</ele><time>2026-04-23T10:36:23Z</time></trkpt><trkpt lat="32.71390240283765" lon="-7.738702192648312"><ele>291.0</ele><time>2026-04-23T10:36:24Z</time></trkpt><trkpt lat="32.713604751698256" lon="-7.7387448523532845"><ele>288.5</ele><time>2026-04-23T10:36:25Z</time></trkpt><trkpt lat="32.71330409691856" lon="-7.738786669475484"><ele>286.0</ele><time>2026-04-23T10:36:26Z</time></trkpt><trkpt lat="32.713008736314755" lon="-7.7388260909751025"><ele>285.5</ele><time>2026-04-23T10:36:27Z</time></trkpt><trkpt lat="32.71271443883504" lon="-7.738865226529466"><ele>285.0</ele><time>2026-04-23T10:36:28Z</time></trkpt><trkpt lat="32.71241983308345" lon="-7.738907260913078"><ele>285.0</ele><time>2026-04-23T10:36:29Z</time></trkpt><trkpt lat="32.71212543763022" lon="-7.738947267108701"><ele>285.0</ele><time>2026-04-23T10:36:30Z</time></trkpt><trkpt lat="32.71182988448686" lon="-7.738985766187575"><ele>284.0</ele><time>2026-04-23T10:36:31Z</time></trkpt><trkpt lat="32.71153479480864" lon="-7.739025447346508"><ele>283.0</ele><time>2026-04-23T10:36:31.999Z</time></trkpt><trkpt lat="32.7112393700885" lon="-7.739064625766049"><ele>282.5</ele><time>2026-04-23T10:36:32.999Z</time></trkpt><trkpt lat="32.710942636621155" lon="-7.739102797929824"><ele>282.0</ele><time>2026-04-23T10:36:33.999Z</time></trkpt><trkpt lat="32.71064913389857" lon="-7.739143747678905"><ele>282.0</ele><time>2026-04-23T10:36:34.999Z</time></trkpt><trkpt lat="32.71035072024254" lon="-7.739188358236968"><ele>282.0</ele><time>2026-04-23T10:36:35.999Z</time></trkpt><trkpt lat="32.710052916987955" lon="-7.739228733362671"><ele>281.5</ele><time>2026-04-23T10:36:36.999Z</time></trkpt><trkpt lat="32.709761195162066" lon="-7.73926829162218"><ele>281.0</ele><time>2026-04-23T10:36:37.999Z</time></trkpt><trkpt lat="32.70946493963913" lon="-7.739310078065082"><ele>279.0</ele><time>2026-04-23T10:36:38.999Z</time></trkpt><trkpt lat="32.70916790582594" lon="-7.739353208422683"><ele>277.0</ele><time>2026-04-23T10:36:39.999Z</time></trkpt><trkpt lat="32.70887194982362" lon="-7.73939289044024"><ele>276.5</ele><time>2026-04-23T10:36:40.999Z</time></trkpt><trkpt lat="32.70857363708301" lon="-7.739430801684947"><ele>276.0</ele><time>2026-04-23T10:36:41.999Z</time></trkpt><trkpt lat="32.70827926759259" lon="-7.739472026825403"><ele>276.0</ele><time>2026-04-23T10:36:42.999Z</time></trkpt><trkpt lat="32.70798404264001" lon="-7.739513224314902"><ele>276.0</ele><time>2026-04-23T10:36:43.999Z</time></trkpt><trkpt lat="32.70768797145906" lon="-7.739553002544112"><ele>276.0</ele><time>2026-04-23T10:36:44.999Z</time></trkpt><trkpt lat="32.70738919374901" lon="-7.739592098002627"><ele>276.0</ele><time>2026-04-23T10:36:46.001Z</time></trkpt><trkpt lat="32.707095457682954" lon="-7.739633959734573"><ele>276.5</ele><time>2026-04-23T10:36:47.001Z</time></trkpt><trkpt lat="32.70680024863042" lon="-7.7396752993511795"><ele>277.0</ele><time>2026-04-23T10:36:48.001Z</time></trkpt><trkpt lat="32.706502817363805" lon="-7.7397216141404295"><ele>277.0</ele><time>2026-04-23T10:36:49.001Z</time></trkpt><trkpt lat="32.70620548984985" lon="-7.739762470656694"><ele>277.0</ele><time>2026-04-23T10:36:50.001Z</time></trkpt><trkpt lat="32.70590932979503" lon="-7.739804805271201"><ele>276.5</ele><time>2026-04-23T10:36:51.001Z</time></trkpt><trkpt lat="32.70561343674936" lon="-7.739843766674854"><ele>276.0</ele><time>2026-04-23T10:36:52.001Z</time></trkpt><trkpt lat="32.705313167534165" lon="-7.739884735975028"><ele>276.5</ele><time>2026-04-23T10:36:53.001Z</time></trkpt><trkpt lat="32.705019213911065" lon="-7.739927736568174"><ele>277.0</ele><time>2026-04-23T10:36:54.001Z</time></trkpt><trkpt lat="32.70471966701231" lon="-7.7399688748897475"><ele>277.0</ele><time>2026-04-23T10:36:55.001Z</time></trkpt><trkpt lat="32.704423149104095" lon="-7.740004431786485"><ele>277.0</ele><time>2026-04-23T10:36:56.001Z</time></trkpt><trkpt lat="32.704124681605016" lon="-7.740044040700855"><ele>275.5</ele><time>2026-04-23T10:36:57.001Z</time></trkpt><trkpt lat="32.70382621304531" lon="-7.740087422172706"><ele>274.0</ele><time>2026-04-23T10:36:58.001Z</time></trkpt><trkpt lat="32.70353232232131" lon="-7.740128767359768"><ele>274.0</ele><time>2026-04-23T10:36:59.001Z</time></trkpt><trkpt lat="32.7032319450193" lon="-7.740168755320464"><ele>274.0</ele><time>2026-04-23T10:37:00.001Z</time></trkpt><trkpt lat="32.70294024029179" lon="-7.740211976641585"><ele>273.5</ele><time>2026-04-23T10:37:01.001Z</time></trkpt><trkpt lat="32.70264211488984" lon="-7.740256870474742"><ele>273.0</ele><time>2026-04-23T10:37:02.001Z</time></trkpt><trkpt lat="32.70234538775653" lon="-7.740294800472338"><ele>273.0</ele><time>2026-04-23T10:37:03.001Z</time></trkpt><trkpt lat="32.70204249591623" lon="-7.740335589021964"><ele>273.0</ele><time>2026-04-23T10:37:04Z</time></trkpt><trkpt lat="32.701745314313406" lon="-7.740377866166549"><ele>271.5</ele><time>2026-04-23T10:37:05Z</time></trkpt><trkpt lat="32.70145056073542" lon="-7.740421527435441"><ele>270.0</ele><time>2026-04-23T10:37:06Z</time></trkpt><trkpt lat="32.70115418935771" lon="-7.740452416209331"><ele>267.5</ele><time>2026-04-23T10:37:07Z</time></trkpt><trkpt lat="32.70085306482258" lon="-7.740492492085181"><ele>265.0</ele><time>2026-04-23T10:37:08Z</time></trkpt><trkpt lat="32.7005523057077" lon="-7.740531023066267"><ele>265.0</ele><time>2026-04-23T10:37:09Z</time></trkpt><trkpt lat="32.70025939373677" lon="-7.7405740596943815"><ele>265.0</ele><time>2026-04-23T10:37:10Z</time></trkpt><trkpt lat="32.699964339405426" lon="-7.740612400279606"><ele>263.0</ele><time>2026-04-23T10:37:11Z</time></trkpt><trkpt lat="32.69966598919584" lon="-7.7406539939384285"><ele>261.0</ele><time>2026-04-23T10:37:12Z</time></trkpt><trkpt lat="32.699371710483895" lon="-7.740697402652235"><ele>260.0</ele><time>2026-04-23T10:37:13Z</time></trkpt><trkpt lat="32.699074534965675" lon="-7.740735106222111"><ele>259.0</ele><time>2026-04-23T10:37:14Z</time></trkpt><trkpt lat="32.69877633187313" lon="-7.7407753507208374"><ele>257.5</ele><time>2026-04-23T10:37:15Z</time></trkpt><trkpt lat="32.698481187049914" lon="-7.74081691732634"><ele>256.0</ele><time>2026-04-23T10:37:16Z</time></trkpt><trkpt lat="32.69818395258953" lon="-7.740860894650746"><ele>256.0</ele><time>2026-04-23T10:37:17Z</time></trkpt><trkpt lat="32.697892820835264" lon="-7.7409070562584485"><ele>256.0</ele><time>2026-04-23T10:37:18Z</time></trkpt><trkpt lat="32.697599132699466" lon="-7.740952907924036"><ele>256.0</ele><time>2026-04-23T10:37:19Z</time></trkpt><trkpt lat="32.69730414005192" lon="-7.741001311252393"><ele>256.0</ele><time>2026-04-23T10:37:20Z</time></trkpt><trkpt lat="32.697007754814095" lon="-7.74105241999255"><ele>253.0</ele><time>2026-04-23T10:37:21Z</time></trkpt><trkpt lat="32.696709767183904" lon="-7.741108513475486"><ele>250.0</ele><time>2026-04-23T10:37:22Z</time></trkpt><trkpt lat="32.6964116080632" lon="-7.741162280114667"><ele>250.0</ele><time>2026-04-23T10:37:23Z</time></trkpt><trkpt lat="32.696120048108796" lon="-7.741223108202245"><ele>250.0</ele><time>2026-04-23T10:37:24Z</time></trkpt><trkpt lat="32.69582716741946" lon="-7.741283956185683"><ele>249.5</ele><time>2026-04-23T10:37:25Z</time></trkpt><trkpt lat="32.695537842865754" lon="-7.741351185098656"><ele>249.0</ele><time>2026-04-23T10:37:26Z</time></trkpt><trkpt lat="32.695246878845715" lon="-7.741416950793633"><ele>249.0</ele><time>2026-04-23T10:37:27Z</time></trkpt><trkpt lat="32.69495510283736" lon="-7.741493102263463"><ele>249.0</ele><time>2026-04-23T10:37:28Z</time></trkpt><trkpt lat="32.69466737070389" lon="-7.741565962314333"><ele>251.0</ele><time>2026-04-23T10:37:29Z</time></trkpt><trkpt lat="32.694372627294335" lon="-7.741641315265212"><ele>253.0</ele><time>2026-04-23T10:37:30Z</time></trkpt><trkpt lat="32.69408180683064" lon="-7.741722235141069"><ele>253.0</ele><time>2026-04-23T10:37:31Z</time></trkpt><trkpt lat="32.69379292680598" lon="-7.74181049579093"><ele>253.0</ele><time>2026-04-23T10:37:32Z</time></trkpt><trkpt lat="32.69350416589875" lon="-7.741898569885478"><ele>250.5</ele><time>2026-04-23T10:37:33Z</time></trkpt><trkpt lat="32.693216766720994" lon="-7.741985487313137"><ele>248.0</ele><time>2026-04-23T10:37:34Z</time></trkpt><trkpt lat="32.69293277886769" lon="-7.742080970168024"><ele>248.0</ele><time>2026-04-23T10:37:35Z</time></trkpt><trkpt lat="32.69264539716171" lon="-7.742174260682698"><ele>248.0</ele><time>2026-04-23T10:37:36Z</time></trkpt><trkpt lat="32.69235867997943" lon="-7.742272576648963"><ele>248.0</ele><time>2026-04-23T10:37:37Z</time></trkpt><trkpt lat="32.69207343330733" lon="-7.742368477963242"><ele>248.0</ele><time>2026-04-23T10:37:38Z</time></trkpt><trkpt lat="32.691792376543965" lon="-7.742470711979358"><ele>247.5</ele><time>2026-04-23T10:37:39Z</time></trkpt><trkpt lat="32.6915111314197" lon="-7.742579734336744"><ele>247.0</ele><time>2026-04-23T10:37:40Z</time></trkpt><trkpt lat="32.691232841781684" lon="-7.742696800979742"><ele>244.0</ele><time>2026-04-23T10:37:41Z</time></trkpt><trkpt lat="32.690953462583366" lon="-7.742811493207013"><ele>241.0</ele><time>2026-04-23T10:37:42Z</time></trkpt><trkpt lat="32.690672625213665" lon="-7.742930067716055"><ele>241.0</ele><time>2026-04-23T10:37:43Z</time></trkpt><trkpt lat="32.69038976149241" lon="-7.743051325619932"><ele>241.0</ele><time>2026-04-23T10:37:44Z</time></trkpt><trkpt lat="32.69010677968721" lon="-7.743175628453038"><ele>239.5</ele><time>2026-04-23T10:37:45Z</time></trkpt><trkpt lat="32.68982713459587" lon="-7.743300701425803"><ele>238.0</ele><time>2026-04-23T10:37:46Z</time></trkpt><trkpt lat="32.68954721736858" lon="-7.743428695759556"><ele>237.5</ele><time>2026-04-23T10:37:47Z</time></trkpt><trkpt lat="32.68926829999374" lon="-7.74355828644948"><ele>237.0</ele><time>2026-04-23T10:37:48Z</time></trkpt><trkpt lat="32.688990823204" lon="-7.743690715253471"><ele>237.0</ele><time>2026-04-23T10:37:49Z</time></trkpt><trkpt lat="32.68871371647674" lon="-7.743824915572086"><ele>237.0</ele><time>2026-04-23T10:37:50Z</time></trkpt><trkpt lat="32.68843713423986" lon="-7.743963861069493"><ele>237.5</ele><time>2026-04-23T10:37:51Z</time></trkpt><trkpt lat="32.68816577178124" lon="-7.744102526774931"><ele>238.0</ele><time>2026-04-23T10:37:52Z</time></trkpt><trkpt lat="32.68789212278144" lon="-7.744246326495258"><ele>237.0</ele><time>2026-04-23T10:37:53Z</time></trkpt><trkpt lat="32.68761886617259" lon="-7.744390481260551"><ele>236.0</ele><time>2026-04-23T10:37:54Z</time></trkpt><trkpt lat="32.68734365886978" lon="-7.744536990866015"><ele>236.0</ele><time>2026-04-23T10:37:55Z</time></trkpt><trkpt lat="32.687073428937595" lon="-7.744686140761082"><ele>236.0</ele><time>2026-04-23T10:37:56Z</time></trkpt><trkpt lat="32.68680432118854" lon="-7.7448389659984525"><ele>237.5</ele><time>2026-04-23T10:37:57Z</time></trkpt><trkpt lat="32.68653883527186" lon="-7.744992395479516"><ele>239.0</ele><time>2026-04-23T10:37:58Z</time></trkpt><trkpt lat="32.686269512618885" lon="-7.745154322095927"><ele>238.0</ele><time>2026-04-23T10:37:59Z</time></trkpt><trkpt lat="32.686003136961304" lon="-7.74530864284408"><ele>237.0</ele><time>2026-04-23T10:38:00Z</time></trkpt><trkpt lat="32.68574194200272" lon="-7.74545938023826"><ele>237.0</ele><time>2026-04-23T10:38:01Z</time></trkpt><trkpt lat="32.68547472841628" lon="-7.745613848010204"><ele>237.0</ele><time>2026-04-23T10:38:02Z</time></trkpt><trkpt lat="32.68520635009015" lon="-7.745769458034403"><ele>236.5</ele><time>2026-04-23T10:38:03Z</time></trkpt><trkpt lat="32.68493680330865" lon="-7.745926148811484"><ele>236.0</ele><time>2026-04-23T10:38:04Z</time></trkpt><trkpt lat="32.68467057080821" lon="-7.746076373032124"><ele>237.0</ele><time>2026-04-23T10:38:05Z</time></trkpt><trkpt lat="32.684401522157366" lon="-7.746226410986998"><ele>238.0</ele><time>2026-04-23T10:38:06Z</time></trkpt><trkpt lat="32.684135832608014" lon="-7.74637772820781"><ele>238.0</ele><time>2026-04-23T10:38:07Z</time></trkpt><trkpt lat="32.683869110566604" lon="-7.746532263162963"><ele>238.0</ele><time>2026-04-23T10:38:08Z</time></trkpt><trkpt lat="32.68359983271651" lon="-7.746692315912956"><ele>240.0</ele><time>2026-04-23T10:38:09Z</time></trkpt><trkpt lat="32.683332522215295" lon="-7.746855346578271"><ele>242.0</ele><time>2026-04-23T10:38:10Z</time></trkpt><trkpt lat="32.68306637074054" lon="-7.7470063870082155"><ele>241.0</ele><time>2026-04-23T10:38:11Z</time></trkpt><trkpt lat="32.68280063293684" lon="-7.747165126802936"><ele>240.0</ele><time>2026-04-23T10:38:12Z</time></trkpt><trkpt lat="32.682529723959505" lon="-7.747319563147143"><ele>240.0</ele><time>2026-04-23T10:38:13Z</time></trkpt><trkpt lat="32.68226108721242" lon="-7.747475888061292"><ele>240.0</ele><time>2026-04-23T10:38:14Z</time></trkpt><trkpt lat="32.68199725403628" lon="-7.747635300264041"><ele>238.5</ele><time>2026-04-23T10:38:15Z</time></trkpt><trkpt lat="32.68173393074173" lon="-7.747795213910029"><ele>237.0</ele><time>2026-04-23T10:38:16Z</time></trkpt><trkpt lat="32.68146851618113" lon="-7.747959554806419"><ele>237.0</ele><time>2026-04-23T10:38:17Z</time></trkpt><trkpt lat="32.68119974095068" lon="-7.748115113996191"><ele>237.0</ele><time>2026-04-23T10:38:18Z</time></trkpt><trkpt lat="32.6809319718403" lon="-7.748273100425302"><ele>235.0</ele><time>2026-04-23T10:38:19Z</time></trkpt><trkpt lat="32.68066444638074" lon="-7.748434254274106"><ele>233.0</ele><time>2026-04-23T10:38:19.999Z</time></trkpt><trkpt lat="32.68039596811422" lon="-7.748590783887187"><ele>235.0</ele><time>2026-04-23T10:38:20.999Z</time></trkpt><trkpt lat="32.68013037443085" lon="-7.748745989145308"><ele>237.0</ele><time>2026-04-23T10:38:21.999Z</time></trkpt><trkpt lat="32.679867709457234" lon="-7.748896559939889"><ele>237.0</ele><time>2026-04-23T10:38:22.999Z</time></trkpt><trkpt lat="32.67960251501987" lon="-7.749055290707146"><ele>237.0</ele><time>2026-04-23T10:38:23.999Z</time></trkpt><trkpt lat="32.67933415334141" lon="-7.749212892846835"><ele>238.0</ele><time>2026-04-23T10:38:24.999Z</time></trkpt><trkpt lat="32.67906669617604" lon="-7.749365290480261"><ele>239.0</ele><time>2026-04-23T10:38:25.999Z</time></trkpt><trkpt lat="32.67879441827405" lon="-7.749519234537352"><ele>236.0</ele><time>2026-04-23T10:38:26.999Z</time></trkpt><trkpt lat="32.678523587512544" lon="-7.749673631071296"><ele>233.0</ele><time>2026-04-23T10:38:27.999Z</time></trkpt><trkpt lat="32.67825110231213" lon="-7.749831172505708"><ele>233.0</ele><time>2026-04-23T10:38:28.999Z</time></trkpt><trkpt lat="32.67797599725494" lon="-7.749987939096758"><ele>233.0</ele><time>2026-04-23T10:38:29.999Z</time></trkpt><trkpt lat="32.67770997193112" lon="-7.750139380638565"><ele>230.0</ele><time>2026-04-23T10:38:30.999Z</time></trkpt><trkpt lat="32.67744379573434" lon="-7.750289617041293"><ele>227.0</ele><time>2026-04-23T10:38:31.999Z</time></trkpt><trkpt lat="32.67717370115996" lon="-7.750442131594072"><ele>226.0</ele><time>2026-04-23T10:38:32.999Z</time></trkpt><trkpt lat="32.67690299372361" lon="-7.750596486977722"><ele>225.0</ele><time>2026-04-23T10:38:33.999Z</time></trkpt><trkpt lat="32.67663964719788" lon="-7.7507530444815"><ele>225.0</ele><time>2026-04-23T10:38:34.999Z</time></trkpt><trkpt lat="32.67637509404323" lon="-7.750904662417705"><ele>225.0</ele><time>2026-04-23T10:38:35.999Z</time></trkpt><trkpt lat="32.67610070433182" lon="-7.751061401488447"><ele>224.5</ele><time>2026-04-23T10:38:36.999Z</time></trkpt><trkpt lat="32.67582476857652" lon="-7.751208768400866"><ele>224.0</ele><time>2026-04-23T10:38:37.999Z</time></trkpt><trkpt lat="32.67555241844507" lon="-7.751356866028008"><ele>224.0</ele><time>2026-04-23T10:38:38.999Z</time></trkpt><trkpt lat="32.67528324525799" lon="-7.751503539500919"><ele>224.0</ele><time>2026-04-23T10:38:39.999Z</time></trkpt><trkpt lat="32.67501035530331" lon="-7.751651738703287"><ele>224.0</ele><time>2026-04-23T10:38:40.999Z</time></trkpt><trkpt lat="32.67474026411597" lon="-7.751801709715876"><ele>224.0</ele><time>2026-04-23T10:38:41.999Z</time></trkpt><trkpt lat="32.67447089901423" lon="-7.751951701432421"><ele>223.0</ele><time>2026-04-23T10:38:42.999Z</time></trkpt><trkpt lat="32.67419747653563" lon="-7.7521054918989085"><ele>222.0</ele><time>2026-04-23T10:38:43.999Z</time></trkpt><trkpt lat="32.673925240498306" lon="-7.752258477869078"><ele>222.0</ele><time>2026-04-23T10:38:44.999Z</time></trkpt><trkpt lat="32.67364947468983" lon="-7.752412672210881"><ele>222.0</ele><time>2026-04-23T10:38:45.999Z</time></trkpt><trkpt lat="32.67338237724311" lon="-7.75256995142825"><ele>221.0</ele><time>2026-04-23T10:38:46.999Z</time></trkpt><trkpt lat="32.67311217930204" lon="-7.752727741354427"><ele>220.0</ele><time>2026-04-23T10:38:47.999Z</time></trkpt><trkpt lat="32.67284494133366" lon="-7.752888857760281"><ele>223.5</ele><time>2026-04-23T10:38:48.999Z</time></trkpt><trkpt lat="32.67258155174149" lon="-7.753045388277147"><ele>227.0</ele><time>2026-04-23T10:38:49.999Z</time></trkpt><trkpt lat="32.67231896641163" lon="-7.7532089251757474"><ele>227.0</ele><time>2026-04-23T10:38:51.001Z</time></trkpt><trkpt lat="32.67205741437394" lon="-7.753371172598836"><ele>227.0</ele><time>2026-04-23T10:38:52.001Z</time></trkpt><trkpt lat="32.67178950507135" lon="-7.753533275766816"><ele>226.5</ele><time>2026-04-23T10:38:53.001Z</time></trkpt><trkpt lat="32.671526817046015" lon="-7.753705023654511"><ele>226.0</ele><time>2026-04-23T10:38:54.001Z</time></trkpt><trkpt lat="32.67126542274158" lon="-7.753876722340832"><ele>226.5</ele><time>2026-04-23T10:38:55.001Z</time></trkpt><trkpt lat="32.67100529830749" lon="-7.754048867116106"><ele>227.0</ele><time>2026-04-23T10:38:56.001Z</time></trkpt><trkpt lat="32.670748389752355" lon="-7.754226627955105"><ele>225.5</ele><time>2026-04-23T10:38:57.001Z</time></trkpt><trkpt lat="32.670493894777636" lon="-7.754409465482879"><ele>224.0</ele><time>2026-04-23T10:38:58.001Z</time></trkpt><trkpt lat="32.67024422386068" lon="-7.754588828088653"><ele>223.0</ele><time>2026-04-23T10:38:59Z</time></trkpt><trkpt lat="32.669994139681" lon="-7.754776979742602"><ele>222.0</ele><time>2026-04-23T10:39:00Z</time></trkpt><trkpt lat="32.66974513211837" lon="-7.754965506987529"><ele>222.0</ele><time>2026-04-23T10:39:01Z</time></trkpt><trkpt lat="32.669499778559725" lon="-7.755164237326776"><ele>222.0</ele><time>2026-04-23T10:39:02Z</time></trkpt><trkpt lat="32.66925799662334" lon="-7.7553657450122655"><ele>222.0</ele><time>2026-04-23T10:39:03Z</time></trkpt><trkpt lat="32.6690229997824" lon="-7.755573496207951"><ele>222.0</ele><time>2026-04-23T10:39:04Z</time></trkpt><trkpt lat="32.66878485060571" lon="-7.755788326673987"><ele>221.0</ele><time>2026-04-23T10:39:05Z</time></trkpt><trkpt lat="32.668548726708636" lon="-7.756008616164952"><ele>220.0</ele><time>2026-04-23T10:39:06Z</time></trkpt><trkpt lat="32.668309354821744" lon="-7.756229349361205"><ele>219.5</ele><time>2026-04-23T10:39:07Z</time></trkpt><trkpt lat="32.66807577956004" lon="-7.756449350848745"><ele>219.0</ele><time>2026-04-23T10:39:08Z</time></trkpt><trkpt lat="32.667837199778404" lon="-7.756667175180583"><ele>217.5</ele><time>2026-04-23T10:39:09Z</time></trkpt><trkpt lat="32.667603626978185" lon="-7.756889434657858"><ele>216.0</ele><time>2026-04-23T10:39:10Z</time></trkpt><trkpt lat="32.66737051074785" lon="-7.757114241950136"><ele>216.0</ele><time>2026-04-23T10:39:11Z</time></trkpt><trkpt lat="32.6671362751023" lon="-7.757340342654564"><ele>216.0</ele><time>2026-04-23T10:39:12Z</time></trkpt><trkpt lat="32.66690239900959" lon="-7.757562892825381"><ele>216.0</ele><time>2026-04-23T10:39:13Z</time></trkpt><trkpt lat="32.666671021178935" lon="-7.757786015664483"><ele>216.0</ele><time>2026-04-23T10:39:14Z</time></trkpt><trkpt lat="32.66643584477413" lon="-7.758010710423197"><ele>216.0</ele><time>2026-04-23T10:39:15Z</time></trkpt><trkpt lat="32.6662034906407" lon="-7.758233669015553"><ele>216.0</ele><time>2026-04-23T10:39:16Z</time></trkpt><trkpt lat="32.665970513258735" lon="-7.758455375141274"><ele>216.0</ele><time>2026-04-23T10:39:17Z</time></trkpt><trkpt lat="32.66573726360693" lon="-7.758677034271576"><ele>216.0</ele><time>2026-04-23T10:39:18Z</time></trkpt><trkpt lat="32.66551147101683" lon="-7.758902578092698"><ele>216.0</ele><time>2026-04-23T10:39:19Z</time></trkpt><trkpt lat="32.6652817684134" lon="-7.759125928984957"><ele>216.0</ele><time>2026-04-23T10:39:20Z</time></trkpt><trkpt lat="32.66505022888842" lon="-7.759349850739141"><ele>217.0</ele><time>2026-04-23T10:39:21Z</time></trkpt><trkpt lat="32.66482303626897" lon="-7.7595749702929995"><ele>218.0</ele><time>2026-04-23T10:39:22Z</time></trkpt><trkpt lat="32.664596371404926" lon="-7.75979545847987"><ele>218.5</ele><time>2026-04-23T10:39:23Z</time></trkpt><trkpt lat="32.66437289144212" lon="-7.760015320183082"><ele>219.0</ele><time>2026-04-23T10:39:24Z</time></trkpt><trkpt lat="32.66414308835981" lon="-7.760238076338604"><ele>217.0</ele><time>2026-04-23T10:39:25Z</time></trkpt><trkpt lat="32.663908873232465" lon="-7.760463054955701"><ele>215.0</ele><time>2026-04-23T10:39:26Z</time></trkpt><trkpt lat="32.66368201298422" lon="-7.760687405039354"><ele>215.5</ele><time>2026-04-23T10:39:27Z</time></trkpt><trkpt lat="32.66345117648932" lon="-7.760908131170477"><ele>216.0</ele><time>2026-04-23T10:39:28Z</time></trkpt><trkpt lat="32.66322015453658" lon="-7.761130888495325"><ele>217.0</ele><time>2026-04-23T10:39:29Z</time></trkpt><trkpt lat="32.66299052516857" lon="-7.761353495454236"><ele>218.0</ele><time>2026-04-23T10:39:30Z</time></trkpt><trkpt lat="32.66276534743253" lon="-7.761576575242914"><ele>218.5</ele><time>2026-04-23T10:39:31Z</time></trkpt><trkpt lat="32.66253877429566" lon="-7.761800440285321"><ele>219.0</ele><time>2026-04-23T10:39:32Z</time></trkpt><trkpt lat="32.662311059617686" lon="-7.762024157220949"><ele>219.5</ele><time>2026-04-23T10:39:33Z</time></trkpt><trkpt lat="32.662081796292185" lon="-7.762247729269431"><ele>220.0</ele><time>2026-04-23T10:39:34Z</time></trkpt><trkpt lat="32.661854585239894" lon="-7.76247479734206"><ele>219.0</ele><time>2026-04-23T10:39:35Z</time></trkpt><trkpt lat="32.66163095823639" lon="-7.762700273606829"><ele>218.0</ele><time>2026-04-23T10:39:36Z</time></trkpt><trkpt lat="32.66139915738085" lon="-7.762926700560845"><ele>218.0</ele><time>2026-04-23T10:39:37Z</time></trkpt><trkpt lat="32.66116899546928" lon="-7.76315492138534"><ele>218.0</ele><time>2026-04-23T10:39:38Z</time></trkpt><trkpt lat="32.660938477005786" lon="-7.763379512344717"><ele>217.5</ele><time>2026-04-23T10:39:39Z</time></trkpt><trkpt lat="32.66070737745726" lon="-7.763605695321825"><ele>217.0</ele><time>2026-04-23T10:39:40Z</time></trkpt><trkpt lat="32.66047885767629" lon="-7.763830928801766"><ele>217.0</ele><time>2026-04-23T10:39:41Z</time></trkpt><trkpt lat="32.66024968025608" lon="-7.764056639187226"><ele>217.0</ele><time>2026-04-23T10:39:42Z</time></trkpt><trkpt lat="32.66001941603712" lon="-7.764280190208589"><ele>216.5</ele><time>2026-04-23T10:39:43Z</time></trkpt><trkpt lat="32.65978929029104" lon="-7.764502782753693"><ele>216.0</ele><time>2026-04-23T10:39:44Z</time></trkpt><trkpt lat="32.659559332366584" lon="-7.764725743017124"><ele>216.0</ele><time>2026-04-23T10:39:45Z</time></trkpt><trkpt lat="32.65932512989038" lon="-7.764951043321659"><ele>216.0</ele><time>2026-04-23T10:39:46Z</time></trkpt><trkpt lat="32.65909225662079" lon="-7.765173647086984"><ele>215.5</ele><time>2026-04-23T10:39:47Z</time></trkpt><trkpt lat="32.65886267902895" lon="-7.76539718675968"><ele>215.0</ele><time>2026-04-23T10:39:48Z</time></trkpt><trkpt lat="32.65862984168541" lon="-7.765623293567933"><ele>217.0</ele><time>2026-04-23T10:39:49Z</time></trkpt><trkpt lat="32.65840124550403" lon="-7.7658428010235685"><ele>219.0</ele><time>2026-04-23T10:39:50Z</time></trkpt><trkpt lat="32.65816964014491" lon="-7.766066701973764"><ele>219.0</ele><time>2026-04-23T10:39:51Z</time></trkpt><trkpt lat="32.65793972252973" lon="-7.766292298827827"><ele>219.0</ele><time>2026-04-23T10:39:52Z</time></trkpt><trkpt lat="32.6577103723749" lon="-7.766516504869973"><ele>217.5</ele><time>2026-04-23T10:39:53Z</time></trkpt><trkpt lat="32.65747626936837" lon="-7.766742104448113"><ele>216.0</ele><time>2026-04-23T10:39:54Z</time></trkpt><trkpt lat="32.65724741556815" lon="-7.766966007854089"><ele>215.0</ele><time>2026-04-23T10:39:55Z</time></trkpt><trkpt lat="32.6570134475567" lon="-7.767192995819093"><ele>214.0</ele><time>2026-04-23T10:39:56Z</time></trkpt><trkpt lat="32.65678403899108" lon="-7.767416691689445"><ele>213.5</ele><time>2026-04-23T10:39:57Z</time></trkpt><trkpt lat="32.656552934263544" lon="-7.767638274108902"><ele>213.0</ele><time>2026-04-23T10:39:58Z</time></trkpt><trkpt lat="32.65632281481806" lon="-7.767861936675128"><ele>214.5</ele><time>2026-04-23T10:39:59Z</time></trkpt><trkpt lat="32.65609192624894" lon="-7.76808625898173"><ele>216.0</ele><time>2026-04-23T10:40:00Z</time></trkpt><trkpt lat="32.65586262442357" lon="-7.768306579347205"><ele>215.5</ele><time>2026-04-23T10:40:01Z</time></trkpt><trkpt lat="32.65564021569477" lon="-7.768526853300674"><ele>215.0</ele><time>2026-04-23T10:40:02Z</time></trkpt><trkpt lat="32.65542160255841" lon="-7.768755507939248"><ele>218.5</ele><time>2026-04-23T10:40:03Z</time></trkpt><trkpt lat="32.6551959512431" lon="-7.76898223046721"><ele>222.0</ele><time>2026-04-23T10:40:04Z</time></trkpt><trkpt lat="32.65497491073233" lon="-7.7692076504194585"><ele>221.0</ele><time>2026-04-23T10:40:05Z</time></trkpt><trkpt lat="32.65475236769795" lon="-7.76943446100398"><ele>220.0</ele><time>2026-04-23T10:40:06Z</time></trkpt><trkpt lat="32.65452900472998" lon="-7.769666063709117"><ele>223.0</ele><time>2026-04-23T10:40:07Z</time></trkpt><trkpt lat="32.65430901475606" lon="-7.769904849539998"><ele>226.0</ele><time>2026-04-23T10:40:07.999Z</time></trkpt><trkpt lat="32.65409729243529" lon="-7.770142469070942"><ele>222.0</ele><time>2026-04-23T10:40:08.999Z</time></trkpt><trkpt lat="32.653882669365444" lon="-7.770387122226545"><ele>218.0</ele><time>2026-04-23T10:40:09.999Z</time></trkpt><trkpt lat="32.653670283504724" lon="-7.770626642172951"><ele>219.0</ele><time>2026-04-23T10:40:10.999Z</time></trkpt><trkpt lat="32.65345811792395" lon="-7.770872315721045"><ele>220.0</ele><time>2026-04-23T10:40:11.999Z</time></trkpt><trkpt lat="32.653243647406754" lon="-7.771124765020457"><ele>220.0</ele><time>2026-04-23T10:40:12.999Z</time></trkpt><trkpt lat="32.65303400972643" lon="-7.771377414401021"><ele>220.0</ele><time>2026-04-23T10:40:13.999Z</time></trkpt><trkpt lat="32.65282641439382" lon="-7.771625730389744"><ele>220.0</ele><time>2026-04-23T10:40:14.999Z</time></trkpt><trkpt lat="32.65261858048493" lon="-7.77187526613076"><ele>220.0</ele><time>2026-04-23T10:40:15.999Z</time></trkpt><trkpt lat="32.652410066580494" lon="-7.772128933996842"><ele>220.0</ele><time>2026-04-23T10:40:16.999Z</time></trkpt><trkpt lat="32.65219918221105" lon="-7.772383074641456"><ele>220.0</ele><time>2026-04-23T10:40:17.999Z</time></trkpt><trkpt lat="32.651988525760565" lon="-7.77263604539405"><ele>219.0</ele><time>2026-04-23T10:40:18.999Z</time></trkpt><trkpt lat="32.65177572224324" lon="-7.7728885305417075"><ele>218.0</ele><time>2026-04-23T10:40:19.999Z</time></trkpt><trkpt lat="32.65156794572963" lon="-7.773136222448165"><ele>218.0</ele><time>2026-04-23T10:40:20.999Z</time></trkpt><trkpt lat="32.65135545374149" lon="-7.773391104975864"><ele>218.0</ele><time>2026-04-23T10:40:21.999Z</time></trkpt><trkpt lat="32.651144512604134" lon="-7.773647523331849"><ele>216.5</ele><time>2026-04-23T10:40:22.999Z</time></trkpt><trkpt lat="32.65093964952016" lon="-7.773896156098393"><ele>215.0</ele><time>2026-04-23T10:40:23.999Z</time></trkpt><trkpt lat="32.65073095365336" lon="-7.774147204565499"><ele>213.5</ele><time>2026-04-23T10:40:24.999Z</time></trkpt><trkpt lat="32.650522962530054" lon="-7.774404472539969"><ele>212.0</ele><time>2026-04-23T10:40:25.999Z</time></trkpt><trkpt lat="32.650316333376594" lon="-7.774649775827755"><ele>213.0</ele><time>2026-04-23T10:40:26.999Z</time></trkpt><trkpt lat="32.65011085085504" lon="-7.774898664749171"><ele>214.0</ele><time>2026-04-23T10:40:27.999Z</time></trkpt><trkpt lat="32.64990342650494" lon="-7.775148146599335"><ele>213.5</ele><time>2026-04-23T10:40:28.999Z</time></trkpt><trkpt lat="32.649696769413524" lon="-7.775397287609427"><ele>213.0</ele><time>2026-04-23T10:40:29.999Z</time></trkpt><trkpt lat="32.64948823306106" lon="-7.77564738347375"><ele>212.0</ele><time>2026-04-23T10:40:30.999Z</time></trkpt><trkpt lat="32.64927895585992" lon="-7.775894090370777"><ele>211.0</ele><time>2026-04-23T10:40:31.999Z</time></trkpt><trkpt lat="32.64907009412648" lon="-7.776141395083472"><ele>210.0</ele><time>2026-04-23T10:40:32.999Z</time></trkpt><trkpt lat="32.64886375378431" lon="-7.7763890970220935"><ele>209.0</ele><time>2026-04-23T10:40:33.999Z</time></trkpt><trkpt lat="32.64865772194354" lon="-7.7766376505769355"><ele>208.5</ele><time>2026-04-23T10:40:34.999Z</time></trkpt><trkpt lat="32.6484487827661" lon="-7.776885565366736"><ele>208.0</ele><time>2026-04-23T10:40:35.999Z</time></trkpt><trkpt lat="32.64823989379738" lon="-7.7771368437117925"><ele>208.0</ele><time>2026-04-23T10:40:36.999Z</time></trkpt><trkpt lat="32.648033632868284" lon="-7.777385039677097"><ele>208.0</ele><time>2026-04-23T10:40:37.999Z</time></trkpt><trkpt lat="32.64782410825307" lon="-7.7776372157155444"><ele>212.0</ele><time>2026-04-23T10:40:38.999Z</time></trkpt><trkpt lat="32.647615891486026" lon="-7.777887863388653"><ele>216.0</ele><time>2026-04-23T10:40:39.999Z</time></trkpt><trkpt lat="32.64740601466973" lon="-7.778137163231367"><ele>216.0</ele><time>2026-04-23T10:40:40.999Z</time></trkpt><trkpt lat="32.64719764124118" lon="-7.778387827526746"><ele>216.0</ele><time>2026-04-23T10:40:41.999Z</time></trkpt><trkpt lat="32.646987884408645" lon="-7.778639622654662"><ele>222.5</ele><time>2026-04-23T10:40:42.999Z</time></trkpt><trkpt lat="32.64677637283877" lon="-7.778893666228247"><ele>229.0</ele><time>2026-04-23T10:40:43.999Z</time></trkpt><trkpt lat="32.64656307019048" lon="-7.779145330811085"><ele>238.5</ele><time>2026-04-23T10:40:44.999Z</time></trkpt><trkpt lat="32.64635644178588" lon="-7.779397684784655"><ele>248.0</ele><time>2026-04-23T10:40:45.999Z</time></trkpt><trkpt lat="32.646144421379276" lon="-7.7796508032872"><ele>238.5</ele><time>2026-04-23T10:40:46.999Z</time></trkpt><trkpt lat="32.64594116389701" lon="-7.779901617433149"><ele>229.0</ele><time>2026-04-23T10:40:47.999Z</time></trkpt><trkpt lat="32.645730096510746" lon="-7.7801515952185705"><ele>232.0</ele><time>2026-04-23T10:40:48.999Z</time></trkpt><trkpt lat="32.645523145462256" lon="-7.780401812737391"><ele>235.0</ele><time>2026-04-23T10:40:49.999Z</time></trkpt><trkpt lat="32.6453156958275" lon="-7.780649508451551"><ele>225.5</ele><time>2026-04-23T10:40:50.999Z</time></trkpt><trkpt lat="32.64510977075404" lon="-7.780896255074521"><ele>216.0</ele><time>2026-04-23T10:40:51.999Z</time></trkpt><trkpt lat="32.644900842082535" lon="-7.781144538126011"><ele>216.0</ele><time>2026-04-23T10:40:52.999Z</time></trkpt><trkpt lat="32.64469269273977" lon="-7.781392873675917"><ele>216.0</ele><time>2026-04-23T10:40:53.999Z</time></trkpt><trkpt lat="32.64448177688602" lon="-7.781639722077531"><ele>209.5</ele><time>2026-04-23T10:40:54.999Z</time></trkpt><trkpt lat="32.644269629768445" lon="-7.781888781167941"><ele>203.0</ele><time>2026-04-23T10:40:55.999Z</time></trkpt><trkpt lat="32.64405935971153" lon="-7.782139154665431"><ele>203.0</ele><time>2026-04-23T10:40:57Z</time></trkpt><trkpt lat="32.64384926776985" lon="-7.78238627277489"><ele>203.0</ele><time>2026-04-23T10:40:58Z</time></trkpt><trkpt lat="32.643636093433116" lon="-7.7826358158646665"><ele>200.0</ele><time>2026-04-23T10:40:59Z</time></trkpt><trkpt lat="32.643428350906035" lon="-7.7828918459219905"><ele>197.0</ele><time>2026-04-23T10:41:00Z</time></trkpt><trkpt lat="32.643221236298444" lon="-7.783143484335712"><ele>197.0</ele><time>2026-04-23T10:41:01Z</time></trkpt><trkpt lat="32.6430135342832" lon="-7.783394722629048"><ele>197.0</ele><time>2026-04-23T10:41:02Z</time></trkpt><trkpt lat="32.642807791298324" lon="-7.783640451612401"><ele>196.0</ele><time>2026-04-23T10:41:03Z</time></trkpt><trkpt lat="32.64260170476669" lon="-7.783887638115265"><ele>195.0</ele><time>2026-04-23T10:41:04Z</time></trkpt><trkpt lat="32.64239919040868" lon="-7.784132460346737"><ele>195.5</ele><time>2026-04-23T10:41:05Z</time></trkpt><trkpt lat="32.64219704609219" lon="-7.784377317499539"><ele>196.0</ele><time>2026-04-23T10:41:06Z</time></trkpt><trkpt lat="32.64199259867317" lon="-7.784625217866935"><ele>196.5</ele><time>2026-04-23T10:41:07Z</time></trkpt><trkpt lat="32.64178711866231" lon="-7.784880022264435"><ele>197.0</ele><time>2026-04-23T10:41:08Z</time></trkpt><trkpt lat="32.641579210007016" lon="-7.785134910818219"><ele>195.5</ele><time>2026-04-23T10:41:09Z</time></trkpt><trkpt lat="32.641370766764794" lon="-7.785389183160913"><ele>194.0</ele><time>2026-04-23T10:41:10Z</time></trkpt><trkpt lat="32.64116490876048" lon="-7.785647290412802"><ele>195.0</ele><time>2026-04-23T10:41:11Z</time></trkpt><trkpt lat="32.64095896962383" lon="-7.785907608401272"><ele>196.0</ele><time>2026-04-23T10:41:12Z</time></trkpt><trkpt lat="32.64075601047051" lon="-7.786164876242544"><ele>196.0</ele><time>2026-04-23T10:41:13Z</time></trkpt><trkpt lat="32.64054723947723" lon="-7.78642171468756"><ele>196.0</ele><time>2026-04-23T10:41:14Z</time></trkpt><trkpt lat="32.64033892773198" lon="-7.786675479582795"><ele>196.0</ele><time>2026-04-23T10:41:15Z</time></trkpt><trkpt lat="32.640126859497734" lon="-7.786932645765866"><ele>196.0</ele><time>2026-04-23T10:41:16Z</time></trkpt><trkpt lat="32.63991950715622" lon="-7.787179549778779"><ele>196.0</ele><time>2026-04-23T10:41:17Z</time></trkpt><trkpt lat="32.63971097116069" lon="-7.787430681943348"><ele>196.0</ele><time>2026-04-23T10:41:18Z</time></trkpt><trkpt lat="32.639494524335724" lon="-7.78768257162771"><ele>195.5</ele><time>2026-04-23T10:41:19Z</time></trkpt><trkpt lat="32.63928104974041" lon="-7.787935820561592"><ele>195.0</ele><time>2026-04-23T10:41:20Z</time></trkpt><trkpt lat="32.63906789066488" lon="-7.788187819402157"><ele>195.0</ele><time>2026-04-23T10:41:21Z</time></trkpt><trkpt lat="32.63885645917036" lon="-7.788435109118938"><ele>195.0</ele><time>2026-04-23T10:41:22Z</time></trkpt><trkpt lat="32.638645803696406" lon="-7.788683056032449"><ele>194.5</ele><time>2026-04-23T10:41:23Z</time></trkpt><trkpt lat="32.63843388766952" lon="-7.788922260717208"><ele>194.0</ele><time>2026-04-23T10:41:24Z</time></trkpt><trkpt lat="32.63821797836398" lon="-7.789157781511621"><ele>194.5</ele><time>2026-04-23T10:41:25Z</time></trkpt><trkpt lat="32.638004857717405" lon="-7.789395376434477"><ele>195.0</ele><time>2026-04-23T10:41:26Z</time></trkpt><trkpt lat="32.63778501214574" lon="-7.78963442400205"><ele>197.5</ele><time>2026-04-23T10:41:27Z</time></trkpt><trkpt lat="32.6375637866619" lon="-7.789865500229094"><ele>200.0</ele><time>2026-04-23T10:41:28Z</time></trkpt><trkpt lat="32.63734104162029" lon="-7.790095029094823"><ele>201.0</ele><time>2026-04-23T10:41:29Z</time></trkpt><trkpt lat="32.63711897591608" lon="-7.790323846545332"><ele>202.0</ele><time>2026-04-23T10:41:30Z</time></trkpt><trkpt lat="32.63689567302936" lon="-7.790550905946135"><ele>202.0</ele><time>2026-04-23T10:41:31Z</time></trkpt><trkpt lat="32.63666607811793" lon="-7.790777944191073"><ele>202.0</ele><time>2026-04-23T10:41:32Z</time></trkpt><trkpt lat="32.63643448802347" lon="-7.791000828824216"><ele>201.5</ele><time>2026-04-23T10:41:33Z</time></trkpt><trkpt lat="32.63620045932774" lon="-7.791219686619175"><ele>201.0</ele><time>2026-04-23T10:41:34Z</time></trkpt><trkpt lat="32.635969125369655" lon="-7.7914361333999995"><ele>203.0</ele><time>2026-04-23T10:41:35Z</time></trkpt><trkpt lat="32.63573300817255" lon="-7.791648607686941"><ele>205.0</ele><time>2026-04-23T10:41:36Z</time></trkpt><trkpt lat="32.63549384566969" lon="-7.79185176334862"><ele>209.0</ele><time>2026-04-23T10:41:37Z</time></trkpt><trkpt lat="32.63525211302925" lon="-7.792050427251348"><ele>213.0</ele><time>2026-04-23T10:41:38Z</time></trkpt><trkpt lat="32.63500521415789" lon="-7.792251876794391"><ele>213.0</ele><time>2026-04-23T10:41:39Z</time></trkpt><trkpt lat="32.634757456123786" lon="-7.792450334752135"><ele>213.0</ele><time>2026-04-23T10:41:40Z</time></trkpt><trkpt lat="32.63450861855904" lon="-7.792651202944473"><ele>218.5</ele><time>2026-04-23T10:41:41Z</time></trkpt><trkpt lat="32.634259697843746" lon="-7.792837571717468"><ele>224.0</ele><time>2026-04-23T10:41:42Z</time></trkpt><trkpt lat="32.634007244802554" lon="-7.793028508522258"><ele>224.0</ele><time>2026-04-23T10:41:43Z</time></trkpt><trkpt lat="32.63375414911959" lon="-7.793213060739606"><ele>224.0</ele><time>2026-04-23T10:41:44Z</time></trkpt><trkpt lat="32.63349984442138" lon="-7.793393003863242"><ele>227.0</ele><time>2026-04-23T10:41:45Z</time></trkpt><trkpt lat="32.63324524450824" lon="-7.7935676105654155"><ele>230.0</ele><time>2026-04-23T10:41:46Z</time></trkpt><trkpt lat="32.63298439888565" lon="-7.793744218574248"><ele>228.5</ele><time>2026-04-23T10:41:47Z</time></trkpt><trkpt lat="32.632721168839645" lon="-7.793921736424731"><ele>227.0</ele><time>2026-04-23T10:41:48Z</time></trkpt><trkpt lat="32.63245929804347" lon="-7.794087126872757"><ele>227.0</ele><time>2026-04-23T10:41:49Z</time></trkpt><trkpt lat="32.63220216306702" lon="-7.794248652814128"><ele>227.0</ele><time>2026-04-23T10:41:50Z</time></trkpt><trkpt lat="32.631933603964114" lon="-7.794410161688665"><ele>227.0</ele><time>2026-04-23T10:41:51Z</time></trkpt><trkpt lat="32.631666407152956" lon="-7.794565032302945"><ele>227.0</ele><time>2026-04-23T10:41:52Z</time></trkpt><trkpt lat="32.63139840982348" lon="-7.794718967071656"><ele>226.0</ele><time>2026-04-23T10:41:53Z</time></trkpt><trkpt lat="32.63112996952597" lon="-7.794870296516758"><ele>225.0</ele><time>2026-04-23T10:41:54Z</time></trkpt><trkpt lat="32.630859477438506" lon="-7.795014516810855"><ele>225.0</ele><time>2026-04-23T10:41:55Z</time></trkpt><trkpt lat="32.63058822973773" lon="-7.795152117612224"><ele>225.0</ele><time>2026-04-23T10:41:56Z</time></trkpt><trkpt lat="32.630319049284466" lon="-7.795292041890757"><ele>222.0</ele><time>2026-04-23T10:41:57Z</time></trkpt><trkpt lat="32.63004187485878" lon="-7.7954282400251405"><ele>219.0</ele><time>2026-04-23T10:41:58Z</time></trkpt><trkpt lat="32.62976717932498" lon="-7.795557753114898"><ele>219.0</ele><time>2026-04-23T10:41:59Z</time></trkpt><trkpt lat="32.629487495544595" lon="-7.795688196062465"><ele>219.0</ele><time>2026-04-23T10:42:00Z</time></trkpt><trkpt lat="32.62921477523409" lon="-7.795813658466102"><ele>219.0</ele><time>2026-04-23T10:42:00.999Z</time></trkpt><trkpt lat="32.62893679865867" lon="-7.795933287421153"><ele>219.0</ele><time>2026-04-23T10:42:01.999Z</time></trkpt><trkpt lat="32.62866182593358" lon="-7.796049082814699"><ele>219.5</ele><time>2026-04-23T10:42:02.999Z</time></trkpt><trkpt lat="32.62837959813408" lon="-7.796168036151818"><ele>220.0</ele><time>2026-04-23T10:42:03.999Z</time></trkpt><trkpt lat="32.628099907861674" lon="-7.796286824073793"><ele>220.0</ele><time>2026-04-23T10:42:04.999Z</time></trkpt><trkpt lat="32.62782129981168" lon="-7.79640978650935"><ele>220.0</ele><time>2026-04-23T10:42:05.999Z</time></trkpt><trkpt lat="32.62754267530723" lon="-7.79654052174602"><ele>222.0</ele><time>2026-04-23T10:42:06.999Z</time></trkpt><trkpt lat="32.62726934702245" lon="-7.796672496327084"><ele>224.0</ele><time>2026-04-23T10:42:07.999Z</time></trkpt><trkpt lat="32.626994882106864" lon="-7.796809147951108"><ele>227.0</ele><time>2026-04-23T10:42:08.999Z</time></trkpt><trkpt lat="32.62672528728744" lon="-7.7969555748558435"><ele>230.0</ele><time>2026-04-23T10:42:09.999Z</time></trkpt><trkpt lat="32.62645384014235" lon="-7.797100517823016"><ele>230.0</ele><time>2026-04-23T10:42:10.999Z</time></trkpt><trkpt lat="32.62618824362749" lon="-7.797254547680903"><ele>230.0</ele><time>2026-04-23T10:42:11.999Z</time></trkpt><trkpt lat="32.625924176056266" lon="-7.797410736003617"><ele>232.0</ele><time>2026-04-23T10:42:12.999Z</time></trkpt><trkpt lat="32.625656868186205" lon="-7.7975690569470535"><ele>234.0</ele><time>2026-04-23T10:42:13.999Z</time></trkpt><trkpt lat="32.625394408064125" lon="-7.797719268500553"><ele>236.0</ele><time>2026-04-23T10:42:14.999Z</time></trkpt><trkpt lat="32.6251279506116" lon="-7.797882029074173"><ele>238.0</ele><time>2026-04-23T10:42:15.999Z</time></trkpt><trkpt lat="32.624865280439806" lon="-7.79804533855341"><ele>238.0</ele><time>2026-04-23T10:42:16.999Z</time></trkpt><trkpt lat="32.62460665478797" lon="-7.7982172248942705"><ele>238.0</ele><time>2026-04-23T10:42:17.999Z</time></trkpt><trkpt lat="32.6243495837796" lon="-7.798386912126761"><ele>239.5</ele><time>2026-04-23T10:42:18.999Z</time></trkpt><trkpt lat="32.6240932327318" lon="-7.79856310674428"><ele>241.0</ele><time>2026-04-23T10:42:19.999Z</time></trkpt><trkpt lat="32.62383423692276" lon="-7.798738943599483"><ele>245.5</ele><time>2026-04-23T10:42:20.999Z</time></trkpt><trkpt lat="32.62358159600025" lon="-7.7989197132873205"><ele>250.0</ele><time>2026-04-23T10:42:21.999Z</time></trkpt><trkpt lat="32.62332866796342" lon="-7.799105820560108"><ele>250.0</ele><time>2026-04-23T10:42:22.999Z</time></trkpt><trkpt lat="32.62307634928584" lon="-7.799296633113157"><ele>250.0</ele><time>2026-04-23T10:42:23.999Z</time></trkpt><trkpt lat="32.62282479740957" lon="-7.799487197510509"><ele>253.0</ele><time>2026-04-23T10:42:24.999Z</time></trkpt><trkpt lat="32.62257268483944" lon="-7.799682015214477"><ele>256.0</ele><time>2026-04-23T10:42:25.999Z</time></trkpt><trkpt lat="32.62232627176285" lon="-7.799873472309892"><ele>256.0</ele><time>2026-04-23T10:42:26.999Z</time></trkpt><trkpt lat="32.62208086489355" lon="-7.80008026610907"><ele>256.0</ele><time>2026-04-23T10:42:27.999Z</time></trkpt><trkpt lat="32.62183817352663" lon="-7.800285116182162"><ele>252.0</ele><time>2026-04-23T10:42:28.999Z</time></trkpt><trkpt lat="32.621597542739174" lon="-7.800492636669288"><ele>248.0</ele><time>2026-04-23T10:42:29.999Z</time></trkpt><trkpt lat="32.62135878250681" lon="-7.800699267048362"><ele>249.5</ele><time>2026-04-23T10:42:30.999Z</time></trkpt><trkpt lat="32.62112724991723" lon="-7.8009131318758955"><ele>251.0</ele><time>2026-04-23T10:42:31.999Z</time></trkpt><trkpt lat="32.62089302921263" lon="-7.801129569273322"><ele>254.5</ele><time>2026-04-23T10:42:32.999Z</time></trkpt><trkpt lat="32.62066180227604" lon="-7.801347955342485"><ele>258.0</ele><time>2026-04-23T10:42:33.999Z</time></trkpt><trkpt lat="32.62042849638929" lon="-7.801572456652612"><ele>259.5</ele><time>2026-04-23T10:42:34.999Z</time></trkpt><trkpt lat="32.62019719929474" lon="-7.801801354678367"><ele>261.0</ele><time>2026-04-23T10:42:35.999Z</time></trkpt><trkpt lat="32.619970873119726" lon="-7.802029160379587"><ele>261.0</ele><time>2026-04-23T10:42:36.999Z</time></trkpt><trkpt lat="32.61974574170056" lon="-7.802261586476322"><ele>261.0</ele><time>2026-04-23T10:42:37.999Z</time></trkpt><trkpt lat="32.619523223960904" lon="-7.802490226932501"><ele>261.0</ele><time>2026-04-23T10:42:38.999Z</time></trkpt><trkpt lat="32.61930231627046" lon="-7.802731763105791"><ele>261.0</ele><time>2026-04-23T10:42:39.999Z</time></trkpt><trkpt lat="32.61908568617725" lon="-7.802970146076053"><ele>261.0</ele><time>2026-04-23T10:42:40.999Z</time></trkpt><trkpt lat="32.618871999054726" lon="-7.803211264799934"><ele>261.0</ele><time>2026-04-23T10:42:41.999Z</time></trkpt><trkpt lat="32.61865478787227" lon="-7.803458402719552"><ele>257.5</ele><time>2026-04-23T10:42:42.999Z</time></trkpt><trkpt lat="32.61844676329027" lon="-7.803699824340825"><ele>254.0</ele><time>2026-04-23T10:42:43.999Z</time></trkpt><trkpt lat="32.61824043734701" lon="-7.803948428150153"><ele>254.0</ele><time>2026-04-23T10:42:44.999Z</time></trkpt><trkpt lat="32.61803442008314" lon="-7.804199424680577"><ele>254.0</ele><time>2026-04-23T10:42:45.999Z</time></trkpt><trkpt lat="32.61782932046121" lon="-7.804453437405884"><ele>258.5</ele><time>2026-04-23T10:42:46.999Z</time></trkpt><trkpt lat="32.6176258764394" lon="-7.804713422091021"><ele>263.0</ele><time>2026-04-23T10:42:47.999Z</time></trkpt><trkpt lat="32.61742837637556" lon="-7.804974752535289"><ele>261.5</ele><time>2026-04-23T10:42:48.999Z</time></trkpt><trkpt lat="32.617235100736856" lon="-7.805241455923655"><ele>260.0</ele><time>2026-04-23T10:42:49.999Z</time></trkpt><trkpt lat="32.61704097851629" lon="-7.805507893018843"><ele>262.0</ele><time>2026-04-23T10:42:50.999Z</time></trkpt><trkpt lat="32.61684872153417" lon="-7.805779676944038"><ele>264.0</ele><time>2026-04-23T10:42:51.999Z</time></trkpt><trkpt lat="32.61665661635444" lon="-7.806052975596627"><ele>266.0</ele><time>2026-04-23T10:42:52.999Z</time></trkpt><trkpt lat="32.61646761596502" lon="-7.80633441002357"><ele>268.0</ele><time>2026-04-23T10:42:53.999Z</time></trkpt><trkpt lat="32.61627942706142" lon="-7.8066069705889"><ele>268.5</ele><time>2026-04-23T10:42:54.999Z</time></trkpt><trkpt lat="32.616101819028074" lon="-7.80688915655715"><ele>269.0</ele><time>2026-04-23T10:42:55.999Z</time></trkpt><trkpt lat="32.615916358050285" lon="-7.807166682562341"><ele>269.0</ele><time>2026-04-23T10:42:56.999Z</time></trkpt><trkpt lat="32.615743400184606" lon="-7.80745578081273"><ele>269.0</ele><time>2026-04-23T10:42:57.999Z</time></trkpt><trkpt lat="32.61557393962506" lon="-7.807743369669703"><ele>270.0</ele><time>2026-04-23T10:42:58.999Z</time></trkpt><trkpt lat="32.61540074465225" lon="-7.808032040838975"><ele>271.0</ele><time>2026-04-23T10:42:59.999Z</time></trkpt><trkpt lat="32.61522599207389" lon="-7.808316434430858"><ele>274.0</ele><time>2026-04-23T10:43:00.999Z</time></trkpt><trkpt lat="32.61505629270285" lon="-7.8086082482271175"><ele>277.0</ele><time>2026-04-23T10:43:01.999Z</time></trkpt><trkpt lat="32.61489156062532" lon="-7.808903869832182"><ele>277.0</ele><time>2026-04-23T10:43:03Z</time></trkpt><trkpt lat="32.61472624041011" lon="-7.809196195274782"><ele>277.0</ele><time>2026-04-23T10:43:04Z</time></trkpt><trkpt lat="32.61456318402725" lon="-7.809482656100294"><ele>276.5</ele><time>2026-04-23T10:43:05Z</time></trkpt><trkpt lat="32.61439716068503" lon="-7.809780017598452"><ele>276.0</ele><time>2026-04-23T10:43:06Z</time></trkpt><trkpt lat="32.61422510674927" lon="-7.810071960742616"><ele>273.5</ele><time>2026-04-23T10:43:07Z</time></trkpt><trkpt lat="32.614056192599314" lon="-7.81036747405822"><ele>271.0</ele><time>2026-04-23T10:43:08Z</time></trkpt><trkpt lat="32.613889121084185" lon="-7.810664151332315"><ele>271.0</ele><time>2026-04-23T10:43:09Z</time></trkpt><trkpt lat="32.613721326118764" lon="-7.810957954007741"><ele>271.0</ele><time>2026-04-23T10:43:10Z</time></trkpt><trkpt lat="32.613553597011865" lon="-7.81125213750243"><ele>268.0</ele><time>2026-04-23T10:43:11Z</time></trkpt><trkpt lat="32.613385267938156" lon="-7.811546039269311"><ele>265.0</ele><time>2026-04-23T10:43:12Z</time></trkpt><trkpt lat="32.61321365445421" lon="-7.811842316990999"><ele>263.0</ele><time>2026-04-23T10:43:13Z</time></trkpt><trkpt lat="32.61305197718682" lon="-7.812132083668675"><ele>261.0</ele><time>2026-04-23T10:43:14Z</time></trkpt><trkpt lat="32.61288399078052" lon="-7.812423640780502"><ele>258.5</ele><time>2026-04-23T10:43:15Z</time></trkpt><trkpt lat="32.61271756377089" lon="-7.812714495095015"><ele>256.0</ele><time>2026-04-23T10:43:16Z</time></trkpt><trkpt lat="32.61255077312434" lon="-7.813006258275707"><ele>256.0</ele><time>2026-04-23T10:43:17Z</time></trkpt><trkpt lat="32.612382984216374" lon="-7.81330001887516"><ele>256.0</ele><time>2026-04-23T10:43:18Z</time></trkpt><trkpt lat="32.61221607180061" lon="-7.813592891748125"><ele>256.0</ele><time>2026-04-23T10:43:19Z</time></trkpt><trkpt lat="32.61204823799708" lon="-7.813889382716422"><ele>256.0</ele><time>2026-04-23T10:43:20Z</time></trkpt><trkpt lat="32.611885219118044" lon="-7.814185082497907"><ele>255.5</ele><time>2026-04-23T10:43:21Z</time></trkpt><trkpt lat="32.61171891595209" lon="-7.814480522207429"><ele>255.0</ele><time>2026-04-23T10:43:22Z</time></trkpt><trkpt lat="32.611555780741455" lon="-7.814774262257815"><ele>255.0</ele><time>2026-04-23T10:43:23Z</time></trkpt><trkpt lat="32.61138951794218" lon="-7.815066198789538"><ele>255.0</ele><time>2026-04-23T10:43:24Z</time></trkpt><trkpt lat="32.61121733396936" lon="-7.815355142493913"><ele>257.5</ele><time>2026-04-23T10:43:25Z</time></trkpt><trkpt lat="32.611049990175296" lon="-7.815645033164925"><ele>260.0</ele><time>2026-04-23T10:43:26Z</time></trkpt><trkpt lat="32.610881131683485" lon="-7.815939851881624"><ele>261.5</ele><time>2026-04-23T10:43:27Z</time></trkpt><trkpt lat="32.6107090524687" lon="-7.816234026996302"><ele>263.0</ele><time>2026-04-23T10:43:28Z</time></trkpt><trkpt lat="32.610540998855136" lon="-7.816524531365153"><ele>263.0</ele><time>2026-04-23T10:43:29Z</time></trkpt><trkpt lat="32.61037441441169" lon="-7.816817108684303"><ele>263.0</ele><time>2026-04-23T10:43:30Z</time></trkpt><trkpt lat="32.61020861636524" lon="-7.8171115646418015"><ele>262.5</ele><time>2026-04-23T10:43:31Z</time></trkpt><trkpt lat="32.61003894427905" lon="-7.817405715083857"><ele>262.0</ele><time>2026-04-23T10:43:32Z</time></trkpt><trkpt lat="32.60987067512592" lon="-7.817696846218627"><ele>262.0</ele><time>2026-04-23T10:43:33Z</time></trkpt><trkpt lat="32.6097017032979" lon="-7.817986889696569"><ele>262.0</ele><time>2026-04-23T10:43:34Z</time></trkpt><trkpt lat="32.60953321434137" lon="-7.818276642268363"><ele>265.0</ele><time>2026-04-23T10:43:35Z</time></trkpt><trkpt lat="32.60935736741407" lon="-7.818567877749554"><ele>268.0</ele><time>2026-04-23T10:43:36Z</time></trkpt><trkpt lat="32.609180061718995" lon="-7.818851554275782"><ele>268.0</ele><time>2026-04-23T10:43:37Z</time></trkpt><trkpt lat="32.60900120716287" lon="-7.819131269148095"><ele>268.0</ele><time>2026-04-23T10:43:38Z</time></trkpt><trkpt lat="32.608822269621115" lon="-7.819403159308456"><ele>263.5</ele><time>2026-04-23T10:43:39Z</time></trkpt><trkpt lat="32.608640275935244" lon="-7.819682383046709"><ele>259.0</ele><time>2026-04-23T10:43:40Z</time></trkpt><trkpt lat="32.60845493602948" lon="-7.81995405557912"><ele>258.0</ele><time>2026-04-23T10:43:41Z</time></trkpt><trkpt lat="32.60826658855141" lon="-7.820226354248437"><ele>257.0</ele><time>2026-04-23T10:43:42Z</time></trkpt><trkpt lat="32.608076344257654" lon="-7.820492233386452"><ele>257.0</ele><time>2026-04-23T10:43:43Z</time></trkpt><trkpt lat="32.60788064471169" lon="-7.820758529859795"><ele>257.0</ele><time>2026-04-23T10:43:44Z</time></trkpt><trkpt lat="32.60768120314711" lon="-7.821023880812336"><ele>255.0</ele><time>2026-04-23T10:43:45Z</time></trkpt><trkpt lat="32.6074795581984" lon="-7.821280667219627"><ele>253.0</ele><time>2026-04-23T10:43:46Z</time></trkpt><trkpt lat="32.60727777484537" lon="-7.821540443346494"><ele>253.0</ele><time>2026-04-23T10:43:47Z</time></trkpt><trkpt lat="32.60707048310363" lon="-7.821801332541858"><ele>253.0</ele><time>2026-04-23T10:43:48Z</time></trkpt><trkpt lat="32.60686641650387" lon="-7.822052963252524"><ele>253.0</ele><time>2026-04-23T10:43:49Z</time></trkpt><trkpt lat="32.60665836405534" lon="-7.8223057244870935"><ele>253.0</ele><time>2026-04-23T10:43:50Z</time></trkpt><trkpt lat="32.60643459234578" lon="-7.822535042986129"><ele>254.0</ele><time>2026-04-23T10:43:51Z</time></trkpt><trkpt lat="32.6062327827491" lon="-7.822795635037106"><ele>255.0</ele><time>2026-04-23T10:43:52Z</time></trkpt><trkpt lat="32.60601642145736" lon="-7.823036723891646"><ele>255.0</ele><time>2026-04-23T10:43:53Z</time></trkpt><trkpt lat="32.60579690198864" lon="-7.823277084977655"><ele>255.0</ele><time>2026-04-23T10:43:54Z</time></trkpt><trkpt lat="32.6055761883014" lon="-7.823515558776842"><ele>257.0</ele><time>2026-04-23T10:43:55Z</time></trkpt><trkpt lat="32.60535230446515" lon="-7.823747086526391"><ele>259.0</ele><time>2026-04-23T10:43:56Z</time></trkpt><trkpt lat="32.605125146431774" lon="-7.8239768784372545"><ele>261.0</ele><time>2026-04-23T10:43:56.999Z</time></trkpt><trkpt lat="32.604893889725666" lon="-7.8242038622868675"><ele>263.0</ele><time>2026-04-23T10:43:57.999Z</time></trkpt><trkpt lat="32.60466123583178" lon="-7.824429186505299"><ele>266.0</ele><time>2026-04-23T10:43:58.999Z</time></trkpt><trkpt lat="32.60442866138988" lon="-7.824657175766035"><ele>269.0</ele><time>2026-04-23T10:43:59.999Z</time></trkpt><trkpt lat="32.60419655914903" lon="-7.824876114743988"><ele>269.0</ele><time>2026-04-23T10:44:00.999Z</time></trkpt><trkpt lat="32.60395846684364" lon="-7.8250903441518505"><ele>269.0</ele><time>2026-04-23T10:44:01.999Z</time></trkpt><trkpt lat="32.60372115962863" lon="-7.825304820402425"><ele>269.0</ele><time>2026-04-23T10:44:02.999Z</time></trkpt><trkpt lat="32.603484091802855" lon="-7.825515253781441"><ele>269.0</ele><time>2026-04-23T10:44:03.999Z</time></trkpt><trkpt lat="32.603243419314566" lon="-7.825721847212181"><ele>269.0</ele><time>2026-04-23T10:44:04.999Z</time></trkpt><trkpt lat="32.60300199179928" lon="-7.825921337400121"><ele>269.0</ele><time>2026-04-23T10:44:05.999Z</time></trkpt><trkpt lat="32.602757325296714" lon="-7.826117714950818"><ele>272.0</ele><time>2026-04-23T10:44:06.999Z</time></trkpt><trkpt lat="32.60251207508337" lon="-7.826316506958291"><ele>275.0</ele><time>2026-04-23T10:44:07.999Z</time></trkpt><trkpt lat="32.60226107997788" lon="-7.826520506050342"><ele>275.0</ele><time>2026-04-23T10:44:08.999Z</time></trkpt><trkpt lat="32.60201363352377" lon="-7.826714425119939"><ele>275.0</ele><time>2026-04-23T10:44:09.999Z</time></trkpt><trkpt lat="32.601765437957084" lon="-7.826904516846157"><ele>273.0</ele><time>2026-04-23T10:44:10.999Z</time></trkpt><trkpt lat="32.60151064218778" lon="-7.8270912405826705"><ele>271.0</ele><time>2026-04-23T10:44:11.999Z</time></trkpt><trkpt lat="32.60125689709229" lon="-7.827274699994106"><ele>271.5</ele><time>2026-04-23T10:44:12.999Z</time></trkpt><trkpt lat="32.60100431401624" lon="-7.827448372855168"><ele>272.0</ele><time>2026-04-23T10:44:13.999Z</time></trkpt><trkpt lat="32.600749274462395" lon="-7.827614083254162"><ele>271.5</ele><time>2026-04-23T10:44:14.999Z</time></trkpt><trkpt lat="32.6004963149533" lon="-7.827772497750026"><ele>271.0</ele><time>2026-04-23T10:44:15.999Z</time></trkpt><trkpt lat="32.60023248743661" lon="-7.827933731681598"><ele>271.0</ele><time>2026-04-23T10:44:16.999Z</time></trkpt><trkpt lat="32.59997621779022" lon="-7.828091116757292"><ele>271.0</ele><time>2026-04-23T10:44:17.999Z</time></trkpt><trkpt lat="32.59971151772321" lon="-7.828246663576536"><ele>271.0</ele><time>2026-04-23T10:44:18.999Z</time></trkpt><trkpt lat="32.59945125669027" lon="-7.828394567018001"><ele>271.0</ele><time>2026-04-23T10:44:19.999Z</time></trkpt><trkpt lat="32.59918435361322" lon="-7.828545869323594"><ele>271.0</ele><time>2026-04-23T10:44:20.999Z</time></trkpt><trkpt lat="32.5989121501229" lon="-7.828695659616081"><ele>271.0</ele><time>2026-04-23T10:44:21.999Z</time></trkpt><trkpt lat="32.598645946750054" lon="-7.8288398534473025"><ele>272.5</ele><time>2026-04-23T10:44:22.999Z</time></trkpt><trkpt lat="32.59837295542176" lon="-7.828982079700619"><ele>274.0</ele><time>2026-04-23T10:44:23.999Z</time></trkpt><trkpt lat="32.598099714992564" lon="-7.829120920916934"><ele>270.5</ele><time>2026-04-23T10:44:24.999Z</time></trkpt><trkpt lat="32.59782736646808" lon="-7.829251818239369"><ele>267.0</ele><time>2026-04-23T10:44:25.999Z</time></trkpt><trkpt lat="32.597555262657096" lon="-7.8293847561436145"><ele>266.5</ele><time>2026-04-23T10:44:26.999Z</time></trkpt><trkpt lat="32.59728339070787" lon="-7.829522266940258"><ele>266.0</ele><time>2026-04-23T10:44:27.999Z</time></trkpt><trkpt lat="32.597010494787746" lon="-7.8296558264091285"><ele>267.5</ele><time>2026-04-23T10:44:28.999Z</time></trkpt><trkpt lat="32.59673377024768" lon="-7.829789701563586"><ele>269.0</ele><time>2026-04-23T10:44:29.999Z</time></trkpt><trkpt lat="32.596450145150946" lon="-7.829924742625982"><ele>269.0</ele><time>2026-04-23T10:44:30.999Z</time></trkpt><trkpt lat="32.59617718553597" lon="-7.830055638804969"><ele>269.0</ele><time>2026-04-23T10:44:31.999Z</time></trkpt><trkpt lat="32.59590328216507" lon="-7.830188668044196"><ele>271.5</ele><time>2026-04-23T10:44:32.999Z</time></trkpt><trkpt lat="32.59562816227951" lon="-7.83032271311841"><ele>274.0</ele><time>2026-04-23T10:44:33.999Z</time></trkpt><trkpt lat="32.595353033594044" lon="-7.8304567096598445"><ele>274.5</ele><time>2026-04-23T10:44:34.999Z</time></trkpt><trkpt lat="32.59507786669574" lon="-7.830594077767409"><ele>275.0</ele><time>2026-04-23T10:44:35.999Z</time></trkpt><trkpt lat="32.59480248956698" lon="-7.830733619088358"><ele>275.0</ele><time>2026-04-23T10:44:36.999Z</time></trkpt><trkpt lat="32.59452485558712" lon="-7.8308693666253095"><ele>275.0</ele><time>2026-04-23T10:44:37.999Z</time></trkpt><trkpt lat="32.59425009547134" lon="-7.831006384485771"><ele>273.0</ele><time>2026-04-23T10:44:38.999Z</time></trkpt><trkpt lat="32.59397533600935" lon="-7.831140287873501"><ele>271.0</ele><time>2026-04-23T10:44:39.999Z</time></trkpt><trkpt lat="32.59370105243434" lon="-7.831276945465095"><ele>270.5</ele><time>2026-04-23T10:44:40.999Z</time></trkpt><trkpt lat="32.59342474007091" lon="-7.831410726695661"><ele>270.0</ele><time>2026-04-23T10:44:41.999Z</time></trkpt><trkpt lat="32.593146991631826" lon="-7.831547524286099"><ele>270.0</ele><time>2026-04-23T10:44:42.999Z</time></trkpt><trkpt lat="32.59286894187869" lon="-7.831684639530474"><ele>270.0</ele><time>2026-04-23T10:44:43.999Z</time></trkpt><trkpt lat="32.59259358461398" lon="-7.831825225752188"><ele>269.5</ele><time>2026-04-23T10:44:44.999Z</time></trkpt><trkpt lat="32.5923192640565" lon="-7.831964999248184"><ele>269.0</ele><time>2026-04-23T10:44:45.999Z</time></trkpt><trkpt lat="32.59204414500928" lon="-7.8321099293776655"><ele>270.5</ele><time>2026-04-23T10:44:46.999Z</time></trkpt><trkpt lat="32.59177266550509" lon="-7.832256946461495"><ele>272.0</ele><time>2026-04-23T10:44:47.999Z</time></trkpt><trkpt lat="32.59150363789506" lon="-7.8324079009093"><ele>272.0</ele><time>2026-04-23T10:44:48.999Z</time></trkpt><trkpt lat="32.59123886503053" lon="-7.832557648830444"><ele>272.0</ele><time>2026-04-23T10:44:49.999Z</time></trkpt><trkpt lat="32.59097376855898" lon="-7.832717611971786"><ele>272.5</ele><time>2026-04-23T10:44:50.999Z</time></trkpt><trkpt lat="32.590704635613854" lon="-7.832876143052567"><ele>273.0</ele><time>2026-04-23T10:44:51.999Z</time></trkpt><trkpt lat="32.59043842573981" lon="-7.83303945594776"><ele>273.5</ele><time>2026-04-23T10:44:52.999Z</time></trkpt><trkpt lat="32.59017311211375" lon="-7.833203987193501"><ele>274.0</ele><time>2026-04-23T10:44:53.999Z</time></trkpt><trkpt lat="32.58991341971929" lon="-7.83337429229098"><ele>273.5</ele><time>2026-04-23T10:44:54.999Z</time></trkpt><trkpt lat="32.58965411514747" lon="-7.833546269635602"><ele>273.0</ele><time>2026-04-23T10:44:55.999Z</time></trkpt><trkpt lat="32.58940063422193" lon="-7.833725621724022"><ele>275.5</ele><time>2026-04-23T10:44:56.999Z</time></trkpt><trkpt lat="32.58914862553068" lon="-7.833910973911261"><ele>278.0</ele><time>2026-04-23T10:44:57.999Z</time></trkpt><trkpt lat="32.58889594289072" lon="-7.834094647610533"><ele>280.5</ele><time>2026-04-23T10:44:58.999Z</time></trkpt><trkpt lat="32.58864359200112" lon="-7.834280810936767"><ele>283.0</ele><time>2026-04-23T10:44:59.999Z</time></trkpt><trkpt lat="32.5883940600509" lon="-7.834470408776592"><ele>283.0</ele><time>2026-04-23T10:45:00.999Z</time></trkpt><trkpt lat="32.58814671842339" lon="-7.83466381216715"><ele>283.0</ele><time>2026-04-23T10:45:01.999Z</time></trkpt><trkpt lat="32.587897337374166" lon="-7.834857982626701"><ele>283.0</ele><time>2026-04-23T10:45:02.999Z</time></trkpt><trkpt lat="32.58765209406878" lon="-7.835060552183252"><ele>283.0</ele><time>2026-04-23T10:45:03.999Z</time></trkpt><trkpt lat="32.587403936851686" lon="-7.835256383387784"><ele>283.5</ele><time>2026-04-23T10:45:04.999Z</time></trkpt><trkpt lat="32.58716426426906" lon="-7.835462295142572"><ele>284.0</ele><time>2026-04-23T10:45:05.999Z</time></trkpt><trkpt lat="32.58692299839143" lon="-7.8356717325486835"><ele>284.0</ele><time>2026-04-23T10:45:06.999Z</time></trkpt><trkpt lat="32.58668583011187" lon="-7.835884988976422"><ele>284.0</ele><time>2026-04-23T10:45:07.999Z</time></trkpt><trkpt lat="32.5864505424448" lon="-7.836104718740396"><ele>283.0</ele><time>2026-04-23T10:45:09Z</time></trkpt><trkpt lat="32.58621855810619" lon="-7.836325369225692"><ele>282.0</ele><time>2026-04-23T10:45:10Z</time></trkpt><trkpt lat="32.58598537741513" lon="-7.836548115109042"><ele>282.0</ele><time>2026-04-23T10:45:11Z</time></trkpt><trkpt lat="32.58575910919752" lon="-7.836774994219078"><ele>282.0</ele><time>2026-04-23T10:45:12Z</time></trkpt><trkpt lat="32.58553058835472" lon="-7.837009302466703"><ele>283.5</ele><time>2026-04-23T10:45:13Z</time></trkpt><trkpt lat="32.58530389345637" lon="-7.8372403236567"><ele>285.0</ele><time>2026-04-23T10:45:14Z</time></trkpt><trkpt lat="32.58508012852563" lon="-7.837476253480919"><ele>285.5</ele><time>2026-04-23T10:45:15Z</time></trkpt><trkpt lat="32.58486094531945" lon="-7.837709777573163"><ele>286.0</ele><time>2026-04-23T10:45:16Z</time></trkpt><trkpt lat="32.58463802008274" lon="-7.837945126183868"><ele>285.5</ele><time>2026-04-23T10:45:17Z</time></trkpt><trkpt lat="32.58442063784484" lon="-7.838186618170963"><ele>285.0</ele><time>2026-04-23T10:45:18Z</time></trkpt><trkpt lat="32.58420975796457" lon="-7.838430075501585"><ele>285.0</ele><time>2026-04-23T10:45:19Z</time></trkpt><trkpt lat="32.583999365196824" lon="-7.83867717743326"><ele>285.0</ele><time>2026-04-23T10:45:20Z</time></trkpt><trkpt lat="32.583791771273376" lon="-7.838931648718514"><ele>286.0</ele><time>2026-04-23T10:45:21Z</time></trkpt><trkpt lat="32.583586182512626" lon="-7.8391813364535246"><ele>287.0</ele><time>2026-04-23T10:45:22Z</time></trkpt><trkpt lat="32.583382660338636" lon="-7.839441101929866"><ele>287.0</ele><time>2026-04-23T10:45:23Z</time></trkpt><trkpt lat="32.58318225561729" lon="-7.839697931863912"><ele>287.0</ele><time>2026-04-23T10:45:24Z</time></trkpt><trkpt lat="32.58298295475475" lon="-7.839957383582916"><ele>287.5</ele><time>2026-04-23T10:45:25Z</time></trkpt><trkpt lat="32.58278743674575" lon="-7.840221050397466"><ele>288.0</ele><time>2026-04-23T10:45:26Z</time></trkpt><trkpt lat="32.5825911034557" lon="-7.840487842482689"><ele>288.0</ele><time>2026-04-23T10:45:27Z</time></trkpt><trkpt lat="32.58239530395947" lon="-7.840751613469421"><ele>288.0</ele><time>2026-04-23T10:45:28Z</time></trkpt><trkpt lat="32.58220494553042" lon="-7.841023893128692"><ele>288.5</ele><time>2026-04-23T10:45:29Z</time></trkpt><trkpt lat="32.58202020750594" lon="-7.84130031597166"><ele>289.0</ele><time>2026-04-23T10:45:30Z</time></trkpt><trkpt lat="32.58183546338907" lon="-7.8415819208797855"><ele>289.5</ele><time>2026-04-23T10:45:31Z</time></trkpt><trkpt lat="32.58165566740495" lon="-7.841860827776105"><ele>290.0</ele><time>2026-04-23T10:45:32Z</time></trkpt><trkpt lat="32.58147648276481" lon="-7.842140440730098"><ele>290.0</ele><time>2026-04-23T10:45:33Z</time></trkpt><trkpt lat="32.581298056793514" lon="-7.842430732244287"><ele>290.0</ele><time>2026-04-23T10:45:34Z</time></trkpt><trkpt lat="32.58112286798199" lon="-7.842720998329452"><ele>291.0</ele><time>2026-04-23T10:45:35Z</time></trkpt><trkpt lat="32.58095001981273" lon="-7.843009216154592"><ele>292.0</ele><time>2026-04-23T10:45:36Z</time></trkpt><trkpt lat="32.58078159104664" lon="-7.84329754153046"><ele>292.0</ele><time>2026-04-23T10:45:37Z</time></trkpt><trkpt lat="32.580616191948884" lon="-7.8435875964599475"><ele>292.0</ele><time>2026-04-23T10:45:38Z</time></trkpt><trkpt lat="32.580453708203" lon="-7.843886722477844"><ele>292.0</ele><time>2026-04-23T10:45:39Z</time></trkpt><trkpt lat="32.58029230134346" lon="-7.844181811657367"><ele>292.0</ele><time>2026-04-23T10:45:40Z</time></trkpt><trkpt lat="32.58013437598346" lon="-7.844478980940456"><ele>292.0</ele><time>2026-04-23T10:45:41Z</time></trkpt><trkpt lat="32.579977413102625" lon="-7.844779458730428"><ele>292.0</ele><time>2026-04-23T10:45:42Z</time></trkpt><trkpt lat="32.579825963226355" lon="-7.845080249801683"><ele>291.5</ele><time>2026-04-23T10:45:43Z</time></trkpt><trkpt lat="32.57967184077974" lon="-7.845381394293163"><ele>291.0</ele><time>2026-04-23T10:45:44Z</time></trkpt><trkpt lat="32.579524009605734" lon="-7.845685004984176"><ele>291.0</ele><time>2026-04-23T10:45:45Z</time></trkpt><trkpt lat="32.57937418599862" lon="-7.845986874267924"><ele>291.0</ele><time>2026-04-23T10:45:46Z</time></trkpt><trkpt lat="32.579225000673" lon="-7.846293078848355"><ele>291.0</ele><time>2026-04-23T10:45:47Z</time></trkpt><trkpt lat="32.57907934940705" lon="-7.8465927328762275"><ele>291.0</ele><time>2026-04-23T10:45:48Z</time></trkpt><trkpt lat="32.578932233228436" lon="-7.846896788419602"><ele>291.0</ele><time>2026-04-23T10:45:49Z</time></trkpt><trkpt lat="32.578781238784984" lon="-7.847207187993336"><ele>291.0</ele><time>2026-04-23T10:45:50Z</time></trkpt><trkpt lat="32.57863170096544" lon="-7.847512209039036"><ele>287.0</ele><time>2026-04-23T10:45:51Z</time></trkpt><trkpt lat="32.57848515797815" lon="-7.8478183290188595"><ele>283.0</ele><time>2026-04-23T10:45:52Z</time></trkpt><trkpt lat="32.57833799318901" lon="-7.84812665595326"><ele>283.0</ele><time>2026-04-23T10:45:53Z</time></trkpt><trkpt lat="32.57818758411579" lon="-7.848435260950297"><ele>283.0</ele><time>2026-04-23T10:45:54Z</time></trkpt><trkpt lat="32.57803588978182" lon="-7.848738218295171"><ele>280.5</ele><time>2026-04-23T10:45:55Z</time></trkpt><trkpt lat="32.57788711731199" lon="-7.849041901166583"><ele>278.0</ele><time>2026-04-23T10:45:56Z</time></trkpt><trkpt lat="32.57773450072586" lon="-7.849345579513256"><ele>278.0</ele><time>2026-04-23T10:45:57Z</time></trkpt><trkpt lat="32.57758498391788" lon="-7.84964552499429"><ele>278.0</ele><time>2026-04-23T10:45:58Z</time></trkpt><trkpt lat="32.57743367168365" lon="-7.849954846032336"><ele>278.0</ele><time>2026-04-23T10:45:59Z</time></trkpt><trkpt lat="32.57728315770096" lon="-7.850263054582049"><ele>278.0</ele><time>2026-04-23T10:46:00Z</time></trkpt><trkpt lat="32.577131556587695" lon="-7.85057065184506"><ele>279.0</ele><time>2026-04-23T10:46:00.999Z</time></trkpt><trkpt lat="32.576980850426324" lon="-7.850876503841333"><ele>280.0</ele><time>2026-04-23T10:46:01.999Z</time></trkpt><trkpt lat="32.576829734795645" lon="-7.851182590958817"><ele>280.0</ele><time>2026-04-23T10:46:02.999Z</time></trkpt><trkpt lat="32.57668042340706" lon="-7.85148467873601"><ele>280.0</ele><time>2026-04-23T10:46:03.999Z</time></trkpt><trkpt lat="32.57652860705422" lon="-7.851786529391122"><ele>279.5</ele><time>2026-04-23T10:46:04.999Z</time></trkpt><trkpt lat="32.57637734941341" lon="-7.852093475194702"><ele>279.0</ele><time>2026-04-23T10:46:05.999Z</time></trkpt><trkpt lat="32.57622622960493" lon="-7.8523949207462005"><ele>280.0</ele><time>2026-04-23T10:46:06.999Z</time></trkpt><trkpt lat="32.57607011057441" lon="-7.852702162704579"><ele>281.0</ele><time>2026-04-23T10:46:07.999Z</time></trkpt><trkpt lat="32.575917411150144" lon="-7.8530045239909025"><ele>281.0</ele><time>2026-04-23T10:46:08.999Z</time></trkpt><trkpt lat="32.575766413504326" lon="-7.8533070916791985"><ele>281.0</ele><time>2026-04-23T10:46:09.999Z</time></trkpt><trkpt lat="32.57561223942177" lon="-7.853608891014689"><ele>282.5</ele><time>2026-04-23T10:46:10.999Z</time></trkpt><trkpt lat="32.57545939044343" lon="-7.853912475808431"><ele>284.0</ele><time>2026-04-23T10:46:11.999Z</time></trkpt><trkpt lat="32.57530916546292" lon="-7.854215851075984"><ele>289.0</ele><time>2026-04-23T10:46:12.999Z</time></trkpt><trkpt lat="32.575163390955" lon="-7.854518770547149"><ele>294.0</ele><time>2026-04-23T10:46:13.999Z</time></trkpt><trkpt lat="32.575014307510465" lon="-7.854817778195856"><ele>294.0</ele><time>2026-04-23T10:46:14.999Z</time></trkpt><trkpt lat="32.574867281628556" lon="-7.855120157959756"><ele>294.0</ele><time>2026-04-23T10:46:15.999Z</time></trkpt><trkpt lat="32.57471620877769" lon="-7.855423677624717"><ele>294.5</ele><time>2026-04-23T10:46:16.999Z</time></trkpt><trkpt lat="32.57456873035967" lon="-7.855727731583763"><ele>295.0</ele><time>2026-04-23T10:46:17.999Z</time></trkpt><trkpt lat="32.57441871213276" lon="-7.856032164416569"><ele>297.0</ele><time>2026-04-23T10:46:18.999Z</time></trkpt><trkpt lat="32.574267327805664" lon="-7.856334686781567"><ele>299.0</ele><time>2026-04-23T10:46:19.999Z</time></trkpt><trkpt lat="32.57411595277901" lon="-7.856638193804768"><ele>299.0</ele><time>2026-04-23T10:46:20.999Z</time></trkpt><trkpt lat="32.573967794148906" lon="-7.856934797528553"><ele>299.0</ele><time>2026-04-23T10:46:21.999Z</time></trkpt><trkpt lat="32.57382045391537" lon="-7.857245328841614"><ele>299.0</ele><time>2026-04-23T10:46:22.999Z</time></trkpt><trkpt lat="32.57367012299628" lon="-7.8575546303664465"><ele>299.0</ele><time>2026-04-23T10:46:23.999Z</time></trkpt><trkpt lat="32.573522631723826" lon="-7.85785628030576"><ele>299.0</ele><time>2026-04-23T10:46:24.999Z</time></trkpt><trkpt lat="32.57337400251942" lon="-7.858159927405951"><ele>299.0</ele><time>2026-04-23T10:46:25.999Z</time></trkpt><trkpt lat="32.57322245117366" lon="-7.858465771330614"><ele>299.0</ele><time>2026-04-23T10:46:26.999Z</time></trkpt><trkpt lat="32.57307499903973" lon="-7.858768576235403"><ele>299.0</ele><time>2026-04-23T10:46:27.999Z</time></trkpt><trkpt lat="32.572929104678856" lon="-7.859075371265523"><ele>299.5</ele><time>2026-04-23T10:46:28.999Z</time></trkpt><trkpt lat="32.57277810402732" lon="-7.859384560221179"><ele>300.0</ele><time>2026-04-23T10:46:29.999Z</time></trkpt><trkpt lat="32.57262796509135" lon="-7.859691023140517"><ele>300.0</ele><time>2026-04-23T10:46:30.999Z</time></trkpt><trkpt lat="32.57247811933047" lon="-7.859996863662648"><ele>300.0</ele><time>2026-04-23T10:46:31.999Z</time></trkpt><trkpt lat="32.57232491490806" lon="-7.860298493123249"><ele>300.0</ele><time>2026-04-23T10:46:32.999Z</time></trkpt><trkpt lat="32.57217197320141" lon="-7.860600510395228"><ele>300.0</ele><time>2026-04-23T10:46:33.999Z</time></trkpt><trkpt lat="32.57201723561095" lon="-7.860899854797074"><ele>299.5</ele><time>2026-04-23T10:46:34.999Z</time></trkpt><trkpt lat="32.571855516833416" lon="-7.861195735475251"><ele>299.0</ele><time>2026-04-23T10:46:35.999Z</time></trkpt><trkpt lat="32.57169259225891" lon="-7.86148999017934"><ele>297.5</ele><time>2026-04-23T10:46:36.999Z</time></trkpt><trkpt lat="32.571528915118364" lon="-7.861784418741457"><ele>296.0</ele><time>2026-04-23T10:46:37.999Z</time></trkpt><trkpt lat="32.571364957050136" lon="-7.862073302586291"><ele>296.0</ele><time>2026-04-23T10:46:38.999Z</time></trkpt><trkpt lat="32.571200468847806" lon="-7.862367848684372"><ele>296.0</ele><time>2026-04-23T10:46:39.999Z</time></trkpt><trkpt lat="32.57103276486672" lon="-7.862654320312363"><ele>298.0</ele><time>2026-04-23T10:46:40.999Z</time></trkpt><trkpt lat="32.57086355657448" lon="-7.862946333224169"><ele>300.0</ele><time>2026-04-23T10:46:41.999Z</time></trkpt><trkpt lat="32.570691843414295" lon="-7.863233250870885"><ele>300.0</ele><time>2026-04-23T10:46:42.999Z</time></trkpt><trkpt lat="32.57051574627774" lon="-7.8635209854851436"><ele>300.0</ele><time>2026-04-23T10:46:43.999Z</time></trkpt><trkpt lat="32.57034541112307" lon="-7.863809240193356"><ele>300.0</ele><time>2026-04-23T10:46:44.999Z</time></trkpt><trkpt lat="32.57016771952471" lon="-7.8640919802582605"><ele>300.0</ele><time>2026-04-23T10:46:45.999Z</time></trkpt><trkpt lat="32.569995399656506" lon="-7.864376099842462"><ele>299.5</ele><time>2026-04-23T10:46:46.999Z</time></trkpt><trkpt lat="32.56981352314516" lon="-7.864656415356116"><ele>299.0</ele><time>2026-04-23T10:46:47.999Z</time></trkpt><trkpt lat="32.5696306090871" lon="-7.8649331492480465"><ele>298.5</ele><time>2026-04-23T10:46:48.999Z</time></trkpt><trkpt lat="32.56944661598241" lon="-7.865208776641938"><ele>298.0</ele><time>2026-04-23T10:46:49.999Z</time></trkpt><trkpt lat="32.56925991160341" lon="-7.865475171741535"><ele>298.0</ele><time>2026-04-23T10:46:50.999Z</time></trkpt><trkpt lat="32.56906650946472" lon="-7.86574698821953"><ele>298.0</ele><time>2026-04-23T10:46:51.999Z</time></trkpt><trkpt lat="32.56887071233928" lon="-7.86602163446582"><ele>298.0</ele><time>2026-04-23T10:46:52.999Z</time></trkpt><trkpt lat="32.5686784972371" lon="-7.86628624611703"><ele>298.0</ele><time>2026-04-23T10:46:53.999Z</time></trkpt><trkpt lat="32.56848263421597" lon="-7.8665523845848675"><ele>297.0</ele><time>2026-04-23T10:46:54.999Z</time></trkpt><trkpt lat="32.568283889297355" lon="-7.866814064015988"><ele>296.0</ele><time>2026-04-23T10:46:55.999Z</time></trkpt><trkpt lat="32.56808280406764" lon="-7.867075430513509"><ele>296.0</ele><time>2026-04-23T10:46:56.999Z</time></trkpt><trkpt lat="32.56787767058827" lon="-7.867332610546375"><ele>296.0</ele><time>2026-04-23T10:46:57.999Z</time></trkpt><trkpt lat="32.567668156292186" lon="-7.867592766637456"><ele>297.0</ele><time>2026-04-23T10:46:58.999Z</time></trkpt><trkpt lat="32.567466011904195" lon="-7.867849141718041"><ele>298.0</ele><time>2026-04-23T10:46:59.999Z</time></trkpt><trkpt lat="32.56725779481347" lon="-7.868103654361414"><ele>298.0</ele><time>2026-04-23T10:47:00.999Z</time></trkpt><trkpt lat="32.56705050173944" lon="-7.868351569238291"><ele>298.0</ele><time>2026-04-23T10:47:01.999Z</time></trkpt><trkpt lat="32.566840872202036" lon="-7.868605848669024"><ele>299.5</ele><time>2026-04-23T10:47:02.999Z</time></trkpt><trkpt lat="32.56663739204313" lon="-7.868859259298648"><ele>301.0</ele><time>2026-04-23T10:47:03.999Z</time></trkpt><trkpt lat="32.56642968707895" lon="-7.8691127818100695"><ele>301.0</ele><time>2026-04-23T10:47:04.999Z</time></trkpt><trkpt lat="32.56622081919032" lon="-7.869362277962896"><ele>301.0</ele><time>2026-04-23T10:47:05.999Z</time></trkpt><trkpt lat="32.56601174827726" lon="-7.869611847081618"><ele>301.5</ele><time>2026-04-23T10:47:06.999Z</time></trkpt><trkpt lat="32.56579807763249" lon="-7.869868751958835"><ele>302.0</ele><time>2026-04-23T10:47:07.999Z</time></trkpt><trkpt lat="32.565590486292365" lon="-7.870122897615281"><ele>302.0</ele><time>2026-04-23T10:47:08.999Z</time></trkpt><trkpt lat="32.565383161981" lon="-7.870377410457497"><ele>302.0</ele><time>2026-04-23T10:47:09.999Z</time></trkpt><trkpt lat="32.56517495702836" lon="-7.870631594715758"><ele>302.5</ele><time>2026-04-23T10:47:10.999Z</time></trkpt><trkpt lat="32.564966507520495" lon="-7.87088230374121"><ele>303.0</ele><time>2026-04-23T10:47:11.999Z</time></trkpt><trkpt lat="32.56476129539966" lon="-7.8711300629264205"><ele>303.0</ele><time>2026-04-23T10:47:12.999Z</time></trkpt><trkpt lat="32.56455368525211" lon="-7.871380672786263"><ele>303.0</ele><time>2026-04-23T10:47:13.999Z</time></trkpt><trkpt lat="32.564345335381105" lon="-7.871637180049966"><ele>304.5</ele><time>2026-04-23T10:47:15Z</time></trkpt><trkpt lat="32.564134299798546" lon="-7.871887511351913"><ele>306.0</ele><time>2026-04-23T10:47:16Z</time></trkpt><trkpt lat="32.56393024254383" lon="-7.872138548812655"><ele>306.0</ele><time>2026-04-23T10:47:17Z</time></trkpt><trkpt lat="32.56372518563733" lon="-7.872392615825813"><ele>306.0</ele><time>2026-04-23T10:47:18Z</time></trkpt><trkpt lat="32.56352166251247" lon="-7.872643129104249"><ele>307.5</ele><time>2026-04-23T10:47:19Z</time></trkpt><trkpt lat="32.56331636244945" lon="-7.872896460177996"><ele>309.0</ele><time>2026-04-23T10:47:20Z</time></trkpt><trkpt lat="32.56311010458646" lon="-7.87314725355568"><ele>309.0</ele><time>2026-04-23T10:47:21Z</time></trkpt><trkpt lat="32.562900436161016" lon="-7.8734023289075115"><ele>309.0</ele><time>2026-04-23T10:47:22Z</time></trkpt><trkpt lat="32.562691758422815" lon="-7.873656120668419"><ele>308.5</ele><time>2026-04-23T10:47:23Z</time></trkpt><trkpt lat="32.56248483971467" lon="-7.873910038092058"><ele>308.0</ele><time>2026-04-23T10:47:24Z</time></trkpt><trkpt lat="32.562275230923106" lon="-7.8741645997940894"><ele>308.0</ele><time>2026-04-23T10:47:25Z</time></trkpt><trkpt lat="32.5620702478462" lon="-7.874416885770197"><ele>308.0</ele><time>2026-04-23T10:47:26Z</time></trkpt><trkpt lat="32.561859803164175" lon="-7.874671243723985"><ele>308.5</ele><time>2026-04-23T10:47:27Z</time></trkpt><trkpt lat="32.56165357453184" lon="-7.874925727436538"><ele>309.0</ele><time>2026-04-23T10:47:28Z</time></trkpt><trkpt lat="32.5614460806305" lon="-7.875175223620173"><ele>308.5</ele><time>2026-04-23T10:47:29Z</time></trkpt><trkpt lat="32.561235739406065" lon="-7.875425701767474"><ele>308.0</ele><time>2026-04-23T10:47:30Z</time></trkpt><trkpt lat="32.56102700214121" lon="-7.875675343915395"><ele>308.0</ele><time>2026-04-23T10:47:31Z</time></trkpt><trkpt lat="32.56081810507719" lon="-7.87593088144374"><ele>308.0</ele><time>2026-04-23T10:47:32Z</time></trkpt><trkpt lat="32.56060807004097" lon="-7.876182050491955"><ele>308.0</ele><time>2026-04-23T10:47:33Z</time></trkpt><trkpt lat="32.56040506248181" lon="-7.876432544431441"><ele>308.0</ele><time>2026-04-23T10:47:34Z</time></trkpt><trkpt lat="32.56019576961271" lon="-7.876685806398809"><ele>309.0</ele><time>2026-04-23T10:47:35Z</time></trkpt><trkpt lat="32.55999089624849" lon="-7.876940285424446"><ele>310.0</ele><time>2026-04-23T10:47:36Z</time></trkpt><trkpt lat="32.559782015229516" lon="-7.877196361862227"><ele>310.0</ele><time>2026-04-23T10:47:37Z</time></trkpt><trkpt lat="32.55957521046777" lon="-7.8774540717371435"><ele>310.0</ele><time>2026-04-23T10:47:38Z</time></trkpt><trkpt lat="32.55936758209153" lon="-7.877709748184268"><ele>311.5</ele><time>2026-04-23T10:47:39Z</time></trkpt><trkpt lat="32.55916148456506" lon="-7.877965934250057"><ele>313.0</ele><time>2026-04-23T10:47:40Z</time></trkpt><trkpt lat="32.55895470805386" lon="-7.8782276835952425"><ele>313.0</ele><time>2026-04-23T10:47:41Z</time></trkpt><trkpt lat="32.558749330589166" lon="-7.8784859335084985"><ele>313.0</ele><time>2026-04-23T10:47:42Z</time></trkpt><trkpt lat="32.558552091672226" lon="-7.878742724443866"><ele>313.0</ele><time>2026-04-23T10:47:43Z</time></trkpt><trkpt lat="32.55835207275046" lon="-7.879004705534646"><ele>313.0</ele><time>2026-04-23T10:47:44Z</time></trkpt><trkpt lat="32.55815059832333" lon="-7.879264646584496"><ele>312.5</ele><time>2026-04-23T10:47:45Z</time></trkpt><trkpt lat="32.557951257823355" lon="-7.879522650675825"><ele>312.0</ele><time>2026-04-23T10:47:46Z</time></trkpt><trkpt lat="32.557749651407434" lon="-7.879785446047204"><ele>312.0</ele><time>2026-04-23T10:47:47Z</time></trkpt><trkpt lat="32.557550161077025" lon="-7.880045679972239"><ele>312.0</ele><time>2026-04-23T10:47:48Z</time></trkpt><trkpt lat="32.55735230698948" lon="-7.880306763419597"><ele>313.0</ele><time>2026-04-23T10:47:49Z</time></trkpt><trkpt lat="32.55715485201126" lon="-7.880568173503905"><ele>314.0</ele><time>2026-04-23T10:47:50Z</time></trkpt><trkpt lat="32.55695732808839" lon="-7.880836307769793"><ele>315.5</ele><time>2026-04-23T10:47:51Z</time></trkpt><trkpt lat="32.556761960566554" lon="-7.881099777140221"><ele>317.0</ele><time>2026-04-23T10:47:52Z</time></trkpt><trkpt lat="32.55656549070163" lon="-7.881371174528823"><ele>317.0</ele><time>2026-04-23T10:47:53Z</time></trkpt><trkpt lat="32.556369730985175" lon="-7.881636336984833"><ele>317.0</ele><time>2026-04-23T10:47:54Z</time></trkpt><trkpt lat="32.55618083501128" lon="-7.881903026448946"><ele>317.5</ele><time>2026-04-23T10:47:55Z</time></trkpt><trkpt lat="32.55598323572146" lon="-7.8821749194678015"><ele>318.0</ele><time>2026-04-23T10:47:56Z</time></trkpt><trkpt lat="32.555789639732026" lon="-7.882448711360272"><ele>317.0</ele><time>2026-04-23T10:47:57Z</time></trkpt><trkpt lat="32.5555987547333" lon="-7.882721620623397"><ele>316.0</ele><time>2026-04-23T10:47:58Z</time></trkpt><trkpt lat="32.55540671586352" lon="-7.882994196563422"><ele>316.5</ele><time>2026-04-23T10:47:59Z</time></trkpt><trkpt lat="32.55521393777153" lon="-7.883266197668905"><ele>317.0</ele><time>2026-04-23T10:48:00Z</time></trkpt><trkpt lat="32.55502155103519" lon="-7.883536767362903"><ele>315.5</ele><time>2026-04-23T10:48:01Z</time></trkpt><trkpt lat="32.55482995039879" lon="-7.883807849901694"><ele>314.0</ele><time>2026-04-23T10:48:02Z</time></trkpt><trkpt lat="32.55464256366114" lon="-7.884085169067815"><ele>315.5</ele><time>2026-04-23T10:48:03Z</time></trkpt><trkpt lat="32.55445584614084" lon="-7.884357225986223"><ele>317.0</ele><time>2026-04-23T10:48:04Z</time></trkpt><trkpt lat="32.55426827994499" lon="-7.884631416657315"><ele>317.0</ele><time>2026-04-23T10:48:04.999Z</time></trkpt><trkpt lat="32.55408315643038" lon="-7.884908188627423"><ele>317.0</ele><time>2026-04-23T10:48:05.999Z</time></trkpt><trkpt lat="32.5539002537235" lon="-7.885184046175314"><ele>315.5</ele><time>2026-04-23T10:48:06.999Z</time></trkpt><trkpt lat="32.55371564294372" lon="-7.885457620319553"><ele>314.0</ele><time>2026-04-23T10:48:07.999Z</time></trkpt><trkpt lat="32.553533555226366" lon="-7.885737271303046"><ele>313.5</ele><time>2026-04-23T10:48:08.999Z</time></trkpt><trkpt lat="32.55335058674096" lon="-7.886015588033611"><ele>313.0</ele><time>2026-04-23T10:48:09.999Z</time></trkpt><trkpt lat="32.55316915413931" lon="-7.8862963706494"><ele>313.0</ele><time>2026-04-23T10:48:10.999Z</time></trkpt><trkpt lat="32.552987277016086" lon="-7.8865790174993"><ele>313.0</ele><time>2026-04-23T10:48:11.999Z</time></trkpt><trkpt lat="32.5528058113795" lon="-7.8868602664907295"><ele>315.0</ele><time>2026-04-23T10:48:12.999Z</time></trkpt><trkpt lat="32.55262747040747" lon="-7.887143296825934"><ele>317.0</ele><time>2026-04-23T10:48:13.999Z</time></trkpt><trkpt lat="32.55245462462121" lon="-7.8874246212259145"><ele>317.5</ele><time>2026-04-23T10:48:14.999Z</time></trkpt><trkpt lat="32.55227800306166" lon="-7.887706601640702"><ele>318.0</ele><time>2026-04-23T10:48:15.999Z</time></trkpt><trkpt lat="32.55209692381407" lon="-7.887985709759265"><ele>319.0</ele><time>2026-04-23T10:48:16.999Z</time></trkpt><trkpt lat="32.55191791441971" lon="-7.888266626579763"><ele>320.0</ele><time>2026-04-23T10:48:17.999Z</time></trkpt><trkpt lat="32.55173455286842" lon="-7.888551188946719"><ele>320.0</ele><time>2026-04-23T10:48:18.999Z</time></trkpt><trkpt lat="32.55155614771568" lon="-7.888834798263272"><ele>320.0</ele><time>2026-04-23T10:48:19.999Z</time></trkpt><trkpt lat="32.5513811588656" lon="-7.889118797743391"><ele>320.0</ele><time>2026-04-23T10:48:20.999Z</time></trkpt><trkpt lat="32.55120805913368" lon="-7.889404641308594"><ele>320.0</ele><time>2026-04-23T10:48:21.999Z</time></trkpt><trkpt lat="32.551037824426466" lon="-7.889691322505436"><ele>320.0</ele><time>2026-04-23T10:48:22.999Z</time></trkpt><trkpt lat="32.55086050207609" lon="-7.889982089984806"><ele>320.0</ele><time>2026-04-23T10:48:23.999Z</time></trkpt><trkpt lat="32.55068737318783" lon="-7.8902702062771795"><ele>320.0</ele><time>2026-04-23T10:48:24.999Z</time></trkpt><trkpt lat="32.550514668891296" lon="-7.890556950771263"><ele>320.0</ele><time>2026-04-23T10:48:25.999Z</time></trkpt><trkpt lat="32.550346696575744" lon="-7.8908486164629705"><ele>321.5</ele><time>2026-04-23T10:48:26.999Z</time></trkpt><trkpt lat="32.55017724391795" lon="-7.891139907104723"><ele>323.0</ele><time>2026-04-23T10:48:27.999Z</time></trkpt><trkpt lat="32.55000435236241" lon="-7.891427873509766"><ele>323.0</ele><time>2026-04-23T10:48:28.999Z</time></trkpt><trkpt lat="32.5498336095636" lon="-7.891714897774368"><ele>323.0</ele><time>2026-04-23T10:48:29.999Z</time></trkpt><trkpt lat="32.5496670250701" lon="-7.8920056529249045"><ele>323.0</ele><time>2026-04-23T10:48:30.999Z</time></trkpt><trkpt lat="32.54949602082665" lon="-7.892296558462623"><ele>323.0</ele><time>2026-04-23T10:48:31.999Z</time></trkpt><trkpt lat="32.54933151123943" lon="-7.892591250072021"><ele>323.0</ele><time>2026-04-23T10:48:32.999Z</time></trkpt><trkpt lat="32.54917151007481" lon="-7.892879160826111"><ele>323.0</ele><time>2026-04-23T10:48:33.999Z</time></trkpt><trkpt lat="32.5490057016588" lon="-7.893172048721806"><ele>323.5</ele><time>2026-04-23T10:48:34.999Z</time></trkpt><trkpt lat="32.548839978165006" lon="-7.893471690553369"><ele>324.0</ele><time>2026-04-23T10:48:35.999Z</time></trkpt><trkpt lat="32.548669589949085" lon="-7.893758324436559"><ele>325.5</ele><time>2026-04-23T10:48:36.999Z</time></trkpt><trkpt lat="32.548500659354175" lon="-7.894046766243364"><ele>327.0</ele><time>2026-04-23T10:48:37.999Z</time></trkpt><trkpt lat="32.54833338853766" lon="-7.894335006904197"><ele>328.0</ele><time>2026-04-23T10:48:38.999Z</time></trkpt><trkpt lat="32.54816638865077" lon="-7.894621383294396"><ele>329.0</ele><time>2026-04-23T10:48:39.999Z</time></trkpt><trkpt lat="32.54799639644156" lon="-7.894906140896297"><ele>331.5</ele><time>2026-04-23T10:48:40.999Z</time></trkpt><trkpt lat="32.54782573338411" lon="-7.8951952276099435"><ele>334.0</ele><time>2026-04-23T10:48:41.999Z</time></trkpt><trkpt lat="32.54765453419631" lon="-7.895477903575982"><ele>334.0</ele><time>2026-04-23T10:48:42.999Z</time></trkpt><trkpt lat="32.54748141133229" lon="-7.895763696079805"><ele>334.0</ele><time>2026-04-23T10:48:43.999Z</time></trkpt><trkpt lat="32.54731391467455" lon="-7.8960508394126085"><ele>334.5</ele><time>2026-04-23T10:48:44.999Z</time></trkpt><trkpt lat="32.547141092451874" lon="-7.896340354094836"><ele>335.0</ele><time>2026-04-23T10:48:45.999Z</time></trkpt><trkpt lat="32.5469744282743" lon="-7.896627339267451"><ele>335.0</ele><time>2026-04-23T10:48:46.999Z</time></trkpt><trkpt lat="32.546800673751875" lon="-7.8969144047156625"><ele>335.0</ele><time>2026-04-23T10:48:47.999Z</time></trkpt><trkpt lat="32.546629342920895" lon="-7.897200196455851"><ele>335.0</ele><time>2026-04-23T10:48:48.999Z</time></trkpt><trkpt lat="32.54645828871672" lon="-7.897488357790736"><ele>335.0</ele><time>2026-04-23T10:48:49.999Z</time></trkpt><trkpt lat="32.54628889334881" lon="-7.897776945075476"><ele>337.0</ele><time>2026-04-23T10:48:50.999Z</time></trkpt><trkpt lat="32.54612038053166" lon="-7.89806783962273"><ele>339.0</ele><time>2026-04-23T10:48:51.999Z</time></trkpt><trkpt lat="32.545948281858905" lon="-7.898352967996447"><ele>337.5</ele><time>2026-04-23T10:48:52.999Z</time></trkpt><trkpt lat="32.54577942632193" lon="-7.898637606657977"><ele>336.0</ele><time>2026-04-23T10:48:53.999Z</time></trkpt><trkpt lat="32.54560800722362" lon="-7.8989205546649215"><ele>336.0</ele><time>2026-04-23T10:48:54.999Z</time></trkpt><trkpt lat="32.545430427647226" lon="-7.899204824088874"><ele>336.0</ele><time>2026-04-23T10:48:55.999Z</time></trkpt><trkpt lat="32.54524933613311" lon="-7.899481783126839"><ele>339.0</ele><time>2026-04-23T10:48:56.999Z</time></trkpt><trkpt lat="32.54506094647462" lon="-7.8997573904042"><ele>342.0</ele><time>2026-04-23T10:48:57.999Z</time></trkpt><trkpt lat="32.544873344656835" lon="-7.90002794847169"><ele>341.5</ele><time>2026-04-23T10:48:58.999Z</time></trkpt><trkpt lat="32.54468230713176" lon="-7.900290981920378"><ele>341.0</ele><time>2026-04-23T10:48:59.999Z</time></trkpt><trkpt lat="32.54449257288976" lon="-7.9005584672996045"><ele>341.0</ele><time>2026-04-23T10:49:00.999Z</time></trkpt><trkpt lat="32.544300031420086" lon="-7.900821734439034"><ele>341.0</ele><time>2026-04-23T10:49:01.999Z</time></trkpt><trkpt lat="32.544103316321674" lon="-7.901086148865687"><ele>342.0</ele><time>2026-04-23T10:49:02.999Z</time></trkpt><trkpt lat="32.54390257979471" lon="-7.9013432338425"><ele>343.0</ele><time>2026-04-23T10:49:03.999Z</time></trkpt><trkpt lat="32.54370202830931" lon="-7.9015987081948875"><ele>343.0</ele><time>2026-04-23T10:49:04.999Z</time></trkpt><trkpt lat="32.54350006667779" lon="-7.90185332419177"><ele>343.0</ele><time>2026-04-23T10:49:05.999Z</time></trkpt><trkpt lat="32.543291077849254" lon="-7.902105803780785"><ele>343.0</ele><time>2026-04-23T10:49:06.999Z</time></trkpt><trkpt lat="32.54308401013042" lon="-7.902358409731878"><ele>343.0</ele><time>2026-04-23T10:49:07.999Z</time></trkpt><trkpt lat="32.54287564127317" lon="-7.902599122822911"><ele>343.0</ele><time>2026-04-23T10:49:08.999Z</time></trkpt><trkpt lat="32.54266135683669" lon="-7.902843153822483"><ele>343.0</ele><time>2026-04-23T10:49:09.999Z</time></trkpt><trkpt lat="32.54244360351643" lon="-7.903088331554461"><ele>343.0</ele><time>2026-04-23T10:49:10.999Z</time></trkpt><trkpt lat="32.54222598616766" lon="-7.903329634545604"><ele>343.0</ele><time>2026-04-23T10:49:11.999Z</time></trkpt><trkpt lat="32.54200678570596" lon="-7.903566774263464"><ele>346.0</ele><time>2026-04-23T10:49:12.999Z</time></trkpt><trkpt lat="32.54178750131588" lon="-7.903804658237303"><ele>349.0</ele><time>2026-04-23T10:49:13.999Z</time></trkpt><trkpt lat="32.54155938848228" lon="-7.9040375221649795"><ele>347.5</ele><time>2026-04-23T10:49:14.999Z</time></trkpt><trkpt lat="32.5413344204481" lon="-7.904261779010112"><ele>346.0</ele><time>2026-04-23T10:49:15.999Z</time></trkpt><trkpt lat="32.54110701740415" lon="-7.904483611108018"><ele>346.0</ele><time>2026-04-23T10:49:16.999Z</time></trkpt><trkpt lat="32.540877310490814" lon="-7.904707058176685"><ele>346.0</ele><time>2026-04-23T10:49:17.999Z</time></trkpt><trkpt lat="32.54064390987325" lon="-7.904930890679874"><ele>345.5</ele><time>2026-04-23T10:49:18.999Z</time></trkpt><trkpt lat="32.54040851686969" lon="-7.905141919811551"><ele>345.0</ele><time>2026-04-23T10:49:19.999Z</time></trkpt><trkpt lat="32.54017322158201" lon="-7.905354270815094"><ele>349.0</ele><time>2026-04-23T10:49:21Z</time></trkpt><trkpt lat="32.5399378955454" lon="-7.905558345971469"><ele>353.0</ele><time>2026-04-23T10:49:22Z</time></trkpt><trkpt lat="32.539699418312445" lon="-7.905759085181207"><ele>358.0</ele><time>2026-04-23T10:49:23Z</time></trkpt><trkpt lat="32.5394638992874" lon="-7.905957964174672"><ele>363.0</ele><time>2026-04-23T10:49:24Z</time></trkpt><trkpt lat="32.539225230952646" lon="-7.906154258535089"><ele>363.0</ele><time>2026-04-23T10:49:25Z</time></trkpt><trkpt lat="32.538988021519565" lon="-7.906342746424341"><ele>363.0</ele><time>2026-04-23T10:49:26Z</time></trkpt><trkpt lat="32.538747380639414" lon="-7.906536666782536"><ele>369.5</ele><time>2026-04-23T10:49:27Z</time></trkpt><trkpt lat="32.53850322452942" lon="-7.906732389574454"><ele>376.0</ele><time>2026-04-23T10:49:28Z</time></trkpt><trkpt lat="32.53825989449913" lon="-7.9069306175961716"><ele>376.0</ele><time>2026-04-23T10:49:29Z</time></trkpt><trkpt lat="32.5380204735603" lon="-7.907131444410996"><ele>376.0</ele><time>2026-04-23T10:49:30Z</time></trkpt><trkpt lat="32.53777615903855" lon="-7.907332241189659"><ele>377.0</ele><time>2026-04-23T10:49:31Z</time></trkpt><trkpt lat="32.53752756296029" lon="-7.907536805898454"><ele>378.0</ele><time>2026-04-23T10:49:32Z</time></trkpt><trkpt lat="32.53728204109959" lon="-7.907734225116352"><ele>385.5</ele><time>2026-04-23T10:49:33Z</time></trkpt><trkpt lat="32.537034883650186" lon="-7.907931857658335"><ele>393.0</ele><time>2026-04-23T10:49:34Z</time></trkpt><trkpt lat="32.536792027575785" lon="-7.908130473208598"><ele>393.0</ele><time>2026-04-23T10:49:35Z</time></trkpt><trkpt lat="32.5365491430119" lon="-7.908331003835246"><ele>393.0</ele><time>2026-04-23T10:49:36Z</time></trkpt><trkpt lat="32.53630173703991" lon="-7.908541900346583"><ele>390.5</ele><time>2026-04-23T10:49:37Z</time></trkpt><trkpt lat="32.53605924791752" lon="-7.908744152102928"><ele>388.0</ele><time>2026-04-23T10:49:38Z</time></trkpt><trkpt lat="32.53581397232505" lon="-7.908945296960539"><ele>388.0</ele><time>2026-04-23T10:49:39Z</time></trkpt><trkpt lat="32.53556722493696" lon="-7.909158330036058"><ele>388.0</ele><time>2026-04-23T10:49:40Z</time></trkpt><trkpt lat="32.535325650166214" lon="-7.909351606634405"><ele>385.0</ele><time>2026-04-23T10:49:41Z</time></trkpt><trkpt lat="32.535085934890205" lon="-7.90954887320688"><ele>382.0</ele><time>2026-04-23T10:49:42Z</time></trkpt><trkpt lat="32.53484233563853" lon="-7.909748976601185"><ele>382.0</ele><time>2026-04-23T10:49:43Z</time></trkpt><trkpt lat="32.53459846714649" lon="-7.909945330887284"><ele>382.0</ele><time>2026-04-23T10:49:44Z</time></trkpt><trkpt lat="32.53435707054272" lon="-7.910144339888841"><ele>386.5</ele><time>2026-04-23T10:49:45Z</time></trkpt><trkpt lat="32.53411377806852" lon="-7.910346189559592"><ele>391.0</ele><time>2026-04-23T10:49:46Z</time></trkpt><trkpt lat="32.53386703484593" lon="-7.9105456909392755"><ele>394.0</ele><time>2026-04-23T10:49:47Z</time></trkpt><trkpt lat="32.53362164810579" lon="-7.910746665597448"><ele>397.0</ele><time>2026-04-23T10:49:48Z</time></trkpt><trkpt lat="32.5333735517556" lon="-7.910945297090437"><ele>397.0</ele><time>2026-04-23T10:49:49Z</time></trkpt><trkpt lat="32.53312636366094" lon="-7.911138790627009"><ele>397.0</ele><time>2026-04-23T10:49:50Z</time></trkpt><trkpt lat="32.53287432157675" lon="-7.911329345994828"><ele>401.5</ele><time>2026-04-23T10:49:51Z</time></trkpt><trkpt lat="32.5326187505473" lon="-7.911512740349886"><ele>406.0</ele><time>2026-04-23T10:49:52Z</time></trkpt><trkpt lat="32.53236353684665" lon="-7.911695699938676"><ele>404.5</ele><time>2026-04-23T10:49:53Z</time></trkpt><trkpt lat="32.5321044757161" lon="-7.911873957884851"><ele>403.0</ele><time>2026-04-23T10:49:54Z</time></trkpt><trkpt lat="32.53184218389762" lon="-7.912047313531454"><ele>407.0</ele><time>2026-04-23T10:49:55Z</time></trkpt><trkpt lat="32.53158226532786" lon="-7.912219367153381"><ele>411.0</ele><time>2026-04-23T10:49:56Z</time></trkpt><trkpt lat="32.53132075103386" lon="-7.912385186092992"><ele>415.5</ele><time>2026-04-23T10:49:57Z</time></trkpt><trkpt lat="32.53106102660518" lon="-7.9125499282597325"><ele>420.0</ele><time>2026-04-23T10:49:58Z</time></trkpt><trkpt lat="32.5307931149231" lon="-7.912713837609486"><ele>420.0</ele><time>2026-04-23T10:49:59Z</time></trkpt><trkpt lat="32.53052301202104" lon="-7.912874527770349"><ele>420.0</ele><time>2026-04-23T10:50:00Z</time></trkpt><trkpt lat="32.53025321942121" lon="-7.913026769823603"><ele>420.5</ele><time>2026-04-23T10:50:01Z</time></trkpt><trkpt lat="32.52998655811616" lon="-7.913173981803003"><ele>421.0</ele><time>2026-04-23T10:50:02Z</time></trkpt><trkpt lat="32.529717932065175" lon="-7.913323185924806"><ele>418.0</ele><time>2026-04-23T10:50:03Z</time></trkpt><trkpt lat="32.52944434262859" lon="-7.913466486742832"><ele>415.0</ele><time>2026-04-23T10:50:04Z</time></trkpt><trkpt lat="32.52917018358174" lon="-7.913608802939505"><ele>415.0</ele><time>2026-04-23T10:50:05Z</time></trkpt><trkpt lat="32.52889452471605" lon="-7.9137424362621465"><ele>415.0</ele><time>2026-04-23T10:50:06Z</time></trkpt><trkpt lat="32.52861847176144" lon="-7.913867982149901"><ele>417.5</ele><time>2026-04-23T10:50:07Z</time></trkpt><trkpt lat="32.52834116257889" lon="-7.9139961005396025"><ele>420.0</ele><time>2026-04-23T10:50:08Z</time></trkpt><trkpt lat="32.52806201278931" lon="-7.91412289905191"><ele>421.5</ele><time>2026-04-23T10:50:09Z</time></trkpt><trkpt lat="32.5277848495738" lon="-7.914238787653178"><ele>423.0</ele><time>2026-04-23T10:50:10Z</time></trkpt><trkpt lat="32.52750499168713" lon="-7.914355671150341"><ele>423.0</ele><time>2026-04-23T10:50:11Z</time></trkpt><trkpt lat="32.52722083826144" lon="-7.914474486478505"><ele>423.0</ele><time>2026-04-23T10:50:12Z</time></trkpt><trkpt lat="32.52693842412897" lon="-7.914586319068437"><ele>424.0</ele><time>2026-04-23T10:50:13Z</time></trkpt><trkpt lat="32.52665663005271" lon="-7.914694011649264"><ele>425.0</ele><time>2026-04-23T10:50:14Z</time></trkpt><trkpt lat="32.52637438058" lon="-7.9148002480365"><ele>425.5</ele><time>2026-04-23T10:50:15Z</time></trkpt><trkpt lat="32.526092533216016" lon="-7.914903413189496"><ele>426.0</ele><time>2026-04-23T10:50:16Z</time></trkpt><trkpt lat="32.5258056301017" lon="-7.9150047670312285"><ele>423.5</ele><time>2026-04-23T10:50:17Z</time></trkpt><trkpt lat="32.525522456667694" lon="-7.915105285954634"><ele>421.0</ele><time>2026-04-23T10:50:18Z</time></trkpt><trkpt lat="32.525239641946264" lon="-7.915203976636172"><ele>421.0</ele><time>2026-04-23T10:50:19Z</time></trkpt><trkpt lat="32.5249565509686" lon="-7.915311932262533"><ele>421.0</ele><time>2026-04-23T10:50:19.999Z</time></trkpt><trkpt lat="32.52466568188226" lon="-7.91541735978238"><ele>420.5</ele><time>2026-04-23T10:50:20.999Z</time></trkpt><trkpt lat="32.52438066725008" lon="-7.915520944784801"><ele>420.0</ele><time>2026-04-23T10:50:21.999Z</time></trkpt><trkpt lat="32.52409410204675" lon="-7.91564464953192"><ele>420.0</ele><time>2026-04-23T10:50:22.999Z</time></trkpt><trkpt lat="32.523811484877484" lon="-7.91576395941009"><ele>420.0</ele><time>2026-04-23T10:50:23.999Z</time></trkpt><trkpt lat="32.52352816190468" lon="-7.915870765270497"><ele>420.0</ele><time>2026-04-23T10:50:24.999Z</time></trkpt><trkpt lat="32.52324409400349" lon="-7.915973409533085"><ele>420.0</ele><time>2026-04-23T10:50:25.999Z</time></trkpt><trkpt lat="32.52295995312074" lon="-7.916072002045139"><ele>422.5</ele><time>2026-04-23T10:50:26.999Z</time></trkpt><trkpt lat="32.522677465375786" lon="-7.916171292943958"><ele>425.0</ele><time>2026-04-23T10:50:27.999Z</time></trkpt><trkpt lat="32.522388466724664" lon="-7.916271740630448"><ele>425.0</ele><time>2026-04-23T10:50:28.999Z</time></trkpt><trkpt lat="32.522097953208" lon="-7.9163697155925306"><ele>425.0</ele><time>2026-04-23T10:50:29.999Z</time></trkpt><trkpt lat="32.52180027446396" lon="-7.916434660832035"><ele>429.0</ele><time>2026-04-23T10:50:30.999Z</time></trkpt><trkpt lat="32.52151916427857" lon="-7.916536918507396"><ele>433.0</ele><time>2026-04-23T10:50:31.999Z</time></trkpt><trkpt lat="32.52123411725816" lon="-7.916644852662224"><ele>441.5</ele><time>2026-04-23T10:50:32.999Z</time></trkpt><trkpt lat="32.52094949138377" lon="-7.916752576550548"><ele>450.0</ele><time>2026-04-23T10:50:33.999Z</time></trkpt><trkpt lat="32.52066842000088" lon="-7.916855758358003"><ele>460.5</ele><time>2026-04-23T10:50:34.999Z</time></trkpt><trkpt lat="32.520382621189526" lon="-7.916963814158058"><ele>471.0</ele><time>2026-04-23T10:50:35.999Z</time></trkpt><trkpt lat="32.520102304746004" lon="-7.917071826000342"><ele>471.0</ele><time>2026-04-23T10:50:36.999Z</time></trkpt><trkpt lat="32.51980988997709" lon="-7.917150886943421"><ele>471.0</ele><time>2026-04-23T10:50:37.999Z</time></trkpt><trkpt lat="32.51952385004468" lon="-7.917248525742513"><ele>474.5</ele><time>2026-04-23T10:50:38.999Z</time></trkpt><trkpt lat="32.519237699071425" lon="-7.917345150233083"><ele>478.0</ele><time>2026-04-23T10:50:39.999Z</time></trkpt><trkpt lat="32.51895320706389" lon="-7.9174435018514036"><ele>477.5</ele><time>2026-04-23T10:50:40.999Z</time></trkpt><trkpt lat="32.51867017209518" lon="-7.917542265899603"><ele>477.0</ele><time>2026-04-23T10:50:41.999Z</time></trkpt><trkpt lat="32.51838345127217" lon="-7.917643392908771"><ele>477.0</ele><time>2026-04-23T10:50:42.999Z</time></trkpt><trkpt lat="32.51809643870209" lon="-7.9177454898346795"><ele>477.0</ele><time>2026-04-23T10:50:43.999Z</time></trkpt><trkpt lat="32.51781311589601" lon="-7.917860087157542"><ele>475.5</ele><time>2026-04-23T10:50:44.999Z</time></trkpt><trkpt lat="32.517526915015964" lon="-7.917955203565095"><ele>474.0</ele><time>2026-04-23T10:50:45.999Z</time></trkpt><trkpt lat="32.51723847504632" lon="-7.918046671411443"><ele>473.0</ele><time>2026-04-23T10:50:46.999Z</time></trkpt><trkpt lat="32.51694887145548" lon="-7.918133040446246"><ele>472.0</ele><time>2026-04-23T10:50:47.999Z</time></trkpt><trkpt lat="32.5166591296847" lon="-7.918218210435164"><ele>472.0</ele><time>2026-04-23T10:50:48.999Z</time></trkpt><trkpt lat="32.516368015253335" lon="-7.918292491085314"><ele>472.0</ele><time>2026-04-23T10:50:49.999Z</time></trkpt><trkpt lat="32.51607566735228" lon="-7.918364769958499"><ele>470.5</ele><time>2026-04-23T10:50:50.999Z</time></trkpt><trkpt lat="32.51578670865201" lon="-7.91843492594852"><ele>469.0</ele><time>2026-04-23T10:50:51.999Z</time></trkpt><trkpt lat="32.51549408326655" lon="-7.918501528462428"><ele>470.5</ele><time>2026-04-23T10:50:52.999Z</time></trkpt><trkpt lat="32.51519996511313" lon="-7.918566153340042"><ele>472.0</ele><time>2026-04-23T10:50:53.999Z</time></trkpt><trkpt lat="32.51490567927475" lon="-7.918627072459534"><ele>472.0</ele><time>2026-04-23T10:50:54.999Z</time></trkpt><trkpt lat="32.51461041682768" lon="-7.918686375299431"><ele>472.0</ele><time>2026-04-23T10:50:55.999Z</time></trkpt><trkpt lat="32.51431653286371" lon="-7.918741483780028"><ele>475.0</ele><time>2026-04-23T10:50:56.999Z</time></trkpt><trkpt lat="32.51401663577456" lon="-7.918785881598636"><ele>478.0</ele><time>2026-04-23T10:50:57.999Z</time></trkpt><trkpt lat="32.51371849653851" lon="-7.918830480238722"><ele>479.0</ele><time>2026-04-23T10:50:58.999Z</time></trkpt><trkpt lat="32.51342458464424" lon="-7.918874041720497"><ele>480.0</ele><time>2026-04-23T10:50:59.999Z</time></trkpt><trkpt lat="32.51312590295689" lon="-7.918920236776943"><ele>480.0</ele><time>2026-04-23T10:51:00.999Z</time></trkpt><trkpt lat="32.512830374410974" lon="-7.918951247372059"><ele>480.0</ele><time>2026-04-23T10:51:01.999Z</time></trkpt><trkpt lat="32.512529850703295" lon="-7.9189875161519785"><ele>480.0</ele><time>2026-04-23T10:51:02.999Z</time></trkpt><trkpt lat="32.512229290943694" lon="-7.919017369152668"><ele>480.0</ele><time>2026-04-23T10:51:03.999Z</time></trkpt><trkpt lat="32.511932833683275" lon="-7.919042687727633"><ele>479.0</ele><time>2026-04-23T10:51:04.999Z</time></trkpt><trkpt lat="32.51163745289934" lon="-7.919068062762885"><ele>478.0</ele><time>2026-04-23T10:51:05.999Z</time></trkpt><trkpt lat="32.51133856584923" lon="-7.919090353991735"><ele>476.0</ele><time>2026-04-23T10:51:06.999Z</time></trkpt><trkpt lat="32.51103778058443" lon="-7.919112547984992"><ele>474.0</ele><time>2026-04-23T10:51:07.999Z</time></trkpt><trkpt lat="32.51074064419774" lon="-7.919126688580564"><ele>474.0</ele><time>2026-04-23T10:51:08.999Z</time></trkpt><trkpt lat="32.51044307020881" lon="-7.919135830515869"><ele>474.0</ele><time>2026-04-23T10:51:09.999Z</time></trkpt><trkpt lat="32.510142903802645" lon="-7.919145323179862"><ele>473.5</ele><time>2026-04-23T10:51:10.999Z</time></trkpt><trkpt lat="32.509846499511646" lon="-7.919144367942095"><ele>473.0</ele><time>2026-04-23T10:51:11.999Z</time></trkpt><trkpt lat="32.509547513881365" lon="-7.919143423434075"><ele>475.5</ele><time>2026-04-23T10:51:12.999Z</time></trkpt><trkpt lat="32.50924793195478" lon="-7.919141193134289"><ele>478.0</ele><time>2026-04-23T10:51:13.999Z</time></trkpt><trkpt lat="32.50894872592738" lon="-7.9191369782740555"><ele>481.0</ele><time>2026-04-23T10:51:14.999Z</time></trkpt><trkpt lat="32.5086497061889" lon="-7.919130473516609"><ele>484.0</ele><time>2026-04-23T10:51:15.999Z</time></trkpt><trkpt lat="32.50835149020787" lon="-7.9191161390561176"><ele>484.0</ele><time>2026-04-23T10:51:16.999Z</time></trkpt><trkpt lat="32.508051590134414" lon="-7.919094510781593"><ele>484.0</ele><time>2026-04-23T10:51:17.999Z</time></trkpt><trkpt lat="32.50775366467045" lon="-7.919068197281896"><ele>484.5</ele><time>2026-04-23T10:51:18.999Z</time></trkpt><trkpt lat="32.507454568297334" lon="-7.919038579505506"><ele>485.0</ele><time>2026-04-23T10:51:19.999Z</time></trkpt><trkpt lat="32.50715543423917" lon="-7.919012642210055"><ele>485.0</ele><time>2026-04-23T10:51:20.999Z</time></trkpt><trkpt lat="32.5068541782545" lon="-7.918985274862782"><ele>485.0</ele><time>2026-04-23T10:51:21.999Z</time></trkpt><trkpt lat="32.50655346892258" lon="-7.918951047188605"><ele>485.0</ele><time>2026-04-23T10:51:22.999Z</time></trkpt><trkpt lat="32.506253949768364" lon="-7.918916813860503"><ele>485.0</ele><time>2026-04-23T10:51:23.999Z</time></trkpt><trkpt lat="32.50595238129973" lon="-7.918883617784139"><ele>484.5</ele><time>2026-04-23T10:51:24.999Z</time></trkpt><trkpt lat="32.50565590963415" lon="-7.918849862629961"><ele>484.0</ele><time>2026-04-23T10:51:25.999Z</time></trkpt><trkpt lat="32.50536088227193" lon="-7.918816595595599"><ele>483.0</ele><time>2026-04-23T10:51:27Z</time></trkpt><trkpt lat="32.50506321380031" lon="-7.918785899762431"><ele>482.0</ele><time>2026-04-23T10:51:28Z</time></trkpt><trkpt lat="32.504768457627954" lon="-7.918759828266497"><ele>482.5</ele><time>2026-04-23T10:51:29Z</time></trkpt><trkpt lat="32.50446972804984" lon="-7.918732145359172"><ele>483.0</ele><time>2026-04-23T10:51:30Z</time></trkpt><trkpt lat="32.50417468182901" lon="-7.9187060674576095"><ele>483.0</ele><time>2026-04-23T10:51:31Z</time></trkpt><trkpt lat="32.50387965552178" lon="-7.918679752214993"><ele>483.0</ele><time>2026-04-23T10:51:32Z</time></trkpt><trkpt lat="32.503582012216704" lon="-7.9186514178693335"><ele>483.0</ele><time>2026-04-23T10:51:33Z</time></trkpt><trkpt lat="32.50328350551468" lon="-7.918624430034843"><ele>483.0</ele><time>2026-04-23T10:51:34Z</time></trkpt><trkpt lat="32.50298622106714" lon="-7.918599701679173"><ele>482.5</ele><time>2026-04-23T10:51:35Z</time></trkpt><trkpt lat="32.5026884806406" lon="-7.918576116311182"><ele>482.0</ele><time>2026-04-23T10:51:36Z</time></trkpt><trkpt lat="32.50238947875827" lon="-7.918563913232633"><ele>482.0</ele><time>2026-04-23T10:51:37Z</time></trkpt><trkpt lat="32.502089394386644" lon="-7.918547715935333"><ele>482.0</ele><time>2026-04-23T10:51:38Z</time></trkpt><trkpt lat="32.501788106751945" lon="-7.9185375747476625"><ele>480.5</ele><time>2026-04-23T10:51:39Z</time></trkpt><trkpt lat="32.50148763371972" lon="-7.91853320914318"><ele>479.0</ele><time>2026-04-23T10:51:40Z</time></trkpt><trkpt lat="32.50118796041575" lon="-7.9185279706392775"><ele>477.0</ele><time>2026-04-23T10:51:41Z</time></trkpt><trkpt lat="32.50088862442244" lon="-7.918529713655618"><ele>475.0</ele><time>2026-04-23T10:51:42Z</time></trkpt><trkpt lat="32.50058897201033" lon="-7.918531919849628"><ele>474.0</ele><time>2026-04-23T10:51:43Z</time></trkpt><trkpt lat="32.50028800554146" lon="-7.918539970997396"><ele>473.0</ele><time>2026-04-23T10:51:44Z</time></trkpt><trkpt lat="32.49998844903005" lon="-7.918558408244223"><ele>473.0</ele><time>2026-04-23T10:51:45Z</time></trkpt><trkpt lat="32.49968615227372" lon="-7.918578654814143"><ele>473.0</ele><time>2026-04-23T10:51:46Z</time></trkpt><trkpt lat="32.499384616286264" lon="-7.918602588169107"><ele>474.0</ele><time>2026-04-23T10:51:47Z</time></trkpt><trkpt lat="32.49908223954686" lon="-7.918628589482783"><ele>475.0</ele><time>2026-04-23T10:51:48Z</time></trkpt><trkpt lat="32.49878187463664" lon="-7.918659142278323"><ele>477.5</ele><time>2026-04-23T10:51:49Z</time></trkpt><trkpt lat="32.49848251939716" lon="-7.918691195367412"><ele>480.0</ele><time>2026-04-23T10:51:50Z</time></trkpt><trkpt lat="32.4981817710218" lon="-7.918723866025746"><ele>480.5</ele><time>2026-04-23T10:51:51Z</time></trkpt><trkpt lat="32.497882583991114" lon="-7.918766689106675"><ele>481.0</ele><time>2026-04-23T10:51:52Z</time></trkpt><trkpt lat="32.49758248364899" lon="-7.918806903072739"><ele>481.0</ele><time>2026-04-23T10:51:53Z</time></trkpt><trkpt lat="32.49728000451557" lon="-7.918852572632325"><ele>481.0</ele><time>2026-04-23T10:51:54Z</time></trkpt><trkpt lat="32.496981525520454" lon="-7.918905172888151"><ele>479.0</ele><time>2026-04-23T10:51:55Z</time></trkpt><trkpt lat="32.49668252791254" lon="-7.9189609245498636"><ele>477.0</ele><time>2026-04-23T10:51:56Z</time></trkpt><trkpt lat="32.49638215199682" lon="-7.919023669728453"><ele>478.5</ele><time>2026-04-23T10:51:57Z</time></trkpt><trkpt lat="32.496083986379276" lon="-7.919089968850524"><ele>480.0</ele><time>2026-04-23T10:51:58Z</time></trkpt><trkpt lat="32.49578851170953" lon="-7.919161935634601"><ele>477.5</ele><time>2026-04-23T10:51:59Z</time></trkpt><trkpt lat="32.49549073877692" lon="-7.9192388303617784"><ele>475.0</ele><time>2026-04-23T10:52:00Z</time></trkpt><trkpt lat="32.49519644220759" lon="-7.919315463274089"><ele>475.0</ele><time>2026-04-23T10:52:01Z</time></trkpt><trkpt lat="32.49490388691311" lon="-7.919397150175379"><ele>475.0</ele><time>2026-04-23T10:52:02Z</time></trkpt><trkpt lat="32.49460809822684" lon="-7.919480670016448"><ele>475.0</ele><time>2026-04-23T10:52:03Z</time></trkpt><trkpt lat="32.494315918121565" lon="-7.919561979106023"><ele>475.0</ele><time>2026-04-23T10:52:04Z</time></trkpt><trkpt lat="32.49402250687859" lon="-7.919648825041164"><ele>475.5</ele><time>2026-04-23T10:52:05Z</time></trkpt><trkpt lat="32.493733219456814" lon="-7.919739493518747"><ele>476.0</ele><time>2026-04-23T10:52:06Z</time></trkpt><trkpt lat="32.49344189584462" lon="-7.919836248216456"><ele>476.0</ele><time>2026-04-23T10:52:07Z</time></trkpt><trkpt lat="32.493154305581164" lon="-7.9199421341099105"><ele>476.0</ele><time>2026-04-23T10:52:08Z</time></trkpt><trkpt lat="32.49286763795987" lon="-7.920047764452462"><ele>471.0</ele><time>2026-04-23T10:52:09Z</time></trkpt><trkpt lat="32.492579794882296" lon="-7.920162691204476"><ele>466.0</ele><time>2026-04-23T10:52:10Z</time></trkpt><trkpt lat="32.492294292344575" lon="-7.9202789184496805"><ele>466.0</ele><time>2026-04-23T10:52:11Z</time></trkpt><trkpt lat="32.49201291647509" lon="-7.92039816913269"><ele>466.0</ele><time>2026-04-23T10:52:12Z</time></trkpt><trkpt lat="32.49172482249803" lon="-7.920520034893666"><ele>466.0</ele><time>2026-04-23T10:52:13Z</time></trkpt><trkpt lat="32.49144141210954" lon="-7.920646500570867"><ele>466.0</ele><time>2026-04-23T10:52:14Z</time></trkpt><trkpt lat="32.491160853597705" lon="-7.920777590273248"><ele>465.0</ele><time>2026-04-23T10:52:15Z</time></trkpt><trkpt lat="32.49088205247374" lon="-7.920910609728026"><ele>464.0</ele><time>2026-04-23T10:52:16Z</time></trkpt><trkpt lat="32.49060224699225" lon="-7.9210482541208185"><ele>464.5</ele><time>2026-04-23T10:52:17Z</time></trkpt><trkpt lat="32.49032493990099" lon="-7.9211868519429665"><ele>465.0</ele><time>2026-04-23T10:52:18Z</time></trkpt><trkpt lat="32.490045102959556" lon="-7.921326626593561"><ele>465.0</ele><time>2026-04-23T10:52:18.999Z</time></trkpt><trkpt lat="32.48976637870299" lon="-7.92147022194864"><ele>465.0</ele><time>2026-04-23T10:52:19.999Z</time></trkpt><trkpt lat="32.48949092072846" lon="-7.921614715743173"><ele>464.0</ele><time>2026-04-23T10:52:20.999Z</time></trkpt><trkpt lat="32.48921417346265" lon="-7.921757855141526"><ele>463.0</ele><time>2026-04-23T10:52:21.999Z</time></trkpt><trkpt lat="32.48894064603639" lon="-7.921900591868129"><ele>462.0</ele><time>2026-04-23T10:52:22.999Z</time></trkpt><trkpt lat="32.48866027599723" lon="-7.9220427400407045"><ele>461.0</ele><time>2026-04-23T10:52:23.999Z</time></trkpt><trkpt lat="32.48837990690504" lon="-7.92218669169578"><ele>461.0</ele><time>2026-04-23T10:52:24.999Z</time></trkpt><trkpt lat="32.488101299618364" lon="-7.922329922116808"><ele>461.0</ele><time>2026-04-23T10:52:25.999Z</time></trkpt><trkpt lat="32.48782567493816" lon="-7.922472196798531"><ele>461.0</ele><time>2026-04-23T10:52:26.999Z</time></trkpt><trkpt lat="32.48754466538153" lon="-7.922611171483045"><ele>461.0</ele><time>2026-04-23T10:52:27.999Z</time></trkpt><trkpt lat="32.48726425210025" lon="-7.922755652820403"><ele>461.5</ele><time>2026-04-23T10:52:28.999Z</time></trkpt><trkpt lat="32.48698302034196" lon="-7.922895796100825"><ele>462.0</ele><time>2026-04-23T10:52:29.999Z</time></trkpt><trkpt lat="32.48670132597194" lon="-7.923029613642504"><ele>462.0</ele><time>2026-04-23T10:52:30.999Z</time></trkpt><trkpt lat="32.48641240096977" lon="-7.923158975650835"><ele>462.0</ele><time>2026-04-23T10:52:31.999Z</time></trkpt><trkpt lat="32.48613137307184" lon="-7.923283787563451"><ele>460.5</ele><time>2026-04-23T10:52:32.999Z</time></trkpt><trkpt lat="32.485846404920565" lon="-7.923406357651754"><ele>459.0</ele><time>2026-04-23T10:52:33.999Z</time></trkpt><trkpt lat="32.485554249099266" lon="-7.923523203054277"><ele>459.5</ele><time>2026-04-23T10:52:34.999Z</time></trkpt><trkpt lat="32.48527091217671" lon="-7.923638258891345"><ele>460.0</ele><time>2026-04-23T10:52:35.999Z</time></trkpt><trkpt lat="32.48498185642362" lon="-7.923751080383745"><ele>460.0</ele><time>2026-04-23T10:52:36.999Z</time></trkpt><trkpt lat="32.484692570738886" lon="-7.923856366897057"><ele>460.0</ele><time>2026-04-23T10:52:37.999Z</time></trkpt><trkpt lat="32.48440557004723" lon="-7.923960732347959"><ele>461.0</ele><time>2026-04-23T10:52:38.999Z</time></trkpt><trkpt lat="32.4841168008893" lon="-7.9240625509667915"><ele>462.0</ele><time>2026-04-23T10:52:39.999Z</time></trkpt><trkpt lat="32.4838299704416" lon="-7.924164609477775"><ele>465.5</ele><time>2026-04-23T10:52:40.999Z</time></trkpt><trkpt lat="32.483539818761315" lon="-7.924264710880794"><ele>469.0</ele><time>2026-04-23T10:52:41.999Z</time></trkpt><trkpt lat="32.48324353682676" lon="-7.92435388753757"><ele>469.0</ele><time>2026-04-23T10:52:42.999Z</time></trkpt><trkpt lat="32.48295293883057" lon="-7.924439153103801"><ele>469.0</ele><time>2026-04-23T10:52:43.999Z</time></trkpt><trkpt lat="32.48265973791171" lon="-7.924518969206267"><ele>469.0</ele><time>2026-04-23T10:52:44.999Z</time></trkpt><trkpt lat="32.48236735140074" lon="-7.924594701713522"><ele>469.0</ele><time>2026-04-23T10:52:45.999Z</time></trkpt><trkpt lat="32.482079782963154" lon="-7.924662905545073"><ele>469.0</ele><time>2026-04-23T10:52:46.999Z</time></trkpt><trkpt lat="32.481797348232014" lon="-7.924726295965062"><ele>469.0</ele><time>2026-04-23T10:52:47.999Z</time></trkpt><trkpt lat="32.48151880481755" lon="-7.9247880624543585"><ele>470.5</ele><time>2026-04-23T10:52:48.999Z</time></trkpt><trkpt lat="32.48123898476801" lon="-7.924850613857164"><ele>472.0</ele><time>2026-04-23T10:52:49.999Z</time></trkpt><trkpt lat="32.48095016698464" lon="-7.9249061210926905"><ele>472.0</ele><time>2026-04-23T10:52:50.999Z</time></trkpt><trkpt lat="32.48065806667814" lon="-7.924956281960293"><ele>472.0</ele><time>2026-04-23T10:52:51.999Z</time></trkpt><trkpt lat="32.48036818803136" lon="-7.925004575340694"><ele>474.0</ele><time>2026-04-23T10:52:52.999Z</time></trkpt><trkpt lat="32.48008266502283" lon="-7.925044791424637"><ele>476.0</ele><time>2026-04-23T10:52:53.999Z</time></trkpt><trkpt lat="32.47980254166885" lon="-7.925081211698035"><ele>478.0</ele><time>2026-04-23T10:52:54.999Z</time></trkpt><trkpt lat="32.479530549690736" lon="-7.92511499632077"><ele>480.0</ele><time>2026-04-23T10:52:55.999Z</time></trkpt><trkpt lat="32.47925987387418" lon="-7.925144018445219"><ele>480.0</ele><time>2026-04-23T10:52:56.999Z</time></trkpt><trkpt lat="32.47898636113462" lon="-7.925176253792913"><ele>480.0</ele><time>2026-04-23T10:52:57.999Z</time></trkpt><trkpt lat="32.47871253247817" lon="-7.925181245398338"><ele>483.5</ele><time>2026-04-23T10:52:58.999Z</time></trkpt><trkpt lat="32.478426419374166" lon="-7.925194212470588"><ele>487.0</ele><time>2026-04-23T10:52:59.999Z</time></trkpt><trkpt lat="32.47813014197143" lon="-7.9251893793668176"><ele>489.5</ele><time>2026-04-23T10:53:00.999Z</time></trkpt><trkpt lat="32.47782107037072" lon="-7.925186747931273"><ele>492.0</ele><time>2026-04-23T10:53:01.999Z</time></trkpt><trkpt lat="32.47750554953151" lon="-7.925199457691232"><ele>492.0</ele><time>2026-04-23T10:53:02.999Z</time></trkpt><trkpt lat="32.47719304536892" lon="-7.92521961852802"><ele>492.0</ele><time>2026-04-23T10:53:03.999Z</time></trkpt><trkpt lat="32.47689017280153" lon="-7.925241709607648"><ele>494.5</ele><time>2026-04-23T10:53:04.999Z</time></trkpt><trkpt lat="32.476584684685434" lon="-7.9252731202780025"><ele>497.0</ele><time>2026-04-23T10:53:05.999Z</time></trkpt><trkpt lat="32.47628161110039" lon="-7.925302293814182"><ele>502.5</ele><time>2026-04-23T10:53:06.999Z</time></trkpt><trkpt lat="32.47597698633502" lon="-7.925317070745766"><ele>508.0</ele><time>2026-04-23T10:53:07.999Z</time></trkpt><trkpt lat="32.475669752763814" lon="-7.925332118405391"><ele>510.5</ele><time>2026-04-23T10:53:08.999Z</time></trkpt><trkpt lat="32.47536701378449" lon="-7.925390001272142"><ele>513.0</ele><time>2026-04-23T10:53:09.999Z</time></trkpt><trkpt lat="32.47506522526913" lon="-7.925419345605562"><ele>513.0</ele><time>2026-04-23T10:53:10.999Z</time></trkpt><trkpt lat="32.47477040570625" lon="-7.925450147495"><ele>513.0</ele><time>2026-04-23T10:53:11.999Z</time></trkpt><trkpt lat="32.474482544479734" lon="-7.925490394500892"><ele>508.5</ele><time>2026-04-23T10:53:12.999Z</time></trkpt><trkpt lat="32.47420706849525" lon="-7.925525457371841"><ele>504.0</ele><time>2026-04-23T10:53:13.999Z</time></trkpt><trkpt lat="32.47393538439987" lon="-7.925564185159331"><ele>500.5</ele><time>2026-04-23T10:53:14.999Z</time></trkpt><trkpt lat="32.473652439698505" lon="-7.925612619073982"><ele>497.0</ele><time>2026-04-23T10:53:15.999Z</time></trkpt><trkpt lat="32.4733697680621" lon="-7.925661064719926"><ele>497.0</ele><time>2026-04-23T10:53:16.999Z</time></trkpt><trkpt lat="32.47308492864285" lon="-7.925713578295196"><ele>497.0</ele><time>2026-04-23T10:53:17.999Z</time></trkpt><trkpt lat="32.47279060177982" lon="-7.925773004774286"><ele>498.5</ele><time>2026-04-23T10:53:18.999Z</time></trkpt><trkpt lat="32.47249539923366" lon="-7.925837302393061"><ele>500.0</ele><time>2026-04-23T10:53:19.999Z</time></trkpt><trkpt lat="32.472198964170744" lon="-7.925906041934876"><ele>497.5</ele><time>2026-04-23T10:53:20.999Z</time></trkpt><trkpt lat="32.4719064613909" lon="-7.925978587398656"><ele>495.0</ele><time>2026-04-23T10:53:21.999Z</time></trkpt><trkpt lat="32.47161560961769" lon="-7.926060191086319"><ele>495.0</ele><time>2026-04-23T10:53:22.999Z</time></trkpt><trkpt lat="32.47133074566839" lon="-7.9261391933922996"><ele>495.0</ele><time>2026-04-23T10:53:23.999Z</time></trkpt><trkpt lat="32.471050680222454" lon="-7.926220726522088"><ele>493.5</ele><time>2026-04-23T10:53:24.999Z</time></trkpt><trkpt lat="32.470774464384995" lon="-7.926306341941878"><ele>492.0</ele><time>2026-04-23T10:53:25.999Z</time></trkpt><trkpt lat="32.47049339165445" lon="-7.926391758305633"><ele>492.0</ele><time>2026-04-23T10:53:26.999Z</time></trkpt><trkpt lat="32.470211424935975" lon="-7.926477728612229"><ele>492.0</ele><time>2026-04-23T10:53:27.999Z</time></trkpt><trkpt lat="32.469922438164076" lon="-7.926571542246999"><ele>492.0</ele><time>2026-04-23T10:53:28.999Z</time></trkpt><trkpt lat="32.46963316698571" lon="-7.926667121708287"><ele>492.0</ele><time>2026-04-23T10:53:29.999Z</time></trkpt><trkpt lat="32.46934339179511" lon="-7.926770792031983"><ele>493.5</ele><time>2026-04-23T10:53:30.999Z</time></trkpt><trkpt lat="32.46904977146548" lon="-7.926886262504458"><ele>495.0</ele><time>2026-04-23T10:53:31.999Z</time></trkpt><trkpt lat="32.46875534144196" lon="-7.927000752130595"><ele>497.0</ele><time>2026-04-23T10:53:33Z</time></trkpt><trkpt lat="32.46847083724465" lon="-7.927116024981206"><ele>499.0</ele><time>2026-04-23T10:53:34Z</time></trkpt><trkpt lat="32.46819339398796" lon="-7.927234641210693"><ele>499.5</ele><time>2026-04-23T10:53:35Z</time></trkpt><trkpt lat="32.467919861364884" lon="-7.927356394214377"><ele>500.0</ele><time>2026-04-23T10:53:36Z</time></trkpt><trkpt lat="32.46764966788154" lon="-7.927478315596801"><ele>501.0</ele><time>2026-04-23T10:53:37Z</time></trkpt><trkpt lat="32.467380172277885" lon="-7.927602270408527"><ele>502.0</ele><time>2026-04-23T10:53:38Z</time></trkpt><trkpt lat="32.467108328108424" lon="-7.927730762988881"><ele>503.0</ele><time>2026-04-23T10:53:39Z</time></trkpt><trkpt lat="32.4668309845442" lon="-7.927865671814132"><ele>504.0</ele><time>2026-04-23T10:53:40Z</time></trkpt><trkpt lat="32.466551798938255" lon="-7.927999844765641"><ele>505.0</ele><time>2026-04-23T10:53:41Z</time></trkpt><trkpt lat="32.46626405767367" lon="-7.928140573580807"><ele>506.0</ele><time>2026-04-23T10:53:42Z</time></trkpt><trkpt lat="32.46597932781269" lon="-7.928279821904146"><ele>508.5</ele><time>2026-04-23T10:53:43Z</time></trkpt><trkpt lat="32.46569470866862" lon="-7.928418360184576"><ele>511.0</ele><time>2026-04-23T10:53:44Z</time></trkpt><trkpt lat="32.46540679044965" lon="-7.928554666395831"><ele>511.5</ele><time>2026-04-23T10:53:45Z</time></trkpt><trkpt lat="32.46512223379804" lon="-7.928695128216849"><ele>512.0</ele><time>2026-04-23T10:53:46Z</time></trkpt><trkpt lat="32.46483898298116" lon="-7.92883285461236"><ele>512.5</ele><time>2026-04-23T10:53:47Z</time></trkpt><trkpt lat="32.464557951628436" lon="-7.928969817584076"><ele>513.0</ele><time>2026-04-23T10:53:48Z</time></trkpt><trkpt lat="32.46427421070117" lon="-7.929098414201305"><ele>513.0</ele><time>2026-04-23T10:53:49Z</time></trkpt><trkpt lat="32.4639851138533" lon="-7.929224209019097"><ele>513.0</ele><time>2026-04-23T10:53:50Z</time></trkpt><trkpt lat="32.46369778699634" lon="-7.92934266057247"><ele>512.0</ele><time>2026-04-23T10:53:51Z</time></trkpt><trkpt lat="32.46341292856951" lon="-7.9294624364165305"><ele>511.0</ele><time>2026-04-23T10:53:52Z</time></trkpt><trkpt lat="32.46312955398865" lon="-7.929573511989319"><ele>510.0</ele><time>2026-04-23T10:53:53Z</time></trkpt><trkpt lat="32.46283784924059" lon="-7.929687053956484"><ele>509.0</ele><time>2026-04-23T10:53:54Z</time></trkpt><trkpt lat="32.462545601328166" lon="-7.929795522317447"><ele>509.0</ele><time>2026-04-23T10:53:55Z</time></trkpt><trkpt lat="32.46224884708379" lon="-7.92990402371306"><ele>509.0</ele><time>2026-04-23T10:53:56Z</time></trkpt><trkpt lat="32.461955966446396" lon="-7.930009376908141"><ele>509.5</ele><time>2026-04-23T10:53:57Z</time></trkpt><trkpt lat="32.46166742031461" lon="-7.930103655444844"><ele>510.0</ele><time>2026-04-23T10:53:58Z</time></trkpt><trkpt lat="32.46137725988985" lon="-7.930194798748864"><ele>512.5</ele><time>2026-04-23T10:53:59Z</time></trkpt><trkpt lat="32.46108519553233" lon="-7.930284838758374"><ele>515.0</ele><time>2026-04-23T10:54:00Z</time></trkpt><trkpt lat="32.460789779881736" lon="-7.930372427491903"><ele>515.0</ele><time>2026-04-23T10:54:01Z</time></trkpt><trkpt lat="32.460492388622306" lon="-7.930459681042415"><ele>515.0</ele><time>2026-04-23T10:54:02Z</time></trkpt><trkpt lat="32.460195691483385" lon="-7.9305381523504455"><ele>517.0</ele><time>2026-04-23T10:54:03Z</time></trkpt><trkpt lat="32.45989889181745" lon="-7.930617250680943"><ele>519.0</ele><time>2026-04-23T10:54:04Z</time></trkpt><trkpt lat="32.45960127557702" lon="-7.93070031138762"><ele>519.0</ele><time>2026-04-23T10:54:05Z</time></trkpt><trkpt lat="32.459302188582534" lon="-7.930774828855135"><ele>519.0</ele><time>2026-04-23T10:54:06Z</time></trkpt><trkpt lat="32.458999483984776" lon="-7.930837840217032"><ele>519.5</ele><time>2026-04-23T10:54:07Z</time></trkpt><trkpt lat="32.45869487514568" lon="-7.930897281065914"><ele>520.0</ele><time>2026-04-23T10:54:08Z</time></trkpt><trkpt lat="32.458390327581014" lon="-7.9309480661734515"><ele>520.0</ele><time>2026-04-23T10:54:09Z</time></trkpt><trkpt lat="32.458087207028726" lon="-7.93099964460272"><ele>520.0</ele><time>2026-04-23T10:54:10Z</time></trkpt><trkpt lat="32.45777891263411" lon="-7.931045561115167"><ele>518.5</ele><time>2026-04-23T10:54:11Z</time></trkpt><trkpt lat="32.45747333627474" lon="-7.9310849226138584"><ele>517.0</ele><time>2026-04-23T10:54:12Z</time></trkpt><trkpt lat="32.45716811897428" lon="-7.931120490077531"><ele>518.0</ele><time>2026-04-23T10:54:13Z</time></trkpt><trkpt lat="32.456860454555" lon="-7.931151308002397"><ele>519.0</ele><time>2026-04-23T10:54:14Z</time></trkpt><trkpt lat="32.45655666882089" lon="-7.931176324097096"><ele>515.5</ele><time>2026-04-23T10:54:15Z</time></trkpt><trkpt lat="32.45625239235577" lon="-7.931204544925386"><ele>512.0</ele><time>2026-04-23T10:54:16Z</time></trkpt><trkpt lat="32.45594578890516" lon="-7.931228235615704"><ele>512.0</ele><time>2026-04-23T10:54:17Z</time></trkpt><trkpt lat="32.4556412506007" lon="-7.931247265043321"><ele>512.0</ele><time>2026-04-23T10:54:18Z</time></trkpt><trkpt lat="32.45533664205371" lon="-7.931265874279075"><ele>511.5</ele><time>2026-04-23T10:54:19Z</time></trkpt><trkpt lat="32.45502721127511" lon="-7.93127963322692"><ele>511.0</ele><time>2026-04-23T10:54:20Z</time></trkpt><trkpt lat="32.45472116206144" lon="-7.931293203706321"><ele>512.0</ele><time>2026-04-23T10:54:21Z</time></trkpt><trkpt lat="32.45441536278402" lon="-7.931312644845902"><ele>513.0</ele><time>2026-04-23T10:54:21.999Z</time></trkpt><trkpt lat="32.45411241654934" lon="-7.93133054275293"><ele>513.0</ele><time>2026-04-23T10:54:22.999Z</time></trkpt><trkpt lat="32.453804042480826" lon="-7.931354448719543"><ele>513.0</ele><time>2026-04-23T10:54:23.999Z</time></trkpt><trkpt lat="32.4534986796392" lon="-7.931374827174205"><ele>512.5</ele><time>2026-04-23T10:54:24.999Z</time></trkpt><trkpt lat="32.453192561328336" lon="-7.9313878593992335"><ele>512.0</ele><time>2026-04-23T10:54:25.999Z</time></trkpt><trkpt lat="32.452889810360276" lon="-7.931397987026187"><ele>512.0</ele><time>2026-04-23T10:54:26.999Z</time></trkpt><trkpt lat="32.4525766647179" lon="-7.9314093201835405"><ele>512.0</ele><time>2026-04-23T10:54:27.999Z</time></trkpt><trkpt lat="32.45227242603868" lon="-7.931425166341118"><ele>511.5</ele><time>2026-04-23T10:54:28.999Z</time></trkpt><trkpt lat="32.45196611842635" lon="-7.931446433455978"><ele>511.0</ele><time>2026-04-23T10:54:29.999Z</time></trkpt><trkpt lat="32.45165839585588" lon="-7.931460824741142"><ele>511.0</ele><time>2026-04-23T10:54:30.999Z</time></trkpt><trkpt lat="32.451350052704015" lon="-7.931474032640686"><ele>511.0</ele><time>2026-04-23T10:54:31.999Z</time></trkpt><trkpt lat="32.45104298977553" lon="-7.931488479667937"><ele>512.0</ele><time>2026-04-23T10:54:32.999Z</time></trkpt><trkpt lat="32.450736508832655" lon="-7.931502750436742"><ele>513.0</ele><time>2026-04-23T10:54:33.999Z</time></trkpt><trkpt lat="32.4504293537863" lon="-7.931518559849371"><ele>515.5</ele><time>2026-04-23T10:54:34.999Z</time></trkpt><trkpt lat="32.4501231888637" lon="-7.93153393966905"><ele>518.0</ele><time>2026-04-23T10:54:35.999Z</time></trkpt><trkpt lat="32.44981706205932" lon="-7.9315478807022695"><ele>518.5</ele><time>2026-04-23T10:54:36.999Z</time></trkpt><trkpt lat="32.449509180428386" lon="-7.931564803103387"><ele>519.0</ele><time>2026-04-23T10:54:37.999Z</time></trkpt><trkpt lat="32.44920382077407" lon="-7.931585433014147"><ele>519.0</ele><time>2026-04-23T10:54:38.999Z</time></trkpt><trkpt lat="32.448899356266864" lon="-7.931601749232116"><ele>519.0</ele><time>2026-04-23T10:54:39.999Z</time></trkpt><trkpt lat="32.448595883011876" lon="-7.931614609961606"><ele>518.5</ele><time>2026-04-23T10:54:40.999Z</time></trkpt><trkpt lat="32.448291888513786" lon="-7.931623902772332"><ele>518.0</ele><time>2026-04-23T10:54:41.999Z</time></trkpt><trkpt lat="32.447991044500924" lon="-7.931633649708938"><ele>517.5</ele><time>2026-04-23T10:54:42.999Z</time></trkpt><trkpt lat="32.44768608449617" lon="-7.931648441063884"><ele>517.0</ele><time>2026-04-23T10:54:43.999Z</time></trkpt><trkpt lat="32.44738620419837" lon="-7.9316667103278125"><ele>517.0</ele><time>2026-04-23T10:54:44.999Z</time></trkpt><trkpt lat="32.44708568499321" lon="-7.931683079002691"><ele>517.0</ele><time>2026-04-23T10:54:45.999Z</time></trkpt><trkpt lat="32.446783588997796" lon="-7.931702111404004"><ele>517.0</ele><time>2026-04-23T10:54:46.999Z</time></trkpt><trkpt lat="32.446482836630835" lon="-7.93171822854365"><ele>517.0</ele><time>2026-04-23T10:54:47.999Z</time></trkpt><trkpt lat="32.446180581990134" lon="-7.9317332893460835"><ele>520.0</ele><time>2026-04-23T10:54:48.999Z</time></trkpt><trkpt lat="32.44587987502825" lon="-7.931744802031132"><ele>523.0</ele><time>2026-04-23T10:54:49.999Z</time></trkpt><trkpt lat="32.44557681021964" lon="-7.93176156046754"><ele>524.5</ele><time>2026-04-23T10:54:50.999Z</time></trkpt><trkpt lat="32.445274750437925" lon="-7.931779418327948"><ele>526.0</ele><time>2026-04-23T10:54:51.999Z</time></trkpt><trkpt lat="32.44497391673878" lon="-7.931796782831746"><ele>526.0</ele><time>2026-04-23T10:54:52.999Z</time></trkpt><trkpt lat="32.44467400059553" lon="-7.931810438074861"><ele>526.0</ele><time>2026-04-23T10:54:53.999Z</time></trkpt><trkpt lat="32.44437166115209" lon="-7.931826330812487"><ele>526.5</ele><time>2026-04-23T10:54:54.999Z</time></trkpt><trkpt lat="32.444069413245266" lon="-7.931841510333068"><ele>527.0</ele><time>2026-04-23T10:54:55.999Z</time></trkpt><trkpt lat="32.44376767377931" lon="-7.931853225610351"><ele>526.0</ele><time>2026-04-23T10:54:56.999Z</time></trkpt><trkpt lat="32.44346602691481" lon="-7.931870442347547"><ele>525.0</ele><time>2026-04-23T10:54:57.999Z</time></trkpt><trkpt lat="32.443162855828824" lon="-7.931885767930349"><ele>525.5</ele><time>2026-04-23T10:54:58.999Z</time></trkpt><trkpt lat="32.44286131344021" lon="-7.931905386422255"><ele>526.0</ele><time>2026-04-23T10:54:59.999Z</time></trkpt><trkpt lat="32.442561222778515" lon="-7.931920036404386"><ele>526.0</ele><time>2026-04-23T10:55:00.999Z</time></trkpt><trkpt lat="32.44225999014516" lon="-7.931930979858914"><ele>526.0</ele><time>2026-04-23T10:55:01.999Z</time></trkpt><trkpt lat="32.44196021059105" lon="-7.9319371775466"><ele>528.5</ele><time>2026-04-23T10:55:02.999Z</time></trkpt><trkpt lat="32.44166175886104" lon="-7.931938075623101"><ele>531.0</ele><time>2026-04-23T10:55:03.999Z</time></trkpt><trkpt lat="32.44135830156636" lon="-7.93193447155722"><ele>530.0</ele><time>2026-04-23T10:55:04.999Z</time></trkpt><trkpt lat="32.44105716033004" lon="-7.931933312711245"><ele>529.0</ele><time>2026-04-23T10:55:05.999Z</time></trkpt><trkpt lat="32.44075413748353" lon="-7.931924453638437"><ele>529.0</ele><time>2026-04-23T10:55:06.999Z</time></trkpt><trkpt lat="32.44045212124628" lon="-7.931920203471794"><ele>529.0</ele><time>2026-04-23T10:55:07.999Z</time></trkpt><trkpt lat="32.44015435926471" lon="-7.93190947019468"><ele>529.0</ele><time>2026-04-23T10:55:08.999Z</time></trkpt><trkpt lat="32.43985309667269" lon="-7.931892489273934"><ele>529.0</ele><time>2026-04-23T10:55:09.999Z</time></trkpt><trkpt lat="32.43955115508584" lon="-7.931870650862529"><ele>528.5</ele><time>2026-04-23T10:55:10.999Z</time></trkpt><trkpt lat="32.439251259893325" lon="-7.9318503972165075"><ele>528.0</ele><time>2026-04-23T10:55:11.999Z</time></trkpt><trkpt lat="32.43895085953795" lon="-7.93182810992371"><ele>527.0</ele><time>2026-04-23T10:55:12.999Z</time></trkpt><trkpt lat="32.4386487693212" lon="-7.931809120807044"><ele>526.0</ele><time>2026-04-23T10:55:13.999Z</time></trkpt><trkpt lat="32.43834494994191" lon="-7.931790137187078"><ele>526.0</ele><time>2026-04-23T10:55:14.999Z</time></trkpt><trkpt lat="32.43804486031437" lon="-7.93177499759295"><ele>526.0</ele><time>2026-04-23T10:55:15.999Z</time></trkpt><trkpt lat="32.43774546223271" lon="-7.931759903175099"><ele>524.5</ele><time>2026-04-23T10:55:16.999Z</time></trkpt><trkpt lat="32.43744571940104" lon="-7.931743536298827"><ele>523.0</ele><time>2026-04-23T10:55:17.999Z</time></trkpt><trkpt lat="32.43714241041637" lon="-7.931726870017447"><ele>523.5</ele><time>2026-04-23T10:55:18.999Z</time></trkpt><trkpt lat="32.436840224876235" lon="-7.9317051034986275"><ele>524.0</ele><time>2026-04-23T10:55:19.999Z</time></trkpt><trkpt lat="32.4365375774197" lon="-7.931683958980152"><ele>522.0</ele><time>2026-04-23T10:55:20.999Z</time></trkpt><trkpt lat="32.436236529382036" lon="-7.931665639038423"><ele>520.0</ele><time>2026-04-23T10:55:21.999Z</time></trkpt><trkpt lat="32.43593471545711" lon="-7.93164462473326"><ele>520.0</ele><time>2026-04-23T10:55:22.999Z</time></trkpt><trkpt lat="32.43563501745943" lon="-7.931627977803047"><ele>520.0</ele><time>2026-04-23T10:55:23.999Z</time></trkpt><trkpt lat="32.43533740437124" lon="-7.93161360351703"><ele>519.5</ele><time>2026-04-23T10:55:24.999Z</time></trkpt><trkpt lat="32.43503710696853" lon="-7.9315927757712235"><ele>519.0</ele><time>2026-04-23T10:55:25.999Z</time></trkpt><trkpt lat="32.43473688532341" lon="-7.931572167716721"><ele>519.0</ele><time>2026-04-23T10:55:26.999Z</time></trkpt><trkpt lat="32.434438889219315" lon="-7.931554299666519"><ele>519.0</ele><time>2026-04-23T10:55:27.999Z</time></trkpt><trkpt lat="32.43413757697545" lon="-7.931532099404033"><ele>519.0</ele><time>2026-04-23T10:55:28.999Z</time></trkpt><trkpt lat="32.43383676446165" lon="-7.931507007070041"><ele>519.0</ele><time>2026-04-23T10:55:29.999Z</time></trkpt><trkpt lat="32.43353652346245" lon="-7.931482092252409"><ele>518.5</ele><time>2026-04-23T10:55:30.999Z</time></trkpt><trkpt lat="32.433237166908974" lon="-7.931456612355748"><ele>518.0</ele><time>2026-04-23T10:55:31.999Z</time></trkpt><trkpt lat="32.43293880516935" lon="-7.931433520202732"><ele>518.0</ele><time>2026-04-23T10:55:32.999Z</time></trkpt><trkpt lat="32.432639613179035" lon="-7.931409532524992"><ele>518.0</ele><time>2026-04-23T10:55:33.999Z</time></trkpt><trkpt lat="32.43234114571698" lon="-7.931385470595947"><ele>516.0</ele><time>2026-04-23T10:55:34.999Z</time></trkpt><trkpt lat="32.432043166028514" lon="-7.931364348705587"><ele>514.0</ele><time>2026-04-23T10:55:35.999Z</time></trkpt><trkpt lat="32.43174276836337" lon="-7.931342467276975"><ele>514.0</ele><time>2026-04-23T10:55:36.999Z</time></trkpt><trkpt lat="32.431446376823075" lon="-7.931318020586929"><ele>514.0</ele><time>2026-04-23T10:55:38Z</time></trkpt><trkpt lat="32.43114749568068" lon="-7.931294458141795"><ele>513.0</ele><time>2026-04-23T10:55:39Z</time></trkpt><trkpt lat="32.430846593904036" lon="-7.93127392362902"><ele>512.0</ele><time>2026-04-23T10:55:40Z</time></trkpt><trkpt lat="32.43054656851798" lon="-7.931258347907223"><ele>509.5</ele><time>2026-04-23T10:55:41Z</time></trkpt><trkpt lat="32.43024840108888" lon="-7.931241923994084"><ele>507.0</ele><time>2026-04-23T10:55:42Z</time></trkpt><trkpt lat="32.42994761334869" lon="-7.931232163779185"><ele>507.0</ele><time>2026-04-23T10:55:43Z</time></trkpt><trkpt lat="32.429648298204214" lon="-7.931230175414554"><ele>507.0</ele><time>2026-04-23T10:55:44Z</time></trkpt><trkpt lat="32.42934816377735" lon="-7.931228031812503"><ele>506.0</ele><time>2026-04-23T10:55:45Z</time></trkpt><trkpt lat="32.42904920837882" lon="-7.931234914849533"><ele>505.0</ele><time>2026-04-23T10:55:46Z</time></trkpt><trkpt lat="32.42875120321927" lon="-7.9312497003499605"><ele>505.0</ele><time>2026-04-23T10:55:47Z</time></trkpt><trkpt lat="32.42845396663492" lon="-7.931272075652126"><ele>505.0</ele><time>2026-04-23T10:55:48Z</time></trkpt><trkpt lat="32.4281557510025" lon="-7.931294631008789"><ele>504.0</ele><time>2026-04-23T10:55:49Z</time></trkpt><trkpt lat="32.42785360794119" lon="-7.931317315503756"><ele>503.0</ele><time>2026-04-23T10:55:50Z</time></trkpt><trkpt lat="32.42755366183855" lon="-7.931348327715523"><ele>503.0</ele><time>2026-04-23T10:55:51Z</time></trkpt><trkpt lat="32.42725494851483" lon="-7.9313879858650935"><ele>503.0</ele><time>2026-04-23T10:55:52Z</time></trkpt><trkpt lat="32.42695335145261" lon="-7.931437894138441"><ele>503.0</ele><time>2026-04-23T10:55:53Z</time></trkpt><trkpt lat="32.42665333982723" lon="-7.9314980593275415"><ele>503.0</ele><time>2026-04-23T10:55:54Z</time></trkpt><trkpt lat="32.42635694754744" lon="-7.931558378678996"><ele>503.0</ele><time>2026-04-23T10:55:55Z</time></trkpt><trkpt lat="32.42606018890331" lon="-7.9316231419854795"><ele>503.0</ele><time>2026-04-23T10:55:56Z</time></trkpt><trkpt lat="32.425763970669124" lon="-7.931692625696074"><ele>502.5</ele><time>2026-04-23T10:55:57Z</time></trkpt><trkpt lat="32.425466935062445" lon="-7.931765593068363"><ele>502.0</ele><time>2026-04-23T10:55:58Z</time></trkpt><trkpt lat="32.425174890927174" lon="-7.931844629330522"><ele>502.0</ele><time>2026-04-23T10:55:59Z</time></trkpt><trkpt lat="32.42488078703464" lon="-7.931933467535326"><ele>502.0</ele><time>2026-04-23T10:56:00Z</time></trkpt><trkpt lat="32.4245924501028" lon="-7.932024881173916"><ele>503.0</ele><time>2026-04-23T10:56:01Z</time></trkpt><trkpt lat="32.42430215994248" lon="-7.932126448793275"><ele>504.0</ele><time>2026-04-23T10:56:02Z</time></trkpt><trkpt lat="32.424011466013646" lon="-7.932236636555759"><ele>503.0</ele><time>2026-04-23T10:56:03Z</time></trkpt><trkpt lat="32.423725751341514" lon="-7.932349294708143"><ele>502.0</ele><time>2026-04-23T10:56:04Z</time></trkpt><trkpt lat="32.42344270208749" lon="-7.9324680947737605"><ele>503.0</ele><time>2026-04-23T10:56:05Z</time></trkpt><trkpt lat="32.4231606460697" lon="-7.932590781996404"><ele>504.0</ele><time>2026-04-23T10:56:06Z</time></trkpt><trkpt lat="32.42288027304115" lon="-7.932723293011705"><ele>501.5</ele><time>2026-04-23T10:56:07Z</time></trkpt><trkpt lat="32.4226026566841" lon="-7.932858081862832"><ele>499.0</ele><time>2026-04-23T10:56:08Z</time></trkpt><trkpt lat="32.422329078509506" lon="-7.932999932571234"><ele>497.0</ele><time>2026-04-23T10:56:09Z</time></trkpt><trkpt lat="32.42205570670829" lon="-7.933141822022154"><ele>495.0</ele><time>2026-04-23T10:56:10Z</time></trkpt><trkpt lat="32.42178296068368" lon="-7.933292831740336"><ele>493.0</ele><time>2026-04-23T10:56:11Z</time></trkpt><trkpt lat="32.42151376139387" lon="-7.933446124239939"><ele>491.0</ele><time>2026-04-23T10:56:12Z</time></trkpt><trkpt lat="32.421239177287624" lon="-7.933597036322975"><ele>491.0</ele><time>2026-04-23T10:56:13Z</time></trkpt><trkpt lat="32.42096947915033" lon="-7.933755681282389"><ele>491.0</ele><time>2026-04-23T10:56:14Z</time></trkpt><trkpt lat="32.42069602575622" lon="-7.933913516063834"><ele>492.0</ele><time>2026-04-23T10:56:15Z</time></trkpt><trkpt lat="32.42042553806494" lon="-7.93406848917962"><ele>493.0</ele><time>2026-04-23T10:56:16Z</time></trkpt><trkpt lat="32.420156622672444" lon="-7.93422402336335"><ele>492.0</ele><time>2026-04-23T10:56:17Z</time></trkpt><trkpt lat="32.419886620174964" lon="-7.934380250472532"><ele>491.0</ele><time>2026-04-23T10:56:18Z</time></trkpt><trkpt lat="32.419618864011234" lon="-7.934534521042249"><ele>491.0</ele><time>2026-04-23T10:56:18.999Z</time></trkpt><trkpt lat="32.41934720500704" lon="-7.934692858380921"><ele>491.0</ele><time>2026-04-23T10:56:19.999Z</time></trkpt><trkpt lat="32.41907534103324" lon="-7.93484598942062"><ele>491.0</ele><time>2026-04-23T10:56:20.999Z</time></trkpt><trkpt lat="32.418809370926425" lon="-7.9349993975896815"><ele>491.0</ele><time>2026-04-23T10:56:21.999Z</time></trkpt><trkpt lat="32.418548370127475" lon="-7.935153584992532"><ele>491.0</ele><time>2026-04-23T10:56:22.999Z</time></trkpt><trkpt lat="32.418280082369286" lon="-7.93531222662268"><ele>491.0</ele><time>2026-04-23T10:56:23.999Z</time></trkpt><trkpt lat="32.41801508699856" lon="-7.9354648377834645"><ele>494.0</ele><time>2026-04-23T10:56:24.999Z</time></trkpt><trkpt lat="32.41774845639347" lon="-7.9356146117769555"><ele>497.0</ele><time>2026-04-23T10:56:25.999Z</time></trkpt><trkpt lat="32.417484663507125" lon="-7.935773741872801"><ele>496.5</ele><time>2026-04-23T10:56:26.999Z</time></trkpt><trkpt lat="32.417218088641" lon="-7.935926493915873"><ele>496.0</ele><time>2026-04-23T10:56:27.999Z</time></trkpt><trkpt lat="32.416956120773904" lon="-7.936077888012784"><ele>498.0</ele><time>2026-04-23T10:56:28.999Z</time></trkpt><trkpt lat="32.416687076427806" lon="-7.9362313558203175"><ele>500.0</ele><time>2026-04-23T10:56:29.999Z</time></trkpt><trkpt lat="32.41642110214013" lon="-7.936380218876062"><ele>498.5</ele><time>2026-04-23T10:56:30.999Z</time></trkpt><trkpt lat="32.41615793332727" lon="-7.936531025270017"><ele>497.0</ele><time>2026-04-23T10:56:31.999Z</time></trkpt><trkpt lat="32.415887501318615" lon="-7.936678862312175"><ele>495.5</ele><time>2026-04-23T10:56:32.999Z</time></trkpt><trkpt lat="32.41562017161358" lon="-7.9368171264985365"><ele>494.0</ele><time>2026-04-23T10:56:33.999Z</time></trkpt><trkpt lat="32.415350805951476" lon="-7.936950886617518"><ele>493.5</ele><time>2026-04-23T10:56:34.999Z</time></trkpt><trkpt lat="32.4150798904649" lon="-7.937082619869979"><ele>493.0</ele><time>2026-04-23T10:56:35.999Z</time></trkpt><trkpt lat="32.41481163828075" lon="-7.937208093848412"><ele>493.5</ele><time>2026-04-23T10:56:36.999Z</time></trkpt><trkpt lat="32.414544295643104" lon="-7.9373350217668674"><ele>494.0</ele><time>2026-04-23T10:56:37.999Z</time></trkpt><trkpt lat="32.414279257218446" lon="-7.9374549100148455"><ele>494.0</ele><time>2026-04-23T10:56:38.999Z</time></trkpt><trkpt lat="32.41401069804869" lon="-7.937567652396641"><ele>494.0</ele><time>2026-04-23T10:56:39.999Z</time></trkpt><trkpt lat="32.413743082794646" lon="-7.93767820550783"><ele>497.0</ele><time>2026-04-23T10:56:40.999Z</time></trkpt><trkpt lat="32.413467461977184" lon="-7.937786305217526"><ele>500.0</ele><time>2026-04-23T10:56:41.999Z</time></trkpt><trkpt lat="32.41318749409849" lon="-7.937892353586742"><ele>500.5</ele><time>2026-04-23T10:56:42.999Z</time></trkpt><trkpt lat="32.41290200871721" lon="-7.938000864415745"><ele>501.0</ele><time>2026-04-23T10:56:43.999Z</time></trkpt><trkpt lat="32.41261467501759" lon="-7.938104100872194"><ele>501.0</ele><time>2026-04-23T10:56:44.999Z</time></trkpt><trkpt lat="32.412325082714666" lon="-7.938205955568012"><ele>501.0</ele><time>2026-04-23T10:56:45.999Z</time></trkpt><trkpt lat="32.41203443251041" lon="-7.93829813976222"><ele>504.0</ele><time>2026-04-23T10:56:46.999Z</time></trkpt><trkpt lat="32.41174165133934" lon="-7.938385711307338"><ele>507.0</ele><time>2026-04-23T10:56:47.999Z</time></trkpt><trkpt lat="32.4114524506269" lon="-7.938469851635219"><ele>510.0</ele><time>2026-04-23T10:56:48.999Z</time></trkpt><trkpt lat="32.411160688171506" lon="-7.93855003793963"><ele>513.0</ele><time>2026-04-23T10:56:49.999Z</time></trkpt><trkpt lat="32.41087064864699" lon="-7.938623657636723"><ele>513.0</ele><time>2026-04-23T10:56:50.999Z</time></trkpt><trkpt lat="32.410576963847284" lon="-7.938689941680448"><ele>513.0</ele><time>2026-04-23T10:56:51.999Z</time></trkpt><trkpt lat="32.41028123878465" lon="-7.938754631044833"><ele>514.5</ele><time>2026-04-23T10:56:52.999Z</time></trkpt><trkpt lat="32.40998860951071" lon="-7.9388121604413096"><ele>516.0</ele><time>2026-04-23T10:56:53.999Z</time></trkpt><trkpt lat="32.40968984538638" lon="-7.938866032830544"><ele>514.0</ele><time>2026-04-23T10:56:54.999Z</time></trkpt><trkpt lat="32.40939444331777" lon="-7.93891648935882"><ele>512.0</ele><time>2026-04-23T10:56:55.999Z</time></trkpt><trkpt lat="32.409097914200494" lon="-7.93896141769857"><ele>511.5</ele><time>2026-04-23T10:56:56.999Z</time></trkpt><trkpt lat="32.40880504988506" lon="-7.9390058641292605"><ele>511.0</ele><time>2026-04-23T10:56:57.999Z</time></trkpt><trkpt lat="32.408510916308344" lon="-7.939041389141639"><ele>511.0</ele><time>2026-04-23T10:56:58.999Z</time></trkpt><trkpt lat="32.40821638285894" lon="-7.939071281292128"><ele>511.0</ele><time>2026-04-23T10:56:59.999Z</time></trkpt><trkpt lat="32.40792086964219" lon="-7.9390991437929115"><ele>511.5</ele><time>2026-04-23T10:57:00.999Z</time></trkpt><trkpt lat="32.40763166365852" lon="-7.939124561869537"><ele>512.0</ele><time>2026-04-23T10:57:01.999Z</time></trkpt><trkpt lat="32.40734245429946" lon="-7.93914062083454"><ele>512.5</ele><time>2026-04-23T10:57:02.999Z</time></trkpt><trkpt lat="32.40704880776753" lon="-7.939154487766321"><ele>513.0</ele><time>2026-04-23T10:57:03.999Z</time></trkpt><trkpt lat="32.406763920356255" lon="-7.9391660895217555"><ele>513.0</ele><time>2026-04-23T10:57:04.999Z</time></trkpt><trkpt lat="32.40647516393914" lon="-7.939168367509413"><ele>513.0</ele><time>2026-04-23T10:57:05.999Z</time></trkpt><trkpt lat="32.406195489594964" lon="-7.939169320907287"><ele>514.5</ele><time>2026-04-23T10:57:06.999Z</time></trkpt><trkpt lat="32.405912627263056" lon="-7.939165922013532"><ele>516.0</ele><time>2026-04-23T10:57:07.999Z</time></trkpt><trkpt lat="32.40563081403908" lon="-7.939160460667647"><ele>517.5</ele><time>2026-04-23T10:57:08.999Z</time></trkpt><trkpt lat="32.40535129592986" lon="-7.939145948635893"><ele>519.0</ele><time>2026-04-23T10:57:09.999Z</time></trkpt><trkpt lat="32.405067866982215" lon="-7.939125644131502"><ele>519.0</ele><time>2026-04-23T10:57:10.999Z</time></trkpt><trkpt lat="32.40478235505507" lon="-7.939101235794043"><ele>519.0</ele><time>2026-04-23T10:57:11.999Z</time></trkpt><trkpt lat="32.40449982378854" lon="-7.939072468562005"><ele>520.0</ele><time>2026-04-23T10:57:12.999Z</time></trkpt><trkpt lat="32.40420946070285" lon="-7.939048928595159"><ele>521.0</ele><time>2026-04-23T10:57:13.999Z</time></trkpt><trkpt lat="32.403927831534546" lon="-7.9390196780550975"><ele>521.5</ele><time>2026-04-23T10:57:14.999Z</time></trkpt><trkpt lat="32.40364088569085" lon="-7.93898218994761"><ele>522.0</ele><time>2026-04-23T10:57:15.999Z</time></trkpt><trkpt lat="32.40335256485389" lon="-7.938938550988375"><ele>522.0</ele><time>2026-04-23T10:57:16.999Z</time></trkpt><trkpt lat="32.403062334899246" lon="-7.938887753433872"><ele>522.0</ele><time>2026-04-23T10:57:17.999Z</time></trkpt><trkpt lat="32.4027810951797" lon="-7.938834250300089"><ele>520.5</ele><time>2026-04-23T10:57:18.999Z</time></trkpt><trkpt lat="32.402497070479996" lon="-7.93878061895255"><ele>519.0</ele><time>2026-04-23T10:57:19.999Z</time></trkpt><trkpt lat="32.402206395661324" lon="-7.938718568795954"><ele>519.0</ele><time>2026-04-23T10:57:20.999Z</time></trkpt><trkpt lat="32.401917445741205" lon="-7.938656247309535"><ele>519.0</ele><time>2026-04-23T10:57:21.999Z</time></trkpt><trkpt lat="32.4016299179887" lon="-7.93858536161223"><ele>519.0</ele><time>2026-04-23T10:57:22.999Z</time></trkpt><trkpt lat="32.40134164639991" lon="-7.938512799762054"><ele>519.0</ele><time>2026-04-23T10:57:23.999Z</time></trkpt><trkpt lat="32.401056379624656" lon="-7.938436151125023"><ele>518.0</ele><time>2026-04-23T10:57:24.999Z</time></trkpt><trkpt lat="32.40077068939172" lon="-7.938355239840719"><ele>517.0</ele><time>2026-04-23T10:57:25.999Z</time></trkpt><trkpt lat="32.4004824227259" lon="-7.938270870824413"><ele>517.0</ele><time>2026-04-23T10:57:26.999Z</time></trkpt><trkpt lat="32.40019610623177" lon="-7.938191892015715"><ele>517.0</ele><time>2026-04-23T10:57:27.999Z</time></trkpt><trkpt lat="32.39991207701252" lon="-7.938118083345076"><ele>515.5</ele><time>2026-04-23T10:57:28.999Z</time></trkpt><trkpt lat="32.399627620670856" lon="-7.938039899052257"><ele>514.0</ele><time>2026-04-23T10:57:29.999Z</time></trkpt><trkpt lat="32.39934603839243" lon="-7.937962662165543"><ele>514.0</ele><time>2026-04-23T10:57:30.999Z</time></trkpt><trkpt lat="32.39906069553282" lon="-7.937886291696777"><ele>514.0</ele><time>2026-04-23T10:57:31.999Z</time></trkpt><trkpt lat="32.39877013710405" lon="-7.937809232614874"><ele>511.5</ele><time>2026-04-23T10:57:32.999Z</time></trkpt><trkpt lat="32.398481351914775" lon="-7.937729843687013"><ele>509.0</ele><time>2026-04-23T10:57:33.999Z</time></trkpt><trkpt lat="32.39819353994714" lon="-7.937656565738052"><ele>507.0</ele><time>2026-04-23T10:57:34.998Z</time></trkpt><trkpt lat="32.39789953493824" lon="-7.937574070420673"><ele>505.0</ele><time>2026-04-23T10:57:35.998Z</time></trkpt><trkpt lat="32.39760685457825" lon="-7.93749865488309"><ele>504.5</ele><time>2026-04-23T10:57:36.998Z</time></trkpt><trkpt lat="32.397313770731955" lon="-7.93741690482615"><ele>504.0</ele><time>2026-04-23T10:57:37.998Z</time></trkpt><trkpt lat="32.39701741285128" lon="-7.937334458646275"><ele>502.0</ele><time>2026-04-23T10:57:38.998Z</time></trkpt><trkpt lat="32.39672785662551" lon="-7.937252448531391"><ele>500.0</ele><time>2026-04-23T10:57:39.998Z</time></trkpt><trkpt lat="32.39643652477632" lon="-7.937170197110845"><ele>498.0</ele><time>2026-04-23T10:57:40.998Z</time></trkpt><trkpt lat="32.3961448706977" lon="-7.937087760338222"><ele>496.0</ele><time>2026-04-23T10:57:41.998Z</time></trkpt><trkpt lat="32.395852208107" lon="-7.937007977245406"><ele>496.0</ele><time>2026-04-23T10:57:42.998Z</time></trkpt><trkpt lat="32.395561492118794" lon="-7.936929568902967"><ele>496.0</ele><time>2026-04-23T10:57:44Z</time></trkpt><trkpt lat="32.39526682022038" lon="-7.936849444891292"><ele>496.0</ele><time>2026-04-23T10:57:45Z</time></trkpt><trkpt lat="32.39497521836529" lon="-7.936772660751187"><ele>496.0</ele><time>2026-04-23T10:57:46Z</time></trkpt><trkpt lat="32.39467882088189" lon="-7.936692924489105"><ele>497.5</ele><time>2026-04-23T10:57:47Z</time></trkpt><trkpt lat="32.39438650160601" lon="-7.936614468823611"><ele>499.0</ele><time>2026-04-23T10:57:48Z</time></trkpt><trkpt lat="32.394092396151635" lon="-7.93653464859532"><ele>499.5</ele><time>2026-04-23T10:57:49Z</time></trkpt><trkpt lat="32.39380087822072" lon="-7.936457529682389"><ele>500.0</ele><time>2026-04-23T10:57:50Z</time></trkpt><trkpt lat="32.39350626100814" lon="-7.93637396562603"><ele>500.0</ele><time>2026-04-23T10:57:51Z</time></trkpt><trkpt lat="32.39321218857973" lon="-7.936297530986731"><ele>500.0</ele><time>2026-04-23T10:57:52Z</time></trkpt><trkpt lat="32.39292110768774" lon="-7.93621678019291"><ele>498.5</ele><time>2026-04-23T10:57:53Z</time></trkpt><trkpt lat="32.392629481988344" lon="-7.936140855511695"><ele>497.0</ele><time>2026-04-23T10:57:54Z</time></trkpt><trkpt lat="32.39233967515898" lon="-7.936060245099197"><ele>495.0</ele><time>2026-04-23T10:57:55Z</time></trkpt><trkpt lat="32.3920488178624" lon="-7.935985648190498"><ele>493.0</ele><time>2026-04-23T10:57:56Z</time></trkpt><trkpt lat="32.39175367572206" lon="-7.935903864068291"><ele>494.0</ele><time>2026-04-23T10:57:57Z</time></trkpt><trkpt lat="32.39146157853784" lon="-7.935820867663247"><ele>495.0</ele><time>2026-04-23T10:57:58Z</time></trkpt><trkpt lat="32.391171132210786" lon="-7.9357390311883425"><ele>495.0</ele><time>2026-04-23T10:57:59Z</time></trkpt><trkpt lat="32.3908735701491" lon="-7.935660576301655"><ele>495.0</ele><time>2026-04-23T10:58:00Z</time></trkpt><trkpt lat="32.390581404731805" lon="-7.935582710460754"><ele>496.5</ele><time>2026-04-23T10:58:01Z</time></trkpt><trkpt lat="32.390289642221525" lon="-7.935506528634592"><ele>498.0</ele><time>2026-04-23T10:58:02Z</time></trkpt><trkpt lat="32.39000065683343" lon="-7.935431711399281"><ele>498.0</ele><time>2026-04-23T10:58:03Z</time></trkpt><trkpt lat="32.38970677861373" lon="-7.935354045900593"><ele>498.0</ele><time>2026-04-23T10:58:04Z</time></trkpt><trkpt lat="32.38941304925234" lon="-7.935275959829384"><ele>498.0</ele><time>2026-04-23T10:58:05Z</time></trkpt><trkpt lat="32.389114709723046" lon="-7.935200010436573"><ele>498.0</ele><time>2026-04-23T10:58:06Z</time></trkpt><trkpt lat="32.38882034149353" lon="-7.935122387013909"><ele>498.0</ele><time>2026-04-23T10:58:07Z</time></trkpt><trkpt lat="32.388528857262735" lon="-7.935049694354157"><ele>498.0</ele><time>2026-04-23T10:58:08Z</time></trkpt><trkpt lat="32.38823771627685" lon="-7.934978094372508"><ele>498.0</ele><time>2026-04-23T10:58:09Z</time></trkpt><trkpt lat="32.38793928617062" lon="-7.93491213491694"><ele>498.0</ele><time>2026-04-23T10:58:10Z</time></trkpt><trkpt lat="32.38764286216954" lon="-7.934849003320932"><ele>498.0</ele><time>2026-04-23T10:58:11Z</time></trkpt><trkpt lat="32.3873506533583" lon="-7.9347927483603495"><ele>498.0</ele><time>2026-04-23T10:58:12Z</time></trkpt><trkpt lat="32.3870500138625" lon="-7.934740677904045"><ele>498.0</ele><time>2026-04-23T10:58:13Z</time></trkpt><trkpt lat="32.386749534037165" lon="-7.934684039841161"><ele>498.0</ele><time>2026-04-23T10:58:14Z</time></trkpt><trkpt lat="32.38644946664254" lon="-7.9346339488526585"><ele>497.5</ele><time>2026-04-23T10:58:15Z</time></trkpt><trkpt lat="32.38614913213486" lon="-7.934584806121731"><ele>497.0</ele><time>2026-04-23T10:58:16Z</time></trkpt><trkpt lat="32.3858501719678" lon="-7.934536703944272"><ele>497.0</ele><time>2026-04-23T10:58:17Z</time></trkpt><trkpt lat="32.38555327297121" lon="-7.934496281012479"><ele>497.0</ele><time>2026-04-23T10:58:18Z</time></trkpt><trkpt lat="32.385251197881594" lon="-7.934457567823201"><ele>497.0</ele><time>2026-04-23T10:58:19Z</time></trkpt><trkpt lat="32.384950157873476" lon="-7.934418893021468"><ele>497.0</ele><time>2026-04-23T10:58:20Z</time></trkpt><trkpt lat="32.38465010099838" lon="-7.934379940884049"><ele>496.5</ele><time>2026-04-23T10:58:21Z</time></trkpt><trkpt lat="32.38434903517005" lon="-7.934344412791268"><ele>496.0</ele><time>2026-04-23T10:58:22Z</time></trkpt><trkpt lat="32.38405075410282" lon="-7.934314685907951"><ele>496.0</ele><time>2026-04-23T10:58:22.999Z</time></trkpt><trkpt lat="32.38375408274845" lon="-7.93428789618996"><ele>496.0</ele><time>2026-04-23T10:58:23.999Z</time></trkpt><trkpt lat="32.38345541586168" lon="-7.934264049454635"><ele>496.0</ele><time>2026-04-23T10:58:24.999Z</time></trkpt><trkpt lat="32.383153944464944" lon="-7.934240487723904"><ele>496.0</ele><time>2026-04-23T10:58:25.999Z</time></trkpt><trkpt lat="32.38285213631059" lon="-7.934227477198541"><ele>496.0</ele><time>2026-04-23T10:58:26.999Z</time></trkpt><trkpt lat="32.38255538028323" lon="-7.9342180186265265"><ele>496.0</ele><time>2026-04-23T10:58:27.999Z</time></trkpt><trkpt lat="32.382254292811865" lon="-7.9342136438579205"><ele>497.5</ele><time>2026-04-23T10:58:28.999Z</time></trkpt><trkpt lat="32.381950588628406" lon="-7.934206665506596"><ele>499.0</ele><time>2026-04-23T10:58:29.999Z</time></trkpt><trkpt lat="32.381647425194146" lon="-7.934208100663643"><ele>500.5</ele><time>2026-04-23T10:58:30.999Z</time></trkpt><trkpt lat="32.38134581307207" lon="-7.934209939816514"><ele>502.0</ele><time>2026-04-23T10:58:31.999Z</time></trkpt><trkpt lat="32.38104542517097" lon="-7.934216007895677"><ele>501.5</ele><time>2026-04-23T10:58:32.999Z</time></trkpt><trkpt lat="32.380745407427405" lon="-7.934226670537803"><ele>501.0</ele><time>2026-04-23T10:58:33.999Z</time></trkpt><trkpt lat="32.3804423380456" lon="-7.93422944753024"><ele>503.0</ele><time>2026-04-23T10:58:34.999Z</time></trkpt><trkpt lat="32.380137604701574" lon="-7.9342393022899"><ele>505.0</ele><time>2026-04-23T10:58:35.999Z</time></trkpt><trkpt lat="32.379839080037584" lon="-7.934252421152895"><ele>505.0</ele><time>2026-04-23T10:58:36.999Z</time></trkpt><trkpt lat="32.37953950675234" lon="-7.93427281254755"><ele>505.0</ele><time>2026-04-23T10:58:37.999Z</time></trkpt><trkpt lat="32.37924060403737" lon="-7.934294867146422"><ele>505.0</ele><time>2026-04-23T10:58:38.999Z</time></trkpt><trkpt lat="32.378937204768015" lon="-7.934316669857975"><ele>505.0</ele><time>2026-04-23T10:58:39.999Z</time></trkpt><trkpt lat="32.378634613990364" lon="-7.934347584758512"><ele>504.0</ele><time>2026-04-23T10:58:40.999Z</time></trkpt><trkpt lat="32.37833495541368" lon="-7.934383524612967"><ele>503.0</ele><time>2026-04-23T10:58:41.999Z</time></trkpt><trkpt lat="32.3780382011897" lon="-7.934421280749096"><ele>501.0</ele><time>2026-04-23T10:58:42.999Z</time></trkpt><trkpt lat="32.3777382748412" lon="-7.934455979511412"><ele>499.0</ele><time>2026-04-23T10:58:43.999Z</time></trkpt><trkpt lat="32.37743919342945" lon="-7.934493933514456"><ele>497.5</ele><time>2026-04-23T10:58:44.999Z</time></trkpt><trkpt lat="32.37714381563344" lon="-7.934542109615734"><ele>496.0</ele><time>2026-04-23T10:58:45.999Z</time></trkpt><trkpt lat="32.37684189780184" lon="-7.934589279841554"><ele>496.0</ele><time>2026-04-23T10:58:46.999Z</time></trkpt><trkpt lat="32.37653718906142" lon="-7.934639546460429"><ele>496.0</ele><time>2026-04-23T10:58:47.999Z</time></trkpt><trkpt lat="32.376239748417696" lon="-7.934687845635839"><ele>496.5</ele><time>2026-04-23T10:58:48.999Z</time></trkpt><trkpt lat="32.37594215989163" lon="-7.934740340399053"><ele>497.0</ele><time>2026-04-23T10:58:49.999Z</time></trkpt><trkpt lat="32.37564577958002" lon="-7.934793965006511"><ele>498.5</ele><time>2026-04-23T10:58:50.999Z</time></trkpt><trkpt lat="32.37535225895174" lon="-7.93485105312528"><ele>500.0</ele><time>2026-04-23T10:58:51.999Z</time></trkpt><trkpt lat="32.3750544088323" lon="-7.934907827399507"><ele>500.0</ele><time>2026-04-23T10:58:52.999Z</time></trkpt><trkpt lat="32.37475963684804" lon="-7.934967323697855"><ele>500.0</ele><time>2026-04-23T10:58:53.999Z</time></trkpt><trkpt lat="32.37446592367261" lon="-7.935032451340116"><ele>501.5</ele><time>2026-04-23T10:58:54.999Z</time></trkpt><trkpt lat="32.37417155662666" lon="-7.935102919723779"><ele>503.0</ele><time>2026-04-23T10:58:55.999Z</time></trkpt><trkpt lat="32.373880324227315" lon="-7.935180097093923"><ele>503.5</ele><time>2026-04-23T10:58:56.999Z</time></trkpt><trkpt lat="32.37358605118625" lon="-7.9352634583711055"><ele>504.0</ele><time>2026-04-23T10:58:57.999Z</time></trkpt><trkpt lat="32.373292768824776" lon="-7.935344836550512"><ele>504.5</ele><time>2026-04-23T10:58:58.999Z</time></trkpt><trkpt lat="32.37300160141485" lon="-7.93542894205323"><ele>505.0</ele><time>2026-04-23T10:58:59.999Z</time></trkpt><trkpt lat="32.372706383610065" lon="-7.9355158463910165"><ele>505.0</ele><time>2026-04-23T10:59:00.999Z</time></trkpt><trkpt lat="32.37241586664845" lon="-7.935607576208858"><ele>505.0</ele><time>2026-04-23T10:59:01.999Z</time></trkpt><trkpt lat="32.372132190292064" lon="-7.9357031238045765"><ele>505.0</ele><time>2026-04-23T10:59:02.999Z</time></trkpt><trkpt lat="32.37184664992098" lon="-7.935808370833152"><ele>505.0</ele><time>2026-04-23T10:59:03.999Z</time></trkpt><trkpt lat="32.37156298770096" lon="-7.9359168310222"><ele>503.0</ele><time>2026-04-23T10:59:04.999Z</time></trkpt><trkpt lat="32.37127866365287" lon="-7.936024279388193"><ele>501.0</ele><time>2026-04-23T10:59:05.999Z</time></trkpt><trkpt lat="32.370993640787965" lon="-7.936137162739487"><ele>501.0</ele><time>2026-04-23T10:59:06.999Z</time></trkpt><trkpt lat="32.37071092051786" lon="-7.936253991044109"><ele>501.0</ele><time>2026-04-23T10:59:07.999Z</time></trkpt><trkpt lat="32.37042635033947" lon="-7.936368611689166"><ele>500.5</ele><time>2026-04-23T10:59:08.999Z</time></trkpt><trkpt lat="32.370142138989856" lon="-7.936489952675973"><ele>500.0</ele><time>2026-04-23T10:59:09.999Z</time></trkpt><trkpt lat="32.369860520222645" lon="-7.936613562609384"><ele>499.0</ele><time>2026-04-23T10:59:10.999Z</time></trkpt><trkpt lat="32.36957601143273" lon="-7.936740044074462"><ele>498.0</ele><time>2026-04-23T10:59:11.999Z</time></trkpt><trkpt lat="32.369295664303536" lon="-7.9368714291988365"><ele>498.0</ele><time>2026-04-23T10:59:12.999Z</time></trkpt><trkpt lat="32.369014952949605" lon="-7.937002793871559"><ele>498.0</ele><time>2026-04-23T10:59:13.999Z</time></trkpt><trkpt lat="32.368740125400535" lon="-7.93713743135111"><ele>497.0</ele><time>2026-04-23T10:59:14.999Z</time></trkpt><trkpt lat="32.36846621803133" lon="-7.93727130900263"><ele>496.0</ele><time>2026-04-23T10:59:15.999Z</time></trkpt><trkpt lat="32.36818918690584" lon="-7.937403532769135"><ele>496.5</ele><time>2026-04-23T10:59:16.999Z</time></trkpt><trkpt lat="32.36791190645782" lon="-7.937539761555778"><ele>497.0</ele><time>2026-04-23T10:59:17.999Z</time></trkpt><trkpt lat="32.367637431675774" lon="-7.937680392171297"><ele>497.0</ele><time>2026-04-23T10:59:18.999Z</time></trkpt><trkpt lat="32.36736309828287" lon="-7.9378249688488625"><ele>497.0</ele><time>2026-04-23T10:59:19.999Z</time></trkpt><trkpt lat="32.36709199874555" lon="-7.93797506272516"><ele>497.0</ele><time>2026-04-23T10:59:20.999Z</time></trkpt><trkpt lat="32.36682012590055" lon="-7.938128302254999"><ele>497.0</ele><time>2026-04-23T10:59:21.999Z</time></trkpt><trkpt lat="32.36654772370192" lon="-7.938283222261267"><ele>496.0</ele><time>2026-04-23T10:59:22.999Z</time></trkpt><trkpt lat="32.36627634920888" lon="-7.938441530065266"><ele>495.0</ele><time>2026-04-23T10:59:23.999Z</time></trkpt><trkpt lat="32.36601042576754" lon="-7.938602737626046"><ele>495.0</ele><time>2026-04-23T10:59:24.999Z</time></trkpt><trkpt lat="32.36574315481833" lon="-7.938761330597276"><ele>495.0</ele><time>2026-04-23T10:59:25.999Z</time></trkpt><trkpt lat="32.36547598157099" lon="-7.938927623539709"><ele>494.0</ele><time>2026-04-23T10:59:26.999Z</time></trkpt><trkpt lat="32.36520890419958" lon="-7.939091075595529"><ele>493.0</ele><time>2026-04-23T10:59:27.999Z</time></trkpt><trkpt lat="32.36494045489863" lon="-7.939255063174356"><ele>493.5</ele><time>2026-04-23T10:59:28.999Z</time></trkpt><trkpt lat="32.3646741621362" lon="-7.939425483648855"><ele>494.0</ele><time>2026-04-23T10:59:29.999Z</time></trkpt><trkpt lat="32.36441000894911" lon="-7.939592725355712"><ele>494.0</ele><time>2026-04-23T10:59:30.999Z</time></trkpt><trkpt lat="32.364146458253586" lon="-7.93975757190295"><ele>494.0</ele><time>2026-04-23T10:59:31.999Z</time></trkpt><trkpt lat="32.3638785139403" lon="-7.939925116224329"><ele>494.5</ele><time>2026-04-23T10:59:32.999Z</time></trkpt><trkpt lat="32.36361324150321" lon="-7.940091074945583"><ele>495.0</ele><time>2026-04-23T10:59:33.999Z</time></trkpt><trkpt lat="32.36334739583254" lon="-7.940258068913279"><ele>495.0</ele><time>2026-04-23T10:59:34.999Z</time></trkpt><trkpt lat="32.3630821824378" lon="-7.940426799739564"><ele>495.0</ele><time>2026-04-23T10:59:35.999Z</time></trkpt><trkpt lat="32.3628161270324" lon="-7.940591303048429"><ele>494.5</ele><time>2026-04-23T10:59:36.999Z</time></trkpt><trkpt lat="32.362552999205" lon="-7.940763213967358"><ele>494.0</ele><time>2026-04-23T10:59:37.998Z</time></trkpt><trkpt lat="32.36228865776731" lon="-7.94093256500704"><ele>493.5</ele><time>2026-04-23T10:59:38.998Z</time></trkpt><trkpt lat="32.362025976060984" lon="-7.941100072761195"><ele>493.0</ele><time>2026-04-23T10:59:39.998Z</time></trkpt><trkpt lat="32.36176114138618" lon="-7.941266709876519"><ele>493.0</ele><time>2026-04-23T10:59:40.998Z</time></trkpt><trkpt lat="32.361496314517986" lon="-7.941431689085921"><ele>493.0</ele><time>2026-04-23T10:59:41.998Z</time></trkpt><trkpt lat="32.36123145091328" lon="-7.941596049104597"><ele>493.5</ele><time>2026-04-23T10:59:42.998Z</time></trkpt><trkpt lat="32.36096876098113" lon="-7.941762430431636"><ele>494.0</ele><time>2026-04-23T10:59:43.998Z</time></trkpt><trkpt lat="32.36070303220432" lon="-7.941928014694762"><ele>494.5</ele><time>2026-04-23T10:59:44.998Z</time></trkpt><trkpt lat="32.3604369313791" lon="-7.942098597188851"><ele>495.0</ele><time>2026-04-23T10:59:45.998Z</time></trkpt><trkpt lat="32.36016995388655" lon="-7.942267877265305"><ele>495.0</ele><time>2026-04-23T10:59:46.998Z</time></trkpt><trkpt lat="32.3599086165062" lon="-7.942434397899414"><ele>495.0</ele><time>2026-04-23T10:59:47.998Z</time></trkpt><trkpt lat="32.35964222015478" lon="-7.94259659168085"><ele>496.0</ele><time>2026-04-23T10:59:48.998Z</time></trkpt><trkpt lat="32.3593750420523" lon="-7.9427609523536455"><ele>497.0</ele><time>2026-04-23T10:59:50Z</time></trkpt><trkpt lat="32.359109182849" lon="-7.9429287250495255"><ele>497.0</ele><time>2026-04-23T10:59:51Z</time></trkpt><trkpt lat="32.3588423749972" lon="-7.943096657971912"><ele>497.0</ele><time>2026-04-23T10:59:52Z</time></trkpt><trkpt lat="32.35857498495073" lon="-7.94326593483712"><ele>496.5</ele><time>2026-04-23T10:59:53Z</time></trkpt><trkpt lat="32.35830727154159" lon="-7.943431960248859"><ele>496.0</ele><time>2026-04-23T10:59:54Z</time></trkpt><trkpt lat="32.35803830019074" lon="-7.943597404062921"><ele>494.5</ele><time>2026-04-23T10:59:55Z</time></trkpt><trkpt lat="32.357772147801626" lon="-7.9437645320152"><ele>493.0</ele><time>2026-04-23T10:59:56Z</time></trkpt><trkpt lat="32.35750354974774" lon="-7.943923266541119"><ele>493.0</ele><time>2026-04-23T10:59:57Z</time></trkpt><trkpt lat="32.35723283490949" lon="-7.944083883406839"><ele>493.0</ele><time>2026-04-23T10:59:58Z</time></trkpt><trkpt lat="32.35696607358738" lon="-7.94424191217978"><ele>491.5</ele><time>2026-04-23T10:59:59Z</time></trkpt><trkpt lat="32.356696409610706" lon="-7.944404233371137"><ele>490.0</ele><time>2026-04-23T11:00:00Z</time></trkpt><trkpt lat="32.356431256969955" lon="-7.944564376845499"><ele>490.0</ele><time>2026-04-23T11:00:01Z</time></trkpt><trkpt lat="32.35616353124466" lon="-7.944730695317732"><ele>490.0</ele><time>2026-04-23T11:00:02Z</time></trkpt><trkpt lat="32.35590092891635" lon="-7.944900683178377"><ele>490.5</ele><time>2026-04-23T11:00:03Z</time></trkpt><trkpt lat="32.35563706695973" lon="-7.945066991613059"><ele>491.0</ele><time>2026-04-23T11:00:04Z</time></trkpt><trkpt lat="32.35537370982829" lon="-7.945232858659688"><ele>489.5</ele><time>2026-04-23T11:00:05Z</time></trkpt><trkpt lat="32.355108637333856" lon="-7.94540511256201"><ele>488.0</ele><time>2026-04-23T11:00:06Z</time></trkpt><trkpt lat="32.354848047865524" lon="-7.94558065603702"><ele>488.0</ele><time>2026-04-23T11:00:07Z</time></trkpt><trkpt lat="32.35458692012087" lon="-7.945752867024271"><ele>488.0</ele><time>2026-04-23T11:00:08Z</time></trkpt><trkpt lat="32.35432387700968" lon="-7.945922084362317"><ele>488.0</ele><time>2026-04-23T11:00:09Z</time></trkpt><trkpt lat="32.35405980787305" lon="-7.946093686452323"><ele>488.0</ele><time>2026-04-23T11:00:10Z</time></trkpt><trkpt lat="32.35379794973446" lon="-7.946266029668905"><ele>490.0</ele><time>2026-04-23T11:00:11Z</time></trkpt><trkpt lat="32.3535301170737" lon="-7.946436867351963"><ele>492.0</ele><time>2026-04-23T11:00:12Z</time></trkpt><trkpt lat="32.35326328275353" lon="-7.946603217001512"><ele>491.5</ele><time>2026-04-23T11:00:13Z</time></trkpt><trkpt lat="32.352997826365446" lon="-7.946770269641"><ele>491.0</ele><time>2026-04-23T11:00:14Z</time></trkpt><trkpt lat="32.352730943391066" lon="-7.946932032929884"><ele>491.0</ele><time>2026-04-23T11:00:15Z</time></trkpt><trkpt lat="32.352463213775046" lon="-7.947101721758056"><ele>491.0</ele><time>2026-04-23T11:00:16Z</time></trkpt><trkpt lat="32.352201893584414" lon="-7.947265896555251"><ele>491.5</ele><time>2026-04-23T11:00:17Z</time></trkpt><trkpt lat="32.35193656208751" lon="-7.947435431458091"><ele>492.0</ele><time>2026-04-23T11:00:18Z</time></trkpt><trkpt lat="32.35166890363166" lon="-7.947600308723694"><ele>492.0</ele><time>2026-04-23T11:00:19Z</time></trkpt><trkpt lat="32.351401174779774" lon="-7.94777018624594"><ele>492.0</ele><time>2026-04-23T11:00:20Z</time></trkpt><trkpt lat="32.35113752380398" lon="-7.947932403621072"><ele>492.0</ele><time>2026-04-23T11:00:21Z</time></trkpt><trkpt lat="32.350871145773986" lon="-7.948102379923586"><ele>492.0</ele><time>2026-04-23T11:00:22Z</time></trkpt><trkpt lat="32.35060796572155" lon="-7.94826573977839"><ele>492.0</ele><time>2026-04-23T11:00:23Z</time></trkpt><trkpt lat="32.35033850594253" lon="-7.948429895738967"><ele>492.0</ele><time>2026-04-23T11:00:24Z</time></trkpt><trkpt lat="32.35007009676945" lon="-7.948590791673778"><ele>492.0</ele><time>2026-04-23T11:00:25Z</time></trkpt><trkpt lat="32.34980380882777" lon="-7.948748894954135"><ele>492.0</ele><time>2026-04-23T11:00:26Z</time></trkpt><trkpt lat="32.34953535851623" lon="-7.948902762375327"><ele>491.5</ele><time>2026-04-23T11:00:26.999Z</time></trkpt><trkpt lat="32.34926405117586" lon="-7.949059587770824"><ele>491.0</ele><time>2026-04-23T11:00:27.999Z</time></trkpt><trkpt lat="32.34899241681162" lon="-7.94921024881859"><ele>490.5</ele><time>2026-04-23T11:00:28.999Z</time></trkpt><trkpt lat="32.34871828591712" lon="-7.949358815575364"><ele>490.0</ele><time>2026-04-23T11:00:29.999Z</time></trkpt><trkpt lat="32.34844725896962" lon="-7.949502748870745"><ele>490.0</ele><time>2026-04-23T11:00:30.999Z</time></trkpt><trkpt lat="32.3481769029787" lon="-7.949644282038037"><ele>490.0</ele><time>2026-04-23T11:00:31.999Z</time></trkpt><trkpt lat="32.34790062885917" lon="-7.949787281529886"><ele>491.0</ele><time>2026-04-23T11:00:32.999Z</time></trkpt><trkpt lat="32.34762707744713" lon="-7.949933713387165"><ele>492.0</ele><time>2026-04-23T11:00:33.999Z</time></trkpt><trkpt lat="32.34735179659557" lon="-7.950072905897582"><ele>494.0</ele><time>2026-04-23T11:00:34.999Z</time></trkpt><trkpt lat="32.34707693081052" lon="-7.950206487168276"><ele>496.0</ele><time>2026-04-23T11:00:35.999Z</time></trkpt><trkpt lat="32.34679516368077" lon="-7.950337016699613"><ele>496.0</ele><time>2026-04-23T11:00:36.999Z</time></trkpt><trkpt lat="32.34651751559189" lon="-7.950469070997386"><ele>496.0</ele><time>2026-04-23T11:00:37.999Z</time></trkpt><trkpt lat="32.34623818619054" lon="-7.9506005408661835"><ele>497.0</ele><time>2026-04-23T11:00:38.999Z</time></trkpt><trkpt lat="32.345958982191156" lon="-7.950728553971736"><ele>498.0</ele><time>2026-04-23T11:00:39.999Z</time></trkpt><trkpt lat="32.345675039637506" lon="-7.950855532037849"><ele>498.5</ele><time>2026-04-23T11:00:40.999Z</time></trkpt><trkpt lat="32.34539079059844" lon="-7.950981867458847"><ele>499.0</ele><time>2026-04-23T11:00:41.999Z</time></trkpt><trkpt lat="32.34510977955857" lon="-7.9511034269039165"><ele>499.0</ele><time>2026-04-23T11:00:42.999Z</time></trkpt><trkpt lat="32.34482629365652" lon="-7.95122150611182"><ele>499.0</ele><time>2026-04-23T11:00:43.999Z</time></trkpt><trkpt lat="32.344544744477595" lon="-7.951333104420598"><ele>499.0</ele><time>2026-04-23T11:00:44.999Z</time></trkpt><trkpt lat="32.34425852524323" lon="-7.951445141558793"><ele>499.0</ele><time>2026-04-23T11:00:45.999Z</time></trkpt><trkpt lat="32.34396648590964" lon="-7.951557309647054"><ele>498.0</ele><time>2026-04-23T11:00:46.999Z</time></trkpt><trkpt lat="32.343390391774506" lon="-7.951780460580261"><ele>498.0</ele><time>2026-04-23T11:00:48.999Z</time></trkpt><trkpt lat="32.3431036122476" lon="-7.951889045707119"><ele>498.0</ele><time>2026-04-23T11:00:49.999Z</time></trkpt><trkpt lat="32.342816713717156" lon="-7.951990423667848"><ele>497.5</ele><time>2026-04-23T11:00:50.999Z</time></trkpt><trkpt lat="32.34252800589568" lon="-7.95209132572068"><ele>497.0</ele><time>2026-04-23T11:00:51.999Z</time></trkpt><trkpt lat="32.34223716616516" lon="-7.95219095838833"><ele>496.0</ele><time>2026-04-23T11:00:52.999Z</time></trkpt><trkpt lat="32.341946550335315" lon="-7.952289625128356"><ele>495.0</ele><time>2026-04-23T11:00:53.999Z</time></trkpt><trkpt lat="32.341656821340834" lon="-7.952384636999287"><ele>495.0</ele><time>2026-04-23T11:00:54.999Z</time></trkpt><trkpt lat="32.34136683053583" lon="-7.952478711492562"><ele>495.0</ele><time>2026-04-23T11:00:55.999Z</time></trkpt><trkpt lat="32.341080879043886" lon="-7.952570927084554"><ele>496.0</ele><time>2026-04-23T11:00:56.999Z</time></trkpt><trkpt lat="32.340786240347775" lon="-7.952663923719169"><ele>497.0</ele><time>2026-04-23T11:00:57.999Z</time></trkpt><trkpt lat="32.340501622305744" lon="-7.952755891652176"><ele>497.0</ele><time>2026-04-23T11:00:58.999Z</time></trkpt><trkpt lat="32.340212992975225" lon="-7.952845044758043"><ele>497.0</ele><time>2026-04-23T11:00:59.999Z</time></trkpt><trkpt lat="32.33992425603417" lon="-7.952937621119469"><ele>498.0</ele><time>2026-04-23T11:01:00.999Z</time></trkpt><trkpt lat="32.339633290433554" lon="-7.9530318714512624"><ele>499.0</ele><time>2026-04-23T11:01:01.999Z</time></trkpt><trkpt lat="32.33934417661139" lon="-7.953125177613984"><ele>499.0</ele><time>2026-04-23T11:01:02.999Z</time></trkpt><trkpt lat="32.33905105409617" lon="-7.953222238566923"><ele>499.0</ele><time>2026-04-23T11:01:03.999Z</time></trkpt><trkpt lat="32.338758692086905" lon="-7.953312691650012"><ele>498.5</ele><time>2026-04-23T11:01:04.999Z</time></trkpt><trkpt lat="32.33847179820018" lon="-7.953408738824906"><ele>498.0</ele><time>2026-04-23T11:01:05.999Z</time></trkpt><trkpt lat="32.33818197105559" lon="-7.953504260872781"><ele>498.0</ele><time>2026-04-23T11:01:06.999Z</time></trkpt><trkpt lat="32.337888822637154" lon="-7.953600552198151"><ele>498.0</ele><time>2026-04-23T11:01:07.999Z</time></trkpt><trkpt lat="32.33759706246559" lon="-7.953699923768512"><ele>498.0</ele><time>2026-04-23T11:01:08.999Z</time></trkpt><trkpt lat="32.3373099943112" lon="-7.953798601470842"><ele>498.0</ele><time>2026-04-23T11:01:09.999Z</time></trkpt><trkpt lat="32.33702418425726" lon="-7.953898156586257"><ele>499.0</ele><time>2026-04-23T11:01:10.999Z</time></trkpt><trkpt lat="32.336738388840836" lon="-7.954002720980903"><ele>500.0</ele><time>2026-04-23T11:01:11.999Z</time></trkpt><trkpt lat="32.33644828988458" lon="-7.954100987659886"><ele>500.0</ele><time>2026-04-23T11:01:12.999Z</time></trkpt><trkpt lat="32.33615843106119" lon="-7.9541953808994865"><ele>500.0</ele><time>2026-04-23T11:01:13.999Z</time></trkpt><trkpt lat="32.33587020012411" lon="-7.954295993802359"><ele>500.0</ele><time>2026-04-23T11:01:14.999Z</time></trkpt><trkpt lat="32.33558713250749" lon="-7.954394093306371"><ele>500.0</ele><time>2026-04-23T11:01:15.999Z</time></trkpt><trkpt lat="32.335297410890256" lon="-7.954495813816299"><ele>500.5</ele><time>2026-04-23T11:01:16.999Z</time></trkpt><trkpt lat="32.3350088991796" lon="-7.954600574333775"><ele>501.0</ele><time>2026-04-23T11:01:17.999Z</time></trkpt><trkpt lat="32.33472044261263" lon="-7.954705391948562"><ele>501.0</ele><time>2026-04-23T11:01:18.999Z</time></trkpt><trkpt lat="32.334429292307306" lon="-7.954805928575056"><ele>501.0</ele><time>2026-04-23T11:01:19.999Z</time></trkpt><trkpt lat="32.33414259095901" lon="-7.954905566640512"><ele>502.0</ele><time>2026-04-23T11:01:20.999Z</time></trkpt><trkpt lat="32.33385398883181" lon="-7.955007267764612"><ele>503.0</ele><time>2026-04-23T11:01:21.999Z</time></trkpt><trkpt lat="32.333565540059446" lon="-7.955107027962624"><ele>503.0</ele><time>2026-04-23T11:01:22.999Z</time></trkpt><trkpt lat="32.333278030809396" lon="-7.955208808593863"><ele>503.0</ele><time>2026-04-23T11:01:23.999Z</time></trkpt><trkpt lat="32.33298818201381" lon="-7.955308153526237"><ele>503.0</ele><time>2026-04-23T11:01:24.999Z</time></trkpt><trkpt lat="32.33269779551926" lon="-7.955409997272499"><ele>503.0</ele><time>2026-04-23T11:01:25.999Z</time></trkpt><trkpt lat="32.332411427027125" lon="-7.955509528574993"><ele>503.0</ele><time>2026-04-23T11:01:26.999Z</time></trkpt><trkpt lat="32.33212739335942" lon="-7.955609023451267"><ele>503.0</ele><time>2026-04-23T11:01:27.999Z</time></trkpt><trkpt lat="32.33183758314353" lon="-7.955701807314669"><ele>503.0</ele><time>2026-04-23T11:01:28.999Z</time></trkpt><trkpt lat="32.33154722448123" lon="-7.955799928800285"><ele>503.0</ele><time>2026-04-23T11:01:29.999Z</time></trkpt><trkpt lat="32.331257356902555" lon="-7.955900942334319"><ele>505.0</ele><time>2026-04-23T11:01:30.999Z</time></trkpt><trkpt lat="32.33096570731055" lon="-7.955992937860458"><ele>507.0</ele><time>2026-04-23T11:01:31.999Z</time></trkpt><trkpt lat="32.330678475861795" lon="-7.956089721387876"><ele>508.0</ele><time>2026-04-23T11:01:32.999Z</time></trkpt><trkpt lat="32.330388665132" lon="-7.9561893604806615"><ele>509.0</ele><time>2026-04-23T11:01:33.999Z</time></trkpt><trkpt lat="32.330096332054175" lon="-7.956278316485789"><ele>509.0</ele><time>2026-04-23T11:01:34.999Z</time></trkpt><trkpt lat="32.32980585857079" lon="-7.956375666548607"><ele>509.0</ele><time>2026-04-23T11:01:35.999Z</time></trkpt><trkpt lat="32.329514892270744" lon="-7.956469913901159"><ele>508.5</ele><time>2026-04-23T11:01:36.999Z</time></trkpt><trkpt lat="32.32922220655802" lon="-7.956570399298405"><ele>508.0</ele><time>2026-04-23T11:01:37.999Z</time></trkpt><trkpt lat="32.32893320665191" lon="-7.956671583192966"><ele>507.0</ele><time>2026-04-23T11:01:38.999Z</time></trkpt><trkpt lat="32.32864235008424" lon="-7.956767835057567"><ele>506.0</ele><time>2026-04-23T11:01:39.999Z</time></trkpt><trkpt lat="32.32835574513987" lon="-7.956865542314858"><ele>506.0</ele><time>2026-04-23T11:01:40.999Z</time></trkpt><trkpt lat="32.328065770670605" lon="-7.956966675609081"><ele>506.0</ele><time>2026-04-23T11:01:41.998Z</time></trkpt><trkpt lat="32.327778880705154" lon="-7.957059683007435"><ele>506.5</ele><time>2026-04-23T11:01:42.998Z</time></trkpt><trkpt lat="32.32748795686553" lon="-7.957156271335002"><ele>507.0</ele><time>2026-04-23T11:01:43.998Z</time></trkpt><trkpt lat="32.32719848560628" lon="-7.957257339433518"><ele>507.0</ele><time>2026-04-23T11:01:44.998Z</time></trkpt><trkpt lat="32.3269080562283" lon="-7.957359856560186"><ele>507.0</ele><time>2026-04-23T11:01:45.998Z</time></trkpt><trkpt lat="32.32661744761651" lon="-7.957458467874111"><ele>508.0</ele><time>2026-04-23T11:01:46.998Z</time></trkpt><trkpt lat="32.32632694448862" lon="-7.957550997841984"><ele>509.0</ele><time>2026-04-23T11:01:47.998Z</time></trkpt><trkpt lat="32.32603260084137" lon="-7.957639398281146"><ele>509.0</ele><time>2026-04-23T11:01:48.998Z</time></trkpt><trkpt lat="32.325740520560636" lon="-7.957725775534848"><ele>509.0</ele><time>2026-04-23T11:01:49.998Z</time></trkpt><trkpt lat="32.32544650116876" lon="-7.957809743640252"><ele>509.0</ele><time>2026-04-23T11:01:50.998Z</time></trkpt><trkpt lat="32.325153556717346" lon="-7.957886568792326"><ele>509.0</ele><time>2026-04-23T11:01:51.998Z</time></trkpt><trkpt lat="32.32485850423561" lon="-7.9579631525758865"><ele>507.5</ele><time>2026-04-23T11:01:52.998Z</time></trkpt><trkpt lat="32.3245650709894" lon="-7.958039317515232"><ele>506.0</ele><time>2026-04-23T11:01:53.998Z</time></trkpt><trkpt lat="32.324268850674066" lon="-7.958116692703735"><ele>506.0</ele><time>2026-04-23T11:01:54.998Z</time></trkpt><trkpt lat="32.323973488222535" lon="-7.95818700143345"><ele>506.0</ele><time>2026-04-23T11:01:56Z</time></trkpt><trkpt lat="32.323679968366996" lon="-7.958256616525146"><ele>507.5</ele><time>2026-04-23T11:01:57Z</time></trkpt><trkpt lat="32.32338434315512" lon="-7.958322321028087"><ele>509.0</ele><time>2026-04-23T11:01:58Z</time></trkpt><trkpt lat="32.32308771408218" lon="-7.958382104156732"><ele>509.5</ele><time>2026-04-23T11:01:59Z</time></trkpt><trkpt lat="32.32278911285086" lon="-7.958436612369367"><ele>510.0</ele><time>2026-04-23T11:02:00Z</time></trkpt><trkpt lat="32.3224901100014" lon="-7.958490159310087"><ele>510.5</ele><time>2026-04-23T11:02:01Z</time></trkpt><trkpt lat="32.322196262278425" lon="-7.958540743869179"><ele>511.0</ele><time>2026-04-23T11:02:02Z</time></trkpt><trkpt lat="32.32190082294574" lon="-7.9585946872363245"><ele>511.0</ele><time>2026-04-23T11:02:03Z</time></trkpt><trkpt lat="32.32160242995301" lon="-7.958639087687696"><ele>511.0</ele><time>2026-04-23T11:02:04Z</time></trkpt><trkpt lat="32.32129880090293" lon="-7.9586827487791885"><ele>511.5</ele><time>2026-04-23T11:02:05Z</time></trkpt><trkpt lat="32.32100143077761" lon="-7.958721833185511"><ele>512.0</ele><time>2026-04-23T11:02:06Z</time></trkpt><trkpt lat="32.320702133217225" lon="-7.95875376371917"><ele>512.5</ele><time>2026-04-23T11:02:07Z</time></trkpt><trkpt lat="32.32040438418486" lon="-7.958788433477094"><ele>513.0</ele><time>2026-04-23T11:02:08Z</time></trkpt><trkpt lat="32.32010594501355" lon="-7.958819249380529"><ele>513.0</ele><time>2026-04-23T11:02:09Z</time></trkpt><trkpt lat="32.31980627992777" lon="-7.958851071817081"><ele>513.0</ele><time>2026-04-23T11:02:10Z</time></trkpt><trkpt lat="32.319500107229494" lon="-7.958877252297218"><ele>513.0</ele><time>2026-04-23T11:02:11Z</time></trkpt><trkpt lat="32.31920176703418" lon="-7.958902164445892"><ele>513.0</ele><time>2026-04-23T11:02:12Z</time></trkpt><trkpt lat="32.318904172744986" lon="-7.958924905984401"><ele>513.5</ele><time>2026-04-23T11:02:13Z</time></trkpt><trkpt lat="32.31860037941912" lon="-7.958947301863574"><ele>514.0</ele><time>2026-04-23T11:02:14Z</time></trkpt><trkpt lat="32.31829845556289" lon="-7.958965584303812"><ele>514.0</ele><time>2026-04-23T11:02:15Z</time></trkpt><trkpt lat="32.31799587398468" lon="-7.958977809562008"><ele>514.0</ele><time>2026-04-23T11:02:16Z</time></trkpt><trkpt lat="32.31769415132619" lon="-7.958986684672203"><ele>514.0</ele><time>2026-04-23T11:02:17Z</time></trkpt><trkpt lat="32.317393627235596" lon="-7.958993056463222"><ele>514.0</ele><time>2026-04-23T11:02:18Z</time></trkpt><trkpt lat="32.317092273058705" lon="-7.958995314761651"><ele>515.0</ele><time>2026-04-23T11:02:19Z</time></trkpt><trkpt lat="32.316791640364194" lon="-7.958990435143992"><ele>516.0</ele><time>2026-04-23T11:02:20Z</time></trkpt><trkpt lat="32.31648718916293" lon="-7.958990313330398"><ele>516.5</ele><time>2026-04-23T11:02:21Z</time></trkpt><trkpt lat="32.31618607243747" lon="-7.958990635312082"><ele>517.0</ele><time>2026-04-23T11:02:22Z</time></trkpt><trkpt lat="32.315881406591565" lon="-7.958997530734788"><ele>517.0</ele><time>2026-04-23T11:02:23Z</time></trkpt><trkpt lat="32.31557760238213" lon="-7.959001765181965"><ele>517.0</ele><time>2026-04-23T11:02:24Z</time></trkpt><trkpt lat="32.315275304169184" lon="-7.959004846007903"><ele>516.0</ele><time>2026-04-23T11:02:25Z</time></trkpt><trkpt lat="32.31497247999425" lon="-7.959005652295678"><ele>515.0</ele><time>2026-04-23T11:02:26Z</time></trkpt><trkpt lat="32.31467458557804" lon="-7.9590095794555324"><ele>514.5</ele><time>2026-04-23T11:02:27Z</time></trkpt><trkpt lat="32.31437503986668" lon="-7.959014950849522"><ele>514.0</ele><time>2026-04-23T11:02:28Z</time></trkpt><trkpt lat="32.31407610311249" lon="-7.959017543296319"><ele>514.5</ele><time>2026-04-23T11:02:28.999Z</time></trkpt><trkpt lat="32.31377296231834" lon="-7.9590148709204485"><ele>515.0</ele><time>2026-04-23T11:02:29.999Z</time></trkpt><trkpt lat="32.31347149885073" lon="-7.959016520010651"><ele>515.0</ele><time>2026-04-23T11:02:30.999Z</time></trkpt><trkpt lat="32.31316864305353" lon="-7.959006386739671"><ele>515.0</ele><time>2026-04-23T11:02:31.999Z</time></trkpt><trkpt lat="32.31286693103301" lon="-7.959001576239745"><ele>515.0</ele><time>2026-04-23T11:02:32.999Z</time></trkpt><trkpt lat="32.31256820634414" lon="-7.958997996384645"><ele>515.0</ele><time>2026-04-23T11:02:33.999Z</time></trkpt><trkpt lat="32.312268108010855" lon="-7.958999588682655"><ele>517.5</ele><time>2026-04-23T11:02:34.999Z</time></trkpt><trkpt lat="32.31196581464221" lon="-7.958997513304469"><ele>520.0</ele><time>2026-04-23T11:02:35.999Z</time></trkpt><trkpt lat="32.31166626741653" lon="-7.95900135790658"><ele>523.0</ele><time>2026-04-23T11:02:36.999Z</time></trkpt><trkpt lat="32.31136732466676" lon="-7.958997985778117"><ele>526.0</ele><time>2026-04-23T11:02:37.999Z</time></trkpt><trkpt lat="32.31106865070988" lon="-7.958999833709896"><ele>526.0</ele><time>2026-04-23T11:02:38.999Z</time></trkpt><trkpt lat="32.31076669060613" lon="-7.959004361976205"><ele>526.0</ele><time>2026-04-23T11:02:39.999Z</time></trkpt><trkpt lat="32.31046649960302" lon="-7.959005131577241"><ele>524.0</ele><time>2026-04-23T11:02:40.999Z</time></trkpt><trkpt lat="32.310166854349795" lon="-7.9590073197255675"><ele>522.0</ele><time>2026-04-23T11:02:41.999Z</time></trkpt><trkpt lat="32.309866184213384" lon="-7.959007687606376"><ele>520.0</ele><time>2026-04-23T11:02:42.999Z</time></trkpt><trkpt lat="32.30956653467154" lon="-7.959011930226539"><ele>518.0</ele><time>2026-04-23T11:02:43.999Z</time></trkpt><trkpt lat="32.30926873657093" lon="-7.959022601823975"><ele>518.0</ele><time>2026-04-23T11:02:44.999Z</time></trkpt><trkpt lat="32.308966963858154" lon="-7.959033856256765"><ele>518.0</ele><time>2026-04-23T11:02:45.999Z</time></trkpt><trkpt lat="32.30866911773464" lon="-7.959041968755667"><ele>514.5</ele><time>2026-04-23T11:02:46.999Z</time></trkpt><trkpt lat="32.308369802993305" lon="-7.959053035633279"><ele>511.0</ele><time>2026-04-23T11:02:47.999Z</time></trkpt><trkpt lat="32.308070305851906" lon="-7.959067785633344"><ele>509.0</ele><time>2026-04-23T11:02:48.999Z</time></trkpt><trkpt lat="32.30776941816782" lon="-7.959079067940969"><ele>507.0</ele><time>2026-04-23T11:02:49.999Z</time></trkpt><trkpt lat="32.307467241156644" lon="-7.959084862232902"><ele>505.5</ele><time>2026-04-23T11:02:50.999Z</time></trkpt><trkpt lat="32.30716825615381" lon="-7.959088117092054"><ele>504.0</ele><time>2026-04-23T11:02:51.999Z</time></trkpt><trkpt lat="32.30686710330341" lon="-7.95909099381476"><ele>504.0</ele><time>2026-04-23T11:02:52.999Z</time></trkpt><trkpt lat="32.30656498078461" lon="-7.959093064450978"><ele>504.0</ele><time>2026-04-23T11:02:53.999Z</time></trkpt><trkpt lat="32.30626188136939" lon="-7.959096394141364"><ele>504.5</ele><time>2026-04-23T11:02:54.999Z</time></trkpt><trkpt lat="32.305963478622104" lon="-7.959099570956502"><ele>505.0</ele><time>2026-04-23T11:02:55.999Z</time></trkpt><trkpt lat="32.30566452519628" lon="-7.95910551159654"><ele>506.0</ele><time>2026-04-23T11:02:56.999Z</time></trkpt><trkpt lat="32.305364486194044" lon="-7.959114119436434"><ele>507.0</ele><time>2026-04-23T11:02:57.999Z</time></trkpt><trkpt lat="32.305063613593845" lon="-7.959118523653096"><ele>507.0</ele><time>2026-04-23T11:02:58.999Z</time></trkpt><trkpt lat="32.30476452601203" lon="-7.959130731265853"><ele>507.0</ele><time>2026-04-23T11:02:59.999Z</time></trkpt><trkpt lat="32.3044659151648" lon="-7.959146837170902"><ele>506.5</ele><time>2026-04-23T11:03:00.999Z</time></trkpt><trkpt lat="32.30416709802142" lon="-7.959163678942233"><ele>506.0</ele><time>2026-04-23T11:03:01.999Z</time></trkpt><trkpt lat="32.30386772113197" lon="-7.959187524798485"><ele>502.5</ele><time>2026-04-23T11:03:02.999Z</time></trkpt><trkpt lat="32.303566473284896" lon="-7.95921681680308"><ele>499.0</ele><time>2026-04-23T11:03:03.999Z</time></trkpt><trkpt lat="32.30326285005239" lon="-7.959243071461715"><ele>499.0</ele><time>2026-04-23T11:03:04.999Z</time></trkpt><trkpt lat="32.30296070964746" lon="-7.959277573172947"><ele>499.0</ele><time>2026-04-23T11:03:05.999Z</time></trkpt><trkpt lat="32.30266263108294" lon="-7.959307389122035"><ele>499.0</ele><time>2026-04-23T11:03:06.999Z</time></trkpt><trkpt lat="32.302364209335785" lon="-7.95934655678598"><ele>499.0</ele><time>2026-04-23T11:03:07.999Z</time></trkpt><trkpt lat="32.30206507501626" lon="-7.959382176564824"><ele>498.0</ele><time>2026-04-23T11:03:08.999Z</time></trkpt><trkpt lat="32.301763270095336" lon="-7.95942050451739"><ele>497.0</ele><time>2026-04-23T11:03:09.999Z</time></trkpt><trkpt lat="32.30146500251351" lon="-7.959469844106654"><ele>497.5</ele><time>2026-04-23T11:03:10.999Z</time></trkpt><trkpt lat="32.30116920613966" lon="-7.9595218911198895"><ele>498.0</ele><time>2026-04-23T11:03:11.999Z</time></trkpt><trkpt lat="32.300873311302176" lon="-7.959572563279861"><ele>498.0</ele><time>2026-04-23T11:03:12.999Z</time></trkpt><trkpt lat="32.30057287517534" lon="-7.959622984137331"><ele>498.0</ele><time>2026-04-23T11:03:13.999Z</time></trkpt><trkpt lat="32.3002722392779" lon="-7.959678446717697"><ele>498.0</ele><time>2026-04-23T11:03:14.999Z</time></trkpt><trkpt lat="32.29997566617972" lon="-7.959738176390524"><ele>498.0</ele><time>2026-04-23T11:03:15.999Z</time></trkpt><trkpt lat="32.299678681207574" lon="-7.959807178348239"><ele>499.5</ele><time>2026-04-23T11:03:16.999Z</time></trkpt><trkpt lat="32.29938626021338" lon="-7.959875000627601"><ele>501.0</ele><time>2026-04-23T11:03:17.999Z</time></trkpt><trkpt lat="32.299091397198055" lon="-7.959941195160866"><ele>501.0</ele><time>2026-04-23T11:03:18.999Z</time></trkpt><trkpt lat="32.29879997821385" lon="-7.960014112206054"><ele>501.0</ele><time>2026-04-23T11:03:19.999Z</time></trkpt><trkpt lat="32.29850620336971" lon="-7.960087484804363"><ele>499.5</ele><time>2026-04-23T11:03:20.999Z</time></trkpt><trkpt lat="32.298212817091084" lon="-7.960163733172281"><ele>498.0</ele><time>2026-04-23T11:03:21.999Z</time></trkpt><trkpt lat="32.29791948557576" lon="-7.960238448436254"><ele>498.0</ele><time>2026-04-23T11:03:22.999Z</time></trkpt><trkpt lat="32.297627446488555" lon="-7.960318169313712"><ele>498.0</ele><time>2026-04-23T11:03:23.999Z</time></trkpt><trkpt lat="32.29733198011704" lon="-7.960402623279936"><ele>496.5</ele><time>2026-04-23T11:03:24.999Z</time></trkpt><trkpt lat="32.29704208694537" lon="-7.960492203562358"><ele>495.0</ele><time>2026-04-23T11:03:25.999Z</time></trkpt><trkpt lat="32.29675537653556" lon="-7.960582475073192"><ele>495.0</ele><time>2026-04-23T11:03:26.999Z</time></trkpt><trkpt lat="32.29646334580554" lon="-7.960677761924869"><ele>495.0</ele><time>2026-04-23T11:03:27.999Z</time></trkpt><trkpt lat="32.29617029566745" lon="-7.960771074373244"><ele>496.0</ele><time>2026-04-23T11:03:28.999Z</time></trkpt><trkpt lat="32.295878512343464" lon="-7.960865489756565"><ele>497.0</ele><time>2026-04-23T11:03:29.999Z</time></trkpt><trkpt lat="32.295592616278185" lon="-7.960969552186245"><ele>498.0</ele><time>2026-04-23T11:03:30.999Z</time></trkpt><trkpt lat="32.29530719191753" lon="-7.961075660359397"><ele>499.0</ele><time>2026-04-23T11:03:31.999Z</time></trkpt><trkpt lat="32.29502347452972" lon="-7.9611849615109564"><ele>499.5</ele><time>2026-04-23T11:03:32.999Z</time></trkpt><trkpt lat="32.29473171215069" lon="-7.961295289183546"><ele>500.0</ele><time>2026-04-23T11:03:33.999Z</time></trkpt><trkpt lat="32.29444429458196" lon="-7.961406645581932"><ele>500.0</ele><time>2026-04-23T11:03:34.999Z</time></trkpt><trkpt lat="32.294161057718675" lon="-7.961522805007107"><ele>500.0</ele><time>2026-04-23T11:03:35.999Z</time></trkpt><trkpt lat="32.29387779437899" lon="-7.961645359340987"><ele>499.0</ele><time>2026-04-23T11:03:36.999Z</time></trkpt><trkpt lat="32.29359556684591" lon="-7.961771705547945"><ele>498.0</ele><time>2026-04-23T11:03:37.999Z</time></trkpt><trkpt lat="32.29331309531976" lon="-7.961901320819052"><ele>497.0</ele><time>2026-04-23T11:03:38.999Z</time></trkpt><trkpt lat="32.293032339530484" lon="-7.962030653720594"><ele>496.0</ele><time>2026-04-23T11:03:39.999Z</time></trkpt><trkpt lat="32.29274608432765" lon="-7.962156130187414"><ele>496.0</ele><time>2026-04-23T11:03:40.999Z</time></trkpt><trkpt lat="32.29246755101837" lon="-7.96228427177359"><ele>496.0</ele><time>2026-04-23T11:03:41.999Z</time></trkpt><trkpt lat="32.29218670140097" lon="-7.962415116248831"><ele>493.5</ele><time>2026-04-23T11:03:42.999Z</time></trkpt><trkpt lat="32.29191099999655" lon="-7.962546826373503"><ele>491.0</ele><time>2026-04-23T11:03:43.999Z</time></trkpt><trkpt lat="32.29163423316756" lon="-7.962677751003031"><ele>492.5</ele><time>2026-04-23T11:03:44.998Z</time></trkpt><trkpt lat="32.29135358051076" lon="-7.962807334150618"><ele>494.0</ele><time>2026-04-23T11:03:45.998Z</time></trkpt><trkpt lat="32.29107590178107" lon="-7.962937364952583"><ele>494.0</ele><time>2026-04-23T11:03:46.998Z</time></trkpt><trkpt lat="32.290797041624714" lon="-7.963073459713915"><ele>494.0</ele><time>2026-04-23T11:03:47.998Z</time></trkpt><trkpt lat="32.29051837859298" lon="-7.963204205931045"><ele>495.5</ele><time>2026-04-23T11:03:48.998Z</time></trkpt><trkpt lat="32.29024187045565" lon="-7.963336209383229"><ele>497.0</ele><time>2026-04-23T11:03:49.998Z</time></trkpt><trkpt lat="32.28996547680339" lon="-7.9634650425282585"><ele>498.0</ele><time>2026-04-23T11:03:50.998Z</time></trkpt><trkpt lat="32.28968756159569" lon="-7.963595383511872"><ele>499.0</ele><time>2026-04-23T11:03:51.998Z</time></trkpt><trkpt lat="32.28940546755512" lon="-7.96372467009249"><ele>499.0</ele><time>2026-04-23T11:03:52.998Z</time></trkpt><trkpt lat="32.289128772803124" lon="-7.9638568673730035"><ele>499.0</ele><time>2026-04-23T11:03:53.998Z</time></trkpt><trkpt lat="32.28885169605733" lon="-7.963989725694626"><ele>499.0</ele><time>2026-04-23T11:03:54.998Z</time></trkpt><trkpt lat="32.28857110505295" lon="-7.964121489654322"><ele>499.0</ele><time>2026-04-23T11:03:55.998Z</time></trkpt><trkpt lat="32.2882914221091" lon="-7.964250732730908"><ele>499.0</ele><time>2026-04-23T11:03:56.998Z</time></trkpt><trkpt lat="32.28801338059839" lon="-7.96438450395165"><ele>499.0</ele><time>2026-04-23T11:03:57.998Z</time></trkpt><trkpt lat="32.28773595025008" lon="-7.9645153510301165"><ele>499.0</ele><time>2026-04-23T11:03:58.998Z</time></trkpt><trkpt lat="32.28745551946154" lon="-7.964647163587021"><ele>499.0</ele><time>2026-04-23T11:03:59.998Z</time></trkpt><trkpt lat="32.28717764607919" lon="-7.964778103537785"><ele>499.5</ele><time>2026-04-23T11:04:01Z</time></trkpt><trkpt lat="32.28689487109326" lon="-7.964903793786452"><ele>500.0</ele><time>2026-04-23T11:04:02Z</time></trkpt><trkpt lat="32.286610085537774" lon="-7.965032491804802"><ele>498.0</ele><time>2026-04-23T11:04:03Z</time></trkpt><trkpt lat="32.28633200365489" lon="-7.9651586537403665"><ele>496.0</ele><time>2026-04-23T11:04:04Z</time></trkpt><trkpt lat="32.28604743312718" lon="-7.965280558027622"><ele>496.0</ele><time>2026-04-23T11:04:05Z</time></trkpt><trkpt lat="32.285760176301075" lon="-7.965398741499736"><ele>496.0</ele><time>2026-04-23T11:04:06Z</time></trkpt><trkpt lat="32.28547296761088" lon="-7.965516319935897"><ele>495.0</ele><time>2026-04-23T11:04:07Z</time></trkpt><trkpt lat="32.285189593245725" lon="-7.965635774236359"><ele>494.0</ele><time>2026-04-23T11:04:08Z</time></trkpt><trkpt lat="32.28490112887293" lon="-7.965752889149073"><ele>495.0</ele><time>2026-04-23T11:04:09Z</time></trkpt><trkpt lat="32.28461874263822" lon="-7.965871539617847"><ele>496.0</ele><time>2026-04-23T11:04:10Z</time></trkpt><trkpt lat="32.2843329795974" lon="-7.96598533055656"><ele>496.0</ele><time>2026-04-23T11:04:11Z</time></trkpt><trkpt lat="32.28404995704766" lon="-7.9660969053230986"><ele>496.0</ele><time>2026-04-23T11:04:12Z</time></trkpt><trkpt lat="32.283762992466656" lon="-7.966208754783548"><ele>496.5</ele><time>2026-04-23T11:04:13Z</time></trkpt><trkpt lat="32.28347607633981" lon="-7.96631814023968"><ele>497.0</ele><time>2026-04-23T11:04:14Z</time></trkpt><trkpt lat="32.283190341260344" lon="-7.966423495275357"><ele>498.0</ele><time>2026-04-23T11:04:15Z</time></trkpt><trkpt lat="32.28290168191672" lon="-7.966529528180903"><ele>499.0</ele><time>2026-04-23T11:04:16Z</time></trkpt><trkpt lat="32.28261359600302" lon="-7.966631409849947"><ele>500.0</ele><time>2026-04-23T11:04:17Z</time></trkpt><trkpt lat="32.282327699541156" lon="-7.966735124840529"><ele>501.0</ele><time>2026-04-23T11:04:18Z</time></trkpt><trkpt lat="32.28204269255859" lon="-7.966836152147291"><ele>501.5</ele><time>2026-04-23T11:04:19Z</time></trkpt><trkpt lat="32.28175654281471" lon="-7.966938064124932"><ele>502.0</ele><time>2026-04-23T11:04:20Z</time></trkpt><trkpt lat="32.28146733837946" lon="-7.967041827438187"><ele>502.5</ele><time>2026-04-23T11:04:21Z</time></trkpt><trkpt lat="32.28117604641424" lon="-7.967141172429487"><ele>503.0</ele><time>2026-04-23T11:04:22Z</time></trkpt><trkpt lat="32.28088563565238" lon="-7.967238293756333"><ele>504.0</ele><time>2026-04-23T11:04:23Z</time></trkpt><trkpt lat="32.28059629450458" lon="-7.96733170348129"><ele>505.0</ele><time>2026-04-23T11:04:24Z</time></trkpt><trkpt lat="32.28030683931932" lon="-7.967432811258907"><ele>505.0</ele><time>2026-04-23T11:04:25Z</time></trkpt><trkpt lat="32.28001556707679" lon="-7.967525795761183"><ele>505.0</ele><time>2026-04-23T11:04:26Z</time></trkpt><trkpt lat="32.27972341179984" lon="-7.967619916901811"><ele>501.5</ele><time>2026-04-23T11:04:27Z</time></trkpt><trkpt lat="32.27942987002822" lon="-7.967709528387297"><ele>498.0</ele><time>2026-04-23T11:04:28Z</time></trkpt><trkpt lat="32.279135684608185" lon="-7.96779565419766"><ele>498.5</ele><time>2026-04-23T11:04:29Z</time></trkpt><trkpt lat="32.27884213712077" lon="-7.967878205819658"><ele>499.0</ele><time>2026-04-23T11:04:30Z</time></trkpt><trkpt lat="32.27854794831045" lon="-7.967959908505722"><ele>499.0</ele><time>2026-04-23T11:04:31Z</time></trkpt><trkpt lat="32.27825412012717" lon="-7.968038650089208"><ele>499.0</ele><time>2026-04-23T11:04:31.999Z</time></trkpt><trkpt lat="32.277961223060636" lon="-7.968112032000296"><ele>498.0</ele><time>2026-04-23T11:04:32.999Z</time></trkpt><trkpt lat="32.277669435441666" lon="-7.96818619479802"><ele>497.0</ele><time>2026-04-23T11:04:33.999Z</time></trkpt><trkpt lat="32.277375407461456" lon="-7.968259875985597"><ele>496.0</ele><time>2026-04-23T11:04:34.999Z</time></trkpt><trkpt lat="32.27708091966084" lon="-7.968333364980381"><ele>495.0</ele><time>2026-04-23T11:04:35.999Z</time></trkpt><trkpt lat="32.27678939911065" lon="-7.9684040572372155"><ele>495.0</ele><time>2026-04-23T11:04:36.999Z</time></trkpt><trkpt lat="32.27649793275549" lon="-7.968472707669884"><ele>495.0</ele><time>2026-04-23T11:04:37.999Z</time></trkpt><trkpt lat="32.27620445652524" lon="-7.968541296621658"><ele>493.5</ele><time>2026-04-23T11:04:38.999Z</time></trkpt><trkpt lat="32.27590466439625" lon="-7.968608212096256"><ele>492.0</ele><time>2026-04-23T11:04:39.999Z</time></trkpt><trkpt lat="32.275606316973004" lon="-7.968670730721882"><ele>492.0</ele><time>2026-04-23T11:04:40.999Z</time></trkpt><trkpt lat="32.27531159467754" lon="-7.968735422461195"><ele>492.0</ele><time>2026-04-23T11:04:41.999Z</time></trkpt><trkpt lat="32.27501161199292" lon="-7.968794411656273"><ele>492.0</ele><time>2026-04-23T11:04:42.999Z</time></trkpt><trkpt lat="32.27471386382645" lon="-7.96885477315219"><ele>492.0</ele><time>2026-04-23T11:04:43.999Z</time></trkpt><trkpt lat="32.27441625849122" lon="-7.968913622784797"><ele>492.0</ele><time>2026-04-23T11:04:44.999Z</time></trkpt><trkpt lat="32.274116444305385" lon="-7.968966841942641"><ele>492.0</ele><time>2026-04-23T11:04:45.999Z</time></trkpt><trkpt lat="32.27381895110536" lon="-7.969024569069187"><ele>491.5</ele><time>2026-04-23T11:04:46.999Z</time></trkpt><trkpt lat="32.27352080211639" lon="-7.969072025250445"><ele>491.0</ele><time>2026-04-23T11:04:47.999Z</time></trkpt><trkpt lat="32.27322049447041" lon="-7.969118100066579"><ele>491.5</ele><time>2026-04-23T11:04:48.999Z</time></trkpt><trkpt lat="32.272924027724606" lon="-7.969160924282467"><ele>492.0</ele><time>2026-04-23T11:04:49.999Z</time></trkpt><trkpt lat="32.27262664846789" lon="-7.969207489336034"><ele>490.5</ele><time>2026-04-23T11:04:50.999Z</time></trkpt><trkpt lat="32.272321991978714" lon="-7.969253624872678"><ele>489.0</ele><time>2026-04-23T11:04:51.999Z</time></trkpt><trkpt lat="32.272021419918396" lon="-7.969298340153138"><ele>487.5</ele><time>2026-04-23T11:04:52.999Z</time></trkpt><trkpt lat="32.271722950426295" lon="-7.969340741969281"><ele>486.0</ele><time>2026-04-23T11:04:53.999Z</time></trkpt><trkpt lat="32.27142352369388" lon="-7.969379365786434"><ele>484.0</ele><time>2026-04-23T11:04:54.999Z</time></trkpt><trkpt lat="32.27112458019064" lon="-7.969421661321156"><ele>482.0</ele><time>2026-04-23T11:04:55.999Z</time></trkpt><trkpt lat="32.27082540993649" lon="-7.969460651801047"><ele>482.0</ele><time>2026-04-23T11:04:56.999Z</time></trkpt><trkpt lat="32.27052727739845" lon="-7.9695003143565035"><ele>482.0</ele><time>2026-04-23T11:04:57.999Z</time></trkpt><trkpt lat="32.27022581319696" lon="-7.969542371461413"><ele>482.0</ele><time>2026-04-23T11:04:58.999Z</time></trkpt><trkpt lat="32.26992644942268" lon="-7.969583970997361"><ele>482.0</ele><time>2026-04-23T11:04:59.999Z</time></trkpt><trkpt lat="32.2696288305296" lon="-7.96962822403299"><ele>481.5</ele><time>2026-04-23T11:05:00.999Z</time></trkpt><trkpt lat="32.26932735182399" lon="-7.969669033922477"><ele>481.0</ele><time>2026-04-23T11:05:01.999Z</time></trkpt><trkpt lat="32.26902571474699" lon="-7.969710411822767"><ele>481.5</ele><time>2026-04-23T11:05:02.999Z</time></trkpt><trkpt lat="32.26872761290264" lon="-7.969750407557737"><ele>482.0</ele><time>2026-04-23T11:05:03.999Z</time></trkpt><trkpt lat="32.268427780387555" lon="-7.969790234794185"><ele>482.0</ele><time>2026-04-23T11:05:04.999Z</time></trkpt><trkpt lat="32.268129531298804" lon="-7.969826260747941"><ele>482.0</ele><time>2026-04-23T11:05:05.999Z</time></trkpt><trkpt lat="32.26783555488171" lon="-7.969865805713811"><ele>481.5</ele><time>2026-04-23T11:05:06.999Z</time></trkpt><trkpt lat="32.267537067956376" lon="-7.96990727608114"><ele>481.0</ele><time>2026-04-23T11:05:07.999Z</time></trkpt><trkpt lat="32.26724037240421" lon="-7.9699535404494535"><ele>481.0</ele><time>2026-04-23T11:05:08.999Z</time></trkpt><trkpt lat="32.26694165918072" lon="-7.970002579598852"><ele>481.0</ele><time>2026-04-23T11:05:09.999Z</time></trkpt><trkpt lat="32.266644957710106" lon="-7.97005717270161"><ele>478.5</ele><time>2026-04-23T11:05:10.999Z</time></trkpt><trkpt lat="32.266350215624286" lon="-7.970109616257319"><ele>476.0</ele><time>2026-04-23T11:05:11.999Z</time></trkpt><trkpt lat="32.266050215213355" lon="-7.970166969184051"><ele>476.0</ele><time>2026-04-23T11:05:12.999Z</time></trkpt><trkpt lat="32.2657562793685" lon="-7.970228032165908"><ele>476.0</ele><time>2026-04-23T11:05:13.999Z</time></trkpt><trkpt lat="32.26546246993641" lon="-7.970292421036169"><ele>476.0</ele><time>2026-04-23T11:05:14.999Z</time></trkpt><trkpt lat="32.26516550583435" lon="-7.970357571619367"><ele>476.0</ele><time>2026-04-23T11:05:15.999Z</time></trkpt><trkpt lat="32.26487428331521" lon="-7.970422903725794"><ele>475.5</ele><time>2026-04-23T11:05:16.999Z</time></trkpt><trkpt lat="32.26458153586393" lon="-7.970492876898391"><ele>475.0</ele><time>2026-04-23T11:05:17.999Z</time></trkpt><trkpt lat="32.26428639294081" lon="-7.970565910236627"><ele>475.0</ele><time>2026-04-23T11:05:18.999Z</time></trkpt><trkpt lat="32.26398944061274" lon="-7.97064130350164"><ele>475.0</ele><time>2026-04-23T11:05:19.999Z</time></trkpt><trkpt lat="32.263695593072995" lon="-7.970721387421797"><ele>475.5</ele><time>2026-04-23T11:05:20.999Z</time></trkpt><trkpt lat="32.26340323791187" lon="-7.970804265132182"><ele>476.0</ele><time>2026-04-23T11:05:21.999Z</time></trkpt><trkpt lat="32.26310510892926" lon="-7.970888573467405"><ele>477.0</ele><time>2026-04-23T11:05:22.999Z</time></trkpt><trkpt lat="32.26281461147073" lon="-7.970970394391597"><ele>478.0</ele><time>2026-04-23T11:05:23.999Z</time></trkpt><trkpt lat="32.26252348985582" lon="-7.97105689583768"><ele>476.5</ele><time>2026-04-23T11:05:24.999Z</time></trkpt><trkpt lat="32.26223312296569" lon="-7.971144573099859"><ele>475.0</ele><time>2026-04-23T11:05:25.999Z</time></trkpt><trkpt lat="32.26194423232157" lon="-7.971238458688516"><ele>475.0</ele><time>2026-04-23T11:05:26.999Z</time></trkpt><trkpt lat="32.26165287952576" lon="-7.971331843187837"><ele>475.0</ele><time>2026-04-23T11:05:27.999Z</time></trkpt><trkpt lat="32.261364205805585" lon="-7.971428530421864"><ele>474.0</ele><time>2026-04-23T11:05:28.999Z</time></trkpt><trkpt lat="32.261078490165495" lon="-7.971528293205944"><ele>473.0</ele><time>2026-04-23T11:05:29.999Z</time></trkpt><trkpt lat="32.26078783246147" lon="-7.971632426025598"><ele>473.5</ele><time>2026-04-23T11:05:30.999Z</time></trkpt><trkpt lat="32.2604990739952" lon="-7.971737613644887"><ele>474.0</ele><time>2026-04-23T11:05:31.999Z</time></trkpt><trkpt lat="32.260208854159316" lon="-7.971842241383949"><ele>474.0</ele><time>2026-04-23T11:05:32.999Z</time></trkpt><trkpt lat="32.25992076487057" lon="-7.971953130779773"><ele>474.0</ele><time>2026-04-23T11:05:33.999Z</time></trkpt><trkpt lat="32.25963340099385" lon="-7.972067207446425"><ele>475.0</ele><time>2026-04-23T11:05:34.999Z</time></trkpt><trkpt lat="32.25934584491036" lon="-7.972178028713582"><ele>476.0</ele><time>2026-04-23T11:05:35.999Z</time></trkpt><trkpt lat="32.2590638732736" lon="-7.972294726446358"><ele>474.5</ele><time>2026-04-23T11:05:36.999Z</time></trkpt><trkpt lat="32.258778018306316" lon="-7.972412014014954"><ele>473.0</ele><time>2026-04-23T11:05:37.999Z</time></trkpt><trkpt lat="32.25849763255653" lon="-7.972534041336299"><ele>472.0</ele><time>2026-04-23T11:05:38.999Z</time></trkpt><trkpt lat="32.25821338781387" lon="-7.9726583531777235"><ele>471.0</ele><time>2026-04-23T11:05:39.999Z</time></trkpt><trkpt lat="32.25792939552151" lon="-7.97277959420632"><ele>469.5</ele><time>2026-04-23T11:05:40.999Z</time></trkpt><trkpt lat="32.25764747963796" lon="-7.972908550064903"><ele>468.0</ele><time>2026-04-23T11:05:41.999Z</time></trkpt><trkpt lat="32.257371797129345" lon="-7.973033541250279"><ele>468.0</ele><time>2026-04-23T11:05:42.999Z</time></trkpt><trkpt lat="32.257087066818954" lon="-7.973163057052824"><ele>468.0</ele><time>2026-04-23T11:05:43.999Z</time></trkpt><trkpt lat="32.25680556074401" lon="-7.973295458241431"><ele>467.5</ele><time>2026-04-23T11:05:44.999Z</time></trkpt><trkpt lat="32.256525874820255" lon="-7.973427909817517"><ele>467.0</ele><time>2026-04-23T11:05:45.999Z</time></trkpt><trkpt lat="32.25624712988464" lon="-7.9735646757562355"><ele>468.0</ele><time>2026-04-23T11:05:46.998Z</time></trkpt><trkpt lat="32.25596990574742" lon="-7.973699644988071"><ele>469.0</ele><time>2026-04-23T11:05:47.998Z</time></trkpt><trkpt lat="32.25569429508724" lon="-7.973840452006306"><ele>467.5</ele><time>2026-04-23T11:05:48.998Z</time></trkpt><trkpt lat="32.255418196703445" lon="-7.973979600120383"><ele>466.0</ele><time>2026-04-23T11:05:49.998Z</time></trkpt><trkpt lat="32.25514562104049" lon="-7.974120282178836"><ele>467.5</ele><time>2026-04-23T11:05:50.998Z</time></trkpt><trkpt lat="32.25487461648072" lon="-7.974267881906907"><ele>469.0</ele><time>2026-04-23T11:05:51.998Z</time></trkpt><trkpt lat="32.254603283770486" lon="-7.974421437956405"><ele>469.5</ele><time>2026-04-23T11:05:52.998Z</time></trkpt><trkpt lat="32.254334568119525" lon="-7.974575645636639"><ele>470.0</ele><time>2026-04-23T11:05:53.998Z</time></trkpt><trkpt lat="32.25406460695447" lon="-7.974730163821078"><ele>470.0</ele><time>2026-04-23T11:05:54.998Z</time></trkpt><trkpt lat="32.253798140712945" lon="-7.974887448199361"><ele>470.0</ele><time>2026-04-23T11:05:55.998Z</time></trkpt><trkpt lat="32.253529953627776" lon="-7.975049088451573"><ele>471.0</ele><time>2026-04-23T11:05:56.998Z</time></trkpt><trkpt lat="32.25326549542379" lon="-7.975214925365337"><ele>472.0</ele><time>2026-04-23T11:05:57.998Z</time></trkpt><trkpt lat="32.253003395297824" lon="-7.975382752186589"><ele>472.5</ele><time>2026-04-23T11:05:58.998Z</time></trkpt><trkpt lat="32.252737256016246" lon="-7.975548401319226"><ele>473.0</ele><time>2026-04-23T11:05:59.998Z</time></trkpt><trkpt lat="32.25247296271956" lon="-7.975717444024995"><ele>473.0</ele><time>2026-04-23T11:06:00.998Z</time></trkpt><trkpt lat="32.252207917603954" lon="-7.9758857309433315"><ele>473.0</ele><time>2026-04-23T11:06:01.998Z</time></trkpt><trkpt lat="32.251944779067436" lon="-7.976057584789194"><ele>473.0</ele><time>2026-04-23T11:06:02.998Z</time></trkpt><trkpt lat="32.251679555602195" lon="-7.9762292311044725"><ele>473.0</ele><time>2026-04-23T11:06:03.998Z</time></trkpt><trkpt lat="32.251418203416485" lon="-7.97640371893527"><ele>472.5</ele><time>2026-04-23T11:06:04.998Z</time></trkpt><trkpt lat="32.251157803384594" lon="-7.976581920258856"><ele>472.0</ele><time>2026-04-23T11:06:06Z</time></trkpt><trkpt lat="32.25089573809253" lon="-7.976751894351906"><ele>472.0</ele><time>2026-04-23T11:06:07Z</time></trkpt><trkpt lat="32.250630065136626" lon="-7.976923379559161"><ele>472.0</ele><time>2026-04-23T11:06:08Z</time></trkpt><trkpt lat="32.2503645447305" lon="-7.9770954001041945"><ele>471.5</ele><time>2026-04-23T11:06:09Z</time></trkpt><trkpt lat="32.25009934595114" lon="-7.977267329334881"><ele>471.0</ele><time>2026-04-23T11:06:10Z</time></trkpt><trkpt lat="32.249837367109606" lon="-7.977435156517757"><ele>471.0</ele><time>2026-04-23T11:06:11Z</time></trkpt><trkpt lat="32.24957413053756" lon="-7.977598033083305"><ele>471.0</ele><time>2026-04-23T11:06:12Z</time></trkpt><trkpt lat="32.24930663274697" lon="-7.977761706329682"><ele>471.0</ele><time>2026-04-23T11:06:13Z</time></trkpt><trkpt lat="32.249042063170506" lon="-7.977923538805618"><ele>471.0</ele><time>2026-04-23T11:06:14Z</time></trkpt><trkpt lat="32.24877430086744" lon="-7.97808509209925"><ele>471.0</ele><time>2026-04-23T11:06:15Z</time></trkpt><trkpt lat="32.24850378955673" lon="-7.978241724598943"><ele>471.0</ele><time>2026-04-23T11:06:16Z</time></trkpt><trkpt lat="32.248233381630655" lon="-7.978393901264751"><ele>468.0</ele><time>2026-04-23T11:06:17Z</time></trkpt><trkpt lat="32.24796132383876" lon="-7.978542058830761"><ele>465.0</ele><time>2026-04-23T11:06:18Z</time></trkpt><trkpt lat="32.2476886405205" lon="-7.978688700843628"><ele>465.0</ele><time>2026-04-23T11:06:19Z</time></trkpt><trkpt lat="32.24741336822074" lon="-7.978836185739283"><ele>465.0</ele><time>2026-04-23T11:06:20Z</time></trkpt><trkpt lat="32.24713926614159" lon="-7.978975467372884"><ele>466.5</ele><time>2026-04-23T11:06:21Z</time></trkpt><trkpt lat="32.24686194223169" lon="-7.9791141451629475"><ele>468.0</ele><time>2026-04-23T11:06:22Z</time></trkpt><trkpt lat="32.24658278523784" lon="-7.97925360520494"><ele>468.5</ele><time>2026-04-23T11:06:23Z</time></trkpt><trkpt lat="32.246302985017294" lon="-7.979385775298918"><ele>469.0</ele><time>2026-04-23T11:06:24Z</time></trkpt><trkpt lat="32.24602554325053" lon="-7.979517728008397"><ele>469.0</ele><time>2026-04-23T11:06:25Z</time></trkpt><trkpt lat="32.245746800600344" lon="-7.979640937960618"><ele>469.0</ele><time>2026-04-23T11:06:26Z</time></trkpt><trkpt lat="32.24546436535916" lon="-7.979756493005862"><ele>468.5</ele><time>2026-04-23T11:06:27Z</time></trkpt><trkpt lat="32.24518308011238" lon="-7.979869288870581"><ele>468.0</ele><time>2026-04-23T11:06:28Z</time></trkpt><trkpt lat="32.244897509569824" lon="-7.979976253213026"><ele>469.0</ele><time>2026-04-23T11:06:29Z</time></trkpt><trkpt lat="32.24460570592988" lon="-7.980073897217878"><ele>470.0</ele><time>2026-04-23T11:06:30Z</time></trkpt><trkpt lat="32.24431342172606" lon="-7.980170754518537"><ele>470.0</ele><time>2026-04-23T11:06:31Z</time></trkpt><trkpt lat="32.244020621720566" lon="-7.9802634986238115"><ele>470.0</ele><time>2026-04-23T11:06:32Z</time></trkpt><trkpt lat="32.24372683528803" lon="-7.980350323142093"><ele>470.0</ele><time>2026-04-23T11:06:32.999Z</time></trkpt><trkpt lat="32.24343212528434" lon="-7.9804348156404785"><ele>470.0</ele><time>2026-04-23T11:06:33.999Z</time></trkpt><trkpt lat="32.24314236192964" lon="-7.9805079514991775"><ele>466.5</ele><time>2026-04-23T11:06:34.999Z</time></trkpt><trkpt lat="32.242853009793464" lon="-7.98057702325052"><ele>463.0</ele><time>2026-04-23T11:06:35.999Z</time></trkpt><trkpt lat="32.24255676587426" lon="-7.980644769387336"><ele>460.5</ele><time>2026-04-23T11:06:36.999Z</time></trkpt><trkpt lat="32.24225821368329" lon="-7.980713108276567"><ele>458.0</ele><time>2026-04-23T11:06:37.999Z</time></trkpt><trkpt lat="32.24196438264995" lon="-7.980776569348121"><ele>458.0</ele><time>2026-04-23T11:06:38.999Z</time></trkpt><trkpt lat="32.24166655185996" lon="-7.9808336495546905"><ele>458.0</ele><time>2026-04-23T11:06:39.999Z</time></trkpt><trkpt lat="32.24137007459748" lon="-7.9808898088007325"><ele>457.5</ele><time>2026-04-23T11:06:40.999Z</time></trkpt><trkpt lat="32.24107052302254" lon="-7.980935859363614"><ele>457.0</ele><time>2026-04-23T11:06:41.999Z</time></trkpt><trkpt lat="32.2407712739058" lon="-7.980980714394372"><ele>455.0</ele><time>2026-04-23T11:06:42.999Z</time></trkpt><trkpt lat="32.240469206270824" lon="-7.981020804886161"><ele>453.0</ele><time>2026-04-23T11:06:43.999Z</time></trkpt><trkpt lat="32.240171430640096" lon="-7.981056409042998"><ele>453.0</ele><time>2026-04-23T11:06:44.999Z</time></trkpt><trkpt lat="32.23987742018527" lon="-7.981081140465681"><ele>453.0</ele><time>2026-04-23T11:06:45.999Z</time></trkpt><trkpt lat="32.239577365550836" lon="-7.981098171473797"><ele>453.5</ele><time>2026-04-23T11:06:46.999Z</time></trkpt><trkpt lat="32.23927785824732" lon="-7.981108547857387"><ele>454.0</ele><time>2026-04-23T11:06:47.999Z</time></trkpt><trkpt lat="32.238977876970864" lon="-7.981115078650474"><ele>455.0</ele><time>2026-04-23T11:06:48.999Z</time></trkpt><trkpt lat="32.23867842289474" lon="-7.98111438945179"><ele>456.0</ele><time>2026-04-23T11:06:49.999Z</time></trkpt><trkpt lat="32.238372419334944" lon="-7.981118357213641"><ele>457.0</ele><time>2026-04-23T11:06:50.999Z</time></trkpt><trkpt lat="32.23807008447694" lon="-7.981117858570387"><ele>458.0</ele><time>2026-04-23T11:06:51.999Z</time></trkpt><trkpt lat="32.23776914139304" lon="-7.981116375296463"><ele>458.0</ele><time>2026-04-23T11:06:52.999Z</time></trkpt><trkpt lat="32.2374691606403" lon="-7.981113259402653"><ele>458.0</ele><time>2026-04-23T11:06:53.999Z</time></trkpt><trkpt lat="32.23716828688529" lon="-7.981108723525163"><ele>456.5</ele><time>2026-04-23T11:06:54.999Z</time></trkpt><trkpt lat="32.236862842978574" lon="-7.981106321636823"><ele>455.0</ele><time>2026-04-23T11:06:55.999Z</time></trkpt><trkpt lat="32.236562276931636" lon="-7.981108664115549"><ele>454.0</ele><time>2026-04-23T11:06:56.999Z</time></trkpt><trkpt lat="32.2362606612105" lon="-7.981109732225602"><ele>453.0</ele><time>2026-04-23T11:06:57.999Z</time></trkpt><trkpt lat="32.23595790920586" lon="-7.981107607122811"><ele>453.0</ele><time>2026-04-23T11:06:58.999Z</time></trkpt><trkpt lat="32.23565558930616" lon="-7.981110172004783"><ele>453.0</ele><time>2026-04-23T11:06:59.999Z</time></trkpt><trkpt lat="32.23535624116952" lon="-7.9811100497829415"><ele>452.5</ele><time>2026-04-23T11:07:00.999Z</time></trkpt><trkpt lat="32.23505271012778" lon="-7.9811075204598465"><ele>452.0</ele><time>2026-04-23T11:07:01.999Z</time></trkpt><trkpt lat="32.23474952699526" lon="-7.981104897479044"><ele>450.5</ele><time>2026-04-23T11:07:02.999Z</time></trkpt><trkpt lat="32.234447620379825" lon="-7.981102932732877"><ele>449.0</ele><time>2026-04-23T11:07:03.999Z</time></trkpt><trkpt lat="32.234147036648814" lon="-7.9811043834168975"><ele>448.5</ele><time>2026-04-23T11:07:04.999Z</time></trkpt><trkpt lat="32.233844940568666" lon="-7.981105678412851"><ele>448.0</ele><time>2026-04-23T11:07:05.999Z</time></trkpt><trkpt lat="32.23354718096005" lon="-7.981108384137657"><ele>448.0</ele><time>2026-04-23T11:07:06.999Z</time></trkpt><trkpt lat="32.23324117744232" lon="-7.981113440466346"><ele>448.0</ele><time>2026-04-23T11:07:07.999Z</time></trkpt><trkpt lat="32.23294259596534" lon="-7.981122062543307"><ele>449.5</ele><time>2026-04-23T11:07:08.999Z</time></trkpt><trkpt lat="32.23264299352471" lon="-7.981130072508278"><ele>451.0</ele><time>2026-04-23T11:07:09.999Z</time></trkpt><trkpt lat="32.232342241300415" lon="-7.981129483843789"><ele>452.5</ele><time>2026-04-23T11:07:10.999Z</time></trkpt><trkpt lat="32.2320431336538" lon="-7.981129539937397"><ele>454.0</ele><time>2026-04-23T11:07:11.999Z</time></trkpt><trkpt lat="32.23174561895643" lon="-7.981124797147197"><ele>454.0</ele><time>2026-04-23T11:07:12.999Z</time></trkpt><trkpt lat="32.231442703652846" lon="-7.981120985946615"><ele>454.0</ele><time>2026-04-23T11:07:13.999Z</time></trkpt><trkpt lat="32.23113758124072" lon="-7.981116530474273"><ele>454.0</ele><time>2026-04-23T11:07:14.999Z</time></trkpt><trkpt lat="32.230834231317765" lon="-7.981112741851807"><ele>454.0</ele><time>2026-04-23T11:07:15.999Z</time></trkpt><trkpt lat="32.23053336996436" lon="-7.981103795549441"><ele>454.5</ele><time>2026-04-23T11:07:16.999Z</time></trkpt><trkpt lat="32.230232228823326" lon="-7.98109905904911"><ele>455.0</ele><time>2026-04-23T11:07:17.999Z</time></trkpt><trkpt lat="32.22993118302012" lon="-7.981093444793218"><ele>453.0</ele><time>2026-04-23T11:07:18.999Z</time></trkpt><trkpt lat="32.22962986062345" lon="-7.98109070476034"><ele>451.0</ele><time>2026-04-23T11:07:19.999Z</time></trkpt><trkpt lat="32.22933069627826" lon="-7.981088559899171"><ele>451.0</ele><time>2026-04-23T11:07:20.999Z</time></trkpt><trkpt lat="32.229027888211405" lon="-7.981086562044238"><ele>451.0</ele><time>2026-04-23T11:07:21.999Z</time></trkpt><trkpt lat="32.228726769546654" lon="-7.981080342749062"><ele>452.0</ele><time>2026-04-23T11:07:22.999Z</time></trkpt><trkpt lat="32.22842655857101" lon="-7.981080060896238"><ele>453.0</ele><time>2026-04-23T11:07:23.999Z</time></trkpt><trkpt lat="32.22812512336546" lon="-7.981077645995461"><ele>453.5</ele><time>2026-04-23T11:07:24.999Z</time></trkpt><trkpt lat="32.227822817871214" lon="-7.9810745178522575"><ele>454.0</ele><time>2026-04-23T11:07:25.999Z</time></trkpt><trkpt lat="32.22752062056819" lon="-7.9810719595166555"><ele>455.0</ele><time>2026-04-23T11:07:26.999Z</time></trkpt><trkpt lat="32.22722242113464" lon="-7.9810742487764434"><ele>456.0</ele><time>2026-04-23T11:07:27.999Z</time></trkpt><trkpt lat="32.226923623673436" lon="-7.9810810500556775"><ele>456.0</ele><time>2026-04-23T11:07:28.999Z</time></trkpt><trkpt lat="32.22662364244124" lon="-7.981087502582425"><ele>456.0</ele><time>2026-04-23T11:07:29.999Z</time></trkpt><trkpt lat="32.22632324583312" lon="-7.981087830346645"><ele>458.0</ele><time>2026-04-23T11:07:30.999Z</time></trkpt><trkpt lat="32.226022235892486" lon="-7.981089121561301"><ele>460.0</ele><time>2026-04-23T11:07:31.999Z</time></trkpt><trkpt lat="32.225724500017805" lon="-7.981088968101783"><ele>460.0</ele><time>2026-04-23T11:07:32.999Z</time></trkpt><trkpt lat="32.225422572525225" lon="-7.981096484473767"><ele>460.0</ele><time>2026-04-23T11:07:33.999Z</time></trkpt><trkpt lat="32.22511842759464" lon="-7.981113052852501"><ele>460.0</ele><time>2026-04-23T11:07:34.999Z</time></trkpt><trkpt lat="32.224821438605076" lon="-7.981130859279528"><ele>460.0</ele><time>2026-04-23T11:07:35.999Z</time></trkpt><trkpt lat="32.224522001452634" lon="-7.981155508236871"><ele>460.5</ele><time>2026-04-23T11:07:36.999Z</time></trkpt><trkpt lat="32.224223242444445" lon="-7.981182629042753"><ele>461.0</ele><time>2026-04-23T11:07:37.999Z</time></trkpt><trkpt lat="32.22392327977953" lon="-7.98121404681803"><ele>461.0</ele><time>2026-04-23T11:07:38.999Z</time></trkpt><trkpt lat="32.223626101860916" lon="-7.98124868138626"><ele>461.0</ele><time>2026-04-23T11:07:39.999Z</time></trkpt><trkpt lat="32.22332669020514" lon="-7.981285834844462"><ele>461.5</ele><time>2026-04-23T11:07:40.999Z</time></trkpt><trkpt lat="32.22302650258354" lon="-7.981324824387285"><ele>462.0</ele><time>2026-04-23T11:07:41.999Z</time></trkpt><trkpt lat="32.22273008834394" lon="-7.981374781812398"><ele>462.0</ele><time>2026-04-23T11:07:42.999Z</time></trkpt><trkpt lat="32.22242950121987" lon="-7.981420809652122"><ele>462.0</ele><time>2026-04-23T11:07:43.999Z</time></trkpt><trkpt lat="32.22213120499937" lon="-7.981470936229681"><ele>463.0</ele><time>2026-04-23T11:07:44.999Z</time></trkpt><trkpt lat="32.22183472885296" lon="-7.981524363380913"><ele>464.0</ele><time>2026-04-23T11:07:45.999Z</time></trkpt><trkpt lat="32.221539178765155" lon="-7.981583755416047"><ele>463.0</ele><time>2026-04-23T11:07:46.999Z</time></trkpt><trkpt lat="32.22125119110961" lon="-7.981641771498763"><ele>462.0</ele><time>2026-04-23T11:07:47.999Z</time></trkpt><trkpt lat="32.22096288849" lon="-7.981705100054666"><ele>461.0</ele><time>2026-04-23T11:07:48.999Z</time></trkpt><trkpt lat="32.22067176065787" lon="-7.9817664860966335"><ele>460.0</ele><time>2026-04-23T11:07:49.998Z</time></trkpt><trkpt lat="32.220376167540394" lon="-7.981837287891845"><ele>460.0</ele><time>2026-04-23T11:07:50.998Z</time></trkpt><trkpt lat="32.22008270275429" lon="-7.981911577045735"><ele>460.0</ele><time>2026-04-23T11:07:51.998Z</time></trkpt><trkpt lat="32.21979383458366" lon="-7.981995136222609"><ele>459.5</ele><time>2026-04-23T11:07:52.998Z</time></trkpt><trkpt lat="32.21950575190758" lon="-7.982085032822739"><ele>459.0</ele><time>2026-04-23T11:07:53.998Z</time></trkpt><trkpt lat="32.21921584294079" lon="-7.98218195900312"><ele>460.5</ele><time>2026-04-23T11:07:54.998Z</time></trkpt><trkpt lat="32.21892715008252" lon="-7.9822802410742595"><ele>462.0</ele><time>2026-04-23T11:07:55.998Z</time></trkpt><trkpt lat="32.21864178191955" lon="-7.982380232946802"><ele>462.0</ele><time>2026-04-23T11:07:56.998Z</time></trkpt><trkpt lat="32.21835332028199" lon="-7.982486267815458"><ele>462.0</ele><time>2026-04-23T11:07:57.998Z</time></trkpt><trkpt lat="32.21806399359273" lon="-7.982595491003107"><ele>460.0</ele><time>2026-04-23T11:07:58.998Z</time></trkpt><trkpt lat="32.21777597301822" lon="-7.9827070021895485"><ele>458.0</ele><time>2026-04-23T11:07:59.998Z</time></trkpt><trkpt lat="32.21749540680102" lon="-7.982822816301561"><ele>458.5</ele><time>2026-04-23T11:08:00.998Z</time></trkpt><trkpt lat="32.21721548795451" lon="-7.982940396444828"><ele>459.0</ele><time>2026-04-23T11:08:01.998Z</time></trkpt><trkpt lat="32.21693225476024" lon="-7.983063331659902"><ele>459.0</ele><time>2026-04-23T11:08:02.998Z</time></trkpt><trkpt lat="32.21664690600214" lon="-7.983187109642458"><ele>459.0</ele><time>2026-04-23T11:08:03.998Z</time></trkpt><trkpt lat="32.21636738179694" lon="-7.983320066563147"><ele>458.0</ele><time>2026-04-23T11:08:04.998Z</time></trkpt><trkpt lat="32.21608819730185" lon="-7.983454788904285"><ele>457.0</ele><time>2026-04-23T11:08:05.998Z</time></trkpt><trkpt lat="32.215808586461065" lon="-7.983592409054692"><ele>458.0</ele><time>2026-04-23T11:08:06.998Z</time></trkpt><trkpt lat="32.21553268328973" lon="-7.9837294283117295"><ele>459.0</ele><time>2026-04-23T11:08:07.998Z</time></trkpt><trkpt lat="32.21525690228921" lon="-7.983871376805983"><ele>459.0</ele><time>2026-04-23T11:08:08.998Z</time></trkpt><trkpt lat="32.21498382734621" lon="-7.984017510668958"><ele>459.0</ele><time>2026-04-23T11:08:09.998Z</time></trkpt><trkpt lat="32.21471105512416" lon="-7.984168238237454"><ele>460.5</ele><time>2026-04-23T11:08:10.998Z</time></trkpt><trkpt lat="32.214438853935135" lon="-7.984321568053852"><ele>462.0</ele><time>2026-04-23T11:08:12Z</time></trkpt><trkpt lat="32.21416525596309" lon="-7.984481756002172"><ele>464.0</ele><time>2026-04-23T11:08:13Z</time></trkpt><trkpt lat="32.21389498246749" lon="-7.984637626220191"><ele>466.0</ele><time>2026-04-23T11:08:14Z</time></trkpt><trkpt lat="32.21362879924213" lon="-7.98481091831256"><ele>466.0</ele><time>2026-04-23T11:08:15Z</time></trkpt><trkpt lat="32.21335758560368" lon="-7.984969012483213"><ele>466.0</ele><time>2026-04-23T11:08:16Z</time></trkpt><trkpt lat="32.21308779912003" lon="-7.985127239804226"><ele>466.5</ele><time>2026-04-23T11:08:17Z</time></trkpt><trkpt lat="32.212816156723505" lon="-7.985284880797535"><ele>467.0</ele><time>2026-04-23T11:08:18Z</time></trkpt><trkpt lat="32.21254715203573" lon="-7.9854419414566395"><ele>466.0</ele><time>2026-04-23T11:08:19Z</time></trkpt><trkpt lat="32.21228023507169" lon="-7.985597783639411"><ele>465.0</ele><time>2026-04-23T11:08:20Z</time></trkpt><trkpt lat="32.21201218010826" lon="-7.985752629412476"><ele>464.5</ele><time>2026-04-23T11:08:21Z</time></trkpt><trkpt lat="32.211733509524684" lon="-7.985883381809551"><ele>464.0</ele><time>2026-04-23T11:08:22Z</time></trkpt><trkpt lat="32.21147047502376" lon="-7.986041590414261"><ele>462.0</ele><time>2026-04-23T11:08:23Z</time></trkpt><trkpt lat="32.21120499061842" lon="-7.986202144849458"><ele>460.0</ele><time>2026-04-23T11:08:24Z</time></trkpt><trkpt lat="32.21093740433839" lon="-7.98636539328345"><ele>460.0</ele><time>2026-04-23T11:08:25Z</time></trkpt><trkpt lat="32.21066893707457" lon="-7.9865217338748655"><ele>460.0</ele><time>2026-04-23T11:08:26Z</time></trkpt><trkpt lat="32.210401539777436" lon="-7.986677251500103"><ele>458.5</ele><time>2026-04-23T11:08:27Z</time></trkpt><trkpt lat="32.210129191053234" lon="-7.986829302797119"><ele>457.0</ele><time>2026-04-23T11:08:28Z</time></trkpt><trkpt lat="32.209857855694274" lon="-7.986976346766269"><ele>457.0</ele><time>2026-04-23T11:08:29Z</time></trkpt><trkpt lat="32.2095835195482" lon="-7.987118801106714"><ele>457.0</ele><time>2026-04-23T11:08:30Z</time></trkpt><trkpt lat="32.209301452578856" lon="-7.987262261351845"><ele>457.0</ele><time>2026-04-23T11:08:31Z</time></trkpt><trkpt lat="32.20902315192036" lon="-7.987403823842358"><ele>457.0</ele><time>2026-04-23T11:08:32Z</time></trkpt><trkpt lat="32.20874476120418" lon="-7.987544721805736"><ele>456.0</ele><time>2026-04-23T11:08:33Z</time></trkpt><trkpt lat="32.20846985237773" lon="-7.987681185892638"><ele>455.0</ele><time>2026-04-23T11:08:34Z</time></trkpt><trkpt lat="32.20818923960073" lon="-7.987816770485053"><ele>455.0</ele><time>2026-04-23T11:08:35Z</time></trkpt><trkpt lat="32.20790781473162" lon="-7.987954091231752"><ele>455.0</ele><time>2026-04-23T11:08:35.999Z</time></trkpt><trkpt lat="32.207628296660765" lon="-7.988084203877702"><ele>455.0</ele><time>2026-04-23T11:08:36.999Z</time></trkpt><trkpt lat="32.20734977933156" lon="-7.98820944971959"><ele>455.0</ele><time>2026-04-23T11:08:37.999Z</time></trkpt><trkpt lat="32.207070949136444" lon="-7.988333508283852"><ele>455.0</ele><time>2026-04-23T11:08:38.999Z</time></trkpt><trkpt lat="32.206788175989075" lon="-7.988452388616059"><ele>455.0</ele><time>2026-04-23T11:08:39.999Z</time></trkpt><trkpt lat="32.206505009141935" lon="-7.9885721992859695"><ele>454.0</ele><time>2026-04-23T11:08:40.999Z</time></trkpt><trkpt lat="32.20622245223278" lon="-7.988690512059552"><ele>453.0</ele><time>2026-04-23T11:08:41.999Z</time></trkpt><trkpt lat="32.20593684546613" lon="-7.988806762524436"><ele>452.5</ele><time>2026-04-23T11:08:42.999Z</time></trkpt><trkpt lat="32.20565306178521" lon="-7.988912333752125"><ele>452.0</ele><time>2026-04-23T11:08:43.999Z</time></trkpt><trkpt lat="32.20536862227003" lon="-7.989028403429161"><ele>452.0</ele><time>2026-04-23T11:08:44.999Z</time></trkpt><trkpt lat="32.20508171359742" lon="-7.989142468981566"><ele>452.0</ele><time>2026-04-23T11:08:45.999Z</time></trkpt><trkpt lat="32.20479396806025" lon="-7.989251706441666"><ele>453.5</ele><time>2026-04-23T11:08:46.999Z</time></trkpt><trkpt lat="32.20450297811331" lon="-7.989357274231001"><ele>455.0</ele><time>2026-04-23T11:08:47.999Z</time></trkpt><trkpt lat="32.204215675707765" lon="-7.989458297240333"><ele>455.5</ele><time>2026-04-23T11:08:48.999Z</time></trkpt><trkpt lat="32.203930734484636" lon="-7.989560161013687"><ele>456.0</ele><time>2026-04-23T11:08:49.999Z</time></trkpt><trkpt lat="32.203639808155394" lon="-7.989662313364875"><ele>456.0</ele><time>2026-04-23T11:08:50.999Z</time></trkpt><trkpt lat="32.203347324273075" lon="-7.989760510098495"><ele>456.0</ele><time>2026-04-23T11:08:51.999Z</time></trkpt><trkpt lat="32.20305951256905" lon="-7.98985264699802"><ele>456.0</ele><time>2026-04-23T11:08:52.999Z</time></trkpt><trkpt lat="32.202768422832385" lon="-7.989943974767741"><ele>456.0</ele><time>2026-04-23T11:08:53.999Z</time></trkpt><trkpt lat="32.20247300086625" lon="-7.990029021570038"><ele>458.0</ele><time>2026-04-23T11:08:54.999Z</time></trkpt><trkpt lat="32.20218349353024" lon="-7.9901138417796655"><ele>460.0</ele><time>2026-04-23T11:08:55.999Z</time></trkpt><trkpt lat="32.201892027116095" lon="-7.990199196414646"><ele>460.0</ele><time>2026-04-23T11:08:56.999Z</time></trkpt><trkpt lat="32.201601403562385" lon="-7.990286567307532"><ele>460.0</ele><time>2026-04-23T11:08:57.999Z</time></trkpt><trkpt lat="32.20130554728681" lon="-7.990367715252939"><ele>459.5</ele><time>2026-04-23T11:08:58.999Z</time></trkpt><trkpt lat="32.20101084948128" lon="-7.9904487484374656"><ele>459.0</ele><time>2026-04-23T11:08:59.999Z</time></trkpt><trkpt lat="32.20072000512828" lon="-7.9905234673964864"><ele>459.0</ele><time>2026-04-23T11:09:00.999Z</time></trkpt><trkpt lat="32.20042767433098" lon="-7.9905982239547955"><ele>459.0</ele><time>2026-04-23T11:09:01.999Z</time></trkpt><trkpt lat="32.20013406644095" lon="-7.990666799152692"><ele>459.0</ele><time>2026-04-23T11:09:02.999Z</time></trkpt><trkpt lat="32.199837900408845" lon="-7.990734692934464"><ele>459.0</ele><time>2026-04-23T11:09:03.999Z</time></trkpt><trkpt lat="32.19953951004992" lon="-7.990797910124028"><ele>461.0</ele><time>2026-04-23T11:09:04.999Z</time></trkpt><trkpt lat="32.19924489822449" lon="-7.990862399853094"><ele>463.0</ele><time>2026-04-23T11:09:05.999Z</time></trkpt><trkpt lat="32.198951754052636" lon="-7.9909242131322085"><ele>463.0</ele><time>2026-04-23T11:09:06.999Z</time></trkpt><trkpt lat="32.19865519812741" lon="-7.9909818582734005"><ele>463.0</ele><time>2026-04-23T11:09:07.999Z</time></trkpt><trkpt lat="32.198362221824134" lon="-7.99103727572157"><ele>462.5</ele><time>2026-04-23T11:09:08.999Z</time></trkpt><trkpt lat="32.19806455833772" lon="-7.991093503898522"><ele>462.0</ele><time>2026-04-23T11:09:09.999Z</time></trkpt><trkpt lat="32.19776813807358" lon="-7.991140860796777"><ele>462.0</ele><time>2026-04-23T11:09:10.999Z</time></trkpt><trkpt lat="32.19746555384817" lon="-7.991183922623519"><ele>462.0</ele><time>2026-04-23T11:09:11.999Z</time></trkpt><trkpt lat="32.19716816750801" lon="-7.991236245007894"><ele>459.5</ele><time>2026-04-23T11:09:12.999Z</time></trkpt><trkpt lat="32.19687221549064" lon="-7.991284839859708"><ele>457.0</ele><time>2026-04-23T11:09:13.999Z</time></trkpt><trkpt lat="32.19657417310007" lon="-7.991331493417971"><ele>457.5</ele><time>2026-04-23T11:09:14.999Z</time></trkpt><trkpt lat="32.19627167503507" lon="-7.991380220960894"><ele>458.0</ele><time>2026-04-23T11:09:15.999Z</time></trkpt><trkpt lat="32.19596786475814" lon="-7.9914161081960655"><ele>458.0</ele><time>2026-04-23T11:09:16.999Z</time></trkpt><trkpt lat="32.1956710486334" lon="-7.991451542377853"><ele>458.0</ele><time>2026-04-23T11:09:17.999Z</time></trkpt><trkpt lat="32.19537421491222" lon="-7.991485846092324"><ele>457.0</ele><time>2026-04-23T11:09:18.999Z</time></trkpt><trkpt lat="32.195072698585626" lon="-7.991522295721878"><ele>456.0</ele><time>2026-04-23T11:09:19.999Z</time></trkpt><trkpt lat="32.19477770674436" lon="-7.991549749112555"><ele>455.5</ele><time>2026-04-23T11:09:20.999Z</time></trkpt><trkpt lat="32.19447465528643" lon="-7.99157556156771"><ele>455.0</ele><time>2026-04-23T11:09:21.999Z</time></trkpt><trkpt lat="32.1941751335802" lon="-7.991602274216715"><ele>455.5</ele><time>2026-04-23T11:09:22.999Z</time></trkpt><trkpt lat="32.19387029999075" lon="-7.991625061810151"><ele>456.0</ele><time>2026-04-23T11:09:23.999Z</time></trkpt><trkpt lat="32.193566421113424" lon="-7.991640594207387"><ele>456.0</ele><time>2026-04-23T11:09:24.999Z</time></trkpt><trkpt lat="32.193263127145975" lon="-7.991660738829323"><ele>456.0</ele><time>2026-04-23T11:09:25.999Z</time></trkpt><trkpt lat="32.192960115397796" lon="-7.99167800563126"><ele>455.5</ele><time>2026-04-23T11:09:26.999Z</time></trkpt><trkpt lat="32.19265730508849" lon="-7.9916878825231406"><ele>455.0</ele><time>2026-04-23T11:09:27.999Z</time></trkpt><trkpt lat="32.192356842135055" lon="-7.9916952252991145"><ele>454.5</ele><time>2026-04-23T11:09:28.999Z</time></trkpt><trkpt lat="32.19205845880787" lon="-7.991704185782269"><ele>454.0</ele><time>2026-04-23T11:09:29.999Z</time></trkpt><trkpt lat="32.19175955735055" lon="-7.991711147156736"><ele>453.5</ele><time>2026-04-23T11:09:30.999Z</time></trkpt><trkpt lat="32.191459513966976" lon="-7.991714380770449"><ele>453.0</ele><time>2026-04-23T11:09:31.999Z</time></trkpt><trkpt lat="32.191156221544595" lon="-7.991713875691129"><ele>453.0</ele><time>2026-04-23T11:09:32.999Z</time></trkpt><trkpt lat="32.19085406224599" lon="-7.9917081081733965"><ele>453.0</ele><time>2026-04-23T11:09:33.999Z</time></trkpt><trkpt lat="32.19055380993487" lon="-7.9917045157889035"><ele>452.5</ele><time>2026-04-23T11:09:34.999Z</time></trkpt><trkpt lat="32.19025389606198" lon="-7.991696345642512"><ele>452.0</ele><time>2026-04-23T11:09:35.999Z</time></trkpt><trkpt lat="32.189956031664856" lon="-7.991689685954732"><ele>452.5</ele><time>2026-04-23T11:09:36.999Z</time></trkpt><trkpt lat="32.18965488914047" lon="-7.991681178804734"><ele>453.0</ele><time>2026-04-23T11:09:37.999Z</time></trkpt><trkpt lat="32.18935131226392" lon="-7.991672881194999"><ele>453.0</ele><time>2026-04-23T11:09:38.999Z</time></trkpt><trkpt lat="32.1890496280358" lon="-7.991654767852817"><ele>453.0</ele><time>2026-04-23T11:09:39.999Z</time></trkpt><trkpt lat="32.18874958929152" lon="-7.991635888721432"><ele>452.0</ele><time>2026-04-23T11:09:40.999Z</time></trkpt><trkpt lat="32.188446084962756" lon="-7.9916115021576575"><ele>451.0</ele><time>2026-04-23T11:09:41.999Z</time></trkpt><trkpt lat="32.18814672449413" lon="-7.9915912913373"><ele>450.0</ele><time>2026-04-23T11:09:42.999Z</time></trkpt><trkpt lat="32.18785246261319" lon="-7.99156600363923"><ele>449.0</ele><time>2026-04-23T11:09:43.999Z</time></trkpt><trkpt lat="32.1875477033219" lon="-7.991539355501585"><ele>449.5</ele><time>2026-04-23T11:09:44.999Z</time></trkpt><trkpt lat="32.18724640858533" lon="-7.991505554789005"><ele>450.0</ele><time>2026-04-23T11:09:45.999Z</time></trkpt><trkpt lat="32.18694852787984" lon="-7.991468081349483"><ele>450.0</ele><time>2026-04-23T11:09:46.999Z</time></trkpt><trkpt lat="32.18665181187593" lon="-7.9914325415239365"><ele>450.0</ele><time>2026-04-23T11:09:47.999Z</time></trkpt><trkpt lat="32.186350091261055" lon="-7.9913990470446254"><ele>449.5</ele><time>2026-04-23T11:09:48.999Z</time></trkpt><trkpt lat="32.18604724480053" lon="-7.991360726733393"><ele>449.0</ele><time>2026-04-23T11:09:49.999Z</time></trkpt><trkpt lat="32.18574741824081" lon="-7.99132100132235"><ele>449.0</ele><time>2026-04-23T11:09:50.999Z</time></trkpt><trkpt lat="32.1854482700429" lon="-7.991289169420964"><ele>449.0</ele><time>2026-04-23T11:09:51.999Z</time></trkpt><trkpt lat="32.185153074626776" lon="-7.991258825487328"><ele>449.0</ele><time>2026-04-23T11:09:52.999Z</time></trkpt><trkpt lat="32.184852782432635" lon="-7.991232388227958"><ele>449.0</ele><time>2026-04-23T11:09:53.998Z</time></trkpt><trkpt lat="32.184554598249505" lon="-7.9912053180374825"><ele>449.5</ele><time>2026-04-23T11:09:54.998Z</time></trkpt><trkpt lat="32.18424864978456" lon="-7.991182246721423"><ele>450.0</ele><time>2026-04-23T11:09:55.998Z</time></trkpt><trkpt lat="32.1839515058733" lon="-7.991160478643239"><ele>450.0</ele><time>2026-04-23T11:09:56.998Z</time></trkpt><trkpt lat="32.18365169714248" lon="-7.9911396749902694"><ele>450.0</ele><time>2026-04-23T11:09:57.998Z</time></trkpt><trkpt lat="32.183354011287065" lon="-7.991128602529676"><ele>450.0</ele><time>2026-04-23T11:09:58.998Z</time></trkpt><trkpt lat="32.183054580794916" lon="-7.991120527258643"><ele>450.0</ele><time>2026-04-23T11:09:59.998Z</time></trkpt><trkpt lat="32.18275582165734" lon="-7.991110372152284"><ele>450.0</ele><time>2026-04-23T11:10:00.998Z</time></trkpt><trkpt lat="32.1824547617151" lon="-7.991107554950221"><ele>450.0</ele><time>2026-04-23T11:10:01.998Z</time></trkpt><trkpt lat="32.182153433166185" lon="-7.991102045443753"><ele>448.5</ele><time>2026-04-23T11:10:02.998Z</time></trkpt><trkpt lat="32.181852432439015" lon="-7.991101678643586"><ele>447.0</ele><time>2026-04-23T11:10:03.998Z</time></trkpt><trkpt lat="32.18155242204318" lon="-7.991112840496789"><ele>445.5</ele><time>2026-04-23T11:10:04.998Z</time></trkpt><trkpt lat="32.181249290262365" lon="-7.991119219682157"><ele>444.0</ele><time>2026-04-23T11:10:05.998Z</time></trkpt><trkpt lat="32.18095288519104" lon="-7.991126868367782"><ele>444.5</ele><time>2026-04-23T11:10:06.998Z</time></trkpt><trkpt lat="32.180649742263064" lon="-7.99114291160409"><ele>445.0</ele><time>2026-04-23T11:10:07.998Z</time></trkpt><trkpt lat="32.18035221650343" lon="-7.991155650738234"><ele>445.0</ele><time>2026-04-23T11:10:08.998Z</time></trkpt><trkpt lat="32.18004995972533" lon="-7.991165223967625"><ele>445.0</ele><time>2026-04-23T11:10:09.998Z</time></trkpt><trkpt lat="32.17974878654443" lon="-7.991186891615984"><ele>445.0</ele><time>2026-04-23T11:10:10.998Z</time></trkpt><trkpt lat="32.17944673088482" lon="-7.991208187816118"><ele>445.0</ele><time>2026-04-23T11:10:11.998Z</time></trkpt><trkpt lat="32.17914685051708" lon="-7.991230664123337"><ele>445.5</ele><time>2026-04-23T11:10:12.998Z</time></trkpt><trkpt lat="32.17885299502963" lon="-7.991257433777362"><ele>446.0</ele><time>2026-04-23T11:10:13.998Z</time></trkpt><trkpt lat="32.178557824332984" lon="-7.991292183093103"><ele>446.0</ele><time>2026-04-23T11:10:14.998Z</time></trkpt><trkpt lat="32.178258495413246" lon="-7.991329299789437"><ele>446.0</ele><time>2026-04-23T11:10:15.998Z</time></trkpt><trkpt lat="32.17795451869701" lon="-7.991368118875787"><ele>446.0</ele><time>2026-04-23T11:10:16.998Z</time></trkpt><trkpt lat="32.177653944182794" lon="-7.991411585371841"><ele>446.0</ele><time>2026-04-23T11:10:18Z</time></trkpt><trkpt lat="32.17735743707464" lon="-7.991461111847153"><ele>448.0</ele><time>2026-04-23T11:10:19Z</time></trkpt><trkpt lat="32.177060828362784" lon="-7.991511636232232"><ele>450.0</ele><time>2026-04-23T11:10:20Z</time></trkpt><trkpt lat="32.176762935271675" lon="-7.991563510050917"><ele>450.5</ele><time>2026-04-23T11:10:21Z</time></trkpt><trkpt lat="32.17646244819803" lon="-7.9916172084660655"><ele>451.0</ele><time>2026-04-23T11:10:22Z</time></trkpt><trkpt lat="32.17616504832634" lon="-7.991672592373896"><ele>451.0</ele><time>2026-04-23T11:10:23Z</time></trkpt><trkpt lat="32.17586601155384" lon="-7.991724033692921"><ele>451.0</ele><time>2026-04-23T11:10:24Z</time></trkpt><trkpt lat="32.17556600823008" lon="-7.991781134289971"><ele>451.0</ele><time>2026-04-23T11:10:25Z</time></trkpt><trkpt lat="32.17527153749705" lon="-7.991847096546435"><ele>451.0</ele><time>2026-04-23T11:10:26Z</time></trkpt><trkpt lat="32.174975044355804" lon="-7.991910133143111"><ele>451.5</ele><time>2026-04-23T11:10:27Z</time></trkpt><trkpt lat="32.17467864298856" lon="-7.991974420560683"><ele>452.0</ele><time>2026-04-23T11:10:28Z</time></trkpt><trkpt lat="32.174380858603975" lon="-7.992034718387432"><ele>452.0</ele><time>2026-04-23T11:10:29Z</time></trkpt><trkpt lat="32.17408149207909" lon="-7.992090215011839"><ele>452.0</ele><time>2026-04-23T11:10:30Z</time></trkpt><trkpt lat="32.17378754010421" lon="-7.99215048009545"><ele>451.5</ele><time>2026-04-23T11:10:31Z</time></trkpt><trkpt lat="32.17348920194405" lon="-7.992205444451201"><ele>451.0</ele><time>2026-04-23T11:10:32Z</time></trkpt><trkpt lat="32.17318994761848" lon="-7.992264084271905"><ele>451.0</ele><time>2026-04-23T11:10:33Z</time></trkpt><trkpt lat="32.17289315445054" lon="-7.992324053685168"><ele>451.0</ele><time>2026-04-23T11:10:34Z</time></trkpt><trkpt lat="32.1725983588324" lon="-7.992385337982692"><ele>451.0</ele><time>2026-04-23T11:10:35Z</time></trkpt><trkpt lat="32.17229971517246" lon="-7.992444988468041"><ele>451.0</ele><time>2026-04-23T11:10:36Z</time></trkpt><trkpt lat="32.1719971474446" lon="-7.99250718698721"><ele>450.0</ele><time>2026-04-23T11:10:37Z</time></trkpt><trkpt lat="32.171700191921055" lon="-7.9925633843354795"><ele>449.0</ele><time>2026-04-23T11:10:38Z</time></trkpt><trkpt lat="32.17140086114581" lon="-7.992626561036743"><ele>448.5</ele><time>2026-04-23T11:10:39Z</time></trkpt><trkpt lat="32.17110291637437" lon="-7.992683403415591"><ele>448.0</ele><time>2026-04-23T11:10:40Z</time></trkpt><trkpt lat="32.170806312175785" lon="-7.992745891682689"><ele>449.0</ele><time>2026-04-23T11:10:41Z</time></trkpt><trkpt lat="32.17050638490735" lon="-7.992807949936002"><ele>450.0</ele><time>2026-04-23T11:10:42Z</time></trkpt><trkpt lat="32.17021167760307" lon="-7.992869419111767"><ele>450.0</ele><time>2026-04-23T11:10:43Z</time></trkpt><trkpt lat="32.16991819505869" lon="-7.992929991636453"><ele>450.0</ele><time>2026-04-23T11:10:43.999Z</time></trkpt><trkpt lat="32.16962368492153" lon="-7.992991720961008"><ele>451.0</ele><time>2026-04-23T11:10:44.999Z</time></trkpt><trkpt lat="32.16932585670739" lon="-7.993052574777375"><ele>452.0</ele><time>2026-04-23T11:10:45.999Z</time></trkpt><trkpt lat="32.169030160971836" lon="-7.993111962197424"><ele>452.0</ele><time>2026-04-23T11:10:46.999Z</time></trkpt><trkpt lat="32.16873225559017" lon="-7.9931760185240455"><ele>452.0</ele><time>2026-04-23T11:10:47.999Z</time></trkpt><trkpt lat="32.16844230037696" lon="-7.993241658302569"><ele>453.0</ele><time>2026-04-23T11:10:48.999Z</time></trkpt><trkpt lat="32.16814557001504" lon="-7.993315406961554"><ele>454.0</ele><time>2026-04-23T11:10:49.999Z</time></trkpt><trkpt lat="32.16785457426033" lon="-7.993391318952536"><ele>454.0</ele><time>2026-04-23T11:10:50.999Z</time></trkpt><trkpt lat="32.16756087237824" lon="-7.993469152431611"><ele>454.0</ele><time>2026-04-23T11:10:51.999Z</time></trkpt><trkpt lat="32.16726671367794" lon="-7.993548744478327"><ele>455.0</ele><time>2026-04-23T11:10:52.999Z</time></trkpt><trkpt lat="32.16697369846732" lon="-7.9936255907098515"><ele>456.0</ele><time>2026-04-23T11:10:53.999Z</time></trkpt><trkpt lat="32.166681459906734" lon="-7.993696486385171"><ele>456.5</ele><time>2026-04-23T11:10:54.999Z</time></trkpt><trkpt lat="32.166386928187535" lon="-7.993770708602399"><ele>457.0</ele><time>2026-04-23T11:10:55.999Z</time></trkpt><trkpt lat="32.16609506045891" lon="-7.993845957081851"><ele>457.0</ele><time>2026-04-23T11:10:56.999Z</time></trkpt><trkpt lat="32.16579990387639" lon="-7.993930078767617"><ele>457.0</ele><time>2026-04-23T11:10:57.999Z</time></trkpt><trkpt lat="32.16550950611593" lon="-7.994017129136894"><ele>457.0</ele><time>2026-04-23T11:10:58.999Z</time></trkpt><trkpt lat="32.16521579474275" lon="-7.994111775013739"><ele>457.0</ele><time>2026-04-23T11:10:59.999Z</time></trkpt><trkpt lat="32.164925985294595" lon="-7.994207720335696"><ele>457.0</ele><time>2026-04-23T11:11:00.999Z</time></trkpt><trkpt lat="32.16463553143233" lon="-7.994303150150263"><ele>457.0</ele><time>2026-04-23T11:11:01.999Z</time></trkpt><trkpt lat="32.16434719738708" lon="-7.994399086272438"><ele>457.0</ele><time>2026-04-23T11:11:02.999Z</time></trkpt><trkpt lat="32.16405415009664" lon="-7.994503302802112"><ele>457.0</ele><time>2026-04-23T11:11:03.999Z</time></trkpt><trkpt lat="32.16376816393308" lon="-7.994613269875311"><ele>457.0</ele><time>2026-04-23T11:11:04.999Z</time></trkpt><trkpt lat="32.16348296315878" lon="-7.994713797505604"><ele>457.0</ele><time>2026-04-23T11:11:05.999Z</time></trkpt><trkpt lat="32.16319824800022" lon="-7.99481828578504"><ele>457.0</ele><time>2026-04-23T11:11:06.999Z</time></trkpt><trkpt lat="32.16291176470656" lon="-7.994932257956876"><ele>457.0</ele><time>2026-04-23T11:11:07.999Z</time></trkpt><trkpt lat="32.16263046773261" lon="-7.995048313284268"><ele>458.5</ele><time>2026-04-23T11:11:08.999Z</time></trkpt><trkpt lat="32.16234545493131" lon="-7.995167607680144"><ele>460.0</ele><time>2026-04-23T11:11:09.999Z</time></trkpt><trkpt lat="32.16206124381872" lon="-7.995280760080978"><ele>460.0</ele><time>2026-04-23T11:11:10.999Z</time></trkpt><trkpt lat="32.16177482598214" lon="-7.995396893369514"><ele>460.0</ele><time>2026-04-23T11:11:11.999Z</time></trkpt><trkpt lat="32.161495624679205" lon="-7.995511706962595"><ele>461.5</ele><time>2026-04-23T11:11:12.999Z</time></trkpt><trkpt lat="32.16120963134162" lon="-7.995625775067275"><ele>463.0</ele><time>2026-04-23T11:11:13.999Z</time></trkpt><trkpt lat="32.160925831313335" lon="-7.99573916090395"><ele>465.0</ele><time>2026-04-23T11:11:14.999Z</time></trkpt><trkpt lat="32.16064406981535" lon="-7.995850685756065"><ele>467.0</ele><time>2026-04-23T11:11:15.999Z</time></trkpt><trkpt lat="32.160358448723514" lon="-7.995964645784781"><ele>467.0</ele><time>2026-04-23T11:11:16.999Z</time></trkpt><trkpt lat="32.16007497950921" lon="-7.996081805098174"><ele>467.0</ele><time>2026-04-23T11:11:17.999Z</time></trkpt><trkpt lat="32.1597872988592" lon="-7.996196532068491"><ele>469.0</ele><time>2026-04-23T11:11:18.999Z</time></trkpt><trkpt lat="32.15950729634426" lon="-7.996310352282604"><ele>471.0</ele><time>2026-04-23T11:11:19.999Z</time></trkpt><trkpt lat="32.15922136144455" lon="-7.996420274052621"><ele>471.0</ele><time>2026-04-23T11:11:20.999Z</time></trkpt><trkpt lat="32.15893473224372" lon="-7.99653908379301"><ele>471.0</ele><time>2026-04-23T11:11:21.999Z</time></trkpt><trkpt lat="32.15864727829815" lon="-7.996657810184168"><ele>470.0</ele><time>2026-04-23T11:11:22.999Z</time></trkpt><trkpt lat="32.158362455932966" lon="-7.996779237149509"><ele>469.0</ele><time>2026-04-23T11:11:23.999Z</time></trkpt><trkpt lat="32.15807879441275" lon="-7.99689349918082"><ele>467.5</ele><time>2026-04-23T11:11:24.999Z</time></trkpt><trkpt lat="32.15779096139997" lon="-7.997008930818858"><ele>466.0</ele><time>2026-04-23T11:11:25.999Z</time></trkpt><trkpt lat="32.15750690510759" lon="-7.99712289778015"><ele>466.5</ele><time>2026-04-23T11:11:26.999Z</time></trkpt><trkpt lat="32.157220857116904" lon="-7.997232842586525"><ele>467.0</ele><time>2026-04-23T11:11:27.999Z</time></trkpt><trkpt lat="32.156935745361075" lon="-7.997347881826579"><ele>467.0</ele><time>2026-04-23T11:11:28.999Z</time></trkpt><trkpt lat="32.156657103214435" lon="-7.997460331935408"><ele>467.0</ele><time>2026-04-23T11:11:29.999Z</time></trkpt><trkpt lat="32.15637201745121" lon="-7.99758099567501"><ele>465.0</ele><time>2026-04-23T11:11:30.999Z</time></trkpt><trkpt lat="32.15608722397619" lon="-7.9976973175554935"><ele>463.0</ele><time>2026-04-23T11:11:31.999Z</time></trkpt><trkpt lat="32.15580125070694" lon="-7.997808195434676"><ele>462.5</ele><time>2026-04-23T11:11:32.999Z</time></trkpt><trkpt lat="32.1555170754642" lon="-7.997930134805664"><ele>462.0</ele><time>2026-04-23T11:11:33.999Z</time></trkpt><trkpt lat="32.15523210103483" lon="-7.998047884172762"><ele>462.0</ele><time>2026-04-23T11:11:34.999Z</time></trkpt><trkpt lat="32.15495096615104" lon="-7.998165654552733"><ele>462.0</ele><time>2026-04-23T11:11:35.999Z</time></trkpt><trkpt lat="32.15466791162135" lon="-7.998278471413497"><ele>460.0</ele><time>2026-04-23T11:11:36.999Z</time></trkpt><trkpt lat="32.154381141072506" lon="-7.998389339216971"><ele>458.0</ele><time>2026-04-23T11:11:37.999Z</time></trkpt><trkpt lat="32.154093551249645" lon="-7.9985048374724546"><ele>457.5</ele><time>2026-04-23T11:11:38.999Z</time></trkpt><trkpt lat="32.1538115942862" lon="-7.998624106980167"><ele>457.0</ele><time>2026-04-23T11:11:39.999Z</time></trkpt><trkpt lat="32.15352439688109" lon="-7.998742044735169"><ele>457.0</ele><time>2026-04-23T11:11:40.999Z</time></trkpt><trkpt lat="32.153237397787024" lon="-7.998857176504682"><ele>457.0</ele><time>2026-04-23T11:11:41.999Z</time></trkpt><trkpt lat="32.15294775028808" lon="-7.998971651946878"><ele>457.5</ele><time>2026-04-23T11:11:42.999Z</time></trkpt><trkpt lat="32.152661560482585" lon="-7.999091032201769"><ele>458.0</ele><time>2026-04-23T11:11:43.999Z</time></trkpt><trkpt lat="32.152378192242104" lon="-7.999202711241691"><ele>458.5</ele><time>2026-04-23T11:11:44.999Z</time></trkpt><trkpt lat="32.15209473340294" lon="-7.999317496610574"><ele>459.0</ele><time>2026-04-23T11:11:45.999Z</time></trkpt><trkpt lat="32.15181020519307" lon="-7.999431293054178"><ele>460.5</ele><time>2026-04-23T11:11:46.999Z</time></trkpt><trkpt lat="32.15153171848536" lon="-7.999569993406364"><ele>462.0</ele><time>2026-04-23T11:11:47.999Z</time></trkpt><trkpt lat="32.151246368404735" lon="-7.9996963538911645"><ele>462.0</ele><time>2026-04-23T11:11:48.999Z</time></trkpt><trkpt lat="32.15096260419287" lon="-7.999804319891691"><ele>462.0</ele><time>2026-04-23T11:11:49.999Z</time></trkpt><trkpt lat="32.15067743200546" lon="-7.999924335246892"><ele>461.0</ele><time>2026-04-23T11:11:50.999Z</time></trkpt><trkpt lat="32.15038956706009" lon="-8.000044682201763"><ele>460.0</ele><time>2026-04-23T11:11:51.999Z</time></trkpt><trkpt lat="32.15010325317177" lon="-8.000156633602698"><ele>458.0</ele><time>2026-04-23T11:11:52.999Z</time></trkpt><trkpt lat="32.149817285703875" lon="-8.000262939760571"><ele>456.0</ele><time>2026-04-23T11:11:53.999Z</time></trkpt><trkpt lat="32.149526245362644" lon="-8.00035405211212"><ele>456.0</ele><time>2026-04-23T11:11:54.999Z</time></trkpt><trkpt lat="32.149240670923625" lon="-8.000465393067952"><ele>456.0</ele><time>2026-04-23T11:11:55.999Z</time></trkpt><trkpt lat="32.14895470691597" lon="-8.000575301060952"><ele>455.5</ele><time>2026-04-23T11:11:56.999Z</time></trkpt><trkpt lat="32.14867139096335" lon="-8.00068543510936"><ele>455.0</ele><time>2026-04-23T11:11:57.999Z</time></trkpt><trkpt lat="32.14838553607502" lon="-8.000788939306576"><ele>453.5</ele><time>2026-04-23T11:11:58.999Z</time></trkpt><trkpt lat="32.14809766544384" lon="-8.000891844381146"><ele>452.0</ele><time>2026-04-23T11:11:59.999Z</time></trkpt><trkpt lat="32.14781137732649" lon="-8.000993617415382"><ele>452.0</ele><time>2026-04-23T11:12:00.999Z</time></trkpt><trkpt lat="32.147524968324106" lon="-8.001092739894851"><ele>452.0</ele><time>2026-04-23T11:12:01.999Z</time></trkpt><trkpt lat="32.147238055014675" lon="-8.001188462036046"><ele>452.0</ele><time>2026-04-23T11:12:02.999Z</time></trkpt><trkpt lat="32.14694726679461" lon="-8.001285898665515"><ele>452.0</ele><time>2026-04-23T11:12:03.998Z</time></trkpt><trkpt lat="32.14665663419433" lon="-8.001374953523747"><ele>451.5</ele><time>2026-04-23T11:12:04.998Z</time></trkpt><trkpt lat="32.14636712851041" lon="-8.00146371285531"><ele>451.0</ele><time>2026-04-23T11:12:05.998Z</time></trkpt><trkpt lat="32.14608197152467" lon="-8.001550835331964"><ele>451.0</ele><time>2026-04-23T11:12:06.998Z</time></trkpt><trkpt lat="32.145792964665205" lon="-8.001633824046637"><ele>451.0</ele><time>2026-04-23T11:12:07.998Z</time></trkpt><trkpt lat="32.145501769792745" lon="-8.001712710758904"><ele>449.0</ele><time>2026-04-23T11:12:08.998Z</time></trkpt><trkpt lat="32.14520930134816" lon="-8.001792810114784"><ele>447.0</ele><time>2026-04-23T11:12:09.998Z</time></trkpt><trkpt lat="32.144915168549275" lon="-8.001871273650867"><ele>446.5</ele><time>2026-04-23T11:12:10.998Z</time></trkpt><trkpt lat="32.14462108030174" lon="-8.00194849108596"><ele>446.0</ele><time>2026-04-23T11:12:11.998Z</time></trkpt><trkpt lat="32.14433118157299" lon="-8.002021387260909"><ele>446.0</ele><time>2026-04-23T11:12:12.998Z</time></trkpt><trkpt lat="32.14403748953124" lon="-8.002089943659254"><ele>446.0</ele><time>2026-04-23T11:12:13.998Z</time></trkpt><trkpt lat="32.14374224051757" lon="-8.002157950555967"><ele>446.0</ele><time>2026-04-23T11:12:14.998Z</time></trkpt><trkpt lat="32.14344808618606" lon="-8.002223861778619"><ele>446.0</ele><time>2026-04-23T11:12:15.998Z</time></trkpt><trkpt lat="32.1431521079623" lon="-8.00228580681295"><ele>446.5</ele><time>2026-04-23T11:12:16.998Z</time></trkpt><trkpt lat="32.142860410077894" lon="-8.002345492847759"><ele>447.0</ele><time>2026-04-23T11:12:17.998Z</time></trkpt><trkpt lat="32.14256575606434" lon="-8.002397126608736"><ele>447.5</ele><time>2026-04-23T11:12:18.998Z</time></trkpt><trkpt lat="32.14226726031709" lon="-8.002455396385342"><ele>448.0</ele><time>2026-04-23T11:12:19.998Z</time></trkpt><trkpt lat="32.141968884720356" lon="-8.0025134548379"><ele>448.0</ele><time>2026-04-23T11:12:20.998Z</time></trkpt><trkpt lat="32.14167149857176" lon="-8.002567508491522"><ele>448.0</ele><time>2026-04-23T11:12:21.998Z</time></trkpt><trkpt lat="32.14137487087969" lon="-8.002615638814737"><ele>448.5</ele><time>2026-04-23T11:12:22.998Z</time></trkpt><trkpt lat="32.14107996602896" lon="-8.00266050677102"><ele>449.0</ele><time>2026-04-23T11:12:24Z</time></trkpt><trkpt lat="32.14078501863098" lon="-8.002708027768618"><ele>451.0</ele><time>2026-04-23T11:12:25Z</time></trkpt><trkpt lat="32.14048917797927" lon="-8.002756467993704"><ele>453.0</ele><time>2026-04-23T11:12:26Z</time></trkpt><trkpt lat="32.140188796539306" lon="-8.002819013566901"><ele>453.0</ele><time>2026-04-23T11:12:27Z</time></trkpt><trkpt lat="32.13989261100022" lon="-8.00285805028367"><ele>453.0</ele><time>2026-04-23T11:12:28Z</time></trkpt><trkpt lat="32.139596113421845" lon="-8.002897316894378"><ele>454.5</ele><time>2026-04-23T11:12:29Z</time></trkpt><trkpt lat="32.13929580444701" lon="-8.002937066946517"><ele>456.0</ele><time>2026-04-23T11:12:30Z</time></trkpt><trkpt lat="32.138996906994976" lon="-8.002971889194889"><ele>456.0</ele><time>2026-04-23T11:12:31Z</time></trkpt><trkpt lat="32.138692355072706" lon="-8.002998073780708"><ele>456.0</ele><time>2026-04-23T11:12:32Z</time></trkpt><trkpt lat="32.13838937414006" lon="-8.003023885632865"><ele>456.5</ele><time>2026-04-23T11:12:33Z</time></trkpt><trkpt lat="32.13809070439581" lon="-8.003050857741439"><ele>457.0</ele><time>2026-04-23T11:12:34Z</time></trkpt><trkpt lat="32.13779642454999" lon="-8.003077434940353"><ele>457.0</ele><time>2026-04-23T11:12:35Z</time></trkpt><trkpt lat="32.137490477853795" lon="-8.003051825082917"><ele>457.0</ele><time>2026-04-23T11:12:36Z</time></trkpt><trkpt lat="32.13718715588223" lon="-8.003074810401166"><ele>459.0</ele><time>2026-04-23T11:12:37Z</time></trkpt><trkpt lat="32.13688896651649" lon="-8.003091448678926"><ele>461.0</ele><time>2026-04-23T11:12:38Z</time></trkpt><trkpt lat="32.136583253248254" lon="-8.003098129719255"><ele>460.5</ele><time>2026-04-23T11:12:39Z</time></trkpt><trkpt lat="32.13627999195967" lon="-8.003108556379301"><ele>460.0</ele><time>2026-04-23T11:12:40Z</time></trkpt><trkpt lat="32.13598250442042" lon="-8.003127558193778"><ele>460.5</ele><time>2026-04-23T11:12:41Z</time></trkpt><trkpt lat="32.135679140060056" lon="-8.003127959685035"><ele>461.0</ele><time>2026-04-23T11:12:42Z</time></trkpt><trkpt lat="32.1353754045647" lon="-8.003126757636336"><ele>461.0</ele><time>2026-04-23T11:12:43Z</time></trkpt><trkpt lat="32.13507605003567" lon="-8.00312836755532"><ele>461.0</ele><time>2026-04-23T11:12:44Z</time></trkpt><trkpt lat="32.134776513038545" lon="-8.00312488457139"><ele>458.5</ele><time>2026-04-23T11:12:45Z</time></trkpt><trkpt lat="32.13447937693246" lon="-8.003121787855875"><ele>456.0</ele><time>2026-04-23T11:12:46Z</time></trkpt><trkpt lat="32.13417494832315" lon="-8.003116571003398"><ele>453.5</ele><time>2026-04-23T11:12:47Z</time></trkpt><trkpt lat="32.13387457979706" lon="-8.00311005909884"><ele>451.0</ele><time>2026-04-23T11:12:48Z</time></trkpt><trkpt lat="32.133577679201466" lon="-8.003102784951517"><ele>451.0</ele><time>2026-04-23T11:12:49Z</time></trkpt><trkpt lat="32.133280855699915" lon="-8.003093738388909"><ele>451.0</ele><time>2026-04-23T11:12:50Z</time></trkpt><trkpt lat="32.132982597614735" lon="-8.003078969540406"><ele>451.0</ele><time>2026-04-23T11:12:51Z</time></trkpt><trkpt lat="32.132676362781815" lon="-8.003064795913803"><ele>451.0</ele><time>2026-04-23T11:12:51.999Z</time></trkpt><trkpt lat="32.13237422612612" lon="-8.00304702521046"><ele>451.0</ele><time>2026-04-23T11:12:52.999Z</time></trkpt><trkpt lat="32.132072336138386" lon="-8.003033293393258"><ele>451.0</ele><time>2026-04-23T11:12:53.999Z</time></trkpt><trkpt lat="32.13177627315939" lon="-8.003002456763156"><ele>451.0</ele><time>2026-04-23T11:12:54.999Z</time></trkpt><trkpt lat="32.13147722213686" lon="-8.00297391082027"><ele>451.0</ele><time>2026-04-23T11:12:55.999Z</time></trkpt><trkpt lat="32.131173542566515" lon="-8.002949436283274"><ele>451.0</ele><time>2026-04-23T11:12:56.999Z</time></trkpt><trkpt lat="32.13087616191928" lon="-8.002915617071944"><ele>451.0</ele><time>2026-04-23T11:12:57.999Z</time></trkpt><trkpt lat="32.130579423324264" lon="-8.002879725102149"><ele>451.0</ele><time>2026-04-23T11:12:58.999Z</time></trkpt><trkpt lat="32.13027939787417" lon="-8.002844128478236"><ele>451.0</ele><time>2026-04-23T11:12:59.999Z</time></trkpt><trkpt lat="32.12997777141678" lon="-8.002808403738628"><ele>450.5</ele><time>2026-04-23T11:13:00.999Z</time></trkpt><trkpt lat="32.12967746429695" lon="-8.002769717529295"><ele>450.0</ele><time>2026-04-23T11:13:01.999Z</time></trkpt><trkpt lat="32.12937996313451" lon="-8.002730543253618"><ele>450.0</ele><time>2026-04-23T11:13:02.999Z</time></trkpt><trkpt lat="32.12908047748557" lon="-8.002689020248189"><ele>450.0</ele><time>2026-04-23T11:13:03.999Z</time></trkpt><trkpt lat="32.12878316068522" lon="-8.002641441659515"><ele>450.0</ele><time>2026-04-23T11:13:04.999Z</time></trkpt><trkpt lat="32.1284853098881" lon="-8.00259455508152"><ele>450.0</ele><time>2026-04-23T11:13:05.999Z</time></trkpt><trkpt lat="32.12818457845016" lon="-8.00254307721978"><ele>453.0</ele><time>2026-04-23T11:13:06.999Z</time></trkpt><trkpt lat="32.127888943991856" lon="-8.00249082656925"><ele>456.0</ele><time>2026-04-23T11:13:07.999Z</time></trkpt><trkpt lat="32.12759054690932" lon="-8.002435105674541"><ele>457.5</ele><time>2026-04-23T11:13:08.999Z</time></trkpt><trkpt lat="32.12729452717375" lon="-8.002383119513473"><ele>459.0</ele><time>2026-04-23T11:13:09.999Z</time></trkpt><trkpt lat="32.1269988346901" lon="-8.002329757768525"><ele>459.0</ele><time>2026-04-23T11:13:10.999Z</time></trkpt><trkpt lat="32.12670312263185" lon="-8.002271343351229"><ele>459.0</ele><time>2026-04-23T11:13:11.999Z</time></trkpt><trkpt lat="32.12640459434552" lon="-8.0022129498427"><ele>459.0</ele><time>2026-04-23T11:13:12.999Z</time></trkpt><trkpt lat="32.12610634290668" lon="-8.002157188414012"><ele>459.0</ele><time>2026-04-23T11:13:13.999Z</time></trkpt><trkpt lat="32.125808854177144" lon="-8.00209650538928"><ele>460.0</ele><time>2026-04-23T11:13:14.999Z</time></trkpt><trkpt lat="32.12550833959705" lon="-8.002035475747714"><ele>461.0</ele><time>2026-04-23T11:13:15.999Z</time></trkpt><trkpt lat="32.1252090543783" lon="-8.001978499521426"><ele>461.0</ele><time>2026-04-23T11:13:16.999Z</time></trkpt><trkpt lat="32.12491054752604" lon="-8.001919948154873"><ele>461.0</ele><time>2026-04-23T11:13:17.999Z</time></trkpt><trkpt lat="32.124616907887216" lon="-8.00186265489163"><ele>460.5</ele><time>2026-04-23T11:13:18.999Z</time></trkpt><trkpt lat="32.12432288180313" lon="-8.001804171719941"><ele>460.0</ele><time>2026-04-23T11:13:19.999Z</time></trkpt><trkpt lat="32.124026248478" lon="-8.001744865631487"><ele>459.5</ele><time>2026-04-23T11:13:20.999Z</time></trkpt><trkpt lat="32.12372804579969" lon="-8.001688506280887"><ele>459.0</ele><time>2026-04-23T11:13:21.999Z</time></trkpt><trkpt lat="32.123434317462184" lon="-8.00163440376189"><ele>459.5</ele><time>2026-04-23T11:13:22.999Z</time></trkpt><trkpt lat="32.12313936493987" lon="-8.001576854572315"><ele>460.0</ele><time>2026-04-23T11:13:23.999Z</time></trkpt><trkpt lat="32.122842834292435" lon="-8.001518853450923"><ele>460.0</ele><time>2026-04-23T11:13:24.999Z</time></trkpt><trkpt lat="32.122542555338505" lon="-8.001465770077559"><ele>460.0</ele><time>2026-04-23T11:13:25.999Z</time></trkpt><trkpt lat="32.12224185681865" lon="-8.001405884098174"><ele>458.5</ele><time>2026-04-23T11:13:26.999Z</time></trkpt><trkpt lat="32.12194515532507" lon="-8.001348262601542"><ele>457.0</ele><time>2026-04-23T11:13:27.999Z</time></trkpt><trkpt lat="32.121646863332366" lon="-8.001285604388727"><ele>456.0</ele><time>2026-04-23T11:13:28.999Z</time></trkpt><trkpt lat="32.12135009716548" lon="-8.001229985738506"><ele>455.0</ele><time>2026-04-23T11:13:29.999Z</time></trkpt><trkpt lat="32.12105217944036" lon="-8.001173947482076"><ele>455.0</ele><time>2026-04-23T11:13:30.999Z</time></trkpt><trkpt lat="32.12075565216908" lon="-8.001110841851126"><ele>455.0</ele><time>2026-04-23T11:13:31.999Z</time></trkpt><trkpt lat="32.12045732206245" lon="-8.001047820472884"><ele>455.5</ele><time>2026-04-23T11:13:32.999Z</time></trkpt><trkpt lat="32.12016087789784" lon="-8.000987158723541"><ele>456.0</ele><time>2026-04-23T11:13:33.999Z</time></trkpt><trkpt lat="32.119859197509165" lon="-8.000930276339934"><ele>454.5</ele><time>2026-04-23T11:13:34.999Z</time></trkpt><trkpt lat="32.11956044716909" lon="-8.00087253401059"><ele>453.0</ele><time>2026-04-23T11:13:35.999Z</time></trkpt><trkpt lat="32.119260042052" lon="-8.00082005650824"><ele>452.0</ele><time>2026-04-23T11:13:36.999Z</time></trkpt><trkpt lat="32.118961950746026" lon="-8.00076537577778"><ele>451.0</ele><time>2026-04-23T11:13:37.999Z</time></trkpt><trkpt lat="32.11866321981827" lon="-8.000710358845653"><ele>451.0</ele><time>2026-04-23T11:13:38.999Z</time></trkpt><trkpt lat="32.11836622140037" lon="-8.000650226180289"><ele>451.0</ele><time>2026-04-23T11:13:39.999Z</time></trkpt><trkpt lat="32.118069900656195" lon="-8.00059266182913"><ele>451.0</ele><time>2026-04-23T11:13:40.999Z</time></trkpt><trkpt lat="32.11777249050785" lon="-8.000534455347498"><ele>451.0</ele><time>2026-04-23T11:13:41.999Z</time></trkpt><trkpt lat="32.117479194377225" lon="-8.000477116567577"><ele>449.5</ele><time>2026-04-23T11:13:42.999Z</time></trkpt><trkpt lat="32.11718078221254" lon="-8.000423020777191"><ele>448.0</ele><time>2026-04-23T11:13:43.999Z</time></trkpt><trkpt lat="32.11688496724212" lon="-8.000366133294392"><ele>448.0</ele><time>2026-04-23T11:13:44.999Z</time></trkpt><trkpt lat="32.11658573792106" lon="-8.00030707740437"><ele>448.0</ele><time>2026-04-23T11:13:45.999Z</time></trkpt><trkpt lat="32.116289489979835" lon="-8.000249791585787"><ele>448.5</ele><time>2026-04-23T11:13:46.999Z</time></trkpt><trkpt lat="32.11599461836177" lon="-8.000189480727588"><ele>449.0</ele><time>2026-04-23T11:13:47.999Z</time></trkpt><trkpt lat="32.11570202558777" lon="-8.000130719139332"><ele>449.0</ele><time>2026-04-23T11:13:48.999Z</time></trkpt><trkpt lat="32.11540482555025" lon="-8.000072576856"><ele>449.0</ele><time>2026-04-23T11:13:49.999Z</time></trkpt><trkpt lat="32.11510507396214" lon="-8.000015236711672"><ele>448.0</ele><time>2026-04-23T11:13:50.999Z</time></trkpt><trkpt lat="32.114805882286376" lon="-7.999961758262343"><ele>447.0</ele><time>2026-04-23T11:13:51.999Z</time></trkpt><trkpt lat="32.114507232973594" lon="-7.999908118646584"><ele>447.0</ele><time>2026-04-23T11:13:52.999Z</time></trkpt><trkpt lat="32.114210571221285" lon="-7.999848712318561"><ele>447.0</ele><time>2026-04-23T11:13:53.999Z</time></trkpt><trkpt lat="32.113910983666976" lon="-7.999788002478395"><ele>446.0</ele><time>2026-04-23T11:13:54.999Z</time></trkpt><trkpt lat="32.11361272839092" lon="-7.999733176520757"><ele>445.0</ele><time>2026-04-23T11:13:55.999Z</time></trkpt><trkpt lat="32.11332139677435" lon="-7.999678506924842"><ele>444.0</ele><time>2026-04-23T11:13:56.999Z</time></trkpt><trkpt lat="32.11301942112699" lon="-7.999627118057661"><ele>443.0</ele><time>2026-04-23T11:13:57.999Z</time></trkpt><trkpt lat="32.112719726534934" lon="-7.9995796428221295"><ele>443.0</ele><time>2026-04-23T11:13:58.999Z</time></trkpt><trkpt lat="32.112417481145485" lon="-7.999534265502284"><ele>443.0</ele><time>2026-04-23T11:13:59.999Z</time></trkpt><trkpt lat="32.11212100056254" lon="-7.999485461334531"><ele>442.5</ele><time>2026-04-23T11:14:00.999Z</time></trkpt><trkpt lat="32.11182419821582" lon="-7.9994449237787855"><ele>442.0</ele><time>2026-04-23T11:14:01.999Z</time></trkpt><trkpt lat="32.11152780952834" lon="-7.999403503090577"><ele>441.5</ele><time>2026-04-23T11:14:02.999Z</time></trkpt><trkpt lat="32.111231785475496" lon="-7.999362091086686"><ele>441.0</ele><time>2026-04-23T11:14:03.999Z</time></trkpt><trkpt lat="32.11092741195538" lon="-7.999323783556867"><ele>441.0</ele><time>2026-04-23T11:14:04.999Z</time></trkpt><trkpt lat="32.11062586241543" lon="-7.999291124904354"><ele>441.0</ele><time>2026-04-23T11:14:05.999Z</time></trkpt><trkpt lat="32.11033114622737" lon="-7.9992649651002345"><ele>441.0</ele><time>2026-04-23T11:14:06.999Z</time></trkpt><trkpt lat="32.110032530372926" lon="-7.999242238919696"><ele>441.0</ele><time>2026-04-23T11:14:07.999Z</time></trkpt><trkpt lat="32.10973565579799" lon="-7.9992177944984935"><ele>441.0</ele><time>2026-04-23T11:14:08.999Z</time></trkpt><trkpt lat="32.109437163186826" lon="-7.999197689407473"><ele>441.0</ele><time>2026-04-23T11:14:09.998Z</time></trkpt><trkpt lat="32.10913605866778" lon="-7.9991756262463936"><ele>441.5</ele><time>2026-04-23T11:14:10.998Z</time></trkpt><trkpt lat="32.10882782252835" lon="-7.9991656582852055"><ele>442.0</ele><time>2026-04-23T11:14:11.998Z</time></trkpt><trkpt lat="32.108526375569966" lon="-7.999154575361473"><ele>442.5</ele><time>2026-04-23T11:14:12.998Z</time></trkpt><trkpt lat="32.10822850471007" lon="-7.999146864126233"><ele>443.0</ele><time>2026-04-23T11:14:13.998Z</time></trkpt><trkpt lat="32.10792933992839" lon="-7.999143664671238"><ele>443.0</ele><time>2026-04-23T11:14:14.998Z</time></trkpt><trkpt lat="32.10762407889351" lon="-7.999148511905049"><ele>443.0</ele><time>2026-04-23T11:14:15.998Z</time></trkpt><trkpt lat="32.10732399826719" lon="-7.9991490520276"><ele>443.5</ele><time>2026-04-23T11:14:16.998Z</time></trkpt><trkpt lat="32.10702160216165" lon="-7.999153523413269"><ele>444.0</ele><time>2026-04-23T11:14:17.998Z</time></trkpt><trkpt lat="32.106719464557585" lon="-7.999160509800114"><ele>443.5</ele><time>2026-04-23T11:14:18.998Z</time></trkpt><trkpt lat="32.10641802684305" lon="-7.999164505229836"><ele>443.0</ele><time>2026-04-23T11:14:19.998Z</time></trkpt><trkpt lat="32.106114298002275" lon="-7.999173471430746"><ele>443.0</ele><time>2026-04-23T11:14:20.998Z</time></trkpt><trkpt lat="32.10581455432651" lon="-7.999188516902681"><ele>443.0</ele><time>2026-04-23T11:14:21.998Z</time></trkpt><trkpt lat="32.10551069088907" lon="-7.999202334592361"><ele>443.0</ele><time>2026-04-23T11:14:22.998Z</time></trkpt><trkpt lat="32.105211537874105" lon="-7.99921691807436"><ele>443.0</ele><time>2026-04-23T11:14:23.998Z</time></trkpt><trkpt lat="32.10490898716251" lon="-7.999231291906543"><ele>443.0</ele><time>2026-04-23T11:14:24.998Z</time></trkpt><trkpt lat="32.104613326448" lon="-7.999246644384338"><ele>443.0</ele><time>2026-04-23T11:14:25.998Z</time></trkpt><trkpt lat="32.104314467500416" lon="-7.999264543935916"><ele>442.5</ele><time>2026-04-23T11:14:26.998Z</time></trkpt><trkpt lat="32.10400973494684" lon="-7.9992900015062585"><ele>442.0</ele><time>2026-04-23T11:14:27.998Z</time></trkpt><trkpt lat="32.10371007989735" lon="-7.999311648502301"><ele>442.0</ele><time>2026-04-23T11:14:28.998Z</time></trkpt><trkpt lat="32.10341538943823" lon="-7.999341980638813"><ele>442.0</ele><time>2026-04-23T11:14:30Z</time></trkpt><trkpt lat="32.10311732934383" lon="-7.999370870486125"><ele>442.5</ele><time>2026-04-23T11:14:31Z</time></trkpt><trkpt lat="32.10282295394828" lon="-7.999404505761712"><ele>443.0</ele><time>2026-04-23T11:14:32Z</time></trkpt><trkpt lat="32.10251993124467" lon="-7.99943591433526"><ele>443.0</ele><time>2026-04-23T11:14:33Z</time></trkpt><trkpt lat="32.102219464825744" lon="-7.999469310934073"><ele>443.0</ele><time>2026-04-23T11:14:34Z</time></trkpt><trkpt lat="32.10192466073947" lon="-7.999503900848405"><ele>443.0</ele><time>2026-04-23T11:14:35Z</time></trkpt><trkpt lat="32.101626586106825" lon="-7.999536592869966"><ele>443.0</ele><time>2026-04-23T11:14:36Z</time></trkpt><trkpt lat="32.10132514458037" lon="-7.999571509004436"><ele>443.0</ele><time>2026-04-23T11:14:37Z</time></trkpt><trkpt lat="32.10102450703104" lon="-7.999606559923355"><ele>443.0</ele><time>2026-04-23T11:14:38Z</time></trkpt><trkpt lat="32.10072477330435" lon="-7.999635463498328"><ele>443.0</ele><time>2026-04-23T11:14:39Z</time></trkpt><trkpt lat="32.10042690019444" lon="-7.999668341925178"><ele>443.0</ele><time>2026-04-23T11:14:40Z</time></trkpt><trkpt lat="32.10012462395746" lon="-7.999699683081516"><ele>442.5</ele><time>2026-04-23T11:14:41Z</time></trkpt><trkpt lat="32.099823923908176" lon="-7.999731145578487"><ele>442.0</ele><time>2026-04-23T11:14:42Z</time></trkpt><trkpt lat="32.09952203728976" lon="-7.999765392955489"><ele>442.0</ele><time>2026-04-23T11:14:43Z</time></trkpt><trkpt lat="32.09922548854199" lon="-7.999800120096517"><ele>442.0</ele><time>2026-04-23T11:14:44Z</time></trkpt><trkpt lat="32.09892734149938" lon="-7.999841592306818"><ele>442.0</ele><time>2026-04-23T11:14:45Z</time></trkpt><trkpt lat="32.098623924322645" lon="-7.999875138473713"><ele>442.0</ele><time>2026-04-23T11:14:46Z</time></trkpt><trkpt lat="32.098328044396325" lon="-7.999907935393662"><ele>440.5</ele><time>2026-04-23T11:14:47Z</time></trkpt><trkpt lat="32.09803090279306" lon="-7.999943440692945"><ele>439.0</ele><time>2026-04-23T11:14:48Z</time></trkpt><trkpt lat="32.097733505361944" lon="-7.999974947220653"><ele>439.0</ele><time>2026-04-23T11:14:49Z</time></trkpt><trkpt lat="32.097432417759826" lon="-8.00000211996375"><ele>439.0</ele><time>2026-04-23T11:14:50Z</time></trkpt><trkpt lat="32.097136612048104" lon="-8.000025683186383"><ele>438.5</ele><time>2026-04-23T11:14:51Z</time></trkpt><trkpt lat="32.096838000628594" lon="-8.000051061141027"><ele>438.0</ele><time>2026-04-23T11:14:52Z</time></trkpt><trkpt lat="32.096539227675926" lon="-8.000071860198172"><ele>436.5</ele><time>2026-04-23T11:14:53Z</time></trkpt><trkpt lat="32.096239277128575" lon="-8.000094578791488"><ele>435.0</ele><time>2026-04-23T11:14:54Z</time></trkpt><trkpt lat="32.09593686275691" lon="-8.000117982644806"><ele>436.0</ele><time>2026-04-23T11:14:55Z</time></trkpt><trkpt lat="32.09563842200305" lon="-8.000137870022613"><ele>437.0</ele><time>2026-04-23T11:14:56Z</time></trkpt><trkpt lat="32.09533586322143" lon="-8.000153307664178"><ele>437.0</ele><time>2026-04-23T11:14:57Z</time></trkpt><trkpt lat="32.09503208297572" lon="-8.000167905759005"><ele>437.0</ele><time>2026-04-23T11:14:58Z</time></trkpt><trkpt lat="32.094732256805294" lon="-8.000176636271863"><ele>437.0</ele><time>2026-04-23T11:14:59Z</time></trkpt><trkpt lat="32.094429771600595" lon="-8.000181562468946"><ele>437.0</ele><time>2026-04-23T11:14:59.999Z</time></trkpt><trkpt lat="32.09413039489954" lon="-8.000183244563017"><ele>438.5</ele><time>2026-04-23T11:15:00.999Z</time></trkpt><trkpt lat="32.093832458599024" lon="-8.00018701385905"><ele>440.0</ele><time>2026-04-23T11:15:01.999Z</time></trkpt><trkpt lat="32.09353077661886" lon="-8.000187466223483"><ele>440.5</ele><time>2026-04-23T11:15:02.999Z</time></trkpt><trkpt lat="32.093232307593304" lon="-8.000183297918614"><ele>441.0</ele><time>2026-04-23T11:15:03.999Z</time></trkpt><trkpt lat="32.09293588117251" lon="-8.000177574777748"><ele>441.0</ele><time>2026-04-23T11:15:04.999Z</time></trkpt><trkpt lat="32.09263253512831" lon="-8.000169707287656"><ele>441.0</ele><time>2026-04-23T11:15:05.999Z</time></trkpt><trkpt lat="32.092328910696864" lon="-8.000157064439406"><ele>442.0</ele><time>2026-04-23T11:15:06.999Z</time></trkpt><trkpt lat="32.09202891356389" lon="-8.000146963399317"><ele>443.0</ele><time>2026-04-23T11:15:07.999Z</time></trkpt><trkpt lat="32.09172856599383" lon="-8.000128346599856"><ele>442.0</ele><time>2026-04-23T11:15:08.999Z</time></trkpt><trkpt lat="32.09142839315193" lon="-8.00011148562676"><ele>441.0</ele><time>2026-04-23T11:15:09.999Z</time></trkpt><trkpt lat="32.09112570234739" lon="-8.000097775506969"><ele>441.0</ele><time>2026-04-23T11:15:10.999Z</time></trkpt><trkpt lat="32.090824360774775" lon="-8.000077322252878"><ele>441.0</ele><time>2026-04-23T11:15:11.999Z</time></trkpt><trkpt lat="32.09052335657086" lon="-8.00005163373471"><ele>441.0</ele><time>2026-04-23T11:15:12.999Z</time></trkpt><trkpt lat="32.09022278164007" lon="-8.000023653192214"><ele>441.0</ele><time>2026-04-23T11:15:13.999Z</time></trkpt><trkpt lat="32.089919837948706" lon="-7.999997889898449"><ele>441.0</ele><time>2026-04-23T11:15:14.999Z</time></trkpt><trkpt lat="32.0896229943638" lon="-7.999967194618063"><ele>441.0</ele><time>2026-04-23T11:15:15.999Z</time></trkpt><trkpt lat="32.08932456755163" lon="-7.999934293315108"><ele>441.0</ele><time>2026-04-23T11:15:16.999Z</time></trkpt><trkpt lat="32.0890256760107" lon="-7.99989604563891"><ele>441.0</ele><time>2026-04-23T11:15:17.999Z</time></trkpt><trkpt lat="32.08872705891159" lon="-7.999859184709118"><ele>441.0</ele><time>2026-04-23T11:15:18.999Z</time></trkpt><trkpt lat="32.08843179633338" lon="-7.999813900683935"><ele>441.0</ele><time>2026-04-23T11:15:19.999Z</time></trkpt><trkpt lat="32.08813793625427" lon="-7.999763670766673"><ele>441.0</ele><time>2026-04-23T11:15:20.999Z</time></trkpt><trkpt lat="32.08784127011076" lon="-7.999718994636628"><ele>441.0</ele><time>2026-04-23T11:15:21.999Z</time></trkpt><trkpt lat="32.08754503926801" lon="-7.9996698023927895"><ele>440.0</ele><time>2026-04-23T11:15:22.999Z</time></trkpt><trkpt lat="32.08724738270371" lon="-7.999621033989026"><ele>439.0</ele><time>2026-04-23T11:15:23.999Z</time></trkpt><trkpt lat="32.08695093170935" lon="-7.99956756970527"><ele>439.0</ele><time>2026-04-23T11:15:24.999Z</time></trkpt><trkpt lat="32.0866525059059" lon="-7.999514535380477"><ele>439.0</ele><time>2026-04-23T11:15:25.999Z</time></trkpt><trkpt lat="32.086355371169496" lon="-7.999459246601387"><ele>438.5</ele><time>2026-04-23T11:15:26.999Z</time></trkpt><trkpt lat="32.086063677947806" lon="-7.999404695916506"><ele>438.0</ele><time>2026-04-23T11:15:27.999Z</time></trkpt><trkpt lat="32.08576946519654" lon="-7.999343191295819"><ele>439.0</ele><time>2026-04-23T11:15:28.999Z</time></trkpt><trkpt lat="32.0854735247271" lon="-7.9992757478879035"><ele>440.0</ele><time>2026-04-23T11:15:29.999Z</time></trkpt><trkpt lat="32.085178047087624" lon="-7.999211913673343"><ele>440.0</ele><time>2026-04-23T11:15:30.999Z</time></trkpt><trkpt lat="32.084884153812766" lon="-7.999145882070852"><ele>440.0</ele><time>2026-04-23T11:15:31.999Z</time></trkpt><trkpt lat="32.084586746316475" lon="-7.9990762507430055"><ele>440.0</ele><time>2026-04-23T11:15:32.999Z</time></trkpt><trkpt lat="32.08428875169886" lon="-7.9990007504636615"><ele>440.0</ele><time>2026-04-23T11:15:33.999Z</time></trkpt><trkpt lat="32.08399417284027" lon="-7.998927052454859"><ele>441.0</ele><time>2026-04-23T11:15:34.999Z</time></trkpt><trkpt lat="32.083702229329596" lon="-7.9988494625505755"><ele>442.0</ele><time>2026-04-23T11:15:35.999Z</time></trkpt><trkpt lat="32.083408980953855" lon="-7.998771978011831"><ele>442.0</ele><time>2026-04-23T11:15:36.999Z</time></trkpt><trkpt lat="32.08311787161901" lon="-7.998688761329548"><ele>442.0</ele><time>2026-04-23T11:15:37.999Z</time></trkpt><trkpt lat="32.08282517657642" lon="-7.998607112328432"><ele>442.0</ele><time>2026-04-23T11:15:38.999Z</time></trkpt><trkpt lat="32.0825312961231" lon="-7.998525378556401"><ele>442.0</ele><time>2026-04-23T11:15:39.999Z</time></trkpt><trkpt lat="32.082232286841275" lon="-7.998446615101681"><ele>442.0</ele><time>2026-04-23T11:15:40.999Z</time></trkpt><trkpt lat="32.08193634105174" lon="-7.998367460850529"><ele>442.0</ele><time>2026-04-23T11:15:41.999Z</time></trkpt><trkpt lat="32.08164377316567" lon="-7.99828650365824"><ele>440.5</ele><time>2026-04-23T11:15:42.999Z</time></trkpt><trkpt lat="32.08134909035675" lon="-7.99821137966034"><ele>439.0</ele><time>2026-04-23T11:15:43.999Z</time></trkpt><trkpt lat="32.08105158264249" lon="-7.99812663934277"><ele>439.5</ele><time>2026-04-23T11:15:44.999Z</time></trkpt><trkpt lat="32.08075651535144" lon="-7.998044129088053"><ele>440.0</ele><time>2026-04-23T11:15:45.999Z</time></trkpt><trkpt lat="32.08046071261078" lon="-7.997964440142093"><ele>440.0</ele><time>2026-04-23T11:15:46.999Z</time></trkpt><trkpt lat="32.080166096377106" lon="-7.997885117942927"><ele>440.0</ele><time>2026-04-23T11:15:47.999Z</time></trkpt><trkpt lat="32.07987198076566" lon="-7.997806905359711"><ele>440.0</ele><time>2026-04-23T11:15:48.999Z</time></trkpt><trkpt lat="32.07957871471089" lon="-7.997724989269157"><ele>440.0</ele><time>2026-04-23T11:15:49.999Z</time></trkpt><trkpt lat="32.0792877876955" lon="-7.9976438600610456"><ele>439.5</ele><time>2026-04-23T11:15:50.999Z</time></trkpt><trkpt lat="32.07899326407192" lon="-7.997568803919074"><ele>439.0</ele><time>2026-04-23T11:15:51.999Z</time></trkpt><trkpt lat="32.078697703234695" lon="-7.997484947619851"><ele>438.5</ele><time>2026-04-23T11:15:52.999Z</time></trkpt><trkpt lat="32.07840644954902" lon="-7.997402851522257"><ele>438.0</ele><time>2026-04-23T11:15:53.999Z</time></trkpt><trkpt lat="32.07810877869373" lon="-7.997326782325917"><ele>438.0</ele><time>2026-04-23T11:15:54.999Z</time></trkpt><trkpt lat="32.07781528682102" lon="-7.997242695846675"><ele>438.0</ele><time>2026-04-23T11:15:55.999Z</time></trkpt><trkpt lat="32.07752193445999" lon="-7.997163330474594"><ele>438.5</ele><time>2026-04-23T11:15:56.999Z</time></trkpt><trkpt lat="32.077229927320516" lon="-7.997079308334406"><ele>439.0</ele><time>2026-04-23T11:15:57.999Z</time></trkpt><trkpt lat="32.07694112962976" lon="-7.9969949202317965"><ele>439.0</ele><time>2026-04-23T11:15:58.999Z</time></trkpt><trkpt lat="32.07665890234159" lon="-7.996900724669972"><ele>439.0</ele><time>2026-04-23T11:15:59.999Z</time></trkpt><trkpt lat="32.0763626415712" lon="-7.996813868218719"><ele>439.5</ele><time>2026-04-23T11:16:00.999Z</time></trkpt><trkpt lat="32.0760730659692" lon="-7.996733185473029"><ele>440.0</ele><time>2026-04-23T11:16:01.999Z</time></trkpt><trkpt lat="32.07578090677413" lon="-7.9966578958824694"><ele>441.5</ele><time>2026-04-23T11:16:02.999Z</time></trkpt><trkpt lat="32.0754888775481" lon="-7.996580017668418"><ele>443.0</ele><time>2026-04-23T11:16:03.999Z</time></trkpt><trkpt lat="32.075199758009916" lon="-7.996499401726904"><ele>442.5</ele><time>2026-04-23T11:16:04.999Z</time></trkpt><trkpt lat="32.07490641474182" lon="-7.996420790083955"><ele>442.0</ele><time>2026-04-23T11:16:05.999Z</time></trkpt><trkpt lat="32.07461581230304" lon="-7.99633914646138"><ele>442.0</ele><time>2026-04-23T11:16:06.999Z</time></trkpt><trkpt lat="32.07432315040143" lon="-7.996257588951194"><ele>442.0</ele><time>2026-04-23T11:16:07.999Z</time></trkpt><trkpt lat="32.07403421407265" lon="-7.996175021224701"><ele>442.5</ele><time>2026-04-23T11:16:08.999Z</time></trkpt><trkpt lat="32.07374435004982" lon="-7.996091208500557"><ele>443.0</ele><time>2026-04-23T11:16:09.999Z</time></trkpt><trkpt lat="32.07345229237505" lon="-7.996013380476639"><ele>443.5</ele><time>2026-04-23T11:16:10.999Z</time></trkpt><trkpt lat="32.0731592019351" lon="-7.995937146765799"><ele>444.0</ele><time>2026-04-23T11:16:11.999Z</time></trkpt><trkpt lat="32.072861831624714" lon="-7.99586147960437"><ele>443.5</ele><time>2026-04-23T11:16:12.999Z</time></trkpt><trkpt lat="32.07256718531247" lon="-7.9957831177417855"><ele>443.0</ele><time>2026-04-23T11:16:13.999Z</time></trkpt><trkpt lat="32.07227190893019" lon="-7.995706554188172"><ele>443.0</ele><time>2026-04-23T11:16:14.999Z</time></trkpt><trkpt lat="32.07197688287445" lon="-7.995632734080133"><ele>443.0</ele><time>2026-04-23T11:16:15.999Z</time></trkpt><trkpt lat="32.07168183002567" lon="-7.995555251823811"><ele>443.0</ele><time>2026-04-23T11:16:16.999Z</time></trkpt><trkpt lat="32.07138699910814" lon="-7.9954842247660585"><ele>443.0</ele><time>2026-04-23T11:16:17.999Z</time></trkpt><trkpt lat="32.07109014850012" lon="-7.9954147758125975"><ele>443.0</ele><time>2026-04-23T11:16:18.998Z</time></trkpt><trkpt lat="32.07079407068635" lon="-7.995352502704702"><ele>443.0</ele><time>2026-04-23T11:16:19.998Z</time></trkpt><trkpt lat="32.07049674313818" lon="-7.995293733504955"><ele>443.0</ele><time>2026-04-23T11:16:20.998Z</time></trkpt><trkpt lat="32.07019899796109" lon="-7.9952357827017675"><ele>443.0</ele><time>2026-04-23T11:16:21.998Z</time></trkpt><trkpt lat="32.06990044586481" lon="-7.995172635221031"><ele>443.0</ele><time>2026-04-23T11:16:22.998Z</time></trkpt><trkpt lat="32.06960401820349" lon="-7.995117892018299"><ele>443.0</ele><time>2026-04-23T11:16:23.998Z</time></trkpt><trkpt lat="32.06930606898506" lon="-7.995062792474529"><ele>443.0</ele><time>2026-04-23T11:16:24.998Z</time></trkpt><trkpt lat="32.06900796844641" lon="-7.995007887446197"><ele>443.0</ele><time>2026-04-23T11:16:25.998Z</time></trkpt><trkpt lat="32.06870885413482" lon="-7.994959140361314"><ele>443.0</ele><time>2026-04-23T11:16:26.998Z</time></trkpt><trkpt lat="32.068412308498985" lon="-7.994909029519361"><ele>443.0</ele><time>2026-04-23T11:16:27.998Z</time></trkpt><trkpt lat="32.06811503657703" lon="-7.994860883557456"><ele>442.5</ele><time>2026-04-23T11:16:28.998Z</time></trkpt><trkpt lat="32.067813296121486" lon="-7.994815599543297"><ele>442.0</ele><time>2026-04-23T11:16:29.998Z</time></trkpt><trkpt lat="32.06751845422445" lon="-7.994774443334397"><ele>442.0</ele><time>2026-04-23T11:16:30.998Z</time></trkpt><trkpt lat="32.067217613521905" lon="-7.994735781727578"><ele>442.0</ele><time>2026-04-23T11:16:31.998Z</time></trkpt><trkpt lat="32.066918498266645" lon="-7.99470159882789"><ele>442.0</ele><time>2026-04-23T11:16:32.998Z</time></trkpt><trkpt lat="32.066617961266694" lon="-7.994668660888025"><ele>442.0</ele><time>2026-04-23T11:16:33.998Z</time></trkpt><trkpt lat="32.06631650449583" lon="-7.994640670233634"><ele>442.0</ele><time>2026-04-23T11:16:34.998Z</time></trkpt><trkpt lat="32.06601701545549" lon="-7.99461436981544"><ele>442.0</ele><time>2026-04-23T11:16:36Z</time></trkpt><trkpt lat="32.06572358095623" lon="-7.994591851861001"><ele>442.0</ele><time>2026-04-23T11:16:37Z</time></trkpt><trkpt lat="32.06542812044695" lon="-7.994567729964029"><ele>442.0</ele><time>2026-04-23T11:16:38Z</time></trkpt><trkpt lat="32.065127415833686" lon="-7.994545078233431"><ele>442.5</ele><time>2026-04-23T11:16:39Z</time></trkpt><trkpt lat="32.064823181967604" lon="-7.99452666005547"><ele>443.0</ele><time>2026-04-23T11:16:40Z</time></trkpt><trkpt lat="32.064523105337756" lon="-7.994504740456804"><ele>443.0</ele><time>2026-04-23T11:16:41Z</time></trkpt><trkpt lat="32.06422404163931" lon="-7.994491498247684"><ele>443.0</ele><time>2026-04-23T11:16:42Z</time></trkpt><trkpt lat="32.06392500572095" lon="-7.994487174264745"><ele>442.0</ele><time>2026-04-23T11:16:43Z</time></trkpt><trkpt lat="32.063622474579084" lon="-7.994482531148385"><ele>441.0</ele><time>2026-04-23T11:16:44Z</time></trkpt><trkpt lat="32.06331842048458" lon="-7.994481805386872"><ele>441.0</ele><time>2026-04-23T11:16:45Z</time></trkpt><trkpt lat="32.063018037245634" lon="-7.994484517921036"><ele>441.0</ele><time>2026-04-23T11:16:46Z</time></trkpt><trkpt lat="32.06271525664535" lon="-7.994492356651736"><ele>441.5</ele><time>2026-04-23T11:16:47Z</time></trkpt><trkpt lat="32.06241381417787" lon="-7.994497835665395"><ele>442.0</ele><time>2026-04-23T11:16:48Z</time></trkpt><trkpt lat="32.06211230864805" lon="-7.9945049974361915"><ele>442.0</ele><time>2026-04-23T11:16:49Z</time></trkpt><trkpt lat="32.061809428241496" lon="-7.994511178272134"><ele>442.0</ele><time>2026-04-23T11:16:50Z</time></trkpt><trkpt lat="32.06150910818973" lon="-7.994519836644294"><ele>442.0</ele><time>2026-04-23T11:16:51Z</time></trkpt><trkpt lat="32.061208128557496" lon="-7.994532590088472"><ele>442.0</ele><time>2026-04-23T11:16:52Z</time></trkpt><trkpt lat="32.06090886227107" lon="-7.99454550874283"><ele>442.0</ele><time>2026-04-23T11:16:53Z</time></trkpt><trkpt lat="32.06061002207409" lon="-7.994555935758285"><ele>442.0</ele><time>2026-04-23T11:16:54Z</time></trkpt><trkpt lat="32.06030624676769" lon="-7.994569020668289"><ele>442.0</ele><time>2026-04-23T11:16:55Z</time></trkpt><trkpt lat="32.0600061663001" lon="-7.994584866894378"><ele>442.0</ele><time>2026-04-23T11:16:56Z</time></trkpt><trkpt lat="32.05970392994008" lon="-7.9946115276896235"><ele>442.0</ele><time>2026-04-23T11:16:57Z</time></trkpt><trkpt lat="32.05940500919492" lon="-7.994634914511333"><ele>442.0</ele><time>2026-04-23T11:16:58Z</time></trkpt><trkpt lat="32.059106291057745" lon="-7.994665391909344"><ele>442.0</ele><time>2026-04-23T11:16:59Z</time></trkpt><trkpt lat="32.05880432435656" lon="-7.994694221576487"><ele>442.0</ele><time>2026-04-23T11:17:00Z</time></trkpt><trkpt lat="32.05850817410776" lon="-7.994724338127734"><ele>442.5</ele><time>2026-04-23T11:17:01Z</time></trkpt><trkpt lat="32.0582112599987" lon="-7.994756934982687"><ele>443.0</ele><time>2026-04-23T11:17:02Z</time></trkpt><trkpt lat="32.05791046952749" lon="-7.99479185710473"><ele>443.0</ele><time>2026-04-23T11:17:02.999Z</time></trkpt><trkpt lat="32.057613311307264" lon="-7.994829791719779"><ele>443.0</ele><time>2026-04-23T11:17:03.999Z</time></trkpt><trkpt lat="32.05731855968286" lon="-7.99487011580181"><ele>442.5</ele><time>2026-04-23T11:17:04.999Z</time></trkpt><trkpt lat="32.057020521278574" lon="-7.994914410065486"><ele>442.0</ele><time>2026-04-23T11:17:05.999Z</time></trkpt><trkpt lat="32.05671816386764" lon="-7.9949581791046755"><ele>441.0</ele><time>2026-04-23T11:17:06.999Z</time></trkpt><trkpt lat="32.05641881686881" lon="-7.995007527566043"><ele>440.0</ele><time>2026-04-23T11:17:07.999Z</time></trkpt><trkpt lat="32.056123473584485" lon="-7.995053347564775"><ele>440.0</ele><time>2026-04-23T11:17:08.999Z</time></trkpt><trkpt lat="32.055827091720694" lon="-7.99509904452871"><ele>440.0</ele><time>2026-04-23T11:17:09.999Z</time></trkpt><trkpt lat="32.05552782244162" lon="-7.9951543853385365"><ele>440.0</ele><time>2026-04-23T11:17:10.999Z</time></trkpt><trkpt lat="32.05523023556661" lon="-7.995209972675448"><ele>440.0</ele><time>2026-04-23T11:17:11.999Z</time></trkpt><trkpt lat="32.05492862134572" lon="-7.995266068116233"><ele>440.0</ele><time>2026-04-23T11:17:12.999Z</time></trkpt><trkpt lat="32.05463415641649" lon="-7.995325434570844"><ele>440.0</ele><time>2026-04-23T11:17:13.999Z</time></trkpt><trkpt lat="32.054339526417415" lon="-7.9953850021569455"><ele>440.0</ele><time>2026-04-23T11:17:14.999Z</time></trkpt><trkpt lat="32.05404633388489" lon="-7.9954512289813495"><ele>440.0</ele><time>2026-04-23T11:17:15.999Z</time></trkpt><trkpt lat="32.053746710058014" lon="-7.995516755271808"><ele>440.0</ele><time>2026-04-23T11:17:16.999Z</time></trkpt><trkpt lat="32.053450751322195" lon="-7.995577186431943"><ele>440.0</ele><time>2026-04-23T11:17:17.999Z</time></trkpt><trkpt lat="32.05315459737854" lon="-7.995633020593489"><ele>440.5</ele><time>2026-04-23T11:17:18.999Z</time></trkpt><trkpt lat="32.05285440238761" lon="-7.995692181857605"><ele>441.0</ele><time>2026-04-23T11:17:19.999Z</time></trkpt><trkpt lat="32.05255567208074" lon="-7.995748753985304"><ele>441.0</ele><time>2026-04-23T11:17:20.999Z</time></trkpt><trkpt lat="32.05225401952342" lon="-7.99580728238352"><ele>441.0</ele><time>2026-04-23T11:17:21.999Z</time></trkpt><trkpt lat="32.051958078558215" lon="-7.995869171054584"><ele>442.0</ele><time>2026-04-23T11:17:22.999Z</time></trkpt><trkpt lat="32.051660119705694" lon="-7.995927434250875"><ele>443.0</ele><time>2026-04-23T11:17:23.999Z</time></trkpt><trkpt lat="32.051363895037184" lon="-7.995988387707137"><ele>441.0</ele><time>2026-04-23T11:17:24.999Z</time></trkpt><trkpt lat="32.051066447087" lon="-7.996045622809352"><ele>439.0</ele><time>2026-04-23T11:17:25.999Z</time></trkpt><trkpt lat="32.050768433550104" lon="-7.996107575911791"><ele>439.0</ele><time>2026-04-23T11:17:26.999Z</time></trkpt><trkpt lat="32.050474652745024" lon="-7.996170063605932"><ele>439.0</ele><time>2026-04-23T11:17:27.999Z</time></trkpt><trkpt lat="32.05017852313033" lon="-7.9962337130089125"><ele>440.5</ele><time>2026-04-23T11:17:28.999Z</time></trkpt><trkpt lat="32.04988514940458" lon="-7.996296036410761"><ele>442.0</ele><time>2026-04-23T11:17:29.999Z</time></trkpt><trkpt lat="32.04958995703254" lon="-7.996356794547822"><ele>442.0</ele><time>2026-04-23T11:17:30.999Z</time></trkpt><trkpt lat="32.04929219685373" lon="-7.996416480756304"><ele>442.0</ele><time>2026-04-23T11:17:31.999Z</time></trkpt><trkpt lat="32.0489982124991" lon="-7.996479580953643"><ele>442.5</ele><time>2026-04-23T11:17:32.999Z</time></trkpt><trkpt lat="32.0487018252633" lon="-7.996535903261152"><ele>443.0</ele><time>2026-04-23T11:17:33.999Z</time></trkpt><trkpt lat="32.0484091825406" lon="-7.996596279789872"><ele>443.0</ele><time>2026-04-23T11:17:34.999Z</time></trkpt><trkpt lat="32.04811021326809" lon="-7.996652143914164"><ele>443.0</ele><time>2026-04-23T11:17:35.999Z</time></trkpt><trkpt lat="32.04781443595557" lon="-7.996715182938399"><ele>443.5</ele><time>2026-04-23T11:17:36.999Z</time></trkpt><trkpt lat="32.04751807651139" lon="-7.99677692970915"><ele>444.0</ele><time>2026-04-23T11:17:37.999Z</time></trkpt><trkpt lat="32.04722000506074" lon="-7.996840527476706"><ele>444.0</ele><time>2026-04-23T11:17:38.999Z</time></trkpt><trkpt lat="32.04691880385313" lon="-7.996903283440302"><ele>444.0</ele><time>2026-04-23T11:17:39.999Z</time></trkpt><trkpt lat="32.04661845795337" lon="-7.996958861736711"><ele>443.5</ele><time>2026-04-23T11:17:40.999Z</time></trkpt><trkpt lat="32.04632162957957" lon="-7.997021476181128"><ele>443.0</ele><time>2026-04-23T11:17:41.999Z</time></trkpt><trkpt lat="32.046025092814475" lon="-7.997084187033498"><ele>441.5</ele><time>2026-04-23T11:17:42.999Z</time></trkpt><trkpt lat="32.04573117486663" lon="-7.997144104133081"><ele>440.0</ele><time>2026-04-23T11:17:43.999Z</time></trkpt><trkpt lat="32.04543429259362" lon="-7.9971959372123695"><ele>440.0</ele><time>2026-04-23T11:17:44.999Z</time></trkpt><trkpt lat="32.04513569629257" lon="-7.997255412842613"><ele>440.0</ele><time>2026-04-23T11:17:45.999Z</time></trkpt><trkpt lat="32.04483745959451" lon="-7.99732009449196"><ele>440.0</ele><time>2026-04-23T11:17:46.999Z</time></trkpt><trkpt lat="32.04454108417986" lon="-7.997383498742505"><ele>440.0</ele><time>2026-04-23T11:17:47.999Z</time></trkpt><trkpt lat="32.044244679102505" lon="-7.997445361631288"><ele>439.0</ele><time>2026-04-23T11:17:48.999Z</time></trkpt><trkpt lat="32.04394916929524" lon="-7.997504753075788"><ele>438.0</ele><time>2026-04-23T11:17:49.999Z</time></trkpt><trkpt lat="32.04365261712987" lon="-7.997559970513886"><ele>438.0</ele><time>2026-04-23T11:17:50.999Z</time></trkpt><trkpt lat="32.043356464011175" lon="-7.997616620443633"><ele>438.0</ele><time>2026-04-23T11:17:51.999Z</time></trkpt><trkpt lat="32.04306258367432" lon="-7.997677199624608"><ele>439.0</ele><time>2026-04-23T11:17:52.999Z</time></trkpt><trkpt lat="32.042768138083275" lon="-7.99773312154246"><ele>440.0</ele><time>2026-04-23T11:17:53.999Z</time></trkpt><trkpt lat="32.042469978610924" lon="-7.997793682882813"><ele>440.0</ele><time>2026-04-23T11:17:54.999Z</time></trkpt><trkpt lat="32.04217801124095" lon="-7.997856562643155"><ele>440.0</ele><time>2026-04-23T11:17:55.999Z</time></trkpt><trkpt lat="32.04188396133952" lon="-7.99791891224589"><ele>439.5</ele><time>2026-04-23T11:17:56.999Z</time></trkpt><trkpt lat="32.04158967034625" lon="-7.997985635951995"><ele>439.0</ele><time>2026-04-23T11:17:57.999Z</time></trkpt><trkpt lat="32.04129161978861" lon="-7.998058687672739"><ele>439.0</ele><time>2026-04-23T11:17:58.999Z</time></trkpt><trkpt lat="32.04099741251831" lon="-7.998128680579711"><ele>439.0</ele><time>2026-04-23T11:17:59.999Z</time></trkpt><trkpt lat="32.04070968173355" lon="-7.998197437554705"><ele>440.0</ele><time>2026-04-23T11:18:00.999Z</time></trkpt><trkpt lat="32.04042203504668" lon="-7.998278356321996"><ele>441.0</ele><time>2026-04-23T11:18:01.999Z</time></trkpt><trkpt lat="32.040129359205906" lon="-7.998355134540271"><ele>441.5</ele><time>2026-04-23T11:18:02.999Z</time></trkpt><trkpt lat="32.03983732633568" lon="-7.998436892475712"><ele>442.0</ele><time>2026-04-23T11:18:03.999Z</time></trkpt><trkpt lat="32.03954683828288" lon="-7.998520010789391"><ele>442.0</ele><time>2026-04-23T11:18:04.999Z</time></trkpt><trkpt lat="32.03925062920891" lon="-7.998606176434121"><ele>442.0</ele><time>2026-04-23T11:18:05.999Z</time></trkpt><trkpt lat="32.03895720402665" lon="-7.998690312696009"><ele>443.5</ele><time>2026-04-23T11:18:06.999Z</time></trkpt><trkpt lat="32.038666655472134" lon="-7.998782259940489"><ele>445.0</ele><time>2026-04-23T11:18:07.999Z</time></trkpt><trkpt lat="32.03837520333564" lon="-7.998869670833385"><ele>445.0</ele><time>2026-04-23T11:18:08.999Z</time></trkpt><trkpt lat="32.03808412845678" lon="-7.998965918401812"><ele>445.0</ele><time>2026-04-23T11:18:09.999Z</time></trkpt><trkpt lat="32.03779458119307" lon="-7.999062410355933"><ele>445.0</ele><time>2026-04-23T11:18:10.999Z</time></trkpt><trkpt lat="32.03750549541454" lon="-7.999159275269641"><ele>445.0</ele><time>2026-04-23T11:18:11.999Z</time></trkpt><trkpt lat="32.037212022754254" lon="-7.999257660626252"><ele>445.0</ele><time>2026-04-23T11:18:12.999Z</time></trkpt><trkpt lat="32.03692388903578" lon="-7.999355995240746"><ele>445.0</ele><time>2026-04-23T11:18:13.999Z</time></trkpt><trkpt lat="32.03663723409428" lon="-7.999449079417123"><ele>444.0</ele><time>2026-04-23T11:18:14.999Z</time></trkpt><trkpt lat="32.0363443187733" lon="-7.999545596398815"><ele>443.0</ele><time>2026-04-23T11:18:15.999Z</time></trkpt><trkpt lat="32.03605343318841" lon="-7.999642098499321"><ele>444.0</ele><time>2026-04-23T11:18:16.999Z</time></trkpt><trkpt lat="32.035761530916396" lon="-7.9997432850679004"><ele>445.0</ele><time>2026-04-23T11:18:17.999Z</time></trkpt><trkpt lat="32.035470888320305" lon="-7.999841796175881"><ele>445.0</ele><time>2026-04-23T11:18:18.998Z</time></trkpt><trkpt lat="32.03518209065543" lon="-7.999934647465286"><ele>445.0</ele><time>2026-04-23T11:18:19.998Z</time></trkpt><trkpt lat="32.03489437371724" lon="-8.000029375685685"><ele>445.5</ele><time>2026-04-23T11:18:20.998Z</time></trkpt><trkpt lat="32.03460364208947" lon="-8.000128298816435"><ele>446.0</ele><time>2026-04-23T11:18:21.998Z</time></trkpt><trkpt lat="32.0343099817038" lon="-8.000228374981562"><ele>446.0</ele><time>2026-04-23T11:18:22.998Z</time></trkpt><trkpt lat="32.034022758268286" lon="-8.000322608253946"><ele>446.0</ele><time>2026-04-23T11:18:23.998Z</time></trkpt><trkpt lat="32.03373198581758" lon="-8.000421507745628"><ele>446.0</ele><time>2026-04-23T11:18:24.998Z</time></trkpt><trkpt lat="32.033440925804186" lon="-8.000516062519027"><ele>446.0</ele><time>2026-04-23T11:18:25.998Z</time></trkpt><trkpt lat="32.033150782753616" lon="-8.000611815065032"><ele>446.0</ele><time>2026-04-23T11:18:26.998Z</time></trkpt><trkpt lat="32.03286316578944" lon="-8.000707127726114"><ele>446.0</ele><time>2026-04-23T11:18:27.998Z</time></trkpt><trkpt lat="32.03257622427395" lon="-8.000804190791532"><ele>446.0</ele><time>2026-04-23T11:18:28.998Z</time></trkpt><trkpt lat="32.03228603293257" lon="-8.000899475910364"><ele>446.0</ele><time>2026-04-23T11:18:29.998Z</time></trkpt><trkpt lat="32.03199694677626" lon="-8.000995866125294"><ele>446.0</ele><time>2026-04-23T11:18:30.998Z</time></trkpt><trkpt lat="32.03170795698549" lon="-8.001090752900122"><ele>446.0</ele><time>2026-04-23T11:18:31.998Z</time></trkpt><trkpt lat="32.03142208667157" lon="-8.001183867034305"><ele>446.0</ele><time>2026-04-23T11:18:32.998Z</time></trkpt><trkpt lat="32.03113408057404" lon="-8.001277670833261"><ele>446.0</ele><time>2026-04-23T11:18:33.998Z</time></trkpt><trkpt lat="32.03084450994461" lon="-8.001374076419255"><ele>446.0</ele><time>2026-04-23T11:18:34.998Z</time></trkpt><trkpt lat="32.03055350145585" lon="-8.0014666833239"><ele>446.0</ele><time>2026-04-23T11:18:35.998Z</time></trkpt><trkpt lat="32.03026142572292" lon="-8.00156071913145"><ele>446.0</ele><time>2026-04-23T11:18:36.998Z</time></trkpt><trkpt lat="32.029973081536944" lon="-8.001655696500578"><ele>446.0</ele><time>2026-04-23T11:18:37.998Z</time></trkpt><trkpt lat="32.029679453363876" lon="-8.001751014405036"><ele>445.5</ele><time>2026-04-23T11:18:38.998Z</time></trkpt><trkpt lat="32.02939037232862" lon="-8.001852273665795"><ele>445.0</ele><time>2026-04-23T11:18:39.998Z</time></trkpt><trkpt lat="32.02910094523459" lon="-8.001949003013028"><ele>446.0</ele><time>2026-04-23T11:18:40.998Z</time></trkpt><trkpt lat="32.02880876731794" lon="-8.002048207358294"><ele>447.0</ele><time>2026-04-23T11:18:42Z</time></trkpt><trkpt lat="32.028518697892636" lon="-8.00214572662756"><ele>446.5</ele><time>2026-04-23T11:18:43Z</time></trkpt><trkpt lat="32.02822852732844" lon="-8.002240963545873"><ele>446.0</ele><time>2026-04-23T11:18:44Z</time></trkpt><trkpt lat="32.02794361113517" lon="-8.002331552284794"><ele>446.0</ele><time>2026-04-23T11:18:45Z</time></trkpt><trkpt lat="32.02765281044941" lon="-8.0024288332876"><ele>446.0</ele><time>2026-04-23T11:18:46Z</time></trkpt><trkpt lat="32.02736279309635" lon="-8.002526000368569"><ele>446.0</ele><time>2026-04-23T11:18:47Z</time></trkpt><trkpt lat="32.027073915899436" lon="-8.002625801560496"><ele>446.0</ele><time>2026-04-23T11:18:48Z</time></trkpt><trkpt lat="32.02678442910021" lon="-8.002723653779416"><ele>446.5</ele><time>2026-04-23T11:18:49Z</time></trkpt><trkpt lat="32.026496273128465" lon="-8.002818611778684"><ele>447.0</ele><time>2026-04-23T11:18:50Z</time></trkpt><trkpt lat="32.026205458966515" lon="-8.002918136941334"><ele>447.0</ele><time>2026-04-23T11:18:50.999Z</time></trkpt><trkpt lat="32.02591611965661" lon="-8.003016393551245"><ele>447.0</ele><time>2026-04-23T11:18:52Z</time></trkpt><trkpt lat="32.025624700105126" lon="-8.003112950867827"><ele>448.0</ele><time>2026-04-23T11:18:53Z</time></trkpt><trkpt lat="32.025333812760486" lon="-8.0032063241294"><ele>449.0</ele><time>2026-04-23T11:18:54Z</time></trkpt><trkpt lat="32.025040076971344" lon="-8.003299257434982"><ele>447.5</ele><time>2026-04-23T11:18:55Z</time></trkpt><trkpt lat="32.02475101408088" lon="-8.003394592461905"><ele>446.0</ele><time>2026-04-23T11:18:56Z</time></trkpt><trkpt lat="32.02446416285013" lon="-8.003493614961103"><ele>446.0</ele><time>2026-04-23T11:18:57Z</time></trkpt><trkpt lat="32.02417032193267" lon="-8.003595373760405"><ele>446.0</ele><time>2026-04-23T11:18:58Z</time></trkpt><trkpt lat="32.023881994241364" lon="-8.003688985388875"><ele>446.0</ele><time>2026-04-23T11:18:59Z</time></trkpt><trkpt lat="32.02359162677444" lon="-8.003789145853455"><ele>446.0</ele><time>2026-04-23T11:19:00Z</time></trkpt><trkpt lat="32.02330302596594" lon="-8.003884401577428"><ele>445.0</ele><time>2026-04-23T11:19:01Z</time></trkpt><trkpt lat="32.023015977066294" lon="-8.003978712497723"><ele>444.0</ele><time>2026-04-23T11:19:02Z</time></trkpt><trkpt lat="32.02272674280807" lon="-8.004079017227866"><ele>444.5</ele><time>2026-04-23T11:19:03Z</time></trkpt><trkpt lat="32.02243924731273" lon="-8.004175098671565"><ele>445.0</ele><time>2026-04-23T11:19:04Z</time></trkpt><trkpt lat="32.02214954976257" lon="-8.004273378303996"><ele>445.0</ele><time>2026-04-23T11:19:05Z</time></trkpt><trkpt lat="32.02185783874713" lon="-8.004368001009837"><ele>445.0</ele><time>2026-04-23T11:19:05.999Z</time></trkpt><trkpt lat="32.02157038041981" lon="-8.004467279159215"><ele>445.5</ele><time>2026-04-23T11:19:06.999Z</time></trkpt><trkpt lat="32.02127738410116" lon="-8.004563765386353"><ele>446.0</ele><time>2026-04-23T11:19:07.999Z</time></trkpt><trkpt lat="32.02098877804485" lon="-8.004658647144867"><ele>446.0</ele><time>2026-04-23T11:19:08.999Z</time></trkpt><trkpt lat="32.02069711231929" lon="-8.004759895541156"><ele>446.0</ele><time>2026-04-23T11:19:09.999Z</time></trkpt><trkpt lat="32.020408972995696" lon="-8.004853816698642"><ele>446.0</ele><time>2026-04-23T11:19:10.999Z</time></trkpt><trkpt lat="32.0201185164624" lon="-8.004952560149968"><ele>446.0</ele><time>2026-04-23T11:19:11.999Z</time></trkpt><trkpt lat="32.01982815604353" lon="-8.005051077997566"><ele>446.0</ele><time>2026-04-23T11:19:12.999Z</time></trkpt><trkpt lat="32.01953772781978" lon="-8.005143958852562"><ele>446.0</ele><time>2026-04-23T11:19:13.999Z</time></trkpt><trkpt lat="32.01924647143159" lon="-8.005232747233718"><ele>446.0</ele><time>2026-04-23T11:19:14.999Z</time></trkpt><trkpt lat="32.01895526669758" lon="-8.005322725802076"><ele>446.0</ele><time>2026-04-23T11:19:15.999Z</time></trkpt><trkpt lat="32.0186675681465" lon="-8.005415547743251"><ele>446.0</ele><time>2026-04-23T11:19:16.999Z</time></trkpt><trkpt lat="32.018381602101094" lon="-8.005505930972236"><ele>446.0</ele><time>2026-04-23T11:19:17.999Z</time></trkpt><trkpt lat="32.018083720667306" lon="-8.005593114785926"><ele>446.0</ele><time>2026-04-23T11:19:18.999Z</time></trkpt><trkpt lat="32.0177939639355" lon="-8.005680043191306"><ele>446.0</ele><time>2026-04-23T11:19:19.999Z</time></trkpt><trkpt lat="32.017505702930585" lon="-8.005766125917601"><ele>447.5</ele><time>2026-04-23T11:19:20.999Z</time></trkpt><trkpt lat="32.01721992420585" lon="-8.00584927232428"><ele>449.0</ele><time>2026-04-23T11:19:21.999Z</time></trkpt><trkpt lat="32.01692538756897" lon="-8.0059354050842"><ele>449.0</ele><time>2026-04-23T11:19:22.999Z</time></trkpt><trkpt lat="32.01663168412108" lon="-8.006016022715897"><ele>449.0</ele><time>2026-04-23T11:19:23.999Z</time></trkpt><trkpt lat="32.01633893360443" lon="-8.006098851295079"><ele>449.0</ele><time>2026-04-23T11:19:24.999Z</time></trkpt><trkpt lat="32.01604616281426" lon="-8.006178580189944"><ele>449.0</ele><time>2026-04-23T11:19:25.999Z</time></trkpt><trkpt lat="32.01575300748283" lon="-8.006256262839898"><ele>448.5</ele><time>2026-04-23T11:19:26.999Z</time></trkpt><trkpt lat="32.015465812795036" lon="-8.0063367560175"><ele>448.0</ele><time>2026-04-23T11:19:27.999Z</time></trkpt><trkpt lat="32.01517492337734" lon="-8.006415488707072"><ele>447.0</ele><time>2026-04-23T11:19:28.999Z</time></trkpt><trkpt lat="32.01488397252438" lon="-8.006492111633907"><ele>446.0</ele><time>2026-04-23T11:19:29.999Z</time></trkpt><trkpt lat="32.014590718156924" lon="-8.006567165058408"><ele>446.0</ele><time>2026-04-23T11:19:30.999Z</time></trkpt><trkpt lat="32.01429839769757" lon="-8.006642593653854"><ele>446.0</ele><time>2026-04-23T11:19:31.999Z</time></trkpt><trkpt lat="32.0140018281556" lon="-8.006715447683307"><ele>444.0</ele><time>2026-04-23T11:19:32.999Z</time></trkpt><trkpt lat="32.013703821068106" lon="-8.006781632434802"><ele>442.0</ele><time>2026-04-23T11:19:33.999Z</time></trkpt><trkpt lat="32.013407583678" lon="-8.006845729813953"><ele>441.5</ele><time>2026-04-23T11:19:34.999Z</time></trkpt><trkpt lat="32.01310953438455" lon="-8.006912235852656"><ele>441.0</ele><time>2026-04-23T11:19:35.999Z</time></trkpt><trkpt lat="32.01281359655746" lon="-8.00697953498564"><ele>441.0</ele><time>2026-04-23T11:19:36.999Z</time></trkpt><trkpt lat="32.012520100811884" lon="-8.007040705388361"><ele>441.0</ele><time>2026-04-23T11:19:37.999Z</time></trkpt><trkpt lat="32.01222369077729" lon="-8.007097891163331"><ele>442.5</ele><time>2026-04-23T11:19:38.999Z</time></trkpt><trkpt lat="32.01192683324051" lon="-8.007154191515891"><ele>444.0</ele><time>2026-04-23T11:19:39.999Z</time></trkpt><trkpt lat="32.01163047676065" lon="-8.00721113983784"><ele>444.5</ele><time>2026-04-23T11:19:40.999Z</time></trkpt><trkpt lat="32.011331412189456" lon="-8.007260625154045"><ele>445.0</ele><time>2026-04-23T11:19:41.999Z</time></trkpt><trkpt lat="32.01103589911892" lon="-8.00731061564554"><ele>446.5</ele><time>2026-04-23T11:19:42.999Z</time></trkpt><trkpt lat="32.01073869526307" lon="-8.007361405166733"><ele>448.0</ele><time>2026-04-23T11:19:43.999Z</time></trkpt><trkpt lat="32.010442975985356" lon="-8.007411747755496"><ele>448.0</ele><time>2026-04-23T11:19:44.999Z</time></trkpt><trkpt lat="32.01014451873695" lon="-8.007457425544118"><ele>448.0</ele><time>2026-04-23T11:19:45.999Z</time></trkpt><trkpt lat="32.009843801250135" lon="-8.00750561979396"><ele>448.0</ele><time>2026-04-23T11:19:46.999Z</time></trkpt><trkpt lat="32.009543259723934" lon="-8.007549178532756"><ele>448.0</ele><time>2026-04-23T11:19:47.999Z</time></trkpt><trkpt lat="32.00924656314594" lon="-8.007595632407813"><ele>448.5</ele><time>2026-04-23T11:19:48.999Z</time></trkpt><trkpt lat="32.00894379304708" lon="-8.00763849577309"><ele>449.0</ele><time>2026-04-23T11:19:49.999Z</time></trkpt><trkpt lat="32.00864358826668" lon="-8.00767790974852"><ele>449.0</ele><time>2026-04-23T11:19:50.999Z</time></trkpt><trkpt lat="32.00834544736484" lon="-8.0077162880358"><ele>449.0</ele><time>2026-04-23T11:19:51.999Z</time></trkpt><trkpt lat="32.008043161605016" lon="-8.007756386892392"><ele>448.5</ele><time>2026-04-23T11:19:52.999Z</time></trkpt><trkpt lat="32.00774165501145" lon="-8.007793544455101"><ele>448.0</ele><time>2026-04-23T11:19:53.999Z</time></trkpt><trkpt lat="32.007438752454874" lon="-8.007829331197277"><ele>447.5</ele><time>2026-04-23T11:19:54.999Z</time></trkpt><trkpt lat="32.00713570647826" lon="-8.007863488060458"><ele>447.0</ele><time>2026-04-23T11:19:55.999Z</time></trkpt><trkpt lat="32.0068430516724" lon="-8.007893928104226"><ele>447.0</ele><time>2026-04-23T11:19:56.999Z</time></trkpt><trkpt lat="32.00654285260541" lon="-8.007917793701253"><ele>447.0</ele><time>2026-04-23T11:19:57.999Z</time></trkpt><trkpt lat="32.00624507324421" lon="-8.007941649853887"><ele>447.0</ele><time>2026-04-23T11:19:58.999Z</time></trkpt><trkpt lat="32.005945059410685" lon="-8.007963250407451"><ele>447.0</ele><time>2026-04-23T11:19:59.999Z</time></trkpt><trkpt lat="32.00564556889193" lon="-8.007984563135208"><ele>446.0</ele><time>2026-04-23T11:20:00.999Z</time></trkpt><trkpt lat="32.00534430355396" lon="-8.008008789795909"><ele>445.0</ele><time>2026-04-23T11:20:01.999Z</time></trkpt><trkpt lat="32.005047084238406" lon="-8.00802406462708"><ele>444.5</ele><time>2026-04-23T11:20:02.999Z</time></trkpt><trkpt lat="32.004749989017746" lon="-8.008036348177672"><ele>444.0</ele><time>2026-04-23T11:20:03.999Z</time></trkpt><trkpt lat="32.004450697725524" lon="-8.008052828414716"><ele>444.0</ele><time>2026-04-23T11:20:04.999Z</time></trkpt><trkpt lat="32.004147702072736" lon="-8.008065420992846"><ele>444.0</ele><time>2026-04-23T11:20:05.999Z</time></trkpt><trkpt lat="32.00384818810317" lon="-8.008079020248944"><ele>444.0</ele><time>2026-04-23T11:20:06.999Z</time></trkpt><trkpt lat="32.00354640389321" lon="-8.008093032927205"><ele>444.0</ele><time>2026-04-23T11:20:07.999Z</time></trkpt><trkpt lat="32.003248042632585" lon="-8.008105094334827"><ele>446.0</ele><time>2026-04-23T11:20:08.999Z</time></trkpt><trkpt lat="32.00294821822286" lon="-8.008121273726623"><ele>448.0</ele><time>2026-04-23T11:20:09.999Z</time></trkpt><trkpt lat="32.0026484740186" lon="-8.008136243586971"><ele>447.5</ele><time>2026-04-23T11:20:10.999Z</time></trkpt><trkpt lat="32.002347118876465" lon="-8.008149983624245"><ele>447.0</ele><time>2026-04-23T11:20:11.999Z</time></trkpt><trkpt lat="32.00205110885089" lon="-8.008162987295243"><ele>447.0</ele><time>2026-04-23T11:20:12.999Z</time></trkpt><trkpt lat="32.00175157880725" lon="-8.008174962076854"><ele>447.0</ele><time>2026-04-23T11:20:13.999Z</time></trkpt><trkpt lat="32.0014525580533" lon="-8.008190186535886"><ele>447.0</ele><time>2026-04-23T11:20:14.999Z</time></trkpt><trkpt lat="32.00115616784186" lon="-8.008202758057676"><ele>447.0</ele><time>2026-04-23T11:20:15.999Z</time></trkpt><trkpt lat="32.00085944108957" lon="-8.008214579793206"><ele>446.5</ele><time>2026-04-23T11:20:16.999Z</time></trkpt><trkpt lat="32.00056106873369" lon="-8.008227465947778"><ele>446.0</ele><time>2026-04-23T11:20:17.999Z</time></trkpt><trkpt lat="32.00025767414488" lon="-8.008238467640554"><ele>446.0</ele><time>2026-04-23T11:20:18.999Z</time></trkpt><trkpt lat="31.999955679975304" lon="-8.008248419144746"><ele>446.0</ele><time>2026-04-23T11:20:19.999Z</time></trkpt><trkpt lat="31.999652240546887" lon="-8.008261035192055"><ele>446.0</ele><time>2026-04-23T11:20:20.999Z</time></trkpt><trkpt lat="31.99934973345031" lon="-8.008275732564684"><ele>446.0</ele><time>2026-04-23T11:20:21.999Z</time></trkpt><trkpt lat="31.999047439152736" lon="-8.008287189098828"><ele>447.0</ele><time>2026-04-23T11:20:22.998Z</time></trkpt><trkpt lat="31.998746869180742" lon="-8.008297100418863"><ele>448.0</ele><time>2026-04-23T11:20:23.998Z</time></trkpt><trkpt lat="31.998445532958375" lon="-8.008307438416892"><ele>448.0</ele><time>2026-04-23T11:20:24.998Z</time></trkpt><trkpt lat="31.998142473732365" lon="-8.008322377251242"><ele>448.0</ele><time>2026-04-23T11:20:25.998Z</time></trkpt><trkpt lat="31.99784055367575" lon="-8.008333055853944"><ele>448.0</ele><time>2026-04-23T11:20:26.998Z</time></trkpt><trkpt lat="31.997536065545273" lon="-8.008345228666592"><ele>448.0</ele><time>2026-04-23T11:20:27.998Z</time></trkpt><trkpt lat="31.997233599522225" lon="-8.008356233635702"><ele>448.0</ele><time>2026-04-23T11:20:28.998Z</time></trkpt><trkpt lat="31.996934590777617" lon="-8.008364961571989"><ele>448.0</ele><time>2026-04-23T11:20:29.998Z</time></trkpt><trkpt lat="31.996629167367246" lon="-8.008381177801983"><ele>448.0</ele><time>2026-04-23T11:20:30.998Z</time></trkpt><trkpt lat="31.996326338093084" lon="-8.008390966257425"><ele>448.0</ele><time>2026-04-23T11:20:31.998Z</time></trkpt><trkpt lat="31.99602314419955" lon="-8.008404380988662"><ele>447.5</ele><time>2026-04-23T11:20:32.998Z</time></trkpt><trkpt lat="31.99572507877883" lon="-8.008413385914373"><ele>447.0</ele><time>2026-04-23T11:20:33.998Z</time></trkpt><trkpt lat="31.99542903869755" lon="-8.008420920090133"><ele>447.0</ele><time>2026-04-23T11:20:34.998Z</time></trkpt><trkpt lat="31.995127671956677" lon="-8.008433108135405"><ele>447.0</ele><time>2026-04-23T11:20:35.998Z</time></trkpt><trkpt lat="31.99482889150878" lon="-8.00844524210183"><ele>446.5</ele><time>2026-04-23T11:20:36.998Z</time></trkpt><trkpt lat="31.99452991756091" lon="-8.008455958896054"><ele>446.0</ele><time>2026-04-23T11:20:37.998Z</time></trkpt><trkpt lat="31.994228762318166" lon="-8.00846767789734"><ele>447.5</ele><time>2026-04-23T11:20:38.998Z</time></trkpt><trkpt lat="31.993930823086828" lon="-8.008480464883466"><ele>449.0</ele><time>2026-04-23T11:20:39.998Z</time></trkpt><trkpt lat="31.99363422410963" lon="-8.008494717141737"><ele>449.5</ele><time>2026-04-23T11:20:40.998Z</time></trkpt><trkpt lat="31.99333348178855" lon="-8.008511889330258"><ele>450.0</ele><time>2026-04-23T11:20:41.998Z</time></trkpt><trkpt lat="31.993033153995153" lon="-8.008528941535314"><ele>450.0</ele><time>2026-04-23T11:20:42.998Z</time></trkpt><trkpt lat="31.99273473080801" lon="-8.008549654334939"><ele>450.0</ele><time>2026-04-23T11:20:43.998Z</time></trkpt><trkpt lat="31.992436886649205" lon="-8.008573449365263"><ele>450.5</ele><time>2026-04-23T11:20:44.998Z</time></trkpt><trkpt lat="31.992137575107158" lon="-8.008596673063956"><ele>451.0</ele><time>2026-04-23T11:20:45.998Z</time></trkpt><trkpt lat="31.991839790154284" lon="-8.008626108026931"><ele>450.5</ele><time>2026-04-23T11:20:46.998Z</time></trkpt><trkpt lat="31.991542247450322" lon="-8.008656995292716"><ele>450.0</ele><time>2026-04-23T11:20:48Z</time></trkpt><trkpt lat="31.99124343514039" lon="-8.008691752206058"><ele>450.0</ele><time>2026-04-23T11:20:49Z</time></trkpt><trkpt lat="31.990943695589895" lon="-8.008729688045872"><ele>450.0</ele><time>2026-04-23T11:20:50Z</time></trkpt><trkpt lat="31.9906472936107" lon="-8.00876935139327"><ele>449.5</ele><time>2026-04-23T11:20:51Z</time></trkpt><trkpt lat="31.990348724034302" lon="-8.008807266191992"><ele>449.0</ele><time>2026-04-23T11:20:52Z</time></trkpt><trkpt lat="31.99004816742319" lon="-8.008851416856052"><ele>450.0</ele><time>2026-04-23T11:20:53Z</time></trkpt><trkpt lat="31.989750053895513" lon="-8.008893327915835"><ele>451.0</ele><time>2026-04-23T11:20:54Z</time></trkpt><trkpt lat="31.989456054850415" lon="-8.008938249435934"><ele>452.0</ele><time>2026-04-23T11:20:55Z</time></trkpt><trkpt lat="31.98915509959547" lon="-8.008991788592049"><ele>453.0</ele><time>2026-04-23T11:20:56Z</time></trkpt><trkpt lat="31.988854595545057" lon="-8.009045622473483"><ele>453.0</ele><time>2026-04-23T11:20:57Z</time></trkpt><trkpt lat="31.988552984965963" lon="-8.009101790512592"><ele>453.0</ele><time>2026-04-23T11:20:58Z</time></trkpt><trkpt lat="31.988257167714597" lon="-8.009163682626582"><ele>452.5</ele><time>2026-04-23T11:20:59Z</time></trkpt><trkpt lat="31.987961786144513" lon="-8.00922742204075"><ele>452.0</ele><time>2026-04-23T11:21:00Z</time></trkpt><trkpt lat="31.98766424373547" lon="-8.009292570135903"><ele>453.0</ele><time>2026-04-23T11:21:01Z</time></trkpt><trkpt lat="31.987367909571343" lon="-8.009359491351628"><ele>454.0</ele><time>2026-04-23T11:21:02Z</time></trkpt><trkpt lat="31.987071500754904" lon="-8.009428302954502"><ele>454.0</ele><time>2026-04-23T11:21:03Z</time></trkpt><trkpt lat="31.986775950886344" lon="-8.009493237042328"><ele>454.0</ele><time>2026-04-23T11:21:04Z</time></trkpt><trkpt lat="31.986482232968648" lon="-8.009560761461259"><ele>454.0</ele><time>2026-04-23T11:21:05Z</time></trkpt><trkpt lat="31.986189566282345" lon="-8.009629659449418"><ele>454.0</ele><time>2026-04-23T11:21:06Z</time></trkpt><trkpt lat="31.985893282941976" lon="-8.009699020863366"><ele>453.5</ele><time>2026-04-23T11:21:07Z</time></trkpt><trkpt lat="31.985598029050426" lon="-8.009775838805986"><ele>453.0</ele><time>2026-04-23T11:21:08Z</time></trkpt><trkpt lat="31.985303673208556" lon="-8.009853567013995"><ele>453.0</ele><time>2026-04-23T11:21:08.999Z</time></trkpt><trkpt lat="31.985007689074383" lon="-8.00993169123424"><ele>453.0</ele><time>2026-04-23T11:21:09.999Z</time></trkpt><trkpt lat="31.984718378879183" lon="-8.010020672969292"><ele>453.0</ele><time>2026-04-23T11:21:10.999Z</time></trkpt><trkpt lat="31.984427951624152" lon="-8.010107795358682"><ele>453.0</ele><time>2026-04-23T11:21:11.999Z</time></trkpt><trkpt lat="31.984136911207397" lon="-8.010197643961646"><ele>453.0</ele><time>2026-04-23T11:21:12.999Z</time></trkpt><trkpt lat="31.983845017159872" lon="-8.010288539889443"><ele>453.0</ele><time>2026-04-23T11:21:13.999Z</time></trkpt><trkpt lat="31.9835518187387" lon="-8.010380252825088"><ele>453.5</ele><time>2026-04-23T11:21:14.999Z</time></trkpt><trkpt lat="31.983267471010635" lon="-8.010477956625714"><ele>454.0</ele><time>2026-04-23T11:21:15.999Z</time></trkpt><trkpt lat="31.982980067785217" lon="-8.010578196637159"><ele>454.0</ele><time>2026-04-23T11:21:16.999Z</time></trkpt><trkpt lat="31.98268907247064" lon="-8.010677247851806"><ele>454.0</ele><time>2026-04-23T11:21:17.999Z</time></trkpt><trkpt lat="31.982399282043072" lon="-8.01077798695276"><ele>453.5</ele><time>2026-04-23T11:21:18.999Z</time></trkpt><trkpt lat="31.98211215004159" lon="-8.010885577630553"><ele>453.0</ele><time>2026-04-23T11:21:19.999Z</time></trkpt><trkpt lat="31.98182549998229" lon="-8.010989801006058"><ele>454.0</ele><time>2026-04-23T11:21:20.999Z</time></trkpt><trkpt lat="31.981535796792375" lon="-8.011100019829074"><ele>455.0</ele><time>2026-04-23T11:21:21.999Z</time></trkpt><trkpt lat="31.981251363729484" lon="-8.01120531669289"><ele>455.0</ele><time>2026-04-23T11:21:22.999Z</time></trkpt><trkpt lat="31.9809663759655" lon="-8.011315306647381"><ele>455.0</ele><time>2026-04-23T11:21:23.999Z</time></trkpt><trkpt lat="31.980678851977462" lon="-8.011431141147408"><ele>455.5</ele><time>2026-04-23T11:21:24.999Z</time></trkpt><trkpt lat="31.980393267452172" lon="-8.011545149145016"><ele>456.0</ele><time>2026-04-23T11:21:25.999Z</time></trkpt><trkpt lat="31.98011058910797" lon="-8.011655775173281"><ele>456.0</ele><time>2026-04-23T11:21:26.999Z</time></trkpt><trkpt lat="31.979825826119882" lon="-8.01176751131915"><ele>456.0</ele><time>2026-04-23T11:21:27.999Z</time></trkpt><trkpt lat="31.97953917180843" lon="-8.011882092127289"><ele>456.0</ele><time>2026-04-23T11:21:28.999Z</time></trkpt><trkpt lat="31.97925590088688" lon="-8.0119928638926"><ele>456.0</ele><time>2026-04-23T11:21:29.999Z</time></trkpt><trkpt lat="31.978969019533437" lon="-8.012104483518456"><ele>456.0</ele><time>2026-04-23T11:21:30.999Z</time></trkpt><trkpt lat="31.978682848171122" lon="-8.012214961662014"><ele>456.0</ele><time>2026-04-23T11:21:31.999Z</time></trkpt><trkpt lat="31.978394239597723" lon="-8.012327697981567"><ele>456.0</ele><time>2026-04-23T11:21:32.999Z</time></trkpt><trkpt lat="31.97811209483493" lon="-8.012438957988188"><ele>456.0</ele><time>2026-04-23T11:21:33.999Z</time></trkpt><trkpt lat="31.977826686775142" lon="-8.012544926270666"><ele>456.0</ele><time>2026-04-23T11:21:34.999Z</time></trkpt><trkpt lat="31.977546045968573" lon="-8.012643673029878"><ele>456.0</ele><time>2026-04-23T11:21:35.999Z</time></trkpt><trkpt lat="31.9772604139766" lon="-8.01275340311594"><ele>456.0</ele><time>2026-04-23T11:21:36.999Z</time></trkpt><trkpt lat="31.976975081030595" lon="-8.01286000343374"><ele>456.0</ele><time>2026-04-23T11:21:37.999Z</time></trkpt><trkpt lat="31.976690903614138" lon="-8.012973005582602"><ele>456.0</ele><time>2026-04-23T11:21:38.999Z</time></trkpt><trkpt lat="31.976404295868306" lon="-8.013085236829232"><ele>456.0</ele><time>2026-04-23T11:21:39.999Z</time></trkpt><trkpt lat="31.97612058640003" lon="-8.013195329020881"><ele>456.0</ele><time>2026-04-23T11:21:40.999Z</time></trkpt><trkpt lat="31.97583307706842" lon="-8.013304030068282"><ele>456.0</ele><time>2026-04-23T11:21:41.999Z</time></trkpt><trkpt lat="31.97554664363514" lon="-8.013413964246928"><ele>456.0</ele><time>2026-04-23T11:21:42.999Z</time></trkpt><trkpt lat="31.975261147593695" lon="-8.013526574461064"><ele>456.0</ele><time>2026-04-23T11:21:43.999Z</time></trkpt><trkpt lat="31.974981825079944" lon="-8.01363810620837"><ele>456.5</ele><time>2026-04-23T11:21:44.999Z</time></trkpt><trkpt lat="31.974696294060045" lon="-8.013748430103085"><ele>457.0</ele><time>2026-04-23T11:21:45.999Z</time></trkpt><trkpt lat="31.974409566269642" lon="-8.013857908544042"><ele>457.0</ele><time>2026-04-23T11:21:46.999Z</time></trkpt><trkpt lat="31.97411828305736" lon="-8.013962117097645"><ele>457.0</ele><time>2026-04-23T11:21:47.999Z</time></trkpt><trkpt lat="31.973833330032264" lon="-8.014063943596032"><ele>458.0</ele><time>2026-04-23T11:21:48.999Z</time></trkpt><trkpt lat="31.973543788943235" lon="-8.014161457940665"><ele>459.0</ele><time>2026-04-23T11:21:49.999Z</time></trkpt><trkpt lat="31.973256085933507" lon="-8.014259067208835"><ele>459.0</ele><time>2026-04-23T11:21:50.999Z</time></trkpt><trkpt lat="31.972966201450387" lon="-8.014359033102194"><ele>459.0</ele><time>2026-04-23T11:21:51.999Z</time></trkpt><trkpt lat="31.972679127892366" lon="-8.014453763120532"><ele>459.5</ele><time>2026-04-23T11:21:52.999Z</time></trkpt><trkpt lat="31.97238674335639" lon="-8.014546348544522"><ele>460.0</ele><time>2026-04-23T11:21:53.999Z</time></trkpt><trkpt lat="31.97209513691537" lon="-8.014634272809138"><ele>460.0</ele><time>2026-04-23T11:21:54.999Z</time></trkpt><trkpt lat="31.971803352703958" lon="-8.014721184322218"><ele>460.0</ele><time>2026-04-23T11:21:55.999Z</time></trkpt><trkpt lat="31.971509900608048" lon="-8.014807669339318"><ele>460.5</ele><time>2026-04-23T11:21:56.999Z</time></trkpt><trkpt lat="31.971215906702913" lon="-8.014895047306915"><ele>461.0</ele><time>2026-04-23T11:21:57.999Z</time></trkpt><trkpt lat="31.970921522598672" lon="-8.014975878118607"><ele>460.5</ele><time>2026-04-23T11:21:58.999Z</time></trkpt><trkpt lat="31.970628795327865" lon="-8.015058011574583"><ele>460.0</ele><time>2026-04-23T11:21:59.999Z</time></trkpt><trkpt lat="31.97033482659644" lon="-8.01513773640408"><ele>460.0</ele><time>2026-04-23T11:22:00.999Z</time></trkpt><trkpt lat="31.970039941823824" lon="-8.015216826479763"><ele>460.0</ele><time>2026-04-23T11:22:01.999Z</time></trkpt><trkpt lat="31.96974710782101" lon="-8.015289399308417"><ele>459.5</ele><time>2026-04-23T11:22:02.999Z</time></trkpt><trkpt lat="31.969454009464318" lon="-8.015363590453294"><ele>459.0</ele><time>2026-04-23T11:22:03.999Z</time></trkpt><trkpt lat="31.969157899842177" lon="-8.015432630819912"><ele>459.0</ele><time>2026-04-23T11:22:04.999Z</time></trkpt><trkpt lat="31.968864204054267" lon="-8.015501116037099"><ele>459.0</ele><time>2026-04-23T11:22:05.999Z</time></trkpt><trkpt lat="31.968569301026022" lon="-8.01556579222559"><ele>460.0</ele><time>2026-04-23T11:22:06.999Z</time></trkpt><trkpt lat="31.96826865584286" lon="-8.015623490143545"><ele>461.0</ele><time>2026-04-23T11:22:07.999Z</time></trkpt><trkpt lat="31.96797416726383" lon="-8.015681649570851"><ele>461.0</ele><time>2026-04-23T11:22:08.999Z</time></trkpt><trkpt lat="31.96767878157509" lon="-8.015737182061509"><ele>461.0</ele><time>2026-04-23T11:22:09.999Z</time></trkpt><trkpt lat="31.967379999344647" lon="-8.015786184954885"><ele>461.0</ele><time>2026-04-23T11:22:10.999Z</time></trkpt><trkpt lat="31.967083989368387" lon="-8.015837892818226"><ele>461.0</ele><time>2026-04-23T11:22:11.999Z</time></trkpt><trkpt lat="31.966783964582923" lon="-8.015884820413174"><ele>461.5</ele><time>2026-04-23T11:22:12.999Z</time></trkpt><trkpt lat="31.966486604425622" lon="-8.01593329453183"><ele>462.0</ele><time>2026-04-23T11:22:13.999Z</time></trkpt><trkpt lat="31.966188223058833" lon="-8.01597963678774"><ele>462.0</ele><time>2026-04-23T11:22:14.999Z</time></trkpt><trkpt lat="31.96588905738636" lon="-8.01602334621121"><ele>462.0</ele><time>2026-04-23T11:22:15.999Z</time></trkpt><trkpt lat="31.96558905512927" lon="-8.016062645229308"><ele>461.5</ele><time>2026-04-23T11:22:16.999Z</time></trkpt><trkpt lat="31.965289514338686" lon="-8.016099482620799"><ele>461.0</ele><time>2026-04-23T11:22:17.999Z</time></trkpt><trkpt lat="31.96498857995883" lon="-8.016135237517476"><ele>461.0</ele><time>2026-04-23T11:22:18.999Z</time></trkpt><trkpt lat="31.9646869381567" lon="-8.016164532370823"><ele>461.0</ele><time>2026-04-23T11:22:19.999Z</time></trkpt><trkpt lat="31.964390913646664" lon="-8.016191699747559"><ele>461.5</ele><time>2026-04-23T11:22:20.999Z</time></trkpt><trkpt lat="31.964092957743556" lon="-8.016217034498858"><ele>462.0</ele><time>2026-04-23T11:22:21.999Z</time></trkpt><trkpt lat="31.963794813459582" lon="-8.016240275469416"><ele>462.0</ele><time>2026-04-23T11:22:22.999Z</time></trkpt><trkpt lat="31.963493688742027" lon="-8.016258823805023"><ele>462.0</ele><time>2026-04-23T11:22:23.999Z</time></trkpt><trkpt lat="31.96319360549151" lon="-8.016276813546291"><ele>462.5</ele><time>2026-04-23T11:22:24.999Z</time></trkpt><trkpt lat="31.9628952141437" lon="-8.016295844752154"><ele>463.0</ele><time>2026-04-23T11:22:25.999Z</time></trkpt><trkpt lat="31.962593184494494" lon="-8.016311868646548"><ele>463.0</ele><time>2026-04-23T11:22:26.998Z</time></trkpt><trkpt lat="31.962291022194222" lon="-8.01632591502556"><ele>463.0</ele><time>2026-04-23T11:22:27.998Z</time></trkpt><trkpt lat="31.96199426814523" lon="-8.016335168957529"><ele>463.5</ele><time>2026-04-23T11:22:28.998Z</time></trkpt><trkpt lat="31.961690473449696" lon="-8.01634196263596"><ele>464.0</ele><time>2026-04-23T11:22:29.998Z</time></trkpt><trkpt lat="31.961389794982143" lon="-8.01634510455956"><ele>464.0</ele><time>2026-04-23T11:22:30.998Z</time></trkpt><trkpt lat="31.961088821219224" lon="-8.016347498055525"><ele>464.0</ele><time>2026-04-23T11:22:31.998Z</time></trkpt><trkpt lat="31.96078674188098" lon="-8.01635029067007"><ele>463.5</ele><time>2026-04-23T11:22:32.998Z</time></trkpt><trkpt lat="31.960483528970542" lon="-8.016346436674889"><ele>463.0</ele><time>2026-04-23T11:22:33.998Z</time></trkpt><trkpt lat="31.960182700437127" lon="-8.016341127892673"><ele>463.5</ele><time>2026-04-23T11:22:34.998Z</time></trkpt><trkpt lat="31.959883225353483" lon="-8.016336686286188"><ele>464.0</ele><time>2026-04-23T11:22:35.998Z</time></trkpt><trkpt lat="31.959582917250703" lon="-8.016326676549438"><ele>464.0</ele><time>2026-04-23T11:22:36.998Z</time></trkpt><trkpt lat="31.959281367874635" lon="-8.016319900132206"><ele>464.0</ele><time>2026-04-23T11:22:37.998Z</time></trkpt><trkpt lat="31.958981761494957" lon="-8.016316827615944"><ele>464.0</ele><time>2026-04-23T11:22:38.998Z</time></trkpt><trkpt lat="31.958678362031097" lon="-8.016313350071226"><ele>464.0</ele><time>2026-04-23T11:22:39.998Z</time></trkpt><trkpt lat="31.958376899359788" lon="-8.016309365366666"><ele>464.0</ele><time>2026-04-23T11:22:40.998Z</time></trkpt><trkpt lat="31.958076505137498" lon="-8.016303918857501"><ele>464.0</ele><time>2026-04-23T11:22:41.998Z</time></trkpt><trkpt lat="31.957775404842636" lon="-8.016299654352778"><ele>465.0</ele><time>2026-04-23T11:22:42.998Z</time></trkpt><trkpt lat="31.957475319963123" lon="-8.016295277087867"><ele>466.0</ele><time>2026-04-23T11:22:43.998Z</time></trkpt><trkpt lat="31.95717438749322" lon="-8.016294815484464"><ele>466.0</ele><time>2026-04-23T11:22:44.998Z</time></trkpt><trkpt lat="31.956874067409295" lon="-8.01629327150711"><ele>466.0</ele><time>2026-04-23T11:22:45.998Z</time></trkpt><trkpt lat="31.956574753799938" lon="-8.016287363986963"><ele>466.0</ele><time>2026-04-23T11:22:46.998Z</time></trkpt><trkpt lat="31.956278422120874" lon="-8.016287408192838"><ele>466.0</ele><time>2026-04-23T11:22:47.998Z</time></trkpt><trkpt lat="31.955980273652116" lon="-8.016290250106017"><ele>466.0</ele><time>2026-04-23T11:22:48.998Z</time></trkpt><trkpt lat="31.955679572117788" lon="-8.016294211364379"><ele>466.0</ele><time>2026-04-23T11:22:49.998Z</time></trkpt><trkpt lat="31.955378061247973" lon="-8.016296633853935"><ele>466.0</ele><time>2026-04-23T11:22:50.998Z</time></trkpt><trkpt lat="31.955076325430486" lon="-8.016301893721538"><ele>466.0</ele><time>2026-04-23T11:22:51.998Z</time></trkpt><trkpt lat="31.954774872490344" lon="-8.016306849771272"><ele>466.5</ele><time>2026-04-23T11:22:53Z</time></trkpt><trkpt lat="31.954469397905804" lon="-8.016308383069672"><ele>467.0</ele><time>2026-04-23T11:22:54Z</time></trkpt><trkpt lat="31.954168842586792" lon="-8.016310185129223"><ele>467.0</ele><time>2026-04-23T11:22:55Z</time></trkpt><trkpt lat="31.953868669403732" lon="-8.016310304614827"><ele>467.0</ele><time>2026-04-23T11:22:56Z</time></trkpt><trkpt lat="31.95356425221187" lon="-8.016312006445725"><ele>467.0</ele><time>2026-04-23T11:22:57Z</time></trkpt><trkpt lat="31.953263763594222" lon="-8.016313352019061"><ele>467.0</ele><time>2026-04-23T11:22:58Z</time></trkpt><trkpt lat="31.952961153215195" lon="-8.016313150564951"><ele>467.0</ele><time>2026-04-23T11:22:59Z</time></trkpt><trkpt lat="31.9526615075296" lon="-8.016318721935122"><ele>467.0</ele><time>2026-04-23T11:23:00Z</time></trkpt><trkpt lat="31.952358747227464" lon="-8.016318207967391"><ele>468.0</ele><time>2026-04-23T11:23:01Z</time></trkpt><trkpt lat="31.95205531723234" lon="-8.016316592039747"><ele>469.0</ele><time>2026-04-23T11:23:02Z</time></trkpt><trkpt lat="31.951757496057862" lon="-8.016317679011724"><ele>469.0</ele><time>2026-04-23T11:23:03Z</time></trkpt><trkpt lat="31.951455952781256" lon="-8.016315338502368"><ele>469.0</ele><time>2026-04-23T11:23:04Z</time></trkpt><trkpt lat="31.951156914188953" lon="-8.016312797165853"><ele>470.5</ele><time>2026-04-23T11:23:05Z</time></trkpt><trkpt lat="31.950858044080434" lon="-8.016310128401269"><ele>472.0</ele><time>2026-04-23T11:23:06Z</time></trkpt><trkpt lat="31.95056076971253" lon="-8.016306869105893"><ele>472.0</ele><time>2026-04-23T11:23:07Z</time></trkpt><trkpt lat="31.95026199410381" lon="-8.016304185492672"><ele>472.0</ele><time>2026-04-23T11:23:08Z</time></trkpt><trkpt lat="31.949962468004166" lon="-8.016297223101503"><ele>471.5</ele><time>2026-04-23T11:23:09Z</time></trkpt><trkpt lat="31.949660610934508" lon="-8.016295758568697"><ele>471.0</ele><time>2026-04-23T11:23:09.999Z</time></trkpt><trkpt lat="31.94935942662267" lon="-8.016294879052461"><ele>471.0</ele><time>2026-04-23T11:23:10.999Z</time></trkpt><trkpt lat="31.949064418456526" lon="-8.016289225841394"><ele>471.0</ele><time>2026-04-23T11:23:11.999Z</time></trkpt><trkpt lat="31.948763556794688" lon="-8.016286655052397"><ele>471.0</ele><time>2026-04-23T11:23:12.999Z</time></trkpt><trkpt lat="31.94846470442681" lon="-8.016281398588786"><ele>471.0</ele><time>2026-04-23T11:23:13.999Z</time></trkpt><trkpt lat="31.94816395132454" lon="-8.016279407341967"><ele>471.0</ele><time>2026-04-23T11:23:14.999Z</time></trkpt><trkpt lat="31.947862273522315" lon="-8.016275343478084"><ele>471.0</ele><time>2026-04-23T11:23:15.999Z</time></trkpt><trkpt lat="31.947565181995877" lon="-8.016273521205175"><ele>471.5</ele><time>2026-04-23T11:23:16.999Z</time></trkpt><trkpt lat="31.947263784608296" lon="-8.01627855524839"><ele>472.0</ele><time>2026-04-23T11:23:17.999Z</time></trkpt><trkpt lat="31.946960630235335" lon="-8.01627786768877"><ele>472.5</ele><time>2026-04-23T11:23:18.999Z</time></trkpt><trkpt lat="31.94666281926565" lon="-8.016279558010224"><ele>473.0</ele><time>2026-04-23T11:23:19.999Z</time></trkpt><trkpt lat="31.946363153099494" lon="-8.016279157763112"><ele>473.0</ele><time>2026-04-23T11:23:20.999Z</time></trkpt><trkpt lat="31.94606002805586" lon="-8.01628088794131"><ele>473.0</ele><time>2026-04-23T11:23:21.999Z</time></trkpt><trkpt lat="31.945761728670558" lon="-8.01628758804901"><ele>473.5</ele><time>2026-04-23T11:23:22.999Z</time></trkpt><trkpt lat="31.945460787595536" lon="-8.016288531511155"><ele>474.0</ele><time>2026-04-23T11:23:23.999Z</time></trkpt><trkpt lat="31.945160537334857" lon="-8.016287391666173"><ele>474.0</ele><time>2026-04-23T11:23:24.999Z</time></trkpt><trkpt lat="31.944857460293004" lon="-8.016292892349808"><ele>474.0</ele><time>2026-04-23T11:23:25.999Z</time></trkpt><trkpt lat="31.944557849956027" lon="-8.016301879594074"><ele>474.0</ele><time>2026-04-23T11:23:26.999Z</time></trkpt><trkpt lat="31.94425621779585" lon="-8.016312020180065"><ele>474.0</ele><time>2026-04-23T11:23:27.999Z</time></trkpt><trkpt lat="31.94395462036445" lon="-8.016324331552132"><ele>474.0</ele><time>2026-04-23T11:23:28.999Z</time></trkpt><trkpt lat="31.943653653673117" lon="-8.016337326022866"><ele>474.0</ele><time>2026-04-23T11:23:29.999Z</time></trkpt><trkpt lat="31.943349272405158" lon="-8.01635627493113"><ele>475.0</ele><time>2026-04-23T11:23:30.999Z</time></trkpt><trkpt lat="31.943050565358355" lon="-8.016373140163656"><ele>476.0</ele><time>2026-04-23T11:23:31.999Z</time></trkpt><trkpt lat="31.94274843524855" lon="-8.016395003339488"><ele>476.0</ele><time>2026-04-23T11:23:32.999Z</time></trkpt><trkpt lat="31.94244868051098" lon="-8.016416951138584"><ele>476.0</ele><time>2026-04-23T11:23:33.999Z</time></trkpt><trkpt lat="31.94214417821979" lon="-8.016442626853943"><ele>476.0</ele><time>2026-04-23T11:23:34.999Z</time></trkpt><trkpt lat="31.941848665088482" lon="-8.01646422448996"><ele>476.0</ele><time>2026-04-23T11:23:35.999Z</time></trkpt><trkpt lat="31.9415472446295" lon="-8.016495058700905"><ele>476.0</ele><time>2026-04-23T11:23:36.999Z</time></trkpt><trkpt lat="31.941246146656077" lon="-8.016522887283116"><ele>476.0</ele><time>2026-04-23T11:23:37.999Z</time></trkpt><trkpt lat="31.94094935728786" lon="-8.016557907958399"><ele>476.5</ele><time>2026-04-23T11:23:38.999Z</time></trkpt><trkpt lat="31.94065145422074" lon="-8.016592178430662"><ele>477.0</ele><time>2026-04-23T11:23:39.999Z</time></trkpt><trkpt lat="31.940353166204176" lon="-8.016628668005728"><ele>476.5</ele><time>2026-04-23T11:23:40.999Z</time></trkpt><trkpt lat="31.940055287707928" lon="-8.01667173443542"><ele>476.0</ele><time>2026-04-23T11:23:41.999Z</time></trkpt><trkpt lat="31.93975665327835" lon="-8.016716387244598"><ele>476.0</ele><time>2026-04-23T11:23:42.999Z</time></trkpt><trkpt lat="31.939459684492128" lon="-8.016762862055044"><ele>476.0</ele><time>2026-04-23T11:23:43.999Z</time></trkpt><trkpt lat="31.939160078660077" lon="-8.016806967643115"><ele>476.0</ele><time>2026-04-23T11:23:44.999Z</time></trkpt><trkpt lat="31.938861600267536" lon="-8.016854298353547"><ele>476.0</ele><time>2026-04-23T11:23:45.999Z</time></trkpt><trkpt lat="31.938566659071135" lon="-8.016904190359933"><ele>476.5</ele><time>2026-04-23T11:23:46.999Z</time></trkpt><trkpt lat="31.93827036486082" lon="-8.016953778580685"><ele>477.0</ele><time>2026-04-23T11:23:47.999Z</time></trkpt><trkpt lat="31.937975961141866" lon="-8.017005615859452"><ele>477.0</ele><time>2026-04-23T11:23:48.999Z</time></trkpt><trkpt lat="31.937679544890585" lon="-8.017057530719574"><ele>477.0</ele><time>2026-04-23T11:23:49.999Z</time></trkpt><trkpt lat="31.93738339868411" lon="-8.017113735508106"><ele>477.5</ele><time>2026-04-23T11:23:50.999Z</time></trkpt><trkpt lat="31.93708600115933" lon="-8.017172067878995"><ele>478.0</ele><time>2026-04-23T11:23:51.999Z</time></trkpt><trkpt lat="31.936790739170647" lon="-8.017232901030996"><ele>478.5</ele><time>2026-04-23T11:23:52.999Z</time></trkpt><trkpt lat="31.936496036507595" lon="-8.017300922409657"><ele>479.0</ele><time>2026-04-23T11:23:53.999Z</time></trkpt><trkpt lat="31.936200849386665" lon="-8.01737329003492"><ele>479.0</ele><time>2026-04-23T11:23:54.999Z</time></trkpt><trkpt lat="31.93590547535949" lon="-8.017446203225996"><ele>479.0</ele><time>2026-04-23T11:23:55.999Z</time></trkpt><trkpt lat="31.935612190366054" lon="-8.017521576056263"><ele>478.5</ele><time>2026-04-23T11:23:56.999Z</time></trkpt><trkpt lat="31.935320672234354" lon="-8.017600025437881"><ele>478.0</ele><time>2026-04-23T11:23:57.999Z</time></trkpt><trkpt lat="31.93502831538938" lon="-8.01768155040017"><ele>479.0</ele><time>2026-04-23T11:23:58.999Z</time></trkpt><trkpt lat="31.934736560191855" lon="-8.017765977176552"><ele>480.0</ele><time>2026-04-23T11:23:59.999Z</time></trkpt><trkpt lat="31.93444660868907" lon="-8.01785285621091"><ele>480.0</ele><time>2026-04-23T11:24:00.999Z</time></trkpt><trkpt lat="31.934156988093775" lon="-8.017940482901624"><ele>480.0</ele><time>2026-04-23T11:24:01.999Z</time></trkpt><trkpt lat="31.933864195756477" lon="-8.018031568271462"><ele>480.0</ele><time>2026-04-23T11:24:02.999Z</time></trkpt><trkpt lat="31.933580302057422" lon="-8.01812709640613"><ele>480.0</ele><time>2026-04-23T11:24:03.999Z</time></trkpt><trkpt lat="31.933294283164674" lon="-8.018224563750683"><ele>480.5</ele><time>2026-04-23T11:24:04.999Z</time></trkpt><trkpt lat="31.933006284303026" lon="-8.018323934286288"><ele>481.0</ele><time>2026-04-23T11:24:05.999Z</time></trkpt><trkpt lat="31.93271909161011" lon="-8.018424306846553"><ele>482.0</ele><time>2026-04-23T11:24:06.999Z</time></trkpt><trkpt lat="31.932429264297852" lon="-8.018525897040853"><ele>483.0</ele><time>2026-04-23T11:24:07.999Z</time></trkpt><trkpt lat="31.932143074147337" lon="-8.018634044307781"><ele>483.0</ele><time>2026-04-23T11:24:08.999Z</time></trkpt><trkpt lat="31.93185422801427" lon="-8.018742595888165"><ele>483.0</ele><time>2026-04-23T11:24:09.999Z</time></trkpt><trkpt lat="31.931570877041565" lon="-8.018845551068356"><ele>482.5</ele><time>2026-04-23T11:24:10.999Z</time></trkpt><trkpt lat="31.93128120844535" lon="-8.018958067761927"><ele>482.0</ele><time>2026-04-23T11:24:11.999Z</time></trkpt><trkpt lat="31.930997998639157" lon="-8.01907139278437"><ele>483.0</ele><time>2026-04-23T11:24:12.999Z</time></trkpt><trkpt lat="31.930715225222663" lon="-8.019186639445374"><ele>484.0</ele><time>2026-04-23T11:24:13.999Z</time></trkpt><trkpt lat="31.930433902243855" lon="-8.019303897962951"><ele>484.0</ele><time>2026-04-23T11:24:14.999Z</time></trkpt><trkpt lat="31.93015298158338" lon="-8.019425175161489"><ele>484.0</ele><time>2026-04-23T11:24:15.999Z</time></trkpt><trkpt lat="31.92986876356516" lon="-8.019549249420695"><ele>484.0</ele><time>2026-04-23T11:24:16.999Z</time></trkpt><trkpt lat="31.929586315772564" lon="-8.019673578625827"><ele>484.0</ele><time>2026-04-23T11:24:17.999Z</time></trkpt><trkpt lat="31.929297522076755" lon="-8.019800687833037"><ele>483.5</ele><time>2026-04-23T11:24:18.999Z</time></trkpt><trkpt lat="31.92901431990545" lon="-8.019927974652994"><ele>483.0</ele><time>2026-04-23T11:24:19.999Z</time></trkpt><trkpt lat="31.928731333329484" lon="-8.020058601285944"><ele>484.5</ele><time>2026-04-23T11:24:20.999Z</time></trkpt><trkpt lat="31.928448005234525" lon="-8.020190889336845"><ele>486.0</ele><time>2026-04-23T11:24:21.999Z</time></trkpt><trkpt lat="31.92816595816091" lon="-8.020325270319868"><ele>486.5</ele><time>2026-04-23T11:24:22.999Z</time></trkpt><trkpt lat="31.9278910562407" lon="-8.020460621215014"><ele>487.0</ele><time>2026-04-23T11:24:23.999Z</time></trkpt><trkpt lat="31.927611952458275" lon="-8.020597624884198"><ele>487.0</ele><time>2026-04-23T11:24:24.999Z</time></trkpt><trkpt lat="31.927332592553867" lon="-8.020729795286822"><ele>487.0</ele><time>2026-04-23T11:24:25.999Z</time></trkpt><trkpt lat="31.927056062101563" lon="-8.02086935767445"><ele>487.0</ele><time>2026-04-23T11:24:26.999Z</time></trkpt><trkpt lat="31.926779898715207" lon="-8.021006838007462"><ele>487.0</ele><time>2026-04-23T11:24:27.998Z</time></trkpt><trkpt lat="31.926502769645587" lon="-8.021145139155324"><ele>487.5</ele><time>2026-04-23T11:24:28.998Z</time></trkpt><trkpt lat="31.926228113195517" lon="-8.021288075365495"><ele>488.0</ele><time>2026-04-23T11:24:29.998Z</time></trkpt><trkpt lat="31.925947040459366" lon="-8.02143294806192"><ele>488.0</ele><time>2026-04-23T11:24:30.998Z</time></trkpt><trkpt lat="31.925673716315814" lon="-8.021579005085428"><ele>488.0</ele><time>2026-04-23T11:24:31.998Z</time></trkpt><trkpt lat="31.925399238752288" lon="-8.02172069451124"><ele>488.5</ele><time>2026-04-23T11:24:32.998Z</time></trkpt><trkpt lat="31.92512485388529" lon="-8.021861114456557"><ele>489.0</ele><time>2026-04-23T11:24:33.998Z</time></trkpt><trkpt lat="31.924856098999758" lon="-8.022001475059373"><ele>489.0</ele><time>2026-04-23T11:24:34.998Z</time></trkpt><trkpt lat="31.924587819743415" lon="-8.022139428215997"><ele>489.0</ele><time>2026-04-23T11:24:35.998Z</time></trkpt><trkpt lat="31.924322988913175" lon="-8.022277893597398"><ele>489.0</ele><time>2026-04-23T11:24:36.998Z</time></trkpt><trkpt lat="31.924063329414412" lon="-8.022414693022437"><ele>489.0</ele><time>2026-04-23T11:24:37.998Z</time></trkpt><trkpt lat="31.923807571377477" lon="-8.022543943525228"><ele>489.5</ele><time>2026-04-23T11:24:38.998Z</time></trkpt><trkpt lat="31.923558969201377" lon="-8.022673554980027"><ele>490.0</ele><time>2026-04-23T11:24:39.998Z</time></trkpt><trkpt lat="31.923319865357666" lon="-8.022795904102047"><ele>490.5</ele><time>2026-04-23T11:24:40.998Z</time></trkpt><trkpt lat="31.923094134599218" lon="-8.022915725348666"><ele>491.0</ele><time>2026-04-23T11:24:41.998Z</time></trkpt><trkpt lat="31.92288071812765" lon="-8.023027777025918"><ele>491.0</ele><time>2026-04-23T11:24:42.998Z</time></trkpt><trkpt lat="31.922670837192634" lon="-8.023136143710966"><ele>491.0</ele><time>2026-04-23T11:24:43.998Z</time></trkpt><trkpt lat="31.922468539594092" lon="-8.023240063949823"><ele>491.3333333333333</ele><time>2026-04-23T11:24:44.998Z</time></trkpt><trkpt lat="31.9222781495098" lon="-8.023340074033579"><ele>491.66666666666663</ele><time>2026-04-23T11:24:45.998Z</time></trkpt><trkpt lat="31.922096355168275" lon="-8.023432707005508"><ele>492.0</ele><time>2026-04-23T11:24:46.998Z</time></trkpt><trkpt lat="31.921924360821635" lon="-8.023522240335522"><ele>492.0</ele><time>2026-04-23T11:24:47.998Z</time></trkpt><trkpt lat="31.921761584313327" lon="-8.023609747155378"><ele>492.0</ele><time>2026-04-23T11:24:48.998Z</time></trkpt><trkpt lat="31.92159617456022" lon="-8.023691738124812"><ele>492.0</ele><time>2026-04-23T11:24:49.998Z</time></trkpt><trkpt lat="31.92143632155881" lon="-8.023769690985118"><ele>492.33333333333337</ele><time>2026-04-23T11:24:50.998Z</time></trkpt><trkpt lat="31.921276620020738" lon="-8.023846983232973"><ele>492.6666666666667</ele><time>2026-04-23T11:24:51.998Z</time></trkpt><trkpt lat="31.921133964157452" lon="-8.023924675292118"><ele>493.0</ele><time>2026-04-23T11:24:52.998Z</time></trkpt><trkpt lat="31.921003369422706" lon="-8.02400469505431"><ele>493.0</ele><time>2026-04-23T11:24:53.998Z</time></trkpt><trkpt lat="31.920881472235113" lon="-8.024088500595495"><ele>493.0</ele><time>2026-04-23T11:24:54.998Z</time></trkpt><trkpt lat="31.920770808965884" lon="-8.024180802329074"><ele>493.0</ele><time>2026-04-23T11:24:55.998Z</time></trkpt><trkpt lat="31.92066862739076" lon="-8.024281435467444"><ele>493.0</ele><time>2026-04-23T11:24:56.998Z</time></trkpt><trkpt lat="31.92057929519304" lon="-8.024383226395004"><ele>493.0</ele><time>2026-04-23T11:24:57.998Z</time></trkpt><trkpt lat="31.920497629992024" lon="-8.024484911300346"><ele>492.99999999999994</ele><time>2026-04-23T11:24:59Z</time></trkpt><trkpt lat="31.92042157082815" lon="-8.024581483870135"><ele>492.99999999999994</ele><time>2026-04-23T11:25:00Z</time></trkpt><trkpt lat="31.920357508858988" lon="-8.024666578821572"><ele>493.0</ele><time>2026-04-23T11:25:01Z</time></trkpt><trkpt lat="31.920298765850998" lon="-8.02474990702119"><ele>493.0</ele><time>2026-04-23T11:25:02Z</time></trkpt><trkpt lat="31.92023986477776" lon="-8.024822584354695"><ele>493.00000000000006</ele><time>2026-04-23T11:25:03Z</time></trkpt><trkpt lat="31.92017833365702" lon="-8.024885638372071"><ele>493.0</ele><time>2026-04-23T11:25:04Z</time></trkpt><trkpt lat="31.920112684709864" lon="-8.024902996816486"><ele>493.0</ele><time>2026-04-23T11:25:05Z</time></trkpt><trkpt lat="31.92002651961609" lon="-8.024959690686806"><ele>493.0</ele><time>2026-04-23T11:25:06.999Z</time></trkpt><trkpt lat="31.91993151884867" lon="-8.02494902706333"><ele>493.00000000000006</ele><time>2026-04-23T11:25:08.999Z</time></trkpt><trkpt lat="31.91985609834534" lon="-8.024926297433833"><ele>493.0</ele><time>2026-04-23T11:25:10.999Z</time></trkpt><trkpt lat="31.919725697696833" lon="-8.024867789159796"><ele>493.1666666666667</ele><time>2026-04-23T11:25:12.999Z</time></trkpt><trkpt lat="31.91962368839164" lon="-8.024901244129078"><ele>493.33333333333337</ele><time>2026-04-23T11:25:14.999Z</time></trkpt><trkpt lat="31.919529311854802" lon="-8.024932568799876"><ele>493.5</ele><time>2026-04-23T11:25:16.999Z</time></trkpt><trkpt lat="31.919456865036132" lon="-8.024960321542375"><ele>493.66666666666663</ele><time>2026-04-23T11:25:18.999Z</time></trkpt><trkpt lat="31.919462931771896" lon="-8.025057033481449"><ele>493.8333333333333</ele><time>2026-04-23T11:25:19.999Z</time></trkpt><trkpt lat="31.919425335047706" lon="-8.024972399970947"><ele>494.0</ele><time>2026-04-23T11:25:23.999Z</time></trkpt><trkpt lat="31.919435434321397" lon="-8.025082693448457"><ele>494.0</ele><time>2026-04-23T11:27:54Z</time></trkpt><trkpt lat="31.91936164980317" lon="-8.025051216096987"><ele>494.0</ele><time>2026-04-23T11:33:45Z</time></trkpt><trkpt lat="31.919286491730222" lon="-8.025066586677"><ele>494.0</ele><time>2026-04-23T11:33:47Z</time></trkpt><trkpt lat="31.919185239881447" lon="-8.025064679064847"><ele>494.0</ele><time>2026-04-23T11:33:49Z</time></trkpt><trkpt lat="31.919088323023953" lon="-8.025102166572863"><ele>494.0</ele><time>2026-04-23T11:33:51Z</time></trkpt><trkpt lat="31.9189841241143" lon="-8.025142063535153"><ele>494.16666666666663</ele><time>2026-04-23T11:33:53Z</time></trkpt><trkpt lat="31.918873637034856" lon="-8.025184276721474"><ele>494.3333333333333</ele><time>2026-04-23T11:33:55Z</time></trkpt><trkpt lat="31.918755386604193" lon="-8.025229521077717"><ele>494.5</ele><time>2026-04-23T11:33:57Z</time></trkpt><trkpt lat="31.918693745101773" lon="-8.02525316409562"><ele>494.66666666666663</ele><time>2026-04-23T11:33:58Z</time></trkpt><trkpt lat="31.918630325052458" lon="-8.025277489287172"><ele>494.8333333333333</ele><time>2026-04-23T11:33:59Z</time></trkpt><trkpt lat="31.918564488264963" lon="-8.025302741435164"><ele>495.0</ele><time>2026-04-23T11:34:00Z</time></trkpt><trkpt lat="31.918495246920347" lon="-8.025329299422525"><ele>495.0</ele><time>2026-04-23T11:34:01Z</time></trkpt><trkpt lat="31.918423238985334" lon="-8.025378031262084"><ele>495.0</ele><time>2026-04-23T11:34:02Z</time></trkpt><trkpt lat="31.918357821046698" lon="-8.025434787152076"><ele>495.0</ele><time>2026-04-23T11:34:03Z</time></trkpt><trkpt lat="31.91827584001428" lon="-8.025466584891973"><ele>495.0</ele><time>2026-04-23T11:34:04Z</time></trkpt><trkpt lat="31.918191790316936" lon="-8.02549690539861"><ele>495.0</ele><time>2026-04-23T11:34:05Z</time></trkpt><trkpt lat="31.91810575692767" lon="-8.025524910784256"><ele>495.0</ele><time>2026-04-23T11:34:06Z</time></trkpt><trkpt lat="31.918014749011636" lon="-8.025551452584159"><ele>495.4</ele><time>2026-04-23T11:34:07Z</time></trkpt><trkpt lat="31.91791724135264" lon="-8.025568368213897"><ele>495.8</ele><time>2026-04-23T11:34:08Z</time></trkpt><trkpt lat="31.917811675424275" lon="-8.025572530791225"><ele>496.20000000000005</ele><time>2026-04-23T11:34:09Z</time></trkpt><trkpt lat="31.917699543261204" lon="-8.025562262418198"><ele>496.6</ele><time>2026-04-23T11:34:10Z</time></trkpt><trkpt lat="31.917582699286694" lon="-8.025536898618917"><ele>497.0</ele><time>2026-04-23T11:34:11Z</time></trkpt><trkpt lat="31.917460181114215" lon="-8.025503601035545"><ele>497.25</ele><time>2026-04-23T11:34:12Z</time></trkpt><trkpt lat="31.917328003755266" lon="-8.025474922544188"><ele>497.5</ele><time>2026-04-23T11:34:13Z</time></trkpt><trkpt lat="31.91718759651059" lon="-8.025455121746296"><ele>497.75</ele><time>2026-04-23T11:34:14Z</time></trkpt><trkpt lat="31.917041989784195" lon="-8.025444676425613"><ele>498.0</ele><time>2026-04-23T11:34:15Z</time></trkpt><trkpt lat="31.91689136083743" lon="-8.02544580891551"><ele>498.0</ele><time>2026-04-23T11:34:16Z</time></trkpt><trkpt lat="31.916740688573938" lon="-8.02547929035773"><ele>498.0</ele><time>2026-04-23T11:34:17Z</time></trkpt><trkpt lat="31.91658207761832" lon="-8.025500709231006"><ele>498.0</ele><time>2026-04-23T11:34:18Z</time></trkpt><trkpt lat="31.916414968269905" lon="-8.025509633989323"><ele>498.33333333333337</ele><time>2026-04-23T11:34:19Z</time></trkpt><trkpt lat="31.916241428132455" lon="-8.025544785701783"><ele>498.6666666666667</ele><time>2026-04-23T11:34:20Z</time></trkpt><trkpt lat="31.916060848194792" lon="-8.025582505857349"><ele>499.0</ele><time>2026-04-23T11:34:21Z</time></trkpt><trkpt lat="31.915858441065875" lon="-8.025623714350616"><ele>499.0</ele><time>2026-04-23T11:34:22Z</time></trkpt><trkpt lat="31.915645839912298" lon="-8.025665044753307"><ele>499.0</ele><time>2026-04-23T11:34:23Z</time></trkpt><trkpt lat="31.915422613044136" lon="-8.025705828737268"><ele>499.0</ele><time>2026-04-23T11:34:24Z</time></trkpt><trkpt lat="31.915189738016508" lon="-8.025744371043746"><ele>499.0</ele><time>2026-04-23T11:34:25Z</time></trkpt><trkpt lat="31.9149515558805" lon="-8.025781528335003"><ele>499.0</ele><time>2026-04-23T11:34:26Z</time></trkpt><trkpt lat="31.914707425007727" lon="-8.0258199553382"><ele>500.0</ele><time>2026-04-23T11:34:27Z</time></trkpt><trkpt lat="31.9144552069616" lon="-8.025859926583559"><ele>501.0</ele><time>2026-04-23T11:34:28Z</time></trkpt><trkpt lat="31.91419639192034" lon="-8.025901965034567"><ele>501.5</ele><time>2026-04-23T11:34:29Z</time></trkpt><trkpt lat="31.913932432249112" lon="-8.025940924989136"><ele>502.0</ele><time>2026-04-23T11:34:30Z</time></trkpt><trkpt lat="31.913662751053376" lon="-8.025973543704076"><ele>503.0</ele><time>2026-04-23T11:34:31Z</time></trkpt><trkpt lat="31.91339431768002" lon="-8.026008022667906"><ele>504.0</ele><time>2026-04-23T11:34:32Z</time></trkpt><trkpt lat="31.913123786584674" lon="-8.026036181019617"><ele>504.0</ele><time>2026-04-23T11:34:32.999Z</time></trkpt><trkpt lat="31.912856033313517" lon="-8.026057026420805"><ele>504.0</ele><time>2026-04-23T11:34:33.999Z</time></trkpt><trkpt lat="31.912579843115115" lon="-8.026077257926799"><ele>504.5</ele><time>2026-04-23T11:34:34.999Z</time></trkpt><trkpt lat="31.912289625445176" lon="-8.026094575669001"><ele>505.0</ele><time>2026-04-23T11:34:35.999Z</time></trkpt><trkpt lat="31.912000756793955" lon="-8.026114385301044"><ele>504.5</ele><time>2026-04-23T11:34:36.999Z</time></trkpt><trkpt lat="31.911701008730184" lon="-8.026133231500701"><ele>504.0</ele><time>2026-04-23T11:34:37.999Z</time></trkpt><trkpt lat="31.911400633079502" lon="-8.026154801978272"><ele>504.0</ele><time>2026-04-23T11:34:38.999Z</time></trkpt><trkpt lat="31.91110265416181" lon="-8.026171077325664"><ele>504.0</ele><time>2026-04-23T11:34:39.999Z</time></trkpt><trkpt lat="31.910801674439476" lon="-8.026177855824741"><ele>505.0</ele><time>2026-04-23T11:34:40.999Z</time></trkpt><trkpt lat="31.910502450402756" lon="-8.026190034187815"><ele>506.0</ele><time>2026-04-23T11:34:41.999Z</time></trkpt><trkpt lat="31.91020204701515" lon="-8.026194647269755"><ele>507.0</ele><time>2026-04-23T11:34:42.999Z</time></trkpt><trkpt lat="31.90990493174086" lon="-8.026200706226684"><ele>508.0</ele><time>2026-04-23T11:34:43.999Z</time></trkpt><trkpt lat="31.909601323511684" lon="-8.026197083019614"><ele>508.0</ele><time>2026-04-23T11:34:44.999Z</time></trkpt><trkpt lat="31.909306562286798" lon="-8.026195091826857"><ele>508.0</ele><time>2026-04-23T11:34:45.999Z</time></trkpt><trkpt lat="31.909007591617875" lon="-8.026190618958067"><ele>508.0</ele><time>2026-04-23T11:34:46.999Z</time></trkpt><trkpt lat="31.908708960400038" lon="-8.026185488143568"><ele>508.0</ele><time>2026-04-23T11:34:47.999Z</time></trkpt><trkpt lat="31.917460181114215" lon="-8.025503601035545"><ele>505.5</ele><time>2026-04-23T11:34:12Z</time></trkpt><trkpt lat="31.917328003755266" lon="-8.025474922544188"><ele>503.0</ele><time>2026-04-23T11:34:13Z</time></trkpt><trkpt lat="31.91718759651059" lon="-8.025455121746296"><ele>500.5</ele><time>2026-04-23T11:34:14Z</time></trkpt><trkpt lat="31.917041989784195" lon="-8.025444676425613"><ele>498.0</ele><time>2026-04-23T11:34:15Z</time></trkpt><trkpt lat="31.91689136083743" lon="-8.02544580891551"><ele>498.0</ele><time>2026-04-23T11:34:16Z</time></trkpt><trkpt lat="31.916740688573938" lon="-8.02547929035773"><ele>498.0</ele><time>2026-04-23T11:34:17Z</time></trkpt><trkpt lat="31.91658207761832" lon="-8.025500709231006"><ele>498.0</ele><time>2026-04-23T11:34:18Z</time></trkpt><trkpt lat="31.916414968269905" lon="-8.025509633989323"><ele>498.33333333333337</ele><time>2026-04-23T11:34:19Z</time></trkpt><trkpt lat="31.916241428132455" lon="-8.025544785701783"><ele>498.6666666666667</ele><time>2026-04-23T11:34:20Z</time></trkpt><trkpt lat="31.916060848194792" lon="-8.025582505857349"><ele>499.0</ele><time>2026-04-23T11:34:21Z</time></trkpt><trkpt lat="31.915858441065875" lon="-8.025623714350616"><ele>499.0</ele><time>2026-04-23T11:34:22Z</time></trkpt><trkpt lat="31.915645839912298" lon="-8.025665044753307"><ele>499.0</ele><time>2026-04-23T11:34:23Z</time></trkpt><trkpt lat="31.915422613044136" lon="-8.025705828737268"><ele>499.0</ele><time>2026-04-23T11:34:24Z</time></trkpt><trkpt lat="31.915189738016508" lon="-8.025744371043746"><ele>499.0</ele><time>2026-04-23T11:34:25Z</time></trkpt><trkpt lat="31.9149515558805" lon="-8.025781528335003"><ele>499.0</ele><time>2026-04-23T11:34:26Z</time></trkpt><trkpt lat="31.914707425007727" lon="-8.0258199553382"><ele>500.0</ele><time>2026-04-23T11:34:27Z</time></trkpt><trkpt lat="31.9144552069616" lon="-8.025859926583559"><ele>501.0</ele><time>2026-04-23T11:34:28Z</time></trkpt><trkpt lat="31.91419639192034" lon="-8.025901965034567"><ele>501.5</ele><time>2026-04-23T11:34:29Z</time></trkpt><trkpt lat="31.913932432249112" lon="-8.025940924989136"><ele>502.0</ele><time>2026-04-23T11:34:30Z</time></trkpt><trkpt lat="31.913662751053376" lon="-8.025973543704076"><ele>503.0</ele><time>2026-04-23T11:34:31Z</time></trkpt><trkpt lat="31.91339431768002" lon="-8.026008022667906"><ele>504.0</ele><time>2026-04-23T11:34:32Z</time></trkpt><trkpt lat="31.913123786584674" lon="-8.026036181019617"><ele>504.0</ele><time>2026-04-23T11:34:32.999Z</time></trkpt><trkpt lat="31.912856033313517" lon="-8.026057026420805"><ele>504.0</ele><time>2026-04-23T11:34:33.999Z</time></trkpt><trkpt lat="31.912579843115115" lon="-8.026077257926799"><ele>504.5</ele><time>2026-04-23T11:34:34.999Z</time></trkpt><trkpt lat="31.912289625445176" lon="-8.026094575669001"><ele>505.0</ele><time>2026-04-23T11:34:35.999Z</time></trkpt><trkpt lat="31.912000756793955" lon="-8.026114385301044"><ele>504.5</ele><time>2026-04-23T11:34:36.999Z</time></trkpt><trkpt lat="31.911701008730184" lon="-8.026133231500701"><ele>504.0</ele><time>2026-04-23T11:34:37.999Z</time></trkpt><trkpt lat="31.911400633079502" lon="-8.026154801978272"><ele>504.0</ele><time>2026-04-23T11:34:38.999Z</time></trkpt><trkpt lat="31.91110265416181" lon="-8.026171077325664"><ele>504.0</ele><time>2026-04-23T11:34:39.999Z</time></trkpt><trkpt lat="31.910801674439476" lon="-8.026177855824741"><ele>505.0</ele><time>2026-04-23T11:34:40.999Z</time></trkpt><trkpt lat="31.910502450402756" lon="-8.026190034187815"><ele>506.0</ele><time>2026-04-23T11:34:41.999Z</time></trkpt><trkpt lat="31.91020204701515" lon="-8.026194647269755"><ele>507.0</ele><time>2026-04-23T11:34:42.999Z</time></trkpt><trkpt lat="31.90990493174086" lon="-8.026200706226684"><ele>508.0</ele><time>2026-04-23T11:34:43.999Z</time></trkpt><trkpt lat="31.909601323511684" lon="-8.026197083019614"><ele>508.0</ele><time>2026-04-23T11:34:44.999Z</time></trkpt><trkpt lat="31.909306562286798" lon="-8.026195091826857"><ele>508.0</ele><time>2026-04-23T11:34:45.999Z</time></trkpt><trkpt lat="31.909007591617875" lon="-8.026190618958067"><ele>508.0</ele><time>2026-04-23T11:34:46.999Z</time></trkpt><trkpt lat="31.908708960400038" lon="-8.026185488143568"><ele>508.0</ele><time>2026-04-23T11:34:47.999Z</time></trkpt><trkpt lat="31.908410409179837" lon="-8.026173172444278"><ele>509.0</ele><time>2026-04-23T11:34:48.999Z</time></trkpt><trkpt lat="31.908107745117494" lon="-8.02615956977066"><ele>510.0</ele><time>2026-04-23T11:34:49.999Z</time></trkpt><trkpt lat="31.90780970418473" lon="-8.026142398843758"><ele>510.5</ele><time>2026-04-23T11:34:50.999Z</time></trkpt><trkpt lat="31.90751086232221" lon="-8.026122145656581"><ele>511.0</ele><time>2026-04-23T11:34:51.999Z</time></trkpt><trkpt lat="31.907211265020408" lon="-8.026090020576985"><ele>511.0</ele><time>2026-04-23T11:34:52.999Z</time></trkpt><trkpt lat="31.906911195348066" lon="-8.026057921033647"><ele>511.0</ele><time>2026-04-23T11:34:53.999Z</time></trkpt><trkpt lat="31.906614464521258" lon="-8.026028429724928"><ele>511.0</ele><time>2026-04-23T11:34:54.999Z</time></trkpt><trkpt lat="31.9063131396965" lon="-8.025992927527794"><ele>511.0</ele><time>2026-04-23T11:34:55.999Z</time></trkpt><trkpt lat="31.90601145810497" lon="-8.025960917139859"><ele>512.0</ele><time>2026-04-23T11:34:56.999Z</time></trkpt><trkpt lat="31.905709878977742" lon="-8.025929210991423"><ele>513.0</ele><time>2026-04-23T11:34:57.999Z</time></trkpt><trkpt lat="31.905408325516724" lon="-8.02589437275924"><ele>513.0</ele><time>2026-04-23T11:34:58.999Z</time></trkpt><trkpt lat="31.905112810651175" lon="-8.02586519542418"><ele>513.0</ele><time>2026-04-23T11:34:59.999Z</time></trkpt><trkpt lat="31.904811483494807" lon="-8.02582692411669"><ele>513.0</ele><time>2026-04-23T11:35:00.999Z</time></trkpt><trkpt lat="31.904513293728805" lon="-8.025794611508172"><ele>513.0</ele><time>2026-04-23T11:35:01.999Z</time></trkpt><trkpt lat="31.904217500434864" lon="-8.025762860043764"><ele>513.5</ele><time>2026-04-23T11:35:02.999Z</time></trkpt><trkpt lat="31.903918848123176" lon="-8.025728818523195"><ele>514.0</ele><time>2026-04-23T11:35:03.999Z</time></trkpt><trkpt lat="31.90362025305493" lon="-8.025697150305627"><ele>514.0</ele><time>2026-04-23T11:35:04.999Z</time></trkpt><trkpt lat="31.90332129002367" lon="-8.025665685383537"><ele>514.0</ele><time>2026-04-23T11:35:05.999Z</time></trkpt><trkpt lat="31.903021463271745" lon="-8.025630757422132"><ele>514.0</ele><time>2026-04-23T11:35:06.999Z</time></trkpt><trkpt lat="31.902722894334264" lon="-8.025595788804463"><ele>514.0</ele><time>2026-04-23T11:35:07.999Z</time></trkpt><trkpt lat="31.902426263296963" lon="-8.025565849185142"><ele>515.0</ele><time>2026-04-23T11:35:08.999Z</time></trkpt><trkpt lat="31.9021296875696" lon="-8.025534266036933"><ele>516.0</ele><time>2026-04-23T11:35:09.999Z</time></trkpt><trkpt lat="31.90182998688657" lon="-8.025500448697871"><ele>517.5</ele><time>2026-04-23T11:35:10.999Z</time></trkpt><trkpt lat="31.901529577298977" lon="-8.025467065318471"><ele>519.0</ele><time>2026-04-23T11:35:11.999Z</time></trkpt><trkpt lat="31.901232758709977" lon="-8.02543820061055"><ele>519.0</ele><time>2026-04-23T11:35:12.999Z</time></trkpt><trkpt lat="31.900935642457547" lon="-8.025406145758227"><ele>519.0</ele><time>2026-04-23T11:35:13.999Z</time></trkpt><trkpt lat="31.900639552416287" lon="-8.025374508478217"><ele>519.0</ele><time>2026-04-23T11:35:14.999Z</time></trkpt><trkpt lat="31.9003376016701" lon="-8.02534215571579"><ele>519.0</ele><time>2026-04-23T11:35:15.999Z</time></trkpt><trkpt lat="31.900038726726063" lon="-8.025307258852084"><ele>519.0</ele><time>2026-04-23T11:35:16.999Z</time></trkpt><trkpt lat="31.899737853781968" lon="-8.025276674021583"><ele>519.0</ele><time>2026-04-23T11:35:17.999Z</time></trkpt><trkpt lat="31.899438995136055" lon="-8.025244721781338"><ele>519.5</ele><time>2026-04-23T11:35:18.999Z</time></trkpt><trkpt lat="31.899143467733783" lon="-8.025208956243427"><ele>520.0</ele><time>2026-04-23T11:35:19.999Z</time></trkpt><trkpt lat="31.898841361011108" lon="-8.025174995381924"><ele>520.0</ele><time>2026-04-23T11:35:20.999Z</time></trkpt><trkpt lat="31.898540305237514" lon="-8.025139849733723"><ele>520.0</ele><time>2026-04-23T11:35:21.999Z</time></trkpt><trkpt lat="31.89824039952201" lon="-8.025102734527884"><ele>520.5</ele><time>2026-04-23T11:35:22.999Z</time></trkpt><trkpt lat="31.89793904762747" lon="-8.025073339737155"><ele>521.0</ele><time>2026-04-23T11:35:23.999Z</time></trkpt><trkpt lat="31.89763816323056" lon="-8.025045566749757"><ele>521.5</ele><time>2026-04-23T11:35:24.999Z</time></trkpt><trkpt lat="31.897335023736364" lon="-8.025011450461559"><ele>522.0</ele><time>2026-04-23T11:35:25.999Z</time></trkpt><trkpt lat="31.897033575527566" lon="-8.024977321447992"><ele>523.0</ele><time>2026-04-23T11:35:26.999Z</time></trkpt><trkpt lat="31.89673630556778" lon="-8.024947003477067"><ele>524.0</ele><time>2026-04-23T11:35:27.999Z</time></trkpt><trkpt lat="31.896440625921166" lon="-8.024912161940541"><ele>524.0</ele><time>2026-04-23T11:35:28.999Z</time></trkpt><trkpt lat="31.89614011908745" lon="-8.024883076348877"><ele>524.0</ele><time>2026-04-23T11:35:29.999Z</time></trkpt><trkpt lat="31.895839279559397" lon="-8.024846327661239"><ele>524.0</ele><time>2026-04-23T11:35:30.999Z</time></trkpt><trkpt lat="31.895539525230987" lon="-8.024812779873123"><ele>524.0</ele><time>2026-04-23T11:35:31.999Z</time></trkpt><trkpt lat="31.895240519476104" lon="-8.024782834837177"><ele>524.5</ele><time>2026-04-23T11:35:32.999Z</time></trkpt><trkpt lat="31.89493996564213" lon="-8.024750627101737"><ele>525.0</ele><time>2026-04-23T11:35:33.999Z</time></trkpt><trkpt lat="31.894638725872415" lon="-8.024719741584153"><ele>525.0</ele><time>2026-04-23T11:35:34.999Z</time></trkpt><trkpt lat="31.89433943277433" lon="-8.024686980634229"><ele>525.0</ele><time>2026-04-23T11:35:35.999Z</time></trkpt><trkpt lat="31.894038883488413" lon="-8.024653616607722"><ele>526.0</ele><time>2026-04-23T11:35:36.999Z</time></trkpt><trkpt lat="31.89374136403255" lon="-8.024617575564697"><ele>527.0</ele><time>2026-04-23T11:35:37.999Z</time></trkpt><trkpt lat="31.893442181749162" lon="-8.024584144541606"><ele>527.0</ele><time>2026-04-23T11:35:38.999Z</time></trkpt><trkpt lat="31.893146779767317" lon="-8.024551422828178"><ele>527.0</ele><time>2026-04-23T11:35:39.999Z</time></trkpt><trkpt lat="31.892848728305136" lon="-8.024519462304896"><ele>527.0</ele><time>2026-04-23T11:35:40.999Z</time></trkpt><trkpt lat="31.892552861084003" lon="-8.024487031669409"><ele>527.0</ele><time>2026-04-23T11:35:41.999Z</time></trkpt><trkpt lat="31.892254573823635" lon="-8.024454761433526"><ele>527.0</ele><time>2026-04-23T11:35:42.999Z</time></trkpt><trkpt lat="31.89195803693453" lon="-8.024423253855263"><ele>527.0</ele><time>2026-04-23T11:35:43.999Z</time></trkpt><trkpt lat="31.89165990902841" lon="-8.024391630136638"><ele>528.0</ele><time>2026-04-23T11:35:44.999Z</time></trkpt><trkpt lat="31.89135822362594" lon="-8.02436021981946"><ele>529.0</ele><time>2026-04-23T11:35:45.999Z</time></trkpt><trkpt lat="31.891065174167036" lon="-8.024328616278446"><ele>530.0</ele><time>2026-04-23T11:35:46.999Z</time></trkpt><trkpt lat="31.89076846933332" lon="-8.024297443062567"><ele>531.0</ele><time>2026-04-23T11:35:47.999Z</time></trkpt><trkpt lat="31.890465885880786" lon="-8.024264472190053"><ele>531.0</ele><time>2026-04-23T11:35:48.999Z</time></trkpt><trkpt lat="31.8901649304224" lon="-8.024231933585643"><ele>531.0</ele><time>2026-04-23T11:35:49.999Z</time></trkpt><trkpt lat="31.889868794157366" lon="-8.024198801213629"><ele>532.5</ele><time>2026-04-23T11:35:50.999Z</time></trkpt><trkpt lat="31.889572788829035" lon="-8.024165516459835"><ele>534.0</ele><time>2026-04-23T11:35:51.999Z</time></trkpt><trkpt lat="31.889275449210135" lon="-8.024131647942408"><ele>538.0</ele><time>2026-04-23T11:35:52.999Z</time></trkpt><trkpt lat="31.88897561136355" lon="-8.024101711892369"><ele>542.0</ele><time>2026-04-23T11:35:53.999Z</time></trkpt><trkpt lat="31.88867559414118" lon="-8.024071461639782"><ele>544.0</ele><time>2026-04-23T11:35:54.999Z</time></trkpt><trkpt lat="31.88837902202494" lon="-8.024043098659966"><ele>546.0</ele><time>2026-04-23T11:35:55.999Z</time></trkpt><trkpt lat="31.88807944106479" lon="-8.024010206519797"><ele>546.0</ele><time>2026-04-23T11:35:56.999Z</time></trkpt><trkpt lat="31.887779488281158" lon="-8.023978198124805"><ele>546.0</ele><time>2026-04-23T11:35:57.999Z</time></trkpt><trkpt lat="31.887476633619343" lon="-8.023948035533964"><ele>548.5</ele><time>2026-04-23T11:35:58.999Z</time></trkpt><trkpt lat="31.887177220280748" lon="-8.023916505155894"><ele>551.0</ele><time>2026-04-23T11:35:59.999Z</time></trkpt><trkpt lat="31.886879824723945" lon="-8.023882687344084"><ele>553.0</ele><time>2026-04-23T11:36:00.999Z</time></trkpt><trkpt lat="31.88658032606209" lon="-8.02384761417275"><ele>555.0</ele><time>2026-04-23T11:36:01.999Z</time></trkpt><trkpt lat="31.886280750923135" lon="-8.023813919922068"><ele>555.0</ele><time>2026-04-23T11:36:02.999Z</time></trkpt><trkpt lat="31.885981116725763" lon="-8.023780250571622"><ele>555.0</ele><time>2026-04-23T11:36:04Z</time></trkpt><trkpt lat="31.885680748626527" lon="-8.023742037801467"><ele>554.0</ele><time>2026-04-23T11:36:05Z</time></trkpt><trkpt lat="31.88538215648235" lon="-8.023702818814284"><ele>553.0</ele><time>2026-04-23T11:36:06Z</time></trkpt><trkpt lat="31.88508365227613" lon="-8.02365935520535"><ele>553.0</ele><time>2026-04-23T11:36:07Z</time></trkpt><trkpt lat="31.88478502472795" lon="-8.02361097090299"><ele>553.0</ele><time>2026-04-23T11:36:08Z</time></trkpt><trkpt lat="31.88448607945225" lon="-8.023557154336943"><ele>553.5</ele><time>2026-04-23T11:36:09Z</time></trkpt><trkpt lat="31.884193292691553" lon="-8.023498446818714"><ele>554.0</ele><time>2026-04-23T11:36:10Z</time></trkpt><trkpt lat="31.88389632543945" lon="-8.023433085292947"><ele>554.0</ele><time>2026-04-23T11:36:11Z</time></trkpt><trkpt lat="31.88360090086925" lon="-8.023372924618627"><ele>554.0</ele><time>2026-04-23T11:36:12Z</time></trkpt><trkpt lat="31.883300818160674" lon="-8.02330463497654"><ele>557.0</ele><time>2026-04-23T11:36:13Z</time></trkpt><trkpt lat="31.883005796868844" lon="-8.023230126695163"><ele>560.0</ele><time>2026-04-23T11:36:14Z</time></trkpt><trkpt lat="31.882716959613486" lon="-8.023150305882755"><ele>556.5</ele><time>2026-04-23T11:36:15Z</time></trkpt><trkpt lat="31.882422499972158" lon="-8.023072271122869"><ele>553.0</ele><time>2026-04-23T11:36:16Z</time></trkpt><trkpt lat="31.882132204134745" lon="-8.022989208404027"><ele>553.0</ele><time>2026-04-23T11:36:17Z</time></trkpt><trkpt lat="31.881843917096198" lon="-8.02290551013787"><ele>553.0</ele><time>2026-04-23T11:36:18Z</time></trkpt><trkpt lat="31.881551479261805" lon="-8.022817451498254"><ele>553.0</ele><time>2026-04-23T11:36:19Z</time></trkpt><trkpt lat="31.88126158026433" lon="-8.02272056368752"><ele>553.0</ele><time>2026-04-23T11:36:20Z</time></trkpt><trkpt lat="31.88097272511312" lon="-8.022618712160794"><ele>554.0</ele><time>2026-04-23T11:36:20.999Z</time></trkpt><trkpt lat="31.88068600576682" lon="-8.022517151441349"><ele>555.0</ele><time>2026-04-23T11:36:21.999Z</time></trkpt><trkpt lat="31.880399107480894" lon="-8.022410182113218"><ele>556.5</ele><time>2026-04-23T11:36:22.999Z</time></trkpt><trkpt lat="31.880112087590184" lon="-8.022307717591351"><ele>558.0</ele><time>2026-04-23T11:36:23.999Z</time></trkpt><trkpt lat="31.879826293998256" lon="-8.02220002750565"><ele>559.5</ele><time>2026-04-23T11:36:24.999Z</time></trkpt><trkpt lat="31.879544545075717" lon="-8.022086442575505"><ele>561.0</ele><time>2026-04-23T11:36:25.999Z</time></trkpt><trkpt lat="31.879265426155982" lon="-8.021971984947974"><ele>563.5</ele><time>2026-04-23T11:36:26.999Z</time></trkpt><trkpt lat="31.878983607329516" lon="-8.021851036205625"><ele>566.0</ele><time>2026-04-23T11:36:27.999Z</time></trkpt><trkpt lat="31.87870396209376" lon="-8.021723153012736"><ele>571.0</ele><time>2026-04-23T11:36:28.999Z</time></trkpt><trkpt lat="31.8784223563032" lon="-8.02159571770655"><ele>576.0</ele><time>2026-04-23T11:36:29.999Z</time></trkpt><trkpt lat="31.87814302319773" lon="-8.021459609714132"><ele>576.0</ele><time>2026-04-23T11:36:30.999Z</time></trkpt><trkpt lat="31.877867255248283" lon="-8.021316900927372"><ele>576.0</ele><time>2026-04-23T11:36:31.999Z</time></trkpt><trkpt lat="31.877597406168288" lon="-8.021173363541624"><ele>574.0</ele><time>2026-04-23T11:36:32.999Z</time></trkpt><trkpt lat="31.877324513034427" lon="-8.021026287794685"><ele>572.0</ele><time>2026-04-23T11:36:33.999Z</time></trkpt><trkpt lat="31.87705168901371" lon="-8.020873225038502"><ele>569.0</ele><time>2026-04-23T11:36:34.999Z</time></trkpt><trkpt lat="31.876783493684915" lon="-8.020716731517698"><ele>566.0</ele><time>2026-04-23T11:36:35.999Z</time></trkpt><trkpt lat="31.87651051400889" lon="-8.020565723796219"><ele>566.0</ele><time>2026-04-23T11:36:36.999Z</time></trkpt><trkpt lat="31.876242987969245" lon="-8.020411993263334"><ele>566.0</ele><time>2026-04-23T11:36:37.999Z</time></trkpt><trkpt lat="31.875976021832845" lon="-8.020250210686923"><ele>566.0</ele><time>2026-04-23T11:36:38.999Z</time></trkpt><trkpt lat="31.87571217710859" lon="-8.020087308599898"><ele>566.0</ele><time>2026-04-23T11:36:39.999Z</time></trkpt><trkpt lat="31.875449811770714" lon="-8.019919664365958"><ele>566.0</ele><time>2026-04-23T11:36:40.999Z</time></trkpt><trkpt lat="31.87518885398822" lon="-8.01973732506437"><ele>566.0</ele><time>2026-04-23T11:36:41.999Z</time></trkpt><trkpt lat="31.87493417678089" lon="-8.019552052658096"><ele>565.5</ele><time>2026-04-23T11:36:42.999Z</time></trkpt><trkpt lat="31.874679416448643" lon="-8.019359730182359"><ele>565.0</ele><time>2026-04-23T11:36:43.999Z</time></trkpt><trkpt lat="31.87442654960995" lon="-8.01916889286222"><ele>567.0</ele><time>2026-04-23T11:36:44.999Z</time></trkpt><trkpt lat="31.87416863955208" lon="-8.018981125764189"><ele>569.0</ele><time>2026-04-23T11:36:45.999Z</time></trkpt><trkpt lat="31.873911624182362" lon="-8.018790777225568"><ele>569.0</ele><time>2026-04-23T11:36:46.999Z</time></trkpt><trkpt lat="31.873661812349027" lon="-8.018598648714576"><ele>569.0</ele><time>2026-04-23T11:36:47.999Z</time></trkpt><trkpt lat="31.87341202921315" lon="-8.018402851102591"><ele>573.0</ele><time>2026-04-23T11:36:48.999Z</time></trkpt><trkpt lat="31.87316178991141" lon="-8.018206277558594"><ele>577.0</ele><time>2026-04-23T11:36:49.999Z</time></trkpt><trkpt lat="31.87291623821821" lon="-8.018011026812717"><ele>577.0</ele><time>2026-04-23T11:36:50.999Z</time></trkpt><trkpt lat="31.87267385590033" lon="-8.017806846992057"><ele>577.0</ele><time>2026-04-23T11:36:51.999Z</time></trkpt><trkpt lat="31.872430861151972" lon="-8.017601201430253"><ele>577.5</ele><time>2026-04-23T11:36:52.999Z</time></trkpt><trkpt lat="31.872193630992815" lon="-8.017391445185938"><ele>578.0</ele><time>2026-04-23T11:36:53.999Z</time></trkpt><trkpt lat="31.871953750215024" lon="-8.01717735917798"><ele>574.5</ele><time>2026-04-23T11:36:54.999Z</time></trkpt><trkpt lat="31.871714414730032" lon="-8.016960858830785"><ele>571.0</ele><time>2026-04-23T11:36:55.999Z</time></trkpt><trkpt lat="31.871477776103877" lon="-8.016744118418579"><ele>574.5</ele><time>2026-04-23T11:36:56.999Z</time></trkpt><trkpt lat="31.871244346486904" lon="-8.016519314130136"><ele>578.0</ele><time>2026-04-23T11:36:57.999Z</time></trkpt><trkpt lat="31.871013867743354" lon="-8.016286669459946"><ele>578.5</ele><time>2026-04-23T11:36:58.999Z</time></trkpt><trkpt lat="31.870785004452067" lon="-8.016050872540855"><ele>579.0</ele><time>2026-04-23T11:36:59.999Z</time></trkpt><trkpt lat="31.87056188264607" lon="-8.015816784361679"><ele>579.0</ele><time>2026-04-23T11:37:00.999Z</time></trkpt><trkpt lat="31.870339579296175" lon="-8.01558137351153"><ele>579.0</ele><time>2026-04-23T11:37:01.999Z</time></trkpt><trkpt lat="31.870117784191443" lon="-8.015345029216048"><ele>577.5</ele><time>2026-04-23T11:37:02.999Z</time></trkpt><trkpt lat="31.869899061146373" lon="-8.015108192015967"><ele>576.0</ele><time>2026-04-23T11:37:03.999Z</time></trkpt><trkpt lat="31.869683086654376" lon="-8.014865895975076"><ele>576.0</ele><time>2026-04-23T11:37:04.999Z</time></trkpt><trkpt lat="31.869470377075185" lon="-8.014616566201592"><ele>576.0</ele><time>2026-04-23T11:37:05.999Z</time></trkpt><trkpt lat="31.869263360615545" lon="-8.014369090337158"><ele>577.0</ele><time>2026-04-23T11:37:06.999Z</time></trkpt><trkpt lat="31.86905707959031" lon="-8.01411675461187"><ele>578.0</ele><time>2026-04-23T11:37:07.999Z</time></trkpt><trkpt lat="31.86884869598249" lon="-8.013860640616876"><ele>578.0</ele><time>2026-04-23T11:37:08.999Z</time></trkpt><trkpt lat="31.868646800194032" lon="-8.013602701289624"><ele>578.0</ele><time>2026-04-23T11:37:09.999Z</time></trkpt><trkpt lat="31.86844441163505" lon="-8.013343696591505"><ele>579.5</ele><time>2026-04-23T11:37:10.999Z</time></trkpt><trkpt lat="31.868246456314196" lon="-8.013082071611608"><ele>581.0</ele><time>2026-04-23T11:37:11.999Z</time></trkpt><trkpt lat="31.868045752481322" lon="-8.012813564880036"><ele>581.0</ele><time>2026-04-23T11:37:12.999Z</time></trkpt><trkpt lat="31.867849372931165" lon="-8.012543848487848"><ele>581.0</ele><time>2026-04-23T11:37:13.999Z</time></trkpt><trkpt lat="31.86765565370437" lon="-8.01227424727249"><ele>581.5</ele><time>2026-04-23T11:37:14.999Z</time></trkpt><trkpt lat="31.867465419684464" lon="-8.011998914781449"><ele>582.0</ele><time>2026-04-23T11:37:15.999Z</time></trkpt><trkpt lat="31.86727392103767" lon="-8.011727340575353"><ele>586.0</ele><time>2026-04-23T11:37:16.999Z</time></trkpt><trkpt lat="31.867081207328173" lon="-8.011454033235998"><ele>590.0</ele><time>2026-04-23T11:37:17.999Z</time></trkpt><trkpt lat="31.86688852885555" lon="-8.011186032443192"><ele>591.0</ele><time>2026-04-23T11:37:18.999Z</time></trkpt><trkpt lat="31.86669313444543" lon="-8.010914266825605"><ele>592.0</ele><time>2026-04-23T11:37:19.999Z</time></trkpt><trkpt lat="31.866504434303444" lon="-8.010646810218553"><ele>592.0</ele><time>2026-04-23T11:37:20.999Z</time></trkpt><trkpt lat="31.866311578128435" lon="-8.010375129282837"><ele>592.0</ele><time>2026-04-23T11:37:21.999Z</time></trkpt><trkpt lat="31.86611746483909" lon="-8.010101624823493"><ele>591.5</ele><time>2026-04-23T11:37:22.999Z</time></trkpt><trkpt lat="31.865927929463187" lon="-8.009825831423752"><ele>591.0</ele><time>2026-04-23T11:37:23.999Z</time></trkpt><trkpt lat="31.865733496167085" lon="-8.009553622828282"><ele>591.0</ele><time>2026-04-23T11:37:24.999Z</time></trkpt><trkpt lat="31.865537507868574" lon="-8.009281919547535"><ele>591.0</ele><time>2026-04-23T11:37:25.999Z</time></trkpt><trkpt lat="31.865345051981194" lon="-8.009009588912347"><ele>593.5</ele><time>2026-04-23T11:37:26.999Z</time></trkpt><trkpt lat="31.865152092643708" lon="-8.008740223436586"><ele>596.0</ele><time>2026-04-23T11:37:27.999Z</time></trkpt><trkpt lat="31.864956503096924" lon="-8.008470848368658"><ele>598.5</ele><time>2026-04-23T11:37:28.999Z</time></trkpt><trkpt lat="31.864763307476707" lon="-8.008202840577715"><ele>601.0</ele><time>2026-04-23T11:37:29.999Z</time></trkpt><trkpt lat="31.864573338682895" lon="-8.007935404045183"><ele>601.0</ele><time>2026-04-23T11:37:30.999Z</time></trkpt><trkpt lat="31.864376835543805" lon="-8.007668433196114"><ele>601.0</ele><time>2026-04-23T11:37:31.999Z</time></trkpt><trkpt lat="31.864174201688627" lon="-8.007401711188548"><ele>605.0</ele><time>2026-04-23T11:37:32.999Z</time></trkpt><trkpt lat="31.86397251888009" lon="-8.007138961566897"><ele>609.0</ele><time>2026-04-23T11:37:33.999Z</time></trkpt><trkpt lat="31.863770243197948" lon="-8.006880462591726"><ele>609.5</ele><time>2026-04-23T11:37:35Z</time></trkpt><trkpt lat="31.863563756054912" lon="-8.006618939836784"><ele>610.0</ele><time>2026-04-23T11:37:36Z</time></trkpt><trkpt lat="31.86335380991258" lon="-8.00636031673289"><ele>608.0</ele><time>2026-04-23T11:37:37Z</time></trkpt><trkpt lat="31.863148966515734" lon="-8.006101327258085"><ele>606.0</ele><time>2026-04-23T11:37:38Z</time></trkpt><trkpt lat="31.862938871553286" lon="-8.00584442401636"><ele>600.5</ele><time>2026-04-23T11:37:39Z</time></trkpt><trkpt lat="31.862729490194987" lon="-8.0055924011481"><ele>595.0</ele><time>2026-04-23T11:37:40Z</time></trkpt><trkpt lat="31.862515253978856" lon="-8.005341863680274"><ele>592.0</ele><time>2026-04-23T11:37:41Z</time></trkpt><trkpt lat="31.862301997773177" lon="-8.005091853240005"><ele>589.0</ele><time>2026-04-23T11:37:42Z</time></trkpt><trkpt lat="31.86209321489658" lon="-8.004839881663184"><ele>590.0</ele><time>2026-04-23T11:37:43Z</time></trkpt><trkpt lat="31.86188165731607" lon="-8.004589439894994"><ele>591.0</ele><time>2026-04-23T11:37:44Z</time></trkpt><trkpt lat="31.86166417356108" lon="-8.004342135564842"><ele>585.0</ele><time>2026-04-23T11:37:45Z</time></trkpt><trkpt lat="31.86144592261535" lon="-8.004098161307306"><ele>579.0</ele><time>2026-04-23T11:37:46Z</time></trkpt><trkpt lat="31.861226346946978" lon="-8.003851840954567"><ele>579.0</ele><time>2026-04-23T11:37:47Z</time></trkpt><trkpt lat="31.86100810649828" lon="-8.003610505354406"><ele>579.0</ele><time>2026-04-23T11:37:48Z</time></trkpt><trkpt lat="31.860783264065237" lon="-8.003376989256003"><ele>579.5</ele><time>2026-04-23T11:37:49Z</time></trkpt><trkpt lat="31.860558369966764" lon="-8.003145143582609"><ele>580.0</ele><time>2026-04-23T11:37:50Z</time></trkpt><trkpt lat="31.8603323757137" lon="-8.002913525311767"><ele>580.0</ele><time>2026-04-23T11:37:51Z</time></trkpt><trkpt lat="31.86010296459864" lon="-8.002687740756835"><ele>580.0</ele><time>2026-04-23T11:37:52Z</time></trkpt><trkpt lat="31.85987289736616" lon="-8.002456220161"><ele>580.0</ele><time>2026-04-23T11:37:53Z</time></trkpt><trkpt lat="31.85964352052774" lon="-8.002230808813506"><ele>580.0</ele><time>2026-04-23T11:37:54Z</time></trkpt><trkpt lat="31.85940718356821" lon="-8.002011913272476"><ele>579.5</ele><time>2026-04-23T11:37:55Z</time></trkpt><trkpt lat="31.859170494924395" lon="-8.001794028269318"><ele>579.0</ele><time>2026-04-23T11:37:56Z</time></trkpt><trkpt lat="31.858934480983788" lon="-8.001572651894344"><ele>579.0</ele><time>2026-04-23T11:37:57Z</time></trkpt><trkpt lat="31.858694034369073" lon="-8.00135442770496"><ele>579.0</ele><time>2026-04-23T11:37:58Z</time></trkpt><trkpt lat="31.85845614893758" lon="-8.00113934234906"><ele>578.5</ele><time>2026-04-23T11:37:59Z</time></trkpt><trkpt lat="31.85821450901003" lon="-8.000924204649698"><ele>578.0</ele><time>2026-04-23T11:38:00Z</time></trkpt><trkpt lat="31.85796666704908" lon="-8.000714059885556"><ele>578.0</ele><time>2026-04-23T11:38:01Z</time></trkpt><trkpt lat="31.857724394122144" lon="-8.000504157335596"><ele>578.0</ele><time>2026-04-23T11:38:02Z</time></trkpt><trkpt lat="31.857481628264658" lon="-8.000298020152314"><ele>577.5</ele><time>2026-04-23T11:38:03Z</time></trkpt><trkpt lat="31.85723691125172" lon="-8.000098899803948"><ele>577.0</ele><time>2026-04-23T11:38:04Z</time></trkpt><trkpt lat="31.85699118546929" lon="-7.999898780251578"><ele>575.0</ele><time>2026-04-23T11:38:05Z</time></trkpt><trkpt lat="31.856741080737493" lon="-7.999699934734769"><ele>573.0</ele><time>2026-04-23T11:38:06Z</time></trkpt><trkpt lat="31.856491891372944" lon="-7.99950629490984"><ele>573.0</ele><time>2026-04-23T11:38:07Z</time></trkpt><trkpt lat="31.856239189845382" lon="-7.999316625130515"><ele>573.0</ele><time>2026-04-23T11:38:08Z</time></trkpt><trkpt lat="31.85598203426905" lon="-7.999123572015741"><ele>571.0</ele><time>2026-04-23T11:38:09Z</time></trkpt><trkpt lat="31.85573098025211" lon="-7.998931129325787"><ele>569.0</ele><time>2026-04-23T11:38:10Z</time></trkpt><trkpt lat="31.855475300203683" lon="-7.998741173446037"><ele>569.0</ele><time>2026-04-23T11:38:11Z</time></trkpt><trkpt lat="31.85522052490314" lon="-7.998557044536067"><ele>569.0</ele><time>2026-04-23T11:38:12Z</time></trkpt><trkpt lat="31.854964621791645" lon="-7.998370875143933"><ele>569.0</ele><time>2026-04-23T11:38:13Z</time></trkpt><trkpt lat="31.85470557236687" lon="-7.998188407842177"><ele>569.0</ele><time>2026-04-23T11:38:14Z</time></trkpt><trkpt lat="31.854451762084384" lon="-7.998007635251401"><ele>567.5</ele><time>2026-04-23T11:38:15Z</time></trkpt><trkpt lat="31.85419353632474" lon="-7.997831763541485"><ele>566.0</ele><time>2026-04-23T11:38:16Z</time></trkpt><trkpt lat="31.853936041502013" lon="-7.997656214501855"><ele>566.0</ele><time>2026-04-23T11:38:17Z</time></trkpt><trkpt lat="31.853674017353732" lon="-7.997482287802299"><ele>566.0</ele><time>2026-04-23T11:38:18Z</time></trkpt><trkpt lat="31.85341067637902" lon="-7.9973092509694235"><ele>566.0</ele><time>2026-04-23T11:38:19Z</time></trkpt><trkpt lat="31.853147340722337" lon="-7.997140758659996"><ele>566.0</ele><time>2026-04-23T11:38:20Z</time></trkpt><trkpt lat="31.852884411575477" lon="-7.9969700250519"><ele>565.5</ele><time>2026-04-23T11:38:21Z</time></trkpt><trkpt lat="31.852618429067142" lon="-7.9968011973307895"><ele>565.0</ele><time>2026-04-23T11:38:22Z</time></trkpt><trkpt lat="31.85235373975439" lon="-7.996636540676804"><ele>567.0</ele><time>2026-04-23T11:38:23Z</time></trkpt><trkpt lat="31.85208778315612" lon="-7.996473153992722"><ele>569.0</ele><time>2026-04-23T11:38:24Z</time></trkpt><trkpt lat="31.851817280537574" lon="-7.996319622160853"><ele>567.0</ele><time>2026-04-23T11:38:25Z</time></trkpt><trkpt lat="31.85155196518934" lon="-7.9961630588513515"><ele>565.0</ele><time>2026-04-23T11:38:26Z</time></trkpt><trkpt lat="31.851283453348636" lon="-7.996003365867856"><ele>565.0</ele><time>2026-04-23T11:38:27Z</time></trkpt><trkpt lat="31.85101154200591" lon="-7.995850251930552"><ele>565.0</ele><time>2026-04-23T11:38:28Z</time></trkpt><trkpt lat="31.85074156150745" lon="-7.9957034892245895"><ele>568.5</ele><time>2026-04-23T11:38:29Z</time></trkpt><trkpt lat="31.85047142512607" lon="-7.9955592502599035"><ele>572.0</ele><time>2026-04-23T11:38:30Z</time></trkpt><trkpt lat="31.850195324229283" lon="-7.995422766012646"><ele>569.5</ele><time>2026-04-23T11:38:31Z</time></trkpt><trkpt lat="31.84992111373468" lon="-7.995285753576881"><ele>567.0</ele><time>2026-04-23T11:38:32Z</time></trkpt><trkpt lat="31.849646103901684" lon="-7.995149962088653"><ele>567.0</ele><time>2026-04-23T11:38:33Z</time></trkpt><trkpt lat="31.849368661830518" lon="-7.995012337729161"><ele>567.0</ele><time>2026-04-23T11:38:34Z</time></trkpt><trkpt lat="31.849089569292474" lon="-7.994877534979676"><ele>571.5</ele><time>2026-04-23T11:38:35Z</time></trkpt><trkpt lat="31.84880321294691" lon="-7.994745218320866"><ele>576.0</ele><time>2026-04-23T11:38:36Z</time></trkpt><trkpt lat="31.848524985561316" lon="-7.994625248810385"><ele>574.5</ele><time>2026-04-23T11:38:37Z</time></trkpt><trkpt lat="31.848240828724695" lon="-7.994502307178493"><ele>573.0</ele><time>2026-04-23T11:38:38Z</time></trkpt><trkpt lat="31.847955540731572" lon="-7.9943795795606984"><ele>573.0</ele><time>2026-04-23T11:38:39Z</time></trkpt><trkpt lat="31.847674381259907" lon="-7.994256533587224"><ele>573.0</ele><time>2026-04-23T11:38:40Z</time></trkpt><trkpt lat="31.847388875715698" lon="-7.994141604567428"><ele>578.0</ele><time>2026-04-23T11:38:41Z</time></trkpt><trkpt lat="31.84710144546901" lon="-7.994027408576136"><ele>583.0</ele><time>2026-04-23T11:38:42Z</time></trkpt><trkpt lat="31.84681569520356" lon="-7.993916186609208"><ele>585.5</ele><time>2026-04-23T11:38:43Z</time></trkpt><trkpt lat="31.846524660369216" lon="-7.993803042565393"><ele>588.0</ele><time>2026-04-23T11:38:44Z</time></trkpt><trkpt lat="31.84623826730496" lon="-7.9936953798639205"><ele>583.0</ele><time>2026-04-23T11:38:45Z</time></trkpt><trkpt lat="31.8459524953214" lon="-7.993590480249909"><ele>578.0</ele><time>2026-04-23T11:38:46Z</time></trkpt><trkpt lat="31.845666145608096" lon="-7.993481655049225"><ele>578.0</ele><time>2026-04-23T11:38:47Z</time></trkpt><trkpt lat="31.845371760404454" lon="-7.993382199716062"><ele>578.0</ele><time>2026-04-23T11:38:48Z</time></trkpt><trkpt lat="31.84508549686297" lon="-7.9932825325156935"><ele>573.5</ele><time>2026-04-23T11:38:49Z</time></trkpt><trkpt lat="31.84479605051291" lon="-7.9931916941083765"><ele>569.0</ele><time>2026-04-23T11:38:50Z</time></trkpt><trkpt lat="31.844502916015017" lon="-7.9931003347671155"><ele>565.5</ele><time>2026-04-23T11:38:51Z</time></trkpt><trkpt lat="31.84421221911596" lon="-7.9930100397565305"><ele>562.0</ele><time>2026-04-23T11:38:52Z</time></trkpt><trkpt lat="31.843921852485128" lon="-7.992923219605137"><ele>562.0</ele><time>2026-04-23T11:38:53Z</time></trkpt><trkpt lat="31.84362794981424" lon="-7.992838699864646"><ele>562.0</ele><time>2026-04-23T11:38:54Z</time></trkpt><trkpt lat="31.84333465956556" lon="-7.992751905570994"><ele>560.0</ele><time>2026-04-23T11:38:55Z</time></trkpt><trkpt lat="31.843043723239056" lon="-7.992665962344299"><ele>558.0</ele><time>2026-04-23T11:38:56Z</time></trkpt><trkpt lat="31.84274675809614" lon="-7.992589637697895"><ele>557.0</ele><time>2026-04-23T11:38:57Z</time></trkpt><trkpt lat="31.84245218737949" lon="-7.992513002046005"><ele>556.0</ele><time>2026-04-23T11:38:58Z</time></trkpt><trkpt lat="31.842158221714325" lon="-7.992439112488728"><ele>554.5</ele><time>2026-04-23T11:38:59Z</time></trkpt><trkpt lat="31.841863878261464" lon="-7.9923717161194725"><ele>553.0</ele><time>2026-04-23T11:39:00Z</time></trkpt><trkpt lat="31.84157103765253" lon="-7.992307597382473"><ele>553.0</ele><time>2026-04-23T11:39:01Z</time></trkpt><trkpt lat="31.84127406078517" lon="-7.992239124178609"><ele>553.0</ele><time>2026-04-23T11:39:02Z</time></trkpt><trkpt lat="31.840976924312155" lon="-7.9921723519846095"><ele>552.5</ele><time>2026-04-23T11:39:03Z</time></trkpt><trkpt lat="31.84068023223793" lon="-7.992110411763134"><ele>552.0</ele><time>2026-04-23T11:39:04Z</time></trkpt><trkpt lat="31.840384193344857" lon="-7.99205384584921"><ele>552.5</ele><time>2026-04-23T11:39:05Z</time></trkpt><trkpt lat="31.84008946801494" lon="-7.991996708973074"><ele>553.0</ele><time>2026-04-23T11:39:06Z</time></trkpt><trkpt lat="31.839791600544945" lon="-7.991943387661863"><ele>553.0</ele><time>2026-04-23T11:39:07Z</time></trkpt><trkpt lat="31.83949161450346" lon="-7.991896849205592"><ele>553.0</ele><time>2026-04-23T11:39:08Z</time></trkpt><trkpt lat="31.839188226411594" lon="-7.991850401224599"><ele>553.0</ele><time>2026-04-23T11:39:09Z</time></trkpt><trkpt lat="31.838887816357392" lon="-7.9918057277299095"><ele>553.0</ele><time>2026-04-23T11:39:10Z</time></trkpt><trkpt lat="31.838587648776638" lon="-7.991757835321559"><ele>553.0</ele><time>2026-04-23T11:39:11Z</time></trkpt><trkpt lat="31.838288365676195" lon="-7.991719568783716"><ele>553.0</ele><time>2026-04-23T11:39:12Z</time></trkpt><trkpt lat="31.837988882498394" lon="-7.991685777069419"><ele>550.5</ele><time>2026-04-23T11:39:13Z</time></trkpt><trkpt lat="31.83768831018183" lon="-7.9916498081708305"><ele>548.0</ele><time>2026-04-23T11:39:14Z</time></trkpt><trkpt lat="31.83739020845931" lon="-7.9916172744546"><ele>548.0</ele><time>2026-04-23T11:39:15Z</time></trkpt><trkpt lat="31.837091430832327" lon="-7.991589819619631"><ele>548.0</ele><time>2026-04-23T11:39:16Z</time></trkpt><trkpt lat="31.836785740769276" lon="-7.991563878755055"><ele>550.0</ele><time>2026-04-23T11:39:17Z</time></trkpt><trkpt lat="31.836483946521156" lon="-7.991542288362508"><ele>552.0</ele><time>2026-04-23T11:39:18Z</time></trkpt><trkpt lat="31.83618076822934" lon="-7.9915188300268225"><ele>551.5</ele><time>2026-04-23T11:39:19Z</time></trkpt><trkpt lat="31.835880234306448" lon="-7.9914973308343065"><ele>551.0</ele><time>2026-04-23T11:39:20Z</time></trkpt><trkpt lat="31.835580206791153" lon="-7.991475498728448"><ele>551.0</ele><time>2026-04-23T11:39:21Z</time></trkpt><trkpt lat="31.83528166537321" lon="-7.991462648700881"><ele>551.0</ele><time>2026-04-23T11:39:22Z</time></trkpt><trkpt lat="31.834979503282177" lon="-7.991451752820702"><ele>548.0</ele><time>2026-04-23T11:39:23Z</time></trkpt><trkpt lat="31.834681563988788" lon="-7.991447327510863"><ele>545.0</ele><time>2026-04-23T11:39:24Z</time></trkpt><trkpt lat="31.834380137900823" lon="-7.991445731028391"><ele>543.0</ele><time>2026-04-23T11:39:25Z</time></trkpt><trkpt lat="31.83407608564586" lon="-7.991442192909779"><ele>541.0</ele><time>2026-04-23T11:39:26Z</time></trkpt><trkpt lat="31.83377018747199" lon="-7.991439680589491"><ele>539.5</ele><time>2026-04-23T11:39:27Z</time></trkpt><trkpt lat="31.833468092712312" lon="-7.9914410453389895"><ele>538.0</ele><time>2026-04-23T11:39:28Z</time></trkpt><trkpt lat="31.833165301144728" lon="-7.991447229798456"><ele>538.0</ele><time>2026-04-23T11:39:29Z</time></trkpt><trkpt lat="31.832861418665953" lon="-7.9914532998435766"><ele>538.0</ele><time>2026-04-23T11:39:30Z</time></trkpt><trkpt lat="31.83256382528633" lon="-7.991466093578993"><ele>536.5</ele><time>2026-04-23T11:39:31Z</time></trkpt><trkpt lat="31.83226373796282" lon="-7.991480613728872"><ele>535.0</ele><time>2026-04-23T11:39:32Z</time></trkpt><trkpt lat="31.831963003109042" lon="-7.991493756308459"><ele>533.0</ele><time>2026-04-23T11:39:33Z</time></trkpt><trkpt lat="31.83166087630107" lon="-7.991500856731974"><ele>531.0</ele><time>2026-04-23T11:39:34Z</time></trkpt><trkpt lat="31.831361117301633" lon="-7.991509543241205"><ele>531.0</ele><time>2026-04-23T11:39:35Z</time></trkpt><trkpt lat="31.83106309748243" lon="-7.991519749335879"><ele>531.0</ele><time>2026-04-23T11:39:36Z</time></trkpt><trkpt lat="31.830764019852104" lon="-7.991526969671327"><ele>528.5</ele><time>2026-04-23T11:39:37Z</time></trkpt><trkpt lat="31.83046615154736" lon="-7.991534469117682"><ele>526.0</ele><time>2026-04-23T11:39:38Z</time></trkpt><trkpt lat="31.830165823810294" lon="-7.991546558444067"><ele>526.0</ele><time>2026-04-23T11:39:39Z</time></trkpt><trkpt lat="31.829868187577954" lon="-7.991559968581182"><ele>526.0</ele><time>2026-04-23T11:39:40Z</time></trkpt><trkpt lat="31.82956658286674" lon="-7.991568848602629"><ele>525.5</ele><time>2026-04-23T11:39:41.001Z</time></trkpt><trkpt lat="31.829264982953323" lon="-7.991583069081078"><ele>525.0</ele><time>2026-04-23T11:39:42.001Z</time></trkpt><trkpt lat="31.82896352739538" lon="-7.991594506739358"><ele>525.0</ele><time>2026-04-23T11:39:43.001Z</time></trkpt><trkpt lat="31.828661548583515" lon="-7.991603751617381"><ele>525.0</ele><time>2026-04-23T11:39:44.001Z</time></trkpt><trkpt lat="31.828362251915603" lon="-7.991612074338465"><ele>524.5</ele><time>2026-04-23T11:39:45.001Z</time></trkpt><trkpt lat="31.82806142200591" lon="-7.9916207234911925"><ele>524.0</ele><time>2026-04-23T11:39:46.001Z</time></trkpt><trkpt lat="31.82776315190495" lon="-7.99163355884808"><ele>523.0</ele><time>2026-04-23T11:39:47.001Z</time></trkpt><trkpt lat="31.827463354049367" lon="-7.991642059440719"><ele>522.0</ele><time>2026-04-23T11:39:48.001Z</time></trkpt><trkpt lat="31.8271634152519" lon="-7.991651078725697"><ele>522.0</ele><time>2026-04-23T11:39:49.001Z</time></trkpt><trkpt lat="31.826864146166326" lon="-7.991658865227784"><ele>522.0</ele><time>2026-04-23T11:39:50.001Z</time></trkpt><trkpt lat="31.826565247645284" lon="-7.99166333770366"><ele>521.5</ele><time>2026-04-23T11:39:51.001Z</time></trkpt><trkpt lat="31.826266716852576" lon="-7.991665111605093"><ele>521.0</ele><time>2026-04-23T11:39:52.001Z</time></trkpt><trkpt lat="31.825967437784616" lon="-7.991654528288131"><ele>520.0</ele><time>2026-04-23T11:39:53.001Z</time></trkpt><trkpt lat="31.825671088966594" lon="-7.9916478068455925"><ele>519.0</ele><time>2026-04-23T11:39:54.001Z</time></trkpt><trkpt lat="31.825370720522645" lon="-7.9916337266490505"><ele>518.0</ele><time>2026-04-23T11:39:55.001Z</time></trkpt><trkpt lat="31.82507307691847" lon="-7.9916176976209705"><ele>517.0</ele><time>2026-04-23T11:39:56.001Z</time></trkpt><trkpt lat="31.824773679964782" lon="-7.991598488173073"><ele>517.0</ele><time>2026-04-23T11:39:57.001Z</time></trkpt><trkpt lat="31.824468613467946" lon="-7.9915719829205605"><ele>517.0</ele><time>2026-04-23T11:39:58.001Z</time></trkpt><trkpt lat="31.82417287505607" lon="-7.991544190296847"><ele>516.5</ele><time>2026-04-23T11:39:59.001Z</time></trkpt><trkpt lat="31.823875133313532" lon="-7.991518177584671"><ele>516.0</ele><time>2026-04-23T11:40:00.001Z</time></trkpt><trkpt lat="31.823575538545843" lon="-7.9914827532022805"><ele>515.0</ele><time>2026-04-23T11:40:01.001Z</time></trkpt><trkpt lat="31.82327649462459" lon="-7.99143910010975"><ele>514.0</ele><time>2026-04-23T11:40:02.001Z</time></trkpt><trkpt lat="31.822978587174067" lon="-7.991397198552282"><ele>514.0</ele><time>2026-04-23T11:40:03.001Z</time></trkpt><trkpt lat="31.82268173041009" lon="-7.991347457601208"><ele>514.0</ele><time>2026-04-23T11:40:04Z</time></trkpt><trkpt lat="31.82238324260892" lon="-7.9912882847534545"><ele>513.0</ele><time>2026-04-23T11:40:05Z</time></trkpt><trkpt lat="31.822089188117165" lon="-7.991232289228093"><ele>512.0</ele><time>2026-04-23T11:40:06Z</time></trkpt><trkpt lat="31.82179368725013" lon="-7.991177304214533"><ele>511.0</ele><time>2026-04-23T11:40:07Z</time></trkpt><trkpt lat="31.82149714605093" lon="-7.991115321987419"><ele>510.0</ele><time>2026-04-23T11:40:08Z</time></trkpt><trkpt lat="31.821204565182846" lon="-7.991052640798625"><ele>509.5</ele><time>2026-04-23T11:40:09Z</time></trkpt><trkpt lat="31.82090992163748" lon="-7.9909816799152695"><ele>509.0</ele><time>2026-04-23T11:40:10Z</time></trkpt><trkpt lat="31.82061528446561" lon="-7.9909135919782"><ele>509.5</ele><time>2026-04-23T11:40:11Z</time></trkpt><trkpt lat="31.820322813670668" lon="-7.990838850345413"><ele>510.0</ele><time>2026-04-23T11:40:12Z</time></trkpt><trkpt lat="31.820030325776564" lon="-7.990756759817707"><ele>509.0</ele><time>2026-04-23T11:40:13Z</time></trkpt><trkpt lat="31.819735772381733" lon="-7.990667538323851"><ele>508.0</ele><time>2026-04-23T11:40:14Z</time></trkpt><trkpt lat="31.81944679027946" lon="-7.990577502770727"><ele>508.0</ele><time>2026-04-23T11:40:15Z</time></trkpt><trkpt lat="31.819152652084334" lon="-7.990482018042092"><ele>508.0</ele><time>2026-04-23T11:40:16Z</time></trkpt><trkpt lat="31.818865155729977" lon="-7.990383488175203"><ele>508.0</ele><time>2026-04-23T11:40:17Z</time></trkpt><trkpt lat="31.81858018297065" lon="-7.990279751792918"><ele>508.0</ele><time>2026-04-23T11:40:18Z</time></trkpt><trkpt lat="31.818295503817428" lon="-7.990176973050769"><ele>508.5</ele><time>2026-04-23T11:40:19Z</time></trkpt><trkpt lat="31.81800832734807" lon="-7.990070821026999"><ele>509.0</ele><time>2026-04-23T11:40:20Z</time></trkpt><trkpt lat="31.817726430743264" lon="-7.989955959547524"><ele>507.0</ele><time>2026-04-23T11:40:21Z</time></trkpt><trkpt lat="31.817444096340964" lon="-7.989842828502624"><ele>505.0</ele><time>2026-04-23T11:40:22Z</time></trkpt><trkpt lat="31.81716020321066" lon="-7.9897274450542275"><ele>505.0</ele><time>2026-04-23T11:40:23Z</time></trkpt><trkpt lat="31.816878457583204" lon="-7.98961164140483"><ele>505.0</ele><time>2026-04-23T11:40:24Z</time></trkpt><trkpt lat="31.81659601990514" lon="-7.98948406938536"><ele>504.5</ele><time>2026-04-23T11:40:25Z</time></trkpt><trkpt lat="31.81631625574466" lon="-7.989360709502963"><ele>504.0</ele><time>2026-04-23T11:40:26Z</time></trkpt><trkpt lat="31.81603959589454" lon="-7.989229253517919"><ele>506.5</ele><time>2026-04-23T11:40:27Z</time></trkpt><trkpt lat="31.815764127171615" lon="-7.9890906612375625"><ele>509.0</ele><time>2026-04-23T11:40:28Z</time></trkpt><trkpt lat="31.81549102874574" lon="-7.988950351727662"><ele>509.0</ele><time>2026-04-23T11:40:29Z</time></trkpt><trkpt lat="31.81521715881444" lon="-7.9888091025254795"><ele>509.0</ele><time>2026-04-23T11:40:30Z</time></trkpt><trkpt lat="31.814943122960297" lon="-7.988662734377993"><ele>513.5</ele><time>2026-04-23T11:40:31Z</time></trkpt><trkpt lat="31.814673396193886" lon="-7.988512442590048"><ele>518.0</ele><time>2026-04-23T11:40:32Z</time></trkpt><trkpt lat="31.814403557275128" lon="-7.988356431962939"><ele>516.0</ele><time>2026-04-23T11:40:33Z</time></trkpt><trkpt lat="31.814136606764944" lon="-7.988195816696309"><ele>514.0</ele><time>2026-04-23T11:40:34Z</time></trkpt><trkpt lat="31.813868617666955" lon="-7.988034988875846"><ele>514.0</ele><time>2026-04-23T11:40:35Z</time></trkpt><trkpt lat="31.81360368134633" lon="-7.9878665595177525"><ele>514.0</ele><time>2026-04-23T11:40:36Z</time></trkpt><trkpt lat="31.81333841452413" lon="-7.987698856349913"><ele>512.5</ele><time>2026-04-23T11:40:37Z</time></trkpt><trkpt lat="31.8130735626607" lon="-7.9875295870330945"><ele>511.0</ele><time>2026-04-23T11:40:38Z</time></trkpt><trkpt lat="31.81280968789058" lon="-7.98735269308803"><ele>508.0</ele><time>2026-04-23T11:40:39Z</time></trkpt><trkpt lat="31.812546713739962" lon="-7.987174326323559"><ele>505.0</ele><time>2026-04-23T11:40:40Z</time></trkpt><trkpt lat="31.8122844224119" lon="-7.986996612818834"><ele>505.0</ele><time>2026-04-23T11:40:41Z</time></trkpt><trkpt lat="31.812022313253603" lon="-7.986820807123518"><ele>505.0</ele><time>2026-04-23T11:40:42Z</time></trkpt><trkpt lat="31.81176283845299" lon="-7.9866491677732885"><ele>503.5</ele><time>2026-04-23T11:40:43Z</time></trkpt><trkpt lat="31.81149233218134" lon="-7.986478813336194"><ele>502.0</ele><time>2026-04-23T11:40:44Z</time></trkpt><trkpt lat="31.811220322608264" lon="-7.9863175767718655"><ele>501.5</ele><time>2026-04-23T11:40:45Z</time></trkpt><trkpt lat="31.810952869692304" lon="-7.986158218157879"><ele>501.0</ele><time>2026-04-23T11:40:46Z</time></trkpt><trkpt lat="31.81068365624995" lon="-7.986002172262764"><ele>501.0</ele><time>2026-04-23T11:40:47Z</time></trkpt><trkpt lat="31.81041168576272" lon="-7.985852254422722"><ele>501.0</ele><time>2026-04-23T11:40:48Z</time></trkpt><trkpt lat="31.81013690898117" lon="-7.985707233181069"><ele>502.5</ele><time>2026-04-23T11:40:49Z</time></trkpt><trkpt lat="31.809862504435817" lon="-7.985560210628038"><ele>504.0</ele><time>2026-04-23T11:40:50Z</time></trkpt><trkpt lat="31.809583988952216" lon="-7.985419788090763"><ele>509.0</ele><time>2026-04-23T11:40:51Z</time></trkpt><trkpt lat="31.809303087997893" lon="-7.985281620353843"><ele>514.0</ele><time>2026-04-23T11:40:52Z</time></trkpt><trkpt lat="31.809023520048992" lon="-7.985144397264179"><ele>514.0</ele><time>2026-04-23T11:40:53Z</time></trkpt><trkpt lat="31.808742856513987" lon="-7.985018081092372"><ele>514.0</ele><time>2026-04-23T11:40:54Z</time></trkpt><trkpt lat="31.80846015708908" lon="-7.984887585699727"><ele>518.5</ele><time>2026-04-23T11:40:55Z</time></trkpt><trkpt lat="31.80818226985801" lon="-7.984767924976195"><ele>523.0</ele><time>2026-04-23T11:40:56Z</time></trkpt><trkpt lat="31.80789866120207" lon="-7.984652314543756"><ele>520.0</ele><time>2026-04-23T11:40:57Z</time></trkpt><trkpt lat="31.80761310127467" lon="-7.984536426006601"><ele>517.0</ele><time>2026-04-23T11:40:58Z</time></trkpt><trkpt lat="31.807326050302102" lon="-7.984423191782283"><ele>517.0</ele><time>2026-04-23T11:40:59Z</time></trkpt><trkpt lat="31.80703871688655" lon="-7.984315707779996"><ele>517.0</ele><time>2026-04-23T11:41:00Z</time></trkpt><trkpt lat="31.806752928682865" lon="-7.984215045935269"><ele>510.0</ele><time>2026-04-23T11:41:01Z</time></trkpt><trkpt lat="31.806464907590552" lon="-7.984117370447662"><ele>503.0</ele><time>2026-04-23T11:41:02Z</time></trkpt><trkpt lat="31.806177974642235" lon="-7.984025596744403"><ele>503.0</ele><time>2026-04-23T11:41:03Z</time></trkpt><trkpt lat="31.805886803778602" lon="-7.983933589009925"><ele>503.0</ele><time>2026-04-23T11:41:04Z</time></trkpt><trkpt lat="31.805595577998538" lon="-7.9838422165132155"><ele>503.0</ele><time>2026-04-23T11:41:05Z</time></trkpt><trkpt lat="31.805303944152335" lon="-7.9837580982591305"><ele>503.0</ele><time>2026-04-23T11:41:06Z</time></trkpt><trkpt lat="31.80501475370857" lon="-7.983676574003257"><ele>501.0</ele><time>2026-04-23T11:41:07Z</time></trkpt><trkpt lat="31.80472045926881" lon="-7.98359862211601"><ele>499.0</ele><time>2026-04-23T11:41:08Z</time></trkpt><trkpt lat="31.80442608834579" lon="-7.983522301565305"><ele>497.5</ele><time>2026-04-23T11:41:09Z</time></trkpt><trkpt lat="31.8041318748183" lon="-7.983451765858976"><ele>496.0</ele><time>2026-04-23T11:41:10Z</time></trkpt><trkpt lat="31.803837152763066" lon="-7.983389131662361"><ele>497.0</ele><time>2026-04-23T11:41:11Z</time></trkpt><trkpt lat="31.803539426546386" lon="-7.983331391699974"><ele>498.0</ele><time>2026-04-23T11:41:12Z</time></trkpt><trkpt lat="31.803239003253314" lon="-7.983273672666942"><ele>499.0</ele><time>2026-04-23T11:41:13Z</time></trkpt><trkpt lat="31.802942416004445" lon="-7.983219113492555"><ele>500.0</ele><time>2026-04-23T11:41:14Z</time></trkpt><trkpt lat="31.802647548408547" lon="-7.983171272451829"><ele>500.5</ele><time>2026-04-23T11:41:15Z</time></trkpt><trkpt lat="31.802350389137175" lon="-7.983124893557602"><ele>501.0</ele><time>2026-04-23T11:41:16Z</time></trkpt><trkpt lat="31.80205086077034" lon="-7.983074702767453"><ele>499.0</ele><time>2026-04-23T11:41:17Z</time></trkpt><trkpt lat="31.801751453264377" lon="-7.9830350240964245"><ele>497.0</ele><time>2026-04-23T11:41:18Z</time></trkpt><trkpt lat="31.801453196803553" lon="-7.98299919288735"><ele>497.0</ele><time>2026-04-23T11:41:19Z</time></trkpt><trkpt lat="31.801153416804894" lon="-7.982965399588205"><ele>497.0</ele><time>2026-04-23T11:41:20Z</time></trkpt><trkpt lat="31.800852617948138" lon="-7.9829403505038465"><ele>496.0</ele><time>2026-04-23T11:41:21Z</time></trkpt><trkpt lat="31.800552785843486" lon="-7.982919526019271"><ele>495.0</ele><time>2026-04-23T11:41:22Z</time></trkpt><trkpt lat="31.80024971814834" lon="-7.982900468139023"><ele>494.0</ele><time>2026-04-23T11:41:23Z</time></trkpt><trkpt lat="31.79994596394354" lon="-7.982882391486744"><ele>493.0</ele><time>2026-04-23T11:41:24Z</time></trkpt><trkpt lat="31.79964688098105" lon="-7.982872281765674"><ele>493.0</ele><time>2026-04-23T11:41:25Z</time></trkpt><trkpt lat="31.79934611509301" lon="-7.982865678791468"><ele>493.0</ele><time>2026-04-23T11:41:26Z</time></trkpt><trkpt lat="31.79904432728361" lon="-7.982864116992072"><ele>491.5</ele><time>2026-04-23T11:41:27Z</time></trkpt><trkpt lat="31.79874399746082" lon="-7.982867678865475"><ele>490.0</ele><time>2026-04-23T11:41:28Z</time></trkpt><trkpt lat="31.79844592632291" lon="-7.982873002937233"><ele>488.5</ele><time>2026-04-23T11:41:29Z</time></trkpt><trkpt lat="31.79814365746207" lon="-7.9828787180538825"><ele>487.0</ele><time>2026-04-23T11:41:30Z</time></trkpt><trkpt lat="31.797843145842577" lon="-7.9828899729881435"><ele>487.0</ele><time>2026-04-23T11:41:31Z</time></trkpt><trkpt lat="31.797542243216363" lon="-7.982909646901119"><ele>487.0</ele><time>2026-04-23T11:41:32Z</time></trkpt><trkpt lat="31.797243366440085" lon="-7.982928262964451"><ele>487.0</ele><time>2026-04-23T11:41:33Z</time></trkpt><trkpt lat="31.796944243191717" lon="-7.982949484445093"><ele>487.0</ele><time>2026-04-23T11:41:34Z</time></trkpt><trkpt lat="31.796645834329528" lon="-7.982979095033841"><ele>486.5</ele><time>2026-04-23T11:41:35Z</time></trkpt><trkpt lat="31.796348920641123" lon="-7.983009514897094"><ele>486.0</ele><time>2026-04-23T11:41:36Z</time></trkpt><trkpt lat="31.7960474980232" lon="-7.983039932399173"><ele>484.5</ele><time>2026-04-23T11:41:37Z</time></trkpt><trkpt lat="31.795745999265204" lon="-7.983071607122737"><ele>483.0</ele><time>2026-04-23T11:41:38Z</time></trkpt><trkpt lat="31.795448302944834" lon="-7.9831084716911"><ele>483.0</ele><time>2026-04-23T11:41:39Z</time></trkpt><trkpt lat="31.795150940937173" lon="-7.983141467900142"><ele>483.0</ele><time>2026-04-23T11:41:40Z</time></trkpt><trkpt lat="31.794849409722882" lon="-7.983175014467293"><ele>483.0</ele><time>2026-04-23T11:41:41Z</time></trkpt><trkpt lat="31.79454874804548" lon="-7.983202438792088"><ele>483.0</ele><time>2026-04-23T11:41:42Z</time></trkpt><trkpt lat="31.794246269223084" lon="-7.983232356761524"><ele>482.0</ele><time>2026-04-23T11:41:43Z</time></trkpt><trkpt lat="31.793946444465806" lon="-7.983263646605376"><ele>481.0</ele><time>2026-04-23T11:41:44Z</time></trkpt><trkpt lat="31.79364811550415" lon="-7.98329556143486"><ele>481.0</ele><time>2026-04-23T11:41:45Z</time></trkpt><trkpt lat="31.793346432474316" lon="-7.983329590314726"><ele>481.0</ele><time>2026-04-23T11:41:46Z</time></trkpt><trkpt lat="31.79304532805111" lon="-7.9833631246198316"><ele>481.5</ele><time>2026-04-23T11:41:47.001Z</time></trkpt><trkpt lat="31.792745719668467" lon="-7.983396774344446"><ele>482.0</ele><time>2026-04-23T11:41:48.001Z</time></trkpt><trkpt lat="31.79244473268107" lon="-7.983427643981727"><ele>482.0</ele><time>2026-04-23T11:41:49.001Z</time></trkpt><trkpt lat="31.79214509599627" lon="-7.98345755977897"><ele>482.0</ele><time>2026-04-23T11:41:50.001Z</time></trkpt><trkpt lat="31.791843725775788" lon="-7.983490737055294"><ele>481.0</ele><time>2026-04-23T11:41:51.001Z</time></trkpt><trkpt lat="31.79154527176684" lon="-7.9835252553341975"><ele>480.0</ele><time>2026-04-23T11:41:52.001Z</time></trkpt><trkpt lat="31.791245243032186" lon="-7.983556595976047"><ele>479.5</ele><time>2026-04-23T11:41:53.001Z</time></trkpt><trkpt lat="31.790943164910605" lon="-7.983589103758135"><ele>479.0</ele><time>2026-04-23T11:41:54.001Z</time></trkpt><trkpt lat="31.790643511950993" lon="-7.983619718674565"><ele>479.0</ele><time>2026-04-23T11:41:55.001Z</time></trkpt><trkpt lat="31.790344451146318" lon="-7.983650691163946"><ele>479.0</ele><time>2026-04-23T11:41:56.001Z</time></trkpt><trkpt lat="31.79004536913998" lon="-7.983682368188042"><ele>479.0</ele><time>2026-04-23T11:41:57.001Z</time></trkpt><trkpt lat="31.789743588629563" lon="-7.98371167520079"><ele>479.0</ele><time>2026-04-23T11:41:58.001Z</time></trkpt><trkpt lat="31.789441841544615" lon="-7.9837433844728585"><ele>477.5</ele><time>2026-04-23T11:41:59.001Z</time></trkpt><trkpt lat="31.789143017027477" lon="-7.983774223273846"><ele>476.0</ele><time>2026-04-23T11:42:00.001Z</time></trkpt><trkpt lat="31.788840681296694" lon="-7.983804360140262"><ele>476.0</ele><time>2026-04-23T11:42:01.001Z</time></trkpt><trkpt lat="31.78854067114182" lon="-7.983832911740471"><ele>476.0</ele><time>2026-04-23T11:42:02.001Z</time></trkpt><trkpt lat="31.788240921483126" lon="-7.983860586341012"><ele>475.0</ele><time>2026-04-23T11:42:03.001Z</time></trkpt><trkpt lat="31.787945495508623" lon="-7.9838864942281385"><ele>474.0</ele><time>2026-04-23T11:42:04.001Z</time></trkpt><trkpt lat="31.78764473381282" lon="-7.983910004717309"><ele>473.5</ele><time>2026-04-23T11:42:05.001Z</time></trkpt><trkpt lat="31.787349930092635" lon="-7.98392161995021"><ele>473.0</ele><time>2026-04-23T11:42:06.001Z</time></trkpt><trkpt lat="31.78704772325049" lon="-7.983937360127947"><ele>472.5</ele><time>2026-04-23T11:42:07.001Z</time></trkpt><trkpt lat="31.786745650955407" lon="-7.98395179082025"><ele>472.0</ele><time>2026-04-23T11:42:08.001Z</time></trkpt><trkpt lat="31.786445811819593" lon="-7.983966560060523"><ele>472.0</ele><time>2026-04-23T11:42:09.001Z</time></trkpt><trkpt lat="31.786145494945842" lon="-7.983974132416928"><ele>472.0</ele><time>2026-04-23T11:42:10.001Z</time></trkpt><trkpt lat="31.785846086840756" lon="-7.983983215048011"><ele>471.5</ele><time>2026-04-23T11:42:11.001Z</time></trkpt><trkpt lat="31.785547898995464" lon="-7.98398936298128"><ele>471.0</ele><time>2026-04-23T11:42:12.001Z</time></trkpt><trkpt lat="31.785249230069063" lon="-7.98399272933071"><ele>470.5</ele><time>2026-04-23T11:42:13.001Z</time></trkpt><trkpt lat="31.784953544287845" lon="-7.983989931548752"><ele>470.0</ele><time>2026-04-23T11:42:14.001Z</time></trkpt><trkpt lat="31.78466161270128" lon="-7.98399362447873"><ele>470.0</ele><time>2026-04-23T11:42:15.001Z</time></trkpt><trkpt lat="31.784375187308655" lon="-7.9839899261199445"><ele>470.0</ele><time>2026-04-23T11:42:16.001Z</time></trkpt><trkpt lat="31.784090399991904" lon="-7.983980829563949"><ele>470.0</ele><time>2026-04-23T11:42:17.001Z</time></trkpt><trkpt lat="31.78380102088099" lon="-7.983968283183557"><ele>470.0</ele><time>2026-04-23T11:42:18.001Z</time></trkpt><trkpt lat="31.783518126346916" lon="-7.983956990284225"><ele>470.5</ele><time>2026-04-23T11:42:19.001Z</time></trkpt><trkpt lat="31.783227966816224" lon="-7.9839376711008425"><ele>471.0</ele><time>2026-04-23T11:42:20.001Z</time></trkpt><trkpt lat="31.782929024355774" lon="-7.983919724667331"><ele>469.5</ele><time>2026-04-23T11:42:21.001Z</time></trkpt><trkpt lat="31.782629534313468" lon="-7.983897269024998"><ele>468.0</ele><time>2026-04-23T11:42:22.001Z</time></trkpt><trkpt lat="31.782330813477387" lon="-7.983876524615889"><ele>468.0</ele><time>2026-04-23T11:42:23.001Z</time></trkpt><trkpt lat="31.782034582623027" lon="-7.983856847495967"><ele>468.0</ele><time>2026-04-23T11:42:24.001Z</time></trkpt><trkpt lat="31.781749290522008" lon="-7.983835539475474"><ele>467.5</ele><time>2026-04-23T11:42:25.001Z</time></trkpt><trkpt lat="31.781465103869596" lon="-7.983818911351788"><ele>467.0</ele><time>2026-04-23T11:42:26.001Z</time></trkpt><trkpt lat="31.781194731361076" lon="-7.9838010449446655"><ele>467.5</ele><time>2026-04-23T11:42:27.001Z</time></trkpt><trkpt lat="31.780921597525367" lon="-7.9837827152189"><ele>468.0</ele><time>2026-04-23T11:42:28.001Z</time></trkpt><trkpt lat="31.78065507010231" lon="-7.983760771856804"><ele>468.0</ele><time>2026-04-23T11:42:29.001Z</time></trkpt><trkpt lat="31.780397535847836" lon="-7.983734221478765"><ele>468.0</ele><time>2026-04-23T11:42:30.001Z</time></trkpt><trkpt lat="31.78014915153669" lon="-7.983702999065227"><ele>467.5</ele><time>2026-04-23T11:42:31.001Z</time></trkpt><trkpt lat="31.77990732388599" lon="-7.983673357299536"><ele>467.0</ele><time>2026-04-23T11:42:32.001Z</time></trkpt><trkpt lat="31.77967395348555" lon="-7.983646982837669"><ele>467.0</ele><time>2026-04-23T11:42:33.001Z</time></trkpt><trkpt lat="31.779445009650665" lon="-7.983621701537197"><ele>467.0</ele><time>2026-04-23T11:42:34.001Z</time></trkpt><trkpt lat="31.77922019229562" lon="-7.983594328758232"><ele>466.66666666666663</ele><time>2026-04-23T11:42:35.001Z</time></trkpt><trkpt lat="31.779002410273026" lon="-7.983571315333304"><ele>466.33333333333337</ele><time>2026-04-23T11:42:36.001Z</time></trkpt><trkpt lat="31.778790991474384" lon="-7.9835518280191335"><ele>466.0</ele><time>2026-04-23T11:42:37Z</time></trkpt><trkpt lat="31.77858841627305" lon="-7.983530604214614"><ele>465.33333333333337</ele><time>2026-04-23T11:42:38Z</time></trkpt><trkpt lat="31.778395789214898" lon="-7.983508011401077"><ele>464.66666666666663</ele><time>2026-04-23T11:42:39Z</time></trkpt><trkpt lat="31.778209552613294" lon="-7.983486642031458"><ele>464.0</ele><time>2026-04-23T11:42:40Z</time></trkpt><trkpt lat="31.778041721455338" lon="-7.98344949882821"><ele>464.0</ele><time>2026-04-23T11:42:41Z</time></trkpt><trkpt lat="31.77787987019637" lon="-7.983418480590432"><ele>464.0</ele><time>2026-04-23T11:42:42Z</time></trkpt><trkpt lat="31.77773059942284" lon="-7.983389873361722"><ele>464.0</ele><time>2026-04-23T11:42:43Z</time></trkpt><trkpt lat="31.77759232381361" lon="-7.983363716011705"><ele>463.6</ele><time>2026-04-23T11:42:44Z</time></trkpt><trkpt lat="31.777467396724887" lon="-7.983340244634839"><ele>463.2</ele><time>2026-04-23T11:42:45Z</time></trkpt><trkpt lat="31.777349167978578" lon="-7.98331804077471"><ele>462.80000000000007</ele><time>2026-04-23T11:42:46Z</time></trkpt><trkpt lat="31.777244946416435" lon="-7.983298619148024"><ele>462.40000000000003</ele><time>2026-04-23T11:42:47Z</time></trkpt><trkpt lat="31.77715577028357" lon="-7.983282001226894"><ele>462.0</ele><time>2026-04-23T11:42:48Z</time></trkpt><trkpt lat="31.777080058731944" lon="-7.983267892422297"><ele>462.0</ele><time>2026-04-23T11:42:49Z</time></trkpt><trkpt lat="31.77701774174548" lon="-7.9832562796861275"><ele>462.0</ele><time>2026-04-23T11:42:50Z</time></trkpt><trkpt lat="31.77691998621269" lon="-7.983238063002337"><ele>462.0</ele><time>2026-04-23T11:42:52Z</time></trkpt><trkpt lat="31.776856039106317" lon="-7.983226146495233"><ele>462.0</ele><time>2026-04-23T11:42:55Z</time></trkpt><trkpt lat="31.77675756765899" lon="-7.98320750632132"><ele>462.0</ele><time>2026-04-23T11:44:03.001Z</time></trkpt><trkpt lat="31.77665824885882" lon="-7.983187650048929"><ele>462.0</ele><time>2026-04-23T11:44:05.001Z</time></trkpt><trkpt lat="31.77654761930351" lon="-7.983165532471951"><ele>462.6</ele><time>2026-04-23T11:44:07.001Z</time></trkpt><trkpt lat="31.776428394368338" lon="-7.983141696468136"><ele>463.20000000000005</ele><time>2026-04-23T11:44:09.001Z</time></trkpt><trkpt lat="31.776310619643642" lon="-7.98311815041435"><ele>463.8</ele><time>2026-04-23T11:44:11.001Z</time></trkpt><trkpt lat="31.776197248244195" lon="-7.983095484680023"><ele>464.4</ele><time>2026-04-23T11:44:13.001Z</time></trkpt><trkpt lat="31.7761084704539" lon="-7.983069389908157"><ele>465.0</ele><time>2026-04-23T11:44:15.001Z</time></trkpt><trkpt lat="31.77603684589464" lon="-7.983050746935295"><ele>464.6666666666667</ele><time>2026-04-23T11:44:17.001Z</time></trkpt><trkpt lat="31.775960901743954" lon="-7.98311393957156"><ele>464.33333333333337</ele><time>2026-04-23T11:44:20.001Z</time></trkpt><trkpt lat="31.77589672452382" lon="-7.983085322892239"><ele>464.0</ele><time>2026-04-23T11:45:19Z</time></trkpt><trkpt lat="31.77579272705088" lon="-7.983030180308781"><ele>463.6666666666667</ele><time>2026-04-23T11:45:21Z</time></trkpt><trkpt lat="31.775726190306358" lon="-7.98299617149304"><ele>463.33333333333337</ele><time>2026-04-23T11:45:22Z</time></trkpt><trkpt lat="31.775660456388763" lon="-7.9829629197597125"><ele>463.0</ele><time>2026-04-23T11:45:23Z</time></trkpt><trkpt lat="31.775596673786797" lon="-7.982932005447242"><ele>463.00000000000006</ele><time>2026-04-23T11:45:24Z</time></trkpt><trkpt lat="31.775535301046922" lon="-7.982902108286653"><ele>463.0</ele><time>2026-04-23T11:45:25Z</time></trkpt><trkpt lat="31.775475857413404" lon="-7.982875990576769"><ele>463.0</ele><time>2026-04-23T11:45:26Z</time></trkpt><trkpt lat="31.77535783531535" lon="-7.982831371264094"><ele>463.0</ele><time>2026-04-23T11:45:28Z</time></trkpt><trkpt lat="31.775238264609587" lon="-7.982789623868529"><ele>463.00000000000006</ele><time>2026-04-23T11:45:30Z</time></trkpt><trkpt lat="31.7751749935149" lon="-7.982768535421684"><ele>463.0</ele><time>2026-04-23T11:45:31Z</time></trkpt><trkpt lat="31.775113358768067" lon="-7.982752710537937"><ele>462.4</ele><time>2026-04-23T11:45:32Z</time></trkpt><trkpt lat="31.774990170897" lon="-7.98272176948203"><ele>461.79999999999995</ele><time>2026-04-23T11:45:34Z</time></trkpt><trkpt lat="31.774880675506505" lon="-7.982689821590187"><ele>461.2</ele><time>2026-04-23T11:45:36Z</time></trkpt><trkpt lat="31.774781235190463" lon="-7.982661114484262"><ele>460.6</ele><time>2026-04-23T11:45:38Z</time></trkpt><trkpt lat="31.774703708211806" lon="-7.98263788357947"><ele>460.0</ele><time>2026-04-23T11:45:40Z</time></trkpt><trkpt lat="31.774631578887085" lon="-7.982614544549709"><ele>460.00000000000006</ele><time>2026-04-23T11:45:43Z</time></trkpt><trkpt lat="31.77456815904925" lon="-7.982602842239708"><ele>460.0</ele><time>2026-04-23T11:45:45Z</time></trkpt><trkpt lat="31.774456888093713" lon="-7.982562930869338"><ele>460.0</ele><time>2026-04-23T11:45:47Z</time></trkpt><trkpt lat="31.774387727473623" lon="-7.982541449642257"><ele>460.0</ele><time>2026-04-23T11:45:48Z</time></trkpt><trkpt lat="31.774313213323545" lon="-7.98251929156976"><ele>460.00000000000006</ele><time>2026-04-23T11:45:49Z</time></trkpt><trkpt lat="31.774226918828237" lon="-7.982492984449991"><ele>460.0</ele><time>2026-04-23T11:45:50Z</time></trkpt><trkpt lat="31.774135052283313" lon="-7.9824650590297646"><ele>460.4</ele><time>2026-04-23T11:45:51Z</time></trkpt><trkpt lat="31.77403938540308" lon="-7.982438815319683"><ele>460.8</ele><time>2026-04-23T11:45:52Z</time></trkpt><trkpt lat="31.773938999749703" lon="-7.982410603644025"><ele>461.20000000000005</ele><time>2026-04-23T11:45:53Z</time></trkpt><trkpt lat="31.77383582243981" lon="-7.982379616334517"><ele>461.6</ele><time>2026-04-23T11:45:54Z</time></trkpt><trkpt lat="31.773732022008556" lon="-7.982350127807605"><ele>462.0</ele><time>2026-04-23T11:45:55Z</time></trkpt><trkpt lat="31.773624629068802" lon="-7.982320303863261"><ele>461.75</ele><time>2026-04-23T11:45:56Z</time></trkpt><trkpt lat="31.773515029373424" lon="-7.982291520963446"><ele>461.5</ele><time>2026-04-23T11:45:57Z</time></trkpt><trkpt lat="31.773399646174557" lon="-7.982260482401654"><ele>461.25</ele><time>2026-04-23T11:45:58.001Z</time></trkpt><trkpt lat="31.773281891461245" lon="-7.982227545406861"><ele>461.0</ele><time>2026-04-23T11:45:59.001Z</time></trkpt><trkpt lat="31.77316206265228" lon="-7.982190926437459"><ele>461.0</ele><time>2026-04-23T11:46:00.001Z</time></trkpt><trkpt lat="31.77303755061065" lon="-7.982152634207013"><ele>461.0</ele><time>2026-04-23T11:46:01.001Z</time></trkpt><trkpt lat="31.772912650571463" lon="-7.982115208483681"><ele>461.0</ele><time>2026-04-23T11:46:02.001Z</time></trkpt><trkpt lat="31.772785976557895" lon="-7.982076381213088"><ele>461.0</ele><time>2026-04-23T11:46:03.001Z</time></trkpt><trkpt lat="31.772656469266277" lon="-7.982035467905086"><ele>460.25</ele><time>2026-04-23T11:46:04.001Z</time></trkpt><trkpt lat="31.772523871647024" lon="-7.981995649384855"><ele>459.5</ele><time>2026-04-23T11:46:05.001Z</time></trkpt><trkpt lat="31.77238860466118" lon="-7.981953953357382"><ele>458.75</ele><time>2026-04-23T11:46:06.001Z</time></trkpt><trkpt lat="31.77225128953229" lon="-7.981910298289025"><ele>458.0</ele><time>2026-04-23T11:46:07.001Z</time></trkpt><trkpt lat="31.77210911067477" lon="-7.981861881714659"><ele>458.0</ele><time>2026-04-23T11:46:08.001Z</time></trkpt><trkpt lat="31.771964007294727" lon="-7.981813922476621"><ele>458.0</ele><time>2026-04-23T11:46:09.001Z</time></trkpt><trkpt lat="31.771818751278335" lon="-7.981767104526848"><ele>458.0</ele><time>2026-04-23T11:46:10.001Z</time></trkpt><trkpt lat="31.771673992522654" lon="-7.981720029810555"><ele>457.5</ele><time>2026-04-23T11:46:11.001Z</time></trkpt><trkpt lat="31.771533750465714" lon="-7.981673282050238"><ele>457.0</ele><time>2026-04-23T11:46:12.001Z</time></trkpt><trkpt lat="31.771398064048796" lon="-7.981629257399568"><ele>456.5</ele><time>2026-04-23T11:46:13.001Z</time></trkpt><trkpt lat="31.771267383583577" lon="-7.981586939775294"><ele>456.0</ele><time>2026-04-23T11:46:14.001Z</time></trkpt><trkpt lat="31.77113623165871" lon="-7.981545827088746"><ele>455.75</ele><time>2026-04-23T11:46:15.001Z</time></trkpt><trkpt lat="31.77101018990484" lon="-7.981508201331191"><ele>455.5</ele><time>2026-04-23T11:46:16.001Z</time></trkpt><trkpt lat="31.770887626146923" lon="-7.981471118034921"><ele>455.25</ele><time>2026-04-23T11:46:17.001Z</time></trkpt><trkpt lat="31.77076896919619" lon="-7.981433051281401"><ele>455.0</ele><time>2026-04-23T11:46:18.001Z</time></trkpt><trkpt lat="31.77065850783411" lon="-7.981397453458221"><ele>455.0</ele><time>2026-04-23T11:46:19.001Z</time></trkpt><trkpt lat="31.770551648155713" lon="-7.981365762296861"><ele>455.0</ele><time>2026-04-23T11:46:20Z</time></trkpt><trkpt lat="31.770459119615474" lon="-7.98134143211102"><ele>455.0</ele><time>2026-04-23T11:46:21Z</time></trkpt><trkpt lat="31.770377852640536" lon="-7.981325016260755"><ele>455.0</ele><time>2026-04-23T11:46:22Z</time></trkpt><trkpt lat="31.770309072726068" lon="-7.981322427369167"><ele>455.0</ele><time>2026-04-23T11:46:23Z</time></trkpt><trkpt lat="31.77020294817083" lon="-7.981341871561857"><ele>454.99999999999994</ele><time>2026-04-23T11:46:25Z</time></trkpt><trkpt lat="31.770090557126732" lon="-7.981379283387549"><ele>455.0</ele><time>2026-04-23T11:46:27Z</time></trkpt><trkpt lat="31.77001827905686" lon="-7.981396408134238"><ele>455.0</ele><time>2026-04-23T11:46:28Z</time></trkpt><trkpt lat="31.76994078895055" lon="-7.981416032488802"><ele>455.0</ele><time>2026-04-23T11:46:29Z</time></trkpt><trkpt lat="31.7698568605213" lon="-7.981392508763797"><ele>454.99999999999994</ele><time>2026-04-23T11:46:30Z</time></trkpt><trkpt lat="31.769791183245413" lon="-7.981319158989308"><ele>455.0</ele><time>2026-04-23T11:46:31Z</time></trkpt><trkpt lat="31.769719250655186" lon="-7.9812627336693325"><ele>455.0</ele><time>2026-04-23T11:46:32Z</time></trkpt><trkpt lat="31.76964713292159" lon="-7.981191880817014"><ele>455.0</ele><time>2026-04-23T11:46:33Z</time></trkpt><trkpt lat="31.76957016041689" lon="-7.981122720914551"><ele>455.0</ele><time>2026-04-23T11:46:34Z</time></trkpt><trkpt lat="31.769473565910477" lon="-7.981079436653375"><ele>455.0</ele><time>2026-04-23T11:46:35Z</time></trkpt><trkpt lat="31.76937462274595" lon="-7.981043955186567"><ele>455.0</ele><time>2026-04-23T11:46:36Z</time></trkpt><trkpt lat="31.769284697838334" lon="-7.981023703827071"><ele>454.99999999999994</ele><time>2026-04-23T11:46:37Z</time></trkpt><trkpt lat="31.769200022618133" lon="-7.980999533845755"><ele>455.0</ele><time>2026-04-23T11:46:38Z</time></trkpt><trkpt lat="31.76912301139858" lon="-7.980977727853293"><ele>455.0</ele><time>2026-04-23T11:46:39Z</time></trkpt><trkpt lat="31.769057538356453" lon="-7.980957244443101"><ele>455.0</ele><time>2026-04-23T11:46:40Z</time></trkpt><trkpt lat="31.768962506620454" lon="-7.980931584169394"><ele>454.99999999999994</ele><time>2026-04-23T11:46:42Z</time></trkpt><trkpt lat="31.768894641915406" lon="-7.980907823210438"><ele>455.0</ele><time>2026-04-23T11:47:39Z</time></trkpt><trkpt lat="31.76880222011424" lon="-7.980877931213245"><ele>455.8</ele><time>2026-04-23T11:47:42Z</time></trkpt><trkpt lat="31.768680950665576" lon="-7.980836739665023"><ele>456.6</ele><time>2026-04-23T11:47:44Z</time></trkpt><trkpt lat="31.768601831571495" lon="-7.980815199968657"><ele>457.4</ele><time>2026-04-23T11:47:45Z</time></trkpt><trkpt lat="31.768516241432938" lon="-7.980787854482233"><ele>458.2</ele><time>2026-04-23T11:47:46Z</time></trkpt><trkpt lat="31.768427689050476" lon="-7.980761647898605"><ele>459.0</ele><time>2026-04-23T11:47:47Z</time></trkpt><trkpt lat="31.768331627247623" lon="-7.980727400815953"><ele>459.0</ele><time>2026-04-23T11:47:48Z</time></trkpt><trkpt lat="31.76822603553182" lon="-7.980692441456947"><ele>459.0</ele><time>2026-04-23T11:47:49Z</time></trkpt><trkpt lat="31.768112754543633" lon="-7.980656801255391"><ele>459.0</ele><time>2026-04-23T11:47:50Z</time></trkpt><trkpt lat="31.76799144487851" lon="-7.980621383288352"><ele>459.0</ele><time>2026-04-23T11:47:51Z</time></trkpt><trkpt lat="31.767862344138194" lon="-7.980588602895282"><ele>459.0</ele><time>2026-04-23T11:47:52Z</time></trkpt><trkpt lat="31.767728464687835" lon="-7.980555773807133"><ele>459.0</ele><time>2026-04-23T11:47:53Z</time></trkpt><trkpt lat="31.767592066778917" lon="-7.980519603235944"><ele>459.0</ele><time>2026-04-23T11:47:54Z</time></trkpt><trkpt lat="31.767449290199313" lon="-7.980481267463186"><ele>459.0</ele><time>2026-04-23T11:47:55Z</time></trkpt><trkpt lat="31.767300423216632" lon="-7.980438748025926"><ele>458.66666666666663</ele><time>2026-04-23T11:47:56Z</time></trkpt><trkpt lat="31.767146805058232" lon="-7.980393438341388"><ele>458.3333333333333</ele><time>2026-04-23T11:47:57Z</time></trkpt><trkpt lat="31.76699010490326" lon="-7.98034833538295"><ele>458.0</ele><time>2026-04-23T11:47:58Z</time></trkpt><trkpt lat="31.766830857331144" lon="-7.98030028710496"><ele>457.3333333333333</ele><time>2026-04-23T11:47:59Z</time></trkpt><trkpt lat="31.766667375279447" lon="-7.9802534456306695"><ele>456.66666666666663</ele><time>2026-04-23T11:48:00Z</time></trkpt><trkpt lat="31.76650036870051" lon="-7.980206328275046"><ele>456.0</ele><time>2026-04-23T11:48:01Z</time></trkpt><trkpt lat="31.766331045626053" lon="-7.980157014351961"><ele>456.0</ele><time>2026-04-23T11:48:02Z</time></trkpt><trkpt lat="31.76616075982372" lon="-7.980106362494806"><ele>456.0</ele><time>2026-04-23T11:48:03Z</time></trkpt><trkpt lat="31.76599276919377" lon="-7.9800568849456175"><ele>456.0</ele><time>2026-04-23T11:48:04Z</time></trkpt><trkpt lat="31.765823826376415" lon="-7.98000749784313"><ele>455.33333333333337</ele><time>2026-04-23T11:48:05Z</time></trkpt><trkpt lat="31.76565178125547" lon="-7.979957219784866"><ele>454.6666666666667</ele><time>2026-04-23T11:48:06Z</time></trkpt><trkpt lat="31.765477877628932" lon="-7.9799075471995025"><ele>454.0</ele><time>2026-04-23T11:48:07Z</time></trkpt><trkpt lat="31.765301609013783" lon="-7.9798583953286855"><ele>453.6666666666667</ele><time>2026-04-23T11:48:08Z</time></trkpt><trkpt lat="31.765122131318385" lon="-7.979804540238531"><ele>453.33333333333337</ele><time>2026-04-23T11:48:09Z</time></trkpt><trkpt lat="31.764939238727237" lon="-7.979748363030465"><ele>453.0</ele><time>2026-04-23T11:48:10Z</time></trkpt><trkpt lat="31.764755508563717" lon="-7.979695328862171"><ele>453.0</ele><time>2026-04-23T11:48:11Z</time></trkpt><trkpt lat="31.76456743890706" lon="-7.979643818309035"><ele>453.0</ele><time>2026-04-23T11:48:12Z</time></trkpt><trkpt lat="31.76437871996689" lon="-7.9795956722622545"><ele>453.0</ele><time>2026-04-23T11:48:13Z</time></trkpt><trkpt lat="31.764188360605885" lon="-7.979552338442568"><ele>452.66666666666663</ele><time>2026-04-23T11:48:14Z</time></trkpt><trkpt lat="31.763996819266055" lon="-7.979511658123674"><ele>452.3333333333333</ele><time>2026-04-23T11:48:15Z</time></trkpt><trkpt lat="31.7638040344453" lon="-7.979474785945955"><ele>452.0</ele><time>2026-04-23T11:48:16Z</time></trkpt><trkpt lat="31.763613341286643" lon="-7.979441209490669"><ele>452.66666666666663</ele><time>2026-04-23T11:48:17Z</time></trkpt><trkpt lat="31.763434362929864" lon="-7.979410444833571"><ele>453.33333333333337</ele><time>2026-04-23T11:48:18Z</time></trkpt><trkpt lat="31.763265936058637" lon="-7.979382138255639"><ele>454.0</ele><time>2026-04-23T11:48:19Z</time></trkpt><trkpt lat="31.763105287778085" lon="-7.979357198056386"><ele>454.0</ele><time>2026-04-23T11:48:20Z</time></trkpt><trkpt lat="31.762953524504315" lon="-7.979339176593198"><ele>454.0</ele><time>2026-04-23T11:48:21Z</time></trkpt><trkpt lat="31.762808397925223" lon="-7.979325643833554"><ele>454.0</ele><time>2026-04-23T11:48:22Z</time></trkpt><trkpt lat="31.762667851453855" lon="-7.979313031550602"><ele>454.0</ele><time>2026-04-23T11:48:23Z</time></trkpt><trkpt lat="31.762532942097966" lon="-7.979302309541039"><ele>453.75</ele><time>2026-04-23T11:48:24Z</time></trkpt><trkpt lat="31.76240228828076" lon="-7.9792919110919"><ele>453.5</ele><time>2026-04-23T11:48:25Z</time></trkpt><trkpt lat="31.7622729299915" lon="-7.9792846209009864"><ele>453.25</ele><time>2026-04-23T11:48:26Z</time></trkpt><trkpt lat="31.762145436020297" lon="-7.979278232281951"><ele>453.0</ele><time>2026-04-23T11:48:27Z</time></trkpt><trkpt lat="31.762010455731662" lon="-7.979274530537311"><ele>452.33333333333337</ele><time>2026-04-23T11:48:28Z</time></trkpt><trkpt lat="31.76186297511231" lon="-7.979270720062824"><ele>451.6666666666667</ele><time>2026-04-23T11:48:29Z</time></trkpt><trkpt lat="31.761704296913617" lon="-7.979267467799343"><ele>451.0</ele><time>2026-04-23T11:48:30Z</time></trkpt><trkpt lat="31.761538455976723" lon="-7.979266900656227"><ele>451.0</ele><time>2026-04-23T11:48:31Z</time></trkpt><trkpt lat="31.761365630310983" lon="-7.9792666865532"><ele>451.0</ele><time>2026-04-23T11:48:32Z</time></trkpt><trkpt lat="31.761194103210258" lon="-7.9792678041479705"><ele>451.0</ele><time>2026-04-23T11:48:33Z</time></trkpt><trkpt lat="31.761021280477944" lon="-7.979267660163657"><ele>451.33333333333337</ele><time>2026-04-23T11:48:34Z</time></trkpt><trkpt lat="31.760847500086687" lon="-7.979268689070226"><ele>451.66666666666663</ele><time>2026-04-23T11:48:35Z</time></trkpt><trkpt lat="31.760672785867182" lon="-7.979270592244436"><ele>452.0</ele><time>2026-04-23T11:48:36Z</time></trkpt><trkpt lat="31.760496252471327" lon="-7.979271972521444"><ele>452.0</ele><time>2026-04-23T11:48:37Z</time></trkpt><trkpt lat="31.760319278647884" lon="-7.979274429869724"><ele>452.0</ele><time>2026-04-23T11:48:38Z</time></trkpt><trkpt lat="31.760140826268028" lon="-7.979272391597591"><ele>452.0</ele><time>2026-04-23T11:48:39Z</time></trkpt><trkpt lat="31.75996011230594" lon="-7.979266290651438"><ele>451.3333333333333</ele><time>2026-04-23T11:48:40Z</time></trkpt><trkpt lat="31.75977684027729" lon="-7.979254272400072"><ele>450.66666666666663</ele><time>2026-04-23T11:48:41Z</time></trkpt><trkpt lat="31.75959033024837" lon="-7.979236825462546"><ele>450.0</ele><time>2026-04-23T11:48:42Z</time></trkpt><trkpt lat="31.759403206514577" lon="-7.979217809241587"><ele>449.66666666666663</ele><time>2026-04-23T11:48:43Z</time></trkpt><trkpt lat="31.759212432064636" lon="-7.979194783892145"><ele>449.3333333333333</ele><time>2026-04-23T11:48:44Z</time></trkpt><trkpt lat="31.759021334670724" lon="-7.979169786498287"><ele>449.0</ele><time>2026-04-23T11:48:45Z</time></trkpt><trkpt lat="31.758829754858663" lon="-7.97914341036502"><ele>448.66666666666663</ele><time>2026-04-23T11:48:46Z</time></trkpt><trkpt lat="31.758641779073024" lon="-7.979116720995443"><ele>448.33333333333337</ele><time>2026-04-23T11:48:47Z</time></trkpt><trkpt lat="31.75845491388063" lon="-7.9790905590642325"><ele>448.0</ele><time>2026-04-23T11:48:48Z</time></trkpt><trkpt lat="31.758270122032172" lon="-7.979064852132454"><ele>448.0</ele><time>2026-04-23T11:48:49Z</time></trkpt><trkpt lat="31.758085329584006" lon="-7.979039470554907"><ele>448.0</ele><time>2026-04-23T11:48:50Z</time></trkpt><trkpt lat="31.757898910702476" lon="-7.979012172937779"><ele>448.0</ele><time>2026-04-23T11:48:51Z</time></trkpt><trkpt lat="31.757712471963526" lon="-7.978985394165432"><ele>448.6666666666667</ele><time>2026-04-23T11:48:52Z</time></trkpt><trkpt lat="31.75752413337283" lon="-7.978956763054631"><ele>449.33333333333337</ele><time>2026-04-23T11:48:53Z</time></trkpt><trkpt lat="31.757337234370894" lon="-7.978928606397987"><ele>450.0</ele><time>2026-04-23T11:48:54Z</time></trkpt><trkpt lat="31.757150807965875" lon="-7.978900926381005"><ele>450.0</ele><time>2026-04-23T11:48:55Z</time></trkpt><trkpt lat="31.756965681797073" lon="-7.978872830623064"><ele>450.0</ele><time>2026-04-23T11:48:56Z</time></trkpt><trkpt lat="31.756781421036486" lon="-7.978846222800346"><ele>450.0</ele><time>2026-04-23T11:48:57Z</time></trkpt><trkpt lat="31.756597845957575" lon="-7.978820203829346"><ele>449.33333333333337</ele><time>2026-04-23T11:48:58Z</time></trkpt><trkpt lat="31.75641624600699" lon="-7.978796657300616"><ele>448.6666666666667</ele><time>2026-04-23T11:48:59Z</time></trkpt><trkpt lat="31.756234437741973" lon="-7.978771257476694"><ele>448.0</ele><time>2026-04-23T11:49:00Z</time></trkpt><trkpt lat="31.756053978801365" lon="-7.97874414371006"><ele>448.0</ele><time>2026-04-23T11:49:01Z</time></trkpt><trkpt lat="31.755875256158852" lon="-7.978718199467075"><ele>448.0</ele><time>2026-04-23T11:49:02Z</time></trkpt><trkpt lat="31.755695700318032" lon="-7.978691053493559"><ele>448.0</ele><time>2026-04-23T11:49:03Z</time></trkpt><trkpt lat="31.755518085424246" lon="-7.978665521566577"><ele>448.0</ele><time>2026-04-23T11:49:04Z</time></trkpt><trkpt lat="31.755344688275375" lon="-7.978640831945507"><ele>448.0</ele><time>2026-04-23T11:49:05Z</time></trkpt><trkpt lat="31.755179123535438" lon="-7.978618563538212"><ele>448.0</ele><time>2026-04-23T11:49:06Z</time></trkpt><trkpt lat="31.755021857263753" lon="-7.978595513839195"><ele>447.75</ele><time>2026-04-23T11:49:07Z</time></trkpt><trkpt lat="31.754873370160738" lon="-7.978574253863514"><ele>447.5</ele><time>2026-04-23T11:49:08Z</time></trkpt><trkpt lat="31.75473676745407" lon="-7.978556266794471"><ele>447.25</ele><time>2026-04-23T11:49:09Z</time></trkpt><trkpt lat="31.754621847665625" lon="-7.97854252035583"><ele>447.0</ele><time>2026-04-23T11:49:10Z</time></trkpt><trkpt lat="31.754531584976085" lon="-7.978535986677522"><ele>447.0</ele><time>2026-04-23T11:49:11Z</time></trkpt><trkpt lat="31.754466084169795" lon="-7.97853452814119"><ele>447.0</ele><time>2026-04-23T11:49:12Z</time></trkpt><trkpt lat="31.754375983407233" lon="-7.97854354434671"><ele>447.0</ele><time>2026-04-23T11:49:14Z</time></trkpt><trkpt lat="31.754287627200057" lon="-7.978573453175006"><ele>447.0</ele><time>2026-04-23T11:49:16Z</time></trkpt><trkpt lat="31.754172671599314" lon="-7.978597479796197"><ele>447.0</ele><time>2026-04-23T11:49:18Z</time></trkpt><trkpt lat="31.754105131227085" lon="-7.978589230295843"><ele>447.0</ele><time>2026-04-23T11:49:19Z</time></trkpt><trkpt lat="31.75403970578852" lon="-7.978561632939075"><ele>446.8333333333333</ele><time>2026-04-23T11:49:20Z</time></trkpt><trkpt lat="31.753977805159675" lon="-7.978521431901954"><ele>446.66666666666663</ele><time>2026-04-23T11:49:21Z</time></trkpt><trkpt lat="31.753910508535263" lon="-7.978477044825363"><ele>446.5</ele><time>2026-04-23T11:49:22Z</time></trkpt><trkpt lat="31.753832765177197" lon="-7.978434531783393"><ele>446.3333333333333</ele><time>2026-04-23T11:49:23Z</time></trkpt><trkpt lat="31.753739170667117" lon="-7.9783964961469245"><ele>446.16666666666663</ele><time>2026-04-23T11:49:24Z</time></trkpt><trkpt lat="31.753626238591725" lon="-7.978364190262911"><ele>446.0</ele><time>2026-04-23T11:49:25Z</time></trkpt><trkpt lat="31.75349601029556" lon="-7.978337148665234"><ele>446.0</ele><time>2026-04-23T11:49:26Z</time></trkpt><trkpt lat="31.753350197285823" lon="-7.978314772617076"><ele>446.0</ele><time>2026-04-23T11:49:27Z</time></trkpt><trkpt lat="31.753198319197985" lon="-7.978294697767458"><ele>446.0</ele><time>2026-04-23T11:49:28Z</time></trkpt><trkpt lat="31.753041047517502" lon="-7.978272841112555"><ele>446.0</ele><time>2026-04-23T11:49:29Z</time></trkpt><trkpt lat="31.752881872850693" lon="-7.978254295532897"><ele>446.0</ele><time>2026-04-23T11:49:30Z</time></trkpt><trkpt lat="31.752720108817304" lon="-7.978239327784484"><ele>446.0</ele><time>2026-04-23T11:49:31Z</time></trkpt><trkpt lat="31.752559511507357" lon="-7.978227251091412"><ele>446.3333333333333</ele><time>2026-04-23T11:49:32Z</time></trkpt><trkpt lat="31.752401207716183" lon="-7.9782151790773215"><ele>446.66666666666663</ele><time>2026-04-23T11:49:33Z</time></trkpt><trkpt lat="31.752249754877766" lon="-7.978178569529481"><ele>447.0</ele><time>2026-04-23T11:49:34Z</time></trkpt><trkpt lat="31.752098107451985" lon="-7.978165367692706"><ele>447.0</ele><time>2026-04-23T11:49:35Z</time></trkpt><trkpt lat="31.751950121099426" lon="-7.978154254506208"><ele>447.0</ele><time>2026-04-23T11:49:36Z</time></trkpt><trkpt lat="31.75180476068074" lon="-7.978150115792904"><ele>447.0</ele><time>2026-04-23T11:49:37Z</time></trkpt><trkpt lat="31.75166041848492" lon="-7.978147824103635"><ele>447.0</ele><time>2026-04-23T11:49:38Z</time></trkpt><trkpt lat="31.751516881591478" lon="-7.978145545204745"><ele>446.5</ele><time>2026-04-23T11:49:39Z</time></trkpt><trkpt lat="31.75137173457803" lon="-7.978142190282406"><ele>446.0</ele><time>2026-04-23T11:49:40Z</time></trkpt><trkpt lat="31.75122539040417" lon="-7.978138648578479"><ele>445.5</ele><time>2026-04-23T11:49:41Z</time></trkpt><trkpt lat="31.751079144466136" lon="-7.978134396759731"><ele>445.0</ele><time>2026-04-23T11:49:42Z</time></trkpt><trkpt lat="31.750927289478614" lon="-7.978130179655539"><ele>444.33333333333337</ele><time>2026-04-23T11:49:43Z</time></trkpt><trkpt lat="31.75076511768586" lon="-7.9781450722046054"><ele>443.66666666666663</ele><time>2026-04-23T11:49:44Z</time></trkpt><trkpt lat="31.750595852782467" lon="-7.978139750280001"><ele>443.0</ele><time>2026-04-23T11:49:45Z</time></trkpt><trkpt lat="31.750422891435626" lon="-7.978133912334907"><ele>443.0</ele><time>2026-04-23T11:49:46Z</time></trkpt><trkpt lat="31.750251286479806" lon="-7.97812915483251"><ele>443.0</ele><time>2026-04-23T11:49:47Z</time></trkpt><trkpt lat="31.75007973224621" lon="-7.9781227263890235"><ele>443.0</ele><time>2026-04-23T11:49:48Z</time></trkpt><trkpt lat="31.749909985378398" lon="-7.978117694628784"><ele>443.0</ele><time>2026-04-23T11:49:49Z</time></trkpt><trkpt lat="31.749741718131972" lon="-7.978113601423197"><ele>443.0</ele><time>2026-04-23T11:49:50Z</time></trkpt><trkpt lat="31.74957377922006" lon="-7.978086822966414"><ele>443.0</ele><time>2026-04-23T11:49:51Z</time></trkpt><trkpt lat="31.74940261855329" lon="-7.978079314537875"><ele>442.66666666666663</ele><time>2026-04-23T11:49:52Z</time></trkpt><trkpt lat="31.749230089416148" lon="-7.9780766957244005"><ele>442.33333333333337</ele><time>2026-04-23T11:49:52.999Z</time></trkpt><trkpt lat="31.749056081864463" lon="-7.9780740544685855"><ele>442.0</ele><time>2026-04-23T11:49:53.999Z</time></trkpt><trkpt lat="31.748884173447113" lon="-7.978070923363767"><ele>442.0</ele><time>2026-04-23T11:49:54.999Z</time></trkpt><trkpt lat="31.748709284866646" lon="-7.97808398552071"><ele>442.0</ele><time>2026-04-23T11:49:55.999Z</time></trkpt><trkpt lat="31.74853405276823" lon="-7.978078275762422"><ele>442.0</ele><time>2026-04-23T11:49:56.999Z</time></trkpt><trkpt lat="31.748355501160535" lon="-7.978071881473809"><ele>441.33333333333337</ele><time>2026-04-23T11:49:57.999Z</time></trkpt><trkpt lat="31.74817883178534" lon="-7.978046168806029"><ele>440.66666666666663</ele><time>2026-04-23T11:49:58.999Z</time></trkpt><trkpt lat="31.7479960833734" lon="-7.978038208177754"><ele>440.0</ele><time>2026-04-23T11:49:59.999Z</time></trkpt><trkpt lat="31.747809864689625" lon="-7.978031990335397"><ele>439.3333333333333</ele><time>2026-04-23T11:50:00.999Z</time></trkpt><trkpt lat="31.74762377477467" lon="-7.978027734880533"><ele>438.66666666666663</ele><time>2026-04-23T11:50:01.999Z</time></trkpt><trkpt lat="31.74743426250993" lon="-7.978041808446261"><ele>438.0</ele><time>2026-04-23T11:50:02.999Z</time></trkpt><trkpt lat="31.74724615866668" lon="-7.978033938618389"><ele>438.0</ele><time>2026-04-23T11:50:03.999Z</time></trkpt><trkpt lat="31.74705749684365" lon="-7.978027150778282"><ele>438.0</ele><time>2026-04-23T11:50:04.999Z</time></trkpt><trkpt lat="31.74686841291243" lon="-7.978020999202907"><ele>438.0</ele><time>2026-04-23T11:50:05.999Z</time></trkpt><trkpt lat="31.746677905518336" lon="-7.978016296197323"><ele>438.0</ele><time>2026-04-23T11:50:06.999Z</time></trkpt><trkpt lat="31.746484357365375" lon="-7.978009090673446"><ele>438.0</ele><time>2026-04-23T11:50:07.999Z</time></trkpt><trkpt lat="31.746288772049386" lon="-7.978001607988156"><ele>438.0</ele><time>2026-04-23T11:50:08.999Z</time></trkpt><trkpt lat="31.74609357868711" lon="-7.977993782757045"><ele>438.0</ele><time>2026-04-23T11:50:10Z</time></trkpt><trkpt lat="31.745898711761747" lon="-7.97796749727116"><ele>438.0</ele><time>2026-04-23T11:50:11Z</time></trkpt><trkpt lat="31.74570464075156" lon="-7.977957796867075"><ele>438.0</ele><time>2026-04-23T11:50:12Z</time></trkpt><trkpt lat="31.745512286592984" lon="-7.9779481822650595"><ele>438.0</ele><time>2026-04-23T11:50:13Z</time></trkpt><trkpt lat="31.74532100895046" lon="-7.977942408875217"><ele>438.0</ele><time>2026-04-23T11:50:14Z</time></trkpt><trkpt lat="31.74513052164583" lon="-7.9779373335450945"><ele>438.0</ele><time>2026-04-23T11:50:15Z</time></trkpt><trkpt lat="31.744940294286142" lon="-7.977932267109055"><ele>438.0</ele><time>2026-04-23T11:50:16Z</time></trkpt><trkpt lat="31.744749890534887" lon="-7.977926681354572"><ele>438.0</ele><time>2026-04-23T11:50:17Z</time></trkpt><trkpt lat="31.744557645890733" lon="-7.977939415322893"><ele>438.0</ele><time>2026-04-23T11:50:18Z</time></trkpt><trkpt lat="31.744364417352728" lon="-7.977931470171365"><ele>438.0</ele><time>2026-04-23T11:50:19Z</time></trkpt><trkpt lat="31.74416915536353" lon="-7.977924991400613"><ele>438.0</ele><time>2026-04-23T11:50:20Z</time></trkpt><trkpt lat="31.74397520394495" lon="-7.977920770252013"><ele>438.0</ele><time>2026-04-23T11:50:21Z</time></trkpt><trkpt lat="31.74378212131166" lon="-7.977915123840787"><ele>438.0</ele><time>2026-04-23T11:50:22Z</time></trkpt><trkpt lat="31.743590489081882" lon="-7.977910024096805"><ele>438.0</ele><time>2026-04-23T11:50:23Z</time></trkpt><trkpt lat="31.743398884913372" lon="-7.97790469958874"><ele>438.0</ele><time>2026-04-23T11:50:24Z</time></trkpt><trkpt lat="31.743207286683596" lon="-7.97789846904281"><ele>437.33333333333337</ele><time>2026-04-23T11:50:25Z</time></trkpt><trkpt lat="31.743013864281163" lon="-7.977892419285382"><ele>436.6666666666667</ele><time>2026-04-23T11:50:26Z</time></trkpt><trkpt lat="31.742818459132007" lon="-7.977889193059238"><ele>436.0</ele><time>2026-04-23T11:50:27Z</time></trkpt><trkpt lat="31.74262551790335" lon="-7.977885516329098"><ele>435.6666666666667</ele><time>2026-04-23T11:50:28Z</time></trkpt><trkpt lat="31.742430407254155" lon="-7.97788151739065"><ele>435.33333333333337</ele><time>2026-04-23T11:50:29Z</time></trkpt><trkpt lat="31.742236782281413" lon="-7.977880788486354"><ele>435.0</ele><time>2026-04-23T11:50:30Z</time></trkpt><trkpt lat="31.742043813779087" lon="-7.977865055353796"><ele>435.0</ele><time>2026-04-23T11:50:31Z</time></trkpt><trkpt lat="31.74185163324081" lon="-7.977896249994439"><ele>435.0</ele><time>2026-04-23T11:50:32Z</time></trkpt><trkpt lat="31.74166071518345" lon="-7.977912946354709"><ele>435.0</ele><time>2026-04-23T11:50:33Z</time></trkpt><trkpt lat="31.741468975482324" lon="-7.9779081044493125"><ele>435.0</ele><time>2026-04-23T11:50:34Z</time></trkpt><trkpt lat="31.741276726688678" lon="-7.977934537314966"><ele>435.0</ele><time>2026-04-23T11:50:35Z</time></trkpt><trkpt lat="31.74109061549643" lon="-7.977964427086411"><ele>435.0</ele><time>2026-04-23T11:50:36Z</time></trkpt><trkpt lat="31.740908687970485" lon="-7.977993419486629"><ele>435.66666666666663</ele><time>2026-04-23T11:50:37Z</time></trkpt><trkpt lat="31.74073475399467" lon="-7.978040718613454"><ele>436.3333333333333</ele><time>2026-04-23T11:50:38Z</time></trkpt><trkpt lat="31.740563905728123" lon="-7.978067442329901"><ele>437.0</ele><time>2026-04-23T11:50:39Z</time></trkpt><trkpt lat="31.740400145069486" lon="-7.9780726636316555"><ele>437.0</ele><time>2026-04-23T11:50:40Z</time></trkpt><trkpt lat="31.740247047571476" lon="-7.97809330236005"><ele>437.0</ele><time>2026-04-23T11:50:41Z</time></trkpt><trkpt lat="31.740103999390172" lon="-7.978116650862094"><ele>437.0</ele><time>2026-04-23T11:50:42Z</time></trkpt><trkpt lat="31.739981040057433" lon="-7.978163797219939"><ele>437.0</ele><time>2026-04-23T11:50:43Z</time></trkpt><trkpt lat="31.73986183924826" lon="-7.978195097872389"><ele>436.75</ele><time>2026-04-23T11:50:44Z</time></trkpt><trkpt lat="31.7397516640032" lon="-7.978239168763092"><ele>436.5</ele><time>2026-04-23T11:50:45Z</time></trkpt><trkpt lat="31.739649347914376" lon="-7.978289329937784"><ele>436.25</ele><time>2026-04-23T11:50:46Z</time></trkpt><trkpt lat="31.739542994844612" lon="-7.978332273873773"><ele>436.0</ele><time>2026-04-23T11:50:47Z</time></trkpt><trkpt lat="31.73943210211182" lon="-7.978341138983251"><ele>435.75</ele><time>2026-04-23T11:50:48Z</time></trkpt><trkpt lat="31.739304257350117" lon="-7.9783184706034005"><ele>435.5</ele><time>2026-04-23T11:50:49Z</time></trkpt><trkpt lat="31.739173473664188" lon="-7.978304287447749"><ele>435.25</ele><time>2026-04-23T11:50:50Z</time></trkpt><trkpt lat="31.739031816528893" lon="-7.97831431607343"><ele>435.0</ele><time>2026-04-23T11:50:51Z</time></trkpt><trkpt lat="31.73888387685832" lon="-7.9783378020906595"><ele>435.0</ele><time>2026-04-23T11:50:52Z</time></trkpt><trkpt lat="31.73872906601287" lon="-7.978361990056689"><ele>435.0</ele><time>2026-04-23T11:50:53Z</time></trkpt><trkpt lat="31.738576522978313" lon="-7.9783652049226665"><ele>435.0</ele><time>2026-04-23T11:50:54Z</time></trkpt><trkpt lat="31.738427116487834" lon="-7.978391972408593"><ele>434.66666666666663</ele><time>2026-04-23T11:50:55Z</time></trkpt><trkpt lat="31.73827520577489" lon="-7.978438281979876"><ele>434.3333333333333</ele><time>2026-04-23T11:50:56Z</time></trkpt><trkpt lat="31.738113982812106" lon="-7.978448626072368"><ele>434.0</ele><time>2026-04-23T11:50:57Z</time></trkpt><trkpt lat="31.737952705684023" lon="-7.9784999495471185"><ele>434.0</ele><time>2026-04-23T11:50:58Z</time></trkpt><trkpt lat="31.737784855328965" lon="-7.978537789153676"><ele>434.0</ele><time>2026-04-23T11:50:59Z</time></trkpt><trkpt lat="31.737618308819545" lon="-7.978581307846374"><ele>434.0</ele><time>2026-04-23T11:51:00Z</time></trkpt><trkpt lat="31.73745233564814" lon="-7.978631453745104"><ele>434.0</ele><time>2026-04-23T11:51:01Z</time></trkpt><trkpt lat="31.737286732749087" lon="-7.978688894616499"><ele>434.0</ele><time>2026-04-23T11:51:02Z</time></trkpt><trkpt lat="31.737118716487437" lon="-7.9787514700675715"><ele>434.0</ele><time>2026-04-23T11:51:03Z</time></trkpt><trkpt lat="31.736948202754924" lon="-7.978818014289013"><ele>433.3333333333333</ele><time>2026-04-23T11:51:04Z</time></trkpt><trkpt lat="31.736776076557536" lon="-7.978889459702548"><ele>432.66666666666663</ele><time>2026-04-23T11:51:05Z</time></trkpt><trkpt lat="31.736595930587583" lon="-7.978948402635399"><ele>432.0</ele><time>2026-04-23T11:51:06Z</time></trkpt><trkpt lat="31.736417972517977" lon="-7.979025914981107"><ele>432.0</ele><time>2026-04-23T11:51:07Z</time></trkpt><trkpt lat="31.736237589668985" lon="-7.9791044060848035"><ele>432.0</ele><time>2026-04-23T11:51:08Z</time></trkpt><trkpt lat="31.736054802166738" lon="-7.979183865322173"><ele>432.0</ele><time>2026-04-23T11:51:09Z</time></trkpt><trkpt lat="31.735871569954238" lon="-7.979264931861584"><ele>431.66666666666663</ele><time>2026-04-23T11:51:10Z</time></trkpt><trkpt lat="31.735686972421686" lon="-7.979346602427985"><ele>431.3333333333333</ele><time>2026-04-23T11:51:11Z</time></trkpt><trkpt lat="31.73550253934232" lon="-7.979428200259162"><ele>431.0</ele><time>2026-04-23T11:51:12Z</time></trkpt><trkpt lat="31.73531952896998" lon="-7.979509275329328"><ele>431.66666666666663</ele><time>2026-04-23T11:51:13Z</time></trkpt><trkpt lat="31.735138712864792" lon="-7.97958945597112"><ele>432.33333333333337</ele><time>2026-04-23T11:51:14Z</time></trkpt><trkpt lat="31.734958530845503" lon="-7.979671503023757"><ele>433.0</ele><time>2026-04-23T11:51:15Z</time></trkpt><trkpt lat="31.734777993846738" lon="-7.979753858734046"><ele>433.0</ele><time>2026-04-23T11:51:16Z</time></trkpt><trkpt lat="31.734600542753597" lon="-7.979834806716342"><ele>433.0</ele><time>2026-04-23T11:51:17Z</time></trkpt><trkpt lat="31.734429252581126" lon="-7.979932941819244"><ele>433.0</ele><time>2026-04-23T11:51:18Z</time></trkpt><trkpt lat="31.734251854086835" lon="-7.9800130096742"><ele>432.33333333333337</ele><time>2026-04-23T11:51:19Z</time></trkpt><trkpt lat="31.73407051056414" lon="-7.9800927888854805"><ele>431.66666666666663</ele><time>2026-04-23T11:51:20Z</time></trkpt><trkpt lat="31.733888410523427" lon="-7.980171889889609"><ele>431.0</ele><time>2026-04-23T11:51:21Z</time></trkpt><trkpt lat="31.733707866959666" lon="-7.9802517244832964"><ele>430.0</ele><time>2026-04-23T11:51:22Z</time></trkpt><trkpt lat="31.73353113044434" lon="-7.98033054873596"><ele>429.0</ele><time>2026-04-23T11:51:23Z</time></trkpt><trkpt lat="31.733357027989808" lon="-7.9804057820418155"><ele>428.0</ele><time>2026-04-23T11:51:24Z</time></trkpt><trkpt lat="31.733180554078878" lon="-7.980474544724029"><ele>428.0</ele><time>2026-04-23T11:51:25Z</time></trkpt><trkpt lat="31.732998052294235" lon="-7.980535723581091"><ele>428.0</ele><time>2026-04-23T11:51:26Z</time></trkpt><trkpt lat="31.73281119986267" lon="-7.980589761848056"><ele>428.0</ele><time>2026-04-23T11:51:27Z</time></trkpt><trkpt lat="31.73262262845383" lon="-7.980636953192741"><ele>428.0</ele><time>2026-04-23T11:51:28Z</time></trkpt><trkpt lat="31.732434593747612" lon="-7.980675672526147"><ele>428.0</ele><time>2026-04-23T11:51:29Z</time></trkpt><trkpt lat="31.73224340239608" lon="-7.980705789042841"><ele>428.0</ele><time>2026-04-23T11:51:30Z</time></trkpt><trkpt lat="31.732050396353543" lon="-7.980708176071269"><ele>427.3333333333333</ele><time>2026-04-23T11:51:31Z</time></trkpt><trkpt lat="31.73185756281069" lon="-7.980728429949029"><ele>426.66666666666663</ele><time>2026-04-23T11:51:32Z</time></trkpt><trkpt lat="31.731668803897964" lon="-7.9807636160043804"><ele>426.0</ele><time>2026-04-23T11:51:33Z</time></trkpt><trkpt lat="31.7314807612405" lon="-7.9807765410997185"><ele>426.0</ele><time>2026-04-23T11:51:34Z</time></trkpt><trkpt lat="31.731295404770083" lon="-7.980791823844356"><ele>426.0</ele><time>2026-04-23T11:51:35Z</time></trkpt><trkpt lat="31.731116224523554" lon="-7.980807523846248"><ele>426.0</ele><time>2026-04-23T11:51:36Z</time></trkpt><trkpt lat="31.73093838378842" lon="-7.9808236984747145"><ele>425.66666666666663</ele><time>2026-04-23T11:51:37Z</time></trkpt><trkpt lat="31.73076169482545" lon="-7.980838150643956"><ele>425.3333333333333</ele><time>2026-04-23T11:51:38Z</time></trkpt><trkpt lat="31.730583245153635" lon="-7.980854713267976"><ele>425.0</ele><time>2026-04-23T11:51:39Z</time></trkpt><trkpt lat="31.730400486283305" lon="-7.980872227786614"><ele>425.0</ele><time>2026-04-23T11:51:40Z</time></trkpt><trkpt lat="31.730215648782327" lon="-7.980889353078879"><ele>425.0</ele><time>2026-04-23T11:51:41Z</time></trkpt><trkpt lat="31.73002939403567" lon="-7.980907094242258"><ele>425.0</ele><time>2026-04-23T11:51:42Z</time></trkpt><trkpt lat="31.729842002368013" lon="-7.980926080229988"><ele>425.0</ele><time>2026-04-23T11:51:43Z</time></trkpt><trkpt lat="31.729656844741992" lon="-7.980924229390712"><ele>425.0</ele><time>2026-04-23T11:51:44Z</time></trkpt><trkpt lat="31.72947369697408" lon="-7.980956830833563"><ele>425.0</ele><time>2026-04-23T11:51:45Z</time></trkpt><trkpt lat="31.72929069249185" lon="-7.980971518493573"><ele>425.0</ele><time>2026-04-23T11:51:45.999Z</time></trkpt><trkpt lat="31.729106447060932" lon="-7.980987202713008"><ele>425.0</ele><time>2026-04-23T11:51:46.999Z</time></trkpt><trkpt lat="31.72892315204025" lon="-7.981004475026628"><ele>425.0</ele><time>2026-04-23T11:51:47.999Z</time></trkpt><trkpt lat="31.728738621032914" lon="-7.981021467987669"><ele>425.3333333333333</ele><time>2026-04-23T11:51:48.999Z</time></trkpt><trkpt lat="31.728552883736736" lon="-7.981037437118724"><ele>425.66666666666663</ele><time>2026-04-23T11:51:49.999Z</time></trkpt><trkpt lat="31.7283680436775" lon="-7.981053271336637"><ele>426.0</ele><time>2026-04-23T11:51:50.999Z</time></trkpt><trkpt lat="31.728183290553364" lon="-7.981069320086576"><ele>426.0</ele><time>2026-04-23T11:51:51.999Z</time></trkpt><trkpt lat="31.727998725890227" lon="-7.9810868444175815"><ele>426.0</ele><time>2026-04-23T11:51:52.999Z</time></trkpt><trkpt lat="31.727815605728185" lon="-7.981102556374517"><ele>426.0</ele><time>2026-04-23T11:51:53.999Z</time></trkpt><trkpt lat="31.727632227993993" lon="-7.981117342705965"><ele>425.66666666666663</ele><time>2026-04-23T11:51:54.999Z</time></trkpt><trkpt lat="31.72745262251254" lon="-7.9811324441521245"><ele>425.3333333333333</ele><time>2026-04-23T11:51:55.999Z</time></trkpt><trkpt lat="31.727273412361814" lon="-7.9811485061162255"><ele>425.0</ele><time>2026-04-23T11:51:56.999Z</time></trkpt><trkpt lat="31.727096335889875" lon="-7.9811632027661"><ele>425.0</ele><time>2026-04-23T11:51:57.999Z</time></trkpt><trkpt lat="31.726920950951563" lon="-7.981176752128622"><ele>425.0</ele><time>2026-04-23T11:51:58.999Z</time></trkpt><trkpt lat="31.7267509810991" lon="-7.9811877548245995"><ele>425.0</ele><time>2026-04-23T11:51:59.999Z</time></trkpt><trkpt lat="31.726588379393526" lon="-7.981192174302767"><ele>424.75</ele><time>2026-04-23T11:52:00.999Z</time></trkpt><trkpt lat="31.72643255540393" lon="-7.981194591290336"><ele>424.5</ele><time>2026-04-23T11:52:01.999Z</time></trkpt><trkpt lat="31.726283242743154" lon="-7.98119903305243"><ele>424.25</ele><time>2026-04-23T11:52:02.999Z</time></trkpt><trkpt lat="31.726145616431396" lon="-7.981208756890338"><ele>424.0</ele><time>2026-04-23T11:52:03.999Z</time></trkpt><trkpt lat="31.726020080743137" lon="-7.981221562874807"><ele>423.79999999999995</ele><time>2026-04-23T11:52:04.999Z</time></trkpt><trkpt lat="31.72590865834873" lon="-7.981232241938658"><ele>423.59999999999997</ele><time>2026-04-23T11:52:05.999Z</time></trkpt><trkpt lat="31.72580594257952" lon="-7.981244245631885"><ele>423.4</ele><time>2026-04-23T11:52:06.999Z</time></trkpt><trkpt lat="31.72571285717028" lon="-7.98125754995023"><ele>423.2</ele><time>2026-04-23T11:52:07.999Z</time></trkpt><trkpt lat="31.725634215916433" lon="-7.981270332306343"><ele>423.0</ele><time>2026-04-23T11:52:08.999Z</time></trkpt><trkpt lat="31.725570350156392" lon="-7.981284423816159"><ele>423.0</ele><time>2026-04-23T11:52:09.999Z</time></trkpt><trkpt lat="31.72548254766511" lon="-7.981304916913763"><ele>423.0</ele><time>2026-04-23T11:52:11.999Z</time></trkpt><trkpt lat="31.72540770268885" lon="-7.981328799686234"><ele>423.0</ele><time>2026-04-23T11:52:13.999Z</time></trkpt><trkpt lat="31.72531770680558" lon="-7.981366325371054"><ele>423.0</ele><time>2026-04-23T11:52:16Z</time></trkpt><trkpt lat="31.725185941027647" lon="-7.981391395146336"><ele>423.0</ele><time>2026-04-23T11:52:18Z</time></trkpt><trkpt lat="31.72510244226664" lon="-7.9813866842555194"><ele>422.59999999999997</ele><time>2026-04-23T11:52:19Z</time></trkpt><trkpt lat="31.725012950767578" lon="-7.981380758471924"><ele>422.2</ele><time>2026-04-23T11:52:20Z</time></trkpt><trkpt lat="31.724914373497707" lon="-7.981375942223493"><ele>421.8</ele><time>2026-04-23T11:52:21Z</time></trkpt><trkpt lat="31.72480700091009" lon="-7.981377562589335"><ele>421.4</ele><time>2026-04-23T11:52:22Z</time></trkpt><trkpt lat="31.72469044529608" lon="-7.981383404815959"><ele>421.0</ele><time>2026-04-23T11:52:23Z</time></trkpt><trkpt lat="31.724567873936802" lon="-7.981390503381153"><ele>421.0</ele><time>2026-04-23T11:52:24Z</time></trkpt><trkpt lat="31.724445405633134" lon="-7.981399887847603"><ele>421.0</ele><time>2026-04-23T11:52:25Z</time></trkpt><trkpt lat="31.72431831039797" lon="-7.981410884827303"><ele>421.0</ele><time>2026-04-23T11:52:26Z</time></trkpt><trkpt lat="31.72418608950882" lon="-7.9814217804399705"><ele>421.0</ele><time>2026-04-23T11:52:27Z</time></trkpt><trkpt lat="31.724049776362648" lon="-7.981432326597821"><ele>420.5</ele><time>2026-04-23T11:52:28Z</time></trkpt><trkpt lat="31.723910779285966" lon="-7.981444748463221"><ele>420.0</ele><time>2026-04-23T11:52:29Z</time></trkpt><trkpt lat="31.72376847274705" lon="-7.981455312090089"><ele>419.5</ele><time>2026-04-23T11:52:30Z</time></trkpt><trkpt lat="31.723620552248075" lon="-7.981464402896572"><ele>419.0</ele><time>2026-04-23T11:52:31Z</time></trkpt><trkpt lat="31.72347047896483" lon="-7.981472659198122"><ele>418.3333333333333</ele><time>2026-04-23T11:52:32Z</time></trkpt><trkpt lat="31.72331710584297" lon="-7.9814842347052455"><ele>417.66666666666663</ele><time>2026-04-23T11:52:33Z</time></trkpt><trkpt lat="31.72316304719088" lon="-7.981497157615263"><ele>417.0</ele><time>2026-04-23T11:52:34Z</time></trkpt><trkpt lat="31.723010151073087" lon="-7.981509201274851"><ele>417.0</ele><time>2026-04-23T11:52:35Z</time></trkpt><trkpt lat="31.722857327846352" lon="-7.98152091223593"><ele>417.0</ele><time>2026-04-23T11:52:36Z</time></trkpt><trkpt lat="31.72270315651314" lon="-7.981533670797001"><ele>417.0</ele><time>2026-04-23T11:52:37Z</time></trkpt><trkpt lat="31.72254739167033" lon="-7.981545644196084"><ele>416.66666666666663</ele><time>2026-04-23T11:52:38Z</time></trkpt><trkpt lat="31.722392052457923" lon="-7.981557311708094"><ele>416.3333333333333</ele><time>2026-04-23T11:52:39Z</time></trkpt><trkpt lat="31.722236851680776" lon="-7.981570694887127"><ele>416.0</ele><time>2026-04-23T11:52:40Z</time></trkpt><trkpt lat="31.722080355450384" lon="-7.9815860435174715"><ele>416.0</ele><time>2026-04-23T11:52:41Z</time></trkpt><trkpt lat="31.721922257698143" lon="-7.981599728175665"><ele>416.0</ele><time>2026-04-23T11:52:42Z</time></trkpt><trkpt lat="31.72176405151613" lon="-7.98161353807487"><ele>416.0</ele><time>2026-04-23T11:52:43Z</time></trkpt><trkpt lat="31.721605412243086" lon="-7.981627504461904"><ele>416.3333333333333</ele><time>2026-04-23T11:52:44Z</time></trkpt><trkpt lat="31.72144842910901" lon="-7.981641681710395"><ele>416.66666666666663</ele><time>2026-04-23T11:52:45Z</time></trkpt><trkpt lat="31.721292194665214" lon="-7.981658574211363"><ele>417.0</ele><time>2026-04-23T11:52:46Z</time></trkpt><trkpt lat="31.721139085391073" lon="-7.981673996666189"><ele>417.75</ele><time>2026-04-23T11:52:47Z</time></trkpt><trkpt lat="31.720991568232048" lon="-7.981687257297389"><ele>418.5</ele><time>2026-04-23T11:52:48Z</time></trkpt><trkpt lat="31.72084933680033" lon="-7.9816974294599214"><ele>419.25</ele><time>2026-04-23T11:52:49Z</time></trkpt><trkpt lat="31.720709132989217" lon="-7.981709548546446"><ele>420.0</ele><time>2026-04-23T11:52:50Z</time></trkpt><trkpt lat="31.720568268207526" lon="-7.981722631521315"><ele>420.0</ele><time>2026-04-23T11:52:51Z</time></trkpt><trkpt lat="31.720427409478358" lon="-7.981737705214715"><ele>420.0</ele><time>2026-04-23T11:52:52Z</time></trkpt><trkpt lat="31.72028672072379" lon="-7.981751532739164"><ele>420.0</ele><time>2026-04-23T11:52:53Z</time></trkpt><trkpt lat="31.720145173768604" lon="-7.981763589800948"><ele>420.0</ele><time>2026-04-23T11:52:54Z</time></trkpt><trkpt lat="31.720003132817535" lon="-7.981775526694698"><ele>419.5</ele><time>2026-04-23T11:52:55Z</time></trkpt><trkpt lat="31.719861016626663" lon="-7.981788850781118"><ele>419.0</ele><time>2026-04-23T11:52:56Z</time></trkpt><trkpt lat="31.719718033911178" lon="-7.981802487041047"><ele>418.5</ele><time>2026-04-23T11:52:57Z</time></trkpt><trkpt lat="31.719573607591734" lon="-7.981816681472054"><ele>418.0</ele><time>2026-04-23T11:52:58Z</time></trkpt><trkpt lat="31.71943039031252" lon="-7.981827759197187"><ele>417.75</ele><time>2026-04-23T11:52:59Z</time></trkpt><trkpt lat="31.71928647794179" lon="-7.981840212615684"><ele>417.5</ele><time>2026-04-23T11:53:00Z</time></trkpt><trkpt lat="31.71914180123075" lon="-7.981854061909852"><ele>417.25</ele><time>2026-04-23T11:53:01Z</time></trkpt><trkpt lat="31.718996730057455" lon="-7.981867269828331"><ele>417.0</ele><time>2026-04-23T11:53:02Z</time></trkpt><trkpt lat="31.718850991606608" lon="-7.981881020809444"><ele>417.0</ele><time>2026-04-23T11:53:03Z</time></trkpt><trkpt lat="31.718704109059033" lon="-7.98189467280765"><ele>417.0</ele><time>2026-04-23T11:53:04Z</time></trkpt><trkpt lat="31.718556700445497" lon="-7.981907165278091"><ele>417.0</ele><time>2026-04-23T11:53:05Z</time></trkpt><trkpt lat="31.71840901165873" lon="-7.981917825736958"><ele>417.0</ele><time>2026-04-23T11:53:06Z</time></trkpt><trkpt lat="31.718259711009466" lon="-7.981930683951587"><ele>416.25</ele><time>2026-04-23T11:53:07Z</time></trkpt><trkpt lat="31.718109963537795" lon="-7.981944461562586"><ele>415.5</ele><time>2026-04-23T11:53:08Z</time></trkpt><trkpt lat="31.717959694906956" lon="-7.981960396653902"><ele>414.75</ele><time>2026-04-23T11:53:09Z</time></trkpt><trkpt lat="31.717812063191136" lon="-7.981976808224577"><ele>414.0</ele><time>2026-04-23T11:53:10Z</time></trkpt><trkpt lat="31.71766462355378" lon="-7.981994239379946"><ele>413.75</ele><time>2026-04-23T11:53:11Z</time></trkpt><trkpt lat="31.7175153384229" lon="-7.982010328316478"><ele>413.5</ele><time>2026-04-23T11:53:12Z</time></trkpt><trkpt lat="31.717366372470927" lon="-7.982026274013247"><ele>413.25</ele><time>2026-04-23T11:53:13Z</time></trkpt><trkpt lat="31.717218274794426" lon="-7.98203956416899"><ele>413.0</ele><time>2026-04-23T11:53:14Z</time></trkpt><trkpt lat="31.717069539467047" lon="-7.982056480599799"><ele>413.0</ele><time>2026-04-23T11:53:15Z</time></trkpt><trkpt lat="31.716921410608283" lon="-7.982074594588228"><ele>413.0</ele><time>2026-04-23T11:53:16Z</time></trkpt><trkpt lat="31.716773077966856" lon="-7.9820916394422134"><ele>413.0</ele><time>2026-04-23T11:53:17Z</time></trkpt><trkpt lat="31.716623062688676" lon="-7.982108144322669"><ele>413.0</ele><time>2026-04-23T11:53:18Z</time></trkpt><trkpt lat="31.71647247525572" lon="-7.9821206341142865"><ele>413.0</ele><time>2026-04-23T11:53:19Z</time></trkpt><trkpt lat="31.716322741963804" lon="-7.98213206330977"><ele>413.0</ele><time>2026-04-23T11:53:20Z</time></trkpt><trkpt lat="31.716174483858843" lon="-7.982143988180339"><ele>413.0</ele><time>2026-04-23T11:53:21Z</time></trkpt><trkpt lat="31.716026581313432" lon="-7.982160959101456"><ele>413.0</ele><time>2026-04-23T11:53:22Z</time></trkpt><trkpt lat="31.71587635636488" lon="-7.982181850463983"><ele>413.0</ele><time>2026-04-23T11:53:23Z</time></trkpt><trkpt lat="31.715725453414912" lon="-7.98220642874809"><ele>413.0</ele><time>2026-04-23T11:53:24Z</time></trkpt><trkpt lat="31.715574393605113" lon="-7.982233969171816"><ele>413.0</ele><time>2026-04-23T11:53:25Z</time></trkpt><trkpt lat="31.715423843301" lon="-7.982259817983475"><ele>413.0</ele><time>2026-04-23T11:53:26Z</time></trkpt><trkpt lat="31.715274898339253" lon="-7.98229094888775"><ele>413.0</ele><time>2026-04-23T11:53:27Z</time></trkpt><trkpt lat="31.715126999262885" lon="-7.982326423712905"><ele>413.0</ele><time>2026-04-23T11:53:28Z</time></trkpt><trkpt lat="31.714981223849154" lon="-7.982364606070382"><ele>413.0</ele><time>2026-04-23T11:53:29Z</time></trkpt><trkpt lat="31.714835269913024" lon="-7.982403577310426"><ele>413.0</ele><time>2026-04-23T11:53:30Z</time></trkpt><trkpt lat="31.714690062746726" lon="-7.982442465856672"><ele>413.0</ele><time>2026-04-23T11:53:31Z</time></trkpt><trkpt lat="31.714545121496663" lon="-7.982481277911153"><ele>413.0</ele><time>2026-04-23T11:53:32Z</time></trkpt><trkpt lat="31.714400352895478" lon="-7.982518992171159"><ele>412.66666666666663</ele><time>2026-04-23T11:53:33Z</time></trkpt><trkpt lat="31.714253383313252" lon="-7.98255623700617"><ele>412.33333333333337</ele><time>2026-04-23T11:53:34Z</time></trkpt><trkpt lat="31.714103997962365" lon="-7.982593827727734"><ele>412.0</ele><time>2026-04-23T11:53:35Z</time></trkpt><trkpt lat="31.713953308734165" lon="-7.9826312152682695"><ele>412.0</ele><time>2026-04-23T11:53:36Z</time></trkpt><trkpt lat="31.713802004594758" lon="-7.982670277902485"><ele>412.0</ele><time>2026-04-23T11:53:37Z</time></trkpt><trkpt lat="31.71364949370366" lon="-7.98270792347455"><ele>412.0</ele><time>2026-04-23T11:53:38Z</time></trkpt><trkpt lat="31.713494525491466" lon="-7.98274717214338"><ele>412.33333333333337</ele><time>2026-04-23T11:53:39Z</time></trkpt><trkpt lat="31.71333930309728" lon="-7.982786832956937"><ele>412.66666666666663</ele><time>2026-04-23T11:53:40Z</time></trkpt><trkpt lat="31.713183961415034" lon="-7.982824629125775"><ele>413.0</ele><time>2026-04-23T11:53:41Z</time></trkpt><trkpt lat="31.713029082225148" lon="-7.982863713288449"><ele>413.0</ele><time>2026-04-23T11:53:41.999Z</time></trkpt><trkpt lat="31.712874352751108" lon="-7.982903496004677"><ele>413.0</ele><time>2026-04-23T11:53:42.999Z</time></trkpt><trkpt lat="31.71271982451806" lon="-7.982941055850646"><ele>413.0</ele><time>2026-04-23T11:53:43.999Z</time></trkpt><trkpt lat="31.71256590101966" lon="-7.9829796420065335"><ele>412.66666666666663</ele><time>2026-04-23T11:53:44.999Z</time></trkpt><trkpt lat="31.712413483982974" lon="-7.983018553861865"><ele>412.33333333333337</ele><time>2026-04-23T11:53:45.999Z</time></trkpt><trkpt lat="31.71226210566869" lon="-7.983057497084863"><ele>412.0</ele><time>2026-04-23T11:53:46.999Z</time></trkpt><trkpt lat="31.712114556659927" lon="-7.983095898894659"><ele>412.0</ele><time>2026-04-23T11:53:47.999Z</time></trkpt><trkpt lat="31.7119764601149" lon="-7.983131194604083"><ele>412.0</ele><time>2026-04-23T11:53:48.999Z</time></trkpt><trkpt lat="31.711845709361555" lon="-7.983163262975249"><ele>412.0</ele><time>2026-04-23T11:53:49.999Z</time></trkpt><trkpt lat="31.711723568289635" lon="-7.98319457596754"><ele>412.0</ele><time>2026-04-23T11:53:50.999Z</time></trkpt><trkpt lat="31.711614282532757" lon="-7.983225869475732"><ele>411.85714285714283</ele><time>2026-04-23T11:53:51.999Z</time></trkpt><trkpt lat="31.71152150260411" lon="-7.983252534991563"><ele>411.7142857142857</ele><time>2026-04-23T11:53:52.999Z</time></trkpt><trkpt lat="31.711442084806578" lon="-7.9832769300080075"><ele>411.57142857142856</ele><time>2026-04-23T11:53:53.999Z</time></trkpt><trkpt lat="31.711371757184892" lon="-7.983304100448128"><ele>411.42857142857144</ele><time>2026-04-23T11:53:54.999Z</time></trkpt><trkpt lat="31.711312045339096" lon="-7.9833342276040025"><ele>411.2857142857143</ele><time>2026-04-23T11:53:55.999Z</time></trkpt><trkpt lat="31.71125485267505" lon="-7.983373294811449"><ele>411.1428571428571</ele><time>2026-04-23T11:53:56.999Z</time></trkpt><trkpt lat="31.71119845202151" lon="-7.983411072319303"><ele>411.0</ele><time>2026-04-23T11:53:57.999Z</time></trkpt><trkpt lat="31.71113864352746" lon="-7.983442615783309"><ele>411.0</ele><time>2026-04-23T11:53:58.999Z</time></trkpt><trkpt lat="31.711077681193032" lon="-7.983465649481055"><ele>411.0</ele><time>2026-04-23T11:53:59.999Z</time></trkpt><trkpt lat="31.71101334708746" lon="-7.983479333457583"><ele>411.0</ele><time>2026-04-23T11:54:00.999Z</time></trkpt><trkpt lat="31.710946067013186" lon="-7.983481423839726"><ele>411.0</ele><time>2026-04-23T11:54:01.999Z</time></trkpt><trkpt lat="31.710878372246324" lon="-7.983475072839945"><ele>411.0</ele><time>2026-04-23T11:54:02.999Z</time></trkpt><trkpt lat="31.710805603228287" lon="-7.983469528640213"><ele>411.0</ele><time>2026-04-23T11:54:03.999Z</time></trkpt><trkpt lat="31.710725750938625" lon="-7.983468974470716"><ele>411.0</ele><time>2026-04-23T11:54:04.999Z</time></trkpt><trkpt lat="31.710637731258373" lon="-7.98347913327079"><ele>411.0</ele><time>2026-04-23T11:54:05.999Z</time></trkpt><trkpt lat="31.710541815856295" lon="-7.983495316464933"><ele>411.0</ele><time>2026-04-23T11:54:06.999Z</time></trkpt><trkpt lat="31.710438109210084" lon="-7.9835165680741165"><ele>411.0</ele><time>2026-04-23T11:54:07.999Z</time></trkpt><trkpt lat="31.71032900999025" lon="-7.983542472151118"><ele>411.0</ele><time>2026-04-23T11:54:08.999Z</time></trkpt><trkpt lat="31.710215402475992" lon="-7.983569385981245"><ele>411.0</ele><time>2026-04-23T11:54:09.999Z</time></trkpt><trkpt lat="31.710095901167225" lon="-7.983596646618371"><ele>411.0</ele><time>2026-04-23T11:54:10.999Z</time></trkpt><trkpt lat="31.709972356912672" lon="-7.983624638743961"><ele>411.0</ele><time>2026-04-23T11:54:11.999Z</time></trkpt><trkpt lat="31.70984195914058" lon="-7.983654703731524"><ele>411.0</ele><time>2026-04-23T11:54:12.999Z</time></trkpt><trkpt lat="31.70971010897009" lon="-7.9836872365611935"><ele>411.0</ele><time>2026-04-23T11:54:13.999Z</time></trkpt><trkpt lat="31.709570361174208" lon="-7.983720680177358"><ele>411.0</ele><time>2026-04-23T11:54:14.999Z</time></trkpt><trkpt lat="31.70942747564485" lon="-7.983757219707062"><ele>411.0</ele><time>2026-04-23T11:54:15.999Z</time></trkpt><trkpt lat="31.709280489353308" lon="-7.983795522928028"><ele>411.0</ele><time>2026-04-23T11:54:16.999Z</time></trkpt><trkpt lat="31.709129937772936" lon="-7.983833137798007"><ele>410.66666666666663</ele><time>2026-04-23T11:54:17.999Z</time></trkpt><trkpt lat="31.70897607287896" lon="-7.9838726633961485"><ele>410.3333333333333</ele><time>2026-04-23T11:54:18.999Z</time></trkpt><trkpt lat="31.708825440835263" lon="-7.983912753792811"><ele>410.0</ele><time>2026-04-23T11:54:19.999Z</time></trkpt><trkpt lat="31.708673788483217" lon="-7.983950671531933"><ele>410.3333333333333</ele><time>2026-04-23T11:54:20.999Z</time></trkpt><trkpt lat="31.708520002122867" lon="-7.98398415452322"><ele>410.66666666666663</ele><time>2026-04-23T11:54:22Z</time></trkpt><trkpt lat="31.7083683121153" lon="-7.984013902957289"><ele>411.0</ele><time>2026-04-23T11:54:23Z</time></trkpt><trkpt lat="31.70821786189237" lon="-7.984036208352753"><ele>411.0</ele><time>2026-04-23T11:54:24Z</time></trkpt><trkpt lat="31.708066552119853" lon="-7.984054553036693"><ele>411.0</ele><time>2026-04-23T11:54:25Z</time></trkpt><trkpt lat="31.70791219135759" lon="-7.984045938200654"><ele>411.0</ele><time>2026-04-23T11:54:26Z</time></trkpt><trkpt lat="31.707759369671596" lon="-7.9840691377485555"><ele>411.0</ele><time>2026-04-23T11:54:27Z</time></trkpt><trkpt lat="31.707604348756387" lon="-7.984066080265524"><ele>411.0</ele><time>2026-04-23T11:54:28Z</time></trkpt><trkpt lat="31.707448098680665" lon="-7.9840593380378815"><ele>411.0</ele><time>2026-04-23T11:54:29Z</time></trkpt><trkpt lat="31.707293054475063" lon="-7.984045830592529"><ele>411.0</ele><time>2026-04-23T11:54:30Z</time></trkpt><trkpt lat="31.707140812751973" lon="-7.984030190379866"><ele>411.0</ele><time>2026-04-23T11:54:31Z</time></trkpt><trkpt lat="31.70699408069913" lon="-7.984011707707887"><ele>411.0</ele><time>2026-04-23T11:54:32Z</time></trkpt><trkpt lat="31.70684552160093" lon="-7.9839907218379205"><ele>410.0</ele><time>2026-04-23T11:54:33Z</time></trkpt><trkpt lat="31.706694324910313" lon="-7.983967884402162"><ele>409.0</ele><time>2026-04-23T11:54:34Z</time></trkpt><trkpt lat="31.706541966218" lon="-7.98394408182269"><ele>408.0</ele><time>2026-04-23T11:54:35Z</time></trkpt><trkpt lat="31.70638630585162" lon="-7.983917707056436"><ele>408.0</ele><time>2026-04-23T11:54:36Z</time></trkpt><trkpt lat="31.70623075085968" lon="-7.983893577408604"><ele>408.0</ele><time>2026-04-23T11:54:37Z</time></trkpt><trkpt lat="31.706073484701076" lon="-7.983874114836492"><ele>408.0</ele><time>2026-04-23T11:54:38Z</time></trkpt><trkpt lat="31.705917680078596" lon="-7.98385514075199"><ele>407.33333333333337</ele><time>2026-04-23T11:54:39Z</time></trkpt><trkpt lat="31.70576404869147" lon="-7.983831937616697"><ele>406.6666666666667</ele><time>2026-04-23T11:54:40Z</time></trkpt><trkpt lat="31.70561029902845" lon="-7.983809780305673"><ele>406.0</ele><time>2026-04-23T11:54:41Z</time></trkpt><trkpt lat="31.705456808226355" lon="-7.983787044937096"><ele>406.0</ele><time>2026-04-23T11:54:42Z</time></trkpt><trkpt lat="31.705303534303418" lon="-7.983763671930216"><ele>406.0</ele><time>2026-04-23T11:54:43Z</time></trkpt><trkpt lat="31.70515026128152" lon="-7.9837408100931615"><ele>406.0</ele><time>2026-04-23T11:54:44Z</time></trkpt><trkpt lat="31.70499701065174" lon="-7.983719499502177"><ele>406.0</ele><time>2026-04-23T11:54:45Z</time></trkpt><trkpt lat="31.70484431472728" lon="-7.983700165951073"><ele>406.0</ele><time>2026-04-23T11:54:46Z</time></trkpt><trkpt lat="31.704690762364002" lon="-7.98368250364347"><ele>406.0</ele><time>2026-04-23T11:54:47Z</time></trkpt><trkpt lat="31.70453866981044" lon="-7.983664321708995"><ele>406.33333333333337</ele><time>2026-04-23T11:54:48Z</time></trkpt><trkpt lat="31.704389921826564" lon="-7.983622641087143"><ele>406.66666666666663</ele><time>2026-04-23T11:54:49Z</time></trkpt><trkpt lat="31.704237082632247" lon="-7.983600756024538"><ele>407.0</ele><time>2026-04-23T11:54:50Z</time></trkpt><trkpt lat="31.704085262838454" lon="-7.983578424885897"><ele>407.0</ele><time>2026-04-23T11:54:51Z</time></trkpt><trkpt lat="31.703934021304885" lon="-7.983555909987168"><ele>407.0</ele><time>2026-04-23T11:54:52Z</time></trkpt><trkpt lat="31.703784539356516" lon="-7.983533581070415"><ele>407.0</ele><time>2026-04-23T11:54:53Z</time></trkpt><trkpt lat="31.703634255266408" lon="-7.9835111323327785"><ele>407.3333333333333</ele><time>2026-04-23T11:54:54Z</time></trkpt><trkpt lat="31.703484356008005" lon="-7.983488741079647"><ele>407.66666666666663</ele><time>2026-04-23T11:54:55Z</time></trkpt><trkpt lat="31.703334678346657" lon="-7.983466382928535"><ele>408.0</ele><time>2026-04-23T11:54:56Z</time></trkpt><trkpt lat="31.70318502567574" lon="-7.983444028508922"><ele>408.0</ele><time>2026-04-23T11:54:57Z</time></trkpt><trkpt lat="31.703033985398537" lon="-7.983421466818275"><ele>408.0</ele><time>2026-04-23T11:54:58Z</time></trkpt><trkpt lat="31.70288139757295" lon="-7.983399071756193"><ele>408.0</ele><time>2026-04-23T11:54:59Z</time></trkpt><trkpt lat="31.702730265976925" lon="-7.983382710506338"><ele>407.66666666666663</ele><time>2026-04-23T11:55:00Z</time></trkpt><trkpt lat="31.702577383899875" lon="-7.983384700464877"><ele>407.3333333333333</ele><time>2026-04-23T11:55:01Z</time></trkpt><trkpt lat="31.70242493209903" lon="-7.983368303755301"><ele>407.0</ele><time>2026-04-23T11:55:02Z</time></trkpt><trkpt lat="31.702272063837633" lon="-7.9833574210205445"><ele>407.0</ele><time>2026-04-23T11:55:03Z</time></trkpt><trkpt lat="31.70212383098985" lon="-7.9833541350173105"><ele>407.0</ele><time>2026-04-23T11:55:04Z</time></trkpt><trkpt lat="31.701978422979114" lon="-7.983339157855283"><ele>407.0</ele><time>2026-04-23T11:55:05Z</time></trkpt><trkpt lat="31.70183984665718" lon="-7.983355411798543"><ele>407.0</ele><time>2026-04-23T11:55:06Z</time></trkpt><trkpt lat="31.70171023409757" lon="-7.983369338124507"><ele>407.20000000000005</ele><time>2026-04-23T11:55:07Z</time></trkpt><trkpt lat="31.7015888678544" lon="-7.983397211095403"><ele>407.4</ele><time>2026-04-23T11:55:08Z</time></trkpt><trkpt lat="31.701489167565178" lon="-7.983426484283007"><ele>407.6</ele><time>2026-04-23T11:55:09Z</time></trkpt><trkpt lat="31.701404911496766" lon="-7.983456313123199"><ele>407.79999999999995</ele><time>2026-04-23T11:55:10Z</time></trkpt><trkpt lat="31.70132611418989" lon="-7.983486671459478"><ele>408.0</ele><time>2026-04-23T11:55:11Z</time></trkpt><trkpt lat="31.701257832737575" lon="-7.983529872281117"><ele>408.0</ele><time>2026-04-23T11:55:12Z</time></trkpt><trkpt lat="31.701187038068003" lon="-7.983574663126245"><ele>408.0</ele><time>2026-04-23T11:55:13Z</time></trkpt><trkpt lat="31.70113443598848" lon="-7.9836690073622485"><ele>408.0</ele><time>2026-04-23T11:55:14Z</time></trkpt><trkpt lat="31.701049243836746" lon="-7.983707048413749"><ele>408.0</ele><time>2026-04-23T11:55:15Z</time></trkpt><trkpt lat="31.70095400338863" lon="-7.983736677635631"><ele>408.0</ele><time>2026-04-23T11:55:16Z</time></trkpt><trkpt lat="31.700849587208168" lon="-7.983738039503085"><ele>407.5</ele><time>2026-04-23T11:55:17Z</time></trkpt><trkpt lat="31.70074345219269" lon="-7.983792063958919"><ele>407.0</ele><time>2026-04-23T11:55:18Z</time></trkpt><trkpt lat="31.700647038124803" lon="-7.983867200162762"><ele>406.5</ele><time>2026-04-23T11:55:19Z</time></trkpt><trkpt lat="31.7005558216804" lon="-7.983957824402796"><ele>406.0</ele><time>2026-04-23T11:55:20Z</time></trkpt><trkpt lat="31.700454878211975" lon="-7.984036638175936"><ele>406.0</ele><time>2026-04-23T11:55:21Z</time></trkpt><trkpt lat="31.70035386823668" lon="-7.984118888540026"><ele>406.0</ele><time>2026-04-23T11:55:22Z</time></trkpt><trkpt lat="31.70025281031204" lon="-7.9842080940213505"><ele>406.0</ele><time>2026-04-23T11:55:23Z</time></trkpt><trkpt lat="31.70014862182579" lon="-7.984304441449016"><ele>406.0</ele><time>2026-04-23T11:55:24Z</time></trkpt><trkpt lat="31.70004506381205" lon="-7.984408715217688"><ele>406.25</ele><time>2026-04-23T11:55:25Z</time></trkpt><trkpt lat="31.69994063960835" lon="-7.984520510419934"><ele>406.5</ele><time>2026-04-23T11:55:26Z</time></trkpt><trkpt lat="31.69983493400818" lon="-7.984637802559585"><ele>406.75</ele><time>2026-04-23T11:55:27Z</time></trkpt><trkpt lat="31.699728471479983" lon="-7.984759385965982"><ele>407.0</ele><time>2026-04-23T11:55:28Z</time></trkpt><trkpt lat="31.69962037779256" lon="-7.984878902545069"><ele>407.0</ele><time>2026-04-23T11:55:29Z</time></trkpt><trkpt lat="31.699508537879122" lon="-7.984999876108299"><ele>407.0</ele><time>2026-04-23T11:55:30Z</time></trkpt><trkpt lat="31.69939560012152" lon="-7.985120561828296"><ele>407.0</ele><time>2026-04-23T11:55:31Z</time></trkpt><trkpt lat="31.69928236561062" lon="-7.985238438361476"><ele>406.3333333333333</ele><time>2026-04-23T11:55:32Z</time></trkpt><trkpt lat="31.69916883915842" lon="-7.985354853007999"><ele>405.66666666666663</ele><time>2026-04-23T11:55:33Z</time></trkpt><trkpt lat="31.699057237197678" lon="-7.985470252961904"><ele>405.0</ele><time>2026-04-23T11:55:34Z</time></trkpt><trkpt lat="31.698944821324364" lon="-7.985588777136836"><ele>405.0</ele><time>2026-04-23T11:55:35Z</time></trkpt><trkpt lat="31.69883201200855" lon="-7.985705580010742"><ele>405.0</ele><time>2026-04-23T11:55:36Z</time></trkpt><trkpt lat="31.698719817658084" lon="-7.985821327475425"><ele>405.0</ele><time>2026-04-23T11:55:37Z</time></trkpt><trkpt lat="31.6986092861962" lon="-7.985937704698532"><ele>405.0</ele><time>2026-04-23T11:55:38Z</time></trkpt><trkpt lat="31.698498298562342" lon="-7.986050911455732"><ele>405.0</ele><time>2026-04-23T11:55:39Z</time></trkpt><trkpt lat="31.69839008244072" lon="-7.9861633147798115"><ele>405.0</ele><time>2026-04-23T11:55:40Z</time></trkpt><trkpt lat="31.69828576164987" lon="-7.9862699475078704"><ele>405.0</ele><time>2026-04-23T11:55:41Z</time></trkpt><trkpt lat="31.698187524490024" lon="-7.986369677342227"><ele>405.0</ele><time>2026-04-23T11:55:42Z</time></trkpt><trkpt lat="31.69809504421378" lon="-7.986461255724714"><ele>405.0</ele><time>2026-04-23T11:55:43Z</time></trkpt><trkpt lat="31.698010055593613" lon="-7.986549327725205"><ele>405.0</ele><time>2026-04-23T11:55:44Z</time></trkpt><trkpt lat="31.697930617963316" lon="-7.9866319293829635"><ele>405.0</ele><time>2026-04-23T11:55:45Z</time></trkpt><trkpt lat="31.69785870127902" lon="-7.986708153262198"><ele>405.0</ele><time>2026-04-23T11:55:46Z</time></trkpt><trkpt lat="31.69778892411918" lon="-7.986780216430892"><ele>405.0</ele><time>2026-04-23T11:55:47Z</time></trkpt><trkpt lat="31.697725702010406" lon="-7.986846404569213"><ele>404.8333333333333</ele><time>2026-04-23T11:55:47.999Z</time></trkpt><trkpt lat="31.69766970924998" lon="-7.986910860643475"><ele>404.66666666666663</ele><time>2026-04-23T11:55:48.999Z</time></trkpt><trkpt lat="31.697620616496177" lon="-7.986973366494048"><ele>404.5</ele><time>2026-04-23T11:55:49.999Z</time></trkpt><trkpt lat="31.697581853691865" lon="-7.987039127294556"><ele>404.3333333333333</ele><time>2026-04-23T11:55:50.999Z</time></trkpt><trkpt lat="31.697549794242782" lon="-7.9871039711752605"><ele>404.16666666666663</ele><time>2026-04-23T11:55:51.999Z</time></trkpt><trkpt lat="31.697495469115076" lon="-7.9872324958022745"><ele>404.0</ele><time>2026-04-23T11:55:53.999Z</time></trkpt><trkpt lat="31.697440849185543" lon="-7.9873507935655415"><ele>403.99999999999994</ele><time>2026-04-23T11:55:55.999Z</time></trkpt><trkpt lat="31.697356419474048" lon="-7.987448900588964"><ele>404.0</ele><time>2026-04-23T11:55:57.999Z</time></trkpt><trkpt lat="31.697296182753018" lon="-7.9874850845484096"><ele>404.0</ele><time>2026-04-23T11:55:58.999Z</time></trkpt><trkpt lat="31.697226508418076" lon="-7.987512544755907"><ele>404.0</ele><time>2026-04-23T11:55:59.999Z</time></trkpt><trkpt lat="31.697157156390645" lon="-7.987538193501002"><ele>403.99999999999994</ele><time>2026-04-23T11:56:00.999Z</time></trkpt><trkpt lat="31.697086504238424" lon="-7.9875703172564"><ele>404.0</ele><time>2026-04-23T11:56:01.999Z</time></trkpt><trkpt lat="31.69701418304204" lon="-7.987615799738101"><ele>404.0</ele><time>2026-04-23T11:56:02.999Z</time></trkpt><trkpt lat="31.69693947953467" lon="-7.987673524220058"><ele>404.0</ele><time>2026-04-23T11:56:03.999Z</time></trkpt><trkpt lat="31.696860094253122" lon="-7.987744623910303"><ele>404.0</ele><time>2026-04-23T11:56:04.999Z</time></trkpt><trkpt lat="31.69677499761034" lon="-7.987824177407639"><ele>404.0</ele><time>2026-04-23T11:56:05.999Z</time></trkpt><trkpt lat="31.696683434835354" lon="-7.987910713817694"><ele>404.0</ele><time>2026-04-23T11:56:06.999Z</time></trkpt><trkpt lat="31.696592099403443" lon="-7.988001873415823"><ele>403.75</ele><time>2026-04-23T11:56:07.999Z</time></trkpt><trkpt lat="31.696499960122733" lon="-7.988101283055905"><ele>403.5</ele><time>2026-04-23T11:56:08.999Z</time></trkpt><trkpt lat="31.696404217803842" lon="-7.988209112011853"><ele>403.25</ele><time>2026-04-23T11:56:09.999Z</time></trkpt><trkpt lat="31.696300871880457" lon="-7.9883208936319825"><ele>403.0</ele><time>2026-04-23T11:56:10.999Z</time></trkpt><trkpt lat="31.696193662615755" lon="-7.988439619128352"><ele>403.0</ele><time>2026-04-23T11:56:11.999Z</time></trkpt><trkpt lat="31.696084768041526" lon="-7.988560445781816"><ele>403.0</ele><time>2026-04-23T11:56:12.999Z</time></trkpt><trkpt lat="31.69597392767738" lon="-7.9886838256185815"><ele>403.0</ele><time>2026-04-23T11:56:13.999Z</time></trkpt><trkpt lat="31.69586339887611" lon="-7.988805885307465"><ele>403.0</ele><time>2026-04-23T11:56:14.999Z</time></trkpt><trkpt lat="31.69575085496092" lon="-7.98892965656156"><ele>403.0</ele><time>2026-04-23T11:56:15.999Z</time></trkpt><trkpt lat="31.695638125189458" lon="-7.989054039786864"><ele>403.0</ele><time>2026-04-23T11:56:16.999Z</time></trkpt><trkpt lat="31.695522028196823" lon="-7.98917949901256"><ele>402.6666666666667</ele><time>2026-04-23T11:56:17.999Z</time></trkpt><trkpt lat="31.695401474679954" lon="-7.989308425834251"><ele>402.33333333333337</ele><time>2026-04-23T11:56:18.999Z</time></trkpt><trkpt lat="31.69527759874829" lon="-7.989439132755922"><ele>402.0</ele><time>2026-04-23T11:56:19.999Z</time></trkpt><trkpt lat="31.69515333466671" lon="-7.989569857445513"><ele>402.66666666666663</ele><time>2026-04-23T11:56:20.999Z</time></trkpt><trkpt lat="31.695030124349113" lon="-7.989697209583739"><ele>403.3333333333333</ele><time>2026-04-23T11:56:21.999Z</time></trkpt><trkpt lat="31.694907210542294" lon="-7.9898213099257305"><ele>404.0</ele><time>2026-04-23T11:56:22.999Z</time></trkpt><trkpt lat="31.694782850045737" lon="-7.989940434859867"><ele>403.3333333333333</ele><time>2026-04-23T11:56:23.999Z</time></trkpt><trkpt lat="31.69465587184105" lon="-7.9900553191274435"><ele>402.66666666666663</ele><time>2026-04-23T11:56:24.999Z</time></trkpt><trkpt lat="31.694526050502663" lon="-7.990167072147837"><ele>402.0</ele><time>2026-04-23T11:56:25.999Z</time></trkpt><trkpt lat="31.694395914139356" lon="-7.990273295788056"><ele>402.0</ele><time>2026-04-23T11:56:26.999Z</time></trkpt><trkpt lat="31.694266077121032" lon="-7.990374484871992"><ele>402.0</ele><time>2026-04-23T11:56:28Z</time></trkpt><trkpt lat="31.69413631160539" lon="-7.99047210219118"><ele>402.0</ele><time>2026-04-23T11:56:29Z</time></trkpt><trkpt lat="31.69400608906368" lon="-7.990565043567458"><ele>402.0</ele><time>2026-04-23T11:56:30Z</time></trkpt><trkpt lat="31.693875036061876" lon="-7.990656538054178"><ele>402.0</ele><time>2026-04-23T11:56:31Z</time></trkpt><trkpt lat="31.693742979728047" lon="-7.990742606493848"><ele>402.0</ele><time>2026-04-23T11:56:32Z</time></trkpt><trkpt lat="31.6936139291965" lon="-7.990820732644557"><ele>402.0</ele><time>2026-04-23T11:56:33Z</time></trkpt><trkpt lat="31.693485297590456" lon="-7.990895753987517"><ele>401.25</ele><time>2026-04-23T11:56:34Z</time></trkpt><trkpt lat="31.693355929569538" lon="-7.990967296031978"><ele>400.5</ele><time>2026-04-23T11:56:35Z</time></trkpt><trkpt lat="31.693223430936698" lon="-7.991034532754136"><ele>399.75</ele><time>2026-04-23T11:56:36Z</time></trkpt><trkpt lat="31.693086401165914" lon="-7.991098231316385"><ele>399.0</ele><time>2026-04-23T11:56:37Z</time></trkpt><trkpt lat="31.69294556509874" lon="-7.9911588825573805"><ele>399.0</ele><time>2026-04-23T11:56:38Z</time></trkpt><trkpt lat="31.692803144495155" lon="-7.991214394114758"><ele>399.0</ele><time>2026-04-23T11:56:39Z</time></trkpt><trkpt lat="31.692659465581375" lon="-7.991270575984117"><ele>399.0</ele><time>2026-04-23T11:56:40Z</time></trkpt><trkpt lat="31.692515387936503" lon="-7.991322744263059"><ele>399.0</ele><time>2026-04-23T11:56:41Z</time></trkpt><trkpt lat="31.692372492623218" lon="-7.991372516530019"><ele>399.0</ele><time>2026-04-23T11:56:42Z</time></trkpt><trkpt lat="31.692228401154615" lon="-7.9914182724741165"><ele>399.0</ele><time>2026-04-23T11:56:43Z</time></trkpt><trkpt lat="31.69208498687058" lon="-7.991462597855795"><ele>399.0</ele><time>2026-04-23T11:56:44Z</time></trkpt><trkpt lat="31.691940801486343" lon="-7.991506269360284"><ele>399.66666666666663</ele><time>2026-04-23T11:56:45Z</time></trkpt><trkpt lat="31.691795707740614" lon="-7.99154579569538"><ele>400.3333333333333</ele><time>2026-04-23T11:56:46Z</time></trkpt><trkpt lat="31.691650602469693" lon="-7.991585041555421"><ele>401.0</ele><time>2026-04-23T11:56:47Z</time></trkpt><trkpt lat="31.69150171085279" lon="-7.991625464807164"><ele>401.0</ele><time>2026-04-23T11:56:48Z</time></trkpt><trkpt lat="31.691351123659686" lon="-7.991665430087739"><ele>401.0</ele><time>2026-04-23T11:56:49Z</time></trkpt><trkpt lat="31.691200318996202" lon="-7.9917043942023"><ele>401.0</ele><time>2026-04-23T11:56:50Z</time></trkpt><trkpt lat="31.691049338559196" lon="-7.9917415303702475"><ele>400.66666666666663</ele><time>2026-04-23T11:56:51Z</time></trkpt><trkpt lat="31.690899326621288" lon="-7.9917802564554234"><ele>400.33333333333337</ele><time>2026-04-23T11:56:52Z</time></trkpt><trkpt lat="31.6907500653566" lon="-7.991817822583651"><ele>400.0</ele><time>2026-04-23T11:56:53Z</time></trkpt><trkpt lat="31.69060202925868" lon="-7.991856277602838"><ele>400.0</ele><time>2026-04-23T11:56:54Z</time></trkpt><trkpt lat="31.690452090580404" lon="-7.991895093517521"><ele>400.0</ele><time>2026-04-23T11:56:55Z</time></trkpt><trkpt lat="31.690303886115483" lon="-7.991933681303482"><ele>400.0</ele><time>2026-04-23T11:56:56Z</time></trkpt><trkpt lat="31.690155290452527" lon="-7.991975581560222"><ele>400.6666666666667</ele><time>2026-04-23T11:56:57Z</time></trkpt><trkpt lat="31.690008120930617" lon="-7.9920179276779155"><ele>401.33333333333337</ele><time>2026-04-23T11:56:58Z</time></trkpt><trkpt lat="31.689861686523233" lon="-7.992056262478112"><ele>402.0</ele><time>2026-04-23T11:56:59Z</time></trkpt><trkpt lat="31.689715535988046" lon="-7.992094615955867"><ele>402.0</ele><time>2026-04-23T11:57:00Z</time></trkpt><trkpt lat="31.689569762565224" lon="-7.99213357604706"><ele>402.0</ele><time>2026-04-23T11:57:01Z</time></trkpt><trkpt lat="31.68942684309077" lon="-7.992171347719808"><ele>402.0</ele><time>2026-04-23T11:57:02Z</time></trkpt><trkpt lat="31.689293959862535" lon="-7.992204173637894"><ele>402.0</ele><time>2026-04-23T11:57:03Z</time></trkpt><trkpt lat="31.689170949080424" lon="-7.992236716488417"><ele>402.20000000000005</ele><time>2026-04-23T11:57:04Z</time></trkpt><trkpt lat="31.68905467092618" lon="-7.992268671859098"><ele>402.4</ele><time>2026-04-23T11:57:05Z</time></trkpt><trkpt lat="31.688944441062645" lon="-7.992297063022882"><ele>402.6</ele><time>2026-04-23T11:57:06Z</time></trkpt><trkpt lat="31.6888418807594" lon="-7.992322770563739"><ele>402.79999999999995</ele><time>2026-04-23T11:57:07Z</time></trkpt><trkpt lat="31.688743448411945" lon="-7.992348541061323"><ele>403.0</ele><time>2026-04-23T11:57:08Z</time></trkpt><trkpt lat="31.68864846730964" lon="-7.992374826380747"><ele>403.00000000000006</ele><time>2026-04-23T11:57:09Z</time></trkpt><trkpt lat="31.688556944728596" lon="-7.992399231230686"><ele>403.0</ele><time>2026-04-23T11:57:10Z</time></trkpt><trkpt lat="31.688468480322992" lon="-7.992421709493446"><ele>403.0</ele><time>2026-04-23T11:57:11Z</time></trkpt><trkpt lat="31.688385997605742" lon="-7.992442660723743"><ele>403.0</ele><time>2026-04-23T11:57:12Z</time></trkpt><trkpt lat="31.68831030595712" lon="-7.992460448555012"><ele>403.00000000000006</ele><time>2026-04-23T11:57:13Z</time></trkpt><trkpt lat="31.6882453847667" lon="-7.992474517127948"><ele>403.0</ele><time>2026-04-23T11:57:14Z</time></trkpt><trkpt lat="31.688133953815615" lon="-7.992491672026438"><ele>403.00000000000006</ele><time>2026-04-23T11:57:16Z</time></trkpt><trkpt lat="31.688033890057667" lon="-7.992500499381512"><ele>403.0</ele><time>2026-04-23T11:57:18Z</time></trkpt><trkpt lat="31.68792525981334" lon="-7.992501942523052"><ele>403.0</ele><time>2026-04-23T11:57:20Z</time></trkpt><trkpt lat="31.68786037630714" lon="-7.992501624305019"><ele>403.0</ele><time>2026-04-23T11:57:21Z</time></trkpt><trkpt lat="31.687790763061976" lon="-7.992500255167345"><ele>403.00000000000006</ele><time>2026-04-23T11:57:22Z</time></trkpt><trkpt lat="31.687721496863343" lon="-7.992497896696869"><ele>403.0</ele><time>2026-04-23T11:57:23Z</time></trkpt><trkpt lat="31.68764841850239" lon="-7.992494457109659"><ele>403.1666666666667</ele><time>2026-04-23T11:57:24Z</time></trkpt><trkpt lat="31.687571218195227" lon="-7.992487602549764"><ele>403.33333333333337</ele><time>2026-04-23T11:57:25Z</time></trkpt><trkpt lat="31.687491553265264" lon="-7.992478683318433"><ele>403.5</ele><time>2026-04-23T11:57:26Z</time></trkpt><trkpt lat="31.6874090410345" lon="-7.992470141857783"><ele>403.66666666666663</ele><time>2026-04-23T11:57:27Z</time></trkpt><trkpt lat="31.687327441646726" lon="-7.992461683920047"><ele>403.8333333333333</ele><time>2026-04-23T11:57:28Z</time></trkpt><trkpt lat="31.687247798516648" lon="-7.992454809943291"><ele>404.0</ele><time>2026-04-23T11:57:29Z</time></trkpt><trkpt lat="31.68717376094703" lon="-7.992447136703357"><ele>403.99999999999994</ele><time>2026-04-23T11:57:30Z</time></trkpt><trkpt lat="31.68710289001979" lon="-7.992439227655446"><ele>404.0</ele><time>2026-04-23T11:57:31Z</time></trkpt><trkpt lat="31.686987634016337" lon="-7.992434130600401"><ele>404.0</ele><time>2026-04-23T11:57:33Z</time></trkpt><trkpt lat="31.686911924817927" lon="-7.992441852282558"><ele>404.0</ele><time>2026-04-23T11:57:35Z</time></trkpt><trkpt lat="31.68683837046762" lon="-7.992447949509976"><ele>403.99999999999994</ele><time>2026-04-23T11:58:44Z</time></trkpt><trkpt lat="31.686774887072392" lon="-7.992467762813667"><ele>404.0</ele><time>2026-04-23T11:58:46Z</time></trkpt><trkpt lat="31.68676151943352" lon="-7.992639297558382"><ele>404.2</ele><time>2026-04-23T11:58:48Z</time></trkpt><trkpt lat="31.686636575631468" lon="-7.992575269324269"><ele>404.4</ele><time>2026-04-23T11:58:49Z</time></trkpt><trkpt lat="31.68657887032319" lon="-7.99261487034347"><ele>404.6</ele><time>2026-04-23T11:58:50Z</time></trkpt><trkpt lat="31.686518071307034" lon="-7.992649902541767"><ele>404.8</ele><time>2026-04-23T11:58:51Z</time></trkpt><trkpt lat="31.686458201807373" lon="-7.992676977631287"><ele>405.0</ele><time>2026-04-23T11:58:52Z</time></trkpt><trkpt lat="31.686336344021424" lon="-7.9926978430062245"><ele>405.0</ele><time>2026-04-23T11:58:54Z</time></trkpt><trkpt lat="31.686207823460833" lon="-7.992697124228828"><ele>405.0</ele><time>2026-04-23T11:58:56Z</time></trkpt><trkpt lat="31.686134415422" lon="-7.992702249387995"><ele>405.0</ele><time>2026-04-23T11:58:57Z</time></trkpt><trkpt lat="31.68605716993942" lon="-7.992721245816413"><ele>405.0</ele><time>2026-04-23T11:58:58Z</time></trkpt><trkpt lat="31.685976578981347" lon="-7.99275571279944"><ele>405.0</ele><time>2026-04-23T11:58:59Z</time></trkpt><trkpt lat="31.685892335900792" lon="-7.992803492139076"><ele>405.25</ele><time>2026-04-23T11:59:00Z</time></trkpt><trkpt lat="31.685804256311638" lon="-7.992859196282838"><ele>405.5</ele><time>2026-04-23T11:59:01Z</time></trkpt><trkpt lat="31.685708465154267" lon="-7.9929208843801565"><ele>405.75</ele><time>2026-04-23T11:59:02Z</time></trkpt><trkpt lat="31.685605028999515" lon="-7.992994238793175"><ele>406.0</ele><time>2026-04-23T11:59:03Z</time></trkpt><trkpt lat="31.685494826685815" lon="-7.993074843423282"><ele>406.0</ele><time>2026-04-23T11:59:04Z</time></trkpt><trkpt lat="31.68537841447835" lon="-7.993159985930292"><ele>406.0</ele><time>2026-04-23T11:59:05Z</time></trkpt><trkpt lat="31.685259371305243" lon="-7.993244100359826"><ele>406.0</ele><time>2026-04-23T11:59:06Z</time></trkpt><trkpt lat="31.68513717213424" lon="-7.993331196216973"><ele>406.0</ele><time>2026-04-23T11:59:07Z</time></trkpt><trkpt lat="31.68501370967369" lon="-7.993422679344679"><ele>406.0</ele><time>2026-04-23T11:59:08Z</time></trkpt><trkpt lat="31.684888428525205" lon="-7.9935155904620006"><ele>406.0</ele><time>2026-04-23T11:59:09Z</time></trkpt><trkpt lat="31.684762139911296" lon="-7.993609321648188"><ele>406.0</ele><time>2026-04-23T11:59:10Z</time></trkpt><trkpt lat="31.68463399586813" lon="-7.993699805345038"><ele>406.0</ele><time>2026-04-23T11:59:11Z</time></trkpt><trkpt lat="31.68450386572997" lon="-7.993788817072813"><ele>407.0</ele><time>2026-04-23T11:59:12Z</time></trkpt><trkpt lat="31.684373786406468" lon="-7.993879522022118"><ele>408.0</ele><time>2026-04-23T11:59:13Z</time></trkpt><trkpt lat="31.684244262510628" lon="-7.9939722244832785"><ele>409.0</ele><time>2026-04-23T11:59:14Z</time></trkpt><trkpt lat="31.684115574067224" lon="-7.9940653339291785"><ele>409.0</ele><time>2026-04-23T11:59:15Z</time></trkpt><trkpt lat="31.683987454660876" lon="-7.9941589964027155"><ele>409.0</ele><time>2026-04-23T11:59:16Z</time></trkpt><trkpt lat="31.683856634321476" lon="-7.994252473861699"><ele>409.0</ele><time>2026-04-23T11:59:17Z</time></trkpt><trkpt lat="31.68372775002345" lon="-7.994344026154736"><ele>409.0</ele><time>2026-04-23T11:59:18Z</time></trkpt><trkpt lat="31.68359876154287" lon="-7.994437476866128"><ele>409.0</ele><time>2026-04-23T11:59:19Z</time></trkpt><trkpt lat="31.683469498449774" lon="-7.994533236990585"><ele>409.0</ele><time>2026-04-23T11:59:20Z</time></trkpt><trkpt lat="31.683340270303226" lon="-7.994632774615442"><ele>409.0</ele><time>2026-04-23T11:59:21Z</time></trkpt><trkpt lat="31.683212238947547" lon="-7.994736635403179"><ele>409.0</ele><time>2026-04-23T11:59:22Z</time></trkpt><trkpt lat="31.6830877338387" lon="-7.994845958031586"><ele>409.0</ele><time>2026-04-23T11:59:23Z</time></trkpt><trkpt lat="31.682965171157974" lon="-7.994958277300743"><ele>409.0</ele><time>2026-04-23T11:59:24Z</time></trkpt><trkpt lat="31.682842530925505" lon="-7.995071591295076"><ele>409.0</ele><time>2026-04-23T11:59:25Z</time></trkpt><trkpt lat="31.682721605900916" lon="-7.995186894098127"><ele>409.0</ele><time>2026-04-23T11:59:26Z</time></trkpt><trkpt lat="31.68260224000671" lon="-7.995303532405879"><ele>409.0</ele><time>2026-04-23T11:59:27Z</time></trkpt><trkpt lat="31.682482938405265" lon="-7.995421954270621"><ele>409.0</ele><time>2026-04-23T11:59:28Z</time></trkpt><trkpt lat="31.68236628748361" lon="-7.995545237796826"><ele>409.0</ele><time>2026-04-23T11:59:29Z</time></trkpt><trkpt lat="31.682251351602343" lon="-7.995670389329248"><ele>409.0</ele><time>2026-04-23T11:59:30Z</time></trkpt><trkpt lat="31.682136137237045" lon="-7.995796869670043"><ele>409.0</ele><time>2026-04-23T11:59:31Z</time></trkpt><trkpt lat="31.68202088684288" lon="-7.995922592776373"><ele>409.0</ele><time>2026-04-23T11:59:32Z</time></trkpt><trkpt lat="31.681905214071424" lon="-7.996050230719931"><ele>409.0</ele><time>2026-04-23T11:59:33Z</time></trkpt><trkpt lat="31.68179052843196" lon="-7.996173428511505"><ele>409.0</ele><time>2026-04-23T11:59:34Z</time></trkpt><trkpt lat="31.681676630488475" lon="-7.996294692414998"><ele>409.0</ele><time>2026-04-23T11:59:35Z</time></trkpt><trkpt lat="31.681563798203378" lon="-7.99641654403839"><ele>409.0</ele><time>2026-04-23T11:59:36Z</time></trkpt><trkpt lat="31.681452841472613" lon="-7.996536771406991"><ele>409.0</ele><time>2026-04-23T11:59:37Z</time></trkpt><trkpt lat="31.681346343691967" lon="-7.996652209568098"><ele>409.0</ele><time>2026-04-23T11:59:38Z</time></trkpt><trkpt lat="31.681242946269002" lon="-7.996764337564304"><ele>409.0</ele><time>2026-04-23T11:59:39Z</time></trkpt><trkpt lat="31.68114389368895" lon="-7.996871212945219"><ele>409.0</ele><time>2026-04-23T11:59:40Z</time></trkpt><trkpt lat="31.68105099946442" lon="-7.996972660760491"><ele>409.0</ele><time>2026-04-23T11:59:41Z</time></trkpt><trkpt lat="31.680965278471795" lon="-7.997066916067244"><ele>409.0</ele><time>2026-04-23T11:59:42Z</time></trkpt><trkpt lat="31.680888659852364" lon="-7.997157625963117"><ele>409.0</ele><time>2026-04-23T11:59:43Z</time></trkpt><trkpt lat="31.68082026587241" lon="-7.997246505619055"><ele>409.0</ele><time>2026-04-23T11:59:44Z</time></trkpt><trkpt lat="31.68076302567066" lon="-7.9973380793899524"><ele>409.0</ele><time>2026-04-23T11:59:45Z</time></trkpt><trkpt lat="31.680689026121506" lon="-7.997394462191289"><ele>409.0</ele><time>2026-04-23T11:59:46Z</time></trkpt><trkpt lat="31.680675169594277" lon="-7.997523639717389"><ele>409.0</ele><time>2026-04-23T11:59:47Z</time></trkpt><trkpt lat="31.6806337918097" lon="-7.997607667560451"><ele>409.0</ele><time>2026-04-23T11:59:48Z</time></trkpt><trkpt lat="31.680583872810125" lon="-7.997679971318358"><ele>408.83333333333337</ele><time>2026-04-23T11:59:49Z</time></trkpt><trkpt lat="31.680526399320986" lon="-7.997737818948505"><ele>408.6666666666667</ele><time>2026-04-23T11:59:50Z</time></trkpt><trkpt lat="31.68046089833858" lon="-7.997777275483498"><ele>408.5</ele><time>2026-04-23T11:59:51Z</time></trkpt><trkpt lat="31.680387053141974" lon="-7.997807746685419"><ele>408.33333333333337</ele><time>2026-04-23T11:59:52Z</time></trkpt><trkpt lat="31.680308752832328" lon="-7.9978446605849545"><ele>408.1666666666667</ele><time>2026-04-23T11:59:52.999Z</time></trkpt><trkpt lat="31.68023079036708" lon="-7.997895237060073"><ele>408.0</ele><time>2026-04-23T11:59:53.999Z</time></trkpt><trkpt lat="31.680151699531987" lon="-7.997957061993954"><ele>408.5</ele><time>2026-04-23T11:59:54.999Z</time></trkpt><trkpt lat="31.68006917877557" lon="-7.998029144380712"><ele>409.0</ele><time>2026-04-23T11:59:55.999Z</time></trkpt><trkpt lat="31.67998311447442" lon="-7.998111367527472"><ele>409.5</ele><time>2026-04-23T11:59:56.999Z</time></trkpt><trkpt lat="31.679894737560844" lon="-7.998202302768066"><ele>410.0</ele><time>2026-04-23T11:59:57.999Z</time></trkpt><trkpt lat="31.679806746007042" lon="-7.998298934732431"><ele>410.25</ele><time>2026-04-23T11:59:58.999Z</time></trkpt><trkpt lat="31.67971475994632" lon="-7.998397243591694"><ele>410.5</ele><time>2026-04-23T11:59:59.999Z</time></trkpt><trkpt lat="31.67961879533982" lon="-7.9985006484859245"><ele>410.75</ele><time>2026-04-23T12:00:00.999Z</time></trkpt><trkpt lat="31.67951821381194" lon="-7.998608304740748"><ele>411.0</ele><time>2026-04-23T12:00:01.999Z</time></trkpt><trkpt lat="31.6794199063952" lon="-7.998719005623549"><ele>411.0</ele><time>2026-04-23T12:00:02.999Z</time></trkpt><trkpt lat="31.679321575164735" lon="-7.9988334438168"><ele>411.0</ele><time>2026-04-23T12:00:03.999Z</time></trkpt><trkpt lat="31.67922343427074" lon="-7.9989482251645665"><ele>411.0</ele><time>2026-04-23T12:00:04.999Z</time></trkpt><trkpt lat="31.679126809645744" lon="-7.999061256524323"><ele>411.0</ele><time>2026-04-23T12:00:05.999Z</time></trkpt><trkpt lat="31.679028176122525" lon="-7.999171130417767"><ele>411.25</ele><time>2026-04-23T12:00:06.999Z</time></trkpt><trkpt lat="31.67892856639042" lon="-7.9992783909850385"><ele>411.5</ele><time>2026-04-23T12:00:07.999Z</time></trkpt><trkpt lat="31.678829059146693" lon="-7.99938459992218"><ele>411.75</ele><time>2026-04-23T12:00:08.999Z</time></trkpt><trkpt lat="31.678735154642183" lon="-7.9994864854113015"><ele>412.0</ele><time>2026-04-23T12:00:09.999Z</time></trkpt><trkpt lat="31.678648727943283" lon="-7.999581133699746"><ele>412.00000000000006</ele><time>2026-04-23T12:00:10.999Z</time></trkpt><trkpt lat="31.67857169477027" lon="-7.999666758818821"><ele>412.0</ele><time>2026-04-23T12:00:11.999Z</time></trkpt><trkpt lat="31.678509345534636" lon="-7.999736236902461"><ele>412.0</ele><time>2026-04-23T12:00:12.999Z</time></trkpt><trkpt lat="31.67845826638066" lon="-7.999792143200183"><ele>412.0</ele><time>2026-04-23T12:00:13.999Z</time></trkpt><trkpt lat="31.678386108325064" lon="-7.999885502969765"><ele>412.00000000000006</ele><time>2026-04-23T12:00:15.999Z</time></trkpt><trkpt lat="31.678325180778007" lon="-7.999925186198937"><ele>412.0</ele><time>2026-04-23T12:00:17.999Z</time></trkpt><trkpt lat="31.678271354364234" lon="-7.9999819779931665"><ele>412.0</ele><time>2026-04-23T12:00:20.999Z</time></trkpt><trkpt lat="31.6781819740944" lon="-8.000102385939412"><ele>412.0</ele><time>2026-04-23T12:00:22.999Z</time></trkpt><trkpt lat="31.678104554936784" lon="-8.000177830107194"><ele>412.0</ele><time>2026-04-23T12:00:23.999Z</time></trkpt><trkpt lat="31.678019519569105" lon="-8.000263192736494"><ele>412.0</ele><time>2026-04-23T12:00:24.999Z</time></trkpt><trkpt lat="31.677930776503132" lon="-8.00035574447665"><ele>412.0</ele><time>2026-04-23T12:00:25.999Z</time></trkpt><trkpt lat="31.67783847704532" lon="-8.000453227345199"><ele>412.0</ele><time>2026-04-23T12:00:26.999Z</time></trkpt><trkpt lat="31.67774408350254" lon="-8.000553349065042"><ele>412.0</ele><time>2026-04-23T12:00:27.999Z</time></trkpt><trkpt lat="31.677653095899068" lon="-8.0006501804622"><ele>412.0</ele><time>2026-04-23T12:00:28.999Z</time></trkpt><trkpt lat="31.677562742932732" lon="-8.000745264286389"><ele>412.40000000000003</ele><time>2026-04-23T12:00:29.999Z</time></trkpt><trkpt lat="31.677476909462648" lon="-8.000834447311657"><ele>412.8</ele><time>2026-04-23T12:00:30.999Z</time></trkpt><trkpt lat="31.677392041422127" lon="-8.000923304040903"><ele>413.2</ele><time>2026-04-23T12:00:31.999Z</time></trkpt><trkpt lat="31.67731215807473" lon="-8.001011474405775"><ele>413.6</ele><time>2026-04-23T12:00:32.999Z</time></trkpt><trkpt lat="31.677235826159325" lon="-8.001096909961344"><ele>414.0</ele><time>2026-04-23T12:00:33.999Z</time></trkpt><trkpt lat="31.677159796260646" lon="-8.001183464755856"><ele>414.0</ele><time>2026-04-23T12:00:34.999Z</time></trkpt><trkpt lat="31.677080366662384" lon="-8.001273795173415"><ele>414.0</ele><time>2026-04-23T12:00:35.999Z</time></trkpt><trkpt lat="31.676997778234625" lon="-8.001367482801928"><ele>414.0</ele><time>2026-04-23T12:00:36.999Z</time></trkpt><trkpt lat="31.67690488375587" lon="-8.001462365195959"><ele>414.0</ele><time>2026-04-23T12:00:37.999Z</time></trkpt><trkpt lat="31.67680581909724" lon="-8.00155715872392"><ele>414.0</ele><time>2026-04-23T12:00:38.999Z</time></trkpt><trkpt lat="31.676704545865313" lon="-8.001655382552238"><ele>414.0</ele><time>2026-04-23T12:00:40Z</time></trkpt><trkpt lat="31.67660161089811" lon="-8.001760121477467"><ele>414.0</ele><time>2026-04-23T12:00:41Z</time></trkpt><trkpt lat="31.676496107059954" lon="-8.001870179883973"><ele>414.0</ele><time>2026-04-23T12:00:42Z</time></trkpt><trkpt lat="31.676388702803145" lon="-8.001983104955924"><ele>414.0</ele><time>2026-04-23T12:00:43Z</time></trkpt><trkpt lat="31.676281365034484" lon="-8.00209917679409"><ele>414.0</ele><time>2026-04-23T12:00:44Z</time></trkpt><trkpt lat="31.676170316226568" lon="-8.002216075295365"><ele>414.0</ele><time>2026-04-23T12:00:45Z</time></trkpt><trkpt lat="31.676056987703667" lon="-8.002336049640665"><ele>414.0</ele><time>2026-04-23T12:00:46Z</time></trkpt><trkpt lat="31.675941130207754" lon="-8.00245604137516"><ele>414.0</ele><time>2026-04-23T12:00:47Z</time></trkpt><trkpt lat="31.675828331019634" lon="-8.00257859223506"><ele>414.0</ele><time>2026-04-23T12:00:48Z</time></trkpt><trkpt lat="31.675715614910963" lon="-8.00270259921352"><ele>414.0</ele><time>2026-04-23T12:00:49Z</time></trkpt><trkpt lat="31.675601858455146" lon="-8.002825970902537"><ele>414.0</ele><time>2026-04-23T12:00:50Z</time></trkpt><trkpt lat="31.67548577067552" lon="-8.002949349449137"><ele>414.0</ele><time>2026-04-23T12:00:51Z</time></trkpt><trkpt lat="31.675368413506405" lon="-8.003071777973316"><ele>414.0</ele><time>2026-04-23T12:00:52Z</time></trkpt><trkpt lat="31.675252939011337" lon="-8.003195348776785"><ele>414.0</ele><time>2026-04-23T12:00:53Z</time></trkpt><trkpt lat="31.675139086915145" lon="-8.003322191712178"><ele>414.0</ele><time>2026-04-23T12:00:54Z</time></trkpt><trkpt lat="31.675025461473997" lon="-8.003449369979482"><ele>414.0</ele><time>2026-04-23T12:00:55Z</time></trkpt><trkpt lat="31.674912643837654" lon="-8.003576869816428"><ele>414.0</ele><time>2026-04-23T12:00:56Z</time></trkpt><trkpt lat="31.674798407046346" lon="-8.00370178415192"><ele>414.0</ele><time>2026-04-23T12:00:57Z</time></trkpt><trkpt lat="31.67468451526515" lon="-8.003824657082792"><ele>414.0</ele><time>2026-04-23T12:00:58Z</time></trkpt><trkpt lat="31.674569839503963" lon="-8.003947296758117"><ele>414.0</ele><time>2026-04-23T12:00:59Z</time></trkpt><trkpt lat="31.674455117587566" lon="-8.004069846870435"><ele>414.0</ele><time>2026-04-23T12:01:00Z</time></trkpt><trkpt lat="31.674340713139728" lon="-8.004192642423238"><ele>414.0</ele><time>2026-04-23T12:01:01Z</time></trkpt><trkpt lat="31.67422682036933" lon="-8.004313417793455"><ele>414.66666666666663</ele><time>2026-04-23T12:01:02Z</time></trkpt><trkpt lat="31.674113158141786" lon="-8.004434991453035"><ele>415.3333333333333</ele><time>2026-04-23T12:01:03Z</time></trkpt><trkpt lat="31.673999541923315" lon="-8.004555524660686"><ele>416.0</ele><time>2026-04-23T12:01:04Z</time></trkpt><trkpt lat="31.673885264287073" lon="-8.004677861109482"><ele>416.0</ele><time>2026-04-23T12:01:05Z</time></trkpt><trkpt lat="31.67377040096709" lon="-8.00479940245018"><ele>416.0</ele><time>2026-04-23T12:01:06Z</time></trkpt><trkpt lat="31.673655153041263" lon="-8.004922325469112"><ele>416.0</ele><time>2026-04-23T12:01:07Z</time></trkpt><trkpt lat="31.673537641042362" lon="-8.0050485445922"><ele>417.0</ele><time>2026-04-23T12:01:08Z</time></trkpt><trkpt lat="31.673420223803063" lon="-8.00517520088487"><ele>418.0</ele><time>2026-04-23T12:01:09Z</time></trkpt><trkpt lat="31.67330512380932" lon="-8.005299759715347"><ele>419.0</ele><time>2026-04-23T12:01:10Z</time></trkpt><trkpt lat="31.673192140371977" lon="-8.005421500139857"><ele>419.0</ele><time>2026-04-23T12:01:11Z</time></trkpt><trkpt lat="31.673080975610105" lon="-8.005542047904415"><ele>419.0</ele><time>2026-04-23T12:01:12Z</time></trkpt><trkpt lat="31.672970821683833" lon="-8.005661106630512"><ele>419.0</ele><time>2026-04-23T12:01:13Z</time></trkpt><trkpt lat="31.672861389195035" lon="-8.005779110227579"><ele>419.0</ele><time>2026-04-23T12:01:14Z</time></trkpt><trkpt lat="31.672751833799143" lon="-8.005897014178977"><ele>418.5</ele><time>2026-04-23T12:01:15Z</time></trkpt><trkpt lat="31.67264316098406" lon="-8.006014892640346"><ele>418.0</ele><time>2026-04-23T12:01:16Z</time></trkpt><trkpt lat="31.67253584693368" lon="-8.00613203804977"><ele>417.5</ele><time>2026-04-23T12:01:17Z</time></trkpt><trkpt lat="31.67243530962709" lon="-8.006242398015921"><ele>417.0</ele><time>2026-04-23T12:01:18Z</time></trkpt><trkpt lat="31.67234104646768" lon="-8.006343029169413"><ele>417.0</ele><time>2026-04-23T12:01:19Z</time></trkpt><trkpt lat="31.672250477645786" lon="-8.006438259251027"><ele>417.0</ele><time>2026-04-23T12:01:20Z</time></trkpt><trkpt lat="31.672170285977703" lon="-8.006526373828658"><ele>417.0</ele><time>2026-04-23T12:01:21Z</time></trkpt><trkpt lat="31.672099460820682" lon="-8.006601419430009"><ele>417.0</ele><time>2026-04-23T12:01:22Z</time></trkpt><trkpt lat="31.672043719009437" lon="-8.006660522329055"><ele>417.0</ele><time>2026-04-23T12:01:23Z</time></trkpt><trkpt lat="31.671969821541058" lon="-8.006731109318547"><ele>417.3333333333333</ele><time>2026-04-23T12:01:25Z</time></trkpt><trkpt lat="31.671925521015254" lon="-8.006786827944106"><ele>417.66666666666663</ele><time>2026-04-23T12:01:53.999Z</time></trkpt><trkpt lat="31.671852428687696" lon="-8.006869723740099"><ele>418.0</ele><time>2026-04-23T12:01:55.999Z</time></trkpt><trkpt lat="31.671801797637297" lon="-8.00692407427654"><ele>418.3333333333333</ele><time>2026-04-23T12:01:56.999Z</time></trkpt><trkpt lat="31.671744403920123" lon="-8.006982187057057"><ele>418.66666666666663</ele><time>2026-04-23T12:01:57.999Z</time></trkpt><trkpt lat="31.6716788465412" lon="-8.007049001591453"><ele>419.0</ele><time>2026-04-23T12:01:58.999Z</time></trkpt><trkpt lat="31.67160444363275" lon="-8.007124329824926"><ele>419.0</ele><time>2026-04-23T12:01:59.999Z</time></trkpt><trkpt lat="31.671522389819433" lon="-8.007205159245654"><ele>419.0</ele><time>2026-04-23T12:02:00.999Z</time></trkpt><trkpt lat="31.671435791957997" lon="-8.007292958291988"><ele>419.0</ele><time>2026-04-23T12:02:01.999Z</time></trkpt><trkpt lat="31.671341933957773" lon="-8.007391216895629"><ele>419.0</ele><time>2026-04-23T12:02:02.999Z</time></trkpt><trkpt lat="31.671244628953872" lon="-8.00749725096357"><ele>419.25</ele><time>2026-04-23T12:02:03.999Z</time></trkpt><trkpt lat="31.67114341954122" lon="-8.007607858687111"><ele>419.5</ele><time>2026-04-23T12:02:04.999Z</time></trkpt><trkpt lat="31.671040554218976" lon="-8.00771783641341"><ele>419.75</ele><time>2026-04-23T12:02:05.999Z</time></trkpt><trkpt lat="31.670935148826196" lon="-8.007828714088037"><ele>420.0</ele><time>2026-04-23T12:02:06.999Z</time></trkpt><trkpt lat="31.670826602358023" lon="-8.007942746537092"><ele>420.33333333333337</ele><time>2026-04-23T12:02:07.999Z</time></trkpt><trkpt lat="31.67071538960734" lon="-8.008059870495128"><ele>420.6666666666667</ele><time>2026-04-23T12:02:08.999Z</time></trkpt><trkpt lat="31.670604566811345" lon="-8.008178760082528"><ele>421.0</ele><time>2026-04-23T12:02:09.999Z</time></trkpt><trkpt lat="31.670494157585324" lon="-8.008299664301939"><ele>421.0</ele><time>2026-04-23T12:02:10.999Z</time></trkpt><trkpt lat="31.670383614305887" lon="-8.008417330881667"><ele>421.0</ele><time>2026-04-23T12:02:11.999Z</time></trkpt><trkpt lat="31.67027268633587" lon="-8.00853440303349"><ele>421.0</ele><time>2026-04-23T12:02:12.999Z</time></trkpt><trkpt lat="31.670162886355826" lon="-8.008654210711915"><ele>421.0</ele><time>2026-04-23T12:02:13.999Z</time></trkpt><trkpt lat="31.670052873433505" lon="-8.00877284926493"><ele>421.0</ele><time>2026-04-23T12:02:14.999Z</time></trkpt><trkpt lat="31.669942583727433" lon="-8.008888663530904"><ele>421.0</ele><time>2026-04-23T12:02:15.999Z</time></trkpt><trkpt lat="31.66983422896701" lon="-8.009007266234025"><ele>421.0</ele><time>2026-04-23T12:02:16.999Z</time></trkpt><trkpt lat="31.66972476667371" lon="-8.009127718125614"><ele>421.0</ele><time>2026-04-23T12:02:17.999Z</time></trkpt><trkpt lat="31.669613920395697" lon="-8.009245254536559"><ele>420.5</ele><time>2026-04-23T12:02:18.999Z</time></trkpt><trkpt lat="31.66950257323815" lon="-8.009363262155974"><ele>420.0</ele><time>2026-04-23T12:02:19.999Z</time></trkpt><trkpt lat="31.66939267732269" lon="-8.009482572492393"><ele>419.5</ele><time>2026-04-23T12:02:20.999Z</time></trkpt><trkpt lat="31.669282997793566" lon="-8.009601898532157"><ele>419.0</ele><time>2026-04-23T12:02:21.999Z</time></trkpt><trkpt lat="31.669174129260337" lon="-8.009720565374945"><ele>419.0</ele><time>2026-04-23T12:02:22.999Z</time></trkpt><trkpt lat="31.669066078459096" lon="-8.009840731984763"><ele>419.0</ele><time>2026-04-23T12:02:23.999Z</time></trkpt><trkpt lat="31.668960661365865" lon="-8.009957652573883"><ele>419.0</ele><time>2026-04-23T12:02:24.999Z</time></trkpt><trkpt lat="31.668861957074174" lon="-8.010068954991324"><ele>419.0</ele><time>2026-04-23T12:02:25.999Z</time></trkpt><trkpt lat="31.66876407356508" lon="-8.01017408470698"><ele>419.0</ele><time>2026-04-23T12:02:26.999Z</time></trkpt><trkpt lat="31.66866474311661" lon="-8.01027500440179"><ele>419.0</ele><time>2026-04-23T12:02:27.999Z</time></trkpt><trkpt lat="31.668562227158063" lon="-8.010371625590365"><ele>419.0</ele><time>2026-04-23T12:02:28.999Z</time></trkpt><trkpt lat="31.66846137657195" lon="-8.010460013851285"><ele>419.0</ele><time>2026-04-23T12:02:29.999Z</time></trkpt><trkpt lat="31.668361502778527" lon="-8.010543055961856"><ele>419.0</ele><time>2026-04-23T12:02:30.999Z</time></trkpt><trkpt lat="31.668262082608468" lon="-8.010619724408743"><ele>419.0</ele><time>2026-04-23T12:02:31.999Z</time></trkpt><trkpt lat="31.668157156180335" lon="-8.010670765583056"><ele>419.0</ele><time>2026-04-23T12:02:32.999Z</time></trkpt><trkpt lat="31.66806463315278" lon="-8.010733952056695"><ele>419.0</ele><time>2026-04-23T12:02:33.999Z</time></trkpt><trkpt lat="31.667975804305595" lon="-8.01079461567514"><ele>419.0</ele><time>2026-04-23T12:02:34.999Z</time></trkpt><trkpt lat="31.66789120446245" lon="-8.010852391151763"><ele>419.2</ele><time>2026-04-23T12:02:35.999Z</time></trkpt><trkpt lat="31.667808289349345" lon="-8.010909016119593"><ele>419.4</ele><time>2026-04-23T12:02:36.999Z</time></trkpt><trkpt lat="31.66772314894397" lon="-8.010967161559245"><ele>419.6</ele><time>2026-04-23T12:02:37.999Z</time></trkpt><trkpt lat="31.66764184339699" lon="-8.011033839766892"><ele>419.8</ele><time>2026-04-23T12:02:38.999Z</time></trkpt><trkpt lat="31.66756272242059" lon="-8.011088882596233"><ele>420.0</ele><time>2026-04-23T12:02:39.999Z</time></trkpt><trkpt lat="31.667511116664635" lon="-8.01118846298516"><ele>420.0</ele><time>2026-04-23T12:02:40.999Z</time></trkpt><trkpt lat="31.667446206761348" lon="-8.01124975653714"><ele>420.0</ele><time>2026-04-23T12:02:41.999Z</time></trkpt><trkpt lat="31.667391107099515" lon="-8.0113009196631"><ele>420.0</ele><time>2026-04-23T12:02:42.999Z</time></trkpt><trkpt lat="31.667333695222297" lon="-8.011348798298288"><ele>420.0</ele><time>2026-04-23T12:02:43.999Z</time></trkpt><trkpt lat="31.667277145461348" lon="-8.011383485731125"><ele>420.0</ele><time>2026-04-23T12:02:44.999Z</time></trkpt><trkpt lat="31.66716773702782" lon="-8.01141246386148"><ele>420.0</ele><time>2026-04-23T12:02:47Z</time></trkpt><trkpt lat="31.667071475977398" lon="-8.011432585000506"><ele>420.0</ele><time>2026-04-23T12:02:49Z</time></trkpt><trkpt lat="31.666965610157806" lon="-8.011476332584884"><ele>420.0</ele><time>2026-04-23T12:02:51Z</time></trkpt><trkpt lat="31.666901443069303" lon="-8.011512237487839"><ele>420.0</ele><time>2026-04-23T12:02:52Z</time></trkpt><trkpt lat="31.66683143626804" lon="-8.011556581130135"><ele>420.0</ele><time>2026-04-23T12:02:53Z</time></trkpt><trkpt lat="31.666756491633596" lon="-8.011603469476764"><ele>420.0</ele><time>2026-04-23T12:02:54Z</time></trkpt><trkpt lat="31.66668258095155" lon="-8.011653349778808"><ele>420.0</ele><time>2026-04-23T12:02:55Z</time></trkpt><trkpt lat="31.666612163294477" lon="-8.01170270889906"><ele>420.5</ele><time>2026-04-23T12:02:56Z</time></trkpt><trkpt lat="31.66654338913565" lon="-8.011750396129077"><ele>421.0</ele><time>2026-04-23T12:02:57Z</time></trkpt><trkpt lat="31.66647279990567" lon="-8.011797465367236"><ele>421.5</ele><time>2026-04-23T12:02:58Z</time></trkpt><trkpt lat="31.666400297535176" lon="-8.011844325123032"><ele>422.0</ele><time>2026-04-23T12:02:59Z</time></trkpt><trkpt lat="31.666327043394123" lon="-8.011892433291612"><ele>422.5</ele><time>2026-04-23T12:03:00Z</time></trkpt><trkpt lat="31.666253310960045" lon="-8.011940038114453"><ele>423.0</ele><time>2026-04-23T12:03:01Z</time></trkpt><trkpt lat="31.66618254984034" lon="-8.011985724917073"><ele>423.0</ele><time>2026-04-23T12:03:02Z</time></trkpt><trkpt lat="31.66611182039361" lon="-8.01203184323029"><ele>423.0</ele><time>2026-04-23T12:03:03Z</time></trkpt><trkpt lat="31.666044513930025" lon="-8.01207826884932"><ele>423.0</ele><time>2026-04-23T12:03:04Z</time></trkpt><trkpt lat="31.66597846674926" lon="-8.012124075315894"><ele>423.0</ele><time>2026-04-23T12:03:05Z</time></trkpt><trkpt lat="31.665912256882102" lon="-8.01216886037466"><ele>423.0</ele><time>2026-04-23T12:03:06Z</time></trkpt><trkpt lat="31.665846277747075" lon="-8.012214638480879"><ele>423.0</ele><time>2026-04-23T12:03:07Z</time></trkpt><trkpt lat="31.66578180709897" lon="-8.012260553014345"><ele>423.3333333333333</ele><time>2026-04-23T12:03:08Z</time></trkpt><trkpt lat="31.665719238756175" lon="-8.012306799974695"><ele>423.66666666666663</ele><time>2026-04-23T12:03:09Z</time></trkpt><trkpt lat="31.66565708364044" lon="-8.012348630467285"><ele>424.0</ele><time>2026-04-23T12:03:10Z</time></trkpt><trkpt lat="31.665591280018923" lon="-8.012390243950769"><ele>424.3333333333333</ele><time>2026-04-23T12:03:11Z</time></trkpt><trkpt lat="31.66552373249916" lon="-8.012433083640595"><ele>424.66666666666663</ele><time>2026-04-23T12:03:12Z</time></trkpt><trkpt lat="31.66545097652059" lon="-8.0124810804077"><ele>425.0</ele><time>2026-04-23T12:03:13Z</time></trkpt><trkpt lat="31.665374027901013" lon="-8.012530819557426"><ele>425.4</ele><time>2026-04-23T12:03:14Z</time></trkpt><trkpt lat="31.665290620803145" lon="-8.012583735918538"><ele>425.8</ele><time>2026-04-23T12:03:15Z</time></trkpt><trkpt lat="31.665206324643677" lon="-8.012638630721565"><ele>426.20000000000005</ele><time>2026-04-23T12:03:16Z</time></trkpt><trkpt lat="31.66512293791459" lon="-8.012692249760011"><ele>426.6</ele><time>2026-04-23T12:03:17Z</time></trkpt><trkpt lat="31.665044184342435" lon="-8.012746663687356"><ele>427.0</ele><time>2026-04-23T12:03:18Z</time></trkpt><trkpt lat="31.664965927986017" lon="-8.012797996927253"><ele>427.1666666666667</ele><time>2026-04-23T12:03:19Z</time></trkpt><trkpt lat="31.664889815679373" lon="-8.012846479799865"><ele>427.33333333333337</ele><time>2026-04-23T12:03:20Z</time></trkpt><trkpt lat="31.66481544198115" lon="-8.012894597783708"><ele>427.5</ele><time>2026-04-23T12:03:21Z</time></trkpt><trkpt lat="31.66474284346738" lon="-8.012941635938647"><ele>427.66666666666663</ele><time>2026-04-23T12:03:22Z</time></trkpt><trkpt lat="31.664670136089253" lon="-8.01298953317836"><ele>427.8333333333333</ele><time>2026-04-23T12:03:23Z</time></trkpt><trkpt lat="31.664592598784697" lon="-8.013043729406013"><ele>428.0</ele><time>2026-04-23T12:03:24Z</time></trkpt><trkpt lat="31.664515226037526" lon="-8.01309976699989"><ele>428.2</ele><time>2026-04-23T12:03:25Z</time></trkpt><trkpt lat="31.664439015749338" lon="-8.013153930628416"><ele>428.4</ele><time>2026-04-23T12:03:26Z</time></trkpt><trkpt lat="31.664369131708405" lon="-8.013201935301907"><ele>428.59999999999997</ele><time>2026-04-23T12:03:27Z</time></trkpt><trkpt lat="31.664308314691365" lon="-8.013241354802963"><ele>428.79999999999995</ele><time>2026-04-23T12:03:28Z</time></trkpt><trkpt lat="31.664202963639035" lon="-8.013308603755199"><ele>429.0</ele><time>2026-04-23T12:03:30Z</time></trkpt><trkpt lat="31.664116495667344" lon="-8.013365225878704"><ele>429.4</ele><time>2026-04-23T12:03:32Z</time></trkpt><trkpt lat="31.664037506585828" lon="-8.013421940503559"><ele>429.79999999999995</ele><time>2026-04-23T12:03:34Z</time></trkpt><trkpt lat="31.663966931195965" lon="-8.013484467292736"><ele>430.20000000000005</ele><time>2026-04-23T12:03:36Z</time></trkpt><trkpt lat="31.663893303609154" lon="-8.013562198698695"><ele>430.6</ele><time>2026-04-23T12:03:38Z</time></trkpt><trkpt lat="31.66381064542119" lon="-8.013620264633103"><ele>431.0</ele><time>2026-04-23T12:03:40Z</time></trkpt><trkpt lat="31.663744609419503" lon="-8.013666259813627"><ele>430.99999999999994</ele><time>2026-04-23T12:03:42Z</time></trkpt><trkpt lat="31.663678030058342" lon="-8.013699551533305"><ele>431.0</ele><time>2026-04-23T12:03:45.999Z</time></trkpt><trkpt lat="31.663614936466935" lon="-8.01372692337836"><ele>431.0</ele><time>2026-04-23T12:03:52.999Z</time></trkpt><trkpt lat="31.663518918568148" lon="-8.013780442150852"><ele>431.0</ele><time>2026-04-23T12:03:54.999Z</time></trkpt><trkpt lat="31.663455179194628" lon="-8.013812606345523"><ele>430.99999999999994</ele><time>2026-04-23T12:03:55.999Z</time></trkpt><trkpt lat="31.663377680004878" lon="-8.013847379681298"><ele>431.0</ele><time>2026-04-23T12:03:56.999Z</time></trkpt><trkpt lat="31.663291020774754" lon="-8.013893177293411"><ele>431.25</ele><time>2026-04-23T12:03:57.999Z</time></trkpt><trkpt lat="31.663200150357167" lon="-8.013946900522127"><ele>431.5</ele><time>2026-04-23T12:03:58.999Z</time></trkpt><trkpt lat="31.663098318422094" lon="-8.01401175341834"><ele>431.75</ele><time>2026-04-23T12:03:59.999Z</time></trkpt><trkpt lat="31.66298757295502" lon="-8.014085418207028"><ele>432.0</ele><time>2026-04-23T12:04:00.999Z</time></trkpt><trkpt lat="31.66286537337893" lon="-8.014167386212447"><ele>431.75</ele><time>2026-04-23T12:04:01.999Z</time></trkpt><trkpt lat="31.662741584837235" lon="-8.014253070386703"><ele>431.5</ele><time>2026-04-23T12:04:02.999Z</time></trkpt><trkpt lat="31.66261467287583" lon="-8.014342784483093"><ele>431.25</ele><time>2026-04-23T12:04:03.999Z</time></trkpt><trkpt lat="31.66248486509624" lon="-8.0144356911984"><ele>431.0</ele><time>2026-04-23T12:04:04.999Z</time></trkpt><trkpt lat="31.662352676628732" lon="-8.014531550498472"><ele>431.0</ele><time>2026-04-23T12:04:05.999Z</time></trkpt><trkpt lat="31.662219564424554" lon="-8.014625004751768"><ele>431.0</ele><time>2026-04-23T12:04:06.999Z</time></trkpt><trkpt lat="31.662085679265683" lon="-8.014716621553436"><ele>431.0</ele><time>2026-04-23T12:04:07.999Z</time></trkpt><trkpt lat="31.661952622553432" lon="-8.01480972313361"><ele>431.0</ele><time>2026-04-23T12:04:08.999Z</time></trkpt><trkpt lat="31.6618204061037" lon="-8.014899704881794"><ele>431.0</ele><time>2026-04-23T12:04:09.999Z</time></trkpt><trkpt lat="31.66169082218259" lon="-8.01498644423974"><ele>431.0</ele><time>2026-04-23T12:04:10.999Z</time></trkpt><trkpt lat="31.6615618513958" lon="-8.015072498123772"><ele>431.0</ele><time>2026-04-23T12:04:11.999Z</time></trkpt><trkpt lat="31.661430780826418" lon="-8.015158462475593"><ele>431.0</ele><time>2026-04-23T12:04:12.999Z</time></trkpt><trkpt lat="31.66129937366812" lon="-8.015243524260102"><ele>431.0</ele><time>2026-04-23T12:04:13.999Z</time></trkpt><trkpt lat="31.66116827095331" lon="-8.015331555397665"><ele>431.0</ele><time>2026-04-23T12:04:14.999Z</time></trkpt><trkpt lat="31.66103668197474" lon="-8.015424879131697"><ele>431.0</ele><time>2026-04-23T12:04:15.999Z</time></trkpt><trkpt lat="31.660902505490647" lon="-8.01551633471433"><ele>431.0</ele><time>2026-04-23T12:04:16.999Z</time></trkpt><trkpt lat="31.66076860898402" lon="-8.015607469433313"><ele>431.0</ele><time>2026-04-23T12:04:17.999Z</time></trkpt><trkpt lat="31.660633695759792" lon="-8.015698166063"><ele>431.0</ele><time>2026-04-23T12:04:18.999Z</time></trkpt><trkpt lat="31.660498842233835" lon="-8.015791012036352"><ele>431.0</ele><time>2026-04-23T12:04:19.999Z</time></trkpt><trkpt lat="31.66036276082578" lon="-8.015883468868934"><ele>431.66666666666663</ele><time>2026-04-23T12:04:20.999Z</time></trkpt><trkpt lat="31.660228251476603" lon="-8.015975165874957"><ele>432.33333333333337</ele><time>2026-04-23T12:04:21.999Z</time></trkpt><trkpt lat="31.660091980954004" lon="-8.016066309316555"><ele>433.0</ele><time>2026-04-23T12:04:22.999Z</time></trkpt><trkpt lat="31.65995584968929" lon="-8.016158390853345"><ele>433.0</ele><time>2026-04-23T12:04:23.999Z</time></trkpt><trkpt lat="31.659820865416048" lon="-8.016252945757872"><ele>433.0</ele><time>2026-04-23T12:04:24.999Z</time></trkpt><trkpt lat="31.65968568431056" lon="-8.016348298322695"><ele>433.0</ele><time>2026-04-23T12:04:25.999Z</time></trkpt><trkpt lat="31.65955437221471" lon="-8.016439332434917"><ele>432.75</ele><time>2026-04-23T12:04:26.999Z</time></trkpt><trkpt lat="31.65942727137185" lon="-8.01652754536331"><ele>432.5</ele><time>2026-04-23T12:04:27.999Z</time></trkpt><trkpt lat="31.659308450197116" lon="-8.01660904030983"><ele>432.25</ele><time>2026-04-23T12:04:28.999Z</time></trkpt><trkpt lat="31.65919846344348" lon="-8.01668264660811"><ele>432.0</ele><time>2026-04-23T12:04:29.999Z</time></trkpt><trkpt lat="31.65909994493109" lon="-8.016751198305364"><ele>431.8</ele><time>2026-04-23T12:04:30.999Z</time></trkpt><trkpt lat="31.659013357065504" lon="-8.016808908688056"><ele>431.6</ele><time>2026-04-23T12:04:31.999Z</time></trkpt><trkpt lat="31.658939346126985" lon="-8.0168600824735"><ele>431.40000000000003</ele><time>2026-04-23T12:04:32.999Z</time></trkpt><trkpt lat="31.65887539450641" lon="-8.016904761196061"><ele>431.20000000000005</ele><time>2026-04-23T12:04:33.999Z</time></trkpt><trkpt lat="31.65878173563779" lon="-8.01696904356176"><ele>431.0</ele><time>2026-04-23T12:04:35.999Z</time></trkpt><trkpt lat="31.658707834870054" lon="-8.01701875243332"><ele>431.3333333333333</ele><time>2026-04-23T12:05:21Z</time></trkpt><trkpt lat="31.65861319080629" lon="-8.017082898942073"><ele>431.66666666666663</ele><time>2026-04-23T12:05:23Z</time></trkpt><trkpt lat="31.658551060632604" lon="-8.017122047731746"><ele>432.0</ele><time>2026-04-23T12:05:24Z</time></trkpt><trkpt lat="31.65848230127639" lon="-8.017169021707423"><ele>432.33333333333337</ele><time>2026-04-23T12:05:25Z</time></trkpt><trkpt lat="31.658408005095083" lon="-8.017220312288268"><ele>432.6666666666667</ele><time>2026-04-23T12:05:26Z</time></trkpt><trkpt lat="31.658335160420037" lon="-8.017269802039763"><ele>433.0</ele><time>2026-04-23T12:05:27Z</time></trkpt><trkpt lat="31.658258602218663" lon="-8.01732035559189"><ele>433.0</ele><time>2026-04-23T12:05:28Z</time></trkpt><trkpt lat="31.658175870384365" lon="-8.01737060197991"><ele>432.99999999999994</ele><time>2026-04-23T12:05:29Z</time></trkpt><trkpt lat="31.658084061727216" lon="-8.017421607775791"><ele>432.99999999999994</ele><time>2026-04-23T12:05:30Z</time></trkpt><trkpt lat="31.657983407370242" lon="-8.017478420726249"><ele>433.0</ele><time>2026-04-23T12:05:31Z</time></trkpt><trkpt lat="31.657879222725484" lon="-8.017539949176161"><ele>433.0</ele><time>2026-04-23T12:05:32Z</time></trkpt><trkpt lat="31.65777117306953" lon="-8.017603872550671"><ele>433.25</ele><time>2026-04-23T12:05:33Z</time></trkpt><trkpt lat="31.657658934203095" lon="-8.017669242229491"><ele>433.5</ele><time>2026-04-23T12:05:34Z</time></trkpt><trkpt lat="31.65754568154799" lon="-8.017734648166808"><ele>433.75</ele><time>2026-04-23T12:05:35Z</time></trkpt><trkpt lat="31.657425485066533" lon="-8.017800095408878"><ele>434.0</ele><time>2026-04-23T12:05:36Z</time></trkpt><trkpt lat="31.657295648387944" lon="-8.017869095123702"><ele>434.0</ele><time>2026-04-23T12:05:37Z</time></trkpt><trkpt lat="31.657167992816348" lon="-8.017934532473175"><ele>434.0</ele><time>2026-04-23T12:05:38Z</time></trkpt><trkpt lat="31.657042030415898" lon="-8.018000891237277"><ele>434.0</ele><time>2026-04-23T12:05:39Z</time></trkpt><trkpt lat="31.65692169018084" lon="-8.01806285527431"><ele>434.0</ele><time>2026-04-23T12:05:40Z</time></trkpt><trkpt lat="31.65680330931809" lon="-8.018119682340783"><ele>434.5</ele><time>2026-04-23T12:05:41Z</time></trkpt><trkpt lat="31.656683383042598" lon="-8.018172864713023"><ele>435.0</ele><time>2026-04-23T12:05:42Z</time></trkpt><trkpt lat="31.656566571701067" lon="-8.018228264053711"><ele>435.5</ele><time>2026-04-23T12:05:43Z</time></trkpt><trkpt lat="31.65645302184613" lon="-8.018280882220902"><ele>436.0</ele><time>2026-04-23T12:05:44Z</time></trkpt><trkpt lat="31.656338239220563" lon="-8.018331803487714"><ele>435.75</ele><time>2026-04-23T12:05:45Z</time></trkpt><trkpt lat="31.656220018628883" lon="-8.018379297887257"><ele>435.5</ele><time>2026-04-23T12:05:46Z</time></trkpt><trkpt lat="31.656105305952373" lon="-8.01842315983764"><ele>435.25</ele><time>2026-04-23T12:05:47Z</time></trkpt><trkpt lat="31.65599571273671" lon="-8.018466313247668"><ele>435.0</ele><time>2026-04-23T12:05:48Z</time></trkpt><trkpt lat="31.65588994222514" lon="-8.018507549388165"><ele>435.0</ele><time>2026-04-23T12:05:49Z</time></trkpt><trkpt lat="31.65579072659428" lon="-8.018545796660188"><ele>435.0</ele><time>2026-04-23T12:05:50Z</time></trkpt><trkpt lat="31.65570373407293" lon="-8.018577694915148"><ele>435.0</ele><time>2026-04-23T12:05:51Z</time></trkpt><trkpt lat="31.655627401162185" lon="-8.01860374533455"><ele>435.0</ele><time>2026-04-23T12:05:52Z</time></trkpt><trkpt lat="31.655560176156" lon="-8.018627413478399"><ele>435.0</ele><time>2026-04-23T12:05:52.999Z</time></trkpt><trkpt lat="31.655445360514808" lon="-8.018664188764642"><ele>435.0</ele><time>2026-04-23T12:05:54.999Z</time></trkpt><trkpt lat="31.65535763339637" lon="-8.018694408660274"><ele>435.0</ele><time>2026-04-23T12:05:56.999Z</time></trkpt><trkpt lat="31.655265882912914" lon="-8.018734290059188"><ele>435.0</ele><time>2026-04-23T12:05:58.999Z</time></trkpt><trkpt lat="31.65520447109953" lon="-8.01875906639029"><ele>435.0</ele><time>2026-04-23T12:05:59.999Z</time></trkpt><trkpt lat="31.6551402498645" lon="-8.018784447777485"><ele>435.0</ele><time>2026-04-23T12:06:00.999Z</time></trkpt><trkpt lat="31.655075323347667" lon="-8.018809333570333"><ele>435.0</ele><time>2026-04-23T12:06:01.999Z</time></trkpt><trkpt lat="31.655010675079318" lon="-8.018834497763494"><ele>434.8333333333333</ele><time>2026-04-23T12:06:02.999Z</time></trkpt><trkpt lat="31.654949133054718" lon="-8.018861008186567"><ele>434.66666666666663</ele><time>2026-04-23T12:06:03.999Z</time></trkpt><trkpt lat="31.654887720390462" lon="-8.0188899325495"><ele>434.5</ele><time>2026-04-23T12:06:04.999Z</time></trkpt><trkpt lat="31.654825374786174" lon="-8.018920030085077"><ele>434.3333333333333</ele><time>2026-04-23T12:06:05.999Z</time></trkpt><trkpt lat="31.65476615145134" lon="-8.01895023404715"><ele>434.16666666666663</ele><time>2026-04-23T12:06:06.999Z</time></trkpt><trkpt lat="31.654655555220405" lon="-8.018997081773819"><ele>434.0</ele><time>2026-04-23T12:06:08.999Z</time></trkpt><trkpt lat="31.654555976731757" lon="-8.019043047292971"><ele>434.0</ele><time>2026-04-23T12:06:10.999Z</time></trkpt><trkpt lat="31.654468658398653" lon="-8.01909979598694"><ele>434.0</ele><time>2026-04-23T12:06:12.999Z</time></trkpt><trkpt lat="31.65438915460547" lon="-8.019157364464583"><ele>434.0</ele><time>2026-04-23T12:06:14.999Z</time></trkpt><trkpt lat="31.654368737654227" lon="-8.019238418125177"><ele>434.0</ele><time>2026-04-23T12:06:15.999Z</time></trkpt><trkpt lat="31.65425869946465" lon="-8.019277750500631"><ele>434.0</ele><time>2026-04-23T12:06:17.999Z</time></trkpt><trkpt lat="31.65413889075852" lon="-8.019284426142509"><ele>434.0</ele><time>2026-04-23T12:06:19.999Z</time></trkpt><trkpt lat="31.654073319478695" lon="-8.019284266730844"><ele>434.0</ele><time>2026-04-23T12:06:20.999Z</time></trkpt><trkpt lat="31.65400250321235" lon="-8.019286643877706"><ele>434.0</ele><time>2026-04-23T12:06:21.999Z</time></trkpt><trkpt lat="31.653931429616406" lon="-8.019290691591095"><ele>434.0</ele><time>2026-04-23T12:06:22.999Z</time></trkpt><trkpt lat="31.653860475274044" lon="-8.019301962395167"><ele>434.0</ele><time>2026-04-23T12:06:23.999Z</time></trkpt><trkpt lat="31.65378498690873" lon="-8.019320367196382"><ele>434.0</ele><time>2026-04-23T12:06:24.999Z</time></trkpt><trkpt lat="31.653704423850993" lon="-8.019343138116856"><ele>434.0</ele><time>2026-04-23T12:06:25.999Z</time></trkpt><trkpt lat="31.65362459491629" lon="-8.019369289538272"><ele>434.16666666666663</ele><time>2026-04-23T12:06:26.999Z</time></trkpt><trkpt lat="31.65354451985471" lon="-8.019400354792854"><ele>434.3333333333333</ele><time>2026-04-23T12:06:27.999Z</time></trkpt><trkpt lat="31.65346151023989" lon="-8.019431957298206"><ele>434.5</ele><time>2026-04-23T12:06:28.999Z</time></trkpt><trkpt lat="31.65337681459784" lon="-8.019462991461458"><ele>434.66666666666663</ele><time>2026-04-23T12:06:29.999Z</time></trkpt><trkpt lat="31.653294936048802" lon="-8.019494845262646"><ele>434.8333333333333</ele><time>2026-04-23T12:06:30.999Z</time></trkpt><trkpt lat="31.653216720740758" lon="-8.019525014584072"><ele>435.0</ele><time>2026-04-23T12:06:31.999Z</time></trkpt><trkpt lat="31.65314515573051" lon="-8.019550576864658"><ele>435.0</ele><time>2026-04-23T12:06:32.999Z</time></trkpt><trkpt lat="31.65307418261984" lon="-8.019572218304116"><ele>435.0</ele><time>2026-04-23T12:06:33.999Z</time></trkpt><trkpt lat="31.652999697148495" lon="-8.019595374506602"><ele>435.0</ele><time>2026-04-23T12:06:34.999Z</time></trkpt><trkpt lat="31.65292189726259" lon="-8.019625280261142"><ele>435.0</ele><time>2026-04-23T12:06:35.999Z</time></trkpt><trkpt lat="31.652839227856155" lon="-8.01965986913998"><ele>435.0</ele><time>2026-04-23T12:06:36.999Z</time></trkpt><trkpt lat="31.652750941215622" lon="-8.019697889666231"><ele>435.0</ele><time>2026-04-23T12:06:37.999Z</time></trkpt><trkpt lat="31.652654374932407" lon="-8.019737875361805"><ele>434.75</ele><time>2026-04-23T12:06:38.999Z</time></trkpt><trkpt lat="31.652547766228896" lon="-8.019776628263411"><ele>434.5</ele><time>2026-04-23T12:06:39.999Z</time></trkpt><trkpt lat="31.652432030442252" lon="-8.019820831296006"><ele>434.25</ele><time>2026-04-23T12:06:40.999Z</time></trkpt><trkpt lat="31.652311567618714" lon="-8.019871105099034"><ele>434.0</ele><time>2026-04-23T12:06:41.999Z</time></trkpt><trkpt lat="31.652192100575572" lon="-8.01992342225474"><ele>434.0</ele><time>2026-04-23T12:06:42.999Z</time></trkpt><trkpt lat="31.652076829503336" lon="-8.019978841157812"><ele>434.0</ele><time>2026-04-23T12:06:43.999Z</time></trkpt><trkpt lat="31.651960193929675" lon="-8.020031475521645"><ele>434.0</ele><time>2026-04-23T12:06:44.999Z</time></trkpt><trkpt lat="31.65184454101923" lon="-8.020080885291957"><ele>434.0</ele><time>2026-04-23T12:06:45.999Z</time></trkpt><trkpt lat="31.651730707752645" lon="-8.020128517707489"><ele>433.6</ele><time>2026-04-23T12:06:46.999Z</time></trkpt><trkpt lat="31.651618725953004" lon="-8.020173848319068"><ele>433.2</ele><time>2026-04-23T12:06:47.999Z</time></trkpt><trkpt lat="31.651517606484113" lon="-8.02021709133763"><ele>432.80000000000007</ele><time>2026-04-23T12:06:48.999Z</time></trkpt><trkpt lat="31.65143799324421" lon="-8.020254212296676"><ele>432.40000000000003</ele><time>2026-04-23T12:06:49.999Z</time></trkpt><trkpt lat="31.6513708514884" lon="-8.020286661756224"><ele>432.0</ele><time>2026-04-23T12:06:50.999Z</time></trkpt><trkpt lat="31.65130766124109" lon="-8.020316289818174"><ele>432.0</ele><time>2026-04-23T12:06:51.999Z</time></trkpt><trkpt lat="31.651246033139486" lon="-8.020344652124825"><ele>432.0</ele><time>2026-04-23T12:06:52.999Z</time></trkpt><trkpt lat="31.65118463336309" lon="-8.020366889781815"><ele>432.0</ele><time>2026-04-23T12:06:53.999Z</time></trkpt><trkpt lat="31.65108052885368" lon="-8.020407200568942"><ele>432.0</ele><time>2026-04-23T12:06:55.999Z</time></trkpt><trkpt lat="31.650996029511038" lon="-8.020440268879222"><ele>432.0</ele><time>2026-04-23T12:06:58Z</time></trkpt><trkpt lat="31.650929813103616" lon="-8.020467677944902"><ele>432.0</ele><time>2026-04-23T12:07:00Z</time></trkpt><trkpt lat="31.650848800126397" lon="-8.020496958083083"><ele>433.0</ele><time>2026-04-23T12:07:03Z</time></trkpt><trkpt lat="31.650784196666866" lon="-8.02052025572597"><ele>434.0</ele><time>2026-04-23T12:07:06Z</time></trkpt><trkpt lat="31.650715577412043" lon="-8.020547686649527"><ele>435.0</ele><time>2026-04-23T12:07:24Z</time></trkpt><trkpt lat="31.650632541937032" lon="-8.020576221164726"><ele>436.0</ele><time>2026-04-23T12:07:27Z</time></trkpt><trkpt lat="31.650552379110213" lon="-8.020600228811114"><ele>437.0</ele><time>2026-04-23T12:07:29Z</time></trkpt><trkpt lat="31.650461844129257" lon="-8.020639558731638"><ele>438.0</ele><time>2026-04-23T12:07:31Z</time></trkpt><trkpt lat="31.65035870238393" lon="-8.0206921645154"><ele>438.3333333333333</ele><time>2026-04-23T12:07:33Z</time></trkpt><trkpt lat="31.650243309816354" lon="-8.02075162707284"><ele>438.66666666666663</ele><time>2026-04-23T12:07:35Z</time></trkpt><trkpt lat="31.650182555101424" lon="-8.020771418370812"><ele>439.0</ele><time>2026-04-23T12:07:36Z</time></trkpt><trkpt lat="31.650119162448284" lon="-8.02078319267465"><ele>439.3333333333333</ele><time>2026-04-23T12:07:37Z</time></trkpt><trkpt lat="31.65004791900087" lon="-8.020783730410773"><ele>439.66666666666663</ele><time>2026-04-23T12:07:38Z</time></trkpt><trkpt lat="31.64996877190532" lon="-8.020776993954215"><ele>440.0</ele><time>2026-04-23T12:07:39Z</time></trkpt><trkpt lat="31.649885729319365" lon="-8.020765107447968"><ele>439.99999999999994</ele><time>2026-04-23T12:07:40Z</time></trkpt><trkpt lat="31.649806197265313" lon="-8.020747979612365"><ele>440.0</ele><time>2026-04-23T12:07:41Z</time></trkpt><trkpt lat="31.649725378821458" lon="-8.020723904860388"><ele>440.0</ele><time>2026-04-23T12:07:42Z</time></trkpt><trkpt lat="31.64964641443507" lon="-8.020690715400828"><ele>440.0</ele><time>2026-04-23T12:07:43Z</time></trkpt><trkpt lat="31.649568345879345" lon="-8.020648758969585"><ele>439.99999999999994</ele><time>2026-04-23T12:07:44Z</time></trkpt><trkpt lat="31.649489724866626" lon="-8.020598963363755"><ele>440.0</ele><time>2026-04-23T12:07:45Z</time></trkpt><trkpt lat="31.649408344760946" lon="-8.020545306892867"><ele>440.4</ele><time>2026-04-23T12:07:46Z</time></trkpt><trkpt lat="31.64931803505324" lon="-8.020495617230209"><ele>440.8</ele><time>2026-04-23T12:07:47Z</time></trkpt><trkpt lat="31.64921950207947" lon="-8.020454966205016"><ele>441.20000000000005</ele><time>2026-04-23T12:07:48Z</time></trkpt><trkpt lat="31.64911265229511" lon="-8.020423376183746"><ele>441.6</ele><time>2026-04-23T12:07:49Z</time></trkpt><trkpt lat="31.649000614557114" lon="-8.02039841150301"><ele>442.0</ele><time>2026-04-23T12:07:50Z</time></trkpt><trkpt lat="31.648886173000996" lon="-8.02037526451461"><ele>442.0</ele><time>2026-04-23T12:07:51Z</time></trkpt><trkpt lat="31.648769997865728" lon="-8.020352771342257"><ele>442.0</ele><time>2026-04-23T12:07:52Z</time></trkpt><trkpt lat="31.64865202888524" lon="-8.020329632146298"><ele>442.0</ele><time>2026-04-23T12:07:53Z</time></trkpt><trkpt lat="31.648532871734357" lon="-8.020305068190163"><ele>442.0</ele><time>2026-04-23T12:07:54Z</time></trkpt><trkpt lat="31.64841358060555" lon="-8.020280621432265"><ele>441.75</ele><time>2026-04-23T12:07:55Z</time></trkpt><trkpt lat="31.648292497063373" lon="-8.02025683658669"><ele>441.5</ele><time>2026-04-23T12:07:56Z</time></trkpt><trkpt lat="31.64816862948803" lon="-8.020233809959668"><ele>441.25</ele><time>2026-04-23T12:07:57Z</time></trkpt><trkpt lat="31.64804233600009" lon="-8.020208646556204"><ele>441.0</ele><time>2026-04-23T12:07:58Z</time></trkpt><trkpt lat="31.647915889353413" lon="-8.02018409426459"><ele>441.0</ele><time>2026-04-23T12:07:59Z</time></trkpt><trkpt lat="31.647791497688768" lon="-8.02016108105325"><ele>441.0</ele><time>2026-04-23T12:08:00Z</time></trkpt><trkpt lat="31.64766679718888" lon="-8.020141020414375"><ele>441.0</ele><time>2026-04-23T12:08:01Z</time></trkpt><trkpt lat="31.64753974270856" lon="-8.020120946611813"><ele>441.0</ele><time>2026-04-23T12:08:02Z</time></trkpt><trkpt lat="31.647411053798084" lon="-8.020099253109326"><ele>441.0</ele><time>2026-04-23T12:08:02.999Z</time></trkpt><trkpt lat="31.647279097585862" lon="-8.020074653233708"><ele>441.0</ele><time>2026-04-23T12:08:03.999Z</time></trkpt><trkpt lat="31.647146333896146" lon="-8.020049480677526"><ele>441.0</ele><time>2026-04-23T12:08:04.999Z</time></trkpt><trkpt lat="31.64701186707088" lon="-8.020024759841059"><ele>441.0</ele><time>2026-04-23T12:08:05.999Z</time></trkpt><trkpt lat="31.646876115389627" lon="-8.019999508389947"><ele>441.5</ele><time>2026-04-23T12:08:06.999Z</time></trkpt><trkpt lat="31.64673832720232" lon="-8.019974454934832"><ele>442.0</ele><time>2026-04-23T12:08:07.999Z</time></trkpt><trkpt lat="31.64660156043571" lon="-8.019949764554612"><ele>442.5</ele><time>2026-04-23T12:08:08.999Z</time></trkpt><trkpt lat="31.6464680261206" lon="-8.019923197081575"><ele>443.0</ele><time>2026-04-23T12:08:09.999Z</time></trkpt><trkpt lat="31.646336274410974" lon="-8.019895591006161"><ele>443.0</ele><time>2026-04-23T12:08:10.999Z</time></trkpt><trkpt lat="31.646206540552214" lon="-8.019868733632753"><ele>443.0</ele><time>2026-04-23T12:08:11.999Z</time></trkpt><trkpt lat="31.646076773952085" lon="-8.01984371372645"><ele>443.0</ele><time>2026-04-23T12:08:12.999Z</time></trkpt><trkpt lat="31.645946426197792" lon="-8.019820653184983"><ele>443.0</ele><time>2026-04-23T12:08:13.999Z</time></trkpt><trkpt lat="31.645815105281045" lon="-8.019797675970048"><ele>443.25</ele><time>2026-04-23T12:08:14.999Z</time></trkpt><trkpt lat="31.645680091963698" lon="-8.019772495405563"><ele>443.5</ele><time>2026-04-23T12:08:15.999Z</time></trkpt><trkpt lat="31.645541564682933" lon="-8.019751089310223"><ele>443.75</ele><time>2026-04-23T12:08:16.999Z</time></trkpt><trkpt lat="31.645400484553324" lon="-8.019732210605726"><ele>444.0</ele><time>2026-04-23T12:08:17.999Z</time></trkpt><trkpt lat="31.645256863517815" lon="-8.01971275139728"><ele>444.0</ele><time>2026-04-23T12:08:18.999Z</time></trkpt><trkpt lat="31.645111112605854" lon="-8.019693492769091"><ele>444.0</ele><time>2026-04-23T12:08:19.999Z</time></trkpt><trkpt lat="31.644965268670102" lon="-8.019670814101394"><ele>444.0</ele><time>2026-04-23T12:08:20.999Z</time></trkpt><trkpt lat="31.644824684061334" lon="-8.019643765113527"><ele>444.0</ele><time>2026-04-23T12:08:21.999Z</time></trkpt><trkpt lat="31.644707530502316" lon="-8.019620165043165"><ele>444.0</ele><time>2026-04-23T12:08:22.999Z</time></trkpt><trkpt lat="31.644610549182712" lon="-8.019600491874334"><ele>444.0</ele><time>2026-04-23T12:08:23.999Z</time></trkpt><trkpt lat="31.64454161068331" lon="-8.019584552807945"><ele>444.0</ele><time>2026-04-23T12:08:24.999Z</time></trkpt><trkpt lat="31.644464523942553" lon="-8.019559285302066"><ele>444.0</ele><time>2026-04-23T12:08:26.999Z</time></trkpt><trkpt lat="31.644365816997045" lon="-8.019543218771267"><ele>444.0</ele><time>2026-04-23T12:08:50.999Z</time></trkpt><trkpt lat="31.64426427363135" lon="-8.019502559139594"><ele>444.0</ele><time>2026-04-23T12:08:52.999Z</time></trkpt><trkpt lat="31.644138955624605" lon="-8.019457117302403"><ele>444.0</ele><time>2026-04-23T12:08:54.999Z</time></trkpt><trkpt lat="31.644057188406773" lon="-8.019429852086851"><ele>444.0</ele><time>2026-04-23T12:08:55.999Z</time></trkpt><trkpt lat="31.64396072923229" lon="-8.01940330184193"><ele>444.0</ele><time>2026-04-23T12:08:56.999Z</time></trkpt><trkpt lat="31.643853574844574" lon="-8.019376073413289"><ele>444.0</ele><time>2026-04-23T12:08:57.999Z</time></trkpt><trkpt lat="31.643745224248775" lon="-8.019351294397788"><ele>444.25</ele><time>2026-04-23T12:08:58.999Z</time></trkpt><trkpt lat="31.64363004564955" lon="-8.019323124251695"><ele>444.5</ele><time>2026-04-23T12:08:59.999Z</time></trkpt><trkpt lat="31.643510960101803" lon="-8.019296794948364"><ele>444.75</ele><time>2026-04-23T12:09:00.999Z</time></trkpt><trkpt lat="31.643389544994626" lon="-8.019272403985903"><ele>445.0</ele><time>2026-04-23T12:09:01.999Z</time></trkpt><trkpt lat="31.643262880942462" lon="-8.019244780677607"><ele>445.0</ele><time>2026-04-23T12:09:02.999Z</time></trkpt><trkpt lat="31.643130711891082" lon="-8.019212723930163"><ele>445.0</ele><time>2026-04-23T12:09:03.999Z</time></trkpt><trkpt lat="31.642994255864345" lon="-8.01918273108922"><ele>445.0</ele><time>2026-04-23T12:09:04.999Z</time></trkpt><trkpt lat="31.64285761524306" lon="-8.01915066807417"><ele>445.0</ele><time>2026-04-23T12:09:05.999Z</time></trkpt><trkpt lat="31.64272025643391" lon="-8.01911796785159"><ele>445.5</ele><time>2026-04-23T12:09:06.999Z</time></trkpt><trkpt lat="31.642580050291805" lon="-8.019083203591201"><ele>446.0</ele><time>2026-04-23T12:09:07.999Z</time></trkpt><trkpt lat="31.642436250090483" lon="-8.019047238858752"><ele>446.5</ele><time>2026-04-23T12:09:08.999Z</time></trkpt><trkpt lat="31.642292602670338" lon="-8.019010073623637"><ele>447.0</ele><time>2026-04-23T12:09:10Z</time></trkpt><trkpt lat="31.642149718444212" lon="-8.018973571682638"><ele>447.0</ele><time>2026-04-23T12:09:11Z</time></trkpt><trkpt lat="31.642009425550132" lon="-8.018939881297667"><ele>447.0</ele><time>2026-04-23T12:09:12Z</time></trkpt><trkpt lat="31.641866380862016" lon="-8.01890464220293"><ele>447.0</ele><time>2026-04-23T12:09:13Z</time></trkpt><trkpt lat="31.641724625828452" lon="-8.018867651868332"><ele>447.0</ele><time>2026-04-23T12:09:14Z</time></trkpt><trkpt lat="31.641581534625466" lon="-8.018836045412549"><ele>447.75</ele><time>2026-04-23T12:09:15Z</time></trkpt><trkpt lat="31.641441651734503" lon="-8.018804590324214"><ele>448.5</ele><time>2026-04-23T12:09:16Z</time></trkpt><trkpt lat="31.641302701643205" lon="-8.018771969578841"><ele>449.25</ele><time>2026-04-23T12:09:17Z</time></trkpt><trkpt lat="31.64116406282715" lon="-8.018742834176214"><ele>450.0</ele><time>2026-04-23T12:09:18Z</time></trkpt><trkpt lat="31.641028206545954" lon="-8.018712304789602"><ele>450.0</ele><time>2026-04-23T12:09:19Z</time></trkpt><trkpt lat="31.640899402976622" lon="-8.018682468620193"><ele>450.0</ele><time>2026-04-23T12:09:20Z</time></trkpt><trkpt lat="31.640770254776964" lon="-8.018657404174276"><ele>450.0</ele><time>2026-04-23T12:09:21Z</time></trkpt><trkpt lat="31.640639272425343" lon="-8.01862866643732"><ele>450.0</ele><time>2026-04-23T12:09:22Z</time></trkpt><trkpt lat="31.640505431292308" lon="-8.018597999358114"><ele>450.0</ele><time>2026-04-23T12:09:23Z</time></trkpt><trkpt lat="31.640374398793238" lon="-8.018566510510567"><ele>450.0</ele><time>2026-04-23T12:09:24Z</time></trkpt><trkpt lat="31.6402438830578" lon="-8.018539371300191"><ele>450.0</ele><time>2026-04-23T12:09:25Z</time></trkpt><trkpt lat="31.640112264001715" lon="-8.018511741742419"><ele>450.0</ele><time>2026-04-23T12:09:26Z</time></trkpt><trkpt lat="31.63997905333224" lon="-8.01849045423392"><ele>450.25</ele><time>2026-04-23T12:09:27Z</time></trkpt><trkpt lat="31.639853108489135" lon="-8.018462702262719"><ele>450.5</ele><time>2026-04-23T12:09:28Z</time></trkpt><trkpt lat="31.639734882905543" lon="-8.018441526768896"><ele>450.75</ele><time>2026-04-23T12:09:29Z</time></trkpt><trkpt lat="31.63962613550395" lon="-8.018416455553014"><ele>451.0</ele><time>2026-04-23T12:09:30Z</time></trkpt><trkpt lat="31.63952102321326" lon="-8.018391491230556"><ele>450.6666666666667</ele><time>2026-04-23T12:09:31Z</time></trkpt><trkpt lat="31.639426532213147" lon="-8.018370966064989"><ele>450.33333333333337</ele><time>2026-04-23T12:09:32Z</time></trkpt><trkpt lat="31.639345321728257" lon="-8.018353946530302"><ele>450.0</ele><time>2026-04-23T12:09:33Z</time></trkpt><trkpt lat="31.639266531618112" lon="-8.01833838095581"><ele>449.66666666666663</ele><time>2026-04-23T12:09:34Z</time></trkpt><trkpt lat="31.63919629986525" lon="-8.018321439743044"><ele>449.3333333333333</ele><time>2026-04-23T12:09:35Z</time></trkpt><trkpt lat="31.639124909012885" lon="-8.018302593768656"><ele>449.0</ele><time>2026-04-23T12:09:36Z</time></trkpt><trkpt lat="31.639051902235494" lon="-8.018286995378075"><ele>448.99999999999994</ele><time>2026-04-23T12:09:37Z</time></trkpt><trkpt lat="31.638986528395222" lon="-8.018272626277497"><ele>449.0</ele><time>2026-04-23T12:09:38Z</time></trkpt><trkpt lat="31.63892150283305" lon="-8.018256747138768"><ele>449.0</ele><time>2026-04-23T12:09:39Z</time></trkpt><trkpt lat="31.63885974688975" lon="-8.018239290885507"><ele>449.0</ele><time>2026-04-23T12:09:40Z</time></trkpt><trkpt lat="31.638751597433615" lon="-8.018206915671014"><ele>448.99999999999994</ele><time>2026-04-23T12:09:42Z</time></trkpt><trkpt lat="31.6386730663699" lon="-8.018181846382689"><ele>449.0</ele><time>2026-04-23T12:09:44Z</time></trkpt><trkpt lat="31.638593678995264" lon="-8.018160782181589"><ele>449.2</ele><time>2026-04-23T12:09:46Z</time></trkpt><trkpt lat="31.6385056912291" lon="-8.018137170550817"><ele>449.4</ele><time>2026-04-23T12:09:48Z</time></trkpt><trkpt lat="31.63841172429661" lon="-8.018113106600767"><ele>449.6</ele><time>2026-04-23T12:09:50Z</time></trkpt><trkpt lat="31.638301338082147" lon="-8.018082696541"><ele>449.8</ele><time>2026-04-23T12:09:52Z</time></trkpt><trkpt lat="31.638192083607713" lon="-8.018050691041024"><ele>450.0</ele><time>2026-04-23T12:09:54Z</time></trkpt><trkpt lat="31.63809352315418" lon="-8.01802178133538"><ele>450.0</ele><time>2026-04-23T12:09:56Z</time></trkpt><trkpt lat="31.638020063079725" lon="-8.017995804805857"><ele>450.0</ele><time>2026-04-23T12:09:58Z</time></trkpt><trkpt lat="31.637945381193447" lon="-8.017971695004476"><ele>450.0</ele><time>2026-04-23T12:10:00Z</time></trkpt><trkpt lat="31.637849812140924" lon="-8.01794285354587"><ele>450.0</ele><time>2026-04-23T12:10:02Z</time></trkpt><trkpt lat="31.637780074529278" lon="-8.017919141704676"><ele>450.0</ele><time>2026-04-23T12:10:03Z</time></trkpt><trkpt lat="31.637700837953858" lon="-8.017894554740241"><ele>450.0</ele><time>2026-04-23T12:10:03.999Z</time></trkpt><trkpt lat="31.637618496066302" lon="-8.017865127385148"><ele>449.8</ele><time>2026-04-23T12:10:04.999Z</time></trkpt><trkpt lat="31.63752908616709" lon="-8.01783612109625"><ele>449.6</ele><time>2026-04-23T12:10:05.999Z</time></trkpt><trkpt lat="31.637433272665877" lon="-8.017806830210068"><ele>449.4</ele><time>2026-04-23T12:10:06.999Z</time></trkpt><trkpt lat="31.637331325372" lon="-8.01778093137941"><ele>449.2</ele><time>2026-04-23T12:10:07.999Z</time></trkpt><trkpt lat="31.63722665645351" lon="-8.017755298707486"><ele>449.0</ele><time>2026-04-23T12:10:08.999Z</time></trkpt><trkpt lat="31.637125792929936" lon="-8.017732304397677"><ele>449.0</ele><time>2026-04-23T12:10:09.999Z</time></trkpt><trkpt lat="31.637028802902186" lon="-8.01771181741114"><ele>449.0</ele><time>2026-04-23T12:10:10.999Z</time></trkpt><trkpt lat="31.636934204361282" lon="-8.017688495549393"><ele>449.0</ele><time>2026-04-23T12:10:11.999Z</time></trkpt><trkpt lat="31.636839941299712" lon="-8.01766805846043"><ele>449.0</ele><time>2026-04-23T12:10:12.999Z</time></trkpt><trkpt lat="31.636746178446842" lon="-8.01764743604291"><ele>449.0</ele><time>2026-04-23T12:10:13.999Z</time></trkpt><trkpt lat="31.636651055045704" lon="-8.017626631392805"><ele>449.16666666666663</ele><time>2026-04-23T12:10:14.999Z</time></trkpt><trkpt lat="31.63655804596804" lon="-8.017603733783194"><ele>449.3333333333333</ele><time>2026-04-23T12:10:15.999Z</time></trkpt><trkpt lat="31.636473321567316" lon="-8.017584712604044"><ele>449.5</ele><time>2026-04-23T12:10:16.999Z</time></trkpt><trkpt lat="31.636390996878564" lon="-8.017564949749433"><ele>449.66666666666663</ele><time>2026-04-23T12:10:17.999Z</time></trkpt><trkpt lat="31.636304983917253" lon="-8.017549495701417"><ele>449.8333333333333</ele><time>2026-04-23T12:10:18.999Z</time></trkpt><trkpt lat="31.63621930198072" lon="-8.017534254673409"><ele>450.0</ele><time>2026-04-23T12:10:19.999Z</time></trkpt><trkpt lat="31.63613660128743" lon="-8.01752039401278"><ele>450.57142857142867</ele><time>2026-04-23T12:10:20.999Z</time></trkpt><trkpt lat="31.636057852957077" lon="-8.01750203534256"><ele>451.14285714285717</ele><time>2026-04-23T12:10:21.999Z</time></trkpt><trkpt lat="31.635980500401654" lon="-8.017485899363491"><ele>451.7142857142858</ele><time>2026-04-23T12:10:22.999Z</time></trkpt><trkpt lat="31.63590815182273" lon="-8.017471950206295"><ele>452.28571428571433</ele><time>2026-04-23T12:10:23.999Z</time></trkpt><trkpt lat="31.63583606445419" lon="-8.01745723377949"><ele>452.8571428571429</ele><time>2026-04-23T12:10:24.999Z</time></trkpt><trkpt lat="31.63576967315205" lon="-8.017440870290574"><ele>453.42857142857144</ele><time>2026-04-23T12:10:25.999Z</time></trkpt><trkpt lat="31.63570559802826" lon="-8.017432281574214"><ele>454.0</ele><time>2026-04-23T12:10:26.999Z</time></trkpt><trkpt lat="31.63559134243042" lon="-8.017415387774944"><ele>454.0</ele><time>2026-04-23T12:10:28.999Z</time></trkpt><trkpt lat="31.63550281089522" lon="-8.01740167169014"><ele>454.0</ele><time>2026-04-23T12:10:30.999Z</time></trkpt><trkpt lat="31.635415442964458" lon="-8.017394915916917"><ele>454.0</ele><time>2026-04-23T12:10:32.999Z</time></trkpt><trkpt lat="31.635333651285126" lon="-8.0173755006928"><ele>454.0</ele><time>2026-04-23T12:10:34.999Z</time></trkpt><trkpt lat="31.635238671861178" lon="-8.017356799755753"><ele>454.0</ele><time>2026-04-23T12:10:36.999Z</time></trkpt><trkpt lat="31.635126866424066" lon="-8.017327916174839"><ele>454.0</ele><time>2026-04-23T12:10:38.999Z</time></trkpt><trkpt lat="31.635027051961405" lon="-8.01729592133528"><ele>454.0</ele><time>2026-04-23T12:10:40.999Z</time></trkpt><trkpt lat="31.63495265171214" lon="-8.017280719512568"><ele>454.0</ele><time>2026-04-23T12:10:42.999Z</time></trkpt><trkpt lat="31.63486214106305" lon="-8.017251574961879"><ele>454.0</ele><time>2026-04-23T12:10:44.999Z</time></trkpt><trkpt lat="31.634744767177438" lon="-8.017199795425949"><ele>454.0</ele><time>2026-04-23T12:10:46.999Z</time></trkpt><trkpt lat="31.634676137956227" lon="-8.017171524713344"><ele>454.0</ele><time>2026-04-23T12:10:47.999Z</time></trkpt><trkpt lat="31.63459889405794" lon="-8.017143613850298"><ele>454.0</ele><time>2026-04-23T12:10:48.999Z</time></trkpt><trkpt lat="31.634511654126413" lon="-8.017114536774677"><ele>454.0</ele><time>2026-04-23T12:10:49.999Z</time></trkpt><trkpt lat="31.634420429939443" lon="-8.017092086831324"><ele>454.0</ele><time>2026-04-23T12:10:50.999Z</time></trkpt><trkpt lat="31.63432221023602" lon="-8.01706870212632"><ele>454.0</ele><time>2026-04-23T12:10:51.999Z</time></trkpt><trkpt lat="31.634220675573946" lon="-8.017042203031801"><ele>454.0</ele><time>2026-04-23T12:10:52.999Z</time></trkpt><trkpt lat="31.63412061141441" lon="-8.017015403086527"><ele>454.0</ele><time>2026-04-23T12:10:53.999Z</time></trkpt><trkpt lat="31.63402316483538" lon="-8.016993241164577"><ele>454.0</ele><time>2026-04-23T12:10:54.999Z</time></trkpt><trkpt lat="31.633929692970078" lon="-8.016970190459572"><ele>454.0</ele><time>2026-04-23T12:10:55.999Z</time></trkpt><trkpt lat="31.633837593037796" lon="-8.01694530065491"><ele>454.0</ele><time>2026-04-23T12:10:56.999Z</time></trkpt><trkpt lat="31.633745476641383" lon="-8.016922023365357"><ele>454.00000000000006</ele><time>2026-04-23T12:10:57.999Z</time></trkpt><trkpt lat="31.63365500373035" lon="-8.016899682424818"><ele>454.0</ele><time>2026-04-23T12:10:58.999Z</time></trkpt><trkpt lat="31.63356315089196" lon="-8.016879950802434"><ele>454.0</ele><time>2026-04-23T12:10:59.999Z</time></trkpt><trkpt lat="31.633473143401613" lon="-8.01685960577393"><ele>454.0</ele><time>2026-04-23T12:11:00.999Z</time></trkpt><trkpt lat="31.63338914800108" lon="-8.01684036716389"><ele>454.00000000000006</ele><time>2026-04-23T12:11:01.999Z</time></trkpt><trkpt lat="31.633306216369395" lon="-8.016823312575209"><ele>454.0</ele><time>2026-04-23T12:11:02.999Z</time></trkpt><trkpt lat="31.633225651938645" lon="-8.016807345597897"><ele>453.79999999999995</ele><time>2026-04-23T12:11:03.999Z</time></trkpt><trkpt lat="31.63315209666731" lon="-8.016797612009418"><ele>453.59999999999997</ele><time>2026-04-23T12:11:04.999Z</time></trkpt><trkpt lat="31.633083064342422" lon="-8.016786813148093"><ele>453.4</ele><time>2026-04-23T12:11:05.999Z</time></trkpt><trkpt lat="31.632966985235477" lon="-8.01677304142834"><ele>453.2</ele><time>2026-04-23T12:11:07.999Z</time></trkpt><trkpt lat="31.632860787312694" lon="-8.016755693117606"><ele>453.0</ele><time>2026-04-23T12:11:10Z</time></trkpt><trkpt lat="31.63277377483886" lon="-8.01673991746146"><ele>453.2857142857142</ele><time>2026-04-23T12:11:12Z</time></trkpt><trkpt lat="31.63271455723279" lon="-8.016707952157645"><ele>453.57142857142856</ele><time>2026-04-23T12:11:14Z</time></trkpt><trkpt lat="31.632647725218277" lon="-8.016690677553076"><ele>453.85714285714283</ele><time>2026-04-23T12:12:27Z</time></trkpt><trkpt lat="31.63254699244198" lon="-8.016656332039197"><ele>454.1428571428571</ele><time>2026-04-23T12:12:29Z</time></trkpt><trkpt lat="31.632481496252044" lon="-8.01663266145369"><ele>454.42857142857144</ele><time>2026-04-23T12:12:30Z</time></trkpt><trkpt lat="31.632413577762573" lon="-8.01661247767974"><ele>454.7142857142857</ele><time>2026-04-23T12:12:31Z</time></trkpt><trkpt lat="31.632346428215264" lon="-8.016593080880515"><ele>455.0</ele><time>2026-04-23T12:12:32Z</time></trkpt><trkpt lat="31.632232343444517" lon="-8.016572946854998"><ele>455.0</ele><time>2026-04-23T12:12:34Z</time></trkpt><trkpt lat="31.632160207984974" lon="-8.016553126145165"><ele>455.0</ele><time>2026-04-23T12:12:35.999Z</time></trkpt><trkpt lat="31.632095300369713" lon="-8.016547327549656"><ele>455.0</ele><time>2026-04-23T12:12:42.999Z</time></trkpt><trkpt lat="31.632011911180687" lon="-8.016533757185275"><ele>455.0</ele><time>2026-04-23T12:12:45.999Z</time></trkpt><trkpt lat="31.63194659520877" lon="-8.01652230708418"><ele>455.0</ele><time>2026-04-23T12:12:48.999Z</time></trkpt><trkpt lat="31.631884102888478" lon="-8.016507709292112"><ele>455.0</ele><time>2026-04-23T12:12:55.999Z</time></trkpt><trkpt lat="31.63180865038282" lon="-8.016479734640265"><ele>455.0</ele><time>2026-04-23T12:12:58.999Z</time></trkpt><trkpt lat="31.631751356970078" lon="-8.016447229372961"><ele>455.16666666666663</ele><time>2026-04-23T12:13:47Z</time></trkpt><trkpt lat="31.631675512172812" lon="-8.016449217901735"><ele>455.3333333333333</ele><time>2026-04-23T12:14:24Z</time></trkpt><trkpt lat="31.631601467867416" lon="-8.016474176854455"><ele>455.5</ele><time>2026-04-23T12:14:28Z</time></trkpt><trkpt lat="31.631502705946104" lon="-8.016460787925675"><ele>455.66666666666663</ele><time>2026-04-23T12:14:31Z</time></trkpt><trkpt lat="31.6314399538106" lon="-8.01647270166963"><ele>455.8333333333333</ele><time>2026-04-23T12:14:33Z</time></trkpt><trkpt lat="31.63136740767801" lon="-8.016501215964318"><ele>456.0</ele><time>2026-04-23T12:14:39Z</time></trkpt><trkpt lat="31.631297817178808" lon="-8.016525644721021"><ele>456.0</ele><time>2026-04-23T12:14:43Z</time></trkpt><trkpt lat="31.631221182469087" lon="-8.016543111862536"><ele>455.99999999999994</ele><time>2026-04-23T12:14:50Z</time></trkpt><trkpt lat="31.631142192839533" lon="-8.016556149803096"><ele>456.0</ele><time>2026-04-23T12:14:57.999Z</time></trkpt><trkpt lat="31.631071297421023" lon="-8.016558393500528"><ele>456.0</ele><time>2026-04-23T12:15:00.999Z</time></trkpt><trkpt lat="31.630992238127707" lon="-8.016545134458536"><ele>455.99999999999994</ele><time>2026-04-23T12:15:04.999Z</time></trkpt><trkpt lat="31.630926912022733" lon="-8.016534511434827"><ele>456.0</ele><time>2026-04-23T12:15:09.999Z</time></trkpt><trkpt lat="31.630852924335034" lon="-8.016520608403148"><ele>456.0</ele><time>2026-04-23T12:15:23Z</time></trkpt><trkpt lat="31.63078413646563" lon="-8.016487755695659"><ele>455.5</ele><time>2026-04-23T12:15:27Z</time></trkpt><trkpt lat="31.63071808165434" lon="-8.016440452566735"><ele>455.0</ele><time>2026-04-23T12:15:30Z</time></trkpt><trkpt lat="31.630644428103285" lon="-8.016388641608149"><ele>454.5</ele><time>2026-04-23T12:15:33Z</time></trkpt><trkpt lat="31.63057834315442" lon="-8.016355705033494"><ele>454.0</ele><time>2026-04-23T12:15:57Z</time></trkpt><trkpt lat="31.630516918251153" lon="-8.016306985522395"><ele>453.5</ele><time>2026-04-23T12:16:00Z</time></trkpt><trkpt lat="31.630446054445724" lon="-8.016264436679252"><ele>453.0</ele><time>2026-04-23T12:17:37Z</time></trkpt><trkpt lat="31.63036959617676" lon="-8.016224867283304"><ele>453.4</ele><time>2026-04-23T12:17:41Z</time></trkpt><trkpt lat="31.630305013995095" lon="-8.016203621843527"><ele>453.79999999999995</ele><time>2026-04-23T12:17:43Z</time></trkpt><trkpt lat="31.630229089310227" lon="-8.0161964330656"><ele>454.2</ele><time>2026-04-23T12:17:45Z</time></trkpt><trkpt lat="31.630140968945366" lon="-8.016181543433694"><ele>454.6</ele><time>2026-04-23T12:17:47Z</time></trkpt><trkpt lat="31.63003414834893" lon="-8.016157548263536"><ele>455.0</ele><time>2026-04-23T12:17:49Z</time></trkpt><trkpt lat="31.629936338116945" lon="-8.016071497511533"><ele>455.0</ele><time>2026-04-23T12:17:51Z</time></trkpt><trkpt lat="31.6298825731533" lon="-8.015999873923501"><ele>455.0</ele><time>2026-04-23T12:17:52Z</time></trkpt><trkpt lat="31.62980490580789" lon="-8.015948491211606"><ele>455.0</ele><time>2026-04-23T12:17:53Z</time></trkpt><trkpt lat="31.629721677382683" lon="-8.015898767594946"><ele>455.0</ele><time>2026-04-23T12:17:54Z</time></trkpt><trkpt lat="31.629635137340873" lon="-8.01584844396104"><ele>455.0</ele><time>2026-04-23T12:17:55Z</time></trkpt><trkpt lat="31.62954618361299" lon="-8.015794961301538"><ele>455.4</ele><time>2026-04-23T12:17:56Z</time></trkpt><trkpt lat="31.62945543357632" lon="-8.015736821875572"><ele>455.8</ele><time>2026-04-23T12:17:57Z</time></trkpt><trkpt lat="31.62936406869762" lon="-8.015677881899242"><ele>456.20000000000005</ele><time>2026-04-23T12:17:58Z</time></trkpt><trkpt lat="31.62927835305312" lon="-8.01562050822484"><ele>456.6</ele><time>2026-04-23T12:17:59Z</time></trkpt><trkpt lat="31.629194199877347" lon="-8.01556602801323"><ele>457.0</ele><time>2026-04-23T12:18:00Z</time></trkpt><trkpt lat="31.62911402783039" lon="-8.015512669319387"><ele>457.00000000000006</ele><time>2026-04-23T12:18:01Z</time></trkpt><trkpt lat="31.6290328257195" lon="-8.015462272136824"><ele>457.0</ele><time>2026-04-23T12:18:02Z</time></trkpt><trkpt lat="31.62895189030397" lon="-8.015419142546623"><ele>457.0</ele><time>2026-04-23T12:18:03Z</time></trkpt><trkpt lat="31.628869464970524" lon="-8.01538402885578"><ele>457.0</ele><time>2026-04-23T12:18:04Z</time></trkpt><trkpt lat="31.62878727787608" lon="-8.01535040376659"><ele>457.00000000000006</ele><time>2026-04-23T12:18:05Z</time></trkpt><trkpt lat="31.628705575753546" lon="-8.015314591109188"><ele>457.0</ele><time>2026-04-23T12:18:06Z</time></trkpt><trkpt lat="31.62862352917524" lon="-8.015272609010653"><ele>456.6</ele><time>2026-04-23T12:18:07Z</time></trkpt><trkpt lat="31.62853687650703" lon="-8.015221953232054"><ele>456.20000000000005</ele><time>2026-04-23T12:18:08Z</time></trkpt><trkpt lat="31.628450623980626" lon="-8.015166784726786"><ele>455.8</ele><time>2026-04-23T12:18:09Z</time></trkpt><trkpt lat="31.628362204259645" lon="-8.015110499352977"><ele>455.4</ele><time>2026-04-23T12:18:10Z</time></trkpt><trkpt lat="31.628275094075914" lon="-8.015055104066022"><ele>455.0</ele><time>2026-04-23T12:18:11Z</time></trkpt><trkpt lat="31.628189956100794" lon="-8.01500004957511"><ele>455.16666666666663</ele><time>2026-04-23T12:18:12Z</time></trkpt><trkpt lat="31.62810817273137" lon="-8.014947431167258"><ele>455.3333333333333</ele><time>2026-04-23T12:18:13Z</time></trkpt><trkpt lat="31.628029919780534" lon="-8.014897556726865"><ele>455.5</ele><time>2026-04-23T12:18:14Z</time></trkpt><trkpt lat="31.62795596541878" lon="-8.014850497367915"><ele>455.66666666666663</ele><time>2026-04-23T12:18:15Z</time></trkpt><trkpt lat="31.627890874173893" lon="-8.014809622197815"><ele>455.8333333333333</ele><time>2026-04-23T12:18:16Z</time></trkpt><trkpt lat="31.627833304412324" lon="-8.014772657793692"><ele>456.0</ele><time>2026-04-23T12:18:17Z</time></trkpt><trkpt lat="31.62773568068065" lon="-8.01470633661402"><ele>456.3333333333333</ele><time>2026-04-23T12:18:19Z</time></trkpt><trkpt lat="31.627676201058634" lon="-8.014664394769254"><ele>456.66666666666663</ele><time>2026-04-23T12:18:21Z</time></trkpt><trkpt lat="31.62759053625091" lon="-8.014606235259999"><ele>457.0</ele><time>2026-04-23T12:18:49.999Z</time></trkpt><trkpt lat="31.627497333601465" lon="-8.014545367823567"><ele>457.3333333333333</ele><time>2026-04-23T12:18:51.999Z</time></trkpt><trkpt lat="31.62744123398815" lon="-8.014508908090807"><ele>457.66666666666663</ele><time>2026-04-23T12:18:52.999Z</time></trkpt><trkpt lat="31.62737483188229" lon="-8.014486026997462"><ele>458.0</ele><time>2026-04-23T12:18:53.999Z</time></trkpt><trkpt lat="31.627313164946983" lon="-8.014444937915023"><ele>458.0</ele><time>2026-04-23T12:18:54.999Z</time></trkpt><trkpt lat="31.627248473734497" lon="-8.014401833847478"><ele>457.99999999999994</ele><time>2026-04-23T12:18:55.999Z</time></trkpt><trkpt lat="31.627188360166897" lon="-8.01432619850622"><ele>457.99999999999994</ele><time>2026-04-23T12:18:56.999Z</time></trkpt><trkpt lat="31.627106798196063" lon="-8.014269576645026"><ele>458.0</ele><time>2026-04-23T12:18:57.999Z</time></trkpt><trkpt lat="31.627020205777065" lon="-8.014214219655786"><ele>458.0</ele><time>2026-04-23T12:18:58.999Z</time></trkpt><trkpt lat="31.626934256403107" lon="-8.014159789601482"><ele>458.0</ele><time>2026-04-23T12:18:59.999Z</time></trkpt><trkpt lat="31.6268483147695" lon="-8.014106298374413"><ele>457.99999999999994</ele><time>2026-04-23T12:19:00.999Z</time></trkpt><trkpt lat="31.626761207844947" lon="-8.014049984713271"><ele>457.99999999999994</ele><time>2026-04-23T12:19:01.999Z</time></trkpt><trkpt lat="31.626671123322332" lon="-8.01399407684524"><ele>458.0</ele><time>2026-04-23T12:19:02.999Z</time></trkpt><trkpt lat="31.626580825718545" lon="-8.013935180097503"><ele>458.0</ele><time>2026-04-23T12:19:03.999Z</time></trkpt><trkpt lat="31.62649726370223" lon="-8.013882491717936"><ele>458.0</ele><time>2026-04-23T12:19:04.999Z</time></trkpt><trkpt lat="31.62641517500537" lon="-8.013831899096344"><ele>457.99999999999994</ele><time>2026-04-23T12:19:05.999Z</time></trkpt><trkpt lat="31.62632759401813" lon="-8.013779196719975"><ele>457.99999999999994</ele><time>2026-04-23T12:19:06.999Z</time></trkpt><trkpt lat="31.62623603424539" lon="-8.013721930709496"><ele>458.0</ele><time>2026-04-23T12:19:07.999Z</time></trkpt><trkpt lat="31.626142509521404" lon="-8.01366203469285"><ele>458.0</ele><time>2026-04-23T12:19:08.999Z</time></trkpt><trkpt lat="31.626044956928055" lon="-8.01359934639101"><ele>458.0</ele><time>2026-04-23T12:19:09.999Z</time></trkpt><trkpt lat="31.62594453691836" lon="-8.013532471222142"><ele>458.0</ele><time>2026-04-23T12:19:10.999Z</time></trkpt><trkpt lat="31.625841392533715" lon="-8.013461940007868"><ele>458.0</ele><time>2026-04-23T12:19:11.999Z</time></trkpt><trkpt lat="31.625734040042644" lon="-8.013390205605164"><ele>458.0</ele><time>2026-04-23T12:19:12.999Z</time></trkpt><trkpt lat="31.625624368146173" lon="-8.013319813423973"><ele>458.5</ele><time>2026-04-23T12:19:13.999Z</time></trkpt><trkpt lat="31.625512466312635" lon="-8.013248274580658"><ele>459.0</ele><time>2026-04-23T12:19:14.999Z</time></trkpt><trkpt lat="31.62539854971506" lon="-8.013173600661439"><ele>459.5</ele><time>2026-04-23T12:19:15.999Z</time></trkpt><trkpt lat="31.625281514238324" lon="-8.013096414167459"><ele>460.0</ele><time>2026-04-23T12:19:16.999Z</time></trkpt><trkpt lat="31.62516238898544" lon="-8.013018141923114"><ele>460.0</ele><time>2026-04-23T12:19:17.999Z</time></trkpt><trkpt lat="31.625041589837963" lon="-8.012936337730496"><ele>460.0</ele><time>2026-04-23T12:19:18.999Z</time></trkpt><trkpt lat="31.624920700586827" lon="-8.012854307506295"><ele>460.0</ele><time>2026-04-23T12:19:19.999Z</time></trkpt><trkpt lat="31.624797642262656" lon="-8.012774542150686"><ele>460.0</ele><time>2026-04-23T12:19:20.999Z</time></trkpt><trkpt lat="31.624672110168508" lon="-8.012697614170039"><ele>460.0</ele><time>2026-04-23T12:19:21.999Z</time></trkpt><trkpt lat="31.624546849719632" lon="-8.012619281674993"><ele>460.0</ele><time>2026-04-23T12:19:22.999Z</time></trkpt><trkpt lat="31.624422817955836" lon="-8.01254262020275"><ele>460.0</ele><time>2026-04-23T12:19:23.999Z</time></trkpt><trkpt lat="31.624300008660224" lon="-8.012468352586554"><ele>460.0</ele><time>2026-04-23T12:19:24.999Z</time></trkpt><trkpt lat="31.624178048060237" lon="-8.01238844498145"><ele>460.25</ele><time>2026-04-23T12:19:25.999Z</time></trkpt><trkpt lat="31.62405637474746" lon="-8.01231008257337"><ele>460.5</ele><time>2026-04-23T12:19:26.999Z</time></trkpt><trkpt lat="31.623936327642568" lon="-8.012230110650576"><ele>460.75</ele><time>2026-04-23T12:19:27.999Z</time></trkpt><trkpt lat="31.623814732885474" lon="-8.01214934014214"><ele>461.0</ele><time>2026-04-23T12:19:28.999Z</time></trkpt><trkpt lat="31.623690643082348" lon="-8.012069259322061"><ele>461.25</ele><time>2026-04-23T12:19:29.999Z</time></trkpt><trkpt lat="31.623565973907432" lon="-8.011988375352347"><ele>461.5</ele><time>2026-04-23T12:19:30.999Z</time></trkpt><trkpt lat="31.62344078929966" lon="-8.011907903493706"><ele>461.75</ele><time>2026-04-23T12:19:31.999Z</time></trkpt><trkpt lat="31.623315552544643" lon="-8.01182485172551"><ele>462.0</ele><time>2026-04-23T12:19:32.999Z</time></trkpt><trkpt lat="31.62319302180569" lon="-8.011741462726494"><ele>462.25</ele><time>2026-04-23T12:19:33.999Z</time></trkpt><trkpt lat="31.623068036801932" lon="-8.011656362632898"><ele>462.5</ele><time>2026-04-23T12:19:34.999Z</time></trkpt><trkpt lat="31.622942574415283" lon="-8.01157017184256"><ele>462.75</ele><time>2026-04-23T12:19:35.999Z</time></trkpt><trkpt lat="31.62281193864053" lon="-8.011501682994767"><ele>463.0</ele><time>2026-04-23T12:19:36.999Z</time></trkpt><trkpt lat="31.622690237050463" lon="-8.01142177000751"><ele>463.0</ele><time>2026-04-23T12:19:37.999Z</time></trkpt><trkpt lat="31.622577185716395" lon="-8.01132589174416"><ele>463.0</ele><time>2026-04-23T12:19:38.999Z</time></trkpt><trkpt lat="31.62245832380559" lon="-8.011247370446823"><ele>463.0</ele><time>2026-04-23T12:19:39.999Z</time></trkpt><trkpt lat="31.622338634346967" lon="-8.011166429321316"><ele>463.0</ele><time>2026-04-23T12:19:40.999Z</time></trkpt><trkpt lat="31.62221147748276" lon="-8.011104351456254"><ele>463.0</ele><time>2026-04-23T12:19:41.999Z</time></trkpt><trkpt lat="31.622103504003285" lon="-8.011010285784074"><ele>463.0</ele><time>2026-04-23T12:19:42.999Z</time></trkpt><trkpt lat="31.621989260789707" lon="-8.010937923159307"><ele>463.0</ele><time>2026-04-23T12:19:43.999Z</time></trkpt><trkpt lat="31.621876189505663" lon="-8.0108663694327"><ele>463.0</ele><time>2026-04-23T12:19:44.999Z</time></trkpt><trkpt lat="31.621762700227116" lon="-8.010798075743738"><ele>463.0</ele><time>2026-04-23T12:19:45.999Z</time></trkpt><trkpt lat="31.621649695959963" lon="-8.010729199164587"><ele>463.0</ele><time>2026-04-23T12:19:46.999Z</time></trkpt><trkpt lat="31.621537413334583" lon="-8.010661369801857"><ele>463.0</ele><time>2026-04-23T12:19:47.999Z</time></trkpt><trkpt lat="31.62142295333294" lon="-8.010592361971767"><ele>463.0</ele><time>2026-04-23T12:19:48.999Z</time></trkpt><trkpt lat="31.621315011873982" lon="-8.010525273991577"><ele>463.0</ele><time>2026-04-23T12:19:49.999Z</time></trkpt><trkpt lat="31.62120780742371" lon="-8.010457096289427"><ele>463.0</ele><time>2026-04-23T12:19:50.999Z</time></trkpt><trkpt lat="31.62110065282753" lon="-8.010391058416023"><ele>463.0</ele><time>2026-04-23T12:19:51.999Z</time></trkpt><trkpt lat="31.62099787472205" lon="-8.010321010514483"><ele>463.0</ele><time>2026-04-23T12:19:52.999Z</time></trkpt><trkpt lat="31.620899740476588" lon="-8.010253463300264"><ele>463.2</ele><time>2026-04-23T12:19:53.999Z</time></trkpt><trkpt lat="31.62080160814227" lon="-8.010184831711399"><ele>463.4</ele><time>2026-04-23T12:19:54.999Z</time></trkpt><trkpt lat="31.62070846722909" lon="-8.01012044374995"><ele>463.59999999999997</ele><time>2026-04-23T12:19:55.999Z</time></trkpt><trkpt lat="31.620618713765218" lon="-8.010057087870162"><ele>463.79999999999995</ele><time>2026-04-23T12:19:56.999Z</time></trkpt><trkpt lat="31.620528472664077" lon="-8.009995495322572"><ele>464.0</ele><time>2026-04-23T12:19:57.999Z</time></trkpt><trkpt lat="31.620431459358237" lon="-8.009954320662395"><ele>464.2</ele><time>2026-04-23T12:19:58.999Z</time></trkpt><trkpt lat="31.62034967309284" lon="-8.009881472448546"><ele>464.4</ele><time>2026-04-23T12:19:59.999Z</time></trkpt><trkpt lat="31.620261940441612" lon="-8.009824760067708"><ele>464.6</ele><time>2026-04-23T12:20:00.999Z</time></trkpt><trkpt lat="31.62017430027452" lon="-8.009767904216355"><ele>464.8</ele><time>2026-04-23T12:20:01.999Z</time></trkpt><trkpt lat="31.620084209139897" lon="-8.009713080918589"><ele>465.0</ele><time>2026-04-23T12:20:02.999Z</time></trkpt><trkpt lat="31.619998194135817" lon="-8.009658044318238"><ele>465.0</ele><time>2026-04-23T12:20:03.999Z</time></trkpt><trkpt lat="31.619909339395978" lon="-8.009617713836386"><ele>465.0</ele><time>2026-04-23T12:20:04.999Z</time></trkpt><trkpt lat="31.619830604037105" lon="-8.009566551731284"><ele>465.0</ele><time>2026-04-23T12:20:05.999Z</time></trkpt><trkpt lat="31.619755295474135" lon="-8.009517616374701"><ele>465.0</ele><time>2026-04-23T12:20:06.999Z</time></trkpt><trkpt lat="31.61967930467404" lon="-8.0094681460128"><ele>465.0</ele><time>2026-04-23T12:20:07.999Z</time></trkpt><trkpt lat="31.61960346483621" lon="-8.009418590013393"><ele>465.0</ele><time>2026-04-23T12:20:08.999Z</time></trkpt><trkpt lat="31.619527147129" lon="-8.009366949064551"><ele>465.0</ele><time>2026-04-23T12:20:09.999Z</time></trkpt><trkpt lat="31.619450913810766" lon="-8.009315115604423"><ele>465.0</ele><time>2026-04-23T12:20:10.999Z</time></trkpt><trkpt lat="31.619367406646294" lon="-8.009258336245086"><ele>465.0</ele><time>2026-04-23T12:20:11.999Z</time></trkpt><trkpt lat="31.61927553302921" lon="-8.009200401262646"><ele>465.0</ele><time>2026-04-23T12:20:12.999Z</time></trkpt><trkpt lat="31.619171084790334" lon="-8.009138827358074"><ele>465.0</ele><time>2026-04-23T12:20:13.999Z</time></trkpt><trkpt lat="31.61906227547908" lon="-8.00907473649711"><ele>465.25</ele><time>2026-04-23T12:20:14.999Z</time></trkpt><trkpt lat="31.618947249450642" lon="-8.009007151388932"><ele>465.5</ele><time>2026-04-23T12:20:15.999Z</time></trkpt><trkpt lat="31.618829280743086" lon="-8.008932630992945"><ele>465.75</ele><time>2026-04-23T12:20:16.999Z</time></trkpt><trkpt lat="31.6187249156559" lon="-8.008865294740575"><ele>466.0</ele><time>2026-04-23T12:20:17.999Z</time></trkpt><trkpt lat="31.6186290837322" lon="-8.008803584313698"><ele>466.00000000000006</ele><time>2026-04-23T12:20:18.999Z</time></trkpt><trkpt lat="31.61854429702817" lon="-8.008749261048951"><ele>466.0</ele><time>2026-04-23T12:20:19.999Z</time></trkpt><trkpt lat="31.618474909819955" lon="-8.008704603381185"><ele>466.0</ele><time>2026-04-23T12:20:20.999Z</time></trkpt><trkpt lat="31.618389946793467" lon="-8.008649745355589"><ele>466.0</ele><time>2026-04-23T12:20:22.999Z</time></trkpt><trkpt lat="31.61832382268164" lon="-8.008592171821276"><ele>466.00000000000006</ele><time>2026-04-23T12:20:25.999Z</time></trkpt><trkpt lat="31.618248132676978" lon="-8.008555689278909"><ele>466.0</ele><time>2026-04-23T12:20:28.999Z</time></trkpt><trkpt lat="31.618190171842297" lon="-8.008519677855123"><ele>466.0</ele><time>2026-04-23T12:20:31.999Z</time></trkpt><trkpt lat="31.61813262827967" lon="-8.008484660371689"><ele>466.0</ele><time>2026-04-23T12:21:14.999Z</time></trkpt><trkpt lat="31.618076556388555" lon="-8.00845102697803"><ele>466.0</ele><time>2026-04-23T12:21:16.999Z</time></trkpt><trkpt lat="31.617982489664183" lon="-8.008433725715603"><ele>466.0</ele><time>2026-04-23T12:21:18.999Z</time></trkpt><trkpt lat="31.617831523118035" lon="-8.008422048686423"><ele>466.0</ele><time>2026-04-23T12:21:20.999Z</time></trkpt><trkpt lat="31.617755524869104" lon="-8.008532908420099"><ele>466.1666666666667</ele><time>2026-04-23T12:21:22.999Z</time></trkpt><trkpt lat="31.617710039843228" lon="-8.00860012450502"><ele>466.33333333333337</ele><time>2026-04-23T12:21:23.999Z</time></trkpt><trkpt lat="31.61767993555151" lon="-8.0086735091978"><ele>466.5</ele><time>2026-04-23T12:21:24.999Z</time></trkpt><trkpt lat="31.617650971049326" lon="-8.008744115543157"><ele>466.66666666666663</ele><time>2026-04-23T12:21:25.999Z</time></trkpt><trkpt lat="31.617630360119914" lon="-8.008872102113964"><ele>466.8333333333333</ele><time>2026-04-23T12:21:27.999Z</time></trkpt><trkpt lat="31.617605951095168" lon="-8.008954570800675"><ele>467.0</ele><time>2026-04-23T12:21:30.999Z</time></trkpt><trkpt lat="31.617635797958666" lon="-8.009028120095854"><ele>466.99999999999994</ele><time>2026-04-23T12:21:48.999Z</time></trkpt><trkpt lat="31.61766356598456" lon="-8.009107072795228"><ele>467.0</ele><time>2026-04-23T12:21:52.999Z</time></trkpt><trkpt lat="31.617712755991157" lon="-8.009168602460335"><ele>466.99999999999994</ele><time>2026-04-23T12:21:55.999Z</time></trkpt><trkpt lat="31.617744545528346" lon="-8.009244395111535"><ele>466.99999999999994</ele><time>2026-04-23T12:22:03.999Z</time></trkpt><trkpt lat="31.617742474716476" lon="-8.009324066642636"><ele>467.0</ele><time>2026-04-23T12:31:07Z</time></trkpt><trkpt lat="31.617791511842437" lon="-8.009390681292027"><ele>466.99999999999994</ele><time>2026-04-23T12:31:43Z</time></trkpt><trkpt lat="31.617831034849456" lon="-8.009450883197545"><ele>466.99999999999994</ele><time>2026-04-23T12:31:48Z</time></trkpt><trkpt lat="31.617845038877686" lon="-8.009527895637468"><ele>466.99999999999994</ele><time>2026-04-23T12:31:54Z</time></trkpt><trkpt lat="31.61789463284689" lon="-8.00957720621697"><ele>467.0</ele><time>2026-04-23T12:32:01Z</time></trkpt><trkpt lat="31.618022380073686" lon="-8.009575381831613"><ele>467.0</ele><time>2026-04-23T12:32:27Z</time></trkpt><trkpt lat="31.618086572143568" lon="-8.009609850046978"><ele>467.0</ele><time>2026-04-23T12:32:31Z</time></trkpt><trkpt lat="31.61815482660537" lon="-8.009639178215554"><ele>466.99999999999994</ele><time>2026-04-23T12:32:34Z</time></trkpt><trkpt lat="31.61821579696575" lon="-8.009666125158516"><ele>467.0</ele><time>2026-04-23T12:32:36Z</time></trkpt><trkpt lat="31.618284184072397" lon="-8.009702923387252"><ele>467.0</ele><time>2026-04-23T12:32:38Z</time></trkpt><trkpt lat="31.618350534808336" lon="-8.009731406356057"><ele>467.00000000000006</ele><time>2026-04-23T12:32:40Z</time></trkpt><trkpt lat="31.618426037975606" lon="-8.009760590913507"><ele>467.00000000000006</ele><time>2026-04-23T12:32:42Z</time></trkpt><trkpt lat="31.61848520749248" lon="-8.009791414751492"><ele>467.0</ele><time>2026-04-23T12:32:44Z</time></trkpt><trkpt lat="31.618563795384837" lon="-8.009832695576673"><ele>467.0</ele><time>2026-04-23T12:32:47Z</time></trkpt><trkpt lat="31.618222887363686" lon="-8.009717462457367"><ele>467.0</ele><time>2026-04-23T12:33:14.902Z</time></trkpt><trkpt lat="31.61806330287461" lon="-8.00960679498336"><ele>467.0</ele><time>2026-04-23T12:33:43.246Z</time></trkpt><trkpt lat="31.61825519829019" lon="-8.009807186928033"><ele>467.0</ele><time>2026-04-23T12:34:06.77Z</time></trkpt><trkpt lat="31.618064426638743" lon="-8.009591445262854"><ele>467.0</ele><time>2026-04-23T12:34:14.022Z</time></trkpt><trkpt lat="31.618197703309576" lon="-8.009737241857115"><ele>467.0</ele><time>2026-04-23T12:35:09.304Z</time></trkpt><trkpt lat="31.618127602935534" lon="-8.00968388871416"><ele>467.0</ele><time>2026-04-23T12:43:52.303Z</time></trkpt><trkpt lat="31.618041882205535" lon="-8.009599575191592"><ele>467.0</ele><time>2026-04-23T12:43:59.259Z</time></trkpt><trkpt lat="31.618130859606143" lon="-8.009676271624103"><ele>467.0</ele><time>2026-04-23T12:44:26.977Z</time></trkpt><trkpt lat="31.61822852043365" lon="-8.009780324933025"><ele>467.0</ele><time>2026-04-23T12:47:13.302Z</time></trkpt><trkpt lat="31.61818128182184" lon="-8.00972573421599"><ele>467.0</ele><time>2026-04-23T12:47:37.077Z</time></trkpt><trkpt lat="31.61808420197498" lon="-8.00963979427265"><ele>467.0</ele><time>2026-04-23T12:47:49.298Z</time></trkpt><trkpt lat="31.61825113224437" lon="-8.009802362004484"><ele>467.0</ele><time>2026-04-23T12:48:40.403Z</time></trkpt><trkpt lat="31.618120162377434" lon="-8.009642894701148"><ele>467.0</ele><time>2026-04-23T12:49:27.124Z</time></trkpt><trkpt lat="31.618243248602298" lon="-8.009830703511224"><ele>467.0</ele><time>2026-04-23T12:49:57.838Z</time></trkpt><trkpt lat="31.618154606917646" lon="-8.00970634983548"><ele>467.0</ele><time>2026-04-23T12:50:26.467Z</time></trkpt><trkpt lat="31.617967422778673" lon="-8.009372937879348"><ele>467.0</ele><time>2026-04-23T12:50:28.705Z</time></trkpt><trkpt lat="31.61797254579409" lon="-8.009447333128506"><ele>467.0</ele><time>2026-04-23T12:50:33.719Z</time></trkpt><trkpt lat="31.618082622445037" lon="-8.009592083470082"><ele>467.0</ele><time>2026-04-23T12:50:35.264Z</time></trkpt><trkpt lat="31.6184708220867" lon="-8.01007527896938"><ele>467.0</ele><time>2026-04-23T12:50:49.132Z</time></trkpt><trkpt lat="31.618328002265482" lon="-8.009915308306795"><ele>467.0</ele><time>2026-04-23T12:50:56.68Z</time></trkpt><trkpt lat="31.618267172622517" lon="-8.009840332323444"><ele>467.0</ele><time>2026-04-23T12:50:57.931Z</time></trkpt><trkpt lat="31.61810219535568" lon="-8.00958584206998"><ele>467.0</ele><time>2026-04-23T12:51:13.036Z</time></trkpt><trkpt lat="31.61811256231487" lon="-8.009695659819657"><ele>467.0</ele><time>2026-04-23T12:51:50.766Z</time></trkpt><trkpt lat="31.61809215023842" lon="-8.009590289497488"><ele>467.0</ele><time>2026-04-23T12:52:27.469Z</time></trkpt><trkpt lat="31.618191848717412" lon="-8.00975030313045"><ele>467.0</ele><time>2026-04-23T12:52:48.553Z</time></trkpt><trkpt lat="31.618284679067923" lon="-8.009865989361792"><ele>467.0</ele><time>2026-04-23T12:52:49.804Z</time></trkpt><trkpt lat="31.618167389960465" lon="-8.00972081961257"><ele>467.0</ele><time>2026-04-23T12:54:05.552Z</time></trkpt><trkpt lat="31.618270965285163" lon="-8.00985802226189"><ele>467.0</ele><time>2026-04-23T12:55:04.983Z</time></trkpt><trkpt lat="31.618338884714476" lon="-8.009863542501625"><ele>467.0</ele><time>2026-04-23T12:55:06.268Z</time></trkpt><trkpt lat="31.61844573800468" lon="-8.010090232772027"><ele>466.99999999999994</ele><time>2026-04-23T12:55:35.475Z</time></trkpt><trkpt lat="31.618522285233087" lon="-8.010111930910176"><ele>467.0</ele><time>2026-04-23T12:56:13.315Z</time></trkpt><trkpt lat="31.618663755364327" lon="-8.010101628746044"><ele>467.0</ele><time>2026-04-23T12:56:16.996Z</time></trkpt><trkpt lat="31.61863383061548" lon="-8.010187335535385"><ele>467.0</ele><time>2026-04-23T12:56:22.008Z</time></trkpt><trkpt lat="31.618630267346283" lon="-8.010263074136184"><ele>466.99999999999994</ele><time>2026-04-23T12:56:28.005Z</time></trkpt><trkpt lat="31.618656302754253" lon="-8.010335757849852"><ele>467.0</ele><time>2026-04-23T12:56:36.003Z</time></trkpt><trkpt lat="31.61870677228702" lon="-8.010386615998831"><ele>466.0</ele><time>2026-04-23T12:56:42.002Z</time></trkpt></trkseg><trkseg><trkpt lat="31.61779426255236" lon="-8.009125590520405"><ele>466.66666666666663</ele><time>2026-04-24T07:43:44.999Z</time></trkpt><trkpt lat="31.617688939331735" lon="-8.009263996508054"><ele>466.33333333333337</ele><time>2026-04-24T07:43:47.999Z</time></trkpt><trkpt lat="31.61786993017746" lon="-8.009045130613472"><ele>466.0</ele><time>2026-04-24T07:44:45.998Z</time></trkpt><trkpt lat="31.617775766335704" lon="-8.0091631668618"><ele>466.1666666666667</ele><time>2026-04-24T07:44:46.998Z</time></trkpt><trkpt lat="31.617691071417635" lon="-8.009269280294829"><ele>466.33333333333337</ele><time>2026-04-24T07:44:48.998Z</time></trkpt><trkpt lat="31.617678258554054" lon="-8.009194099459684"><ele>466.5</ele><time>2026-04-24T07:50:04.999Z</time></trkpt><trkpt lat="31.617640797662343" lon="-8.009119733440304"><ele>466.66666666666663</ele><time>2026-04-24T07:50:07.999Z</time></trkpt><trkpt lat="31.617601671962564" lon="-8.00905336883767"><ele>466.8333333333333</ele><time>2026-04-24T07:50:10.999Z</time></trkpt><trkpt lat="31.61752150863669" lon="-8.009051831996189"><ele>467.0</ele><time>2026-04-24T07:50:28.999Z</time></trkpt><trkpt lat="31.61744996746978" lon="-8.00918458794498"><ele>467.40000000000003</ele><time>2026-04-24T07:50:30.999Z</time></trkpt><trkpt lat="31.61740696178361" lon="-8.009275079759648"><ele>467.80000000000007</ele><time>2026-04-24T07:50:31.999Z</time></trkpt><trkpt lat="31.61735870304504" lon="-8.009380471068823"><ele>468.2</ele><time>2026-04-24T07:50:32.999Z</time></trkpt><trkpt lat="31.61730898943991" lon="-8.009496141782016"><ele>468.6</ele><time>2026-04-24T07:50:33.999Z</time></trkpt><trkpt lat="31.61726190216152" lon="-8.009621220618815"><ele>469.0</ele><time>2026-04-24T07:50:34.999Z</time></trkpt><trkpt lat="31.617211539150233" lon="-8.009758269310971"><ele>469.0</ele><time>2026-04-24T07:50:35.999Z</time></trkpt><trkpt lat="31.617156220119544" lon="-8.009901177768038"><ele>469.0</ele><time>2026-04-24T07:50:36.999Z</time></trkpt><trkpt lat="31.617099584514506" lon="-8.01003886483935"><ele>469.0</ele><time>2026-04-24T07:50:37.999Z</time></trkpt><trkpt lat="31.617041922083388" lon="-8.010173099148181"><ele>469.0</ele><time>2026-04-24T07:50:38.999Z</time></trkpt><trkpt lat="31.616985001136065" lon="-8.010306470034553"><ele>468.6</ele><time>2026-04-24T07:50:40Z</time></trkpt><trkpt lat="31.616929724286393" lon="-8.010431523665838"><ele>468.2</ele><time>2026-04-24T07:50:41Z</time></trkpt><trkpt lat="31.61688162455593" lon="-8.010541479344827"><ele>467.80000000000007</ele><time>2026-04-24T07:50:42Z</time></trkpt><trkpt lat="31.616837362026992" lon="-8.010650515359709"><ele>467.40000000000003</ele><time>2026-04-24T07:50:43Z</time></trkpt><trkpt lat="31.616795180281414" lon="-8.01075834152577"><ele>467.0</ele><time>2026-04-24T07:50:44Z</time></trkpt><trkpt lat="31.616747098826117" lon="-8.010872130000502"><ele>467.0</ele><time>2026-04-24T07:50:45Z</time></trkpt><trkpt lat="31.616697266409002" lon="-8.010988892673764"><ele>467.0</ele><time>2026-04-24T07:50:46Z</time></trkpt><trkpt lat="31.616647921827923" lon="-8.011108774139242"><ele>467.0</ele><time>2026-04-24T07:50:47Z</time></trkpt><trkpt lat="31.61659629450834" lon="-8.01123132659746"><ele>467.0</ele><time>2026-04-24T07:50:48Z</time></trkpt><trkpt lat="31.61654358775868" lon="-8.011358212194217"><ele>467.0</ele><time>2026-04-24T07:50:49Z</time></trkpt><trkpt lat="31.616489509581292" lon="-8.011487341023507"><ele>467.0</ele><time>2026-04-24T07:50:50Z</time></trkpt><trkpt lat="31.61643357483976" lon="-8.011620341399722"><ele>467.0</ele><time>2026-04-24T07:50:50.999Z</time></trkpt><trkpt lat="31.616377161638383" lon="-8.011754486189483"><ele>467.0</ele><time>2026-04-24T07:50:51.999Z</time></trkpt><trkpt lat="31.616318502963594" lon="-8.011893727200993"><ele>467.0</ele><time>2026-04-24T07:50:52.999Z</time></trkpt><trkpt lat="31.616259869478352" lon="-8.012034933557272"><ele>467.0</ele><time>2026-04-24T07:50:53.999Z</time></trkpt><trkpt lat="31.616200516743362" lon="-8.012179626377195"><ele>467.0</ele><time>2026-04-24T07:50:54.999Z</time></trkpt><trkpt lat="31.6161427483002" lon="-8.012319050441437"><ele>467.0</ele><time>2026-04-24T07:50:55.999Z</time></trkpt><trkpt lat="31.61608538798251" lon="-8.012458423783062"><ele>466.75</ele><time>2026-04-24T07:50:56.999Z</time></trkpt><trkpt lat="31.61602441276131" lon="-8.012602764176503"><ele>466.5</ele><time>2026-04-24T07:50:57.999Z</time></trkpt><trkpt lat="31.615964042499545" lon="-8.012748567915864"><ele>466.25</ele><time>2026-04-24T07:50:58.999Z</time></trkpt><trkpt lat="31.61590404787034" lon="-8.01289419840265"><ele>466.0</ele><time>2026-04-24T07:50:59.999Z</time></trkpt><trkpt lat="31.615846125707115" lon="-8.01303482755253"><ele>466.0</ele><time>2026-04-24T07:51:00.999Z</time></trkpt><trkpt lat="31.615787338573092" lon="-8.013174943184154"><ele>466.0</ele><time>2026-04-24T07:51:01.999Z</time></trkpt><trkpt lat="31.615726913787793" lon="-8.013317828974795"><ele>466.0</ele><time>2026-04-24T07:51:02.999Z</time></trkpt><trkpt lat="31.615663886573923" lon="-8.013462563106977"><ele>466.0</ele><time>2026-04-24T07:51:03.999Z</time></trkpt><trkpt lat="31.615598046443953" lon="-8.013615007484665"><ele>466.5</ele><time>2026-04-24T07:51:04.999Z</time></trkpt><trkpt lat="31.615532935735203" lon="-8.01376609130942"><ele>467.0</ele><time>2026-04-24T07:51:05.999Z</time></trkpt><trkpt lat="31.61547220988772" lon="-8.013908173050808"><ele>467.5</ele><time>2026-04-24T07:51:06.999Z</time></trkpt><trkpt lat="31.61541471354549" lon="-8.014045482036602"><ele>468.0</ele><time>2026-04-24T07:51:07.999Z</time></trkpt><trkpt lat="31.615356843228447" lon="-8.014180569487172"><ele>467.25</ele><time>2026-04-24T07:51:08.999Z</time></trkpt><trkpt lat="31.61529926534486" lon="-8.014322626677886"><ele>466.5</ele><time>2026-04-24T07:51:09.999Z</time></trkpt><trkpt lat="31.615240863180965" lon="-8.014461025758125"><ele>465.75</ele><time>2026-04-24T07:51:10.999Z</time></trkpt><trkpt lat="31.615180287216834" lon="-8.014605943273828"><ele>465.0</ele><time>2026-04-24T07:51:11.999Z</time></trkpt><trkpt lat="31.61511745359313" lon="-8.014755005533907"><ele>465.0</ele><time>2026-04-24T07:51:12.999Z</time></trkpt><trkpt lat="31.615055087049697" lon="-8.014911483794565"><ele>465.0</ele><time>2026-04-24T07:51:13.999Z</time></trkpt><trkpt lat="31.614990725311163" lon="-8.015062529946922"><ele>465.0</ele><time>2026-04-24T07:51:14.999Z</time></trkpt><trkpt lat="31.614928783010114" lon="-8.015213177616312"><ele>465.0</ele><time>2026-04-24T07:51:15.999Z</time></trkpt><trkpt lat="31.614867872179676" lon="-8.015357941279724"><ele>465.0</ele><time>2026-04-24T07:51:16.999Z</time></trkpt><trkpt lat="31.614812050155457" lon="-8.01549341169425"><ele>465.0</ele><time>2026-04-24T07:51:17.999Z</time></trkpt><trkpt lat="31.6147571767586" lon="-8.01561986340597"><ele>465.0</ele><time>2026-04-24T07:51:18.999Z</time></trkpt><trkpt lat="31.61470860499516" lon="-8.015734654523005"><ele>465.0</ele><time>2026-04-24T07:51:19.999Z</time></trkpt><trkpt lat="31.614666007383263" lon="-8.015836851736045"><ele>465.0</ele><time>2026-04-24T07:51:20.999Z</time></trkpt><trkpt lat="31.614633279574914" lon="-8.015921060111317"><ele>465.0</ele><time>2026-04-24T07:51:21.999Z</time></trkpt><trkpt lat="31.614589890877866" lon="-8.01603235766339"><ele>465.0</ele><time>2026-04-24T07:51:23.999Z</time></trkpt><trkpt lat="31.61456114795567" lon="-8.016107893073608"><ele>465.0</ele><time>2026-04-24T07:51:25.999Z</time></trkpt><trkpt lat="31.614536797739074" lon="-8.016178355443914"><ele>465.0</ele><time>2026-04-24T07:51:27.999Z</time></trkpt><trkpt lat="31.61451037864124" lon="-8.016263420644405"><ele>465.0</ele><time>2026-04-24T07:51:30Z</time></trkpt><trkpt lat="31.614470876310964" lon="-8.016364963397928"><ele>465.0</ele><time>2026-04-24T07:51:32Z</time></trkpt><trkpt lat="31.61443024049669" lon="-8.016459981407921"><ele>465.0</ele><time>2026-04-24T07:51:34Z</time></trkpt><trkpt lat="31.614402892107098" lon="-8.016546304340915"><ele>465.0</ele><time>2026-04-24T07:51:36Z</time></trkpt><trkpt lat="31.614379043196728" lon="-8.01661984948716"><ele>465.0</ele><time>2026-04-24T07:51:52Z</time></trkpt><trkpt lat="31.614344674382075" lon="-8.016699606956005"><ele>465.0</ele><time>2026-04-24T07:51:55Z</time></trkpt><trkpt lat="31.614306289497826" lon="-8.01678331192701"><ele>465.0</ele><time>2026-04-24T07:51:58Z</time></trkpt><trkpt lat="31.614261474176534" lon="-8.016865733910114"><ele>465.0</ele><time>2026-04-24T07:52:00Z</time></trkpt><trkpt lat="31.614242176296194" lon="-8.01694320464466"><ele>465.0</ele><time>2026-04-24T07:52:02Z</time></trkpt><trkpt lat="31.614117064562237" lon="-8.016960347549242"><ele>465.0</ele><time>2026-04-24T07:52:05Z</time></trkpt><trkpt lat="31.614030189826405" lon="-8.016926667462995"><ele>465.0</ele><time>2026-04-24T07:52:08Z</time></trkpt><trkpt lat="31.613930820571433" lon="-8.016859643544594"><ele>465.0</ele><time>2026-04-24T07:52:10Z</time></trkpt><trkpt lat="31.613826010595783" lon="-8.016795315425297"><ele>465.0</ele><time>2026-04-24T07:52:12Z</time></trkpt><trkpt lat="31.613767263379078" lon="-8.016759376000772"><ele>465.0</ele><time>2026-04-24T07:52:13Z</time></trkpt><trkpt lat="31.6137031289371" lon="-8.016717197831557"><ele>465.0</ele><time>2026-04-24T07:52:14Z</time></trkpt><trkpt lat="31.613630931979397" lon="-8.016666975599598"><ele>465.0</ele><time>2026-04-24T07:52:15Z</time></trkpt><trkpt lat="31.613551406664502" lon="-8.01661091189727"><ele>465.0</ele><time>2026-04-24T07:52:16Z</time></trkpt><trkpt lat="31.61346752733534" lon="-8.016556119716853"><ele>465.0</ele><time>2026-04-24T07:52:17Z</time></trkpt><trkpt lat="31.613375417137348" lon="-8.016493923942894"><ele>464.75</ele><time>2026-04-24T07:52:18Z</time></trkpt><trkpt lat="31.613273870388852" lon="-8.016424839505989"><ele>464.5</ele><time>2026-04-24T07:52:19Z</time></trkpt><trkpt lat="31.61315941284132" lon="-8.016352671205906"><ele>464.25</ele><time>2026-04-24T07:52:20Z</time></trkpt><trkpt lat="31.6130557109206" lon="-8.016277247600554"><ele>464.0</ele><time>2026-04-24T07:52:21Z</time></trkpt><trkpt lat="31.612936323700698" lon="-8.0161986496091"><ele>464.75</ele><time>2026-04-24T07:52:22Z</time></trkpt><trkpt lat="31.61281695631225" lon="-8.016120003374178"><ele>465.5</ele><time>2026-04-24T07:52:23Z</time></trkpt><trkpt lat="31.612696432248185" lon="-8.016038076462634"><ele>466.25</ele><time>2026-04-24T07:52:24Z</time></trkpt><trkpt lat="31.612573625348073" lon="-8.015950127204489"><ele>467.0</ele><time>2026-04-24T07:52:25Z</time></trkpt><trkpt lat="31.612448475392256" lon="-8.01586066009516"><ele>467.0</ele><time>2026-04-24T07:52:26Z</time></trkpt><trkpt lat="31.612313177743733" lon="-8.015768289843006"><ele>467.0</ele><time>2026-04-24T07:52:27Z</time></trkpt><trkpt lat="31.61217311624526" lon="-8.015669966242642"><ele>467.0</ele><time>2026-04-24T07:52:28Z</time></trkpt><trkpt lat="31.612031059223494" lon="-8.015573549393428"><ele>467.0</ele><time>2026-04-24T07:52:29Z</time></trkpt><trkpt lat="31.611889211238047" lon="-8.015476039982808"><ele>467.0</ele><time>2026-04-24T07:52:30Z</time></trkpt><trkpt lat="31.611742565475172" lon="-8.015378674841692"><ele>467.0</ele><time>2026-04-24T07:52:31Z</time></trkpt><trkpt lat="31.611599282695643" lon="-8.015285157210405"><ele>467.0</ele><time>2026-04-24T07:52:32Z</time></trkpt><trkpt lat="31.61145893702207" lon="-8.01519136113973"><ele>467.0</ele><time>2026-04-24T07:52:33Z</time></trkpt><trkpt lat="31.61131962654961" lon="-8.015099102865143"><ele>467.0</ele><time>2026-04-24T07:52:34Z</time></trkpt><trkpt lat="31.611182312381217" lon="-8.015006534103012"><ele>468.0</ele><time>2026-04-24T07:52:35Z</time></trkpt><trkpt lat="31.611045659452234" lon="-8.014915940595271"><ele>469.0</ele><time>2026-04-24T07:52:36Z</time></trkpt><trkpt lat="31.61091106667881" lon="-8.014825934002289"><ele>470.0</ele><time>2026-04-24T07:52:37Z</time></trkpt><trkpt lat="31.610782799730373" lon="-8.01474037491658"><ele>470.0</ele><time>2026-04-24T07:52:38Z</time></trkpt><trkpt lat="31.610665935616673" lon="-8.014663131350128"><ele>470.0</ele><time>2026-04-24T07:52:39Z</time></trkpt><trkpt lat="31.610557906304447" lon="-8.014593035910618"><ele>470.0</ele><time>2026-04-24T07:52:40Z</time></trkpt><trkpt lat="31.610457872932106" lon="-8.014530147967138"><ele>470.0</ele><time>2026-04-24T07:52:41Z</time></trkpt><trkpt lat="31.610363513299436" lon="-8.014471301196394"><ele>470.16666666666663</ele><time>2026-04-24T07:52:42Z</time></trkpt><trkpt lat="31.610279506763295" lon="-8.014420337721477"><ele>470.3333333333333</ele><time>2026-04-24T07:52:43Z</time></trkpt><trkpt lat="31.61020268449134" lon="-8.014376350351835"><ele>470.5</ele><time>2026-04-24T07:52:43.999Z</time></trkpt><trkpt lat="31.610127649985976" lon="-8.014345057459915"><ele>470.66666666666663</ele><time>2026-04-24T07:52:44.999Z</time></trkpt><trkpt lat="31.610059733743295" lon="-8.01432741228486"><ele>470.8333333333333</ele><time>2026-04-24T07:52:45.999Z</time></trkpt><trkpt lat="31.60999747381001" lon="-8.014309977824079"><ele>471.0</ele><time>2026-04-24T07:52:46.999Z</time></trkpt><trkpt lat="31.609912821440027" lon="-8.014244665256319"><ele>471.0</ele><time>2026-04-24T07:52:48.999Z</time></trkpt><trkpt lat="31.60989862063453" lon="-8.014138373497332"><ele>471.0</ele><time>2026-04-24T07:52:50.999Z</time></trkpt><trkpt lat="31.609975094332157" lon="-8.014060841902781"><ele>471.0</ele><time>2026-04-24T07:52:52.999Z</time></trkpt><trkpt lat="31.610092399702324" lon="-8.014046527801296"><ele>471.0</ele><time>2026-04-24T07:52:54.999Z</time></trkpt><trkpt lat="31.61016124898862" lon="-8.014156786935551"><ele>471.0</ele><time>2026-04-24T07:52:55.999Z</time></trkpt><trkpt lat="31.61023034916098" lon="-8.014224752500526"><ele>471.0</ele><time>2026-04-24T07:52:56.999Z</time></trkpt><trkpt lat="31.610310124821268" lon="-8.014294272749884"><ele>471.0</ele><time>2026-04-24T07:52:57.999Z</time></trkpt><trkpt lat="31.61040036453618" lon="-8.014359690271908"><ele>471.0</ele><time>2026-04-24T07:52:58.999Z</time></trkpt><trkpt lat="31.610509813817" lon="-8.01443369225576"><ele>471.0</ele><time>2026-04-24T07:52:59.999Z</time></trkpt><trkpt lat="31.610626367728365" lon="-8.01451057966349"><ele>470.75</ele><time>2026-04-24T07:53:00.999Z</time></trkpt><trkpt lat="31.61074961255942" lon="-8.014591673555667"><ele>470.5</ele><time>2026-04-24T07:53:01.999Z</time></trkpt><trkpt lat="31.610879208042107" lon="-8.01467762667062"><ele>470.25</ele><time>2026-04-24T07:53:02.999Z</time></trkpt><trkpt lat="31.61101055875945" lon="-8.014764854985513"><ele>470.0</ele><time>2026-04-24T07:53:03.999Z</time></trkpt><trkpt lat="31.611144734014925" lon="-8.01485234683085"><ele>469.25</ele><time>2026-04-24T07:53:04.999Z</time></trkpt><trkpt lat="31.611278628203603" lon="-8.01493857190837"><ele>468.5</ele><time>2026-04-24T07:53:05.999Z</time></trkpt><trkpt lat="31.61141056409335" lon="-8.015023660551416"><ele>467.75</ele><time>2026-04-24T07:53:06.999Z</time></trkpt><trkpt lat="31.61153663846655" lon="-8.015106471329842"><ele>467.0</ele><time>2026-04-24T07:53:07.999Z</time></trkpt><trkpt lat="31.61165856139756" lon="-8.015185048664192"><ele>467.0</ele><time>2026-04-24T07:53:08.999Z</time></trkpt><trkpt lat="31.61177647659444" lon="-8.015261600346609"><ele>467.0</ele><time>2026-04-24T07:53:09.999Z</time></trkpt><trkpt lat="31.611894522822105" lon="-8.015341119287848"><ele>467.0</ele><time>2026-04-24T07:53:10.999Z</time></trkpt><trkpt lat="31.612010101950265" lon="-8.01541922336127"><ele>467.0</ele><time>2026-04-24T07:53:11.999Z</time></trkpt><trkpt lat="31.612117384103787" lon="-8.015491961568088"><ele>467.0</ele><time>2026-04-24T07:53:12.999Z</time></trkpt><trkpt lat="31.612217602377584" lon="-8.015560227779895"><ele>467.0</ele><time>2026-04-24T07:53:13.999Z</time></trkpt><trkpt lat="31.61231553822483" lon="-8.015625380332487"><ele>467.0</ele><time>2026-04-24T07:53:14.999Z</time></trkpt><trkpt lat="31.612410814234497" lon="-8.015688206406931"><ele>467.0</ele><time>2026-04-24T07:53:15.999Z</time></trkpt><trkpt lat="31.612511187061337" lon="-8.015752247922032"><ele>467.0</ele><time>2026-04-24T07:53:16.999Z</time></trkpt><trkpt lat="31.61261106335418" lon="-8.0158166492507"><ele>467.00000000000006</ele><time>2026-04-24T07:53:17.999Z</time></trkpt><trkpt lat="31.612710044098897" lon="-8.015879710652237"><ele>467.00000000000006</ele><time>2026-04-24T07:53:18.999Z</time></trkpt><trkpt lat="31.612807963745553" lon="-8.015941877978246"><ele>467.0</ele><time>2026-04-24T07:53:19.999Z</time></trkpt><trkpt lat="31.61290298279808" lon="-8.016001061182745"><ele>467.0</ele><time>2026-04-24T07:53:20.999Z</time></trkpt><trkpt lat="31.612996511158318" lon="-8.01605919278237"><ele>466.49999999999994</ele><time>2026-04-24T07:53:21.999Z</time></trkpt><trkpt lat="31.61307859532582" lon="-8.016134171315265"><ele>466.0</ele><time>2026-04-24T07:53:22.999Z</time></trkpt><trkpt lat="31.61316176880471" lon="-8.01618924266629"><ele>465.5</ele><time>2026-04-24T07:53:23.999Z</time></trkpt><trkpt lat="31.61323269444275" lon="-8.016236378521292"><ele>465.0</ele><time>2026-04-24T07:53:24.999Z</time></trkpt><trkpt lat="31.613299638551535" lon="-8.01628086831513"><ele>464.49999999999994</ele><time>2026-04-24T07:53:25.999Z</time></trkpt><trkpt lat="31.613364484826167" lon="-8.016323614695866"><ele>464.0</ele><time>2026-04-24T07:53:26.999Z</time></trkpt><trkpt lat="31.613426239549582" lon="-8.016364397689049"><ele>464.0</ele><time>2026-04-24T07:53:27.999Z</time></trkpt><trkpt lat="31.613481621927047" lon="-8.016401228698008"><ele>464.0</ele><time>2026-04-24T07:53:28.999Z</time></trkpt><trkpt lat="31.613589162783846" lon="-8.016472746689566"><ele>464.0</ele><time>2026-04-24T07:53:30.999Z</time></trkpt><trkpt lat="31.61368317701311" lon="-8.016535269065232"><ele>464.0</ele><time>2026-04-24T07:53:32.999Z</time></trkpt><trkpt lat="31.61375229759653" lon="-8.01658123640076"><ele>464.0</ele><time>2026-04-24T07:53:34.999Z</time></trkpt><trkpt lat="31.61382690384423" lon="-8.01663070765361"><ele>464.25</ele><time>2026-04-24T07:53:38Z</time></trkpt><trkpt lat="31.613903397157852" lon="-8.016681331131505"><ele>464.5</ele><time>2026-04-24T07:53:41Z</time></trkpt><trkpt lat="31.613971122295382" lon="-8.016726151814549"><ele>464.75</ele><time>2026-04-24T07:54:38Z</time></trkpt><trkpt lat="31.61404262567358" lon="-8.016775431165055"><ele>465.0</ele><time>2026-04-24T07:54:41Z</time></trkpt><trkpt lat="31.614198102407915" lon="-8.01662566940307"><ele>465.0</ele><time>2026-04-24T07:54:44Z</time></trkpt><trkpt lat="31.614240035530113" lon="-8.016568147567135"><ele>465.0</ele><time>2026-04-24T07:54:45Z</time></trkpt><trkpt lat="31.61428450881193" lon="-8.016503137264404"><ele>465.0</ele><time>2026-04-24T07:54:46Z</time></trkpt><trkpt lat="31.61433847120438" lon="-8.01641551165656"><ele>465.0</ele><time>2026-04-24T07:54:47Z</time></trkpt><trkpt lat="31.614400587646593" lon="-8.016305299469922"><ele>465.0</ele><time>2026-04-24T07:54:48Z</time></trkpt><trkpt lat="31.614465968932066" lon="-8.016165627831368"><ele>465.0</ele><time>2026-04-24T07:54:49Z</time></trkpt><trkpt lat="31.61453592949651" lon="-8.016002678330851"><ele>465.0</ele><time>2026-04-24T07:54:49.999Z</time></trkpt><trkpt lat="31.614605191389625" lon="-8.015838103370614"><ele>465.0</ele><time>2026-04-24T07:54:50.999Z</time></trkpt><trkpt lat="31.614671944101197" lon="-8.01568156587788"><ele>464.33333333333337</ele><time>2026-04-24T07:54:51.999Z</time></trkpt><trkpt lat="31.614740477141517" lon="-8.015517861000266"><ele>463.6666666666667</ele><time>2026-04-24T07:54:52.999Z</time></trkpt><trkpt lat="31.61481123773163" lon="-8.01534797938838"><ele>463.0</ele><time>2026-04-24T07:54:53.999Z</time></trkpt><trkpt lat="31.614882965956628" lon="-8.01517374590946"><ele>463.0</ele><time>2026-04-24T07:54:54.999Z</time></trkpt><trkpt lat="31.61495365358368" lon="-8.01499397133328"><ele>463.0</ele><time>2026-04-24T07:54:55.999Z</time></trkpt><trkpt lat="31.61502456178573" lon="-8.014813378661225"><ele>463.0</ele><time>2026-04-24T07:54:56.999Z</time></trkpt><trkpt lat="31.615093954674027" lon="-8.014639913849102"><ele>463.6666666666667</ele><time>2026-04-24T07:54:57.999Z</time></trkpt><trkpt lat="31.615163466514932" lon="-8.014465300963879"><ele>464.33333333333337</ele><time>2026-04-24T07:54:58.999Z</time></trkpt><trkpt lat="31.615235326665857" lon="-8.014290710787465"><ele>465.0</ele><time>2026-04-24T07:54:59.999Z</time></trkpt><trkpt lat="31.615308305028044" lon="-8.014114265828493"><ele>466.0</ele><time>2026-04-24T07:55:00.999Z</time></trkpt><trkpt lat="31.61538303917566" lon="-8.013937377411255"><ele>467.0</ele><time>2026-04-24T07:55:01.999Z</time></trkpt><trkpt lat="31.61545990802307" lon="-8.013757677032796"><ele>468.0</ele><time>2026-04-24T07:55:02.999Z</time></trkpt><trkpt lat="31.61553530686539" lon="-8.013575301621255"><ele>468.0</ele><time>2026-04-24T07:55:03.999Z</time></trkpt><trkpt lat="31.615611129769665" lon="-8.013392452279039"><ele>468.0</ele><time>2026-04-24T07:55:04.999Z</time></trkpt><trkpt lat="31.615686220083514" lon="-8.013211691837968"><ele>468.0</ele><time>2026-04-24T07:55:05.999Z</time></trkpt><trkpt lat="31.615760496983274" lon="-8.01303422396956"><ele>467.33333333333337</ele><time>2026-04-24T07:55:06.999Z</time></trkpt><trkpt lat="31.615837314274017" lon="-8.012851738913751"><ele>466.6666666666667</ele><time>2026-04-24T07:55:07.999Z</time></trkpt><trkpt lat="31.61591434007663" lon="-8.012667673229002"><ele>466.0</ele><time>2026-04-24T07:55:08.999Z</time></trkpt><trkpt lat="31.615992900949056" lon="-8.012483213381056"><ele>465.6666666666667</ele><time>2026-04-24T07:55:09.999Z</time></trkpt><trkpt lat="31.61606872089698" lon="-8.012301294959652"><ele>465.33333333333337</ele><time>2026-04-24T07:55:10.999Z</time></trkpt><trkpt lat="31.616144221719246" lon="-8.012118655669683"><ele>465.0</ele><time>2026-04-24T07:55:11.999Z</time></trkpt><trkpt lat="31.616218659967235" lon="-8.011939527076846"><ele>465.66666666666663</ele><time>2026-04-24T07:55:12.999Z</time></trkpt><trkpt lat="31.61629145902158" lon="-8.01176646336509"><ele>466.3333333333333</ele><time>2026-04-24T07:55:13.999Z</time></trkpt><trkpt lat="31.616358868439285" lon="-8.011598254699916"><ele>467.0</ele><time>2026-04-24T07:55:14.999Z</time></trkpt><trkpt lat="31.61642434229651" lon="-8.011436082247723"><ele>467.0</ele><time>2026-04-24T07:55:15.999Z</time></trkpt><trkpt lat="31.61648800245382" lon="-8.011279216026606"><ele>467.0</ele><time>2026-04-24T07:55:16.999Z</time></trkpt><trkpt lat="31.61655146791145" lon="-8.011125493387425"><ele>467.0</ele><time>2026-04-24T07:55:17.999Z</time></trkpt><trkpt lat="31.616611892778927" lon="-8.01097925077934"><ele>467.0</ele><time>2026-04-24T07:55:18.999Z</time></trkpt><trkpt lat="31.616669180962273" lon="-8.010840601991104"><ele>466.6</ele><time>2026-04-24T07:55:19.999Z</time></trkpt><trkpt lat="31.61672184512921" lon="-8.010713083066902"><ele>466.20000000000005</ele><time>2026-04-24T07:55:20.999Z</time></trkpt><trkpt lat="31.616769320127194" lon="-8.010595045510005"><ele>465.8</ele><time>2026-04-24T07:55:21.999Z</time></trkpt><trkpt lat="31.61680886413334" lon="-8.01049027349952"><ele>465.4</ele><time>2026-04-24T07:55:22.999Z</time></trkpt><trkpt lat="31.616844814480928" lon="-8.01038991099203"><ele>465.0</ele><time>2026-04-24T07:55:23.999Z</time></trkpt><trkpt lat="31.616881954354387" lon="-8.010294256985075"><ele>465.0</ele><time>2026-04-24T07:55:24.999Z</time></trkpt><trkpt lat="31.6169207195586" lon="-8.010200517793734"><ele>465.0</ele><time>2026-04-24T07:55:25.999Z</time></trkpt><trkpt lat="31.616963616298484" lon="-8.01010082305646"><ele>465.0</ele><time>2026-04-24T07:55:26.999Z</time></trkpt><trkpt lat="31.617007239402515" lon="-8.009996849821405"><ele>465.0</ele><time>2026-04-24T07:55:27.999Z</time></trkpt><trkpt lat="31.617051328362734" lon="-8.009892717403256"><ele>465.0</ele><time>2026-04-24T07:55:28.999Z</time></trkpt><trkpt lat="31.61709459063432" lon="-8.009788674737354"><ele>465.8</ele><time>2026-04-24T07:55:29.999Z</time></trkpt><trkpt lat="31.617138011381627" lon="-8.009687985256727"><ele>466.6</ele><time>2026-04-24T07:55:30.999Z</time></trkpt><trkpt lat="31.61718024875577" lon="-8.009588953021671"><ele>467.4</ele><time>2026-04-24T07:55:31.999Z</time></trkpt><trkpt lat="31.617221921079878" lon="-8.009493143055016"><ele>468.2</ele><time>2026-04-24T07:55:32.999Z</time></trkpt><trkpt lat="31.61726116707597" lon="-8.009400069427864"><ele>469.0</ele><time>2026-04-24T07:55:33.999Z</time></trkpt><trkpt lat="31.617299827698872" lon="-8.009307987584092"><ele>469.00000000000006</ele><time>2026-04-24T07:55:34.999Z</time></trkpt><trkpt lat="31.61733658080647" lon="-8.009216646225127"><ele>469.0</ele><time>2026-04-24T07:55:35.999Z</time></trkpt><trkpt lat="31.617372918930823" lon="-8.009129990741725"><ele>469.0</ele><time>2026-04-24T07:55:36.999Z</time></trkpt><trkpt lat="31.61740834004191" lon="-8.00904897084819"><ele>469.0</ele><time>2026-04-24T07:55:37.999Z</time></trkpt><trkpt lat="31.61743767281327" lon="-8.008976248987256"><ele>469.00000000000006</ele><time>2026-04-24T07:55:38.999Z</time></trkpt><trkpt lat="31.617487360372163" lon="-8.008857894253593"><ele>469.0</ele><time>2026-04-24T07:55:41Z</time></trkpt><trkpt lat="31.617529892869488" lon="-8.008760203352926"><ele>468.6666666666667</ele><time>2026-04-24T07:55:43Z</time></trkpt><trkpt lat="31.61755974867614" lon="-8.008686560062332"><ele>468.33333333333337</ele><time>2026-04-24T07:55:45Z</time></trkpt><trkpt lat="31.61760668290405" lon="-8.008593252322909"><ele>468.0</ele><time>2026-04-24T07:56:41Z</time></trkpt><trkpt lat="31.617644882326964" lon="-8.008474116690458"><ele>467.66666666666663</ele><time>2026-04-24T07:56:43Z</time></trkpt><trkpt lat="31.61766410620664" lon="-8.008391355299397"><ele>467.3333333333333</ele><time>2026-04-24T07:56:44Z</time></trkpt><trkpt lat="31.61768954057787" lon="-8.00830557009583"><ele>467.0</ele><time>2026-04-24T07:56:45Z</time></trkpt><trkpt lat="31.617724717939797" lon="-8.008207374193239"><ele>466.6</ele><time>2026-04-24T07:56:46Z</time></trkpt><trkpt lat="31.617765536138364" lon="-8.008108228500056"><ele>466.20000000000005</ele><time>2026-04-24T07:56:47Z</time></trkpt><trkpt lat="31.617809279858054" lon="-8.00800879461741"><ele>465.8</ele><time>2026-04-24T07:56:48Z</time></trkpt><trkpt lat="31.617860716875356" lon="-8.007902396120185"><ele>465.4</ele><time>2026-04-24T07:56:49Z</time></trkpt><trkpt lat="31.61791868317807" lon="-8.007793090658703"><ele>465.0</ele><time>2026-04-24T07:56:50Z</time></trkpt><trkpt lat="31.6179797900888" lon="-8.007682273163473"><ele>465.0</ele><time>2026-04-24T07:56:51Z</time></trkpt><trkpt lat="31.618036566106564" lon="-8.007564315361455"><ele>465.0</ele><time>2026-04-24T07:56:52Z</time></trkpt><trkpt lat="31.618090705257853" lon="-8.007434792141954"><ele>465.0</ele><time>2026-04-24T07:56:53Z</time></trkpt><trkpt lat="31.61814470338104" lon="-8.007299944972237"><ele>465.0</ele><time>2026-04-24T07:56:54Z</time></trkpt><trkpt lat="31.6182036455428" lon="-8.007158450154215"><ele>465.25</ele><time>2026-04-24T07:56:55Z</time></trkpt><trkpt lat="31.618263867365314" lon="-8.007012550902864"><ele>465.5</ele><time>2026-04-24T07:56:56Z</time></trkpt><trkpt lat="31.618322706828653" lon="-8.00686984021196"><ele>465.75</ele><time>2026-04-24T07:56:57Z</time></trkpt><trkpt lat="31.618385496380085" lon="-8.00672261750293"><ele>466.0</ele><time>2026-04-24T07:56:58Z</time></trkpt><trkpt lat="31.618449522636823" lon="-8.006571604935615"><ele>466.0</ele><time>2026-04-24T07:56:59Z</time></trkpt><trkpt lat="31.618510847841705" lon="-8.006427788133024"><ele>466.0</ele><time>2026-04-24T07:57:00Z</time></trkpt><trkpt lat="31.61856500749637" lon="-8.006293297443618"><ele>466.0</ele><time>2026-04-24T07:57:01Z</time></trkpt><trkpt lat="31.618625036235073" lon="-8.006147396618937"><ele>466.0</ele><time>2026-04-24T07:57:02Z</time></trkpt><trkpt lat="31.618688974717447" lon="-8.006000795540961"><ele>466.0</ele><time>2026-04-24T07:57:03Z</time></trkpt><trkpt lat="31.618753785635043" lon="-8.005849165240969"><ele>466.0</ele><time>2026-04-24T07:57:04Z</time></trkpt><trkpt lat="31.61881966248018" lon="-8.005696886265197"><ele>466.0</ele><time>2026-04-24T07:57:05Z</time></trkpt><trkpt lat="31.618886216137046" lon="-8.005543752640621"><ele>466.0</ele><time>2026-04-24T07:57:06Z</time></trkpt><trkpt lat="31.61895575910636" lon="-8.005390726107638"><ele>466.33333333333337</ele><time>2026-04-24T07:57:07Z</time></trkpt><trkpt lat="31.61902751001698" lon="-8.005234446200802"><ele>466.66666666666663</ele><time>2026-04-24T07:57:07.999Z</time></trkpt><trkpt lat="31.619098903737058" lon="-8.005073697431406"><ele>467.0</ele><time>2026-04-24T07:57:08.999Z</time></trkpt><trkpt lat="31.6191672637258" lon="-8.004909991524036"><ele>467.3333333333333</ele><time>2026-04-24T07:57:09.999Z</time></trkpt><trkpt lat="31.619237767349034" lon="-8.00474277765001"><ele>467.66666666666663</ele><time>2026-04-24T07:57:10.999Z</time></trkpt><trkpt lat="31.619309714655685" lon="-8.004572461691522"><ele>468.0</ele><time>2026-04-24T07:57:11.999Z</time></trkpt><trkpt lat="31.61938355889936" lon="-8.004397364218022"><ele>468.0</ele><time>2026-04-24T07:57:12.999Z</time></trkpt><trkpt lat="31.61945872365152" lon="-8.004223689802268"><ele>468.0</ele><time>2026-04-24T07:57:13.999Z</time></trkpt><trkpt lat="31.619534563430065" lon="-8.004047573993994"><ele>468.0</ele><time>2026-04-24T07:57:14.999Z</time></trkpt><trkpt lat="31.619609591511143" lon="-8.003871519053188"><ele>467.66666666666663</ele><time>2026-04-24T07:57:15.999Z</time></trkpt><trkpt lat="31.619682489951504" lon="-8.003694891403438"><ele>467.3333333333333</ele><time>2026-04-24T07:57:16.999Z</time></trkpt><trkpt lat="31.619755324766295" lon="-8.003517055224894"><ele>467.0</ele><time>2026-04-24T07:57:17.999Z</time></trkpt><trkpt lat="31.619829931418927" lon="-8.0033377262821"><ele>467.0</ele><time>2026-04-24T07:57:18.999Z</time></trkpt><trkpt lat="31.619904830577447" lon="-8.003161380728269"><ele>467.0</ele><time>2026-04-24T07:57:19.999Z</time></trkpt><trkpt lat="31.619977431553764" lon="-8.002985130861031"><ele>467.0</ele><time>2026-04-24T07:57:20.999Z</time></trkpt><trkpt lat="31.62005076137974" lon="-8.002809619508914"><ele>467.0</ele><time>2026-04-24T07:57:21.999Z</time></trkpt><trkpt lat="31.620122982250198" lon="-8.002635918167456"><ele>467.0</ele><time>2026-04-24T07:57:22.999Z</time></trkpt><trkpt lat="31.620194732957035" lon="-8.002462389371733"><ele>467.0</ele><time>2026-04-24T07:57:23.999Z</time></trkpt><trkpt lat="31.620266985104458" lon="-8.002292506744816"><ele>466.66666666666663</ele><time>2026-04-24T07:57:24.999Z</time></trkpt><trkpt lat="31.62033774206585" lon="-8.00212457797462"><ele>466.33333333333337</ele><time>2026-04-24T07:57:25.999Z</time></trkpt><trkpt lat="31.620409678271194" lon="-8.001955392956317"><ele>466.0</ele><time>2026-04-24T07:57:26.999Z</time></trkpt><trkpt lat="31.620483011281205" lon="-8.001786639122342"><ele>466.33333333333337</ele><time>2026-04-24T07:57:27.999Z</time></trkpt><trkpt lat="31.620553890493763" lon="-8.001617012368069"><ele>466.66666666666663</ele><time>2026-04-24T07:57:28.999Z</time></trkpt><trkpt lat="31.62062227899889" lon="-8.001448032600232"><ele>467.0</ele><time>2026-04-24T07:57:29.999Z</time></trkpt><trkpt lat="31.620692443860577" lon="-8.001280839177065"><ele>467.0</ele><time>2026-04-24T07:57:30.999Z</time></trkpt><trkpt lat="31.62076290960681" lon="-8.001113865087428"><ele>467.0</ele><time>2026-04-24T07:57:31.999Z</time></trkpt><trkpt lat="31.62083158818861" lon="-8.000949977455786"><ele>467.0</ele><time>2026-04-24T07:57:32.999Z</time></trkpt><trkpt lat="31.62089903353668" lon="-8.00078987004622"><ele>466.75</ele><time>2026-04-24T07:57:33.999Z</time></trkpt><trkpt lat="31.620961270178388" lon="-8.000640806964354"><ele>466.5</ele><time>2026-04-24T07:57:34.999Z</time></trkpt><trkpt lat="31.621019462417667" lon="-8.000501557488372"><ele>466.25</ele><time>2026-04-24T07:57:35.999Z</time></trkpt><trkpt lat="31.621070838863453" lon="-8.000379665935375"><ele>466.0</ele><time>2026-04-24T07:57:36.999Z</time></trkpt><trkpt lat="31.621116767995197" lon="-8.000269890677167"><ele>466.1666666666667</ele><time>2026-04-24T07:57:37.999Z</time></trkpt><trkpt lat="31.62115762129128" lon="-8.00017316572303"><ele>466.33333333333337</ele><time>2026-04-24T07:57:38.999Z</time></trkpt><trkpt lat="31.62119399235255" lon="-8.000089373327695"><ele>466.5</ele><time>2026-04-24T07:57:39.999Z</time></trkpt><trkpt lat="31.62122493909908" lon="-8.000015502510083"><ele>466.66666666666663</ele><time>2026-04-24T07:57:40.999Z</time></trkpt><trkpt lat="31.621249598079544" lon="-7.999942531147818"><ele>466.8333333333333</ele><time>2026-04-24T07:57:41.999Z</time></trkpt><trkpt lat="31.621285829239117" lon="-7.9998191336304805"><ele>467.0</ele><time>2026-04-24T07:57:43.999Z</time></trkpt><trkpt lat="31.621310484249815" lon="-7.9997375379307"><ele>466.99999999999994</ele><time>2026-04-24T07:57:45.999Z</time></trkpt><trkpt lat="31.621340705330752" lon="-7.999666624196543"><ele>467.0</ele><time>2026-04-24T07:58:39Z</time></trkpt><trkpt lat="31.621374123601647" lon="-7.99954758158859"><ele>467.0</ele><time>2026-04-24T07:58:42Z</time></trkpt><trkpt lat="31.621451040696787" lon="-7.999489718176279"><ele>467.0</ele><time>2026-04-24T07:58:43Z</time></trkpt><trkpt lat="31.621464557800884" lon="-7.999406385464955"><ele>466.99999999999994</ele><time>2026-04-24T07:58:44Z</time></trkpt><trkpt lat="31.621478821862297" lon="-7.999318447758116"><ele>467.0</ele><time>2026-04-24T07:58:45Z</time></trkpt><trkpt lat="31.621493278633213" lon="-7.999229322010006"><ele>466.6</ele><time>2026-04-24T07:58:46Z</time></trkpt><trkpt lat="31.62150641208489" lon="-7.999148354411445"><ele>466.20000000000005</ele><time>2026-04-24T07:58:47Z</time></trkpt><trkpt lat="31.62150788371185" lon="-7.999016271523151"><ele>465.8</ele><time>2026-04-24T07:58:49Z</time></trkpt><trkpt lat="31.621602363195272" lon="-7.998959792574757"><ele>465.4</ele><time>2026-04-24T07:58:51Z</time></trkpt><trkpt lat="31.62168156344038" lon="-7.998862674305149"><ele>465.0</ele><time>2026-04-24T07:58:53Z</time></trkpt><trkpt lat="31.62174338520154" lon="-7.99877335721961"><ele>465.0</ele><time>2026-04-24T07:58:55Z</time></trkpt><trkpt lat="31.621789525285237" lon="-7.99867151451467"><ele>465.0</ele><time>2026-04-24T07:58:57Z</time></trkpt><trkpt lat="31.621828589641883" lon="-7.998551410089952"><ele>465.0</ele><time>2026-04-24T07:58:59Z</time></trkpt><trkpt lat="31.621872103824174" lon="-7.998422462164964"><ele>465.0</ele><time>2026-04-24T07:59:01Z</time></trkpt><trkpt lat="31.621911031443126" lon="-7.99829084575174"><ele>465.0</ele><time>2026-04-24T07:59:03Z</time></trkpt><trkpt lat="31.621954796422187" lon="-7.99815640184409"><ele>465.5</ele><time>2026-04-24T07:59:05Z</time></trkpt><trkpt lat="31.62200078679894" lon="-7.99801701073959"><ele>466.0</ele><time>2026-04-24T07:59:07Z</time></trkpt><trkpt lat="31.622024125548535" lon="-7.99794828886422"><ele>466.5</ele><time>2026-04-24T07:59:08Z</time></trkpt><trkpt lat="31.622041713701297" lon="-7.997875254968516"><ele>467.0</ele><time>2026-04-24T07:59:09Z</time></trkpt><trkpt lat="31.622053472208933" lon="-7.997795683152045"><ele>467.5</ele><time>2026-04-24T07:59:10Z</time></trkpt><trkpt lat="31.622063607637713" lon="-7.997708799305627"><ele>468.0</ele><time>2026-04-24T07:59:11Z</time></trkpt><trkpt lat="31.622070278584335" lon="-7.99761694545174"><ele>468.0</ele><time>2026-04-24T07:59:12Z</time></trkpt><trkpt lat="31.622072126001935" lon="-7.9975187342644265"><ele>468.0</ele><time>2026-04-24T07:59:13Z</time></trkpt><trkpt lat="31.622071614411617" lon="-7.997420473155921"><ele>468.0</ele><time>2026-04-24T07:59:14Z</time></trkpt><trkpt lat="31.622072380274965" lon="-7.997320857841467"><ele>468.0</ele><time>2026-04-24T07:59:15Z</time></trkpt><trkpt lat="31.622075376136515" lon="-7.99723040564462"><ele>468.0</ele><time>2026-04-24T07:59:16Z</time></trkpt><trkpt lat="31.622072493230824" lon="-7.997151838998452"><ele>468.0</ele><time>2026-04-24T07:59:17Z</time></trkpt><trkpt lat="31.622076326685185" lon="-7.997062835091911"><ele>467.8571428571429</ele><time>2026-04-24T07:59:18Z</time></trkpt><trkpt lat="31.62208077722894" lon="-7.996976771315189"><ele>467.7142857142858</ele><time>2026-04-24T07:59:19Z</time></trkpt><trkpt lat="31.622085961595225" lon="-7.996896984239373"><ele>467.57142857142856</ele><time>2026-04-24T07:59:20Z</time></trkpt><trkpt lat="31.622091400899073" lon="-7.9968170549453195"><ele>467.42857142857144</ele><time>2026-04-24T07:59:21Z</time></trkpt><trkpt lat="31.622091654201128" lon="-7.996732583589711"><ele>467.2857142857143</ele><time>2026-04-24T07:59:22Z</time></trkpt><trkpt lat="31.62208928401882" lon="-7.996644438035639"><ele>467.1428571428571</ele><time>2026-04-24T07:59:23Z</time></trkpt><trkpt lat="31.62208323886749" lon="-7.996547317252476"><ele>466.99999999999994</ele><time>2026-04-24T07:59:24Z</time></trkpt><trkpt lat="31.62207592521932" lon="-7.99644816290153"><ele>466.99999999999994</ele><time>2026-04-24T07:59:25Z</time></trkpt><trkpt lat="31.622070691167593" lon="-7.996349125508332"><ele>467.0</ele><time>2026-04-24T07:59:26Z</time></trkpt><trkpt lat="31.62207095614818" lon="-7.996254270270306"><ele>467.0</ele><time>2026-04-24T07:59:26.999Z</time></trkpt><trkpt lat="31.6220740469637" lon="-7.996164489957164"><ele>467.0</ele><time>2026-04-24T07:59:27.999Z</time></trkpt><trkpt lat="31.62207482030846" lon="-7.996070812235845"><ele>466.99999999999994</ele><time>2026-04-24T07:59:28.999Z</time></trkpt><trkpt lat="31.622075564039978" lon="-7.995978988436253"><ele>467.0</ele><time>2026-04-24T07:59:29.999Z</time></trkpt><trkpt lat="31.622075368286378" lon="-7.995883478956868"><ele>466.8333333333333</ele><time>2026-04-24T07:59:30.999Z</time></trkpt><trkpt lat="31.622075189095536" lon="-7.995788965854387"><ele>466.66666666666663</ele><time>2026-04-24T07:59:31.999Z</time></trkpt><trkpt lat="31.622075651794944" lon="-7.995684389445572"><ele>466.5</ele><time>2026-04-24T07:59:32.999Z</time></trkpt><trkpt lat="31.62207810119844" lon="-7.995580056569812"><ele>466.33333333333337</ele><time>2026-04-24T07:59:33.999Z</time></trkpt><trkpt lat="31.622081285798576" lon="-7.995474010487548"><ele>466.1666666666667</ele><time>2026-04-24T07:59:34.999Z</time></trkpt><trkpt lat="31.622083398319663" lon="-7.995377848074264"><ele>466.0</ele><time>2026-04-24T07:59:35.999Z</time></trkpt><trkpt lat="31.622085254049487" lon="-7.995291177757098"><ele>466.00000000000006</ele><time>2026-04-24T07:59:36.999Z</time></trkpt><trkpt lat="31.62208596891772" lon="-7.995210057539566"><ele>466.0</ele><time>2026-04-24T07:59:37.999Z</time></trkpt><trkpt lat="31.622086132417415" lon="-7.995126403670046"><ele>466.0</ele><time>2026-04-24T07:59:38.999Z</time></trkpt><trkpt lat="31.622084974984574" lon="-7.9950505542089285"><ele>466.0</ele><time>2026-04-24T07:59:39.999Z</time></trkpt><trkpt lat="31.622089386390343" lon="-7.994910330381115"><ele>466.00000000000006</ele><time>2026-04-24T07:59:41.999Z</time></trkpt><trkpt lat="31.622094583878578" lon="-7.994776044044962"><ele>466.0</ele><time>2026-04-24T07:59:43.999Z</time></trkpt><trkpt lat="31.622093751567263" lon="-7.9946633097723705"><ele>466.0</ele><time>2026-04-24T07:59:45.999Z</time></trkpt><trkpt lat="31.622094887313672" lon="-7.99455336079988"><ele>466.0</ele><time>2026-04-24T07:59:47.999Z</time></trkpt><trkpt lat="31.622095572124806" lon="-7.994473030945587"><ele>466.0</ele><time>2026-04-24T07:59:49.999Z</time></trkpt><trkpt lat="31.622095746177454" lon="-7.994372983881983"><ele>466.0</ele><time>2026-04-24T07:59:51.999Z</time></trkpt><trkpt lat="31.62209716330761" lon="-7.99424236006418"><ele>466.0</ele><time>2026-04-24T07:59:54Z</time></trkpt><trkpt lat="31.62209484628736" lon="-7.994112120165906"><ele>466.1666666666667</ele><time>2026-04-24T07:59:56Z</time></trkpt><trkpt lat="31.6220979053943" lon="-7.9939875551455035"><ele>466.33333333333337</ele><time>2026-04-24T07:59:58Z</time></trkpt><trkpt lat="31.622093754173264" lon="-7.993878557384933"><ele>466.5</ele><time>2026-04-24T08:00:00Z</time></trkpt><trkpt lat="31.62209289221733" lon="-7.993786347587933"><ele>466.66666666666663</ele><time>2026-04-24T08:00:02Z</time></trkpt><trkpt lat="31.62208961759612" lon="-7.9937110091324595"><ele>466.8333333333333</ele><time>2026-04-24T08:00:04Z</time></trkpt><trkpt lat="31.622075472005545" lon="-7.9936240289156855"><ele>467.0</ele><time>2026-04-24T08:00:06Z</time></trkpt><trkpt lat="31.62207390296698" lon="-7.993512423029827"><ele>466.99999999999994</ele><time>2026-04-24T08:00:08Z</time></trkpt><trkpt lat="31.622083439653924" lon="-7.993421910022963"><ele>467.0</ele><time>2026-04-24T08:00:10Z</time></trkpt><trkpt lat="31.622093319431904" lon="-7.993344880825692"><ele>466.99999999999994</ele><time>2026-04-24T08:00:20Z</time></trkpt><trkpt lat="31.62210502111975" lon="-7.993267095309391"><ele>466.99999999999994</ele><time>2026-04-24T08:00:26Z</time></trkpt><trkpt lat="31.622102914038773" lon="-7.993176155326419"><ele>467.0</ele><time>2026-04-24T08:00:28Z</time></trkpt><trkpt lat="31.62209023749625" lon="-7.9931016812141475"><ele>466.99999999999994</ele><time>2026-04-24T08:00:29Z</time></trkpt><trkpt lat="31.62207613738043" lon="-7.99301728333468"><ele>466.99999999999994</ele><time>2026-04-24T08:00:30Z</time></trkpt><trkpt lat="31.622073708808387" lon="-7.9929261932034885"><ele>466.99999999999994</ele><time>2026-04-24T08:00:31Z</time></trkpt><trkpt lat="31.622077638506184" lon="-7.992832636917354"><ele>467.0</ele><time>2026-04-24T08:00:32Z</time></trkpt><trkpt lat="31.622084919465987" lon="-7.9927475627615285"><ele>467.0</ele><time>2026-04-24T08:00:33Z</time></trkpt><trkpt lat="31.62209630839474" lon="-7.992626205804585"><ele>467.0</ele><time>2026-04-24T08:00:35Z</time></trkpt><trkpt lat="31.622101295313826" lon="-7.992534398928145"><ele>466.99999999999994</ele><time>2026-04-24T08:00:37Z</time></trkpt><trkpt lat="31.622103157869542" lon="-7.992459749333113"><ele>467.0</ele><time>2026-04-24T08:00:40Z</time></trkpt><trkpt lat="31.622123446069725" lon="-7.992375628914918"><ele>467.1428571428571</ele><time>2026-04-24T08:01:07Z</time></trkpt><trkpt lat="31.62213340975827" lon="-7.992289640813338"><ele>467.2857142857143</ele><time>2026-04-24T08:01:11Z</time></trkpt><trkpt lat="31.622145635651066" lon="-7.99221465465768"><ele>467.42857142857144</ele><time>2026-04-24T08:01:18Z</time></trkpt><trkpt lat="31.622155185796295" lon="-7.992134461028809"><ele>467.57142857142856</ele><time>2026-04-24T08:01:35Z</time></trkpt><trkpt lat="31.622161594515585" lon="-7.992046579631368"><ele>467.7142857142858</ele><time>2026-04-24T08:02:17Z</time></trkpt><trkpt lat="31.622175244358623" lon="-7.991969618582524"><ele>467.8571428571429</ele><time>2026-04-24T08:02:25Z</time></trkpt><trkpt lat="31.622196857672197" lon="-7.991883183935865"><ele>468.0</ele><time>2026-04-24T08:02:46Z</time></trkpt><trkpt lat="31.622236199982304" lon="-7.991765170021368"><ele>468.0</ele><time>2026-04-24T08:02:50Z</time></trkpt><trkpt lat="31.622237303157956" lon="-7.991676378127593"><ele>468.00000000000006</ele><time>2026-04-24T08:02:54Z</time></trkpt><trkpt lat="31.62225799748754" lon="-7.991604975231245"><ele>468.0</ele><time>2026-04-24T08:02:59Z</time></trkpt><trkpt lat="31.62228075453605" lon="-7.9915342831213385"><ele>468.0</ele><time>2026-04-24T08:03:08Z</time></trkpt><trkpt lat="31.62230861285838" lon="-7.991463359467474"><ele>468.00000000000006</ele><time>2026-04-24T08:03:14Z</time></trkpt><trkpt lat="31.622335849956" lon="-7.991384823454745"><ele>468.0</ele><time>2026-04-24T08:03:19Z</time></trkpt><trkpt lat="31.622361006085267" lon="-7.991301595809632"><ele>468.0</ele><time>2026-04-24T08:03:23Z</time></trkpt><trkpt lat="31.622371234939752" lon="-7.991197281810019"><ele>468.0</ele><time>2026-04-24T08:03:26Z</time></trkpt><trkpt lat="31.622381158824325" lon="-7.991119732152754"><ele>468.0</ele><time>2026-04-24T08:03:28Z</time></trkpt><trkpt lat="31.62237741299199" lon="-7.991037999340085"><ele>468.0</ele><time>2026-04-24T08:03:30Z</time></trkpt><trkpt lat="31.622378796205634" lon="-7.990913504359396"><ele>468.0</ele><time>2026-04-24T08:03:32Z</time></trkpt><trkpt lat="31.62240838222132" lon="-7.9907900712783"><ele>468.0</ele><time>2026-04-24T08:03:34Z</time></trkpt><trkpt lat="31.622409323911874" lon="-7.990681027358873"><ele>468.0</ele><time>2026-04-24T08:03:36Z</time></trkpt><trkpt lat="31.622408018167146" lon="-7.990585703051478"><ele>468.1666666666667</ele><time>2026-04-24T08:03:38Z</time></trkpt><trkpt lat="31.622405000265434" lon="-7.990495598678995"><ele>468.33333333333337</ele><time>2026-04-24T08:03:40Z</time></trkpt><trkpt lat="31.62240153811874" lon="-7.990401456394843"><ele>468.5</ele><time>2026-04-24T08:03:43Z</time></trkpt><trkpt lat="31.622395582045083" lon="-7.990324439175191"><ele>468.6666666666667</ele><time>2026-04-24T08:03:45.999Z</time></trkpt><trkpt lat="31.62239051485946" lon="-7.990234549660278"><ele>468.83333333333337</ele><time>2026-04-24T08:03:48.999Z</time></trkpt><trkpt lat="31.622392634307246" lon="-7.990136857300445"><ele>469.0</ele><time>2026-04-24T08:03:50.999Z</time></trkpt><trkpt lat="31.622424612676195" lon="-7.990061773663402"><ele>469.00000000000006</ele><time>2026-04-24T08:03:52.999Z</time></trkpt><trkpt lat="31.622499626002867" lon="-7.990005394124373"><ele>469.0</ele><time>2026-04-24T08:03:54.999Z</time></trkpt><trkpt lat="31.622581391371295" lon="-7.989975057766898"><ele>469.0</ele><time>2026-04-24T08:03:56.999Z</time></trkpt><trkpt lat="31.622653149233376" lon="-7.989961727262681"><ele>469.0</ele><time>2026-04-24T08:04:01.999Z</time></trkpt><trkpt lat="31.62271665419699" lon="-7.989971761293122"><ele>469.00000000000006</ele><time>2026-04-24T08:04:06Z</time></trkpt><trkpt lat="31.62280428487146" lon="-7.990019048348766"><ele>469.0</ele><time>2026-04-24T08:04:08Z</time></trkpt><trkpt lat="31.62286353779024" lon="-7.990052270856578"><ele>468.8571428571429</ele><time>2026-04-24T08:04:09Z</time></trkpt><trkpt lat="31.62292311203382" lon="-7.990086817470705"><ele>468.7142857142857</ele><time>2026-04-24T08:04:10Z</time></trkpt><trkpt lat="31.622988034871277" lon="-7.990127473323199"><ele>468.57142857142856</ele><time>2026-04-24T08:04:11Z</time></trkpt><trkpt lat="31.623056710411394" lon="-7.990172943567292"><ele>468.42857142857144</ele><time>2026-04-24T08:04:12Z</time></trkpt><trkpt lat="31.62312636962983" lon="-7.990217682183963"><ele>468.28571428571433</ele><time>2026-04-24T08:04:13Z</time></trkpt><trkpt lat="31.623188370449384" lon="-7.990258571670476"><ele>468.14285714285717</ele><time>2026-04-24T08:04:14Z</time></trkpt><trkpt lat="31.623245978955495" lon="-7.990294980507735"><ele>468.0</ele><time>2026-04-24T08:04:15Z</time></trkpt><trkpt lat="31.62334995734718" lon="-7.9903665011828355"><ele>468.0</ele><time>2026-04-24T08:04:17Z</time></trkpt><trkpt lat="31.623447366379445" lon="-7.990432341176117"><ele>467.99999999999994</ele><time>2026-04-24T08:04:19Z</time></trkpt><trkpt lat="31.62353845775155" lon="-7.990489860094733"><ele>467.99999999999994</ele><time>2026-04-24T08:04:21Z</time></trkpt><trkpt lat="31.623626019590333" lon="-7.990546011799168"><ele>468.0</ele><time>2026-04-24T08:04:23Z</time></trkpt><trkpt lat="31.62370066927698" lon="-7.990604647409067"><ele>468.0</ele><time>2026-04-24T08:04:25Z</time></trkpt><trkpt lat="31.623781170885668" lon="-7.99070322212981"><ele>468.0</ele><time>2026-04-24T08:04:27Z</time></trkpt><trkpt lat="31.62383042313194" lon="-7.990769069902429"><ele>468.0</ele><time>2026-04-24T08:04:28Z</time></trkpt><trkpt lat="31.623888878523143" lon="-7.990840143334591"><ele>468.0</ele><time>2026-04-24T08:04:29Z</time></trkpt><trkpt lat="31.623954763119176" lon="-7.990914857439758"><ele>468.0</ele><time>2026-04-24T08:04:30Z</time></trkpt><trkpt lat="31.6240194907357" lon="-7.990991947061921"><ele>468.0</ele><time>2026-04-24T08:04:31Z</time></trkpt><trkpt lat="31.6240836897535" lon="-7.991073745105497"><ele>468.0</ele><time>2026-04-24T08:04:32Z</time></trkpt><trkpt lat="31.624144336151346" lon="-7.991155138111451"><ele>468.0</ele><time>2026-04-24T08:04:33Z</time></trkpt><trkpt lat="31.624198788048922" lon="-7.991232100742289"><ele>468.0</ele><time>2026-04-24T08:04:34Z</time></trkpt><trkpt lat="31.624250582608585" lon="-7.991305465120407"><ele>468.0</ele><time>2026-04-24T08:04:35Z</time></trkpt><trkpt lat="31.624301103358658" lon="-7.99137505803"><ele>468.0</ele><time>2026-04-24T08:04:36Z</time></trkpt><trkpt lat="31.62435115598642" lon="-7.991442229062705"><ele>468.0</ele><time>2026-04-24T08:04:37Z</time></trkpt><trkpt lat="31.62439852722269" lon="-7.99150018460078"><ele>468.0</ele><time>2026-04-24T08:04:38Z</time></trkpt><trkpt lat="31.624454777815405" lon="-7.991608618587681"><ele>468.0</ele><time>2026-04-24T08:04:40Z</time></trkpt><trkpt lat="31.624499650290396" lon="-7.991676879495386"><ele>468.0</ele><time>2026-04-24T08:04:43Z</time></trkpt><trkpt lat="31.624539588095878" lon="-7.991737481702347"><ele>468.0</ele><time>2026-04-24T08:04:52Z</time></trkpt><trkpt lat="31.624567624008968" lon="-7.991810675218805"><ele>468.0</ele><time>2026-04-24T08:05:10Z</time></trkpt><trkpt lat="31.624600787433074" lon="-7.991905033904009"><ele>468.0</ele><time>2026-04-24T08:10:34Z</time></trkpt><trkpt lat="31.62462189890403" lon="-7.992071614114753"><ele>468.0</ele><time>2026-04-24T08:10:36Z</time></trkpt><trkpt lat="31.624700372754788" lon="-7.992160690942953"><ele>468.0</ele><time>2026-04-24T08:10:37Z</time></trkpt><trkpt lat="31.624735813612666" lon="-7.992259875194716"><ele>468.0</ele><time>2026-04-24T08:10:38Z</time></trkpt><trkpt lat="31.624771857738402" lon="-7.992355871214757"><ele>468.0</ele><time>2026-04-24T08:10:39Z</time></trkpt><trkpt lat="31.62480576847319" lon="-7.99244931945547"><ele>468.0</ele><time>2026-04-24T08:10:40Z</time></trkpt><trkpt lat="31.624840514464175" lon="-7.992544083245635"><ele>468.0</ele><time>2026-04-24T08:10:41Z</time></trkpt><trkpt lat="31.624877346250077" lon="-7.992640665216465"><ele>468.0</ele><time>2026-04-24T08:10:42Z</time></trkpt><trkpt lat="31.62491650887703" lon="-7.992736361199949"><ele>468.0</ele><time>2026-04-24T08:10:43Z</time></trkpt><trkpt lat="31.624955745941755" lon="-7.992831659332674"><ele>467.99999999999994</ele><time>2026-04-24T08:10:44Z</time></trkpt><trkpt lat="31.624995489774395" lon="-7.992927067661503"><ele>467.99999999999994</ele><time>2026-04-24T08:10:45Z</time></trkpt><trkpt lat="31.625034635234147" lon="-7.993021126493363"><ele>468.0</ele><time>2026-04-24T08:10:46Z</time></trkpt><trkpt lat="31.625075085787838" lon="-7.99311516611472"><ele>468.0</ele><time>2026-04-24T08:10:47Z</time></trkpt><trkpt lat="31.625118190758226" lon="-7.993208121912936"><ele>468.0</ele><time>2026-04-24T08:10:48Z</time></trkpt><trkpt lat="31.625163285126263" lon="-7.993297841611773"><ele>468.0</ele><time>2026-04-24T08:10:49Z</time></trkpt><trkpt lat="31.625209672676174" lon="-7.993386580704054"><ele>468.0</ele><time>2026-04-24T08:10:50Z</time></trkpt><trkpt lat="31.625256020440478" lon="-7.993475735155201"><ele>468.0</ele><time>2026-04-24T08:10:51Z</time></trkpt><trkpt lat="31.625302175502462" lon="-7.993563986337375"><ele>468.0</ele><time>2026-04-24T08:10:52Z</time></trkpt><trkpt lat="31.625350330085777" lon="-7.993654701426022"><ele>468.0</ele><time>2026-04-24T08:10:53Z</time></trkpt><trkpt lat="31.625401655348934" lon="-7.993744718557126"><ele>467.79999999999995</ele><time>2026-04-24T08:10:54Z</time></trkpt><trkpt lat="31.625454771325945" lon="-7.9938356039627365"><ele>467.59999999999997</ele><time>2026-04-24T08:10:55Z</time></trkpt><trkpt lat="31.625510462683163" lon="-7.993929956716291"><ele>467.40000000000003</ele><time>2026-04-24T08:10:56Z</time></trkpt><trkpt lat="31.625568062049744" lon="-7.994027008749782"><ele>467.20000000000005</ele><time>2026-04-24T08:10:57Z</time></trkpt><trkpt lat="31.625627162460784" lon="-7.994124787859173"><ele>467.0</ele><time>2026-04-24T08:10:58Z</time></trkpt><trkpt lat="31.625687679672644" lon="-7.994218602842654"><ele>466.99999999999994</ele><time>2026-04-24T08:10:59Z</time></trkpt><trkpt lat="31.625747945731625" lon="-7.994308041211427"><ele>467.0</ele><time>2026-04-24T08:11:00Z</time></trkpt><trkpt lat="31.625806468472007" lon="-7.994391149589084"><ele>467.0</ele><time>2026-04-24T08:11:01Z</time></trkpt><trkpt lat="31.625862099070076" lon="-7.994468533533631"><ele>467.0</ele><time>2026-04-24T08:11:02Z</time></trkpt><trkpt lat="31.62591471028305" lon="-7.994540534318465"><ele>466.99999999999994</ele><time>2026-04-24T08:11:03Z</time></trkpt><trkpt lat="31.625960804342142" lon="-7.994603473086209"><ele>467.0</ele><time>2026-04-24T08:11:04Z</time></trkpt><trkpt lat="31.626036860099735" lon="-7.9947057274229385"><ele>466.99999999999994</ele><time>2026-04-24T08:11:06Z</time></trkpt><trkpt lat="31.62610346762517" lon="-7.994794747299065"><ele>467.0</ele><time>2026-04-24T08:11:08Z</time></trkpt><trkpt lat="31.626163937183016" lon="-7.994876612985229"><ele>467.0</ele><time>2026-04-24T08:11:10Z</time></trkpt><trkpt lat="31.626218801135263" lon="-7.994945398532966"><ele>467.0</ele><time>2026-04-24T08:11:12Z</time></trkpt><trkpt lat="31.626261788742255" lon="-7.995005589829208"><ele>466.99999999999994</ele><time>2026-04-24T08:11:14Z</time></trkpt><trkpt lat="31.626323313242292" lon="-7.995102091221767"><ele>467.0</ele><time>2026-04-24T08:11:17Z</time></trkpt><trkpt lat="31.626379671979038" lon="-7.995200066681906"><ele>466.49999999999994</ele><time>2026-04-24T08:11:19Z</time></trkpt><trkpt lat="31.62643962145911" lon="-7.99529688947616"><ele>466.0</ele><time>2026-04-24T08:11:21Z</time></trkpt><trkpt lat="31.626512150193168" lon="-7.995415627806541"><ele>465.5</ele><time>2026-04-24T08:11:23Z</time></trkpt><trkpt lat="31.62655066807586" lon="-7.995482825152198"><ele>465.0</ele><time>2026-04-24T08:11:24Z</time></trkpt><trkpt lat="31.626589168402226" lon="-7.995553058072482"><ele>464.49999999999994</ele><time>2026-04-24T08:11:25Z</time></trkpt><trkpt lat="31.626622370862012" lon="-7.995617682100434"><ele>464.0</ele><time>2026-04-24T08:11:26Z</time></trkpt><trkpt lat="31.626657917044337" lon="-7.995683706243372"><ele>464.0</ele><time>2026-04-24T08:11:27Z</time></trkpt><trkpt lat="31.626693699473368" lon="-7.995752630065087"><ele>464.0</ele><time>2026-04-24T08:11:28Z</time></trkpt><trkpt lat="31.62675617320081" lon="-7.995870193801733"><ele>464.0</ele><time>2026-04-24T08:11:30Z</time></trkpt><trkpt lat="31.6268100819932" lon="-7.995979564113915"><ele>464.0</ele><time>2026-04-24T08:11:32Z</time></trkpt><trkpt lat="31.626854901568503" lon="-7.996069833415725"><ele>464.0</ele><time>2026-04-24T08:11:34Z</time></trkpt><trkpt lat="31.62689428412288" lon="-7.9961514453416225"><ele>463.66666666666663</ele><time>2026-04-24T08:11:36Z</time></trkpt><trkpt lat="31.62693572152434" lon="-7.9962242641177435"><ele>463.3333333333333</ele><time>2026-04-24T08:11:38Z</time></trkpt><trkpt lat="31.626975933235016" lon="-7.996318393601075"><ele>463.0</ele><time>2026-04-24T08:11:40Z</time></trkpt><trkpt lat="31.627016966752922" lon="-7.996421907921892"><ele>462.66666666666663</ele><time>2026-04-24T08:11:41.999Z</time></trkpt><trkpt lat="31.627044213615374" lon="-7.996493281833028"><ele>462.3333333333333</ele><time>2026-04-24T08:11:42.999Z</time></trkpt><trkpt lat="31.62707551596543" lon="-7.996570791440895"><ele>462.0</ele><time>2026-04-24T08:11:43.999Z</time></trkpt><trkpt lat="31.627111395663107" lon="-7.996651724755014"><ele>461.8333333333333</ele><time>2026-04-24T08:11:44.999Z</time></trkpt><trkpt lat="31.627149860261607" lon="-7.996736109117407"><ele>461.66666666666663</ele><time>2026-04-24T08:11:45.999Z</time></trkpt><trkpt lat="31.62718618740452" lon="-7.996821086472755"><ele>461.5</ele><time>2026-04-24T08:11:46.999Z</time></trkpt><trkpt lat="31.627221866588027" lon="-7.9969090517543355"><ele>461.3333333333333</ele><time>2026-04-24T08:11:47.999Z</time></trkpt><trkpt lat="31.627257402161362" lon="-7.996998667171324"><ele>461.16666666666663</ele><time>2026-04-24T08:11:48.999Z</time></trkpt><trkpt lat="31.627294249964873" lon="-7.997095893780677"><ele>461.0</ele><time>2026-04-24T08:11:49.999Z</time></trkpt><trkpt lat="31.627329902667064" lon="-7.997198170828464"><ele>461.0</ele><time>2026-04-24T08:11:50.999Z</time></trkpt><trkpt lat="31.62735935419551" lon="-7.997285608989977"><ele>461.0</ele><time>2026-04-24T08:11:51.999Z</time></trkpt><trkpt lat="31.62738482023344" lon="-7.997361393586194"><ele>461.0</ele><time>2026-04-24T08:11:52.999Z</time></trkpt><trkpt lat="31.62742306242635" lon="-7.997493652292078"><ele>461.0</ele><time>2026-04-24T08:11:54.999Z</time></trkpt><trkpt lat="31.62745094863947" lon="-7.997636922036098"><ele>461.0</ele><time>2026-04-24T08:11:56.999Z</time></trkpt><trkpt lat="31.627478221804175" lon="-7.997782864352649"><ele>460.99999999999994</ele><time>2026-04-24T08:11:58.999Z</time></trkpt><trkpt lat="31.627515445400224" lon="-7.997859234369619"><ele>461.0</ele><time>2026-04-24T08:11:59.999Z</time></trkpt><trkpt lat="31.627540837076594" lon="-7.997950514600342"><ele>461.0</ele><time>2026-04-24T08:12:00.999Z</time></trkpt><trkpt lat="31.62755572941397" lon="-7.998054398017507"><ele>461.0</ele><time>2026-04-24T08:12:01.999Z</time></trkpt><trkpt lat="31.627592958174144" lon="-7.998158691590463"><ele>460.99999999999994</ele><time>2026-04-24T08:12:02.999Z</time></trkpt><trkpt lat="31.627627269302995" lon="-7.998271590589328"><ele>461.0</ele><time>2026-04-24T08:12:03.999Z</time></trkpt><trkpt lat="31.62766082336729" lon="-7.998391399811107"><ele>461.6</ele><time>2026-04-24T08:12:04.999Z</time></trkpt><trkpt lat="31.627694357561076" lon="-7.998513582177887"><ele>462.20000000000005</ele><time>2026-04-24T08:12:05.999Z</time></trkpt><trkpt lat="31.62772564370391" lon="-7.9986381772935635"><ele>462.79999999999995</ele><time>2026-04-24T08:12:06.999Z</time></trkpt><trkpt lat="31.627754872314114" lon="-7.998760965893626"><ele>463.4</ele><time>2026-04-24T08:12:07.999Z</time></trkpt><trkpt lat="31.627782702147424" lon="-7.9988838842879275"><ele>464.0</ele><time>2026-04-24T08:12:08.999Z</time></trkpt><trkpt lat="31.627807945848055" lon="-7.9990052032092365"><ele>463.6</ele><time>2026-04-24T08:12:09.999Z</time></trkpt><trkpt lat="31.627831922247456" lon="-7.999126410169278"><ele>463.2</ele><time>2026-04-24T08:12:10.999Z</time></trkpt><trkpt lat="31.62785565495666" lon="-7.999246624348212"><ele>462.80000000000007</ele><time>2026-04-24T08:12:11.999Z</time></trkpt><trkpt lat="31.627879249955278" lon="-7.999364780075929"><ele>462.40000000000003</ele><time>2026-04-24T08:12:12.999Z</time></trkpt><trkpt lat="31.627903484363372" lon="-7.999479175330706"><ele>462.0</ele><time>2026-04-24T08:12:13.999Z</time></trkpt><trkpt lat="31.627925551800544" lon="-7.999592362879084"><ele>461.8</ele><time>2026-04-24T08:12:14.999Z</time></trkpt><trkpt lat="31.627953030001805" lon="-7.999699777787457"><ele>461.6</ele><time>2026-04-24T08:12:15.999Z</time></trkpt><trkpt lat="31.627980045624366" lon="-7.999807056331547"><ele>461.40000000000003</ele><time>2026-04-24T08:12:16.999Z</time></trkpt><trkpt lat="31.628008580102712" lon="-7.999911161775049"><ele>461.20000000000005</ele><time>2026-04-24T08:12:17.999Z</time></trkpt><trkpt lat="31.628040387474364" lon="-8.000010259955909"><ele>461.0</ele><time>2026-04-24T08:12:18.999Z</time></trkpt><trkpt lat="31.62807242268677" lon="-8.000104267476681"><ele>460.99999999999994</ele><time>2026-04-24T08:12:19.999Z</time></trkpt><trkpt lat="31.628105637263186" lon="-8.000188142496498"><ele>461.0</ele><time>2026-04-24T08:12:20.999Z</time></trkpt><trkpt lat="31.62813343239076" lon="-8.00025878153525"><ele>461.0</ele><time>2026-04-24T08:12:21.999Z</time></trkpt><trkpt lat="31.628178311918678" lon="-8.000367670281188"><ele>461.0</ele><time>2026-04-24T08:12:23.999Z</time></trkpt><trkpt lat="31.628217553029703" lon="-8.000463324911102"><ele>460.99999999999994</ele><time>2026-04-24T08:12:25.999Z</time></trkpt><trkpt lat="31.628252539422572" lon="-8.0005493830075"><ele>461.0</ele><time>2026-04-24T08:12:28Z</time></trkpt><trkpt lat="31.628288884510905" lon="-8.000633289741701"><ele>460.99999999999994</ele><time>2026-04-24T08:12:30Z</time></trkpt><trkpt lat="31.628342313351773" lon="-8.00070010353647"><ele>461.0</ele><time>2026-04-24T08:12:32Z</time></trkpt><trkpt lat="31.62837580997833" lon="-8.000765198063648"><ele>461.0</ele><time>2026-04-24T08:12:34Z</time></trkpt><trkpt lat="31.62847219426688" lon="-8.000709815043919"><ele>461.0</ele><time>2026-04-24T08:12:35Z</time></trkpt><trkpt lat="31.628561109214626" lon="-8.000617794301961"><ele>460.99999999999994</ele><time>2026-04-24T08:12:37Z</time></trkpt><trkpt lat="31.628602993957177" lon="-8.000540300051336"><ele>461.0</ele><time>2026-04-24T08:12:38Z</time></trkpt><trkpt lat="31.628628517906645" lon="-8.000442269907651"><ele>460.6</ele><time>2026-04-24T08:12:39Z</time></trkpt><trkpt lat="31.628669206592605" lon="-8.00034829558205"><ele>460.20000000000005</ele><time>2026-04-24T08:12:40Z</time></trkpt><trkpt lat="31.628727094210767" lon="-8.000254877343322"><ele>459.79999999999995</ele><time>2026-04-24T08:12:41Z</time></trkpt><trkpt lat="31.62875916467509" lon="-8.000140528966325"><ele>459.4</ele><time>2026-04-24T08:12:42Z</time></trkpt><trkpt lat="31.62880490922764" lon="-8.000034877637976"><ele>459.0</ele><time>2026-04-24T08:12:43Z</time></trkpt><trkpt lat="31.628848892189193" lon="-7.999933084981047"><ele>459.0</ele><time>2026-04-24T08:12:44Z</time></trkpt><trkpt lat="31.62889906690585" lon="-7.999838549007153"><ele>459.0</ele><time>2026-04-24T08:12:45Z</time></trkpt><trkpt lat="31.628961883555604" lon="-7.999759527810891"><ele>459.0</ele><time>2026-04-24T08:12:46Z</time></trkpt><trkpt lat="31.62903571138829" lon="-7.999700063661913"><ele>459.0</ele><time>2026-04-24T08:12:47Z</time></trkpt><trkpt lat="31.62911176351643" lon="-7.999656585182678"><ele>459.0</ele><time>2026-04-24T08:12:48Z</time></trkpt><trkpt lat="31.629188452262227" lon="-7.999621804621545"><ele>459.0</ele><time>2026-04-24T08:12:49Z</time></trkpt><trkpt lat="31.629268188581932" lon="-7.999598906524945"><ele>459.0</ele><time>2026-04-24T08:12:50Z</time></trkpt><trkpt lat="31.629351270766175" lon="-7.999590001272983"><ele>459.0</ele><time>2026-04-24T08:12:51Z</time></trkpt><trkpt lat="31.629434091230916" lon="-7.999597531348576"><ele>459.0</ele><time>2026-04-24T08:12:52Z</time></trkpt><trkpt lat="31.629524747768013" lon="-7.999636563035642"><ele>459.0</ele><time>2026-04-24T08:12:53Z</time></trkpt><trkpt lat="31.62961282256168" lon="-7.99968923746881"><ele>459.0</ele><time>2026-04-24T08:12:54Z</time></trkpt><trkpt lat="31.629706907168437" lon="-7.999763441667535"><ele>459.25</ele><time>2026-04-24T08:12:55Z</time></trkpt><trkpt lat="31.629804992868674" lon="-7.999848238048353"><ele>459.5</ele><time>2026-04-24T08:12:56Z</time></trkpt><trkpt lat="31.62990651404474" lon="-7.9999438821407525"><ele>459.75</ele><time>2026-04-24T08:12:57Z</time></trkpt><trkpt lat="31.63000803771075" lon="-8.000039584782131"><ele>460.0</ele><time>2026-04-24T08:12:58Z</time></trkpt><trkpt lat="31.630113801078803" lon="-8.000138992783167"><ele>460.0</ele><time>2026-04-24T08:12:59Z</time></trkpt><trkpt lat="31.630221757805526" lon="-8.000240152009527"><ele>460.0</ele><time>2026-04-24T08:13:00Z</time></trkpt><trkpt lat="31.63032568036646" lon="-8.000337341868155"><ele>460.0</ele><time>2026-04-24T08:13:01Z</time></trkpt><trkpt lat="31.630426683632457" lon="-8.000431864911498"><ele>460.0</ele><time>2026-04-24T08:13:02Z</time></trkpt><trkpt lat="31.630521863709106" lon="-8.000521398711532"><ele>460.2</ele><time>2026-04-24T08:13:03Z</time></trkpt><trkpt lat="31.630601882040878" lon="-8.000616907850212"><ele>460.4</ele><time>2026-04-24T08:13:04Z</time></trkpt><trkpt lat="31.630694283681535" lon="-8.000689603381645"><ele>460.6</ele><time>2026-04-24T08:13:05Z</time></trkpt><trkpt lat="31.630788694644895" lon="-8.000754180616637"><ele>460.8</ele><time>2026-04-24T08:13:06Z</time></trkpt><trkpt lat="31.630878340242315" lon="-8.00080303148793"><ele>461.0</ele><time>2026-04-24T08:13:07Z</time></trkpt><trkpt lat="31.63096992071929" lon="-8.000837752397416"><ele>461.0</ele><time>2026-04-24T08:13:08Z</time></trkpt><trkpt lat="31.63106825627473" lon="-8.000856226782881"><ele>461.0</ele><time>2026-04-24T08:13:09Z</time></trkpt><trkpt lat="31.63116964342595" lon="-8.000853177289903"><ele>461.0</ele><time>2026-04-24T08:13:10Z</time></trkpt><trkpt lat="31.631270674684835" lon="-8.000810736070893"><ele>461.0</ele><time>2026-04-24T08:13:11Z</time></trkpt><trkpt lat="31.631368919301828" lon="-8.000757602557579"><ele>461.0</ele><time>2026-04-24T08:13:12Z</time></trkpt><trkpt lat="31.631472950322166" lon="-8.00069671169514"><ele>461.25</ele><time>2026-04-24T08:13:13Z</time></trkpt><trkpt lat="31.631578317707586" lon="-8.000635038639064"><ele>461.5</ele><time>2026-04-24T08:13:14Z</time></trkpt><trkpt lat="31.631684607544624" lon="-8.000572829580413"><ele>461.75</ele><time>2026-04-24T08:13:15Z</time></trkpt><trkpt lat="31.63179003138676" lon="-8.000511142044795"><ele>462.0</ele><time>2026-04-24T08:13:16Z</time></trkpt><trkpt lat="31.631898816560067" lon="-8.00044748766438"><ele>461.5</ele><time>2026-04-24T08:13:17Z</time></trkpt><trkpt lat="31.63200663798278" lon="-8.000384397208517"><ele>461.0</ele><time>2026-04-24T08:13:18Z</time></trkpt><trkpt lat="31.632111036668302" lon="-8.000314625395028"><ele>460.5</ele><time>2026-04-24T08:13:19Z</time></trkpt><trkpt lat="31.632214960233988" lon="-8.000246080727518"><ele>460.0</ele><time>2026-04-24T08:13:20Z</time></trkpt><trkpt lat="31.632314480538806" lon="-8.000180440310153"><ele>460.0</ele><time>2026-04-24T08:13:21Z</time></trkpt><trkpt lat="31.63241056833373" lon="-8.00011728503856"><ele>460.0</ele><time>2026-04-24T08:13:22Z</time></trkpt><trkpt lat="31.632499833051583" lon="-8.000058646300577"><ele>460.0</ele><time>2026-04-24T08:13:23Z</time></trkpt><trkpt lat="31.632582664212304" lon="-8.000004233819594"><ele>460.0</ele><time>2026-04-24T08:13:24Z</time></trkpt><trkpt lat="31.632659029836223" lon="-7.999954068604337"><ele>460.0</ele><time>2026-04-24T08:13:25Z</time></trkpt><trkpt lat="31.63275116123727" lon="-7.99995633865278"><ele>459.50000000000006</ele><time>2026-04-24T08:13:26Z</time></trkpt><trkpt lat="31.632817132417966" lon="-7.9999278644094876"><ele>459.0</ele><time>2026-04-24T08:13:27Z</time></trkpt><trkpt lat="31.632874679681663" lon="-7.999884700570244"><ele>458.5</ele><time>2026-04-24T08:13:28Z</time></trkpt><trkpt lat="31.632947468803387" lon="-7.99988730489415"><ele>458.0</ele><time>2026-04-24T08:13:29Z</time></trkpt><trkpt lat="31.633059408449093" lon="-7.999873050922739"><ele>457.50000000000006</ele><time>2026-04-24T08:13:31Z</time></trkpt><trkpt lat="31.63314525508469" lon="-7.99987028749125"><ele>457.0</ele><time>2026-04-24T08:13:33Z</time></trkpt><trkpt lat="31.633217204769903" lon="-7.999866735908908"><ele>457.0</ele><time>2026-04-24T08:13:35Z</time></trkpt><trkpt lat="31.633302378029732" lon="-7.9998543318416635"><ele>457.00000000000006</ele><time>2026-04-24T08:13:38Z</time></trkpt><trkpt lat="31.633381006046562" lon="-7.999841184029066"><ele>457.00000000000006</ele><time>2026-04-24T08:13:40Z</time></trkpt><trkpt lat="31.63349431014238" lon="-7.999820393810745"><ele>457.0</ele><time>2026-04-24T08:13:42Z</time></trkpt><trkpt lat="31.63360982069311" lon="-7.9997982782631425"><ele>457.0</ele><time>2026-04-24T08:13:44Z</time></trkpt><trkpt lat="31.633730649135174" lon="-7.999799969013526"><ele>457.0</ele><time>2026-04-24T08:13:46Z</time></trkpt><trkpt lat="31.633839712724416" lon="-7.999768999638439"><ele>457.00000000000006</ele><time>2026-04-24T08:13:48Z</time></trkpt><trkpt lat="31.633923091401687" lon="-7.9997599128192665"><ele>457.00000000000006</ele><time>2026-04-24T08:13:50Z</time></trkpt><trkpt lat="31.634027081470816" lon="-7.999731715532168"><ele>457.0</ele><time>2026-04-24T08:13:53Z</time></trkpt><trkpt lat="31.634135502363556" lon="-7.999680873884421"><ele>457.0</ele><time>2026-04-24T08:13:55Z</time></trkpt><trkpt lat="31.634224277292255" lon="-7.999637386752325"><ele>457.00000000000006</ele><time>2026-04-24T08:13:57Z</time></trkpt><trkpt lat="31.63428689487393" lon="-7.999609508338346"><ele>457.0</ele><time>2026-04-24T08:13:59Z</time></trkpt><trkpt lat="31.63436740834349" lon="-7.999583811637054"><ele>457.0</ele><time>2026-04-24T08:14:02Z</time></trkpt><trkpt lat="31.63445276426845" lon="-7.999568799617665"><ele>457.0</ele><time>2026-04-24T08:14:05Z</time></trkpt><trkpt lat="31.63453595715809" lon="-7.999568130490694"><ele>457.00000000000006</ele><time>2026-04-24T08:14:07Z</time></trkpt><trkpt lat="31.63459866247422" lon="-7.999578322722764"><ele>457.0</ele><time>2026-04-24T08:14:09Z</time></trkpt><trkpt lat="31.63467583132408" lon="-7.999602605380871"><ele>457.40000000000003</ele><time>2026-04-24T08:14:12Z</time></trkpt><trkpt lat="31.634768435812042" lon="-7.999642213590993"><ele>457.80000000000007</ele><time>2026-04-24T08:14:14Z</time></trkpt><trkpt lat="31.634868949065684" lon="-7.999699649901379"><ele>458.2</ele><time>2026-04-24T08:14:16Z</time></trkpt><trkpt lat="31.63495618380291" lon="-7.999758146764204"><ele>458.6</ele><time>2026-04-24T08:14:18Z</time></trkpt><trkpt lat="31.635017671671772" lon="-7.999799229986922"><ele>459.0</ele><time>2026-04-24T08:14:19.999Z</time></trkpt><trkpt lat="31.635088451352033" lon="-7.999850365140223"><ele>459.0</ele><time>2026-04-24T08:14:21.999Z</time></trkpt><trkpt lat="31.635157213225177" lon="-7.999910608813966"><ele>459.0</ele><time>2026-04-24T08:14:23.999Z</time></trkpt><trkpt lat="31.635209664874928" lon="-7.999958769324709"><ele>459.0</ele><time>2026-04-24T08:14:25.999Z</time></trkpt><trkpt lat="31.635276544221057" lon="-8.000014885029845"><ele>459.0</ele><time>2026-04-24T08:14:28.999Z</time></trkpt><trkpt lat="31.63534369253878" lon="-8.000057332436345"><ele>459.0</ele><time>2026-04-24T08:14:30.999Z</time></trkpt><trkpt lat="31.635411353462217" lon="-8.000098001737486"><ele>459.0</ele><time>2026-04-24T08:14:32.999Z</time></trkpt><trkpt lat="31.635495037773236" lon="-8.00014048257455"><ele>458.6666666666667</ele><time>2026-04-24T08:14:35.001Z</time></trkpt><trkpt lat="31.635580064705124" lon="-8.000177836150774"><ele>458.33333333333337</ele><time>2026-04-24T08:14:37.001Z</time></trkpt><trkpt lat="31.63564106590204" lon="-8.000230766188782"><ele>458.0</ele><time>2026-04-24T08:14:39.001Z</time></trkpt><trkpt lat="31.635747385191213" lon="-8.000205429023628"><ele>457.6666666666667</ele><time>2026-04-24T08:14:42.001Z</time></trkpt><trkpt lat="31.635821415812774" lon="-8.000197155899043"><ele>457.33333333333337</ele><time>2026-04-24T08:14:44.001Z</time></trkpt><trkpt lat="31.635890686693802" lon="-8.000187843940674"><ele>457.0</ele><time>2026-04-24T08:14:46.001Z</time></trkpt><trkpt lat="31.635991669591025" lon="-8.0001596336459"><ele>457.00000000000006</ele><time>2026-04-24T08:14:48.001Z</time></trkpt><trkpt lat="31.63608133839454" lon="-8.000127410087144"><ele>457.0</ele><time>2026-04-24T08:14:50.001Z</time></trkpt><trkpt lat="31.63615915563017" lon="-8.000090623315643"><ele>457.0</ele><time>2026-04-24T08:14:52.001Z</time></trkpt><trkpt lat="31.636256834367742" lon="-8.000026032616876"><ele>457.0</ele><time>2026-04-24T08:14:54Z</time></trkpt><trkpt lat="31.63631719222317" lon="-7.9999840551045365"><ele>457.00000000000006</ele><time>2026-04-24T08:14:55Z</time></trkpt><trkpt lat="31.636383489620926" lon="-7.999937090835965"><ele>457.0</ele><time>2026-04-24T08:14:56Z</time></trkpt><trkpt lat="31.63645535192045" lon="-7.999888097387544"><ele>456.6666666666667</ele><time>2026-04-24T08:14:57Z</time></trkpt><trkpt lat="31.636526952126037" lon="-7.9998364134275555"><ele>456.33333333333337</ele><time>2026-04-24T08:14:58Z</time></trkpt><trkpt lat="31.636599796168447" lon="-7.999781773672699"><ele>456.0</ele><time>2026-04-24T08:14:59Z</time></trkpt><trkpt lat="31.636674389997903" lon="-7.999725237187673"><ele>455.66666666666663</ele><time>2026-04-24T08:15:00Z</time></trkpt><trkpt lat="31.63674774839665" lon="-7.999665874207845"><ele>455.3333333333333</ele><time>2026-04-24T08:15:01Z</time></trkpt><trkpt lat="31.636819107735008" lon="-7.999605530690597"><ele>455.0</ele><time>2026-04-24T08:15:02Z</time></trkpt><trkpt lat="31.63688472457733" lon="-7.999547577600466"><ele>455.0</ele><time>2026-04-24T08:15:03Z</time></trkpt><trkpt lat="31.63694543349022" lon="-7.999489071049137"><ele>455.0</ele><time>2026-04-24T08:15:04Z</time></trkpt><trkpt lat="31.636997544617586" lon="-7.999436110755986"><ele>455.0</ele><time>2026-04-24T08:15:05Z</time></trkpt><trkpt lat="31.637084594793446" lon="-7.999347178698923"><ele>455.0</ele><time>2026-04-24T08:15:07Z</time></trkpt><trkpt lat="31.637155696010115" lon="-7.999275136393876"><ele>455.0</ele><time>2026-04-24T08:15:09Z</time></trkpt><trkpt lat="31.637239216017456" lon="-7.99921396571081"><ele>455.2</ele><time>2026-04-24T08:15:11Z</time></trkpt><trkpt lat="31.63732370671866" lon="-7.999169488605379"><ele>455.4</ele><time>2026-04-24T08:15:13Z</time></trkpt><trkpt lat="31.637441459451626" lon="-7.9991265813109935"><ele>455.6</ele><time>2026-04-24T08:15:15Z</time></trkpt><trkpt lat="31.637514758137964" lon="-7.999099470879352"><ele>455.8</ele><time>2026-04-24T08:15:16Z</time></trkpt><trkpt lat="31.637595239561108" lon="-7.999067700482983"><ele>456.0</ele><time>2026-04-24T08:15:17Z</time></trkpt><trkpt lat="31.637680445556786" lon="-7.999023530304705"><ele>456.0</ele><time>2026-04-24T08:15:18Z</time></trkpt><trkpt lat="31.63776848635781" lon="-7.998969404793145"><ele>456.0</ele><time>2026-04-24T08:15:19Z</time></trkpt><trkpt lat="31.637855721002555" lon="-7.998903158292038"><ele>456.0</ele><time>2026-04-24T08:15:20Z</time></trkpt><trkpt lat="31.6379440030166" lon="-7.99883446139806"><ele>456.0</ele><time>2026-04-24T08:15:21Z</time></trkpt><trkpt lat="31.63803080931097" lon="-7.998764036214287"><ele>456.0</ele><time>2026-04-24T08:15:22Z</time></trkpt><trkpt lat="31.638118303788637" lon="-7.998692044302404"><ele>455.8</ele><time>2026-04-24T08:15:23Z</time></trkpt><trkpt lat="31.63820631804838" lon="-7.998620697280687"><ele>455.6</ele><time>2026-04-24T08:15:24Z</time></trkpt><trkpt lat="31.638294638997596" lon="-7.998552757443402"><ele>455.4</ele><time>2026-04-24T08:15:25Z</time></trkpt><trkpt lat="31.638384108203624" lon="-7.9984838204845765"><ele>455.2</ele><time>2026-04-24T08:15:26Z</time></trkpt><trkpt lat="31.63847322390636" lon="-7.998416277666077"><ele>455.0</ele><time>2026-04-24T08:15:27Z</time></trkpt><trkpt lat="31.63856194717585" lon="-7.998348230192761"><ele>455.2</ele><time>2026-04-24T08:15:28Z</time></trkpt><trkpt lat="31.638649754894296" lon="-7.99828102480318"><ele>455.4</ele><time>2026-04-24T08:15:29Z</time></trkpt><trkpt lat="31.638737056748948" lon="-7.99821390989415"><ele>455.6</ele><time>2026-04-24T08:15:30Z</time></trkpt><trkpt lat="31.63882279460229" lon="-7.9981472604703585"><ele>455.8</ele><time>2026-04-24T08:15:31Z</time></trkpt><trkpt lat="31.638906611566778" lon="-7.998086210217413"><ele>456.0</ele><time>2026-04-24T08:15:32Z</time></trkpt><trkpt lat="31.638983690311605" lon="-7.998023681693177"><ele>456.0</ele><time>2026-04-24T08:15:33Z</time></trkpt><trkpt lat="31.63906092857881" lon="-7.99796438090752"><ele>456.0</ele><time>2026-04-24T08:15:34Z</time></trkpt><trkpt lat="31.639138994492942" lon="-7.9979070606062015"><ele>456.0</ele><time>2026-04-24T08:15:35Z</time></trkpt><trkpt lat="31.639218140895846" lon="-7.99784801033503"><ele>456.0</ele><time>2026-04-24T08:15:36Z</time></trkpt><trkpt lat="31.639298440717575" lon="-7.997788891119224"><ele>456.0</ele><time>2026-04-24T08:15:37Z</time></trkpt><trkpt lat="31.63938068046005" lon="-7.997725048761452"><ele>455.75</ele><time>2026-04-24T08:15:38Z</time></trkpt><trkpt lat="31.63946794810068" lon="-7.9976574830212"><ele>455.5</ele><time>2026-04-24T08:15:39Z</time></trkpt><trkpt lat="31.639558969695273" lon="-7.997582162311609"><ele>455.25</ele><time>2026-04-24T08:15:40Z</time></trkpt><trkpt lat="31.639654015480513" lon="-7.997505575568502"><ele>455.0</ele><time>2026-04-24T08:15:41Z</time></trkpt><trkpt lat="31.639750553745873" lon="-7.997421872859833"><ele>455.0</ele><time>2026-04-24T08:15:42Z</time></trkpt><trkpt lat="31.639847906891177" lon="-7.997335493390438"><ele>455.0</ele><time>2026-04-24T08:15:43Z</time></trkpt><trkpt lat="31.639946672164896" lon="-7.997250446190019"><ele>455.0</ele><time>2026-04-24T08:15:44Z</time></trkpt><trkpt lat="31.640047514731727" lon="-7.997166159211104"><ele>455.0</ele><time>2026-04-24T08:15:45Z</time></trkpt><trkpt lat="31.640149042311112" lon="-7.997082226176015"><ele>455.0</ele><time>2026-04-24T08:15:46Z</time></trkpt><trkpt lat="31.6402529264791" lon="-7.99699860737612"><ele>455.0</ele><time>2026-04-24T08:15:47Z</time></trkpt><trkpt lat="31.640356356076282" lon="-7.996916877446924"><ele>455.0</ele><time>2026-04-24T08:15:48Z</time></trkpt><trkpt lat="31.640458472983973" lon="-7.996835357577645"><ele>455.0</ele><time>2026-04-24T08:15:49Z</time></trkpt><trkpt lat="31.640561966958884" lon="-7.996754528512642"><ele>454.75</ele><time>2026-04-24T08:15:50Z</time></trkpt><trkpt lat="31.64066353227144" lon="-7.996673917096496"><ele>454.5</ele><time>2026-04-24T08:15:51Z</time></trkpt><trkpt lat="31.640765377308306" lon="-7.996595238695596"><ele>454.25</ele><time>2026-04-24T08:15:52Z</time></trkpt><trkpt lat="31.64086718994841" lon="-7.996516953717126"><ele>454.0</ele><time>2026-04-24T08:15:53Z</time></trkpt><trkpt lat="31.640968004700202" lon="-7.996439772248899"><ele>454.0</ele><time>2026-04-24T08:15:54Z</time></trkpt><trkpt lat="31.641068302208655" lon="-7.996361505374529"><ele>454.0</ele><time>2026-04-24T08:15:55Z</time></trkpt><trkpt lat="31.64116203821743" lon="-7.996287247107157"><ele>454.0</ele><time>2026-04-24T08:15:56Z</time></trkpt><trkpt lat="31.641235119980486" lon="-7.996227168539929"><ele>454.0</ele><time>2026-04-24T08:15:57Z</time></trkpt><trkpt lat="31.641303526773875" lon="-7.996173919335455"><ele>454.0</ele><time>2026-04-24T08:15:59Z</time></trkpt><trkpt lat="31.641357856083104" lon="-7.996123563283935"><ele>453.83333333333337</ele><time>2026-04-24T08:16:37.999Z</time></trkpt><trkpt lat="31.641413407158687" lon="-7.996080850514609"><ele>453.6666666666667</ele><time>2026-04-24T08:16:38.999Z</time></trkpt><trkpt lat="31.64147977798181" lon="-7.996027295916158"><ele>453.5</ele><time>2026-04-24T08:16:40.001Z</time></trkpt><trkpt lat="31.64155681400401" lon="-7.995966895393451"><ele>453.33333333333337</ele><time>2026-04-24T08:16:41.001Z</time></trkpt><trkpt lat="31.641639919485453" lon="-7.995904377629576"><ele>453.1666666666667</ele><time>2026-04-24T08:16:42.001Z</time></trkpt><trkpt lat="31.641729961162582" lon="-7.995834272833631"><ele>453.0</ele><time>2026-04-24T08:16:43.001Z</time></trkpt><trkpt lat="31.641828160885254" lon="-7.995758595246287"><ele>453.0</ele><time>2026-04-24T08:16:44.001Z</time></trkpt><trkpt lat="31.641932213959116" lon="-7.9956779214326135"><ele>453.0</ele><time>2026-04-24T08:16:45.001Z</time></trkpt><trkpt lat="31.642040533603407" lon="-7.995593026696088"><ele>453.0</ele><time>2026-04-24T08:16:46.001Z</time></trkpt><trkpt lat="31.642158366699462" lon="-7.995504879054734"><ele>453.0</ele><time>2026-04-24T08:16:47.001Z</time></trkpt><trkpt lat="31.642276440731507" lon="-7.995411884746863"><ele>452.66666666666663</ele><time>2026-04-24T08:16:48.001Z</time></trkpt><trkpt lat="31.642400717782092" lon="-7.995317397311625"><ele>452.3333333333333</ele><time>2026-04-24T08:16:49.001Z</time></trkpt><trkpt lat="31.642528100891074" lon="-7.995218349266727"><ele>452.0</ele><time>2026-04-24T08:16:50.001Z</time></trkpt><trkpt lat="31.642655967347874" lon="-7.995118854238187"><ele>452.0</ele><time>2026-04-24T08:16:51.001Z</time></trkpt><trkpt lat="31.642783428718808" lon="-7.995018187839186"><ele>452.0</ele><time>2026-04-24T08:16:52.001Z</time></trkpt><trkpt lat="31.642908638547077" lon="-7.9949145007284725"><ele>452.0</ele><time>2026-04-24T08:16:53.001Z</time></trkpt><trkpt lat="31.64303248377422" lon="-7.99480403589259"><ele>452.0</ele><time>2026-04-24T08:16:54.001Z</time></trkpt><trkpt lat="31.643153807856294" lon="-7.994687318754376"><ele>452.0</ele><time>2026-04-24T08:16:55.001Z</time></trkpt><trkpt lat="31.643274953651012" lon="-7.994561146558816"><ele>452.0</ele><time>2026-04-24T08:16:56.001Z</time></trkpt><trkpt lat="31.64339325481843" lon="-7.9944226736032356"><ele>452.0</ele><time>2026-04-24T08:16:57.001Z</time></trkpt><trkpt lat="31.643506092298622" lon="-7.994274205981909"><ele>452.0</ele><time>2026-04-24T08:16:58.001Z</time></trkpt><trkpt lat="31.643614955606846" lon="-7.994115595216215"><ele>452.0</ele><time>2026-04-24T08:16:59.001Z</time></trkpt><trkpt lat="31.643719146907266" lon="-7.993948821619699"><ele>451.66666666666663</ele><time>2026-04-24T08:17:00.001Z</time></trkpt><trkpt lat="31.643814532817373" lon="-7.993778764273337"><ele>451.33333333333337</ele><time>2026-04-24T08:17:01.001Z</time></trkpt><trkpt lat="31.64390206942773" lon="-7.993603600315369"><ele>451.0</ele><time>2026-04-24T08:17:02.001Z</time></trkpt><trkpt lat="31.643980824818097" lon="-7.99342770385693"><ele>450.6666666666667</ele><time>2026-04-24T08:17:03.001Z</time></trkpt><trkpt lat="31.644051517236495" lon="-7.993247097993584"><ele>450.33333333333337</ele><time>2026-04-24T08:17:04Z</time></trkpt><trkpt lat="31.64411224916735" lon="-7.993065356357605"><ele>450.0</ele><time>2026-04-24T08:17:05Z</time></trkpt><trkpt lat="31.644160422032652" lon="-7.992885924395028"><ele>450.0</ele><time>2026-04-24T08:17:06Z</time></trkpt><trkpt lat="31.64420320623492" lon="-7.9927116727781895"><ele>450.0</ele><time>2026-04-24T08:17:07Z</time></trkpt><trkpt lat="31.644239101961105" lon="-7.992538205134975"><ele>450.0</ele><time>2026-04-24T08:17:08Z</time></trkpt><trkpt lat="31.644265968870563" lon="-7.99236335651394"><ele>450.25</ele><time>2026-04-24T08:17:09Z</time></trkpt><trkpt lat="31.644283796103892" lon="-7.992191607097724"><ele>450.5</ele><time>2026-04-24T08:17:10Z</time></trkpt><trkpt lat="31.644296166697643" lon="-7.992028963826619"><ele>450.75</ele><time>2026-04-24T08:17:11Z</time></trkpt><trkpt lat="31.644307659574" lon="-7.991878376895718"><ele>451.0</ele><time>2026-04-24T08:17:12Z</time></trkpt><trkpt lat="31.644316043886892" lon="-7.991737987174826"><ele>450.8</ele><time>2026-04-24T08:17:13Z</time></trkpt><trkpt lat="31.644321149260318" lon="-7.991605027140392"><ele>450.6</ele><time>2026-04-24T08:17:14Z</time></trkpt><trkpt lat="31.64432775015141" lon="-7.991473056491129"><ele>450.4</ele><time>2026-04-24T08:17:15Z</time></trkpt><trkpt lat="31.644334807431402" lon="-7.99134422209491"><ele>450.2</ele><time>2026-04-24T08:17:16Z</time></trkpt><trkpt lat="31.644342533018737" lon="-7.991215893742609"><ele>450.0</ele><time>2026-04-24T08:17:17Z</time></trkpt><trkpt lat="31.64435038452469" lon="-7.991087752201087"><ele>450.0</ele><time>2026-04-24T08:17:18Z</time></trkpt><trkpt lat="31.644359300419342" lon="-7.990958506160983"><ele>450.0</ele><time>2026-04-24T08:17:19Z</time></trkpt><trkpt lat="31.644366677417153" lon="-7.9908283520673455"><ele>450.0</ele><time>2026-04-24T08:17:20Z</time></trkpt><trkpt lat="31.64437556190123" lon="-7.990698322057442"><ele>450.0</ele><time>2026-04-24T08:17:21Z</time></trkpt><trkpt lat="31.644385268469797" lon="-7.990566813180506"><ele>450.0</ele><time>2026-04-24T08:17:22Z</time></trkpt><trkpt lat="31.64439648515966" lon="-7.990434182937811"><ele>450.0</ele><time>2026-04-24T08:17:23Z</time></trkpt><trkpt lat="31.644408714374332" lon="-7.99029931691033"><ele>450.0</ele><time>2026-04-24T08:17:24Z</time></trkpt><trkpt lat="31.64442114202179" lon="-7.990162949588815"><ele>450.0</ele><time>2026-04-24T08:17:25Z</time></trkpt><trkpt lat="31.644433675024946" lon="-7.990024583791766"><ele>450.0</ele><time>2026-04-24T08:17:26Z</time></trkpt><trkpt lat="31.644443553901883" lon="-7.989886948805842"><ele>450.0</ele><time>2026-04-24T08:17:27Z</time></trkpt><trkpt lat="31.644453071504483" lon="-7.98974798270298"><ele>450.0</ele><time>2026-04-24T08:17:28Z</time></trkpt><trkpt lat="31.64446221864125" lon="-7.989611580009556"><ele>450.0</ele><time>2026-04-24T08:17:29Z</time></trkpt><trkpt lat="31.644469429686765" lon="-7.989480340958906"><ele>450.0</ele><time>2026-04-24T08:17:30Z</time></trkpt><trkpt lat="31.64447389882967" lon="-7.989352245859155"><ele>450.0</ele><time>2026-04-24T08:17:31Z</time></trkpt><trkpt lat="31.64447969093017" lon="-7.98923020603166"><ele>450.0</ele><time>2026-04-24T08:17:32Z</time></trkpt><trkpt lat="31.644487476675337" lon="-7.989107358815237"><ele>450.0</ele><time>2026-04-24T08:17:33Z</time></trkpt><trkpt lat="31.644495301581802" lon="-7.9889892736532495"><ele>450.0</ele><time>2026-04-24T08:17:34Z</time></trkpt><trkpt lat="31.644503061290425" lon="-7.988875057985024"><ele>450.0</ele><time>2026-04-24T08:17:35Z</time></trkpt><trkpt lat="31.64450935915113" lon="-7.988761569987643"><ele>450.1666666666667</ele><time>2026-04-24T08:17:36Z</time></trkpt><trkpt lat="31.644510938934893" lon="-7.98865507499313"><ele>450.33333333333337</ele><time>2026-04-24T08:17:37Z</time></trkpt><trkpt lat="31.644507565586604" lon="-7.988560759744925"><ele>450.5</ele><time>2026-04-24T08:17:38Z</time></trkpt><trkpt lat="31.6445040760513" lon="-7.988475040370085"><ele>450.6666666666667</ele><time>2026-04-24T08:17:39Z</time></trkpt><trkpt lat="31.644500682689063" lon="-7.9883945536501715"><ele>450.83333333333337</ele><time>2026-04-24T08:17:40Z</time></trkpt><trkpt lat="31.64449706678991" lon="-7.988317192300226"><ele>451.0</ele><time>2026-04-24T08:17:41Z</time></trkpt><trkpt lat="31.644488789215487" lon="-7.988187246260856"><ele>451.00000000000006</ele><time>2026-04-24T08:17:43Z</time></trkpt><trkpt lat="31.644481430564905" lon="-7.988082865448858"><ele>451.0</ele><time>2026-04-24T08:17:45Z</time></trkpt><trkpt lat="31.644476305802808" lon="-7.987994977374384"><ele>451.0</ele><time>2026-04-24T08:17:47Z</time></trkpt><trkpt lat="31.64447085404145" lon="-7.9879030723071125"><ele>451.0</ele><time>2026-04-24T08:17:49Z</time></trkpt><trkpt lat="31.644465839041317" lon="-7.98780090917997"><ele>451.00000000000006</ele><time>2026-04-24T08:17:51Z</time></trkpt><trkpt lat="31.64445684876718" lon="-7.987718064501886"><ele>451.0</ele><time>2026-04-24T08:17:53Z</time></trkpt><trkpt lat="31.6444303952622" lon="-7.987616654369258"><ele>451.0</ele><time>2026-04-24T08:17:55Z</time></trkpt><trkpt lat="31.644414739717156" lon="-7.987486890891556"><ele>451.0</ele><time>2026-04-24T08:17:57Z</time></trkpt><trkpt lat="31.644436525067366" lon="-7.9873607316159925"><ele>451.0</ele><time>2026-04-24T08:17:59Z</time></trkpt><trkpt lat="31.644500115355633" lon="-7.987247739467185"><ele>451.0</ele><time>2026-04-24T08:18:01Z</time></trkpt><trkpt lat="31.64457606337221" lon="-7.98714978876574"><ele>451.0</ele><time>2026-04-24T08:18:03Z</time></trkpt><trkpt lat="31.644615625013742" lon="-7.987087810408832"><ele>451.0</ele><time>2026-04-24T08:18:04Z</time></trkpt><trkpt lat="31.64464617604454" lon="-7.9870018085135275"><ele>451.0</ele><time>2026-04-24T08:18:05Z</time></trkpt><trkpt lat="31.644671656220698" lon="-7.986897363108318"><ele>451.0</ele><time>2026-04-24T08:18:06Z</time></trkpt><trkpt lat="31.644690241861458" lon="-7.986781539437673"><ele>451.0</ele><time>2026-04-24T08:18:07Z</time></trkpt><trkpt lat="31.64470673446364" lon="-7.986655762834256"><ele>451.0</ele><time>2026-04-24T08:18:08Z</time></trkpt><trkpt lat="31.644723267123812" lon="-7.986523002486355"><ele>451.0</ele><time>2026-04-24T08:18:09Z</time></trkpt><trkpt lat="31.644738420719282" lon="-7.986384723579955"><ele>451.0</ele><time>2026-04-24T08:18:10Z</time></trkpt><trkpt lat="31.644755188626924" lon="-7.9862415227394"><ele>451.0</ele><time>2026-04-24T08:18:11Z</time></trkpt><trkpt lat="31.644774798674728" lon="-7.986095228709044"><ele>451.0</ele><time>2026-04-24T08:18:12Z</time></trkpt><trkpt lat="31.64479327957839" lon="-7.985948416916392"><ele>450.5</ele><time>2026-04-24T08:18:13Z</time></trkpt><trkpt lat="31.64481163968445" lon="-7.985805581884628"><ele>450.0</ele><time>2026-04-24T08:18:14Z</time></trkpt><trkpt lat="31.644828604166612" lon="-7.985663872066114"><ele>449.5</ele><time>2026-04-24T08:18:15Z</time></trkpt><trkpt lat="31.6448444514648" lon="-7.985522615782114"><ele>449.0</ele><time>2026-04-24T08:18:16Z</time></trkpt><trkpt lat="31.644859557006583" lon="-7.985383226153169"><ele>449.0</ele><time>2026-04-24T08:18:17Z</time></trkpt><trkpt lat="31.644872211751387" lon="-7.985243141878967"><ele>449.0</ele><time>2026-04-24T08:18:18Z</time></trkpt><trkpt lat="31.644884406155157" lon="-7.985102371351164"><ele>449.0</ele><time>2026-04-24T08:18:19Z</time></trkpt><trkpt lat="31.644898332360853" lon="-7.984966929347248"><ele>449.0</ele><time>2026-04-24T08:18:20Z</time></trkpt><trkpt lat="31.644913966261242" lon="-7.984824700693884"><ele>450.0</ele><time>2026-04-24T08:18:21Z</time></trkpt><trkpt lat="31.644930397068315" lon="-7.9846791300995195"><ele>451.0</ele><time>2026-04-24T08:18:22Z</time></trkpt><trkpt lat="31.644944221484884" lon="-7.984533087605031"><ele>452.0</ele><time>2026-04-24T08:18:23Z</time></trkpt><trkpt lat="31.64495517282697" lon="-7.984395731029533"><ele>453.0</ele><time>2026-04-24T08:18:24Z</time></trkpt><trkpt lat="31.644967192816594" lon="-7.984264094533461"><ele>452.75</ele><time>2026-04-24T08:18:25Z</time></trkpt><trkpt lat="31.64498213641949" lon="-7.9841290918365715"><ele>452.5</ele><time>2026-04-24T08:18:26Z</time></trkpt><trkpt lat="31.644999503425446" lon="-7.983991905277877"><ele>452.25</ele><time>2026-04-24T08:18:27Z</time></trkpt><trkpt lat="31.645017261533106" lon="-7.983848159159793"><ele>452.0</ele><time>2026-04-24T08:18:28Z</time></trkpt><trkpt lat="31.64503843944824" lon="-7.983699935435385"><ele>452.0</ele><time>2026-04-24T08:18:29Z</time></trkpt><trkpt lat="31.64505967976687" lon="-7.983550049365513"><ele>452.0</ele><time>2026-04-24T08:18:30Z</time></trkpt><trkpt lat="31.645081521500607" lon="-7.983402329657738"><ele>452.0</ele><time>2026-04-24T08:18:31Z</time></trkpt><trkpt lat="31.645103540246655" lon="-7.983257283019015"><ele>452.0</ele><time>2026-04-24T08:18:32Z</time></trkpt><trkpt lat="31.645124892664043" lon="-7.983115792046783"><ele>452.40000000000003</ele><time>2026-04-24T08:18:33Z</time></trkpt><trkpt lat="31.645144605476794" lon="-7.982982118207038"><ele>452.80000000000007</ele><time>2026-04-24T08:18:34Z</time></trkpt><trkpt lat="31.645163626957707" lon="-7.982860157113049"><ele>453.2</ele><time>2026-04-24T08:18:34.999Z</time></trkpt><trkpt lat="31.645181468611796" lon="-7.982748895997638"><ele>453.6</ele><time>2026-04-24T08:18:35.999Z</time></trkpt><trkpt lat="31.645197833175008" lon="-7.9826429415364535"><ele>454.0</ele><time>2026-04-24T08:18:36.999Z</time></trkpt><trkpt lat="31.64521547258037" lon="-7.9825392375278295"><ele>454.0</ele><time>2026-04-24T08:18:37.999Z</time></trkpt><trkpt lat="31.645233980892673" lon="-7.982436549849408"><ele>454.0</ele><time>2026-04-24T08:18:38.999Z</time></trkpt><trkpt lat="31.645252855904015" lon="-7.98233273816615"><ele>454.0</ele><time>2026-04-24T08:18:39.999Z</time></trkpt><trkpt lat="31.64527211377495" lon="-7.982221118015771"><ele>454.0</ele><time>2026-04-24T08:18:40.999Z</time></trkpt><trkpt lat="31.645292238129834" lon="-7.982102008480762"><ele>454.0</ele><time>2026-04-24T08:18:41.999Z</time></trkpt><trkpt lat="31.645314590779353" lon="-7.9819780477025475"><ele>454.0</ele><time>2026-04-24T08:18:42.999Z</time></trkpt><trkpt lat="31.64533893477992" lon="-7.981848144651018"><ele>454.0</ele><time>2026-04-24T08:18:43.999Z</time></trkpt><trkpt lat="31.645360667190353" lon="-7.981712547433445"><ele>454.0</ele><time>2026-04-24T08:18:44.999Z</time></trkpt><trkpt lat="31.64538072619893" lon="-7.981575635467752"><ele>454.0</ele><time>2026-04-24T08:18:46Z</time></trkpt><trkpt lat="31.645398534988075" lon="-7.98143956215179"><ele>453.79999999999995</ele><time>2026-04-24T08:18:47Z</time></trkpt><trkpt lat="31.64541660741582" lon="-7.981308983054282"><ele>453.59999999999997</ele><time>2026-04-24T08:18:48Z</time></trkpt><trkpt lat="31.64543403004381" lon="-7.981181279516077"><ele>453.4</ele><time>2026-04-24T08:18:49Z</time></trkpt><trkpt lat="31.645451905079696" lon="-7.981052414096516"><ele>453.2</ele><time>2026-04-24T08:18:50Z</time></trkpt><trkpt lat="31.645469425547212" lon="-7.980922236634235"><ele>453.0</ele><time>2026-04-24T08:18:51Z</time></trkpt><trkpt lat="31.64548795317918" lon="-7.980802049817421"><ele>453.0</ele><time>2026-04-24T08:18:52Z</time></trkpt><trkpt lat="31.645506015456885" lon="-7.980686145198783"><ele>452.99999999999994</ele><time>2026-04-24T08:18:53Z</time></trkpt><trkpt lat="31.645523021674187" lon="-7.980574685917842"><ele>452.99999999999994</ele><time>2026-04-24T08:18:54Z</time></trkpt><trkpt lat="31.645541370078323" lon="-7.980468204403958"><ele>453.0</ele><time>2026-04-24T08:18:55Z</time></trkpt><trkpt lat="31.64554444423603" lon="-7.980359313766142"><ele>453.0</ele><time>2026-04-24T08:18:56Z</time></trkpt><trkpt lat="31.64557971377913" lon="-7.980248621184379"><ele>453.0</ele><time>2026-04-24T08:18:57Z</time></trkpt><trkpt lat="31.645594877222603" lon="-7.980130964466373"><ele>452.99999999999994</ele><time>2026-04-24T08:18:58Z</time></trkpt><trkpt lat="31.645609592258932" lon="-7.980013046448317"><ele>452.99999999999994</ele><time>2026-04-24T08:18:59Z</time></trkpt><trkpt lat="31.645624542163873" lon="-7.9798938222392275"><ele>453.0</ele><time>2026-04-24T08:19:00Z</time></trkpt><trkpt lat="31.64564038118319" lon="-7.979771378517893"><ele>453.0</ele><time>2026-04-24T08:19:01Z</time></trkpt><trkpt lat="31.645656459770382" lon="-7.979646407498244"><ele>453.4</ele><time>2026-04-24T08:19:02Z</time></trkpt><trkpt lat="31.64567271595716" lon="-7.979522637636148"><ele>453.79999999999995</ele><time>2026-04-24T08:19:03Z</time></trkpt><trkpt lat="31.6456919568844" lon="-7.979398622799326"><ele>454.2</ele><time>2026-04-24T08:19:04Z</time></trkpt><trkpt lat="31.64571196401845" lon="-7.979272337285868"><ele>454.6</ele><time>2026-04-24T08:19:05Z</time></trkpt><trkpt lat="31.64573193746991" lon="-7.979142612818159"><ele>455.0</ele><time>2026-04-24T08:19:06Z</time></trkpt><trkpt lat="31.645752299814053" lon="-7.97901170726585"><ele>455.0</ele><time>2026-04-24T08:19:07Z</time></trkpt><trkpt lat="31.645771831872683" lon="-7.978880908654846"><ele>455.0</ele><time>2026-04-24T08:19:08Z</time></trkpt><trkpt lat="31.645791851646468" lon="-7.97874874544365"><ele>455.0</ele><time>2026-04-24T08:19:09Z</time></trkpt><trkpt lat="31.645811703591903" lon="-7.978612414130839"><ele>455.0</ele><time>2026-04-24T08:19:10Z</time></trkpt><trkpt lat="31.645832757656667" lon="-7.978472972792228"><ele>454.25</ele><time>2026-04-24T08:19:11Z</time></trkpt><trkpt lat="31.645853711129806" lon="-7.9783287711314665"><ele>453.5</ele><time>2026-04-24T08:19:12Z</time></trkpt><trkpt lat="31.645876395157146" lon="-7.978182707476395"><ele>452.75</ele><time>2026-04-24T08:19:13Z</time></trkpt><trkpt lat="31.645904776735712" lon="-7.978032098272022"><ele>452.0</ele><time>2026-04-24T08:19:14Z</time></trkpt><trkpt lat="31.645935098723545" lon="-7.977877016791453"><ele>452.0</ele><time>2026-04-24T08:19:15Z</time></trkpt><trkpt lat="31.645965257334648" lon="-7.977716645524744"><ele>452.0</ele><time>2026-04-24T08:19:16Z</time></trkpt><trkpt lat="31.645991171857222" lon="-7.977558076548062"><ele>452.0</ele><time>2026-04-24T08:19:17Z</time></trkpt><trkpt lat="31.646020924006525" lon="-7.977374648189683"><ele>452.0</ele><time>2026-04-24T08:19:18Z</time></trkpt><trkpt lat="31.64604642154464" lon="-7.977185649597399"><ele>452.66666666666663</ele><time>2026-04-24T08:19:19Z</time></trkpt><trkpt lat="31.646074357201336" lon="-7.977003170332921"><ele>453.33333333333337</ele><time>2026-04-24T08:19:20Z</time></trkpt><trkpt lat="31.646101485177027" lon="-7.976825292798287"><ele>454.0</ele><time>2026-04-24T08:19:21Z</time></trkpt><trkpt lat="31.646127986987413" lon="-7.976652818905535"><ele>453.75</ele><time>2026-04-24T08:19:22Z</time></trkpt><trkpt lat="31.646155822251973" lon="-7.976484169461297"><ele>453.5</ele><time>2026-04-24T08:19:23Z</time></trkpt><trkpt lat="31.646182039509398" lon="-7.976317574806718"><ele>453.25</ele><time>2026-04-24T08:19:24Z</time></trkpt><trkpt lat="31.646209950111313" lon="-7.97615126658428"><ele>453.0</ele><time>2026-04-24T08:19:25Z</time></trkpt><trkpt lat="31.646238767435175" lon="-7.975981781366751"><ele>452.66666666666663</ele><time>2026-04-24T08:19:26Z</time></trkpt><trkpt lat="31.64626457722705" lon="-7.975808279733121"><ele>452.3333333333333</ele><time>2026-04-24T08:19:27Z</time></trkpt><trkpt lat="31.64628796076361" lon="-7.9756316259992435"><ele>452.0</ele><time>2026-04-24T08:19:28Z</time></trkpt><trkpt lat="31.646311738068118" lon="-7.975455622606837"><ele>452.0</ele><time>2026-04-24T08:19:29Z</time></trkpt><trkpt lat="31.646336191789736" lon="-7.975278125709917"><ele>452.0</ele><time>2026-04-24T08:19:30Z</time></trkpt><trkpt lat="31.64636218257482" lon="-7.975096989509383"><ele>452.0</ele><time>2026-04-24T08:19:31Z</time></trkpt><trkpt lat="31.646390017011708" lon="-7.97491584994204"><ele>452.66666666666663</ele><time>2026-04-24T08:19:32Z</time></trkpt><trkpt lat="31.646417845327864" lon="-7.974730523314732"><ele>453.33333333333337</ele><time>2026-04-24T08:19:33Z</time></trkpt><trkpt lat="31.646444318900397" lon="-7.974543118985444"><ele>454.0</ele><time>2026-04-24T08:19:34Z</time></trkpt><trkpt lat="31.646471059504933" lon="-7.974362791064734"><ele>454.0</ele><time>2026-04-24T08:19:35Z</time></trkpt><trkpt lat="31.646496993589963" lon="-7.974189543436992"><ele>454.0</ele><time>2026-04-24T08:19:36Z</time></trkpt><trkpt lat="31.64652382466502" lon="-7.97402211871353"><ele>454.0</ele><time>2026-04-24T08:19:37Z</time></trkpt><trkpt lat="31.646550803339217" lon="-7.973854374886928"><ele>454.0</ele><time>2026-04-24T08:19:38Z</time></trkpt><trkpt lat="31.64657840405884" lon="-7.973687393445011"><ele>454.0</ele><time>2026-04-24T08:19:39Z</time></trkpt><trkpt lat="31.64660701175244" lon="-7.973520765487397"><ele>454.0</ele><time>2026-04-24T08:19:40Z</time></trkpt><trkpt lat="31.64663486803785" lon="-7.973353874735695"><ele>454.0</ele><time>2026-04-24T08:19:41Z</time></trkpt><trkpt lat="31.64666269611575" lon="-7.973186553499019"><ele>454.0</ele><time>2026-04-24T08:19:42Z</time></trkpt><trkpt lat="31.646691092763866" lon="-7.973020242220754"><ele>454.0</ele><time>2026-04-24T08:19:43Z</time></trkpt><trkpt lat="31.646720802344305" lon="-7.97285531791271"><ele>454.0</ele><time>2026-04-24T08:19:44Z</time></trkpt><trkpt lat="31.646749691454716" lon="-7.972692773543403"><ele>454.0</ele><time>2026-04-24T08:19:45Z</time></trkpt><trkpt lat="31.64677964780853" lon="-7.972532503898347"><ele>454.0</ele><time>2026-04-24T08:19:46Z</time></trkpt><trkpt lat="31.646808762287797" lon="-7.972367214111846"><ele>454.0</ele><time>2026-04-24T08:19:47Z</time></trkpt><trkpt lat="31.646837105625963" lon="-7.972201503636914"><ele>454.0</ele><time>2026-04-24T08:19:48Z</time></trkpt><trkpt lat="31.646865622073868" lon="-7.972034698938425"><ele>454.0</ele><time>2026-04-24T08:19:49Z</time></trkpt><trkpt lat="31.646893983836" lon="-7.971867766702697"><ele>454.0</ele><time>2026-04-24T08:19:50Z</time></trkpt><trkpt lat="31.646923363243797" lon="-7.971701839896938"><ele>454.0</ele><time>2026-04-24T08:19:51Z</time></trkpt><trkpt lat="31.64695279937473" lon="-7.971534194274666"><ele>454.0</ele><time>2026-04-24T08:19:52Z</time></trkpt><trkpt lat="31.646983079694365" lon="-7.971363355572571"><ele>454.0</ele><time>2026-04-24T08:19:53Z</time></trkpt><trkpt lat="31.64701218910528" lon="-7.971193642424586"><ele>454.0</ele><time>2026-04-24T08:19:54Z</time></trkpt><trkpt lat="31.647042003646945" lon="-7.971025535638095"><ele>454.0</ele><time>2026-04-24T08:19:55Z</time></trkpt><trkpt lat="31.647071483252777" lon="-7.970858811490162"><ele>454.0</ele><time>2026-04-24T08:19:56Z</time></trkpt><trkpt lat="31.64710100379998" lon="-7.970693266140331"><ele>454.0</ele><time>2026-04-24T08:19:57Z</time></trkpt><trkpt lat="31.647127424860876" lon="-7.970529413744234"><ele>454.0</ele><time>2026-04-24T08:19:58Z</time></trkpt><trkpt lat="31.64715308627411" lon="-7.970367023268722"><ele>454.25</ele><time>2026-04-24T08:19:59Z</time></trkpt><trkpt lat="31.647180248691104" lon="-7.970204696752875"><ele>454.5</ele><time>2026-04-24T08:20:00Z</time></trkpt><trkpt lat="31.647206959725136" lon="-7.970042701975949"><ele>454.75</ele><time>2026-04-24T08:20:01Z</time></trkpt><trkpt lat="31.64723519612073" lon="-7.969882895430627"><ele>455.0</ele><time>2026-04-24T08:20:02Z</time></trkpt><trkpt lat="31.647262680168843" lon="-7.969722907823496"><ele>455.0</ele><time>2026-04-24T08:20:03Z</time></trkpt><trkpt lat="31.64728971786375" lon="-7.969560908625418"><ele>455.0</ele><time>2026-04-24T08:20:04Z</time></trkpt><trkpt lat="31.647316207547217" lon="-7.969398988613183"><ele>455.0</ele><time>2026-04-24T08:20:05Z</time></trkpt><trkpt lat="31.647343589203487" lon="-7.969234647251504"><ele>455.0</ele><time>2026-04-24T08:20:06Z</time></trkpt><trkpt lat="31.647371330896572" lon="-7.969069311703518"><ele>454.5</ele><time>2026-04-24T08:20:07Z</time></trkpt><trkpt lat="31.64739906098664" lon="-7.968905183545055"><ele>454.0</ele><time>2026-04-24T08:20:08Z</time></trkpt><trkpt lat="31.64742663882597" lon="-7.968738974972417"><ele>453.5</ele><time>2026-04-24T08:20:09Z</time></trkpt><trkpt lat="31.647454030966426" lon="-7.968573838031685"><ele>453.0</ele><time>2026-04-24T08:20:10Z</time></trkpt><trkpt lat="31.647480140243957" lon="-7.968411766933258"><ele>453.25</ele><time>2026-04-24T08:20:11Z</time></trkpt><trkpt lat="31.6475061582027" lon="-7.968248613596412"><ele>453.5</ele><time>2026-04-24T08:20:12Z</time></trkpt><trkpt lat="31.647532410447155" lon="-7.9680866851153205"><ele>453.75</ele><time>2026-04-24T08:20:13Z</time></trkpt><trkpt lat="31.647558358652077" lon="-7.967925285153918"><ele>454.0</ele><time>2026-04-24T08:20:14Z</time></trkpt><trkpt lat="31.647584000018384" lon="-7.967763837841135"><ele>454.0</ele><time>2026-04-24T08:20:15Z</time></trkpt><trkpt lat="31.64760682289157" lon="-7.967604198688653"><ele>454.0</ele><time>2026-04-24T08:20:16Z</time></trkpt><trkpt lat="31.64762931384043" lon="-7.967446219651089"><ele>454.0</ele><time>2026-04-24T08:20:17Z</time></trkpt><trkpt lat="31.647650522823827" lon="-7.9672935341209"><ele>454.0</ele><time>2026-04-24T08:20:18Z</time></trkpt><trkpt lat="31.64767235313156" lon="-7.9671433520226325"><ele>454.0</ele><time>2026-04-24T08:20:19Z</time></trkpt><trkpt lat="31.647694236689176" lon="-7.966993368737247"><ele>454.0</ele><time>2026-04-24T08:20:20Z</time></trkpt><trkpt lat="31.647716680026544" lon="-7.966841587877608"><ele>454.0</ele><time>2026-04-24T08:20:20.999Z</time></trkpt><trkpt lat="31.647739290173735" lon="-7.966688565233822"><ele>454.0</ele><time>2026-04-24T08:20:21.999Z</time></trkpt><trkpt lat="31.64776164716463" lon="-7.966533769692873"><ele>454.25</ele><time>2026-04-24T08:20:22.999Z</time></trkpt><trkpt lat="31.647782373160975" lon="-7.9663780702995375"><ele>454.5</ele><time>2026-04-24T08:20:23.999Z</time></trkpt><trkpt lat="31.647804600397972" lon="-7.966222721050483"><ele>454.75</ele><time>2026-04-24T08:20:24.999Z</time></trkpt><trkpt lat="31.647828370787" lon="-7.966067528141977"><ele>455.0</ele><time>2026-04-24T08:20:25.999Z</time></trkpt><trkpt lat="31.647857923748166" lon="-7.9659078347626595"><ele>455.25</ele><time>2026-04-24T08:20:26.999Z</time></trkpt><trkpt lat="31.647887586519214" lon="-7.965744456410446"><ele>455.5</ele><time>2026-04-24T08:20:27.999Z</time></trkpt><trkpt lat="31.647917569829854" lon="-7.965578884656639"><ele>455.75</ele><time>2026-04-24T08:20:28.999Z</time></trkpt><trkpt lat="31.64794949521647" lon="-7.965403335584337"><ele>456.0</ele><time>2026-04-24T08:20:29.999Z</time></trkpt><trkpt lat="31.647984972654964" lon="-7.965201053461221"><ele>456.0</ele><time>2026-04-24T08:20:30.999Z</time></trkpt><trkpt lat="31.64801530154181" lon="-7.9649819194045595"><ele>456.0</ele><time>2026-04-24T08:20:31.999Z</time></trkpt><trkpt lat="31.648039477043792" lon="-7.964773461164704"><ele>456.0</ele><time>2026-04-24T08:20:32.999Z</time></trkpt><trkpt lat="31.648063853484086" lon="-7.96457625172321"><ele>456.0</ele><time>2026-04-24T08:20:33.999Z</time></trkpt><trkpt lat="31.64808653181042" lon="-7.964398005968701"><ele>456.0</ele><time>2026-04-24T08:20:34.999Z</time></trkpt><trkpt lat="31.64810600082932" lon="-7.964240552095873"><ele>456.0</ele><time>2026-04-24T08:20:35.999Z</time></trkpt><trkpt lat="31.648121669880823" lon="-7.964106384785746"><ele>456.0</ele><time>2026-04-24T08:20:36.999Z</time></trkpt><trkpt lat="31.648135907697643" lon="-7.963994552154817"><ele>455.6666666666667</ele><time>2026-04-24T08:20:37.999Z</time></trkpt><trkpt lat="31.648148362111517" lon="-7.963904954175247"><ele>455.33333333333337</ele><time>2026-04-24T08:20:38.999Z</time></trkpt><trkpt lat="31.648157271925538" lon="-7.963831122521057"><ele>455.0</ele><time>2026-04-24T08:20:39.999Z</time></trkpt><trkpt lat="31.648167164970587" lon="-7.963714240415832"><ele>454.6666666666667</ele><time>2026-04-24T08:20:41.999Z</time></trkpt><trkpt lat="31.648176894793995" lon="-7.963631221128522"><ele>454.33333333333337</ele><time>2026-04-24T08:20:43.999Z</time></trkpt><trkpt lat="31.6481897619908" lon="-7.963554838677656"><ele>454.0</ele><time>2026-04-24T08:20:46.999Z</time></trkpt><trkpt lat="31.64822203250519" lon="-7.96343949057302"><ele>454.0</ele><time>2026-04-24T08:20:49.999Z</time></trkpt><trkpt lat="31.648247592285813" lon="-7.963287476395457"><ele>454.0</ele><time>2026-04-24T08:20:52Z</time></trkpt><trkpt lat="31.648260585136327" lon="-7.963195543183034"><ele>454.0</ele><time>2026-04-24T08:20:53Z</time></trkpt><trkpt lat="31.64827291578064" lon="-7.963090560742481"><ele>454.0</ele><time>2026-04-24T08:20:54Z</time></trkpt><trkpt lat="31.648284831141087" lon="-7.96297652458906"><ele>454.0</ele><time>2026-04-24T08:20:55Z</time></trkpt><trkpt lat="31.648295356321864" lon="-7.9628560984313435"><ele>454.0</ele><time>2026-04-24T08:20:56Z</time></trkpt><trkpt lat="31.64830456768603" lon="-7.962730910833058"><ele>454.0</ele><time>2026-04-24T08:20:57Z</time></trkpt><trkpt lat="31.648314038937716" lon="-7.962602277611507"><ele>454.0</ele><time>2026-04-24T08:20:58Z</time></trkpt><trkpt lat="31.648322839475007" lon="-7.962469375718576"><ele>454.0</ele><time>2026-04-24T08:20:59Z</time></trkpt><trkpt lat="31.648328804950605" lon="-7.962331851934022"><ele>454.0</ele><time>2026-04-24T08:21:00Z</time></trkpt><trkpt lat="31.648332522328296" lon="-7.9621928027555215"><ele>454.0</ele><time>2026-04-24T08:21:01Z</time></trkpt><trkpt lat="31.648335768514364" lon="-7.962052075690795"><ele>454.0</ele><time>2026-04-24T08:21:02Z</time></trkpt><trkpt lat="31.648337943918712" lon="-7.961906189012877"><ele>454.0</ele><time>2026-04-24T08:21:03Z</time></trkpt><trkpt lat="31.648338429880734" lon="-7.961755385464474"><ele>454.0</ele><time>2026-04-24T08:21:04Z</time></trkpt><trkpt lat="31.64833718008686" lon="-7.961594084331975"><ele>454.6666666666667</ele><time>2026-04-24T08:21:05Z</time></trkpt><trkpt lat="31.648337574301422" lon="-7.961423204023594"><ele>455.33333333333337</ele><time>2026-04-24T08:21:06Z</time></trkpt><trkpt lat="31.648337417995148" lon="-7.961247192735164"><ele>456.0</ele><time>2026-04-24T08:21:07Z</time></trkpt><trkpt lat="31.648336235139183" lon="-7.961063594921728"><ele>456.0</ele><time>2026-04-24T08:21:08Z</time></trkpt><trkpt lat="31.6483340354046" lon="-7.960876623639965"><ele>456.0</ele><time>2026-04-24T08:21:09Z</time></trkpt><trkpt lat="31.648332727255223" lon="-7.9606844974222915"><ele>456.0</ele><time>2026-04-24T08:21:10Z</time></trkpt><trkpt lat="31.648327952172238" lon="-7.960489140485706"><ele>456.0</ele><time>2026-04-24T08:21:11Z</time></trkpt><trkpt lat="31.64832182692795" lon="-7.960291551138579"><ele>456.0</ele><time>2026-04-24T08:21:12Z</time></trkpt><trkpt lat="31.648316546563404" lon="-7.9600901707143"><ele>456.0</ele><time>2026-04-24T08:21:13Z</time></trkpt><trkpt lat="31.64831277572088" lon="-7.959883628538142"><ele>456.0</ele><time>2026-04-24T08:21:14Z</time></trkpt><trkpt lat="31.648312664296192" lon="-7.959678002900849"><ele>456.0</ele><time>2026-04-24T08:21:15Z</time></trkpt><trkpt lat="31.648308772241048" lon="-7.959468822732356"><ele>456.0</ele><time>2026-04-24T08:21:16Z</time></trkpt><trkpt lat="31.648305648357237" lon="-7.959263306620767"><ele>455.66666666666663</ele><time>2026-04-24T08:21:17Z</time></trkpt><trkpt lat="31.64830339149453" lon="-7.959060115299052"><ele>455.3333333333333</ele><time>2026-04-24T08:21:18Z</time></trkpt><trkpt lat="31.648299923665693" lon="-7.9588522263401"><ele>455.0</ele><time>2026-04-24T08:21:19Z</time></trkpt><trkpt lat="31.648296398150883" lon="-7.958644362614882"><ele>455.0</ele><time>2026-04-24T08:21:20Z</time></trkpt><trkpt lat="31.648293690729766" lon="-7.95843911814897"><ele>455.0</ele><time>2026-04-24T08:21:21Z</time></trkpt><trkpt lat="31.648290930626946" lon="-7.958234737169457"><ele>455.0</ele><time>2026-04-24T08:21:22Z</time></trkpt><trkpt lat="31.648288503689983" lon="-7.9580295062159685"><ele>455.3333333333333</ele><time>2026-04-24T08:21:23Z</time></trkpt><trkpt lat="31.648287618610613" lon="-7.957824591164115"><ele>455.66666666666663</ele><time>2026-04-24T08:21:24Z</time></trkpt><trkpt lat="31.64828538421615" lon="-7.957623645423781"><ele>456.0</ele><time>2026-04-24T08:21:25Z</time></trkpt><trkpt lat="31.648283280195464" lon="-7.957426946371628"><ele>456.33333333333337</ele><time>2026-04-24T08:21:26Z</time></trkpt><trkpt lat="31.64828103121883" lon="-7.957230323825968"><ele>456.6666666666667</ele><time>2026-04-24T08:21:27Z</time></trkpt><trkpt lat="31.64827807154752" lon="-7.957028114178257"><ele>457.0</ele><time>2026-04-24T08:21:28Z</time></trkpt><trkpt lat="31.648275054194585" lon="-7.956828573519667"><ele>457.33333333333337</ele><time>2026-04-24T08:21:29Z</time></trkpt><trkpt lat="31.64827151345559" lon="-7.956628104125321"><ele>457.66666666666663</ele><time>2026-04-24T08:21:30Z</time></trkpt><trkpt lat="31.6482675121077" lon="-7.956429962842607"><ele>458.0</ele><time>2026-04-24T08:21:31Z</time></trkpt><trkpt lat="31.64826497909637" lon="-7.956233554327781"><ele>458.0</ele><time>2026-04-24T08:21:32Z</time></trkpt><trkpt lat="31.648263962852486" lon="-7.956043431781787"><ele>458.0</ele><time>2026-04-24T08:21:33Z</time></trkpt><trkpt lat="31.648261344807366" lon="-7.955856348932756"><ele>458.0</ele><time>2026-04-24T08:21:34Z</time></trkpt><trkpt lat="31.64825965160874" lon="-7.955674431993034"><ele>458.0</ele><time>2026-04-24T08:21:35Z</time></trkpt><trkpt lat="31.648255443264784" lon="-7.955494368675621"><ele>458.0</ele><time>2026-04-24T08:21:36Z</time></trkpt><trkpt lat="31.64825136638635" lon="-7.955319289500832"><ele>458.0</ele><time>2026-04-24T08:21:37Z</time></trkpt><trkpt lat="31.648249963237387" lon="-7.955143915725679"><ele>458.3333333333333</ele><time>2026-04-24T08:21:38Z</time></trkpt><trkpt lat="31.648249759813872" lon="-7.954959827355679"><ele>458.66666666666663</ele><time>2026-04-24T08:21:39Z</time></trkpt><trkpt lat="31.648250448338434" lon="-7.954767404321189"><ele>459.0</ele><time>2026-04-24T08:21:40Z</time></trkpt><trkpt lat="31.648249731966335" lon="-7.95456464931238"><ele>459.0</ele><time>2026-04-24T08:21:41Z</time></trkpt><trkpt lat="31.648247851632444" lon="-7.954351874936789"><ele>459.0</ele><time>2026-04-24T08:21:42Z</time></trkpt><trkpt lat="31.6482442101002" lon="-7.954135804832613"><ele>459.0</ele><time>2026-04-24T08:21:43Z</time></trkpt><trkpt lat="31.648238143676355" lon="-7.9539198798252295"><ele>459.0</ele><time>2026-04-24T08:21:44Z</time></trkpt><trkpt lat="31.648231781418296" lon="-7.953709701810654"><ele>459.0</ele><time>2026-04-24T08:21:45Z</time></trkpt><trkpt lat="31.648223467155958" lon="-7.953506708476259"><ele>459.0</ele><time>2026-04-24T08:21:46Z</time></trkpt><trkpt lat="31.648218317945947" lon="-7.953318138791005"><ele>459.25</ele><time>2026-04-24T08:21:47Z</time></trkpt><trkpt lat="31.648212645194043" lon="-7.953146470763317"><ele>459.5</ele><time>2026-04-24T08:21:48Z</time></trkpt><trkpt lat="31.648206537990898" lon="-7.952992819063078"><ele>459.75</ele><time>2026-04-24T08:21:49Z</time></trkpt><trkpt lat="31.648202200256378" lon="-7.9528582447153555"><ele>460.0</ele><time>2026-04-24T08:21:50Z</time></trkpt><trkpt lat="31.648197693781775" lon="-7.952740072547636"><ele>459.99999999999994</ele><time>2026-04-24T08:21:51Z</time></trkpt><trkpt lat="31.648191255166196" lon="-7.952640786728001"><ele>460.0</ele><time>2026-04-24T08:21:52Z</time></trkpt><trkpt lat="31.648182117676406" lon="-7.9525526072049395"><ele>459.99999999999994</ele><time>2026-04-24T08:21:53Z</time></trkpt><trkpt lat="31.64816662242009" lon="-7.952467659499342"><ele>459.99999999999994</ele><time>2026-04-24T08:21:54Z</time></trkpt><trkpt lat="31.64814299939018" lon="-7.952385208939929"><ele>460.0</ele><time>2026-04-24T08:21:55Z</time></trkpt><trkpt lat="31.648115226412834" lon="-7.952309437162179"><ele>459.99999999999994</ele><time>2026-04-24T08:21:56Z</time></trkpt><trkpt lat="31.648090578002943" lon="-7.952232798718598"><ele>459.99999999999994</ele><time>2026-04-24T08:21:57Z</time></trkpt><trkpt lat="31.648077040457235" lon="-7.952156331771727"><ele>460.1666666666667</ele><time>2026-04-24T08:21:58Z</time></trkpt><trkpt lat="31.64807981574311" lon="-7.952076654919761"><ele>460.33333333333337</ele><time>2026-04-24T08:21:59Z</time></trkpt><trkpt lat="31.64809668856609" lon="-7.951995232721667"><ele>460.5</ele><time>2026-04-24T08:22:00Z</time></trkpt><trkpt lat="31.64812499801326" lon="-7.951918578895424"><ele>460.66666666666663</ele><time>2026-04-24T08:22:01Z</time></trkpt><trkpt lat="31.64814869928419" lon="-7.951831580720212"><ele>460.8333333333333</ele><time>2026-04-24T08:22:02Z</time></trkpt><trkpt lat="31.64816716556469" lon="-7.951739339356503"><ele>461.0</ele><time>2026-04-24T08:22:03Z</time></trkpt><trkpt lat="31.648175932300887" lon="-7.951630904867926"><ele>461.25</ele><time>2026-04-24T08:22:04Z</time></trkpt><trkpt lat="31.648180756810145" lon="-7.951513757682693"><ele>461.5</ele><time>2026-04-24T08:22:05Z</time></trkpt><trkpt lat="31.648182924302613" lon="-7.951385592971748"><ele>461.75</ele><time>2026-04-24T08:22:06Z</time></trkpt><trkpt lat="31.64818182448818" lon="-7.951242665921903"><ele>462.0</ele><time>2026-04-24T08:22:07Z</time></trkpt><trkpt lat="31.648179299504086" lon="-7.951087864845494"><ele>462.0</ele><time>2026-04-24T08:22:08Z</time></trkpt><trkpt lat="31.64817774404166" lon="-7.950920943924283"><ele>462.0</ele><time>2026-04-24T08:22:09Z</time></trkpt><trkpt lat="31.648177538408586" lon="-7.950747539954697"><ele>462.0</ele><time>2026-04-24T08:22:10Z</time></trkpt><trkpt lat="31.64817651265602" lon="-7.950566815973531"><ele>462.0</ele><time>2026-04-24T08:22:11Z</time></trkpt><trkpt lat="31.6481741997306" lon="-7.950374562136433"><ele>461.66666666666663</ele><time>2026-04-24T08:22:12Z</time></trkpt><trkpt lat="31.648171168861804" lon="-7.950175552511528"><ele>461.3333333333333</ele><time>2026-04-24T08:22:13Z</time></trkpt><trkpt lat="31.6481673121798" lon="-7.949977852606705"><ele>461.0</ele><time>2026-04-24T08:22:14Z</time></trkpt><trkpt lat="31.648163371644376" lon="-7.949785312347552"><ele>460.66666666666663</ele><time>2026-04-24T08:22:15Z</time></trkpt><trkpt lat="31.648159108729033" lon="-7.949598005378273"><ele>460.33333333333337</ele><time>2026-04-24T08:22:16Z</time></trkpt><trkpt lat="31.648154559494007" lon="-7.949416318767336"><ele>460.0</ele><time>2026-04-24T08:22:17Z</time></trkpt><trkpt lat="31.648147677532467" lon="-7.949240793432838"><ele>460.25</ele><time>2026-04-24T08:22:18Z</time></trkpt><trkpt lat="31.648141408316988" lon="-7.949072648259117"><ele>460.5</ele><time>2026-04-24T08:22:18.999Z</time></trkpt><trkpt lat="31.64813468484327" lon="-7.948905056285342"><ele>460.75</ele><time>2026-04-24T08:22:19.999Z</time></trkpt><trkpt lat="31.64813029206133" lon="-7.948742182888546"><ele>461.0</ele><time>2026-04-24T08:22:20.999Z</time></trkpt><trkpt lat="31.648124218001612" lon="-7.948579875421436"><ele>460.99999999999994</ele><time>2026-04-24T08:22:21.999Z</time></trkpt><trkpt lat="31.648124200021822" lon="-7.948442403102833"><ele>461.0</ele><time>2026-04-24T08:22:22.999Z</time></trkpt><trkpt lat="31.64812474716682" lon="-7.948332273384699"><ele>461.0</ele><time>2026-04-24T08:22:23.999Z</time></trkpt><trkpt lat="31.648125090141157" lon="-7.948257133923952"><ele>461.0</ele><time>2026-04-24T08:22:24.999Z</time></trkpt><trkpt lat="31.64812834918752" lon="-7.948136125847937"><ele>460.99999999999994</ele><time>2026-04-24T08:22:26.999Z</time></trkpt><trkpt lat="31.64813369387335" lon="-7.948058304113185"><ele>461.0</ele><time>2026-04-24T08:22:27.999Z</time></trkpt><trkpt lat="31.64813708548257" lon="-7.947949243061602"><ele>461.0</ele><time>2026-04-24T08:22:28.999Z</time></trkpt><trkpt lat="31.64813545413799" lon="-7.947817415980035"><ele>461.0</ele><time>2026-04-24T08:22:29.999Z</time></trkpt><trkpt lat="31.648135141790746" lon="-7.94766250687705"><ele>461.0</ele><time>2026-04-24T08:22:30.999Z</time></trkpt><trkpt lat="31.648135206986797" lon="-7.947484417896348"><ele>461.0</ele><time>2026-04-24T08:22:31.999Z</time></trkpt><trkpt lat="31.64813261937722" lon="-7.947272478642606"><ele>461.0</ele><time>2026-04-24T08:22:32.999Z</time></trkpt><trkpt lat="31.648126669913182" lon="-7.94705700482427"><ele>461.0</ele><time>2026-04-24T08:22:33.999Z</time></trkpt><trkpt lat="31.648122517721863" lon="-7.946859417135243"><ele>461.0</ele><time>2026-04-24T08:22:34.999Z</time></trkpt><trkpt lat="31.6481170644673" lon="-7.946677181159317"><ele>461.75</ele><time>2026-04-24T08:22:35.999Z</time></trkpt><trkpt lat="31.64811251826578" lon="-7.946502793148204"><ele>462.5</ele><time>2026-04-24T08:22:36.999Z</time></trkpt><trkpt lat="31.6481108696838" lon="-7.946339881663241"><ele>463.25</ele><time>2026-04-24T08:22:37.999Z</time></trkpt><trkpt lat="31.648108058717582" lon="-7.946189817359744"><ele>464.0</ele><time>2026-04-24T08:22:38.999Z</time></trkpt><trkpt lat="31.64810648460296" lon="-7.946050006010286"><ele>464.0</ele><time>2026-04-24T08:22:39.999Z</time></trkpt><trkpt lat="31.648103648846956" lon="-7.945917749697542"><ele>464.0</ele><time>2026-04-24T08:22:40.999Z</time></trkpt><trkpt lat="31.648100137033666" lon="-7.945790479437556"><ele>464.0</ele><time>2026-04-24T08:22:41.999Z</time></trkpt><trkpt lat="31.64809468873112" lon="-7.945658443714734"><ele>464.0</ele><time>2026-04-24T08:22:42.999Z</time></trkpt><trkpt lat="31.648089127381628" lon="-7.945522961177188"><ele>464.0</ele><time>2026-04-24T08:22:43.999Z</time></trkpt><trkpt lat="31.64808537225668" lon="-7.945387094022258"><ele>464.0</ele><time>2026-04-24T08:22:44.999Z</time></trkpt><trkpt lat="31.64808318095678" lon="-7.94525127445646"><ele>464.0</ele><time>2026-04-24T08:22:45.999Z</time></trkpt><trkpt lat="31.648080101802808" lon="-7.945116888062997"><ele>464.0</ele><time>2026-04-24T08:22:46.999Z</time></trkpt><trkpt lat="31.64807835644581" lon="-7.944983704673614"><ele>464.0</ele><time>2026-04-24T08:22:47.999Z</time></trkpt><trkpt lat="31.648075413231645" lon="-7.9448510065614535"><ele>464.0</ele><time>2026-04-24T08:22:48.999Z</time></trkpt><trkpt lat="31.648071933195116" lon="-7.944717736997848"><ele>464.0</ele><time>2026-04-24T08:22:49.999Z</time></trkpt><trkpt lat="31.6480704583517" lon="-7.944585840365182"><ele>464.0</ele><time>2026-04-24T08:22:50.999Z</time></trkpt><trkpt lat="31.6480697278272" lon="-7.944451085590693"><ele>464.0</ele><time>2026-04-24T08:22:51.999Z</time></trkpt><trkpt lat="31.6480713637641" lon="-7.944309710671147"><ele>464.0</ele><time>2026-04-24T08:22:52.999Z</time></trkpt><trkpt lat="31.6480718890212" lon="-7.944160235718312"><ele>464.0</ele><time>2026-04-24T08:22:53.999Z</time></trkpt><trkpt lat="31.648066224771494" lon="-7.9439996152241195"><ele>464.0</ele><time>2026-04-24T08:22:54.999Z</time></trkpt><trkpt lat="31.6480634746743" lon="-7.943832004118008"><ele>464.0</ele><time>2026-04-24T08:22:55.999Z</time></trkpt><trkpt lat="31.648061772209104" lon="-7.943661748537083"><ele>464.0</ele><time>2026-04-24T08:22:56.999Z</time></trkpt><trkpt lat="31.648059573596626" lon="-7.943488695452848"><ele>464.0</ele><time>2026-04-24T08:22:58Z</time></trkpt><trkpt lat="31.64805423247131" lon="-7.943312113194931"><ele>464.0</ele><time>2026-04-24T08:22:59Z</time></trkpt><trkpt lat="31.64805047001308" lon="-7.943135231703164"><ele>464.0</ele><time>2026-04-24T08:23:00Z</time></trkpt><trkpt lat="31.648048335994662" lon="-7.942962835040963"><ele>464.0</ele><time>2026-04-24T08:23:01Z</time></trkpt><trkpt lat="31.648045260130065" lon="-7.94279936760105"><ele>464.0</ele><time>2026-04-24T08:23:02Z</time></trkpt><trkpt lat="31.648041085274297" lon="-7.94264275519946"><ele>464.0</ele><time>2026-04-24T08:23:03Z</time></trkpt><trkpt lat="31.648036242578748" lon="-7.942490745349568"><ele>464.0</ele><time>2026-04-24T08:23:04Z</time></trkpt><trkpt lat="31.64803060138321" lon="-7.942339516042521"><ele>464.25</ele><time>2026-04-24T08:23:05Z</time></trkpt><trkpt lat="31.64802564655549" lon="-7.942192427335023"><ele>464.5</ele><time>2026-04-24T08:23:06Z</time></trkpt><trkpt lat="31.648019249034537" lon="-7.942045165025949"><ele>464.75</ele><time>2026-04-24T08:23:07Z</time></trkpt><trkpt lat="31.648014024198304" lon="-7.941890425776413"><ele>465.0</ele><time>2026-04-24T08:23:08Z</time></trkpt><trkpt lat="31.648007053882054" lon="-7.941727193415795"><ele>464.75</ele><time>2026-04-24T08:23:09Z</time></trkpt><trkpt lat="31.64800345193599" lon="-7.941559911251728"><ele>464.5</ele><time>2026-04-24T08:23:10Z</time></trkpt><trkpt lat="31.648000505032343" lon="-7.941396154578883"><ele>464.25</ele><time>2026-04-24T08:23:11Z</time></trkpt><trkpt lat="31.64799602170537" lon="-7.941222233246992"><ele>464.0</ele><time>2026-04-24T08:23:12Z</time></trkpt><trkpt lat="31.647987306226636" lon="-7.9410090873609045"><ele>464.66666666666663</ele><time>2026-04-24T08:23:13Z</time></trkpt><trkpt lat="31.647983521918388" lon="-7.9407844833880965"><ele>465.33333333333337</ele><time>2026-04-24T08:23:14Z</time></trkpt><trkpt lat="31.647982738575788" lon="-7.940556272948855"><ele>466.0</ele><time>2026-04-24T08:23:15Z</time></trkpt><trkpt lat="31.647983078309153" lon="-7.940331589397614"><ele>466.0</ele><time>2026-04-24T08:23:16Z</time></trkpt><trkpt lat="31.647985777196062" lon="-7.940107540475708"><ele>466.0</ele><time>2026-04-24T08:23:17Z</time></trkpt><trkpt lat="31.647988816228573" lon="-7.939883590349957"><ele>466.0</ele><time>2026-04-24T08:23:18Z</time></trkpt><trkpt lat="31.647991904255417" lon="-7.939643944406034"><ele>465.33333333333337</ele><time>2026-04-24T08:23:19Z</time></trkpt><trkpt lat="31.64799043344185" lon="-7.939393985864476"><ele>464.66666666666663</ele><time>2026-04-24T08:23:20Z</time></trkpt><trkpt lat="31.64798755033501" lon="-7.939133575204619"><ele>464.0</ele><time>2026-04-24T08:23:21Z</time></trkpt><trkpt lat="31.647982860510215" lon="-7.938875718447136"><ele>464.0</ele><time>2026-04-24T08:23:22Z</time></trkpt><trkpt lat="31.64797565998415" lon="-7.938621966441382"><ele>464.0</ele><time>2026-04-24T08:23:23Z</time></trkpt><trkpt lat="31.647970826100714" lon="-7.938370534112225"><ele>464.0</ele><time>2026-04-24T08:23:24Z</time></trkpt><trkpt lat="31.64796488428418" lon="-7.9381236248745894"><ele>463.3333333333333</ele><time>2026-04-24T08:23:25Z</time></trkpt><trkpt lat="31.647958726348598" lon="-7.937880308996386"><ele>462.66666666666663</ele><time>2026-04-24T08:23:26Z</time></trkpt><trkpt lat="31.647954667902226" lon="-7.937641066460412"><ele>462.0</ele><time>2026-04-24T08:23:27Z</time></trkpt><trkpt lat="31.647950612883047" lon="-7.937408259766483"><ele>462.0</ele><time>2026-04-24T08:23:28Z</time></trkpt><trkpt lat="31.64794673231908" lon="-7.937180010024381"><ele>462.0</ele><time>2026-04-24T08:23:29Z</time></trkpt><trkpt lat="31.64794338029863" lon="-7.936958896679502"><ele>462.0</ele><time>2026-04-24T08:23:30Z</time></trkpt><trkpt lat="31.64793999452521" lon="-7.936744676385511"><ele>462.33333333333337</ele><time>2026-04-24T08:23:31Z</time></trkpt><trkpt lat="31.64793784496517" lon="-7.936525711665994"><ele>462.6666666666667</ele><time>2026-04-24T08:23:32Z</time></trkpt><trkpt lat="31.647934646006988" lon="-7.936302580650981"><ele>463.0</ele><time>2026-04-24T08:23:33Z</time></trkpt><trkpt lat="31.647933929243703" lon="-7.936081568646431"><ele>463.0</ele><time>2026-04-24T08:23:34Z</time></trkpt><trkpt lat="31.647929401428062" lon="-7.935869519419849"><ele>463.0</ele><time>2026-04-24T08:23:35Z</time></trkpt><trkpt lat="31.647920585655637" lon="-7.935662443988655"><ele>463.0</ele><time>2026-04-24T08:23:36Z</time></trkpt><trkpt lat="31.647912429572443" lon="-7.935457001696833"><ele>463.0</ele><time>2026-04-24T08:23:37Z</time></trkpt><trkpt lat="31.64790570434767" lon="-7.935256485756648"><ele>463.0</ele><time>2026-04-24T08:23:38Z</time></trkpt><trkpt lat="31.647899886432178" lon="-7.93505597811508"><ele>463.0</ele><time>2026-04-24T08:23:39Z</time></trkpt><trkpt lat="31.64789324229611" lon="-7.93485597817785"><ele>462.6666666666667</ele><time>2026-04-24T08:23:40Z</time></trkpt><trkpt lat="31.64788940801437" lon="-7.934656480600174"><ele>462.33333333333337</ele><time>2026-04-24T08:23:41Z</time></trkpt><trkpt lat="31.647887524790182" lon="-7.934455245615178"><ele>462.0</ele><time>2026-04-24T08:23:42Z</time></trkpt><trkpt lat="31.647883714125044" lon="-7.934252067016513"><ele>462.0</ele><time>2026-04-24T08:23:43Z</time></trkpt><trkpt lat="31.64787957256834" lon="-7.9340460282633645"><ele>462.0</ele><time>2026-04-24T08:23:44Z</time></trkpt><trkpt lat="31.647875727372053" lon="-7.933839361932142"><ele>462.0</ele><time>2026-04-24T08:23:45Z</time></trkpt><trkpt lat="31.647872960790867" lon="-7.933633644152231"><ele>462.0</ele><time>2026-04-24T08:23:46Z</time></trkpt><trkpt lat="31.647870732837415" lon="-7.933431595019796"><ele>462.0</ele><time>2026-04-24T08:23:47Z</time></trkpt><trkpt lat="31.647868499996683" lon="-7.933235437635315"><ele>462.0</ele><time>2026-04-24T08:23:48Z</time></trkpt><trkpt lat="31.64786705592324" lon="-7.933037552796903"><ele>462.33333333333337</ele><time>2026-04-24T08:23:49Z</time></trkpt><trkpt lat="31.647864631070906" lon="-7.93284157752821"><ele>462.6666666666667</ele><time>2026-04-24T08:23:50Z</time></trkpt><trkpt lat="31.647860361048064" lon="-7.932647842574096"><ele>463.0</ele><time>2026-04-24T08:23:51Z</time></trkpt><trkpt lat="31.647858800139417" lon="-7.932459455120723"><ele>463.25</ele><time>2026-04-24T08:23:52Z</time></trkpt><trkpt lat="31.64785656021236" lon="-7.932283418842481"><ele>463.5</ele><time>2026-04-24T08:23:53Z</time></trkpt><trkpt lat="31.647854183758664" lon="-7.93211776196241"><ele>463.75</ele><time>2026-04-24T08:23:54Z</time></trkpt><trkpt lat="31.647853902178788" lon="-7.931955055513468"><ele>464.0</ele><time>2026-04-24T08:23:55Z</time></trkpt><trkpt lat="31.64785403740537" lon="-7.931795018760085"><ele>463.75</ele><time>2026-04-24T08:23:56Z</time></trkpt><trkpt lat="31.64785330674564" lon="-7.931632702283782"><ele>463.5</ele><time>2026-04-24T08:23:57Z</time></trkpt><trkpt lat="31.64785412028556" lon="-7.931465126539362"><ele>463.25</ele><time>2026-04-24T08:23:58Z</time></trkpt><trkpt lat="31.647853715940748" lon="-7.931293409384921"><ele>463.0</ele><time>2026-04-24T08:23:59Z</time></trkpt><trkpt lat="31.647850623145114" lon="-7.931116116372597"><ele>463.0</ele><time>2026-04-24T08:24:00Z</time></trkpt><trkpt lat="31.64784425331162" lon="-7.930940910617956"><ele>463.0</ele><time>2026-04-24T08:24:01Z</time></trkpt><trkpt lat="31.647837839437493" lon="-7.930770680077775"><ele>463.0</ele><time>2026-04-24T08:24:02Z</time></trkpt><trkpt lat="31.647831251600167" lon="-7.930604873030058"><ele>463.0</ele><time>2026-04-24T08:24:03Z</time></trkpt><trkpt lat="31.647824142979704" lon="-7.930452487535357"><ele>463.2</ele><time>2026-04-24T08:24:04Z</time></trkpt><trkpt lat="31.647814666417588" lon="-7.9303143319063665"><ele>463.4</ele><time>2026-04-24T08:24:05Z</time></trkpt><trkpt lat="31.647805130399433" lon="-7.930191636136244"><ele>463.59999999999997</ele><time>2026-04-24T08:24:06Z</time></trkpt><trkpt lat="31.647794022427682" lon="-7.93008652372463"><ele>463.79999999999995</ele><time>2026-04-24T08:24:07Z</time></trkpt><trkpt lat="31.64778314350126" lon="-7.929997449924754"><ele>464.0</ele><time>2026-04-24T08:24:08Z</time></trkpt><trkpt lat="31.64776658801004" lon="-7.929920061654464"><ele>463.99999999999994</ele><time>2026-04-24T08:24:09Z</time></trkpt><trkpt lat="31.647735100827195" lon="-7.929838875161151"><ele>464.0</ele><time>2026-04-24T08:24:10Z</time></trkpt><trkpt lat="31.64768597829781" lon="-7.929756995806674"><ele>464.0</ele><time>2026-04-24T08:24:11Z</time></trkpt><trkpt lat="31.647623869052065" lon="-7.929681246659096"><ele>464.0</ele><time>2026-04-24T08:24:12Z</time></trkpt><trkpt lat="31.647561973402663" lon="-7.929621432073286"><ele>463.99999999999994</ele><time>2026-04-24T08:24:13Z</time></trkpt><trkpt lat="31.647504119028003" lon="-7.929579195190498"><ele>464.0</ele><time>2026-04-24T08:24:14Z</time></trkpt><trkpt lat="31.64743292856595" lon="-7.929544840631903"><ele>464.0</ele><time>2026-04-24T08:24:15Z</time></trkpt><trkpt lat="31.647349676164353" lon="-7.929515892829681"><ele>464.0</ele><time>2026-04-24T08:24:16Z</time></trkpt><trkpt lat="31.647258006933228" lon="-7.92949018595316"><ele>464.0</ele><time>2026-04-24T08:24:17Z</time></trkpt><trkpt lat="31.647152955421554" lon="-7.929463506432996"><ele>464.0</ele><time>2026-04-24T08:24:18Z</time></trkpt><trkpt lat="31.64704006709684" lon="-7.929427548054152"><ele>464.0</ele><time>2026-04-24T08:24:18.999Z</time></trkpt><trkpt lat="31.646914300878546" lon="-7.929388125191766"><ele>464.3333333333333</ele><time>2026-04-24T08:24:19.999Z</time></trkpt><trkpt lat="31.64677748501696" lon="-7.929345993847595"><ele>464.66666666666663</ele><time>2026-04-24T08:24:20.999Z</time></trkpt><trkpt lat="31.646632214893717" lon="-7.929299069235734"><ele>465.0</ele><time>2026-04-24T08:24:21.999Z</time></trkpt><trkpt lat="31.64647973064487" lon="-7.929248517849143"><ele>465.0</ele><time>2026-04-24T08:24:22.999Z</time></trkpt><trkpt lat="31.64632147800878" lon="-7.929193764126725"><ele>465.0</ele><time>2026-04-24T08:24:23.999Z</time></trkpt><trkpt lat="31.646159907170254" lon="-7.92913471878744"><ele>465.0</ele><time>2026-04-24T08:24:24.999Z</time></trkpt><trkpt lat="31.64598864954702" lon="-7.9290684025368074"><ele>465.0</ele><time>2026-04-24T08:24:25.999Z</time></trkpt><trkpt lat="31.64580708369777" lon="-7.929002335150956"><ele>465.0</ele><time>2026-04-24T08:24:26.999Z</time></trkpt><trkpt lat="31.645602354065662" lon="-7.928870468410487"><ele>465.0</ele><time>2026-04-24T08:24:27.999Z</time></trkpt><trkpt lat="31.645377349498926" lon="-7.928715896117357"><ele>466.0</ele><time>2026-04-24T08:24:28.999Z</time></trkpt><trkpt lat="31.645148026766268" lon="-7.92855875562449"><ele>467.0</ele><time>2026-04-24T08:24:29.999Z</time></trkpt><trkpt lat="31.644934601488565" lon="-7.928413989739503"><ele>467.3333333333333</ele><time>2026-04-24T08:24:30.999Z</time></trkpt><trkpt lat="31.644737067769803" lon="-7.9282796435588185"><ele>467.66666666666663</ele><time>2026-04-24T08:24:31.999Z</time></trkpt><trkpt lat="31.64455238388989" lon="-7.9281552293709865"><ele>468.0</ele><time>2026-04-24T08:24:32.999Z</time></trkpt><trkpt lat="31.644380127908985" lon="-7.928041128039509"><ele>468.0</ele><time>2026-04-24T08:24:33.999Z</time></trkpt><trkpt lat="31.644218176211155" lon="-7.9279327486884945"><ele>468.0</ele><time>2026-04-24T08:24:34.999Z</time></trkpt><trkpt lat="31.644054409763534" lon="-7.927823512517904"><ele>468.0</ele><time>2026-04-24T08:24:35.999Z</time></trkpt><trkpt lat="31.643888552854285" lon="-7.9277136707783775"><ele>468.0</ele><time>2026-04-24T08:24:36.999Z</time></trkpt><trkpt lat="31.64372435484917" lon="-7.927603172798029"><ele>468.0</ele><time>2026-04-24T08:24:37.999Z</time></trkpt><trkpt lat="31.643551551671415" lon="-7.9274797692925345"><ele>468.0</ele><time>2026-04-24T08:24:38.999Z</time></trkpt><trkpt lat="31.64337979115461" lon="-7.92735780986862"><ele>468.0</ele><time>2026-04-24T08:24:39.999Z</time></trkpt><trkpt lat="31.64320600640361" lon="-7.927235118052614"><ele>468.0</ele><time>2026-04-24T08:24:40.999Z</time></trkpt><trkpt lat="31.643035371488114" lon="-7.9271143332687615"><ele>468.0</ele><time>2026-04-24T08:24:41.999Z</time></trkpt><trkpt lat="31.64286838048061" lon="-7.926997733478405"><ele>467.66666666666663</ele><time>2026-04-24T08:24:42.999Z</time></trkpt><trkpt lat="31.642706586049087" lon="-7.926888979583152"><ele>467.3333333333333</ele><time>2026-04-24T08:24:43.999Z</time></trkpt><trkpt lat="31.642547420118735" lon="-7.926785075359409"><ele>467.0</ele><time>2026-04-24T08:24:44.999Z</time></trkpt><trkpt lat="31.642391645989992" lon="-7.926676301530997"><ele>468.0</ele><time>2026-04-24T08:24:45.999Z</time></trkpt><trkpt lat="31.642233516766147" lon="-7.9265652168686245"><ele>469.0</ele><time>2026-04-24T08:24:46.999Z</time></trkpt><trkpt lat="31.6420731893962" lon="-7.926458777101127"><ele>470.0</ele><time>2026-04-24T08:24:47.999Z</time></trkpt><trkpt lat="31.641909829501316" lon="-7.92634436023558"><ele>470.0</ele><time>2026-04-24T08:24:48.999Z</time></trkpt><trkpt lat="31.64174194041596" lon="-7.926228563456663"><ele>470.0</ele><time>2026-04-24T08:24:49.999Z</time></trkpt><trkpt lat="31.64156832172433" lon="-7.926114302373775"><ele>470.0</ele><time>2026-04-24T08:24:50.999Z</time></trkpt><trkpt lat="31.64139079137117" lon="-7.925994332368012"><ele>470.0</ele><time>2026-04-24T08:24:51.999Z</time></trkpt><trkpt lat="31.64121088980483" lon="-7.9258709046358655"><ele>470.0</ele><time>2026-04-24T08:24:52.999Z</time></trkpt><trkpt lat="31.641028143739888" lon="-7.925745385199872"><ele>470.0</ele><time>2026-04-24T08:24:53.999Z</time></trkpt><trkpt lat="31.640842686649894" lon="-7.925620034461025"><ele>470.3333333333333</ele><time>2026-04-24T08:24:54.999Z</time></trkpt><trkpt lat="31.640654232423195" lon="-7.925492645236438"><ele>470.66666666666663</ele><time>2026-04-24T08:24:55.999Z</time></trkpt><trkpt lat="31.640463658055037" lon="-7.92536261186981"><ele>471.0</ele><time>2026-04-24T08:24:56.999Z</time></trkpt><trkpt lat="31.64027458832946" lon="-7.925230840233471"><ele>471.0</ele><time>2026-04-24T08:24:57.999Z</time></trkpt><trkpt lat="31.640079269322573" lon="-7.925096668872524"><ele>471.0</ele><time>2026-04-24T08:24:58.999Z</time></trkpt><trkpt lat="31.639882114138654" lon="-7.924960416674936"><ele>471.0</ele><time>2026-04-24T08:24:59.999Z</time></trkpt><trkpt lat="31.639684882334265" lon="-7.924824778197402"><ele>471.0</ele><time>2026-04-24T08:25:00.999Z</time></trkpt><trkpt lat="31.639489112439588" lon="-7.924689093210196"><ele>471.0</ele><time>2026-04-24T08:25:01.999Z</time></trkpt><trkpt lat="31.639295625097073" lon="-7.924553998656355"><ele>471.0</ele><time>2026-04-24T08:25:02.999Z</time></trkpt><trkpt lat="31.639101271910693" lon="-7.924420601208655"><ele>471.0</ele><time>2026-04-24T08:25:04Z</time></trkpt><trkpt lat="31.638907553763215" lon="-7.924288434071044"><ele>471.0</ele><time>2026-04-24T08:25:05Z</time></trkpt><trkpt lat="31.63871537488736" lon="-7.92415600462822"><ele>471.0</ele><time>2026-04-24T08:25:06Z</time></trkpt><trkpt lat="31.638524284565786" lon="-7.924025181516596"><ele>471.0</ele><time>2026-04-24T08:25:07Z</time></trkpt><trkpt lat="31.63833050249133" lon="-7.923893069383552"><ele>471.0</ele><time>2026-04-24T08:25:08Z</time></trkpt><trkpt lat="31.63813411520136" lon="-7.923759576387994"><ele>471.0</ele><time>2026-04-24T08:25:09Z</time></trkpt><trkpt lat="31.637936511262886" lon="-7.923625162810602"><ele>471.0</ele><time>2026-04-24T08:25:10Z</time></trkpt><trkpt lat="31.63773749246578" lon="-7.923490497259597"><ele>470.0</ele><time>2026-04-24T08:25:11Z</time></trkpt><trkpt lat="31.637539480640278" lon="-7.923356706314004"><ele>469.0</ele><time>2026-04-24T08:25:12Z</time></trkpt><trkpt lat="31.63734367438834" lon="-7.923223261441836"><ele>469.0</ele><time>2026-04-24T08:25:13Z</time></trkpt><trkpt lat="31.637148993589022" lon="-7.9230900003001015"><ele>469.0</ele><time>2026-04-24T08:25:14Z</time></trkpt><trkpt lat="31.636956436600705" lon="-7.922957923942572"><ele>469.0</ele><time>2026-04-24T08:25:15Z</time></trkpt><trkpt lat="31.636765352938436" lon="-7.922826420678507"><ele>469.33333333333337</ele><time>2026-04-24T08:25:16Z</time></trkpt><trkpt lat="31.636573465791905" lon="-7.922693856294786"><ele>469.66666666666663</ele><time>2026-04-24T08:25:17Z</time></trkpt><trkpt lat="31.63638193212501" lon="-7.922562994326062"><ele>470.0</ele><time>2026-04-24T08:25:18Z</time></trkpt><trkpt lat="31.636195234029643" lon="-7.9224350587450445"><ele>470.3333333333333</ele><time>2026-04-24T08:25:19Z</time></trkpt><trkpt lat="31.636013690372067" lon="-7.922309155773512"><ele>470.66666666666663</ele><time>2026-04-24T08:25:20Z</time></trkpt><trkpt lat="31.635833512305144" lon="-7.922184441980978"><ele>471.0</ele><time>2026-04-24T08:25:21Z</time></trkpt><trkpt lat="31.635650293190963" lon="-7.922060752514588"><ele>471.0</ele><time>2026-04-24T08:25:22Z</time></trkpt><trkpt lat="31.63547242860672" lon="-7.9219398154555325"><ele>471.0</ele><time>2026-04-24T08:25:23Z</time></trkpt><trkpt lat="31.635302537274676" lon="-7.921822887197233"><ele>471.0</ele><time>2026-04-24T08:25:24Z</time></trkpt><trkpt lat="31.635136428722927" lon="-7.921710158494794"><ele>471.0</ele><time>2026-04-24T08:25:25Z</time></trkpt><trkpt lat="31.634971754786335" lon="-7.921596561893192"><ele>471.0</ele><time>2026-04-24T08:25:26Z</time></trkpt><trkpt lat="31.634811674682865" lon="-7.921485531280248"><ele>471.0</ele><time>2026-04-24T08:25:27Z</time></trkpt><trkpt lat="31.634656542447626" lon="-7.921382666033047"><ele>471.0</ele><time>2026-04-24T08:25:28Z</time></trkpt><trkpt lat="31.634510060418872" lon="-7.921287526684083"><ele>471.0</ele><time>2026-04-24T08:25:29Z</time></trkpt><trkpt lat="31.63437619079792" lon="-7.921198123070617"><ele>471.0</ele><time>2026-04-24T08:25:30Z</time></trkpt><trkpt lat="31.634255383962508" lon="-7.921116237857583"><ele>471.0</ele><time>2026-04-24T08:25:31Z</time></trkpt><trkpt lat="31.634146835597775" lon="-7.921045537164743"><ele>471.0</ele><time>2026-04-24T08:25:32Z</time></trkpt><trkpt lat="31.634049463154106" lon="-7.920985021978037"><ele>471.0</ele><time>2026-04-24T08:25:33Z</time></trkpt><trkpt lat="31.633956741680127" lon="-7.920943906416754"><ele>471.0</ele><time>2026-04-24T08:25:34Z</time></trkpt><trkpt lat="31.63386711009865" lon="-7.9209273772069695"><ele>471.0</ele><time>2026-04-24T08:25:35Z</time></trkpt><trkpt lat="31.633776169333125" lon="-7.920913210393688"><ele>471.0</ele><time>2026-04-24T08:25:36Z</time></trkpt><trkpt lat="31.633695736650086" lon="-7.920862580265009"><ele>471.0</ele><time>2026-04-24T08:25:37Z</time></trkpt><trkpt lat="31.63361264998666" lon="-7.920781122143395"><ele>471.0</ele><time>2026-04-24T08:25:38Z</time></trkpt><trkpt lat="31.633517773653526" lon="-7.920683426429621"><ele>471.0</ele><time>2026-04-24T08:25:39Z</time></trkpt><trkpt lat="31.633402249068464" lon="-7.920587033042909"><ele>471.0</ele><time>2026-04-24T08:25:40Z</time></trkpt><trkpt lat="31.633270677299937" lon="-7.920492985247138"><ele>471.0</ele><time>2026-04-24T08:25:41Z</time></trkpt><trkpt lat="31.633125538237625" lon="-7.920396547732526"><ele>471.0</ele><time>2026-04-24T08:25:42Z</time></trkpt><trkpt lat="31.632971239793566" lon="-7.920289999334768"><ele>471.0</ele><time>2026-04-24T08:25:43Z</time></trkpt><trkpt lat="31.632808850356657" lon="-7.920176728013088"><ele>471.0</ele><time>2026-04-24T08:25:44Z</time></trkpt><trkpt lat="31.632643773911017" lon="-7.920061723458837"><ele>471.0</ele><time>2026-04-24T08:25:45Z</time></trkpt><trkpt lat="31.632481125883505" lon="-7.919950991981488"><ele>471.33333333333337</ele><time>2026-04-24T08:25:46Z</time></trkpt><trkpt lat="31.632307397077525" lon="-7.919831249973948"><ele>471.6666666666667</ele><time>2026-04-24T08:25:47Z</time></trkpt><trkpt lat="31.63212720338579" lon="-7.919706197076683"><ele>472.0</ele><time>2026-04-24T08:25:48Z</time></trkpt><trkpt lat="31.6319423054287" lon="-7.91957777152206"><ele>473.0</ele><time>2026-04-24T08:25:49Z</time></trkpt><trkpt lat="31.631756449845607" lon="-7.9194490373805495"><ele>474.0</ele><time>2026-04-24T08:25:50Z</time></trkpt><trkpt lat="31.631566627550175" lon="-7.919318380631287"><ele>475.0</ele><time>2026-04-24T08:25:51Z</time></trkpt><trkpt lat="31.63137451493927" lon="-7.919185512279481"><ele>475.0</ele><time>2026-04-24T08:25:52Z</time></trkpt><trkpt lat="31.631179528186216" lon="-7.919050606376949"><ele>475.0</ele><time>2026-04-24T08:25:53Z</time></trkpt><trkpt lat="31.630988015464734" lon="-7.91891912448216"><ele>475.0</ele><time>2026-04-24T08:25:54Z</time></trkpt><trkpt lat="31.630795399722704" lon="-7.918787644911597"><ele>474.5</ele><time>2026-04-24T08:25:55Z</time></trkpt><trkpt lat="31.630598005095695" lon="-7.918651212912893"><ele>474.0</ele><time>2026-04-24T08:25:56Z</time></trkpt><trkpt lat="31.630398782659118" lon="-7.918512762062049"><ele>473.5</ele><time>2026-04-24T08:25:57Z</time></trkpt><trkpt lat="31.63020392465674" lon="-7.918375483747733"><ele>473.0</ele><time>2026-04-24T08:25:58Z</time></trkpt><trkpt lat="31.63001182693964" lon="-7.918241600874695"><ele>473.0</ele><time>2026-04-24T08:25:59Z</time></trkpt><trkpt lat="31.629824160151504" lon="-7.918111530010729"><ele>473.0</ele><time>2026-04-24T08:26:00Z</time></trkpt><trkpt lat="31.629639513694602" lon="-7.917982196386257"><ele>473.0</ele><time>2026-04-24T08:26:01Z</time></trkpt><trkpt lat="31.629457315417824" lon="-7.917852399422092"><ele>473.0</ele><time>2026-04-24T08:26:02Z</time></trkpt><trkpt lat="31.629272134462862" lon="-7.917720370792909"><ele>473.0</ele><time>2026-04-24T08:26:03Z</time></trkpt><trkpt lat="31.629086488083942" lon="-7.917589255181114"><ele>473.0</ele><time>2026-04-24T08:26:04Z</time></trkpt><trkpt lat="31.62890189346238" lon="-7.917460786059692"><ele>473.66666666666663</ele><time>2026-04-24T08:26:05Z</time></trkpt><trkpt lat="31.628721287774543" lon="-7.917335561286849"><ele>474.33333333333337</ele><time>2026-04-24T08:26:06Z</time></trkpt><trkpt lat="31.628546789335047" lon="-7.917215842280856"><ele>475.0</ele><time>2026-04-24T08:26:07Z</time></trkpt><trkpt lat="31.628380053536272" lon="-7.917101156104248"><ele>475.33333333333337</ele><time>2026-04-24T08:26:08Z</time></trkpt><trkpt lat="31.628221609064262" lon="-7.916991312491973"><ele>475.66666666666663</ele><time>2026-04-24T08:26:09Z</time></trkpt><trkpt lat="31.628074410465846" lon="-7.916889640852353"><ele>476.0</ele><time>2026-04-24T08:26:10Z</time></trkpt><trkpt lat="31.627931212026798" lon="-7.916791688898361"><ele>476.5</ele><time>2026-04-24T08:26:11Z</time></trkpt><trkpt lat="31.62779423916818" lon="-7.916702380823988"><ele>477.0</ele><time>2026-04-24T08:26:12Z</time></trkpt><trkpt lat="31.627669549648147" lon="-7.916613882861461"><ele>477.5</ele><time>2026-04-24T08:26:13Z</time></trkpt><trkpt lat="31.6275534109409" lon="-7.916532266826132"><ele>478.0</ele><time>2026-04-24T08:26:14Z</time></trkpt><trkpt lat="31.627443131154138" lon="-7.9164592743209585"><ele>478.00000000000006</ele><time>2026-04-24T08:26:15Z</time></trkpt><trkpt lat="31.627336225875926" lon="-7.916405996937352"><ele>478.0</ele><time>2026-04-24T08:26:16Z</time></trkpt><trkpt lat="31.627234839855053" lon="-7.916373938686922"><ele>478.0</ele><time>2026-04-24T08:26:17Z</time></trkpt><trkpt lat="31.627150470528985" lon="-7.916359400344735"><ele>478.0</ele><time>2026-04-24T08:26:18Z</time></trkpt><trkpt lat="31.627080156462718" lon="-7.916350796875541"><ele>478.00000000000006</ele><time>2026-04-24T08:26:19Z</time></trkpt><trkpt lat="31.62701675362972" lon="-7.9163366980837475"><ele>478.0</ele><time>2026-04-24T08:26:20Z</time></trkpt><trkpt lat="31.626953326508236" lon="-7.916297192665408"><ele>477.79999999999995</ele><time>2026-04-24T08:26:21Z</time></trkpt><trkpt lat="31.626890939575024" lon="-7.9162288742303355"><ele>477.59999999999997</ele><time>2026-04-24T08:26:21.999Z</time></trkpt><trkpt lat="31.62682710834617" lon="-7.9161454664663875"><ele>477.40000000000003</ele><time>2026-04-24T08:26:22.999Z</time></trkpt><trkpt lat="31.62674596847129" lon="-7.916059602340326"><ele>477.20000000000005</ele><time>2026-04-24T08:26:23.999Z</time></trkpt><trkpt lat="31.626645085698172" lon="-7.915976720739092"><ele>477.0</ele><time>2026-04-24T08:26:24.999Z</time></trkpt><trkpt lat="31.62653250332853" lon="-7.915895590105365"><ele>477.0</ele><time>2026-04-24T08:26:25.999Z</time></trkpt><trkpt lat="31.626415097666413" lon="-7.91581308216781"><ele>477.0</ele><time>2026-04-24T08:26:26.999Z</time></trkpt><trkpt lat="31.6262939687454" lon="-7.915725821542417"><ele>477.0</ele><time>2026-04-24T08:26:27.999Z</time></trkpt><trkpt lat="31.626168099684598" lon="-7.915632107976437"><ele>477.0</ele><time>2026-04-24T08:26:28.999Z</time></trkpt><trkpt lat="31.62603738432875" lon="-7.9155460320157465"><ele>477.33333333333337</ele><time>2026-04-24T08:26:29.999Z</time></trkpt><trkpt lat="31.62590138935935" lon="-7.915456343863993"><ele>477.6666666666667</ele><time>2026-04-24T08:26:30.999Z</time></trkpt><trkpt lat="31.62576135462808" lon="-7.915359960027374"><ele>478.0</ele><time>2026-04-24T08:26:31.999Z</time></trkpt><trkpt lat="31.625618536069748" lon="-7.915264056172978"><ele>478.0</ele><time>2026-04-24T08:26:32.999Z</time></trkpt><trkpt lat="31.625471420378993" lon="-7.915163889440836"><ele>478.0</ele><time>2026-04-24T08:26:33.999Z</time></trkpt><trkpt lat="31.625323736484493" lon="-7.9150591270242945"><ele>478.0</ele><time>2026-04-24T08:26:34.999Z</time></trkpt><trkpt lat="31.625170014623507" lon="-7.914954012856548"><ele>478.6666666666667</ele><time>2026-04-24T08:26:35.999Z</time></trkpt><trkpt lat="31.62501204550194" lon="-7.914849278299527"><ele>479.33333333333337</ele><time>2026-04-24T08:26:36.999Z</time></trkpt><trkpt lat="31.62484833295794" lon="-7.914740029539741"><ele>480.0</ele><time>2026-04-24T08:26:37.999Z</time></trkpt><trkpt lat="31.624691501535903" lon="-7.914611391868883"><ele>480.0</ele><time>2026-04-24T08:26:38.999Z</time></trkpt><trkpt lat="31.62452258831822" lon="-7.91449255878829"><ele>480.0</ele><time>2026-04-24T08:26:39.999Z</time></trkpt><trkpt lat="31.624347704429553" lon="-7.91436981344419"><ele>480.0</ele><time>2026-04-24T08:26:40.999Z</time></trkpt><trkpt lat="31.624168515808307" lon="-7.914244138363367"><ele>480.0</ele><time>2026-04-24T08:26:41.999Z</time></trkpt><trkpt lat="31.62398647071947" lon="-7.914116320540604"><ele>480.0</ele><time>2026-04-24T08:26:42.999Z</time></trkpt><trkpt lat="31.623799392921857" lon="-7.913988304084345"><ele>480.0</ele><time>2026-04-24T08:26:43.999Z</time></trkpt><trkpt lat="31.623609038047324" lon="-7.9138582290929875"><ele>480.0</ele><time>2026-04-24T08:26:44.999Z</time></trkpt><trkpt lat="31.623420854558162" lon="-7.913729563659788"><ele>480.0</ele><time>2026-04-24T08:26:45.999Z</time></trkpt><trkpt lat="31.62323470176419" lon="-7.913602572181961"><ele>480.0</ele><time>2026-04-24T08:26:46.999Z</time></trkpt><trkpt lat="31.62304468905178" lon="-7.913473454432157"><ele>479.66666666666663</ele><time>2026-04-24T08:26:47.999Z</time></trkpt><trkpt lat="31.62285620676226" lon="-7.913344654235055"><ele>479.3333333333333</ele><time>2026-04-24T08:26:48.999Z</time></trkpt><trkpt lat="31.622666384750563" lon="-7.913215435480582"><ele>479.0</ele><time>2026-04-24T08:26:49.999Z</time></trkpt><trkpt lat="31.62247861672595" lon="-7.913087484653267"><ele>479.0</ele><time>2026-04-24T08:26:50.999Z</time></trkpt><trkpt lat="31.622295326244352" lon="-7.912962110947137"><ele>479.0</ele><time>2026-04-24T08:26:51.999Z</time></trkpt><trkpt lat="31.6221200989033" lon="-7.912842625530182"><ele>479.0</ele><time>2026-04-24T08:26:52.999Z</time></trkpt><trkpt lat="31.621955801203022" lon="-7.912731167370954"><ele>479.0</ele><time>2026-04-24T08:26:53.999Z</time></trkpt><trkpt lat="31.621798855063993" lon="-7.912624129525109"><ele>479.0</ele><time>2026-04-24T08:26:54.999Z</time></trkpt><trkpt lat="31.621642902859904" lon="-7.912517673090646"><ele>479.0</ele><time>2026-04-24T08:26:55.999Z</time></trkpt><trkpt lat="31.621486453466275" lon="-7.91241077949223"><ele>478.66666666666663</ele><time>2026-04-24T08:26:56.999Z</time></trkpt><trkpt lat="31.621327558240317" lon="-7.912302214786263"><ele>478.33333333333337</ele><time>2026-04-24T08:26:57.999Z</time></trkpt><trkpt lat="31.621155442164692" lon="-7.91220633923283"><ele>478.0</ele><time>2026-04-24T08:26:58.999Z</time></trkpt><trkpt lat="31.620990003257976" lon="-7.9120922794457735"><ele>478.0</ele><time>2026-04-24T08:26:59.999Z</time></trkpt><trkpt lat="31.620821834587414" lon="-7.911973117511525"><ele>478.0</ele><time>2026-04-24T08:27:00.999Z</time></trkpt><trkpt lat="31.62065071434831" lon="-7.911851772247601"><ele>478.0</ele><time>2026-04-24T08:27:01.999Z</time></trkpt><trkpt lat="31.620477753933084" lon="-7.911728676911089"><ele>478.6666666666667</ele><time>2026-04-24T08:27:02.999Z</time></trkpt><trkpt lat="31.620303129971134" lon="-7.911604170389092"><ele>479.33333333333337</ele><time>2026-04-24T08:27:03.999Z</time></trkpt><trkpt lat="31.62012971372154" lon="-7.911482101605974"><ele>480.0</ele><time>2026-04-24T08:27:04.999Z</time></trkpt><trkpt lat="31.619955448315057" lon="-7.911363261758589"><ele>480.0</ele><time>2026-04-24T08:27:05.999Z</time></trkpt><trkpt lat="31.6197803762174" lon="-7.911242554357481"><ele>480.0</ele><time>2026-04-24T08:27:06.999Z</time></trkpt><trkpt lat="31.619602878339116" lon="-7.911124234797258"><ele>480.0</ele><time>2026-04-24T08:27:07.999Z</time></trkpt><trkpt lat="31.61942115832936" lon="-7.9110034600056425"><ele>481.0</ele><time>2026-04-24T08:27:08.999Z</time></trkpt><trkpt lat="31.619241243980834" lon="-7.910879055856319"><ele>482.0</ele><time>2026-04-24T08:27:10Z</time></trkpt><trkpt lat="31.619061103820595" lon="-7.91075350138228"><ele>483.0</ele><time>2026-04-24T08:27:11Z</time></trkpt><trkpt lat="31.618878157426316" lon="-7.91062689133931"><ele>483.0</ele><time>2026-04-24T08:27:12Z</time></trkpt><trkpt lat="31.618694010185976" lon="-7.910499564004906"><ele>483.0</ele><time>2026-04-24T08:27:13Z</time></trkpt><trkpt lat="31.618507599133057" lon="-7.910370479304168"><ele>483.0</ele><time>2026-04-24T08:27:14Z</time></trkpt><trkpt lat="31.618318694141" lon="-7.910243603326896"><ele>483.0</ele><time>2026-04-24T08:27:15Z</time></trkpt><trkpt lat="31.618128416193425" lon="-7.910118833286089"><ele>483.0</ele><time>2026-04-24T08:27:16Z</time></trkpt><trkpt lat="31.617946929317892" lon="-7.909976054860273"><ele>483.0</ele><time>2026-04-24T08:27:17Z</time></trkpt><trkpt lat="31.617759924718182" lon="-7.9098461052377695"><ele>483.33333333333337</ele><time>2026-04-24T08:27:18Z</time></trkpt><trkpt lat="31.61757350735436" lon="-7.909717872532336"><ele>483.6666666666667</ele><time>2026-04-24T08:27:19Z</time></trkpt><trkpt lat="31.617385610252082" lon="-7.909590427520903"><ele>484.0</ele><time>2026-04-24T08:27:20Z</time></trkpt><trkpt lat="31.6171961784548" lon="-7.909464673878979"><ele>484.0</ele><time>2026-04-24T08:27:21Z</time></trkpt><trkpt lat="31.61700657887189" lon="-7.9093364360503"><ele>484.0</ele><time>2026-04-24T08:27:22Z</time></trkpt><trkpt lat="31.61681593892619" lon="-7.909207182471736"><ele>484.0</ele><time>2026-04-24T08:27:23Z</time></trkpt><trkpt lat="31.61662205111892" lon="-7.909078278329217"><ele>484.33333333333337</ele><time>2026-04-24T08:27:24Z</time></trkpt><trkpt lat="31.616433656384295" lon="-7.9089504449962655"><ele>484.66666666666663</ele><time>2026-04-24T08:27:25Z</time></trkpt><trkpt lat="31.616248874157943" lon="-7.9088179668468"><ele>485.0</ele><time>2026-04-24T08:27:26Z</time></trkpt><trkpt lat="31.616066456733392" lon="-7.908689063016567"><ele>485.3333333333333</ele><time>2026-04-24T08:27:27Z</time></trkpt><trkpt lat="31.615883571612514" lon="-7.908566554216154"><ele>485.66666666666663</ele><time>2026-04-24T08:27:28Z</time></trkpt><trkpt lat="31.615703311113958" lon="-7.908447334897172"><ele>486.0</ele><time>2026-04-24T08:27:29Z</time></trkpt><trkpt lat="31.615524009318523" lon="-7.908328749637923"><ele>486.0</ele><time>2026-04-24T08:27:30Z</time></trkpt><trkpt lat="31.615331453080096" lon="-7.908242814928011"><ele>486.0</ele><time>2026-04-24T08:27:31Z</time></trkpt><trkpt lat="31.615156593723714" lon="-7.908125147748955"><ele>486.0</ele><time>2026-04-24T08:27:32Z</time></trkpt><trkpt lat="31.614980636587397" lon="-7.908005665967664"><ele>486.0</ele><time>2026-04-24T08:27:33Z</time></trkpt><trkpt lat="31.614802735397255" lon="-7.9078843978469795"><ele>486.0</ele><time>2026-04-24T08:27:34Z</time></trkpt><trkpt lat="31.6146200046722" lon="-7.907757008701413"><ele>486.0</ele><time>2026-04-24T08:27:35Z</time></trkpt><trkpt lat="31.61443526144848" lon="-7.907629142063394"><ele>486.0</ele><time>2026-04-24T08:27:36Z</time></trkpt><trkpt lat="31.614248601996575" lon="-7.907500605279356"><ele>486.0</ele><time>2026-04-24T08:27:37Z</time></trkpt><trkpt lat="31.61406104353" lon="-7.9073724707497375"><ele>486.0</ele><time>2026-04-24T08:27:38Z</time></trkpt><trkpt lat="31.613872467025903" lon="-7.907242077583948"><ele>486.0</ele><time>2026-04-24T08:27:39Z</time></trkpt><trkpt lat="31.613680070161767" lon="-7.90711043101439"><ele>486.0</ele><time>2026-04-24T08:27:40Z</time></trkpt><trkpt lat="31.61348467835572" lon="-7.906978887428283"><ele>486.0</ele><time>2026-04-24T08:27:41Z</time></trkpt><trkpt lat="31.613289901900224" lon="-7.906846430046169"><ele>487.0</ele><time>2026-04-24T08:27:42Z</time></trkpt><trkpt lat="31.613096012832305" lon="-7.906714555687797"><ele>488.0</ele><time>2026-04-24T08:27:43Z</time></trkpt><trkpt lat="31.612898991002076" lon="-7.906580094916039"><ele>489.5</ele><time>2026-04-24T08:27:44Z</time></trkpt><trkpt lat="31.61269875120011" lon="-7.9064462215397455"><ele>491.0</ele><time>2026-04-24T08:27:45Z</time></trkpt><trkpt lat="31.612503629081832" lon="-7.906315609702573"><ele>491.0</ele><time>2026-04-24T08:27:46Z</time></trkpt><trkpt lat="31.61231438489506" lon="-7.906187637337196"><ele>491.0</ele><time>2026-04-24T08:27:47Z</time></trkpt><trkpt lat="31.61213523724068" lon="-7.906066814214138"><ele>491.0</ele><time>2026-04-24T08:27:48Z</time></trkpt><trkpt lat="31.611966481381575" lon="-7.905951391848593"><ele>490.66666666666663</ele><time>2026-04-24T08:27:49Z</time></trkpt><trkpt lat="31.611804044684366" lon="-7.905839361798271"><ele>490.33333333333337</ele><time>2026-04-24T08:27:50Z</time></trkpt><trkpt lat="31.611652617585086" lon="-7.905733568540967"><ele>490.0</ele><time>2026-04-24T08:27:51Z</time></trkpt><trkpt lat="31.61151010122858" lon="-7.905633837521897"><ele>490.0</ele><time>2026-04-24T08:27:52Z</time></trkpt><trkpt lat="31.61138046270763" lon="-7.905545816239502"><ele>490.0</ele><time>2026-04-24T08:27:53Z</time></trkpt><trkpt lat="31.611257221672894" lon="-7.905463169327818"><ele>490.0</ele><time>2026-04-24T08:27:54Z</time></trkpt><trkpt lat="31.61114060586233" lon="-7.905389978854932"><ele>490.0</ele><time>2026-04-24T08:27:55Z</time></trkpt><trkpt lat="31.61104296264045" lon="-7.905346935078275"><ele>489.8</ele><time>2026-04-24T08:27:56Z</time></trkpt><trkpt lat="31.610952519433187" lon="-7.905317387022202"><ele>489.6</ele><time>2026-04-24T08:27:57Z</time></trkpt><trkpt lat="31.61086874199832" lon="-7.905296090669837"><ele>489.4</ele><time>2026-04-24T08:27:58Z</time></trkpt><trkpt lat="31.610787431463127" lon="-7.90525893618106"><ele>489.2</ele><time>2026-04-24T08:27:59Z</time></trkpt><trkpt lat="31.610708332018657" lon="-7.905193518808302"><ele>489.0</ele><time>2026-04-24T08:28:00Z</time></trkpt><trkpt lat="31.61062909821479" lon="-7.905073320136029"><ele>489.0</ele><time>2026-04-24T08:28:01Z</time></trkpt><trkpt lat="31.61055588078557" lon="-7.904983335390089"><ele>489.0</ele><time>2026-04-24T08:28:02Z</time></trkpt><trkpt lat="31.610449304568544" lon="-7.904884479817988"><ele>489.0</ele><time>2026-04-24T08:28:03Z</time></trkpt><trkpt lat="31.61032148159201" lon="-7.904794051288439"><ele>489.0</ele><time>2026-04-24T08:28:04Z</time></trkpt><trkpt lat="31.6101900445169" lon="-7.904707123279019"><ele>489.33333333333337</ele><time>2026-04-24T08:28:05Z</time></trkpt><trkpt lat="31.610049003320597" lon="-7.904611761165056"><ele>489.6666666666667</ele><time>2026-04-24T08:28:06Z</time></trkpt><trkpt lat="31.609898471775733" lon="-7.904509967260689"><ele>490.0</ele><time>2026-04-24T08:28:07Z</time></trkpt><trkpt lat="31.609744577454883" lon="-7.904402858042994"><ele>490.0</ele><time>2026-04-24T08:28:08Z</time></trkpt><trkpt lat="31.609589491203042" lon="-7.9042933032385045"><ele>490.0</ele><time>2026-04-24T08:28:09Z</time></trkpt><trkpt lat="31.609433026325522" lon="-7.904188598126936"><ele>490.0</ele><time>2026-04-24T08:28:10Z</time></trkpt><trkpt lat="31.609277852421698" lon="-7.904084580288963"><ele>490.33333333333337</ele><time>2026-04-24T08:28:11Z</time></trkpt><trkpt lat="31.60912776631999" lon="-7.903979940008734"><ele>490.66666666666663</ele><time>2026-04-24T08:28:12Z</time></trkpt><trkpt lat="31.608979507448094" lon="-7.90387598733058"><ele>491.0</ele><time>2026-04-24T08:28:13Z</time></trkpt><trkpt lat="31.60883473588113" lon="-7.903772171873015"><ele>491.0</ele><time>2026-04-24T08:28:14Z</time></trkpt><trkpt lat="31.608699703466886" lon="-7.903675438046489"><ele>491.0</ele><time>2026-04-24T08:28:15Z</time></trkpt><trkpt lat="31.608565740349945" lon="-7.90358195121977"><ele>491.0</ele><time>2026-04-24T08:28:16Z</time></trkpt><trkpt lat="31.60843723805588" lon="-7.903490740361462"><ele>491.25</ele><time>2026-04-24T08:28:17Z</time></trkpt><trkpt lat="31.608312790511444" lon="-7.903404866779293"><ele>491.5</ele><time>2026-04-24T08:28:18Z</time></trkpt><trkpt lat="31.608193142629307" lon="-7.90332294399297"><ele>491.75</ele><time>2026-04-24T08:28:19Z</time></trkpt><trkpt lat="31.608071423751426" lon="-7.9032384123811905"><ele>492.0</ele><time>2026-04-24T08:28:20Z</time></trkpt><trkpt lat="31.607948267815015" lon="-7.903151661989967"><ele>492.25</ele><time>2026-04-24T08:28:20.999Z</time></trkpt><trkpt lat="31.60782300370438" lon="-7.903065022043872"><ele>492.5</ele><time>2026-04-24T08:28:21.999Z</time></trkpt><trkpt lat="31.607696180136852" lon="-7.902979299477486"><ele>492.75</ele><time>2026-04-24T08:28:22.999Z</time></trkpt><trkpt lat="31.60756791971731" lon="-7.902890944698751"><ele>493.0</ele><time>2026-04-24T08:28:23.999Z</time></trkpt><trkpt lat="31.60743811147852" lon="-7.902801078123178"><ele>493.0</ele><time>2026-04-24T08:28:24.999Z</time></trkpt><trkpt lat="31.607308252033302" lon="-7.902711635070883"><ele>493.0</ele><time>2026-04-24T08:28:25.999Z</time></trkpt><trkpt lat="31.6071773297934" lon="-7.9026212451211535"><ele>493.0</ele><time>2026-04-24T08:28:26.999Z</time></trkpt><trkpt lat="31.607046031717736" lon="-7.902529379770045"><ele>493.0</ele><time>2026-04-24T08:28:27.999Z</time></trkpt><trkpt lat="31.606916067169124" lon="-7.902439409123284"><ele>493.0</ele><time>2026-04-24T08:28:28.999Z</time></trkpt><trkpt lat="31.60678918557864" lon="-7.9023516943114505"><ele>493.0</ele><time>2026-04-24T08:28:29.999Z</time></trkpt><trkpt lat="31.606666033672873" lon="-7.902266720777766"><ele>493.0</ele><time>2026-04-24T08:28:30.999Z</time></trkpt><trkpt lat="31.606544223474007" lon="-7.90218078169511"><ele>493.0</ele><time>2026-04-24T08:28:31.999Z</time></trkpt><trkpt lat="31.606419597466598" lon="-7.9020963855221025"><ele>493.0</ele><time>2026-04-24T08:28:32.999Z</time></trkpt><trkpt lat="31.606293937954423" lon="-7.902008238936282"><ele>493.0</ele><time>2026-04-24T08:28:33.999Z</time></trkpt><trkpt lat="31.606166534181796" lon="-7.901920903960597"><ele>493.0</ele><time>2026-04-24T08:28:34.999Z</time></trkpt><trkpt lat="31.60603715322706" lon="-7.901833415122143"><ele>493.0</ele><time>2026-04-24T08:28:35.999Z</time></trkpt><trkpt lat="31.605906534958745" lon="-7.901744372576011"><ele>493.0</ele><time>2026-04-24T08:28:36.999Z</time></trkpt><trkpt lat="31.605775076029" lon="-7.9016560466507535"><ele>493.0</ele><time>2026-04-24T08:28:37.999Z</time></trkpt><trkpt lat="31.605644581325006" lon="-7.901570315828885"><ele>493.0</ele><time>2026-04-24T08:28:38.999Z</time></trkpt><trkpt lat="31.605519106408092" lon="-7.9014847559825085"><ele>493.0</ele><time>2026-04-24T08:28:39.999Z</time></trkpt><trkpt lat="31.60539257826804" lon="-7.901399838441608"><ele>493.0</ele><time>2026-04-24T08:28:40.999Z</time></trkpt><trkpt lat="31.60526659480468" lon="-7.901313236335315"><ele>493.0</ele><time>2026-04-24T08:28:41.999Z</time></trkpt><trkpt lat="31.605139302499662" lon="-7.901228154131503"><ele>493.0</ele><time>2026-04-24T08:28:42.999Z</time></trkpt><trkpt lat="31.605011724807877" lon="-7.901141458709327"><ele>493.0</ele><time>2026-04-24T08:28:43.999Z</time></trkpt><trkpt lat="31.604882446906657" lon="-7.901054410694581"><ele>493.0</ele><time>2026-04-24T08:28:44.999Z</time></trkpt><trkpt lat="31.604752002156236" lon="-7.900968524653864"><ele>493.0</ele><time>2026-04-24T08:28:45.999Z</time></trkpt><trkpt lat="31.604620001239017" lon="-7.900879695081888"><ele>493.6666666666667</ele><time>2026-04-24T08:28:46.999Z</time></trkpt><trkpt lat="31.604491653770328" lon="-7.900780734710013"><ele>494.33333333333337</ele><time>2026-04-24T08:28:47.999Z</time></trkpt><trkpt lat="31.60435999356415" lon="-7.900686914750257"><ele>495.0</ele><time>2026-04-24T08:28:48.999Z</time></trkpt><trkpt lat="31.6042189755869" lon="-7.900595755048135"><ele>495.0</ele><time>2026-04-24T08:28:49.999Z</time></trkpt><trkpt lat="31.604081219929917" lon="-7.900504040060699"><ele>495.0</ele><time>2026-04-24T08:28:50.999Z</time></trkpt><trkpt lat="31.603946473195588" lon="-7.900408793900071"><ele>495.0</ele><time>2026-04-24T08:28:51.999Z</time></trkpt><trkpt lat="31.6038082381637" lon="-7.9003156314459515"><ele>495.0</ele><time>2026-04-24T08:28:52.999Z</time></trkpt><trkpt lat="31.60366996760656" lon="-7.900226093104141"><ele>495.0</ele><time>2026-04-24T08:28:53.999Z</time></trkpt><trkpt lat="31.603533063533284" lon="-7.900135427206239"><ele>495.0</ele><time>2026-04-24T08:28:54.999Z</time></trkpt><trkpt lat="31.603394534537205" lon="-7.900041605767282"><ele>494.66666666666663</ele><time>2026-04-24T08:28:55.999Z</time></trkpt><trkpt lat="31.603256476970934" lon="-7.899947168387767"><ele>494.3333333333333</ele><time>2026-04-24T08:28:56.999Z</time></trkpt><trkpt lat="31.603121427182533" lon="-7.899855358054179"><ele>494.0</ele><time>2026-04-24T08:28:57.999Z</time></trkpt><trkpt lat="31.60298873481755" lon="-7.899765147276934"><ele>494.0</ele><time>2026-04-24T08:28:58.999Z</time></trkpt><trkpt lat="31.60286124408949" lon="-7.899674402280364"><ele>494.0</ele><time>2026-04-24T08:28:59.999Z</time></trkpt><trkpt lat="31.60272759927731" lon="-7.899580290111285"><ele>494.0</ele><time>2026-04-24T08:29:00.999Z</time></trkpt><trkpt lat="31.60257391468652" lon="-7.899474180167159"><ele>494.3333333333333</ele><time>2026-04-24T08:29:01.999Z</time></trkpt><trkpt lat="31.602403271605525" lon="-7.8993572253190925"><ele>494.66666666666663</ele><time>2026-04-24T08:29:02.999Z</time></trkpt><trkpt lat="31.602230854510278" lon="-7.899239318364885"><ele>495.0</ele><time>2026-04-24T08:29:03.999Z</time></trkpt><trkpt lat="31.602058313025186" lon="-7.899121552968447"><ele>495.66666666666663</ele><time>2026-04-24T08:29:04.999Z</time></trkpt><trkpt lat="31.60188013784611" lon="-7.899001124415683"><ele>496.3333333333333</ele><time>2026-04-24T08:29:05.999Z</time></trkpt><trkpt lat="31.601693686333842" lon="-7.898874007670957"><ele>497.0</ele><time>2026-04-24T08:29:06.999Z</time></trkpt><trkpt lat="31.601503727954434" lon="-7.898743369762551"><ele>497.0</ele><time>2026-04-24T08:29:07.999Z</time></trkpt><trkpt lat="31.601310211164325" lon="-7.898611935958612"><ele>497.0</ele><time>2026-04-24T08:29:08.999Z</time></trkpt><trkpt lat="31.601114087879022" lon="-7.898480852028419"><ele>497.0</ele><time>2026-04-24T08:29:09.999Z</time></trkpt><trkpt lat="31.60091821048776" lon="-7.898351538895908"><ele>498.0</ele><time>2026-04-24T08:29:10.999Z</time></trkpt><trkpt lat="31.600720974719774" lon="-7.898221742691341"><ele>499.0</ele><time>2026-04-24T08:29:11.999Z</time></trkpt><trkpt lat="31.600517617735544" lon="-7.89808769979488"><ele>499.5</ele><time>2026-04-24T08:29:12.999Z</time></trkpt><trkpt lat="31.60030848958692" lon="-7.897947813170721"><ele>500.0</ele><time>2026-04-24T08:29:13.999Z</time></trkpt><trkpt lat="31.600096841528636" lon="-7.897807892801521"><ele>500.0</ele><time>2026-04-24T08:29:14.999Z</time></trkpt><trkpt lat="31.59988257401683" lon="-7.897665885859035"><ele>500.0</ele><time>2026-04-24T08:29:16Z</time></trkpt><trkpt lat="31.59966707412257" lon="-7.897522169705393"><ele>499.0</ele><time>2026-04-24T08:29:17Z</time></trkpt><trkpt lat="31.59944970910292" lon="-7.897376130801692"><ele>498.0</ele><time>2026-04-24T08:29:18Z</time></trkpt><trkpt lat="31.59923276388013" lon="-7.897227952025995"><ele>498.0</ele><time>2026-04-24T08:29:19Z</time></trkpt><trkpt lat="31.59901382105572" lon="-7.897078429485132"><ele>498.0</ele><time>2026-04-24T08:29:20Z</time></trkpt><trkpt lat="31.598797334913364" lon="-7.896929522172726"><ele>499.5</ele><time>2026-04-24T08:29:21Z</time></trkpt><trkpt lat="31.598582637185007" lon="-7.8967826406743145"><ele>501.0</ele><time>2026-04-24T08:29:22Z</time></trkpt><trkpt lat="31.598370875465708" lon="-7.896635129965733"><ele>501.0</ele><time>2026-04-24T08:29:23Z</time></trkpt><trkpt lat="31.598159575636377" lon="-7.896488308528193"><ele>501.0</ele><time>2026-04-24T08:29:24Z</time></trkpt><trkpt lat="31.597945395577497" lon="-7.896343742618921"><ele>502.0</ele><time>2026-04-24T08:29:25Z</time></trkpt><trkpt lat="31.59773257663785" lon="-7.896199789362351"><ele>503.0</ele><time>2026-04-24T08:29:26Z</time></trkpt><trkpt lat="31.597521151884894" lon="-7.896054341923268"><ele>502.5</ele><time>2026-04-24T08:29:27Z</time></trkpt><trkpt lat="31.59730860592631" lon="-7.895911286055254"><ele>502.0</ele><time>2026-04-24T08:29:28Z</time></trkpt><trkpt lat="31.597095614810122" lon="-7.895765745665771"><ele>501.5</ele><time>2026-04-24T08:29:29Z</time></trkpt><trkpt lat="31.59688569563616" lon="-7.895621052437812"><ele>501.0</ele><time>2026-04-24T08:29:30Z</time></trkpt><trkpt lat="31.596673450925735" lon="-7.895475580407305"><ele>501.0</ele><time>2026-04-24T08:29:31Z</time></trkpt><trkpt lat="31.596459592699947" lon="-7.895328296548011"><ele>501.0</ele><time>2026-04-24T08:29:32Z</time></trkpt><trkpt lat="31.596244545918804" lon="-7.895186899880285"><ele>501.5</ele><time>2026-04-24T08:29:33Z</time></trkpt><trkpt lat="31.596030651754152" lon="-7.895044186726189"><ele>502.0</ele><time>2026-04-24T08:29:34Z</time></trkpt><trkpt lat="31.595818998654504" lon="-7.894903342532332"><ele>502.0</ele><time>2026-04-24T08:29:35Z</time></trkpt><trkpt lat="31.595611994882784" lon="-7.8947626048892"><ele>502.0</ele><time>2026-04-24T08:29:36Z</time></trkpt><trkpt lat="31.595406557516704" lon="-7.894624354992075"><ele>502.0</ele><time>2026-04-24T08:29:37Z</time></trkpt><trkpt lat="31.595203723988043" lon="-7.894488692962056"><ele>502.0</ele><time>2026-04-24T08:29:38Z</time></trkpt><trkpt lat="31.59500087111403" lon="-7.894349357555797"><ele>502.0</ele><time>2026-04-24T08:29:39Z</time></trkpt><trkpt lat="31.594799583922576" lon="-7.8942127264619915"><ele>502.0</ele><time>2026-04-24T08:29:40Z</time></trkpt><trkpt lat="31.594601263789347" lon="-7.894077674313278"><ele>502.5</ele><time>2026-04-24T08:29:41Z</time></trkpt><trkpt lat="31.59440379249671" lon="-7.8939456067841265"><ele>503.0</ele><time>2026-04-24T08:29:42Z</time></trkpt><trkpt lat="31.59421008447141" lon="-7.8938132473627345"><ele>503.0</ele><time>2026-04-24T08:29:43Z</time></trkpt><trkpt lat="31.594016221463303" lon="-7.893681614254162"><ele>503.0</ele><time>2026-04-24T08:29:44Z</time></trkpt><trkpt lat="31.593819207848085" lon="-7.893548594336714"><ele>503.5</ele><time>2026-04-24T08:29:45Z</time></trkpt><trkpt lat="31.59362236837048" lon="-7.893412155435621"><ele>504.0</ele><time>2026-04-24T08:29:46Z</time></trkpt><trkpt lat="31.5934206987768" lon="-7.893274862087104"><ele>504.0</ele><time>2026-04-24T08:29:47Z</time></trkpt><trkpt lat="31.59322070484143" lon="-7.893138075292831"><ele>504.0</ele><time>2026-04-24T08:29:48Z</time></trkpt><trkpt lat="31.593019841110348" lon="-7.892999543045424"><ele>504.0</ele><time>2026-04-24T08:29:49Z</time></trkpt><trkpt lat="31.592818865232605" lon="-7.8928627335288475"><ele>504.0</ele><time>2026-04-24T08:29:50Z</time></trkpt><trkpt lat="31.59262198849732" lon="-7.8927218442894596"><ele>504.0</ele><time>2026-04-24T08:29:51Z</time></trkpt><trkpt lat="31.592426530518345" lon="-7.892577310597229"><ele>504.0</ele><time>2026-04-24T08:29:52Z</time></trkpt><trkpt lat="31.59222938029196" lon="-7.892433538965708"><ele>504.0</ele><time>2026-04-24T08:29:52.999Z</time></trkpt><trkpt lat="31.592026025652682" lon="-7.892290317407621"><ele>504.0</ele><time>2026-04-24T08:29:53.999Z</time></trkpt><trkpt lat="31.591822493559203" lon="-7.892148472595776"><ele>504.5</ele><time>2026-04-24T08:29:54.999Z</time></trkpt><trkpt lat="31.591618725699895" lon="-7.892005309691926"><ele>505.0</ele><time>2026-04-24T08:29:55.999Z</time></trkpt><trkpt lat="31.591416585204342" lon="-7.891865874436532"><ele>505.5</ele><time>2026-04-24T08:29:56.999Z</time></trkpt><trkpt lat="31.591216300682955" lon="-7.891727917413443"><ele>506.0</ele><time>2026-04-24T08:29:57.999Z</time></trkpt><trkpt lat="31.59101828596458" lon="-7.891592334466401"><ele>506.0</ele><time>2026-04-24T08:29:58.999Z</time></trkpt><trkpt lat="31.5908227499114" lon="-7.891456736513754"><ele>506.0</ele><time>2026-04-24T08:29:59.999Z</time></trkpt><trkpt lat="31.590627885884743" lon="-7.891324244838435"><ele>506.0</ele><time>2026-04-24T08:30:00.999Z</time></trkpt><trkpt lat="31.590436019105752" lon="-7.8911906650873895"><ele>506.0</ele><time>2026-04-24T08:30:01.999Z</time></trkpt><trkpt lat="31.590245947659668" lon="-7.891058211585565"><ele>506.0</ele><time>2026-04-24T08:30:02.999Z</time></trkpt><trkpt lat="31.590054766089512" lon="-7.890928086773657"><ele>506.3333333333333</ele><time>2026-04-24T08:30:03.999Z</time></trkpt><trkpt lat="31.58986521831942" lon="-7.890797500565559"><ele>506.66666666666663</ele><time>2026-04-24T08:30:04.999Z</time></trkpt><trkpt lat="31.589672481243714" lon="-7.890669074880512"><ele>507.0</ele><time>2026-04-24T08:30:05.999Z</time></trkpt><trkpt lat="31.58947867571395" lon="-7.890539109987865"><ele>507.0</ele><time>2026-04-24T08:30:06.999Z</time></trkpt><trkpt lat="31.589286923564032" lon="-7.890408595324584"><ele>507.0</ele><time>2026-04-24T08:30:07.999Z</time></trkpt><trkpt lat="31.589095878861382" lon="-7.8902791990386385"><ele>507.0</ele><time>2026-04-24T08:30:08.999Z</time></trkpt><trkpt lat="31.588906170405895" lon="-7.890150327350099"><ele>507.33333333333337</ele><time>2026-04-24T08:30:09.999Z</time></trkpt><trkpt lat="31.58872424835422" lon="-7.890023726125055"><ele>507.6666666666667</ele><time>2026-04-24T08:30:10.999Z</time></trkpt><trkpt lat="31.58855468989016" lon="-7.889903891215469"><ele>508.0</ele><time>2026-04-24T08:30:11.999Z</time></trkpt><trkpt lat="31.58839568063127" lon="-7.889784448399389"><ele>508.0</ele><time>2026-04-24T08:30:12.999Z</time></trkpt><trkpt lat="31.588249639925877" lon="-7.889668257666168"><ele>508.0</ele><time>2026-04-24T08:30:13.999Z</time></trkpt><trkpt lat="31.58811762536153" lon="-7.889556055369305"><ele>508.0</ele><time>2026-04-24T08:30:14.999Z</time></trkpt><trkpt lat="31.58799573736998" lon="-7.889444003184292"><ele>508.0</ele><time>2026-04-24T08:30:15.999Z</time></trkpt><trkpt lat="31.58788785502336" lon="-7.8893367237095955"><ele>508.0</ele><time>2026-04-24T08:30:16.999Z</time></trkpt><trkpt lat="31.587789203609166" lon="-7.889234704479376"><ele>508.0</ele><time>2026-04-24T08:30:17.999Z</time></trkpt><trkpt lat="31.58770054219584" lon="-7.88913865162976"><ele>508.0</ele><time>2026-04-24T08:30:18.999Z</time></trkpt><trkpt lat="31.58762231837946" lon="-7.889048810200647"><ele>508.33333333333337</ele><time>2026-04-24T08:30:19.999Z</time></trkpt><trkpt lat="31.58755397664871" lon="-7.888966479507932"><ele>508.6666666666667</ele><time>2026-04-24T08:30:20.999Z</time></trkpt><trkpt lat="31.5874960529865" lon="-7.888897500425479"><ele>509.0</ele><time>2026-04-24T08:30:21.999Z</time></trkpt><trkpt lat="31.587443340374932" lon="-7.888838372479581"><ele>509.33333333333337</ele><time>2026-04-24T08:30:22.999Z</time></trkpt><trkpt lat="31.587358113978304" lon="-7.8887545624516235"><ele>509.6666666666667</ele><time>2026-04-24T08:30:24.999Z</time></trkpt><trkpt lat="31.58728940708305" lon="-7.888702800237109"><ele>510.0</ele><time>2026-04-24T08:30:27.999Z</time></trkpt><trkpt lat="31.58724188182044" lon="-7.888643458082873"><ele>510.0</ele><time>2026-04-24T08:30:30.999Z</time></trkpt><trkpt lat="31.587168333330094" lon="-7.8885947661942915"><ele>510.0</ele><time>2026-04-24T08:30:32.999Z</time></trkpt><trkpt lat="31.587101539144204" lon="-7.8885222381951365"><ele>510.0</ele><time>2026-04-24T08:30:34.999Z</time></trkpt><trkpt lat="31.58707312149615" lon="-7.88842020850613"><ele>510.0</ele><time>2026-04-24T08:30:36.999Z</time></trkpt><trkpt lat="31.587050651530422" lon="-7.888300164670169"><ele>510.0</ele><time>2026-04-24T08:30:38.999Z</time></trkpt><trkpt lat="31.58700075304218" lon="-7.888167017504477"><ele>510.0</ele><time>2026-04-24T08:30:40.999Z</time></trkpt><trkpt lat="31.586959594621312" lon="-7.888090466790944"><ele>510.0</ele><time>2026-04-24T08:30:41.999Z</time></trkpt><trkpt lat="31.586912554589794" lon="-7.888000022740258"><ele>510.0</ele><time>2026-04-24T08:30:42.999Z</time></trkpt><trkpt lat="31.58686092481668" lon="-7.887894981910406"><ele>510.0</ele><time>2026-04-24T08:30:43.999Z</time></trkpt><trkpt lat="31.58680606577371" lon="-7.887783298271351"><ele>510.0</ele><time>2026-04-24T08:30:44.999Z</time></trkpt><trkpt lat="31.586748582458394" lon="-7.8876571883709685"><ele>510.0</ele><time>2026-04-24T08:30:45.999Z</time></trkpt><trkpt lat="31.586688526426478" lon="-7.887514915699433"><ele>510.0</ele><time>2026-04-24T08:30:46.999Z</time></trkpt><trkpt lat="31.58662442493345" lon="-7.887359933324555"><ele>510.0</ele><time>2026-04-24T08:30:47.999Z</time></trkpt><trkpt lat="31.586559649544718" lon="-7.8871952884181855"><ele>510.0</ele><time>2026-04-24T08:30:48.999Z</time></trkpt><trkpt lat="31.58649548696113" lon="-7.887022685320994"><ele>510.0</ele><time>2026-04-24T08:30:49.999Z</time></trkpt><trkpt lat="31.58642825603932" lon="-7.886845066692645"><ele>510.0</ele><time>2026-04-24T08:30:50.999Z</time></trkpt><trkpt lat="31.586359312547778" lon="-7.886660748943456"><ele>510.0</ele><time>2026-04-24T08:30:51.999Z</time></trkpt><trkpt lat="31.58628892318331" lon="-7.886472173500066"><ele>510.0</ele><time>2026-04-24T08:30:52.999Z</time></trkpt><trkpt lat="31.586217651693985" lon="-7.886281465718552"><ele>510.0</ele><time>2026-04-24T08:30:53.999Z</time></trkpt><trkpt lat="31.586145376452844" lon="-7.886090020798719"><ele>510.0</ele><time>2026-04-24T08:30:54.999Z</time></trkpt><trkpt lat="31.58607366049249" lon="-7.885898517256172"><ele>510.33333333333337</ele><time>2026-04-24T08:30:55.999Z</time></trkpt><trkpt lat="31.58599961898979" lon="-7.885706389205543"><ele>510.6666666666667</ele><time>2026-04-24T08:30:56.999Z</time></trkpt><trkpt lat="31.585929002173767" lon="-7.885514115431439"><ele>511.0</ele><time>2026-04-24T08:30:57.999Z</time></trkpt><trkpt lat="31.58585837982996" lon="-7.885322079471515"><ele>511.0</ele><time>2026-04-24T08:30:58.999Z</time></trkpt><trkpt lat="31.58578861611183" lon="-7.885133085587729"><ele>511.0</ele><time>2026-04-24T08:30:59.999Z</time></trkpt><trkpt lat="31.585720281499608" lon="-7.884940856434698"><ele>511.0</ele><time>2026-04-24T08:31:00.999Z</time></trkpt><trkpt lat="31.585649390328406" lon="-7.8847443902619405"><ele>511.0</ele><time>2026-04-24T08:31:01.999Z</time></trkpt><trkpt lat="31.585578117566484" lon="-7.884545451239393"><ele>511.0</ele><time>2026-04-24T08:31:02.999Z</time></trkpt><trkpt lat="31.585502965733937" lon="-7.884341836682355"><ele>511.0</ele><time>2026-04-24T08:31:03.999Z</time></trkpt><trkpt lat="31.585426309809414" lon="-7.884133055677701"><ele>511.0</ele><time>2026-04-24T08:31:04.999Z</time></trkpt><trkpt lat="31.585348314441674" lon="-7.8839206862919236"><ele>511.0</ele><time>2026-04-24T08:31:05.998Z</time></trkpt><trkpt lat="31.585268680071863" lon="-7.883707511700379"><ele>511.0</ele><time>2026-04-24T08:31:06.998Z</time></trkpt><trkpt lat="31.585188588371867" lon="-7.883494989276799"><ele>511.33333333333337</ele><time>2026-04-24T08:31:07.998Z</time></trkpt><trkpt lat="31.5851087346729" lon="-7.883283196852588"><ele>511.66666666666663</ele><time>2026-04-24T08:31:08.998Z</time></trkpt><trkpt lat="31.585029702695422" lon="-7.883074441626898"><ele>512.0</ele><time>2026-04-24T08:31:09.998Z</time></trkpt><trkpt lat="31.584953761050784" lon="-7.882871607384987"><ele>512.0</ele><time>2026-04-24T08:31:10.998Z</time></trkpt><trkpt lat="31.584878681860477" lon="-7.882670394796636"><ele>512.0</ele><time>2026-04-24T08:31:11.998Z</time></trkpt><trkpt lat="31.584802736276128" lon="-7.882468104380106"><ele>512.0</ele><time>2026-04-24T08:31:12.998Z</time></trkpt><trkpt lat="31.584726169384943" lon="-7.882267034566538"><ele>511.66666666666663</ele><time>2026-04-24T08:31:13.998Z</time></trkpt><trkpt lat="31.584651508570516" lon="-7.882066578022231"><ele>511.33333333333337</ele><time>2026-04-24T08:31:14.998Z</time></trkpt><trkpt lat="31.584576714391094" lon="-7.8818665524534115"><ele>511.0</ele><time>2026-04-24T08:31:15.998Z</time></trkpt><trkpt lat="31.5845006979386" lon="-7.881666484686789"><ele>512.0</ele><time>2026-04-24T08:31:16.998Z</time></trkpt><trkpt lat="31.584426421709964" lon="-7.881469377499879"><ele>513.0</ele><time>2026-04-24T08:31:17.998Z</time></trkpt><trkpt lat="31.58435494133953" lon="-7.8812764729881515"><ele>514.0</ele><time>2026-04-24T08:31:18.998Z</time></trkpt><trkpt lat="31.584288193132604" lon="-7.881081045431973"><ele>514.0</ele><time>2026-04-24T08:31:19.998Z</time></trkpt><trkpt lat="31.58422649745405" lon="-7.880873100458176"><ele>514.0</ele><time>2026-04-24T08:31:21Z</time></trkpt><trkpt lat="31.584167025546986" lon="-7.8806592211780915"><ele>514.0</ele><time>2026-04-24T08:31:22Z</time></trkpt><trkpt lat="31.584108738233883" lon="-7.880437939004718"><ele>514.0</ele><time>2026-04-24T08:31:23Z</time></trkpt><trkpt lat="31.584051144630095" lon="-7.880210718433219"><ele>514.0</ele><time>2026-04-24T08:31:24Z</time></trkpt><trkpt lat="31.58399541465983" lon="-7.8799801367485784"><ele>514.0</ele><time>2026-04-24T08:31:25Z</time></trkpt><trkpt lat="31.583942654391294" lon="-7.879744011968687"><ele>514.0</ele><time>2026-04-24T08:31:26Z</time></trkpt><trkpt lat="31.58389064168638" lon="-7.879500533198156"><ele>514.0</ele><time>2026-04-24T08:31:27Z</time></trkpt><trkpt lat="31.583836518951806" lon="-7.879252508668847"><ele>514.0</ele><time>2026-04-24T08:31:28Z</time></trkpt><trkpt lat="31.58378225971084" lon="-7.878997918710226"><ele>514.0</ele><time>2026-04-24T08:31:29Z</time></trkpt><trkpt lat="31.583723695617145" lon="-7.8787387257919725"><ele>514.0</ele><time>2026-04-24T08:31:30Z</time></trkpt><trkpt lat="31.583664911742652" lon="-7.878482890586111"><ele>513.5</ele><time>2026-04-24T08:31:31Z</time></trkpt><trkpt lat="31.583606820132847" lon="-7.878223715706435"><ele>513.0</ele><time>2026-04-24T08:31:32Z</time></trkpt><trkpt lat="31.583548245685925" lon="-7.877964957352119"><ele>513.0</ele><time>2026-04-24T08:31:33Z</time></trkpt><trkpt lat="31.58349217953124" lon="-7.877705978965171"><ele>513.0</ele><time>2026-04-24T08:31:34Z</time></trkpt><trkpt lat="31.583439535969287" lon="-7.877450292227278"><ele>513.0</ele><time>2026-04-24T08:31:35Z</time></trkpt><trkpt lat="31.583393325635477" lon="-7.877197040514072"><ele>513.0</ele><time>2026-04-24T08:31:36Z</time></trkpt><trkpt lat="31.583350695484786" lon="-7.876944595724912"><ele>513.0</ele><time>2026-04-24T08:31:37Z</time></trkpt><trkpt lat="31.58330865273091" lon="-7.876690192648263"><ele>513.3333333333334</ele><time>2026-04-24T08:31:38Z</time></trkpt><trkpt lat="31.583267765859418" lon="-7.87643682569612"><ele>513.6666666666667</ele><time>2026-04-24T08:31:39Z</time></trkpt><trkpt lat="31.583227906155354" lon="-7.876184084633923"><ele>514.0</ele><time>2026-04-24T08:31:40Z</time></trkpt><trkpt lat="31.583187906906055" lon="-7.875930000333939"><ele>514.0</ele><time>2026-04-24T08:31:41Z</time></trkpt><trkpt lat="31.583149609114894" lon="-7.875679411072533"><ele>514.0</ele><time>2026-04-24T08:31:42Z</time></trkpt><trkpt lat="31.58311158662103" lon="-7.875430812487292"><ele>514.0</ele><time>2026-04-24T08:31:43Z</time></trkpt><trkpt lat="31.583073169917917" lon="-7.875186076425554"><ele>514.0</ele><time>2026-04-24T08:31:44Z</time></trkpt><trkpt lat="31.583034296303204" lon="-7.874946453022838"><ele>514.0</ele><time>2026-04-24T08:31:45Z</time></trkpt><trkpt lat="31.582990898524674" lon="-7.87471645305445"><ele>514.0</ele><time>2026-04-24T08:31:46Z</time></trkpt><trkpt lat="31.582938794258837" lon="-7.874495809333918"><ele>514.0</ele><time>2026-04-24T08:31:47Z</time></trkpt><trkpt lat="31.582873689818495" lon="-7.874273931363407"><ele>514.0</ele><time>2026-04-24T08:31:48Z</time></trkpt><trkpt lat="31.582792856141033" lon="-7.874044688808807"><ele>514.0</ele><time>2026-04-24T08:31:49Z</time></trkpt><trkpt lat="31.582698720291862" lon="-7.873812811204669"><ele>514.3333333333334</ele><time>2026-04-24T08:31:50Z</time></trkpt><trkpt lat="31.582595404652217" lon="-7.8735819013322015"><ele>514.6666666666666</ele><time>2026-04-24T08:31:51Z</time></trkpt><trkpt lat="31.58248493065264" lon="-7.873350441847199"><ele>515.0</ele><time>2026-04-24T08:31:52Z</time></trkpt><trkpt lat="31.58237255060091" lon="-7.873119501115045"><ele>515.0</ele><time>2026-04-24T08:31:53Z</time></trkpt><trkpt lat="31.582258137694435" lon="-7.872886559282491"><ele>515.0</ele><time>2026-04-24T08:31:54Z</time></trkpt><trkpt lat="31.58214074364469" lon="-7.872649562516084"><ele>514.5</ele><time>2026-04-24T08:31:55Z</time></trkpt><trkpt lat="31.58202373626618" lon="-7.87240744059187"><ele>514.0</ele><time>2026-04-24T08:31:56Z</time></trkpt><trkpt lat="31.581907652411346" lon="-7.872167976100316"><ele>515.0</ele><time>2026-04-24T08:31:57Z</time></trkpt><trkpt lat="31.58179099662218" lon="-7.871929150244431"><ele>516.0</ele><time>2026-04-24T08:31:58Z</time></trkpt><trkpt lat="31.581677316713105" lon="-7.871692662740127"><ele>516.0</ele><time>2026-04-24T08:31:59Z</time></trkpt><trkpt lat="31.58155966737977" lon="-7.87145623018614"><ele>516.0</ele><time>2026-04-24T08:32:00Z</time></trkpt><trkpt lat="31.581440247557882" lon="-7.871218936371938"><ele>516.0</ele><time>2026-04-24T08:32:01Z</time></trkpt><trkpt lat="31.58131870987014" lon="-7.870981276079645"><ele>516.0</ele><time>2026-04-24T08:32:02Z</time></trkpt><trkpt lat="31.581197841091175" lon="-7.87074301916637"><ele>515.0</ele><time>2026-04-24T08:32:03Z</time></trkpt><trkpt lat="31.58107863532627" lon="-7.870506382580552"><ele>514.0</ele><time>2026-04-24T08:32:04Z</time></trkpt><trkpt lat="31.580962161465408" lon="-7.8702736917640275"><ele>514.5</ele><time>2026-04-24T08:32:05Z</time></trkpt><trkpt lat="31.58084939480953" lon="-7.8700365414315065"><ele>515.0</ele><time>2026-04-24T08:32:06Z</time></trkpt><trkpt lat="31.58073814082122" lon="-7.869792834180141"><ele>515.0</ele><time>2026-04-24T08:32:07Z</time></trkpt><trkpt lat="31.580632485113224" lon="-7.869541718032841"><ele>515.0</ele><time>2026-04-24T08:32:08Z</time></trkpt><trkpt lat="31.580530633461635" lon="-7.869289467175827"><ele>514.5</ele><time>2026-04-24T08:32:09Z</time></trkpt><trkpt lat="31.580424680507896" lon="-7.8690335707722925"><ele>514.0</ele><time>2026-04-24T08:32:10Z</time></trkpt><trkpt lat="31.580316494081476" lon="-7.868777690718747"><ele>514.0</ele><time>2026-04-24T08:32:11Z</time></trkpt><trkpt lat="31.580206851616495" lon="-7.868521543091013"><ele>514.0</ele><time>2026-04-24T08:32:12Z</time></trkpt><trkpt lat="31.58009923188952" lon="-7.8682685252198015"><ele>516.0</ele><time>2026-04-24T08:32:13Z</time></trkpt><trkpt lat="31.57999531257277" lon="-7.868021063638431"><ele>518.0</ele><time>2026-04-24T08:32:14Z</time></trkpt><trkpt lat="31.57989370856816" lon="-7.867776710758091"><ele>517.5</ele><time>2026-04-24T08:32:15Z</time></trkpt><trkpt lat="31.579793822137052" lon="-7.867534226541563"><ele>517.0</ele><time>2026-04-24T08:32:16Z</time></trkpt><trkpt lat="31.579693238376926" lon="-7.867291947500591"><ele>517.0</ele><time>2026-04-24T08:32:17Z</time></trkpt><trkpt lat="31.57959114809001" lon="-7.86705167223473"><ele>517.0</ele><time>2026-04-24T08:32:18Z</time></trkpt><trkpt lat="31.579490377688177" lon="-7.866809707539886"><ele>517.0</ele><time>2026-04-24T08:32:19Z</time></trkpt><trkpt lat="31.579388142396034" lon="-7.866569813727733"><ele>517.0</ele><time>2026-04-24T08:32:20Z</time></trkpt><trkpt lat="31.57928347244894" lon="-7.866326776361422"><ele>517.0</ele><time>2026-04-24T08:32:21Z</time></trkpt><trkpt lat="31.57917668906602" lon="-7.866080686473555"><ele>517.0</ele><time>2026-04-24T08:32:22Z</time></trkpt><trkpt lat="31.579071235178965" lon="-7.865834991604033"><ele>517.0</ele><time>2026-04-24T08:32:23Z</time></trkpt><trkpt lat="31.5789626658901" lon="-7.8655869190172"><ele>517.0</ele><time>2026-04-24T08:32:23.999Z</time></trkpt><trkpt lat="31.57885278155114" lon="-7.865340207893555"><ele>517.0</ele><time>2026-04-24T08:32:24.999Z</time></trkpt><trkpt lat="31.5787449107672" lon="-7.865095756266923"><ele>517.0</ele><time>2026-04-24T08:32:25.999Z</time></trkpt><trkpt lat="31.57863835398073" lon="-7.8648535087233755"><ele>518.0</ele><time>2026-04-24T08:32:26.999Z</time></trkpt><trkpt lat="31.578534729688638" lon="-7.8646118970468395"><ele>519.0</ele><time>2026-04-24T08:32:27.999Z</time></trkpt><trkpt lat="31.57843534651119" lon="-7.86437151580668"><ele>518.6666666666666</ele><time>2026-04-24T08:32:28.999Z</time></trkpt><trkpt lat="31.578340699026796" lon="-7.86413131777319"><ele>518.3333333333333</ele><time>2026-04-24T08:32:29.999Z</time></trkpt><trkpt lat="31.578250594527262" lon="-7.863902418330004"><ele>518.0</ele><time>2026-04-24T08:32:30.999Z</time></trkpt><trkpt lat="31.57817826645371" lon="-7.863639568862599"><ele>517.6666666666666</ele><time>2026-04-24T08:32:31.999Z</time></trkpt><trkpt lat="31.57812728035252" lon="-7.863386097228678"><ele>517.3333333333334</ele><time>2026-04-24T08:32:32.999Z</time></trkpt><trkpt lat="31.578089195491586" lon="-7.863123287267127"><ele>517.0</ele><time>2026-04-24T08:32:33.999Z</time></trkpt><trkpt lat="31.57805985593548" lon="-7.862852579891394"><ele>517.0</ele><time>2026-04-24T08:32:34.999Z</time></trkpt><trkpt lat="31.578034623918917" lon="-7.86257772474411"><ele>517.0</ele><time>2026-04-24T08:32:35.999Z</time></trkpt><trkpt lat="31.578009100634446" lon="-7.862300290963779"><ele>517.0</ele><time>2026-04-24T08:32:36.999Z</time></trkpt><trkpt lat="31.577983431078575" lon="-7.862018364937291"><ele>517.0</ele><time>2026-04-24T08:32:37.999Z</time></trkpt><trkpt lat="31.577957549277922" lon="-7.861737751808684"><ele>517.0</ele><time>2026-04-24T08:32:38.999Z</time></trkpt><trkpt lat="31.57793253132272" lon="-7.861458895769576"><ele>517.0</ele><time>2026-04-24T08:32:39.999Z</time></trkpt><trkpt lat="31.577908445888237" lon="-7.861181741928453"><ele>517.0</ele><time>2026-04-24T08:32:40.999Z</time></trkpt><trkpt lat="31.577885936652905" lon="-7.860911519623588"><ele>517.0</ele><time>2026-04-24T08:32:41.999Z</time></trkpt><trkpt lat="31.577861908113363" lon="-7.860650941672616"><ele>517.3333333333334</ele><time>2026-04-24T08:32:42.999Z</time></trkpt><trkpt lat="31.577837645711025" lon="-7.860405499508701"><ele>517.6666666666666</ele><time>2026-04-24T08:32:43.999Z</time></trkpt><trkpt lat="31.577814272984785" lon="-7.860158734189309"><ele>518.0</ele><time>2026-04-24T08:32:44.999Z</time></trkpt><trkpt lat="31.577793496831116" lon="-7.859911175890711"><ele>518.3333333333333</ele><time>2026-04-24T08:32:45.999Z</time></trkpt><trkpt lat="31.57777326522031" lon="-7.859663548734294"><ele>518.6666666666666</ele><time>2026-04-24T08:32:46.999Z</time></trkpt><trkpt lat="31.577752519359954" lon="-7.8594166707256345"><ele>519.0</ele><time>2026-04-24T08:32:47.999Z</time></trkpt><trkpt lat="31.577730802477674" lon="-7.859170315469612"><ele>519.0</ele><time>2026-04-24T08:32:48.999Z</time></trkpt><trkpt lat="31.57770878525875" lon="-7.858925931216552"><ele>519.0</ele><time>2026-04-24T08:32:49.999Z</time></trkpt><trkpt lat="31.57768764587252" lon="-7.858681676976955"><ele>519.0</ele><time>2026-04-24T08:32:50.999Z</time></trkpt><trkpt lat="31.57766674834176" lon="-7.858437328747188"><ele>519.0</ele><time>2026-04-24T08:32:51.999Z</time></trkpt><trkpt lat="31.577646376002075" lon="-7.858194375397486"><ele>519.0</ele><time>2026-04-24T08:32:52.999Z</time></trkpt><trkpt lat="31.577626019550614" lon="-7.857952841476713"><ele>519.0</ele><time>2026-04-24T08:32:53.999Z</time></trkpt><trkpt lat="31.577605682930308" lon="-7.857712677729765"><ele>519.0</ele><time>2026-04-24T08:32:54.999Z</time></trkpt><trkpt lat="31.577586051522896" lon="-7.8574726045905186"><ele>519.0</ele><time>2026-04-24T08:32:55.999Z</time></trkpt><trkpt lat="31.57756576811347" lon="-7.857236242827273"><ele>519.0</ele><time>2026-04-24T08:32:56.999Z</time></trkpt><trkpt lat="31.57754689872086" lon="-7.857002662405371"><ele>518.6666666666666</ele><time>2026-04-24T08:32:57.999Z</time></trkpt><trkpt lat="31.577528432329196" lon="-7.85677465676308"><ele>518.3333333333333</ele><time>2026-04-24T08:32:58.999Z</time></trkpt><trkpt lat="31.577508612575215" lon="-7.856552518876009"><ele>518.0</ele><time>2026-04-24T08:32:59.999Z</time></trkpt><trkpt lat="31.577488599323075" lon="-7.856336766395297"><ele>518.0</ele><time>2026-04-24T08:33:00.999Z</time></trkpt><trkpt lat="31.577468994014037" lon="-7.856132063822976"><ele>518.0</ele><time>2026-04-24T08:33:01.999Z</time></trkpt><trkpt lat="31.577450144439283" lon="-7.855934163811605"><ele>518.0</ele><time>2026-04-24T08:33:02.999Z</time></trkpt><trkpt lat="31.57743059820609" lon="-7.855748489216715"><ele>518.5</ele><time>2026-04-24T08:33:03.999Z</time></trkpt><trkpt lat="31.577412325820713" lon="-7.855572643782423"><ele>519.0</ele><time>2026-04-24T08:33:04.999Z</time></trkpt><trkpt lat="31.577393354816195" lon="-7.855408928409559"><ele>519.5</ele><time>2026-04-24T08:33:05.999Z</time></trkpt><trkpt lat="31.57737598687461" lon="-7.855255125616271"><ele>520.0</ele><time>2026-04-24T08:33:06.999Z</time></trkpt><trkpt lat="31.5773615287024" lon="-7.85510989747029"><ele>520.0</ele><time>2026-04-24T08:33:07.999Z</time></trkpt><trkpt lat="31.57734767905196" lon="-7.8549664564516135"><ele>520.0</ele><time>2026-04-24T08:33:08.999Z</time></trkpt><trkpt lat="31.577335725939097" lon="-7.854826067505286"><ele>520.0</ele><time>2026-04-24T08:33:09.999Z</time></trkpt><trkpt lat="31.577324150421834" lon="-7.854688257988168"><ele>520.0</ele><time>2026-04-24T08:33:10.999Z</time></trkpt><trkpt lat="31.57731214235077" lon="-7.854556814476457"><ele>520.0000000000001</ele><time>2026-04-24T08:33:11.999Z</time></trkpt><trkpt lat="31.57730381602614" lon="-7.854446815575944"><ele>520.0</ele><time>2026-04-24T08:33:12.999Z</time></trkpt><trkpt lat="31.577295929815477" lon="-7.85435083338088"><ele>520.0</ele><time>2026-04-24T08:33:13.999Z</time></trkpt><trkpt lat="31.577289368941273" lon="-7.854269463729032"><ele>520.0</ele><time>2026-04-24T08:33:14.999Z</time></trkpt><trkpt lat="31.577282419705753" lon="-7.854191639396037"><ele>520.0</ele><time>2026-04-24T08:33:15.999Z</time></trkpt><trkpt lat="31.577277547905577" lon="-7.854115635000651"><ele>520.0000000000001</ele><time>2026-04-24T08:33:16.999Z</time></trkpt><trkpt lat="31.5772728521099" lon="-7.854036355154455"><ele>520.0</ele><time>2026-04-24T08:33:17.999Z</time></trkpt><trkpt lat="31.57726355914225" lon="-7.85395068590238"><ele>519.8</ele><time>2026-04-24T08:33:18.999Z</time></trkpt><trkpt lat="31.577252152699714" lon="-7.853857372493962"><ele>519.6</ele><time>2026-04-24T08:33:19.999Z</time></trkpt><trkpt lat="31.57724078148047" lon="-7.853752449185884"><ele>519.4</ele><time>2026-04-24T08:33:20.999Z</time></trkpt><trkpt lat="31.57722926974095" lon="-7.853638462264189"><ele>519.2</ele><time>2026-04-24T08:33:21.999Z</time></trkpt><trkpt lat="31.57721887265371" lon="-7.853513518549147"><ele>519.0</ele><time>2026-04-24T08:33:22.999Z</time></trkpt><trkpt lat="31.577206911257047" lon="-7.853376630060748"><ele>518.75</ele><time>2026-04-24T08:33:23.999Z</time></trkpt><trkpt lat="31.577190253473177" lon="-7.853223222079882"><ele>518.5</ele><time>2026-04-24T08:33:24.999Z</time></trkpt><trkpt lat="31.577170584011398" lon="-7.853055498399227"><ele>518.25</ele><time>2026-04-24T08:33:25.999Z</time></trkpt><trkpt lat="31.577149092592542" lon="-7.8528895307146485"><ele>518.0</ele><time>2026-04-24T08:33:27Z</time></trkpt><trkpt lat="31.577126356474118" lon="-7.852718475647199"><ele>518.0</ele><time>2026-04-24T08:33:28Z</time></trkpt><trkpt lat="31.57709859782463" lon="-7.852545613785826"><ele>518.0</ele><time>2026-04-24T08:33:29Z</time></trkpt><trkpt lat="31.577064760313238" lon="-7.852377474897145"><ele>518.0</ele><time>2026-04-24T08:33:30Z</time></trkpt><trkpt lat="31.577027678280455" lon="-7.852216700485272"><ele>518.0</ele><time>2026-04-24T08:33:31Z</time></trkpt><trkpt lat="31.57698989647497" lon="-7.8520634217174505"><ele>518.0</ele><time>2026-04-24T08:33:32Z</time></trkpt><trkpt lat="31.57695539654641" lon="-7.851917602167888"><ele>518.0</ele><time>2026-04-24T08:33:33Z</time></trkpt><trkpt lat="31.576921208970155" lon="-7.851781914944496"><ele>518.0</ele><time>2026-04-24T08:33:34Z</time></trkpt><trkpt lat="31.576888793704043" lon="-7.851660312941847"><ele>518.0</ele><time>2026-04-24T08:33:35Z</time></trkpt><trkpt lat="31.576855611235604" lon="-7.85155487725896"><ele>518.0</ele><time>2026-04-24T08:33:36Z</time></trkpt><trkpt lat="31.576818277024692" lon="-7.851458662109051"><ele>518.0</ele><time>2026-04-24T08:33:37Z</time></trkpt><trkpt lat="31.576776184544354" lon="-7.851362504209319"><ele>518.0</ele><time>2026-04-24T08:33:38Z</time></trkpt><trkpt lat="31.576740633229264" lon="-7.851258792469592"><ele>518.0</ele><time>2026-04-24T08:33:39Z</time></trkpt><trkpt lat="31.576718564503622" lon="-7.851137588736652"><ele>518.0</ele><time>2026-04-24T08:33:40Z</time></trkpt><trkpt lat="31.57670420256408" lon="-7.8510007788200085"><ele>518.25</ele><time>2026-04-24T08:33:41Z</time></trkpt><trkpt lat="31.576701218169138" lon="-7.850847500055636"><ele>518.5</ele><time>2026-04-24T08:33:42Z</time></trkpt><trkpt lat="31.57666897876837" lon="-7.850693959821843"><ele>518.75</ele><time>2026-04-24T08:33:43Z</time></trkpt><trkpt lat="31.57660904818425" lon="-7.850537275375199"><ele>519.0</ele><time>2026-04-24T08:33:44Z</time></trkpt><trkpt lat="31.576568168114903" lon="-7.850370577817791"><ele>519.0</ele><time>2026-04-24T08:33:45Z</time></trkpt><trkpt lat="31.5765168251916" lon="-7.850192402054331"><ele>519.0</ele><time>2026-04-24T08:33:46Z</time></trkpt><trkpt lat="31.57645815838289" lon="-7.850004360754468"><ele>519.0</ele><time>2026-04-24T08:33:47Z</time></trkpt><trkpt lat="31.576392265850057" lon="-7.849807738825504"><ele>519.0</ele><time>2026-04-24T08:33:48Z</time></trkpt><trkpt lat="31.57631776614346" lon="-7.849601955632572"><ele>519.0</ele><time>2026-04-24T08:33:49Z</time></trkpt><trkpt lat="31.576238627344036" lon="-7.849387861085991"><ele>519.0</ele><time>2026-04-24T08:33:50Z</time></trkpt><trkpt lat="31.57615548257205" lon="-7.8491661249804965"><ele>519.3333333333334</ele><time>2026-04-24T08:33:51Z</time></trkpt><trkpt lat="31.5760706187117" lon="-7.848928680196284"><ele>519.6666666666667</ele><time>2026-04-24T08:33:52Z</time></trkpt><trkpt lat="31.575983050288833" lon="-7.848680321904621"><ele>520.0</ele><time>2026-04-24T08:33:53Z</time></trkpt><trkpt lat="31.57589549511281" lon="-7.8484276252289895"><ele>519.0</ele><time>2026-04-24T08:33:54Z</time></trkpt><trkpt lat="31.575801857115806" lon="-7.848174178947793"><ele>518.0</ele><time>2026-04-24T08:33:55Z</time></trkpt><trkpt lat="31.575705510238638" lon="-7.847915589397961"><ele>518.0</ele><time>2026-04-24T08:33:56Z</time></trkpt><trkpt lat="31.57560751151663" lon="-7.847653972793502"><ele>518.0</ele><time>2026-04-24T08:33:57Z</time></trkpt><trkpt lat="31.57551052169849" lon="-7.847392903915493"><ele>518.0</ele><time>2026-04-24T08:33:58Z</time></trkpt><trkpt lat="31.57541121071489" lon="-7.8471371015152815"><ele>518.0</ele><time>2026-04-24T08:33:59Z</time></trkpt><trkpt lat="31.575314986244" lon="-7.846888236687148"><ele>518.0</ele><time>2026-04-24T08:34:00Z</time></trkpt><trkpt lat="31.575223391018657" lon="-7.846648084526744"><ele>518.0</ele><time>2026-04-24T08:34:01Z</time></trkpt><trkpt lat="31.57513855572486" lon="-7.846416345794739"><ele>518.0</ele><time>2026-04-24T08:34:02Z</time></trkpt><trkpt lat="31.575061112014538" lon="-7.846187257195051"><ele>518.6666666666666</ele><time>2026-04-24T08:34:03Z</time></trkpt><trkpt lat="31.574996401307338" lon="-7.845951692901484"><ele>519.3333333333334</ele><time>2026-04-24T08:34:04Z</time></trkpt><trkpt lat="31.574943664692817" lon="-7.845706554862238"><ele>520.0</ele><time>2026-04-24T08:34:05Z</time></trkpt><trkpt lat="31.574901503291855" lon="-7.845454343478203"><ele>520.0</ele><time>2026-04-24T08:34:06Z</time></trkpt><trkpt lat="31.57487406182114" lon="-7.8451960663837745"><ele>520.0</ele><time>2026-04-24T08:34:07Z</time></trkpt><trkpt lat="31.574862827058727" lon="-7.844935319858587"><ele>520.0</ele><time>2026-04-24T08:34:08Z</time></trkpt><trkpt lat="31.574867830742242" lon="-7.844676250382464"><ele>520.0</ele><time>2026-04-24T08:34:09Z</time></trkpt><trkpt lat="31.57488388920116" lon="-7.844417707810901"><ele>520.0</ele><time>2026-04-24T08:34:10Z</time></trkpt><trkpt lat="31.574913289602208" lon="-7.84416062748677"><ele>520.0</ele><time>2026-04-24T08:34:11Z</time></trkpt><trkpt lat="31.574952536178635" lon="-7.84390608635042"><ele>520.0</ele><time>2026-04-24T08:34:12Z</time></trkpt><trkpt lat="31.574997641707526" lon="-7.843659055523169"><ele>520.0</ele><time>2026-04-24T08:34:13Z</time></trkpt><trkpt lat="31.57504217299047" lon="-7.843418139785031"><ele>520.0</ele><time>2026-04-24T08:34:14Z</time></trkpt><trkpt lat="31.5750864228105" lon="-7.843182501097214"><ele>520.0</ele><time>2026-04-24T08:34:15Z</time></trkpt><trkpt lat="31.575129576233874" lon="-7.842951629089956"><ele>520.0</ele><time>2026-04-24T08:34:16Z</time></trkpt><trkpt lat="31.57516904937511" lon="-7.8427224813228085"><ele>520.0</ele><time>2026-04-24T08:34:17Z</time></trkpt><trkpt lat="31.575210758511783" lon="-7.842492145960141"><ele>520.0</ele><time>2026-04-24T08:34:18Z</time></trkpt><trkpt lat="31.575251498168807" lon="-7.842261342435374"><ele>520.0</ele><time>2026-04-24T08:34:19Z</time></trkpt><trkpt lat="31.57529190836037" lon="-7.842029930668292"><ele>520.0</ele><time>2026-04-24T08:34:20Z</time></trkpt><trkpt lat="31.5753327633034" lon="-7.841797601158928"><ele>519.6666666666667</ele><time>2026-04-24T08:34:21Z</time></trkpt><trkpt lat="31.575374196694636" lon="-7.841566204814564"><ele>519.3333333333334</ele><time>2026-04-24T08:34:22Z</time></trkpt><trkpt lat="31.575415864344464" lon="-7.841333964307296"><ele>519.0</ele><time>2026-04-24T08:34:23Z</time></trkpt><trkpt lat="31.57545840004809" lon="-7.84110132628976"><ele>519.6666666666666</ele><time>2026-04-24T08:34:24Z</time></trkpt><trkpt lat="31.57550030355379" lon="-7.840868579290743"><ele>520.3333333333333</ele><time>2026-04-24T08:34:25Z</time></trkpt><trkpt lat="31.575541688891825" lon="-7.840636746588271"><ele>521.0</ele><time>2026-04-24T08:34:26Z</time></trkpt><trkpt lat="31.5755831592127" lon="-7.840404254933044"><ele>521.0</ele><time>2026-04-24T08:34:26.999Z</time></trkpt><trkpt lat="31.575625929336876" lon="-7.840172715479725"><ele>521.0</ele><time>2026-04-24T08:34:27.999Z</time></trkpt><trkpt lat="31.575668160100086" lon="-7.839941050652098"><ele>521.0</ele><time>2026-04-24T08:34:28.999Z</time></trkpt><trkpt lat="31.5757108843532" lon="-7.839712006335556"><ele>521.0</ele><time>2026-04-24T08:34:29.999Z</time></trkpt><trkpt lat="31.575753532497092" lon="-7.8394816665623965"><ele>521.0</ele><time>2026-04-24T08:34:30.999Z</time></trkpt><trkpt lat="31.57579532147409" lon="-7.839251325973811"><ele>521.0</ele><time>2026-04-24T08:34:31.999Z</time></trkpt><trkpt lat="31.57583752841779" lon="-7.8390177149888896"><ele>521.0</ele><time>2026-04-24T08:34:32.999Z</time></trkpt><trkpt lat="31.57588049472497" lon="-7.838785923613585"><ele>521.0</ele><time>2026-04-24T08:34:33.999Z</time></trkpt><trkpt lat="31.57592132834319" lon="-7.8385563783670715"><ele>521.0</ele><time>2026-04-24T08:34:34.999Z</time></trkpt><trkpt lat="31.575961523336996" lon="-7.838332046205482"><ele>520.6666666666666</ele><time>2026-04-24T08:34:35.999Z</time></trkpt><trkpt lat="31.576000815733455" lon="-7.838112402741789"><ele>520.3333333333334</ele><time>2026-04-24T08:34:36.999Z</time></trkpt><trkpt lat="31.576038479160832" lon="-7.837895831640452"><ele>520.0</ele><time>2026-04-24T08:34:37.999Z</time></trkpt><trkpt lat="31.57607548865876" lon="-7.837680560504578"><ele>520.0</ele><time>2026-04-24T08:34:38.999Z</time></trkpt><trkpt lat="31.576114048797365" lon="-7.837464939803512"><ele>520.0</ele><time>2026-04-24T08:34:39.999Z</time></trkpt><trkpt lat="31.576153907254522" lon="-7.837250026989407"><ele>520.0</ele><time>2026-04-24T08:34:40.999Z</time></trkpt><trkpt lat="31.576195007626506" lon="-7.837038060702582"><ele>519.6666666666667</ele><time>2026-04-24T08:34:41.999Z</time></trkpt><trkpt lat="31.576237695874546" lon="-7.836827977142301"><ele>519.3333333333334</ele><time>2026-04-24T08:34:42.999Z</time></trkpt><trkpt lat="31.57627921729985" lon="-7.836622095604591"><ele>519.0</ele><time>2026-04-24T08:34:43.999Z</time></trkpt><trkpt lat="31.57631715969191" lon="-7.836425597439564"><ele>519.0</ele><time>2026-04-24T08:34:44.999Z</time></trkpt><trkpt lat="31.57635277637571" lon="-7.836233731188864"><ele>519.0</ele><time>2026-04-24T08:34:45.999Z</time></trkpt><trkpt lat="31.576387230302682" lon="-7.8360453016578395"><ele>519.0</ele><time>2026-04-24T08:34:46.999Z</time></trkpt><trkpt lat="31.576419483251208" lon="-7.835866812135635"><ele>519.25</ele><time>2026-04-24T08:34:47.999Z</time></trkpt><trkpt lat="31.576449554514962" lon="-7.835697707355962"><ele>519.5</ele><time>2026-04-24T08:34:48.999Z</time></trkpt><trkpt lat="31.57647704021687" lon="-7.835530436559267"><ele>519.75</ele><time>2026-04-24T08:34:49.999Z</time></trkpt><trkpt lat="31.576504712748203" lon="-7.835354641041511"><ele>520.0</ele><time>2026-04-24T08:34:50.999Z</time></trkpt><trkpt lat="31.57653720905166" lon="-7.835170804156682"><ele>520.0</ele><time>2026-04-24T08:34:51.999Z</time></trkpt><trkpt lat="31.576573670666086" lon="-7.834977774175806"><ele>520.0</ele><time>2026-04-24T08:34:52.999Z</time></trkpt><trkpt lat="31.576610782636553" lon="-7.834775492965377"><ele>520.0</ele><time>2026-04-24T08:34:53.999Z</time></trkpt><trkpt lat="31.576648339658632" lon="-7.834563311621869"><ele>520.0</ele><time>2026-04-24T08:34:54.999Z</time></trkpt><trkpt lat="31.576686227044057" lon="-7.834337013220815"><ele>520.0</ele><time>2026-04-24T08:34:55.999Z</time></trkpt><trkpt lat="31.5767283740801" lon="-7.83410377138216"><ele>520.0</ele><time>2026-04-24T08:34:56.999Z</time></trkpt><trkpt lat="31.57677004424384" lon="-7.833867495934516"><ele>519.6666666666667</ele><time>2026-04-24T08:34:57.999Z</time></trkpt><trkpt lat="31.576809543208885" lon="-7.833624712359882"><ele>519.3333333333334</ele><time>2026-04-24T08:34:58.999Z</time></trkpt><trkpt lat="31.576851787682184" lon="-7.833374022807002"><ele>519.0</ele><time>2026-04-24T08:34:59.999Z</time></trkpt><trkpt lat="31.576892824613612" lon="-7.833114910587376"><ele>519.0</ele><time>2026-04-24T08:35:00.999Z</time></trkpt><trkpt lat="31.576930872637323" lon="-7.832853297332961"><ele>519.0</ele><time>2026-04-24T08:35:01.999Z</time></trkpt><trkpt lat="31.57696152287579" lon="-7.83260790867758"><ele>519.0</ele><time>2026-04-24T08:35:02.999Z</time></trkpt><trkpt lat="31.576990060681315" lon="-7.832376725068213"><ele>519.0</ele><time>2026-04-24T08:35:03.999Z</time></trkpt><trkpt lat="31.57701530836406" lon="-7.832154615551688"><ele>519.0</ele><time>2026-04-24T08:35:04.999Z</time></trkpt><trkpt lat="31.577036480571053" lon="-7.831931907522271"><ele>519.0</ele><time>2026-04-24T08:35:05.999Z</time></trkpt><trkpt lat="31.577052502234345" lon="-7.831704631375099"><ele>519.6666666666666</ele><time>2026-04-24T08:35:06.999Z</time></trkpt><trkpt lat="31.577066554325533" lon="-7.831475155521978"><ele>520.3333333333333</ele><time>2026-04-24T08:35:07.999Z</time></trkpt><trkpt lat="31.57707752570868" lon="-7.831242528284682"><ele>521.0</ele><time>2026-04-24T08:35:08.999Z</time></trkpt><trkpt lat="31.577086947492838" lon="-7.831007744448015"><ele>521.3333333333333</ele><time>2026-04-24T08:35:09.999Z</time></trkpt><trkpt lat="31.577091430219543" lon="-7.8307698611728265"><ele>521.6666666666666</ele><time>2026-04-24T08:35:10.999Z</time></trkpt><trkpt lat="31.57709366251928" lon="-7.830529984699914"><ele>522.0</ele><time>2026-04-24T08:35:11.999Z</time></trkpt><trkpt lat="31.57709532984972" lon="-7.830286284408749"><ele>521.3333333333334</ele><time>2026-04-24T08:35:12.999Z</time></trkpt><trkpt lat="31.57709784640385" lon="-7.830039953980615"><ele>520.6666666666667</ele><time>2026-04-24T08:35:13.999Z</time></trkpt><trkpt lat="31.577101513151796" lon="-7.829792477668794"><ele>520.0</ele><time>2026-04-24T08:35:14.999Z</time></trkpt><trkpt lat="31.57710717003106" lon="-7.829542302858614"><ele>520.0</ele><time>2026-04-24T08:35:15.999Z</time></trkpt><trkpt lat="31.577113406038563" lon="-7.829287860436638"><ele>520.0</ele><time>2026-04-24T08:35:16.999Z</time></trkpt><trkpt lat="31.577123124742467" lon="-7.82902576917647"><ele>520.0</ele><time>2026-04-24T08:35:17.999Z</time></trkpt><trkpt lat="31.577134269524052" lon="-7.8287595551361"><ele>520.0</ele><time>2026-04-24T08:35:18.999Z</time></trkpt><trkpt lat="31.57714356614175" lon="-7.82848980894829"><ele>520.0</ele><time>2026-04-24T08:35:19.999Z</time></trkpt><trkpt lat="31.57715178681159" lon="-7.828215549670101"><ele>520.0</ele><time>2026-04-24T08:35:20.999Z</time></trkpt><trkpt lat="31.577159869764607" lon="-7.827937045093728"><ele>520.0</ele><time>2026-04-24T08:35:21.999Z</time></trkpt><trkpt lat="31.57716866994198" lon="-7.827658372478514"><ele>521.0</ele><time>2026-04-24T08:35:22.999Z</time></trkpt><trkpt lat="31.57717725482272" lon="-7.82738499932646"><ele>522.0</ele><time>2026-04-24T08:35:23.999Z</time></trkpt><trkpt lat="31.577185601021398" lon="-7.82711540463969"><ele>522.0</ele><time>2026-04-24T08:35:24.999Z</time></trkpt><trkpt lat="31.577193375898045" lon="-7.826849159153058"><ele>522.0</ele><time>2026-04-24T08:35:25.999Z</time></trkpt><trkpt lat="31.577199190886084" lon="-7.826586829860116"><ele>522.0</ele><time>2026-04-24T08:35:26.999Z</time></trkpt><trkpt lat="31.5772052668443" lon="-7.826328735312025"><ele>522.0</ele><time>2026-04-24T08:35:27.999Z</time></trkpt><trkpt lat="31.57721302452149" lon="-7.826074639102054"><ele>522.0</ele><time>2026-04-24T08:35:28.999Z</time></trkpt><trkpt lat="31.577223611709428" lon="-7.825826582696277"><ele>522.0</ele><time>2026-04-24T08:35:29.999Z</time></trkpt><trkpt lat="31.577233288335655" lon="-7.825581340330582"><ele>522.0</ele><time>2026-04-24T08:35:30.999Z</time></trkpt><trkpt lat="31.577245022734303" lon="-7.825337032785215"><ele>522.0</ele><time>2026-04-24T08:35:31.999Z</time></trkpt><trkpt lat="31.577257036691307" lon="-7.8250930070877205"><ele>521.6666666666666</ele><time>2026-04-24T08:35:33Z</time></trkpt><trkpt lat="31.5772703792455" lon="-7.824848668071461"><ele>521.3333333333333</ele><time>2026-04-24T08:35:34Z</time></trkpt><trkpt lat="31.577283227082027" lon="-7.8246081393379745"><ele>521.0</ele><time>2026-04-24T08:35:35Z</time></trkpt><trkpt lat="31.57729553573908" lon="-7.824365522629338"><ele>521.3333333333333</ele><time>2026-04-24T08:35:36Z</time></trkpt><trkpt lat="31.577304396461244" lon="-7.8241203304159415"><ele>521.6666666666666</ele><time>2026-04-24T08:35:37Z</time></trkpt><trkpt lat="31.577312684542733" lon="-7.8238750932023695"><ele>522.0</ele><time>2026-04-24T08:35:38Z</time></trkpt><trkpt lat="31.57732196560983" lon="-7.823631348950018"><ele>522.0</ele><time>2026-04-24T08:35:39Z</time></trkpt><trkpt lat="31.577330756304637" lon="-7.823383639872989"><ele>522.0</ele><time>2026-04-24T08:35:40Z</time></trkpt><trkpt lat="31.57734167578607" lon="-7.823133617005134"><ele>522.0</ele><time>2026-04-24T08:35:41Z</time></trkpt><trkpt lat="31.577351687215845" lon="-7.822880254416958"><ele>521.6666666666666</ele><time>2026-04-24T08:35:42Z</time></trkpt><trkpt lat="31.577364393513275" lon="-7.8226256983256865"><ele>521.3333333333333</ele><time>2026-04-24T08:35:43Z</time></trkpt><trkpt lat="31.577374028113635" lon="-7.822369587879929"><ele>521.0</ele><time>2026-04-24T08:35:44Z</time></trkpt><trkpt lat="31.577387540642178" lon="-7.82211356312444"><ele>521.0</ele><time>2026-04-24T08:35:45Z</time></trkpt><trkpt lat="31.57740304988231" lon="-7.821856615968086"><ele>521.0</ele><time>2026-04-24T08:35:46Z</time></trkpt><trkpt lat="31.577415387721768" lon="-7.821600922485682"><ele>521.0</ele><time>2026-04-24T08:35:47Z</time></trkpt><trkpt lat="31.577427337982353" lon="-7.821349216866535"><ele>521.3333333333333</ele><time>2026-04-24T08:35:48Z</time></trkpt><trkpt lat="31.577439645588882" lon="-7.821102494370401"><ele>521.6666666666666</ele><time>2026-04-24T08:35:49Z</time></trkpt><trkpt lat="31.577447184388085" lon="-7.820866024093164"><ele>522.0</ele><time>2026-04-24T08:35:50Z</time></trkpt><trkpt lat="31.577447529365543" lon="-7.820633209502889"><ele>522.6666666666666</ele><time>2026-04-24T08:35:51Z</time></trkpt><trkpt lat="31.57743283706102" lon="-7.820402567971398"><ele>523.3333333333333</ele><time>2026-04-24T08:35:52Z</time></trkpt><trkpt lat="31.577407738829223" lon="-7.820175861923423"><ele>524.0</ele><time>2026-04-24T08:35:53Z</time></trkpt><trkpt lat="31.577375021874015" lon="-7.819951804576523"><ele>524.0</ele><time>2026-04-24T08:35:54Z</time></trkpt><trkpt lat="31.577336609491617" lon="-7.8197344320542115"><ele>524.0</ele><time>2026-04-24T08:35:55Z</time></trkpt><trkpt lat="31.577294404297213" lon="-7.819522714778732"><ele>524.0</ele><time>2026-04-24T08:35:56Z</time></trkpt><trkpt lat="31.57725112530285" lon="-7.8193137928889005"><ele>524.3333333333333</ele><time>2026-04-24T08:35:57Z</time></trkpt><trkpt lat="31.577209949374367" lon="-7.819109334812242"><ele>524.6666666666666</ele><time>2026-04-24T08:35:58Z</time></trkpt><trkpt lat="31.577167862801854" lon="-7.818909766447878"><ele>525.0</ele><time>2026-04-24T08:35:59Z</time></trkpt><trkpt lat="31.57712837098367" lon="-7.818714638925545"><ele>525.0</ele><time>2026-04-24T08:36:00Z</time></trkpt><trkpt lat="31.577087538569973" lon="-7.818515741736106"><ele>525.0</ele><time>2026-04-24T08:36:01Z</time></trkpt><trkpt lat="31.577046498618515" lon="-7.818312119667322"><ele>525.0</ele><time>2026-04-24T08:36:02Z</time></trkpt><trkpt lat="31.577003021213056" lon="-7.818110390295817"><ele>525.0</ele><time>2026-04-24T08:36:03Z</time></trkpt><trkpt lat="31.57695997462989" lon="-7.817907262143346"><ele>525.0</ele><time>2026-04-24T08:36:04Z</time></trkpt><trkpt lat="31.576914776785802" lon="-7.817704388542601"><ele>525.0</ele><time>2026-04-24T08:36:05Z</time></trkpt><trkpt lat="31.576864049624707" lon="-7.817498651117579"><ele>525.0</ele><time>2026-04-24T08:36:06Z</time></trkpt><trkpt lat="31.57680432876587" lon="-7.817293231475372"><ele>525.0</ele><time>2026-04-24T08:36:07Z</time></trkpt><trkpt lat="31.57673752297122" lon="-7.817088002488982"><ele>525.0</ele><time>2026-04-24T08:36:08Z</time></trkpt><trkpt lat="31.576668676449817" lon="-7.816887040948635"><ele>525.0</ele><time>2026-04-24T08:36:09Z</time></trkpt><trkpt lat="31.576602034162313" lon="-7.816687169361304"><ele>525.0</ele><time>2026-04-24T08:36:10Z</time></trkpt><trkpt lat="31.576536247926732" lon="-7.816483456465273"><ele>525.0</ele><time>2026-04-24T08:36:11Z</time></trkpt><trkpt lat="31.576481662453713" lon="-7.816273816363228"><ele>525.0</ele><time>2026-04-24T08:36:12Z</time></trkpt><trkpt lat="31.576351909715132" lon="-7.816096389761968"><ele>525.0</ele><time>2026-04-24T08:36:13Z</time></trkpt><trkpt lat="31.576398634153268" lon="-7.8158383630246036"><ele>525.0</ele><time>2026-04-24T08:36:14Z</time></trkpt><trkpt lat="31.57636887211989" lon="-7.815612512303211"><ele>525.0</ele><time>2026-04-24T08:36:15Z</time></trkpt><trkpt lat="31.57634323536066" lon="-7.815390103993173"><ele>525.0</ele><time>2026-04-24T08:36:16Z</time></trkpt><trkpt lat="31.576319830295784" lon="-7.815173893228786"><ele>525.0</ele><time>2026-04-24T08:36:17Z</time></trkpt><trkpt lat="31.57629809395221" lon="-7.814972302168961"><ele>525.0</ele><time>2026-04-24T08:36:18Z</time></trkpt><trkpt lat="31.5762782535428" lon="-7.814789108145441"><ele>525.0</ele><time>2026-04-24T08:36:19Z</time></trkpt><trkpt lat="31.576260094170923" lon="-7.8146266182173525"><ele>525.0</ele><time>2026-04-24T08:36:20Z</time></trkpt><trkpt lat="31.576245782229645" lon="-7.814478374042709"><ele>525.0</ele><time>2026-04-24T08:36:21Z</time></trkpt><trkpt lat="31.57623003855752" lon="-7.814349815228187"><ele>525.0</ele><time>2026-04-24T08:36:22Z</time></trkpt><trkpt lat="31.576208801628944" lon="-7.814233915795441"><ele>525.0</ele><time>2026-04-24T08:36:23Z</time></trkpt><trkpt lat="31.576177677220553" lon="-7.8141256994014565"><ele>525.0</ele><time>2026-04-24T08:36:24Z</time></trkpt><trkpt lat="31.57613517595537" lon="-7.814030407717032"><ele>525.0</ele><time>2026-04-24T08:36:25Z</time></trkpt><trkpt lat="31.576082808225124" lon="-7.813947666190002"><ele>525.0</ele><time>2026-04-24T08:36:26Z</time></trkpt><trkpt lat="31.5760356206523" lon="-7.8138644836467055"><ele>525.0</ele><time>2026-04-24T08:36:27Z</time></trkpt><trkpt lat="31.576020359801262" lon="-7.813774650264167"><ele>525.0</ele><time>2026-04-24T08:36:28Z</time></trkpt><trkpt lat="31.576029325036664" lon="-7.813688952731911"><ele>525.0</ele><time>2026-04-24T08:36:29Z</time></trkpt><trkpt lat="31.57605777253701" lon="-7.813610004094776"><ele>525.0</ele><time>2026-04-24T08:36:30Z</time></trkpt><trkpt lat="31.5761114144601" lon="-7.813552801838519"><ele>525.0</ele><time>2026-04-24T08:36:30.999Z</time></trkpt><trkpt lat="31.57617862218565" lon="-7.813509094468433"><ele>525.0</ele><time>2026-04-24T08:36:31.999Z</time></trkpt><trkpt lat="31.576250856754935" lon="-7.813470539502727"><ele>525.2</ele><time>2026-04-24T08:36:32.999Z</time></trkpt><trkpt lat="31.57632056254942" lon="-7.813421516176191"><ele>525.4</ele><time>2026-04-24T08:36:33.999Z</time></trkpt><trkpt lat="31.57637968856558" lon="-7.813349894872471"><ele>525.6</ele><time>2026-04-24T08:36:34.999Z</time></trkpt><trkpt lat="31.57643000639039" lon="-7.813260709287741"><ele>525.8</ele><time>2026-04-24T08:36:35.999Z</time></trkpt><trkpt lat="31.57647636599243" lon="-7.813159814292133"><ele>526.0</ele><time>2026-04-24T08:36:36.999Z</time></trkpt><trkpt lat="31.57652420230627" lon="-7.813048458449613"><ele>526.0</ele><time>2026-04-24T08:36:37.999Z</time></trkpt><trkpt lat="31.576576154223982" lon="-7.81293429585314"><ele>526.0</ele><time>2026-04-24T08:36:38.999Z</time></trkpt><trkpt lat="31.576630514044258" lon="-7.812815354628786"><ele>526.0</ele><time>2026-04-24T08:36:39.999Z</time></trkpt><trkpt lat="31.576686003090177" lon="-7.812687273141506"><ele>526.0</ele><time>2026-04-24T08:36:40.999Z</time></trkpt><trkpt lat="31.576742604168544" lon="-7.812549277619872"><ele>526.0</ele><time>2026-04-24T08:36:41.999Z</time></trkpt><trkpt lat="31.57679971472473" lon="-7.812411236345325"><ele>526.0</ele><time>2026-04-24T08:36:42.999Z</time></trkpt><trkpt lat="31.576858724916896" lon="-7.812269551314651"><ele>526.0</ele><time>2026-04-24T08:36:43.999Z</time></trkpt><trkpt lat="31.57692035063817" lon="-7.812120161935238"><ele>526.0</ele><time>2026-04-24T08:36:44.999Z</time></trkpt><trkpt lat="31.57698224248502" lon="-7.81196679744331"><ele>526.0</ele><time>2026-04-24T08:36:45.999Z</time></trkpt><trkpt lat="31.577044050171448" lon="-7.811807114067401"><ele>526.0</ele><time>2026-04-24T08:36:46.999Z</time></trkpt><trkpt lat="31.57710361884358" lon="-7.811640180050638"><ele>526.0</ele><time>2026-04-24T08:36:47.999Z</time></trkpt><trkpt lat="31.57715975648646" lon="-7.811463941006039"><ele>526.0</ele><time>2026-04-24T08:36:48.999Z</time></trkpt><trkpt lat="31.57721354703544" lon="-7.811277018535073"><ele>526.0</ele><time>2026-04-24T08:36:49.999Z</time></trkpt><trkpt lat="31.57726287131479" lon="-7.811090823175765"><ele>526.0</ele><time>2026-04-24T08:36:50.999Z</time></trkpt><trkpt lat="31.57730721425855" lon="-7.810909243661308"><ele>526.3333333333334</ele><time>2026-04-24T08:36:51.999Z</time></trkpt><trkpt lat="31.577347821815696" lon="-7.810727635395533"><ele>526.6666666666666</ele><time>2026-04-24T08:36:52.999Z</time></trkpt><trkpt lat="31.577388257215603" lon="-7.810543834146368"><ele>527.0</ele><time>2026-04-24T08:36:53.999Z</time></trkpt><trkpt lat="31.57742629043671" lon="-7.810363614964955"><ele>527.0</ele><time>2026-04-24T08:36:54.999Z</time></trkpt><trkpt lat="31.57746365974134" lon="-7.810188335769423"><ele>527.0</ele><time>2026-04-24T08:36:55.999Z</time></trkpt><trkpt lat="31.577499067204368" lon="-7.810018757836329"><ele>527.0</ele><time>2026-04-24T08:36:56.999Z</time></trkpt><trkpt lat="31.577529489795193" lon="-7.809868704740267"><ele>527.0</ele><time>2026-04-24T08:36:57.999Z</time></trkpt><trkpt lat="31.577558104946537" lon="-7.8097312600897215"><ele>527.0</ele><time>2026-04-24T08:36:58.999Z</time></trkpt><trkpt lat="31.57758622274477" lon="-7.809598896807987"><ele>527.0</ele><time>2026-04-24T08:36:59.999Z</time></trkpt><trkpt lat="31.57761578872158" lon="-7.809447373120193"><ele>527.0</ele><time>2026-04-24T08:37:00.999Z</time></trkpt><trkpt lat="31.577645590070592" lon="-7.809285591062194"><ele>527.0</ele><time>2026-04-24T08:37:01.999Z</time></trkpt><trkpt lat="31.577678430478723" lon="-7.80911543547792"><ele>527.0</ele><time>2026-04-24T08:37:02.999Z</time></trkpt><trkpt lat="31.577718636895902" lon="-7.808946310421489"><ele>527.0</ele><time>2026-04-24T08:37:03.999Z</time></trkpt><trkpt lat="31.577766086073172" lon="-7.808781317077209"><ele>527.0</ele><time>2026-04-24T08:37:04.999Z</time></trkpt><trkpt lat="31.577823808495715" lon="-7.808620334016323"><ele>527.0</ele><time>2026-04-24T08:37:05.999Z</time></trkpt><trkpt lat="31.57788766136767" lon="-7.808447264126911"><ele>526.6666666666666</ele><time>2026-04-24T08:37:06.999Z</time></trkpt><trkpt lat="31.577952194072086" lon="-7.808268086952636"><ele>526.3333333333334</ele><time>2026-04-24T08:37:07.999Z</time></trkpt><trkpt lat="31.578021474537444" lon="-7.808084705282566"><ele>526.0</ele><time>2026-04-24T08:37:08.999Z</time></trkpt><trkpt lat="31.578091465719275" lon="-7.8078976411745185"><ele>526.0</ele><time>2026-04-24T08:37:09.999Z</time></trkpt><trkpt lat="31.578161973276533" lon="-7.807708416104218"><ele>526.0</ele><time>2026-04-24T08:37:10.999Z</time></trkpt><trkpt lat="31.578225988016182" lon="-7.807512230204563"><ele>526.0</ele><time>2026-04-24T08:37:11.999Z</time></trkpt><trkpt lat="31.578282289959002" lon="-7.807313249302314"><ele>526.3333333333334</ele><time>2026-04-24T08:37:12.999Z</time></trkpt><trkpt lat="31.578326111988602" lon="-7.80711098554948"><ele>526.6666666666666</ele><time>2026-04-24T08:37:13.999Z</time></trkpt><trkpt lat="31.57835944279762" lon="-7.8069103590270865"><ele>527.0</ele><time>2026-04-24T08:37:14.999Z</time></trkpt><trkpt lat="31.57838937551152" lon="-7.8067160153287825"><ele>527.0</ele><time>2026-04-24T08:37:15.999Z</time></trkpt><trkpt lat="31.578414326555656" lon="-7.806537123920764"><ele>527.0</ele><time>2026-04-24T08:37:16.999Z</time></trkpt><trkpt lat="31.578435820946908" lon="-7.806384987833128"><ele>527.0</ele><time>2026-04-24T08:37:17.999Z</time></trkpt><trkpt lat="31.578453328333854" lon="-7.806263521412382"><ele>527.0</ele><time>2026-04-24T08:37:18.999Z</time></trkpt><trkpt lat="31.57846638569235" lon="-7.806158958658497"><ele>527.0</ele><time>2026-04-24T08:37:19.999Z</time></trkpt><trkpt lat="31.578475552895146" lon="-7.806057628675572"><ele>527.0</ele><time>2026-04-24T08:37:20.999Z</time></trkpt><trkpt lat="31.578482473614766" lon="-7.8059549698796795"><ele>527.0</ele><time>2026-04-24T08:37:21.999Z</time></trkpt><trkpt lat="31.578495472649163" lon="-7.8058481933707355"><ele>527.0</ele><time>2026-04-24T08:37:22.999Z</time></trkpt><trkpt lat="31.57851219303844" lon="-7.805722102522112"><ele>527.0</ele><time>2026-04-24T08:37:23.999Z</time></trkpt><trkpt lat="31.578521384704526" lon="-7.805574294162791"><ele>527.3333333333333</ele><time>2026-04-24T08:37:24.999Z</time></trkpt><trkpt lat="31.578522380145184" lon="-7.80540594315834"><ele>527.6666666666666</ele><time>2026-04-24T08:37:25.999Z</time></trkpt><trkpt lat="31.578523694794505" lon="-7.805219652444648"><ele>528.0</ele><time>2026-04-24T08:37:26.999Z</time></trkpt><trkpt lat="31.578524245707687" lon="-7.805034962567724"><ele>528.0</ele><time>2026-04-24T08:37:27.999Z</time></trkpt><trkpt lat="31.578525712955276" lon="-7.804834608177498"><ele>528.0</ele><time>2026-04-24T08:37:28.999Z</time></trkpt><trkpt lat="31.578526770210075" lon="-7.804624080984689"><ele>528.0</ele><time>2026-04-24T08:37:29.999Z</time></trkpt><trkpt lat="31.57852843531245" lon="-7.804409553602753"><ele>528.0</ele><time>2026-04-24T08:37:30.999Z</time></trkpt><trkpt lat="31.57853077704902" lon="-7.8041946636868555"><ele>528.0</ele><time>2026-04-24T08:37:31.999Z</time></trkpt><trkpt lat="31.578533720988595" lon="-7.8039791632210616"><ele>528.0</ele><time>2026-04-24T08:37:32.999Z</time></trkpt><trkpt lat="31.57853430420552" lon="-7.803764767724536"><ele>528.0</ele><time>2026-04-24T08:37:33.999Z</time></trkpt><trkpt lat="31.578536174415323" lon="-7.803546464271129"><ele>528.0</ele><time>2026-04-24T08:37:34.999Z</time></trkpt><trkpt lat="31.57853732549477" lon="-7.803324796117247"><ele>528.0</ele><time>2026-04-24T08:37:35.999Z</time></trkpt><trkpt lat="31.578538676117265" lon="-7.803111470257082"><ele>528.0</ele><time>2026-04-24T08:37:36.999Z</time></trkpt><trkpt lat="31.578539657724612" lon="-7.802915940128781"><ele>528.0</ele><time>2026-04-24T08:37:37.999Z</time></trkpt><trkpt lat="31.5785434868475" lon="-7.802739359780874"><ele>528.0</ele><time>2026-04-24T08:37:39Z</time></trkpt><trkpt lat="31.578545167835298" lon="-7.80258313647544"><ele>528.0</ele><time>2026-04-24T08:37:40Z</time></trkpt><trkpt lat="31.578547502358454" lon="-7.80244364390181"><ele>528.0</ele><time>2026-04-24T08:37:41Z</time></trkpt><trkpt lat="31.578549234563106" lon="-7.802315952294837"><ele>528.0</ele><time>2026-04-24T08:37:42Z</time></trkpt><trkpt lat="31.578549080613296" lon="-7.802196741011957"><ele>528.0</ele><time>2026-04-24T08:37:43Z</time></trkpt><trkpt lat="31.578546801785155" lon="-7.802092360173609"><ele>528.0</ele><time>2026-04-24T08:37:44Z</time></trkpt><trkpt lat="31.578545437171947" lon="-7.801992447675991"><ele>528.0</ele><time>2026-04-24T08:37:45Z</time></trkpt><trkpt lat="31.578543285597757" lon="-7.801894614479421"><ele>528.0</ele><time>2026-04-24T08:37:46Z</time></trkpt><trkpt lat="31.5785401814227" lon="-7.801799186436728"><ele>528.0</ele><time>2026-04-24T08:37:47Z</time></trkpt><trkpt lat="31.578537712562404" lon="-7.801706719704143"><ele>528.0</ele><time>2026-04-24T08:37:48Z</time></trkpt><trkpt lat="31.578535382954207" lon="-7.801624941181448"><ele>528.0</ele><time>2026-04-24T08:37:49Z</time></trkpt><trkpt lat="31.57853419535378" lon="-7.801544959350913"><ele>528.0</ele><time>2026-04-24T08:37:50Z</time></trkpt><trkpt lat="31.578530931478568" lon="-7.801463660052612"><ele>528.1666666666666</ele><time>2026-04-24T08:37:51Z</time></trkpt><trkpt lat="31.578526391589413" lon="-7.801381238221355"><ele>528.3333333333334</ele><time>2026-04-24T08:37:52Z</time></trkpt><trkpt lat="31.57851895540633" lon="-7.801294007329506"><ele>528.5</ele><time>2026-04-24T08:37:53Z</time></trkpt><trkpt lat="31.578514847577953" lon="-7.801201064325629"><ele>528.6666666666667</ele><time>2026-04-24T08:37:54Z</time></trkpt><trkpt lat="31.57852403769662" lon="-7.8010974335135"><ele>528.8333333333334</ele><time>2026-04-24T08:37:55Z</time></trkpt><trkpt lat="31.57854417482945" lon="-7.800980020708858"><ele>529.0</ele><time>2026-04-24T08:37:56Z</time></trkpt><trkpt lat="31.57856825042007" lon="-7.8008505383120035"><ele>529.0</ele><time>2026-04-24T08:37:57Z</time></trkpt><trkpt lat="31.578594170094146" lon="-7.800710702331984"><ele>529.0</ele><time>2026-04-24T08:37:58Z</time></trkpt><trkpt lat="31.578625259769574" lon="-7.800559073269743"><ele>529.0</ele><time>2026-04-24T08:37:59Z</time></trkpt><trkpt lat="31.578660701170133" lon="-7.800403733946477"><ele>529.0</ele><time>2026-04-24T08:38:00Z</time></trkpt><trkpt lat="31.578704513265016" lon="-7.800250098385745"><ele>527.75</ele><time>2026-04-24T08:38:01Z</time></trkpt><trkpt lat="31.578752128063776" lon="-7.80009634778123"><ele>526.5</ele><time>2026-04-24T08:38:02Z</time></trkpt><trkpt lat="31.57881062756355" lon="-7.799942991734253"><ele>525.25</ele><time>2026-04-24T08:38:03Z</time></trkpt><trkpt lat="31.57887214213521" lon="-7.799792017242449"><ele>524.0</ele><time>2026-04-24T08:38:04Z</time></trkpt><trkpt lat="31.57894083181692" lon="-7.7996420908828705"><ele>524.0</ele><time>2026-04-24T08:38:05Z</time></trkpt><trkpt lat="31.579016644160884" lon="-7.799495481129163"><ele>524.0</ele><time>2026-04-24T08:38:06Z</time></trkpt><trkpt lat="31.579103159734284" lon="-7.7993554570534895"><ele>524.0</ele><time>2026-04-24T08:38:07Z</time></trkpt><trkpt lat="31.57919900931601" lon="-7.799215896414244"><ele>524.0</ele><time>2026-04-24T08:38:08Z</time></trkpt><trkpt lat="31.57930467604629" lon="-7.7990738106888475"><ele>524.3333333333333</ele><time>2026-04-24T08:38:09Z</time></trkpt><trkpt lat="31.57942489756782" lon="-7.7989290709604076"><ele>524.6666666666666</ele><time>2026-04-24T08:38:10Z</time></trkpt><trkpt lat="31.579550112145235" lon="-7.798776361049722"><ele>525.0</ele><time>2026-04-24T08:38:11Z</time></trkpt><trkpt lat="31.57967579974856" lon="-7.798616257910243"><ele>525.0</ele><time>2026-04-24T08:38:12Z</time></trkpt><trkpt lat="31.579803009683477" lon="-7.7984526960453815"><ele>525.0</ele><time>2026-04-24T08:38:13Z</time></trkpt><trkpt lat="31.579930506502084" lon="-7.798288015737126"><ele>525.0</ele><time>2026-04-24T08:38:14Z</time></trkpt><trkpt lat="31.580063626413065" lon="-7.798117243417573"><ele>525.0</ele><time>2026-04-24T08:38:15Z</time></trkpt><trkpt lat="31.58019645303552" lon="-7.797943162853015"><ele>525.0</ele><time>2026-04-24T08:38:16Z</time></trkpt><trkpt lat="31.58033173308398" lon="-7.797764887259918"><ele>525.0</ele><time>2026-04-24T08:38:17Z</time></trkpt><trkpt lat="31.580465887908918" lon="-7.797583720060462"><ele>524.0</ele><time>2026-04-24T08:38:18Z</time></trkpt><trkpt lat="31.580603292130597" lon="-7.797399047727389"><ele>523.0</ele><time>2026-04-24T08:38:19Z</time></trkpt><trkpt lat="31.580745455062303" lon="-7.797211348435749"><ele>522.0</ele><time>2026-04-24T08:38:20Z</time></trkpt><trkpt lat="31.580886704899946" lon="-7.7970253717481"><ele>522.0</ele><time>2026-04-24T08:38:21Z</time></trkpt><trkpt lat="31.581031407622635" lon="-7.796839056389225"><ele>522.0</ele><time>2026-04-24T08:38:22Z</time></trkpt><trkpt lat="31.581174063371382" lon="-7.796656322417527"><ele>522.0</ele><time>2026-04-24T08:38:23Z</time></trkpt><trkpt lat="31.581315136319812" lon="-7.796473675395823"><ele>522.3333333333334</ele><time>2026-04-24T08:38:24Z</time></trkpt><trkpt lat="31.581453629448333" lon="-7.796291838466352"><ele>522.6666666666667</ele><time>2026-04-24T08:38:25Z</time></trkpt><trkpt lat="31.581584077618345" lon="-7.796109743412736"><ele>523.0</ele><time>2026-04-24T08:38:26Z</time></trkpt><trkpt lat="31.581693032199844" lon="-7.795925212309207"><ele>524.0</ele><time>2026-04-24T08:38:27Z</time></trkpt><trkpt lat="31.581783445823678" lon="-7.7957297793874005"><ele>525.0</ele><time>2026-04-24T08:38:28Z</time></trkpt><trkpt lat="31.581845271659812" lon="-7.795541375754365"><ele>526.0</ele><time>2026-04-24T08:38:29Z</time></trkpt><trkpt lat="31.581892410638375" lon="-7.795351183809364"><ele>526.0</ele><time>2026-04-24T08:38:30Z</time></trkpt><trkpt lat="31.581921862912992" lon="-7.795169064393993"><ele>526.0</ele><time>2026-04-24T08:38:31Z</time></trkpt><trkpt lat="31.581937709513586" lon="-7.7949954671951955"><ele>526.0</ele><time>2026-04-24T08:38:32Z</time></trkpt><trkpt lat="31.581930971268672" lon="-7.794835414709712"><ele>526.0</ele><time>2026-04-24T08:38:33Z</time></trkpt><trkpt lat="31.581906382560824" lon="-7.794685710839134"><ele>526.0</ele><time>2026-04-24T08:38:33.999Z</time></trkpt><trkpt lat="31.581871041238113" lon="-7.794548523751086"><ele>526.0</ele><time>2026-04-24T08:38:34.999Z</time></trkpt><trkpt lat="31.58183414864935" lon="-7.794420872252966"><ele>526.0</ele><time>2026-04-24T08:38:35.999Z</time></trkpt><trkpt lat="31.581805751729494" lon="-7.7942863602745005"><ele>526.0</ele><time>2026-04-24T08:38:36.999Z</time></trkpt><trkpt lat="31.58177908515046" lon="-7.794145485628454"><ele>526.25</ele><time>2026-04-24T08:38:37.999Z</time></trkpt><trkpt lat="31.58173797481887" lon="-7.794004767107077"><ele>526.5</ele><time>2026-04-24T08:38:38.999Z</time></trkpt><trkpt lat="31.581679394374856" lon="-7.7938668076893105"><ele>526.75</ele><time>2026-04-24T08:38:39.999Z</time></trkpt><trkpt lat="31.581603272080173" lon="-7.793727266737188"><ele>527.0</ele><time>2026-04-24T08:38:40.999Z</time></trkpt><trkpt lat="31.581510695325484" lon="-7.793586669926947"><ele>526.6666666666666</ele><time>2026-04-24T08:38:41.999Z</time></trkpt><trkpt lat="31.581410432666424" lon="-7.793442192887826"><ele>526.3333333333334</ele><time>2026-04-24T08:38:42.999Z</time></trkpt><trkpt lat="31.581306265497375" lon="-7.793292369735817"><ele>526.0</ele><time>2026-04-24T08:38:43.999Z</time></trkpt><trkpt lat="31.581197710525185" lon="-7.793140281041998"><ele>526.3333333333334</ele><time>2026-04-24T08:38:44.999Z</time></trkpt><trkpt lat="31.58108499956343" lon="-7.792984307928379"><ele>526.6666666666666</ele><time>2026-04-24T08:38:45.999Z</time></trkpt><trkpt lat="31.580967603576497" lon="-7.792822174660935"><ele>527.0</ele><time>2026-04-24T08:38:46.999Z</time></trkpt><trkpt lat="31.580846381193847" lon="-7.792653066326851"><ele>527.3333333333333</ele><time>2026-04-24T08:38:47.999Z</time></trkpt><trkpt lat="31.580722021328615" lon="-7.792478217413573"><ele>527.6666666666666</ele><time>2026-04-24T08:38:48.999Z</time></trkpt><trkpt lat="31.58059529572938" lon="-7.792300002529624"><ele>528.0</ele><time>2026-04-24T08:38:49.999Z</time></trkpt><trkpt lat="31.580473382212297" lon="-7.792128649626033"><ele>528.0</ele><time>2026-04-24T08:38:50.999Z</time></trkpt><trkpt lat="31.580348061673593" lon="-7.791952839991478"><ele>528.0</ele><time>2026-04-24T08:38:51.999Z</time></trkpt><trkpt lat="31.58022029744184" lon="-7.7917707228678665"><ele>528.0</ele><time>2026-04-24T08:38:52.999Z</time></trkpt><trkpt lat="31.580090965507743" lon="-7.791586566254697"><ele>528.6666666666666</ele><time>2026-04-24T08:38:53.999Z</time></trkpt><trkpt lat="31.57995901509788" lon="-7.791403618471333"><ele>529.3333333333333</ele><time>2026-04-24T08:38:54.999Z</time></trkpt><trkpt lat="31.579826370713516" lon="-7.79122043577873"><ele>530.0</ele><time>2026-04-24T08:38:55.999Z</time></trkpt><trkpt lat="31.57969383081862" lon="-7.791035156235622"><ele>530.0</ele><time>2026-04-24T08:38:56.999Z</time></trkpt><trkpt lat="31.579561365986606" lon="-7.790849793773767"><ele>530.0</ele><time>2026-04-24T08:38:57.999Z</time></trkpt><trkpt lat="31.579429174191553" lon="-7.79066472657104"><ele>530.0</ele><time>2026-04-24T08:38:58.999Z</time></trkpt><trkpt lat="31.57929630095116" lon="-7.790479427003213"><ele>530.3333333333333</ele><time>2026-04-24T08:38:59.999Z</time></trkpt><trkpt lat="31.579163608229404" lon="-7.790293468797271"><ele>530.6666666666666</ele><time>2026-04-24T08:39:00.999Z</time></trkpt><trkpt lat="31.579032052624868" lon="-7.790102716535592"><ele>531.0</ele><time>2026-04-24T08:39:01.999Z</time></trkpt><trkpt lat="31.578902991789185" lon="-7.789907467189898"><ele>531.0</ele><time>2026-04-24T08:39:02.999Z</time></trkpt><trkpt lat="31.578780978820493" lon="-7.789704498723344"><ele>531.0</ele><time>2026-04-24T08:39:03.999Z</time></trkpt><trkpt lat="31.57866808770243" lon="-7.789492670551258"><ele>531.0</ele><time>2026-04-24T08:39:04.999Z</time></trkpt><trkpt lat="31.57856010073426" lon="-7.789276269447024"><ele>531.0</ele><time>2026-04-24T08:39:05.999Z</time></trkpt><trkpt lat="31.57846146807405" lon="-7.789052022991806"><ele>531.0</ele><time>2026-04-24T08:39:06.999Z</time></trkpt><trkpt lat="31.578366911475698" lon="-7.788824658712967"><ele>531.0</ele><time>2026-04-24T08:39:07.999Z</time></trkpt><trkpt lat="31.578282359236695" lon="-7.788589557316717"><ele>531.3333333333334</ele><time>2026-04-24T08:39:08.999Z</time></trkpt><trkpt lat="31.578204658651373" lon="-7.788348457921419"><ele>531.6666666666667</ele><time>2026-04-24T08:39:09.999Z</time></trkpt><trkpt lat="31.578133180327022" lon="-7.78810249531814"><ele>532.0</ele><time>2026-04-24T08:39:10.999Z</time></trkpt><trkpt lat="31.578067496272187" lon="-7.78785433680319"><ele>532.6666666666667</ele><time>2026-04-24T08:39:11.999Z</time></trkpt><trkpt lat="31.57800566320495" lon="-7.787606601395677"><ele>533.3333333333334</ele><time>2026-04-24T08:39:12.999Z</time></trkpt><trkpt lat="31.577949064984352" lon="-7.787360606253907"><ele>534.0</ele><time>2026-04-24T08:39:13.999Z</time></trkpt><trkpt lat="31.577898238807627" lon="-7.7871263150129755"><ele>534.0</ele><time>2026-04-24T08:39:14.999Z</time></trkpt><trkpt lat="31.577849942917535" lon="-7.786901342177964"><ele>534.0</ele><time>2026-04-24T08:39:15.999Z</time></trkpt><trkpt lat="31.57780308629983" lon="-7.786680182021327"><ele>534.0</ele><time>2026-04-24T08:39:16.999Z</time></trkpt><trkpt lat="31.57775514442949" lon="-7.786459442650456"><ele>534.0</ele><time>2026-04-24T08:39:17.999Z</time></trkpt><trkpt lat="31.577707838243004" lon="-7.786239383072556"><ele>534.0</ele><time>2026-04-24T08:39:18.999Z</time></trkpt><trkpt lat="31.577659752816007" lon="-7.78601769096045"><ele>534.0</ele><time>2026-04-24T08:39:19.999Z</time></trkpt><trkpt lat="31.577611684025047" lon="-7.785792631728555"><ele>534.3333333333334</ele><time>2026-04-24T08:39:20.999Z</time></trkpt><trkpt lat="31.577560017874777" lon="-7.785561848755054"><ele>534.6666666666667</ele><time>2026-04-24T08:39:21.999Z</time></trkpt><trkpt lat="31.577509261179554" lon="-7.785328144807124"><ele>535.0</ele><time>2026-04-24T08:39:22.999Z</time></trkpt><trkpt lat="31.577458193366212" lon="-7.785095003747889"><ele>535.3333333333334</ele><time>2026-04-24T08:39:23.999Z</time></trkpt><trkpt lat="31.577408709264876" lon="-7.784866051016201"><ele>535.6666666666666</ele><time>2026-04-24T08:39:24.999Z</time></trkpt><trkpt lat="31.57735877159055" lon="-7.784637304053714"><ele>536.0</ele><time>2026-04-24T08:39:25.999Z</time></trkpt><trkpt lat="31.57730918581497" lon="-7.784407513059224"><ele>536.3333333333333</ele><time>2026-04-24T08:39:26.999Z</time></trkpt><trkpt lat="31.57725742366066" lon="-7.7841770684685025"><ele>536.6666666666666</ele><time>2026-04-24T08:39:27.999Z</time></trkpt><trkpt lat="31.577208026258575" lon="-7.783950931980941"><ele>537.0</ele><time>2026-04-24T08:39:28.999Z</time></trkpt><trkpt lat="31.577164079686153" lon="-7.783739878310215"><ele>537.0</ele><time>2026-04-24T08:39:29.999Z</time></trkpt><trkpt lat="31.577121330438548" lon="-7.783532886076459"><ele>537.0</ele><time>2026-04-24T08:39:30.999Z</time></trkpt><trkpt lat="31.57707750014528" lon="-7.783330401315861"><ele>537.0</ele><time>2026-04-24T08:39:31.999Z</time></trkpt><trkpt lat="31.57703706561326" lon="-7.783133938135086"><ele>537.0</ele><time>2026-04-24T08:39:32.999Z</time></trkpt><trkpt lat="31.576996850176357" lon="-7.7829392976851395"><ele>537.0</ele><time>2026-04-24T08:39:33.999Z</time></trkpt><trkpt lat="31.57695659098293" lon="-7.782740583723472"><ele>537.0</ele><time>2026-04-24T08:39:34.999Z</time></trkpt><trkpt lat="31.57691279359624" lon="-7.78254072976262"><ele>537.0</ele><time>2026-04-24T08:39:35.999Z</time></trkpt><trkpt lat="31.57687037802917" lon="-7.782340438731333"><ele>537.0</ele><time>2026-04-24T08:39:36.999Z</time></trkpt><trkpt lat="31.576826352413566" lon="-7.782137600934278"><ele>537.0</ele><time>2026-04-24T08:39:37.999Z</time></trkpt><trkpt lat="31.576781733704877" lon="-7.781934709000062"><ele>537.3333333333334</ele><time>2026-04-24T08:39:38.999Z</time></trkpt><trkpt lat="31.576734733528408" lon="-7.781725731214969"><ele>537.6666666666667</ele><time>2026-04-24T08:39:39.999Z</time></trkpt><trkpt lat="31.576686023479475" lon="-7.781515039684615"><ele>538.0</ele><time>2026-04-24T08:39:40.999Z</time></trkpt><trkpt lat="31.576633237694317" lon="-7.781301036183055"><ele>538.0</ele><time>2026-04-24T08:39:41.999Z</time></trkpt><trkpt lat="31.576579665608467" lon="-7.781080075518755"><ele>538.0</ele><time>2026-04-24T08:39:42.999Z</time></trkpt><trkpt lat="31.576526022048615" lon="-7.780850796831174"><ele>538.0</ele><time>2026-04-24T08:39:43.999Z</time></trkpt><trkpt lat="31.576474821214603" lon="-7.780616964972187"><ele>538.6666666666667</ele><time>2026-04-24T08:39:45Z</time></trkpt><trkpt lat="31.57642433213125" lon="-7.780380113507894"><ele>539.3333333333334</ele><time>2026-04-24T08:39:46Z</time></trkpt><trkpt lat="31.576373118595534" lon="-7.78013939879512"><ele>540.0</ele><time>2026-04-24T08:39:47Z</time></trkpt><trkpt lat="31.576322568074705" lon="-7.779898713706968"><ele>540.3333333333334</ele><time>2026-04-24T08:39:48Z</time></trkpt><trkpt lat="31.576272529620933" lon="-7.779655295310445"><ele>540.6666666666667</ele><time>2026-04-24T08:39:49Z</time></trkpt><trkpt lat="31.57621731133199" lon="-7.779411491259059"><ele>541.0</ele><time>2026-04-24T08:39:50Z</time></trkpt><trkpt lat="31.57616500468953" lon="-7.779163493618783"><ele>541.0</ele><time>2026-04-24T08:39:51Z</time></trkpt><trkpt lat="31.576113132695312" lon="-7.778916839439378"><ele>541.0</ele><time>2026-04-24T08:39:52Z</time></trkpt><trkpt lat="31.57606070319084" lon="-7.778669611104289"><ele>541.0</ele><time>2026-04-24T08:39:53Z</time></trkpt><trkpt lat="31.576010105883828" lon="-7.77842269487151"><ele>541.3333333333334</ele><time>2026-04-24T08:39:54Z</time></trkpt><trkpt lat="31.57595871405019" lon="-7.77817632037045"><ele>541.6666666666666</ele><time>2026-04-24T08:39:55Z</time></trkpt><trkpt lat="31.57590413336211" lon="-7.7779303604269865"><ele>542.0</ele><time>2026-04-24T08:39:56Z</time></trkpt><trkpt lat="31.575849519017105" lon="-7.777683546010841"><ele>542.0</ele><time>2026-04-24T08:39:57Z</time></trkpt><trkpt lat="31.575792666150686" lon="-7.777436980720354"><ele>542.0</ele><time>2026-04-24T08:39:58Z</time></trkpt><trkpt lat="31.575737893988517" lon="-7.777190745856375"><ele>542.0</ele><time>2026-04-24T08:39:59Z</time></trkpt><trkpt lat="31.57568437489514" lon="-7.776942959958166"><ele>542.0</ele><time>2026-04-24T08:40:00Z</time></trkpt><trkpt lat="31.57562964128555" lon="-7.776693550383833"><ele>542.0</ele><time>2026-04-24T08:40:01Z</time></trkpt><trkpt lat="31.57557448335576" lon="-7.776444966729636"><ele>542.0</ele><time>2026-04-24T08:40:02Z</time></trkpt><trkpt lat="31.575520578703543" lon="-7.776196655800805"><ele>542.3333333333333</ele><time>2026-04-24T08:40:03Z</time></trkpt><trkpt lat="31.57546462872814" lon="-7.775952474965953"><ele>542.6666666666666</ele><time>2026-04-24T08:40:04Z</time></trkpt><trkpt lat="31.575408496845096" lon="-7.775711990225825"><ele>543.0</ele><time>2026-04-24T08:40:05Z</time></trkpt><trkpt lat="31.57535803054766" lon="-7.775470662184792"><ele>543.0</ele><time>2026-04-24T08:40:06Z</time></trkpt><trkpt lat="31.575304697410424" lon="-7.7752297055929205"><ele>543.0</ele><time>2026-04-24T08:40:07Z</time></trkpt><trkpt lat="31.575252788206814" lon="-7.774986705010986"><ele>543.0</ele><time>2026-04-24T08:40:08Z</time></trkpt><trkpt lat="31.57519883117715" lon="-7.774740200060993"><ele>543.6666666666666</ele><time>2026-04-24T08:40:09Z</time></trkpt><trkpt lat="31.575144141715132" lon="-7.774491317627059"><ele>544.3333333333333</ele><time>2026-04-24T08:40:10Z</time></trkpt><trkpt lat="31.575089768823286" lon="-7.774243354888551"><ele>545.0</ele><time>2026-04-24T08:40:11Z</time></trkpt><trkpt lat="31.575036941958835" lon="-7.773996074247079"><ele>545.6666666666666</ele><time>2026-04-24T08:40:12Z</time></trkpt><trkpt lat="31.574978933110984" lon="-7.7737528690466124"><ele>546.3333333333334</ele><time>2026-04-24T08:40:13Z</time></trkpt><trkpt lat="31.574920656846388" lon="-7.773513140309461"><ele>547.0</ele><time>2026-04-24T08:40:14Z</time></trkpt><trkpt lat="31.574867763267793" lon="-7.7732764854882035"><ele>547.0</ele><time>2026-04-24T08:40:15Z</time></trkpt><trkpt lat="31.574816307922877" lon="-7.7730461342028745"><ele>547.0</ele><time>2026-04-24T08:40:16Z</time></trkpt><trkpt lat="31.574765007277435" lon="-7.7728203800988185"><ele>547.0</ele><time>2026-04-24T08:40:17Z</time></trkpt><trkpt lat="31.574713957751296" lon="-7.772598576271"><ele>547.3333333333334</ele><time>2026-04-24T08:40:18Z</time></trkpt><trkpt lat="31.5746647490529" lon="-7.7723821386477345"><ele>547.6666666666666</ele><time>2026-04-24T08:40:19Z</time></trkpt><trkpt lat="31.574618941841475" lon="-7.7721704531766385"><ele>548.0</ele><time>2026-04-24T08:40:20Z</time></trkpt><trkpt lat="31.574573699493577" lon="-7.771962612796475"><ele>548.3333333333333</ele><time>2026-04-24T08:40:21Z</time></trkpt><trkpt lat="31.57452978643006" lon="-7.771760635709263"><ele>548.6666666666666</ele><time>2026-04-24T08:40:22Z</time></trkpt><trkpt lat="31.574487120668763" lon="-7.771566659556108"><ele>549.0</ele><time>2026-04-24T08:40:23Z</time></trkpt><trkpt lat="31.574449212195493" lon="-7.77138414717659"><ele>549.0</ele><time>2026-04-24T08:40:24Z</time></trkpt><trkpt lat="31.574407802167816" lon="-7.771217226648488"><ele>549.0</ele><time>2026-04-24T08:40:25Z</time></trkpt><trkpt lat="31.57437139252509" lon="-7.7710555344692285"><ele>549.0</ele><time>2026-04-24T08:40:26Z</time></trkpt><trkpt lat="31.574336945143116" lon="-7.770908373806746"><ele>549.0</ele><time>2026-04-24T08:40:27Z</time></trkpt><trkpt lat="31.574305230752454" lon="-7.770770820590834"><ele>548.75</ele><time>2026-04-24T08:40:28Z</time></trkpt><trkpt lat="31.574272790090774" lon="-7.770636252685611"><ele>548.5</ele><time>2026-04-24T08:40:29Z</time></trkpt><trkpt lat="31.57423292949352" lon="-7.770506295642713"><ele>548.25</ele><time>2026-04-24T08:40:30Z</time></trkpt><trkpt lat="31.574187880823228" lon="-7.770378896329053"><ele>548.0</ele><time>2026-04-24T08:40:31Z</time></trkpt><trkpt lat="31.574156861495027" lon="-7.77024831035463"><ele>548.75</ele><time>2026-04-24T08:40:32Z</time></trkpt><trkpt lat="31.574100088230754" lon="-7.770127972060129"><ele>549.5</ele><time>2026-04-24T08:40:33Z</time></trkpt><trkpt lat="31.574072664685545" lon="-7.769996249648672"><ele>550.25</ele><time>2026-04-24T08:40:34Z</time></trkpt><trkpt lat="31.574058778814944" lon="-7.769858505315307"><ele>551.0</ele><time>2026-04-24T08:40:35Z</time></trkpt><trkpt lat="31.574040536399057" lon="-7.769709760464984"><ele>551.0</ele><time>2026-04-24T08:40:35.999Z</time></trkpt><trkpt lat="31.57401203395655" lon="-7.769543409010852"><ele>551.0</ele><time>2026-04-24T08:40:36.999Z</time></trkpt><trkpt lat="31.573972600168133" lon="-7.76936707656726"><ele>551.0</ele><time>2026-04-24T08:40:37.999Z</time></trkpt><trkpt lat="31.57393214567066" lon="-7.769178176742298"><ele>550.6666666666666</ele><time>2026-04-24T08:40:38.999Z</time></trkpt><trkpt lat="31.573890695762138" lon="-7.7689834177576875"><ele>550.3333333333334</ele><time>2026-04-24T08:40:39.999Z</time></trkpt><trkpt lat="31.573846942873292" lon="-7.768782985749791"><ele>550.0</ele><time>2026-04-24T08:40:40.999Z</time></trkpt><trkpt lat="31.573801499405576" lon="-7.768575045653747"><ele>550.0</ele><time>2026-04-24T08:40:41.999Z</time></trkpt><trkpt lat="31.573755305644887" lon="-7.768363726333592"><ele>550.0</ele><time>2026-04-24T08:40:42.999Z</time></trkpt><trkpt lat="31.573709858995873" lon="-7.768153529818291"><ele>550.0</ele><time>2026-04-24T08:40:43.999Z</time></trkpt><trkpt lat="31.57366372207557" lon="-7.767935803982641"><ele>550.3333333333334</ele><time>2026-04-24T08:40:44.999Z</time></trkpt><trkpt lat="31.573615768755865" lon="-7.767716813144624"><ele>550.6666666666666</ele><time>2026-04-24T08:40:45.999Z</time></trkpt><trkpt lat="31.57356540500429" lon="-7.767494855957983"><ele>551.0</ele><time>2026-04-24T08:40:46.999Z</time></trkpt><trkpt lat="31.573515079749274" lon="-7.767273299400396"><ele>551.3333333333333</ele><time>2026-04-24T08:40:47.999Z</time></trkpt><trkpt lat="31.573465261394773" lon="-7.76704890977824"><ele>551.6666666666666</ele><time>2026-04-24T08:40:48.999Z</time></trkpt><trkpt lat="31.57341567376526" lon="-7.766824919038724"><ele>552.0</ele><time>2026-04-24T08:40:49.999Z</time></trkpt><trkpt lat="31.573363899970012" lon="-7.7666028841134125"><ele>552.6666666666666</ele><time>2026-04-24T08:40:50.999Z</time></trkpt><trkpt lat="31.573313393507785" lon="-7.766381257838198"><ele>553.3333333333333</ele><time>2026-04-24T08:40:51.999Z</time></trkpt><trkpt lat="31.573263565787578" lon="-7.766159574613646"><ele>554.0</ele><time>2026-04-24T08:40:52.999Z</time></trkpt><trkpt lat="31.573215772568098" lon="-7.76593716984163"><ele>554.0</ele><time>2026-04-24T08:40:53.999Z</time></trkpt><trkpt lat="31.5731673350949" lon="-7.765709835235992"><ele>554.0</ele><time>2026-04-24T08:40:54.999Z</time></trkpt><trkpt lat="31.573120120759445" lon="-7.7654783020222915"><ele>554.0</ele><time>2026-04-24T08:40:55.999Z</time></trkpt><trkpt lat="31.573070982145296" lon="-7.765241340909838"><ele>553.6666666666666</ele><time>2026-04-24T08:40:56.999Z</time></trkpt><trkpt lat="31.573021830874048" lon="-7.765000675907737"><ele>553.3333333333334</ele><time>2026-04-24T08:40:57.999Z</time></trkpt><trkpt lat="31.57297059413784" lon="-7.764755028434033"><ele>553.0</ele><time>2026-04-24T08:40:58.999Z</time></trkpt><trkpt lat="31.572917623670723" lon="-7.764507847028605"><ele>553.6666666666667</ele><time>2026-04-24T08:40:59.999Z</time></trkpt><trkpt lat="31.57286357719833" lon="-7.76425663884148"><ele>554.3333333333334</ele><time>2026-04-24T08:41:00.999Z</time></trkpt><trkpt lat="31.57280837702441" lon="-7.764002077285134"><ele>555.0</ele><time>2026-04-24T08:41:01.999Z</time></trkpt><trkpt lat="31.57275252822811" lon="-7.763746629451201"><ele>555.5</ele><time>2026-04-24T08:41:02.999Z</time></trkpt><trkpt lat="31.572696478427865" lon="-7.763489840897807"><ele>556.0</ele><time>2026-04-24T08:41:03.999Z</time></trkpt><trkpt lat="31.57264041497879" lon="-7.763231539096342"><ele>556.0</ele><time>2026-04-24T08:41:04.999Z</time></trkpt><trkpt lat="31.572584143591584" lon="-7.762971328714883"><ele>556.0</ele><time>2026-04-24T08:41:05.999Z</time></trkpt><trkpt lat="31.572528130764262" lon="-7.762708698307314"><ele>556.5</ele><time>2026-04-24T08:41:06.999Z</time></trkpt><trkpt lat="31.572470165916776" lon="-7.762442970605396"><ele>557.0</ele><time>2026-04-24T08:41:07.999Z</time></trkpt><trkpt lat="31.572412957822017" lon="-7.762174638531038"><ele>557.0</ele><time>2026-04-24T08:41:08.999Z</time></trkpt><trkpt lat="31.572357364248333" lon="-7.761913343971577"><ele>557.0</ele><time>2026-04-24T08:41:09.999Z</time></trkpt><trkpt lat="31.5723031558031" lon="-7.761656711931805"><ele>557.3333333333333</ele><time>2026-04-24T08:41:10.999Z</time></trkpt><trkpt lat="31.572249657060386" lon="-7.761407550961994"><ele>557.6666666666666</ele><time>2026-04-24T08:41:11.999Z</time></trkpt><trkpt lat="31.572197627958012" lon="-7.76116446560425"><ele>558.0</ele><time>2026-04-24T08:41:12.999Z</time></trkpt><trkpt lat="31.5721468163804" lon="-7.760924143433522"><ele>558.3333333333334</ele><time>2026-04-24T08:41:13.999Z</time></trkpt><trkpt lat="31.572097681345017" lon="-7.760687582401617"><ele>558.6666666666667</ele><time>2026-04-24T08:41:14.999Z</time></trkpt><trkpt lat="31.572048691598958" lon="-7.76045038029373"><ele>559.0</ele><time>2026-04-24T08:41:15.999Z</time></trkpt><trkpt lat="31.572001976120273" lon="-7.760211071560828"><ele>559.3333333333334</ele><time>2026-04-24T08:41:16.999Z</time></trkpt><trkpt lat="31.571952137453856" lon="-7.759967647876046"><ele>559.6666666666666</ele><time>2026-04-24T08:41:17.999Z</time></trkpt><trkpt lat="31.5719039827454" lon="-7.759723488130923"><ele>560.0</ele><time>2026-04-24T08:41:18.999Z</time></trkpt><trkpt lat="31.57185485145918" lon="-7.759483065728475"><ele>560.0</ele><time>2026-04-24T08:41:19.999Z</time></trkpt><trkpt lat="31.57180645712587" lon="-7.759246686974532"><ele>560.0</ele><time>2026-04-24T08:41:20.999Z</time></trkpt><trkpt lat="31.571757992101336" lon="-7.759014094080772"><ele>560.0</ele><time>2026-04-24T08:41:21.999Z</time></trkpt><trkpt lat="31.571709476929332" lon="-7.758785102112935"><ele>560.0</ele><time>2026-04-24T08:41:22.999Z</time></trkpt><trkpt lat="31.5716634738987" lon="-7.758563371633328"><ele>560.0</ele><time>2026-04-24T08:41:23.999Z</time></trkpt><trkpt lat="31.571621375768572" lon="-7.75835910311802"><ele>560.0</ele><time>2026-04-24T08:41:24.999Z</time></trkpt><trkpt lat="31.571578643159658" lon="-7.758165885160737"><ele>560.6666666666666</ele><time>2026-04-24T08:41:25.999Z</time></trkpt><trkpt lat="31.571540376404432" lon="-7.7579766496131795"><ele>561.3333333333334</ele><time>2026-04-24T08:41:26.999Z</time></trkpt><trkpt lat="31.571503658689963" lon="-7.757783303664141"><ele>562.0</ele><time>2026-04-24T08:41:27.999Z</time></trkpt><trkpt lat="31.571464664373043" lon="-7.757584651682562"><ele>562.3333333333334</ele><time>2026-04-24T08:41:28.999Z</time></trkpt><trkpt lat="31.571425587915268" lon="-7.7573864114144016"><ele>562.6666666666666</ele><time>2026-04-24T08:41:29.999Z</time></trkpt><trkpt lat="31.571388776886327" lon="-7.75718712888327"><ele>563.0</ele><time>2026-04-24T08:41:30.999Z</time></trkpt><trkpt lat="31.571348459070713" lon="-7.756984225229822"><ele>563.3333333333333</ele><time>2026-04-24T08:41:31.999Z</time></trkpt><trkpt lat="31.57130705067369" lon="-7.756775472734981"><ele>563.6666666666666</ele><time>2026-04-24T08:41:32.999Z</time></trkpt><trkpt lat="31.57126459862293" lon="-7.756562958283652"><ele>564.0</ele><time>2026-04-24T08:41:33.999Z</time></trkpt><trkpt lat="31.57121772869351" lon="-7.756345317301613"><ele>564.0</ele><time>2026-04-24T08:41:34.999Z</time></trkpt><trkpt lat="31.571172246962227" lon="-7.7561247962242685"><ele>564.0</ele><time>2026-04-24T08:41:35.999Z</time></trkpt><trkpt lat="31.57112875324496" lon="-7.755901371865321"><ele>564.0</ele><time>2026-04-24T08:41:36.999Z</time></trkpt><trkpt lat="31.57108409619217" lon="-7.755673276918161"><ele>564.6666666666666</ele><time>2026-04-24T08:41:37.999Z</time></trkpt><trkpt lat="31.57103877068405" lon="-7.755445963790008"><ele>565.3333333333333</ele><time>2026-04-24T08:41:38.999Z</time></trkpt><trkpt lat="31.570995699564616" lon="-7.755218557220017"><ele>566.0</ele><time>2026-04-24T08:41:39.999Z</time></trkpt><trkpt lat="31.570950487948757" lon="-7.754990221852653"><ele>566.0</ele><time>2026-04-24T08:41:40.999Z</time></trkpt><trkpt lat="31.570906765648278" lon="-7.754758087325849"><ele>566.0</ele><time>2026-04-24T08:41:41.999Z</time></trkpt><trkpt lat="31.57086124863671" lon="-7.754525265980803"><ele>566.0</ele><time>2026-04-24T08:41:42.999Z</time></trkpt><trkpt lat="31.57081375528844" lon="-7.754297376422412"><ele>566.0</ele><time>2026-04-24T08:41:43.999Z</time></trkpt><trkpt lat="31.57076598377653" lon="-7.7540734419208075"><ele>566.0</ele><time>2026-04-24T08:41:44.999Z</time></trkpt><trkpt lat="31.57071987684403" lon="-7.753846100466319"><ele>566.0</ele><time>2026-04-24T08:41:45.999Z</time></trkpt><trkpt lat="31.570675064669732" lon="-7.753614269564125"><ele>566.6666666666666</ele><time>2026-04-24T08:41:46.999Z</time></trkpt><trkpt lat="31.57063000281397" lon="-7.75337822076848"><ele>567.3333333333334</ele><time>2026-04-24T08:41:47.999Z</time></trkpt><trkpt lat="31.57058638147664" lon="-7.753139928833759"><ele>568.0</ele><time>2026-04-24T08:41:48.999Z</time></trkpt><trkpt lat="31.57054277353983" lon="-7.752899224348546"><ele>568.6666666666667</ele><time>2026-04-24T08:41:49.999Z</time></trkpt><trkpt lat="31.570496353011002" lon="-7.752661912019811"><ele>569.3333333333334</ele><time>2026-04-24T08:41:51Z</time></trkpt><trkpt lat="31.57045126236169" lon="-7.75243010729446"><ele>570.0</ele><time>2026-04-24T08:41:52Z</time></trkpt><trkpt lat="31.570407688000817" lon="-7.7522040686438585"><ele>570.0</ele><time>2026-04-24T08:41:53Z</time></trkpt><trkpt lat="31.570366019285007" lon="-7.751990249100853"><ele>570.0</ele><time>2026-04-24T08:41:54Z</time></trkpt><trkpt lat="31.570327637061855" lon="-7.751789228004648"><ele>570.0</ele><time>2026-04-24T08:41:55Z</time></trkpt><trkpt lat="31.57029060960706" lon="-7.751599382378644"><ele>569.6666666666666</ele><time>2026-04-24T08:41:56Z</time></trkpt><trkpt lat="31.5702554167248" lon="-7.751416233136639"><ele>569.3333333333333</ele><time>2026-04-24T08:41:57Z</time></trkpt><trkpt lat="31.57022184128798" lon="-7.751238858011244"><ele>569.0</ele><time>2026-04-24T08:41:58Z</time></trkpt><trkpt lat="31.570190471337476" lon="-7.7510739056431"><ele>569.25</ele><time>2026-04-24T08:41:59Z</time></trkpt><trkpt lat="31.570160894544024" lon="-7.7509205557102785"><ele>569.5</ele><time>2026-04-24T08:42:00Z</time></trkpt><trkpt lat="31.57013325663525" lon="-7.750774963691508"><ele>569.75</ele><time>2026-04-24T08:42:01Z</time></trkpt><trkpt lat="31.57010528754441" lon="-7.750633264983926"><ele>570.0</ele><time>2026-04-24T08:42:02Z</time></trkpt><trkpt lat="31.570076646380105" lon="-7.750497200760777"><ele>570.0</ele><time>2026-04-24T08:42:03Z</time></trkpt><trkpt lat="31.57004491750365" lon="-7.7503737356797515"><ele>570.0</ele><time>2026-04-24T08:42:04Z</time></trkpt><trkpt lat="31.570011261750103" lon="-7.750257582921342"><ele>570.0</ele><time>2026-04-24T08:42:05Z</time></trkpt><trkpt lat="31.569974929625257" lon="-7.75014834757126"><ele>570.0</ele><time>2026-04-24T08:42:06Z</time></trkpt><trkpt lat="31.569941402104906" lon="-7.750039182033955"><ele>570.0</ele><time>2026-04-24T08:42:07Z</time></trkpt><trkpt lat="31.569919775755334" lon="-7.749927094917356"><ele>570.25</ele><time>2026-04-24T08:42:08Z</time></trkpt><trkpt lat="31.56991279609514" lon="-7.749796959082727"><ele>570.5</ele><time>2026-04-24T08:42:09Z</time></trkpt><trkpt lat="31.56990444109785" lon="-7.7496505075674555"><ele>570.75</ele><time>2026-04-24T08:42:10Z</time></trkpt><trkpt lat="31.569878864131105" lon="-7.749490151275041"><ele>571.0</ele><time>2026-04-24T08:42:11Z</time></trkpt><trkpt lat="31.569845839044344" lon="-7.749319304825445"><ele>571.3333333333334</ele><time>2026-04-24T08:42:12Z</time></trkpt><trkpt lat="31.5698135505924" lon="-7.749136070533141"><ele>571.6666666666666</ele><time>2026-04-24T08:42:13Z</time></trkpt><trkpt lat="31.569781268349075" lon="-7.748944633798931"><ele>572.0</ele><time>2026-04-24T08:42:14Z</time></trkpt><trkpt lat="31.56974558403584" lon="-7.748750655557972"><ele>572.0</ele><time>2026-04-24T08:42:15Z</time></trkpt><trkpt lat="31.569710351636406" lon="-7.748560156670249"><ele>572.0</ele><time>2026-04-24T08:42:16Z</time></trkpt><trkpt lat="31.569676716998295" lon="-7.748369580662909"><ele>572.0</ele><time>2026-04-24T08:42:17Z</time></trkpt><trkpt lat="31.56964584081025" lon="-7.748169149389454"><ele>572.3333333333333</ele><time>2026-04-24T08:42:18Z</time></trkpt><trkpt lat="31.56961189588135" lon="-7.747957075126667"><ele>572.6666666666666</ele><time>2026-04-24T08:42:19Z</time></trkpt><trkpt lat="31.56957176910037" lon="-7.747726858942938"><ele>573.0</ele><time>2026-04-24T08:42:20Z</time></trkpt><trkpt lat="31.569526686135813" lon="-7.7474794120737265"><ele>573.5</ele><time>2026-04-24T08:42:21Z</time></trkpt><trkpt lat="31.569478631990464" lon="-7.747221326696711"><ele>574.0</ele><time>2026-04-24T08:42:22Z</time></trkpt><trkpt lat="31.569426163740154" lon="-7.746958323475659"><ele>574.0</ele><time>2026-04-24T08:42:23Z</time></trkpt><trkpt lat="31.569370981112826" lon="-7.746692157163797"><ele>574.0</ele><time>2026-04-24T08:42:24Z</time></trkpt><trkpt lat="31.569316444555913" lon="-7.746426139193526"><ele>574.0</ele><time>2026-04-24T08:42:25Z</time></trkpt><trkpt lat="31.56926542562717" lon="-7.74616236846208"><ele>574.0</ele><time>2026-04-24T08:42:26Z</time></trkpt><trkpt lat="31.569216649426323" lon="-7.745904724145488"><ele>574.6666666666667</ele><time>2026-04-24T08:42:27Z</time></trkpt><trkpt lat="31.56916966816926" lon="-7.745656952607222"><ele>575.3333333333334</ele><time>2026-04-24T08:42:28Z</time></trkpt><trkpt lat="31.56912682338935" lon="-7.745422105672642"><ele>576.0</ele><time>2026-04-24T08:42:29Z</time></trkpt><trkpt lat="31.569086495946603" lon="-7.745198370966405"><ele>576.0</ele><time>2026-04-24T08:42:30Z</time></trkpt><trkpt lat="31.56904590257407" lon="-7.7449845092086"><ele>576.0</ele><time>2026-04-24T08:42:31Z</time></trkpt><trkpt lat="31.569007850188633" lon="-7.7447773526921155"><ele>576.0</ele><time>2026-04-24T08:42:32Z</time></trkpt><trkpt lat="31.56897121785475" lon="-7.744577892688029"><ele>576.0</ele><time>2026-04-24T08:42:33Z</time></trkpt><trkpt lat="31.56894133939776" lon="-7.744392159174397"><ele>576.0</ele><time>2026-04-24T08:42:34Z</time></trkpt><trkpt lat="31.56891274017847" lon="-7.744216407305626"><ele>576.0</ele><time>2026-04-24T08:42:35Z</time></trkpt><trkpt lat="31.568887035932747" lon="-7.7440534176858815"><ele>576.2</ele><time>2026-04-24T08:42:36Z</time></trkpt><trkpt lat="31.56886213524387" lon="-7.743904606952411"><ele>576.4000000000001</ele><time>2026-04-24T08:42:37Z</time></trkpt><trkpt lat="31.56883631653476" lon="-7.743774376663072"><ele>576.6</ele><time>2026-04-24T08:42:38Z</time></trkpt><trkpt lat="31.568814035426406" lon="-7.743665500807505"><ele>576.8000000000001</ele><time>2026-04-24T08:42:38.999Z</time></trkpt><trkpt lat="31.568796165348086" lon="-7.743581077429969"><ele>577.0</ele><time>2026-04-24T08:42:39.999Z</time></trkpt><trkpt lat="31.56873533892719" lon="-7.743464492072958"><ele>577.4</ele><time>2026-04-24T08:42:41.999Z</time></trkpt><trkpt lat="31.568654994491425" lon="-7.743367982494342"><ele>577.8000000000001</ele><time>2026-04-24T08:42:43.999Z</time></trkpt><trkpt lat="31.568562519568903" lon="-7.743348262785918"><ele>578.2</ele><time>2026-04-24T08:42:45.999Z</time></trkpt><trkpt lat="31.568512929337928" lon="-7.743299010288749"><ele>578.6</ele><time>2026-04-24T08:42:47.999Z</time></trkpt><trkpt lat="31.56844742472575" lon="-7.743288977874962"><ele>579.0</ele><time>2026-04-24T08:42:50.999Z</time></trkpt><trkpt lat="31.568433789949125" lon="-7.74313741116123"><ele>578.9999999999999</ele><time>2026-04-24T08:42:58.999Z</time></trkpt><trkpt lat="31.568406215406217" lon="-7.743069197628417"><ele>579.0</ele><time>2026-04-24T08:46:59.999Z</time></trkpt><trkpt lat="31.568342506153826" lon="-7.742999474409545"><ele>579.0</ele><time>2026-04-24T08:47:02.999Z</time></trkpt><trkpt lat="31.56830698307166" lon="-7.742935862103772"><ele>579.0</ele><time>2026-04-24T08:47:05.999Z</time></trkpt><trkpt lat="31.568359561998136" lon="-7.742881905062437"><ele>579.0</ele><time>2026-04-24T08:50:57.999Z</time></trkpt><trkpt lat="31.56843155339232" lon="-7.742886891697765"><ele>578.9999999999999</ele><time>2026-04-24T08:50:58.999Z</time></trkpt><trkpt lat="31.5684910112229" lon="-7.74282055109379"><ele>579.0</ele><time>2026-04-24T08:51:01.999Z</time></trkpt><trkpt lat="31.568544086297475" lon="-7.7427505645709465"><ele>579.1666666666666</ele><time>2026-04-24T08:51:04.999Z</time></trkpt><trkpt lat="31.568592825120398" lon="-7.742700541374695"><ele>579.3333333333334</ele><time>2026-04-24T08:51:07.999Z</time></trkpt><trkpt lat="31.568608099722738" lon="-7.742604835796239"><ele>579.5</ele><time>2026-04-24T08:52:45Z</time></trkpt><trkpt lat="31.568615341015207" lon="-7.742452969403001"><ele>579.6666666666667</ele><time>2026-04-24T08:52:47Z</time></trkpt><trkpt lat="31.56860503961949" lon="-7.742363574983608"><ele>579.8333333333334</ele><time>2026-04-24T08:52:48Z</time></trkpt><trkpt lat="31.56859037159314" lon="-7.742267788929687"><ele>580.0</ele><time>2026-04-24T08:52:49Z</time></trkpt><trkpt lat="31.568573993694475" lon="-7.742175647861246"><ele>580.0</ele><time>2026-04-24T08:52:50Z</time></trkpt><trkpt lat="31.568557973761987" lon="-7.742081478928376"><ele>580.0</ele><time>2026-04-24T08:52:51Z</time></trkpt><trkpt lat="31.568542238430652" lon="-7.741983040777971"><ele>580.0</ele><time>2026-04-24T08:52:52Z</time></trkpt><trkpt lat="31.568525033186603" lon="-7.741881314778988"><ele>580.0</ele><time>2026-04-24T08:52:53Z</time></trkpt><trkpt lat="31.568507655155233" lon="-7.741775353213063"><ele>580.0</ele><time>2026-04-24T08:52:54Z</time></trkpt><trkpt lat="31.568489019002982" lon="-7.74166421083142"><ele>580.0</ele><time>2026-04-24T08:52:55Z</time></trkpt><trkpt lat="31.5684698113904" lon="-7.741547511887258"><ele>580.2</ele><time>2026-04-24T08:52:56Z</time></trkpt><trkpt lat="31.568452134371" lon="-7.7414257042791945"><ele>580.4</ele><time>2026-04-24T08:52:57Z</time></trkpt><trkpt lat="31.568434924196723" lon="-7.741300133808776"><ele>580.6</ele><time>2026-04-24T08:52:58Z</time></trkpt><trkpt lat="31.56841714725372" lon="-7.741168674254981"><ele>580.8</ele><time>2026-04-24T08:52:59Z</time></trkpt><trkpt lat="31.5683945963653" lon="-7.7410335862480375"><ele>581.0</ele><time>2026-04-24T08:53:00Z</time></trkpt><trkpt lat="31.5683712441619" lon="-7.740896357148363"><ele>581.0</ele><time>2026-04-24T08:53:00.999Z</time></trkpt><trkpt lat="31.568347920108643" lon="-7.7407531999251376"><ele>581.0</ele><time>2026-04-24T08:53:01.999Z</time></trkpt><trkpt lat="31.56832423785659" lon="-7.740608345510449"><ele>581.0</ele><time>2026-04-24T08:53:02.999Z</time></trkpt><trkpt lat="31.568299835721067" lon="-7.740459670167975"><ele>581.0</ele><time>2026-04-24T08:53:03.999Z</time></trkpt><trkpt lat="31.568274333546686" lon="-7.740309181077918"><ele>581.25</ele><time>2026-04-24T08:53:04.999Z</time></trkpt><trkpt lat="31.568250066272636" lon="-7.74015448227401"><ele>581.5</ele><time>2026-04-24T08:53:05.999Z</time></trkpt><trkpt lat="31.568223754404947" lon="-7.739994710535654"><ele>581.75</ele><time>2026-04-24T08:53:06.999Z</time></trkpt><trkpt lat="31.56819690675161" lon="-7.739828002608236"><ele>582.0</ele><time>2026-04-24T08:53:07.999Z</time></trkpt><trkpt lat="31.56817075253355" lon="-7.739655639453512"><ele>582.0</ele><time>2026-04-24T08:53:08.999Z</time></trkpt><trkpt lat="31.568144665895908" lon="-7.739478109228749"><ele>582.0</ele><time>2026-04-24T08:53:09.999Z</time></trkpt><trkpt lat="31.568119275065357" lon="-7.739295865174701"><ele>582.0</ele><time>2026-04-24T08:53:10.999Z</time></trkpt><trkpt lat="31.56809159456373" lon="-7.739107663736626"><ele>582.3333333333334</ele><time>2026-04-24T08:53:11.999Z</time></trkpt><trkpt lat="31.568061586126117" lon="-7.738911905365619"><ele>582.6666666666667</ele><time>2026-04-24T08:53:12.999Z</time></trkpt><trkpt lat="31.568030915675248" lon="-7.738713028041379"><ele>583.0</ele><time>2026-04-24T08:53:13.999Z</time></trkpt><trkpt lat="31.5679977264782" lon="-7.738505499247707"><ele>583.3333333333334</ele><time>2026-04-24T08:53:14.999Z</time></trkpt><trkpt lat="31.567966456496222" lon="-7.738295074601303"><ele>583.6666666666666</ele><time>2026-04-24T08:53:15.999Z</time></trkpt><trkpt lat="31.567934328960813" lon="-7.738087849793922"><ele>584.0</ele><time>2026-04-24T08:53:16.999Z</time></trkpt><trkpt lat="31.567901912173912" lon="-7.737878135675415"><ele>584.6666666666666</ele><time>2026-04-24T08:53:17.999Z</time></trkpt><trkpt lat="31.56786929966903" lon="-7.737664979125235"><ele>585.3333333333334</ele><time>2026-04-24T08:53:18.999Z</time></trkpt><trkpt lat="31.567835439921428" lon="-7.737448083283511"><ele>586.0</ele><time>2026-04-24T08:53:19.999Z</time></trkpt><trkpt lat="31.56780366021533" lon="-7.7372285853810085"><ele>586.0</ele><time>2026-04-24T08:53:20.999Z</time></trkpt><trkpt lat="31.56777222870364" lon="-7.737007142116933"><ele>586.0</ele><time>2026-04-24T08:53:21.999Z</time></trkpt><trkpt lat="31.56774010621924" lon="-7.736783246700002"><ele>586.0</ele><time>2026-04-24T08:53:22.999Z</time></trkpt><trkpt lat="31.56770724140861" lon="-7.736554192502434"><ele>586.6666666666667</ele><time>2026-04-24T08:53:23.999Z</time></trkpt><trkpt lat="31.567675313980573" lon="-7.736323511733939"><ele>587.3333333333334</ele><time>2026-04-24T08:53:24.999Z</time></trkpt><trkpt lat="31.56764282481054" lon="-7.73608953064532"><ele>588.0</ele><time>2026-04-24T08:53:25.999Z</time></trkpt><trkpt lat="31.56760941888755" lon="-7.73585517522099"><ele>588.3333333333334</ele><time>2026-04-24T08:53:26.999Z</time></trkpt><trkpt lat="31.567574661336934" lon="-7.735619502727859"><ele>588.6666666666667</ele><time>2026-04-24T08:53:27.999Z</time></trkpt><trkpt lat="31.567540926094786" lon="-7.735381779336017"><ele>589.0</ele><time>2026-04-24T08:53:28.999Z</time></trkpt><trkpt lat="31.567506828714553" lon="-7.735143129366832"><ele>589.0</ele><time>2026-04-24T08:53:29.999Z</time></trkpt><trkpt lat="31.56747378997917" lon="-7.734903541765192"><ele>589.0</ele><time>2026-04-24T08:53:30.999Z</time></trkpt><trkpt lat="31.567441580371593" lon="-7.734662088806118"><ele>589.0</ele><time>2026-04-24T08:53:31.999Z</time></trkpt><trkpt lat="31.56740686221524" lon="-7.7344193236631735"><ele>589.0</ele><time>2026-04-24T08:53:32.999Z</time></trkpt><trkpt lat="31.567376293898846" lon="-7.734174817762472"><ele>589.0</ele><time>2026-04-24T08:53:33.999Z</time></trkpt><trkpt lat="31.56734388602204" lon="-7.733931785425044"><ele>589.0</ele><time>2026-04-24T08:53:34.999Z</time></trkpt><trkpt lat="31.567309929051678" lon="-7.733694712191069"><ele>590.3333333333334</ele><time>2026-04-24T08:53:35.999Z</time></trkpt><trkpt lat="31.567275830096882" lon="-7.7334491210785155"><ele>591.6666666666666</ele><time>2026-04-24T08:53:36.999Z</time></trkpt><trkpt lat="31.567240946589404" lon="-7.733211958437368"><ele>593.0</ele><time>2026-04-24T08:53:37.999Z</time></trkpt><trkpt lat="31.567205754215337" lon="-7.732975739550908"><ele>593.0</ele><time>2026-04-24T08:53:38.999Z</time></trkpt><trkpt lat="31.567173618035476" lon="-7.732746330134948"><ele>593.0</ele><time>2026-04-24T08:53:39.999Z</time></trkpt><trkpt lat="31.56714268267275" lon="-7.7325226238709215"><ele>593.0</ele><time>2026-04-24T08:53:40.999Z</time></trkpt><trkpt lat="31.56711294629268" lon="-7.732304161314985"><ele>593.0</ele><time>2026-04-24T08:53:41.999Z</time></trkpt><trkpt lat="31.56708291394785" lon="-7.732085404387706"><ele>593.0</ele><time>2026-04-24T08:53:42.999Z</time></trkpt><trkpt lat="31.5670515455414" lon="-7.731865508666794"><ele>593.0</ele><time>2026-04-24T08:53:43.999Z</time></trkpt><trkpt lat="31.56702070374094" lon="-7.731644518308197"><ele>593.0</ele><time>2026-04-24T08:53:44.999Z</time></trkpt><trkpt lat="31.566989122921235" lon="-7.731420299717214"><ele>593.0</ele><time>2026-04-24T08:53:45.999Z</time></trkpt><trkpt lat="31.56695826882215" lon="-7.731195070577523"><ele>593.0</ele><time>2026-04-24T08:53:46.999Z</time></trkpt><trkpt lat="31.566927696894822" lon="-7.7309711751526455"><ele>593.3333333333333</ele><time>2026-04-24T08:53:47.999Z</time></trkpt><trkpt lat="31.566895961303615" lon="-7.7307481956966235"><ele>593.6666666666666</ele><time>2026-04-24T08:53:48.999Z</time></trkpt><trkpt lat="31.566864105065743" lon="-7.730525323642526"><ele>594.0</ele><time>2026-04-24T08:53:49.999Z</time></trkpt><trkpt lat="31.566831646032647" lon="-7.730304532012645"><ele>594.3333333333334</ele><time>2026-04-24T08:53:50.999Z</time></trkpt><trkpt lat="31.566799547078272" lon="-7.730088485100165"><ele>594.6666666666667</ele><time>2026-04-24T08:53:51.999Z</time></trkpt><trkpt lat="31.566766243729557" lon="-7.7298789139446855"><ele>595.0</ele><time>2026-04-24T08:53:52.999Z</time></trkpt><trkpt lat="31.56673519907593" lon="-7.729677101241501"><ele>595.0</ele><time>2026-04-24T08:53:53.999Z</time></trkpt><trkpt lat="31.566705631188576" lon="-7.729485532745457"><ele>595.0</ele><time>2026-04-24T08:53:54.999Z</time></trkpt><trkpt lat="31.566678213521953" lon="-7.729301539897333"><ele>595.0</ele><time>2026-04-24T08:53:55.999Z</time></trkpt><trkpt lat="31.566652812797912" lon="-7.729126524135111"><ele>595.0</ele><time>2026-04-24T08:53:56.999Z</time></trkpt><trkpt lat="31.56662716120783" lon="-7.72895931607773"><ele>595.0</ele><time>2026-04-24T08:53:57.999Z</time></trkpt><trkpt lat="31.566601487940144" lon="-7.728799401846306"><ele>595.0</ele><time>2026-04-24T08:53:58.999Z</time></trkpt><trkpt lat="31.56657731087229" lon="-7.728649479216354"><ele>595.0</ele><time>2026-04-24T08:53:59.999Z</time></trkpt><trkpt lat="31.56655341781878" lon="-7.728511529917043"><ele>595.4</ele><time>2026-04-24T08:54:00.999Z</time></trkpt><trkpt lat="31.566528268306715" lon="-7.72838067953863"><ele>595.8</ele><time>2026-04-24T08:54:01.999Z</time></trkpt><trkpt lat="31.566498740759513" lon="-7.728256634239506"><ele>596.2</ele><time>2026-04-24T08:54:02.999Z</time></trkpt><trkpt lat="31.566463322256368" lon="-7.728135906029935"><ele>596.6</ele><time>2026-04-24T08:54:03.999Z</time></trkpt><trkpt lat="31.566427674367173" lon="-7.728023518361502"><ele>597.0</ele><time>2026-04-24T08:54:04.999Z</time></trkpt><trkpt lat="31.566404389577727" lon="-7.727907652029265"><ele>597.0</ele><time>2026-04-24T08:54:05.999Z</time></trkpt><trkpt lat="31.56639226650031" lon="-7.727790613906218"><ele>597.0</ele><time>2026-04-24T08:54:06.999Z</time></trkpt><trkpt lat="31.566389068560575" lon="-7.727666787134222"><ele>597.0</ele><time>2026-04-24T08:54:07.999Z</time></trkpt><trkpt lat="31.56638706972226" lon="-7.727535108986901"><ele>597.0</ele><time>2026-04-24T08:54:08.999Z</time></trkpt><trkpt lat="31.566379090758097" lon="-7.727399031442967"><ele>597.0</ele><time>2026-04-24T08:54:09.999Z</time></trkpt><trkpt lat="31.566362836769922" lon="-7.7272612141260595"><ele>596.8000000000001</ele><time>2026-04-24T08:54:10.999Z</time></trkpt><trkpt lat="31.56634488220741" lon="-7.727126303921838"><ele>596.6</ele><time>2026-04-24T08:54:11.999Z</time></trkpt><trkpt lat="31.566324792240543" lon="-7.726995967961177"><ele>596.4000000000001</ele><time>2026-04-24T08:54:12.999Z</time></trkpt><trkpt lat="31.566304606192073" lon="-7.7268689400009505"><ele>596.2</ele><time>2026-04-24T08:54:13.999Z</time></trkpt><trkpt lat="31.566288444983073" lon="-7.7267513153855445"><ele>596.0</ele><time>2026-04-24T08:54:14.998Z</time></trkpt><trkpt lat="31.566274496434417" lon="-7.726649122675519"><ele>596.0</ele><time>2026-04-24T08:54:15.998Z</time></trkpt><trkpt lat="31.566262982862316" lon="-7.726556799256284"><ele>596.0</ele><time>2026-04-24T08:54:16.998Z</time></trkpt><trkpt lat="31.56625113297792" lon="-7.726464545099321"><ele>596.0</ele><time>2026-04-24T08:54:17.998Z</time></trkpt><trkpt lat="31.5662368698969" lon="-7.726367921471965"><ele>596.0</ele><time>2026-04-24T08:54:18.998Z</time></trkpt><trkpt lat="31.566219789337993" lon="-7.726271426212003"><ele>596.0</ele><time>2026-04-24T08:54:19.998Z</time></trkpt><trkpt lat="31.56619853932829" lon="-7.726165062785561"><ele>596.0</ele><time>2026-04-24T08:54:20.998Z</time></trkpt><trkpt lat="31.566176995663753" lon="-7.726052935119167"><ele>596.75</ele><time>2026-04-24T08:54:21.998Z</time></trkpt><trkpt lat="31.56615341297841" lon="-7.725932143201148"><ele>597.5</ele><time>2026-04-24T08:54:22.998Z</time></trkpt><trkpt lat="31.5661279805804" lon="-7.725803100857241"><ele>598.25</ele><time>2026-04-24T08:54:23.998Z</time></trkpt><trkpt lat="31.566101063179605" lon="-7.725665913454767"><ele>599.0</ele><time>2026-04-24T08:54:24.998Z</time></trkpt><trkpt lat="31.56607264060602" lon="-7.725514600501435"><ele>599.0</ele><time>2026-04-24T08:54:26Z</time></trkpt><trkpt lat="31.566041980890095" lon="-7.725352926665709"><ele>599.0</ele><time>2026-04-24T08:54:27Z</time></trkpt><trkpt lat="31.566011596118635" lon="-7.725186535005562"><ele>599.0</ele><time>2026-04-24T08:54:28Z</time></trkpt><trkpt lat="31.56598282077612" lon="-7.725012966608251"><ele>599.0</ele><time>2026-04-24T08:54:29Z</time></trkpt><trkpt lat="31.56595122509687" lon="-7.724829314758797"><ele>599.3333333333333</ele><time>2026-04-24T08:54:30Z</time></trkpt><trkpt lat="31.56591820707246" lon="-7.724638382330418"><ele>599.6666666666666</ele><time>2026-04-24T08:54:31Z</time></trkpt><trkpt lat="31.565884585750254" lon="-7.72444254881496"><ele>600.0</ele><time>2026-04-24T08:54:32Z</time></trkpt><trkpt lat="31.565852717496725" lon="-7.724244066720645"><ele>600.3333333333334</ele><time>2026-04-24T08:54:33Z</time></trkpt><trkpt lat="31.565821997226152" lon="-7.724043523808685"><ele>600.6666666666667</ele><time>2026-04-24T08:54:34Z</time></trkpt><trkpt lat="31.565793137980002" lon="-7.723836150389567"><ele>601.0</ele><time>2026-04-24T08:54:35Z</time></trkpt><trkpt lat="31.56576258643328" lon="-7.723626657689643"><ele>601.3333333333334</ele><time>2026-04-24T08:54:36Z</time></trkpt><trkpt lat="31.565727959766605" lon="-7.723407744527307"><ele>601.6666666666666</ele><time>2026-04-24T08:54:37Z</time></trkpt><trkpt lat="31.56569112584771" lon="-7.723185481079014"><ele>602.0</ele><time>2026-04-24T08:54:38Z</time></trkpt><trkpt lat="31.565651438299664" lon="-7.722965431221269"><ele>602.0</ele><time>2026-04-24T08:54:39Z</time></trkpt><trkpt lat="31.565608347882126" lon="-7.722739195880893"><ele>602.0</ele><time>2026-04-24T08:54:40Z</time></trkpt><trkpt lat="31.565563450258725" lon="-7.722508359482537"><ele>602.0</ele><time>2026-04-24T08:54:41Z</time></trkpt><trkpt lat="31.56551913374359" lon="-7.722275366066821"><ele>602.3333333333333</ele><time>2026-04-24T08:54:42Z</time></trkpt><trkpt lat="31.565474622487265" lon="-7.722043011071792"><ele>602.6666666666666</ele><time>2026-04-24T08:54:43Z</time></trkpt><trkpt lat="31.565431584666566" lon="-7.72180963785964"><ele>603.0</ele><time>2026-04-24T08:54:44Z</time></trkpt><trkpt lat="31.565389127321644" lon="-7.7215741145739765"><ele>604.0</ele><time>2026-04-24T08:54:45Z</time></trkpt><trkpt lat="31.565343896255854" lon="-7.721334144291235"><ele>605.0</ele><time>2026-04-24T08:54:46Z</time></trkpt><trkpt lat="31.565301229141646" lon="-7.721092843696652"><ele>606.0</ele><time>2026-04-24T08:54:47Z</time></trkpt><trkpt lat="31.56525767753681" lon="-7.720849011716377"><ele>606.0</ele><time>2026-04-24T08:54:48Z</time></trkpt><trkpt lat="31.565207215080907" lon="-7.720603332236471"><ele>606.0</ele><time>2026-04-24T08:54:49Z</time></trkpt><trkpt lat="31.56516221857062" lon="-7.720351430101856"><ele>606.0</ele><time>2026-04-24T08:54:50Z</time></trkpt><trkpt lat="31.565114046822465" lon="-7.720095908251076"><ele>606.3333333333334</ele><time>2026-04-24T08:54:51Z</time></trkpt><trkpt lat="31.56506630665609" lon="-7.719839598544495"><ele>606.6666666666667</ele><time>2026-04-24T08:54:52Z</time></trkpt><trkpt lat="31.565018677303804" lon="-7.719581105411338"><ele>607.0</ele><time>2026-04-24T08:54:53Z</time></trkpt><trkpt lat="31.564968263188085" lon="-7.719317588935952"><ele>607.5</ele><time>2026-04-24T08:54:54Z</time></trkpt><trkpt lat="31.564918678704284" lon="-7.719049637867542"><ele>608.0</ele><time>2026-04-24T08:54:55Z</time></trkpt><trkpt lat="31.564868148737038" lon="-7.718776362230871"><ele>608.5</ele><time>2026-04-24T08:54:56Z</time></trkpt><trkpt lat="31.564816228561956" lon="-7.718497413051884"><ele>609.0</ele><time>2026-04-24T08:54:57Z</time></trkpt><trkpt lat="31.564764059470882" lon="-7.718214186167099"><ele>609.0</ele><time>2026-04-24T08:54:58Z</time></trkpt><trkpt lat="31.564711094002117" lon="-7.717933895320147"><ele>609.0</ele><time>2026-04-24T08:54:59Z</time></trkpt><trkpt lat="31.564657808943913" lon="-7.7176463278337994"><ele>608.5</ele><time>2026-04-24T08:55:00Z</time></trkpt><trkpt lat="31.564604522887326" lon="-7.717372117855882"><ele>608.0</ele><time>2026-04-24T08:55:01Z</time></trkpt><trkpt lat="31.564552096569376" lon="-7.71711092749285"><ele>608.6666666666666</ele><time>2026-04-24T08:55:02Z</time></trkpt><trkpt lat="31.56450603269688" lon="-7.716853996352074"><ele>609.3333333333334</ele><time>2026-04-24T08:55:03Z</time></trkpt><trkpt lat="31.564459658286115" lon="-7.716600263623839"><ele>610.0</ele><time>2026-04-24T08:55:04Z</time></trkpt><trkpt lat="31.5644128653472" lon="-7.71634452556771"><ele>610.0</ele><time>2026-04-24T08:55:05Z</time></trkpt><trkpt lat="31.564365044374494" lon="-7.716088532418954"><ele>610.0</ele><time>2026-04-24T08:55:05.999Z</time></trkpt><trkpt lat="31.56431757138138" lon="-7.715833929911934"><ele>610.0</ele><time>2026-04-24T08:55:06.999Z</time></trkpt><trkpt lat="31.56427116060389" lon="-7.715582564996999"><ele>610.3333333333334</ele><time>2026-04-24T08:55:07.999Z</time></trkpt><trkpt lat="31.5642255651293" lon="-7.715335082484384"><ele>610.6666666666666</ele><time>2026-04-24T08:55:08.999Z</time></trkpt><trkpt lat="31.564181121432448" lon="-7.7150926084267955"><ele>611.0</ele><time>2026-04-24T08:55:09.999Z</time></trkpt><trkpt lat="31.564136762627545" lon="-7.714854781622557"><ele>611.3333333333333</ele><time>2026-04-24T08:55:10.999Z</time></trkpt><trkpt lat="31.564092093358656" lon="-7.714622048396577"><ele>611.6666666666666</ele><time>2026-04-24T08:55:11.999Z</time></trkpt><trkpt lat="31.564046574493723" lon="-7.7143904174803986"><ele>612.0</ele><time>2026-04-24T08:55:12.999Z</time></trkpt><trkpt lat="31.564003123916617" lon="-7.714163604097536"><ele>612.0</ele><time>2026-04-24T08:55:13.999Z</time></trkpt><trkpt lat="31.563961720372603" lon="-7.713940647408129"><ele>612.0</ele><time>2026-04-24T08:55:14.999Z</time></trkpt><trkpt lat="31.563919028165106" lon="-7.713723178301608"><ele>612.0</ele><time>2026-04-24T08:55:15.999Z</time></trkpt><trkpt lat="31.56388240532237" lon="-7.713507990139684"><ele>612.0</ele><time>2026-04-24T08:55:16.999Z</time></trkpt><trkpt lat="31.563842489148314" lon="-7.713296034906359"><ele>612.0</ele><time>2026-04-24T08:55:17.999Z</time></trkpt><trkpt lat="31.56380247233289" lon="-7.713086596527988"><ele>612.0</ele><time>2026-04-24T08:55:18.999Z</time></trkpt><trkpt lat="31.563764351381067" lon="-7.712879762023865"><ele>612.3333333333334</ele><time>2026-04-24T08:55:19.999Z</time></trkpt><trkpt lat="31.56372538595884" lon="-7.712677415640974"><ele>612.6666666666667</ele><time>2026-04-24T08:55:20.999Z</time></trkpt><trkpt lat="31.56368911129557" lon="-7.712484749478294"><ele>613.0</ele><time>2026-04-24T08:55:21.999Z</time></trkpt><trkpt lat="31.563653998731407" lon="-7.7123037967042185"><ele>613.5</ele><time>2026-04-24T08:55:22.999Z</time></trkpt><trkpt lat="31.563619252579766" lon="-7.712133835800036"><ele>614.0</ele><time>2026-04-24T08:55:23.999Z</time></trkpt><trkpt lat="31.563586527082897" lon="-7.71197276733834"><ele>614.5</ele><time>2026-04-24T08:55:24.999Z</time></trkpt><trkpt lat="31.563556165470526" lon="-7.711817840411602"><ele>615.0</ele><time>2026-04-24T08:55:25.999Z</time></trkpt><trkpt lat="31.56352755613383" lon="-7.711669442027961"><ele>615.25</ele><time>2026-04-24T08:55:26.999Z</time></trkpt><trkpt lat="31.563500355420597" lon="-7.7115221259893305"><ele>615.5</ele><time>2026-04-24T08:55:27.999Z</time></trkpt><trkpt lat="31.563471732389196" lon="-7.711378682493109"><ele>615.75</ele><time>2026-04-24T08:55:28.999Z</time></trkpt><trkpt lat="31.56344296858931" lon="-7.711240746058326"><ele>616.0</ele><time>2026-04-24T08:55:29.999Z</time></trkpt><trkpt lat="31.563415653702847" lon="-7.711107172859999"><ele>616.2</ele><time>2026-04-24T08:55:30.999Z</time></trkpt><trkpt lat="31.563391137352415" lon="-7.710978604264698"><ele>616.4000000000001</ele><time>2026-04-24T08:55:31.999Z</time></trkpt><trkpt lat="31.563367040939738" lon="-7.710852722934099"><ele>616.6</ele><time>2026-04-24T08:55:32.999Z</time></trkpt><trkpt lat="31.563344531427642" lon="-7.710725169100586"><ele>616.8000000000001</ele><time>2026-04-24T08:55:33.999Z</time></trkpt><trkpt lat="31.56332015166138" lon="-7.710596466033911"><ele>617.0</ele><time>2026-04-24T08:55:34.999Z</time></trkpt><trkpt lat="31.563294820324515" lon="-7.710465400337982"><ele>617.0</ele><time>2026-04-24T08:55:35.999Z</time></trkpt><trkpt lat="31.56326884103733" lon="-7.71033224571309"><ele>617.0</ele><time>2026-04-24T08:55:36.999Z</time></trkpt><trkpt lat="31.563244238234656" lon="-7.710197240028901"><ele>617.0</ele><time>2026-04-24T08:55:37.999Z</time></trkpt><trkpt lat="31.563219501896704" lon="-7.710063987588254"><ele>617.0</ele><time>2026-04-24T08:55:38.999Z</time></trkpt><trkpt lat="31.563196452768867" lon="-7.709938379543364"><ele>617.0</ele><time>2026-04-24T08:55:39.999Z</time></trkpt><trkpt lat="31.56317543799509" lon="-7.709824388528853"><ele>617.0</ele><time>2026-04-24T08:55:40.999Z</time></trkpt><trkpt lat="31.563155921779785" lon="-7.709719527645437"><ele>617.0</ele><time>2026-04-24T08:55:41.999Z</time></trkpt><trkpt lat="31.563135862904478" lon="-7.7096178759469565"><ele>617.0</ele><time>2026-04-24T08:55:42.999Z</time></trkpt><trkpt lat="31.563117064590976" lon="-7.709521484210572"><ele>617.0</ele><time>2026-04-24T08:55:43.999Z</time></trkpt><trkpt lat="31.56309840019337" lon="-7.7094245927184275"><ele>617.0</ele><time>2026-04-24T08:55:44.999Z</time></trkpt><trkpt lat="31.563079901059112" lon="-7.709325185290374"><ele>617.1666666666666</ele><time>2026-04-24T08:55:45.999Z</time></trkpt><trkpt lat="31.563061679164615" lon="-7.709224815373682"><ele>617.3333333333333</ele><time>2026-04-24T08:55:46.999Z</time></trkpt><trkpt lat="31.563043688009248" lon="-7.709125537502229"><ele>617.5</ele><time>2026-04-24T08:55:47.999Z</time></trkpt><trkpt lat="31.56302549610561" lon="-7.709028964077412"><ele>617.6666666666666</ele><time>2026-04-24T08:55:48.999Z</time></trkpt><trkpt lat="31.56300694483107" lon="-7.708934190292091"><ele>617.8333333333334</ele><time>2026-04-24T08:55:49.999Z</time></trkpt><trkpt lat="31.562988991101808" lon="-7.708840243965405"><ele>618.0</ele><time>2026-04-24T08:55:50.999Z</time></trkpt><trkpt lat="31.562969763558414" lon="-7.708743737833317"><ele>618.0</ele><time>2026-04-24T08:55:51.999Z</time></trkpt><trkpt lat="31.562948035528088" lon="-7.7086402086838195"><ele>618.0</ele><time>2026-04-24T08:55:52.999Z</time></trkpt><trkpt lat="31.562923755068645" lon="-7.708532051133869"><ele>618.0</ele><time>2026-04-24T08:55:53.999Z</time></trkpt><trkpt lat="31.562901180156874" lon="-7.7084208185015965"><ele>618.0</ele><time>2026-04-24T08:55:54.999Z</time></trkpt><trkpt lat="31.562878847742358" lon="-7.708308861831756"><ele>618.0</ele><time>2026-04-24T08:55:55.999Z</time></trkpt><trkpt lat="31.562856166028382" lon="-7.708196850783745"><ele>618.6</ele><time>2026-04-24T08:55:56.999Z</time></trkpt><trkpt lat="31.562833394136106" lon="-7.708084798926082"><ele>619.1999999999999</ele><time>2026-04-24T08:55:57.999Z</time></trkpt><trkpt lat="31.562810552598318" lon="-7.707974784414029"><ele>619.8</ele><time>2026-04-24T08:55:58.999Z</time></trkpt><trkpt lat="31.562787264012627" lon="-7.707867197784483"><ele>620.4</ele><time>2026-04-24T08:55:59.999Z</time></trkpt><trkpt lat="31.562762278743953" lon="-7.7077617700427"><ele>621.0</ele><time>2026-04-24T08:56:00.999Z</time></trkpt><trkpt lat="31.56273631668533" lon="-7.707657209135465"><ele>621.4</ele><time>2026-04-24T08:56:01.999Z</time></trkpt><trkpt lat="31.56270697558996" lon="-7.707553828458944"><ele>621.8</ele><time>2026-04-24T08:56:02.999Z</time></trkpt><trkpt lat="31.562682878430575" lon="-7.707443995392616"><ele>622.1999999999999</ele><time>2026-04-24T08:56:03.999Z</time></trkpt><trkpt lat="31.562665440450672" lon="-7.707327698533338"><ele>622.6</ele><time>2026-04-24T08:56:04.999Z</time></trkpt><trkpt lat="31.562652982645734" lon="-7.7071988024428375"><ele>623.0</ele><time>2026-04-24T08:56:05.999Z</time></trkpt><trkpt lat="31.56264132364981" lon="-7.707056441212538"><ele>623.0</ele><time>2026-04-24T08:56:06.999Z</time></trkpt><trkpt lat="31.56262108362711" lon="-7.7068978439175435"><ele>623.0</ele><time>2026-04-24T08:56:07.999Z</time></trkpt><trkpt lat="31.562592269166874" lon="-7.706730966940019"><ele>623.0</ele><time>2026-04-24T08:56:08.999Z</time></trkpt><trkpt lat="31.562560488249048" lon="-7.7065564208309825"><ele>623.0</ele><time>2026-04-24T08:56:09.999Z</time></trkpt><trkpt lat="31.562527195039532" lon="-7.7063740007788955"><ele>623.0</ele><time>2026-04-24T08:56:10.999Z</time></trkpt><trkpt lat="31.562493949451518" lon="-7.706187325944397"><ele>623.0</ele><time>2026-04-24T08:56:11.999Z</time></trkpt><trkpt lat="31.562458940341553" lon="-7.705995089060597"><ele>623.0</ele><time>2026-04-24T08:56:12.999Z</time></trkpt><trkpt lat="31.562422545811675" lon="-7.7057978636034115"><ele>623.0</ele><time>2026-04-24T08:56:13.999Z</time></trkpt><trkpt lat="31.562386625827138" lon="-7.705599085088923"><ele>623.0</ele><time>2026-04-24T08:56:14.999Z</time></trkpt><trkpt lat="31.562350765606148" lon="-7.705397303643495"><ele>623.0</ele><time>2026-04-24T08:56:15.999Z</time></trkpt><trkpt lat="31.562313496515056" lon="-7.705197481272553"><ele>623.0</ele><time>2026-04-24T08:56:16.999Z</time></trkpt><trkpt lat="31.562275406213054" lon="-7.704992950723411"><ele>623.0</ele><time>2026-04-24T08:56:17.999Z</time></trkpt><trkpt lat="31.562238342496844" lon="-7.7047831933725694"><ele>623.0</ele><time>2026-04-24T08:56:18.999Z</time></trkpt><trkpt lat="31.56220078417176" lon="-7.704570440472627"><ele>623.6666666666666</ele><time>2026-04-24T08:56:19.999Z</time></trkpt><trkpt lat="31.56216332691623" lon="-7.704356013732092"><ele>624.3333333333334</ele><time>2026-04-24T08:56:20.998Z</time></trkpt><trkpt lat="31.562123911054897" lon="-7.704141416888996"><ele>625.0</ele><time>2026-04-24T08:56:21.998Z</time></trkpt><trkpt lat="31.562084680733495" lon="-7.703924527750233"><ele>625.0</ele><time>2026-04-24T08:56:22.998Z</time></trkpt><trkpt lat="31.562044666564837" lon="-7.703706997567737"><ele>625.0</ele><time>2026-04-24T08:56:23.998Z</time></trkpt><trkpt lat="31.56200688532688" lon="-7.703490126610895"><ele>625.0</ele><time>2026-04-24T08:56:24.998Z</time></trkpt><trkpt lat="31.561968637694285" lon="-7.703271389371608"><ele>626.0</ele><time>2026-04-24T08:56:25.998Z</time></trkpt><trkpt lat="31.561930898616477" lon="-7.703047659218443"><ele>627.0</ele><time>2026-04-24T08:56:26.998Z</time></trkpt><trkpt lat="31.561889290170374" lon="-7.702823457966461"><ele>628.0</ele><time>2026-04-24T08:56:27.998Z</time></trkpt><trkpt lat="31.561847737953357" lon="-7.702594235516088"><ele>628.0</ele><time>2026-04-24T08:56:28.998Z</time></trkpt><trkpt lat="31.561806629049595" lon="-7.7023592536280825"><ele>628.0</ele><time>2026-04-24T08:56:29.998Z</time></trkpt><trkpt lat="31.561762198818144" lon="-7.702116839261313"><ele>628.0</ele><time>2026-04-24T08:56:31Z</time></trkpt><trkpt lat="31.561718299591575" lon="-7.701868079403583"><ele>628.0</ele><time>2026-04-24T08:56:32Z</time></trkpt><trkpt lat="31.561673263499873" lon="-7.701612489866357"><ele>628.0</ele><time>2026-04-24T08:56:33Z</time></trkpt><trkpt lat="31.561627282309402" lon="-7.7013513517297945"><ele>628.0</ele><time>2026-04-24T08:56:34Z</time></trkpt><trkpt lat="31.561581420922735" lon="-7.70108811170258"><ele>628.0</ele><time>2026-04-24T08:56:35Z</time></trkpt><trkpt lat="31.561534231107085" lon="-7.700823458644401"><ele>628.0</ele><time>2026-04-24T08:56:36Z</time></trkpt><trkpt lat="31.561490491193197" lon="-7.700565241477983"><ele>628.0</ele><time>2026-04-24T08:56:37Z</time></trkpt><trkpt lat="31.561447164505697" lon="-7.700310583528678"><ele>628.0</ele><time>2026-04-24T08:56:38Z</time></trkpt><trkpt lat="31.561405106996503" lon="-7.7000618283545395"><ele>627.6666666666667</ele><time>2026-04-24T08:56:39Z</time></trkpt><trkpt lat="31.561364346299495" lon="-7.69981805329122"><ele>627.3333333333334</ele><time>2026-04-24T08:56:40Z</time></trkpt><trkpt lat="31.561325919562044" lon="-7.69958165373723"><ele>627.0</ele><time>2026-04-24T08:56:41Z</time></trkpt><trkpt lat="31.56128855206852" lon="-7.699350443874639"><ele>628.0</ele><time>2026-04-24T08:56:42Z</time></trkpt><trkpt lat="31.561250572495602" lon="-7.699123720598314"><ele>629.0</ele><time>2026-04-24T08:56:43Z</time></trkpt><trkpt lat="31.561215335984" lon="-7.6989014601378765"><ele>630.0</ele><time>2026-04-24T08:56:44Z</time></trkpt><trkpt lat="31.56117785430322" lon="-7.698682363935359"><ele>630.3333333333334</ele><time>2026-04-24T08:56:45Z</time></trkpt><trkpt lat="31.561142509410335" lon="-7.698465797731731"><ele>630.6666666666667</ele><time>2026-04-24T08:56:46Z</time></trkpt><trkpt lat="31.561108000415228" lon="-7.698254290457426"><ele>631.0</ele><time>2026-04-24T08:56:47Z</time></trkpt><trkpt lat="31.561070665476194" lon="-7.698039805088284"><ele>631.0</ele><time>2026-04-24T08:56:48Z</time></trkpt><trkpt lat="31.56103238715712" lon="-7.697825184173515"><ele>631.0</ele><time>2026-04-24T08:56:49Z</time></trkpt><trkpt lat="31.56099435675908" lon="-7.697614104738774"><ele>631.0</ele><time>2026-04-24T08:56:50Z</time></trkpt><trkpt lat="31.56095294749063" lon="-7.697405688743192"><ele>631.6666666666667</ele><time>2026-04-24T08:56:51Z</time></trkpt><trkpt lat="31.56091159011082" lon="-7.697196460383559"><ele>632.3333333333334</ele><time>2026-04-24T08:56:52Z</time></trkpt><trkpt lat="31.56087302506955" lon="-7.696992724500448"><ele>633.0</ele><time>2026-04-24T08:56:53Z</time></trkpt><trkpt lat="31.560837429738132" lon="-7.69680806647114"><ele>633.25</ele><time>2026-04-24T08:56:54Z</time></trkpt><trkpt lat="31.560807699943975" lon="-7.696634263018676"><ele>633.5</ele><time>2026-04-24T08:56:55Z</time></trkpt><trkpt lat="31.56077984886323" lon="-7.696472583310458"><ele>633.75</ele><time>2026-04-24T08:56:56Z</time></trkpt><trkpt lat="31.560754598467856" lon="-7.696321103354996"><ele>634.0</ele><time>2026-04-24T08:56:57Z</time></trkpt><trkpt lat="31.560734256878217" lon="-7.696184599084978"><ele>634.0</ele><time>2026-04-24T08:56:58Z</time></trkpt><trkpt lat="31.56071250572168" lon="-7.6960574081628454"><ele>634.0</ele><time>2026-04-24T08:56:59Z</time></trkpt><trkpt lat="31.560688277949048" lon="-7.695939117394486"><ele>634.0</ele><time>2026-04-24T08:57:00Z</time></trkpt><trkpt lat="31.560659806043642" lon="-7.695833682483913"><ele>634.0</ele><time>2026-04-24T08:57:01Z</time></trkpt><trkpt lat="31.560632647053527" lon="-7.695737518818382"><ele>634.0</ele><time>2026-04-24T08:57:02Z</time></trkpt><trkpt lat="31.560604817397305" lon="-7.695648561744923"><ele>634.0</ele><time>2026-04-24T08:57:03Z</time></trkpt><trkpt lat="31.560578063507048" lon="-7.695567370982944"><ele>634.0</ele><time>2026-04-24T08:57:04Z</time></trkpt><trkpt lat="31.56055677867261" lon="-7.6954816228499885"><ele>634.0</ele><time>2026-04-24T08:57:05Z</time></trkpt><trkpt lat="31.560550038641285" lon="-7.695385155858773"><ele>634.0</ele><time>2026-04-24T08:57:06Z</time></trkpt><trkpt lat="31.560555375274" lon="-7.695281753997316"><ele>634.0</ele><time>2026-04-24T08:57:06.999Z</time></trkpt><trkpt lat="31.560559921853546" lon="-7.695163868199827"><ele>634.0</ele><time>2026-04-24T08:57:07.999Z</time></trkpt><trkpt lat="31.560551165428677" lon="-7.69503164829845"><ele>634.0</ele><time>2026-04-24T08:57:08.999Z</time></trkpt><trkpt lat="31.56053598597351" lon="-7.694884760892671"><ele>634.0</ele><time>2026-04-24T08:57:09.999Z</time></trkpt><trkpt lat="31.5605147451871" lon="-7.694726545662128"><ele>634.0</ele><time>2026-04-24T08:57:10.999Z</time></trkpt><trkpt lat="31.560489200801484" lon="-7.694561814667943"><ele>634.0</ele><time>2026-04-24T08:57:11.999Z</time></trkpt><trkpt lat="31.560464148413732" lon="-7.694398703509516"><ele>634.0</ele><time>2026-04-24T08:57:12.999Z</time></trkpt><trkpt lat="31.560438373286384" lon="-7.6942312504342345"><ele>634.0</ele><time>2026-04-24T08:57:13.999Z</time></trkpt><trkpt lat="31.560412449299903" lon="-7.694065965608609"><ele>634.0</ele><time>2026-04-24T08:57:14.999Z</time></trkpt><trkpt lat="31.560386393808333" lon="-7.693903826953135"><ele>634.0</ele><time>2026-04-24T08:57:15.999Z</time></trkpt><trkpt lat="31.560358296092105" lon="-7.693742218701793"><ele>635.0</ele><time>2026-04-24T08:57:16.999Z</time></trkpt><trkpt lat="31.560331057559047" lon="-7.6935784338493205"><ele>636.0</ele><time>2026-04-24T08:57:17.999Z</time></trkpt><trkpt lat="31.560303282151125" lon="-7.69341414608869"><ele>637.0</ele><time>2026-04-24T08:57:18.999Z</time></trkpt><trkpt lat="31.560279500634078" lon="-7.693248813366655"><ele>638.0</ele><time>2026-04-24T08:57:19.999Z</time></trkpt><trkpt lat="31.56024954999516" lon="-7.693080433860699"><ele>638.0</ele><time>2026-04-24T08:57:20.999Z</time></trkpt><trkpt lat="31.560216707730188" lon="-7.692911813871581"><ele>638.0</ele><time>2026-04-24T08:57:21.999Z</time></trkpt><trkpt lat="31.560142191342383" lon="-7.6925848940071715"><ele>638.0</ele><time>2026-04-24T08:57:23.999Z</time></trkpt><trkpt lat="31.560101031863173" lon="-7.692423941536839"><ele>638.25</ele><time>2026-04-24T08:57:24.999Z</time></trkpt><trkpt lat="31.56005672196943" lon="-7.692264576144784"><ele>638.5</ele><time>2026-04-24T08:57:25.999Z</time></trkpt><trkpt lat="31.560008039479268" lon="-7.692106932579077"><ele>638.75</ele><time>2026-04-24T08:57:26.999Z</time></trkpt><trkpt lat="31.559954229692437" lon="-7.6919489102637115"><ele>639.0</ele><time>2026-04-24T08:57:27.999Z</time></trkpt><trkpt lat="31.559895957220302" lon="-7.691792662350642"><ele>639.0</ele><time>2026-04-24T08:57:28.999Z</time></trkpt><trkpt lat="31.55983634141851" lon="-7.691637332810634"><ele>639.0</ele><time>2026-04-24T08:57:29.999Z</time></trkpt><trkpt lat="31.559773808994816" lon="-7.691482944893478"><ele>639.0</ele><time>2026-04-24T08:57:30.999Z</time></trkpt><trkpt lat="31.559708566619097" lon="-7.691331553786371"><ele>639.0</ele><time>2026-04-24T08:57:31.999Z</time></trkpt><trkpt lat="31.55964198426801" lon="-7.691185951633558"><ele>639.5</ele><time>2026-04-24T08:57:32.999Z</time></trkpt><trkpt lat="31.559575472877224" lon="-7.691046534474945"><ele>640.0</ele><time>2026-04-24T08:57:33.999Z</time></trkpt><trkpt lat="31.559508657935964" lon="-7.690912141279496"><ele>640.5</ele><time>2026-04-24T08:57:34.999Z</time></trkpt><trkpt lat="31.55943931786684" lon="-7.690783165859855"><ele>641.0</ele><time>2026-04-24T08:57:35.999Z</time></trkpt><trkpt lat="31.55936987009726" lon="-7.690654844568188"><ele>641.25</ele><time>2026-04-24T08:57:36.999Z</time></trkpt><trkpt lat="31.559297108210203" lon="-7.690528626918397"><ele>641.5</ele><time>2026-04-24T08:57:37.999Z</time></trkpt><trkpt lat="31.559219808385567" lon="-7.690404966458451"><ele>641.75</ele><time>2026-04-24T08:57:38.999Z</time></trkpt><trkpt lat="31.559140581335946" lon="-7.690281553719559"><ele>642.0</ele><time>2026-04-24T08:57:39.999Z</time></trkpt><trkpt lat="31.559063326041375" lon="-7.690156990732754"><ele>642.5</ele><time>2026-04-24T08:57:40.999Z</time></trkpt><trkpt lat="31.55898364480653" lon="-7.690028003724879"><ele>643.0</ele><time>2026-04-24T08:57:41.999Z</time></trkpt><trkpt lat="31.5589041274866" lon="-7.68989851484476"><ele>643.5</ele><time>2026-04-24T08:57:42.999Z</time></trkpt><trkpt lat="31.55882730555434" lon="-7.689773678570042"><ele>644.0</ele><time>2026-04-24T08:57:43.999Z</time></trkpt><trkpt lat="31.558753051565866" lon="-7.689651052821115"><ele>644.0</ele><time>2026-04-24T08:57:44.999Z</time></trkpt><trkpt lat="31.558679140492238" lon="-7.6895295142021345"><ele>644.0</ele><time>2026-04-24T08:57:45.999Z</time></trkpt><trkpt lat="31.558603981694645" lon="-7.689406958021571"><ele>644.0</ele><time>2026-04-24T08:57:46.999Z</time></trkpt><trkpt lat="31.558524317249375" lon="-7.689281583155555"><ele>644.0</ele><time>2026-04-24T08:57:47.999Z</time></trkpt><trkpt lat="31.55844242197274" lon="-7.6891523958966275"><ele>644.0</ele><time>2026-04-24T08:57:48.999Z</time></trkpt><trkpt lat="31.55835555093677" lon="-7.689018670363442"><ele>644.0</ele><time>2026-04-24T08:57:49.999Z</time></trkpt><trkpt lat="31.558269383959164" lon="-7.688885539062962"><ele>644.0</ele><time>2026-04-24T08:57:50.999Z</time></trkpt><trkpt lat="31.558179144624276" lon="-7.688753190427302"><ele>644.0</ele><time>2026-04-24T08:57:51.999Z</time></trkpt><trkpt lat="31.558091005752445" lon="-7.68862154118592"><ele>644.5</ele><time>2026-04-24T08:57:52.999Z</time></trkpt><trkpt lat="31.55800114149212" lon="-7.688496287498249"><ele>645.0</ele><time>2026-04-24T08:57:53.999Z</time></trkpt><trkpt lat="31.557914199209748" lon="-7.688372504317302"><ele>645.5</ele><time>2026-04-24T08:57:54.999Z</time></trkpt><trkpt lat="31.557823600747653" lon="-7.688248207067133"><ele>646.0</ele><time>2026-04-24T08:57:55.999Z</time></trkpt><trkpt lat="31.557729349115817" lon="-7.688123987133336"><ele>646.0</ele><time>2026-04-24T08:57:56.999Z</time></trkpt><trkpt lat="31.557633461320997" lon="-7.688000005914741"><ele>646.0</ele><time>2026-04-24T08:57:57.999Z</time></trkpt><trkpt lat="31.557536916806654" lon="-7.6878778064550355"><ele>646.0</ele><time>2026-04-24T08:57:58.999Z</time></trkpt><trkpt lat="31.55744149094199" lon="-7.687756272139948"><ele>646.0</ele><time>2026-04-24T08:57:59.999Z</time></trkpt><trkpt lat="31.557346057422873" lon="-7.68763432321953"><ele>646.0</ele><time>2026-04-24T08:58:00.999Z</time></trkpt><trkpt lat="31.557248872777592" lon="-7.687510089885284"><ele>646.0</ele><time>2026-04-24T08:58:01.999Z</time></trkpt><trkpt lat="31.557154393708252" lon="-7.687385704094697"><ele>646.0</ele><time>2026-04-24T08:58:02.999Z</time></trkpt><trkpt lat="31.557062652755434" lon="-7.687262612661708"><ele>646.0</ele><time>2026-04-24T08:58:03.999Z</time></trkpt><trkpt lat="31.556979229302247" lon="-7.687142839785047"><ele>646.5</ele><time>2026-04-24T08:58:04.999Z</time></trkpt><trkpt lat="31.55690552915364" lon="-7.687030102290367"><ele>647.0</ele><time>2026-04-24T08:58:05.999Z</time></trkpt><trkpt lat="31.556837408157822" lon="-7.686915050578348"><ele>647.5</ele><time>2026-04-24T08:58:06.999Z</time></trkpt><trkpt lat="31.556772418308288" lon="-7.686792898653279"><ele>648.0</ele><time>2026-04-24T08:58:07.999Z</time></trkpt><trkpt lat="31.55670647372556" lon="-7.6866666186824615"><ele>648.5</ele><time>2026-04-24T08:58:08.999Z</time></trkpt><trkpt lat="31.55662638483979" lon="-7.686553510667991"><ele>649.0</ele><time>2026-04-24T08:58:09.999Z</time></trkpt><trkpt lat="31.556558223241375" lon="-7.6864324687599135"><ele>649.5</ele><time>2026-04-24T08:58:10.999Z</time></trkpt><trkpt lat="31.556492565371233" lon="-7.686315873034761"><ele>650.0</ele><time>2026-04-24T08:58:11.999Z</time></trkpt><trkpt lat="31.55643409099835" lon="-7.686206712398648"><ele>650.0</ele><time>2026-04-24T08:58:12.999Z</time></trkpt><trkpt lat="31.556382597973553" lon="-7.686097128851574"><ele>650.0</ele><time>2026-04-24T08:58:13.999Z</time></trkpt><trkpt lat="31.556344108130336" lon="-7.685975962440587"><ele>650.0</ele><time>2026-04-24T08:58:14.999Z</time></trkpt><trkpt lat="31.55628642988071" lon="-7.685865641909466"><ele>650.0</ele><time>2026-04-24T08:58:15.999Z</time></trkpt><trkpt lat="31.556229077344128" lon="-7.685757910958191"><ele>650.0</ele><time>2026-04-24T08:58:16.999Z</time></trkpt><trkpt lat="31.55617297989009" lon="-7.685652025631609"><ele>650.0</ele><time>2026-04-24T08:58:17.999Z</time></trkpt><trkpt lat="31.55611646753893" lon="-7.685549042992791"><ele>650.0</ele><time>2026-04-24T08:58:18.999Z</time></trkpt><trkpt lat="31.55605583939338" lon="-7.685450188454166"><ele>650.0</ele><time>2026-04-24T08:58:19.999Z</time></trkpt><trkpt lat="31.555993420542034" lon="-7.685350479695613"><ele>650.0</ele><time>2026-04-24T08:58:20.999Z</time></trkpt><trkpt lat="31.555929190882885" lon="-7.685240325085109"><ele>650.0</ele><time>2026-04-24T08:58:21.999Z</time></trkpt><trkpt lat="31.555864451007142" lon="-7.685118355876848"><ele>650.0</ele><time>2026-04-24T08:58:22.999Z</time></trkpt><trkpt lat="31.55579649541531" lon="-7.6849888212641915"><ele>650.0</ele><time>2026-04-24T08:58:23.998Z</time></trkpt><trkpt lat="31.555725803750978" lon="-7.684850789775178"><ele>650.0</ele><time>2026-04-24T08:58:24.998Z</time></trkpt><trkpt lat="31.555651003142955" lon="-7.684706930912977"><ele>650.0</ele><time>2026-04-24T08:58:25.998Z</time></trkpt><trkpt lat="31.555573626686627" lon="-7.684556831616927"><ele>650.0</ele><time>2026-04-24T08:58:26.998Z</time></trkpt><trkpt lat="31.55549456105312" lon="-7.684402178858702"><ele>650.0</ele><time>2026-04-24T08:58:27.998Z</time></trkpt><trkpt lat="31.55541439774301" lon="-7.684244480890653"><ele>650.0</ele><time>2026-04-24T08:58:28.998Z</time></trkpt><trkpt lat="31.555335158115376" lon="-7.68408433158351"><ele>650.6666666666666</ele><time>2026-04-24T08:58:29.998Z</time></trkpt><trkpt lat="31.555256916889167" lon="-7.683926908697254"><ele>651.3333333333334</ele><time>2026-04-24T08:58:30.998Z</time></trkpt><trkpt lat="31.555181278427092" lon="-7.683772281465919"><ele>652.0</ele><time>2026-04-24T08:58:31.998Z</time></trkpt><trkpt lat="31.555112113934435" lon="-7.683618413035476"><ele>652.25</ele><time>2026-04-24T08:58:32.998Z</time></trkpt><trkpt lat="31.55505100847237" lon="-7.683464334615505"><ele>652.5</ele><time>2026-04-24T08:58:33.998Z</time></trkpt><trkpt lat="31.55499928979188" lon="-7.683306870652733"><ele>652.75</ele><time>2026-04-24T08:58:34.998Z</time></trkpt><trkpt lat="31.55493998738536" lon="-7.6831521948171115"><ele>653.0</ele><time>2026-04-24T08:58:35.998Z</time></trkpt><trkpt lat="31.554926601970827" lon="-7.682984731770122"><ele>653.0</ele><time>2026-04-24T08:58:37Z</time></trkpt><trkpt lat="31.55489964051378" lon="-7.682827014052935"><ele>653.0</ele><time>2026-04-24T08:58:38Z</time></trkpt><trkpt lat="31.55486083530051" lon="-7.682676476231001"><ele>653.0</ele><time>2026-04-24T08:58:39Z</time></trkpt><trkpt lat="31.55483761896942" lon="-7.682524640091763"><ele>653.0</ele><time>2026-04-24T08:58:40Z</time></trkpt><trkpt lat="31.554814306121084" lon="-7.6823722324549575"><ele>653.0</ele><time>2026-04-24T08:58:41Z</time></trkpt><trkpt lat="31.554793831829237" lon="-7.682220049971309"><ele>653.0</ele><time>2026-04-24T08:58:42Z</time></trkpt><trkpt lat="31.554774418795233" lon="-7.68206809025778"><ele>653.0</ele><time>2026-04-24T08:58:43Z</time></trkpt><trkpt lat="31.554754214798407" lon="-7.681914071866846"><ele>653.0</ele><time>2026-04-24T08:58:44Z</time></trkpt><trkpt lat="31.554750582187246" lon="-7.681761253299156"><ele>653.5999999999999</ele><time>2026-04-24T08:58:45Z</time></trkpt><trkpt lat="31.55471510747854" lon="-7.68162026701204"><ele>654.1999999999999</ele><time>2026-04-24T08:58:46Z</time></trkpt><trkpt lat="31.554697279709895" lon="-7.681486530926836"><ele>654.8</ele><time>2026-04-24T08:58:47Z</time></trkpt><trkpt lat="31.55469673290957" lon="-7.681359810555413"><ele>655.4</ele><time>2026-04-24T08:58:48Z</time></trkpt><trkpt lat="31.554675154741716" lon="-7.681246934944351"><ele>656.0</ele><time>2026-04-24T08:58:49Z</time></trkpt><trkpt lat="31.554651080585284" lon="-7.681142118317906"><ele>655.9999999999999</ele><time>2026-04-24T08:58:50Z</time></trkpt><trkpt lat="31.55462263072782" lon="-7.6810540873521935"><ele>656.0</ele><time>2026-04-24T08:58:51Z</time></trkpt><trkpt lat="31.554591514488624" lon="-7.680979015833008"><ele>656.0</ele><time>2026-04-24T08:58:52Z</time></trkpt><trkpt lat="31.554560851562844" lon="-7.680905233159205"><ele>656.0</ele><time>2026-04-24T08:58:53Z</time></trkpt><trkpt lat="31.554536992981937" lon="-7.680831777575492"><ele>656.0</ele><time>2026-04-24T08:58:54Z</time></trkpt><trkpt lat="31.55453225611597" lon="-7.680753068351688"><ele>655.9999999999999</ele><time>2026-04-24T08:58:55Z</time></trkpt><trkpt lat="31.554539745292125" lon="-7.680669295389075"><ele>656.0</ele><time>2026-04-24T08:58:56Z</time></trkpt><trkpt lat="31.55455218340398" lon="-7.680580359413912"><ele>655.5999999999999</ele><time>2026-04-24T08:58:57Z</time></trkpt><trkpt lat="31.554562636444068" lon="-7.680486007321681"><ele>655.2</ele><time>2026-04-24T08:58:58Z</time></trkpt><trkpt lat="31.55456117877" lon="-7.680373024571202"><ele>654.8</ele><time>2026-04-24T08:58:59Z</time></trkpt><trkpt lat="31.554508731425038" lon="-7.680249564606592"><ele>654.4000000000001</ele><time>2026-04-24T08:59:00Z</time></trkpt><trkpt lat="31.554490219233724" lon="-7.680101169157531"><ele>654.0</ele><time>2026-04-24T08:59:01Z</time></trkpt><trkpt lat="31.554471476356724" lon="-7.679931604610743"><ele>655.3333333333334</ele><time>2026-04-24T08:59:02Z</time></trkpt><trkpt lat="31.554449420807593" lon="-7.679728969134011"><ele>656.6666666666667</ele><time>2026-04-24T08:59:03Z</time></trkpt><trkpt lat="31.554417508915282" lon="-7.679504032422301"><ele>658.0</ele><time>2026-04-24T08:59:04Z</time></trkpt><trkpt lat="31.55438046768087" lon="-7.6792314619642035"><ele>658.5</ele><time>2026-04-24T08:59:05Z</time></trkpt><trkpt lat="31.55434356103559" lon="-7.678944981762293"><ele>659.0</ele><time>2026-04-24T08:59:06Z</time></trkpt><trkpt lat="31.554305777934562" lon="-7.678654642342629"><ele>659.0</ele><time>2026-04-24T08:59:07Z</time></trkpt><trkpt lat="31.554278437375235" lon="-7.678369147585179"><ele>659.0</ele><time>2026-04-24T08:59:08Z</time></trkpt><trkpt lat="31.554236706133757" lon="-7.678092285271157"><ele>659.0</ele><time>2026-04-24T08:59:09Z</time></trkpt><trkpt lat="31.554196438823443" lon="-7.677822171057414"><ele>659.0</ele><time>2026-04-24T08:59:10Z</time></trkpt><trkpt lat="31.55415629694429" lon="-7.677558819852808"><ele>659.3333333333333</ele><time>2026-04-24T08:59:11Z</time></trkpt><trkpt lat="31.554117392905585" lon="-7.677300917167109"><ele>659.6666666666666</ele><time>2026-04-24T08:59:12Z</time></trkpt><trkpt lat="31.554080080064782" lon="-7.677044149939208"><ele>660.0</ele><time>2026-04-24T08:59:12.999Z</time></trkpt><trkpt lat="31.554043424684185" lon="-7.676789372172501"><ele>660.3333333333334</ele><time>2026-04-24T08:59:13.999Z</time></trkpt><trkpt lat="31.554005782396636" lon="-7.676536510552138"><ele>660.6666666666667</ele><time>2026-04-24T08:59:14.999Z</time></trkpt><trkpt lat="31.553969630115315" lon="-7.676290587718666"><ele>661.0</ele><time>2026-04-24T08:59:15.999Z</time></trkpt><trkpt lat="31.553934684349905" lon="-7.67605299337857"><ele>661.0</ele><time>2026-04-24T08:59:16.999Z</time></trkpt><trkpt lat="31.55390161993096" lon="-7.675822476061492"><ele>661.0</ele><time>2026-04-24T08:59:17.999Z</time></trkpt><trkpt lat="31.553868624254786" lon="-7.675594002141585"><ele>661.0</ele><time>2026-04-24T08:59:18.999Z</time></trkpt><trkpt lat="31.553835640745337" lon="-7.675361314035917"><ele>661.0</ele><time>2026-04-24T08:59:19.999Z</time></trkpt><trkpt lat="31.553802290162032" lon="-7.675125467892782"><ele>661.0</ele><time>2026-04-24T08:59:20.999Z</time></trkpt><trkpt lat="31.55376906924304" lon="-7.674887896121935"><ele>661.0</ele><time>2026-04-24T08:59:21.999Z</time></trkpt><trkpt lat="31.55373692116621" lon="-7.674651272126926"><ele>661.3333333333334</ele><time>2026-04-24T08:59:22.999Z</time></trkpt><trkpt lat="31.553707569348287" lon="-7.674419044078662"><ele>661.6666666666666</ele><time>2026-04-24T08:59:23.999Z</time></trkpt><trkpt lat="31.553678057232656" lon="-7.674193958046589"><ele>662.0</ele><time>2026-04-24T08:59:24.999Z</time></trkpt><trkpt lat="31.55364793441027" lon="-7.673974987717384"><ele>662.3333333333333</ele><time>2026-04-24T08:59:25.999Z</time></trkpt><trkpt lat="31.553617597303784" lon="-7.673758113039809"><ele>662.6666666666666</ele><time>2026-04-24T08:59:26.999Z</time></trkpt><trkpt lat="31.55358620344119" lon="-7.6735421136474855"><ele>663.0</ele><time>2026-04-24T08:59:27.999Z</time></trkpt><trkpt lat="31.55355418892062" lon="-7.673328324716481"><ele>663.0</ele><time>2026-04-24T08:59:28.999Z</time></trkpt><trkpt lat="31.5535252589073" lon="-7.673116929368444"><ele>663.0</ele><time>2026-04-24T08:59:29.999Z</time></trkpt><trkpt lat="31.553496216645737" lon="-7.672909308881039"><ele>663.0</ele><time>2026-04-24T08:59:30.999Z</time></trkpt><trkpt lat="31.553466373450235" lon="-7.672702078721124"><ele>663.3333333333334</ele><time>2026-04-24T08:59:31.999Z</time></trkpt><trkpt lat="31.553437491373288" lon="-7.672495833084922"><ele>663.6666666666667</ele><time>2026-04-24T08:59:32.999Z</time></trkpt><trkpt lat="31.55341047246369" lon="-7.672292837308272"><ele>664.0</ele><time>2026-04-24T08:59:33.999Z</time></trkpt><trkpt lat="31.553382764951788" lon="-7.672092514366743"><ele>664.3333333333334</ele><time>2026-04-24T08:59:34.999Z</time></trkpt><trkpt lat="31.553355587941105" lon="-7.671894729826042"><ele>664.6666666666666</ele><time>2026-04-24T08:59:35.999Z</time></trkpt><trkpt lat="31.553327418391884" lon="-7.671700659780705"><ele>665.0</ele><time>2026-04-24T08:59:36.999Z</time></trkpt><trkpt lat="31.553298922279115" lon="-7.671509456261687"><ele>665.0</ele><time>2026-04-24T08:59:37.999Z</time></trkpt><trkpt lat="31.553273665583852" lon="-7.671322430313615"><ele>665.0</ele><time>2026-04-24T08:59:38.999Z</time></trkpt><trkpt lat="31.55324676532368" lon="-7.671137580327533"><ele>665.0</ele><time>2026-04-24T08:59:39.999Z</time></trkpt><trkpt lat="31.553220848412725" lon="-7.670956398095799"><ele>665.3333333333333</ele><time>2026-04-24T08:59:40.999Z</time></trkpt><trkpt lat="31.553195905568003" lon="-7.670778014578106"><ele>665.6666666666666</ele><time>2026-04-24T08:59:41.999Z</time></trkpt><trkpt lat="31.55317295210729" lon="-7.67060102680851"><ele>666.0</ele><time>2026-04-24T08:59:42.999Z</time></trkpt><trkpt lat="31.55314935262392" lon="-7.6704251014698"><ele>666.5</ele><time>2026-04-24T08:59:43.999Z</time></trkpt><trkpt lat="31.553126492046875" lon="-7.670251585249399"><ele>667.0</ele><time>2026-04-24T08:59:44.999Z</time></trkpt><trkpt lat="31.553103729697238" lon="-7.670077896227261"><ele>667.5</ele><time>2026-04-24T08:59:45.999Z</time></trkpt><trkpt lat="31.553079880611232" lon="-7.669907954673046"><ele>668.0</ele><time>2026-04-24T08:59:46.999Z</time></trkpt><trkpt lat="31.55305571229486" lon="-7.6697403766188"><ele>668.0</ele><time>2026-04-24T08:59:47.999Z</time></trkpt><trkpt lat="31.553031273145205" lon="-7.669578389083639"><ele>668.0</ele><time>2026-04-24T08:59:48.999Z</time></trkpt><trkpt lat="31.553006786837493" lon="-7.669413135575898"><ele>668.0</ele><time>2026-04-24T08:59:49.999Z</time></trkpt><trkpt lat="31.552979732994213" lon="-7.669240982530523"><ele>668.0</ele><time>2026-04-24T08:59:50.999Z</time></trkpt><trkpt lat="31.55295119134739" lon="-7.669066894957966"><ele>668.3333333333333</ele><time>2026-04-24T08:59:51.999Z</time></trkpt><trkpt lat="31.552922372323987" lon="-7.668892537477537"><ele>668.6666666666666</ele><time>2026-04-24T08:59:52.999Z</time></trkpt><trkpt lat="31.55289299986545" lon="-7.668717865598311"><ele>669.0</ele><time>2026-04-24T08:59:53.999Z</time></trkpt><trkpt lat="31.552861128931525" lon="-7.668542103749533"><ele>669.0</ele><time>2026-04-24T08:59:54.999Z</time></trkpt><trkpt lat="31.55282626074242" lon="-7.668366474245924"><ele>669.0</ele><time>2026-04-24T08:59:55.999Z</time></trkpt><trkpt lat="31.552790210012336" lon="-7.668192808002388"><ele>669.0</ele><time>2026-04-24T08:59:56.999Z</time></trkpt><trkpt lat="31.55275352595664" lon="-7.668020272976091"><ele>669.0</ele><time>2026-04-24T08:59:57.999Z</time></trkpt><trkpt lat="31.55271701963914" lon="-7.667851070327827"><ele>669.0</ele><time>2026-04-24T08:59:58.999Z</time></trkpt><trkpt lat="31.552682101626957" lon="-7.667682642046916"><ele>669.0</ele><time>2026-04-24T08:59:59.999Z</time></trkpt><trkpt lat="31.552647339270944" lon="-7.6675137200920265"><ele>669.0</ele><time>2026-04-24T09:00:00.999Z</time></trkpt><trkpt lat="31.552612102815576" lon="-7.667345725052136"><ele>669.0</ele><time>2026-04-24T09:00:01.999Z</time></trkpt><trkpt lat="31.552576297667628" lon="-7.667175736193495"><ele>669.0</ele><time>2026-04-24T09:00:02.999Z</time></trkpt><trkpt lat="31.552540981146365" lon="-7.667007486330951"><ele>669.0</ele><time>2026-04-24T09:00:03.999Z</time></trkpt><trkpt lat="31.552505035091176" lon="-7.666840011804444"><ele>669.0</ele><time>2026-04-24T09:00:04.999Z</time></trkpt><trkpt lat="31.55246899662448" lon="-7.666673966885137"><ele>669.5</ele><time>2026-04-24T09:00:05.999Z</time></trkpt><trkpt lat="31.552432830895697" lon="-7.666507515063993"><ele>670.0</ele><time>2026-04-24T09:00:06.999Z</time></trkpt><trkpt lat="31.5523965262382" lon="-7.666342859326777"><ele>670.5</ele><time>2026-04-24T09:00:07.999Z</time></trkpt><trkpt lat="31.552359099043755" lon="-7.666178890857733"><ele>671.0</ele><time>2026-04-24T09:00:08.999Z</time></trkpt><trkpt lat="31.552322477687362" lon="-7.666015504285532"><ele>671.25</ele><time>2026-04-24T09:00:09.999Z</time></trkpt><trkpt lat="31.552286923160985" lon="-7.665854527491913"><ele>671.5</ele><time>2026-04-24T09:00:10.999Z</time></trkpt><trkpt lat="31.552252005714212" lon="-7.665692468391168"><ele>671.75</ele><time>2026-04-24T09:00:11.999Z</time></trkpt><trkpt lat="31.552216503596988" lon="-7.665529298859305"><ele>672.0</ele><time>2026-04-24T09:00:12.999Z</time></trkpt><trkpt lat="31.552178804401038" lon="-7.665364522142101"><ele>671.75</ele><time>2026-04-24T09:00:13.999Z</time></trkpt><trkpt lat="31.55213900937025" lon="-7.6652017213005905"><ele>671.5</ele><time>2026-04-24T09:00:14.999Z</time></trkpt><trkpt lat="31.55209679940477" lon="-7.66503985155253"><ele>671.25</ele><time>2026-04-24T09:00:15.999Z</time></trkpt><trkpt lat="31.552048827851422" lon="-7.664882462013498"><ele>671.0</ele><time>2026-04-24T09:00:16.999Z</time></trkpt><trkpt lat="31.55199407374593" lon="-7.6647318520328795"><ele>671.5</ele><time>2026-04-24T09:00:17.999Z</time></trkpt><trkpt lat="31.55193383733523" lon="-7.664583142653683"><ele>672.0</ele><time>2026-04-24T09:00:18.999Z</time></trkpt><trkpt lat="31.55186884357746" lon="-7.664438886335853"><ele>672.5</ele><time>2026-04-24T09:00:19.999Z</time></trkpt><trkpt lat="31.551797541813773" lon="-7.6643001077003765"><ele>673.0</ele><time>2026-04-24T09:00:20.999Z</time></trkpt><trkpt lat="31.551720075407527" lon="-7.664165687290749"><ele>673.75</ele><time>2026-04-24T09:00:21.999Z</time></trkpt><trkpt lat="31.551640457203398" lon="-7.664035350755966"><ele>674.5</ele><time>2026-04-24T09:00:22.999Z</time></trkpt><trkpt lat="31.551557195996036" lon="-7.663905285749263"><ele>675.25</ele><time>2026-04-24T09:00:23.999Z</time></trkpt><trkpt lat="31.551472733390177" lon="-7.663776184565927"><ele>676.0</ele><time>2026-04-24T09:00:24.999Z</time></trkpt><trkpt lat="31.55138859077065" lon="-7.66364896245863"><ele>676.25</ele><time>2026-04-24T09:00:25.999Z</time></trkpt><trkpt lat="31.551303219043206" lon="-7.66352077404261"><ele>676.5</ele><time>2026-04-24T09:00:26.999Z</time></trkpt><trkpt lat="31.55121986941169" lon="-7.663395304368545"><ele>676.75</ele><time>2026-04-24T09:00:27.999Z</time></trkpt><trkpt lat="31.551137889862968" lon="-7.663273557919712"><ele>677.0</ele><time>2026-04-24T09:00:28.998Z</time></trkpt><trkpt lat="31.55105753709576" lon="-7.66315406879533"><ele>677.0</ele><time>2026-04-24T09:00:29.998Z</time></trkpt><trkpt lat="31.550978654276722" lon="-7.663036329405362"><ele>677.0</ele><time>2026-04-24T09:00:30.998Z</time></trkpt><trkpt lat="31.550901710104878" lon="-7.662921583320171"><ele>677.0</ele><time>2026-04-24T09:00:31.998Z</time></trkpt><trkpt lat="31.550826682562022" lon="-7.662808516402385"><ele>677.0</ele><time>2026-04-24T09:00:32.998Z</time></trkpt><trkpt lat="31.550751333014396" lon="-7.662693238395713"><ele>676.75</ele><time>2026-04-24T09:00:33.998Z</time></trkpt><trkpt lat="31.550676266939004" lon="-7.662578760025505"><ele>676.5</ele><time>2026-04-24T09:00:34.998Z</time></trkpt><trkpt lat="31.55059966500661" lon="-7.662464062587273"><ele>676.25</ele><time>2026-04-24T09:00:35.998Z</time></trkpt><trkpt lat="31.550522297071044" lon="-7.6623492190491485"><ele>676.0</ele><time>2026-04-24T09:00:36.998Z</time></trkpt><trkpt lat="31.550445406930784" lon="-7.662235616780535"><ele>676.25</ele><time>2026-04-24T09:00:37.998Z</time></trkpt><trkpt lat="31.550368825240874" lon="-7.662121086273561"><ele>676.5</ele><time>2026-04-24T09:00:38.998Z</time></trkpt><trkpt lat="31.550293387566864" lon="-7.6620062327729705"><ele>676.75</ele><time>2026-04-24T09:00:39.998Z</time></trkpt><trkpt lat="31.550216975721753" lon="-7.661889896694672"><ele>677.0</ele><time>2026-04-24T09:00:40.998Z</time></trkpt><trkpt lat="31.55013965083425" lon="-7.661772091272139"><ele>677.0</ele><time>2026-04-24T09:00:41.998Z</time></trkpt><trkpt lat="31.55006086501251" lon="-7.661652268350089"><ele>677.0</ele><time>2026-04-24T09:00:43Z</time></trkpt><trkpt lat="31.54998112062806" lon="-7.661531558506315"><ele>677.0</ele><time>2026-04-24T09:00:44Z</time></trkpt><trkpt lat="31.54990022457129" lon="-7.661412269297696"><ele>677.0</ele><time>2026-04-24T09:00:45Z</time></trkpt><trkpt lat="31.54981645232446" lon="-7.661293821529495"><ele>677.0</ele><time>2026-04-24T09:00:46Z</time></trkpt><trkpt lat="31.54973635285572" lon="-7.661172197369673"><ele>677.0</ele><time>2026-04-24T09:00:47Z</time></trkpt><trkpt lat="31.549652849004598" lon="-7.661052477156355"><ele>677.0</ele><time>2026-04-24T09:00:48Z</time></trkpt><trkpt lat="31.549575337826433" lon="-7.6609339474343905"><ele>677.0</ele><time>2026-04-24T09:00:49Z</time></trkpt><trkpt lat="31.549496835485133" lon="-7.660813838499531"><ele>679.75</ele><time>2026-04-24T09:00:50Z</time></trkpt><trkpt lat="31.549417524384264" lon="-7.660697035516151"><ele>682.5</ele><time>2026-04-24T09:00:51Z</time></trkpt><trkpt lat="31.549339445980173" lon="-7.660581269724709"><ele>685.25</ele><time>2026-04-24T09:00:52Z</time></trkpt><trkpt lat="31.5492612289926" lon="-7.660465838989595"><ele>688.0</ele><time>2026-04-24T09:00:53Z</time></trkpt><trkpt lat="31.54918201486234" lon="-7.660350852389257"><ele>686.25</ele><time>2026-04-24T09:00:54Z</time></trkpt><trkpt lat="31.549103741809095" lon="-7.660239604625782"><ele>684.5</ele><time>2026-04-24T09:00:55Z</time></trkpt><trkpt lat="31.549025733205628" lon="-7.660129557906242"><ele>682.75</ele><time>2026-04-24T09:00:56Z</time></trkpt><trkpt lat="31.54894579857767" lon="-7.660020156110065"><ele>681.0</ele><time>2026-04-24T09:00:57Z</time></trkpt><trkpt lat="31.548864593847956" lon="-7.659916828717328"><ele>681.0</ele><time>2026-04-24T09:00:58Z</time></trkpt><trkpt lat="31.54878005545357" lon="-7.659819216928917"><ele>681.0</ele><time>2026-04-24T09:00:59Z</time></trkpt><trkpt lat="31.54869582844034" lon="-7.659724099313743"><ele>681.0</ele><time>2026-04-24T09:01:00Z</time></trkpt><trkpt lat="31.54860959270529" lon="-7.659628857623618"><ele>681.0</ele><time>2026-04-24T09:01:01Z</time></trkpt><trkpt lat="31.548520249614096" lon="-7.6595361320537085"><ele>681.25</ele><time>2026-04-24T09:01:02Z</time></trkpt><trkpt lat="31.548433114094433" lon="-7.659447735322997"><ele>681.5</ele><time>2026-04-24T09:01:03Z</time></trkpt><trkpt lat="31.548349160419125" lon="-7.659360447644965"><ele>681.75</ele><time>2026-04-24T09:01:04Z</time></trkpt><trkpt lat="31.54826358670732" lon="-7.659273505072205"><ele>682.0</ele><time>2026-04-24T09:01:05Z</time></trkpt><trkpt lat="31.548175855118036" lon="-7.659181188839786"><ele>682.0</ele><time>2026-04-24T09:01:06Z</time></trkpt><trkpt lat="31.548086739212387" lon="-7.659082287970417"><ele>682.0</ele><time>2026-04-24T09:01:07Z</time></trkpt><trkpt lat="31.547994526588717" lon="-7.658977647767858"><ele>682.0</ele><time>2026-04-24T09:01:08Z</time></trkpt><trkpt lat="31.54789016000206" lon="-7.658868320946832"><ele>682.0</ele><time>2026-04-24T09:01:09Z</time></trkpt><trkpt lat="31.547777538274637" lon="-7.658756062838185"><ele>682.5</ele><time>2026-04-24T09:01:10Z</time></trkpt><trkpt lat="31.54766437400644" lon="-7.658637552459071"><ele>683.0</ele><time>2026-04-24T09:01:11Z</time></trkpt><trkpt lat="31.547554594438935" lon="-7.658527459959551"><ele>683.5</ele><time>2026-04-24T09:01:12Z</time></trkpt><trkpt lat="31.547453439827873" lon="-7.658425418665924"><ele>684.0</ele><time>2026-04-24T09:01:13Z</time></trkpt><trkpt lat="31.547354032361326" lon="-7.6583257596698635"><ele>684.0</ele><time>2026-04-24T09:01:14Z</time></trkpt><trkpt lat="31.547258367842325" lon="-7.65822775995636"><ele>684.0</ele><time>2026-04-24T09:01:15Z</time></trkpt><trkpt lat="31.547161532300994" lon="-7.658132325340845"><ele>684.0</ele><time>2026-04-24T09:01:16Z</time></trkpt><trkpt lat="31.54706511913772" lon="-7.658033900230846"><ele>684.0</ele><time>2026-04-24T09:01:17Z</time></trkpt><trkpt lat="31.546969114527972" lon="-7.65793733426562"><ele>683.75</ele><time>2026-04-24T09:01:17.999Z</time></trkpt><trkpt lat="31.5468730954302" lon="-7.657842470750133"><ele>683.5</ele><time>2026-04-24T09:01:18.999Z</time></trkpt><trkpt lat="31.546779850231438" lon="-7.6577442582196324"><ele>683.25</ele><time>2026-04-24T09:01:19.999Z</time></trkpt><trkpt lat="31.5466842443997" lon="-7.657649487802142"><ele>683.0</ele><time>2026-04-24T09:01:20.999Z</time></trkpt><trkpt lat="31.546589070582115" lon="-7.657549968005388"><ele>683.0</ele><time>2026-04-24T09:01:21.999Z</time></trkpt><trkpt lat="31.54649480252359" lon="-7.657452729785373"><ele>683.0</ele><time>2026-04-24T09:01:22.999Z</time></trkpt><trkpt lat="31.54640030990352" lon="-7.657357172470351"><ele>683.0</ele><time>2026-04-24T09:01:23.999Z</time></trkpt><trkpt lat="31.546306016567428" lon="-7.657260042325306"><ele>683.0</ele><time>2026-04-24T09:01:24.999Z</time></trkpt><trkpt lat="31.546210822932707" lon="-7.6571623884182545"><ele>684.0</ele><time>2026-04-24T09:01:25.999Z</time></trkpt><trkpt lat="31.546113364215127" lon="-7.657067545687902"><ele>685.0</ele><time>2026-04-24T09:01:26.999Z</time></trkpt><trkpt lat="31.54601686637957" lon="-7.656973253579387"><ele>686.0</ele><time>2026-04-24T09:01:27.999Z</time></trkpt><trkpt lat="31.545921612018063" lon="-7.656877869460056"><ele>687.0</ele><time>2026-04-24T09:01:28.999Z</time></trkpt><trkpt lat="31.545826210153656" lon="-7.656782068524639"><ele>687.0</ele><time>2026-04-24T09:01:29.999Z</time></trkpt><trkpt lat="31.545733709793634" lon="-7.656687684674392"><ele>687.0</ele><time>2026-04-24T09:01:30.999Z</time></trkpt><trkpt lat="31.5456428551366" lon="-7.656594146669621"><ele>687.0</ele><time>2026-04-24T09:01:31.999Z</time></trkpt><trkpt lat="31.54555114747619" lon="-7.6565008917872275"><ele>687.0</ele><time>2026-04-24T09:01:32.999Z</time></trkpt><trkpt lat="31.54545797714281" lon="-7.656405529765666"><ele>688.0</ele><time>2026-04-24T09:01:33.999Z</time></trkpt><trkpt lat="31.545366203309904" lon="-7.656311269516595"><ele>689.0</ele><time>2026-04-24T09:01:34.999Z</time></trkpt><trkpt lat="31.54527521015287" lon="-7.656218101989698"><ele>690.0</ele><time>2026-04-24T09:01:35.999Z</time></trkpt><trkpt lat="31.54518556617859" lon="-7.656125078070202"><ele>691.0</ele><time>2026-04-24T09:01:36.999Z</time></trkpt><trkpt lat="31.5450971603483" lon="-7.656033895369435"><ele>691.0</ele><time>2026-04-24T09:01:37.999Z</time></trkpt><trkpt lat="31.545008714262487" lon="-7.655943252078534"><ele>691.0</ele><time>2026-04-24T09:01:38.999Z</time></trkpt><trkpt lat="31.54492699727871" lon="-7.655846567072023"><ele>691.0</ele><time>2026-04-24T09:01:39.999Z</time></trkpt><trkpt lat="31.544828161429177" lon="-7.655771722024372"><ele>691.0</ele><time>2026-04-24T09:01:40.999Z</time></trkpt><trkpt lat="31.544741700062183" lon="-7.6556855871851415"><ele>691.0</ele><time>2026-04-24T09:01:41.999Z</time></trkpt><trkpt lat="31.544654483160578" lon="-7.655597927379786"><ele>691.0</ele><time>2026-04-24T09:01:42.999Z</time></trkpt><trkpt lat="31.544578879574264" lon="-7.655496434150707"><ele>691.0</ele><time>2026-04-24T09:01:43.999Z</time></trkpt><trkpt lat="31.544482514083317" lon="-7.655423368694979"><ele>691.0</ele><time>2026-04-24T09:01:44.999Z</time></trkpt><trkpt lat="31.544394952428426" lon="-7.655333389806937"><ele>692.5</ele><time>2026-04-24T09:01:45.999Z</time></trkpt><trkpt lat="31.54431775358982" lon="-7.655231821996021"><ele>694.0</ele><time>2026-04-24T09:01:46.999Z</time></trkpt><trkpt lat="31.54423256335059" lon="-7.6551399891622385"><ele>695.5</ele><time>2026-04-24T09:01:47.999Z</time></trkpt><trkpt lat="31.54413920920312" lon="-7.655059242716479"><ele>697.0</ele><time>2026-04-24T09:01:48.999Z</time></trkpt><trkpt lat="31.54407613073016" lon="-7.654946517526155"><ele>697.0</ele><time>2026-04-24T09:01:49.999Z</time></trkpt><trkpt lat="31.544004846127926" lon="-7.654844294695475"><ele>697.0</ele><time>2026-04-24T09:01:50.999Z</time></trkpt><trkpt lat="31.54394519151026" lon="-7.654738257919422"><ele>697.0</ele><time>2026-04-24T09:01:51.999Z</time></trkpt><trkpt lat="31.543892258638813" lon="-7.654624354193617"><ele>697.0</ele><time>2026-04-24T09:01:52.999Z</time></trkpt><trkpt lat="31.543839841394163" lon="-7.654513176484356"><ele>697.0</ele><time>2026-04-24T09:01:53.999Z</time></trkpt><trkpt lat="31.543786401342636" lon="-7.654399945993674"><ele>696.75</ele><time>2026-04-24T09:01:54.999Z</time></trkpt><trkpt lat="31.543735024964093" lon="-7.654283478647887"><ele>696.5</ele><time>2026-04-24T09:01:55.999Z</time></trkpt><trkpt lat="31.543686707333528" lon="-7.654163965461943"><ele>696.25</ele><time>2026-04-24T09:01:56.999Z</time></trkpt><trkpt lat="31.543635887071886" lon="-7.654041506698696"><ele>696.0</ele><time>2026-04-24T09:01:57.999Z</time></trkpt><trkpt lat="31.543584308138858" lon="-7.65391863028331"><ele>696.0</ele><time>2026-04-24T09:01:58.999Z</time></trkpt><trkpt lat="31.543533975851393" lon="-7.653793644175736"><ele>696.0</ele><time>2026-04-24T09:01:59.999Z</time></trkpt><trkpt lat="31.54348161351582" lon="-7.653665864988583"><ele>696.0</ele><time>2026-04-24T09:02:00.999Z</time></trkpt><trkpt lat="31.543427551713606" lon="-7.653534971395229"><ele>696.0</ele><time>2026-04-24T09:02:01.999Z</time></trkpt><trkpt lat="31.543373352987082" lon="-7.653404069855242"><ele>695.8</ele><time>2026-04-24T09:02:02.999Z</time></trkpt><trkpt lat="31.543321368991382" lon="-7.653283210527232"><ele>695.5999999999999</ele><time>2026-04-24T09:02:03.999Z</time></trkpt><trkpt lat="31.54327120460577" lon="-7.65316301524545"><ele>695.4</ele><time>2026-04-24T09:02:04.999Z</time></trkpt><trkpt lat="31.543225331448085" lon="-7.6530514717790545"><ele>695.2</ele><time>2026-04-24T09:02:05.999Z</time></trkpt><trkpt lat="31.543181587872542" lon="-7.652946754922641"><ele>695.0</ele><time>2026-04-24T09:02:06.999Z</time></trkpt><trkpt lat="31.54313990867247" lon="-7.652851176009521"><ele>694.8</ele><time>2026-04-24T09:02:07.999Z</time></trkpt><trkpt lat="31.543099450725855" lon="-7.652755736530524"><ele>694.6</ele><time>2026-04-24T09:02:08.999Z</time></trkpt><trkpt lat="31.543061211256354" lon="-7.652651864463557"><ele>694.4000000000001</ele><time>2026-04-24T09:02:09.999Z</time></trkpt><trkpt lat="31.54302039488566" lon="-7.652547239701991"><ele>694.2</ele><time>2026-04-24T09:02:10.999Z</time></trkpt><trkpt lat="31.54298037691361" lon="-7.652432860996861"><ele>694.0</ele><time>2026-04-24T09:02:11.999Z</time></trkpt><trkpt lat="31.54293868848942" lon="-7.652308401404681"><ele>694.0</ele><time>2026-04-24T09:02:12.999Z</time></trkpt><trkpt lat="31.542900989936207" lon="-7.6521752085246835"><ele>694.0</ele><time>2026-04-24T09:02:13.999Z</time></trkpt><trkpt lat="31.542872697310106" lon="-7.652033298864185"><ele>694.0</ele><time>2026-04-24T09:02:14.999Z</time></trkpt><trkpt lat="31.542849680437318" lon="-7.651885906209363"><ele>694.0</ele><time>2026-04-24T09:02:15.999Z</time></trkpt><trkpt lat="31.542830994846415" lon="-7.651739730275506"><ele>694.5</ele><time>2026-04-24T09:02:16.999Z</time></trkpt><trkpt lat="31.542819230006405" lon="-7.651591711865826"><ele>695.0</ele><time>2026-04-24T09:02:17.999Z</time></trkpt><trkpt lat="31.54279212010853" lon="-7.651442410625344"><ele>695.5</ele><time>2026-04-24T09:02:18.999Z</time></trkpt><trkpt lat="31.542778646680116" lon="-7.651288606921372"><ele>696.0</ele><time>2026-04-24T09:02:19.999Z</time></trkpt><trkpt lat="31.542768312472678" lon="-7.651137856283301"><ele>696.0</ele><time>2026-04-24T09:02:20.999Z</time></trkpt><trkpt lat="31.542757917203776" lon="-7.650986214760577"><ele>696.0</ele><time>2026-04-24T09:02:21.999Z</time></trkpt><trkpt lat="31.542763905455065" lon="-7.650835151590646"><ele>696.0</ele><time>2026-04-24T09:02:22.999Z</time></trkpt><trkpt lat="31.54275238174619" lon="-7.650683396202963"><ele>696.0</ele><time>2026-04-24T09:02:23.999Z</time></trkpt><trkpt lat="31.542741450125032" lon="-7.6505338141672965"><ele>696.0</ele><time>2026-04-24T09:02:24.999Z</time></trkpt><trkpt lat="31.542730894458472" lon="-7.650385330299765"><ele>696.0</ele><time>2026-04-24T09:02:25.999Z</time></trkpt><trkpt lat="31.542721283671774" lon="-7.650237346447049"><ele>696.0</ele><time>2026-04-24T09:02:26.999Z</time></trkpt><trkpt lat="31.542710478478526" lon="-7.650086838369995"><ele>696.0</ele><time>2026-04-24T09:02:27.999Z</time></trkpt><trkpt lat="31.54269865914042" lon="-7.649936448964517"><ele>696.25</ele><time>2026-04-24T09:02:28.999Z</time></trkpt><trkpt lat="31.54268534076512" lon="-7.6497823437184636"><ele>696.5</ele><time>2026-04-24T09:02:29.999Z</time></trkpt><trkpt lat="31.542669529348608" lon="-7.649629045324264"><ele>696.75</ele><time>2026-04-24T09:02:30.999Z</time></trkpt><trkpt lat="31.542654662057178" lon="-7.649476730464197"><ele>697.0</ele><time>2026-04-24T09:02:31.999Z</time></trkpt><trkpt lat="31.542651946965808" lon="-7.649323546620214"><ele>697.25</ele><time>2026-04-24T09:02:32.998Z</time></trkpt><trkpt lat="31.542655241871532" lon="-7.649172999699882"><ele>697.5</ele><time>2026-04-24T09:02:33.998Z</time></trkpt><trkpt lat="31.542671460638964" lon="-7.649024040417728"><ele>697.75</ele><time>2026-04-24T09:02:34.998Z</time></trkpt><trkpt lat="31.542702227217816" lon="-7.648875171202253"><ele>698.0</ele><time>2026-04-24T09:02:35.998Z</time></trkpt><trkpt lat="31.54274226925071" lon="-7.648729404502654"><ele>698.0</ele><time>2026-04-24T09:02:36.998Z</time></trkpt><trkpt lat="31.54279177829097" lon="-7.648591896341975"><ele>698.0</ele><time>2026-04-24T09:02:37.998Z</time></trkpt><trkpt lat="31.542852898435044" lon="-7.648461634893659"><ele>698.0</ele><time>2026-04-24T09:02:38.998Z</time></trkpt><trkpt lat="31.54292592011188" lon="-7.648340030042479"><ele>698.0</ele><time>2026-04-24T09:02:39.998Z</time></trkpt><trkpt lat="31.543006459676747" lon="-7.648226094704196"><ele>698.0</ele><time>2026-04-24T09:02:40.998Z</time></trkpt><trkpt lat="31.5430896621353" lon="-7.6481195239107205"><ele>698.0</ele><time>2026-04-24T09:02:41.998Z</time></trkpt><trkpt lat="31.54318050192766" lon="-7.648021378380569"><ele>698.0</ele><time>2026-04-24T09:02:42.998Z</time></trkpt><trkpt lat="31.54327383306388" lon="-7.647932155985669"><ele>698.0</ele><time>2026-04-24T09:02:43.998Z</time></trkpt><trkpt lat="31.543369946889484" lon="-7.647846622689764"><ele>698.5</ele><time>2026-04-24T09:02:44.998Z</time></trkpt><trkpt lat="31.543472827172884" lon="-7.64777005854614"><ele>699.0</ele><time>2026-04-24T09:02:45.998Z</time></trkpt><trkpt lat="31.543584088655415" lon="-7.6476971866501655"><ele>699.5</ele><time>2026-04-24T09:02:46.998Z</time></trkpt><trkpt lat="31.543708564268353" lon="-7.647624066910264"><ele>700.0</ele><time>2026-04-24T09:02:47.998Z</time></trkpt><trkpt lat="31.543853710380173" lon="-7.647568284685569"><ele>700.3333333333334</ele><time>2026-04-24T09:02:49Z</time></trkpt><trkpt lat="31.544033134606114" lon="-7.647510762358916"><ele>700.6666666666666</ele><time>2026-04-24T09:02:50Z</time></trkpt><trkpt lat="31.544232504412083" lon="-7.647454296336973"><ele>701.0</ele><time>2026-04-24T09:02:51Z</time></trkpt><trkpt lat="31.544443050781435" lon="-7.647373024404721"><ele>700.0</ele><time>2026-04-24T09:02:52Z</time></trkpt><trkpt lat="31.544663453963448" lon="-7.647305458520687"><ele>699.0</ele><time>2026-04-24T09:02:53Z</time></trkpt><trkpt lat="31.54487389193568" lon="-7.647240379429903"><ele>698.0</ele><time>2026-04-24T09:02:54Z</time></trkpt><trkpt lat="31.54506980636855" lon="-7.647179951562705"><ele>698.0</ele><time>2026-04-24T09:02:55Z</time></trkpt><trkpt lat="31.545244542023116" lon="-7.647129110815867"><ele>698.0</ele><time>2026-04-24T09:02:56Z</time></trkpt><trkpt lat="31.545402787504546" lon="-7.647101719263144"><ele>698.0</ele><time>2026-04-24T09:02:57Z</time></trkpt><trkpt lat="31.54554704019016" lon="-7.647057115163918"><ele>697.8</ele><time>2026-04-24T09:02:58Z</time></trkpt><trkpt lat="31.545667355664154" lon="-7.64702042319443"><ele>697.5999999999999</ele><time>2026-04-24T09:02:59Z</time></trkpt><trkpt lat="31.545763378179387" lon="-7.646992923780873"><ele>697.4000000000001</ele><time>2026-04-24T09:03:00Z</time></trkpt><trkpt lat="31.54585417210679" lon="-7.646969356300499"><ele>697.2</ele><time>2026-04-24T09:03:01Z</time></trkpt><trkpt lat="31.545945728308205" lon="-7.646925002054733"><ele>697.0</ele><time>2026-04-24T09:03:02Z</time></trkpt><trkpt lat="31.546040920171215" lon="-7.646897293778771"><ele>697.0</ele><time>2026-04-24T09:03:03Z</time></trkpt><trkpt lat="31.54613488945567" lon="-7.646869041417946"><ele>697.0</ele><time>2026-04-24T09:03:04Z</time></trkpt><trkpt lat="31.5462293398353" lon="-7.646840066258921"><ele>697.0</ele><time>2026-04-24T09:03:05Z</time></trkpt><trkpt lat="31.546331960931564" lon="-7.646827331395085"><ele>697.0</ele><time>2026-04-24T09:03:06Z</time></trkpt><trkpt lat="31.546431369795002" lon="-7.646792299945667"><ele>697.0</ele><time>2026-04-24T09:03:07Z</time></trkpt><trkpt lat="31.546528130986815" lon="-7.646750700565915"><ele>698.0</ele><time>2026-04-24T09:03:08Z</time></trkpt><trkpt lat="31.546621575083694" lon="-7.646701811974781"><ele>699.0</ele><time>2026-04-24T09:03:09Z</time></trkpt><trkpt lat="31.546713205471455" lon="-7.646640455734709"><ele>700.0</ele><time>2026-04-24T09:03:10Z</time></trkpt><trkpt lat="31.546802545673433" lon="-7.64656503897169"><ele>701.0</ele><time>2026-04-24T09:03:11Z</time></trkpt><trkpt lat="31.546884169238737" lon="-7.646474625856419"><ele>702.0</ele><time>2026-04-24T09:03:12Z</time></trkpt><trkpt lat="31.546954386689105" lon="-7.646374258797069"><ele>702.0</ele><time>2026-04-24T09:03:13Z</time></trkpt><trkpt lat="31.54701083154677" lon="-7.646260582654115"><ele>702.0</ele><time>2026-04-24T09:03:14Z</time></trkpt><trkpt lat="31.5470583979034" lon="-7.646139771108735"><ele>702.0</ele><time>2026-04-24T09:03:15Z</time></trkpt><trkpt lat="31.547075280494514" lon="-7.646005518340449"><ele>702.0</ele><time>2026-04-24T09:03:16Z</time></trkpt><trkpt lat="31.54709491819386" lon="-7.645852561220151"><ele>704.0</ele><time>2026-04-24T09:03:17Z</time></trkpt><trkpt lat="31.547111737003583" lon="-7.645674837728391"><ele>706.0</ele><time>2026-04-24T09:03:18Z</time></trkpt><trkpt lat="31.547128725365184" lon="-7.645489007096153"><ele>708.0</ele><time>2026-04-24T09:03:19Z</time></trkpt><trkpt lat="31.54715133951019" lon="-7.6452884843051345"><ele>708.0</ele><time>2026-04-24T09:03:20Z</time></trkpt><trkpt lat="31.547170897388483" lon="-7.645087351956039"><ele>708.0</ele><time>2026-04-24T09:03:21Z</time></trkpt><trkpt lat="31.547190132800697" lon="-7.644865745669395"><ele>708.0</ele><time>2026-04-24T09:03:22Z</time></trkpt><trkpt lat="31.547209986561807" lon="-7.644640529651566"><ele>708.0</ele><time>2026-04-24T09:03:23Z</time></trkpt><trkpt lat="31.54722938262198" lon="-7.644420505501796"><ele>708.0</ele><time>2026-04-24T09:03:23.999Z</time></trkpt><trkpt lat="31.5472474418518" lon="-7.64420328315351"><ele>708.0</ele><time>2026-04-24T09:03:24.999Z</time></trkpt><trkpt lat="31.54728052160038" lon="-7.643985628096759"><ele>708.0</ele><time>2026-04-24T09:03:25.999Z</time></trkpt><trkpt lat="31.547299196835773" lon="-7.643772063319586"><ele>708.0</ele><time>2026-04-24T09:03:26.999Z</time></trkpt><trkpt lat="31.547318446036964" lon="-7.643559014742713"><ele>708.0</ele><time>2026-04-24T09:03:27.999Z</time></trkpt><trkpt lat="31.547322941373995" lon="-7.64334193426715"><ele>708.6666666666666</ele><time>2026-04-24T09:03:28.999Z</time></trkpt><trkpt lat="31.547342858523336" lon="-7.643118409471894"><ele>709.3333333333333</ele><time>2026-04-24T09:03:29.999Z</time></trkpt><trkpt lat="31.547389962287763" lon="-7.642890222502372"><ele>710.0</ele><time>2026-04-24T09:03:30.999Z</time></trkpt><trkpt lat="31.547432073225302" lon="-7.642657518419842"><ele>710.6666666666666</ele><time>2026-04-24T09:03:31.999Z</time></trkpt><trkpt lat="31.547478607103844" lon="-7.642426253056232"><ele>711.3333333333334</ele><time>2026-04-24T09:03:32.999Z</time></trkpt><trkpt lat="31.54753354322217" lon="-7.6421952317020265"><ele>712.0</ele><time>2026-04-24T09:03:33.999Z</time></trkpt><trkpt lat="31.547595783094295" lon="-7.641960275645105"><ele>712.0</ele><time>2026-04-24T09:03:34.999Z</time></trkpt><trkpt lat="31.547654646621947" lon="-7.641728237973208"><ele>712.0</ele><time>2026-04-24T09:03:35.999Z</time></trkpt><trkpt lat="31.54771984634933" lon="-7.641473678621609"><ele>712.0</ele><time>2026-04-24T09:03:36.999Z</time></trkpt><trkpt lat="31.54776424479215" lon="-7.64121887099241"><ele>712.6666666666667</ele><time>2026-04-24T09:03:37.999Z</time></trkpt><trkpt lat="31.547823826181137" lon="-7.640970271050124"><ele>713.3333333333334</ele><time>2026-04-24T09:03:38.999Z</time></trkpt><trkpt lat="31.547882881230933" lon="-7.640723870192318"><ele>714.0</ele><time>2026-04-24T09:03:39.999Z</time></trkpt><trkpt lat="31.547944436789344" lon="-7.6404789148230385"><ele>714.6666666666666</ele><time>2026-04-24T09:03:40.999Z</time></trkpt><trkpt lat="31.54800375629095" lon="-7.640239732644634"><ele>715.3333333333333</ele><time>2026-04-24T09:03:41.999Z</time></trkpt><trkpt lat="31.548062378746053" lon="-7.640003688002644"><ele>716.0</ele><time>2026-04-24T09:03:42.999Z</time></trkpt><trkpt lat="31.548120788094952" lon="-7.639768501330646"><ele>716.0</ele><time>2026-04-24T09:03:43.999Z</time></trkpt><trkpt lat="31.548178402891544" lon="-7.639536657942085"><ele>716.0</ele><time>2026-04-24T09:03:44.999Z</time></trkpt><trkpt lat="31.54823360423991" lon="-7.639314634203648"><ele>716.0</ele><time>2026-04-24T09:03:45.999Z</time></trkpt><trkpt lat="31.54829754943803" lon="-7.639114135536131"><ele>716.5</ele><time>2026-04-24T09:03:46.999Z</time></trkpt><trkpt lat="31.548342439895386" lon="-7.638926375165726"><ele>717.0</ele><time>2026-04-24T09:03:47.999Z</time></trkpt><trkpt lat="31.548383737441434" lon="-7.638758937960014"><ele>717.5</ele><time>2026-04-24T09:03:48.999Z</time></trkpt><trkpt lat="31.54841875876489" lon="-7.638615416277522"><ele>718.0</ele><time>2026-04-24T09:03:49.999Z</time></trkpt><trkpt lat="31.548444698349265" lon="-7.6384912775648655"><ele>718.5999999999999</ele><time>2026-04-24T09:03:50.999Z</time></trkpt><trkpt lat="31.5484588202828" lon="-7.638379416010237"><ele>719.1999999999999</ele><time>2026-04-24T09:03:51.999Z</time></trkpt><trkpt lat="31.54845997094307" lon="-7.638262382852344"><ele>719.8</ele><time>2026-04-24T09:03:52.999Z</time></trkpt><trkpt lat="31.548452643424636" lon="-7.638130161219627"><ele>720.4</ele><time>2026-04-24T09:03:53.999Z</time></trkpt><trkpt lat="31.54843269820336" lon="-7.637984055451997"><ele>721.0</ele><time>2026-04-24T09:03:54.999Z</time></trkpt><trkpt lat="31.54839138642921" lon="-7.637827062943163"><ele>722.3333333333334</ele><time>2026-04-24T09:03:55.999Z</time></trkpt><trkpt lat="31.548326863037357" lon="-7.637665120360208"><ele>723.6666666666666</ele><time>2026-04-24T09:03:56.999Z</time></trkpt><trkpt lat="31.54823797524696" lon="-7.63750625230559"><ele>725.0</ele><time>2026-04-24T09:03:57.999Z</time></trkpt><trkpt lat="31.548127659341475" lon="-7.63735307247328"><ele>725.0</ele><time>2026-04-24T09:03:58.999Z</time></trkpt><trkpt lat="31.54800046179529" lon="-7.637207757161944"><ele>725.0</ele><time>2026-04-24T09:03:59.999Z</time></trkpt><trkpt lat="31.547871572015364" lon="-7.637067320226139"><ele>725.0</ele><time>2026-04-24T09:04:00.999Z</time></trkpt><trkpt lat="31.547748419908704" lon="-7.636927685443953"><ele>725.6666666666666</ele><time>2026-04-24T09:04:01.999Z</time></trkpt><trkpt lat="31.547627516134686" lon="-7.6367921360970525"><ele>726.3333333333334</ele><time>2026-04-24T09:04:02.999Z</time></trkpt><trkpt lat="31.54750850416638" lon="-7.636660515609203"><ele>727.0</ele><time>2026-04-24T09:04:03.999Z</time></trkpt><trkpt lat="31.547391759880618" lon="-7.6365323973079375"><ele>727.0</ele><time>2026-04-24T09:04:04.999Z</time></trkpt><trkpt lat="31.547278099546237" lon="-7.636407315060187"><ele>727.0</ele><time>2026-04-24T09:04:05.999Z</time></trkpt><trkpt lat="31.54716578142835" lon="-7.636285693632382"><ele>727.0</ele><time>2026-04-24T09:04:06.999Z</time></trkpt><trkpt lat="31.54705399878649" lon="-7.636163671440388"><ele>727.5</ele><time>2026-04-24T09:04:07.999Z</time></trkpt><trkpt lat="31.54694385148543" lon="-7.6360449953202885"><ele>728.0</ele><time>2026-04-24T09:04:08.999Z</time></trkpt><trkpt lat="31.546837943521517" lon="-7.635931384219374"><ele>728.5</ele><time>2026-04-24T09:04:09.999Z</time></trkpt><trkpt lat="31.546746974256994" lon="-7.635832340127352"><ele>729.0</ele><time>2026-04-24T09:04:10.999Z</time></trkpt><trkpt lat="31.546663893271838" lon="-7.6357388163117506"><ele>729.0</ele><time>2026-04-24T09:04:11.999Z</time></trkpt><trkpt lat="31.54658799421042" lon="-7.635651475996311"><ele>729.0</ele><time>2026-04-24T09:04:12.999Z</time></trkpt><trkpt lat="31.546515396204413" lon="-7.635564902375993"><ele>729.0</ele><time>2026-04-24T09:04:13.999Z</time></trkpt><trkpt lat="31.546442909608558" lon="-7.635482942212108"><ele>729.0</ele><time>2026-04-24T09:04:14.999Z</time></trkpt><trkpt lat="31.546372962616747" lon="-7.635403399583494"><ele>729.0</ele><time>2026-04-24T09:04:15.999Z</time></trkpt><trkpt lat="31.546303211461115" lon="-7.635326251683308"><ele>729.4000000000001</ele><time>2026-04-24T09:04:16.999Z</time></trkpt><trkpt lat="31.546229725328818" lon="-7.635247809130524"><ele>729.8</ele><time>2026-04-24T09:04:17.999Z</time></trkpt><trkpt lat="31.54615205161334" lon="-7.635166736325027"><ele>730.2</ele><time>2026-04-24T09:04:18.999Z</time></trkpt><trkpt lat="31.54607653376336" lon="-7.635084149042783"><ele>730.5999999999999</ele><time>2026-04-24T09:04:19.999Z</time></trkpt><trkpt lat="31.546001882275675" lon="-7.635001361160077"><ele>731.0</ele><time>2026-04-24T09:04:20.999Z</time></trkpt><trkpt lat="31.54593259354497" lon="-7.634924590857388"><ele>731.1999999999999</ele><time>2026-04-24T09:04:21.999Z</time></trkpt><trkpt lat="31.54585909122437" lon="-7.634846784059694"><ele>731.4</ele><time>2026-04-24T09:04:22.999Z</time></trkpt><trkpt lat="31.5457902407054" lon="-7.63477319291493"><ele>731.6</ele><time>2026-04-24T09:04:23.999Z</time></trkpt><trkpt lat="31.54572565264402" lon="-7.63470487774002"><ele>731.8</ele><time>2026-04-24T09:04:24.999Z</time></trkpt><trkpt lat="31.545654970605288" lon="-7.6346287784659745"><ele>732.0</ele><time>2026-04-24T09:04:25.999Z</time></trkpt><trkpt lat="31.545579198171293" lon="-7.6345454683308045"><ele>732.25</ele><time>2026-04-24T09:04:26.999Z</time></trkpt><trkpt lat="31.545502278946934" lon="-7.63445375092316"><ele>732.5</ele><time>2026-04-24T09:04:27.999Z</time></trkpt><trkpt lat="31.545429002091243" lon="-7.634353361056303"><ele>732.75</ele><time>2026-04-24T09:04:28.999Z</time></trkpt><trkpt lat="31.545366380403436" lon="-7.634239521861912"><ele>733.0</ele><time>2026-04-24T09:04:29.999Z</time></trkpt><trkpt lat="31.545313814021537" lon="-7.634109984826436"><ele>733.0</ele><time>2026-04-24T09:04:30.999Z</time></trkpt><trkpt lat="31.545264997280928" lon="-7.633965831240538"><ele>733.0</ele><time>2026-04-24T09:04:31.999Z</time></trkpt><trkpt lat="31.545223359290947" lon="-7.63380644789194"><ele>733.0</ele><time>2026-04-24T09:04:32.999Z</time></trkpt><trkpt lat="31.54516989243416" lon="-7.63363806774935"><ele>733.0</ele><time>2026-04-24T09:04:33.999Z</time></trkpt><trkpt lat="31.545126096367348" lon="-7.633459882062312"><ele>733.0</ele><time>2026-04-24T09:04:34.999Z</time></trkpt><trkpt lat="31.545079208655675" lon="-7.633268600287681"><ele>733.0</ele><time>2026-04-24T09:04:35.999Z</time></trkpt><trkpt lat="31.54502970439518" lon="-7.633066644201023"><ele>733.0</ele><time>2026-04-24T09:04:36.999Z</time></trkpt><trkpt lat="31.544979682813683" lon="-7.632862577550496"><ele>733.0</ele><time>2026-04-24T09:04:37.999Z</time></trkpt><trkpt lat="31.544929558475733" lon="-7.632657658608473"><ele>733.0</ele><time>2026-04-24T09:04:38.998Z</time></trkpt><trkpt lat="31.544879977004317" lon="-7.632457533343498"><ele>733.0</ele><time>2026-04-24T09:04:39.998Z</time></trkpt><trkpt lat="31.54483109261421" lon="-7.632258264685313"><ele>733.0</ele><time>2026-04-24T09:04:40.998Z</time></trkpt><trkpt lat="31.54479533374325" lon="-7.632053828171986"><ele>733.0</ele><time>2026-04-24T09:04:41.998Z</time></trkpt><trkpt lat="31.5447470173004" lon="-7.6318632570448335"><ele>733.0</ele><time>2026-04-24T09:04:42.998Z</time></trkpt><trkpt lat="31.544702454470407" lon="-7.63168663109022"><ele>733.6666666666667</ele><time>2026-04-24T09:04:43.998Z</time></trkpt><trkpt lat="31.544659468694398" lon="-7.631520147676936"><ele>734.3333333333334</ele><time>2026-04-24T09:04:44.998Z</time></trkpt><trkpt lat="31.544616542531223" lon="-7.631349753007533"><ele>735.0</ele><time>2026-04-24T09:04:45.998Z</time></trkpt><trkpt lat="31.54457269000406" lon="-7.63117891168259"><ele>735.3333333333334</ele><time>2026-04-24T09:04:46.998Z</time></trkpt><trkpt lat="31.544528663509197" lon="-7.631006338888974"><ele>735.6666666666667</ele><time>2026-04-24T09:04:47.998Z</time></trkpt><trkpt lat="31.544481893472476" lon="-7.630831567191829"><ele>736.0</ele><time>2026-04-24T09:04:48.998Z</time></trkpt><trkpt lat="31.54442714010909" lon="-7.630656432504315"><ele>736.0</ele><time>2026-04-24T09:04:49.998Z</time></trkpt><trkpt lat="31.544358652418833" lon="-7.630487767186936"><ele>736.0</ele><time>2026-04-24T09:04:50.998Z</time></trkpt><trkpt lat="31.54427588033786" lon="-7.6303289844405064"><ele>736.0</ele><time>2026-04-24T09:04:51.998Z</time></trkpt><trkpt lat="31.54417820116246" lon="-7.630182197211804"><ele>737.0</ele><time>2026-04-24T09:04:52.998Z</time></trkpt><trkpt lat="31.544055259497263" lon="-7.630059887276164"><ele>738.0</ele><time>2026-04-24T09:04:54Z</time></trkpt><trkpt lat="31.543932211427343" lon="-7.6299363914693785"><ele>739.0</ele><time>2026-04-24T09:04:55Z</time></trkpt><trkpt lat="31.54381496334085" lon="-7.629801246522137"><ele>739.0</ele><time>2026-04-24T09:04:56Z</time></trkpt><trkpt lat="31.54368566882802" lon="-7.629687633261332"><ele>739.0</ele><time>2026-04-24T09:04:57Z</time></trkpt><trkpt lat="31.5435485661849" lon="-7.629590061961562"><ele>739.0</ele><time>2026-04-24T09:04:58Z</time></trkpt><trkpt lat="31.543437316256366" lon="-7.629464261627741"><ele>740.3333333333334</ele><time>2026-04-24T09:04:59Z</time></trkpt><trkpt lat="31.54334164130532" lon="-7.629327146748105"><ele>741.6666666666666</ele><time>2026-04-24T09:05:00Z</time></trkpt><trkpt lat="31.543263290653588" lon="-7.629177288434015"><ele>743.0</ele><time>2026-04-24T09:05:01Z</time></trkpt><trkpt lat="31.543199398088717" lon="-7.629018389683417"><ele>743.0</ele><time>2026-04-24T09:05:02Z</time></trkpt><trkpt lat="31.54314993300478" lon="-7.628846605034847"><ele>743.0</ele><time>2026-04-24T09:05:03Z</time></trkpt><trkpt lat="31.54311952972255" lon="-7.628662301665057"><ele>743.0</ele><time>2026-04-24T09:05:04Z</time></trkpt><trkpt lat="31.54312010537738" lon="-7.628464569737578"><ele>743.3333333333333</ele><time>2026-04-24T09:05:05Z</time></trkpt><trkpt lat="31.543142142571455" lon="-7.6282805396932645"><ele>743.6666666666666</ele><time>2026-04-24T09:05:06Z</time></trkpt><trkpt lat="31.543186657545125" lon="-7.628100834179274"><ele>744.0</ele><time>2026-04-24T09:05:07Z</time></trkpt><trkpt lat="31.543255548338223" lon="-7.627926716476961"><ele>741.3333333333334</ele><time>2026-04-24T09:05:08Z</time></trkpt><trkpt lat="31.543338203065847" lon="-7.62775587210077"><ele>738.6666666666667</ele><time>2026-04-24T09:05:09Z</time></trkpt><trkpt lat="31.543435538062297" lon="-7.627589048404853"><ele>736.0</ele><time>2026-04-24T09:05:10Z</time></trkpt><trkpt lat="31.54353492602993" lon="-7.627427040213844"><ele>736.0</ele><time>2026-04-24T09:05:11Z</time></trkpt><trkpt lat="31.54364326152666" lon="-7.627270471218002"><ele>736.0</ele><time>2026-04-24T09:05:12Z</time></trkpt><trkpt lat="31.543714736175367" lon="-7.627096403467948"><ele>736.0</ele><time>2026-04-24T09:05:13Z</time></trkpt><trkpt lat="31.54376788717065" lon="-7.626934461209786"><ele>738.5</ele><time>2026-04-24T09:05:14Z</time></trkpt><trkpt lat="31.54380201857464" lon="-7.626781277130402"><ele>741.0</ele><time>2026-04-24T09:05:15Z</time></trkpt><trkpt lat="31.543819095117907" lon="-7.6266399038096555"><ele>743.5</ele><time>2026-04-24T09:05:16Z</time></trkpt><trkpt lat="31.543823878548842" lon="-7.626514572485848"><ele>746.0</ele><time>2026-04-24T09:05:17Z</time></trkpt><trkpt lat="31.543821892856407" lon="-7.626405029541929"><ele>746.0</ele><time>2026-04-24T09:05:18Z</time></trkpt><trkpt lat="31.5438117318633" lon="-7.626296733515379"><ele>746.0</ele><time>2026-04-24T09:05:19Z</time></trkpt><trkpt lat="31.543791864181866" lon="-7.626186755237589"><ele>746.0</ele><time>2026-04-24T09:05:20Z</time></trkpt><trkpt lat="31.54376471858447" lon="-7.626081930770164"><ele>746.0</ele><time>2026-04-24T09:05:21Z</time></trkpt><trkpt lat="31.543733988956316" lon="-7.625978520887892"><ele>746.0</ele><time>2026-04-24T09:05:22Z</time></trkpt><trkpt lat="31.543706377937998" lon="-7.6258718860685075"><ele>744.4</ele><time>2026-04-24T09:05:23Z</time></trkpt><trkpt lat="31.54367880718451" lon="-7.625763369835674"><ele>742.8</ele><time>2026-04-24T09:05:24Z</time></trkpt><trkpt lat="31.54364951274009" lon="-7.6256534855505835"><ele>741.1999999999999</ele><time>2026-04-24T09:05:25Z</time></trkpt><trkpt lat="31.54362159971192" lon="-7.625542924748803"><ele>739.5999999999999</ele><time>2026-04-24T09:05:26Z</time></trkpt><trkpt lat="31.543598125541912" lon="-7.6254279990734455"><ele>738.0</ele><time>2026-04-24T09:05:27Z</time></trkpt><trkpt lat="31.543582264955784" lon="-7.625312436423517"><ele>738.8</ele><time>2026-04-24T09:05:27.999Z</time></trkpt><trkpt lat="31.543575325500242" lon="-7.625195038500491"><ele>739.5999999999999</ele><time>2026-04-24T09:05:28.999Z</time></trkpt><trkpt lat="31.543575375010917" lon="-7.625075747521287"><ele>740.4000000000001</ele><time>2026-04-24T09:05:29.999Z</time></trkpt><trkpt lat="31.543578301435247" lon="-7.624953240731979"><ele>741.2</ele><time>2026-04-24T09:05:30.999Z</time></trkpt><trkpt lat="31.54358716116335" lon="-7.624828160170695"><ele>742.0</ele><time>2026-04-24T09:05:31.999Z</time></trkpt><trkpt lat="31.543579527717284" lon="-7.624698605609789"><ele>742.0</ele><time>2026-04-24T09:05:32.999Z</time></trkpt><trkpt lat="31.54360315246296" lon="-7.624568792777263"><ele>742.0</ele><time>2026-04-24T09:05:33.999Z</time></trkpt><trkpt lat="31.54360793924786" lon="-7.6244367281282495"><ele>742.0</ele><time>2026-04-24T09:05:34.999Z</time></trkpt><trkpt lat="31.543613788697236" lon="-7.624301858445157"><ele>742.0</ele><time>2026-04-24T09:05:35.999Z</time></trkpt><trkpt lat="31.543599860824422" lon="-7.62416359925068"><ele>742.0</ele><time>2026-04-24T09:05:36.999Z</time></trkpt><trkpt lat="31.54359130452323" lon="-7.624025167191572"><ele>742.0</ele><time>2026-04-24T09:05:37.999Z</time></trkpt><trkpt lat="31.543574243263766" lon="-7.623883886707798"><ele>742.0</ele><time>2026-04-24T09:05:38.999Z</time></trkpt><trkpt lat="31.543552466501623" lon="-7.623737059579427"><ele>742.0</ele><time>2026-04-24T09:05:39.999Z</time></trkpt><trkpt lat="31.543521672655874" lon="-7.623593259738696"><ele>743.5</ele><time>2026-04-24T09:05:40.999Z</time></trkpt><trkpt lat="31.543484943534256" lon="-7.623447236586797"><ele>745.0</ele><time>2026-04-24T09:05:41.999Z</time></trkpt><trkpt lat="31.543437778856916" lon="-7.623300458128199"><ele>746.5</ele><time>2026-04-24T09:05:42.999Z</time></trkpt><trkpt lat="31.543380868000558" lon="-7.623157923183737"><ele>748.0</ele><time>2026-04-24T09:05:43.999Z</time></trkpt><trkpt lat="31.543314234325535" lon="-7.6230183507869835"><ele>748.0</ele><time>2026-04-24T09:05:44.999Z</time></trkpt><trkpt lat="31.543251153758195" lon="-7.622886221024293"><ele>748.0</ele><time>2026-04-24T09:05:45.999Z</time></trkpt><trkpt lat="31.543189125756864" lon="-7.622757273533179"><ele>748.0</ele><time>2026-04-24T09:05:46.999Z</time></trkpt><trkpt lat="31.543132631193693" lon="-7.622625215060513"><ele>748.0</ele><time>2026-04-24T09:05:47.999Z</time></trkpt><trkpt lat="31.543090456336202" lon="-7.622500520769354"><ele>749.4</ele><time>2026-04-24T09:05:48.999Z</time></trkpt><trkpt lat="31.543056058101623" lon="-7.62238315817663"><ele>750.8</ele><time>2026-04-24T09:05:49.999Z</time></trkpt><trkpt lat="31.543026524856458" lon="-7.622266822333733"><ele>752.2</ele><time>2026-04-24T09:05:50.999Z</time></trkpt><trkpt lat="31.5430059917881" lon="-7.62214461633433"><ele>753.6</ele><time>2026-04-24T09:05:51.999Z</time></trkpt><trkpt lat="31.543004173908052" lon="-7.622020767232697"><ele>755.0</ele><time>2026-04-24T09:05:52.999Z</time></trkpt><trkpt lat="31.542991317619233" lon="-7.621897108504088"><ele>756.4</ele><time>2026-04-24T09:05:53.999Z</time></trkpt><trkpt lat="31.5429850079017" lon="-7.621768495022487"><ele>757.8</ele><time>2026-04-24T09:05:54.999Z</time></trkpt><trkpt lat="31.542986966151993" lon="-7.621638476668084"><ele>759.2</ele><time>2026-04-24T09:05:55.999Z</time></trkpt><trkpt lat="31.542995929367137" lon="-7.621507708848207"><ele>760.6</ele><time>2026-04-24T09:05:56.999Z</time></trkpt><trkpt lat="31.54301390427063" lon="-7.621376978799518"><ele>762.0</ele><time>2026-04-24T09:05:57.999Z</time></trkpt><trkpt lat="31.543039505588006" lon="-7.6212488716502005"><ele>760.6</ele><time>2026-04-24T09:05:58.999Z</time></trkpt><trkpt lat="31.543073036059614" lon="-7.621122890454107"><ele>759.2</ele><time>2026-04-24T09:05:59.999Z</time></trkpt><trkpt lat="31.543109449001047" lon="-7.621001311458393"><ele>757.8</ele><time>2026-04-24T09:06:00.999Z</time></trkpt><trkpt lat="31.543148940267223" lon="-7.620882672775014"><ele>756.4</ele><time>2026-04-24T09:06:01.999Z</time></trkpt><trkpt lat="31.543192623241342" lon="-7.620769338209232"><ele>755.0</ele><time>2026-04-24T09:06:02.999Z</time></trkpt><trkpt lat="31.543240173063158" lon="-7.620658041605717"><ele>755.0</ele><time>2026-04-24T09:06:03.999Z</time></trkpt><trkpt lat="31.543291345444523" lon="-7.620545931907981"><ele>755.0</ele><time>2026-04-24T09:06:04.999Z</time></trkpt><trkpt lat="31.543326778264507" lon="-7.620424118671908"><ele>755.0</ele><time>2026-04-24T09:06:05.999Z</time></trkpt><trkpt lat="31.54337692577563" lon="-7.6203104828850154"><ele>755.0</ele><time>2026-04-24T09:06:06.999Z</time></trkpt><trkpt lat="31.54342922755777" lon="-7.620199920048962"><ele>755.0</ele><time>2026-04-24T09:06:07.999Z</time></trkpt><trkpt lat="31.543481433416055" lon="-7.6200910128701596"><ele>752.4</ele><time>2026-04-24T09:06:08.999Z</time></trkpt><trkpt lat="31.543537292230084" lon="-7.619984070902188"><ele>749.8</ele><time>2026-04-24T09:06:09.999Z</time></trkpt><trkpt lat="31.543593584632358" lon="-7.619878981305899"><ele>747.2</ele><time>2026-04-24T09:06:10.999Z</time></trkpt><trkpt lat="31.54366251005899" lon="-7.6197891201690044"><ele>744.6</ele><time>2026-04-24T09:06:11.999Z</time></trkpt><trkpt lat="31.54372192320372" lon="-7.619689474677885"><ele>742.0</ele><time>2026-04-24T09:06:12.999Z</time></trkpt><trkpt lat="31.543784523261323" lon="-7.619592939731347"><ele>743.0</ele><time>2026-04-24T09:06:13.999Z</time></trkpt><trkpt lat="31.543849622463934" lon="-7.619498930613223"><ele>744.0</ele><time>2026-04-24T09:06:14.999Z</time></trkpt><trkpt lat="31.543918696193714" lon="-7.619407070184719"><ele>745.0</ele><time>2026-04-24T09:06:15.999Z</time></trkpt><trkpt lat="31.543978160213662" lon="-7.619304585970771"><ele>746.0</ele><time>2026-04-24T09:06:16.999Z</time></trkpt><trkpt lat="31.54405020548348" lon="-7.619214204431832"><ele>747.0</ele><time>2026-04-24T09:06:17.999Z</time></trkpt><trkpt lat="31.544124701759216" lon="-7.619126791658674"><ele>747.0</ele><time>2026-04-24T09:06:18.999Z</time></trkpt><trkpt lat="31.544202600204446" lon="-7.619040252579425"><ele>747.0</ele><time>2026-04-24T09:06:19.999Z</time></trkpt><trkpt lat="31.544284917928053" lon="-7.618959778456828"><ele>747.0</ele><time>2026-04-24T09:06:20.999Z</time></trkpt><trkpt lat="31.54436902901358" lon="-7.618891868501269"><ele>747.0</ele><time>2026-04-24T09:06:21.999Z</time></trkpt><trkpt lat="31.54445911857726" lon="-7.618826267749078"><ele>747.0</ele><time>2026-04-24T09:06:22.999Z</time></trkpt><trkpt lat="31.544547275364092" lon="-7.618766386171567"><ele>746.5</ele><time>2026-04-24T09:06:23.999Z</time></trkpt><trkpt lat="31.54464178116183" lon="-7.618708244711891"><ele>746.0</ele><time>2026-04-24T09:06:24.999Z</time></trkpt><trkpt lat="31.544751956453304" lon="-7.618644583583333"><ele>745.5</ele><time>2026-04-24T09:06:25.999Z</time></trkpt><trkpt lat="31.544872944625265" lon="-7.618577323808374"><ele>745.0</ele><time>2026-04-24T09:06:26.999Z</time></trkpt><trkpt lat="31.545011817162116" lon="-7.618503167201909"><ele>745.0</ele><time>2026-04-24T09:06:27.999Z</time></trkpt><trkpt lat="31.54515679147571" lon="-7.61842172915752"><ele>745.0</ele><time>2026-04-24T09:06:28.999Z</time></trkpt><trkpt lat="31.545297627573234" lon="-7.618340611335667"><ele>745.0</ele><time>2026-04-24T09:06:29.999Z</time></trkpt><trkpt lat="31.545433437909228" lon="-7.618256052726966"><ele>746.0</ele><time>2026-04-24T09:06:30.999Z</time></trkpt><trkpt lat="31.545558631679096" lon="-7.618160428197584"><ele>747.0</ele><time>2026-04-24T09:06:31.999Z</time></trkpt><trkpt lat="31.54567323073129" lon="-7.618051817937606"><ele>748.0</ele><time>2026-04-24T09:06:32.999Z</time></trkpt><trkpt lat="31.545772839879845" lon="-7.617932972284358"><ele>749.0</ele><time>2026-04-24T09:06:33.999Z</time></trkpt><trkpt lat="31.54586169307414" lon="-7.61780737454843"><ele>749.0</ele><time>2026-04-24T09:06:34.999Z</time></trkpt><trkpt lat="31.545938612607614" lon="-7.617675089639726"><ele>749.0</ele><time>2026-04-24T09:06:35.999Z</time></trkpt><trkpt lat="31.546016094326355" lon="-7.617526378680718"><ele>749.0</ele><time>2026-04-24T09:06:36.999Z</time></trkpt><trkpt lat="31.546085855789297" lon="-7.617364267908903"><ele>749.0</ele><time>2026-04-24T09:06:37.999Z</time></trkpt><trkpt lat="31.546146646208783" lon="-7.61719577689311"><ele>749.0</ele><time>2026-04-24T09:06:38.999Z</time></trkpt><trkpt lat="31.546200623793865" lon="-7.61702735658432"><ele>749.0</ele><time>2026-04-24T09:06:39.999Z</time></trkpt><trkpt lat="31.546254352749777" lon="-7.616852660491184"><ele>749.0</ele><time>2026-04-24T09:06:40.999Z</time></trkpt><trkpt lat="31.54631207945374" lon="-7.616656862224591"><ele>752.6666666666666</ele><time>2026-04-24T09:06:41.999Z</time></trkpt><trkpt lat="31.546372272333087" lon="-7.616449839527805"><ele>756.3333333333334</ele><time>2026-04-24T09:06:42.998Z</time></trkpt><trkpt lat="31.546437541524373" lon="-7.616230671430223"><ele>760.0</ele><time>2026-04-24T09:06:43.998Z</time></trkpt><trkpt lat="31.546504840754363" lon="-7.616011989279239"><ele>760.0</ele><time>2026-04-24T09:06:44.998Z</time></trkpt><trkpt lat="31.546573216907817" lon="-7.615790539228081"><ele>760.0</ele><time>2026-04-24T09:06:45.998Z</time></trkpt><trkpt lat="31.54664505573386" lon="-7.615558630679223"><ele>760.0</ele><time>2026-04-24T09:06:46.998Z</time></trkpt><trkpt lat="31.54672090903815" lon="-7.61531408314044"><ele>756.0</ele><time>2026-04-24T09:06:47.998Z</time></trkpt><trkpt lat="31.546806590229767" lon="-7.615037534257441"><ele>752.0</ele><time>2026-04-24T09:06:48.998Z</time></trkpt><trkpt lat="31.54690102354207" lon="-7.614731806573413"><ele>750.5</ele><time>2026-04-24T09:06:49.998Z</time></trkpt><trkpt lat="31.5469971574246" lon="-7.614424410479974"><ele>749.0</ele><time>2026-04-24T09:06:50.998Z</time></trkpt><trkpt lat="31.547087104010615" lon="-7.614125960560889"><ele>754.5</ele><time>2026-04-24T09:06:51.998Z</time></trkpt><trkpt lat="31.547175900300367" lon="-7.613833851243552"><ele>760.0</ele><time>2026-04-24T09:06:52.998Z</time></trkpt><trkpt lat="31.547264096712542" lon="-7.613548503355521"><ele>760.0</ele><time>2026-04-24T09:06:53.998Z</time></trkpt><trkpt lat="31.54735022573275" lon="-7.613268231279087"><ele>760.0</ele><time>2026-04-24T09:06:54.998Z</time></trkpt><trkpt lat="31.54743422502056" lon="-7.612995432308167"><ele>756.5</ele><time>2026-04-24T09:06:55.998Z</time></trkpt><trkpt lat="31.54751619353852" lon="-7.612727469303049"><ele>753.0</ele><time>2026-04-24T09:06:56.998Z</time></trkpt><trkpt lat="31.547593520301632" lon="-7.612464126829575"><ele>753.0</ele><time>2026-04-24T09:06:57.998Z</time></trkpt><trkpt lat="31.547671037674455" lon="-7.612203016365176"><ele>753.0</ele><time>2026-04-24T09:06:58.998Z</time></trkpt><trkpt lat="31.547748271996817" lon="-7.611943206971334"><ele>751.0</ele><time>2026-04-24T09:07:00Z</time></trkpt><trkpt lat="31.547822994046953" lon="-7.61168758589773"><ele>749.0</ele><time>2026-04-24T09:07:01Z</time></trkpt><trkpt lat="31.547907051196944" lon="-7.611438731924261"><ele>755.6666666666666</ele><time>2026-04-24T09:07:02Z</time></trkpt><trkpt lat="31.547987077300576" lon="-7.611196042883728"><ele>762.3333333333333</ele><time>2026-04-24T09:07:03Z</time></trkpt><trkpt lat="31.548066808306267" lon="-7.610952233422152"><ele>769.0</ele><time>2026-04-24T09:07:04Z</time></trkpt><trkpt lat="31.548142970993524" lon="-7.610703282680653"><ele>769.0</ele><time>2026-04-24T09:07:05Z</time></trkpt><trkpt lat="31.548213936697454" lon="-7.61045370303318"><ele>769.0</ele><time>2026-04-24T09:07:06Z</time></trkpt><trkpt lat="31.548280628268376" lon="-7.610207838805475"><ele>769.0</ele><time>2026-04-24T09:07:07Z</time></trkpt><trkpt lat="31.54833556712664" lon="-7.609965554325937"><ele>767.3333333333333</ele><time>2026-04-24T09:07:08Z</time></trkpt><trkpt lat="31.548381793350536" lon="-7.609725307615285"><ele>765.6666666666666</ele><time>2026-04-24T09:07:09Z</time></trkpt><trkpt lat="31.54839794437609" lon="-7.609479153307068"><ele>764.0</ele><time>2026-04-24T09:07:10Z</time></trkpt><trkpt lat="31.548414990899385" lon="-7.609230604389834"><ele>763.0</ele><time>2026-04-24T09:07:11Z</time></trkpt><trkpt lat="31.548436675328304" lon="-7.608984774675846"><ele>762.0</ele><time>2026-04-24T09:07:12Z</time></trkpt><trkpt lat="31.5484586734297" lon="-7.608740823520189"><ele>761.0</ele><time>2026-04-24T09:07:13Z</time></trkpt><trkpt lat="31.54847728888985" lon="-7.608509762931447"><ele>760.0</ele><time>2026-04-24T09:07:14Z</time></trkpt><trkpt lat="31.54849505614397" lon="-7.608296572942173"><ele>759.0</ele><time>2026-04-24T09:07:15Z</time></trkpt><trkpt lat="31.548514677135458" lon="-7.608095786372297"><ele>758.0</ele><time>2026-04-24T09:07:16Z</time></trkpt><trkpt lat="31.54854393147683" lon="-7.607900691575918"><ele>758.6666666666666</ele><time>2026-04-24T09:07:17Z</time></trkpt><trkpt lat="31.548586749020128" lon="-7.607715734483891"><ele>759.3333333333334</ele><time>2026-04-24T09:07:18Z</time></trkpt><trkpt lat="31.54864585419642" lon="-7.607545767149845"><ele>760.0</ele><time>2026-04-24T09:07:19Z</time></trkpt><trkpt lat="31.548711658200595" lon="-7.60738852953801"><ele>762.3333333333334</ele><time>2026-04-24T09:07:20Z</time></trkpt><trkpt lat="31.54877096234366" lon="-7.607235753697117"><ele>764.6666666666666</ele><time>2026-04-24T09:07:21Z</time></trkpt><trkpt lat="31.54881451081835" lon="-7.607082889020847"><ele>767.0</ele><time>2026-04-24T09:07:22Z</time></trkpt><trkpt lat="31.54885995470686" lon="-7.606770080438407"><ele>767.0</ele><time>2026-04-24T09:07:24Z</time></trkpt><trkpt lat="31.548862081080483" lon="-7.606608432339829"><ele>767.0</ele><time>2026-04-24T09:07:25Z</time></trkpt><trkpt lat="31.548854739507654" lon="-7.606442501074215"><ele>767.0</ele><time>2026-04-24T09:07:26Z</time></trkpt><trkpt lat="31.54883909563172" lon="-7.606271968143563"><ele>767.0</ele><time>2026-04-24T09:07:27Z</time></trkpt><trkpt lat="31.548798621942606" lon="-7.6060890022826815"><ele>767.0</ele><time>2026-04-24T09:07:28Z</time></trkpt><trkpt lat="31.54877165466632" lon="-7.605884357899085"><ele>767.0</ele><time>2026-04-24T09:07:29Z</time></trkpt><trkpt lat="31.54874462272112" lon="-7.605661356795818"><ele>767.0</ele><time>2026-04-24T09:07:30Z</time></trkpt><trkpt lat="31.548716145438338" lon="-7.6054289819160585"><ele>765.3333333333333</ele><time>2026-04-24T09:07:31Z</time></trkpt><trkpt lat="31.548684327607592" lon="-7.605188358053772"><ele>763.6666666666666</ele><time>2026-04-24T09:07:31.999Z</time></trkpt><trkpt lat="31.54865189746854" lon="-7.60493542130201"><ele>762.0</ele><time>2026-04-24T09:07:32.999Z</time></trkpt><trkpt lat="31.548627212333674" lon="-7.604674558647611"><ele>762.5</ele><time>2026-04-24T09:07:33.999Z</time></trkpt><trkpt lat="31.54860024335074" lon="-7.604406455517617"><ele>763.0</ele><time>2026-04-24T09:07:34.999Z</time></trkpt><trkpt lat="31.5485739205083" lon="-7.604144811984187"><ele>763.0</ele><time>2026-04-24T09:07:35.999Z</time></trkpt><trkpt lat="31.548545492067777" lon="-7.603880898747556"><ele>763.0</ele><time>2026-04-24T09:07:36.999Z</time></trkpt><trkpt lat="31.548532718068728" lon="-7.603618517363799"><ele>762.6666666666667</ele><time>2026-04-24T09:07:37.999Z</time></trkpt><trkpt lat="31.54848812700989" lon="-7.603364850724819"><ele>762.3333333333334</ele><time>2026-04-24T09:07:38.999Z</time></trkpt><trkpt lat="31.548460914504247" lon="-7.603112514095669"><ele>762.0</ele><time>2026-04-24T09:07:39.999Z</time></trkpt><trkpt lat="31.548434086154472" lon="-7.602870021326248"><ele>762.6666666666666</ele><time>2026-04-24T09:07:40.999Z</time></trkpt><trkpt lat="31.54841020950958" lon="-7.60263001397016"><ele>763.3333333333333</ele><time>2026-04-24T09:07:41.999Z</time></trkpt><trkpt lat="31.548393531172618" lon="-7.602389654386513"><ele>764.0</ele><time>2026-04-24T09:07:42.999Z</time></trkpt><trkpt lat="31.548390007607193" lon="-7.602144361387601"><ele>764.0</ele><time>2026-04-24T09:07:43.999Z</time></trkpt><trkpt lat="31.548416002118255" lon="-7.601898242176516"><ele>764.0</ele><time>2026-04-24T09:07:44.999Z</time></trkpt><trkpt lat="31.548435686149464" lon="-7.601652036534715"><ele>764.0</ele><time>2026-04-24T09:07:45.999Z</time></trkpt><trkpt lat="31.548464954917527" lon="-7.6014040970748695"><ele>763.0</ele><time>2026-04-24T09:07:46.999Z</time></trkpt><trkpt lat="31.54850206407869" lon="-7.60115649913537"><ele>762.0</ele><time>2026-04-24T09:07:47.999Z</time></trkpt><trkpt lat="31.54854130347711" lon="-7.600911818142731"><ele>761.0</ele><time>2026-04-24T09:07:48.999Z</time></trkpt><trkpt lat="31.54857863045812" lon="-7.600670336378478"><ele>761.0</ele><time>2026-04-24T09:07:49.999Z</time></trkpt><trkpt lat="31.548615750767652" lon="-7.600424723500084"><ele>761.0</ele><time>2026-04-24T09:07:50.999Z</time></trkpt><trkpt lat="31.54865120217285" lon="-7.600173549420868"><ele>761.0</ele><time>2026-04-24T09:07:51.999Z</time></trkpt><trkpt lat="31.548666196803108" lon="-7.599917070091902"><ele>761.6666666666666</ele><time>2026-04-24T09:07:52.999Z</time></trkpt><trkpt lat="31.548689133961638" lon="-7.599663698235116"><ele>762.3333333333334</ele><time>2026-04-24T09:07:53.999Z</time></trkpt><trkpt lat="31.548706156156978" lon="-7.599414325636572"><ele>763.0</ele><time>2026-04-24T09:07:54.999Z</time></trkpt><trkpt lat="31.548719177513604" lon="-7.599171410215245"><ele>763.6666666666667</ele><time>2026-04-24T09:07:55.999Z</time></trkpt><trkpt lat="31.54872601715191" lon="-7.598928839444704"><ele>764.3333333333334</ele><time>2026-04-24T09:07:56.999Z</time></trkpt><trkpt lat="31.548727217153083" lon="-7.598688501197687"><ele>765.0</ele><time>2026-04-24T09:07:57.999Z</time></trkpt><trkpt lat="31.54872721715443" lon="-7.598452108110909"><ele>766.0</ele><time>2026-04-24T09:07:58.999Z</time></trkpt><trkpt lat="31.548725393163217" lon="-7.598221451304622"><ele>767.0</ele><time>2026-04-24T09:07:59.999Z</time></trkpt><trkpt lat="31.548723659385207" lon="-7.597997381189401"><ele>768.0</ele><time>2026-04-24T09:08:00.999Z</time></trkpt><trkpt lat="31.54872261715778" lon="-7.597785195396546"><ele>768.0</ele><time>2026-04-24T09:08:01.999Z</time></trkpt><trkpt lat="31.548724455888372" lon="-7.597579518747414"><ele>768.0</ele><time>2026-04-24T09:08:02.999Z</time></trkpt><trkpt lat="31.548726553683302" lon="-7.5973730311314815"><ele>768.0</ele><time>2026-04-24T09:08:03.999Z</time></trkpt><trkpt lat="31.548728238148477" lon="-7.597170411089902"><ele>768.3333333333333</ele><time>2026-04-24T09:08:04.999Z</time></trkpt><trkpt lat="31.548727074960176" lon="-7.596971821489361"><ele>768.6666666666666</ele><time>2026-04-24T09:08:05.999Z</time></trkpt><trkpt lat="31.54872891096999" lon="-7.596776088119097"><ele>769.0</ele><time>2026-04-24T09:08:06.999Z</time></trkpt><trkpt lat="31.548742444089648" lon="-7.596567641814976"><ele>769.0</ele><time>2026-04-24T09:08:07.999Z</time></trkpt><trkpt lat="31.548777355610273" lon="-7.59635844586549"><ele>769.0</ele><time>2026-04-24T09:08:08.999Z</time></trkpt><trkpt lat="31.548851796017917" lon="-7.596147069700376"><ele>769.0</ele><time>2026-04-24T09:08:09.999Z</time></trkpt><trkpt lat="31.548964667353115" lon="-7.5959518967950705"><ele>770.3333333333333</ele><time>2026-04-24T09:08:10.999Z</time></trkpt><trkpt lat="31.54908751459045" lon="-7.595776520050476"><ele>771.6666666666667</ele><time>2026-04-24T09:08:11.999Z</time></trkpt><trkpt lat="31.549249743788078" lon="-7.5956255552953795"><ele>773.0</ele><time>2026-04-24T09:08:12.999Z</time></trkpt><trkpt lat="31.54941080707369" lon="-7.595494584814643"><ele>774.3333333333334</ele><time>2026-04-24T09:08:13.999Z</time></trkpt><trkpt lat="31.5495746006058" lon="-7.595368827352286"><ele>775.6666666666667</ele><time>2026-04-24T09:08:14.999Z</time></trkpt><trkpt lat="31.549741423677144" lon="-7.595240146655942"><ele>777.0</ele><time>2026-04-24T09:08:15.999Z</time></trkpt><trkpt lat="31.549917302483518" lon="-7.595129501810887"><ele>777.0</ele><time>2026-04-24T09:08:16.999Z</time></trkpt><trkpt lat="31.55008171133454" lon="-7.5949992966723725"><ele>777.0</ele><time>2026-04-24T09:08:17.999Z</time></trkpt><trkpt lat="31.550241672856504" lon="-7.5948569606324465"><ele>777.0</ele><time>2026-04-24T09:08:18.999Z</time></trkpt><trkpt lat="31.550389862574587" lon="-7.5946977878565765"><ele>778.0</ele><time>2026-04-24T09:08:19.999Z</time></trkpt><trkpt lat="31.550524007321766" lon="-7.594520572845587"><ele>779.0</ele><time>2026-04-24T09:08:20.999Z</time></trkpt><trkpt lat="31.550636306475806" lon="-7.594326970026649"><ele>780.0</ele><time>2026-04-24T09:08:21.999Z</time></trkpt><trkpt lat="31.550726980437968" lon="-7.594121085423825"><ele>780.0</ele><time>2026-04-24T09:08:22.999Z</time></trkpt><trkpt lat="31.550796765520655" lon="-7.593906136584977"><ele>780.0</ele><time>2026-04-24T09:08:23.999Z</time></trkpt><trkpt lat="31.55084983492607" lon="-7.593682254335741"><ele>780.0</ele><time>2026-04-24T09:08:24.999Z</time></trkpt><trkpt lat="31.550890987634673" lon="-7.593450416789416"><ele>781.0</ele><time>2026-04-24T09:08:25.999Z</time></trkpt><trkpt lat="31.550912544378626" lon="-7.5932081047329145"><ele>782.0</ele><time>2026-04-24T09:08:26.999Z</time></trkpt><trkpt lat="31.55095126444874" lon="-7.592964892183356"><ele>783.0</ele><time>2026-04-24T09:08:27.999Z</time></trkpt><trkpt lat="31.5509895994091" lon="-7.5927209359216485"><ele>783.6666666666667</ele><time>2026-04-24T09:08:28.999Z</time></trkpt><trkpt lat="31.551029389576044" lon="-7.592473960092748"><ele>784.3333333333334</ele><time>2026-04-24T09:08:29.999Z</time></trkpt><trkpt lat="31.551068227848784" lon="-7.592226554093384"><ele>785.0</ele><time>2026-04-24T09:08:30.999Z</time></trkpt><trkpt lat="31.55110823212976" lon="-7.591979401803494"><ele>784.3333333333334</ele><time>2026-04-24T09:08:31.999Z</time></trkpt><trkpt lat="31.551150965816436" lon="-7.591731042110855"><ele>783.6666666666667</ele><time>2026-04-24T09:08:32.999Z</time></trkpt><trkpt lat="31.55121786004044" lon="-7.591488441320431"><ele>783.0</ele><time>2026-04-24T09:08:33.999Z</time></trkpt><trkpt lat="31.551273224702292" lon="-7.591241762978739"><ele>784.0</ele><time>2026-04-24T09:08:34.999Z</time></trkpt><trkpt lat="31.551335425784032" lon="-7.590997402903657"><ele>785.0</ele><time>2026-04-24T09:08:35.999Z</time></trkpt><trkpt lat="31.55139753645385" lon="-7.590754396219278"><ele>786.0</ele><time>2026-04-24T09:08:36.999Z</time></trkpt><trkpt lat="31.551461518935362" lon="-7.590513727252572"><ele>787.0</ele><time>2026-04-24T09:08:37.999Z</time></trkpt><trkpt lat="31.55152309273506" lon="-7.59027608622924"><ele>788.0</ele><time>2026-04-24T09:08:38.999Z</time></trkpt><trkpt lat="31.551565218580794" lon="-7.590035821900629"><ele>789.0</ele><time>2026-04-24T09:08:39.999Z</time></trkpt><trkpt lat="31.551621797075434" lon="-7.589804046348981"><ele>789.0</ele><time>2026-04-24T09:08:40.999Z</time></trkpt><trkpt lat="31.551680696271376" lon="-7.589571651197433"><ele>789.0</ele><time>2026-04-24T09:08:41.999Z</time></trkpt><trkpt lat="31.551741154761213" lon="-7.589338246912645"><ele>789.0</ele><time>2026-04-24T09:08:42.999Z</time></trkpt><trkpt lat="31.55180011331304" lon="-7.589111475102283"><ele>790.3333333333333</ele><time>2026-04-24T09:08:43.999Z</time></trkpt><trkpt lat="31.551855313013853" lon="-7.588899160694381"><ele>791.6666666666666</ele><time>2026-04-24T09:08:44.999Z</time></trkpt><trkpt lat="31.55190546382831" lon="-7.588705901943142"><ele>793.0</ele><time>2026-04-24T09:08:45.999Z</time></trkpt><trkpt lat="31.551950400546012" lon="-7.588531464838487"><ele>793.5</ele><time>2026-04-24T09:08:46.998Z</time></trkpt><trkpt lat="31.551991408015514" lon="-7.588372617953979"><ele>794.0</ele><time>2026-04-24T09:08:47.998Z</time></trkpt><trkpt lat="31.552044421750487" lon="-7.5882314505562976"><ele>794.5</ele><time>2026-04-24T09:08:48.998Z</time></trkpt><trkpt lat="31.552073024389607" lon="-7.5880886356245485"><ele>795.0</ele><time>2026-04-24T09:08:49.998Z</time></trkpt><trkpt lat="31.55210019864076" lon="-7.587952535555986"><ele>794.75</ele><time>2026-04-24T09:08:50.998Z</time></trkpt><trkpt lat="31.552123044542345" lon="-7.5878138604770795"><ele>794.5</ele><time>2026-04-24T09:08:51.998Z</time></trkpt><trkpt lat="31.552138339571307" lon="-7.587675415691208"><ele>794.25</ele><time>2026-04-24T09:08:52.998Z</time></trkpt><trkpt lat="31.552145837693907" lon="-7.587536296977326"><ele>794.0</ele><time>2026-04-24T09:08:53.998Z</time></trkpt><trkpt lat="31.552143131259356" lon="-7.587397604010075"><ele>794.0</ele><time>2026-04-24T09:08:54.998Z</time></trkpt><trkpt lat="31.552129088301154" lon="-7.587259517359832"><ele>794.0</ele><time>2026-04-24T09:08:55.998Z</time></trkpt><trkpt lat="31.55210720305522" lon="-7.587124511306643"><ele>794.0</ele><time>2026-04-24T09:08:56.998Z</time></trkpt><trkpt lat="31.55207645990963" lon="-7.586993893610888"><ele>794.0</ele><time>2026-04-24T09:08:57.998Z</time></trkpt><trkpt lat="31.552039075530608" lon="-7.586869654070759"><ele>795.25</ele><time>2026-04-24T09:08:58.998Z</time></trkpt><trkpt lat="31.551995685062106" lon="-7.586747523284869"><ele>796.5</ele><time>2026-04-24T09:08:59.998Z</time></trkpt><trkpt lat="31.5519279456532" lon="-7.586639747364787"><ele>797.75</ele><time>2026-04-24T09:09:00.998Z</time></trkpt><trkpt lat="31.551871003999725" lon="-7.586519168293556"><ele>799.0</ele><time>2026-04-24T09:09:01.998Z</time></trkpt><trkpt lat="31.5518086976923" lon="-7.58639616847657"><ele>799.0</ele><time>2026-04-24T09:09:02.998Z</time></trkpt><trkpt lat="31.55174284266104" lon="-7.586268547245799"><ele>799.0</ele><time>2026-04-24T09:09:03.998Z</time></trkpt><trkpt lat="31.551674578831143" lon="-7.58613696882212"><ele>799.0</ele><time>2026-04-24T09:09:04.998Z</time></trkpt><trkpt lat="31.551604412060602" lon="-7.585998936522473"><ele>799.0</ele><time>2026-04-24T09:09:06Z</time></trkpt><trkpt lat="31.551538019661134" lon="-7.5858582459700985"><ele>799.5</ele><time>2026-04-24T09:09:07Z</time></trkpt><trkpt lat="31.551472313327828" lon="-7.585715081339205"><ele>800.0</ele><time>2026-04-24T09:09:08Z</time></trkpt><trkpt lat="31.55141218905441" lon="-7.585563608609165"><ele>800.5</ele><time>2026-04-24T09:09:09Z</time></trkpt><trkpt lat="31.551354892201775" lon="-7.585413517536828"><ele>801.0</ele><time>2026-04-24T09:09:10Z</time></trkpt><trkpt lat="31.55130661616364" lon="-7.585259023624144"><ele>800.25</ele><time>2026-04-24T09:09:11Z</time></trkpt><trkpt lat="31.551260961189215" lon="-7.585108633837056"><ele>799.5</ele><time>2026-04-24T09:09:12Z</time></trkpt><trkpt lat="31.55123575294479" lon="-7.584947855481279"><ele>798.75</ele><time>2026-04-24T09:09:13Z</time></trkpt><trkpt lat="31.551196777815466" lon="-7.584791316188657"><ele>798.0</ele><time>2026-04-24T09:09:14Z</time></trkpt><trkpt lat="31.55116000774435" lon="-7.584632674920054"><ele>798.5</ele><time>2026-04-24T09:09:15Z</time></trkpt><trkpt lat="31.551107498521933" lon="-7.584474927191204"><ele>799.0</ele><time>2026-04-24T09:09:16Z</time></trkpt><trkpt lat="31.551072014776373" lon="-7.584310045985057"><ele>799.5</ele><time>2026-04-24T09:09:17Z</time></trkpt><trkpt lat="31.551036211386037" lon="-7.584143844685997"><ele>800.0</ele><time>2026-04-24T09:09:18Z</time></trkpt><trkpt lat="31.55100011574331" lon="-7.58397838038574"><ele>800.0</ele><time>2026-04-24T09:09:19Z</time></trkpt><trkpt lat="31.550965371503935" lon="-7.583812944818505"><ele>800.0</ele><time>2026-04-24T09:09:20Z</time></trkpt><trkpt lat="31.550930667793466" lon="-7.5836499817293115"><ele>800.0</ele><time>2026-04-24T09:09:21Z</time></trkpt><trkpt lat="31.550898904882203" lon="-7.583499194193409"><ele>800.0</ele><time>2026-04-24T09:09:22Z</time></trkpt><trkpt lat="31.550865961531127" lon="-7.583342072637368"><ele>801.0</ele><time>2026-04-24T09:09:23Z</time></trkpt><trkpt lat="31.550830945058095" lon="-7.583177617957505"><ele>802.0</ele><time>2026-04-24T09:09:24Z</time></trkpt><trkpt lat="31.55079343688922" lon="-7.583004300659747"><ele>803.0</ele><time>2026-04-24T09:09:25Z</time></trkpt><trkpt lat="31.550776572762576" lon="-7.582815934148061"><ele>803.3333333333334</ele><time>2026-04-24T09:09:26Z</time></trkpt><trkpt lat="31.550733554015533" lon="-7.582627832776668"><ele>803.6666666666667</ele><time>2026-04-24T09:09:27Z</time></trkpt><trkpt lat="31.55068994792161" lon="-7.5824334326573934"><ele>804.0</ele><time>2026-04-24T09:09:28Z</time></trkpt><trkpt lat="31.550648336543823" lon="-7.582238115103272"><ele>804.0</ele><time>2026-04-24T09:09:29Z</time></trkpt><trkpt lat="31.550606095506296" lon="-7.582041992186864"><ele>804.0</ele><time>2026-04-24T09:09:30Z</time></trkpt><trkpt lat="31.550562949357055" lon="-7.581843409684974"><ele>804.0</ele><time>2026-04-24T09:09:31Z</time></trkpt><trkpt lat="31.55051928109265" lon="-7.5816423343673405"><ele>804.6666666666667</ele><time>2026-04-24T09:09:32Z</time></trkpt><trkpt lat="31.55047517185489" lon="-7.581434807911787"><ele>805.3333333333334</ele><time>2026-04-24T09:09:33Z</time></trkpt><trkpt lat="31.550428999416205" lon="-7.581222537284408"><ele>806.0</ele><time>2026-04-24T09:09:34Z</time></trkpt><trkpt lat="31.55038296032909" lon="-7.581009838722122"><ele>803.0</ele><time>2026-04-24T09:09:35Z</time></trkpt><trkpt lat="31.550337123670353" lon="-7.580794173540469"><ele>800.0</ele><time>2026-04-24T09:09:36Z</time></trkpt><trkpt lat="31.55029136477021" lon="-7.580576741830393"><ele>797.0</ele><time>2026-04-24T09:09:37Z</time></trkpt><trkpt lat="31.550245594621828" lon="-7.580355198855361"><ele>798.0</ele><time>2026-04-24T09:09:38Z</time></trkpt><trkpt lat="31.550199782624805" lon="-7.580131694900052"><ele>799.0</ele><time>2026-04-24T09:09:38.999Z</time></trkpt><trkpt lat="31.550153824768284" lon="-7.579905193141208"><ele>800.0</ele><time>2026-04-24T09:09:39.999Z</time></trkpt><trkpt lat="31.550088768103617" lon="-7.579680820852095"><ele>801.0</ele><time>2026-04-24T09:09:40.999Z</time></trkpt><trkpt lat="31.550037688058804" lon="-7.579451690608756"><ele>802.0</ele><time>2026-04-24T09:09:41.999Z</time></trkpt><trkpt lat="31.54998640331011" lon="-7.57922550841932"><ele>803.0</ele><time>2026-04-24T09:09:42.999Z</time></trkpt><trkpt lat="31.549936570530882" lon="-7.578998731285918"><ele>803.0</ele><time>2026-04-24T09:09:43.999Z</time></trkpt><trkpt lat="31.549886166258737" lon="-7.5787718917528055"><ele>803.0</ele><time>2026-04-24T09:09:44.999Z</time></trkpt><trkpt lat="31.549837173978933" lon="-7.578549308270367"><ele>803.0</ele><time>2026-04-24T09:09:45.999Z</time></trkpt><trkpt lat="31.549789138631198" lon="-7.5783307914307585"><ele>804.3333333333334</ele><time>2026-04-24T09:09:46.999Z</time></trkpt><trkpt lat="31.549741706478205" lon="-7.578113453986048"><ele>805.6666666666667</ele><time>2026-04-24T09:09:47.999Z</time></trkpt><trkpt lat="31.54969412743701" lon="-7.577898811504513"><ele>807.0</ele><time>2026-04-24T09:09:48.999Z</time></trkpt><trkpt lat="31.549654255357236" lon="-7.577683868231882"><ele>807.6666666666667</ele><time>2026-04-24T09:09:49.999Z</time></trkpt><trkpt lat="31.54958019031308" lon="-7.577480811395741"><ele>808.3333333333334</ele><time>2026-04-24T09:09:50.999Z</time></trkpt><trkpt lat="31.549498873138106" lon="-7.577286956733062"><ele>809.0</ele><time>2026-04-24T09:09:51.999Z</time></trkpt><trkpt lat="31.549392060754844" lon="-7.5771134560596405"><ele>807.6666666666667</ele><time>2026-04-24T09:09:52.999Z</time></trkpt><trkpt lat="31.54928242180533" lon="-7.57694925799006"><ele>806.3333333333333</ele><time>2026-04-24T09:09:53.999Z</time></trkpt><trkpt lat="31.549169924978884" lon="-7.576790673782253"><ele>805.0</ele><time>2026-04-24T09:09:54.999Z</time></trkpt><trkpt lat="31.54905550396894" lon="-7.576633930710788"><ele>805.0</ele><time>2026-04-24T09:09:55.999Z</time></trkpt><trkpt lat="31.54894160298939" lon="-7.5764778787387055"><ele>805.0</ele><time>2026-04-24T09:09:56.999Z</time></trkpt><trkpt lat="31.5488254421957" lon="-7.576318682670141"><ele>805.0</ele><time>2026-04-24T09:09:57.999Z</time></trkpt><trkpt lat="31.548708260317994" lon="-7.576157505296217"><ele>804.6666666666666</ele><time>2026-04-24T09:09:58.999Z</time></trkpt><trkpt lat="31.548588976370933" lon="-7.57599373121522"><ele>804.3333333333333</ele><time>2026-04-24T09:09:59.999Z</time></trkpt><trkpt lat="31.548467322033627" lon="-7.575826148119809"><ele>804.0</ele><time>2026-04-24T09:10:00.999Z</time></trkpt><trkpt lat="31.548343295870374" lon="-7.575654406336622"><ele>804.0</ele><time>2026-04-24T09:10:01.999Z</time></trkpt><trkpt lat="31.548219231937708" lon="-7.575482612228723"><ele>804.0</ele><time>2026-04-24T09:10:02.999Z</time></trkpt><trkpt lat="31.54809525555735" lon="-7.575311272334541"><ele>804.0</ele><time>2026-04-24T09:10:03.999Z</time></trkpt><trkpt lat="31.547968414133823" lon="-7.575140490388648"><ele>803.3333333333333</ele><time>2026-04-24T09:10:04.999Z</time></trkpt><trkpt lat="31.5478433617536" lon="-7.57497154453588"><ele>802.6666666666666</ele><time>2026-04-24T09:10:05.999Z</time></trkpt><trkpt lat="31.547719393155788" lon="-7.574803814834129"><ele>802.0</ele><time>2026-04-24T09:10:06.999Z</time></trkpt><trkpt lat="31.54759580164634" lon="-7.574636778070516"><ele>804.0</ele><time>2026-04-24T09:10:07.999Z</time></trkpt><trkpt lat="31.54747221905096" lon="-7.574470700608251"><ele>806.0</ele><time>2026-04-24T09:10:08.999Z</time></trkpt><trkpt lat="31.5473526330954" lon="-7.57431054567434"><ele>808.0</ele><time>2026-04-24T09:10:09.999Z</time></trkpt><trkpt lat="31.54723915998748" lon="-7.574158107385226"><ele>808.0</ele><time>2026-04-24T09:10:10.999Z</time></trkpt><trkpt lat="31.547125622432503" lon="-7.574005642199968"><ele>808.0</ele><time>2026-04-24T09:10:11.999Z</time></trkpt><trkpt lat="31.547017078640884" lon="-7.573843352420369"><ele>808.0</ele><time>2026-04-24T09:10:12.999Z</time></trkpt><trkpt lat="31.546892341408586" lon="-7.573697707573109"><ele>808.3333333333333</ele><time>2026-04-24T09:10:13.999Z</time></trkpt><trkpt lat="31.546770821112332" lon="-7.57355506922296"><ele>808.6666666666667</ele><time>2026-04-24T09:10:14.999Z</time></trkpt><trkpt lat="31.546652662834518" lon="-7.573412558455126"><ele>809.0</ele><time>2026-04-24T09:10:15.999Z</time></trkpt><trkpt lat="31.546538386016916" lon="-7.573272048775007"><ele>809.0</ele><time>2026-04-24T09:10:16.999Z</time></trkpt><trkpt lat="31.546423111441268" lon="-7.573130485924175"><ele>809.0</ele><time>2026-04-24T09:10:17.999Z</time></trkpt><trkpt lat="31.546306373816712" lon="-7.572987916540539"><ele>809.0</ele><time>2026-04-24T09:10:18.999Z</time></trkpt><trkpt lat="31.546187644030812" lon="-7.572841061828453"><ele>809.0</ele><time>2026-04-24T09:10:19.999Z</time></trkpt><trkpt lat="31.54607297419173" lon="-7.572693826012146"><ele>809.0</ele><time>2026-04-24T09:10:20.999Z</time></trkpt><trkpt lat="31.54596683748567" lon="-7.572549373106408"><ele>809.0</ele><time>2026-04-24T09:10:21.999Z</time></trkpt><trkpt lat="31.54587288970988" lon="-7.572413270339611"><ele>809.0</ele><time>2026-04-24T09:10:22.999Z</time></trkpt><trkpt lat="31.545792712311123" lon="-7.572285062530376"><ele>809.0</ele><time>2026-04-24T09:10:23.999Z</time></trkpt><trkpt lat="31.5457241559567" lon="-7.572159928086436"><ele>809.0</ele><time>2026-04-24T09:10:24.999Z</time></trkpt><trkpt lat="31.54566608678449" lon="-7.572033878421345"><ele>809.0</ele><time>2026-04-24T09:10:25.999Z</time></trkpt><trkpt lat="31.545616718366748" lon="-7.571900763573073"><ele>809.5</ele><time>2026-04-24T09:10:26.999Z</time></trkpt><trkpt lat="31.545574298814564" lon="-7.571760559879905"><ele>810.0</ele><time>2026-04-24T09:10:27.999Z</time></trkpt><trkpt lat="31.545540492439642" lon="-7.571610784506007"><ele>810.5</ele><time>2026-04-24T09:10:28.999Z</time></trkpt><trkpt lat="31.545514192499848" lon="-7.571449696210507"><ele>811.0</ele><time>2026-04-24T09:10:29.999Z</time></trkpt><trkpt lat="31.545493540127037" lon="-7.571280950733314"><ele>811.0</ele><time>2026-04-24T09:10:30.999Z</time></trkpt><trkpt lat="31.54547793676479" lon="-7.571105324729499"><ele>811.0</ele><time>2026-04-24T09:10:31.999Z</time></trkpt><trkpt lat="31.545466312670484" lon="-7.570923047199655"><ele>811.0</ele><time>2026-04-24T09:10:32.999Z</time></trkpt><trkpt lat="31.545455733894308" lon="-7.570735186562411"><ele>811.0</ele><time>2026-04-24T09:10:33.999Z</time></trkpt><trkpt lat="31.545446284904667" lon="-7.570543192456291"><ele>811.0</ele><time>2026-04-24T09:10:34.999Z</time></trkpt><trkpt lat="31.545437978964543" lon="-7.570347539827863"><ele>811.0</ele><time>2026-04-24T09:10:35.999Z</time></trkpt><trkpt lat="31.54542895602372" lon="-7.570150181645759"><ele>811.6666666666666</ele><time>2026-04-24T09:10:36.999Z</time></trkpt><trkpt lat="31.54542340441308" lon="-7.569955633684728"><ele>812.3333333333333</ele><time>2026-04-24T09:10:37.999Z</time></trkpt><trkpt lat="31.54541653321257" lon="-7.569765139317849"><ele>813.0</ele><time>2026-04-24T09:10:38.999Z</time></trkpt><trkpt lat="31.545409876081017" lon="-7.569576881348624"><ele>814.6666666666667</ele><time>2026-04-24T09:10:39.999Z</time></trkpt><trkpt lat="31.545403731195826" lon="-7.569390963985168"><ele>816.3333333333334</ele><time>2026-04-24T09:10:40.999Z</time></trkpt><trkpt lat="31.545401853175427" lon="-7.569205205863876"><ele>818.0</ele><time>2026-04-24T09:10:41.999Z</time></trkpt><trkpt lat="31.545405270100925" lon="-7.569020375582002"><ele>818.0</ele><time>2026-04-24T09:10:42.999Z</time></trkpt><trkpt lat="31.54541432441314" lon="-7.568837977439053"><ele>818.0</ele><time>2026-04-24T09:10:43.999Z</time></trkpt><trkpt lat="31.545428175260927" lon="-7.568654262147785"><ele>818.0</ele><time>2026-04-24T09:10:44.999Z</time></trkpt><trkpt lat="31.545448430370637" lon="-7.568469586709654"><ele>819.0</ele><time>2026-04-24T09:10:45.999Z</time></trkpt><trkpt lat="31.545474565623635" lon="-7.568285123791964"><ele>820.0</ele><time>2026-04-24T09:10:46.999Z</time></trkpt><trkpt lat="31.545503096763913" lon="-7.568102513195118"><ele>821.0</ele><time>2026-04-24T09:10:47.999Z</time></trkpt><trkpt lat="31.54553323244968" lon="-7.567919884812041"><ele>820.6666666666667</ele><time>2026-04-24T09:10:48.999Z</time></trkpt><trkpt lat="31.545564921718302" lon="-7.56773624452566"><ele>820.3333333333333</ele><time>2026-04-24T09:10:49.999Z</time></trkpt><trkpt lat="31.545579251039594" lon="-7.567549408427231"><ele>820.0</ele><time>2026-04-24T09:10:50.999Z</time></trkpt><trkpt lat="31.545608733791138" lon="-7.567371869652672"><ele>820.0</ele><time>2026-04-24T09:10:51.999Z</time></trkpt><trkpt lat="31.54563727861782" lon="-7.56720300206437"><ele>820.0</ele><time>2026-04-24T09:10:52.999Z</time></trkpt><trkpt lat="31.545664241587374" lon="-7.567038596765259"><ele>820.0</ele><time>2026-04-24T09:10:53.999Z</time></trkpt><trkpt lat="31.54569669534132" lon="-7.5668730797138855"><ele>820.0</ele><time>2026-04-24T09:10:54.998Z</time></trkpt><trkpt lat="31.545741653995414" lon="-7.56671887413722"><ele>818.6666666666666</ele><time>2026-04-24T09:10:55.998Z</time></trkpt><trkpt lat="31.545797871211658" lon="-7.56656401012319"><ele>817.3333333333333</ele><time>2026-04-24T09:10:56.998Z</time></trkpt><trkpt lat="31.545871736903436" lon="-7.56640762551379"><ele>816.0</ele><time>2026-04-24T09:10:57.998Z</time></trkpt><trkpt lat="31.54597403000399" lon="-7.566264512168809"><ele>815.75</ele><time>2026-04-24T09:10:58.998Z</time></trkpt><trkpt lat="31.54607907565636" lon="-7.566145249850827"><ele>815.5</ele><time>2026-04-24T09:10:59.998Z</time></trkpt><trkpt lat="31.546183727639427" lon="-7.566033523215837"><ele>815.25</ele><time>2026-04-24T09:11:00.998Z</time></trkpt><trkpt lat="31.546303425843426" lon="-7.565924621413533"><ele>815.0</ele><time>2026-04-24T09:11:01.998Z</time></trkpt><trkpt lat="31.5464213353051" lon="-7.565815260543837"><ele>817.0</ele><time>2026-04-24T09:11:02.998Z</time></trkpt><trkpt lat="31.546538756327212" lon="-7.565707147442484"><ele>819.0</ele><time>2026-04-24T09:11:03.998Z</time></trkpt><trkpt lat="31.546655178300664" lon="-7.565600408496483"><ele>821.0</ele><time>2026-04-24T09:11:04.998Z</time></trkpt><trkpt lat="31.546771138107076" lon="-7.56549372781708"><ele>823.0</ele><time>2026-04-24T09:11:05.998Z</time></trkpt><trkpt lat="31.546885888461247" lon="-7.5653872594466485"><ele>822.75</ele><time>2026-04-24T09:11:06.998Z</time></trkpt><trkpt lat="31.54699838175409" lon="-7.565284093732516"><ele>822.5</ele><time>2026-04-24T09:11:07.998Z</time></trkpt><trkpt lat="31.547106474341902" lon="-7.565184727833382"><ele>822.25</ele><time>2026-04-24T09:11:08.998Z</time></trkpt><trkpt lat="31.547208996647853" lon="-7.565088459129264"><ele>822.0</ele><time>2026-04-24T09:11:09.998Z</time></trkpt><trkpt lat="31.54731927001488" lon="-7.565004078105435"><ele>824.25</ele><time>2026-04-24T09:11:10.998Z</time></trkpt><trkpt lat="31.547404455954002" lon="-7.564889007724995"><ele>826.5</ele><time>2026-04-24T09:11:12Z</time></trkpt><trkpt lat="31.547479033209854" lon="-7.564765209545495"><ele>828.75</ele><time>2026-04-24T09:11:13Z</time></trkpt><trkpt lat="31.547547030772304" lon="-7.564627560016854"><ele>831.0</ele><time>2026-04-24T09:11:14Z</time></trkpt><trkpt lat="31.547604071022196" lon="-7.564484146945664"><ele>831.0</ele><time>2026-04-24T09:11:15Z</time></trkpt><trkpt lat="31.547652534043774" lon="-7.56433599147116"><ele>831.0</ele><time>2026-04-24T09:11:16Z</time></trkpt><trkpt lat="31.54769054399884" lon="-7.564182139074401"><ele>831.0</ele><time>2026-04-24T09:11:17Z</time></trkpt><trkpt lat="31.547717259832382" lon="-7.564029588934339"><ele>831.0</ele><time>2026-04-24T09:11:18Z</time></trkpt><trkpt lat="31.54773184121894" lon="-7.563882096206214"><ele>831.0</ele><time>2026-04-24T09:11:19Z</time></trkpt><trkpt lat="31.54773654987364" lon="-7.563736674242569"><ele>831.0</ele><time>2026-04-24T09:11:20Z</time></trkpt><trkpt lat="31.54773027660094" lon="-7.5635940268661335"><ele>831.0</ele><time>2026-04-24T09:11:21Z</time></trkpt><trkpt lat="31.547713965129994" lon="-7.563448384791945"><ele>831.0</ele><time>2026-04-24T09:11:22Z</time></trkpt><trkpt lat="31.547685939282207" lon="-7.563300173851255"><ele>832.0</ele><time>2026-04-24T09:11:23Z</time></trkpt><trkpt lat="31.54764642868192" lon="-7.563154019762789"><ele>833.0</ele><time>2026-04-24T09:11:24Z</time></trkpt><trkpt lat="31.54759989015761" lon="-7.5630079790181055"><ele>834.0</ele><time>2026-04-24T09:11:25Z</time></trkpt><trkpt lat="31.54754431359953" lon="-7.562860106304232"><ele>835.0</ele><time>2026-04-24T09:11:26Z</time></trkpt><trkpt lat="31.547479449021854" lon="-7.562712948210874"><ele>836.5</ele><time>2026-04-24T09:11:27Z</time></trkpt><trkpt lat="31.54739885536934" lon="-7.5625761422598075"><ele>838.0</ele><time>2026-04-24T09:11:28Z</time></trkpt><trkpt lat="31.547328616301428" lon="-7.562432849973846"><ele>839.5</ele><time>2026-04-24T09:11:29Z</time></trkpt><trkpt lat="31.547258151002627" lon="-7.562289096177871"><ele>841.0</ele><time>2026-04-24T09:11:30Z</time></trkpt><trkpt lat="31.547187694312566" lon="-7.562145359903456"><ele>841.0</ele><time>2026-04-24T09:11:31Z</time></trkpt><trkpt lat="31.54711632528096" lon="-7.5620004722318654"><ele>841.0</ele><time>2026-04-24T09:11:32Z</time></trkpt><trkpt lat="31.5470436047982" lon="-7.561853259428826"><ele>841.0</ele><time>2026-04-24T09:11:33Z</time></trkpt><trkpt lat="31.546972347342184" lon="-7.5617042279327755"><ele>841.0</ele><time>2026-04-24T09:11:34Z</time></trkpt><trkpt lat="31.546901052883452" lon="-7.561553520259894"><ele>841.5</ele><time>2026-04-24T09:11:35Z</time></trkpt><trkpt lat="31.546829423678492" lon="-7.561402105844135"><ele>842.0</ele><time>2026-04-24T09:11:36Z</time></trkpt><trkpt lat="31.546769680944525" lon="-7.5612418760901"><ele>842.5</ele><time>2026-04-24T09:11:37Z</time></trkpt><trkpt lat="31.546695309390053" lon="-7.561090908268139"><ele>843.0</ele><time>2026-04-24T09:11:38Z</time></trkpt><trkpt lat="31.54662351424399" lon="-7.560938188504128"><ele>843.6666666666667</ele><time>2026-04-24T09:11:39Z</time></trkpt><trkpt lat="31.54655046493982" lon="-7.560785268481834"><ele>844.3333333333334</ele><time>2026-04-24T09:11:40Z</time></trkpt><trkpt lat="31.546474899254406" lon="-7.560632584886002"><ele>845.0</ele><time>2026-04-24T09:11:41Z</time></trkpt><trkpt lat="31.546400317162533" lon="-7.560476137816947"><ele>844.6666666666667</ele><time>2026-04-24T09:11:41.999Z</time></trkpt><trkpt lat="31.546325661859544" lon="-7.560317891450154"><ele>844.3333333333333</ele><time>2026-04-24T09:11:42.999Z</time></trkpt><trkpt lat="31.546233600066657" lon="-7.56016456979318"><ele>844.0</ele><time>2026-04-24T09:11:43.999Z</time></trkpt><trkpt lat="31.546168595404712" lon="-7.559990797390609"><ele>845.0</ele><time>2026-04-24T09:11:44.999Z</time></trkpt><trkpt lat="31.546087078196287" lon="-7.55982573893957"><ele>846.0</ele><time>2026-04-24T09:11:45.999Z</time></trkpt><trkpt lat="31.545989934828864" lon="-7.55966443674573"><ele>847.0</ele><time>2026-04-24T09:11:46.999Z</time></trkpt><trkpt lat="31.545905172331768" lon="-7.559491675534242"><ele>847.6666666666666</ele><time>2026-04-24T09:11:47.999Z</time></trkpt><trkpt lat="31.545820733549157" lon="-7.5593195741264845"><ele>848.3333333333333</ele><time>2026-04-24T09:11:48.999Z</time></trkpt><trkpt lat="31.54573818701853" lon="-7.559151329500847"><ele>849.0</ele><time>2026-04-24T09:11:49.999Z</time></trkpt><trkpt lat="31.54565819432332" lon="-7.558988821808548"><ele>849.0</ele><time>2026-04-24T09:11:50.999Z</time></trkpt><trkpt lat="31.545580006034886" lon="-7.5588298443028545"><ele>849.0</ele><time>2026-04-24T09:11:51.999Z</time></trkpt><trkpt lat="31.54550832372995" lon="-7.558675143857345"><ele>849.0</ele><time>2026-04-24T09:11:52.999Z</time></trkpt><trkpt lat="31.54543705074678" lon="-7.5585217299130925"><ele>849.5</ele><time>2026-04-24T09:11:53.999Z</time></trkpt><trkpt lat="31.54537986691965" lon="-7.558360277325676"><ele>850.0</ele><time>2026-04-24T09:11:54.999Z</time></trkpt><trkpt lat="31.545307840344304" lon="-7.558209728684826"><ele>850.5</ele><time>2026-04-24T09:11:55.999Z</time></trkpt><trkpt lat="31.545225597471745" lon="-7.558062499876706"><ele>851.0</ele><time>2026-04-24T09:11:56.999Z</time></trkpt><trkpt lat="31.545148041238907" lon="-7.557896901558973"><ele>852.6666666666667</ele><time>2026-04-24T09:11:57.999Z</time></trkpt><trkpt lat="31.54507119874913" lon="-7.557718182516816"><ele>854.3333333333333</ele><time>2026-04-24T09:11:58.999Z</time></trkpt><trkpt lat="31.544997462795138" lon="-7.557527220295754"><ele>856.0</ele><time>2026-04-24T09:11:59.999Z</time></trkpt><trkpt lat="31.5449307801248" lon="-7.557328856540205"><ele>856.0</ele><time>2026-04-24T09:12:00.999Z</time></trkpt><trkpt lat="31.54485945265244" lon="-7.557133690437029"><ele>856.0</ele><time>2026-04-24T09:12:01.999Z</time></trkpt><trkpt lat="31.544790753390828" lon="-7.556940940230852"><ele>856.0</ele><time>2026-04-24T09:12:02.999Z</time></trkpt><trkpt lat="31.544721093996912" lon="-7.556742276217333"><ele>857.6666666666666</ele><time>2026-04-24T09:12:03.999Z</time></trkpt><trkpt lat="31.544650802570132" lon="-7.556544878969982"><ele>859.3333333333333</ele><time>2026-04-24T09:12:04.999Z</time></trkpt><trkpt lat="31.54458375633474" lon="-7.556347000709595"><ele>861.0</ele><time>2026-04-24T09:12:05.999Z</time></trkpt><trkpt lat="31.544523193717808" lon="-7.5561498111452226"><ele>862.6666666666667</ele><time>2026-04-24T09:12:06.999Z</time></trkpt><trkpt lat="31.544467435487075" lon="-7.555948769589078"><ele>864.3333333333334</ele><time>2026-04-24T09:12:07.999Z</time></trkpt><trkpt lat="31.54442147371545" lon="-7.555741632959432"><ele>866.0</ele><time>2026-04-24T09:12:08.999Z</time></trkpt><trkpt lat="31.544387138254223" lon="-7.555529435298756"><ele>867.3333333333334</ele><time>2026-04-24T09:12:09.999Z</time></trkpt><trkpt lat="31.54435714612171" lon="-7.555316069459782"><ele>868.6666666666667</ele><time>2026-04-24T09:12:10.999Z</time></trkpt><trkpt lat="31.54432946598351" lon="-7.555099614564811"><ele>870.0</ele><time>2026-04-24T09:12:11.999Z</time></trkpt><trkpt lat="31.544299968775935" lon="-7.5548786568534005"><ele>870.0</ele><time>2026-04-24T09:12:12.999Z</time></trkpt><trkpt lat="31.54428704444531" lon="-7.554653084268775"><ele>870.0</ele><time>2026-04-24T09:12:13.999Z</time></trkpt><trkpt lat="31.544227399873943" lon="-7.5544354317584625"><ele>870.0</ele><time>2026-04-24T09:12:14.999Z</time></trkpt><trkpt lat="31.544184417027758" lon="-7.554216885923997"><ele>869.6666666666667</ele><time>2026-04-24T09:12:15.999Z</time></trkpt><trkpt lat="31.544140552646" lon="-7.553999109098774"><ele>869.3333333333334</ele><time>2026-04-24T09:12:16.999Z</time></trkpt><trkpt lat="31.544096244258515" lon="-7.553781385887662"><ele>869.0</ele><time>2026-04-24T09:12:17.999Z</time></trkpt><trkpt lat="31.54405111668473" lon="-7.553564809421607"><ele>869.0</ele><time>2026-04-24T09:12:18.999Z</time></trkpt><trkpt lat="31.54401164321124" lon="-7.553343921911078"><ele>869.0</ele><time>2026-04-24T09:12:19.999Z</time></trkpt><trkpt lat="31.543981320107726" lon="-7.553122713060392"><ele>869.0</ele><time>2026-04-24T09:12:20.999Z</time></trkpt><trkpt lat="31.543969565143183" lon="-7.552902509225286"><ele>869.0</ele><time>2026-04-24T09:12:21.999Z</time></trkpt><trkpt lat="31.54397693148911" lon="-7.552688748106246"><ele>869.0</ele><time>2026-04-24T09:12:22.999Z</time></trkpt><trkpt lat="31.54399436846769" lon="-7.552482893227867"><ele>869.0</ele><time>2026-04-24T09:12:23.999Z</time></trkpt><trkpt lat="31.544007614110683" lon="-7.5522777810648005"><ele>869.0</ele><time>2026-04-24T09:12:24.999Z</time></trkpt><trkpt lat="31.54403230428166" lon="-7.552073873297814"><ele>869.0</ele><time>2026-04-24T09:12:25.999Z</time></trkpt><trkpt lat="31.544036599357344" lon="-7.551866919719461"><ele>869.0</ele><time>2026-04-24T09:12:26.999Z</time></trkpt><trkpt lat="31.544021482652152" lon="-7.5516571452957315"><ele>869.3333333333334</ele><time>2026-04-24T09:12:27.999Z</time></trkpt><trkpt lat="31.54401407588082" lon="-7.551446909229801"><ele>869.6666666666667</ele><time>2026-04-24T09:12:28.999Z</time></trkpt><trkpt lat="31.544007117392436" lon="-7.551234444572452"><ele>870.0</ele><time>2026-04-24T09:12:29.999Z</time></trkpt><trkpt lat="31.544003592554763" lon="-7.551023856723738"><ele>870.6666666666667</ele><time>2026-04-24T09:12:30.999Z</time></trkpt><trkpt lat="31.5440077799324" lon="-7.5508084010064636"><ele>871.3333333333334</ele><time>2026-04-24T09:12:31.999Z</time></trkpt><trkpt lat="31.5440161195585" lon="-7.550594120924993"><ele>872.0</ele><time>2026-04-24T09:12:32.999Z</time></trkpt><trkpt lat="31.54402595096022" lon="-7.550377100762275"><ele>872.3333333333334</ele><time>2026-04-24T09:12:33.999Z</time></trkpt><trkpt lat="31.544037156975484" lon="-7.550159014998586"><ele>872.6666666666667</ele><time>2026-04-24T09:12:34.999Z</time></trkpt><trkpt lat="31.54406391622128" lon="-7.549943762978056"><ele>873.0</ele><time>2026-04-24T09:12:35.999Z</time></trkpt><trkpt lat="31.544064617407034" lon="-7.549729822404048"><ele>876.0</ele><time>2026-04-24T09:12:36.999Z</time></trkpt><trkpt lat="31.544061956425082" lon="-7.5495209837029025"><ele>879.0</ele><time>2026-04-24T09:12:37.999Z</time></trkpt><trkpt lat="31.54405699491584" lon="-7.549317589932998"><ele>882.0</ele><time>2026-04-24T09:12:38.999Z</time></trkpt><trkpt lat="31.54402700315867" lon="-7.549117150824067"><ele>882.0</ele><time>2026-04-24T09:12:39.999Z</time></trkpt><trkpt lat="31.544014871717074" lon="-7.548918337378168"><ele>882.0</ele><time>2026-04-24T09:12:40.999Z</time></trkpt><trkpt lat="31.54400381989341" lon="-7.548723639277599"><ele>882.0</ele><time>2026-04-24T09:12:41.999Z</time></trkpt><trkpt lat="31.543997319423937" lon="-7.548534205423505"><ele>884.0</ele><time>2026-04-24T09:12:42.999Z</time></trkpt><trkpt lat="31.54399171906306" lon="-7.548346567424586"><ele>886.0</ele><time>2026-04-24T09:12:43.999Z</time></trkpt><trkpt lat="31.543985569967916" lon="-7.548165099244674"><ele>888.0</ele><time>2026-04-24T09:12:44.999Z</time></trkpt><trkpt lat="31.54397715618854" lon="-7.547987116948879"><ele>888.0</ele><time>2026-04-24T09:12:45.999Z</time></trkpt><trkpt lat="31.543966513904763" lon="-7.547812127567014"><ele>888.0</ele><time>2026-04-24T09:12:46.999Z</time></trkpt><trkpt lat="31.543964049846895" lon="-7.547639313518346"><ele>888.0</ele><time>2026-04-24T09:12:47.999Z</time></trkpt><trkpt lat="31.543939750056914" lon="-7.547472616901363"><ele>888.0</ele><time>2026-04-24T09:12:48.999Z</time></trkpt><trkpt lat="31.54391308360121" lon="-7.547309543516205"><ele>888.0</ele><time>2026-04-24T09:12:49.999Z</time></trkpt><trkpt lat="31.543882766214715" lon="-7.547142813774866"><ele>888.0</ele><time>2026-04-24T09:12:50.999Z</time></trkpt><trkpt lat="31.54385468663749" lon="-7.546973978540638"><ele>888.0</ele><time>2026-04-24T09:12:51.999Z</time></trkpt><trkpt lat="31.543832000491076" lon="-7.546802578242891"><ele>888.0</ele><time>2026-04-24T09:12:52.999Z</time></trkpt><trkpt lat="31.543816604702613" lon="-7.546629927216449"><ele>888.25</ele><time>2026-04-24T09:12:53.999Z</time></trkpt><trkpt lat="31.543811071320228" lon="-7.546456852114244"><ele>888.5</ele><time>2026-04-24T09:12:54.999Z</time></trkpt><trkpt lat="31.54381725949438" lon="-7.546284866320518"><ele>888.75</ele><time>2026-04-24T09:12:55.999Z</time></trkpt><trkpt lat="31.543829723994044" lon="-7.546112356708548"><ele>889.0</ele><time>2026-04-24T09:12:56.998Z</time></trkpt><trkpt lat="31.543849243152266" lon="-7.545938853350369"><ele>889.0</ele><time>2026-04-24T09:12:57.998Z</time></trkpt><trkpt lat="31.543850398093184" lon="-7.545762304184962"><ele>889.0</ele><time>2026-04-24T09:12:58.998Z</time></trkpt><trkpt lat="31.543871651564533" lon="-7.545587875450271"><ele>889.0</ele><time>2026-04-24T09:12:59.998Z</time></trkpt><trkpt lat="31.54389412528646" lon="-7.545409195365143"><ele>892.0</ele><time>2026-04-24T09:13:00.998Z</time></trkpt><trkpt lat="31.543921111926572" lon="-7.545227853749644"><ele>895.0</ele><time>2026-04-24T09:13:01.998Z</time></trkpt><trkpt lat="31.54393923674747" lon="-7.545049098265417"><ele>898.0</ele><time>2026-04-24T09:13:02.998Z</time></trkpt><trkpt lat="31.543947928977087" lon="-7.5448736280766875"><ele>898.0</ele><time>2026-04-24T09:13:03.998Z</time></trkpt><trkpt lat="31.543950655428848" lon="-7.544694233436279"><ele>898.0</ele><time>2026-04-24T09:13:04.998Z</time></trkpt><trkpt lat="31.54394792374655" lon="-7.5445109693693615"><ele>898.0</ele><time>2026-04-24T09:13:05.998Z</time></trkpt><trkpt lat="31.54393723444417" lon="-7.544328106298281"><ele>899.0</ele><time>2026-04-24T09:13:06.998Z</time></trkpt><trkpt lat="31.5439159225996" lon="-7.5441451733760765"><ele>900.0</ele><time>2026-04-24T09:13:07.998Z</time></trkpt><trkpt lat="31.54389141955808" lon="-7.543963578365491"><ele>901.0</ele><time>2026-04-24T09:13:08.998Z</time></trkpt><trkpt lat="31.543864791445078" lon="-7.543784132302074"><ele>901.3333333333333</ele><time>2026-04-24T09:13:09.998Z</time></trkpt><trkpt lat="31.543835178144096" lon="-7.54360687729918"><ele>901.6666666666667</ele><time>2026-04-24T09:13:10.998Z</time></trkpt><trkpt lat="31.543804738971648" lon="-7.543430117343702"><ele>902.0</ele><time>2026-04-24T09:13:11.998Z</time></trkpt><trkpt lat="31.543773957321292" lon="-7.543249798702642"><ele>902.0</ele><time>2026-04-24T09:13:12.998Z</time></trkpt><trkpt lat="31.543751580526195" lon="-7.543064038838418"><ele>902.0</ele><time>2026-04-24T09:13:13.998Z</time></trkpt><trkpt lat="31.54373929830521" lon="-7.542876141801464"><ele>902.0</ele><time>2026-04-24T09:13:14.998Z</time></trkpt><trkpt lat="31.543732253058476" lon="-7.542689140241223"><ele>902.3333333333334</ele><time>2026-04-24T09:13:15.998Z</time></trkpt><trkpt lat="31.54372557388842" lon="-7.542503512649339"><ele>902.6666666666667</ele><time>2026-04-24T09:13:16.998Z</time></trkpt><trkpt lat="31.54371864034181" lon="-7.542315490923206"><ele>903.0</ele><time>2026-04-24T09:13:18Z</time></trkpt><trkpt lat="31.543713829244876" lon="-7.5421262820004955"><ele>911.6666666666667</ele><time>2026-04-24T09:13:19Z</time></trkpt><trkpt lat="31.543708632960264" lon="-7.541937372665744"><ele>920.3333333333334</ele><time>2026-04-24T09:13:20Z</time></trkpt><trkpt lat="31.54369878495143" lon="-7.5417481519189185"><ele>929.0</ele><time>2026-04-24T09:13:21Z</time></trkpt><trkpt lat="31.543675483937932" lon="-7.541557705039625"><ele>929.0</ele><time>2026-04-24T09:13:22Z</time></trkpt><trkpt lat="31.543645823636464" lon="-7.541367807930524"><ele>929.0</ele><time>2026-04-24T09:13:23Z</time></trkpt><trkpt lat="31.54360185605488" lon="-7.5411833125785925"><ele>929.0</ele><time>2026-04-24T09:13:24Z</time></trkpt><trkpt lat="31.54355413873863" lon="-7.541000323545426"><ele>928.3333333333334</ele><time>2026-04-24T09:13:25Z</time></trkpt><trkpt lat="31.54350454845755" lon="-7.540813991881079"><ele>927.6666666666667</ele><time>2026-04-24T09:13:26Z</time></trkpt><trkpt lat="31.54345479199018" lon="-7.5406282774732345"><ele>927.0</ele><time>2026-04-24T09:13:27Z</time></trkpt><trkpt lat="31.543408218971827" lon="-7.540438006202963"><ele>927.6666666666667</ele><time>2026-04-24T09:13:28Z</time></trkpt><trkpt lat="31.543378925203974" lon="-7.540239972477247"><ele>928.3333333333334</ele><time>2026-04-24T09:13:29Z</time></trkpt><trkpt lat="31.543374217572463" lon="-7.540043766396505"><ele>929.0</ele><time>2026-04-24T09:13:30Z</time></trkpt><trkpt lat="31.543381285858594" lon="-7.539849170511425"><ele>929.0</ele><time>2026-04-24T09:13:31Z</time></trkpt><trkpt lat="31.543377847790552" lon="-7.5396476869990945"><ele>929.0</ele><time>2026-04-24T09:13:32Z</time></trkpt><trkpt lat="31.54338223601071" lon="-7.539445575022233"><ele>929.0</ele><time>2026-04-24T09:13:33Z</time></trkpt><trkpt lat="31.54338856786575" lon="-7.5392415168102005"><ele>929.0</ele><time>2026-04-24T09:13:34Z</time></trkpt><trkpt lat="31.543396363307775" lon="-7.539035384401433"><ele>929.0</ele><time>2026-04-24T09:13:35Z</time></trkpt><trkpt lat="31.543406124506404" lon="-7.538827382783635"><ele>929.0</ele><time>2026-04-24T09:13:36Z</time></trkpt><trkpt lat="31.54341599780732" lon="-7.538613766979494"><ele>929.6666666666667</ele><time>2026-04-24T09:13:37Z</time></trkpt><trkpt lat="31.543426444833205" lon="-7.538399779305773"><ele>930.3333333333333</ele><time>2026-04-24T09:13:38Z</time></trkpt><trkpt lat="31.543436103317305" lon="-7.538182379286723"><ele>931.0</ele><time>2026-04-24T09:13:39Z</time></trkpt><trkpt lat="31.543443961414035" lon="-7.537958675776041"><ele>931.3333333333333</ele><time>2026-04-24T09:13:40Z</time></trkpt><trkpt lat="31.543451516688197" lon="-7.537735195466174"><ele>931.6666666666667</ele><time>2026-04-24T09:13:41Z</time></trkpt><trkpt lat="31.543457353519507" lon="-7.537511943211467"><ele>932.0</ele><time>2026-04-24T09:13:42Z</time></trkpt><trkpt lat="31.543463275583232" lon="-7.537292818217182"><ele>932.0</ele><time>2026-04-24T09:13:43Z</time></trkpt><trkpt lat="31.543468669780754" lon="-7.537078286509726"><ele>932.0</ele><time>2026-04-24T09:13:44Z</time></trkpt><trkpt lat="31.543469455387353" lon="-7.536869710055353"><ele>932.0</ele><time>2026-04-24T09:13:45Z</time></trkpt><trkpt lat="31.543465336543367" lon="-7.536663925505142"><ele>932.3333333333334</ele><time>2026-04-24T09:13:46Z</time></trkpt><trkpt lat="31.543456653682426" lon="-7.536461174151092"><ele>932.6666666666667</ele><time>2026-04-24T09:13:46.999Z</time></trkpt><trkpt lat="31.54344623872141" lon="-7.536258584683013"><ele>933.0</ele><time>2026-04-24T09:13:47.999Z</time></trkpt><trkpt lat="31.543436410691918" lon="-7.536056221685407"><ele>934.0</ele><time>2026-04-24T09:13:48.999Z</time></trkpt><trkpt lat="31.543424454821423" lon="-7.535854601349507"><ele>935.0</ele><time>2026-04-24T09:13:49.999Z</time></trkpt><trkpt lat="31.543414373767977" lon="-7.535657890715922"><ele>936.0</ele><time>2026-04-24T09:13:50.999Z</time></trkpt><trkpt lat="31.543407358438383" lon="-7.535467839324619"><ele>938.3333333333333</ele><time>2026-04-24T09:13:51.999Z</time></trkpt><trkpt lat="31.543399057671614" lon="-7.535284948219544"><ele>940.6666666666666</ele><time>2026-04-24T09:13:52.999Z</time></trkpt><trkpt lat="31.543391745547382" lon="-7.5351037246494"><ele>943.0</ele><time>2026-04-24T09:13:53.999Z</time></trkpt><trkpt lat="31.543382050724414" lon="-7.534925619232868"><ele>943.0</ele><time>2026-04-24T09:13:54.999Z</time></trkpt><trkpt lat="31.543368271308832" lon="-7.53474719951479"><ele>943.0</ele><time>2026-04-24T09:13:55.999Z</time></trkpt><trkpt lat="31.54332545904401" lon="-7.53457981975771"><ele>943.0</ele><time>2026-04-24T09:13:56.999Z</time></trkpt><trkpt lat="31.543292510253732" lon="-7.534407941421549"><ele>944.3333333333333</ele><time>2026-04-24T09:13:57.999Z</time></trkpt><trkpt lat="31.54325457476296" lon="-7.534234028749357"><ele>945.6666666666667</ele><time>2026-04-24T09:13:58.999Z</time></trkpt><trkpt lat="31.543217928380315" lon="-7.534059122326607"><ele>947.0</ele><time>2026-04-24T09:13:59.999Z</time></trkpt><trkpt lat="31.543180194919184" lon="-7.5338819282109215"><ele>948.6666666666667</ele><time>2026-04-24T09:14:00.999Z</time></trkpt><trkpt lat="31.543144921785505" lon="-7.533700196624466"><ele>950.3333333333333</ele><time>2026-04-24T09:14:01.999Z</time></trkpt><trkpt lat="31.543110944072147" lon="-7.533519236640278"><ele>952.0</ele><time>2026-04-24T09:14:02.999Z</time></trkpt><trkpt lat="31.543080408851658" lon="-7.533335929493869"><ele>952.0</ele><time>2026-04-24T09:14:03.999Z</time></trkpt><trkpt lat="31.54304958822238" lon="-7.533151024981776"><ele>952.0</ele><time>2026-04-24T09:14:04.999Z</time></trkpt><trkpt lat="31.54301869228894" lon="-7.53296431420773"><ele>952.0</ele><time>2026-04-24T09:14:05.999Z</time></trkpt><trkpt lat="31.542986035457233" lon="-7.532770702948464"><ele>953.6666666666666</ele><time>2026-04-24T09:14:06.999Z</time></trkpt><trkpt lat="31.54295269901203" lon="-7.532576745466734"><ele>955.3333333333333</ele><time>2026-04-24T09:14:07.999Z</time></trkpt><trkpt lat="31.54291906597395" lon="-7.532381062257877"><ele>957.0</ele><time>2026-04-24T09:14:08.999Z</time></trkpt><trkpt lat="31.542885193366782" lon="-7.532183273172931"><ele>952.6666666666667</ele><time>2026-04-24T09:14:09.999Z</time></trkpt><trkpt lat="31.542852139787335" lon="-7.531988541993816"><ele>948.3333333333334</ele><time>2026-04-24T09:14:10.999Z</time></trkpt><trkpt lat="31.542819448003176" lon="-7.531791743879274"><ele>944.0</ele><time>2026-04-24T09:14:11.999Z</time></trkpt><trkpt lat="31.542785340150736" lon="-7.531591249200946"><ele>944.0</ele><time>2026-04-24T09:14:12.999Z</time></trkpt><trkpt lat="31.54275202634196" lon="-7.5313869919044105"><ele>944.0</ele><time>2026-04-24T09:14:13.999Z</time></trkpt><trkpt lat="31.542718463537906" lon="-7.531177714514792"><ele>944.0</ele><time>2026-04-24T09:14:14.999Z</time></trkpt><trkpt lat="31.54268702842131" lon="-7.530963471173848"><ele>944.6666666666667</ele><time>2026-04-24T09:14:15.999Z</time></trkpt><trkpt lat="31.54265796756917" lon="-7.5307512157127965"><ele>945.3333333333333</ele><time>2026-04-24T09:14:16.999Z</time></trkpt><trkpt lat="31.54264152407682" lon="-7.530543761704761"><ele>946.0</ele><time>2026-04-24T09:14:17.999Z</time></trkpt><trkpt lat="31.542625588666994" lon="-7.530338784929783"><ele>947.3333333333333</ele><time>2026-04-24T09:14:18.999Z</time></trkpt><trkpt lat="31.542609599999253" lon="-7.530136236087762"><ele>948.6666666666667</ele><time>2026-04-24T09:14:19.999Z</time></trkpt><trkpt lat="31.54259384161061" lon="-7.529939947063074"><ele>950.0</ele><time>2026-04-24T09:14:20.999Z</time></trkpt><trkpt lat="31.542583839448966" lon="-7.529741389549536"><ele>950.6666666666667</ele><time>2026-04-24T09:14:21.999Z</time></trkpt><trkpt lat="31.54257847957795" lon="-7.529546091409734"><ele>951.3333333333333</ele><time>2026-04-24T09:14:22.999Z</time></trkpt><trkpt lat="31.542572548149824" lon="-7.529355151216911"><ele>952.0</ele><time>2026-04-24T09:14:23.999Z</time></trkpt><trkpt lat="31.542566788015595" lon="-7.52916662993399"><ele>952.0</ele><time>2026-04-24T09:14:24.999Z</time></trkpt><trkpt lat="31.542559681290268" lon="-7.528991188371202"><ele>952.0</ele><time>2026-04-24T09:14:25.999Z</time></trkpt><trkpt lat="31.542549491632354" lon="-7.528819406233829"><ele>952.0</ele><time>2026-04-24T09:14:26.999Z</time></trkpt><trkpt lat="31.54253922764764" lon="-7.528648438658078"><ele>952.0</ele><time>2026-04-24T09:14:27.999Z</time></trkpt><trkpt lat="31.542529002326912" lon="-7.5284746082064515"><ele>952.0</ele><time>2026-04-24T09:14:28.999Z</time></trkpt><trkpt lat="31.5425188991403" lon="-7.528300971456587"><ele>952.0</ele><time>2026-04-24T09:14:29.999Z</time></trkpt><trkpt lat="31.542507114814605" lon="-7.528133715343409"><ele>952.0</ele><time>2026-04-24T09:14:30.999Z</time></trkpt><trkpt lat="31.542477360627434" lon="-7.527969339859806"><ele>952.0</ele><time>2026-04-24T09:14:31.999Z</time></trkpt><trkpt lat="31.542446256528347" lon="-7.527796549011022"><ele>950.3333333333333</ele><time>2026-04-24T09:14:32.999Z</time></trkpt><trkpt lat="31.54241254794569" lon="-7.527603386585559"><ele>948.6666666666667</ele><time>2026-04-24T09:14:33.999Z</time></trkpt><trkpt lat="31.54237469319314" lon="-7.527388257600365"><ele>947.0</ele><time>2026-04-24T09:14:34.999Z</time></trkpt><trkpt lat="31.542333791469478" lon="-7.527156042418469"><ele>945.6666666666667</ele><time>2026-04-24T09:14:35.999Z</time></trkpt><trkpt lat="31.54229085173434" lon="-7.526919404131391"><ele>944.3333333333333</ele><time>2026-04-24T09:14:36.999Z</time></trkpt><trkpt lat="31.54224687121063" lon="-7.526667432514"><ele>943.0</ele><time>2026-04-24T09:14:37.999Z</time></trkpt><trkpt lat="31.542200439362386" lon="-7.526404032140402"><ele>942.5</ele><time>2026-04-24T09:14:38.999Z</time></trkpt><trkpt lat="31.54215240307637" lon="-7.526130799779196"><ele>942.0</ele><time>2026-04-24T09:14:39.999Z</time></trkpt><trkpt lat="31.542118499641543" lon="-7.525846376833135"><ele>942.0</ele><time>2026-04-24T09:14:40.999Z</time></trkpt><trkpt lat="31.542063048464584" lon="-7.52555562168945"><ele>942.0</ele><time>2026-04-24T09:14:41.999Z</time></trkpt><trkpt lat="31.54200680530682" lon="-7.525255775966999"><ele>943.5</ele><time>2026-04-24T09:14:42.999Z</time></trkpt><trkpt lat="31.54194899002136" lon="-7.5249482359034365"><ele>945.0</ele><time>2026-04-24T09:14:43.999Z</time></trkpt><trkpt lat="31.5418912943237" lon="-7.5246409072593785"><ele>943.5</ele><time>2026-04-24T09:14:44.999Z</time></trkpt><trkpt lat="31.54183389532363" lon="-7.5243324131827904"><ele>942.0</ele><time>2026-04-24T09:14:45.999Z</time></trkpt><trkpt lat="31.541776280293472" lon="-7.524017338294717"><ele>940.5</ele><time>2026-04-24T09:14:46.999Z</time></trkpt><trkpt lat="31.541717965356817" lon="-7.523698012934745"><ele>939.0</ele><time>2026-04-24T09:14:47.999Z</time></trkpt><trkpt lat="31.541659029952797" lon="-7.523376305742612"><ele>939.0</ele><time>2026-04-24T09:14:48.999Z</time></trkpt><trkpt lat="31.541601578295836" lon="-7.523055545922677"><ele>939.0</ele><time>2026-04-24T09:14:49.999Z</time></trkpt><trkpt lat="31.541545208863024" lon="-7.522736165266131"><ele>938.0</ele><time>2026-04-24T09:14:50.999Z</time></trkpt><trkpt lat="31.541490255258495" lon="-7.522421265950749"><ele>937.0</ele><time>2026-04-24T09:14:51.999Z</time></trkpt><trkpt lat="31.541434826836802" lon="-7.522113732519418"><ele>935.0</ele><time>2026-04-24T09:14:52.999Z</time></trkpt><trkpt lat="31.54138028178421" lon="-7.521811937289997"><ele>933.0</ele><time>2026-04-24T09:14:53.999Z</time></trkpt><trkpt lat="31.541327954884324" lon="-7.521516015895996"><ele>934.0</ele><time>2026-04-24T09:14:54.999Z</time></trkpt><trkpt lat="31.54125701461963" lon="-7.52123222039087"><ele>935.0</ele><time>2026-04-24T09:14:55.999Z</time></trkpt><trkpt lat="31.54120255673272" lon="-7.520947933614061"><ele>942.5</ele><time>2026-04-24T09:14:56.999Z</time></trkpt><trkpt lat="31.541150503267648" lon="-7.520675229392979"><ele>950.0</ele><time>2026-04-24T09:14:57.999Z</time></trkpt><trkpt lat="31.54110308377325" lon="-7.520424489050911"><ele>948.6666666666667</ele><time>2026-04-24T09:14:58.999Z</time></trkpt><trkpt lat="31.541056687326595" lon="-7.520181742406445"><ele>947.3333333333333</ele><time>2026-04-24T09:14:59.999Z</time></trkpt><trkpt lat="31.54101146396269" lon="-7.519943088507413"><ele>946.0</ele><time>2026-04-24T09:15:00.999Z</time></trkpt><trkpt lat="31.540966466000377" lon="-7.519705321672821"><ele>942.6666666666666</ele><time>2026-04-24T09:15:01.998Z</time></trkpt><trkpt lat="31.540911911308875" lon="-7.5194690994115945"><ele>939.3333333333333</ele><time>2026-04-24T09:15:02.998Z</time></trkpt><trkpt lat="31.540857397833364" lon="-7.519227595264287"><ele>936.0</ele><time>2026-04-24T09:15:03.998Z</time></trkpt><trkpt lat="31.54078564294424" lon="-7.518989159112947"><ele>936.0</ele><time>2026-04-24T09:15:04.998Z</time></trkpt><trkpt lat="31.54070123659743" lon="-7.518741043324805"><ele>936.0</ele><time>2026-04-24T09:15:05.998Z</time></trkpt><trkpt lat="31.540608412265414" lon="-7.518482825161571"><ele>932.5</ele><time>2026-04-24T09:15:06.998Z</time></trkpt><trkpt lat="31.540507734439267" lon="-7.518216895044738"><ele>929.0</ele><time>2026-04-24T09:15:07.998Z</time></trkpt><trkpt lat="31.54040528789231" lon="-7.517944245392708"><ele>928.5</ele><time>2026-04-24T09:15:08.998Z</time></trkpt><trkpt lat="31.540299765129646" lon="-7.517665886487454"><ele>928.0</ele><time>2026-04-24T09:15:09.998Z</time></trkpt><trkpt lat="31.540194937361804" lon="-7.517388158400642"><ele>928.0</ele><time>2026-04-24T09:15:10.998Z</time></trkpt><trkpt lat="31.54009205447172" lon="-7.517114197288793"><ele>928.0</ele><time>2026-04-24T09:15:11.998Z</time></trkpt><trkpt lat="31.53999041161055" lon="-7.516844371568059"><ele>927.0</ele><time>2026-04-24T09:15:12.998Z</time></trkpt><trkpt lat="31.539893804560815" lon="-7.516589651879954"><ele>926.0</ele><time>2026-04-24T09:15:13.998Z</time></trkpt><trkpt lat="31.539803452223644" lon="-7.516339833423453"><ele>925.3333333333334</ele><time>2026-04-24T09:15:14.998Z</time></trkpt><trkpt lat="31.53971738506449" lon="-7.516097127526769"><ele>924.6666666666667</ele><time>2026-04-24T09:15:15.998Z</time></trkpt><trkpt lat="31.53963096450391" lon="-7.51585574934212"><ele>924.0</ele><time>2026-04-24T09:15:16.998Z</time></trkpt><trkpt lat="31.53954563600735" lon="-7.515619231640482"><ele>924.0</ele><time>2026-04-24T09:15:17.998Z</time></trkpt><trkpt lat="31.53946403160471" lon="-7.515390181050988"><ele>924.0</ele><time>2026-04-24T09:15:18.998Z</time></trkpt><trkpt lat="31.539386450975268" lon="-7.515172209738153"><ele>924.0</ele><time>2026-04-24T09:15:19.998Z</time></trkpt><trkpt lat="31.539309956957535" lon="-7.514957730662286"><ele>924.0</ele><time>2026-04-24T09:15:20.998Z</time></trkpt><trkpt lat="31.53923481638405" lon="-7.5147475792710114"><ele>924.0</ele><time>2026-04-24T09:15:21.998Z</time></trkpt><trkpt lat="31.539160703833815" lon="-7.514540506651936"><ele>924.0</ele><time>2026-04-24T09:15:23Z</time></trkpt><trkpt lat="31.539086951016003" lon="-7.5143344383710575"><ele>924.0</ele><time>2026-04-24T09:15:24Z</time></trkpt><trkpt lat="31.53901429942431" lon="-7.514131446957712"><ele>924.0</ele><time>2026-04-24T09:15:25Z</time></trkpt><trkpt lat="31.53896388195212" lon="-7.513925096002074"><ele>924.0</ele><time>2026-04-24T09:15:26Z</time></trkpt><trkpt lat="31.538887433037562" lon="-7.513744515822468"><ele>923.0</ele><time>2026-04-24T09:15:27Z</time></trkpt><trkpt lat="31.538808999445198" lon="-7.513570038171964"><ele>922.0</ele><time>2026-04-24T09:15:28Z</time></trkpt><trkpt lat="31.53873413076687" lon="-7.513407829340995"><ele>921.0</ele><time>2026-04-24T09:15:29Z</time></trkpt><trkpt lat="31.538661809581995" lon="-7.513251888694681"><ele>920.3333333333333</ele><time>2026-04-24T09:15:30Z</time></trkpt><trkpt lat="31.538591435890595" lon="-7.513096842179106"><ele>919.6666666666666</ele><time>2026-04-24T09:15:31Z</time></trkpt><trkpt lat="31.538519421556806" lon="-7.512940658191786"><ele>919.0</ele><time>2026-04-24T09:15:32Z</time></trkpt><trkpt lat="31.53844549391337" lon="-7.512777872344518"><ele>919.0</ele><time>2026-04-24T09:15:33Z</time></trkpt><trkpt lat="31.538365442206235" lon="-7.512607382764003"><ele>919.0</ele><time>2026-04-24T09:15:34Z</time></trkpt><trkpt lat="31.538280668539308" lon="-7.512430748147222"><ele>919.0</ele><time>2026-04-24T09:15:35Z</time></trkpt><trkpt lat="31.538191196270255" lon="-7.51225197898326"><ele>919.0</ele><time>2026-04-24T09:15:36Z</time></trkpt><trkpt lat="31.538093565597965" lon="-7.5120761700891245"><ele>919.0</ele><time>2026-04-24T09:15:37Z</time></trkpt><trkpt lat="31.537986202036166" lon="-7.5119079950942425"><ele>919.0</ele><time>2026-04-24T09:15:38Z</time></trkpt><trkpt lat="31.537867598362" lon="-7.511747554081651"><ele>920.3333333333333</ele><time>2026-04-24T09:15:39Z</time></trkpt><trkpt lat="31.537742824750005" lon="-7.511589159662806"><ele>921.6666666666667</ele><time>2026-04-24T09:15:40Z</time></trkpt><trkpt lat="31.537613695668153" lon="-7.511432735744985"><ele>923.0</ele><time>2026-04-24T09:15:41Z</time></trkpt><trkpt lat="31.53748244633079" lon="-7.511276366416257"><ele>919.0</ele><time>2026-04-24T09:15:42Z</time></trkpt><trkpt lat="31.537348920173354" lon="-7.511116784746313"><ele>915.0</ele><time>2026-04-24T09:15:43Z</time></trkpt><trkpt lat="31.537213432609203" lon="-7.510955149511624"><ele>911.0</ele><time>2026-04-24T09:15:44Z</time></trkpt><trkpt lat="31.537079016268613" lon="-7.51079477835648"><ele>912.3333333333334</ele><time>2026-04-24T09:15:45Z</time></trkpt><trkpt lat="31.536951904322528" lon="-7.51064006705491"><ele>913.6666666666667</ele><time>2026-04-24T09:15:46Z</time></trkpt><trkpt lat="31.536827081179208" lon="-7.510486132881747"><ele>915.0</ele><time>2026-04-24T09:15:47Z</time></trkpt><trkpt lat="31.536714026362446" lon="-7.51033121330973"><ele>911.3333333333333</ele><time>2026-04-24T09:15:48Z</time></trkpt><trkpt lat="31.536615923930235" lon="-7.510174421045797"><ele>907.6666666666666</ele><time>2026-04-24T09:15:49Z</time></trkpt><trkpt lat="31.536528655250805" lon="-7.510016999977844"><ele>904.0</ele><time>2026-04-24T09:15:49.999Z</time></trkpt><trkpt lat="31.53645653977612" lon="-7.509852767651243"><ele>904.0</ele><time>2026-04-24T09:15:50.999Z</time></trkpt><trkpt lat="31.536399432111043" lon="-7.509684548887461"><ele>904.0</ele><time>2026-04-24T09:15:51.999Z</time></trkpt><trkpt lat="31.536354524194007" lon="-7.50950135231704"><ele>904.0</ele><time>2026-04-24T09:15:52.999Z</time></trkpt><trkpt lat="31.536326804278204" lon="-7.509308567152593"><ele>903.0</ele><time>2026-04-24T09:15:53.999Z</time></trkpt><trkpt lat="31.53631467406953" lon="-7.509106452820464"><ele>902.0</ele><time>2026-04-24T09:15:54.999Z</time></trkpt><trkpt lat="31.53631571669875" lon="-7.508895029247229"><ele>901.0</ele><time>2026-04-24T09:15:55.999Z</time></trkpt><trkpt lat="31.536321202020964" lon="-7.508672803798941"><ele>901.0</ele><time>2026-04-24T09:15:56.999Z</time></trkpt><trkpt lat="31.536329755407134" lon="-7.508440788138212"><ele>901.0</ele><time>2026-04-24T09:15:57.999Z</time></trkpt><trkpt lat="31.536338077837005" lon="-7.50820125868262"><ele>901.0</ele><time>2026-04-24T09:15:58.999Z</time></trkpt><trkpt lat="31.536345841068137" lon="-7.507960379407204"><ele>902.3333333333333</ele><time>2026-04-24T09:15:59.999Z</time></trkpt><trkpt lat="31.53635348972694" lon="-7.507716148337008"><ele>903.6666666666667</ele><time>2026-04-24T09:16:00.999Z</time></trkpt><trkpt lat="31.5363606315237" lon="-7.507475086695418"><ele>905.0</ele><time>2026-04-24T09:16:01.999Z</time></trkpt><trkpt lat="31.536369666171595" lon="-7.507241914070197"><ele>908.0</ele><time>2026-04-24T09:16:02.999Z</time></trkpt><trkpt lat="31.536375667175136" lon="-7.507013059835589"><ele>911.0</ele><time>2026-04-24T09:16:03.999Z</time></trkpt><trkpt lat="31.536375809957143" lon="-7.506787536089932"><ele>914.0</ele><time>2026-04-24T09:16:04.999Z</time></trkpt><trkpt lat="31.536366104688298" lon="-7.506565914746573"><ele>914.0</ele><time>2026-04-24T09:16:05.999Z</time></trkpt><trkpt lat="31.536347574126346" lon="-7.50634915265751"><ele>914.0</ele><time>2026-04-24T09:16:06.999Z</time></trkpt><trkpt lat="31.536318409013525" lon="-7.506136876913786"><ele>914.0</ele><time>2026-04-24T09:16:07.999Z</time></trkpt><trkpt lat="31.53628008979759" lon="-7.505926707149412"><ele>913.3333333333334</ele><time>2026-04-24T09:16:08.999Z</time></trkpt><trkpt lat="31.53623514287562" lon="-7.505724564811089"><ele>912.6666666666667</ele><time>2026-04-24T09:16:09.999Z</time></trkpt><trkpt lat="31.53618970232827" lon="-7.505530621529183"><ele>912.0</ele><time>2026-04-24T09:16:10.999Z</time></trkpt><trkpt lat="31.53614723638828" lon="-7.50534094623109"><ele>915.3333333333333</ele><time>2026-04-24T09:16:11.999Z</time></trkpt><trkpt lat="31.536112193940422" lon="-7.505154578750782"><ele>918.6666666666666</ele><time>2026-04-24T09:16:12.999Z</time></trkpt><trkpt lat="31.536083320450704" lon="-7.504969229570036"><ele>922.0</ele><time>2026-04-24T09:16:13.999Z</time></trkpt><trkpt lat="31.536072580018217" lon="-7.5047886503440475"><ele>922.0</ele><time>2026-04-24T09:16:14.999Z</time></trkpt><trkpt lat="31.536073738758088" lon="-7.504608611577452"><ele>922.0</ele><time>2026-04-24T09:16:15.999Z</time></trkpt><trkpt lat="31.536090344099996" lon="-7.504434660733484"><ele>922.0</ele><time>2026-04-24T09:16:16.999Z</time></trkpt><trkpt lat="31.536121485288806" lon="-7.50426643059176"><ele>922.0</ele><time>2026-04-24T09:16:17.999Z</time></trkpt><trkpt lat="31.536166313523964" lon="-7.504100676943331"><ele>923.0</ele><time>2026-04-24T09:16:18.999Z</time></trkpt><trkpt lat="31.536224892515094" lon="-7.50393129378993"><ele>924.0</ele><time>2026-04-24T09:16:19.999Z</time></trkpt><trkpt lat="31.536293777439656" lon="-7.503761503675165"><ele>925.0</ele><time>2026-04-24T09:16:20.999Z</time></trkpt><trkpt lat="31.536372853097138" lon="-7.503596102401404"><ele>925.0</ele><time>2026-04-24T09:16:21.999Z</time></trkpt><trkpt lat="31.536448625080798" lon="-7.503428716618415"><ele>925.0</ele><time>2026-04-24T09:16:22.999Z</time></trkpt><trkpt lat="31.536528642304273" lon="-7.503264218321465"><ele>925.0</ele><time>2026-04-24T09:16:23.999Z</time></trkpt><trkpt lat="31.53660171574903" lon="-7.503103046814295"><ele>925.0</ele><time>2026-04-24T09:16:24.999Z</time></trkpt><trkpt lat="31.53666155573716" lon="-7.502939279403068"><ele>925.0</ele><time>2026-04-24T09:16:25.999Z</time></trkpt><trkpt lat="31.536709333798495" lon="-7.502773565233573"><ele>925.0</ele><time>2026-04-24T09:16:26.999Z</time></trkpt><trkpt lat="31.53674344671807" lon="-7.502601756720128"><ele>923.3333333333333</ele><time>2026-04-24T09:16:27.999Z</time></trkpt><trkpt lat="31.53676105896094" lon="-7.5024245244225485"><ele>921.6666666666667</ele><time>2026-04-24T09:16:28.999Z</time></trkpt><trkpt lat="31.536762644152038" lon="-7.502244131558947"><ele>920.0</ele><time>2026-04-24T09:16:29.999Z</time></trkpt><trkpt lat="31.536748417421297" lon="-7.502058830359749"><ele>920.0</ele><time>2026-04-24T09:16:30.999Z</time></trkpt><trkpt lat="31.536718135740834" lon="-7.501873477069567"><ele>920.0</ele><time>2026-04-24T09:16:31.999Z</time></trkpt><trkpt lat="31.53667147012761" lon="-7.501689316931145"><ele>920.0</ele><time>2026-04-24T09:16:32.999Z</time></trkpt><trkpt lat="31.536611156011155" lon="-7.501510892174147"><ele>920.0</ele><time>2026-04-24T09:16:33.999Z</time></trkpt><trkpt lat="31.536538860335867" lon="-7.50133906817286"><ele>920.0</ele><time>2026-04-24T09:16:34.999Z</time></trkpt><trkpt lat="31.536459859607962" lon="-7.501171049056802"><ele>920.0</ele><time>2026-04-24T09:16:35.999Z</time></trkpt><trkpt lat="31.536374369789517" lon="-7.501005055802311"><ele>920.0</ele><time>2026-04-24T09:16:36.999Z</time></trkpt><trkpt lat="31.536298475148556" lon="-7.500835961389444"><ele>920.0</ele><time>2026-04-24T09:16:37.999Z</time></trkpt><trkpt lat="31.536238903606723" lon="-7.500681662579499"><ele>920.0</ele><time>2026-04-24T09:16:38.999Z</time></trkpt><trkpt lat="31.53618870458582" lon="-7.500530451781798"><ele>920.0</ele><time>2026-04-24T09:16:39.999Z</time></trkpt><trkpt lat="31.536149772455907" lon="-7.500369437016736"><ele>920.0</ele><time>2026-04-24T09:16:40.999Z</time></trkpt><trkpt lat="31.53612461364497" lon="-7.500206868936726"><ele>920.0</ele><time>2026-04-24T09:16:41.999Z</time></trkpt><trkpt lat="31.53611812210269" lon="-7.500044952284966"><ele>920.0</ele><time>2026-04-24T09:16:42.999Z</time></trkpt><trkpt lat="31.536129821521328" lon="-7.49987951489803"><ele>920.0</ele><time>2026-04-24T09:16:43.999Z</time></trkpt><trkpt lat="31.536159549790142" lon="-7.499710216668517"><ele>921.0</ele><time>2026-04-24T09:16:44.999Z</time></trkpt><trkpt lat="31.536205453904234" lon="-7.499534647469091"><ele>922.0</ele><time>2026-04-24T09:16:45.999Z</time></trkpt><trkpt lat="31.536265729446477" lon="-7.499355906148258"><ele>923.0</ele><time>2026-04-24T09:16:46.999Z</time></trkpt><trkpt lat="31.536335941240722" lon="-7.499175340086439"><ele>924.6666666666667</ele><time>2026-04-24T09:16:47.999Z</time></trkpt><trkpt lat="31.536409587340586" lon="-7.498995695465424"><ele>926.3333333333333</ele><time>2026-04-24T09:16:48.999Z</time></trkpt><trkpt lat="31.53648094919461" lon="-7.498813478545248"><ele>928.0</ele><time>2026-04-24T09:16:49.999Z</time></trkpt><trkpt lat="31.536551711260795" lon="-7.4986314043469875"><ele>928.0</ele><time>2026-04-24T09:16:50.999Z</time></trkpt><trkpt lat="31.536620814256207" lon="-7.498450793366469"><ele>928.0</ele><time>2026-04-24T09:16:51.999Z</time></trkpt><trkpt lat="31.53668603784613" lon="-7.498278629629354"><ele>928.0</ele><time>2026-04-24T09:16:52.999Z</time></trkpt><trkpt lat="31.536742208074156" lon="-7.49812365656189"><ele>928.0</ele><time>2026-04-24T09:16:53.999Z</time></trkpt><trkpt lat="31.536787721454946" lon="-7.497975201852879"><ele>928.0</ele><time>2026-04-24T09:16:54.999Z</time></trkpt><trkpt lat="31.536798988504323" lon="-7.497821078642252"><ele>928.0</ele><time>2026-04-24T09:16:55.999Z</time></trkpt><trkpt lat="31.536813905192954" lon="-7.4976727567464785"><ele>928.0</ele><time>2026-04-24T09:16:56.999Z</time></trkpt><trkpt lat="31.53682412072417" lon="-7.497519229986231"><ele>928.25</ele><time>2026-04-24T09:16:57.999Z</time></trkpt><trkpt lat="31.53679882545037" lon="-7.497358206149194"><ele>928.5</ele><time>2026-04-24T09:16:58.999Z</time></trkpt><trkpt lat="31.536753288036763" lon="-7.497195703899935"><ele>928.75</ele><time>2026-04-24T09:16:59.999Z</time></trkpt><trkpt lat="31.536691759949623" lon="-7.4970376874479765"><ele>929.0</ele><time>2026-04-24T09:17:00.999Z</time></trkpt><trkpt lat="31.536610593879693" lon="-7.496889687419211"><ele>929.3333333333334</ele><time>2026-04-24T09:17:01.999Z</time></trkpt><trkpt lat="31.536507781571903" lon="-7.496752893889019"><ele>929.6666666666667</ele><time>2026-04-24T09:17:02.999Z</time></trkpt><trkpt lat="31.53638791878606" lon="-7.496627728721652"><ele>930.0</ele><time>2026-04-24T09:17:03.999Z</time></trkpt><trkpt lat="31.536256865022406" lon="-7.496511611360508"><ele>929.6666666666667</ele><time>2026-04-24T09:17:04.999Z</time></trkpt><trkpt lat="31.536128861825716" lon="-7.496387280617327"><ele>929.3333333333334</ele><time>2026-04-24T09:17:05.998Z</time></trkpt><trkpt lat="31.536012091377245" lon="-7.4962610976858635"><ele>929.0</ele><time>2026-04-24T09:17:06.998Z</time></trkpt><trkpt lat="31.53590685180181" lon="-7.496129672527999"><ele>930.5</ele><time>2026-04-24T09:17:07.998Z</time></trkpt><trkpt lat="31.535823303614137" lon="-7.495992678071599"><ele>932.0</ele><time>2026-04-24T09:17:08.998Z</time></trkpt><trkpt lat="31.53576136721735" lon="-7.495853774964632"><ele>933.5</ele><time>2026-04-24T09:17:09.998Z</time></trkpt><trkpt lat="31.53571507377662" lon="-7.4957125207749975"><ele>935.0</ele><time>2026-04-24T09:17:10.998Z</time></trkpt><trkpt lat="31.535683162038822" lon="-7.495563169379098"><ele>936.0</ele><time>2026-04-24T09:17:11.998Z</time></trkpt><trkpt lat="31.535660791169565" lon="-7.495406585284792"><ele>937.0</ele><time>2026-04-24T09:17:12.998Z</time></trkpt><trkpt lat="31.535642987201093" lon="-7.495245967561126"><ele>938.0</ele><time>2026-04-24T09:17:13.998Z</time></trkpt><trkpt lat="31.53562665952397" lon="-7.495080614947878"><ele>939.0</ele><time>2026-04-24T09:17:14.998Z</time></trkpt><trkpt lat="31.53560790871253" lon="-7.494910852568759"><ele>939.0</ele><time>2026-04-24T09:17:15.998Z</time></trkpt><trkpt lat="31.535586361610545" lon="-7.494736348625939"><ele>939.0</ele><time>2026-04-24T09:17:16.998Z</time></trkpt><trkpt lat="31.535564029914823" lon="-7.494556104829504"><ele>939.0</ele><time>2026-04-24T09:17:17.998Z</time></trkpt><trkpt lat="31.535540828890184" lon="-7.49437406265198"><ele>940.6666666666667</ele><time>2026-04-24T09:17:18.998Z</time></trkpt><trkpt lat="31.535518881394044" lon="-7.4941918032437185"><ele>942.3333333333334</ele><time>2026-04-24T09:17:19.998Z</time></trkpt><trkpt lat="31.535495386696205" lon="-7.494012118910317"><ele>944.0</ele><time>2026-04-24T09:17:20.998Z</time></trkpt><trkpt lat="31.535472369317493" lon="-7.49383608810541"><ele>943.25</ele><time>2026-04-24T09:17:21.998Z</time></trkpt><trkpt lat="31.53544932651325" lon="-7.493666950854105"><ele>942.5</ele><time>2026-04-24T09:17:22.998Z</time></trkpt><trkpt lat="31.53542131743422" lon="-7.493505180240978"><ele>941.75</ele><time>2026-04-24T09:17:23.998Z</time></trkpt><trkpt lat="31.535378402662538" lon="-7.493352325877008"><ele>941.0</ele><time>2026-04-24T09:17:24.998Z</time></trkpt><trkpt lat="31.535315628350794" lon="-7.493210336044511"><ele>941.0</ele><time>2026-04-24T09:17:25.998Z</time></trkpt><trkpt lat="31.53523206109056" lon="-7.493080304800229"><ele>941.0</ele><time>2026-04-24T09:17:26.998Z</time></trkpt><trkpt lat="31.535126090411275" lon="-7.492957564924077"><ele>941.0</ele><time>2026-04-24T09:17:27.998Z</time></trkpt><trkpt lat="31.535006452282587" lon="-7.492842975112769"><ele>941.0</ele><time>2026-04-24T09:17:29Z</time></trkpt><trkpt lat="31.534873254551982" lon="-7.492735803579987"><ele>942.0</ele><time>2026-04-24T09:17:30Z</time></trkpt><trkpt lat="31.534736105650268" lon="-7.49263248725918"><ele>943.0</ele><time>2026-04-24T09:17:31Z</time></trkpt><trkpt lat="31.534598874886935" lon="-7.492533037314836"><ele>944.0</ele><time>2026-04-24T09:17:32Z</time></trkpt><trkpt lat="31.53446539931745" lon="-7.492437618328786"><ele>944.0</ele><time>2026-04-24T09:17:33Z</time></trkpt><trkpt lat="31.534342019222265" lon="-7.492343782572991"><ele>944.0</ele><time>2026-04-24T09:17:34Z</time></trkpt><trkpt lat="31.53422300911032" lon="-7.492248520264074"><ele>944.0</ele><time>2026-04-24T09:17:35Z</time></trkpt><trkpt lat="31.53411595065278" lon="-7.492143095074798"><ele>944.0</ele><time>2026-04-24T09:17:36Z</time></trkpt><trkpt lat="31.53402094831908" lon="-7.49202711952281"><ele>945.5</ele><time>2026-04-24T09:17:37Z</time></trkpt><trkpt lat="31.53392325439184" lon="-7.491915186277109"><ele>947.0</ele><time>2026-04-24T09:17:38Z</time></trkpt><trkpt lat="31.53385682227002" lon="-7.491772928594325"><ele>948.5</ele><time>2026-04-24T09:17:39Z</time></trkpt><trkpt lat="31.533811528447256" lon="-7.491622730381864"><ele>950.0</ele><time>2026-04-24T09:17:40Z</time></trkpt><trkpt lat="31.53378318023514" lon="-7.491464201299358"><ele>950.0</ele><time>2026-04-24T09:17:41Z</time></trkpt><trkpt lat="31.53378024340701" lon="-7.4912968973846725"><ele>950.0</ele><time>2026-04-24T09:17:42Z</time></trkpt><trkpt lat="31.533780707451747" lon="-7.491127623954202"><ele>950.0</ele><time>2026-04-24T09:17:43Z</time></trkpt><trkpt lat="31.533804612535434" lon="-7.490955226129705"><ele>950.0</ele><time>2026-04-24T09:17:44Z</time></trkpt><trkpt lat="31.533808592374776" lon="-7.490781012437082"><ele>951.0</ele><time>2026-04-24T09:17:45Z</time></trkpt><trkpt lat="31.533812901393343" lon="-7.490609443044577"><ele>952.0</ele><time>2026-04-24T09:17:46Z</time></trkpt><trkpt lat="31.533818105879188" lon="-7.490441810493831"><ele>953.0</ele><time>2026-04-24T09:17:47Z</time></trkpt><trkpt lat="31.533822096229656" lon="-7.490280645078678"><ele>954.0</ele><time>2026-04-24T09:17:48Z</time></trkpt><trkpt lat="31.533825637559186" lon="-7.490135475330085"><ele>954.8000000000001</ele><time>2026-04-24T09:17:49Z</time></trkpt><trkpt lat="31.53382932579644" lon="-7.490002716178857"><ele>955.6000000000001</ele><time>2026-04-24T09:17:50Z</time></trkpt><trkpt lat="31.533832598087887" lon="-7.489877368318908"><ele>956.4</ele><time>2026-04-24T09:17:51Z</time></trkpt><trkpt lat="31.533836132180394" lon="-7.489758575907973"><ele>957.2</ele><time>2026-04-24T09:17:52Z</time></trkpt><trkpt lat="31.53384010843386" lon="-7.489645557608409"><ele>958.0</ele><time>2026-04-24T09:17:53Z</time></trkpt><trkpt lat="31.5338441379634" lon="-7.489537523053062"><ele>958.8333333333333</ele><time>2026-04-24T09:17:53.999Z</time></trkpt><trkpt lat="31.533848760698966" lon="-7.489436775053205"><ele>959.6666666666666</ele><time>2026-04-24T09:17:54.999Z</time></trkpt><trkpt lat="31.533851318882117" lon="-7.489348320064842"><ele>960.5</ele><time>2026-04-24T09:17:55.999Z</time></trkpt><trkpt lat="31.533852897158468" lon="-7.489266327237085"><ele>961.3333333333333</ele><time>2026-04-24T09:17:56.999Z</time></trkpt><trkpt lat="31.533854446356074" lon="-7.489191315784954"><ele>962.1666666666666</ele><time>2026-04-24T09:17:57.999Z</time></trkpt><trkpt lat="31.53385987583764" lon="-7.489056180703467"><ele>963.0</ele><time>2026-04-24T09:17:59.999Z</time></trkpt><trkpt lat="31.533865656575816" lon="-7.488927455427418"><ele>963.0</ele><time>2026-04-24T09:18:01.999Z</time></trkpt><trkpt lat="31.53387092771599" lon="-7.488808108176165"><ele>963.0</ele><time>2026-04-24T09:18:03.999Z</time></trkpt><trkpt lat="31.53387607662594" lon="-7.488679101660929"><ele>963.0</ele><time>2026-04-24T09:18:05.999Z</time></trkpt><trkpt lat="31.533879917863878" lon="-7.488534843083945"><ele>963.0</ele><time>2026-04-24T09:18:07.999Z</time></trkpt><trkpt lat="31.53388312181741" lon="-7.488458332594686"><ele>963.0</ele><time>2026-04-24T09:18:08.999Z</time></trkpt><trkpt lat="31.533885941284577" lon="-7.488381218559771"><ele>963.1428571428573</ele><time>2026-04-24T09:18:09.999Z</time></trkpt><trkpt lat="31.533887298462588" lon="-7.488302132820611"><ele>963.2857142857143</ele><time>2026-04-24T09:18:10.999Z</time></trkpt><trkpt lat="31.533884340925226" lon="-7.488218407440515"><ele>963.4285714285716</ele><time>2026-04-24T09:18:11.999Z</time></trkpt><trkpt lat="31.53387680697095" lon="-7.488138597828655"><ele>963.5714285714287</ele><time>2026-04-24T09:18:12.999Z</time></trkpt><trkpt lat="31.533867952627737" lon="-7.488063661241982"><ele>963.7142857142858</ele><time>2026-04-24T09:18:13.999Z</time></trkpt><trkpt lat="31.533854699073085" lon="-7.487981096925091"><ele>963.8571428571429</ele><time>2026-04-24T09:18:14.999Z</time></trkpt><trkpt lat="31.53383923089922" lon="-7.487896644343944"><ele>964.0</ele><time>2026-04-24T09:18:15.999Z</time></trkpt><trkpt lat="31.533813505721927" lon="-7.487805011931432"><ele>964.0</ele><time>2026-04-24T09:18:16.999Z</time></trkpt><trkpt lat="31.53377740657219" lon="-7.487712664835257"><ele>964.0000000000001</ele><time>2026-04-24T09:18:17.999Z</time></trkpt><trkpt lat="31.533735732014275" lon="-7.487626453258579"><ele>964.0000000000001</ele><time>2026-04-24T09:18:18.999Z</time></trkpt><trkpt lat="31.533684533764685" lon="-7.487540083462931"><ele>964.0</ele><time>2026-04-24T09:18:19.999Z</time></trkpt><trkpt lat="31.533618628317832" lon="-7.487455716123761"><ele>964.0</ele><time>2026-04-24T09:18:20.999Z</time></trkpt><trkpt lat="31.53354205348657" lon="-7.487378024924281"><ele>962.4000000000001</ele><time>2026-04-24T09:18:21.999Z</time></trkpt><trkpt lat="31.533456700527452" lon="-7.4873100647394795"><ele>960.8000000000001</ele><time>2026-04-24T09:18:22.999Z</time></trkpt><trkpt lat="31.533364176253933" lon="-7.487254562848099"><ele>959.1999999999999</ele><time>2026-04-24T09:18:23.999Z</time></trkpt><trkpt lat="31.5332680609877" lon="-7.48720551363676"><ele>957.5999999999999</ele><time>2026-04-24T09:18:24.999Z</time></trkpt><trkpt lat="31.533169418895937" lon="-7.487161731444226"><ele>956.0</ele><time>2026-04-24T09:18:25.999Z</time></trkpt><trkpt lat="31.533068604386223" lon="-7.4871168882151515"><ele>956.5999999999999</ele><time>2026-04-24T09:18:26.999Z</time></trkpt><trkpt lat="31.532967628015268" lon="-7.487069477814201"><ele>957.1999999999999</ele><time>2026-04-24T09:18:27.999Z</time></trkpt><trkpt lat="31.53286416188574" lon="-7.487021242949755"><ele>957.8000000000001</ele><time>2026-04-24T09:18:28.999Z</time></trkpt><trkpt lat="31.532760621206425" lon="-7.486970999259344"><ele>958.4000000000001</ele><time>2026-04-24T09:18:29.999Z</time></trkpt><trkpt lat="31.532656912392806" lon="-7.486921799574763"><ele>959.0</ele><time>2026-04-24T09:18:30.999Z</time></trkpt><trkpt lat="31.53254997430564" lon="-7.486874811663451"><ele>959.5</ele><time>2026-04-24T09:18:31.999Z</time></trkpt><trkpt lat="31.53244084928434" lon="-7.48682308724681"><ele>960.0</ele><time>2026-04-24T09:18:32.999Z</time></trkpt><trkpt lat="31.532327626670014" lon="-7.486769841795087"><ele>960.5</ele><time>2026-04-24T09:18:33.999Z</time></trkpt><trkpt lat="31.532208538339432" lon="-7.486714329985854"><ele>961.0</ele><time>2026-04-24T09:18:34.999Z</time></trkpt><trkpt lat="31.53208888832103" lon="-7.486660973916305"><ele>962.0</ele><time>2026-04-24T09:18:35.999Z</time></trkpt><trkpt lat="31.531968794773263" lon="-7.486604599555992"><ele>963.0</ele><time>2026-04-24T09:18:36.999Z</time></trkpt><trkpt lat="31.531849127390966" lon="-7.486546677932031"><ele>964.0</ele><time>2026-04-24T09:18:37.999Z</time></trkpt><trkpt lat="31.531728225798034" lon="-7.486489906963064"><ele>965.0</ele><time>2026-04-24T09:18:38.999Z</time></trkpt><trkpt lat="31.531605609588304" lon="-7.486431415647391"><ele>965.0</ele><time>2026-04-24T09:18:39.999Z</time></trkpt><trkpt lat="31.531485688793094" lon="-7.486374367775897"><ele>965.0</ele><time>2026-04-24T09:18:40.999Z</time></trkpt><trkpt lat="31.531374592348385" lon="-7.486307043534722"><ele>965.0</ele><time>2026-04-24T09:18:41.999Z</time></trkpt><trkpt lat="31.53125636874281" lon="-7.486248604921606"><ele>965.0</ele><time>2026-04-24T09:18:42.999Z</time></trkpt><trkpt lat="31.531149677379293" lon="-7.486171105490165"><ele>966.25</ele><time>2026-04-24T09:18:43.999Z</time></trkpt><trkpt lat="31.53104929060092" lon="-7.486078931944172"><ele>967.5</ele><time>2026-04-24T09:18:44.999Z</time></trkpt><trkpt lat="31.530952428110083" lon="-7.485980205190946"><ele>968.75</ele><time>2026-04-24T09:18:45.999Z</time></trkpt><trkpt lat="31.53086192409804" lon="-7.485880532715291"><ele>970.0</ele><time>2026-04-24T09:18:46.999Z</time></trkpt><trkpt lat="31.530770554321183" lon="-7.485764958207886"><ele>970.0</ele><time>2026-04-24T09:18:47.999Z</time></trkpt><trkpt lat="31.530679511485893" lon="-7.48564102724236"><ele>970.0</ele><time>2026-04-24T09:18:48.999Z</time></trkpt><trkpt lat="31.53058408092871" lon="-7.4855120981378604"><ele>970.0</ele><time>2026-04-24T09:18:49.999Z</time></trkpt><trkpt lat="31.5304853460975" lon="-7.4853769643673225"><ele>970.0</ele><time>2026-04-24T09:18:50.999Z</time></trkpt><trkpt lat="31.53038396718072" lon="-7.485237801178444"><ele>972.0</ele><time>2026-04-24T09:18:51.999Z</time></trkpt><trkpt lat="31.530278627568833" lon="-7.48509403454339"><ele>974.0</ele><time>2026-04-24T09:18:52.999Z</time></trkpt><trkpt lat="31.530173747810398" lon="-7.484948412727343"><ele>976.0</ele><time>2026-04-24T09:18:53.999Z</time></trkpt><trkpt lat="31.530065216566943" lon="-7.48479772095665"><ele>976.0</ele><time>2026-04-24T09:18:54.999Z</time></trkpt><trkpt lat="31.529967112328293" lon="-7.484639802660693"><ele>976.0</ele><time>2026-04-24T09:18:55.999Z</time></trkpt><trkpt lat="31.529856524275306" lon="-7.484492960412273"><ele>976.0</ele><time>2026-04-24T09:18:56.999Z</time></trkpt><trkpt lat="31.52974501595748" lon="-7.484340380589101"><ele>977.0</ele><time>2026-04-24T09:18:57.999Z</time></trkpt><trkpt lat="31.529638496229904" lon="-7.484190178667308"><ele>978.0</ele><time>2026-04-24T09:18:58.999Z</time></trkpt><trkpt lat="31.529533087858855" lon="-7.484044438954654"><ele>979.0</ele><time>2026-04-24T09:18:59.999Z</time></trkpt><trkpt lat="31.529435112809132" lon="-7.4839043740913445"><ele>981.0</ele><time>2026-04-24T09:19:00.999Z</time></trkpt><trkpt lat="31.529346700295683" lon="-7.483769673590841"><ele>983.0</ele><time>2026-04-24T09:19:01.999Z</time></trkpt><trkpt lat="31.529265973274477" lon="-7.4836377070351325"><ele>985.0</ele><time>2026-04-24T09:19:02.999Z</time></trkpt><trkpt lat="31.529191708644223" lon="-7.483512048356084"><ele>987.0</ele><time>2026-04-24T09:19:03.999Z</time></trkpt><trkpt lat="31.52912663863069" lon="-7.483384342123898"><ele>987.25</ele><time>2026-04-24T09:19:04.999Z</time></trkpt><trkpt lat="31.529074668929606" lon="-7.483257576482443"><ele>987.5</ele><time>2026-04-24T09:19:05.999Z</time></trkpt><trkpt lat="31.529011353612557" lon="-7.4831387824763365"><ele>987.75</ele><time>2026-04-24T09:19:06.999Z</time></trkpt><trkpt lat="31.528967682014144" lon="-7.483009482070789"><ele>988.0</ele><time>2026-04-24T09:19:07.999Z</time></trkpt><trkpt lat="31.528922786112986" lon="-7.482873992678889"><ele>988.75</ele><time>2026-04-24T09:19:08.999Z</time></trkpt><trkpt lat="31.528886350242654" lon="-7.482718557926824"><ele>989.5</ele><time>2026-04-24T09:19:09.999Z</time></trkpt><trkpt lat="31.52884944996582" lon="-7.482557660726542"><ele>990.25</ele><time>2026-04-24T09:19:10.998Z</time></trkpt><trkpt lat="31.528811558492677" lon="-7.482391961087943"><ele>991.0</ele><time>2026-04-24T09:19:11.998Z</time></trkpt><trkpt lat="31.528775434940023" lon="-7.482223430296046"><ele>992.5</ele><time>2026-04-24T09:19:12.998Z</time></trkpt><trkpt lat="31.528739675735842" lon="-7.482054082071162"><ele>994.0</ele><time>2026-04-24T09:19:13.998Z</time></trkpt><trkpt lat="31.528704135448578" lon="-7.481884370661983"><ele>995.5</ele><time>2026-04-24T09:19:14.998Z</time></trkpt><trkpt lat="31.528668939501035" lon="-7.481716303734479"><ele>997.0</ele><time>2026-04-24T09:19:15.998Z</time></trkpt><trkpt lat="31.52863381841745" lon="-7.481551072644835"><ele>998.0</ele><time>2026-04-24T09:19:16.998Z</time></trkpt><trkpt lat="31.528600073656968" lon="-7.481389772617417"><ele>999.0</ele><time>2026-04-24T09:19:17.998Z</time></trkpt><trkpt lat="31.528560995845464" lon="-7.481230437970207"><ele>1000.0</ele><time>2026-04-24T09:19:18.998Z</time></trkpt><trkpt lat="31.52851607986651" lon="-7.481069074899445"><ele>1001.0</ele><time>2026-04-24T09:19:19.998Z</time></trkpt><trkpt lat="31.528471767643374" lon="-7.480902052194754"><ele>1001.3333333333334</ele><time>2026-04-24T09:19:20.998Z</time></trkpt><trkpt lat="31.52840136275086" lon="-7.480741589252611"><ele>1001.6666666666667</ele><time>2026-04-24T09:19:21.998Z</time></trkpt><trkpt lat="31.528321383084815" lon="-7.480583313595133"><ele>1002.0</ele><time>2026-04-24T09:19:22.998Z</time></trkpt><trkpt lat="31.528230131212705" lon="-7.480429278894076"><ele>1002.6666666666667</ele><time>2026-04-24T09:19:23.998Z</time></trkpt><trkpt lat="31.528128136917022" lon="-7.480281516104067"><ele>1003.3333333333334</ele><time>2026-04-24T09:19:24.998Z</time></trkpt><trkpt lat="31.528018537042392" lon="-7.480142274785393"><ele>1004.0</ele><time>2026-04-24T09:19:25.998Z</time></trkpt><trkpt lat="31.527900705066084" lon="-7.480011837005824"><ele>1005.3333333333334</ele><time>2026-04-24T09:19:26.998Z</time></trkpt><trkpt lat="31.527774169182628" lon="-7.479885705264565"><ele>1006.6666666666667</ele><time>2026-04-24T09:19:27.998Z</time></trkpt><trkpt lat="31.52764327663517" lon="-7.4797659542278705"><ele>1008.0</ele><time>2026-04-24T09:19:28.998Z</time></trkpt><trkpt lat="31.527509946847516" lon="-7.479648431784092"><ele>1008.3333333333333</ele><time>2026-04-24T09:19:29.998Z</time></trkpt><trkpt lat="31.52738324446396" lon="-7.47953179496014"><ele>1008.6666666666666</ele><time>2026-04-24T09:19:30.998Z</time></trkpt><trkpt lat="31.52725621991498" lon="-7.47941088595414"><ele>1009.0</ele><time>2026-04-24T09:19:31.998Z</time></trkpt><trkpt lat="31.52713194416087" lon="-7.479283483002992"><ele>1009.3333333333333</ele><time>2026-04-24T09:19:32.998Z</time></trkpt><trkpt lat="31.527014075651692" lon="-7.479147181249083"><ele>1009.6666666666667</ele><time>2026-04-24T09:19:33.998Z</time></trkpt><trkpt lat="31.52689997610162" lon="-7.479007381449712"><ele>1010.0</ele><time>2026-04-24T09:19:35Z</time></trkpt><trkpt lat="31.526787569095614" lon="-7.478866684814771"><ele>1011.6666666666667</ele><time>2026-04-24T09:19:36Z</time></trkpt><trkpt lat="31.526678950219353" lon="-7.4787272049391555"><ele>1013.3333333333333</ele><time>2026-04-24T09:19:37Z</time></trkpt><trkpt lat="31.526574980944588" lon="-7.478588808615671"><ele>1015.0</ele><time>2026-04-24T09:19:38Z</time></trkpt><trkpt lat="31.52647894560366" lon="-7.4784583760438235"><ele>1015.0</ele><time>2026-04-24T09:19:39Z</time></trkpt><trkpt lat="31.526386962256858" lon="-7.47832907546417"><ele>1015.0</ele><time>2026-04-24T09:19:40Z</time></trkpt><trkpt lat="31.52629717010882" lon="-7.478196227405559"><ele>1015.0</ele><time>2026-04-24T09:19:41Z</time></trkpt><trkpt lat="31.526210004281253" lon="-7.478056917036733"><ele>1015.0</ele><time>2026-04-24T09:19:42Z</time></trkpt><trkpt lat="31.526127868269224" lon="-7.47790764502127"><ele>1016.0</ele><time>2026-04-24T09:19:43Z</time></trkpt><trkpt lat="31.526029021441285" lon="-7.477767128014743"><ele>1017.0</ele><time>2026-04-24T09:19:44Z</time></trkpt><trkpt lat="31.52593811379115" lon="-7.477609700159482"><ele>1018.0</ele><time>2026-04-24T09:19:45Z</time></trkpt><trkpt lat="31.525850967611397" lon="-7.4774467655459835"><ele>1018.0</ele><time>2026-04-24T09:19:46Z</time></trkpt><trkpt lat="31.52576316501141" lon="-7.477282153340264"><ele>1018.0</ele><time>2026-04-24T09:19:47Z</time></trkpt><trkpt lat="31.525674478131528" lon="-7.477115176695817"><ele>1018.0</ele><time>2026-04-24T09:19:48Z</time></trkpt><trkpt lat="31.525586055871667" lon="-7.476948250558608"><ele>1018.6666666666666</ele><time>2026-04-24T09:19:49Z</time></trkpt><trkpt lat="31.525496926147397" lon="-7.476780650385587"><ele>1019.3333333333333</ele><time>2026-04-24T09:19:50Z</time></trkpt><trkpt lat="31.5254086927341" lon="-7.476615289242829"><ele>1020.0</ele><time>2026-04-24T09:19:51Z</time></trkpt><trkpt lat="31.525322269030415" lon="-7.476451451344632"><ele>1021.0</ele><time>2026-04-24T09:19:52Z</time></trkpt><trkpt lat="31.525235311398482" lon="-7.476288101669984"><ele>1022.0</ele><time>2026-04-24T09:19:53Z</time></trkpt><trkpt lat="31.52514988855286" lon="-7.47612690656382"><ele>1023.0</ele><time>2026-04-24T09:19:54Z</time></trkpt><trkpt lat="31.525064709105617" lon="-7.475966148509367"><ele>1023.3333333333333</ele><time>2026-04-24T09:19:55Z</time></trkpt><trkpt lat="31.52497468839127" lon="-7.475796887674221"><ele>1023.6666666666666</ele><time>2026-04-24T09:19:56Z</time></trkpt><trkpt lat="31.524883888719746" lon="-7.475623233912032"><ele>1024.0</ele><time>2026-04-24T09:19:57Z</time></trkpt><trkpt lat="31.524792889284107" lon="-7.475449982377245"><ele>1023.6666666666666</ele><time>2026-04-24T09:19:57.999Z</time></trkpt><trkpt lat="31.524704723572725" lon="-7.4752826302591515"><ele>1023.3333333333333</ele><time>2026-04-24T09:19:58.999Z</time></trkpt><trkpt lat="31.52461993072065" lon="-7.4751214508564185"><ele>1023.0</ele><time>2026-04-24T09:19:59.999Z</time></trkpt><trkpt lat="31.524538008649326" lon="-7.474966848781878"><ele>1025.6666666666667</ele><time>2026-04-24T09:20:00.999Z</time></trkpt><trkpt lat="31.52445653977015" lon="-7.474814026100365"><ele>1028.3333333333335</ele><time>2026-04-24T09:20:01.999Z</time></trkpt><trkpt lat="31.52437646532953" lon="-7.474664090882487"><ele>1031.0</ele><time>2026-04-24T09:20:02.999Z</time></trkpt><trkpt lat="31.52429583775303" lon="-7.474513728236631"><ele>1031.0</ele><time>2026-04-24T09:20:03.999Z</time></trkpt><trkpt lat="31.52421595402879" lon="-7.474364379829499"><ele>1031.0</ele><time>2026-04-24T09:20:04.999Z</time></trkpt><trkpt lat="31.524130103976145" lon="-7.474211250081461"><ele>1031.0</ele><time>2026-04-24T09:20:05.999Z</time></trkpt><trkpt lat="31.52404264890066" lon="-7.4740552120201045"><ele>1031.0</ele><time>2026-04-24T09:20:06.999Z</time></trkpt><trkpt lat="31.52395615032983" lon="-7.473896909822756"><ele>1031.0</ele><time>2026-04-24T09:20:07.999Z</time></trkpt><trkpt lat="31.523841975717946" lon="-7.473763880860578"><ele>1031.0</ele><time>2026-04-24T09:20:08.999Z</time></trkpt><trkpt lat="31.523709470012125" lon="-7.473658756526764"><ele>1033.3333333333335</ele><time>2026-04-24T09:20:09.999Z</time></trkpt><trkpt lat="31.52357736423583" lon="-7.473554524225586"><ele>1035.6666666666667</ele><time>2026-04-24T09:20:10.999Z</time></trkpt><trkpt lat="31.523451773088954" lon="-7.473432711964696"><ele>1038.0</ele><time>2026-04-24T09:20:11.999Z</time></trkpt><trkpt lat="31.52331065664511" lon="-7.473343840224541"><ele>1038.0</ele><time>2026-04-24T09:20:12.999Z</time></trkpt><trkpt lat="31.523159875631777" lon="-7.473265796816123"><ele>1038.0</ele><time>2026-04-24T09:20:13.999Z</time></trkpt><trkpt lat="31.52300051996753" lon="-7.473197087051225"><ele>1038.0</ele><time>2026-04-24T09:20:14.999Z</time></trkpt><trkpt lat="31.52283451708873" lon="-7.473137486702865"><ele>1042.0</ele><time>2026-04-24T09:20:15.999Z</time></trkpt><trkpt lat="31.522661005243855" lon="-7.473086719675896"><ele>1046.0</ele><time>2026-04-24T09:20:16.999Z</time></trkpt><trkpt lat="31.522485484166364" lon="-7.473041354845214"><ele>1050.0</ele><time>2026-04-24T09:20:17.999Z</time></trkpt><trkpt lat="31.522309318818827" lon="-7.472996484460995"><ele>1050.0</ele><time>2026-04-24T09:20:18.999Z</time></trkpt><trkpt lat="31.522132374279323" lon="-7.472951240477511"><ele>1050.0</ele><time>2026-04-24T09:20:19.999Z</time></trkpt><trkpt lat="31.521952697033452" lon="-7.472903906797775"><ele>1050.0</ele><time>2026-04-24T09:20:20.999Z</time></trkpt><trkpt lat="31.521774768583384" lon="-7.472858432190991"><ele>1047.3333333333333</ele><time>2026-04-24T09:20:21.999Z</time></trkpt><trkpt lat="31.52160423451636" lon="-7.472817443129307"><ele>1044.6666666666665</ele><time>2026-04-24T09:20:22.999Z</time></trkpt><trkpt lat="31.521444404983225" lon="-7.472784153917156"><ele>1042.0</ele><time>2026-04-24T09:20:23.999Z</time></trkpt><trkpt lat="31.521278623075887" lon="-7.4727640115509635"><ele>1043.0</ele><time>2026-04-24T09:20:24.999Z</time></trkpt><trkpt lat="31.52110338788848" lon="-7.472752938316407"><ele>1044.0</ele><time>2026-04-24T09:20:25.999Z</time></trkpt><trkpt lat="31.520918359927364" lon="-7.472750009473057"><ele>1045.0</ele><time>2026-04-24T09:20:26.999Z</time></trkpt><trkpt lat="31.52072860538467" lon="-7.472759227948984"><ele>1045.0</ele><time>2026-04-24T09:20:27.999Z</time></trkpt><trkpt lat="31.520537003580106" lon="-7.472780283103287"><ele>1045.0</ele><time>2026-04-24T09:20:28.999Z</time></trkpt><trkpt lat="31.52034146367305" lon="-7.472803349936725"><ele>1045.0</ele><time>2026-04-24T09:20:29.999Z</time></trkpt><trkpt lat="31.5201428847382" lon="-7.4728239921891895"><ele>1046.6666666666665</ele><time>2026-04-24T09:20:30.999Z</time></trkpt><trkpt lat="31.51994132854628" lon="-7.47284289182845"><ele>1048.3333333333333</ele><time>2026-04-24T09:20:31.999Z</time></trkpt><trkpt lat="31.519744299041697" lon="-7.472856409249965"><ele>1050.0</ele><time>2026-04-24T09:20:32.999Z</time></trkpt><trkpt lat="31.519547387279225" lon="-7.472870339670673"><ele>1051.6666666666667</ele><time>2026-04-24T09:20:33.999Z</time></trkpt><trkpt lat="31.519350363739242" lon="-7.47288479992493"><ele>1053.3333333333335</ele><time>2026-04-24T09:20:34.999Z</time></trkpt><trkpt lat="31.519152388560375" lon="-7.4729004966294665"><ele>1055.0</ele><time>2026-04-24T09:20:35.999Z</time></trkpt><trkpt lat="31.518956870080157" lon="-7.472918154502301"><ele>1055.0</ele><time>2026-04-24T09:20:36.999Z</time></trkpt><trkpt lat="31.518772135636507" lon="-7.4729334400005225"><ele>1055.0</ele><time>2026-04-24T09:20:37.999Z</time></trkpt><trkpt lat="31.5185988659118" lon="-7.472945510748991"><ele>1055.0</ele><time>2026-04-24T09:20:38.999Z</time></trkpt><trkpt lat="31.51843306434131" lon="-7.472954831328784"><ele>1056.5</ele><time>2026-04-24T09:20:39.999Z</time></trkpt><trkpt lat="31.51827617745529" lon="-7.472955995758903"><ele>1058.0</ele><time>2026-04-24T09:20:40.999Z</time></trkpt><trkpt lat="31.518127181376414" lon="-7.472950473992804"><ele>1059.5</ele><time>2026-04-24T09:20:41.999Z</time></trkpt><trkpt lat="31.51798998265304" lon="-7.472926752183544"><ele>1061.0</ele><time>2026-04-24T09:20:42.999Z</time></trkpt><trkpt lat="31.517862049902483" lon="-7.472886417688384"><ele>1062.5</ele><time>2026-04-24T09:20:43.999Z</time></trkpt><trkpt lat="31.51773811592259" lon="-7.472831336507551"><ele>1064.0</ele><time>2026-04-24T09:20:44.999Z</time></trkpt><trkpt lat="31.51761703571034" lon="-7.472761912503068"><ele>1065.5</ele><time>2026-04-24T09:20:45.999Z</time></trkpt><trkpt lat="31.51749353776588" lon="-7.472681617482397"><ele>1067.0</ele><time>2026-04-24T09:20:46.999Z</time></trkpt><trkpt lat="31.517367864460198" lon="-7.472598906771219"><ele>1067.0</ele><time>2026-04-24T09:20:47.999Z</time></trkpt><trkpt lat="31.51723434991049" lon="-7.4725272615031395"><ele>1067.0</ele><time>2026-04-24T09:20:48.999Z</time></trkpt><trkpt lat="31.517093099607422" lon="-7.472470973846007"><ele>1067.0</ele><time>2026-04-24T09:20:49.999Z</time></trkpt><trkpt lat="31.516951290989315" lon="-7.4724226882546825"><ele>1067.0</ele><time>2026-04-24T09:20:50.999Z</time></trkpt><trkpt lat="31.516805105717268" lon="-7.472380769751067"><ele>1070.6666666666667</ele><time>2026-04-24T09:20:51.999Z</time></trkpt><trkpt lat="31.516656527894682" lon="-7.472340704735664"><ele>1074.3333333333333</ele><time>2026-04-24T09:20:52.999Z</time></trkpt><trkpt lat="31.516509178304005" lon="-7.472303163557682"><ele>1078.0</ele><time>2026-04-24T09:20:53.999Z</time></trkpt><trkpt lat="31.51635976954508" lon="-7.472278255835802"><ele>1078.3333333333333</ele><time>2026-04-24T09:20:54.999Z</time></trkpt><trkpt lat="31.516206155285403" lon="-7.472269585312795"><ele>1078.6666666666667</ele><time>2026-04-24T09:20:55.999Z</time></trkpt><trkpt lat="31.516051484131733" lon="-7.472278496268344"><ele>1079.0</ele><time>2026-04-24T09:20:56.999Z</time></trkpt><trkpt lat="31.515900727501027" lon="-7.472305372142971"><ele>1079.0</ele><time>2026-04-24T09:20:57.999Z</time></trkpt><trkpt lat="31.515753010435006" lon="-7.472350114563638"><ele>1079.0</ele><time>2026-04-24T09:20:58.999Z</time></trkpt><trkpt lat="31.515608220690304" lon="-7.472413307953752"><ele>1079.0</ele><time>2026-04-24T09:20:59.999Z</time></trkpt><trkpt lat="31.515465806921366" lon="-7.472495994851228"><ele>1078.3333333333335</ele><time>2026-04-24T09:21:00.999Z</time></trkpt><trkpt lat="31.51532738920599" lon="-7.472589737614263"><ele>1077.6666666666667</ele><time>2026-04-24T09:21:01.999Z</time></trkpt><trkpt lat="31.5151919698305" lon="-7.4726815271929725"><ele>1077.0</ele><time>2026-04-24T09:21:02.999Z</time></trkpt><trkpt lat="31.515059686325134" lon="-7.472767517369659"><ele>1077.0</ele><time>2026-04-24T09:21:03.999Z</time></trkpt><trkpt lat="31.514933661139143" lon="-7.472845447767342"><ele>1077.0</ele><time>2026-04-24T09:21:04.999Z</time></trkpt><trkpt lat="31.514808924527415" lon="-7.4729202977262466"><ele>1077.0</ele><time>2026-04-24T09:21:05.999Z</time></trkpt><trkpt lat="31.51467796782529" lon="-7.472959757122558"><ele>1077.0</ele><time>2026-04-24T09:21:06.999Z</time></trkpt><trkpt lat="31.514538994286035" lon="-7.472971503633118"><ele>1078.0</ele><time>2026-04-24T09:21:07.999Z</time></trkpt><trkpt lat="31.514401604812125" lon="-7.472958429023013"><ele>1079.0</ele><time>2026-04-24T09:21:08.999Z</time></trkpt><trkpt lat="31.514253636900715" lon="-7.4729177475708966"><ele>1080.0</ele><time>2026-04-24T09:21:09.999Z</time></trkpt><trkpt lat="31.514095238424037" lon="-7.472865322580862"><ele>1080.0</ele><time>2026-04-24T09:21:10.999Z</time></trkpt><trkpt lat="31.51392813351203" lon="-7.472810413662543"><ele>1080.0</ele><time>2026-04-24T09:21:11.999Z</time></trkpt><trkpt lat="31.513748282541435" lon="-7.472760232207487"><ele>1080.0</ele><time>2026-04-24T09:21:12.999Z</time></trkpt><trkpt lat="31.51355663085541" lon="-7.472708002736705"><ele>1083.0</ele><time>2026-04-24T09:21:13.999Z</time></trkpt><trkpt lat="31.513155702585962" lon="-7.472596193475082"><ele>1086.0</ele><time>2026-04-24T09:21:15.998Z</time></trkpt><trkpt lat="31.512951854846065" lon="-7.472540109505868"><ele>1089.0</ele><time>2026-04-24T09:21:16.998Z</time></trkpt><trkpt lat="31.51274896381246" lon="-7.472483443335595"><ele>1092.0</ele><time>2026-04-24T09:21:17.998Z</time></trkpt><trkpt lat="31.512549183441063" lon="-7.472428310629189"><ele>1095.0</ele><time>2026-04-24T09:21:18.998Z</time></trkpt><trkpt lat="31.512356036417295" lon="-7.472375024681863"><ele>1095.0</ele><time>2026-04-24T09:21:19.998Z</time></trkpt><trkpt lat="31.51217200804757" lon="-7.472325231933897"><ele>1095.0</ele><time>2026-04-24T09:21:20.998Z</time></trkpt><trkpt lat="31.51200351267542" lon="-7.47227969318524"><ele>1095.0</ele><time>2026-04-24T09:21:21.998Z</time></trkpt><trkpt lat="31.511848340991914" lon="-7.472237577383255"><ele>1097.0</ele><time>2026-04-24T09:21:22.998Z</time></trkpt><trkpt lat="31.511698193180887" lon="-7.472195000563162"><ele>1099.0</ele><time>2026-04-24T09:21:23.998Z</time></trkpt><trkpt lat="31.511554493966596" lon="-7.4721529342720086"><ele>1101.0</ele><time>2026-04-24T09:21:24.998Z</time></trkpt><trkpt lat="31.51141944824003" lon="-7.472101400971315"><ele>1103.0</ele><time>2026-04-24T09:21:25.998Z</time></trkpt><trkpt lat="31.5113004655736" lon="-7.4720266489663985"><ele>1104.75</ele><time>2026-04-24T09:21:26.998Z</time></trkpt><trkpt lat="31.511198243363452" lon="-7.471929263925085"><ele>1106.5</ele><time>2026-04-24T09:21:27.998Z</time></trkpt><trkpt lat="31.511113043204826" lon="-7.471813880196055"><ele>1108.25</ele><time>2026-04-24T09:21:28.998Z</time></trkpt><trkpt lat="31.511048891920545" lon="-7.471684154678278"><ele>1110.0</ele><time>2026-04-24T09:21:29.998Z</time></trkpt><trkpt lat="31.51100526888547" lon="-7.471542487132934"><ele>1110.0</ele><time>2026-04-24T09:21:30.998Z</time></trkpt><trkpt lat="31.51098338462928" lon="-7.471393718764725"><ele>1110.0</ele><time>2026-04-24T09:21:31.998Z</time></trkpt><trkpt lat="31.51098559089787" lon="-7.471242863569568"><ele>1110.0</ele><time>2026-04-24T09:21:32.998Z</time></trkpt><trkpt lat="31.511010517002966" lon="-7.471094238950495"><ele>1110.0</ele><time>2026-04-24T09:21:33.998Z</time></trkpt><trkpt lat="31.511060056847313" lon="-7.470952355722651"><ele>1109.5</ele><time>2026-04-24T09:21:34.998Z</time></trkpt><trkpt lat="31.51112970695403" lon="-7.470822282356029"><ele>1109.0</ele><time>2026-04-24T09:21:35.998Z</time></trkpt><trkpt lat="31.5112170702936" lon="-7.470707547615941"><ele>1108.5</ele><time>2026-04-24T09:21:36.998Z</time></trkpt><trkpt lat="31.51132302856256" lon="-7.470609139598161"><ele>1108.0</ele><time>2026-04-24T09:21:37.998Z</time></trkpt><trkpt lat="31.51144441102365" lon="-7.470530700556721"><ele>1108.75</ele><time>2026-04-24T09:21:38.998Z</time></trkpt><trkpt lat="31.511580432995327" lon="-7.470476266066834"><ele>1109.5</ele><time>2026-04-24T09:21:39.998Z</time></trkpt><trkpt lat="31.511723673917317" lon="-7.470440339787805"><ele>1110.25</ele><time>2026-04-24T09:21:41Z</time></trkpt><trkpt lat="31.511867448801087" lon="-7.47041839778719"><ele>1111.0</ele><time>2026-04-24T09:21:42Z</time></trkpt><trkpt lat="31.512009423243363" lon="-7.4703947918140265"><ele>1111.5</ele><time>2026-04-24T09:21:43Z</time></trkpt><trkpt lat="31.51214600434812" lon="-7.470365868233899"><ele>1112.0</ele><time>2026-04-24T09:21:44Z</time></trkpt><trkpt lat="31.512272904753555" lon="-7.47033755784588"><ele>1112.5</ele><time>2026-04-24T09:21:45Z</time></trkpt><trkpt lat="31.512392154119947" lon="-7.470300782608239"><ele>1113.0</ele><time>2026-04-24T09:21:46Z</time></trkpt><trkpt lat="31.512507069154" lon="-7.470241492490172"><ele>1113.0</ele><time>2026-04-24T09:21:47Z</time></trkpt><trkpt lat="31.51260803134567" lon="-7.470154957015008"><ele>1113.0</ele><time>2026-04-24T09:21:48Z</time></trkpt><trkpt lat="31.512695864941985" lon="-7.470049230202453"><ele>1113.0</ele><time>2026-04-24T09:21:49Z</time></trkpt><trkpt lat="31.512766761583418" lon="-7.469930049582869"><ele>1113.0</ele><time>2026-04-24T09:21:50Z</time></trkpt><trkpt lat="31.512811918124747" lon="-7.46979664226761"><ele>1113.0</ele><time>2026-04-24T09:21:51Z</time></trkpt><trkpt lat="31.51283373553807" lon="-7.469655659968778"><ele>1113.0</ele><time>2026-04-24T09:21:52Z</time></trkpt><trkpt lat="31.512831367566594" lon="-7.469510077599123"><ele>1113.0</ele><time>2026-04-24T09:21:53Z</time></trkpt><trkpt lat="31.51280375713629" lon="-7.469366773054749"><ele>1113.0</ele><time>2026-04-24T09:21:54Z</time></trkpt><trkpt lat="31.512753340702947" lon="-7.469229958103877"><ele>1116.25</ele><time>2026-04-24T09:21:55Z</time></trkpt><trkpt lat="31.51267966480232" lon="-7.469104520526214"><ele>1119.5</ele><time>2026-04-24T09:21:56Z</time></trkpt><trkpt lat="31.512583196187606" lon="-7.46900190596276"><ele>1122.75</ele><time>2026-04-24T09:21:57Z</time></trkpt><trkpt lat="31.512468571977493" lon="-7.46892491749724"><ele>1126.0</ele><time>2026-04-24T09:21:58Z</time></trkpt><trkpt lat="31.512340549653935" lon="-7.468873781345236"><ele>1126.0</ele><time>2026-04-24T09:21:59Z</time></trkpt><trkpt lat="31.51220454289863" lon="-7.468850081739151"><ele>1126.0</ele><time>2026-04-24T09:22:00Z</time></trkpt><trkpt lat="31.512061542184284" lon="-7.468840896314527"><ele>1126.0</ele><time>2026-04-24T09:22:01Z</time></trkpt><trkpt lat="31.511917116688753" lon="-7.46882136880432"><ele>1126.0</ele><time>2026-04-24T09:22:02Z</time></trkpt><trkpt lat="31.51177193742318" lon="-7.468800924610278"><ele>1126.0</ele><time>2026-04-24T09:22:03Z</time></trkpt><trkpt lat="31.511624120005123" lon="-7.468785821045801"><ele>1126.0</ele><time>2026-04-24T09:22:03.999Z</time></trkpt><trkpt lat="31.511478988541537" lon="-7.468774785445759"><ele>1126.0</ele><time>2026-04-24T09:22:04.999Z</time></trkpt><trkpt lat="31.511335427969172" lon="-7.468764827724817"><ele>1126.0</ele><time>2026-04-24T09:22:05.999Z</time></trkpt><trkpt lat="31.51119420743471" lon="-7.468750634317163"><ele>1127.5</ele><time>2026-04-24T09:22:06.999Z</time></trkpt><trkpt lat="31.511054222329737" lon="-7.468725413226091"><ele>1129.0</ele><time>2026-04-24T09:22:07.999Z</time></trkpt><trkpt lat="31.510919089002854" lon="-7.468683453894059"><ele>1130.5</ele><time>2026-04-24T09:22:08.999Z</time></trkpt><trkpt lat="31.510789045259436" lon="-7.468621125879144"><ele>1132.0</ele><time>2026-04-24T09:22:09.999Z</time></trkpt><trkpt lat="31.510663933916142" lon="-7.468538083112947"><ele>1132.0</ele><time>2026-04-24T09:22:10.999Z</time></trkpt><trkpt lat="31.510545392952803" lon="-7.468436496870359"><ele>1132.0</ele><time>2026-04-24T09:22:11.999Z</time></trkpt><trkpt lat="31.510432115424017" lon="-7.4683131556444975"><ele>1132.0</ele><time>2026-04-24T09:22:12.999Z</time></trkpt><trkpt lat="31.51032291334539" lon="-7.468171880642405"><ele>1133.6666666666665</ele><time>2026-04-24T09:22:13.999Z</time></trkpt><trkpt lat="31.510214575341738" lon="-7.468017834208625"><ele>1135.3333333333333</ele><time>2026-04-24T09:22:14.999Z</time></trkpt><trkpt lat="31.51010501947568" lon="-7.467858241864256"><ele>1137.0</ele><time>2026-04-24T09:22:15.999Z</time></trkpt><trkpt lat="31.50999448262957" lon="-7.467697042091575"><ele>1139.3333333333333</ele><time>2026-04-24T09:22:16.999Z</time></trkpt><trkpt lat="31.509877291600482" lon="-7.467537204705254"><ele>1141.6666666666665</ele><time>2026-04-24T09:22:17.999Z</time></trkpt><trkpt lat="31.50975047740366" lon="-7.46738393348839"><ele>1144.0</ele><time>2026-04-24T09:22:18.999Z</time></trkpt><trkpt lat="31.509615976902904" lon="-7.467238116780591"><ele>1144.3333333333333</ele><time>2026-04-24T09:22:19.999Z</time></trkpt><trkpt lat="31.509472080969687" lon="-7.467102451055388"><ele>1144.6666666666667</ele><time>2026-04-24T09:22:20.999Z</time></trkpt><trkpt lat="31.509326315912638" lon="-7.466988335877843"><ele>1145.0</ele><time>2026-04-24T09:22:21.999Z</time></trkpt><trkpt lat="31.50917558401891" lon="-7.46688865743276"><ele>1145.0</ele><time>2026-04-24T09:22:22.999Z</time></trkpt><trkpt lat="31.509016085121193" lon="-7.466800449971142"><ele>1145.0</ele><time>2026-04-24T09:22:23.999Z</time></trkpt><trkpt lat="31.50884821289023" lon="-7.466721174915"><ele>1145.0</ele><time>2026-04-24T09:22:24.999Z</time></trkpt><trkpt lat="31.508675672787522" lon="-7.466654231854963"><ele>1148.3333333333335</ele><time>2026-04-24T09:22:25.999Z</time></trkpt><trkpt lat="31.50850128147359" lon="-7.466590899391182"><ele>1151.6666666666667</ele><time>2026-04-24T09:22:26.999Z</time></trkpt><trkpt lat="31.50832652963054" lon="-7.4665326379386725"><ele>1155.0</ele><time>2026-04-24T09:22:27.999Z</time></trkpt><trkpt lat="31.508152220305835" lon="-7.46647624759459"><ele>1155.0</ele><time>2026-04-24T09:22:28.999Z</time></trkpt><trkpt lat="31.507983331341944" lon="-7.466419208357525"><ele>1155.0</ele><time>2026-04-24T09:22:29.999Z</time></trkpt><trkpt lat="31.50782364169566" lon="-7.466364032536837"><ele>1155.0</ele><time>2026-04-24T09:22:30.999Z</time></trkpt><trkpt lat="31.50767134015159" lon="-7.46631452717532"><ele>1155.3333333333333</ele><time>2026-04-24T09:22:31.999Z</time></trkpt><trkpt lat="31.50751828275912" lon="-7.466261480739663"><ele>1155.6666666666665</ele><time>2026-04-24T09:22:32.999Z</time></trkpt><trkpt lat="31.507364036050216" lon="-7.466214106938023"><ele>1156.0</ele><time>2026-04-24T09:22:33.999Z</time></trkpt><trkpt lat="31.507210512762942" lon="-7.466164314467218"><ele>1159.6666666666665</ele><time>2026-04-24T09:22:34.999Z</time></trkpt><trkpt lat="31.507061181202122" lon="-7.4661130795947495"><ele>1163.3333333333333</ele><time>2026-04-24T09:22:35.999Z</time></trkpt><trkpt lat="31.506916356374102" lon="-7.466062444705677"><ele>1167.0</ele><time>2026-04-24T09:22:36.999Z</time></trkpt><trkpt lat="31.506778132262877" lon="-7.466011989841401"><ele>1167.0</ele><time>2026-04-24T09:22:37.999Z</time></trkpt><trkpt lat="31.50664483631871" lon="-7.465964165887166"><ele>1167.0</ele><time>2026-04-24T09:22:38.999Z</time></trkpt><trkpt lat="31.50651252654577" lon="-7.465918050826966"><ele>1167.0</ele><time>2026-04-24T09:22:39.999Z</time></trkpt><trkpt lat="31.506385851349823" lon="-7.465871386119588"><ele>1167.0</ele><time>2026-04-24T09:22:40.999Z</time></trkpt><trkpt lat="31.50626646559571" lon="-7.4658266298621125"><ele>1168.6</ele><time>2026-04-24T09:22:41.999Z</time></trkpt><trkpt lat="31.506161080378963" lon="-7.465782873334513"><ele>1170.2</ele><time>2026-04-24T09:22:42.999Z</time></trkpt><trkpt lat="31.506070851327685" lon="-7.465743202332682"><ele>1171.8</ele><time>2026-04-24T09:22:43.999Z</time></trkpt><trkpt lat="31.505998330610144" lon="-7.4657098622654505"><ele>1173.4</ele><time>2026-04-24T09:22:44.999Z</time></trkpt><trkpt lat="31.505909662410517" lon="-7.465689034385945"><ele>1175.0</ele><time>2026-04-24T09:22:46.999Z</time></trkpt><trkpt lat="31.50583158563912" lon="-7.465755937018403"><ele>1175.0</ele><time>2026-04-24T09:22:49.999Z</time></trkpt><trkpt lat="31.50580149520736" lon="-7.4658630819467735"><ele>1175.0</ele><time>2026-04-24T09:22:51.999Z</time></trkpt><trkpt lat="31.50577434760055" lon="-7.465943217087523"><ele>1175.0</ele><time>2026-04-24T09:22:53.999Z</time></trkpt><trkpt lat="31.50575467989946" lon="-7.466045812259345"><ele>1175.0</ele><time>2026-04-24T09:22:56.999Z</time></trkpt><trkpt lat="31.505737051658514" lon="-7.46611975151258"><ele>1175.0</ele><time>2026-04-24T09:22:58.999Z</time></trkpt><trkpt lat="31.505708313585828" lon="-7.466191469904289"><ele>1175.0</ele><time>2026-04-24T09:23:00.999Z</time></trkpt><trkpt lat="31.50564313635695" lon="-7.466219963397336"><ele>1175.0</ele><time>2026-04-24T09:23:03.999Z</time></trkpt><trkpt lat="31.505717152609957" lon="-7.46624123397911"><ele>1175.0</ele><time>2026-04-24T09:23:04.999Z</time></trkpt><trkpt lat="31.505704887547314" lon="-7.46588474209364"><ele>1175.0</ele><time>2026-04-24T09:23:45.998Z</time></trkpt><trkpt lat="31.505452250816788" lon="-7.466221382577435"><ele>1175.0</ele><time>2026-04-24T09:24:52.999Z</time></trkpt><trkpt lat="31.505688210925104" lon="-7.466223606221998"><ele>1175.0</ele><time>2026-04-24T09:26:26.999Z</time></trkpt><trkpt lat="31.50575946260928" lon="-7.466256724978856"><ele>1175.0</ele><time>2026-04-24T09:26:33.999Z</time></trkpt><trkpt lat="31.505699271482214" lon="-7.466279128874369"><ele>1175.0</ele><time>2026-04-24T09:41:26.999Z</time></trkpt><trkpt lat="31.5056288732251" lon="-7.466278052856472"><ele>1175.0</ele><time>2026-04-24T09:41:38.999Z</time></trkpt><trkpt lat="31.505722434736303" lon="-7.46627256749596"><ele>1175.0</ele><time>2026-04-24T09:42:33.998Z</time></trkpt><trkpt lat="31.505690464459473" lon="-7.466349583276059"><ele>1175.0</ele><time>2026-04-24T09:42:37.998Z</time></trkpt><trkpt lat="31.505616034699404" lon="-7.466403120710799"><ele>1175.0</ele><time>2026-04-24T09:48:36.998Z</time></trkpt><trkpt lat="31.50565516748051" lon="-7.466316553899737"><ele>1175.0</ele><time>2026-04-24T09:48:40.998Z</time></trkpt><trkpt lat="31.505632038836147" lon="-7.466228128089392"><ele>1175.0</ele><time>2026-04-24T09:48:45.998Z</time></trkpt><trkpt lat="31.505696091924356" lon="-7.466171581102409"><ele>1175.0</ele><time>2026-04-24T09:48:49.998Z</time></trkpt><trkpt lat="31.505764506923928" lon="-7.466222994939702"><ele>1175.0</ele><time>2026-04-24T09:48:51.998Z</time></trkpt><trkpt lat="31.505703421561602" lon="-7.466201649523293"><ele>1175.0</ele><time>2026-04-24T09:49:07Z</time></trkpt><trkpt lat="31.50563701802784" lon="-7.466197038070034"><ele>1175.0</ele><time>2026-04-24T09:49:11Z</time></trkpt><trkpt lat="31.50556439928201" lon="-7.4662021121234545"><ele>1175.0</ele><time>2026-04-24T09:49:15Z</time></trkpt><trkpt lat="31.505537997424746" lon="-7.466278652656339"><ele>1175.0</ele><time>2026-04-24T09:49:19.999Z</time></trkpt><trkpt lat="31.505512734073058" lon="-7.466362344740614"><ele>1175.0</ele><time>2026-04-24T09:49:24.999Z</time></trkpt><trkpt lat="31.505503416136843" lon="-7.466443839690213"><ele>1175.0</ele><time>2026-04-24T09:49:28.999Z</time></trkpt><trkpt lat="31.50544235225673" lon="-7.466422663841042"><ele>1175.0</ele><time>2026-04-24T09:49:45.999Z</time></trkpt><trkpt lat="31.505368814305175" lon="-7.4664242647524945"><ele>1175.0</ele><time>2026-04-24T09:49:52.999Z</time></trkpt><trkpt lat="31.5053068441965" lon="-7.466439130950853"><ele>1175.0</ele><time>2026-04-24T09:49:55.999Z</time></trkpt><trkpt lat="31.505247841751654" lon="-7.466396746738846"><ele>1175.0</ele><time>2026-04-24T09:49:59.999Z</time></trkpt><trkpt lat="31.505392437011952" lon="-7.466339412361292"><ele>1175.0</ele><time>2026-04-24T09:50:58.545Z</time></trkpt><trkpt lat="31.505546346977273" lon="-7.466263620420583"><ele>1175.0</ele><time>2026-04-24T09:51:00.998Z</time></trkpt><trkpt lat="31.505610109241207" lon="-7.466227362422806"><ele>1175.0</ele><time>2026-04-24T09:51:36.999Z</time></trkpt><trkpt lat="31.505659260308157" lon="-7.466295494030001"><ele>1175.0</ele><time>2026-04-24T09:51:43.999Z</time></trkpt><trkpt lat="31.505702765832932" lon="-7.466355911873126"><ele>1175.0</ele><time>2026-04-24T09:51:49.999Z</time></trkpt><trkpt lat="31.50574130605107" lon="-7.466265877492995"><ele>1175.0</ele><time>2026-04-24T09:53:32Z</time></trkpt><trkpt lat="31.50568313087257" lon="-7.4662335724020945"><ele>1175.0</ele><time>2026-04-24T09:53:40Z</time></trkpt><trkpt lat="31.505624166594522" lon="-7.466202547644824"><ele>1175.0</ele><time>2026-04-24T09:53:45Z</time></trkpt><trkpt lat="31.505711253014226" lon="-7.466175698111559"><ele>1175.0</ele><time>2026-04-24T09:55:08.999Z</time></trkpt><trkpt lat="31.505731696625254" lon="-7.466097183432268"><ele>1175.0</ele><time>2026-04-24T09:55:10.999Z</time></trkpt><trkpt lat="31.505741835313373" lon="-7.466019065571882"><ele>1175.0</ele><time>2026-04-24T09:55:12.999Z</time></trkpt><trkpt lat="31.505739138414427" lon="-7.465928645122827"><ele>1175.0</ele><time>2026-04-24T09:55:14.999Z</time></trkpt><trkpt lat="31.505725631299818" lon="-7.465835340022717"><ele>1175.0</ele><time>2026-04-24T09:55:17Z</time></trkpt><trkpt lat="31.5056838572638" lon="-7.46576171307666"><ele>1175.0</ele><time>2026-04-24T09:55:19Z</time></trkpt><trkpt lat="31.505622466517625" lon="-7.465708283514238"><ele>1175.0</ele><time>2026-04-24T09:55:21Z</time></trkpt><trkpt lat="31.505572720892218" lon="-7.465607547258848"><ele>1175.0</ele><time>2026-04-24T09:55:23Z</time></trkpt><trkpt lat="31.505527334265913" lon="-7.465499816008414"><ele>1175.0</ele><time>2026-04-24T09:55:25Z</time></trkpt><trkpt lat="31.50549517052538" lon="-7.4654172674395545"><ele>1175.0</ele><time>2026-04-24T09:55:27Z</time></trkpt><trkpt lat="31.505445100151842" lon="-7.465325191521195"><ele>1175.0</ele><time>2026-04-24T09:55:30Z</time></trkpt><trkpt lat="31.50536899031732" lon="-7.465216709048356"><ele>1175.0</ele><time>2026-04-24T09:55:32Z</time></trkpt><trkpt lat="31.505318921381587" lon="-7.465162327497046"><ele>1176.5</ele><time>2026-04-24T09:55:33Z</time></trkpt><trkpt lat="31.505266337033763" lon="-7.465103283671439"><ele>1178.0</ele><time>2026-04-24T09:55:34Z</time></trkpt><trkpt lat="31.50520788038945" lon="-7.465034809846679"><ele>1179.5</ele><time>2026-04-24T09:55:35Z</time></trkpt><trkpt lat="31.50514699758081" lon="-7.464961547400788"><ele>1181.0</ele><time>2026-04-24T09:55:36Z</time></trkpt><trkpt lat="31.505088096197746" lon="-7.464890468484704"><ele>1182.5</ele><time>2026-04-24T09:55:37Z</time></trkpt><trkpt lat="31.505024180049507" lon="-7.464817774484492"><ele>1184.0</ele><time>2026-04-24T09:55:38Z</time></trkpt><trkpt lat="31.50495997701744" lon="-7.464744272392428"><ele>1184.0</ele><time>2026-04-24T09:55:39Z</time></trkpt><trkpt lat="31.504897448897328" lon="-7.464666961792511"><ele>1184.0</ele><time>2026-04-24T09:55:40Z</time></trkpt><trkpt lat="31.504835864013476" lon="-7.464587833678962"><ele>1184.0</ele><time>2026-04-24T09:55:41Z</time></trkpt><trkpt lat="31.504771667782535" lon="-7.464510473326603"><ele>1184.0</ele><time>2026-04-24T09:55:42Z</time></trkpt><trkpt lat="31.5047064376613" lon="-7.464435319897673"><ele>1184.0</ele><time>2026-04-24T09:55:43Z</time></trkpt><trkpt lat="31.5046399363424" lon="-7.46436268890371"><ele>1185.6666666666667</ele><time>2026-04-24T09:55:44Z</time></trkpt><trkpt lat="31.50457060003125" lon="-7.464295133171396"><ele>1187.3333333333335</ele><time>2026-04-24T09:55:45Z</time></trkpt><trkpt lat="31.50450005001451" lon="-7.464231737680727"><ele>1189.0</ele><time>2026-04-24T09:55:46Z</time></trkpt><trkpt lat="31.504427654271776" lon="-7.464174806100635"><ele>1190.6666666666667</ele><time>2026-04-24T09:55:47Z</time></trkpt><trkpt lat="31.504356729632878" lon="-7.46412163618895"><ele>1192.3333333333333</ele><time>2026-04-24T09:55:48Z</time></trkpt><trkpt lat="31.50428380409553" lon="-7.464075664192814"><ele>1194.0</ele><time>2026-04-24T09:55:49Z</time></trkpt><trkpt lat="31.50421082696111" lon="-7.4640345649435975"><ele>1194.0</ele><time>2026-04-24T09:55:50Z</time></trkpt><trkpt lat="31.50413530879514" lon="-7.46399817469636"><ele>1194.0</ele><time>2026-04-24T09:55:51Z</time></trkpt><trkpt lat="31.504054389180006" lon="-7.46396436553665"><ele>1194.0</ele><time>2026-04-24T09:55:52Z</time></trkpt><trkpt lat="31.503973464619637" lon="-7.463937985801625"><ele>1194.0</ele><time>2026-04-24T09:55:53Z</time></trkpt><trkpt lat="31.503892953341936" lon="-7.4639135307701405"><ele>1194.0</ele><time>2026-04-24T09:55:54Z</time></trkpt><trkpt lat="31.50381010900006" lon="-7.46389755717828"><ele>1194.0</ele><time>2026-04-24T09:55:55Z</time></trkpt><trkpt lat="31.503726460564025" lon="-7.463886056757387"><ele>1195.0</ele><time>2026-04-24T09:55:56Z</time></trkpt><trkpt lat="31.503640840756187" lon="-7.463879835770202"><ele>1196.0</ele><time>2026-04-24T09:55:57Z</time></trkpt><trkpt lat="31.503553357518648" lon="-7.4638845267167095"><ele>1197.0</ele><time>2026-04-24T09:55:58Z</time></trkpt><trkpt lat="31.503457349406368" lon="-7.463893033155523"><ele>1198.0</ele><time>2026-04-24T09:55:59Z</time></trkpt><trkpt lat="31.50335211601115" lon="-7.46390843930867"><ele>1199.0</ele><time>2026-04-24T09:56:00Z</time></trkpt><trkpt lat="31.503244832489504" lon="-7.463929694573968"><ele>1199.0</ele><time>2026-04-24T09:56:01Z</time></trkpt><trkpt lat="31.50314603957335" lon="-7.463958524292424"><ele>1199.0</ele><time>2026-04-24T09:56:02Z</time></trkpt><trkpt lat="31.50304972781525" lon="-7.4639931413215805"><ele>1199.0</ele><time>2026-04-24T09:56:03Z</time></trkpt><trkpt lat="31.502954800354182" lon="-7.4640311100275865"><ele>1199.0</ele><time>2026-04-24T09:56:04Z</time></trkpt><trkpt lat="31.502859952650923" lon="-7.464073939716067"><ele>1199.0</ele><time>2026-04-24T09:56:05Z</time></trkpt><trkpt lat="31.502765126989953" lon="-7.464119343536389"><ele>1199.6000000000001</ele><time>2026-04-24T09:56:06Z</time></trkpt><trkpt lat="31.502669520363586" lon="-7.464164608622314"><ele>1200.2</ele><time>2026-04-24T09:56:07Z</time></trkpt><trkpt lat="31.502574323238054" lon="-7.464210728084105"><ele>1200.8000000000002</ele><time>2026-04-24T09:56:08Z</time></trkpt><trkpt lat="31.502477919738133" lon="-7.464252796961359"><ele>1201.4</ele><time>2026-04-24T09:56:09Z</time></trkpt><trkpt lat="31.502381450150445" lon="-7.464289889436012"><ele>1202.0</ele><time>2026-04-24T09:56:10Z</time></trkpt><trkpt lat="31.502284289361775" lon="-7.4643246023073795"><ele>1202.0</ele><time>2026-04-24T09:56:11Z</time></trkpt><trkpt lat="31.50218644760014" lon="-7.464353747164656"><ele>1202.0</ele><time>2026-04-24T09:56:12Z</time></trkpt><trkpt lat="31.50208808454558" lon="-7.464377293473211"><ele>1202.0</ele><time>2026-04-24T09:56:13Z</time></trkpt><trkpt lat="31.501992119571135" lon="-7.464394306392265"><ele>1202.0</ele><time>2026-04-24T09:56:14Z</time></trkpt><trkpt lat="31.50189773997395" lon="-7.464406469288149"><ele>1202.0</ele><time>2026-04-24T09:56:15Z</time></trkpt><trkpt lat="31.501805182421215" lon="-7.464415900640762"><ele>1202.8333333333335</ele><time>2026-04-24T09:56:16Z</time></trkpt><trkpt lat="31.50171150913756" lon="-7.46442126520701"><ele>1203.6666666666667</ele><time>2026-04-24T09:56:17Z</time></trkpt><trkpt lat="31.501623320584333" lon="-7.464421178699011"><ele>1204.5</ele><time>2026-04-24T09:56:18Z</time></trkpt><trkpt lat="31.501538328563708" lon="-7.464419156937683"><ele>1205.3333333333333</ele><time>2026-04-24T09:56:19Z</time></trkpt><trkpt lat="31.50145612479413" lon="-7.464412477457934"><ele>1206.1666666666665</ele><time>2026-04-24T09:56:20Z</time></trkpt><trkpt lat="31.50137443736851" lon="-7.46440161008378"><ele>1207.0</ele><time>2026-04-24T09:56:21Z</time></trkpt><trkpt lat="31.50129749830222" lon="-7.464389972785999"><ele>1208.5</ele><time>2026-04-24T09:56:22Z</time></trkpt><trkpt lat="31.501220385062073" lon="-7.464376657668186"><ele>1210.0</ele><time>2026-04-24T09:56:23Z</time></trkpt><trkpt lat="31.501140563263032" lon="-7.46436221832658"><ele>1211.5</ele><time>2026-04-24T09:56:24Z</time></trkpt><trkpt lat="31.501054912701616" lon="-7.464345122564458"><ele>1213.0</ele><time>2026-04-24T09:56:25Z</time></trkpt><trkpt lat="31.500964594221323" lon="-7.464322425406169"><ele>1214.5</ele><time>2026-04-24T09:56:26Z</time></trkpt><trkpt lat="31.500870910653312" lon="-7.464291704919203"><ele>1216.0</ele><time>2026-04-24T09:56:27Z</time></trkpt><trkpt lat="31.50077081196847" lon="-7.464279978685441"><ele>1216.0</ele><time>2026-04-24T09:56:28Z</time></trkpt><trkpt lat="31.500668202055248" lon="-7.464254239474905"><ele>1216.0</ele><time>2026-04-24T09:56:29Z</time></trkpt><trkpt lat="31.50055915458586" lon="-7.4642268854458536"><ele>1216.0</ele><time>2026-04-24T09:56:30Z</time></trkpt><trkpt lat="31.500447299595546" lon="-7.46419882712618"><ele>1216.0</ele><time>2026-04-24T09:56:31Z</time></trkpt><trkpt lat="31.5003338571353" lon="-7.4641704267061915"><ele>1216.0</ele><time>2026-04-24T09:56:32Z</time></trkpt><trkpt lat="31.500219410304695" lon="-7.464141895677711"><ele>1218.25</ele><time>2026-04-24T09:56:33Z</time></trkpt><trkpt lat="31.500102002375687" lon="-7.464112367942229"><ele>1220.5</ele><time>2026-04-24T09:56:34Z</time></trkpt><trkpt lat="31.499980308443384" lon="-7.464081683311948"><ele>1222.75</ele><time>2026-04-24T09:56:35Z</time></trkpt><trkpt lat="31.499851284474712" lon="-7.46404915051689"><ele>1225.0</ele><time>2026-04-24T09:56:36Z</time></trkpt><trkpt lat="31.499719948118475" lon="-7.463995921969977"><ele>1226.0</ele><time>2026-04-24T09:56:37Z</time></trkpt><trkpt lat="31.499582451161" lon="-7.463963967526404"><ele>1227.0</ele><time>2026-04-24T09:56:38Z</time></trkpt><trkpt lat="31.499445215144473" lon="-7.463931100455411"><ele>1228.0</ele><time>2026-04-24T09:56:39Z</time></trkpt><trkpt lat="31.499310749227682" lon="-7.463894896561787"><ele>1229.0</ele><time>2026-04-24T09:56:40Z</time></trkpt><trkpt lat="31.49917999553498" lon="-7.4638579430299865"><ele>1229.0</ele><time>2026-04-24T09:56:41Z</time></trkpt><trkpt lat="31.499044175527622" lon="-7.463818737429567"><ele>1229.0</ele><time>2026-04-24T09:56:42Z</time></trkpt><trkpt lat="31.498902296110128" lon="-7.463775812889044"><ele>1229.0</ele><time>2026-04-24T09:56:42.999Z</time></trkpt><trkpt lat="31.498754164827872" lon="-7.4637553054820085"><ele>1229.0</ele><time>2026-04-24T09:56:43.999Z</time></trkpt><trkpt lat="31.498607659452965" lon="-7.463715792884703"><ele>1229.3333333333335</ele><time>2026-04-24T09:56:44.999Z</time></trkpt><trkpt lat="31.498459396167764" lon="-7.463675806187787"><ele>1229.6666666666667</ele><time>2026-04-24T09:56:45.999Z</time></trkpt><trkpt lat="31.498308236172637" lon="-7.46363562378072"><ele>1230.0</ele><time>2026-04-24T09:56:46.999Z</time></trkpt><trkpt lat="31.498155926110968" lon="-7.463567462597463"><ele>1230.0</ele><time>2026-04-24T09:56:47.999Z</time></trkpt><trkpt lat="31.498005765951614" lon="-7.463497675266802"><ele>1230.0</ele><time>2026-04-24T09:56:48.999Z</time></trkpt><trkpt lat="31.497860240702174" lon="-7.463410323295596"><ele>1230.0</ele><time>2026-04-24T09:56:49.999Z</time></trkpt><trkpt lat="31.497716621437505" lon="-7.463313735996993"><ele>1233.6666666666667</ele><time>2026-04-24T09:56:50.999Z</time></trkpt><trkpt lat="31.49757693071116" lon="-7.463215860133322"><ele>1237.3333333333335</ele><time>2026-04-24T09:56:51.999Z</time></trkpt><trkpt lat="31.497444153484643" lon="-7.463103888674505"><ele>1241.0</ele><time>2026-04-24T09:56:52.999Z</time></trkpt><trkpt lat="31.49732160702106" lon="-7.462978003850368"><ele>1243.0</ele><time>2026-04-24T09:56:53.999Z</time></trkpt><trkpt lat="31.497194014252827" lon="-7.462865773737269"><ele>1245.0</ele><time>2026-04-24T09:56:54.999Z</time></trkpt><trkpt lat="31.497071667265693" lon="-7.462754157254154"><ele>1247.0</ele><time>2026-04-24T09:56:55.999Z</time></trkpt><trkpt lat="31.49695304036027" lon="-7.4626417514473635"><ele>1247.0</ele><time>2026-04-24T09:56:56.999Z</time></trkpt><trkpt lat="31.496837503457925" lon="-7.462528049001522"><ele>1247.0</ele><time>2026-04-24T09:56:57.999Z</time></trkpt><trkpt lat="31.496723592678897" lon="-7.462410008907653"><ele>1247.0</ele><time>2026-04-24T09:56:58.999Z</time></trkpt><trkpt lat="31.496603328178413" lon="-7.462300118144994"><ele>1247.0</ele><time>2026-04-24T09:56:59.999Z</time></trkpt><trkpt lat="31.496504994650177" lon="-7.462167296241741"><ele>1247.0</ele><time>2026-04-24T09:57:00.999Z</time></trkpt><trkpt lat="31.49640928176162" lon="-7.4620279749478335"><ele>1247.0</ele><time>2026-04-24T09:57:01.999Z</time></trkpt><trkpt lat="31.496322852286298" lon="-7.4618744118813645"><ele>1246.6666666666667</ele><time>2026-04-24T09:57:02.999Z</time></trkpt><trkpt lat="31.496248578376548" lon="-7.461719219787458"><ele>1246.3333333333333</ele><time>2026-04-24T09:57:03.999Z</time></trkpt><trkpt lat="31.49619861941937" lon="-7.461539641633434"><ele>1246.0</ele><time>2026-04-24T09:57:04.999Z</time></trkpt><trkpt lat="31.496156953451234" lon="-7.461360154335202"><ele>1247.0</ele><time>2026-04-24T09:57:05.999Z</time></trkpt><trkpt lat="31.496134195667864" lon="-7.461173448965274"><ele>1248.0</ele><time>2026-04-24T09:57:06.999Z</time></trkpt><trkpt lat="31.49613045724012" lon="-7.460989544508428"><ele>1249.0</ele><time>2026-04-24T09:57:07.999Z</time></trkpt><trkpt lat="31.496139089061632" lon="-7.460798337241599"><ele>1249.0</ele><time>2026-04-24T09:57:08.999Z</time></trkpt><trkpt lat="31.4961687225356" lon="-7.460607378259413"><ele>1249.0</ele><time>2026-04-24T09:57:09.999Z</time></trkpt><trkpt lat="31.49618456423336" lon="-7.460414120934225"><ele>1249.0</ele><time>2026-04-24T09:57:10.999Z</time></trkpt><trkpt lat="31.496200248005113" lon="-7.460221294913812"><ele>1253.0</ele><time>2026-04-24T09:57:11.999Z</time></trkpt><trkpt lat="31.496214611943685" lon="-7.460027535598259"><ele>1257.0</ele><time>2026-04-24T09:57:12.999Z</time></trkpt><trkpt lat="31.496225869720252" lon="-7.459832750117241"><ele>1261.0</ele><time>2026-04-24T09:57:13.999Z</time></trkpt><trkpt lat="31.496232314623565" lon="-7.459639669846976"><ele>1263.0</ele><time>2026-04-24T09:57:14.999Z</time></trkpt><trkpt lat="31.496228582144756" lon="-7.4594476764681525"><ele>1265.0</ele><time>2026-04-24T09:57:15.999Z</time></trkpt><trkpt lat="31.49621396286191" lon="-7.459256764788923"><ele>1267.0</ele><time>2026-04-24T09:57:16.999Z</time></trkpt><trkpt lat="31.496187446157677" lon="-7.459067721340658"><ele>1267.0</ele><time>2026-04-24T09:57:17.999Z</time></trkpt><trkpt lat="31.496148313388534" lon="-7.45888130682374"><ele>1267.0</ele><time>2026-04-24T09:57:18.999Z</time></trkpt><trkpt lat="31.496100652448416" lon="-7.458698766395053"><ele>1267.0</ele><time>2026-04-24T09:57:19.999Z</time></trkpt><trkpt lat="31.496047584053066" lon="-7.458516812737169"><ele>1266.0</ele><time>2026-04-24T09:57:20.999Z</time></trkpt><trkpt lat="31.495993901830346" lon="-7.458338452957293"><ele>1265.0</ele><time>2026-04-24T09:57:21.999Z</time></trkpt><trkpt lat="31.495938663837123" lon="-7.458160528302819"><ele>1264.0</ele><time>2026-04-24T09:57:23Z</time></trkpt><trkpt lat="31.495883526648992" lon="-7.457983550207126"><ele>1262.0</ele><time>2026-04-24T09:57:24Z</time></trkpt><trkpt lat="31.495827455869296" lon="-7.457805256929303"><ele>1260.0</ele><time>2026-04-24T09:57:25Z</time></trkpt><trkpt lat="31.495768931460148" lon="-7.457621737220439"><ele>1258.0</ele><time>2026-04-24T09:57:26Z</time></trkpt><trkpt lat="31.49571275337082" lon="-7.457439143763933"><ele>1258.0</ele><time>2026-04-24T09:57:27Z</time></trkpt><trkpt lat="31.49565492204548" lon="-7.4572565528744885"><ele>1258.0</ele><time>2026-04-24T09:57:28Z</time></trkpt><trkpt lat="31.495597110738448" lon="-7.457075114917635"><ele>1258.0</ele><time>2026-04-24T09:57:29Z</time></trkpt><trkpt lat="31.495542376961318" lon="-7.456895062751086"><ele>1256.0</ele><time>2026-04-24T09:57:30Z</time></trkpt><trkpt lat="31.495487494069728" lon="-7.456710399400097"><ele>1254.0</ele><time>2026-04-24T09:57:31Z</time></trkpt><trkpt lat="31.495431300164217" lon="-7.456522549365299"><ele>1252.0</ele><time>2026-04-24T09:57:32Z</time></trkpt><trkpt lat="31.49537447357814" lon="-7.456335604419827"><ele>1262.3333333333333</ele><time>2026-04-24T09:57:33Z</time></trkpt><trkpt lat="31.495318091314854" lon="-7.4561505149395915"><ele>1272.6666666666667</ele><time>2026-04-24T09:57:34Z</time></trkpt><trkpt lat="31.49526071477199" lon="-7.455964943205391"><ele>1283.0</ele><time>2026-04-24T09:57:35Z</time></trkpt><trkpt lat="31.49520168418074" lon="-7.455781503442012"><ele>1283.0</ele><time>2026-04-24T09:57:36Z</time></trkpt><trkpt lat="31.495139564777414" lon="-7.455600417585927"><ele>1283.0</ele><time>2026-04-24T09:57:37Z</time></trkpt><trkpt lat="31.49506983091407" lon="-7.455422120619912"><ele>1283.0</ele><time>2026-04-24T09:57:38Z</time></trkpt><trkpt lat="31.494992264945203" lon="-7.4552450724621755"><ele>1278.3333333333335</ele><time>2026-04-24T09:57:39Z</time></trkpt><trkpt lat="31.49490675109188" lon="-7.455070530712295"><ele>1273.6666666666667</ele><time>2026-04-24T09:57:40Z</time></trkpt><trkpt lat="31.49481609427319" lon="-7.454895469156841"><ele>1269.0</ele><time>2026-04-24T09:57:41Z</time></trkpt><trkpt lat="31.494722542074676" lon="-7.454723185637477"><ele>1267.3333333333333</ele><time>2026-04-24T09:57:42Z</time></trkpt><trkpt lat="31.494627018237868" lon="-7.454553263081851"><ele>1265.6666666666665</ele><time>2026-04-24T09:57:43Z</time></trkpt><trkpt lat="31.49452982881038" lon="-7.454381678784371"><ele>1264.0</ele><time>2026-04-24T09:57:44Z</time></trkpt><trkpt lat="31.494433325165442" lon="-7.454208495540348"><ele>1270.0</ele><time>2026-04-24T09:57:45Z</time></trkpt><trkpt lat="31.494335754472033" lon="-7.45403456064929"><ele>1276.0</ele><time>2026-04-24T09:57:46Z</time></trkpt><trkpt lat="31.49423180265441" lon="-7.453862726927734"><ele>1282.0</ele><time>2026-04-24T09:57:47Z</time></trkpt><trkpt lat="31.494120691387163" lon="-7.453696726539062"><ele>1282.0</ele><time>2026-04-24T09:57:48Z</time></trkpt><trkpt lat="31.494007034503056" lon="-7.453542238537167"><ele>1282.0</ele><time>2026-04-24T09:57:49Z</time></trkpt><trkpt lat="31.493885705606967" lon="-7.453392343909597"><ele>1282.0</ele><time>2026-04-24T09:57:50Z</time></trkpt><trkpt lat="31.49376044329333" lon="-7.45324645777875"><ele>1284.6666666666665</ele><time>2026-04-24T09:57:51Z</time></trkpt><trkpt lat="31.493630761288337" lon="-7.4531069591802135"><ele>1287.3333333333333</ele><time>2026-04-24T09:57:52Z</time></trkpt><trkpt lat="31.493496396678992" lon="-7.45297632137654"><ele>1290.0</ele><time>2026-04-24T09:57:53Z</time></trkpt><trkpt lat="31.49335608577306" lon="-7.452850408984091"><ele>1290.0</ele><time>2026-04-24T09:57:54Z</time></trkpt><trkpt lat="31.493208517072595" lon="-7.4527307182117255"><ele>1290.0</ele><time>2026-04-24T09:57:55Z</time></trkpt><trkpt lat="31.49305652807566" lon="-7.452617713455446"><ele>1290.0</ele><time>2026-04-24T09:57:56Z</time></trkpt><trkpt lat="31.49289822811939" lon="-7.452512317333653"><ele>1295.0</ele><time>2026-04-24T09:57:57Z</time></trkpt><trkpt lat="31.492736064319192" lon="-7.45241642365634"><ele>1300.0</ele><time>2026-04-24T09:57:58Z</time></trkpt><trkpt lat="31.492570956954182" lon="-7.452330311741431"><ele>1305.0</ele><time>2026-04-24T09:57:59Z</time></trkpt><trkpt lat="31.49241066843492" lon="-7.452253924485071"><ele>1305.0</ele><time>2026-04-24T09:58:00Z</time></trkpt><trkpt lat="31.492255751807733" lon="-7.452181760726515"><ele>1305.0</ele><time>2026-04-24T09:58:01Z</time></trkpt><trkpt lat="31.49210703153576" lon="-7.452111149422325"><ele>1305.0</ele><time>2026-04-24T09:58:02Z</time></trkpt><trkpt lat="31.491967265684185" lon="-7.452040217858002"><ele>1304.75</ele><time>2026-04-24T09:58:03Z</time></trkpt><trkpt lat="31.49183508182695" lon="-7.451962605832995"><ele>1304.5</ele><time>2026-04-24T09:58:04Z</time></trkpt><trkpt lat="31.491711900107468" lon="-7.451879885359074"><ele>1304.25</ele><time>2026-04-24T09:58:05Z</time></trkpt><trkpt lat="31.49159401796334" lon="-7.451791258303865"><ele>1304.0</ele><time>2026-04-24T09:58:06Z</time></trkpt><trkpt lat="31.49148402411557" lon="-7.451701123525379"><ele>1304.0</ele><time>2026-04-24T09:58:07Z</time></trkpt><trkpt lat="31.491379653567865" lon="-7.451615180268124"><ele>1304.0</ele><time>2026-04-24T09:58:08Z</time></trkpt><trkpt lat="31.49128000694801" lon="-7.451530738557424"><ele>1304.0</ele><time>2026-04-24T09:58:09Z</time></trkpt><trkpt lat="31.491174984413625" lon="-7.451476851695209"><ele>1304.0</ele><time>2026-04-24T09:58:10Z</time></trkpt><trkpt lat="31.49108661895914" lon="-7.4514029519360445"><ele>1306.75</ele><time>2026-04-24T09:58:11Z</time></trkpt><trkpt lat="31.490981286257217" lon="-7.451387398484863"><ele>1309.5</ele><time>2026-04-24T09:58:12Z</time></trkpt><trkpt lat="31.49087695070216" lon="-7.451351430075085"><ele>1312.25</ele><time>2026-04-24T09:58:13Z</time></trkpt><trkpt lat="31.49076084128834" lon="-7.451332332554559"><ele>1315.0</ele><time>2026-04-24T09:58:14Z</time></trkpt><trkpt lat="31.49063786302266" lon="-7.4513120381119045"><ele>1315.0</ele><time>2026-04-24T09:58:15Z</time></trkpt><trkpt lat="31.490508847198182" lon="-7.4512909143512625"><ele>1315.0</ele><time>2026-04-24T09:58:16Z</time></trkpt><trkpt lat="31.49037848330964" lon="-7.451252160368239"><ele>1315.0</ele><time>2026-04-24T09:58:17Z</time></trkpt><trkpt lat="31.490238666864357" lon="-7.45122729986238"><ele>1315.0</ele><time>2026-04-24T09:58:18Z</time></trkpt><trkpt lat="31.49010196331387" lon="-7.451199472011003"><ele>1314.5</ele><time>2026-04-24T09:58:19Z</time></trkpt><trkpt lat="31.48996632814011" lon="-7.451170408683764"><ele>1314.0</ele><time>2026-04-24T09:58:20Z</time></trkpt><trkpt lat="31.489836781177804" lon="-7.451141320809745"><ele>1313.5</ele><time>2026-04-24T09:58:21Z</time></trkpt><trkpt lat="31.489708093091004" lon="-7.451111631652861"><ele>1313.0</ele><time>2026-04-24T09:58:22Z</time></trkpt><trkpt lat="31.489580428189004" lon="-7.45108137989794"><ele>1314.25</ele><time>2026-04-24T09:58:23Z</time></trkpt><trkpt lat="31.48945129683167" lon="-7.451048819870769"><ele>1315.5</ele><time>2026-04-24T09:58:24Z</time></trkpt><trkpt lat="31.48932399363812" lon="-7.451043159179432"><ele>1316.75</ele><time>2026-04-24T09:58:25Z</time></trkpt><trkpt lat="31.48919673908982" lon="-7.451039454480914"><ele>1318.0</ele><time>2026-04-24T09:58:26Z</time></trkpt><trkpt lat="31.489074733475793" lon="-7.451053489657019"><ele>1318.0</ele><time>2026-04-24T09:58:27Z</time></trkpt><trkpt lat="31.48895483716411" lon="-7.451082705141647"><ele>1318.0</ele><time>2026-04-24T09:58:28Z</time></trkpt><trkpt lat="31.48882831218714" lon="-7.451121712277906"><ele>1318.0</ele><time>2026-04-24T09:58:29Z</time></trkpt><trkpt lat="31.488701628740163" lon="-7.451161945488005"><ele>1318.0</ele><time>2026-04-24T09:58:30Z</time></trkpt><trkpt lat="31.48856672170618" lon="-7.4511627724239755"><ele>1320.5</ele><time>2026-04-24T09:58:31Z</time></trkpt><trkpt lat="31.488437967823614" lon="-7.4511834916216735"><ele>1323.0</ele><time>2026-04-24T09:58:32Z</time></trkpt><trkpt lat="31.488305187739464" lon="-7.451188242634974"><ele>1325.5</ele><time>2026-04-24T09:58:33Z</time></trkpt><trkpt lat="31.488174030749462" lon="-7.45117748405436"><ele>1328.0</ele><time>2026-04-24T09:58:34Z</time></trkpt><trkpt lat="31.488034164500355" lon="-7.451154421007444"><ele>1330.25</ele><time>2026-04-24T09:58:35Z</time></trkpt><trkpt lat="31.487889570905978" lon="-7.451130233564682"><ele>1332.5</ele><time>2026-04-24T09:58:36Z</time></trkpt><trkpt lat="31.487742717954188" lon="-7.451107326800799"><ele>1334.75</ele><time>2026-04-24T09:58:37Z</time></trkpt><trkpt lat="31.487593003218308" lon="-7.451086776090183"><ele>1337.0</ele><time>2026-04-24T09:58:38Z</time></trkpt><trkpt lat="31.487444951867438" lon="-7.451067233281039"><ele>1337.0</ele><time>2026-04-24T09:58:39Z</time></trkpt><trkpt lat="31.487297732103066" lon="-7.451045514735184"><ele>1337.0</ele><time>2026-04-24T09:58:40Z</time></trkpt><trkpt lat="31.48715090662471" lon="-7.451024523014484"><ele>1337.0</ele><time>2026-04-24T09:58:41Z</time></trkpt><trkpt lat="31.48700520256142" lon="-7.451002308186914"><ele>1337.0</ele><time>2026-04-24T09:58:42Z</time></trkpt><trkpt lat="31.486861163969195" lon="-7.450980584602785"><ele>1339.25</ele><time>2026-04-24T09:58:43Z</time></trkpt><trkpt lat="31.486719247365556" lon="-7.450958791219059"><ele>1341.5</ele><time>2026-04-24T09:58:44Z</time></trkpt><trkpt lat="31.486577190687346" lon="-7.450937876872775"><ele>1343.75</ele><time>2026-04-24T09:58:45Z</time></trkpt><trkpt lat="31.48643417368074" lon="-7.4509194505096525"><ele>1346.0</ele><time>2026-04-24T09:58:46Z</time></trkpt><trkpt lat="31.486293363285625" lon="-7.450909483408466"><ele>1348.25</ele><time>2026-04-24T09:58:47Z</time></trkpt><trkpt lat="31.486153828642077" lon="-7.450909085481083"><ele>1350.5</ele><time>2026-04-24T09:58:48Z</time></trkpt><trkpt lat="31.48601459744245" lon="-7.450922249068477"><ele>1352.75</ele><time>2026-04-24T09:58:48.999Z</time></trkpt><trkpt lat="31.485876720597172" lon="-7.450949162210598"><ele>1355.0</ele><time>2026-04-24T09:58:49.999Z</time></trkpt><trkpt lat="31.485739478515143" lon="-7.4509907978951695"><ele>1355.0</ele><time>2026-04-24T09:58:50.999Z</time></trkpt><trkpt lat="31.48560500722624" lon="-7.451046935239352"><ele>1355.0</ele><time>2026-04-24T09:58:51.999Z</time></trkpt><trkpt lat="31.485469732071728" lon="-7.451109069173723"><ele>1355.0</ele><time>2026-04-24T09:58:52.999Z</time></trkpt><trkpt lat="31.485336155763918" lon="-7.451173458916431"><ele>1355.0</ele><time>2026-04-24T09:58:53.999Z</time></trkpt><trkpt lat="31.48520284181037" lon="-7.451239275100632"><ele>1359.0</ele><time>2026-04-24T09:58:54.999Z</time></trkpt><trkpt lat="31.4850761617671" lon="-7.451326010052447"><ele>1363.0</ele><time>2026-04-24T09:58:55.999Z</time></trkpt><trkpt lat="31.484945930131225" lon="-7.451393931594897"><ele>1367.0</ele><time>2026-04-24T09:58:56.999Z</time></trkpt><trkpt lat="31.484821202717175" lon="-7.451452821237716"><ele>1371.0</ele><time>2026-04-24T09:58:57.999Z</time></trkpt><trkpt lat="31.48469236518826" lon="-7.4515051638641285"><ele>1372.25</ele><time>2026-04-24T09:58:58.999Z</time></trkpt><trkpt lat="31.484574621151417" lon="-7.451518874975039"><ele>1373.5</ele><time>2026-04-24T09:58:59.999Z</time></trkpt><trkpt lat="31.484457563250366" lon="-7.451510893019377"><ele>1374.75</ele><time>2026-04-24T09:59:00.999Z</time></trkpt><trkpt lat="31.48434503886431" lon="-7.4514956824332375"><ele>1376.0</ele><time>2026-04-24T09:59:01.999Z</time></trkpt><trkpt lat="31.48422779338598" lon="-7.451434114212594"><ele>1376.0</ele><time>2026-04-24T09:59:02.999Z</time></trkpt><trkpt lat="31.484122526779277" lon="-7.451354414349498"><ele>1376.0</ele><time>2026-04-24T09:59:03.999Z</time></trkpt><trkpt lat="31.484037962391604" lon="-7.45124659942422"><ele>1376.0</ele><time>2026-04-24T09:59:04.999Z</time></trkpt><trkpt lat="31.48395577428823" lon="-7.451135469351237"><ele>1376.0</ele><time>2026-04-24T09:59:05.999Z</time></trkpt><trkpt lat="31.483891040390766" lon="-7.451011092789136"><ele>1375.25</ele><time>2026-04-24T09:59:06.999Z</time></trkpt><trkpt lat="31.483846591183806" lon="-7.450876781431234"><ele>1374.5</ele><time>2026-04-24T09:59:07.999Z</time></trkpt><trkpt lat="31.483825143871428" lon="-7.450738564537476"><ele>1373.75</ele><time>2026-04-24T09:59:08.999Z</time></trkpt><trkpt lat="31.483819131607124" lon="-7.450596940207958"><ele>1373.0</ele><time>2026-04-24T09:59:09.999Z</time></trkpt><trkpt lat="31.483837290887102" lon="-7.450455893973567"><ele>1373.0</ele><time>2026-04-24T09:59:10.999Z</time></trkpt><trkpt lat="31.48387266850951" lon="-7.450321031647336"><ele>1373.0</ele><time>2026-04-24T09:59:11.999Z</time></trkpt><trkpt lat="31.48393173537921" lon="-7.450196303016273"><ele>1373.0</ele><time>2026-04-24T09:59:12.999Z</time></trkpt><trkpt lat="31.484010226442813" lon="-7.450084728319223"><ele>1373.0</ele><time>2026-04-24T09:59:13.999Z</time></trkpt><trkpt lat="31.484102763159534" lon="-7.449985870388085"><ele>1373.0</ele><time>2026-04-24T09:59:14.999Z</time></trkpt><trkpt lat="31.484211370480395" lon="-7.4499002268346715"><ele>1373.0</ele><time>2026-04-24T09:59:15.999Z</time></trkpt><trkpt lat="31.48432876935106" lon="-7.449818831059632"><ele>1373.0</ele><time>2026-04-24T09:59:16.999Z</time></trkpt><trkpt lat="31.484456311720578" lon="-7.44974540828037"><ele>1373.0</ele><time>2026-04-24T09:59:17.999Z</time></trkpt><trkpt lat="31.484585259043275" lon="-7.44967148778688"><ele>1374.75</ele><time>2026-04-24T09:59:18.999Z</time></trkpt><trkpt lat="31.48471729588691" lon="-7.449599706255237"><ele>1376.5</ele><time>2026-04-24T09:59:19.999Z</time></trkpt><trkpt lat="31.484848513709846" lon="-7.449525376412194"><ele>1378.25</ele><time>2026-04-24T09:59:20.999Z</time></trkpt><trkpt lat="31.484983818994596" lon="-7.449448361161507"><ele>1380.0</ele><time>2026-04-24T09:59:21.999Z</time></trkpt><trkpt lat="31.485119068822108" lon="-7.449370407912396"><ele>1380.0</ele><time>2026-04-24T09:59:22.999Z</time></trkpt><trkpt lat="31.485251620907754" lon="-7.449290896235225"><ele>1380.0</ele><time>2026-04-24T09:59:23.999Z</time></trkpt><trkpt lat="31.485378956388658" lon="-7.449207548664984"><ele>1380.0</ele><time>2026-04-24T09:59:24.999Z</time></trkpt><trkpt lat="31.485494974390605" lon="-7.4491126056229575"><ele>1380.0</ele><time>2026-04-24T09:59:25.999Z</time></trkpt><trkpt lat="31.48560146357128" lon="-7.449009031087463"><ele>1380.5</ele><time>2026-04-24T09:59:26.999Z</time></trkpt><trkpt lat="31.485694207854703" lon="-7.448895977013423"><ele>1381.0</ele><time>2026-04-24T09:59:28Z</time></trkpt><trkpt lat="31.485772402845647" lon="-7.448776593270174"><ele>1381.5</ele><time>2026-04-24T09:59:29Z</time></trkpt><trkpt lat="31.48583729228802" lon="-7.448645242501542"><ele>1382.0</ele><time>2026-04-24T09:59:30Z</time></trkpt><trkpt lat="31.485888486561993" lon="-7.448506990075374"><ele>1382.0</ele><time>2026-04-24T09:59:31Z</time></trkpt><trkpt lat="31.485933929319955" lon="-7.4483601332328515"><ele>1382.0</ele><time>2026-04-24T09:59:32Z</time></trkpt><trkpt lat="31.48597832432304" lon="-7.448210273449032"><ele>1382.0</ele><time>2026-04-24T09:59:33Z</time></trkpt><trkpt lat="31.486021562710356" lon="-7.4480564941188385"><ele>1382.0</ele><time>2026-04-24T09:59:34Z</time></trkpt><trkpt lat="31.4860637333795" lon="-7.4479017205042854"><ele>1382.5</ele><time>2026-04-24T09:59:35Z</time></trkpt><trkpt lat="31.486112822248874" lon="-7.44775316540719"><ele>1383.0</ele><time>2026-04-24T09:59:36Z</time></trkpt><trkpt lat="31.486161947272073" lon="-7.447611024650343"><ele>1383.5</ele><time>2026-04-24T09:59:37Z</time></trkpt><trkpt lat="31.48622676686921" lon="-7.447485493239078"><ele>1384.0</ele><time>2026-04-24T09:59:38.001Z</time></trkpt><trkpt lat="31.486302718370744" lon="-7.4473689683871935"><ele>1384.0</ele><time>2026-04-24T09:59:39.001Z</time></trkpt><trkpt lat="31.486391545826564" lon="-7.447262167431439"><ele>1384.0</ele><time>2026-04-24T09:59:40.001Z</time></trkpt><trkpt lat="31.486493150345762" lon="-7.447158596688795"><ele>1384.0</ele><time>2026-04-24T09:59:41.001Z</time></trkpt><trkpt lat="31.486590889635224" lon="-7.447060457086569"><ele>1384.0</ele><time>2026-04-24T09:59:42.001Z</time></trkpt><trkpt lat="31.486690948837236" lon="-7.44696614814236"><ele>1387.0</ele><time>2026-04-24T09:59:43.001Z</time></trkpt><trkpt lat="31.48678587146835" lon="-7.446860683551914"><ele>1390.0</ele><time>2026-04-24T09:59:44.001Z</time></trkpt><trkpt lat="31.486875342012333" lon="-7.446748926373299"><ele>1393.0</ele><time>2026-04-24T09:59:45.001Z</time></trkpt><trkpt lat="31.48695726989066" lon="-7.446624849122157"><ele>1396.0</ele><time>2026-04-24T09:59:46Z</time></trkpt><trkpt lat="31.48703094380929" lon="-7.446489640921681"><ele>1396.75</ele><time>2026-04-24T09:59:47Z</time></trkpt><trkpt lat="31.487103057756816" lon="-7.446343727212528"><ele>1397.5</ele><time>2026-04-24T09:59:48Z</time></trkpt><trkpt lat="31.487177597225845" lon="-7.446192911529006"><ele>1398.25</ele><time>2026-04-24T09:59:49Z</time></trkpt><trkpt lat="31.487245249347335" lon="-7.44603867365747"><ele>1399.0</ele><time>2026-04-24T09:59:50Z</time></trkpt><trkpt lat="31.48731574078454" lon="-7.4458836321886865"><ele>1399.0</ele><time>2026-04-24T09:59:51Z</time></trkpt><trkpt lat="31.48738640481055" lon="-7.445730574347302"><ele>1399.0</ele><time>2026-04-24T09:59:52Z</time></trkpt><trkpt lat="31.487456705019692" lon="-7.445575899233488"><ele>1399.0</ele><time>2026-04-24T09:59:53Z</time></trkpt><trkpt lat="31.487528688376372" lon="-7.445414681058469"><ele>1406.0</ele><time>2026-04-24T09:59:54Z</time></trkpt><trkpt lat="31.48760046989618" lon="-7.445252918196773"><ele>1413.0</ele><time>2026-04-24T09:59:55Z</time></trkpt><trkpt lat="31.48767371948448" lon="-7.445092359199193"><ele>1420.0</ele><time>2026-04-24T09:59:56Z</time></trkpt><trkpt lat="31.48774491070409" lon="-7.444932155184021"><ele>1420.0</ele><time>2026-04-24T09:59:57Z</time></trkpt><trkpt lat="31.48781861529507" lon="-7.444776579564933"><ele>1420.0</ele><time>2026-04-24T09:59:58Z</time></trkpt><trkpt lat="31.487890368202102" lon="-7.444621248920211"><ele>1420.0</ele><time>2026-04-24T09:59:59Z</time></trkpt><trkpt lat="31.48795267821863" lon="-7.444461840822983"><ele>1418.25</ele><time>2026-04-24T10:00:00Z</time></trkpt><trkpt lat="31.48800879867979" lon="-7.444303984453858"><ele>1416.5</ele><time>2026-04-24T10:00:01Z</time></trkpt><trkpt lat="31.488054319808114" lon="-7.444144780785577"><ele>1414.75</ele><time>2026-04-24T10:00:02Z</time></trkpt><trkpt lat="31.48809143615345" lon="-7.443983214782489"><ele>1413.0</ele><time>2026-04-24T10:00:03Z</time></trkpt><trkpt lat="31.488118048304614" lon="-7.443815406254302"><ele>1418.6666666666667</ele><time>2026-04-24T10:00:04Z</time></trkpt><trkpt lat="31.488134148020244" lon="-7.4436455968046715"><ele>1424.3333333333335</ele><time>2026-04-24T10:00:05Z</time></trkpt><trkpt lat="31.488141722530173" lon="-7.443467798633475"><ele>1430.0</ele><time>2026-04-24T10:00:06Z</time></trkpt><trkpt lat="31.488141213232456" lon="-7.44328741137295"><ele>1430.0</ele><time>2026-04-24T10:00:07Z</time></trkpt><trkpt lat="31.488136100115593" lon="-7.443105500613418"><ele>1430.0</ele><time>2026-04-24T10:00:08Z</time></trkpt><trkpt lat="31.488128643627537" lon="-7.442927267771456"><ele>1430.0</ele><time>2026-04-24T10:00:09Z</time></trkpt><trkpt lat="31.488118048297117" lon="-7.44275628748543"><ele>1432.75</ele><time>2026-04-24T10:00:10Z</time></trkpt><trkpt lat="31.488108919388903" lon="-7.442594455942129"><ele>1435.5</ele><time>2026-04-24T10:00:11Z</time></trkpt><trkpt lat="31.48810219389019" lon="-7.4424412677581255"><ele>1438.25</ele><time>2026-04-24T10:00:12Z</time></trkpt><trkpt lat="31.488098032273488" lon="-7.442296484606785"><ele>1441.0</ele><time>2026-04-24T10:00:13Z</time></trkpt><trkpt lat="31.488095970150358" lon="-7.442163616323014"><ele>1442.0</ele><time>2026-04-24T10:00:14Z</time></trkpt><trkpt lat="31.488098864750643" lon="-7.442034871906574"><ele>1443.0</ele><time>2026-04-24T10:00:15Z</time></trkpt><trkpt lat="31.488105480653942" lon="-7.441906517804456"><ele>1444.0</ele><time>2026-04-24T10:00:16Z</time></trkpt><trkpt lat="31.48811573407521" lon="-7.441776350990441"><ele>1445.0</ele><time>2026-04-24T10:00:17Z</time></trkpt><trkpt lat="31.488133977458304" lon="-7.441650249448625"><ele>1446.0</ele><time>2026-04-24T10:00:18Z</time></trkpt><trkpt lat="31.48815611109044" lon="-7.441528157054938"><ele>1446.0</ele><time>2026-04-24T10:00:19Z</time></trkpt><trkpt lat="31.48818519646282" lon="-7.441403365356484"><ele>1446.0</ele><time>2026-04-24T10:00:20Z</time></trkpt><trkpt lat="31.488220666909417" lon="-7.441284786004129"><ele>1446.0</ele><time>2026-04-24T10:00:21Z</time></trkpt><trkpt lat="31.488263319522286" lon="-7.441168743122853"><ele>1446.0</ele><time>2026-04-24T10:00:22Z</time></trkpt><trkpt lat="31.48831369871559" lon="-7.441052414923279"><ele>1446.0</ele><time>2026-04-24T10:00:23Z</time></trkpt><trkpt lat="31.48836870726825" lon="-7.440941720126539"><ele>1446.4</ele><time>2026-04-24T10:00:24Z</time></trkpt><trkpt lat="31.488431951910304" lon="-7.440836748832807"><ele>1446.8</ele><time>2026-04-24T10:00:25Z</time></trkpt><trkpt lat="31.488503590135526" lon="-7.440727019511878"><ele>1447.2</ele><time>2026-04-24T10:00:26Z</time></trkpt><trkpt lat="31.488573242331245" lon="-7.440631514325023"><ele>1447.6000000000001</ele><time>2026-04-24T10:00:27Z</time></trkpt><trkpt lat="31.488633025082983" lon="-7.440551699146684"><ele>1448.0</ele><time>2026-04-24T10:00:28Z</time></trkpt><trkpt lat="31.488686334292833" lon="-7.440484528807805"><ele>1448.1666666666667</ele><time>2026-04-24T10:00:29Z</time></trkpt><trkpt lat="31.488732052097237" lon="-7.440418024930966"><ele>1448.3333333333335</ele><time>2026-04-24T10:00:30Z</time></trkpt><trkpt lat="31.48878427934064" lon="-7.440352805195048"><ele>1448.5</ele><time>2026-04-24T10:00:31Z</time></trkpt><trkpt lat="31.488846502791784" lon="-7.440274947235612"><ele>1448.6666666666667</ele><time>2026-04-24T10:00:32Z</time></trkpt><trkpt lat="31.48891284866502" lon="-7.440192976198764"><ele>1448.8333333333333</ele><time>2026-04-24T10:00:33Z</time></trkpt><trkpt lat="31.48898341692046" lon="-7.4401070084740235"><ele>1449.0</ele><time>2026-04-24T10:00:34Z</time></trkpt><trkpt lat="31.489061718397803" lon="-7.440014062062807"><ele>1449.0</ele><time>2026-04-24T10:00:35Z</time></trkpt><trkpt lat="31.489139882033452" lon="-7.439908661785338"><ele>1449.0</ele><time>2026-04-24T10:00:36Z</time></trkpt><trkpt lat="31.489225216091835" lon="-7.439800540178739"><ele>1449.0</ele><time>2026-04-24T10:00:37Z</time></trkpt><trkpt lat="31.489307467899856" lon="-7.439687235932334"><ele>1449.0</ele><time>2026-04-24T10:00:38Z</time></trkpt><trkpt lat="31.48938572395526" lon="-7.4395730165701845"><ele>1448.25</ele><time>2026-04-24T10:00:39Z</time></trkpt><trkpt lat="31.489456037172147" lon="-7.439450345681201"><ele>1447.5</ele><time>2026-04-24T10:00:40Z</time></trkpt><trkpt lat="31.489518213806832" lon="-7.439320811227505"><ele>1446.75</ele><time>2026-04-24T10:00:41Z</time></trkpt><trkpt lat="31.48957245354636" lon="-7.439184595861245"><ele>1446.0</ele><time>2026-04-24T10:00:42Z</time></trkpt><trkpt lat="31.489616952314808" lon="-7.439043794219225"><ele>1446.0</ele><time>2026-04-24T10:00:43Z</time></trkpt><trkpt lat="31.489651153394654" lon="-7.438898901486798"><ele>1446.0</ele><time>2026-04-24T10:00:44Z</time></trkpt><trkpt lat="31.489675065571372" lon="-7.438751641841262"><ele>1446.0</ele><time>2026-04-24T10:00:45Z</time></trkpt><trkpt lat="31.489683889371936" lon="-7.438606014537282"><ele>1446.0</ele><time>2026-04-24T10:00:46Z</time></trkpt><trkpt lat="31.489682717046374" lon="-7.438461407407503"><ele>1445.25</ele><time>2026-04-24T10:00:47Z</time></trkpt><trkpt lat="31.48967197513496" lon="-7.438313690489401"><ele>1444.5</ele><time>2026-04-24T10:00:48Z</time></trkpt><trkpt lat="31.48964726419131" lon="-7.4381591513346"><ele>1443.75</ele><time>2026-04-24T10:00:49Z</time></trkpt><trkpt lat="31.48958347167459" lon="-7.438017760328059"><ele>1443.0</ele><time>2026-04-24T10:00:50Z</time></trkpt><trkpt lat="31.489535882127235" lon="-7.437864586525703"><ele>1450.0</ele><time>2026-04-24T10:00:51Z</time></trkpt><trkpt lat="31.4894746520707" lon="-7.43772003641569"><ele>1457.0</ele><time>2026-04-24T10:00:52Z</time></trkpt><trkpt lat="31.489414830391073" lon="-7.437571782359245"><ele>1464.0</ele><time>2026-04-24T10:00:53Z</time></trkpt><trkpt lat="31.489356860296887" lon="-7.437424399594614"><ele>1471.0</ele><time>2026-04-24T10:00:54Z</time></trkpt><trkpt lat="31.489279648949214" lon="-7.437300359405522"><ele>1471.0</ele><time>2026-04-24T10:00:55Z</time></trkpt><trkpt lat="31.48920223254165" lon="-7.437174951869039"><ele>1471.0</ele><time>2026-04-24T10:00:56Z</time></trkpt><trkpt lat="31.48911925172845" lon="-7.437055733831374"><ele>1471.0</ele><time>2026-04-24T10:00:57Z</time></trkpt><trkpt lat="31.48903062246818" lon="-7.436939953181471"><ele>1471.0</ele><time>2026-04-24T10:00:58Z</time></trkpt><trkpt lat="31.488945214244918" lon="-7.436814453977791"><ele>1472.25</ele><time>2026-04-24T10:00:59Z</time></trkpt><trkpt lat="31.488859032861075" lon="-7.436688250119824"><ele>1473.5</ele><time>2026-04-24T10:01:00Z</time></trkpt><trkpt lat="31.48877303255018" lon="-7.436561461436967"><ele>1474.75</ele><time>2026-04-24T10:01:01Z</time></trkpt><trkpt lat="31.48868675320647" lon="-7.436433989696065"><ele>1476.0</ele><time>2026-04-24T10:01:02Z</time></trkpt><trkpt lat="31.488602562892748" lon="-7.43631190813589"><ele>1469.75</ele><time>2026-04-24T10:01:03Z</time></trkpt><trkpt lat="31.488499198698456" lon="-7.436214598069368"><ele>1463.5</ele><time>2026-04-24T10:01:04Z</time></trkpt><trkpt lat="31.488417232534047" lon="-7.436098532040393"><ele>1457.25</ele><time>2026-04-24T10:01:05Z</time></trkpt><trkpt lat="31.48833321086329" lon="-7.435982638603281"><ele>1451.0</ele><time>2026-04-24T10:01:06Z</time></trkpt><trkpt lat="31.48824894084121" lon="-7.43586287578141"><ele>1451.0</ele><time>2026-04-24T10:01:07Z</time></trkpt><trkpt lat="31.488166342594628" lon="-7.435744908288114"><ele>1451.0</ele><time>2026-04-24T10:01:08Z</time></trkpt><trkpt lat="31.48808384504845" lon="-7.435613794106128"><ele>1451.0</ele><time>2026-04-24T10:01:09Z</time></trkpt><trkpt lat="31.4880051450949" lon="-7.435480824833594"><ele>1451.0</ele><time>2026-04-24T10:01:10Z</time></trkpt><trkpt lat="31.487926923217692" lon="-7.435345868239567"><ele>1456.5</ele><time>2026-04-24T10:01:10.999Z</time></trkpt><trkpt lat="31.487846817824845" lon="-7.43520988686669"><ele>1462.0</ele><time>2026-04-24T10:01:11.999Z</time></trkpt><trkpt lat="31.487764904066683" lon="-7.43507120261838"><ele>1467.5</ele><time>2026-04-24T10:01:12.999Z</time></trkpt><trkpt lat="31.487683024430815" lon="-7.4349312254566655"><ele>1473.0</ele><time>2026-04-24T10:01:13.999Z</time></trkpt><trkpt lat="31.487599922863517" lon="-7.434789721981662"><ele>1473.0</ele><time>2026-04-24T10:01:14.999Z</time></trkpt><trkpt lat="31.487518014603424" lon="-7.434648894928202"><ele>1473.0</ele><time>2026-04-24T10:01:15.999Z</time></trkpt><trkpt lat="31.48743739934331" lon="-7.434502550957031"><ele>1473.0</ele><time>2026-04-24T10:01:16.999Z</time></trkpt><trkpt lat="31.4873566801719" lon="-7.434356024023748"><ele>1473.0</ele><time>2026-04-24T10:01:17.999Z</time></trkpt><trkpt lat="31.487281698514458" lon="-7.434203895324316"><ele>1466.25</ele><time>2026-04-24T10:01:18.999Z</time></trkpt><trkpt lat="31.48721460417762" lon="-7.434051671902113"><ele>1459.5</ele><time>2026-04-24T10:01:19.999Z</time></trkpt><trkpt lat="31.487152980245277" lon="-7.4339102320761645"><ele>1452.75</ele><time>2026-04-24T10:01:20.999Z</time></trkpt><trkpt lat="31.48710278905114" lon="-7.43378575661778"><ele>1446.0</ele><time>2026-04-24T10:01:21.999Z</time></trkpt><trkpt lat="31.48706824808708" lon="-7.433667494038881"><ele>1446.0</ele><time>2026-04-24T10:01:22.999Z</time></trkpt><trkpt lat="31.487022759941627" lon="-7.433565161604745"><ele>1446.0</ele><time>2026-04-24T10:01:23.999Z</time></trkpt><trkpt lat="31.486988133135625" lon="-7.433475544712775"><ele>1446.0</ele><time>2026-04-24T10:01:24.999Z</time></trkpt><trkpt lat="31.48695879905102" lon="-7.433380338143526"><ele>1446.0</ele><time>2026-04-24T10:01:25.999Z</time></trkpt><trkpt lat="31.486939839192587" lon="-7.433279441813337"><ele>1446.0</ele><time>2026-04-24T10:01:26.999Z</time></trkpt><trkpt lat="31.48692506723179" lon="-7.43317940357213"><ele>1446.0</ele><time>2026-04-24T10:01:27.999Z</time></trkpt><trkpt lat="31.486911317061985" lon="-7.433075436557293"><ele>1440.8</ele><time>2026-04-24T10:01:28.999Z</time></trkpt><trkpt lat="31.486896355549366" lon="-7.432968000416597"><ele>1435.6</ele><time>2026-04-24T10:01:29.999Z</time></trkpt><trkpt lat="31.486875013063756" lon="-7.432869170451063"><ele>1430.4</ele><time>2026-04-24T10:01:30.999Z</time></trkpt><trkpt lat="31.486853193969104" lon="-7.432764420513382"><ele>1425.2</ele><time>2026-04-24T10:01:31.999Z</time></trkpt><trkpt lat="31.486825317705375" lon="-7.432660023972046"><ele>1420.0</ele><time>2026-04-24T10:01:32.999Z</time></trkpt><trkpt lat="31.48681398862425" lon="-7.432544961883852"><ele>1420.0</ele><time>2026-04-24T10:01:34.001Z</time></trkpt><trkpt lat="31.48676782534794" lon="-7.43244137372515"><ele>1420.0</ele><time>2026-04-24T10:01:35.001Z</time></trkpt><trkpt lat="31.486733130606954" lon="-7.432342604374759"><ele>1420.0</ele><time>2026-04-24T10:01:36.001Z</time></trkpt><trkpt lat="31.486698049663946" lon="-7.432245932160777"><ele>1420.0</ele><time>2026-04-24T10:01:37.001Z</time></trkpt><trkpt lat="31.48666365587047" lon="-7.432158393032702"><ele>1420.0</ele><time>2026-04-24T10:01:38.001Z</time></trkpt><trkpt lat="31.48662901494207" lon="-7.432078749809483"><ele>1420.0</ele><time>2026-04-24T10:01:39.001Z</time></trkpt><trkpt lat="31.48658701865336" lon="-7.432008856083638"><ele>1418.2857142857142</ele><time>2026-04-24T10:01:40.001Z</time></trkpt><trkpt lat="31.486552419550037" lon="-7.431937086416712"><ele>1416.5714285714287</ele><time>2026-04-24T10:01:41.001Z</time></trkpt><trkpt lat="31.48645734416268" lon="-7.431928240764337"><ele>1414.857142857143</ele><time>2026-04-24T10:01:42.001Z</time></trkpt><trkpt lat="31.48639159583676" lon="-7.431893227550607"><ele>1413.142857142857</ele><time>2026-04-24T10:01:43.001Z</time></trkpt><trkpt lat="31.486319149558657" lon="-7.431893080003129"><ele>1411.4285714285713</ele><time>2026-04-24T10:01:44.001Z</time></trkpt><trkpt lat="31.48624781152493" lon="-7.431893966577398"><ele>1409.7142857142858</ele><time>2026-04-24T10:01:45.001Z</time></trkpt><trkpt lat="31.486182640938733" lon="-7.431890940224038"><ele>1408.0</ele><time>2026-04-24T10:01:46.001Z</time></trkpt><trkpt lat="31.486118326700563" lon="-7.431906562342493"><ele>1408.0</ele><time>2026-04-24T10:01:47.001Z</time></trkpt><trkpt lat="31.486003301344706" lon="-7.431908518149682"><ele>1408.0</ele><time>2026-04-24T10:01:49.001Z</time></trkpt><trkpt lat="31.485896413590698" lon="-7.431911004115156"><ele>1408.0</ele><time>2026-04-24T10:01:51.001Z</time></trkpt><trkpt lat="31.48577852756129" lon="-7.431892975892055"><ele>1408.0</ele><time>2026-04-24T10:01:53.001Z</time></trkpt><trkpt lat="31.485712553557704" lon="-7.431862205480926"><ele>1408.0</ele><time>2026-04-24T10:01:54Z</time></trkpt><trkpt lat="31.48563726747269" lon="-7.4318486316632715"><ele>1408.0</ele><time>2026-04-24T10:01:55Z</time></trkpt><trkpt lat="31.485560222151147" lon="-7.431841654405647"><ele>1408.0</ele><time>2026-04-24T10:01:56Z</time></trkpt><trkpt lat="31.485483126246795" lon="-7.431833516558071"><ele>1408.0</ele><time>2026-04-24T10:01:57Z</time></trkpt><trkpt lat="31.485406667133947" lon="-7.43182599919636"><ele>1408.0</ele><time>2026-04-24T10:01:58Z</time></trkpt><trkpt lat="31.48533138180865" lon="-7.43182087786126"><ele>1408.0</ele><time>2026-04-24T10:01:59Z</time></trkpt><trkpt lat="31.48525810726377" lon="-7.431814660420812"><ele>1408.0</ele><time>2026-04-24T10:02:00Z</time></trkpt><trkpt lat="31.485186166037586" lon="-7.4318098950524245"><ele>1409.8333333333333</ele><time>2026-04-24T10:02:01Z</time></trkpt><trkpt lat="31.485112858122555" lon="-7.431806272362686"><ele>1411.6666666666665</ele><time>2026-04-24T10:02:02Z</time></trkpt><trkpt lat="31.485041616680498" lon="-7.431805925903245"><ele>1413.5</ele><time>2026-04-24T10:02:03Z</time></trkpt><trkpt lat="31.484965973873397" lon="-7.431802531418246"><ele>1415.3333333333333</ele><time>2026-04-24T10:02:04Z</time></trkpt><trkpt lat="31.484888638190775" lon="-7.431796427737917"><ele>1417.1666666666667</ele><time>2026-04-24T10:02:05Z</time></trkpt><trkpt lat="31.48480578333677" lon="-7.431790147494989"><ele>1419.0</ele><time>2026-04-24T10:02:06Z</time></trkpt><trkpt lat="31.484718521950505" lon="-7.431782196356179"><ele>1419.0</ele><time>2026-04-24T10:02:07Z</time></trkpt><trkpt lat="31.48462355195947" lon="-7.431774945997156"><ele>1419.0</ele><time>2026-04-24T10:02:08Z</time></trkpt><trkpt lat="31.484520965947368" lon="-7.431767575835343"><ele>1419.0</ele><time>2026-04-24T10:02:09Z</time></trkpt><trkpt lat="31.48441393964242" lon="-7.431783760799245"><ele>1419.0</ele><time>2026-04-24T10:02:10Z</time></trkpt><trkpt lat="31.484303522837628" lon="-7.431791193885364"><ele>1419.0</ele><time>2026-04-24T10:02:11Z</time></trkpt><trkpt lat="31.48419415989569" lon="-7.431798819665768"><ele>1419.0</ele><time>2026-04-24T10:02:12Z</time></trkpt><trkpt lat="31.484069369447276" lon="-7.431804548974623"><ele>1419.0</ele><time>2026-04-24T10:02:13Z</time></trkpt><trkpt lat="31.483955446777674" lon="-7.431781293914312"><ele>1419.0</ele><time>2026-04-24T10:02:14Z</time></trkpt><trkpt lat="31.483833710091208" lon="-7.431732234098324"><ele>1419.0</ele><time>2026-04-24T10:02:15Z</time></trkpt><trkpt lat="31.483726485313877" lon="-7.4316666925555195"><ele>1419.25</ele><time>2026-04-24T10:02:16Z</time></trkpt><trkpt lat="31.483639920434122" lon="-7.431566864133225"><ele>1419.5</ele><time>2026-04-24T10:02:17Z</time></trkpt><trkpt lat="31.48352758862571" lon="-7.431528796143399"><ele>1419.75</ele><time>2026-04-24T10:02:18Z</time></trkpt><trkpt lat="31.483412242401766" lon="-7.431511793599929"><ele>1420.0</ele><time>2026-04-24T10:02:19Z</time></trkpt><trkpt lat="31.48329635783471" lon="-7.431510658296439"><ele>1420.0</ele><time>2026-04-24T10:02:20Z</time></trkpt><trkpt lat="31.483178189780478" lon="-7.4315223154915815"><ele>1420.0</ele><time>2026-04-24T10:02:21Z</time></trkpt><trkpt lat="31.483058648672976" lon="-7.431545618618355"><ele>1420.0</ele><time>2026-04-24T10:02:22Z</time></trkpt><trkpt lat="31.482938286383934" lon="-7.431574513449488"><ele>1420.0</ele><time>2026-04-24T10:02:23Z</time></trkpt><trkpt lat="31.482819725939706" lon="-7.431618233711996"><ele>1417.0</ele><time>2026-04-24T10:02:24Z</time></trkpt><trkpt lat="31.482707135895158" lon="-7.431682630676693"><ele>1414.0</ele><time>2026-04-24T10:02:25Z</time></trkpt><trkpt lat="31.48260769451548" lon="-7.431768343722311"><ele>1411.0</ele><time>2026-04-24T10:02:26Z</time></trkpt><trkpt lat="31.482521775268392" lon="-7.431874019217497"><ele>1408.0</ele><time>2026-04-24T10:02:27Z</time></trkpt><trkpt lat="31.482447758754425" lon="-7.431995506310417"><ele>1408.0</ele><time>2026-04-24T10:02:28Z</time></trkpt><trkpt lat="31.4823812159565" lon="-7.432126100154771"><ele>1408.0</ele><time>2026-04-24T10:02:29Z</time></trkpt><trkpt lat="31.48231570175142" lon="-7.432261730857326"><ele>1408.0</ele><time>2026-04-24T10:02:30Z</time></trkpt><trkpt lat="31.48224498793586" lon="-7.432390386731551"><ele>1408.0</ele><time>2026-04-24T10:02:31Z</time></trkpt><trkpt lat="31.482163238469674" lon="-7.432505761798687"><ele>1410.75</ele><time>2026-04-24T10:02:32Z</time></trkpt><trkpt lat="31.482070204491613" lon="-7.432602416007766"><ele>1413.5</ele><time>2026-04-24T10:02:33Z</time></trkpt><trkpt lat="31.481968001082638" lon="-7.4326804588241355"><ele>1416.25</ele><time>2026-04-24T10:02:34Z</time></trkpt><trkpt lat="31.481855170395637" lon="-7.432738686327904"><ele>1419.0</ele><time>2026-04-24T10:02:35Z</time></trkpt><trkpt lat="31.48173623833751" lon="-7.432783363181082"><ele>1419.0</ele><time>2026-04-24T10:02:36Z</time></trkpt><trkpt lat="31.481613332899045" lon="-7.432830389145909"><ele>1419.0</ele><time>2026-04-24T10:02:37Z</time></trkpt><trkpt lat="31.481483498337884" lon="-7.432886368995881"><ele>1419.0</ele><time>2026-04-24T10:02:38Z</time></trkpt><trkpt lat="31.481349174447896" lon="-7.432944111311738"><ele>1419.0</ele><time>2026-04-24T10:02:39Z</time></trkpt><trkpt lat="31.481209881600623" lon="-7.433003179820496"><ele>1424.3333333333333</ele><time>2026-04-24T10:02:40Z</time></trkpt><trkpt lat="31.481067932900054" lon="-7.433064922893728"><ele>1429.6666666666665</ele><time>2026-04-24T10:02:41Z</time></trkpt><trkpt lat="31.480926351190625" lon="-7.433128571520981"><ele>1435.0</ele><time>2026-04-24T10:02:42Z</time></trkpt><trkpt lat="31.48078914595436" lon="-7.433190288313653"><ele>1435.0</ele><time>2026-04-24T10:02:43Z</time></trkpt><trkpt lat="31.480661928936236" lon="-7.433247119807792"><ele>1435.0</ele><time>2026-04-24T10:02:44Z</time></trkpt><trkpt lat="31.480541245627975" lon="-7.433310348396729"><ele>1435.0</ele><time>2026-04-24T10:02:45Z</time></trkpt><trkpt lat="31.48043208125543" lon="-7.433391530713649"><ele>1435.0</ele><time>2026-04-24T10:02:46Z</time></trkpt><trkpt lat="31.48033187748443" lon="-7.433499682461246"><ele>1437.3333333333333</ele><time>2026-04-24T10:02:47Z</time></trkpt><trkpt lat="31.480236460418073" lon="-7.4336293972983745"><ele>1439.6666666666667</ele><time>2026-04-24T10:02:48Z</time></trkpt><trkpt lat="31.4801410818302" lon="-7.4337684796437875"><ele>1442.0</ele><time>2026-04-24T10:02:49Z</time></trkpt><trkpt lat="31.48004173378357" lon="-7.433906212306354"><ele>1442.0</ele><time>2026-04-24T10:02:50Z</time></trkpt><trkpt lat="31.479942660822264" lon="-7.434040918590673"><ele>1442.0</ele><time>2026-04-24T10:02:51Z</time></trkpt><trkpt lat="31.47984845047241" lon="-7.434171337489861"><ele>1442.0</ele><time>2026-04-24T10:02:52Z</time></trkpt><trkpt lat="31.479762946290887" lon="-7.43428920627906"><ele>1442.0</ele><time>2026-04-24T10:02:53Z</time></trkpt><trkpt lat="31.47968238995835" lon="-7.434395379080911"><ele>1442.0</ele><time>2026-04-24T10:02:54Z</time></trkpt><trkpt lat="31.47960808533673" lon="-7.434487408759187"><ele>1442.0</ele><time>2026-04-24T10:02:55Z</time></trkpt><trkpt lat="31.4795383974628" lon="-7.434570132859668"><ele>1442.0</ele><time>2026-04-24T10:02:56Z</time></trkpt><trkpt lat="31.479462509724883" lon="-7.434641211892308"><ele>1442.0</ele><time>2026-04-24T10:02:57Z</time></trkpt><trkpt lat="31.47937767834344" lon="-7.434686867804648"><ele>1442.0</ele><time>2026-04-24T10:02:58Z</time></trkpt><trkpt lat="31.479287977048205" lon="-7.434714225424652"><ele>1442.3999999999999</ele><time>2026-04-24T10:02:59Z</time></trkpt><trkpt lat="31.47919409927355" lon="-7.434718266856125"><ele>1442.8</ele><time>2026-04-24T10:03:00Z</time></trkpt><trkpt lat="31.479099147671302" lon="-7.4346982908276065"><ele>1443.2</ele><time>2026-04-24T10:03:01Z</time></trkpt><trkpt lat="31.479001891477633" lon="-7.434652315830281"><ele>1443.6</ele><time>2026-04-24T10:03:02Z</time></trkpt><trkpt lat="31.47890151212378" lon="-7.434581447678511"><ele>1444.0</ele><time>2026-04-24T10:03:03Z</time></trkpt><trkpt lat="31.478801771368293" lon="-7.4344904470880016"><ele>1441.75</ele><time>2026-04-24T10:03:04Z</time></trkpt><trkpt lat="31.478697844456313" lon="-7.434383838516594"><ele>1439.5</ele><time>2026-04-24T10:03:05Z</time></trkpt><trkpt lat="31.478585064966612" lon="-7.434277712835734"><ele>1437.25</ele><time>2026-04-24T10:03:06Z</time></trkpt><trkpt lat="31.478470769899786" lon="-7.43417893659267"><ele>1435.0</ele><time>2026-04-24T10:03:07Z</time></trkpt><trkpt lat="31.478359166810538" lon="-7.434083871255091"><ele>1435.0</ele><time>2026-04-24T10:03:07.999Z</time></trkpt><trkpt lat="31.47824568622301" lon="-7.433999268860746"><ele>1435.0</ele><time>2026-04-24T10:03:08.999Z</time></trkpt><trkpt lat="31.47813085053041" lon="-7.433941562232791"><ele>1435.0</ele><time>2026-04-24T10:03:09.999Z</time></trkpt><trkpt lat="31.478011758782245" lon="-7.433908568582508"><ele>1435.0</ele><time>2026-04-24T10:03:10.999Z</time></trkpt><trkpt lat="31.477881260950664" lon="-7.43389838705584"><ele>1437.25</ele><time>2026-04-24T10:03:11.999Z</time></trkpt><trkpt lat="31.477742321587446" lon="-7.433904611310986"><ele>1439.5</ele><time>2026-04-24T10:03:12.999Z</time></trkpt><trkpt lat="31.47759451517665" lon="-7.433921207112536"><ele>1441.75</ele><time>2026-04-24T10:03:13.999Z</time></trkpt><trkpt lat="31.477437357131624" lon="-7.43393659730616"><ele>1444.0</ele><time>2026-04-24T10:03:14.999Z</time></trkpt><trkpt lat="31.477274628751246" lon="-7.4339494779454025"><ele>1444.0</ele><time>2026-04-24T10:03:15.999Z</time></trkpt><trkpt lat="31.477108163961866" lon="-7.433963605474577"><ele>1444.0</ele><time>2026-04-24T10:03:16.999Z</time></trkpt><trkpt lat="31.47694140400243" lon="-7.433976681799026"><ele>1444.0</ele><time>2026-04-24T10:03:17.999Z</time></trkpt><trkpt lat="31.476775680171926" lon="-7.433984165380878"><ele>1443.3333333333333</ele><time>2026-04-24T10:03:18.999Z</time></trkpt><trkpt lat="31.476609770665632" lon="-7.433993316736761"><ele>1442.6666666666667</ele><time>2026-04-24T10:03:19.999Z</time></trkpt><trkpt lat="31.476444100695506" lon="-7.434004545560017"><ele>1442.0</ele><time>2026-04-24T10:03:20.999Z</time></trkpt><trkpt lat="31.476281184623957" lon="-7.434016693082547"><ele>1439.6666666666667</ele><time>2026-04-24T10:03:21.999Z</time></trkpt><trkpt lat="31.47612203378656" lon="-7.434031156766431"><ele>1437.3333333333333</ele><time>2026-04-24T10:03:22.999Z</time></trkpt><trkpt lat="31.475966183903644" lon="-7.434046067962935"><ele>1435.0</ele><time>2026-04-24T10:03:23.999Z</time></trkpt><trkpt lat="31.47581154765396" lon="-7.434059248423499"><ele>1435.0</ele><time>2026-04-24T10:03:24.999Z</time></trkpt><trkpt lat="31.475664648850266" lon="-7.434070163406494"><ele>1435.0</ele><time>2026-04-24T10:03:25.999Z</time></trkpt><trkpt lat="31.47552272389915" lon="-7.4341036816735535"><ele>1435.0</ele><time>2026-04-24T10:03:26.999Z</time></trkpt><trkpt lat="31.475379233922197" lon="-7.434128170540431"><ele>1435.0</ele><time>2026-04-24T10:03:27.999Z</time></trkpt><trkpt lat="31.475231731619296" lon="-7.434141530726381"><ele>1434.3333333333333</ele><time>2026-04-24T10:03:28.999Z</time></trkpt><trkpt lat="31.475081016319685" lon="-7.4341375086897905"><ele>1433.6666666666667</ele><time>2026-04-24T10:03:29.999Z</time></trkpt><trkpt lat="31.474933045513396" lon="-7.434115621629578"><ele>1433.0</ele><time>2026-04-24T10:03:30.999Z</time></trkpt><trkpt lat="31.474782518466167" lon="-7.434091821582265"><ele>1433.0</ele><time>2026-04-24T10:03:31.999Z</time></trkpt><trkpt lat="31.474623516041905" lon="-7.4340586908567605"><ele>1433.0</ele><time>2026-04-24T10:03:32.999Z</time></trkpt><trkpt lat="31.474474453249663" lon="-7.434005417753725"><ele>1433.0</ele><time>2026-04-24T10:03:33.999Z</time></trkpt><trkpt lat="31.474318690938958" lon="-7.433925300813476"><ele>1435.3333333333335</ele><time>2026-04-24T10:03:34.999Z</time></trkpt><trkpt lat="31.47416825305366" lon="-7.433827966902247"><ele>1437.6666666666667</ele><time>2026-04-24T10:03:35.999Z</time></trkpt><trkpt lat="31.474035858399446" lon="-7.433728088406898"><ele>1440.0</ele><time>2026-04-24T10:03:36.999Z</time></trkpt><trkpt lat="31.473909614686164" lon="-7.433579835651331"><ele>1440.0</ele><time>2026-04-24T10:03:37.999Z</time></trkpt><trkpt lat="31.47379860979147" lon="-7.433421691774434"><ele>1440.0</ele><time>2026-04-24T10:03:39.001Z</time></trkpt><trkpt lat="31.47371019410787" lon="-7.433250981225061"><ele>1440.0</ele><time>2026-04-24T10:03:40.001Z</time></trkpt><trkpt lat="31.473647150196243" lon="-7.433056043133024"><ele>1443.0</ele><time>2026-04-24T10:03:41.001Z</time></trkpt><trkpt lat="31.47359619076641" lon="-7.432871718999977"><ele>1446.0</ele><time>2026-04-24T10:03:42.001Z</time></trkpt><trkpt lat="31.47354805469456" lon="-7.432689049715553"><ele>1449.0</ele><time>2026-04-24T10:03:43.001Z</time></trkpt><trkpt lat="31.47353154728444" lon="-7.432493003106615"><ele>1449.0</ele><time>2026-04-24T10:03:44.001Z</time></trkpt><trkpt lat="31.47352535336019" lon="-7.432301387227623"><ele>1449.0</ele><time>2026-04-24T10:03:45.001Z</time></trkpt><trkpt lat="31.473527636080625" lon="-7.432109329426748"><ele>1449.0</ele><time>2026-04-24T10:03:46.001Z</time></trkpt><trkpt lat="31.47356631439415" lon="-7.43191638132855"><ele>1453.6666666666667</ele><time>2026-04-24T10:03:47.001Z</time></trkpt><trkpt lat="31.47360520732675" lon="-7.4317210891565875"><ele>1458.3333333333335</ele><time>2026-04-24T10:03:48.001Z</time></trkpt><trkpt lat="31.473663621574" lon="-7.431529045368814"><ele>1463.0</ele><time>2026-04-24T10:03:49.001Z</time></trkpt><trkpt lat="31.47373960906898" lon="-7.431340808769267"><ele>1458.3333333333335</ele><time>2026-04-24T10:03:50Z</time></trkpt><trkpt lat="31.473832285276366" lon="-7.431157725080284"><ele>1453.6666666666667</ele><time>2026-04-24T10:03:51.001Z</time></trkpt><trkpt lat="31.473938548741913" lon="-7.4309797583567185"><ele>1449.0</ele><time>2026-04-24T10:03:52.001Z</time></trkpt><trkpt lat="31.474053675649238" lon="-7.4308035370715855"><ele>1449.0</ele><time>2026-04-24T10:03:53Z</time></trkpt><trkpt lat="31.474175473363246" lon="-7.430626068334639"><ele>1449.0</ele><time>2026-04-24T10:03:54Z</time></trkpt><trkpt lat="31.474301473283788" lon="-7.430443685367213"><ele>1449.0</ele><time>2026-04-24T10:03:55Z</time></trkpt><trkpt lat="31.4744247734728" lon="-7.430258696569485"><ele>1445.0</ele><time>2026-04-24T10:03:56Z</time></trkpt><trkpt lat="31.474542681122212" lon="-7.430066350552872"><ele>1441.0</ele><time>2026-04-24T10:03:57Z</time></trkpt><trkpt lat="31.47465035646191" lon="-7.429867677940645"><ele>1437.0</ele><time>2026-04-24T10:03:58Z</time></trkpt><trkpt lat="31.474751603530287" lon="-7.429663617979134"><ele>1444.3333333333333</ele><time>2026-04-24T10:03:59Z</time></trkpt><trkpt lat="31.47484907197689" lon="-7.429453998894633"><ele>1451.6666666666665</ele><time>2026-04-24T10:04:00Z</time></trkpt><trkpt lat="31.474945104035513" lon="-7.429245608846553"><ele>1459.0</ele><time>2026-04-24T10:04:01Z</time></trkpt><trkpt lat="31.475031849887554" lon="-7.429034169928463"><ele>1459.0</ele><time>2026-04-24T10:04:02Z</time></trkpt><trkpt lat="31.475114705505824" lon="-7.428816424920635"><ele>1459.0</ele><time>2026-04-24T10:04:03Z</time></trkpt><trkpt lat="31.47518766983595" lon="-7.428595887075999"><ele>1459.0</ele><time>2026-04-24T10:04:04Z</time></trkpt><trkpt lat="31.475247247105735" lon="-7.42837149732531"><ele>1466.3333333333333</ele><time>2026-04-24T10:04:05Z</time></trkpt><trkpt lat="31.475290962379987" lon="-7.4281463610232885"><ele>1473.6666666666667</ele><time>2026-04-24T10:04:06Z</time></trkpt><trkpt lat="31.475316020262948" lon="-7.42791838444007"><ele>1481.0</ele><time>2026-04-24T10:04:07Z</time></trkpt><trkpt lat="31.475325506420145" lon="-7.427688312550117"><ele>1484.0</ele><time>2026-04-24T10:04:08Z</time></trkpt><trkpt lat="31.475339981730496" lon="-7.427456789074286"><ele>1487.0</ele><time>2026-04-24T10:04:09Z</time></trkpt><trkpt lat="31.47533623382449" lon="-7.427220158895697"><ele>1490.0</ele><time>2026-04-24T10:04:10Z</time></trkpt><trkpt lat="31.475335882442653" lon="-7.426987147898628"><ele>1494.3333333333335</ele><time>2026-04-24T10:04:11Z</time></trkpt><trkpt lat="31.475333314405212" lon="-7.426755582247115"><ele>1498.6666666666667</ele><time>2026-04-24T10:04:12Z</time></trkpt><trkpt lat="31.47533148089273" lon="-7.426528895560727"><ele>1503.0</ele><time>2026-04-24T10:04:13Z</time></trkpt><trkpt lat="31.475332673186614" lon="-7.426308383376569"><ele>1503.0</ele><time>2026-04-24T10:04:14Z</time></trkpt><trkpt lat="31.475335962147405" lon="-7.426086733581431"><ele>1503.0</ele><time>2026-04-24T10:04:15Z</time></trkpt><trkpt lat="31.47534612560299" lon="-7.425865140249654"><ele>1503.0</ele><time>2026-04-24T10:04:16Z</time></trkpt><trkpt lat="31.475366838561285" lon="-7.42564929959672"><ele>1506.6666666666667</ele><time>2026-04-24T10:04:17Z</time></trkpt><trkpt lat="31.47539561431743" lon="-7.425437870972173"><ele>1510.3333333333335</ele><time>2026-04-24T10:04:18Z</time></trkpt><trkpt lat="31.47542879263268" lon="-7.425230362512803"><ele>1514.0</ele><time>2026-04-24T10:04:19Z</time></trkpt><trkpt lat="31.475434692678977" lon="-7.425028191825727"><ele>1514.0</ele><time>2026-04-24T10:04:20Z</time></trkpt><trkpt lat="31.47543810479638" lon="-7.424823127029816"><ele>1514.0</ele><time>2026-04-24T10:04:21Z</time></trkpt><trkpt lat="31.475441777936123" lon="-7.424611483424833"><ele>1514.0</ele><time>2026-04-24T10:04:22Z</time></trkpt><trkpt lat="31.47542821837626" lon="-7.424407518095443"><ele>1514.0</ele><time>2026-04-24T10:04:23Z</time></trkpt><trkpt lat="31.475414908308316" lon="-7.424199709625895"><ele>1514.0</ele><time>2026-04-24T10:04:24Z</time></trkpt><trkpt lat="31.47541644896666" lon="-7.423994155627891"><ele>1514.0</ele><time>2026-04-24T10:04:25Z</time></trkpt><trkpt lat="31.47538004532872" lon="-7.423794917567059"><ele>1510.6666666666667</ele><time>2026-04-24T10:04:26Z</time></trkpt><trkpt lat="31.475336095764007" lon="-7.423605529438071"><ele>1507.3333333333333</ele><time>2026-04-24T10:04:27Z</time></trkpt><trkpt lat="31.475283078877546" lon="-7.423425676936817"><ele>1504.0</ele><time>2026-04-24T10:04:28Z</time></trkpt><trkpt lat="31.475226686064293" lon="-7.423254148319837"><ele>1504.0</ele><time>2026-04-24T10:04:29Z</time></trkpt><trkpt lat="31.475167145669165" lon="-7.423085314140548"><ele>1504.0</ele><time>2026-04-24T10:04:30Z</time></trkpt><trkpt lat="31.475111765849714" lon="-7.422918789178736"><ele>1504.0</ele><time>2026-04-24T10:04:31Z</time></trkpt><trkpt lat="31.47506464157646" lon="-7.422755641210005"><ele>1504.5</ele><time>2026-04-24T10:04:32Z</time></trkpt><trkpt lat="31.475023775015" lon="-7.422590765322499"><ele>1505.0</ele><time>2026-04-24T10:04:33Z</time></trkpt><trkpt lat="31.47498962347648" lon="-7.42242164229982"><ele>1505.5</ele><time>2026-04-24T10:04:34Z</time></trkpt><trkpt lat="31.47496298198546" lon="-7.422250577157495"><ele>1506.0</ele><time>2026-04-24T10:04:35Z</time></trkpt><trkpt lat="31.474943960061385" lon="-7.422079876599363"><ele>1506.0</ele><time>2026-04-24T10:04:36Z</time></trkpt><trkpt lat="31.474931151673786" lon="-7.421909701153022"><ele>1506.0</ele><time>2026-04-24T10:04:37Z</time></trkpt><trkpt lat="31.474923418797072" lon="-7.421741508926874"><ele>1506.0</ele><time>2026-04-24T10:04:38Z</time></trkpt><trkpt lat="31.4749237590396" lon="-7.421574947443119"><ele>1506.0</ele><time>2026-04-24T10:04:39Z</time></trkpt><trkpt lat="31.47493006848494" lon="-7.421409367580693"><ele>1506.75</ele><time>2026-04-24T10:04:40Z</time></trkpt><trkpt lat="31.474940693025932" lon="-7.421242425017547"><ele>1507.5</ele><time>2026-04-24T10:04:41Z</time></trkpt><trkpt lat="31.474935555586274" lon="-7.421074560157895"><ele>1508.25</ele><time>2026-04-24T10:04:42Z</time></trkpt><trkpt lat="31.47497832261486" lon="-7.420909718551341"><ele>1509.0</ele><time>2026-04-24T10:04:43Z</time></trkpt><trkpt lat="31.475000793276337" lon="-7.420743073077942"><ele>1509.0</ele><time>2026-04-24T10:04:44Z</time></trkpt><trkpt lat="31.47501803884575" lon="-7.4205721228143755"><ele>1509.0</ele><time>2026-04-24T10:04:45Z</time></trkpt><trkpt lat="31.47500926447333" lon="-7.42039621486615"><ele>1509.0</ele><time>2026-04-24T10:04:46Z</time></trkpt><trkpt lat="31.475031034335473" lon="-7.420220312195511"><ele>1509.0</ele><time>2026-04-24T10:04:47Z</time></trkpt><trkpt lat="31.475025858105006" lon="-7.4200441495094855"><ele>1507.3333333333333</ele><time>2026-04-24T10:04:48Z</time></trkpt><trkpt lat="31.475013177401596" lon="-7.4198675576964614"><ele>1505.6666666666665</ele><time>2026-04-24T10:04:49Z</time></trkpt><trkpt lat="31.474991641368142" lon="-7.419691566124447"><ele>1504.0</ele><time>2026-04-24T10:04:50Z</time></trkpt><trkpt lat="31.47496692141459" lon="-7.419519048504307"><ele>1503.0</ele><time>2026-04-24T10:04:51Z</time></trkpt><trkpt lat="31.474941851999347" lon="-7.419354107911057"><ele>1502.0</ele><time>2026-04-24T10:04:52Z</time></trkpt><trkpt lat="31.47491613631977" lon="-7.419197997516675"><ele>1501.0</ele><time>2026-04-24T10:04:53Z</time></trkpt><trkpt lat="31.47488604666043" lon="-7.4190471762233745"><ele>1500.0</ele><time>2026-04-24T10:04:54Z</time></trkpt><trkpt lat="31.47484663335248" lon="-7.418900763325326"><ele>1497.0</ele><time>2026-04-24T10:04:55Z</time></trkpt><trkpt lat="31.47479907619003" lon="-7.418754322137401"><ele>1494.0</ele><time>2026-04-24T10:04:56Z</time></trkpt><trkpt lat="31.47474612408566" lon="-7.418612738618125"><ele>1491.0</ele><time>2026-04-24T10:04:57Z</time></trkpt><trkpt lat="31.47468457520897" lon="-7.4184776310585026"><ele>1488.0</ele><time>2026-04-24T10:04:58Z</time></trkpt><trkpt lat="31.474618222362384" lon="-7.418347298940683"><ele>1491.75</ele><time>2026-04-24T10:04:59Z</time></trkpt><trkpt lat="31.474547078936325" lon="-7.418220679007984"><ele>1495.5</ele><time>2026-04-24T10:05:00Z</time></trkpt><trkpt lat="31.474472599988303" lon="-7.418096564802974"><ele>1499.25</ele><time>2026-04-24T10:05:01Z</time></trkpt><trkpt lat="31.474397667774493" lon="-7.417973359201693"><ele>1503.0</ele><time>2026-04-24T10:05:02Z</time></trkpt><trkpt lat="31.47432387611857" lon="-7.417850348841744"><ele>1503.0</ele><time>2026-04-24T10:05:03Z</time></trkpt><trkpt lat="31.474249740974468" lon="-7.4177283817159"><ele>1503.0</ele><time>2026-04-24T10:05:04Z</time></trkpt><trkpt lat="31.474175112544508" lon="-7.417605079311657"><ele>1503.0</ele><time>2026-04-24T10:05:05Z</time></trkpt><trkpt lat="31.47410124894612" lon="-7.417479138598287"><ele>1503.0</ele><time>2026-04-24T10:05:05.999Z</time></trkpt><trkpt lat="31.474030434486913" lon="-7.417349882425484"><ele>1503.0</ele><time>2026-04-24T10:05:06.999Z</time></trkpt><trkpt lat="31.4739628146267" lon="-7.417214915339687"><ele>1503.0</ele><time>2026-04-24T10:05:07.999Z</time></trkpt><trkpt lat="31.473900912104114" lon="-7.4170768385333705"><ele>1503.0</ele><time>2026-04-24T10:05:08.999Z</time></trkpt><trkpt lat="31.473842321064936" lon="-7.41693544520214"><ele>1503.0</ele><time>2026-04-24T10:05:09.999Z</time></trkpt><trkpt lat="31.473788016131206" lon="-7.416789590773377"><ele>1505.5</ele><time>2026-04-24T10:05:10.999Z</time></trkpt><trkpt lat="31.473737899897618" lon="-7.416634090817623"><ele>1508.0</ele><time>2026-04-24T10:05:11.999Z</time></trkpt><trkpt lat="31.47369423045762" lon="-7.416473311417867"><ele>1510.5</ele><time>2026-04-24T10:05:12.999Z</time></trkpt><trkpt lat="31.47365681020416" lon="-7.416309263802854"><ele>1513.0</ele><time>2026-04-24T10:05:13.999Z</time></trkpt><trkpt lat="31.473620483957962" lon="-7.416139012703925"><ele>1513.0</ele><time>2026-04-24T10:05:14.999Z</time></trkpt><trkpt lat="31.473585321582714" lon="-7.4159673924562854"><ele>1513.0</ele><time>2026-04-24T10:05:15.999Z</time></trkpt><trkpt lat="31.473550978071295" lon="-7.41579892239657"><ele>1513.0</ele><time>2026-04-24T10:05:16.999Z</time></trkpt><trkpt lat="31.473516010911176" lon="-7.415634275674964"><ele>1513.0</ele><time>2026-04-24T10:05:17.999Z</time></trkpt><trkpt lat="31.473481858189707" lon="-7.415473642477774"><ele>1511.5</ele><time>2026-04-24T10:05:18.999Z</time></trkpt><trkpt lat="31.473447442690663" lon="-7.415309018356138"><ele>1510.0</ele><time>2026-04-24T10:05:19.999Z</time></trkpt><trkpt lat="31.473413284288448" lon="-7.415143011885909"><ele>1508.5</ele><time>2026-04-24T10:05:20.999Z</time></trkpt><trkpt lat="31.473377953520206" lon="-7.414975005391331"><ele>1507.0</ele><time>2026-04-24T10:05:21.999Z</time></trkpt><trkpt lat="31.473341352894547" lon="-7.4148063766554"><ele>1505.0</ele><time>2026-04-24T10:05:22.999Z</time></trkpt><trkpt lat="31.47330556103901" lon="-7.4146383168848295"><ele>1503.0</ele><time>2026-04-24T10:05:23.999Z</time></trkpt><trkpt lat="31.47327446715612" lon="-7.41447084197074"><ele>1501.0</ele><time>2026-04-24T10:05:24.999Z</time></trkpt><trkpt lat="31.473245518724088" lon="-7.4142987151165025"><ele>1499.0</ele><time>2026-04-24T10:05:25.999Z</time></trkpt><trkpt lat="31.473220736057964" lon="-7.414125959321181"><ele>1499.0</ele><time>2026-04-24T10:05:26.999Z</time></trkpt><trkpt lat="31.473201653537487" lon="-7.413952211860778"><ele>1499.0</ele><time>2026-04-24T10:05:27.999Z</time></trkpt><trkpt lat="31.473184661421286" lon="-7.413778519342587"><ele>1499.0</ele><time>2026-04-24T10:05:28.999Z</time></trkpt><trkpt lat="31.473169817734007" lon="-7.41360630688114"><ele>1499.0</ele><time>2026-04-24T10:05:29.999Z</time></trkpt><trkpt lat="31.47315354911056" lon="-7.413436332697672"><ele>1497.25</ele><time>2026-04-24T10:05:30.999Z</time></trkpt><trkpt lat="31.47313035143822" lon="-7.41326883123994"><ele>1495.5</ele><time>2026-04-24T10:05:31.999Z</time></trkpt><trkpt lat="31.47310440291108" lon="-7.413105973697509"><ele>1493.75</ele><time>2026-04-24T10:05:32.999Z</time></trkpt><trkpt lat="31.47307438693622" lon="-7.412950456811376"><ele>1492.0</ele><time>2026-04-24T10:05:33.999Z</time></trkpt><trkpt lat="31.473039415775734" lon="-7.412798511860763"><ele>1492.0</ele><time>2026-04-24T10:05:34.999Z</time></trkpt><trkpt lat="31.473000658436145" lon="-7.412649488204071"><ele>1492.0</ele><time>2026-04-24T10:05:35.999Z</time></trkpt><trkpt lat="31.472961858842076" lon="-7.412502884972088"><ele>1492.0</ele><time>2026-04-24T10:05:36.999Z</time></trkpt><trkpt lat="31.47292082295943" lon="-7.4123571051702655"><ele>1492.0</ele><time>2026-04-24T10:05:37.999Z</time></trkpt><trkpt lat="31.47287669159245" lon="-7.412211518065352"><ele>1500.5</ele><time>2026-04-24T10:05:38.999Z</time></trkpt><trkpt lat="31.472833030626834" lon="-7.412067216833799"><ele>1509.0</ele><time>2026-04-24T10:05:39.999Z</time></trkpt><trkpt lat="31.47278991660798" lon="-7.411921325553722"><ele>1517.5</ele><time>2026-04-24T10:05:40.999Z</time></trkpt><trkpt lat="31.472745569276213" lon="-7.411774586186144"><ele>1526.0</ele><time>2026-04-24T10:05:41.999Z</time></trkpt><trkpt lat="31.472703305133216" lon="-7.411625347397492"><ele>1526.0</ele><time>2026-04-24T10:05:42.999Z</time></trkpt><trkpt lat="31.472662129665217" lon="-7.41147462739746"><ele>1526.0</ele><time>2026-04-24T10:05:44Z</time></trkpt><trkpt lat="31.472620735432713" lon="-7.41132426104883"><ele>1526.0</ele><time>2026-04-24T10:05:45Z</time></trkpt><trkpt lat="31.472577642407895" lon="-7.411174871537345"><ele>1526.0</ele><time>2026-04-24T10:05:46Z</time></trkpt><trkpt lat="31.4725353623677" lon="-7.411024920768941"><ele>1522.75</ele><time>2026-04-24T10:05:47Z</time></trkpt><trkpt lat="31.47249495848169" lon="-7.410877947774616"><ele>1519.5</ele><time>2026-04-24T10:05:48Z</time></trkpt><trkpt lat="31.472452917820796" lon="-7.410731137621295"><ele>1516.25</ele><time>2026-04-24T10:05:49Z</time></trkpt><trkpt lat="31.472410213537813" lon="-7.4105869708676195"><ele>1513.0</ele><time>2026-04-24T10:05:50Z</time></trkpt><trkpt lat="31.472369026819894" lon="-7.41044379751491"><ele>1509.25</ele><time>2026-04-24T10:05:51Z</time></trkpt><trkpt lat="31.472328811521393" lon="-7.410300169109056"><ele>1505.5</ele><time>2026-04-24T10:05:52Z</time></trkpt><trkpt lat="31.47228872946838" lon="-7.410155721857442"><ele>1501.75</ele><time>2026-04-24T10:05:53Z</time></trkpt><trkpt lat="31.472248513266926" lon="-7.410011373762026"><ele>1498.0</ele><time>2026-04-24T10:05:54Z</time></trkpt><trkpt lat="31.47220804723606" lon="-7.409869578224804"><ele>1498.0</ele><time>2026-04-24T10:05:55Z</time></trkpt><trkpt lat="31.472165347182084" lon="-7.409726996990641"><ele>1498.0</ele><time>2026-04-24T10:05:56Z</time></trkpt><trkpt lat="31.47212355869944" lon="-7.409582872346034"><ele>1498.0</ele><time>2026-04-24T10:05:57Z</time></trkpt><trkpt lat="31.472084935267297" lon="-7.40943763998313"><ele>1498.0</ele><time>2026-04-24T10:05:58Z</time></trkpt><trkpt lat="31.472048224684595" lon="-7.409292119957122"><ele>1506.25</ele><time>2026-04-24T10:05:59Z</time></trkpt><trkpt lat="31.472015466467813" lon="-7.409149547430213"><ele>1514.5</ele><time>2026-04-24T10:06:00Z</time></trkpt><trkpt lat="31.47198958908387" lon="-7.409006631587991"><ele>1522.75</ele><time>2026-04-24T10:06:01Z</time></trkpt><trkpt lat="31.471971633113114" lon="-7.4088650137202725"><ele>1531.0</ele><time>2026-04-24T10:06:02Z</time></trkpt><trkpt lat="31.471960314480686" lon="-7.408721101292582"><ele>1531.25</ele><time>2026-04-24T10:06:03Z</time></trkpt><trkpt lat="31.47195495912036" lon="-7.408574301029779"><ele>1531.5</ele><time>2026-04-24T10:06:04Z</time></trkpt><trkpt lat="31.471953600388595" lon="-7.408426781714428"><ele>1531.75</ele><time>2026-04-24T10:06:05Z</time></trkpt><trkpt lat="31.47195403734816" lon="-7.408280507542865"><ele>1532.0</ele><time>2026-04-24T10:06:06Z</time></trkpt><trkpt lat="31.471955186609023" lon="-7.408136226947028"><ele>1532.0</ele><time>2026-04-24T10:06:07Z</time></trkpt><trkpt lat="31.4719573174334" lon="-7.407996356897522"><ele>1532.0</ele><time>2026-04-24T10:06:08Z</time></trkpt><trkpt lat="31.471959794246466" lon="-7.407857550061998"><ele>1532.0</ele><time>2026-04-24T10:06:09Z</time></trkpt><trkpt lat="31.47196138043566" lon="-7.407717608137189"><ele>1532.0</ele><time>2026-04-24T10:06:10Z</time></trkpt><trkpt lat="31.471960361392163" lon="-7.4075820289037715"><ele>1530.5</ele><time>2026-04-24T10:06:11Z</time></trkpt><trkpt lat="31.471955545713648" lon="-7.407449076617666"><ele>1529.0</ele><time>2026-04-24T10:06:12Z</time></trkpt><trkpt lat="31.471944701872516" lon="-7.40731275137502"><ele>1527.5</ele><time>2026-04-24T10:06:13Z</time></trkpt><trkpt lat="31.471925042283935" lon="-7.407172886901675"><ele>1526.0</ele><time>2026-04-24T10:06:14Z</time></trkpt><trkpt lat="31.47189672392775" lon="-7.407036345807354"><ele>1521.75</ele><time>2026-04-24T10:06:15Z</time></trkpt><trkpt lat="31.471861006489426" lon="-7.4069066187205195"><ele>1517.5</ele><time>2026-04-24T10:06:16Z</time></trkpt><trkpt lat="31.47181453076455" lon="-7.406776696421246"><ele>1513.25</ele><time>2026-04-24T10:06:17Z</time></trkpt><trkpt lat="31.47176066760665" lon="-7.40665013853532"><ele>1509.0</ele><time>2026-04-24T10:06:18Z</time></trkpt><trkpt lat="31.471704225817845" lon="-7.406523101359347"><ele>1509.0</ele><time>2026-04-24T10:06:19Z</time></trkpt><trkpt lat="31.471647342599336" lon="-7.406394115984493"><ele>1509.0</ele><time>2026-04-24T10:06:20Z</time></trkpt><trkpt lat="31.471594092444494" lon="-7.406260935316031"><ele>1509.0</ele><time>2026-04-24T10:06:21Z</time></trkpt><trkpt lat="31.471548723579744" lon="-7.406123682607801"><ele>1509.0</ele><time>2026-04-24T10:06:22Z</time></trkpt><trkpt lat="31.47151288361209" lon="-7.405983119703992"><ele>1505.25</ele><time>2026-04-24T10:06:23Z</time></trkpt><trkpt lat="31.47148360138328" lon="-7.405837746605837"><ele>1501.5</ele><time>2026-04-24T10:06:24Z</time></trkpt><trkpt lat="31.47146518356257" lon="-7.405689851303753"><ele>1497.75</ele><time>2026-04-24T10:06:25Z</time></trkpt><trkpt lat="31.47145506128012" lon="-7.405542168301356"><ele>1494.0</ele><time>2026-04-24T10:06:26Z</time></trkpt><trkpt lat="31.47145258639094" lon="-7.405394740818317"><ele>1491.75</ele><time>2026-04-24T10:06:27Z</time></trkpt><trkpt lat="31.471455131020857" lon="-7.405246700895577"><ele>1489.5</ele><time>2026-04-24T10:06:28Z</time></trkpt><trkpt lat="31.471461863433788" lon="-7.405099262067023"><ele>1487.25</ele><time>2026-04-24T10:06:29Z</time></trkpt><trkpt lat="31.471471194349565" lon="-7.404952025893956"><ele>1485.0</ele><time>2026-04-24T10:06:30Z</time></trkpt><trkpt lat="31.471477983411333" lon="-7.404811407845633"><ele>1485.0</ele><time>2026-04-24T10:06:31Z</time></trkpt><trkpt lat="31.471486085024672" lon="-7.4046745299511265"><ele>1485.0</ele><time>2026-04-24T10:06:32Z</time></trkpt><trkpt lat="31.4714915669262" lon="-7.404540935764972"><ele>1485.0</ele><time>2026-04-24T10:06:33Z</time></trkpt><trkpt lat="31.471497147281784" lon="-7.404409162776996"><ele>1485.0</ele><time>2026-04-24T10:06:34Z</time></trkpt><trkpt lat="31.47150145675298" lon="-7.404274710694006"><ele>1483.75</ele><time>2026-04-24T10:06:35Z</time></trkpt><trkpt lat="31.471507486974627" lon="-7.404138117857824"><ele>1482.5</ele><time>2026-04-24T10:06:36Z</time></trkpt><trkpt lat="31.471514588918293" lon="-7.403998868625892"><ele>1481.25</ele><time>2026-04-24T10:06:37Z</time></trkpt><trkpt lat="31.471519340970204" lon="-7.403857092592479"><ele>1480.0</ele><time>2026-04-24T10:06:38Z</time></trkpt><trkpt lat="31.47152583884619" lon="-7.403709913852329"><ele>1478.0</ele><time>2026-04-24T10:06:39Z</time></trkpt><trkpt lat="31.471532027246678" lon="-7.403562299788844"><ele>1476.0</ele><time>2026-04-24T10:06:40Z</time></trkpt><trkpt lat="31.47153619490646" lon="-7.4034109284147736"><ele>1474.0</ele><time>2026-04-24T10:06:41Z</time></trkpt><trkpt lat="31.471545639117977" lon="-7.403256744945504"><ele>1472.0</ele><time>2026-04-24T10:06:42Z</time></trkpt><trkpt lat="31.471552386100807" lon="-7.403099526526685"><ele>1472.0</ele><time>2026-04-24T10:06:43Z</time></trkpt><trkpt lat="31.471557914018803" lon="-7.402944042831357"><ele>1472.0</ele><time>2026-04-24T10:06:44Z</time></trkpt><trkpt lat="31.47156427864991" lon="-7.4027863261942235"><ele>1472.0</ele><time>2026-04-24T10:06:45Z</time></trkpt><trkpt lat="31.471570138834757" lon="-7.402625673023077"><ele>1472.0</ele><time>2026-04-24T10:06:46Z</time></trkpt><trkpt lat="31.471576015761435" lon="-7.402467334833399"><ele>1472.0</ele><time>2026-04-24T10:06:47Z</time></trkpt><trkpt lat="31.47158181995708" lon="-7.402314113096701"><ele>1472.0</ele><time>2026-04-24T10:06:48Z</time></trkpt><trkpt lat="31.47157844972329" lon="-7.402168807408542"><ele>1472.0</ele><time>2026-04-24T10:06:49Z</time></trkpt><trkpt lat="31.471572675694674" lon="-7.402031082096325"><ele>1472.0</ele><time>2026-04-24T10:06:50Z</time></trkpt><trkpt lat="31.471553611002427" lon="-7.401892437683697"><ele>1470.75</ele><time>2026-04-24T10:06:51Z</time></trkpt><trkpt lat="31.471523704539923" lon="-7.401755173045196"><ele>1469.5</ele><time>2026-04-24T10:06:52Z</time></trkpt><trkpt lat="31.471490455370887" lon="-7.401613533310737"><ele>1468.25</ele><time>2026-04-24T10:06:53Z</time></trkpt><trkpt lat="31.471447715839794" lon="-7.401469968580948"><ele>1467.0</ele><time>2026-04-24T10:06:54Z</time></trkpt><trkpt lat="31.471412535633327" lon="-7.401322439100874"><ele>1464.25</ele><time>2026-04-24T10:06:55Z</time></trkpt><trkpt lat="31.471370104824242" lon="-7.401170887171286"><ele>1461.5</ele><time>2026-04-24T10:06:56Z</time></trkpt><trkpt lat="31.471327047911878" lon="-7.40102962102901"><ele>1458.75</ele><time>2026-04-24T10:06:57Z</time></trkpt><trkpt lat="31.471291580928522" lon="-7.400892892849673"><ele>1456.0</ele><time>2026-04-24T10:06:58Z</time></trkpt><trkpt lat="31.471254631975967" lon="-7.400755042468087"><ele>1462.5</ele><time>2026-04-24T10:06:59Z</time></trkpt><trkpt lat="31.47121781547709" lon="-7.400622083864167"><ele>1469.0</ele><time>2026-04-24T10:07:00Z</time></trkpt><trkpt lat="31.471182015989505" lon="-7.4004900868606"><ele>1475.5</ele><time>2026-04-24T10:07:01Z</time></trkpt><trkpt lat="31.471146532491108" lon="-7.400357135552655"><ele>1482.0</ele><time>2026-04-24T10:07:02Z</time></trkpt><trkpt lat="31.471109459385126" lon="-7.400227084065608"><ele>1482.0</ele><time>2026-04-24T10:07:02.999Z</time></trkpt><trkpt lat="31.47106956830843" lon="-7.40009220150399"><ele>1482.0</ele><time>2026-04-24T10:07:03.999Z</time></trkpt><trkpt lat="31.471028560275528" lon="-7.399950715738069"><ele>1482.0</ele><time>2026-04-24T10:07:04.999Z</time></trkpt><trkpt lat="31.470988729398695" lon="-7.3998017924078585"><ele>1482.0</ele><time>2026-04-24T10:07:05.999Z</time></trkpt><trkpt lat="31.47094247564281" lon="-7.399647340347412"><ele>1479.0</ele><time>2026-04-24T10:07:06.999Z</time></trkpt><trkpt lat="31.470895014195825" lon="-7.3994841999310506"><ele>1476.0</ele><time>2026-04-24T10:07:07.999Z</time></trkpt><trkpt lat="31.470848807297283" lon="-7.399317256750848"><ele>1473.0</ele><time>2026-04-24T10:07:08.999Z</time></trkpt><trkpt lat="31.47080291441485" lon="-7.399151495476901"><ele>1470.0</ele><time>2026-04-24T10:07:09.999Z</time></trkpt><trkpt lat="31.47075729001501" lon="-7.398992132127514"><ele>1470.0</ele><time>2026-04-24T10:07:10.999Z</time></trkpt><trkpt lat="31.47070423879967" lon="-7.398841949019764"><ele>1470.0</ele><time>2026-04-24T10:07:11.999Z</time></trkpt><trkpt lat="31.470642475100963" lon="-7.398711103784442"><ele>1470.0</ele><time>2026-04-24T10:07:12.999Z</time></trkpt><trkpt lat="31.47057020619626" lon="-7.398604391340332"><ele>1470.0</ele><time>2026-04-24T10:07:13.999Z</time></trkpt><trkpt lat="31.47048581642934" lon="-7.398521574098104"><ele>1472.25</ele><time>2026-04-24T10:07:14.999Z</time></trkpt><trkpt lat="31.470388374171957" lon="-7.398456104731419"><ele>1474.5</ele><time>2026-04-24T10:07:15.999Z</time></trkpt><trkpt lat="31.47027750389538" lon="-7.398417610142822"><ele>1476.75</ele><time>2026-04-24T10:07:16.999Z</time></trkpt><trkpt lat="31.470159110262248" lon="-7.398397320458196"><ele>1479.0</ele><time>2026-04-24T10:07:17.999Z</time></trkpt><trkpt lat="31.470037633545644" lon="-7.398401670154802"><ele>1479.0</ele><time>2026-04-24T10:07:18.999Z</time></trkpt><trkpt lat="31.46992066330297" lon="-7.398429111478323"><ele>1479.0</ele><time>2026-04-24T10:07:19.999Z</time></trkpt><trkpt lat="31.469809963040333" lon="-7.398481139549983"><ele>1479.0</ele><time>2026-04-24T10:07:20.999Z</time></trkpt><trkpt lat="31.469710717374884" lon="-7.398555511207206"><ele>1479.0</ele><time>2026-04-24T10:07:21.999Z</time></trkpt><trkpt lat="31.469622066474052" lon="-7.39864584872142"><ele>1474.0</ele><time>2026-04-24T10:07:22.999Z</time></trkpt><trkpt lat="31.469539591879595" lon="-7.398749960666277"><ele>1469.0</ele><time>2026-04-24T10:07:23.999Z</time></trkpt><trkpt lat="31.469461193086044" lon="-7.398865637390123"><ele>1464.0</ele><time>2026-04-24T10:07:24.999Z</time></trkpt><trkpt lat="31.469381807904657" lon="-7.398977771739205"><ele>1459.0</ele><time>2026-04-24T10:07:25.999Z</time></trkpt><trkpt lat="31.46929808721103" lon="-7.399094551919133"><ele>1459.0</ele><time>2026-04-24T10:07:26.999Z</time></trkpt><trkpt lat="31.469216975240073" lon="-7.399208121602288"><ele>1459.0</ele><time>2026-04-24T10:07:27.999Z</time></trkpt><trkpt lat="31.46913847945602" lon="-7.399319736689687"><ele>1459.0</ele><time>2026-04-24T10:07:28.999Z</time></trkpt><trkpt lat="31.469058462369198" lon="-7.399427324519179"><ele>1459.0</ele><time>2026-04-24T10:07:29.999Z</time></trkpt><trkpt lat="31.46898079463952" lon="-7.399533831206592"><ele>1459.0</ele><time>2026-04-24T10:07:30.999Z</time></trkpt><trkpt lat="31.468901653439776" lon="-7.399642584301413"><ele>1459.0</ele><time>2026-04-24T10:07:31.999Z</time></trkpt><trkpt lat="31.468820732940085" lon="-7.39975064874153"><ele>1459.0</ele><time>2026-04-24T10:07:32.999Z</time></trkpt><trkpt lat="31.468735250396865" lon="-7.3998544427542265"><ele>1459.0</ele><time>2026-04-24T10:07:33.999Z</time></trkpt><trkpt lat="31.468646653939878" lon="-7.399959885998457"><ele>1458.5</ele><time>2026-04-24T10:07:34.999Z</time></trkpt><trkpt lat="31.46855227818698" lon="-7.40006248164098"><ele>1458.0</ele><time>2026-04-24T10:07:35.999Z</time></trkpt><trkpt lat="31.468459240939577" lon="-7.400164100742507"><ele>1457.5</ele><time>2026-04-24T10:07:36.999Z</time></trkpt><trkpt lat="31.468365046831487" lon="-7.400262245875389"><ele>1457.0</ele><time>2026-04-24T10:07:37.999Z</time></trkpt><trkpt lat="31.46827064654698" lon="-7.40036178485896"><ele>1457.0</ele><time>2026-04-24T10:07:38.999Z</time></trkpt><trkpt lat="31.46817618176147" lon="-7.400462895847053"><ele>1457.0</ele><time>2026-04-24T10:07:39.999Z</time></trkpt><trkpt lat="31.46808197095499" lon="-7.400561451797717"><ele>1457.0</ele><time>2026-04-24T10:07:40.999Z</time></trkpt><trkpt lat="31.467988085034747" lon="-7.400660180049023"><ele>1457.0</ele><time>2026-04-24T10:07:41.999Z</time></trkpt><trkpt lat="31.46789732273858" lon="-7.400755740078694"><ele>1457.25</ele><time>2026-04-24T10:07:42.999Z</time></trkpt><trkpt lat="31.467806555460285" lon="-7.400848165570636"><ele>1457.5</ele><time>2026-04-24T10:07:43.999Z</time></trkpt><trkpt lat="31.467717188867553" lon="-7.400942159727074"><ele>1457.75</ele><time>2026-04-24T10:07:44.999Z</time></trkpt><trkpt lat="31.46762864710337" lon="-7.401036461618913"><ele>1458.0</ele><time>2026-04-24T10:07:45.999Z</time></trkpt><trkpt lat="31.46753823382991" lon="-7.4011282771866975"><ele>1458.0</ele><time>2026-04-24T10:07:46.999Z</time></trkpt><trkpt lat="31.46745037303675" lon="-7.401220431243757"><ele>1458.0</ele><time>2026-04-24T10:07:47.999Z</time></trkpt><trkpt lat="31.467360170004945" lon="-7.401314227744958"><ele>1458.0</ele><time>2026-04-24T10:07:48.999Z</time></trkpt><trkpt lat="31.467270833372076" lon="-7.401409522374355"><ele>1458.0</ele><time>2026-04-24T10:07:50Z</time></trkpt><trkpt lat="31.467178620960535" lon="-7.401507940429604"><ele>1453.0</ele><time>2026-04-24T10:07:51Z</time></trkpt><trkpt lat="31.467084350106298" lon="-7.4016068152610055"><ele>1448.0</ele><time>2026-04-24T10:07:52Z</time></trkpt><trkpt lat="31.46698962220538" lon="-7.4017052065511315"><ele>1443.0</ele><time>2026-04-24T10:07:53Z</time></trkpt><trkpt lat="31.466895939991183" lon="-7.401803111143969"><ele>1438.0</ele><time>2026-04-24T10:07:54Z</time></trkpt><trkpt lat="31.466801248779145" lon="-7.401902267646082"><ele>1438.0</ele><time>2026-04-24T10:07:55Z</time></trkpt><trkpt lat="31.466707208101653" lon="-7.402000063053094"><ele>1438.0</ele><time>2026-04-24T10:07:56Z</time></trkpt><trkpt lat="31.466615716377348" lon="-7.402097708393886"><ele>1438.0</ele><time>2026-04-24T10:07:57Z</time></trkpt><trkpt lat="31.466521268141907" lon="-7.402192529867061"><ele>1438.0</ele><time>2026-04-24T10:07:58Z</time></trkpt><trkpt lat="31.466424489021716" lon="-7.402283244999081"><ele>1436.25</ele><time>2026-04-24T10:07:59Z</time></trkpt><trkpt lat="31.46632682542569" lon="-7.402373240453338"><ele>1434.5</ele><time>2026-04-24T10:08:00Z</time></trkpt><trkpt lat="31.46622552153001" lon="-7.40246338199242"><ele>1432.75</ele><time>2026-04-24T10:08:01Z</time></trkpt><trkpt lat="31.46612036352831" lon="-7.402553935243787"><ele>1431.0</ele><time>2026-04-24T10:08:02Z</time></trkpt><trkpt lat="31.46601983329006" lon="-7.402654753830764"><ele>1431.0</ele><time>2026-04-24T10:08:03Z</time></trkpt><trkpt lat="31.46590840095142" lon="-7.402747914820153"><ele>1431.0</ele><time>2026-04-24T10:08:04Z</time></trkpt><trkpt lat="31.465803500206455" lon="-7.4028433682604495"><ele>1431.0</ele><time>2026-04-24T10:08:05Z</time></trkpt><trkpt lat="31.46569854229257" lon="-7.402937310439238"><ele>1431.0</ele><time>2026-04-24T10:08:06Z</time></trkpt><trkpt lat="31.465590427537393" lon="-7.403028061014701"><ele>1430.0</ele><time>2026-04-24T10:08:07Z</time></trkpt><trkpt lat="31.46548468860087" lon="-7.403124200580895"><ele>1429.0</ele><time>2026-04-24T10:08:08Z</time></trkpt><trkpt lat="31.465375690836783" lon="-7.403220422917918"><ele>1428.0</ele><time>2026-04-24T10:08:09Z</time></trkpt><trkpt lat="31.46526886024183" lon="-7.403314981720026"><ele>1427.0</ele><time>2026-04-24T10:08:10Z</time></trkpt><trkpt lat="31.46516239097354" lon="-7.403413893403169"><ele>1427.0</ele><time>2026-04-24T10:08:11Z</time></trkpt><trkpt lat="31.465055501782395" lon="-7.403511734835009"><ele>1427.0</ele><time>2026-04-24T10:08:12Z</time></trkpt><trkpt lat="31.464947554690387" lon="-7.403604764979771"><ele>1427.0</ele><time>2026-04-24T10:08:13Z</time></trkpt><trkpt lat="31.464840032576443" lon="-7.403700187572468"><ele>1427.0</ele><time>2026-04-24T10:08:14Z</time></trkpt><trkpt lat="31.464738569535154" lon="-7.4037922232077955"><ele>1426.25</ele><time>2026-04-24T10:08:15Z</time></trkpt><trkpt lat="31.464634982785256" lon="-7.403880162126626"><ele>1425.5</ele><time>2026-04-24T10:08:16Z</time></trkpt><trkpt lat="31.46453383983071" lon="-7.403967305630614"><ele>1424.75</ele><time>2026-04-24T10:08:17Z</time></trkpt><trkpt lat="31.464432756250673" lon="-7.404053331536083"><ele>1424.0</ele><time>2026-04-24T10:08:18Z</time></trkpt><trkpt lat="31.46433556827992" lon="-7.404137405617604"><ele>1424.0</ele><time>2026-04-24T10:08:19Z</time></trkpt><trkpt lat="31.464240765697326" lon="-7.404222231308673"><ele>1424.0</ele><time>2026-04-24T10:08:20Z</time></trkpt><trkpt lat="31.464147473536546" lon="-7.4043060585966245"><ele>1424.0</ele><time>2026-04-24T10:08:21Z</time></trkpt><trkpt lat="31.464054676956767" lon="-7.40439083246315"><ele>1424.0</ele><time>2026-04-24T10:08:22Z</time></trkpt><trkpt lat="31.463963140286186" lon="-7.404479589378541"><ele>1424.0</ele><time>2026-04-24T10:08:23Z</time></trkpt><trkpt lat="31.463872841625435" lon="-7.404569404821939"><ele>1424.0</ele><time>2026-04-24T10:08:24Z</time></trkpt><trkpt lat="31.46378738494849" lon="-7.404662179333974"><ele>1424.0</ele><time>2026-04-24T10:08:25Z</time></trkpt><trkpt lat="31.463703785690896" lon="-7.404758273298555"><ele>1424.0</ele><time>2026-04-24T10:08:26Z</time></trkpt><trkpt lat="31.463620025529035" lon="-7.404856539832484"><ele>1421.0</ele><time>2026-04-24T10:08:27Z</time></trkpt><trkpt lat="31.46353798917496" lon="-7.404959908363629"><ele>1418.0</ele><time>2026-04-24T10:08:28Z</time></trkpt><trkpt lat="31.46345411672931" lon="-7.405069179640266"><ele>1415.0</ele><time>2026-04-24T10:08:29Z</time></trkpt><trkpt lat="31.463367745171254" lon="-7.405183980973397"><ele>1412.0</ele><time>2026-04-24T10:08:30Z</time></trkpt><trkpt lat="31.463283938439897" lon="-7.4052996998656795"><ele>1412.0</ele><time>2026-04-24T10:08:31Z</time></trkpt><trkpt lat="31.463200505824886" lon="-7.405419321930618"><ele>1412.0</ele><time>2026-04-24T10:08:32Z</time></trkpt><trkpt lat="31.463116487829687" lon="-7.405540538295517"><ele>1412.0</ele><time>2026-04-24T10:08:33Z</time></trkpt><trkpt lat="31.46302844430907" lon="-7.405654889263104"><ele>1412.0</ele><time>2026-04-24T10:08:34Z</time></trkpt><trkpt lat="31.46294792965471" lon="-7.405769268395027"><ele>1409.6</ele><time>2026-04-24T10:08:35Z</time></trkpt><trkpt lat="31.462872007395685" lon="-7.405871017131422"><ele>1407.1999999999998</ele><time>2026-04-24T10:08:36Z</time></trkpt><trkpt lat="31.462803664068765" lon="-7.405961182127137"><ele>1404.8</ele><time>2026-04-24T10:08:37Z</time></trkpt><trkpt lat="31.46273298895808" lon="-7.406051437452372"><ele>1402.4</ele><time>2026-04-24T10:08:38Z</time></trkpt><trkpt lat="31.46265985723359" lon="-7.406136332108024"><ele>1400.0</ele><time>2026-04-24T10:08:39Z</time></trkpt><trkpt lat="31.462583652653205" lon="-7.406215480857021"><ele>1400.0</ele><time>2026-04-24T10:08:40Z</time></trkpt><trkpt lat="31.462502846627917" lon="-7.406292256554174"><ele>1400.0</ele><time>2026-04-24T10:08:41Z</time></trkpt><trkpt lat="31.462417990154467" lon="-7.406364149898276"><ele>1400.0</ele><time>2026-04-24T10:08:42Z</time></trkpt><trkpt lat="31.46233234313842" lon="-7.406435664856342"><ele>1400.0</ele><time>2026-04-24T10:08:43Z</time></trkpt><trkpt lat="31.46224469551518" lon="-7.406504611476616"><ele>1400.0</ele><time>2026-04-24T10:08:44Z</time></trkpt><trkpt lat="31.46215750878156" lon="-7.406573551942209"><ele>1400.2</ele><time>2026-04-24T10:08:45Z</time></trkpt><trkpt lat="31.46207043040874" lon="-7.406641900870442"><ele>1400.4</ele><time>2026-04-24T10:08:46Z</time></trkpt><trkpt lat="31.461983842406994" lon="-7.406710659199835"><ele>1400.6</ele><time>2026-04-24T10:08:47Z</time></trkpt><trkpt lat="31.46189754671582" lon="-7.40677829806993"><ele>1400.8</ele><time>2026-04-24T10:08:48Z</time></trkpt><trkpt lat="31.461812283071662" lon="-7.406845380817321"><ele>1401.0</ele><time>2026-04-24T10:08:49Z</time></trkpt><trkpt lat="31.461727805172618" lon="-7.406911536685615"><ele>1401.0</ele><time>2026-04-24T10:08:50Z</time></trkpt><trkpt lat="31.46164317539292" lon="-7.406976658795774"><ele>1401.0</ele><time>2026-04-24T10:08:51Z</time></trkpt><trkpt lat="31.461558767364213" lon="-7.407040107802714"><ele>1401.0</ele><time>2026-04-24T10:08:52Z</time></trkpt><trkpt lat="31.461472272720307" lon="-7.407102672918846"><ele>1401.0</ele><time>2026-04-24T10:08:53Z</time></trkpt><trkpt lat="31.46138134002367" lon="-7.407158175793666"><ele>1401.0</ele><time>2026-04-24T10:08:54Z</time></trkpt><trkpt lat="31.461288320963302" lon="-7.407203183958529"><ele>1402.4</ele><time>2026-04-24T10:08:55Z</time></trkpt><trkpt lat="31.461192393352817" lon="-7.407231651092077"><ele>1403.8</ele><time>2026-04-24T10:08:56Z</time></trkpt><trkpt lat="31.46109696131989" lon="-7.4072425088358225"><ele>1405.2</ele><time>2026-04-24T10:08:57Z</time></trkpt><trkpt lat="31.4609986611427" lon="-7.407238599121744"><ele>1406.6000000000001</ele><time>2026-04-24T10:08:58Z</time></trkpt><trkpt lat="31.460903240203844" lon="-7.407216639760223"><ele>1408.0</ele><time>2026-04-24T10:08:59Z</time></trkpt><trkpt lat="31.46081233283499" lon="-7.407181107024352"><ele>1405.2</ele><time>2026-04-24T10:09:00Z</time></trkpt><trkpt lat="31.460724472689034" lon="-7.407128898011395"><ele>1402.4</ele><time>2026-04-24T10:09:01Z</time></trkpt><trkpt lat="31.460641555171733" lon="-7.407062109990604"><ele>1399.6000000000001</ele><time>2026-04-24T10:09:02Z</time></trkpt><trkpt lat="31.460565679072605" lon="-7.406980110878545"><ele>1396.8000000000002</ele><time>2026-04-24T10:09:03Z</time></trkpt><trkpt lat="31.460497660165544" lon="-7.406887393428552"><ele>1394.0</ele><time>2026-04-24T10:09:04Z</time></trkpt><trkpt lat="31.46043451362375" lon="-7.406787210521392"><ele>1394.0</ele><time>2026-04-24T10:09:05Z</time></trkpt><trkpt lat="31.460374918508997" lon="-7.40668561145217"><ele>1394.0</ele><time>2026-04-24T10:09:06Z</time></trkpt><trkpt lat="31.460317433394916" lon="-7.406584580555315"><ele>1394.0</ele><time>2026-04-24T10:09:07Z</time></trkpt><trkpt lat="31.460258038875796" lon="-7.406485182666724"><ele>1394.0</ele><time>2026-04-24T10:09:08Z</time></trkpt><trkpt lat="31.4601947174575" lon="-7.406389795161952"><ele>1394.0</ele><time>2026-04-24T10:09:09Z</time></trkpt><trkpt lat="31.46012977587853" lon="-7.4062978587970685"><ele>1393.0</ele><time>2026-04-24T10:09:10Z</time></trkpt><trkpt lat="31.46005902202097" lon="-7.406213446049511"><ele>1392.0</ele><time>2026-04-24T10:09:10.999Z</time></trkpt><trkpt lat="31.459979905497637" lon="-7.4061445800396095"><ele>1391.0</ele><time>2026-04-24T10:09:11.999Z</time></trkpt><trkpt lat="31.45989561556732" lon="-7.406088403524006"><ele>1390.0</ele><time>2026-04-24T10:09:12.999Z</time></trkpt><trkpt lat="31.459805476415255" lon="-7.406045072382077"><ele>1389.0</ele><time>2026-04-24T10:09:13.999Z</time></trkpt><trkpt lat="31.459709939554852" lon="-7.4060216384282915"><ele>1387.0</ele><time>2026-04-24T10:09:14.999Z</time></trkpt><trkpt lat="31.459613203346535" lon="-7.406014581978292"><ele>1385.0</ele><time>2026-04-24T10:09:15.999Z</time></trkpt><trkpt lat="31.459513591231055" lon="-7.406026223703649"><ele>1383.0</ele><time>2026-04-24T10:09:16.999Z</time></trkpt><trkpt lat="31.45941550780417" lon="-7.406053153486845"><ele>1381.0</ele><time>2026-04-24T10:09:17.999Z</time></trkpt><trkpt lat="31.45931974461161" lon="-7.406094839092048"><ele>1379.0</ele><time>2026-04-24T10:09:18.999Z</time></trkpt><trkpt lat="31.459224099885034" lon="-7.406144793539225"><ele>1379.0</ele><time>2026-04-24T10:09:19.999Z</time></trkpt><trkpt lat="31.459130657861202" lon="-7.406195269275043"><ele>1379.0</ele><time>2026-04-24T10:09:20.999Z</time></trkpt><trkpt lat="31.45903758940314" lon="-7.406246180318827"><ele>1379.0</ele><time>2026-04-24T10:09:21.999Z</time></trkpt><trkpt lat="31.458942380550948" lon="-7.4062952846139956"><ele>1379.0</ele><time>2026-04-24T10:09:22.999Z</time></trkpt><trkpt lat="31.458848140123244" lon="-7.406347731350464"><ele>1379.0</ele><time>2026-04-24T10:09:23.999Z</time></trkpt><trkpt lat="31.45875076607191" lon="-7.406396608064594"><ele>1381.4</ele><time>2026-04-24T10:09:24.999Z</time></trkpt><trkpt lat="31.458651724024794" lon="-7.406446217592138"><ele>1383.8000000000002</ele><time>2026-04-24T10:09:25.999Z</time></trkpt><trkpt lat="31.458548447169225" lon="-7.406488067462087"><ele>1386.1999999999998</ele><time>2026-04-24T10:09:26.999Z</time></trkpt><trkpt lat="31.45845051220988" lon="-7.406544153113439"><ele>1388.6</ele><time>2026-04-24T10:09:27.999Z</time></trkpt><trkpt lat="31.458337334492867" lon="-7.406560364338133"><ele>1391.0</ele><time>2026-04-24T10:09:28.999Z</time></trkpt><trkpt lat="31.45821402781635" lon="-7.406557222754378"><ele>1391.0</ele><time>2026-04-24T10:09:29.999Z</time></trkpt><trkpt lat="31.45809713340549" lon="-7.406527553844286"><ele>1391.0</ele><time>2026-04-24T10:09:30.999Z</time></trkpt><trkpt lat="31.45799451459562" lon="-7.406478179772547"><ele>1391.0</ele><time>2026-04-24T10:09:31.999Z</time></trkpt><trkpt lat="31.45788893755951" lon="-7.406387602601926"><ele>1391.0</ele><time>2026-04-24T10:09:32.999Z</time></trkpt><trkpt lat="31.457794700759397" lon="-7.40629657972662"><ele>1388.25</ele><time>2026-04-24T10:09:33.999Z</time></trkpt><trkpt lat="31.457703655272294" lon="-7.406203879419596"><ele>1385.5</ele><time>2026-04-24T10:09:34.999Z</time></trkpt><trkpt lat="31.457611487454535" lon="-7.406107877825349"><ele>1382.75</ele><time>2026-04-24T10:09:35.999Z</time></trkpt><trkpt lat="31.45752695123804" lon="-7.406008706210693"><ele>1380.0</ele><time>2026-04-24T10:09:36.999Z</time></trkpt><trkpt lat="31.457444119666093" lon="-7.4059109235449405"><ele>1380.0</ele><time>2026-04-24T10:09:37.999Z</time></trkpt><trkpt lat="31.457363247141316" lon="-7.405815412639975"><ele>1380.0</ele><time>2026-04-24T10:09:38.999Z</time></trkpt><trkpt lat="31.45731332934308" lon="-7.405692501445209"><ele>1380.0</ele><time>2026-04-24T10:09:39.999Z</time></trkpt><trkpt lat="31.457243678797717" lon="-7.405577618330515"><ele>1380.0</ele><time>2026-04-24T10:09:40.999Z</time></trkpt><trkpt lat="31.45720162165586" lon="-7.40545225623951"><ele>1375.5</ele><time>2026-04-24T10:09:41.999Z</time></trkpt><trkpt lat="31.45717728380229" lon="-7.4053153763704636"><ele>1371.0</ele><time>2026-04-24T10:09:42.999Z</time></trkpt><trkpt lat="31.45716390903463" lon="-7.405173599264549"><ele>1366.5</ele><time>2026-04-24T10:09:43.999Z</time></trkpt><trkpt lat="31.45715889723859" lon="-7.405028874349083"><ele>1362.0</ele><time>2026-04-24T10:09:44.999Z</time></trkpt><trkpt lat="31.457153901734774" lon="-7.404883317922782"><ele>1362.0</ele><time>2026-04-24T10:09:45.999Z</time></trkpt><trkpt lat="31.4571480371592" lon="-7.404739469462815"><ele>1362.0</ele><time>2026-04-24T10:09:46.999Z</time></trkpt><trkpt lat="31.45714311439626" lon="-7.404596450987525"><ele>1362.0</ele><time>2026-04-24T10:09:47.999Z</time></trkpt><trkpt lat="31.457136096490277" lon="-7.404452084666633"><ele>1362.0</ele><time>2026-04-24T10:09:48.999Z</time></trkpt><trkpt lat="31.45712811183249" lon="-7.404303978825395"><ele>1361.5</ele><time>2026-04-24T10:09:49.999Z</time></trkpt><trkpt lat="31.45711935340422" lon="-7.404153151801222"><ele>1361.0</ele><time>2026-04-24T10:09:50.999Z</time></trkpt><trkpt lat="31.45710882664533" lon="-7.404001528632256"><ele>1360.5</ele><time>2026-04-24T10:09:51.999Z</time></trkpt><trkpt lat="31.457098924177142" lon="-7.403855526195115"><ele>1360.0</ele><time>2026-04-24T10:09:52.999Z</time></trkpt><trkpt lat="31.457087945542664" lon="-7.403709561998632"><ele>1363.25</ele><time>2026-04-24T10:09:53.999Z</time></trkpt><trkpt lat="31.457079010207124" lon="-7.403563039443914"><ele>1366.5</ele><time>2026-04-24T10:09:54.999Z</time></trkpt><trkpt lat="31.4570728240416" lon="-7.403420887367885"><ele>1369.75</ele><time>2026-04-24T10:09:56Z</time></trkpt><trkpt lat="31.45706720174068" lon="-7.403280117117937"><ele>1373.0</ele><time>2026-04-24T10:09:57Z</time></trkpt><trkpt lat="31.457061949544755" lon="-7.4031417758187015"><ele>1373.0</ele><time>2026-04-24T10:09:58Z</time></trkpt><trkpt lat="31.457055266711997" lon="-7.403008325513951"><ele>1373.0</ele><time>2026-04-24T10:09:59Z</time></trkpt><trkpt lat="31.457045628749242" lon="-7.4028788246686705"><ele>1373.0</ele><time>2026-04-24T10:10:00Z</time></trkpt><trkpt lat="31.457025481704104" lon="-7.402753415374668"><ele>1373.0</ele><time>2026-04-24T10:10:01Z</time></trkpt><trkpt lat="31.45698782199757" lon="-7.402632028729174"><ele>1373.0</ele><time>2026-04-24T10:10:02Z</time></trkpt><trkpt lat="31.456928584002885" lon="-7.402523701742995"><ele>1367.25</ele><time>2026-04-24T10:10:03Z</time></trkpt><trkpt lat="31.456856006871252" lon="-7.402426728325408"><ele>1361.5</ele><time>2026-04-24T10:10:04Z</time></trkpt><trkpt lat="31.456765411720827" lon="-7.402345216819345"><ele>1355.75</ele><time>2026-04-24T10:10:05Z</time></trkpt><trkpt lat="31.456662941150803" lon="-7.402278161762436"><ele>1350.0</ele><time>2026-04-24T10:10:06Z</time></trkpt><trkpt lat="31.45655088002348" lon="-7.402226841189364"><ele>1350.0</ele><time>2026-04-24T10:10:07Z</time></trkpt><trkpt lat="31.456433747820547" lon="-7.40218717766404"><ele>1350.0</ele><time>2026-04-24T10:10:08Z</time></trkpt><trkpt lat="31.456315295664545" lon="-7.402154507419163"><ele>1350.0</ele><time>2026-04-24T10:10:09Z</time></trkpt><trkpt lat="31.456195036498038" lon="-7.402116372424649"><ele>1350.0</ele><time>2026-04-24T10:10:10Z</time></trkpt><trkpt lat="31.456075210527555" lon="-7.402073927605994"><ele>1344.75</ele><time>2026-04-24T10:10:11Z</time></trkpt><trkpt lat="31.455953988889103" lon="-7.402030935192092"><ele>1339.5</ele><time>2026-04-24T10:10:12Z</time></trkpt><trkpt lat="31.45583138745314" lon="-7.401988413883159"><ele>1334.25</ele><time>2026-04-24T10:10:13Z</time></trkpt><trkpt lat="31.455710659348583" lon="-7.401946714033209"><ele>1329.0</ele><time>2026-04-24T10:10:14Z</time></trkpt><trkpt lat="31.455587578960067" lon="-7.401901508806039"><ele>1329.0</ele><time>2026-04-24T10:10:15Z</time></trkpt><trkpt lat="31.455465420600962" lon="-7.4018570126807"><ele>1329.0</ele><time>2026-04-24T10:10:16Z</time></trkpt><trkpt lat="31.455350880142536" lon="-7.401805346480675"><ele>1329.0</ele><time>2026-04-24T10:10:17Z</time></trkpt><trkpt lat="31.45524715762289" lon="-7.401741378680463"><ele>1329.0</ele><time>2026-04-24T10:10:18Z</time></trkpt><trkpt lat="31.45515514502039" lon="-7.401660674102168"><ele>1330.0</ele><time>2026-04-24T10:10:19Z</time></trkpt><trkpt lat="31.455077526826425" lon="-7.401563026621918"><ele>1331.0</ele><time>2026-04-24T10:10:20Z</time></trkpt><trkpt lat="31.455016957049942" lon="-7.4014508098009495"><ele>1332.0</ele><time>2026-04-24T10:10:21Z</time></trkpt><trkpt lat="31.454967143939232" lon="-7.4013257952485825"><ele>1333.0</ele><time>2026-04-24T10:10:22Z</time></trkpt><trkpt lat="31.4549279431962" lon="-7.401190115329674"><ele>1333.0</ele><time>2026-04-24T10:10:23Z</time></trkpt><trkpt lat="31.45489394645709" lon="-7.4010499874963225"><ele>1333.0</ele><time>2026-04-24T10:10:24Z</time></trkpt><trkpt lat="31.454862793444693" lon="-7.400911578393777"><ele>1333.0</ele><time>2026-04-24T10:10:25Z</time></trkpt><trkpt lat="31.454834109666397" lon="-7.400779164894837"><ele>1333.0</ele><time>2026-04-24T10:10:26Z</time></trkpt><trkpt lat="31.45480840148463" lon="-7.400653812166189"><ele>1333.0</ele><time>2026-04-24T10:10:27Z</time></trkpt><trkpt lat="31.454783461124812" lon="-7.40053263427638"><ele>1333.0</ele><time>2026-04-24T10:10:28Z</time></trkpt><trkpt lat="31.45475733653033" lon="-7.400416659159012"><ele>1333.0</ele><time>2026-04-24T10:10:29Z</time></trkpt><trkpt lat="31.454731023237287" lon="-7.400300113467672"><ele>1333.0</ele><time>2026-04-24T10:10:30Z</time></trkpt><trkpt lat="31.45470317545362" lon="-7.400181486062062"><ele>1333.0</ele><time>2026-04-24T10:10:31Z</time></trkpt><trkpt lat="31.45467693702228" lon="-7.400062227482939"><ele>1333.0</ele><time>2026-04-24T10:10:32Z</time></trkpt><trkpt lat="31.454650392908576" lon="-7.399940810568409"><ele>1333.0</ele><time>2026-04-24T10:10:33Z</time></trkpt><trkpt lat="31.45462474924518" lon="-7.399814152641424"><ele>1333.0</ele><time>2026-04-24T10:10:34Z</time></trkpt><trkpt lat="31.454600048709928" lon="-7.399683341937693"><ele>1333.0</ele><time>2026-04-24T10:10:35Z</time></trkpt><trkpt lat="31.45457698588188" lon="-7.399549523972004"><ele>1333.0</ele><time>2026-04-24T10:10:36Z</time></trkpt><trkpt lat="31.4545558933197" lon="-7.399412629364473"><ele>1333.0</ele><time>2026-04-24T10:10:37Z</time></trkpt><trkpt lat="31.454539191517455" lon="-7.399274237971508"><ele>1333.0</ele><time>2026-04-24T10:10:38Z</time></trkpt><trkpt lat="31.454525126275502" lon="-7.3991376700207825"><ele>1333.0</ele><time>2026-04-24T10:10:39Z</time></trkpt><trkpt lat="31.4545136162217" lon="-7.399001214627987"><ele>1333.0</ele><time>2026-04-24T10:10:40Z</time></trkpt><trkpt lat="31.454503422983155" lon="-7.39886254999985"><ele>1329.75</ele><time>2026-04-24T10:10:41Z</time></trkpt><trkpt lat="31.454492890221807" lon="-7.398721609138549"><ele>1326.5</ele><time>2026-04-24T10:10:42Z</time></trkpt><trkpt lat="31.45448269809919" lon="-7.3985776332820405"><ele>1323.25</ele><time>2026-04-24T10:10:43Z</time></trkpt><trkpt lat="31.454473248392244" lon="-7.398436380106588"><ele>1320.0</ele><time>2026-04-24T10:10:44Z</time></trkpt><trkpt lat="31.454463631586883" lon="-7.39829587508475"><ele>1320.0</ele><time>2026-04-24T10:10:45Z</time></trkpt><trkpt lat="31.45445396284352" lon="-7.398156732688539"><ele>1320.0</ele><time>2026-04-24T10:10:46Z</time></trkpt><trkpt lat="31.45444245827317" lon="-7.398017625299821"><ele>1320.0</ele><time>2026-04-24T10:10:47Z</time></trkpt><trkpt lat="31.454429250056638" lon="-7.3978826604923125"><ele>1320.0</ele><time>2026-04-24T10:10:48Z</time></trkpt><trkpt lat="31.45440670407289" lon="-7.397755726695785"><ele>1318.4</ele><time>2026-04-24T10:10:49Z</time></trkpt><trkpt lat="31.454373580187248" lon="-7.397634853352138"><ele>1316.8</ele><time>2026-04-24T10:10:50Z</time></trkpt><trkpt lat="31.45433195768805" lon="-7.397518318239989"><ele>1315.1999999999998</ele><time>2026-04-24T10:10:51Z</time></trkpt><trkpt lat="31.45425700045434" lon="-7.397429301930584"><ele>1313.6</ele><time>2026-04-24T10:10:52Z</time></trkpt><trkpt lat="31.4541699115261" lon="-7.397351688844114"><ele>1312.0</ele><time>2026-04-24T10:10:53Z</time></trkpt><trkpt lat="31.454083304334006" lon="-7.397291816185458"><ele>1312.0</ele><time>2026-04-24T10:10:54Z</time></trkpt><trkpt lat="31.45399120444338" lon="-7.397243090506309"><ele>1312.0</ele><time>2026-04-24T10:10:55Z</time></trkpt><trkpt lat="31.453891213810714" lon="-7.397214129300744"><ele>1312.0</ele><time>2026-04-24T10:10:56Z</time></trkpt><trkpt lat="31.453787342922787" lon="-7.397226590065539"><ele>1312.0</ele><time>2026-04-24T10:10:57Z</time></trkpt><trkpt lat="31.453692067616448" lon="-7.3972453112471275"><ele>1312.0</ele><time>2026-04-24T10:10:58Z</time></trkpt><trkpt lat="31.45359658475798" lon="-7.397272644036539"><ele>1312.1999999999998</ele><time>2026-04-24T10:10:59Z</time></trkpt><trkpt lat="31.45349698924421" lon="-7.397305934632224"><ele>1312.4</ele><time>2026-04-24T10:11:00Z</time></trkpt><trkpt lat="31.453397276505793" lon="-7.397339605913865"><ele>1312.6</ele><time>2026-04-24T10:11:01Z</time></trkpt><trkpt lat="31.453298178838775" lon="-7.397372864578002"><ele>1312.8000000000002</ele><time>2026-04-24T10:11:02Z</time></trkpt><trkpt lat="31.453201304818602" lon="-7.397405819879453"><ele>1313.0</ele><time>2026-04-24T10:11:03Z</time></trkpt><trkpt lat="31.453107635151746" lon="-7.397442076971166"><ele>1313.0</ele><time>2026-04-24T10:11:04Z</time></trkpt><trkpt lat="31.453023980890464" lon="-7.397475112679095"><ele>1313.0</ele><time>2026-04-24T10:11:05Z</time></trkpt><trkpt lat="31.45293725193056" lon="-7.3975093626088295"><ele>1313.0</ele><time>2026-04-24T10:11:06Z</time></trkpt><trkpt lat="31.4528285773148" lon="-7.397519767781504"><ele>1313.0</ele><time>2026-04-24T10:11:07Z</time></trkpt><trkpt lat="31.452733376865474" lon="-7.397522215095029"><ele>1313.0</ele><time>2026-04-24T10:11:08Z</time></trkpt><trkpt lat="31.452620614575345" lon="-7.397503812032672"><ele>1310.0</ele><time>2026-04-24T10:11:09Z</time></trkpt><trkpt lat="31.452515884412975" lon="-7.397479447645973"><ele>1307.0</ele><time>2026-04-24T10:11:10Z</time></trkpt><trkpt lat="31.452405647753714" lon="-7.397454159140389"><ele>1304.0</ele><time>2026-04-24T10:11:11Z</time></trkpt><trkpt lat="31.4522921954882" lon="-7.397428561910564"><ele>1301.0</ele><time>2026-04-24T10:11:12Z</time></trkpt><trkpt lat="31.452179063755707" lon="-7.397402892357323"><ele>1302.8</ele><time>2026-04-24T10:11:13Z</time></trkpt><trkpt lat="31.452072482289342" lon="-7.397378254296855"><ele>1304.6</ele><time>2026-04-24T10:11:14Z</time></trkpt><trkpt lat="31.451970916958192" lon="-7.3973549253351445"><ele>1306.4</ele><time>2026-04-24T10:11:15Z</time></trkpt><trkpt lat="31.451877816387622" lon="-7.397286342789049"><ele>1308.2</ele><time>2026-04-24T10:11:16Z</time></trkpt><trkpt lat="31.451780052150983" lon="-7.397248408609261"><ele>1310.0</ele><time>2026-04-24T10:11:17Z</time></trkpt><trkpt lat="31.451690516382556" lon="-7.397191129730316"><ele>1306.0</ele><time>2026-04-24T10:11:17.999Z</time></trkpt><trkpt lat="31.451609047250514" lon="-7.397123755425144"><ele>1302.0</ele><time>2026-04-24T10:11:18.999Z</time></trkpt><trkpt lat="31.451538368455722" lon="-7.397040666216513"><ele>1298.0</ele><time>2026-04-24T10:11:19.999Z</time></trkpt><trkpt lat="31.451481261001636" lon="-7.396938499354585"><ele>1294.0</ele><time>2026-04-24T10:11:20.999Z</time></trkpt><trkpt lat="31.451439356231596" lon="-7.39682116939818"><ele>1290.0</ele><time>2026-04-24T10:11:21.999Z</time></trkpt><trkpt lat="31.451413673038136" lon="-7.396695934215885"><ele>1290.0</ele><time>2026-04-24T10:11:22.999Z</time></trkpt><trkpt lat="31.45140119879542" lon="-7.396563343388352"><ele>1290.0</ele><time>2026-04-24T10:11:23.999Z</time></trkpt><trkpt lat="31.451400075372167" lon="-7.396426655584163"><ele>1290.0</ele><time>2026-04-24T10:11:24.999Z</time></trkpt><trkpt lat="31.451404868778727" lon="-7.396287688338034"><ele>1290.0</ele><time>2026-04-24T10:11:25.999Z</time></trkpt><trkpt lat="31.45141133780222" lon="-7.396151963023684"><ele>1289.2</ele><time>2026-04-24T10:11:26.999Z</time></trkpt><trkpt lat="31.451417092228944" lon="-7.396015756457075"><ele>1288.4</ele><time>2026-04-24T10:11:27.999Z</time></trkpt><trkpt lat="31.451424446215306" lon="-7.395880582785142"><ele>1287.6</ele><time>2026-04-24T10:11:28.999Z</time></trkpt><trkpt lat="31.451430456125717" lon="-7.395753242917993"><ele>1286.8</ele><time>2026-04-24T10:11:29.999Z</time></trkpt><trkpt lat="31.45143418874987" lon="-7.3956339254881405"><ele>1286.0</ele><time>2026-04-24T10:11:30.999Z</time></trkpt><trkpt lat="31.451436206440015" lon="-7.395521925581079"><ele>1284.6</ele><time>2026-04-24T10:11:31.999Z</time></trkpt><trkpt lat="31.451434674850283" lon="-7.3954109446432055"><ele>1283.1999999999998</ele><time>2026-04-24T10:11:32.999Z</time></trkpt><trkpt lat="31.45142293149438" lon="-7.395297547193634"><ele>1281.8000000000002</ele><time>2026-04-24T10:11:33.999Z</time></trkpt><trkpt lat="31.4513969396905" lon="-7.395185340167394"><ele>1280.4</ele><time>2026-04-24T10:11:34.999Z</time></trkpt><trkpt lat="31.45135341754343" lon="-7.395075046570106"><ele>1279.0</ele><time>2026-04-24T10:11:35.999Z</time></trkpt><trkpt lat="31.451294464889635" lon="-7.39497223880168"><ele>1283.5</ele><time>2026-04-24T10:11:36.999Z</time></trkpt><trkpt lat="31.45122239900925" lon="-7.394877649722548"><ele>1288.0</ele><time>2026-04-24T10:11:37.999Z</time></trkpt><trkpt lat="31.451136461105275" lon="-7.394794469182807"><ele>1292.5</ele><time>2026-04-24T10:11:38.999Z</time></trkpt><trkpt lat="31.451037308295295" lon="-7.394725575397686"><ele>1297.0</ele><time>2026-04-24T10:11:39.999Z</time></trkpt><trkpt lat="31.45092339990133" lon="-7.394674169943616"><ele>1290.75</ele><time>2026-04-24T10:11:40.999Z</time></trkpt><trkpt lat="31.450805619143885" lon="-7.394630958138062"><ele>1284.5</ele><time>2026-04-24T10:11:41.999Z</time></trkpt><trkpt lat="31.450686275405584" lon="-7.394588285423194"><ele>1278.25</ele><time>2026-04-24T10:11:42.999Z</time></trkpt><trkpt lat="31.4505690261028" lon="-7.394546779369321"><ele>1272.0</ele><time>2026-04-24T10:11:43.999Z</time></trkpt><trkpt lat="31.45045404997816" lon="-7.39450505694769"><ele>1272.0</ele><time>2026-04-24T10:11:44.999Z</time></trkpt><trkpt lat="31.450339136787225" lon="-7.394462630227184"><ele>1272.0</ele><time>2026-04-24T10:11:45.999Z</time></trkpt><trkpt lat="31.45022193260955" lon="-7.394416468599217"><ele>1272.0</ele><time>2026-04-24T10:11:46.999Z</time></trkpt><trkpt lat="31.45010351948407" lon="-7.3943675139354825"><ele>1272.0</ele><time>2026-04-24T10:11:47.999Z</time></trkpt><trkpt lat="31.44998177082101" lon="-7.3943193064642365"><ele>1272.0</ele><time>2026-04-24T10:11:48.999Z</time></trkpt><trkpt lat="31.44985463183683" lon="-7.39427485345778"><ele>1272.0</ele><time>2026-04-24T10:11:49.999Z</time></trkpt><trkpt lat="31.44972634489425" lon="-7.394230564042236"><ele>1272.0</ele><time>2026-04-24T10:11:50.999Z</time></trkpt><trkpt lat="31.44959440162914" lon="-7.394198937668542"><ele>1272.0</ele><time>2026-04-24T10:11:51.999Z</time></trkpt><trkpt lat="31.449460364522164" lon="-7.394203259229483"><ele>1271.25</ele><time>2026-04-24T10:11:52.999Z</time></trkpt><trkpt lat="31.44932798886588" lon="-7.394211560446961"><ele>1270.5</ele><time>2026-04-24T10:11:53.999Z</time></trkpt><trkpt lat="31.44919515507902" lon="-7.394229524138136"><ele>1269.75</ele><time>2026-04-24T10:11:54.999Z</time></trkpt><trkpt lat="31.449069869168042" lon="-7.39427286633422"><ele>1269.0</ele><time>2026-04-24T10:11:55.999Z</time></trkpt><trkpt lat="31.44895068573508" lon="-7.394336524115684"><ele>1269.0</ele><time>2026-04-24T10:11:56.999Z</time></trkpt><trkpt lat="31.448840216010534" lon="-7.394415222420705"><ele>1269.0</ele><time>2026-04-24T10:11:57.999Z</time></trkpt><trkpt lat="31.448734492009745" lon="-7.394504275392308"><ele>1269.0</ele><time>2026-04-24T10:11:58.999Z</time></trkpt><trkpt lat="31.448625528394334" lon="-7.394602744111524"><ele>1269.0</ele><time>2026-04-24T10:11:59.999Z</time></trkpt><trkpt lat="31.448513688508946" lon="-7.394703372152634"><ele>1269.75</ele><time>2026-04-24T10:12:00.999Z</time></trkpt><trkpt lat="31.448400682665348" lon="-7.394804785650719"><ele>1270.5</ele><time>2026-04-24T10:12:02Z</time></trkpt><trkpt lat="31.448292568681218" lon="-7.394901356165791"><ele>1271.25</ele><time>2026-04-24T10:12:03Z</time></trkpt><trkpt lat="31.448189872055234" lon="-7.394994324791928"><ele>1272.0</ele><time>2026-04-24T10:12:04Z</time></trkpt><trkpt lat="31.448094673562224" lon="-7.39507969475282"><ele>1272.0</ele><time>2026-04-24T10:12:05Z</time></trkpt><trkpt lat="31.448002858594588" lon="-7.395162083906236"><ele>1272.0</ele><time>2026-04-24T10:12:06Z</time></trkpt><trkpt lat="31.447922969593282" lon="-7.395245479590682"><ele>1272.0</ele><time>2026-04-24T10:12:07Z</time></trkpt><trkpt lat="31.447843676286162" lon="-7.395327011043997"><ele>1272.0</ele><time>2026-04-24T10:12:08Z</time></trkpt><trkpt lat="31.44776489635142" lon="-7.395408474584376"><ele>1272.0</ele><time>2026-04-24T10:12:09Z</time></trkpt><trkpt lat="31.447667116367384" lon="-7.395508727072545"><ele>1271.3333333333333</ele><time>2026-04-24T10:12:10Z</time></trkpt><trkpt lat="31.44754961959347" lon="-7.395619380845561"><ele>1270.6666666666665</ele><time>2026-04-24T10:12:11Z</time></trkpt><trkpt lat="31.447419385073264" lon="-7.395729175033258"><ele>1270.0</ele><time>2026-04-24T10:12:12Z</time></trkpt><trkpt lat="31.44729225633388" lon="-7.395808333791912"><ele>1270.0</ele><time>2026-04-24T10:12:13Z</time></trkpt><trkpt lat="31.447161517095275" lon="-7.395872213947642"><ele>1270.0</ele><time>2026-04-24T10:12:14Z</time></trkpt><trkpt lat="31.447035107442677" lon="-7.395907289145611"><ele>1270.0</ele><time>2026-04-24T10:12:15Z</time></trkpt><trkpt lat="31.446919214140827" lon="-7.395956674168173"><ele>1270.0</ele><time>2026-04-24T10:12:16Z</time></trkpt><trkpt lat="31.446816081812194" lon="-7.396019310434118"><ele>1269.0</ele><time>2026-04-24T10:12:17Z</time></trkpt><trkpt lat="31.446713826142236" lon="-7.396069016564911"><ele>1268.0</ele><time>2026-04-24T10:12:18Z</time></trkpt><trkpt lat="31.446611333797467" lon="-7.3961188387971495"><ele>1267.0</ele><time>2026-04-24T10:12:19Z</time></trkpt><trkpt lat="31.446532964108282" lon="-7.396201679298115"><ele>1266.0</ele><time>2026-04-24T10:12:20Z</time></trkpt><trkpt lat="31.446464881206705" lon="-7.396281780866729"><ele>1265.0</ele><time>2026-04-24T10:12:21Z</time></trkpt><trkpt lat="31.446403709098153" lon="-7.396382062803327"><ele>1265.0</ele><time>2026-04-24T10:12:22Z</time></trkpt><trkpt lat="31.446363383943783" lon="-7.396488994755955"><ele>1265.0</ele><time>2026-04-24T10:12:23Z</time></trkpt><trkpt lat="31.446324899679475" lon="-7.396610816371388"><ele>1265.0</ele><time>2026-04-24T10:12:24Z</time></trkpt><trkpt lat="31.446305580205905" lon="-7.396748604741249"><ele>1265.0</ele><time>2026-04-24T10:12:25Z</time></trkpt><trkpt lat="31.446293788464015" lon="-7.396890872833474"><ele>1260.0</ele><time>2026-04-24T10:12:26Z</time></trkpt><trkpt lat="31.446285970890052" lon="-7.3970375327063715"><ele>1255.0</ele><time>2026-04-24T10:12:27Z</time></trkpt><trkpt lat="31.44627227335903" lon="-7.397181856740066"><ele>1250.0</ele><time>2026-04-24T10:12:28Z</time></trkpt><trkpt lat="31.446254750771626" lon="-7.397316050495466"><ele>1245.0</ele><time>2026-04-24T10:12:29Z</time></trkpt><trkpt lat="31.446214865228455" lon="-7.397447742914676"><ele>1245.0</ele><time>2026-04-24T10:12:30Z</time></trkpt><trkpt lat="31.44615591494542" lon="-7.39755413449834"><ele>1245.0</ele><time>2026-04-24T10:12:31Z</time></trkpt><trkpt lat="31.446080352753338" lon="-7.397650488809766"><ele>1245.0</ele><time>2026-04-24T10:12:32Z</time></trkpt><trkpt lat="31.445998207302083" lon="-7.3977321191622405"><ele>1245.0</ele><time>2026-04-24T10:12:33Z</time></trkpt><trkpt lat="31.44589778153129" lon="-7.397799048068016"><ele>1245.0</ele><time>2026-04-24T10:12:34Z</time></trkpt><trkpt lat="31.44578883202402" lon="-7.397827660875339"><ele>1245.0</ele><time>2026-04-24T10:12:35Z</time></trkpt><trkpt lat="31.445697676315486" lon="-7.397867587049792"><ele>1245.0</ele><time>2026-04-24T10:12:36Z</time></trkpt><trkpt lat="31.44561935465609" lon="-7.3979180924353205"><ele>1245.0</ele><time>2026-04-24T10:12:37Z</time></trkpt><trkpt lat="31.445543307528116" lon="-7.397953910584998"><ele>1245.0</ele><time>2026-04-24T10:12:38Z</time></trkpt><trkpt lat="31.44547059846353" lon="-7.397988243198102"><ele>1245.0</ele><time>2026-04-24T10:12:39Z</time></trkpt><trkpt lat="31.445394323893655" lon="-7.398024259327834"><ele>1245.0</ele><time>2026-04-24T10:12:40Z</time></trkpt><trkpt lat="31.445317133498204" lon="-7.398070515756368"><ele>1248.0</ele><time>2026-04-24T10:12:41Z</time></trkpt><trkpt lat="31.44522671042136" lon="-7.398127186602384"><ele>1251.0</ele><time>2026-04-24T10:12:42Z</time></trkpt><trkpt lat="31.44512699106831" lon="-7.398189596126344"><ele>1254.0</ele><time>2026-04-24T10:12:43Z</time></trkpt><trkpt lat="31.44502352306851" lon="-7.398252744063245"><ele>1257.0</ele><time>2026-04-24T10:12:44Z</time></trkpt><trkpt lat="31.444917577178447" lon="-7.398317292075677"><ele>1257.0</ele><time>2026-04-24T10:12:45Z</time></trkpt><trkpt lat="31.44480694758063" lon="-7.398376409434537"><ele>1257.0</ele><time>2026-04-24T10:12:46Z</time></trkpt><trkpt lat="31.444698544839838" lon="-7.398433304559663"><ele>1257.0</ele><time>2026-04-24T10:12:47Z</time></trkpt><trkpt lat="31.444586765024898" lon="-7.398490370152206"><ele>1257.0</ele><time>2026-04-24T10:12:48Z</time></trkpt><trkpt lat="31.4444795027458" lon="-7.39854654491776"><ele>1257.0</ele><time>2026-04-24T10:12:49Z</time></trkpt><trkpt lat="31.444382946441213" lon="-7.398597428728146"><ele>1257.0</ele><time>2026-04-24T10:12:50Z</time></trkpt><trkpt lat="31.44430564135847" lon="-7.398663173045423"><ele>1257.0</ele><time>2026-04-24T10:12:51Z</time></trkpt><trkpt lat="31.444231773553796" lon="-7.398728789872908"><ele>1257.0</ele><time>2026-04-24T10:12:52Z</time></trkpt><trkpt lat="31.444156556989586" lon="-7.398803806136423"><ele>1257.0</ele><time>2026-04-24T10:12:53Z</time></trkpt><trkpt lat="31.444091925007967" lon="-7.3988844531404"><ele>1257.0</ele><time>2026-04-24T10:12:54Z</time></trkpt><trkpt lat="31.444027524828243" lon="-7.3989908652897824"><ele>1257.0</ele><time>2026-04-24T10:12:55Z</time></trkpt><trkpt lat="31.443977884945305" lon="-7.399105947486975"><ele>1257.0</ele><time>2026-04-24T10:12:56Z</time></trkpt><trkpt lat="31.44393365113821" lon="-7.399227772118382"><ele>1257.0</ele><time>2026-04-24T10:12:57Z</time></trkpt><trkpt lat="31.443893731834887" lon="-7.399354614700761"><ele>1257.0</ele><time>2026-04-24T10:12:58Z</time></trkpt><trkpt lat="31.443854176361764" lon="-7.399480301357138"><ele>1257.0</ele><time>2026-04-24T10:12:59Z</time></trkpt><trkpt lat="31.443814405888098" lon="-7.399606648787221"><ele>1257.0</ele><time>2026-04-24T10:13:00Z</time></trkpt><trkpt lat="31.44377435741587" lon="-7.399732234366454"><ele>1257.0</ele><time>2026-04-24T10:13:01Z</time></trkpt><trkpt lat="31.4437262148508" lon="-7.3998581916475015"><ele>1253.0</ele><time>2026-04-24T10:13:02Z</time></trkpt><trkpt lat="31.443671907666715" lon="-7.399973505582777"><ele>1249.0</ele><time>2026-04-24T10:13:03Z</time></trkpt><trkpt lat="31.44359935908495" lon="-7.4000861303029355"><ele>1245.0</ele><time>2026-04-24T10:13:04Z</time></trkpt><trkpt lat="31.443526096262453" lon="-7.40019142274138"><ele>1241.0</ele><time>2026-04-24T10:13:05Z</time></trkpt><trkpt lat="31.44342282430425" lon="-7.400275735116586"><ele>1241.0</ele><time>2026-04-24T10:13:06Z</time></trkpt><trkpt lat="31.443330058185143" lon="-7.4003610218545965"><ele>1241.0</ele><time>2026-04-24T10:13:07Z</time></trkpt><trkpt lat="31.443237339923915" lon="-7.4004462738903"><ele>1241.0</ele><time>2026-04-24T10:13:08Z</time></trkpt><trkpt lat="31.443144783410535" lon="-7.400530695459818"><ele>1241.0</ele><time>2026-04-24T10:13:09Z</time></trkpt><trkpt lat="31.443054136674114" lon="-7.400614723938966"><ele>1239.25</ele><time>2026-04-24T10:13:10Z</time></trkpt><trkpt lat="31.442963568407176" lon="-7.400698679773118"><ele>1237.5</ele><time>2026-04-24T10:13:11Z</time></trkpt><trkpt lat="31.442872957579258" lon="-7.400781162352884"><ele>1235.75</ele><time>2026-04-24T10:13:12Z</time></trkpt><trkpt lat="31.442796124618898" lon="-7.400870839530745"><ele>1234.0</ele><time>2026-04-24T10:13:13Z</time></trkpt><trkpt lat="31.442720576975372" lon="-7.400968865007801"><ele>1234.0</ele><time>2026-04-24T10:13:14Z</time></trkpt><trkpt lat="31.442652324217235" lon="-7.4010676737054215"><ele>1234.0</ele><time>2026-04-24T10:13:15Z</time></trkpt><trkpt lat="31.44258771903957" lon="-7.401168532528691"><ele>1234.0</ele><time>2026-04-24T10:13:16Z</time></trkpt><trkpt lat="31.44254202051483" lon="-7.4012701972595405"><ele>1234.0</ele><time>2026-04-24T10:13:17Z</time></trkpt><trkpt lat="31.442498297322935" lon="-7.4013664423012555"><ele>1234.0</ele><time>2026-04-24T10:13:18Z</time></trkpt><trkpt lat="31.442457550835847" lon="-7.401456134547934"><ele>1234.8</ele><time>2026-04-24T10:13:19Z</time></trkpt><trkpt lat="31.442409908969378" lon="-7.401545265448183"><ele>1235.6000000000001</ele><time>2026-04-24T10:13:20Z</time></trkpt><trkpt lat="31.442359519130434" lon="-7.401632674959715"><ele>1236.4</ele><time>2026-04-24T10:13:21Z</time></trkpt><trkpt lat="31.44228640229486" lon="-7.401708992710936"><ele>1237.2</ele><time>2026-04-24T10:13:22Z</time></trkpt><trkpt lat="31.4422098050862" lon="-7.4017702248912185"><ele>1238.0</ele><time>2026-04-24T10:13:23Z</time></trkpt><trkpt lat="31.442114312536958" lon="-7.401801402047888"><ele>1238.0</ele><time>2026-04-24T10:13:24Z</time></trkpt><trkpt lat="31.442014516691497" lon="-7.401794377568345"><ele>1238.0</ele><time>2026-04-24T10:13:25Z</time></trkpt><trkpt lat="31.441914885902086" lon="-7.401803091626775"><ele>1238.0</ele><time>2026-04-24T10:13:25.999Z</time></trkpt><trkpt lat="31.44181252178442" lon="-7.40180934399464"><ele>1238.0</ele><time>2026-04-24T10:13:26.999Z</time></trkpt><trkpt lat="31.44171567015695" lon="-7.401850520059511"><ele>1238.0</ele><time>2026-04-24T10:13:27.999Z</time></trkpt><trkpt lat="31.44161708523338" lon="-7.401886402771273"><ele>1238.0</ele><time>2026-04-24T10:13:28.999Z</time></trkpt><trkpt lat="31.441542949399334" lon="-7.401953826608016"><ele>1238.0</ele><time>2026-04-24T10:13:29.999Z</time></trkpt><trkpt lat="31.441478425294395" lon="-7.402026004481528"><ele>1238.0</ele><time>2026-04-24T10:13:30.999Z</time></trkpt><trkpt lat="31.441418092937525" lon="-7.402115071807183"><ele>1238.0</ele><time>2026-04-24T10:13:31.999Z</time></trkpt><trkpt lat="31.44138377693571" lon="-7.402204634012266"><ele>1238.0</ele><time>2026-04-24T10:13:32.999Z</time></trkpt><trkpt lat="31.441361578980377" lon="-7.402284017589499"><ele>1238.0</ele><time>2026-04-24T10:13:33.999Z</time></trkpt><trkpt lat="31.441346008699387" lon="-7.4023587291828825"><ele>1237.8333333333335</ele><time>2026-04-24T10:13:34.999Z</time></trkpt><trkpt lat="31.441341832913245" lon="-7.402439314574201"><ele>1237.6666666666667</ele><time>2026-04-24T10:13:35.999Z</time></trkpt><trkpt lat="31.441337803577508" lon="-7.402513956048429"><ele>1237.5</ele><time>2026-04-24T10:13:36.999Z</time></trkpt><trkpt lat="31.44131973041717" lon="-7.402609741028302"><ele>1237.3333333333333</ele><time>2026-04-24T10:13:38.999Z</time></trkpt><trkpt lat="31.441316505962618" lon="-7.402718448751495"><ele>1237.1666666666665</ele><time>2026-04-24T10:13:49.999Z</time></trkpt><trkpt lat="31.441273951188542" lon="-7.402816418872952"><ele>1237.0</ele><time>2026-04-24T10:13:51.999Z</time></trkpt><trkpt lat="31.44116816262977" lon="-7.402906178723996"><ele>1237.0</ele><time>2026-04-24T10:13:53.999Z</time></trkpt><trkpt lat="31.441093265558525" lon="-7.402924908268442"><ele>1237.0</ele><time>2026-04-24T10:13:54.999Z</time></trkpt><trkpt lat="31.441019067924504" lon="-7.402960441744133"><ele>1237.0</ele><time>2026-04-24T10:13:55.999Z</time></trkpt><trkpt lat="31.440940634147726" lon="-7.4029958500594475"><ele>1237.0</ele><time>2026-04-24T10:13:56.999Z</time></trkpt><trkpt lat="31.44087423505649" lon="-7.40304889414126"><ele>1237.0</ele><time>2026-04-24T10:13:57.999Z</time></trkpt><trkpt lat="31.440801753687534" lon="-7.403085762276005"><ele>1237.0</ele><time>2026-04-24T10:13:58.999Z</time></trkpt><trkpt lat="31.440723360115964" lon="-7.403104085610784"><ele>1239.0</ele><time>2026-04-24T10:13:59.999Z</time></trkpt><trkpt lat="31.4406562693598" lon="-7.403138687778681"><ele>1241.0</ele><time>2026-04-24T10:14:00.999Z</time></trkpt><trkpt lat="31.44059261705144" lon="-7.40317058307326"><ele>1243.0</ele><time>2026-04-24T10:14:01.999Z</time></trkpt><trkpt lat="31.44052779551149" lon="-7.403203752892855"><ele>1245.0</ele><time>2026-04-24T10:14:02.999Z</time></trkpt><trkpt lat="31.440459877471476" lon="-7.403241224175335"><ele>1247.0</ele><time>2026-04-24T10:14:03.999Z</time></trkpt><trkpt lat="31.440388765309983" lon="-7.4032868663112845"><ele>1249.0</ele><time>2026-04-24T10:14:04.999Z</time></trkpt><trkpt lat="31.440337006618137" lon="-7.403359657401705"><ele>1249.0</ele><time>2026-04-24T10:14:05.999Z</time></trkpt><trkpt lat="31.440285632636687" lon="-7.4034209676996445"><ele>1249.0</ele><time>2026-04-24T10:14:06.999Z</time></trkpt><trkpt lat="31.440234197856284" lon="-7.403486465909862"><ele>1249.0</ele><time>2026-04-24T10:14:08Z</time></trkpt><trkpt lat="31.44019953363534" lon="-7.403557145896578"><ele>1249.0</ele><time>2026-04-24T10:14:09Z</time></trkpt><trkpt lat="31.440159785287616" lon="-7.403628673583424"><ele>1249.0</ele><time>2026-04-24T10:14:10Z</time></trkpt><trkpt lat="31.440119959357187" lon="-7.403771468260613"><ele>1249.0</ele><time>2026-04-24T10:14:12Z</time></trkpt><trkpt lat="31.44009582906747" lon="-7.403903113488166"><ele>1250.8</ele><time>2026-04-24T10:14:14Z</time></trkpt><trkpt lat="31.44008078730708" lon="-7.403997598577358"><ele>1252.6000000000001</ele><time>2026-04-24T10:14:16Z</time></trkpt><trkpt lat="31.4400671075222" lon="-7.404088267522002"><ele>1254.4</ele><time>2026-04-24T10:14:18Z</time></trkpt><trkpt lat="31.44004810543661" lon="-7.404207126165395"><ele>1256.2</ele><time>2026-04-24T10:14:20Z</time></trkpt><trkpt lat="31.440026864502833" lon="-7.404339427760352"><ele>1258.0</ele><time>2026-04-24T10:14:22Z</time></trkpt><trkpt lat="31.440003036360135" lon="-7.4044626909817675"><ele>1258.0</ele><time>2026-04-24T10:14:24Z</time></trkpt><trkpt lat="31.43997449290171" lon="-7.404579104969124"><ele>1258.0</ele><time>2026-04-24T10:14:26Z</time></trkpt><trkpt lat="31.439944034622304" lon="-7.404663650829094"><ele>1258.0</ele><time>2026-04-24T10:14:27Z</time></trkpt><trkpt lat="31.43991662035942" lon="-7.404735914172896"><ele>1258.0</ele><time>2026-04-24T10:14:28Z</time></trkpt><trkpt lat="31.43987778901715" lon="-7.404797428643428"><ele>1258.0</ele><time>2026-04-24T10:14:29Z</time></trkpt><trkpt lat="31.43978895143241" lon="-7.404885435378269"><ele>1258.0</ele><time>2026-04-24T10:14:31Z</time></trkpt><trkpt lat="31.43969389582209" lon="-7.404946277417163"><ele>1256.8333333333333</ele><time>2026-04-24T10:14:33Z</time></trkpt><trkpt lat="31.43957308528562" lon="-7.40497988040005"><ele>1255.6666666666665</ele><time>2026-04-24T10:14:35Z</time></trkpt><trkpt lat="31.439512455637715" lon="-7.405004238018958"><ele>1254.5</ele><time>2026-04-24T10:14:36Z</time></trkpt><trkpt lat="31.43941773461194" lon="-7.405052612900693"><ele>1253.3333333333333</ele><time>2026-04-24T10:14:38Z</time></trkpt><trkpt lat="31.439348953404078" lon="-7.40508947679884"><ele>1252.1666666666667</ele><time>2026-04-24T10:14:40Z</time></trkpt><trkpt lat="31.439277087463594" lon="-7.40511591652074"><ele>1251.0</ele><time>2026-04-24T10:14:44Z</time></trkpt><trkpt lat="31.439223894193308" lon="-7.405167264086839"><ele>1251.0</ele><time>2026-04-24T10:14:48Z</time></trkpt><trkpt lat="31.439161859665568" lon="-7.405152174573262"><ele>1251.0</ele><time>2026-04-24T10:21:33Z</time></trkpt><trkpt lat="31.439085847796793" lon="-7.4052065237481655"><ele>1251.0</ele><time>2026-04-24T10:21:36Z</time></trkpt><trkpt lat="31.439013772784996" lon="-7.405239005592979"><ele>1251.0</ele><time>2026-04-24T10:21:39Z</time></trkpt><trkpt lat="31.43892787606553" lon="-7.4052584214976145"><ele>1251.0</ele><time>2026-04-24T10:21:42Z</time></trkpt><trkpt lat="31.438842776905336" lon="-7.405289122799063"><ele>1251.0</ele><time>2026-04-24T10:21:45Z</time></trkpt><trkpt lat="31.43876291915445" lon="-7.405328660312983"><ele>1251.0</ele><time>2026-04-24T10:21:47Z</time></trkpt><trkpt lat="31.43867447394131" lon="-7.405410844777489"><ele>1251.0</ele><time>2026-04-24T10:21:49Z</time></trkpt><trkpt lat="31.438624150934604" lon="-7.4054613128927"><ele>1251.0</ele><time>2026-04-24T10:21:50Z</time></trkpt><trkpt lat="31.438578298636077" lon="-7.405586009830699"><ele>1251.0</ele><time>2026-04-24T10:21:52Z</time></trkpt><trkpt lat="31.43855517409891" lon="-7.405699272378883"><ele>1251.0</ele><time>2026-04-24T10:21:53.999Z</time></trkpt><trkpt lat="31.4385474348267" lon="-7.405839582028765"><ele>1251.0</ele><time>2026-04-24T10:21:55.999Z</time></trkpt><trkpt lat="31.438543550732934" lon="-7.40591770088949"><ele>1251.0</ele><time>2026-04-24T10:21:56.999Z</time></trkpt><trkpt lat="31.438540015823758" lon="-7.405995208385775"><ele>1251.0</ele><time>2026-04-24T10:21:57.999Z</time></trkpt><trkpt lat="31.438536502995525" lon="-7.406072047238469"><ele>1251.0</ele><time>2026-04-24T10:21:58.999Z</time></trkpt><trkpt lat="31.43853286872497" lon="-7.406149707710892"><ele>1251.0</ele><time>2026-04-24T10:21:59.999Z</time></trkpt><trkpt lat="31.438529067838502" lon="-7.406227695711923"><ele>1251.0</ele><time>2026-04-24T10:22:00.999Z</time></trkpt><trkpt lat="31.438515440384244" lon="-7.406316352827466"><ele>1251.0</ele><time>2026-04-24T10:22:01.999Z</time></trkpt><trkpt lat="31.438502178601755" lon="-7.4063999285869135"><ele>1253.6666666666667</ele><time>2026-04-24T10:22:02.999Z</time></trkpt><trkpt lat="31.438457039226446" lon="-7.406492407270526"><ele>1256.3333333333333</ele><time>2026-04-24T10:22:03.999Z</time></trkpt><trkpt lat="31.438414200756544" lon="-7.40657193769332"><ele>1259.0</ele><time>2026-04-24T10:22:04.999Z</time></trkpt><trkpt lat="31.43832904299071" lon="-7.4066196640744355"><ele>1261.6666666666665</ele><time>2026-04-24T10:22:05.999Z</time></trkpt><trkpt lat="31.438240599678775" lon="-7.406634703023356"><ele>1264.3333333333333</ele><time>2026-04-24T10:22:06.999Z</time></trkpt><trkpt lat="31.43816419677765" lon="-7.406623057019457"><ele>1267.0</ele><time>2026-04-24T10:22:07.999Z</time></trkpt><trkpt lat="31.438093996900047" lon="-7.40660737271793"><ele>1267.0</ele><time>2026-04-24T10:22:08.999Z</time></trkpt><trkpt lat="31.438026978859025" lon="-7.406570408642975"><ele>1267.0</ele><time>2026-04-24T10:22:09.999Z</time></trkpt><trkpt lat="31.437964967060278" lon="-7.4065096359535865"><ele>1267.0</ele><time>2026-04-24T10:22:10.999Z</time></trkpt><trkpt lat="31.437916232689332" lon="-7.406432583496877"><ele>1267.0</ele><time>2026-04-24T10:22:11.999Z</time></trkpt><trkpt lat="31.437880340182552" lon="-7.406338602051553"><ele>1267.0</ele><time>2026-04-24T10:22:12.999Z</time></trkpt><trkpt lat="31.43785096676013" lon="-7.406241275760218"><ele>1267.0</ele><time>2026-04-24T10:22:13.999Z</time></trkpt><trkpt lat="31.437824728725406" lon="-7.406145204857301"><ele>1265.0</ele><time>2026-04-24T10:22:14.999Z</time></trkpt><trkpt lat="31.437794351273922" lon="-7.406056767018306"><ele>1263.0</ele><time>2026-04-24T10:22:15.999Z</time></trkpt><trkpt lat="31.43776346779868" lon="-7.405968070965471"><ele>1261.0</ele><time>2026-04-24T10:22:16.999Z</time></trkpt><trkpt lat="31.437720213854092" lon="-7.405884751996907"><ele>1259.0</ele><time>2026-04-24T10:22:17.999Z</time></trkpt><trkpt lat="31.437663684161514" lon="-7.405809367534414"><ele>1257.0</ele><time>2026-04-24T10:22:18.999Z</time></trkpt><trkpt lat="31.437591235465504" lon="-7.40574724057626"><ele>1255.0</ele><time>2026-04-24T10:22:19.999Z</time></trkpt><trkpt lat="31.437502556863038" lon="-7.40570408552213"><ele>1255.0</ele><time>2026-04-24T10:22:20.999Z</time></trkpt><trkpt lat="31.437402887463872" lon="-7.405701388189162"><ele>1255.0</ele><time>2026-04-24T10:22:21.999Z</time></trkpt><trkpt lat="31.437300472095874" lon="-7.405694808429428"><ele>1255.0</ele><time>2026-04-24T10:22:22.999Z</time></trkpt><trkpt lat="31.43719894776676" lon="-7.405670145156882"><ele>1255.0</ele><time>2026-04-24T10:22:23.999Z</time></trkpt><trkpt lat="31.437094339150455" lon="-7.40566745016199"><ele>1255.0</ele><time>2026-04-24T10:22:24.999Z</time></trkpt><trkpt lat="31.436988911007113" lon="-7.40566259964766"><ele>1254.4</ele><time>2026-04-24T10:22:25.999Z</time></trkpt><trkpt lat="31.43688275380297" lon="-7.405657291986721"><ele>1253.8</ele><time>2026-04-24T10:22:26.999Z</time></trkpt><trkpt lat="31.436779011445356" lon="-7.405652013048108"><ele>1253.2</ele><time>2026-04-24T10:22:27.999Z</time></trkpt><trkpt lat="31.436678155646796" lon="-7.405648669759787"><ele>1252.6</ele><time>2026-04-24T10:22:28.999Z</time></trkpt><trkpt lat="31.436579211453225" lon="-7.4056477356980075"><ele>1252.0</ele><time>2026-04-24T10:22:29.999Z</time></trkpt><trkpt lat="31.436481746701528" lon="-7.405657105597101"><ele>1252.0</ele><time>2026-04-24T10:22:31Z</time></trkpt><trkpt lat="31.43639527052446" lon="-7.4057064854892865"><ele>1252.0</ele><time>2026-04-24T10:22:32Z</time></trkpt><trkpt lat="31.43632495069705" lon="-7.405770678716956"><ele>1252.0</ele><time>2026-04-24T10:22:33Z</time></trkpt><trkpt lat="31.43626323340907" lon="-7.405855133791259"><ele>1252.0</ele><time>2026-04-24T10:22:34Z</time></trkpt><trkpt lat="31.436198681922892" lon="-7.405961369486582"><ele>1252.0</ele><time>2026-04-24T10:22:35Z</time></trkpt><trkpt lat="31.436180528466117" lon="-7.406092693810348"><ele>1248.5</ele><time>2026-04-24T10:22:36Z</time></trkpt><trkpt lat="31.43617584293038" lon="-7.406237456655912"><ele>1245.0</ele><time>2026-04-24T10:22:37Z</time></trkpt><trkpt lat="31.4361813067365" lon="-7.406401563915255"><ele>1241.5</ele><time>2026-04-24T10:22:38Z</time></trkpt><trkpt lat="31.436189722167132" lon="-7.4065807978659635"><ele>1238.0</ele><time>2026-04-24T10:22:39Z</time></trkpt><trkpt lat="31.436197326301485" lon="-7.406757035945553"><ele>1238.0</ele><time>2026-04-24T10:22:40Z</time></trkpt><trkpt lat="31.436204516262464" lon="-7.406915550944368"><ele>1238.0</ele><time>2026-04-24T10:22:41Z</time></trkpt><trkpt lat="31.43617801809294" lon="-7.407089006308741"><ele>1238.0</ele><time>2026-04-24T10:22:42Z</time></trkpt><trkpt lat="31.436137602053137" lon="-7.407269372889551"><ele>1238.0</ele><time>2026-04-24T10:22:43Z</time></trkpt><trkpt lat="31.436084738746604" lon="-7.40744799316439"><ele>1241.0</ele><time>2026-04-24T10:22:44Z</time></trkpt><trkpt lat="31.436023298189248" lon="-7.407614827476792"><ele>1244.0</ele><time>2026-04-24T10:22:45Z</time></trkpt><trkpt lat="31.435966317035344" lon="-7.407768208206828"><ele>1247.0</ele><time>2026-04-24T10:22:46Z</time></trkpt><trkpt lat="31.435880937932538" lon="-7.407899809945377"><ele>1250.0</ele><time>2026-04-24T10:22:47Z</time></trkpt><trkpt lat="31.435795625634906" lon="-7.407998826849634"><ele>1251.0</ele><time>2026-04-24T10:22:48Z</time></trkpt><trkpt lat="31.43566967744567" lon="-7.408043384359042"><ele>1252.0</ele><time>2026-04-24T10:22:49Z</time></trkpt><trkpt lat="31.435551785476733" lon="-7.408085220568845"><ele>1253.0</ele><time>2026-04-24T10:22:50Z</time></trkpt><trkpt lat="31.43542495496596" lon="-7.408101529994727"><ele>1254.0</ele><time>2026-04-24T10:22:51Z</time></trkpt><trkpt lat="31.435293472158403" lon="-7.40809074959498"><ele>1254.0</ele><time>2026-04-24T10:22:52Z</time></trkpt><trkpt lat="31.43515931636968" lon="-7.40807353424511"><ele>1254.0</ele><time>2026-04-24T10:22:53Z</time></trkpt><trkpt lat="31.43502181459192" lon="-7.4080841591699675"><ele>1254.0</ele><time>2026-04-24T10:22:54Z</time></trkpt><trkpt lat="31.434879380975016" lon="-7.40811737862187"><ele>1254.0</ele><time>2026-04-24T10:22:55Z</time></trkpt><trkpt lat="31.434734719809086" lon="-7.40815976683527"><ele>1251.5</ele><time>2026-04-24T10:22:56Z</time></trkpt><trkpt lat="31.434590522190526" lon="-7.408207140325704"><ele>1249.0</ele><time>2026-04-24T10:22:57Z</time></trkpt><trkpt lat="31.434452934224783" lon="-7.408256023182842"><ele>1246.5</ele><time>2026-04-24T10:22:58Z</time></trkpt><trkpt lat="31.43431993918249" lon="-7.408303459549668"><ele>1244.0</ele><time>2026-04-24T10:22:59Z</time></trkpt><trkpt lat="31.434187514851704" lon="-7.4083536871590665"><ele>1244.0</ele><time>2026-04-24T10:23:00Z</time></trkpt><trkpt lat="31.434064533075073" lon="-7.408435372043664"><ele>1244.0</ele><time>2026-04-24T10:23:01Z</time></trkpt><trkpt lat="31.43395177479708" lon="-7.408533386051591"><ele>1244.0</ele><time>2026-04-24T10:23:02Z</time></trkpt><trkpt lat="31.433842587568364" lon="-7.408648576879922"><ele>1244.0</ele><time>2026-04-24T10:23:03Z</time></trkpt><trkpt lat="31.433729543837604" lon="-7.408776967233829"><ele>1246.6666666666667</ele><time>2026-04-24T10:23:04Z</time></trkpt><trkpt lat="31.433612852498335" lon="-7.40891004258333"><ele>1249.3333333333333</ele><time>2026-04-24T10:23:05Z</time></trkpt><trkpt lat="31.43349120581034" lon="-7.409045821867228"><ele>1252.0</ele><time>2026-04-24T10:23:06Z</time></trkpt><trkpt lat="31.433368861378682" lon="-7.409183300858312"><ele>1252.0</ele><time>2026-04-24T10:23:07Z</time></trkpt><trkpt lat="31.43322027233581" lon="-7.409292134979297"><ele>1252.0</ele><time>2026-04-24T10:23:08Z</time></trkpt><trkpt lat="31.433079415891783" lon="-7.40940116860707"><ele>1252.0</ele><time>2026-04-24T10:23:09Z</time></trkpt><trkpt lat="31.432939058792524" lon="-7.409512021491652"><ele>1250.6666666666665</ele><time>2026-04-24T10:23:10Z</time></trkpt><trkpt lat="31.432821841750314" lon="-7.409652574717759"><ele>1249.3333333333333</ele><time>2026-04-24T10:23:11Z</time></trkpt><trkpt lat="31.432709043388222" lon="-7.409798906094761"><ele>1248.0</ele><time>2026-04-24T10:23:12Z</time></trkpt><trkpt lat="31.43262401491505" lon="-7.409944846360755"><ele>1248.0</ele><time>2026-04-24T10:23:13Z</time></trkpt><trkpt lat="31.43255368872093" lon="-7.4100994874932224"><ele>1248.0</ele><time>2026-04-24T10:23:14Z</time></trkpt><trkpt lat="31.4325500654342" lon="-7.410245249872167"><ele>1248.0</ele><time>2026-04-24T10:23:15Z</time></trkpt><trkpt lat="31.432545754475022" lon="-7.410389110846446"><ele>1248.0</ele><time>2026-04-24T10:23:16Z</time></trkpt><trkpt lat="31.432551234124205" lon="-7.410548982739226"><ele>1252.25</ele><time>2026-04-24T10:23:17Z</time></trkpt><trkpt lat="31.432556580082178" lon="-7.410704980683719"><ele>1256.5</ele><time>2026-04-24T10:23:18Z</time></trkpt><trkpt lat="31.432547791551045" lon="-7.410860500008315"><ele>1260.75</ele><time>2026-04-24T10:23:19Z</time></trkpt><trkpt lat="31.432519977231305" lon="-7.410988807059678"><ele>1265.0</ele><time>2026-04-24T10:23:20Z</time></trkpt><trkpt lat="31.432439620937323" lon="-7.411117103365816"><ele>1265.0</ele><time>2026-04-24T10:23:21Z</time></trkpt><trkpt lat="31.432330862790568" lon="-7.411204191150499"><ele>1265.0</ele><time>2026-04-24T10:23:22Z</time></trkpt><trkpt lat="31.432212055514693" lon="-7.41125926852329"><ele>1265.0</ele><time>2026-04-24T10:23:23Z</time></trkpt><trkpt lat="31.432070800075397" lon="-7.411275371264269"><ele>1265.0</ele><time>2026-04-24T10:23:24Z</time></trkpt><trkpt lat="31.431930206354604" lon="-7.411260447738645"><ele>1258.6666666666667</ele><time>2026-04-24T10:23:25Z</time></trkpt><trkpt lat="31.43178601588026" lon="-7.411209612310971"><ele>1252.3333333333333</ele><time>2026-04-24T10:23:26Z</time></trkpt><trkpt lat="31.43163849880665" lon="-7.411165257254694"><ele>1246.0</ele><time>2026-04-24T10:23:27Z</time></trkpt><trkpt lat="31.431489655995957" lon="-7.411113547363612"><ele>1246.0</ele><time>2026-04-24T10:23:28Z</time></trkpt><trkpt lat="31.4313398316671" lon="-7.411045846045858"><ele>1246.0</ele><time>2026-04-24T10:23:29Z</time></trkpt><trkpt lat="31.43119352414415" lon="-7.410950658218385"><ele>1246.0</ele><time>2026-04-24T10:23:30Z</time></trkpt><trkpt lat="31.431056803353762" lon="-7.4108270586678335"><ele>1247.3333333333333</ele><time>2026-04-24T10:23:31Z</time></trkpt><trkpt lat="31.430917060050028" lon="-7.4106913334988285"><ele>1248.6666666666667</ele><time>2026-04-24T10:23:32Z</time></trkpt><trkpt lat="31.430768746137513" lon="-7.410556157296737"><ele>1250.0</ele><time>2026-04-24T10:23:33Z</time></trkpt><trkpt lat="31.430612222274814" lon="-7.4104166548613275"><ele>1258.3333333333335</ele><time>2026-04-24T10:23:34Z</time></trkpt><trkpt lat="31.430451338279045" lon="-7.410261631391849"><ele>1266.6666666666667</ele><time>2026-04-24T10:23:35Z</time></trkpt><trkpt lat="31.430289997579578" lon="-7.4100886784968"><ele>1275.0</ele><time>2026-04-24T10:23:36Z</time></trkpt><trkpt lat="31.43013848040894" lon="-7.409912316722193"><ele>1275.0</ele><time>2026-04-24T10:23:37Z</time></trkpt><trkpt lat="31.42999198515983" lon="-7.4097359481057925"><ele>1275.0</ele><time>2026-04-24T10:23:38Z</time></trkpt><trkpt lat="31.429857313820964" lon="-7.409579261588586"><ele>1275.0</ele><time>2026-04-24T10:23:39Z</time></trkpt><trkpt lat="31.429716904182282" lon="-7.409445828306499"><ele>1275.0</ele><time>2026-04-24T10:23:40Z</time></trkpt><trkpt lat="31.42956986522545" lon="-7.409331507789432"><ele>1275.0</ele><time>2026-04-24T10:23:41Z</time></trkpt><trkpt lat="31.429420384774797" lon="-7.409228837830991"><ele>1275.0</ele><time>2026-04-24T10:23:42Z</time></trkpt><trkpt lat="31.429268979638632" lon="-7.409128392531346"><ele>1275.0</ele><time>2026-04-24T10:23:43Z</time></trkpt><trkpt lat="31.4291133145385" lon="-7.409030293870617"><ele>1275.0</ele><time>2026-04-24T10:23:44Z</time></trkpt><trkpt lat="31.428958753709832" lon="-7.408932660677323"><ele>1275.0</ele><time>2026-04-24T10:23:45Z</time></trkpt><trkpt lat="31.428812230744658" lon="-7.40884245313624"><ele>1269.3333333333333</ele><time>2026-04-24T10:23:46Z</time></trkpt><trkpt lat="31.428670423524455" lon="-7.40876927558664"><ele>1263.6666666666665</ele><time>2026-04-24T10:23:47Z</time></trkpt><trkpt lat="31.428524791660603" lon="-7.408728781345304"><ele>1258.0</ele><time>2026-04-24T10:23:48Z</time></trkpt><trkpt lat="31.42837891577552" lon="-7.4087254330901535"><ele>1258.0</ele><time>2026-04-24T10:23:49Z</time></trkpt><trkpt lat="31.42825498275007" lon="-7.4087843316327"><ele>1258.0</ele><time>2026-04-24T10:23:50Z</time></trkpt><trkpt lat="31.428166968119903" lon="-7.408855502640194"><ele>1258.0</ele><time>2026-04-24T10:23:51Z</time></trkpt><trkpt lat="31.428095625050087" lon="-7.408940128025892"><ele>1258.0</ele><time>2026-04-24T10:23:51.999Z</time></trkpt><trkpt lat="31.428026324171615" lon="-7.409040492118049"><ele>1261.0</ele><time>2026-04-24T10:23:52.999Z</time></trkpt><trkpt lat="31.427944365124933" lon="-7.409150909206826"><ele>1264.0</ele><time>2026-04-24T10:23:53.999Z</time></trkpt><trkpt lat="31.42788989892135" lon="-7.409297594755832"><ele>1267.0</ele><time>2026-04-24T10:23:54.999Z</time></trkpt><trkpt lat="31.427817235599267" lon="-7.409435262031696"><ele>1270.0</ele><time>2026-04-24T10:23:55.999Z</time></trkpt><trkpt lat="31.42774175923164" lon="-7.40957292418462"><ele>1270.75</ele><time>2026-04-24T10:23:56.999Z</time></trkpt><trkpt lat="31.42766471924881" lon="-7.409713869675364"><ele>1271.5</ele><time>2026-04-24T10:23:57.999Z</time></trkpt><trkpt lat="31.42758641488006" lon="-7.409856808657244"><ele>1272.25</ele><time>2026-04-24T10:23:58.999Z</time></trkpt><trkpt lat="31.427506776687355" lon="-7.410001204273965"><ele>1273.0</ele><time>2026-04-24T10:23:59.999Z</time></trkpt><trkpt lat="31.427417667974513" lon="-7.410148199929664"><ele>1273.0</ele><time>2026-04-24T10:24:00.999Z</time></trkpt><trkpt lat="31.42732751584196" lon="-7.410294087642119"><ele>1273.0</ele><time>2026-04-24T10:24:01.999Z</time></trkpt><trkpt lat="31.42722768405314" lon="-7.410429194981112"><ele>1273.0</ele><time>2026-04-24T10:24:02.999Z</time></trkpt><trkpt lat="31.42712161980078" lon="-7.410554406519138"><ele>1275.0</ele><time>2026-04-24T10:24:03.999Z</time></trkpt><trkpt lat="31.427019910828037" lon="-7.410666976712801"><ele>1277.0</ele><time>2026-04-24T10:24:04.999Z</time></trkpt><trkpt lat="31.426901940160935" lon="-7.410748541784275"><ele>1279.0</ele><time>2026-04-24T10:24:05.999Z</time></trkpt><trkpt lat="31.42679292718166" lon="-7.410817086696797"><ele>1281.0</ele><time>2026-04-24T10:24:06.999Z</time></trkpt><trkpt lat="31.426688482295297" lon="-7.410873592730846"><ele>1281.0</ele><time>2026-04-24T10:24:07.999Z</time></trkpt><trkpt lat="31.426573753631825" lon="-7.410927816814067"><ele>1281.0</ele><time>2026-04-24T10:24:08.999Z</time></trkpt><trkpt lat="31.426460613863306" lon="-7.410972138036576"><ele>1281.0</ele><time>2026-04-24T10:24:09.999Z</time></trkpt><trkpt lat="31.426350579429887" lon="-7.411011154398092"><ele>1281.0</ele><time>2026-04-24T10:24:10.999Z</time></trkpt><trkpt lat="31.426244823384977" lon="-7.41104273829666"><ele>1281.0</ele><time>2026-04-24T10:24:11.999Z</time></trkpt><trkpt lat="31.426143335023376" lon="-7.41107263138082"><ele>1281.0</ele><time>2026-04-24T10:24:12.999Z</time></trkpt><trkpt lat="31.426044823384352" lon="-7.4111019504067475"><ele>1281.0</ele><time>2026-04-24T10:24:13.999Z</time></trkpt><trkpt lat="31.425949388595274" lon="-7.41112963258443"><ele>1281.0</ele><time>2026-04-24T10:24:14.999Z</time></trkpt><trkpt lat="31.425849104089803" lon="-7.411138300415725"><ele>1281.0</ele><time>2026-04-24T10:24:15.999Z</time></trkpt><trkpt lat="31.42575369051621" lon="-7.411149749987018"><ele>1281.0</ele><time>2026-04-24T10:24:16.999Z</time></trkpt><trkpt lat="31.425655922611966" lon="-7.411102656729919"><ele>1281.0</ele><time>2026-04-24T10:24:17.999Z</time></trkpt><trkpt lat="31.425575065202015" lon="-7.411069830254872"><ele>1281.0</ele><time>2026-04-24T10:24:18.999Z</time></trkpt><trkpt lat="31.42551046107106" lon="-7.41102706226185"><ele>1281.0</ele><time>2026-04-24T10:24:19.999Z</time></trkpt><trkpt lat="31.425455441575078" lon="-7.410977325824737"><ele>1281.0</ele><time>2026-04-24T10:24:20.999Z</time></trkpt><trkpt lat="31.425398588675666" lon="-7.4108873991777795"><ele>1281.0</ele><time>2026-04-24T10:24:22.999Z</time></trkpt><trkpt lat="31.425376305897725" lon="-7.410810562196112"><ele>1284.75</ele><time>2026-04-24T10:24:29.999Z</time></trkpt><trkpt lat="31.425333671735686" lon="-7.410648592485098"><ele>1288.5</ele><time>2026-04-24T10:24:31.999Z</time></trkpt><trkpt lat="31.42534212281391" lon="-7.410516420010514"><ele>1292.25</ele><time>2026-04-24T10:24:32.999Z</time></trkpt><trkpt lat="31.42533757162558" lon="-7.410374190644715"><ele>1296.0</ele><time>2026-04-24T10:24:33.999Z</time></trkpt><trkpt lat="31.42534451581002" lon="-7.410228107036309"><ele>1296.0</ele><time>2026-04-24T10:24:34.999Z</time></trkpt><trkpt lat="31.425362344792973" lon="-7.410077739246969"><ele>1296.0</ele><time>2026-04-24T10:24:35.999Z</time></trkpt><trkpt lat="31.425369692595407" lon="-7.4099237866048"><ele>1296.0</ele><time>2026-04-24T10:24:37Z</time></trkpt><trkpt lat="31.425361546429745" lon="-7.409767802522073"><ele>1296.0</ele><time>2026-04-24T10:24:38Z</time></trkpt><trkpt lat="31.42533469494648" lon="-7.409614595264574"><ele>1292.75</ele><time>2026-04-24T10:24:39Z</time></trkpt><trkpt lat="31.425284994774696" lon="-7.4094686233665"><ele>1289.5</ele><time>2026-04-24T10:24:40Z</time></trkpt><trkpt lat="31.42520232894702" lon="-7.409337558686156"><ele>1286.25</ele><time>2026-04-24T10:24:41Z</time></trkpt><trkpt lat="31.425090958045647" lon="-7.4092209071686455"><ele>1283.0</ele><time>2026-04-24T10:24:42Z</time></trkpt><trkpt lat="31.42495477133832" lon="-7.409122801732456"><ele>1283.0</ele><time>2026-04-24T10:24:43Z</time></trkpt><trkpt lat="31.42479970825928" lon="-7.4090421192139"><ele>1283.0</ele><time>2026-04-24T10:24:44Z</time></trkpt><trkpt lat="31.42463749565847" lon="-7.408961995030635"><ele>1283.0</ele><time>2026-04-24T10:24:45Z</time></trkpt><trkpt lat="31.424481670575982" lon="-7.4088786684445385"><ele>1282.6666666666667</ele><time>2026-04-24T10:24:46Z</time></trkpt><trkpt lat="31.424314294245537" lon="-7.408784469009023"><ele>1282.3333333333333</ele><time>2026-04-24T10:24:47Z</time></trkpt><trkpt lat="31.42414127584714" lon="-7.408689095690403"><ele>1282.0</ele><time>2026-04-24T10:24:48Z</time></trkpt><trkpt lat="31.42396692559566" lon="-7.408594998994258"><ele>1287.0</ele><time>2026-04-24T10:24:49Z</time></trkpt><trkpt lat="31.423788851771274" lon="-7.408500677508797"><ele>1292.0</ele><time>2026-04-24T10:24:50Z</time></trkpt><trkpt lat="31.423607978807038" lon="-7.408406862354446"><ele>1297.0</ele><time>2026-04-24T10:24:51Z</time></trkpt><trkpt lat="31.423427669836265" lon="-7.408312687744661"><ele>1297.0</ele><time>2026-04-24T10:24:52Z</time></trkpt><trkpt lat="31.423248146566625" lon="-7.408216487253976"><ele>1297.0</ele><time>2026-04-24T10:24:53Z</time></trkpt><trkpt lat="31.42306831615826" lon="-7.408119344135759"><ele>1297.0</ele><time>2026-04-24T10:24:54Z</time></trkpt><trkpt lat="31.42288797736371" lon="-7.408027874690622"><ele>1293.3333333333333</ele><time>2026-04-24T10:24:55Z</time></trkpt><trkpt lat="31.42270493952277" lon="-7.407950253875217"><ele>1289.6666666666667</ele><time>2026-04-24T10:24:56Z</time></trkpt><trkpt lat="31.42251739595789" lon="-7.407887366581648"><ele>1286.0</ele><time>2026-04-24T10:24:57Z</time></trkpt><trkpt lat="31.422319544074043" lon="-7.4078681136895534"><ele>1287.0</ele><time>2026-04-24T10:24:58Z</time></trkpt><trkpt lat="31.42212540960703" lon="-7.407851694515026"><ele>1288.0</ele><time>2026-04-24T10:24:59Z</time></trkpt><trkpt lat="31.42194709632874" lon="-7.407837126773571"><ele>1289.0</ele><time>2026-04-24T10:25:00Z</time></trkpt><trkpt lat="31.421782580719253" lon="-7.407813367468677"><ele>1289.0</ele><time>2026-04-24T10:25:01Z</time></trkpt><trkpt lat="31.421636561566977" lon="-7.407755426475971"><ele>1289.0</ele><time>2026-04-24T10:25:02Z</time></trkpt><trkpt lat="31.42150575701124" lon="-7.407683561718941"><ele>1289.0</ele><time>2026-04-24T10:25:03Z</time></trkpt><trkpt lat="31.421388672748996" lon="-7.407580091166475"><ele>1289.0</ele><time>2026-04-24T10:25:04Z</time></trkpt><trkpt lat="31.42129403320404" lon="-7.407443934848964"><ele>1293.0</ele><time>2026-04-24T10:25:05Z</time></trkpt><trkpt lat="31.421219855389968" lon="-7.407285533903639"><ele>1297.0</ele><time>2026-04-24T10:25:06Z</time></trkpt><trkpt lat="31.42117210510769" lon="-7.407105217696718"><ele>1301.0</ele><time>2026-04-24T10:25:07Z</time></trkpt><trkpt lat="31.421135274375352" lon="-7.406918500461937"><ele>1303.3333333333335</ele><time>2026-04-24T10:25:08Z</time></trkpt><trkpt lat="31.42109701002716" lon="-7.406732739321995"><ele>1305.6666666666667</ele><time>2026-04-24T10:25:09Z</time></trkpt><trkpt lat="31.42103459833427" lon="-7.406562342279124"><ele>1308.0</ele><time>2026-04-24T10:25:10Z</time></trkpt><trkpt lat="31.420940443197566" lon="-7.406411384514325"><ele>1304.6666666666667</ele><time>2026-04-24T10:25:11Z</time></trkpt><trkpt lat="31.420827154094837" lon="-7.406291695004773"><ele>1301.3333333333335</ele><time>2026-04-24T10:25:12Z</time></trkpt><trkpt lat="31.420693941333983" lon="-7.406210901829795"><ele>1298.0</ele><time>2026-04-24T10:25:13Z</time></trkpt><trkpt lat="31.420537783289152" lon="-7.406193675658719"><ele>1297.6666666666667</ele><time>2026-04-24T10:25:14Z</time></trkpt><trkpt lat="31.420387907453538" lon="-7.406198775704101"><ele>1297.3333333333333</ele><time>2026-04-24T10:25:15Z</time></trkpt><trkpt lat="31.42023341633701" lon="-7.40623945285591"><ele>1297.0</ele><time>2026-04-24T10:25:16Z</time></trkpt><trkpt lat="31.420072509883497" lon="-7.406299469156347"><ele>1304.6666666666665</ele><time>2026-04-24T10:25:17Z</time></trkpt><trkpt lat="31.419908801701023" lon="-7.406371494284101"><ele>1312.3333333333333</ele><time>2026-04-24T10:25:18Z</time></trkpt><trkpt lat="31.41974374664796" lon="-7.406448321356609"><ele>1320.0</ele><time>2026-04-24T10:25:19Z</time></trkpt><trkpt lat="31.4195613958256" lon="-7.406498427041963"><ele>1320.0</ele><time>2026-04-24T10:25:20Z</time></trkpt><trkpt lat="31.419367840200444" lon="-7.406490986464682"><ele>1320.0</ele><time>2026-04-24T10:25:21Z</time></trkpt><trkpt lat="31.419176329056462" lon="-7.406413846816796"><ele>1320.0</ele><time>2026-04-24T10:25:22Z</time></trkpt><trkpt lat="31.418975544121004" lon="-7.4063672369081175"><ele>1313.6666666666667</ele><time>2026-04-24T10:25:23Z</time></trkpt><trkpt lat="31.41877447952894" lon="-7.406300415211715"><ele>1307.3333333333335</ele><time>2026-04-24T10:25:24Z</time></trkpt><trkpt lat="31.418586678712796" lon="-7.406237790631036"><ele>1301.0</ele><time>2026-04-24T10:25:25Z</time></trkpt><trkpt lat="31.41841444897659" lon="-7.406183364019884"><ele>1301.0</ele><time>2026-04-24T10:25:26Z</time></trkpt><trkpt lat="31.418253246018658" lon="-7.406130173314944"><ele>1301.0</ele><time>2026-04-24T10:25:27Z</time></trkpt><trkpt lat="31.41810507863059" lon="-7.406072945200904"><ele>1301.0</ele><time>2026-04-24T10:25:28Z</time></trkpt><trkpt lat="31.41798253716567" lon="-7.405964486330543"><ele>1307.0</ele><time>2026-04-24T10:25:29Z</time></trkpt><trkpt lat="31.417883657896073" lon="-7.405855580806905"><ele>1313.0</ele><time>2026-04-24T10:25:30Z</time></trkpt><trkpt lat="31.41780719406654" lon="-7.405729035230706"><ele>1319.0</ele><time>2026-04-24T10:25:31Z</time></trkpt><trkpt lat="31.417750889723347" lon="-7.405582756352179"><ele>1325.0</ele><time>2026-04-24T10:25:32Z</time></trkpt><trkpt lat="31.41771620747353" lon="-7.405418910155868"><ele>1325.0</ele><time>2026-04-24T10:25:33Z</time></trkpt><trkpt lat="31.417702325283496" lon="-7.405239807304908"><ele>1325.0</ele><time>2026-04-24T10:25:34Z</time></trkpt><trkpt lat="31.41770596481522" lon="-7.4050458040649945"><ele>1325.0</ele><time>2026-04-24T10:25:35Z</time></trkpt><trkpt lat="31.417718503062858" lon="-7.404838526455488"><ele>1325.3333333333335</ele><time>2026-04-24T10:25:36Z</time></trkpt><trkpt lat="31.417725741154428" lon="-7.404630860569543"><ele>1325.6666666666667</ele><time>2026-04-24T10:25:37Z</time></trkpt><trkpt lat="31.41772749011208" lon="-7.404432138968278"><ele>1326.0</ele><time>2026-04-24T10:25:38Z</time></trkpt><trkpt lat="31.417720547208894" lon="-7.40424137751172"><ele>1326.0</ele><time>2026-04-24T10:25:39Z</time></trkpt><trkpt lat="31.417683876394637" lon="-7.404065719427528"><ele>1326.0</ele><time>2026-04-24T10:25:40Z</time></trkpt><trkpt lat="31.417608902496752" lon="-7.403909314016987"><ele>1326.0</ele><time>2026-04-24T10:25:41Z</time></trkpt><trkpt lat="31.41750381970716" lon="-7.403773319270502"><ele>1320.6666666666667</ele><time>2026-04-24T10:25:42Z</time></trkpt><trkpt lat="31.417369348401735" lon="-7.403662527281224"><ele>1315.3333333333335</ele><time>2026-04-24T10:25:43Z</time></trkpt><trkpt lat="31.417206169418442" lon="-7.403582971758428"><ele>1310.0</ele><time>2026-04-24T10:25:44Z</time></trkpt><trkpt lat="31.41702896306829" lon="-7.403527717625439"><ele>1310.0</ele><time>2026-04-24T10:25:45Z</time></trkpt><trkpt lat="31.41684530415629" lon="-7.403501132936846"><ele>1310.0</ele><time>2026-04-24T10:25:46Z</time></trkpt><trkpt lat="31.416667672714862" lon="-7.403458342778197"><ele>1310.0</ele><time>2026-04-24T10:25:47Z</time></trkpt><trkpt lat="31.416496276370804" lon="-7.403366465432712"><ele>1310.0</ele><time>2026-04-24T10:25:48Z</time></trkpt><trkpt lat="31.41632582327248" lon="-7.403280614388719"><ele>1310.0</ele><time>2026-04-24T10:25:49Z</time></trkpt><trkpt lat="31.41617256906697" lon="-7.403151626644872"><ele>1310.0</ele><time>2026-04-24T10:25:50Z</time></trkpt><trkpt lat="31.416034855366057" lon="-7.402986879646774"><ele>1307.3333333333335</ele><time>2026-04-24T10:25:51Z</time></trkpt><trkpt lat="31.415905535523493" lon="-7.402799318972945"><ele>1304.6666666666667</ele><time>2026-04-24T10:25:52Z</time></trkpt><trkpt lat="31.415779777586156" lon="-7.402609972530982"><ele>1302.0</ele><time>2026-04-24T10:25:53Z</time></trkpt><trkpt lat="31.415655838163463" lon="-7.402432220828182"><ele>1302.0</ele><time>2026-04-24T10:25:54Z</time></trkpt><trkpt lat="31.415534379345385" lon="-7.402259997233828"><ele>1302.0</ele><time>2026-04-24T10:25:55Z</time></trkpt><trkpt lat="31.415419084901405" lon="-7.402093009893976"><ele>1302.0</ele><time>2026-04-24T10:25:55.999Z</time></trkpt><trkpt lat="31.41531165829247" lon="-7.401932417471436"><ele>1308.6666666666667</ele><time>2026-04-24T10:25:56.999Z</time></trkpt><trkpt lat="31.41520501637982" lon="-7.401781810108875"><ele>1315.3333333333335</ele><time>2026-04-24T10:25:57.999Z</time></trkpt><trkpt lat="31.415103541985314" lon="-7.401640311896677"><ele>1322.0</ele><time>2026-04-24T10:25:58.999Z</time></trkpt><trkpt lat="31.415008345165656" lon="-7.4015070356832275"><ele>1322.0</ele><time>2026-04-24T10:25:59.999Z</time></trkpt><trkpt lat="31.414916694475785" lon="-7.401380027847645"><ele>1322.0</ele><time>2026-04-24T10:26:00.999Z</time></trkpt><trkpt lat="31.414823935232626" lon="-7.401251275757835"><ele>1322.0</ele><time>2026-04-24T10:26:01.999Z</time></trkpt><trkpt lat="31.4147351004362" lon="-7.401120925978141"><ele>1322.0</ele><time>2026-04-24T10:26:02.999Z</time></trkpt><trkpt lat="31.414658054378926" lon="-7.400985949318664"><ele>1330.0</ele><time>2026-04-24T10:26:03.999Z</time></trkpt><trkpt lat="31.4145981512365" lon="-7.400841604060484"><ele>1338.0</ele><time>2026-04-24T10:26:04.999Z</time></trkpt><trkpt lat="31.414561585594956" lon="-7.400687514976385"><ele>1346.0</ele><time>2026-04-24T10:26:05.999Z</time></trkpt><trkpt lat="31.414550360339657" lon="-7.400526684494887"><ele>1354.0</ele><time>2026-04-24T10:26:06.999Z</time></trkpt><trkpt lat="31.41455299467956" lon="-7.400366767883235"><ele>1354.0</ele><time>2026-04-24T10:26:07.999Z</time></trkpt><trkpt lat="31.414567795813372" lon="-7.400203024444498"><ele>1354.0</ele><time>2026-04-24T10:26:08.999Z</time></trkpt><trkpt lat="31.41458428342065" lon="-7.4000398103425065"><ele>1354.0</ele><time>2026-04-24T10:26:09.999Z</time></trkpt><trkpt lat="31.414592385326962" lon="-7.399874541987912"><ele>1354.0</ele><time>2026-04-24T10:26:10.999Z</time></trkpt><trkpt lat="31.414582452458266" lon="-7.399709799427411"><ele>1347.5</ele><time>2026-04-24T10:26:11.999Z</time></trkpt><trkpt lat="31.41454506216553" lon="-7.399551032468565"><ele>1341.0</ele><time>2026-04-24T10:26:12.999Z</time></trkpt><trkpt lat="31.41447244307971" lon="-7.399409652703599"><ele>1334.5</ele><time>2026-04-24T10:26:13.999Z</time></trkpt><trkpt lat="31.41438072970951" lon="-7.399282580484721"><ele>1328.0</ele><time>2026-04-24T10:26:14.999Z</time></trkpt><trkpt lat="31.414268973783194" lon="-7.39916643654563"><ele>1328.0</ele><time>2026-04-24T10:26:15.999Z</time></trkpt><trkpt lat="31.414152508835567" lon="-7.39905671866104"><ele>1328.0</ele><time>2026-04-24T10:26:16.999Z</time></trkpt><trkpt lat="31.41404620763938" lon="-7.398942247648957"><ele>1328.0</ele><time>2026-04-24T10:26:17.999Z</time></trkpt><trkpt lat="31.41395242233114" lon="-7.398815577710121"><ele>1328.0</ele><time>2026-04-24T10:26:18.999Z</time></trkpt><trkpt lat="31.413874098751787" lon="-7.398674320153862"><ele>1331.0</ele><time>2026-04-24T10:26:19.999Z</time></trkpt><trkpt lat="31.41381707830017" lon="-7.398525967694144"><ele>1334.0</ele><time>2026-04-24T10:26:20.999Z</time></trkpt><trkpt lat="31.413769583002082" lon="-7.398375569508896"><ele>1337.0</ele><time>2026-04-24T10:26:21.999Z</time></trkpt><trkpt lat="31.413732470443907" lon="-7.398226886533814"><ele>1340.0</ele><time>2026-04-24T10:26:22.999Z</time></trkpt><trkpt lat="31.413694827521113" lon="-7.39808348684487"><ele>1337.75</ele><time>2026-04-24T10:26:23.999Z</time></trkpt><trkpt lat="31.413655517685495" lon="-7.397945346431697"><ele>1335.5</ele><time>2026-04-24T10:26:24.999Z</time></trkpt><trkpt lat="31.413614872662624" lon="-7.397813810321003"><ele>1333.25</ele><time>2026-04-24T10:26:25.999Z</time></trkpt><trkpt lat="31.413573206213005" lon="-7.397687469570124"><ele>1331.0</ele><time>2026-04-24T10:26:26.999Z</time></trkpt><trkpt lat="31.413531521163257" lon="-7.39756597859236"><ele>1331.0</ele><time>2026-04-24T10:26:27.999Z</time></trkpt><trkpt lat="31.41349353180564" lon="-7.397446995863148"><ele>1331.0</ele><time>2026-04-24T10:26:28.999Z</time></trkpt><trkpt lat="31.41346147711379" lon="-7.397332640714673"><ele>1331.0</ele><time>2026-04-24T10:26:29.999Z</time></trkpt><trkpt lat="31.413431396503473" lon="-7.397220685414938"><ele>1331.0</ele><time>2026-04-24T10:26:30.999Z</time></trkpt><trkpt lat="31.413399915731567" lon="-7.39711155300009"><ele>1331.0</ele><time>2026-04-24T10:26:31.999Z</time></trkpt><trkpt lat="31.413373764045666" lon="-7.396995955427057"><ele>1330.0</ele><time>2026-04-24T10:26:32.999Z</time></trkpt><trkpt lat="31.41335883305946" lon="-7.396877236614069"><ele>1329.0</ele><time>2026-04-24T10:26:33.999Z</time></trkpt><trkpt lat="31.413349915774077" lon="-7.396755675621341"><ele>1328.0</ele><time>2026-04-24T10:26:34.999Z</time></trkpt><trkpt lat="31.41335527023256" lon="-7.396633873035887"><ele>1327.0</ele><time>2026-04-24T10:26:35.999Z</time></trkpt><trkpt lat="31.413365486609756" lon="-7.396512097696184"><ele>1326.0</ele><time>2026-04-24T10:26:36.999Z</time></trkpt><trkpt lat="31.413387562583964" lon="-7.3963902321831165"><ele>1331.0</ele><time>2026-04-24T10:26:37.999Z</time></trkpt><trkpt lat="31.413420004458047" lon="-7.396269888094952"><ele>1336.0</ele><time>2026-04-24T10:26:38.999Z</time></trkpt><trkpt lat="31.41346079256483" lon="-7.396151121907782"><ele>1341.0</ele><time>2026-04-24T10:26:39.999Z</time></trkpt><trkpt lat="31.413511695044008" lon="-7.396035130915376"><ele>1346.0</ele><time>2026-04-24T10:26:40.999Z</time></trkpt><trkpt lat="31.413572375845074" lon="-7.3959248474327275"><ele>1351.0</ele><time>2026-04-24T10:26:41.999Z</time></trkpt><trkpt lat="31.413645195324648" lon="-7.395823648385074"><ele>1351.0</ele><time>2026-04-24T10:26:43Z</time></trkpt><trkpt lat="31.41372511330195" lon="-7.395730494050211"><ele>1351.0</ele><time>2026-04-24T10:26:44Z</time></trkpt><trkpt lat="31.413812208327993" lon="-7.39564755349699"><ele>1351.0</ele><time>2026-04-24T10:26:45Z</time></trkpt><trkpt lat="31.413905548300804" lon="-7.3955753664045165"><ele>1351.0</ele><time>2026-04-24T10:26:46Z</time></trkpt><trkpt lat="31.4139993073061" lon="-7.3955100732211205"><ele>1351.0</ele><time>2026-04-24T10:26:47Z</time></trkpt><trkpt lat="31.4140926420926" lon="-7.3954482756041235"><ele>1350.1999999999998</ele><time>2026-04-24T10:26:48Z</time></trkpt><trkpt lat="31.414184078713784" lon="-7.395386740181451"><ele>1349.3999999999999</ele><time>2026-04-24T10:26:49Z</time></trkpt><trkpt lat="31.414270651544285" lon="-7.395324245453062"><ele>1348.6</ele><time>2026-04-24T10:26:50Z</time></trkpt><trkpt lat="31.414353152305797" lon="-7.395257522366128"><ele>1347.8</ele><time>2026-04-24T10:26:51Z</time></trkpt><trkpt lat="31.414430845570852" lon="-7.395189566284625"><ele>1347.0</ele><time>2026-04-24T10:26:52Z</time></trkpt><trkpt lat="31.414505658556557" lon="-7.395106934311439"><ele>1347.0</ele><time>2026-04-24T10:26:53Z</time></trkpt><trkpt lat="31.414567161629357" lon="-7.395003329375473"><ele>1347.0</ele><time>2026-04-24T10:26:54Z</time></trkpt><trkpt lat="31.414608436002123" lon="-7.3948792744607115"><ele>1347.0</ele><time>2026-04-24T10:26:55Z</time></trkpt><trkpt lat="31.41464356443304" lon="-7.394723915330198"><ele>1347.0</ele><time>2026-04-24T10:26:56Z</time></trkpt><trkpt lat="31.414676582028502" lon="-7.394548824964075"><ele>1339.6666666666667</ele><time>2026-04-24T10:26:57Z</time></trkpt><trkpt lat="31.414709910823994" lon="-7.3943533144144205"><ele>1332.3333333333335</ele><time>2026-04-24T10:26:58Z</time></trkpt><trkpt lat="31.414751733740065" lon="-7.394148448652611"><ele>1325.0</ele><time>2026-04-24T10:26:59Z</time></trkpt><trkpt lat="31.41481740434407" lon="-7.39393809195343"><ele>1336.0</ele><time>2026-04-24T10:27:00Z</time></trkpt><trkpt lat="31.41492325631121" lon="-7.3937383873966"><ele>1347.0</ele><time>2026-04-24T10:27:01Z</time></trkpt><trkpt lat="31.415078923301635" lon="-7.393535475568783"><ele>1358.0</ele><time>2026-04-24T10:27:02Z</time></trkpt><trkpt lat="31.415253427085347" lon="-7.393305907186765"><ele>1358.0</ele><time>2026-04-24T10:27:03Z</time></trkpt><trkpt lat="31.415415041511867" lon="-7.393082170831978"><ele>1358.0</ele><time>2026-04-24T10:27:04Z</time></trkpt><trkpt lat="31.415546893616686" lon="-7.392896299519805"><ele>1352.25</ele><time>2026-04-24T10:27:05Z</time></trkpt><trkpt lat="31.415650604134136" lon="-7.392728779472764"><ele>1346.5</ele><time>2026-04-24T10:27:06Z</time></trkpt><trkpt lat="31.41570384553716" lon="-7.392587840948222"><ele>1340.75</ele><time>2026-04-24T10:27:07Z</time></trkpt><trkpt lat="31.415724044713727" lon="-7.3924508089112795"><ele>1335.0</ele><time>2026-04-24T10:27:08Z</time></trkpt><trkpt lat="31.41572746284942" lon="-7.392303678749434"><ele>1335.0</ele><time>2026-04-24T10:27:09Z</time></trkpt><trkpt lat="31.41571429977922" lon="-7.392146079577207"><ele>1335.0</ele><time>2026-04-24T10:27:10Z</time></trkpt><trkpt lat="31.415676369343707" lon="-7.391989158892462"><ele>1335.0</ele><time>2026-04-24T10:27:11Z</time></trkpt><trkpt lat="31.415608354675946" lon="-7.391845285513008"><ele>1335.0</ele><time>2026-04-24T10:27:12Z</time></trkpt><trkpt lat="31.415512367242894" lon="-7.391721926808734"><ele>1343.0</ele><time>2026-04-24T10:27:13Z</time></trkpt><trkpt lat="31.41539573754413" lon="-7.391619053881601"><ele>1351.0</ele><time>2026-04-24T10:27:14Z</time></trkpt><trkpt lat="31.415262350774505" lon="-7.391544058550967"><ele>1359.0</ele><time>2026-04-24T10:27:15Z</time></trkpt><trkpt lat="31.415114361439855" lon="-7.391533701500715"><ele>1367.0</ele><time>2026-04-24T10:27:16Z</time></trkpt><trkpt lat="31.41496553271221" lon="-7.391526390517363"><ele>1367.0</ele><time>2026-04-24T10:27:17Z</time></trkpt><trkpt lat="31.414795336297377" lon="-7.391518209682113"><ele>1367.0</ele><time>2026-04-24T10:27:18Z</time></trkpt><trkpt lat="31.41461241778492" lon="-7.391536636613114"><ele>1367.0</ele><time>2026-04-24T10:27:19Z</time></trkpt><trkpt lat="31.41442086570319" lon="-7.391552973451324"><ele>1369.0</ele><time>2026-04-24T10:27:20Z</time></trkpt><trkpt lat="31.41422872750035" lon="-7.39156929094862"><ele>1371.0</ele><time>2026-04-24T10:27:21Z</time></trkpt><trkpt lat="31.414037566958267" lon="-7.39157522217915"><ele>1373.0</ele><time>2026-04-24T10:27:22Z</time></trkpt><trkpt lat="31.413842949905764" lon="-7.391562232109994"><ele>1376.3333333333335</ele><time>2026-04-24T10:27:23Z</time></trkpt><trkpt lat="31.413639825883877" lon="-7.3915293121001575"><ele>1379.6666666666667</ele><time>2026-04-24T10:27:24Z</time></trkpt><trkpt lat="31.41343712401089" lon="-7.39146934779249"><ele>1383.0</ele><time>2026-04-24T10:27:25Z</time></trkpt><trkpt lat="31.413245190252397" lon="-7.391385452338413"><ele>1378.0</ele><time>2026-04-24T10:27:26Z</time></trkpt><trkpt lat="31.413061564734164" lon="-7.3912872466957635"><ele>1373.0</ele><time>2026-04-24T10:27:27Z</time></trkpt><trkpt lat="31.412888536415217" lon="-7.391193083446559"><ele>1368.0</ele><time>2026-04-24T10:27:28Z</time></trkpt><trkpt lat="31.41272787826101" lon="-7.3911146067146385"><ele>1368.0</ele><time>2026-04-24T10:27:29Z</time></trkpt><trkpt lat="31.412567602281225" lon="-7.391067917193809"><ele>1368.0</ele><time>2026-04-24T10:27:30Z</time></trkpt><trkpt lat="31.4124048583362" lon="-7.391097098253656"><ele>1368.0</ele><time>2026-04-24T10:27:31Z</time></trkpt><trkpt lat="31.412251728578255" lon="-7.391159494922903"><ele>1369.3333333333333</ele><time>2026-04-24T10:27:32Z</time></trkpt><trkpt lat="31.412086448793023" lon="-7.39123900845996"><ele>1370.6666666666665</ele><time>2026-04-24T10:27:33Z</time></trkpt><trkpt lat="31.411911020312573" lon="-7.391331959723433"><ele>1372.0</ele><time>2026-04-24T10:27:34Z</time></trkpt><trkpt lat="31.411723910641236" lon="-7.391431937568258"><ele>1371.3333333333333</ele><time>2026-04-24T10:27:35Z</time></trkpt><trkpt lat="31.411523357747274" lon="-7.391519122751033"><ele>1370.6666666666667</ele><time>2026-04-24T10:27:36Z</time></trkpt><trkpt lat="31.41132355292596" lon="-7.3916317090424695"><ele>1370.0</ele><time>2026-04-24T10:27:37Z</time></trkpt><trkpt lat="31.41112117856084" lon="-7.391742039270244"><ele>1370.0</ele><time>2026-04-24T10:27:38Z</time></trkpt><trkpt lat="31.410930418630546" lon="-7.391870396684471"><ele>1370.0</ele><time>2026-04-24T10:27:38.999Z</time></trkpt><trkpt lat="31.41074363641082" lon="-7.391975838389599"><ele>1370.0</ele><time>2026-04-24T10:27:39.999Z</time></trkpt><trkpt lat="31.410570886042535" lon="-7.392067930065335"><ele>1367.3333333333335</ele><time>2026-04-24T10:27:40.999Z</time></trkpt><trkpt lat="31.410402456950525" lon="-7.392126568184025"><ele>1364.6666666666667</ele><time>2026-04-24T10:27:41.999Z</time></trkpt><trkpt lat="31.41024805977511" lon="-7.392173496509795"><ele>1362.0</ele><time>2026-04-24T10:27:42.999Z</time></trkpt><trkpt lat="31.410091368410185" lon="-7.3921805011638115"><ele>1362.0</ele><time>2026-04-24T10:27:43.999Z</time></trkpt><trkpt lat="31.40993307750582" lon="-7.39214524028023"><ele>1362.0</ele><time>2026-04-24T10:27:44.999Z</time></trkpt><trkpt lat="31.409776197132985" lon="-7.392066757634288"><ele>1362.0</ele><time>2026-04-24T10:27:45.999Z</time></trkpt><trkpt lat="31.4096165854092" lon="-7.391962088532811"><ele>1367.6666666666667</ele><time>2026-04-24T10:27:46.999Z</time></trkpt><trkpt lat="31.4094403405986" lon="-7.391874223609012"><ele>1373.3333333333335</ele><time>2026-04-24T10:27:47.999Z</time></trkpt><trkpt lat="31.409289389269905" lon="-7.391763136189272"><ele>1379.0</ele><time>2026-04-24T10:27:48.999Z</time></trkpt><trkpt lat="31.409138696966174" lon="-7.391703620013661"><ele>1379.0</ele><time>2026-04-24T10:27:49.999Z</time></trkpt><trkpt lat="31.408983055558213" lon="-7.3916772374135356"><ele>1379.0</ele><time>2026-04-24T10:27:50.999Z</time></trkpt><trkpt lat="31.408825963591312" lon="-7.39170086688855"><ele>1379.0</ele><time>2026-04-24T10:27:51.999Z</time></trkpt><trkpt lat="31.40865867682426" lon="-7.391773792861982"><ele>1375.6666666666667</ele><time>2026-04-24T10:27:52.999Z</time></trkpt><trkpt lat="31.40848901694485" lon="-7.39187944054661"><ele>1372.3333333333333</ele><time>2026-04-24T10:27:53.999Z</time></trkpt><trkpt lat="31.40830877098222" lon="-7.391997894900202"><ele>1369.0</ele><time>2026-04-24T10:27:54.999Z</time></trkpt><trkpt lat="31.40811762195445" lon="-7.392115609471667"><ele>1371.0</ele><time>2026-04-24T10:27:55.999Z</time></trkpt><trkpt lat="31.40792865190558" lon="-7.3922357601800694"><ele>1373.0</ele><time>2026-04-24T10:27:56.999Z</time></trkpt><trkpt lat="31.407739932755124" lon="-7.392365078172917"><ele>1375.0</ele><time>2026-04-24T10:27:57.999Z</time></trkpt><trkpt lat="31.407568256875106" lon="-7.392534985658594"><ele>1375.0</ele><time>2026-04-24T10:27:58.999Z</time></trkpt><trkpt lat="31.407393511317416" lon="-7.392687238741539"><ele>1375.0</ele><time>2026-04-24T10:27:59.999Z</time></trkpt><trkpt lat="31.4072257402337" lon="-7.392834221887734"><ele>1375.0</ele><time>2026-04-24T10:28:00.999Z</time></trkpt><trkpt lat="31.407073348477837" lon="-7.39299867819176"><ele>1372.6666666666665</ele><time>2026-04-24T10:28:01.999Z</time></trkpt><trkpt lat="31.406945340796213" lon="-7.393190512741962"><ele>1370.3333333333333</ele><time>2026-04-24T10:28:02.999Z</time></trkpt><trkpt lat="31.406824753705827" lon="-7.393379862634756"><ele>1368.0</ele><time>2026-04-24T10:28:03.999Z</time></trkpt><trkpt lat="31.406711516128023" lon="-7.3935558544520905"><ele>1368.0</ele><time>2026-04-24T10:28:04.999Z</time></trkpt><trkpt lat="31.40660959882667" lon="-7.393714403066575"><ele>1368.0</ele><time>2026-04-24T10:28:05.999Z</time></trkpt><trkpt lat="31.406559292286737" lon="-7.393866779873245"><ele>1368.0</ele><time>2026-04-24T10:28:06.999Z</time></trkpt><trkpt lat="31.406529329979993" lon="-7.394027801030207"><ele>1368.0</ele><time>2026-04-24T10:28:07.999Z</time></trkpt><trkpt lat="31.40650694251137" lon="-7.394204412003867"><ele>1371.0</ele><time>2026-04-24T10:28:08.999Z</time></trkpt><trkpt lat="31.406553974811175" lon="-7.394396448108599"><ele>1374.0</ele><time>2026-04-24T10:28:09.999Z</time></trkpt><trkpt lat="31.406591058282505" lon="-7.3946005041368865"><ele>1377.0</ele><time>2026-04-24T10:28:10.999Z</time></trkpt><trkpt lat="31.406654330865553" lon="-7.394809263190779"><ele>1377.6666666666667</ele><time>2026-04-24T10:28:11.999Z</time></trkpt><trkpt lat="31.406709636777595" lon="-7.39501072468823"><ele>1378.3333333333335</ele><time>2026-04-24T10:28:12.999Z</time></trkpt><trkpt lat="31.40676946563515" lon="-7.3951899938583905"><ele>1379.0</ele><time>2026-04-24T10:28:13.999Z</time></trkpt><trkpt lat="31.406811407206224" lon="-7.395360519509917"><ele>1380.5</ele><time>2026-04-24T10:28:14.999Z</time></trkpt><trkpt lat="31.406834002152813" lon="-7.3955214046405064"><ele>1382.0</ele><time>2026-04-24T10:28:15.999Z</time></trkpt><trkpt lat="31.406818008788342" lon="-7.39569673841383"><ele>1383.5</ele><time>2026-04-24T10:28:16.999Z</time></trkpt><trkpt lat="31.406771844486084" lon="-7.395865053432967"><ele>1385.0</ele><time>2026-04-24T10:28:17.999Z</time></trkpt><trkpt lat="31.406700568626" lon="-7.396022448537648"><ele>1385.0</ele><time>2026-04-24T10:28:18.999Z</time></trkpt><trkpt lat="31.406605068566602" lon="-7.396156955305843"><ele>1385.0</ele><time>2026-04-24T10:28:19.999Z</time></trkpt><trkpt lat="31.40650172195364" lon="-7.396271967047184"><ele>1385.0</ele><time>2026-04-24T10:28:20.999Z</time></trkpt><trkpt lat="31.406362191990148" lon="-7.396356368490303"><ele>1385.0</ele><time>2026-04-24T10:28:21.999Z</time></trkpt><trkpt lat="31.406213983517112" lon="-7.396408761690647"><ele>1388.3333333333335</ele><time>2026-04-24T10:28:22.999Z</time></trkpt><trkpt lat="31.40605780744102" lon="-7.396422062197993"><ele>1391.6666666666667</ele><time>2026-04-24T10:28:23.999Z</time></trkpt><trkpt lat="31.405906831230403" lon="-7.396393012321072"><ele>1395.0</ele><time>2026-04-24T10:28:24.999Z</time></trkpt><trkpt lat="31.405756993258812" lon="-7.396372261993848"><ele>1389.3333333333333</ele><time>2026-04-24T10:28:25.999Z</time></trkpt><trkpt lat="31.4056192003496" lon="-7.39626726198613"><ele>1383.6666666666665</ele><time>2026-04-24T10:28:26.999Z</time></trkpt><trkpt lat="31.405481676836043" lon="-7.396160710000422"><ele>1378.0</ele><time>2026-04-24T10:28:27.999Z</time></trkpt><trkpt lat="31.40533852006488" lon="-7.39604521799896"><ele>1378.0</ele><time>2026-04-24T10:28:28.999Z</time></trkpt><trkpt lat="31.405188726603352" lon="-7.395930125044398"><ele>1378.0</ele><time>2026-04-24T10:28:29.999Z</time></trkpt><trkpt lat="31.40503789438438" lon="-7.395815785518122"><ele>1378.0</ele><time>2026-04-24T10:28:30.999Z</time></trkpt><trkpt lat="31.404891823147146" lon="-7.395705562309949"><ele>1378.0</ele><time>2026-04-24T10:28:31.999Z</time></trkpt><trkpt lat="31.404756193944248" lon="-7.395602503359526"><ele>1378.0</ele><time>2026-04-24T10:28:32.999Z</time></trkpt><trkpt lat="31.404628369842694" lon="-7.395509086613178"><ele>1378.0</ele><time>2026-04-24T10:28:33.999Z</time></trkpt><trkpt lat="31.404502870252095" lon="-7.395450414611711"><ele>1378.0</ele><time>2026-04-24T10:28:34.999Z</time></trkpt><trkpt lat="31.404363899485954" lon="-7.395452942577341"><ele>1376.0</ele><time>2026-04-24T10:28:35.999Z</time></trkpt><trkpt lat="31.404224238422106" lon="-7.395470031992314"><ele>1374.0</ele><time>2026-04-24T10:28:36.999Z</time></trkpt><trkpt lat="31.40407943942089" lon="-7.395512968718483"><ele>1372.0</ele><time>2026-04-24T10:28:37.999Z</time></trkpt><trkpt lat="31.403946510950735" lon="-7.395600897382533"><ele>1370.0</ele><time>2026-04-24T10:28:38.999Z</time></trkpt><trkpt lat="31.40383630220305" lon="-7.395721741539665"><ele>1371.3333333333335</ele><time>2026-04-24T10:28:39.999Z</time></trkpt><trkpt lat="31.403723996236955" lon="-7.39585222511332"><ele>1372.6666666666667</ele><time>2026-04-24T10:28:40.999Z</time></trkpt><trkpt lat="31.403615524422577" lon="-7.395985899926964"><ele>1374.0</ele><time>2026-04-24T10:28:41.999Z</time></trkpt><trkpt lat="31.40349590424646" lon="-7.396110840319173"><ele>1374.0</ele><time>2026-04-24T10:28:42.999Z</time></trkpt><trkpt lat="31.403354672949032" lon="-7.396201338547981"><ele>1374.0</ele><time>2026-04-24T10:28:43.999Z</time></trkpt><trkpt lat="31.4032056125037" lon="-7.396243552743592"><ele>1374.0</ele><time>2026-04-24T10:28:44.999Z</time></trkpt><trkpt lat="31.403053314116164" lon="-7.396236914665056"><ele>1373.6666666666667</ele><time>2026-04-24T10:28:45.999Z</time></trkpt><trkpt lat="31.40290134190497" lon="-7.396208285381595"><ele>1373.3333333333335</ele><time>2026-04-24T10:28:46.999Z</time></trkpt><trkpt lat="31.40275200867171" lon="-7.396144150433946"><ele>1373.0</ele><time>2026-04-24T10:28:47.999Z</time></trkpt><trkpt lat="31.402611387838483" lon="-7.396059438211221"><ele>1373.0</ele><time>2026-04-24T10:28:49Z</time></trkpt><trkpt lat="31.402453614353718" lon="-7.395985749005512"><ele>1373.0</ele><time>2026-04-24T10:28:50Z</time></trkpt><trkpt lat="31.402286334128377" lon="-7.395892067588384"><ele>1373.0</ele><time>2026-04-24T10:28:51Z</time></trkpt><trkpt lat="31.402110359687413" lon="-7.3957937064651915"><ele>1378.3333333333335</ele><time>2026-04-24T10:28:52Z</time></trkpt><trkpt lat="31.40194049504552" lon="-7.3956989012895"><ele>1383.6666666666667</ele><time>2026-04-24T10:28:53Z</time></trkpt><trkpt lat="31.40179345822078" lon="-7.395616502256201"><ele>1389.0</ele><time>2026-04-24T10:28:54Z</time></trkpt><trkpt lat="31.401672450401577" lon="-7.395549204551687"><ele>1388.0</ele><time>2026-04-24T10:28:55Z</time></trkpt><trkpt lat="31.401574812367368" lon="-7.395494648994708"><ele>1387.0</ele><time>2026-04-24T10:28:56Z</time></trkpt><trkpt lat="31.401482472670292" lon="-7.395427888142156"><ele>1386.0</ele><time>2026-04-24T10:28:57Z</time></trkpt><trkpt lat="31.401374475350984" lon="-7.395375876279102"><ele>1385.0</ele><time>2026-04-24T10:28:58Z</time></trkpt><trkpt lat="31.401262602437292" lon="-7.395313419789504"><ele>1385.0</ele><time>2026-04-24T10:28:59Z</time></trkpt><trkpt lat="31.401143137681146" lon="-7.3952626124315355"><ele>1385.0</ele><time>2026-04-24T10:29:00Z</time></trkpt><trkpt lat="31.401015368627146" lon="-7.39523977563883"><ele>1385.0</ele><time>2026-04-24T10:29:01Z</time></trkpt><trkpt lat="31.400886265534535" lon="-7.395242520910717"><ele>1385.0</ele><time>2026-04-24T10:29:02Z</time></trkpt><trkpt lat="31.40076337541575" lon="-7.395267400763324"><ele>1385.0</ele><time>2026-04-24T10:29:03Z</time></trkpt><trkpt lat="31.40065001757882" lon="-7.395328209413128"><ele>1385.0</ele><time>2026-04-24T10:29:04Z</time></trkpt><trkpt lat="31.400545295875308" lon="-7.39541917014775"><ele>1385.0</ele><time>2026-04-24T10:29:05Z</time></trkpt><trkpt lat="31.400447321985837" lon="-7.395536524810132"><ele>1385.0</ele><time>2026-04-24T10:29:06Z</time></trkpt><trkpt lat="31.400347227467233" lon="-7.395660212859994"><ele>1387.75</ele><time>2026-04-24T10:29:07Z</time></trkpt><trkpt lat="31.400241937740308" lon="-7.395778145018447"><ele>1390.5</ele><time>2026-04-24T10:29:08Z</time></trkpt><trkpt lat="31.40013433627384" lon="-7.395897233247902"><ele>1393.25</ele><time>2026-04-24T10:29:09Z</time></trkpt><trkpt lat="31.40002616458593" lon="-7.396016735781333"><ele>1396.0</ele><time>2026-04-24T10:29:10Z</time></trkpt><trkpt lat="31.399915034046675" lon="-7.396139674567519"><ele>1396.0</ele><time>2026-04-24T10:29:11Z</time></trkpt><trkpt lat="31.399798822026458" lon="-7.396272237844413"><ele>1396.0</ele><time>2026-04-24T10:29:12Z</time></trkpt><trkpt lat="31.399678392825695" lon="-7.396407866334591"><ele>1396.0</ele><time>2026-04-24T10:29:13Z</time></trkpt><trkpt lat="31.399554973074945" lon="-7.396541092126979"><ele>1398.0</ele><time>2026-04-24T10:29:14Z</time></trkpt><trkpt lat="31.39943123329923" lon="-7.396677195412072"><ele>1400.0</ele><time>2026-04-24T10:29:15Z</time></trkpt><trkpt lat="31.39930605216227" lon="-7.396816824911919"><ele>1402.0</ele><time>2026-04-24T10:29:16Z</time></trkpt><trkpt lat="31.399178154453956" lon="-7.396963707102658"><ele>1402.0</ele><time>2026-04-24T10:29:17Z</time></trkpt><trkpt lat="31.399048226954314" lon="-7.397112236100416"><ele>1402.0</ele><time>2026-04-24T10:29:18Z</time></trkpt><trkpt lat="31.398919345351416" lon="-7.397257078776374"><ele>1402.0</ele><time>2026-04-24T10:29:19Z</time></trkpt><trkpt lat="31.39879500965876" lon="-7.397394285166102"><ele>1400.6666666666665</ele><time>2026-04-24T10:29:20Z</time></trkpt><trkpt lat="31.398679735948896" lon="-7.397522556311567"><ele>1399.3333333333333</ele><time>2026-04-24T10:29:21Z</time></trkpt><trkpt lat="31.398572808580735" lon="-7.397643737456641"><ele>1398.0</ele><time>2026-04-24T10:29:22Z</time></trkpt><trkpt lat="31.398465529958003" lon="-7.3977597072200325"><ele>1398.0</ele><time>2026-04-24T10:29:23Z</time></trkpt><trkpt lat="31.39835169531486" lon="-7.397862193551701"><ele>1398.0</ele><time>2026-04-24T10:29:24Z</time></trkpt><trkpt lat="31.398227656394152" lon="-7.39794284655444"><ele>1398.0</ele><time>2026-04-24T10:29:25Z</time></trkpt><trkpt lat="31.398097707138238" lon="-7.397999388255018"><ele>1398.0</ele><time>2026-04-24T10:29:26Z</time></trkpt><trkpt lat="31.39796564375328" lon="-7.398031691348273"><ele>1395.5</ele><time>2026-04-24T10:29:27Z</time></trkpt><trkpt lat="31.3978331539679" lon="-7.398043560496809"><ele>1393.0</ele><time>2026-04-24T10:29:28Z</time></trkpt><trkpt lat="31.39770043381573" lon="-7.398030696705821"><ele>1390.5</ele><time>2026-04-24T10:29:29Z</time></trkpt><trkpt lat="31.397571244373612" lon="-7.398006910806108"><ele>1388.0</ele><time>2026-04-24T10:29:30Z</time></trkpt><trkpt lat="31.397442027185605" lon="-7.397981151597485"><ele>1388.0</ele><time>2026-04-24T10:29:31Z</time></trkpt><trkpt lat="31.397308911971955" lon="-7.3979671578560575"><ele>1388.0</ele><time>2026-04-24T10:29:32Z</time></trkpt><trkpt lat="31.397181561761965" lon="-7.397967155142724"><ele>1388.0</ele><time>2026-04-24T10:29:33Z</time></trkpt><trkpt lat="31.397057334520458" lon="-7.397981877984821"><ele>1388.0</ele><time>2026-04-24T10:29:34Z</time></trkpt><trkpt lat="31.39693511411978" lon="-7.398019257318744"><ele>1394.0</ele><time>2026-04-24T10:29:35Z</time></trkpt><trkpt lat="31.396816370096847" lon="-7.398074203870316"><ele>1400.0</ele><time>2026-04-24T10:29:36Z</time></trkpt><trkpt lat="31.39669557895267" lon="-7.39812760502762"><ele>1406.0</ele><time>2026-04-24T10:29:37Z</time></trkpt><trkpt lat="31.396575054888345" lon="-7.3981755469328725"><ele>1412.0</ele><time>2026-04-24T10:29:38Z</time></trkpt><trkpt lat="31.396458960943157" lon="-7.398225256637977"><ele>1412.0</ele><time>2026-04-24T10:29:39Z</time></trkpt><trkpt lat="31.39634732208431" lon="-7.398285375154073"><ele>1412.0</ele><time>2026-04-24T10:29:40Z</time></trkpt><trkpt lat="31.396243090901148" lon="-7.39836817979166"><ele>1412.0</ele><time>2026-04-24T10:29:41Z</time></trkpt><trkpt lat="31.39615067009079" lon="-7.398478961062333"><ele>1412.0</ele><time>2026-04-24T10:29:42Z</time></trkpt><trkpt lat="31.396070201224028" lon="-7.398613279013745"><ele>1409.25</ele><time>2026-04-24T10:29:43Z</time></trkpt><trkpt lat="31.39599976166987" lon="-7.39876243041364"><ele>1406.5</ele><time>2026-04-24T10:29:44Z</time></trkpt><trkpt lat="31.39592969339191" lon="-7.398917419225964"><ele>1403.75</ele><time>2026-04-24T10:29:45Z</time></trkpt><trkpt lat="31.395859574607194" lon="-7.399073653571316"><ele>1401.0</ele><time>2026-04-24T10:29:46Z</time></trkpt><trkpt lat="31.39578955166888" lon="-7.3992315802147415"><ele>1401.0</ele><time>2026-04-24T10:29:47Z</time></trkpt><trkpt lat="31.39571624571897" lon="-7.399385625094324"><ele>1401.0</ele><time>2026-04-24T10:29:48Z</time></trkpt><trkpt lat="31.39564197734279" lon="-7.3995367578675735"><ele>1401.0</ele><time>2026-04-24T10:29:49Z</time></trkpt><trkpt lat="31.395567638820072" lon="-7.39968044642025"><ele>1401.0</ele><time>2026-04-24T10:29:50Z</time></trkpt><trkpt lat="31.395487406081045" lon="-7.399811573057311"><ele>1401.5</ele><time>2026-04-24T10:29:51Z</time></trkpt><trkpt lat="31.39539460407849" lon="-7.399923121224008"><ele>1402.0</ele><time>2026-04-24T10:29:52Z</time></trkpt><trkpt lat="31.39528917425869" lon="-7.400016241962097"><ele>1402.5</ele><time>2026-04-24T10:29:53Z</time></trkpt><trkpt lat="31.39517172392197" lon="-7.400092082736412"><ele>1403.0</ele><time>2026-04-24T10:29:54Z</time></trkpt><trkpt lat="31.395046242349473" lon="-7.4001501985548765"><ele>1403.0</ele><time>2026-04-24T10:29:55Z</time></trkpt><trkpt lat="31.394916282977256" lon="-7.40019771360119"><ele>1403.0</ele><time>2026-04-24T10:29:56Z</time></trkpt><trkpt lat="31.394782455711177" lon="-7.4002326362117605"><ele>1403.0</ele><time>2026-04-24T10:29:57Z</time></trkpt><trkpt lat="31.394649622072876" lon="-7.400270367449829"><ele>1403.0</ele><time>2026-04-24T10:29:58Z</time></trkpt><trkpt lat="31.39452193845174" lon="-7.400321769646293"><ele>1402.5</ele><time>2026-04-24T10:29:59Z</time></trkpt><trkpt lat="31.39439984838972" lon="-7.40038645774592"><ele>1402.0</ele><time>2026-04-24T10:30:00Z</time></trkpt><trkpt lat="31.39427963024103" lon="-7.400470388462323"><ele>1401.5</ele><time>2026-04-24T10:30:01Z</time></trkpt><trkpt lat="31.394160709423517" lon="-7.400578669045293"><ele>1401.0</ele><time>2026-04-24T10:30:02Z</time></trkpt><trkpt lat="31.39403852809133" lon="-7.400702948619302"><ele>1400.0</ele><time>2026-04-24T10:30:03Z</time></trkpt><trkpt lat="31.393903848236956" lon="-7.400838745348887"><ele>1399.0</ele><time>2026-04-24T10:30:04Z</time></trkpt><trkpt lat="31.39375364386809" lon="-7.400975267976965"><ele>1398.0</ele><time>2026-04-24T10:30:05Z</time></trkpt><trkpt lat="31.39359451146081" lon="-7.401096380547272"><ele>1398.0</ele><time>2026-04-24T10:30:05.999Z</time></trkpt><trkpt lat="31.39343069928669" lon="-7.40120458702081"><ele>1398.0</ele><time>2026-04-24T10:30:06.999Z</time></trkpt><trkpt lat="31.393274845017388" lon="-7.401298306728099"><ele>1398.0</ele><time>2026-04-24T10:30:07.999Z</time></trkpt><trkpt lat="31.39313699078438" lon="-7.401380509571751"><ele>1398.5</ele><time>2026-04-24T10:30:08.999Z</time></trkpt><trkpt lat="31.393016045154695" lon="-7.401453311703619"><ele>1399.0</ele><time>2026-04-24T10:30:09.999Z</time></trkpt><trkpt lat="31.39291517288437" lon="-7.401524004542032"><ele>1399.5</ele><time>2026-04-24T10:30:10.999Z</time></trkpt><trkpt lat="31.39283396608942" lon="-7.401607672100581"><ele>1400.0</ele><time>2026-04-24T10:30:11.999Z</time></trkpt><trkpt lat="31.392767017452716" lon="-7.401712292068769"><ele>1400.0</ele><time>2026-04-24T10:30:12.999Z</time></trkpt><trkpt lat="31.3927117682356" lon="-7.4018248544894325"><ele>1400.0</ele><time>2026-04-24T10:30:13.999Z</time></trkpt><trkpt lat="31.392673168987454" lon="-7.401952149623119"><ele>1400.0</ele><time>2026-04-24T10:30:14.999Z</time></trkpt><trkpt lat="31.39265435251069" lon="-7.402090791446735"><ele>1400.0</ele><time>2026-04-24T10:30:15.999Z</time></trkpt><trkpt lat="31.392650797376568" lon="-7.402241239662096"><ele>1400.0</ele><time>2026-04-24T10:30:16.999Z</time></trkpt><trkpt lat="31.392668788449797" lon="-7.4024100143560725"><ele>1400.0</ele><time>2026-04-24T10:30:17.999Z</time></trkpt><trkpt lat="31.392707587533835" lon="-7.402600176971219"><ele>1400.0</ele><time>2026-04-24T10:30:18.999Z</time></trkpt><trkpt lat="31.392756853244848" lon="-7.402808145921082"><ele>1401.0</ele><time>2026-04-24T10:30:19.999Z</time></trkpt><trkpt lat="31.392811406394447" lon="-7.403017770361546"><ele>1402.0</ele><time>2026-04-24T10:30:20.999Z</time></trkpt><trkpt lat="31.39286684620622" lon="-7.403214716341394"><ele>1403.0</ele><time>2026-04-24T10:30:21.999Z</time></trkpt><trkpt lat="31.392916359910362" lon="-7.403391783553888"><ele>1403.0</ele><time>2026-04-24T10:30:22.999Z</time></trkpt><trkpt lat="31.39295738418358" lon="-7.403554290327741"><ele>1403.0</ele><time>2026-04-24T10:30:23.999Z</time></trkpt><trkpt lat="31.392985008537167" lon="-7.403710425221212"><ele>1403.0</ele><time>2026-04-24T10:30:24.999Z</time></trkpt><trkpt lat="31.392991474770458" lon="-7.403863309613955"><ele>1403.0</ele><time>2026-04-24T10:30:25.999Z</time></trkpt><trkpt lat="31.392977046158503" lon="-7.404014945820521"><ele>1404.0</ele><time>2026-04-24T10:30:26.999Z</time></trkpt><trkpt lat="31.39293373535756" lon="-7.404157000332389"><ele>1405.0</ele><time>2026-04-24T10:30:27.999Z</time></trkpt><trkpt lat="31.392871804791504" lon="-7.404287273327047"><ele>1406.0</ele><time>2026-04-24T10:30:28.999Z</time></trkpt><trkpt lat="31.39279878198184" lon="-7.4044046791392715"><ele>1407.0</ele><time>2026-04-24T10:30:29.999Z</time></trkpt><trkpt lat="31.39271171661081" lon="-7.404507063272604"><ele>1407.0</ele><time>2026-04-24T10:30:30.999Z</time></trkpt><trkpt lat="31.39261475698529" lon="-7.404591288459933"><ele>1407.0</ele><time>2026-04-24T10:30:31.999Z</time></trkpt><trkpt lat="31.392510372279443" lon="-7.404657967611931"><ele>1407.0</ele><time>2026-04-24T10:30:32.999Z</time></trkpt><trkpt lat="31.39240093021194" lon="-7.404711458991064"><ele>1407.0</ele><time>2026-04-24T10:30:33.999Z</time></trkpt><trkpt lat="31.392292471647252" lon="-7.404756483630167"><ele>1410.6</ele><time>2026-04-24T10:30:34.999Z</time></trkpt><trkpt lat="31.392193043623504" lon="-7.404788353363843"><ele>1414.1999999999998</ele><time>2026-04-24T10:30:35.999Z</time></trkpt><trkpt lat="31.39210480195411" lon="-7.40479993287599"><ele>1417.8</ele><time>2026-04-24T10:30:36.999Z</time></trkpt><trkpt lat="31.392012715701785" lon="-7.404792078840581"><ele>1421.4</ele><time>2026-04-24T10:30:37.999Z</time></trkpt><trkpt lat="31.391923781034244" lon="-7.404766468007797"><ele>1425.0</ele><time>2026-04-24T10:30:38.999Z</time></trkpt><trkpt lat="31.391837135093517" lon="-7.404729532045548"><ele>1425.0</ele><time>2026-04-24T10:30:39.999Z</time></trkpt><trkpt lat="31.391748056142298" lon="-7.4046779464458945"><ele>1425.0</ele><time>2026-04-24T10:30:40.999Z</time></trkpt><trkpt lat="31.391659480753578" lon="-7.404639851750331"><ele>1425.0</ele><time>2026-04-24T10:30:41.999Z</time></trkpt><trkpt lat="31.391578266304045" lon="-7.4046149300379795"><ele>1425.0</ele><time>2026-04-24T10:30:42.999Z</time></trkpt><trkpt lat="31.391512680428885" lon="-7.404620836318667"><ele>1425.0</ele><time>2026-04-24T10:30:43.999Z</time></trkpt><trkpt lat="31.39145307022274" lon="-7.404656224868969"><ele>1425.0</ele><time>2026-04-24T10:30:44.999Z</time></trkpt><trkpt lat="31.391405802821577" lon="-7.404722315573762"><ele>1425.0</ele><time>2026-04-24T10:30:45.999Z</time></trkpt><trkpt lat="31.391362074433694" lon="-7.404804857348047"><ele>1425.0</ele><time>2026-04-24T10:30:46.999Z</time></trkpt><trkpt lat="31.391323328655858" lon="-7.404910842767581"><ele>1425.0</ele><time>2026-04-24T10:30:47.999Z</time></trkpt><trkpt lat="31.391287099771997" lon="-7.40503298997137"><ele>1425.0</ele><time>2026-04-24T10:30:48.999Z</time></trkpt><trkpt lat="31.391257336391355" lon="-7.405162442594479"><ele>1425.0</ele><time>2026-04-24T10:30:49.999Z</time></trkpt><trkpt lat="31.391239961768772" lon="-7.405293195993983"><ele>1422.5</ele><time>2026-04-24T10:30:50.999Z</time></trkpt><trkpt lat="31.391236396619203" lon="-7.405422436556135"><ele>1420.0</ele><time>2026-04-24T10:30:51.999Z</time></trkpt><trkpt lat="31.391231326069175" lon="-7.405555573006367"><ele>1417.5</ele><time>2026-04-24T10:30:52.999Z</time></trkpt><trkpt lat="31.391212998655643" lon="-7.405685368255468"><ele>1415.0</ele><time>2026-04-24T10:30:53.999Z</time></trkpt><trkpt lat="31.391192436003642" lon="-7.40581660273804"><ele>1415.0</ele><time>2026-04-24T10:30:55Z</time></trkpt><trkpt lat="31.391159036290908" lon="-7.405952142750744"><ele>1415.0</ele><time>2026-04-24T10:30:56Z</time></trkpt><trkpt lat="31.391112418979063" lon="-7.406095089298093"><ele>1415.0</ele><time>2026-04-24T10:30:57Z</time></trkpt><trkpt lat="31.391049087167065" lon="-7.406243913222235"><ele>1415.0</ele><time>2026-04-24T10:30:58Z</time></trkpt><trkpt lat="31.39098135113226" lon="-7.4063936251265545"><ele>1422.3333333333335</ele><time>2026-04-24T10:30:59Z</time></trkpt><trkpt lat="31.390916594019135" lon="-7.406552193178853"><ele>1429.6666666666667</ele><time>2026-04-24T10:31:00Z</time></trkpt><trkpt lat="31.390853088901103" lon="-7.406716743678395"><ele>1437.0</ele><time>2026-04-24T10:31:01Z</time></trkpt><trkpt lat="31.39078401882985" lon="-7.406893849424502"><ele>1437.0</ele><time>2026-04-24T10:31:02Z</time></trkpt><trkpt lat="31.390714097264986" lon="-7.407075283355321"><ele>1437.0</ele><time>2026-04-24T10:31:03Z</time></trkpt><trkpt lat="31.390639751056217" lon="-7.4072561306343605"><ele>1437.0</ele><time>2026-04-24T10:31:04Z</time></trkpt><trkpt lat="31.390564732953266" lon="-7.407430241587789"><ele>1429.3333333333333</ele><time>2026-04-24T10:31:05Z</time></trkpt><trkpt lat="31.390498800116802" lon="-7.4075947897606955"><ele>1421.6666666666665</ele><time>2026-04-24T10:31:06Z</time></trkpt><trkpt lat="31.390422633460176" lon="-7.407752651255052"><ele>1414.0</ele><time>2026-04-24T10:31:07Z</time></trkpt><trkpt lat="31.390324932592286" lon="-7.407894901030788"><ele>1417.3333333333333</ele><time>2026-04-24T10:31:08Z</time></trkpt><trkpt lat="31.39020819637334" lon="-7.4080147503005485"><ele>1420.6666666666667</ele><time>2026-04-24T10:31:09Z</time></trkpt><trkpt lat="31.390080485579475" lon="-7.408121057418938"><ele>1424.0</ele><time>2026-04-24T10:31:10Z</time></trkpt><trkpt lat="31.389951592027504" lon="-7.408231285796911"><ele>1424.0</ele><time>2026-04-24T10:31:11Z</time></trkpt><trkpt lat="31.389827869971597" lon="-7.4083602991715605"><ele>1424.0</ele><time>2026-04-24T10:31:12Z</time></trkpt><trkpt lat="31.389707666941312" lon="-7.4085016934508445"><ele>1424.0</ele><time>2026-04-24T10:31:13Z</time></trkpt><trkpt lat="31.389593921171176" lon="-7.408655472897589"><ele>1424.3333333333335</ele><time>2026-04-24T10:31:14Z</time></trkpt><trkpt lat="31.389489202751832" lon="-7.408817867372483"><ele>1424.6666666666667</ele><time>2026-04-24T10:31:15Z</time></trkpt><trkpt lat="31.38939433267233" lon="-7.408981917006234"><ele>1425.0</ele><time>2026-04-24T10:31:16Z</time></trkpt><trkpt lat="31.3893050670062" lon="-7.409132987536197"><ele>1425.0</ele><time>2026-04-24T10:31:17Z</time></trkpt><trkpt lat="31.389211057547453" lon="-7.4092689130897815"><ele>1425.0</ele><time>2026-04-24T10:31:18Z</time></trkpt><trkpt lat="31.389109798227825" lon="-7.409376019900251"><ele>1425.0</ele><time>2026-04-24T10:31:19Z</time></trkpt><trkpt lat="31.38899917208429" lon="-7.409456295666212"><ele>1425.0</ele><time>2026-04-24T10:31:20Z</time></trkpt><trkpt lat="31.38887599215346" lon="-7.409511889977254"><ele>1425.75</ele><time>2026-04-24T10:31:21Z</time></trkpt><trkpt lat="31.38874746235683" lon="-7.409537142691236"><ele>1426.5</ele><time>2026-04-24T10:31:22Z</time></trkpt><trkpt lat="31.388619024173448" lon="-7.409532154516646"><ele>1427.25</ele><time>2026-04-24T10:31:23Z</time></trkpt><trkpt lat="31.388495100931667" lon="-7.409490148376257"><ele>1428.0</ele><time>2026-04-24T10:31:24Z</time></trkpt><trkpt lat="31.388373365028354" lon="-7.409426967356825"><ele>1428.0</ele><time>2026-04-24T10:31:25Z</time></trkpt><trkpt lat="31.38825576483637" lon="-7.409336828580996"><ele>1428.0</ele><time>2026-04-24T10:31:26Z</time></trkpt><trkpt lat="31.388145455114547" lon="-7.4092295085570905"><ele>1428.0</ele><time>2026-04-24T10:31:27Z</time></trkpt><trkpt lat="31.388042745256016" lon="-7.409109996487302"><ele>1428.0</ele><time>2026-04-24T10:31:28Z</time></trkpt><trkpt lat="31.387939370423975" lon="-7.408993667017174"><ele>1427.5</ele><time>2026-04-24T10:31:29Z</time></trkpt><trkpt lat="31.38782174126791" lon="-7.408900833074396"><ele>1427.0</ele><time>2026-04-24T10:31:30Z</time></trkpt><trkpt lat="31.38769068731348" lon="-7.408834793943065"><ele>1426.5</ele><time>2026-04-24T10:31:31Z</time></trkpt><trkpt lat="31.387547491695557" lon="-7.408805208481942"><ele>1426.0</ele><time>2026-04-24T10:31:32Z</time></trkpt><trkpt lat="31.38740637838485" lon="-7.40880995690365"><ele>1428.6666666666665</ele><time>2026-04-24T10:31:33Z</time></trkpt><trkpt lat="31.387265356767532" lon="-7.408849800774095"><ele>1431.3333333333333</ele><time>2026-04-24T10:31:34Z</time></trkpt><trkpt lat="31.387127894971748" lon="-7.408930175791822"><ele>1434.0</ele><time>2026-04-24T10:31:35Z</time></trkpt><trkpt lat="31.386996740105367" lon="-7.409039421639135"><ele>1434.0</ele><time>2026-04-24T10:31:36Z</time></trkpt><trkpt lat="31.38687530365033" lon="-7.409162385965549"><ele>1434.0</ele><time>2026-04-24T10:31:37Z</time></trkpt><trkpt lat="31.386758539073508" lon="-7.409277308513598"><ele>1434.0</ele><time>2026-04-24T10:31:38Z</time></trkpt><trkpt lat="31.38663578859212" lon="-7.409362290897642"><ele>1434.0</ele><time>2026-04-24T10:31:39Z</time></trkpt><trkpt lat="31.386501755592793" lon="-7.409421211580563"><ele>1434.0</ele><time>2026-04-24T10:31:40Z</time></trkpt><trkpt lat="31.38636317038812" lon="-7.409448566834976"><ele>1434.0</ele><time>2026-04-24T10:31:41Z</time></trkpt><trkpt lat="31.38621844389084" lon="-7.409446769200227"><ele>1434.0</ele><time>2026-04-24T10:31:42Z</time></trkpt><trkpt lat="31.386064184672147" lon="-7.409412829201667"><ele>1432.3333333333333</ele><time>2026-04-24T10:31:43Z</time></trkpt><trkpt lat="31.38590422631279" lon="-7.409339687373324"><ele>1430.6666666666665</ele><time>2026-04-24T10:31:44Z</time></trkpt><trkpt lat="31.385739254746778" lon="-7.409255479047918"><ele>1429.0</ele><time>2026-04-24T10:31:45Z</time></trkpt><trkpt lat="31.38557134978925" lon="-7.409176121192691"><ele>1435.0</ele><time>2026-04-24T10:31:46Z</time></trkpt><trkpt lat="31.385404373305953" lon="-7.409102392056698"><ele>1441.0</ele><time>2026-04-24T10:31:47Z</time></trkpt><trkpt lat="31.385245780668377" lon="-7.409029704634436"><ele>1447.0</ele><time>2026-04-24T10:31:48Z</time></trkpt><trkpt lat="31.385092676752187" lon="-7.408981090288245"><ele>1447.0</ele><time>2026-04-24T10:31:49Z</time></trkpt><trkpt lat="31.384932194974052" lon="-7.408987913010503"><ele>1447.0</ele><time>2026-04-24T10:31:50Z</time></trkpt><trkpt lat="31.38476655524712" lon="-7.409039524617101"><ele>1447.0</ele><time>2026-04-24T10:31:51Z</time></trkpt><trkpt lat="31.384603521711124" lon="-7.409125597556174"><ele>1443.6666666666665</ele><time>2026-04-24T10:31:52Z</time></trkpt><trkpt lat="31.384440339752746" lon="-7.409224141324744"><ele>1440.3333333333333</ele><time>2026-04-24T10:31:53Z</time></trkpt><trkpt lat="31.384272539301342" lon="-7.409319769720843"><ele>1437.0</ele><time>2026-04-24T10:31:54Z</time></trkpt><trkpt lat="31.384106555367477" lon="-7.409406094179544"><ele>1437.0</ele><time>2026-04-24T10:31:55Z</time></trkpt><trkpt lat="31.383940927735512" lon="-7.409489310861124"><ele>1437.0</ele><time>2026-04-24T10:31:56Z</time></trkpt><trkpt lat="31.383777142634933" lon="-7.409557755723428"><ele>1437.0</ele><time>2026-04-24T10:31:57Z</time></trkpt><trkpt lat="31.383611543181743" lon="-7.4096053163736295"><ele>1438.0</ele><time>2026-04-24T10:31:58Z</time></trkpt><trkpt lat="31.38344115935694" lon="-7.4096281860869695"><ele>1439.0</ele><time>2026-04-24T10:31:59Z</time></trkpt><trkpt lat="31.383263121908602" lon="-7.409615955607534"><ele>1440.0</ele><time>2026-04-24T10:32:00Z</time></trkpt><trkpt lat="31.38308326588194" lon="-7.409579543180353"><ele>1445.0</ele><time>2026-04-24T10:32:01Z</time></trkpt><trkpt lat="31.38290386009876" lon="-7.409511972903398"><ele>1450.0</ele><time>2026-04-24T10:32:02Z</time></trkpt><trkpt lat="31.38272790632631" lon="-7.409410424753123"><ele>1455.0</ele><time>2026-04-24T10:32:03Z</time></trkpt><trkpt lat="31.382566149845818" lon="-7.409287273087345"><ele>1455.0</ele><time>2026-04-24T10:32:04Z</time></trkpt><trkpt lat="31.382421861415427" lon="-7.4091341429139925"><ele>1455.0</ele><time>2026-04-24T10:32:05Z</time></trkpt><trkpt lat="31.382286311976397" lon="-7.408967427694549"><ele>1455.0</ele><time>2026-04-24T10:32:06Z</time></trkpt><trkpt lat="31.38214144828555" lon="-7.40881384411851"><ele>1453.6666666666667</ele><time>2026-04-24T10:32:06.999Z</time></trkpt><trkpt lat="31.381983705365858" lon="-7.408698172731462"><ele>1452.3333333333335</ele><time>2026-04-24T10:32:07.999Z</time></trkpt><trkpt lat="31.38180883592732" lon="-7.408630601149767"><ele>1451.0</ele><time>2026-04-24T10:32:08.999Z</time></trkpt><trkpt lat="31.381616119219814" lon="-7.408608479358884"><ele>1451.0</ele><time>2026-04-24T10:32:09.999Z</time></trkpt><trkpt lat="31.381415769267765" lon="-7.408598897086865"><ele>1451.0</ele><time>2026-04-24T10:32:10.999Z</time></trkpt><trkpt lat="31.381210868240025" lon="-7.408576064937057"><ele>1451.0</ele><time>2026-04-24T10:32:11.999Z</time></trkpt><trkpt lat="31.38100225702956" lon="-7.408534422204734"><ele>1453.0</ele><time>2026-04-24T10:32:12.999Z</time></trkpt><trkpt lat="31.380793192014426" lon="-7.408472986659946"><ele>1455.0</ele><time>2026-04-24T10:32:13.999Z</time></trkpt><trkpt lat="31.38059035482811" lon="-7.40838067249001"><ele>1457.0</ele><time>2026-04-24T10:32:14.999Z</time></trkpt><trkpt lat="31.380402732752803" lon="-7.408277868288583"><ele>1463.0</ele><time>2026-04-24T10:32:15.999Z</time></trkpt><trkpt lat="31.380222203799406" lon="-7.408183742796439"><ele>1469.0</ele><time>2026-04-24T10:32:16.999Z</time></trkpt><trkpt lat="31.38005101953438" lon="-7.408097846963884"><ele>1475.0</ele><time>2026-04-24T10:32:17.999Z</time></trkpt><trkpt lat="31.379892510711695" lon="-7.408020238182469"><ele>1467.6666666666667</ele><time>2026-04-24T10:32:18.999Z</time></trkpt><trkpt lat="31.37973953118321" lon="-7.407960892247768"><ele>1460.3333333333333</ele><time>2026-04-24T10:32:19.999Z</time></trkpt><trkpt lat="31.379581940872576" lon="-7.407947063532249"><ele>1453.0</ele><time>2026-04-24T10:32:20.999Z</time></trkpt><trkpt lat="31.379417361167146" lon="-7.407976359154613"><ele>1459.0</ele><time>2026-04-24T10:32:21.999Z</time></trkpt><trkpt lat="31.37924719244647" lon="-7.408041046476968"><ele>1465.0</ele><time>2026-04-24T10:32:22.999Z</time></trkpt><trkpt lat="31.379072867418717" lon="-7.408116201393678"><ele>1471.0</ele><time>2026-04-24T10:32:23.999Z</time></trkpt><trkpt lat="31.378888493545976" lon="-7.408186777954491"><ele>1466.6666666666665</ele><time>2026-04-24T10:32:24.999Z</time></trkpt><trkpt lat="31.378695602481976" lon="-7.408255454535699"><ele>1462.3333333333333</ele><time>2026-04-24T10:32:25.999Z</time></trkpt><trkpt lat="31.3785018442275" lon="-7.408325211227151"><ele>1458.0</ele><time>2026-04-24T10:32:26.999Z</time></trkpt><trkpt lat="31.378310731323047" lon="-7.408394158553754"><ele>1458.0</ele><time>2026-04-24T10:32:27.999Z</time></trkpt><trkpt lat="31.378118644613025" lon="-7.408469473065231"><ele>1458.0</ele><time>2026-04-24T10:32:28.999Z</time></trkpt><trkpt lat="31.377926954471878" lon="-7.408550993138093"><ele>1458.0</ele><time>2026-04-24T10:32:29.999Z</time></trkpt><trkpt lat="31.37773498847241" lon="-7.408646379067755"><ele>1458.3333333333333</ele><time>2026-04-24T10:32:30.999Z</time></trkpt><trkpt lat="31.3775506270692" lon="-7.408762995261709"><ele>1458.6666666666665</ele><time>2026-04-24T10:32:31.999Z</time></trkpt><trkpt lat="31.377375447389692" lon="-7.4089041179567845"><ele>1459.0</ele><time>2026-04-24T10:32:32.999Z</time></trkpt><trkpt lat="31.377212471609017" lon="-7.409065035423225"><ele>1458.0</ele><time>2026-04-24T10:32:33.999Z</time></trkpt><trkpt lat="31.377061182761633" lon="-7.4092422589385105"><ele>1457.0</ele><time>2026-04-24T10:32:34.999Z</time></trkpt><trkpt lat="31.376916887063526" lon="-7.409433073603029"><ele>1456.0</ele><time>2026-04-24T10:32:35.999Z</time></trkpt><trkpt lat="31.376773566493952" lon="-7.409626676534632"><ele>1456.6666666666665</ele><time>2026-04-24T10:32:36.999Z</time></trkpt><trkpt lat="31.376629516466146" lon="-7.409817665639027"><ele>1457.3333333333333</ele><time>2026-04-24T10:32:37.999Z</time></trkpt><trkpt lat="31.37648534025359" lon="-7.4100120538823235"><ele>1458.0</ele><time>2026-04-24T10:32:38.999Z</time></trkpt><trkpt lat="31.376343485765208" lon="-7.410211617045631"><ele>1458.0</ele><time>2026-04-24T10:32:39.999Z</time></trkpt><trkpt lat="31.376205530293007" lon="-7.410413463663772"><ele>1458.0</ele><time>2026-04-24T10:32:40.999Z</time></trkpt><trkpt lat="31.37606956094755" lon="-7.410616909085659"><ele>1458.0</ele><time>2026-04-24T10:32:41.999Z</time></trkpt><trkpt lat="31.375937848369183" lon="-7.410820840337105"><ele>1459.3333333333333</ele><time>2026-04-24T10:32:42.999Z</time></trkpt><trkpt lat="31.37580742706106" lon="-7.411020040650958"><ele>1460.6666666666665</ele><time>2026-04-24T10:32:43.999Z</time></trkpt><trkpt lat="31.375681413167605" lon="-7.411213924108961"><ele>1462.0</ele><time>2026-04-24T10:32:44.999Z</time></trkpt><trkpt lat="31.37556288606781" lon="-7.411399897735893"><ele>1462.3333333333333</ele><time>2026-04-24T10:32:45.999Z</time></trkpt><trkpt lat="31.375450084636352" lon="-7.411574510783411"><ele>1462.6666666666667</ele><time>2026-04-24T10:32:46.999Z</time></trkpt><trkpt lat="31.375345934130383" lon="-7.411736620427975"><ele>1463.0</ele><time>2026-04-24T10:32:47.999Z</time></trkpt><trkpt lat="31.37524808414825" lon="-7.411888232212012"><ele>1463.0</ele><time>2026-04-24T10:32:48.999Z</time></trkpt><trkpt lat="31.375158132935802" lon="-7.412024981679116"><ele>1463.0</ele><time>2026-04-24T10:32:49.999Z</time></trkpt><trkpt lat="31.37506950501894" lon="-7.412147009633813"><ele>1463.0</ele><time>2026-04-24T10:32:50.999Z</time></trkpt><trkpt lat="31.374964434204934" lon="-7.4122509249874415"><ele>1463.0</ele><time>2026-04-24T10:32:51.999Z</time></trkpt><trkpt lat="31.374844921301094" lon="-7.4123244672237805"><ele>1469.75</ele><time>2026-04-24T10:32:52.999Z</time></trkpt><trkpt lat="31.374718315403037" lon="-7.412371871138323"><ele>1476.5</ele><time>2026-04-24T10:32:53.999Z</time></trkpt><trkpt lat="31.374588816964394" lon="-7.412391698992132"><ele>1483.25</ele><time>2026-04-24T10:32:54.999Z</time></trkpt><trkpt lat="31.37446159350477" lon="-7.412383074195936"><ele>1490.0</ele><time>2026-04-24T10:32:55.999Z</time></trkpt><trkpt lat="31.3743319226536" lon="-7.41235413418192"><ele>1490.0</ele><time>2026-04-24T10:32:56.999Z</time></trkpt><trkpt lat="31.37418819700396" lon="-7.412314473855591"><ele>1490.0</ele><time>2026-04-24T10:32:57.999Z</time></trkpt><trkpt lat="31.37403202756188" lon="-7.412279879794123"><ele>1490.0</ele><time>2026-04-24T10:32:58.999Z</time></trkpt><trkpt lat="31.373861090816835" lon="-7.412244809632733"><ele>1488.3333333333335</ele><time>2026-04-24T10:33:00Z</time></trkpt><trkpt lat="31.37368373914244" lon="-7.41220724300964"><ele>1486.6666666666667</ele><time>2026-04-24T10:33:01Z</time></trkpt><trkpt lat="31.37350830305763" lon="-7.412169127606618"><ele>1485.0</ele><time>2026-04-24T10:33:02Z</time></trkpt><trkpt lat="31.373338475205518" lon="-7.412128863595756"><ele>1479.6666666666667</ele><time>2026-04-24T10:33:03Z</time></trkpt><trkpt lat="31.37317696470477" lon="-7.4120853769750354"><ele>1474.3333333333335</ele><time>2026-04-24T10:33:04Z</time></trkpt><trkpt lat="31.373029660158775" lon="-7.412032251703362"><ele>1469.0</ele><time>2026-04-24T10:33:05Z</time></trkpt><trkpt lat="31.37289467505586" lon="-7.411954446948216"><ele>1469.0</ele><time>2026-04-24T10:33:06Z</time></trkpt><trkpt lat="31.372778712144882" lon="-7.41184306259951"><ele>1469.0</ele><time>2026-04-24T10:33:07Z</time></trkpt><trkpt lat="31.37268711530835" lon="-7.411706554653036"><ele>1469.0</ele><time>2026-04-24T10:33:08Z</time></trkpt><trkpt lat="31.372625424425085" lon="-7.411551721630174"><ele>1469.0</ele><time>2026-04-24T10:33:09Z</time></trkpt><trkpt lat="31.37259487794619" lon="-7.41137861178838"><ele>1469.6666666666667</ele><time>2026-04-24T10:33:10Z</time></trkpt><trkpt lat="31.372587012748735" lon="-7.411198177080562"><ele>1470.3333333333333</ele><time>2026-04-24T10:33:11Z</time></trkpt><trkpt lat="31.37258753359832" lon="-7.411008684175047"><ele>1471.0</ele><time>2026-04-24T10:33:12Z</time></trkpt><trkpt lat="31.372581547453475" lon="-7.41081736167424"><ele>1471.0</ele><time>2026-04-24T10:33:13Z</time></trkpt><trkpt lat="31.372571663521583" lon="-7.4106303658682355"><ele>1471.0</ele><time>2026-04-24T10:33:14Z</time></trkpt><trkpt lat="31.372560578943414" lon="-7.410450706652858"><ele>1471.0</ele><time>2026-04-24T10:33:15Z</time></trkpt><trkpt lat="31.372548541872966" lon="-7.410282652396655"><ele>1471.25</ele><time>2026-04-24T10:33:16Z</time></trkpt><trkpt lat="31.37252239962322" lon="-7.4101309073036035"><ele>1471.5</ele><time>2026-04-24T10:33:17Z</time></trkpt><trkpt lat="31.372469260630986" lon="-7.409996924471924"><ele>1471.75</ele><time>2026-04-24T10:33:18Z</time></trkpt><trkpt lat="31.372388731647888" lon="-7.409872538702529"><ele>1472.0</ele><time>2026-04-24T10:33:19Z</time></trkpt><trkpt lat="31.37228956172775" lon="-7.409762060153475"><ele>1472.25</ele><time>2026-04-24T10:33:20Z</time></trkpt><trkpt lat="31.372173879491605" lon="-7.409675002699914"><ele>1472.5</ele><time>2026-04-24T10:33:21Z</time></trkpt><trkpt lat="31.372049743460007" lon="-7.409609033679856"><ele>1472.75</ele><time>2026-04-24T10:33:22Z</time></trkpt><trkpt lat="31.371922393435398" lon="-7.40955156307871"><ele>1473.0</ele><time>2026-04-24T10:33:23Z</time></trkpt><trkpt lat="31.371792873494595" lon="-7.409495788753216"><ele>1473.0</ele><time>2026-04-24T10:33:24Z</time></trkpt><trkpt lat="31.37166662296686" lon="-7.4094323437479535"><ele>1473.0</ele><time>2026-04-24T10:33:25Z</time></trkpt><trkpt lat="31.371554423246646" lon="-7.409346274451832"><ele>1473.0</ele><time>2026-04-24T10:33:26Z</time></trkpt><trkpt lat="31.371456209745407" lon="-7.40922867326986"><ele>1473.0</ele><time>2026-04-24T10:33:27Z</time></trkpt><trkpt lat="31.37136815484973" lon="-7.409083821529314"><ele>1477.0</ele><time>2026-04-24T10:33:28Z</time></trkpt><trkpt lat="31.371296854162328" lon="-7.408913281067837"><ele>1481.0</ele><time>2026-04-24T10:33:29Z</time></trkpt><trkpt lat="31.371237821640076" lon="-7.408728687903322"><ele>1485.0</ele><time>2026-04-24T10:33:30Z</time></trkpt><trkpt lat="31.371186138517295" lon="-7.408534152041124"><ele>1485.0</ele><time>2026-04-24T10:33:31Z</time></trkpt><trkpt lat="31.37113480052265" lon="-7.4083380944316035"><ele>1485.0</ele><time>2026-04-24T10:33:32Z</time></trkpt><trkpt lat="31.371085603656223" lon="-7.408144704795327"><ele>1485.0</ele><time>2026-04-24T10:33:33Z</time></trkpt><trkpt lat="31.371048519303688" lon="-7.407950665477863"><ele>1486.6666666666667</ele><time>2026-04-24T10:33:34Z</time></trkpt><trkpt lat="31.371042432323897" lon="-7.407750781202896"><ele>1488.3333333333335</ele><time>2026-04-24T10:33:35Z</time></trkpt><trkpt lat="31.371075635339405" lon="-7.407547778714185"><ele>1490.0</ele><time>2026-04-24T10:33:36Z</time></trkpt><trkpt lat="31.371156603323016" lon="-7.407347307449622"><ele>1491.6666666666667</ele><time>2026-04-24T10:33:37Z</time></trkpt><trkpt lat="31.371261593758174" lon="-7.407148747173559"><ele>1493.3333333333333</ele><time>2026-04-24T10:33:38Z</time></trkpt><trkpt lat="31.371350858082035" lon="-7.406948599558396"><ele>1495.0</ele><time>2026-04-24T10:33:39Z</time></trkpt><trkpt lat="31.371405558284575" lon="-7.406755793387372"><ele>1500.3333333333333</ele><time>2026-04-24T10:33:40Z</time></trkpt><trkpt lat="31.371411589332993" lon="-7.406567093254848"><ele>1505.6666666666667</ele><time>2026-04-24T10:33:41Z</time></trkpt><trkpt lat="31.37138032463746" lon="-7.406375694150187"><ele>1511.0</ele><time>2026-04-24T10:33:42Z</time></trkpt><trkpt lat="31.371315500205768" lon="-7.406184888556088"><ele>1511.0</ele><time>2026-04-24T10:33:43Z</time></trkpt><trkpt lat="31.371236813301188" lon="-7.405990047319058"><ele>1511.0</ele><time>2026-04-24T10:33:44Z</time></trkpt><trkpt lat="31.371165988214944" lon="-7.405782804093705"><ele>1511.0</ele><time>2026-04-24T10:33:45Z</time></trkpt><trkpt lat="31.37109449917769" lon="-7.405581632690057"><ele>1511.6666666666667</ele><time>2026-04-24T10:33:46Z</time></trkpt><trkpt lat="31.371027775340604" lon="-7.405389698325937"><ele>1512.3333333333333</ele><time>2026-04-24T10:33:47Z</time></trkpt><trkpt lat="31.370978059083143" lon="-7.405197213848599"><ele>1513.0</ele><time>2026-04-24T10:33:48Z</time></trkpt><trkpt lat="31.370957412615738" lon="-7.404998951950495"><ele>1513.0</ele><time>2026-04-24T10:33:49Z</time></trkpt><trkpt lat="31.370967808179927" lon="-7.404791600703813"><ele>1513.0</ele><time>2026-04-24T10:33:50Z</time></trkpt><trkpt lat="31.371017846153492" lon="-7.404585004581089"><ele>1513.0</ele><time>2026-04-24T10:33:51Z</time></trkpt><trkpt lat="31.371099392814084" lon="-7.404384449296927"><ele>1509.6666666666665</ele><time>2026-04-24T10:33:52Z</time></trkpt><trkpt lat="31.371190235019093" lon="-7.404188759766378"><ele>1506.3333333333333</ele><time>2026-04-24T10:33:53Z</time></trkpt><trkpt lat="31.371277038161146" lon="-7.403997520741055"><ele>1503.0</ele><time>2026-04-24T10:33:54Z</time></trkpt><trkpt lat="31.371361859922054" lon="-7.403808432524555"><ele>1503.0</ele><time>2026-04-24T10:33:55Z</time></trkpt><trkpt lat="31.371452530138143" lon="-7.403625855394044"><ele>1503.0</ele><time>2026-04-24T10:33:56Z</time></trkpt><trkpt lat="31.37155661133739" lon="-7.403459479234602"><ele>1503.0</ele><time>2026-04-24T10:33:57Z</time></trkpt><trkpt lat="31.371687463438075" lon="-7.4033099104711555"><ele>1503.0</ele><time>2026-04-24T10:33:58Z</time></trkpt><trkpt lat="31.371840240018333" lon="-7.403184193542659"><ele>1503.0</ele><time>2026-04-24T10:33:59Z</time></trkpt><trkpt lat="31.371998371846225" lon="-7.403098700142141"><ele>1503.0</ele><time>2026-04-24T10:34:00Z</time></trkpt><trkpt lat="31.37214917502995" lon="-7.403024137100216"><ele>1506.3333333333333</ele><time>2026-04-24T10:34:01Z</time></trkpt><trkpt lat="31.37227942934088" lon="-7.402923632939089"><ele>1509.6666666666665</ele><time>2026-04-24T10:34:02Z</time></trkpt><trkpt lat="31.37238378936371" lon="-7.402784432563154"><ele>1513.0</ele><time>2026-04-24T10:34:03Z</time></trkpt><trkpt lat="31.37245808961073" lon="-7.402617319726175"><ele>1513.0</ele><time>2026-04-24T10:34:04Z</time></trkpt><trkpt lat="31.372499145974054" lon="-7.402443816895588"><ele>1513.0</ele><time>2026-04-24T10:34:05Z</time></trkpt><trkpt lat="31.372499223314094" lon="-7.402256077381524"><ele>1513.0</ele><time>2026-04-24T10:34:06Z</time></trkpt><trkpt lat="31.372462224751878" lon="-7.402060694573226"><ele>1510.3333333333333</ele><time>2026-04-24T10:34:07Z</time></trkpt><trkpt lat="31.372396580467136" lon="-7.40186824301841"><ele>1507.6666666666667</ele><time>2026-04-24T10:34:08Z</time></trkpt><trkpt lat="31.372316909841473" lon="-7.401666177458681"><ele>1505.0</ele><time>2026-04-24T10:34:09Z</time></trkpt><trkpt lat="31.372236663852785" lon="-7.401451530137758"><ele>1514.3333333333335</ele><time>2026-04-24T10:34:10Z</time></trkpt><trkpt lat="31.37215948109164" lon="-7.401227800851568"><ele>1523.6666666666667</ele><time>2026-04-24T10:34:10.999Z</time></trkpt><trkpt lat="31.372081608616128" lon="-7.401000791026385"><ele>1533.0</ele><time>2026-04-24T10:34:11.999Z</time></trkpt><trkpt lat="31.372001582137077" lon="-7.400775456908635"><ele>1533.0</ele><time>2026-04-24T10:34:12.999Z</time></trkpt><trkpt lat="31.371920654715442" lon="-7.400553184804063"><ele>1533.0</ele><time>2026-04-24T10:34:13.999Z</time></trkpt><trkpt lat="31.37183985534633" lon="-7.400333028319405"><ele>1533.0</ele><time>2026-04-24T10:34:14.999Z</time></trkpt><trkpt lat="31.37176221333221" lon="-7.40011981355931"><ele>1527.0</ele><time>2026-04-24T10:34:15.999Z</time></trkpt><trkpt lat="31.371690263769295" lon="-7.399916314029115"><ele>1521.0</ele><time>2026-04-24T10:34:16.999Z</time></trkpt><trkpt lat="31.37163071218003" lon="-7.399716621169551"><ele>1515.0</ele><time>2026-04-24T10:34:17.999Z</time></trkpt><trkpt lat="31.37159208647279" lon="-7.39951840387101"><ele>1510.6666666666667</ele><time>2026-04-24T10:34:18.999Z</time></trkpt><trkpt lat="31.371575327973552" lon="-7.399330794280131"><ele>1506.3333333333335</ele><time>2026-04-24T10:34:19.999Z</time></trkpt><trkpt lat="31.37156335881378" lon="-7.399154043408406"><ele>1502.0</ele><time>2026-04-24T10:34:20.999Z</time></trkpt><trkpt lat="31.371530638028986" lon="-7.398989879592165"><ele>1502.0</ele><time>2026-04-24T10:34:21.999Z</time></trkpt><trkpt lat="31.371456452089426" lon="-7.3988369052175145"><ele>1502.0</ele><time>2026-04-24T10:34:22.999Z</time></trkpt><trkpt lat="31.371355573177222" lon="-7.398695563230715"><ele>1502.0</ele><time>2026-04-24T10:34:23.999Z</time></trkpt><trkpt lat="31.371221074244218" lon="-7.398568272947803"><ele>1507.3333333333335</ele><time>2026-04-24T10:34:24.999Z</time></trkpt><trkpt lat="31.371063636399846" lon="-7.398460682096908"><ele>1512.6666666666667</ele><time>2026-04-24T10:34:25.999Z</time></trkpt><trkpt lat="31.37089520623283" lon="-7.398368109242041"><ele>1518.0</ele><time>2026-04-24T10:34:26.999Z</time></trkpt><trkpt lat="31.370735565015345" lon="-7.3982786233596585"><ele>1518.0</ele><time>2026-04-24T10:34:27.999Z</time></trkpt><trkpt lat="31.37058898654043" lon="-7.39819163304404"><ele>1518.0</ele><time>2026-04-24T10:34:28.999Z</time></trkpt><trkpt lat="31.370450438829202" lon="-7.398092259966304"><ele>1518.0</ele><time>2026-04-24T10:34:29.999Z</time></trkpt><trkpt lat="31.37034109359487" lon="-7.397970407797968"><ele>1518.0</ele><time>2026-04-24T10:34:30.999Z</time></trkpt><trkpt lat="31.37025458879247" lon="-7.397826274108339"><ele>1518.0</ele><time>2026-04-24T10:34:31.999Z</time></trkpt><trkpt lat="31.37019883888841" lon="-7.397663515392331"><ele>1518.0</ele><time>2026-04-24T10:34:32.999Z</time></trkpt><trkpt lat="31.370173467323788" lon="-7.397486298765693"><ele>1518.0</ele><time>2026-04-24T10:34:33.999Z</time></trkpt><trkpt lat="31.3701825238028" lon="-7.3973016762522255"><ele>1518.0</ele><time>2026-04-24T10:34:34.999Z</time></trkpt><trkpt lat="31.37023019321099" lon="-7.397120313988621"><ele>1518.0</ele><time>2026-04-24T10:34:35.999Z</time></trkpt><trkpt lat="31.370317562022933" lon="-7.396951072844347"><ele>1515.0</ele><time>2026-04-24T10:34:36.999Z</time></trkpt><trkpt lat="31.370438287088337" lon="-7.3967958635014375"><ele>1512.0</ele><time>2026-04-24T10:34:37.999Z</time></trkpt><trkpt lat="31.370573219810492" lon="-7.39665228539191"><ele>1509.0</ele><time>2026-04-24T10:34:38.999Z</time></trkpt><trkpt lat="31.37070742752758" lon="-7.396507219917004"><ele>1509.0</ele><time>2026-04-24T10:34:39.999Z</time></trkpt><trkpt lat="31.370836022005868" lon="-7.396358822699381"><ele>1509.0</ele><time>2026-04-24T10:34:40.999Z</time></trkpt><trkpt lat="31.370951785049634" lon="-7.396204959662559"><ele>1509.0</ele><time>2026-04-24T10:34:41.999Z</time></trkpt><trkpt lat="31.371038094701806" lon="-7.396033516637145"><ele>1510.3333333333333</ele><time>2026-04-24T10:34:42.999Z</time></trkpt><trkpt lat="31.371085724489877" lon="-7.3958457625781735"><ele>1511.6666666666665</ele><time>2026-04-24T10:34:43.999Z</time></trkpt><trkpt lat="31.371084727736736" lon="-7.3956501862343496"><ele>1513.0</ele><time>2026-04-24T10:34:44.999Z</time></trkpt><trkpt lat="31.37104762824316" lon="-7.395462040037981"><ele>1513.0</ele><time>2026-04-24T10:34:45.999Z</time></trkpt><trkpt lat="31.370962707741462" lon="-7.395287710122249"><ele>1513.0</ele><time>2026-04-24T10:34:46.999Z</time></trkpt><trkpt lat="31.370854300140802" lon="-7.3951370108348256"><ele>1513.0</ele><time>2026-04-24T10:34:47.999Z</time></trkpt><trkpt lat="31.3707043034469" lon="-7.395010226520818"><ele>1513.0</ele><time>2026-04-24T10:34:48.999Z</time></trkpt><trkpt lat="31.370537397133422" lon="-7.394896199172198"><ele>1513.0</ele><time>2026-04-24T10:34:49.999Z</time></trkpt><trkpt lat="31.370365613998633" lon="-7.394769741372086"><ele>1513.0</ele><time>2026-04-24T10:34:50.999Z</time></trkpt><trkpt lat="31.37019085119803" lon="-7.3946346461889245"><ele>1514.3333333333333</ele><time>2026-04-24T10:34:51.999Z</time></trkpt><trkpt lat="31.370018307013005" lon="-7.394502919953072"><ele>1515.6666666666667</ele><time>2026-04-24T10:34:52.999Z</time></trkpt><trkpt lat="31.36985271600621" lon="-7.394375252449028"><ele>1517.0</ele><time>2026-04-24T10:34:53.999Z</time></trkpt><trkpt lat="31.369698020175974" lon="-7.3942514362435565"><ele>1527.0</ele><time>2026-04-24T10:34:54.999Z</time></trkpt><trkpt lat="31.369556890134735" lon="-7.394120423745257"><ele>1537.0</ele><time>2026-04-24T10:34:55.999Z</time></trkpt><trkpt lat="31.369435690444888" lon="-7.3939691330589365"><ele>1547.0</ele><time>2026-04-24T10:34:56.999Z</time></trkpt><trkpt lat="31.36935285978772" lon="-7.3937909112310045"><ele>1547.0</ele><time>2026-04-24T10:34:57.999Z</time></trkpt><trkpt lat="31.36930565444672" lon="-7.393598551459519"><ele>1547.0</ele><time>2026-04-24T10:34:58.999Z</time></trkpt><trkpt lat="31.369298622887282" lon="-7.393402406120481"><ele>1547.0</ele><time>2026-04-24T10:34:59.999Z</time></trkpt><trkpt lat="31.36932356432505" lon="-7.393208935264111"><ele>1547.0</ele><time>2026-04-24T10:35:00.999Z</time></trkpt><trkpt lat="31.369380636727996" lon="-7.393021588379751"><ele>1547.0</ele><time>2026-04-24T10:35:01.999Z</time></trkpt><trkpt lat="31.369484977235885" lon="-7.392844532930566"><ele>1547.0</ele><time>2026-04-24T10:35:02.999Z</time></trkpt><trkpt lat="31.369618962007763" lon="-7.392682479891832"><ele>1542.3333333333333</ele><time>2026-04-24T10:35:03.999Z</time></trkpt><trkpt lat="31.369784408368865" lon="-7.3925394390267405"><ele>1537.6666666666665</ele><time>2026-04-24T10:35:04.999Z</time></trkpt><trkpt lat="31.36996136131269" lon="-7.392409000224923"><ele>1533.0</ele><time>2026-04-24T10:35:06Z</time></trkpt><trkpt lat="31.370134870883003" lon="-7.392285298385863"><ele>1531.6666666666667</ele><time>2026-04-24T10:35:07Z</time></trkpt><trkpt lat="31.37029816727121" lon="-7.392160602380118"><ele>1530.3333333333335</ele><time>2026-04-24T10:35:08Z</time></trkpt><trkpt lat="31.37044107459536" lon="-7.392036383323053"><ele>1529.0</ele><time>2026-04-24T10:35:09Z</time></trkpt><trkpt lat="31.37054202774233" lon="-7.391891764529493"><ele>1529.0</ele><time>2026-04-24T10:35:10Z</time></trkpt><trkpt lat="31.370603921923017" lon="-7.391724821318445"><ele>1529.0</ele><time>2026-04-24T10:35:11Z</time></trkpt><trkpt lat="31.370635776460187" lon="-7.391544656751252"><ele>1529.0</ele><time>2026-04-24T10:35:12Z</time></trkpt><trkpt lat="31.37062758371218" lon="-7.391355122298141"><ele>1530.0</ele><time>2026-04-24T10:35:13Z</time></trkpt><trkpt lat="31.37057427988842" lon="-7.391156893455758"><ele>1531.0</ele><time>2026-04-24T10:35:14Z</time></trkpt><trkpt lat="31.37048298573758" lon="-7.390956872774933"><ele>1532.0</ele><time>2026-04-24T10:35:15Z</time></trkpt><trkpt lat="31.3703820603903" lon="-7.390744029078679"><ele>1547.6666666666667</ele><time>2026-04-24T10:35:16Z</time></trkpt><trkpt lat="31.37028817410872" lon="-7.390516182512805"><ele>1563.3333333333335</ele><time>2026-04-24T10:35:17Z</time></trkpt><trkpt lat="31.370193199335127" lon="-7.390276338897179"><ele>1579.0</ele><time>2026-04-24T10:35:18Z</time></trkpt><trkpt lat="31.37009918366511" lon="-7.39003316142554"><ele>1579.0</ele><time>2026-04-24T10:35:19Z</time></trkpt><trkpt lat="31.3700161076714" lon="-7.38979106311337"><ele>1579.0</ele><time>2026-04-24T10:35:20Z</time></trkpt><trkpt lat="31.369944121196504" lon="-7.389539201028319"><ele>1570.6666666666667</ele><time>2026-04-24T10:35:21Z</time></trkpt><trkpt lat="31.369883167493345" lon="-7.389298155320848"><ele>1562.3333333333335</ele><time>2026-04-24T10:35:22Z</time></trkpt><trkpt lat="31.369823785960715" lon="-7.389067207253649"><ele>1554.0</ele><time>2026-04-24T10:35:23Z</time></trkpt><trkpt lat="31.36976541230176" lon="-7.388849589590009"><ele>1555.6666666666665</ele><time>2026-04-24T10:35:24Z</time></trkpt><trkpt lat="31.36970985253507" lon="-7.388651516248032"><ele>1557.3333333333333</ele><time>2026-04-24T10:35:25Z</time></trkpt><trkpt lat="31.36965176796367" lon="-7.388475585071031"><ele>1559.0</ele><time>2026-04-24T10:35:26Z</time></trkpt><trkpt lat="31.369578843724835" lon="-7.388325141045455"><ele>1556.75</ele><time>2026-04-24T10:35:27Z</time></trkpt><trkpt lat="31.369478255604996" lon="-7.388195921955453"><ele>1554.5</ele><time>2026-04-24T10:35:28Z</time></trkpt><trkpt lat="31.369352178561076" lon="-7.38809830554819"><ele>1552.25</ele><time>2026-04-24T10:35:29Z</time></trkpt><trkpt lat="31.369215467643635" lon="-7.38803091676524"><ele>1550.0</ele><time>2026-04-24T10:35:30Z</time></trkpt><trkpt lat="31.369069599985245" lon="-7.388007303758475"><ele>1553.0</ele><time>2026-04-24T10:35:31Z</time></trkpt><trkpt lat="31.36892029279718" lon="-7.3880313355727125"><ele>1556.0</ele><time>2026-04-24T10:35:32Z</time></trkpt><trkpt lat="31.36877286723148" lon="-7.3881007012027675"><ele>1559.0</ele><time>2026-04-24T10:35:33Z</time></trkpt><trkpt lat="31.36862978707568" lon="-7.3882031033192375"><ele>1559.0</ele><time>2026-04-24T10:35:34Z</time></trkpt><trkpt lat="31.368494721190107" lon="-7.388320777029511"><ele>1559.0</ele><time>2026-04-24T10:35:35Z</time></trkpt><trkpt lat="31.368362488850575" lon="-7.388436514072539"><ele>1559.0</ele><time>2026-04-24T10:35:36Z</time></trkpt><trkpt lat="31.368228745808356" lon="-7.388552110889038"><ele>1559.0</ele><time>2026-04-24T10:35:37Z</time></trkpt><trkpt lat="31.368098412360606" lon="-7.3886642145349954"><ele>1559.0</ele><time>2026-04-24T10:35:38Z</time></trkpt><trkpt lat="31.36798838361909" lon="-7.388788055607634"><ele>1559.0</ele><time>2026-04-24T10:35:39Z</time></trkpt><trkpt lat="31.36791614059818" lon="-7.388935714599014"><ele>1555.6666666666665</ele><time>2026-04-24T10:35:40Z</time></trkpt><trkpt lat="31.36787139161365" lon="-7.389115780039369"><ele>1552.3333333333335</ele><time>2026-04-24T10:35:41Z</time></trkpt><trkpt lat="31.367844827733276" lon="-7.389313280016366"><ele>1549.0</ele><time>2026-04-24T10:35:42Z</time></trkpt><trkpt lat="31.36781937140287" lon="-7.3895219718263885"><ele>1550.6666666666667</ele><time>2026-04-24T10:35:43Z</time></trkpt><trkpt lat="31.36779288869642" lon="-7.389738768964473"><ele>1552.3333333333335</ele><time>2026-04-24T10:35:44Z</time></trkpt><trkpt lat="31.36776364699041" lon="-7.3899637511389"><ele>1554.0</ele><time>2026-04-24T10:35:45Z</time></trkpt><trkpt lat="31.367731028648272" lon="-7.390192542489839"><ele>1554.0</ele><time>2026-04-24T10:35:46Z</time></trkpt><trkpt lat="31.367699713072078" lon="-7.3904237488398685"><ele>1554.0</ele><time>2026-04-24T10:35:47Z</time></trkpt><trkpt lat="31.367667546569454" lon="-7.3906564463523745"><ele>1554.0</ele><time>2026-04-24T10:35:48Z</time></trkpt><trkpt lat="31.36763707035565" lon="-7.390886237425605"><ele>1557.0</ele><time>2026-04-24T10:35:49Z</time></trkpt><trkpt lat="31.36760815777706" lon="-7.3911122897023525"><ele>1560.0</ele><time>2026-04-24T10:35:50Z</time></trkpt><trkpt lat="31.36757859463602" lon="-7.391331201251502"><ele>1563.0</ele><time>2026-04-24T10:35:51Z</time></trkpt><trkpt lat="31.367545002722753" lon="-7.391543329961354"><ele>1565.6666666666665</ele><time>2026-04-24T10:35:52Z</time></trkpt><trkpt lat="31.367508174892354" lon="-7.391743836641568"><ele>1568.3333333333333</ele><time>2026-04-24T10:35:53Z</time></trkpt><trkpt lat="31.36745197860856" lon="-7.391918436251211"><ele>1571.0</ele><time>2026-04-24T10:35:54Z</time></trkpt><trkpt lat="31.36736563562215" lon="-7.392068238653692"><ele>1569.5</ele><time>2026-04-24T10:35:55Z</time></trkpt><trkpt lat="31.3672570130954" lon="-7.392185130455769"><ele>1568.0</ele><time>2026-04-24T10:35:56Z</time></trkpt><trkpt lat="31.367133708684033" lon="-7.3922723338856775"><ele>1566.5</ele><time>2026-04-24T10:35:57Z</time></trkpt><trkpt lat="31.366995207185433" lon="-7.392324415721984"><ele>1565.0</ele><time>2026-04-24T10:35:58Z</time></trkpt><trkpt lat="31.366844899062993" lon="-7.392352954589758"><ele>1565.0</ele><time>2026-04-24T10:35:59Z</time></trkpt><trkpt lat="31.36668229067963" lon="-7.392373497819839"><ele>1565.0</ele><time>2026-04-24T10:36:00Z</time></trkpt><trkpt lat="31.366512836703393" lon="-7.3923948657486225"><ele>1565.0</ele><time>2026-04-24T10:36:01Z</time></trkpt><trkpt lat="31.36633451817408" lon="-7.392414774039313"><ele>1564.6666666666665</ele><time>2026-04-24T10:36:02Z</time></trkpt><trkpt lat="31.366148753445273" lon="-7.392425161969579"><ele>1564.3333333333335</ele><time>2026-04-24T10:36:03Z</time></trkpt><trkpt lat="31.365952942802682" lon="-7.392410002891546"><ele>1564.0</ele><time>2026-04-24T10:36:04Z</time></trkpt><trkpt lat="31.365755536165832" lon="-7.392375811445425"><ele>1564.0</ele><time>2026-04-24T10:36:05Z</time></trkpt><trkpt lat="31.36555795434751" lon="-7.392334800102022"><ele>1564.0</ele><time>2026-04-24T10:36:06Z</time></trkpt><trkpt lat="31.36535803979202" lon="-7.39229164982487"><ele>1564.0</ele><time>2026-04-24T10:36:07Z</time></trkpt><trkpt lat="31.365158187265802" lon="-7.392249872052031"><ele>1562.0</ele><time>2026-04-24T10:36:08Z</time></trkpt><trkpt lat="31.3649661857378" lon="-7.392197308063734"><ele>1560.0</ele><time>2026-04-24T10:36:09Z</time></trkpt><trkpt lat="31.364788186379375" lon="-7.3921005662549275"><ele>1558.0</ele><time>2026-04-24T10:36:10Z</time></trkpt><trkpt lat="31.36462587034199" lon="-7.391956368420231"><ele>1568.3333333333335</ele><time>2026-04-24T10:36:11Z</time></trkpt><trkpt lat="31.364470632775564" lon="-7.3918042488655615"><ele>1578.6666666666665</ele><time>2026-04-24T10:36:12Z</time></trkpt><trkpt lat="31.364323132038034" lon="-7.391672538526952"><ele>1589.0</ele><time>2026-04-24T10:36:13Z</time></trkpt><trkpt lat="31.364179661235752" lon="-7.391582830838568"><ele>1589.0</ele><time>2026-04-24T10:36:14Z</time></trkpt><trkpt lat="31.364029309204746" lon="-7.391545229116429"><ele>1589.0</ele><time>2026-04-24T10:36:15Z</time></trkpt><trkpt lat="31.363864948460293" lon="-7.391552186370347"><ele>1589.0</ele><time>2026-04-24T10:36:16Z</time></trkpt><trkpt lat="31.363701368949553" lon="-7.391592254495665"><ele>1587.25</ele><time>2026-04-24T10:36:17Z</time></trkpt><trkpt lat="31.363550021231354" lon="-7.391636340385592"><ele>1585.5</ele><time>2026-04-24T10:36:18Z</time></trkpt><trkpt lat="31.363421109155237" lon="-7.391674522306662"><ele>1583.75</ele><time>2026-04-24T10:36:18.999Z</time></trkpt><trkpt lat="31.36331541847984" lon="-7.391706382975588"><ele>1582.0</ele><time>2026-04-24T10:36:19.999Z</time></trkpt><trkpt lat="31.363225245311558" lon="-7.391732291626907"><ele>1582.0</ele><time>2026-04-24T10:36:20.999Z</time></trkpt><trkpt lat="31.363129344542422" lon="-7.391756494407223"><ele>1582.0</ele><time>2026-04-24T10:36:21.999Z</time></trkpt><trkpt lat="31.36302809076397" lon="-7.391785621967612"><ele>1582.0</ele><time>2026-04-24T10:36:22.999Z</time></trkpt><trkpt lat="31.36292614991592" lon="-7.391815101393822"><ele>1582.0</ele><time>2026-04-24T10:36:23.999Z</time></trkpt><trkpt lat="31.36282285707548" lon="-7.39183194385001"><ele>1582.0</ele><time>2026-04-24T10:36:24.999Z</time></trkpt><trkpt lat="31.362716338893257" lon="-7.391836393676983"><ele>1582.3999999999999</ele><time>2026-04-24T10:36:25.999Z</time></trkpt><trkpt lat="31.36260911405898" lon="-7.391818399086861"><ele>1582.8</ele><time>2026-04-24T10:36:26.999Z</time></trkpt><trkpt lat="31.362504271855244" lon="-7.391779195169467"><ele>1583.2</ele><time>2026-04-24T10:36:27.999Z</time></trkpt><trkpt lat="31.36240586539658" lon="-7.391724313291542"><ele>1583.6</ele><time>2026-04-24T10:36:28.999Z</time></trkpt><trkpt lat="31.36231559589687" lon="-7.391657096693374"><ele>1584.0</ele><time>2026-04-24T10:36:29.999Z</time></trkpt><trkpt lat="31.362227420068812" lon="-7.391571272763888"><ele>1584.75</ele><time>2026-04-24T10:36:30.999Z</time></trkpt><trkpt lat="31.362148904180437" lon="-7.391461647085443"><ele>1585.5</ele><time>2026-04-24T10:36:31.999Z</time></trkpt><trkpt lat="31.362079001355397" lon="-7.391328400620007"><ele>1586.25</ele><time>2026-04-24T10:36:32.999Z</time></trkpt><trkpt lat="31.36200310963245" lon="-7.391195818403862"><ele>1587.0</ele><time>2026-04-24T10:36:33.999Z</time></trkpt><trkpt lat="31.36192261892397" lon="-7.39105799695724"><ele>1584.5</ele><time>2026-04-24T10:36:34.999Z</time></trkpt><trkpt lat="31.361839436204896" lon="-7.390915942498515"><ele>1582.0</ele><time>2026-04-24T10:36:35.999Z</time></trkpt><trkpt lat="31.361750650505563" lon="-7.390775547518492"><ele>1579.5</ele><time>2026-04-24T10:36:36.999Z</time></trkpt><trkpt lat="31.361662899347895" lon="-7.390635683222139"><ele>1577.0</ele><time>2026-04-24T10:36:37.999Z</time></trkpt><trkpt lat="31.361577047282427" lon="-7.390497301631675"><ele>1575.75</ele><time>2026-04-24T10:36:38.999Z</time></trkpt><trkpt lat="31.361489520630943" lon="-7.390364914323057"><ele>1574.5</ele><time>2026-04-24T10:36:39.999Z</time></trkpt><trkpt lat="31.361397247588165" lon="-7.390248609257571"><ele>1573.25</ele><time>2026-04-24T10:36:40.999Z</time></trkpt><trkpt lat="31.361289532167817" lon="-7.390158941588012"><ele>1572.0</ele><time>2026-04-24T10:36:41.999Z</time></trkpt><trkpt lat="31.361167109245308" lon="-7.390092812810011"><ele>1574.75</ele><time>2026-04-24T10:36:42.999Z</time></trkpt><trkpt lat="31.361029932462554" lon="-7.390051123489318"><ele>1577.5</ele><time>2026-04-24T10:36:43.999Z</time></trkpt><trkpt lat="31.360881492774297" lon="-7.390026991603207"><ele>1580.25</ele><time>2026-04-24T10:36:44.999Z</time></trkpt><trkpt lat="31.360733982950386" lon="-7.390008387119007"><ele>1583.0</ele><time>2026-04-24T10:36:45.999Z</time></trkpt><trkpt lat="31.36058771785209" lon="-7.390013920468692"><ele>1580.75</ele><time>2026-04-24T10:36:46.999Z</time></trkpt><trkpt lat="31.360444105234258" lon="-7.390039609452091"><ele>1578.5</ele><time>2026-04-24T10:36:47.999Z</time></trkpt><trkpt lat="31.36030463427413" lon="-7.390092265608182"><ele>1576.25</ele><time>2026-04-24T10:36:48.999Z</time></trkpt><trkpt lat="31.36017706064365" lon="-7.39016875183305"><ele>1574.0</ele><time>2026-04-24T10:36:49.999Z</time></trkpt><trkpt lat="31.360067492166355" lon="-7.390262701330442"><ele>1574.0</ele><time>2026-04-24T10:36:50.999Z</time></trkpt><trkpt lat="31.359969528531295" lon="-7.390365543815917"><ele>1574.0</ele><time>2026-04-24T10:36:51.999Z</time></trkpt><trkpt lat="31.359883415148925" lon="-7.3904775991972675"><ele>1574.0</ele><time>2026-04-24T10:36:52.999Z</time></trkpt><trkpt lat="31.35980580350279" lon="-7.390593380203377"><ele>1574.0</ele><time>2026-04-24T10:36:53.999Z</time></trkpt><trkpt lat="31.35972800018706" lon="-7.390701584837241"><ele>1576.25</ele><time>2026-04-24T10:36:54.999Z</time></trkpt><trkpt lat="31.359632912544875" lon="-7.390795279514734"><ele>1578.5</ele><time>2026-04-24T10:36:55.999Z</time></trkpt><trkpt lat="31.359523390972907" lon="-7.390874395084401"><ele>1580.75</ele><time>2026-04-24T10:36:56.999Z</time></trkpt><trkpt lat="31.3594056180221" lon="-7.390946262190092"><ele>1583.0</ele><time>2026-04-24T10:36:57.999Z</time></trkpt><trkpt lat="31.359287995099233" lon="-7.39101670812614"><ele>1583.0</ele><time>2026-04-24T10:36:58.999Z</time></trkpt><trkpt lat="31.359172709997644" lon="-7.391085150073602"><ele>1583.0</ele><time>2026-04-24T10:36:59.999Z</time></trkpt><trkpt lat="31.35905777346812" lon="-7.391159251376365"><ele>1583.0</ele><time>2026-04-24T10:37:00.999Z</time></trkpt><trkpt lat="31.358943427047063" lon="-7.391233640866975"><ele>1583.0</ele><time>2026-04-24T10:37:01.999Z</time></trkpt><trkpt lat="31.358828176510027" lon="-7.391305951340879"><ele>1585.5</ele><time>2026-04-24T10:37:02.999Z</time></trkpt><trkpt lat="31.358710632887824" lon="-7.391377071629015"><ele>1588.0</ele><time>2026-04-24T10:37:03.999Z</time></trkpt><trkpt lat="31.358587581231596" lon="-7.3914372088754545"><ele>1590.5</ele><time>2026-04-24T10:37:04.999Z</time></trkpt><trkpt lat="31.35846048032552" lon="-7.39147865573652"><ele>1593.0</ele><time>2026-04-24T10:37:05.999Z</time></trkpt><trkpt lat="31.358330409560956" lon="-7.391508527057525"><ele>1593.0</ele><time>2026-04-24T10:37:06.999Z</time></trkpt><trkpt lat="31.358197511312557" lon="-7.391533540920304"><ele>1593.0</ele><time>2026-04-24T10:37:07.999Z</time></trkpt><trkpt lat="31.358062943706265" lon="-7.3915543358252505"><ele>1593.0</ele><time>2026-04-24T10:37:08.999Z</time></trkpt><trkpt lat="31.357928358477338" lon="-7.391580144166108"><ele>1593.0</ele><time>2026-04-24T10:37:09.999Z</time></trkpt><trkpt lat="31.357791860968952" lon="-7.3916144760960405"><ele>1592.5</ele><time>2026-04-24T10:37:10.999Z</time></trkpt><trkpt lat="31.357650032422065" lon="-7.391645146349326"><ele>1592.0</ele><time>2026-04-24T10:37:12Z</time></trkpt><trkpt lat="31.357505574162857" lon="-7.39166917408311"><ele>1591.5</ele><time>2026-04-24T10:37:13Z</time></trkpt><trkpt lat="31.357360695185466" lon="-7.39168459357169"><ele>1591.0</ele><time>2026-04-24T10:37:14Z</time></trkpt><trkpt lat="31.357215040531806" lon="-7.391684606129706"><ele>1591.75</ele><time>2026-04-24T10:37:15Z</time></trkpt><trkpt lat="31.3570733418435" lon="-7.3916603605506195"><ele>1592.5</ele><time>2026-04-24T10:37:16Z</time></trkpt><trkpt lat="31.35693632631436" lon="-7.391621606959584"><ele>1593.25</ele><time>2026-04-24T10:37:17Z</time></trkpt><trkpt lat="31.356811941238607" lon="-7.391573173047023"><ele>1594.0</ele><time>2026-04-24T10:37:18Z</time></trkpt><trkpt lat="31.356689977793454" lon="-7.391512116471868"><ele>1594.0</ele><time>2026-04-24T10:37:19Z</time></trkpt><trkpt lat="31.35656733853711" lon="-7.39144317009264"><ele>1594.0</ele><time>2026-04-24T10:37:20Z</time></trkpt><trkpt lat="31.356442411260897" lon="-7.391377436068634"><ele>1594.0</ele><time>2026-04-24T10:37:21Z</time></trkpt><trkpt lat="31.35631026688452" lon="-7.391319713839791"><ele>1594.0</ele><time>2026-04-24T10:37:22Z</time></trkpt><trkpt lat="31.356170090732775" lon="-7.391272009214636"><ele>1592.3333333333335</ele><time>2026-04-24T10:37:23Z</time></trkpt><trkpt lat="31.35602404704537" lon="-7.391238208436616"><ele>1590.6666666666665</ele><time>2026-04-24T10:37:24Z</time></trkpt><trkpt lat="31.35587235584195" lon="-7.391221593450954"><ele>1589.0</ele><time>2026-04-24T10:37:25Z</time></trkpt><trkpt lat="31.355719092673255" lon="-7.391225607505407"><ele>1589.0</ele><time>2026-04-24T10:37:26Z</time></trkpt><trkpt lat="31.355568437762255" lon="-7.3912361237394"><ele>1589.0</ele><time>2026-04-24T10:37:27Z</time></trkpt><trkpt lat="31.355422587966636" lon="-7.391249465744576"><ele>1589.0</ele><time>2026-04-24T10:37:28Z</time></trkpt><trkpt lat="31.355292656119804" lon="-7.391292642828829"><ele>1589.0</ele><time>2026-04-24T10:37:29Z</time></trkpt><trkpt lat="31.355176802584367" lon="-7.391375879587208"><ele>1591.75</ele><time>2026-04-24T10:37:30Z</time></trkpt><trkpt lat="31.355077318870517" lon="-7.391491325273115"><ele>1594.5</ele><time>2026-04-24T10:37:31Z</time></trkpt><trkpt lat="31.354997740662814" lon="-7.39162793256548"><ele>1597.25</ele><time>2026-04-24T10:37:32Z</time></trkpt><trkpt lat="31.354911404686412" lon="-7.391753140707431"><ele>1600.0</ele><time>2026-04-24T10:37:33Z</time></trkpt><trkpt lat="31.354804823982693" lon="-7.391857002266163"><ele>1596.75</ele><time>2026-04-24T10:37:34Z</time></trkpt><trkpt lat="31.354680426271567" lon="-7.391938940470332"><ele>1593.5</ele><time>2026-04-24T10:37:35Z</time></trkpt><trkpt lat="31.35454335916106" lon="-7.392002071865439"><ele>1590.25</ele><time>2026-04-24T10:37:36Z</time></trkpt><trkpt lat="31.35439740079222" lon="-7.392059649862691"><ele>1587.0</ele><time>2026-04-24T10:37:37Z</time></trkpt><trkpt lat="31.35425369654992" lon="-7.3921199530674855"><ele>1587.0</ele><time>2026-04-24T10:37:38Z</time></trkpt><trkpt lat="31.35410589333042" lon="-7.392167451593888"><ele>1587.0</ele><time>2026-04-24T10:37:39Z</time></trkpt><trkpt lat="31.353950925078056" lon="-7.392191841422787"><ele>1587.0</ele><time>2026-04-24T10:37:40Z</time></trkpt><trkpt lat="31.353794500286835" lon="-7.392204971672185"><ele>1594.3333333333335</ele><time>2026-04-24T10:37:41Z</time></trkpt><trkpt lat="31.353635065499592" lon="-7.392202210993617"><ele>1601.6666666666667</ele><time>2026-04-24T10:37:42Z</time></trkpt><trkpt lat="31.353474743692026" lon="-7.392189410581243"><ele>1609.0</ele><time>2026-04-24T10:37:43Z</time></trkpt><trkpt lat="31.35331212965696" lon="-7.392178811432885"><ele>1603.6666666666667</ele><time>2026-04-24T10:37:44Z</time></trkpt><trkpt lat="31.35315144887724" lon="-7.392168782825241"><ele>1598.3333333333335</ele><time>2026-04-24T10:37:45Z</time></trkpt><trkpt lat="31.35299455478766" lon="-7.39215618298091"><ele>1593.0</ele><time>2026-04-24T10:37:46Z</time></trkpt><trkpt lat="31.352838326585974" lon="-7.392134674828845"><ele>1593.0</ele><time>2026-04-24T10:37:47Z</time></trkpt><trkpt lat="31.35268103289045" lon="-7.392100423851911"><ele>1593.0</ele><time>2026-04-24T10:37:48Z</time></trkpt><trkpt lat="31.35252506599009" lon="-7.3920585727730215"><ele>1593.0</ele><time>2026-04-24T10:37:49Z</time></trkpt><trkpt lat="31.35236787945188" lon="-7.392014126656935"><ele>1593.0</ele><time>2026-04-24T10:37:50Z</time></trkpt><trkpt lat="31.352214088737377" lon="-7.391969250102233"><ele>1593.0</ele><time>2026-04-24T10:37:51Z</time></trkpt><trkpt lat="31.352063745017574" lon="-7.391920841238242"><ele>1593.0</ele><time>2026-04-24T10:37:52Z</time></trkpt><trkpt lat="31.351921123797585" lon="-7.391867692257925"><ele>1593.25</ele><time>2026-04-24T10:37:53Z</time></trkpt><trkpt lat="31.351788746975554" lon="-7.391791774481803"><ele>1593.5</ele><time>2026-04-24T10:37:54Z</time></trkpt><trkpt lat="31.351674323459232" lon="-7.391692576386649"><ele>1593.75</ele><time>2026-04-24T10:37:55Z</time></trkpt><trkpt lat="31.35156807688292" lon="-7.391582947665681"><ele>1594.0</ele><time>2026-04-24T10:37:56Z</time></trkpt><trkpt lat="31.35145661440999" lon="-7.391481445476324"><ele>1597.0</ele><time>2026-04-24T10:37:57Z</time></trkpt><trkpt lat="31.351330894766367" lon="-7.391395948631889"><ele>1600.0</ele><time>2026-04-24T10:37:58Z</time></trkpt><trkpt lat="31.351193523173226" lon="-7.391338635455382"><ele>1603.0</ele><time>2026-04-24T10:37:59Z</time></trkpt><trkpt lat="31.351050095627148" lon="-7.391319184292695"><ele>1606.0</ele><time>2026-04-24T10:38:00Z</time></trkpt><trkpt lat="31.350906203241983" lon="-7.391328363965539"><ele>1608.3333333333335</ele><time>2026-04-24T10:38:01Z</time></trkpt><trkpt lat="31.350758427489502" lon="-7.391346549296932"><ele>1610.6666666666665</ele><time>2026-04-24T10:38:02Z</time></trkpt><trkpt lat="31.35060485247815" lon="-7.391362440714894"><ele>1613.0</ele><time>2026-04-24T10:38:03Z</time></trkpt><trkpt lat="31.350445499293315" lon="-7.391381118224512"><ele>1619.0</ele><time>2026-04-24T10:38:04Z</time></trkpt><trkpt lat="31.350279260241653" lon="-7.391400313675963"><ele>1625.0</ele><time>2026-04-24T10:38:05Z</time></trkpt><trkpt lat="31.35010644895708" lon="-7.3914177741069125"><ele>1631.0</ele><time>2026-04-24T10:38:06Z</time></trkpt><trkpt lat="31.349927935119073" lon="-7.3914365172139656"><ele>1631.0</ele><time>2026-04-24T10:38:07Z</time></trkpt><trkpt lat="31.34974423018326" lon="-7.3914569910878605"><ele>1631.0</ele><time>2026-04-24T10:38:08Z</time></trkpt><trkpt lat="31.349556250222236" lon="-7.391477484508449"><ele>1631.0</ele><time>2026-04-24T10:38:09Z</time></trkpt><trkpt lat="31.349362460664103" lon="-7.391498749878993"><ele>1631.0</ele><time>2026-04-24T10:38:10Z</time></trkpt><trkpt lat="31.349174472201927" lon="-7.391518195369268"><ele>1631.0</ele><time>2026-04-24T10:38:11Z</time></trkpt><trkpt lat="31.34899036700066" lon="-7.391535867568542"><ele>1631.0</ele><time>2026-04-24T10:38:12Z</time></trkpt><trkpt lat="31.348810887743102" lon="-7.39154483485662"><ele>1632.3333333333333</ele><time>2026-04-24T10:38:13Z</time></trkpt><trkpt lat="31.34864263983033" lon="-7.391538196024421"><ele>1633.6666666666665</ele><time>2026-04-24T10:38:14Z</time></trkpt><trkpt lat="31.3484920838681" lon="-7.39151576816426"><ele>1635.0</ele><time>2026-04-24T10:38:15Z</time></trkpt><trkpt lat="31.34835272691151" lon="-7.391482348267813"><ele>1635.0</ele><time>2026-04-24T10:38:16Z</time></trkpt><trkpt lat="31.34820612763885" lon="-7.391429348724051"><ele>1635.0</ele><time>2026-04-24T10:38:17Z</time></trkpt><trkpt lat="31.34805175077427" lon="-7.3913614713447515"><ele>1635.0</ele><time>2026-04-24T10:38:18Z</time></trkpt><trkpt lat="31.34788770363386" lon="-7.391290608500231"><ele>1628.6666666666665</ele><time>2026-04-24T10:38:19Z</time></trkpt><trkpt lat="31.347716191266898" lon="-7.3912177594820285"><ele>1622.3333333333333</ele><time>2026-04-24T10:38:20Z</time></trkpt><trkpt lat="31.34753749079656" lon="-7.391142301523636"><ele>1616.0</ele><time>2026-04-24T10:38:21Z</time></trkpt><trkpt lat="31.347352110522664" lon="-7.391067337007578"><ele>1620.0</ele><time>2026-04-24T10:38:22Z</time></trkpt><trkpt lat="31.347171965511276" lon="-7.390998612931088"><ele>1624.0</ele><time>2026-04-24T10:38:23Z</time></trkpt><trkpt lat="31.34700516604492" lon="-7.390933464286289"><ele>1628.0</ele><time>2026-04-24T10:38:23.999Z</time></trkpt><trkpt lat="31.3468487892432" lon="-7.390870059963211"><ele>1628.0</ele><time>2026-04-24T10:38:24.999Z</time></trkpt><trkpt lat="31.34669766654106" lon="-7.390809356412185"><ele>1628.0</ele><time>2026-04-24T10:38:25.999Z</time></trkpt><trkpt lat="31.346555147050555" lon="-7.3907541104278796"><ele>1628.0</ele><time>2026-04-24T10:38:26.999Z</time></trkpt><trkpt lat="31.346419462937433" lon="-7.390711934563095"><ele>1626.0</ele><time>2026-04-24T10:38:27.999Z</time></trkpt><trkpt lat="31.34629202490814" lon="-7.390688659003214"><ele>1624.0</ele><time>2026-04-24T10:38:28.999Z</time></trkpt><trkpt lat="31.346171032457093" lon="-7.390692369499733"><ele>1622.0</ele><time>2026-04-24T10:38:29.999Z</time></trkpt><trkpt lat="31.346051149477614" lon="-7.390719860695124"><ele>1620.0</ele><time>2026-04-24T10:38:30.999Z</time></trkpt><trkpt lat="31.345940501825208" lon="-7.3907718951823576"><ele>1620.0</ele><time>2026-04-24T10:38:31.999Z</time></trkpt><trkpt lat="31.345835145270428" lon="-7.390840767815305"><ele>1620.0</ele><time>2026-04-24T10:38:32.999Z</time></trkpt><trkpt lat="31.345727328866722" lon="-7.390919180586071"><ele>1620.0</ele><time>2026-04-24T10:38:33.999Z</time></trkpt><trkpt lat="31.345614263451083" lon="-7.390991606108552"><ele>1620.0</ele><time>2026-04-24T10:38:34.999Z</time></trkpt><trkpt lat="31.345503619942637" lon="-7.391059367552829"><ele>1619.8</ele><time>2026-04-24T10:38:35.999Z</time></trkpt><trkpt lat="31.34539591864552" lon="-7.391125468924553"><ele>1619.6</ele><time>2026-04-24T10:38:36.999Z</time></trkpt><trkpt lat="31.345293513597557" lon="-7.391188572962362"><ele>1619.4</ele><time>2026-04-24T10:38:37.999Z</time></trkpt><trkpt lat="31.345204173152478" lon="-7.391245896506096"><ele>1619.2</ele><time>2026-04-24T10:38:38.999Z</time></trkpt><trkpt lat="31.345127605866523" lon="-7.391295411222936"><ele>1619.0</ele><time>2026-04-24T10:38:39.999Z</time></trkpt><trkpt lat="31.345057283814228" lon="-7.391338243356695"><ele>1619.857142857143</ele><time>2026-04-24T10:38:40.999Z</time></trkpt><trkpt lat="31.344993273685255" lon="-7.391377155138014"><ele>1620.7142857142856</ele><time>2026-04-24T10:38:41.999Z</time></trkpt><trkpt lat="31.34493764608336" lon="-7.391413106648253"><ele>1621.5714285714284</ele><time>2026-04-24T10:38:42.999Z</time></trkpt><trkpt lat="31.34488165388718" lon="-7.391453888693134"><ele>1622.4285714285716</ele><time>2026-04-24T10:38:43.999Z</time></trkpt><trkpt lat="31.344827689315547" lon="-7.3915052261316605"><ele>1623.2857142857142</ele><time>2026-04-24T10:38:44.999Z</time></trkpt><trkpt lat="31.344770543725552" lon="-7.391561372367538"><ele>1624.142857142857</ele><time>2026-04-24T10:38:45.999Z</time></trkpt><trkpt lat="31.344711989655114" lon="-7.39162440468438"><ele>1625.0</ele><time>2026-04-24T10:38:46.999Z</time></trkpt><trkpt lat="31.34465838033916" lon="-7.391692498450986"><ele>1624.9999999999998</ele><time>2026-04-24T10:38:47.999Z</time></trkpt><trkpt lat="31.344605670988077" lon="-7.391760598392466"><ele>1625.0</ele><time>2026-04-24T10:38:48.999Z</time></trkpt><trkpt lat="31.344550711801634" lon="-7.3918254001581625"><ele>1625.0</ele><time>2026-04-24T10:38:49.999Z</time></trkpt><trkpt lat="31.34449826366398" lon="-7.391892524954647"><ele>1625.0</ele><time>2026-04-24T10:38:50.999Z</time></trkpt><trkpt lat="31.34444951777782" lon="-7.391958009007018"><ele>1624.9999999999998</ele><time>2026-04-24T10:38:51.999Z</time></trkpt><trkpt lat="31.344402626350735" lon="-7.392020118923828"><ele>1625.0</ele><time>2026-04-24T10:38:52.999Z</time></trkpt><trkpt lat="31.344357992827273" lon="-7.3920837937269095"><ele>1625.0</ele><time>2026-04-24T10:38:53.999Z</time></trkpt><trkpt lat="31.34432048981279" lon="-7.3921521180220635"><ele>1625.0</ele><time>2026-04-24T10:38:54.999Z</time></trkpt><trkpt lat="31.344285548433685" lon="-7.392217465512578"><ele>1625.0</ele><time>2026-04-24T10:38:55.999Z</time></trkpt><trkpt lat="31.344223031342384" lon="-7.3923399607163445"><ele>1625.0</ele><time>2026-04-24T10:38:57.999Z</time></trkpt><trkpt lat="31.344160678459414" lon="-7.392463217341377"><ele>1625.0</ele><time>2026-04-24T10:38:59.999Z</time></trkpt><trkpt lat="31.34411763046493" lon="-7.392544469408634"><ele>1625.4999999999998</ele><time>2026-04-24T10:39:01.999Z</time></trkpt><trkpt lat="31.344073151726715" lon="-7.392633824557743"><ele>1626.0</ele><time>2026-04-24T10:39:03.999Z</time></trkpt><trkpt lat="31.344008516618437" lon="-7.3927664587185875"><ele>1626.5</ele><time>2026-04-24T10:39:05.999Z</time></trkpt><trkpt lat="31.343971001241282" lon="-7.3928393053978425"><ele>1627.0</ele><time>2026-04-24T10:39:06.999Z</time></trkpt><trkpt lat="31.343932610264087" lon="-7.3929124042180625"><ele>1627.4999999999998</ele><time>2026-04-24T10:39:07.999Z</time></trkpt><trkpt lat="31.343882127310927" lon="-7.392982923888631"><ele>1628.0</ele><time>2026-04-24T10:39:08.999Z</time></trkpt><trkpt lat="31.343828224827178" lon="-7.393054134921674"><ele>1628.0</ele><time>2026-04-24T10:39:09.999Z</time></trkpt><trkpt lat="31.343768622571186" lon="-7.393130904691236"><ele>1628.0</ele><time>2026-04-24T10:39:10.999Z</time></trkpt><trkpt lat="31.34370040510909" lon="-7.393208752572199"><ele>1628.0</ele><time>2026-04-24T10:39:11.999Z</time></trkpt><trkpt lat="31.343625498432043" lon="-7.393286695737048"><ele>1628.0</ele><time>2026-04-24T10:39:12.999Z</time></trkpt><trkpt lat="31.343539254435075" lon="-7.39335379401731"><ele>1628.0</ele><time>2026-04-24T10:39:13.999Z</time></trkpt><trkpt lat="31.34344348302615" lon="-7.393412092318981"><ele>1628.0</ele><time>2026-04-24T10:39:14.999Z</time></trkpt><trkpt lat="31.343340236000127" lon="-7.39345457207472"><ele>1628.0</ele><time>2026-04-24T10:39:15.999Z</time></trkpt><trkpt lat="31.343229218961525" lon="-7.393475118767169"><ele>1628.0</ele><time>2026-04-24T10:39:16.999Z</time></trkpt><trkpt lat="31.343108814159308" lon="-7.393477707150673"><ele>1628.0</ele><time>2026-04-24T10:39:18Z</time></trkpt><trkpt lat="31.342982383925722" lon="-7.393464121234271"><ele>1628.0</ele><time>2026-04-24T10:39:19Z</time></trkpt><trkpt lat="31.342851987695013" lon="-7.393439577190616"><ele>1628.0</ele><time>2026-04-24T10:39:20Z</time></trkpt><trkpt lat="31.342720807073004" lon="-7.393408434545065"><ele>1628.0</ele><time>2026-04-24T10:39:21Z</time></trkpt><trkpt lat="31.342590055566603" lon="-7.3933788937774"><ele>1628.0</ele><time>2026-04-24T10:39:22Z</time></trkpt><trkpt lat="31.342465881578423" lon="-7.393335815826767"><ele>1628.0</ele><time>2026-04-24T10:39:23Z</time></trkpt><trkpt lat="31.342321736198222" lon="-7.393263860868128"><ele>1628.0</ele><time>2026-04-24T10:39:24Z</time></trkpt><trkpt lat="31.34220013687015" lon="-7.393161526154901"><ele>1628.0</ele><time>2026-04-24T10:39:25Z</time></trkpt><trkpt lat="31.34209269415394" lon="-7.393035418387498"><ele>1632.3333333333333</ele><time>2026-04-24T10:39:26Z</time></trkpt><trkpt lat="31.34198964554155" lon="-7.392903765461963"><ele>1636.6666666666665</ele><time>2026-04-24T10:39:27Z</time></trkpt><trkpt lat="31.34188409962975" lon="-7.39277444192832"><ele>1641.0</ele><time>2026-04-24T10:39:28Z</time></trkpt><trkpt lat="31.34177640458774" lon="-7.392644739114536"><ele>1641.0</ele><time>2026-04-24T10:39:29Z</time></trkpt><trkpt lat="31.34166721440722" lon="-7.392515845574382"><ele>1641.0</ele><time>2026-04-24T10:39:30Z</time></trkpt><trkpt lat="31.34155541176564" lon="-7.392387285762897"><ele>1641.0</ele><time>2026-04-24T10:39:31Z</time></trkpt><trkpt lat="31.34143972542751" lon="-7.39226003042553"><ele>1643.0</ele><time>2026-04-24T10:39:32Z</time></trkpt><trkpt lat="31.34131899878965" lon="-7.392138849144208"><ele>1645.0</ele><time>2026-04-24T10:39:33Z</time></trkpt><trkpt lat="31.34118928041155" lon="-7.392023678958926"><ele>1647.0</ele><time>2026-04-24T10:39:34Z</time></trkpt><trkpt lat="31.341050265636092" lon="-7.3919135260819155"><ele>1647.0</ele><time>2026-04-24T10:39:35Z</time></trkpt><trkpt lat="31.340907581752134" lon="-7.391801316304622"><ele>1647.0</ele><time>2026-04-24T10:39:36Z</time></trkpt><trkpt lat="31.34076409835379" lon="-7.391690815734381"><ele>1647.0</ele><time>2026-04-24T10:39:37Z</time></trkpt><trkpt lat="31.340618713833717" lon="-7.391581304109491"><ele>1643.6666666666665</ele><time>2026-04-24T10:39:38Z</time></trkpt><trkpt lat="31.340471697321025" lon="-7.391470235332415"><ele>1640.3333333333333</ele><time>2026-04-24T10:39:39Z</time></trkpt><trkpt lat="31.340327806094994" lon="-7.391355650308559"><ele>1637.0</ele><time>2026-04-24T10:39:40Z</time></trkpt><trkpt lat="31.340186304995356" lon="-7.39123893427683"><ele>1643.6666666666665</ele><time>2026-04-24T10:39:41Z</time></trkpt><trkpt lat="31.340047572548606" lon="-7.391125178664884"><ele>1650.3333333333335</ele><time>2026-04-24T10:39:42Z</time></trkpt><trkpt lat="31.33990406557241" lon="-7.391025132660827"><ele>1657.0</ele><time>2026-04-24T10:39:43Z</time></trkpt><trkpt lat="31.33974033203929" lon="-7.390952930984332"><ele>1656.3333333333335</ele><time>2026-04-24T10:39:44Z</time></trkpt><trkpt lat="31.33956264961719" lon="-7.390914298968423"><ele>1655.6666666666665</ele><time>2026-04-24T10:39:45Z</time></trkpt><trkpt lat="31.33937938916132" lon="-7.390891347259832"><ele>1655.0</ele><time>2026-04-24T10:39:46Z</time></trkpt><trkpt lat="31.33919404760482" lon="-7.390851214296839"><ele>1655.0</ele><time>2026-04-24T10:39:47Z</time></trkpt><trkpt lat="31.339013550488694" lon="-7.3907664944863045"><ele>1655.0</ele><time>2026-04-24T10:39:48Z</time></trkpt><trkpt lat="31.338842466960944" lon="-7.3906403946914585"><ele>1655.0</ele><time>2026-04-24T10:39:49Z</time></trkpt><trkpt lat="31.338686480490814" lon="-7.390477267613193"><ele>1658.3333333333333</ele><time>2026-04-24T10:39:50Z</time></trkpt><trkpt lat="31.338536576926796" lon="-7.390309303678878"><ele>1661.6666666666665</ele><time>2026-04-24T10:39:51Z</time></trkpt><trkpt lat="31.33838683925759" lon="-7.390150060268527"><ele>1665.0</ele><time>2026-04-24T10:39:52Z</time></trkpt><trkpt lat="31.338233372653843" lon="-7.389993260519593"><ele>1665.0</ele><time>2026-04-24T10:39:53Z</time></trkpt><trkpt lat="31.338075005033843" lon="-7.389838542250348"><ele>1665.0</ele><time>2026-04-24T10:39:54Z</time></trkpt><trkpt lat="31.3379257541249" lon="-7.38968610993669"><ele>1665.0</ele><time>2026-04-24T10:39:55Z</time></trkpt><trkpt lat="31.337796575793362" lon="-7.3895167411670615"><ele>1663.6666666666665</ele><time>2026-04-24T10:39:56Z</time></trkpt><trkpt lat="31.337695079709235" lon="-7.389330019617611"><ele>1662.3333333333333</ele><time>2026-04-24T10:39:57Z</time></trkpt><trkpt lat="31.337613537850384" lon="-7.389131875349226"><ele>1661.0</ele><time>2026-04-24T10:39:58Z</time></trkpt><trkpt lat="31.337534225760706" lon="-7.388932807677849"><ele>1661.3333333333333</ele><time>2026-04-24T10:39:59Z</time></trkpt><trkpt lat="31.337446243647115" lon="-7.388743489389146"><ele>1661.6666666666665</ele><time>2026-04-24T10:40:00Z</time></trkpt><trkpt lat="31.33733276452148" lon="-7.388577555286396"><ele>1662.0</ele><time>2026-04-24T10:40:01Z</time></trkpt><trkpt lat="31.33718965305645" lon="-7.3884391323296565"><ele>1662.0</ele><time>2026-04-24T10:40:02Z</time></trkpt><trkpt lat="31.337037259211993" lon="-7.388313496756126"><ele>1662.0</ele><time>2026-04-24T10:40:03Z</time></trkpt><trkpt lat="31.33690600142917" lon="-7.388185410505113"><ele>1662.0</ele><time>2026-04-24T10:40:04Z</time></trkpt><trkpt lat="31.336805374220123" lon="-7.388048584895388"><ele>1663.25</ele><time>2026-04-24T10:40:05Z</time></trkpt><trkpt lat="31.33675037069992" lon="-7.38790452433915"><ele>1664.5</ele><time>2026-04-24T10:40:06Z</time></trkpt><trkpt lat="31.33674181189329" lon="-7.387758395892363"><ele>1665.75</ele><time>2026-04-24T10:40:07Z</time></trkpt><trkpt lat="31.336765104731597" lon="-7.387609946916027"><ele>1667.0</ele><time>2026-04-24T10:40:08Z</time></trkpt><trkpt lat="31.33681628262322" lon="-7.38746092037607"><ele>1667.0</ele><time>2026-04-24T10:40:09Z</time></trkpt><trkpt lat="31.336873036928427" lon="-7.38734704347975"><ele>1667.0</ele><time>2026-04-24T10:40:10Z</time></trkpt><trkpt lat="31.336924257735525" lon="-7.387250542807315"><ele>1667.0</ele><time>2026-04-24T10:40:11Z</time></trkpt><trkpt lat="31.336981469274665" lon="-7.3871636822705256"><ele>1667.0</ele><time>2026-04-24T10:40:12Z</time></trkpt><trkpt lat="31.337063510805987" lon="-7.387082455636796"><ele>1667.0</ele><time>2026-04-24T10:40:13Z</time></trkpt><trkpt lat="31.337159038000667" lon="-7.386998481202136"><ele>1670.75</ele><time>2026-04-24T10:40:14Z</time></trkpt><trkpt lat="31.33725939798747" lon="-7.386907128427951"><ele>1674.5</ele><time>2026-04-24T10:40:15Z</time></trkpt><trkpt lat="31.33735983626767" lon="-7.386817493201561"><ele>1678.25</ele><time>2026-04-24T10:40:16Z</time></trkpt><trkpt lat="31.33744634387273" lon="-7.386709765556479"><ele>1682.0</ele><time>2026-04-24T10:40:17Z</time></trkpt><trkpt lat="31.337506725929337" lon="-7.386581972983624"><ele>1682.0</ele><time>2026-04-24T10:40:18Z</time></trkpt><trkpt lat="31.337536380575276" lon="-7.386434640464154"><ele>1682.0</ele><time>2026-04-24T10:40:19Z</time></trkpt><trkpt lat="31.337526069533048" lon="-7.386276119819385"><ele>1682.0</ele><time>2026-04-24T10:40:20Z</time></trkpt><trkpt lat="31.337478737045306" lon="-7.386111076015773"><ele>1682.0</ele><time>2026-04-24T10:40:21Z</time></trkpt><trkpt lat="31.33741082173902" lon="-7.3859427926782555"><ele>1682.0</ele><time>2026-04-24T10:40:22Z</time></trkpt><trkpt lat="31.33734596568375" lon="-7.385758371279509"><ele>1682.0</ele><time>2026-04-24T10:40:23Z</time></trkpt><trkpt lat="31.337283747411842" lon="-7.385560596147207"><ele>1682.0</ele><time>2026-04-24T10:40:24Z</time></trkpt><trkpt lat="31.337222306094183" lon="-7.385356890160835"><ele>1680.0</ele><time>2026-04-24T10:40:25Z</time></trkpt><trkpt lat="31.33715903675042" lon="-7.385150825228675"><ele>1678.0</ele><time>2026-04-24T10:40:26Z</time></trkpt><trkpt lat="31.33709267961578" lon="-7.384947221504015"><ele>1676.0</ele><time>2026-04-24T10:40:27Z</time></trkpt><trkpt lat="31.337027398054076" lon="-7.384742013696098"><ele>1677.0</ele><time>2026-04-24T10:40:28Z</time></trkpt><trkpt lat="31.3369637871647" lon="-7.384541928932601"><ele>1678.0</ele><time>2026-04-24T10:40:28.999Z</time></trkpt><trkpt lat="31.336881656100758" lon="-7.384362573775023"><ele>1679.0</ele><time>2026-04-24T10:40:29.999Z</time></trkpt><trkpt lat="31.336760037683163" lon="-7.384215829417417"><ele>1679.0</ele><time>2026-04-24T10:40:30.999Z</time></trkpt><trkpt lat="31.336611390137268" lon="-7.384095253216152"><ele>1679.0</ele><time>2026-04-24T10:40:31.999Z</time></trkpt><trkpt lat="31.336442823726387" lon="-7.384004085176935"><ele>1679.0</ele><time>2026-04-24T10:40:32.999Z</time></trkpt><trkpt lat="31.33627041010128" lon="-7.383929229838155"><ele>1679.6666666666665</ele><time>2026-04-24T10:40:33.999Z</time></trkpt><trkpt lat="31.336108899174228" lon="-7.38384855161289"><ele>1680.3333333333335</ele><time>2026-04-24T10:40:34.999Z</time></trkpt><trkpt lat="31.33597069221714" lon="-7.383751880260001"><ele>1681.0</ele><time>2026-04-24T10:40:35.999Z</time></trkpt><trkpt lat="31.3358762177343" lon="-7.383631450002752"><ele>1682.6666666666667</ele><time>2026-04-24T10:40:36.999Z</time></trkpt><trkpt lat="31.33580566900443" lon="-7.383479038721921"><ele>1684.3333333333335</ele><time>2026-04-24T10:40:37.999Z</time></trkpt><trkpt lat="31.335764273356236" lon="-7.383297110691168"><ele>1686.0</ele><time>2026-04-24T10:40:38.999Z</time></trkpt><trkpt lat="31.335740654866676" lon="-7.3831062608310365"><ele>1689.0</ele><time>2026-04-24T10:40:39.999Z</time></trkpt><trkpt lat="31.33571194270686" lon="-7.382920950379842"><ele>1692.0</ele><time>2026-04-24T10:40:40.999Z</time></trkpt><trkpt lat="31.33567706167497" lon="-7.382741062900646"><ele>1695.0</ele><time>2026-04-24T10:40:41.999Z</time></trkpt><trkpt lat="31.3356376732352" lon="-7.382568244840969"><ele>1695.0</ele><time>2026-04-24T10:40:42.999Z</time></trkpt><trkpt lat="31.335579054363915" lon="-7.382401221368487"><ele>1695.0</ele><time>2026-04-24T10:40:43.999Z</time></trkpt><trkpt lat="31.33549275257078" lon="-7.382249200718283"><ele>1695.0</ele><time>2026-04-24T10:40:44.999Z</time></trkpt><trkpt lat="31.33538365250296" lon="-7.382111847635567"><ele>1693.6666666666665</ele><time>2026-04-24T10:40:45.999Z</time></trkpt><trkpt lat="31.33526975016595" lon="-7.381984388496822"><ele>1692.3333333333333</ele><time>2026-04-24T10:40:46.999Z</time></trkpt><trkpt lat="31.33515945777231" lon="-7.381863672299081"><ele>1691.0</ele><time>2026-04-24T10:40:47.999Z</time></trkpt><trkpt lat="31.33504810666346" lon="-7.381753833162197"><ele>1691.0</ele><time>2026-04-24T10:40:48.999Z</time></trkpt><trkpt lat="31.334931193071142" lon="-7.381666176547351"><ele>1691.0</ele><time>2026-04-24T10:40:49.999Z</time></trkpt><trkpt lat="31.33480152645374" lon="-7.381609651440151"><ele>1691.0</ele><time>2026-04-24T10:40:50.999Z</time></trkpt><trkpt lat="31.33465886324141" lon="-7.381585677612514"><ele>1691.0</ele><time>2026-04-24T10:40:51.999Z</time></trkpt><trkpt lat="31.33450940393154" lon="-7.381602221679839"><ele>1691.5</ele><time>2026-04-24T10:40:52.999Z</time></trkpt><trkpt lat="31.33436266415382" lon="-7.381649373005511"><ele>1692.0</ele><time>2026-04-24T10:40:53.999Z</time></trkpt><trkpt lat="31.33421908010131" lon="-7.381707815137112"><ele>1692.5</ele><time>2026-04-24T10:40:54.999Z</time></trkpt><trkpt lat="31.334081945939793" lon="-7.381753552457173"><ele>1693.0</ele><time>2026-04-24T10:40:55.999Z</time></trkpt><trkpt lat="31.33394388491775" lon="-7.381774138703899"><ele>1693.75</ele><time>2026-04-24T10:40:56.999Z</time></trkpt><trkpt lat="31.333810272725838" lon="-7.38175641735323"><ele>1694.5</ele><time>2026-04-24T10:40:57.999Z</time></trkpt><trkpt lat="31.333679551459362" lon="-7.381697270179186"><ele>1695.25</ele><time>2026-04-24T10:40:58.999Z</time></trkpt><trkpt lat="31.333566102043505" lon="-7.381601532604662"><ele>1696.0</ele><time>2026-04-24T10:40:59.999Z</time></trkpt><trkpt lat="31.3334806899809" lon="-7.381474187914082"><ele>1697.6666666666667</ele><time>2026-04-24T10:41:00.999Z</time></trkpt><trkpt lat="31.33341855503958" lon="-7.381319070454404"><ele>1699.3333333333335</ele><time>2026-04-24T10:41:01.999Z</time></trkpt><trkpt lat="31.333370258324482" lon="-7.381142108137245"><ele>1701.0</ele><time>2026-04-24T10:41:02.999Z</time></trkpt><trkpt lat="31.333316943517595" lon="-7.380971972970233"><ele>1701.0</ele><time>2026-04-24T10:41:03.999Z</time></trkpt><trkpt lat="31.33325975547012" lon="-7.380803036584836"><ele>1701.0</ele><time>2026-04-24T10:41:04.999Z</time></trkpt><trkpt lat="31.33319997495876" lon="-7.380628643463405"><ele>1701.0</ele><time>2026-04-24T10:41:05.999Z</time></trkpt><trkpt lat="31.33314080143112" lon="-7.3804516072061315"><ele>1705.3333333333335</ele><time>2026-04-24T10:41:06.999Z</time></trkpt><trkpt lat="31.333083846047042" lon="-7.380275516654858"><ele>1709.6666666666667</ele><time>2026-04-24T10:41:07.999Z</time></trkpt><trkpt lat="31.333030231783287" lon="-7.380104447211183"><ele>1714.0</ele><time>2026-04-24T10:41:08.999Z</time></trkpt><trkpt lat="31.332976802388448" lon="-7.379935060532192"><ele>1714.6666666666667</ele><time>2026-04-24T10:41:09.999Z</time></trkpt><trkpt lat="31.332920757301128" lon="-7.379763570915004"><ele>1715.3333333333335</ele><time>2026-04-24T10:41:10.999Z</time></trkpt><trkpt lat="31.33286064500179" lon="-7.379593053642827"><ele>1716.0</ele><time>2026-04-24T10:41:11.999Z</time></trkpt><trkpt lat="31.332786646662644" lon="-7.3794326241924155"><ele>1714.0</ele><time>2026-04-24T10:41:12.999Z</time></trkpt><trkpt lat="31.332683010284562" lon="-7.37929598074961"><ele>1712.0</ele><time>2026-04-24T10:41:13.999Z</time></trkpt><trkpt lat="31.332552782311154" lon="-7.37919105076102"><ele>1710.0</ele><time>2026-04-24T10:41:14.999Z</time></trkpt><trkpt lat="31.332401898041077" lon="-7.379117757666485"><ele>1710.0</ele><time>2026-04-24T10:41:15.999Z</time></trkpt><trkpt lat="31.332232187172565" lon="-7.379080688475195"><ele>1710.0</ele><time>2026-04-24T10:41:16.999Z</time></trkpt><trkpt lat="31.33205463637283" lon="-7.379064963997918"><ele>1710.0</ele><time>2026-04-24T10:41:17.999Z</time></trkpt><trkpt lat="31.33187419416382" lon="-7.379037182105001"><ele>1709.6666666666665</ele><time>2026-04-24T10:41:18.999Z</time></trkpt><trkpt lat="31.33169250435613" lon="-7.379004444886983"><ele>1709.3333333333333</ele><time>2026-04-24T10:41:19.999Z</time></trkpt><trkpt lat="31.331506400044894" lon="-7.378974597821688"><ele>1709.0</ele><time>2026-04-24T10:41:20.999Z</time></trkpt><trkpt lat="31.33132690016173" lon="-7.378947574405473"><ele>1711.3333333333333</ele><time>2026-04-24T10:41:21.999Z</time></trkpt><trkpt lat="31.331153655107286" lon="-7.378916202699595"><ele>1713.6666666666665</ele><time>2026-04-24T10:41:23Z</time></trkpt><trkpt lat="31.3309865811327" lon="-7.378886967735769"><ele>1716.0</ele><time>2026-04-24T10:41:24Z</time></trkpt><trkpt lat="31.33082481909329" lon="-7.378862430411044"><ele>1719.6666666666665</ele><time>2026-04-24T10:41:25Z</time></trkpt><trkpt lat="31.33066444600673" lon="-7.37884151976695"><ele>1723.3333333333333</ele><time>2026-04-24T10:41:26Z</time></trkpt><trkpt lat="31.330505157958182" lon="-7.3788269908166875"><ele>1727.0</ele><time>2026-04-24T10:41:27Z</time></trkpt><trkpt lat="31.33035214361791" lon="-7.378832380311641"><ele>1725.5</ele><time>2026-04-24T10:41:28Z</time></trkpt><trkpt lat="31.33020263198984" lon="-7.3788537375487175"><ele>1724.0</ele><time>2026-04-24T10:41:29Z</time></trkpt><trkpt lat="31.330060387355637" lon="-7.378878733474414"><ele>1722.5</ele><time>2026-04-24T10:41:30Z</time></trkpt><trkpt lat="31.329923416541984" lon="-7.378891655402891"><ele>1721.0</ele><time>2026-04-24T10:41:31Z</time></trkpt><trkpt lat="31.3297910567139" lon="-7.378878379583826"><ele>1721.25</ele><time>2026-04-24T10:41:32Z</time></trkpt><trkpt lat="31.329671251780884" lon="-7.378823559615676"><ele>1721.5</ele><time>2026-04-24T10:41:33Z</time></trkpt><trkpt lat="31.329582477189323" lon="-7.378731175935447"><ele>1721.75</ele><time>2026-04-24T10:41:34Z</time></trkpt><trkpt lat="31.32952850776718" lon="-7.378608256873726"><ele>1722.0</ele><time>2026-04-24T10:41:35Z</time></trkpt><trkpt lat="31.32950950270067" lon="-7.378456564475336"><ele>1722.0</ele><time>2026-04-24T10:41:36Z</time></trkpt><trkpt lat="31.329525606417338" lon="-7.378292246375671"><ele>1722.0</ele><time>2026-04-24T10:41:37Z</time></trkpt><trkpt lat="31.329552979768508" lon="-7.378143017036035"><ele>1722.0</ele><time>2026-04-24T10:41:38Z</time></trkpt><trkpt lat="31.329570518005358" lon="-7.378004732730298"><ele>1722.0</ele><time>2026-04-24T10:41:39Z</time></trkpt><trkpt lat="31.329575455580994" lon="-7.377871348575013"><ele>1723.1999999999998</ele><time>2026-04-24T10:41:40Z</time></trkpt><trkpt lat="31.329558063509804" lon="-7.377739039828295"><ele>1724.3999999999999</ele><time>2026-04-24T10:41:41Z</time></trkpt><trkpt lat="31.329515003378603" lon="-7.377618545278652"><ele>1725.6000000000001</ele><time>2026-04-24T10:41:42Z</time></trkpt><trkpt lat="31.3294607746318" lon="-7.3775282675193745"><ele>1726.8000000000002</ele><time>2026-04-24T10:41:43Z</time></trkpt><trkpt lat="31.329397833887686" lon="-7.377457347435814"><ele>1728.0</ele><time>2026-04-24T10:41:44Z</time></trkpt><trkpt lat="31.32932443372028" lon="-7.37739633472672"><ele>1728.0</ele><time>2026-04-24T10:41:45Z</time></trkpt><trkpt lat="31.329237704748536" lon="-7.37734904581326"><ele>1728.0000000000002</ele><time>2026-04-24T10:41:46Z</time></trkpt><trkpt lat="31.329142137355444" lon="-7.377306283142527"><ele>1728.0000000000002</ele><time>2026-04-24T10:41:47Z</time></trkpt><trkpt lat="31.329043773896668" lon="-7.377261124574144"><ele>1728.0</ele><time>2026-04-24T10:41:48Z</time></trkpt><trkpt lat="31.328945469014325" lon="-7.377217304074117"><ele>1728.0</ele><time>2026-04-24T10:41:49Z</time></trkpt><trkpt lat="31.328849013045172" lon="-7.377173107583748"><ele>1729.0</ele><time>2026-04-24T10:41:50Z</time></trkpt><trkpt lat="31.328756712811362" lon="-7.377128329497829"><ele>1730.0000000000002</ele><time>2026-04-24T10:41:51Z</time></trkpt><trkpt lat="31.32866376559735" lon="-7.377087768447557"><ele>1731.0000000000002</ele><time>2026-04-24T10:41:52Z</time></trkpt><trkpt lat="31.328571675327527" lon="-7.377049602037847"><ele>1732.0</ele><time>2026-04-24T10:41:53Z</time></trkpt><trkpt lat="31.32848115537999" lon="-7.377016070699535"><ele>1733.0</ele><time>2026-04-24T10:41:54Z</time></trkpt><trkpt lat="31.328389789059838" lon="-7.376995974066752"><ele>1733.0</ele><time>2026-04-24T10:41:55Z</time></trkpt><trkpt lat="31.328298587474727" lon="-7.377009185833229"><ele>1733.0000000000002</ele><time>2026-04-24T10:41:56Z</time></trkpt><trkpt lat="31.32821505067217" lon="-7.37705946294521"><ele>1733.0000000000002</ele><time>2026-04-24T10:41:57Z</time></trkpt><trkpt lat="31.328147086012756" lon="-7.377135842256675"><ele>1733.0</ele><time>2026-04-24T10:41:58Z</time></trkpt><trkpt lat="31.32810088492135" lon="-7.377231331070259"><ele>1733.0</ele><time>2026-04-24T10:41:59Z</time></trkpt><trkpt lat="31.32808504946276" lon="-7.377340760574106"><ele>1733.4</ele><time>2026-04-24T10:42:00Z</time></trkpt><trkpt lat="31.328089186204753" lon="-7.377447879733547"><ele>1733.8000000000002</ele><time>2026-04-24T10:42:01Z</time></trkpt><trkpt lat="31.3281217852601" lon="-7.377553640309671"><ele>1734.2</ele><time>2026-04-24T10:42:02Z</time></trkpt><trkpt lat="31.328186019958338" lon="-7.3776510695661495"><ele>1734.6</ele><time>2026-04-24T10:42:03Z</time></trkpt><trkpt lat="31.328272227304456" lon="-7.3777325537096345"><ele>1735.0</ele><time>2026-04-24T10:42:04Z</time></trkpt><trkpt lat="31.32837443227285" lon="-7.377811053081298"><ele>1735.0</ele><time>2026-04-24T10:42:05Z</time></trkpt><trkpt lat="31.32847443140447" lon="-7.377893795253966"><ele>1735.0</ele><time>2026-04-24T10:42:06Z</time></trkpt><trkpt lat="31.328566155193368" lon="-7.377981422064224"><ele>1735.0</ele><time>2026-04-24T10:42:07Z</time></trkpt><trkpt lat="31.328627304557884" lon="-7.378086025344042"><ele>1735.0</ele><time>2026-04-24T10:42:08Z</time></trkpt><trkpt lat="31.32864972340802" lon="-7.378202733859009"><ele>1736.4</ele><time>2026-04-24T10:42:09Z</time></trkpt><trkpt lat="31.328636386039282" lon="-7.378317478188117"><ele>1737.8</ele><time>2026-04-24T10:42:10Z</time></trkpt><trkpt lat="31.328580300909906" lon="-7.378415893313659"><ele>1739.1999999999998</ele><time>2026-04-24T10:42:11Z</time></trkpt><trkpt lat="31.328501305916106" lon="-7.378503663971585"><ele>1740.6</ele><time>2026-04-24T10:42:12Z</time></trkpt><trkpt lat="31.328405070609" lon="-7.378589667493873"><ele>1742.0</ele><time>2026-04-24T10:42:13Z</time></trkpt><trkpt lat="31.32829697608765" lon="-7.378679388699299"><ele>1742.0</ele><time>2026-04-24T10:42:14Z</time></trkpt><trkpt lat="31.328181237732093" lon="-7.3787737532896704"><ele>1742.0</ele><time>2026-04-24T10:42:15Z</time></trkpt><trkpt lat="31.32806611444807" lon="-7.378874551876294"><ele>1742.0</ele><time>2026-04-24T10:42:16Z</time></trkpt><trkpt lat="31.32794882548412" lon="-7.3789761527283835"><ele>1742.0</ele><time>2026-04-24T10:42:17Z</time></trkpt><trkpt lat="31.32782863857377" lon="-7.3790653414157354"><ele>1744.25</ele><time>2026-04-24T10:42:18Z</time></trkpt><trkpt lat="31.327707186662483" lon="-7.3791322347261445"><ele>1746.5</ele><time>2026-04-24T10:42:19Z</time></trkpt><trkpt lat="31.32757880257196" lon="-7.379172747449503"><ele>1748.75</ele><time>2026-04-24T10:42:20Z</time></trkpt><trkpt lat="31.327440915638242" lon="-7.379183793496577"><ele>1751.0</ele><time>2026-04-24T10:42:21Z</time></trkpt><trkpt lat="31.32730178471591" lon="-7.3791819645343715"><ele>1753.0</ele><time>2026-04-24T10:42:22Z</time></trkpt><trkpt lat="31.327161335866332" lon="-7.379170529465241"><ele>1755.0</ele><time>2026-04-24T10:42:23Z</time></trkpt><trkpt lat="31.327020779515774" lon="-7.379160934557396"><ele>1757.0</ele><time>2026-04-24T10:42:24Z</time></trkpt><trkpt lat="31.326873228619128" lon="-7.379155373322291"><ele>1759.0</ele><time>2026-04-24T10:42:25Z</time></trkpt><trkpt lat="31.326729000765557" lon="-7.379148462737289"><ele>1759.0</ele><time>2026-04-24T10:42:26Z</time></trkpt><trkpt lat="31.32659033591172" lon="-7.3791413433256166"><ele>1759.0</ele><time>2026-04-24T10:42:27Z</time></trkpt><trkpt lat="31.326469228901782" lon="-7.37913639628122"><ele>1759.0</ele><time>2026-04-24T10:42:28Z</time></trkpt><trkpt lat="31.326362511414754" lon="-7.379139773688257"><ele>1759.0</ele><time>2026-04-24T10:42:29Z</time></trkpt><trkpt lat="31.32627797992643" lon="-7.379159858336033"><ele>1761.1666666666667</ele><time>2026-04-24T10:42:30Z</time></trkpt><trkpt lat="31.326209509206706" lon="-7.379205501170439"><ele>1763.3333333333335</ele><time>2026-04-24T10:42:31Z</time></trkpt><trkpt lat="31.326161454746188" lon="-7.3792785113714"><ele>1765.5</ele><time>2026-04-24T10:42:32Z</time></trkpt><trkpt lat="31.326144583742796" lon="-7.3793673205130155"><ele>1767.6666666666665</ele><time>2026-04-24T10:42:33Z</time></trkpt><trkpt lat="31.326163467151257" lon="-7.3794545644807545"><ele>1769.8333333333333</ele><time>2026-04-24T10:42:34Z</time></trkpt><trkpt lat="31.3262049874817" lon="-7.379528693442748"><ele>1772.0</ele><time>2026-04-24T10:42:35Z</time></trkpt><trkpt lat="31.326274229975596" lon="-7.37958571218363"><ele>1772.0</ele><time>2026-04-24T10:42:35.999Z</time></trkpt><trkpt lat="31.326365587482087" lon="-7.3796252584695"><ele>1772.0</ele><time>2026-04-24T10:42:36.999Z</time></trkpt><trkpt lat="31.326467517134557" lon="-7.379661431202431"><ele>1772.0</ele><time>2026-04-24T10:42:37.999Z</time></trkpt><trkpt lat="31.32658822460042" lon="-7.379698201008002"><ele>1772.0</ele><time>2026-04-24T10:42:38.999Z</time></trkpt><trkpt lat="31.326728849874293" lon="-7.3797410265365"><ele>1772.6666666666665</ele><time>2026-04-24T10:42:39.999Z</time></trkpt><trkpt lat="31.326869643607743" lon="-7.3797871671207025"><ele>1773.3333333333335</ele><time>2026-04-24T10:42:40.999Z</time></trkpt><trkpt lat="31.32701523388522" lon="-7.3798384294200865"><ele>1774.0</ele><time>2026-04-24T10:42:41.999Z</time></trkpt><trkpt lat="31.32716371943075" lon="-7.379891079456902"><ele>1770.75</ele><time>2026-04-24T10:42:42.999Z</time></trkpt><trkpt lat="31.327306276297534" lon="-7.3799404400737245"><ele>1767.5</ele><time>2026-04-24T10:42:43.999Z</time></trkpt><trkpt lat="31.327442298396495" lon="-7.380000478430304"><ele>1764.25</ele><time>2026-04-24T10:42:44.999Z</time></trkpt><trkpt lat="31.327563474522798" lon="-7.3800925313945545"><ele>1761.0</ele><time>2026-04-24T10:42:45.999Z</time></trkpt><trkpt lat="31.327664568948453" lon="-7.380211283820303"><ele>1761.0</ele><time>2026-04-24T10:42:46.999Z</time></trkpt><trkpt lat="31.32774910414614" lon="-7.380338283326975"><ele>1761.0</ele><time>2026-04-24T10:42:47.999Z</time></trkpt><trkpt lat="31.3278252803619" lon="-7.380458996392388"><ele>1761.0</ele><time>2026-04-24T10:42:48.999Z</time></trkpt><trkpt lat="31.327920472302015" lon="-7.380533496264515"><ele>1761.0</ele><time>2026-04-24T10:42:49.999Z</time></trkpt><trkpt lat="31.328008949745414" lon="-7.380581615892627"><ele>1760.0</ele><time>2026-04-24T10:42:50.999Z</time></trkpt><trkpt lat="31.32809683329811" lon="-7.380572185624514"><ele>1759.0</ele><time>2026-04-24T10:42:51.999Z</time></trkpt><trkpt lat="31.328176965345204" lon="-7.380551392268683"><ele>1758.0</ele><time>2026-04-24T10:42:52.999Z</time></trkpt><trkpt lat="31.328235206216743" lon="-7.380481014040193"><ele>1757.0</ele><time>2026-04-24T10:42:53.999Z</time></trkpt><trkpt lat="31.328294071789006" lon="-7.3803935052298515"><ele>1756.0</ele><time>2026-04-24T10:42:54.999Z</time></trkpt><trkpt lat="31.32835940793182" lon="-7.380306615074675"><ele>1755.0</ele><time>2026-04-24T10:42:55.999Z</time></trkpt><trkpt lat="31.32841441348034" lon="-7.38020587060729"><ele>1755.0</ele><time>2026-04-24T10:42:56.999Z</time></trkpt><trkpt lat="31.328503854124925" lon="-7.38013278235053"><ele>1755.0</ele><time>2026-04-24T10:42:57.999Z</time></trkpt><trkpt lat="31.328620096466395" lon="-7.3801010877508215"><ele>1755.0</ele><time>2026-04-24T10:42:58.999Z</time></trkpt><trkpt lat="31.32874087398099" lon="-7.38014628273108"><ele>1755.0</ele><time>2026-04-24T10:42:59.999Z</time></trkpt><trkpt lat="31.328857485823615" lon="-7.380191552109399"><ele>1755.75</ele><time>2026-04-24T10:43:00.999Z</time></trkpt><trkpt lat="31.328983244409642" lon="-7.38022563754419"><ele>1756.5</ele><time>2026-04-24T10:43:01.999Z</time></trkpt><trkpt lat="31.32910125943565" lon="-7.380283278592571"><ele>1757.25</ele><time>2026-04-24T10:43:02.999Z</time></trkpt><trkpt lat="31.329215261022416" lon="-7.380349453557188"><ele>1758.0</ele><time>2026-04-24T10:43:03.999Z</time></trkpt><trkpt lat="31.32934330767407" lon="-7.380363605604764"><ele>1758.0</ele><time>2026-04-24T10:43:04.999Z</time></trkpt><trkpt lat="31.32947067498612" lon="-7.3803587581597325"><ele>1758.0</ele><time>2026-04-24T10:43:05.999Z</time></trkpt><trkpt lat="31.329597831457647" lon="-7.3803517141713995"><ele>1758.0</ele><time>2026-04-24T10:43:06.999Z</time></trkpt><trkpt lat="31.329720678387364" lon="-7.380348215020606"><ele>1758.0</ele><time>2026-04-24T10:43:07.999Z</time></trkpt><trkpt lat="31.329832994170832" lon="-7.380342938848643"><ele>1757.8000000000002</ele><time>2026-04-24T10:43:08.999Z</time></trkpt><trkpt lat="31.329940564895967" lon="-7.380342720043917"><ele>1757.6000000000001</ele><time>2026-04-24T10:43:09.999Z</time></trkpt><trkpt lat="31.330046150802616" lon="-7.380363346761833"><ele>1757.3999999999999</ele><time>2026-04-24T10:43:10.999Z</time></trkpt><trkpt lat="31.33014724749028" lon="-7.380411919471486"><ele>1757.1999999999998</ele><time>2026-04-24T10:43:11.999Z</time></trkpt><trkpt lat="31.33023723326386" lon="-7.380488378649225"><ele>1757.0</ele><time>2026-04-24T10:43:12.999Z</time></trkpt><trkpt lat="31.330316335149963" lon="-7.380586062711015"><ele>1762.0</ele><time>2026-04-24T10:43:13.999Z</time></trkpt><trkpt lat="31.330426556980576" lon="-7.380683688065238"><ele>1767.0</ele><time>2026-04-24T10:43:14.999Z</time></trkpt><trkpt lat="31.33054746501078" lon="-7.380814892058227"><ele>1772.0</ele><time>2026-04-24T10:43:15.999Z</time></trkpt><trkpt lat="31.330674815599025" lon="-7.380954465086897"><ele>1772.0</ele><time>2026-04-24T10:43:16.999Z</time></trkpt><trkpt lat="31.330789393591502" lon="-7.381088662366302"><ele>1772.0</ele><time>2026-04-24T10:43:17.999Z</time></trkpt><trkpt lat="31.330885021965813" lon="-7.381224814120132"><ele>1772.0</ele><time>2026-04-24T10:43:18.999Z</time></trkpt><trkpt lat="31.330952966369267" lon="-7.381381188698219"><ele>1779.3333333333333</ele><time>2026-04-24T10:43:19.999Z</time></trkpt><trkpt lat="31.331010653585423" lon="-7.381546370670205"><ele>1786.6666666666665</ele><time>2026-04-24T10:43:20.999Z</time></trkpt><trkpt lat="31.331068423181026" lon="-7.381722089943526"><ele>1794.0</ele><time>2026-04-24T10:43:21.999Z</time></trkpt><trkpt lat="31.331125519633336" lon="-7.3819065745356465"><ele>1794.0</ele><time>2026-04-24T10:43:22.999Z</time></trkpt><trkpt lat="31.33118033654419" lon="-7.382087522075369"><ele>1794.0</ele><time>2026-04-24T10:43:23.999Z</time></trkpt><trkpt lat="31.331240353629823" lon="-7.382264666018745"><ele>1794.0</ele><time>2026-04-24T10:43:24.999Z</time></trkpt><trkpt lat="31.331305381467473" lon="-7.382449997079848"><ele>1797.0</ele><time>2026-04-24T10:43:25.999Z</time></trkpt><trkpt lat="31.331366682134583" lon="-7.382644325103541"><ele>1800.0</ele><time>2026-04-24T10:43:26.999Z</time></trkpt><trkpt lat="31.331424428028622" lon="-7.38283997938178"><ele>1803.0</ele><time>2026-04-24T10:43:27.999Z</time></trkpt><trkpt lat="31.33147686660699" lon="-7.383030252472499"><ele>1798.0</ele><time>2026-04-24T10:43:29Z</time></trkpt><trkpt lat="31.331525148918814" lon="-7.383209482066147"><ele>1793.0</ele><time>2026-04-24T10:43:30Z</time></trkpt><trkpt lat="31.33156354211154" lon="-7.383367564109417"><ele>1788.0</ele><time>2026-04-24T10:43:31Z</time></trkpt><trkpt lat="31.33159721159176" lon="-7.383503866337949"><ele>1783.0</ele><time>2026-04-24T10:43:32Z</time></trkpt><trkpt lat="31.331628668396036" lon="-7.383620758859449"><ele>1783.0</ele><time>2026-04-24T10:43:33Z</time></trkpt><trkpt lat="31.331659008784914" lon="-7.383735996202462"><ele>1783.0000000000002</ele><time>2026-04-24T10:43:34Z</time></trkpt><trkpt lat="31.331663138089777" lon="-7.383849903968649"><ele>1783.0000000000002</ele><time>2026-04-24T10:43:35Z</time></trkpt><trkpt lat="31.331621181820744" lon="-7.383969268301162"><ele>1783.0</ele><time>2026-04-24T10:43:36Z</time></trkpt><trkpt lat="31.331532193461765" lon="-7.384042094220233"><ele>1783.0</ele><time>2026-04-24T10:43:37Z</time></trkpt><trkpt lat="31.331417465748554" lon="-7.3840159246400345"><ele>1784.4</ele><time>2026-04-24T10:43:38Z</time></trkpt><trkpt lat="31.33134057215621" lon="-7.383963410106703"><ele>1785.8000000000002</ele><time>2026-04-24T10:43:39Z</time></trkpt><trkpt lat="31.331279908867053" lon="-7.383903852621843"><ele>1787.2</ele><time>2026-04-24T10:43:40Z</time></trkpt><trkpt lat="31.331240522985187" lon="-7.383814139918992"><ele>1788.6</ele><time>2026-04-24T10:43:41Z</time></trkpt><trkpt lat="31.331215716230915" lon="-7.383702414283215"><ele>1790.0</ele><time>2026-04-24T10:43:42Z</time></trkpt><trkpt lat="31.331193444539508" lon="-7.383562180810434"><ele>1793.25</ele><time>2026-04-24T10:43:43Z</time></trkpt><trkpt lat="31.331162743003514" lon="-7.383407584463767"><ele>1796.5</ele><time>2026-04-24T10:43:44Z</time></trkpt><trkpt lat="31.33112425829274" lon="-7.383245801442404"><ele>1799.75</ele><time>2026-04-24T10:43:45Z</time></trkpt><trkpt lat="31.3310787664135" lon="-7.383086387567531"><ele>1803.0</ele><time>2026-04-24T10:43:46Z</time></trkpt><trkpt lat="31.331025381022194" lon="-7.382936940395023"><ele>1803.0</ele><time>2026-04-24T10:43:47Z</time></trkpt><trkpt lat="31.330958382222256" lon="-7.382794896819587"><ele>1803.0</ele><time>2026-04-24T10:43:48Z</time></trkpt><trkpt lat="31.330880119350084" lon="-7.3826600703054694"><ele>1803.0</ele><time>2026-04-24T10:43:49Z</time></trkpt><trkpt lat="31.330787773330485" lon="-7.382530839653988"><ele>1803.0</ele><time>2026-04-24T10:43:50Z</time></trkpt><trkpt lat="31.330678835952682" lon="-7.382407978287247"><ele>1803.0</ele><time>2026-04-24T10:43:51Z</time></trkpt><trkpt lat="31.330559819329594" lon="-7.3822873077454005"><ele>1803.0</ele><time>2026-04-24T10:43:52Z</time></trkpt><trkpt lat="31.330434515939228" lon="-7.382158978855465"><ele>1803.0</ele><time>2026-04-24T10:43:53Z</time></trkpt><trkpt lat="31.33030473612059" lon="-7.382025907280457"><ele>1807.0</ele><time>2026-04-24T10:43:54Z</time></trkpt><trkpt lat="31.330169908151614" lon="-7.381888208992258"><ele>1811.0</ele><time>2026-04-24T10:43:55Z</time></trkpt><trkpt lat="31.330033604303214" lon="-7.381749198067126"><ele>1815.0</ele><time>2026-04-24T10:43:56Z</time></trkpt><trkpt lat="31.329898505356446" lon="-7.381612646782569"><ele>1815.0</ele><time>2026-04-24T10:43:57Z</time></trkpt><trkpt lat="31.32976801117633" lon="-7.3814813327375965"><ele>1815.0</ele><time>2026-04-24T10:43:58Z</time></trkpt><trkpt lat="31.32964648424293" lon="-7.381359166215093"><ele>1815.0</ele><time>2026-04-24T10:43:59Z</time></trkpt><trkpt lat="31.329531958607966" lon="-7.381248445808735"><ele>1812.75</ele><time>2026-04-24T10:44:00Z</time></trkpt><trkpt lat="31.329420536746593" lon="-7.381160917467165"><ele>1810.5</ele><time>2026-04-24T10:44:01Z</time></trkpt><trkpt lat="31.3293068809024" lon="-7.381105690399984"><ele>1808.25</ele><time>2026-04-24T10:44:02Z</time></trkpt><trkpt lat="31.329185548275746" lon="-7.3810779899162275"><ele>1806.0</ele><time>2026-04-24T10:44:03Z</time></trkpt><trkpt lat="31.329064312933184" lon="-7.381075401809064"><ele>1806.0</ele><time>2026-04-24T10:44:04Z</time></trkpt><trkpt lat="31.3289538927795" lon="-7.381122496042908"><ele>1806.0</ele><time>2026-04-24T10:44:05Z</time></trkpt><trkpt lat="31.328850670705176" lon="-7.381192018918411"><ele>1806.0</ele><time>2026-04-24T10:44:06Z</time></trkpt><trkpt lat="31.328780709988237" lon="-7.381289016342736"><ele>1806.0</ele><time>2026-04-24T10:44:07Z</time></trkpt><trkpt lat="31.328712727199395" lon="-7.381388905350251"><ele>1808.75</ele><time>2026-04-24T10:44:08Z</time></trkpt><trkpt lat="31.328644454564436" lon="-7.381494892388214"><ele>1811.5</ele><time>2026-04-24T10:44:09Z</time></trkpt><trkpt lat="31.328551415099206" lon="-7.381588695791953"><ele>1814.25</ele><time>2026-04-24T10:44:10Z</time></trkpt><trkpt lat="31.32844373857704" lon="-7.381673487680315"><ele>1817.0</ele><time>2026-04-24T10:44:11Z</time></trkpt><trkpt lat="31.328311345659625" lon="-7.381729190069575"><ele>1817.0</ele><time>2026-04-24T10:44:12Z</time></trkpt><trkpt lat="31.328175343273088" lon="-7.381775862246936"><ele>1817.0</ele><time>2026-04-24T10:44:13Z</time></trkpt><trkpt lat="31.32800909500098" lon="-7.381782751114076"><ele>1817.0</ele><time>2026-04-24T10:44:14Z</time></trkpt><trkpt lat="31.32783447627742" lon="-7.381774936529197"><ele>1820.6666666666665</ele><time>2026-04-24T10:44:15Z</time></trkpt><trkpt lat="31.327652212515545" lon="-7.3817653595374635"><ele>1824.3333333333335</ele><time>2026-04-24T10:44:16Z</time></trkpt><trkpt lat="31.327462073385842" lon="-7.381720909886647"><ele>1828.0</ele><time>2026-04-24T10:44:17Z</time></trkpt><trkpt lat="31.327264529166605" lon="-7.381710700191711"><ele>1833.6666666666667</ele><time>2026-04-24T10:44:18Z</time></trkpt><trkpt lat="31.32705973843367" lon="-7.381696403035227"><ele>1839.3333333333335</ele><time>2026-04-24T10:44:19Z</time></trkpt><trkpt lat="31.326848850859562" lon="-7.38167102699458"><ele>1845.0</ele><time>2026-04-24T10:44:20Z</time></trkpt><trkpt lat="31.326633495613034" lon="-7.3816325181238955"><ele>1845.0</ele><time>2026-04-24T10:44:21Z</time></trkpt><trkpt lat="31.32641693172841" lon="-7.3815713423560725"><ele>1845.0</ele><time>2026-04-24T10:44:22Z</time></trkpt><trkpt lat="31.32620999641079" lon="-7.381500054986356"><ele>1845.0</ele><time>2026-04-24T10:44:23Z</time></trkpt><trkpt lat="31.326014540840404" lon="-7.381423648249291"><ele>1843.3333333333335</ele><time>2026-04-24T10:44:24Z</time></trkpt><trkpt lat="31.32582459190684" lon="-7.381347382666375"><ele>1841.6666666666667</ele><time>2026-04-24T10:44:25Z</time></trkpt><trkpt lat="31.325631723431982" lon="-7.381270249017585"><ele>1840.0</ele><time>2026-04-24T10:44:26Z</time></trkpt><trkpt lat="31.325440594603574" lon="-7.381192191072058"><ele>1840.0</ele><time>2026-04-24T10:44:27Z</time></trkpt><trkpt lat="31.32525728950695" lon="-7.381115487268296"><ele>1840.0</ele><time>2026-04-24T10:44:28Z</time></trkpt><trkpt lat="31.325079937991674" lon="-7.381042939968849"><ele>1840.0</ele><time>2026-04-24T10:44:29Z</time></trkpt><trkpt lat="31.324909500309623" lon="-7.38097410957099"><ele>1840.0</ele><time>2026-04-24T10:44:30Z</time></trkpt><trkpt lat="31.32474669164374" lon="-7.380917614320394"><ele>1840.0</ele><time>2026-04-24T10:44:31Z</time></trkpt><trkpt lat="31.32458634338212" lon="-7.3808884618799775"><ele>1840.0</ele><time>2026-04-24T10:44:32Z</time></trkpt><trkpt lat="31.32441516592934" lon="-7.380894705480922"><ele>1840.0</ele><time>2026-04-24T10:44:33Z</time></trkpt><trkpt lat="31.324237544279363" lon="-7.38092181965786"><ele>1840.0</ele><time>2026-04-24T10:44:34Z</time></trkpt><trkpt lat="31.32406004475678" lon="-7.380948582596586"><ele>1840.0</ele><time>2026-04-24T10:44:35Z</time></trkpt><trkpt lat="31.32388816391239" lon="-7.380967026689469"><ele>1842.3333333333335</ele><time>2026-04-24T10:44:36Z</time></trkpt><trkpt lat="31.32372179026721" lon="-7.380984927846777"><ele>1844.6666666666665</ele><time>2026-04-24T10:44:37Z</time></trkpt><trkpt lat="31.323560948851078" lon="-7.381003627980104"><ele>1847.0</ele><time>2026-04-24T10:44:38Z</time></trkpt><trkpt lat="31.3234078894249" lon="-7.381021601273096"><ele>1847.0</ele><time>2026-04-24T10:44:39Z</time></trkpt><trkpt lat="31.323267206859285" lon="-7.381038886889162"><ele>1847.0</ele><time>2026-04-24T10:44:39.999Z</time></trkpt><trkpt lat="31.323128176020333" lon="-7.381051971007668"><ele>1847.0</ele><time>2026-04-24T10:44:40.999Z</time></trkpt><trkpt lat="31.322990538079512" lon="-7.381055313122557"><ele>1847.0</ele><time>2026-04-24T10:44:41.999Z</time></trkpt><trkpt lat="31.322854134032077" lon="-7.381042927054751"><ele>1849.25</ele><time>2026-04-24T10:44:42.999Z</time></trkpt><trkpt lat="31.322715332824554" lon="-7.381031897555268"><ele>1851.5</ele><time>2026-04-24T10:44:43.999Z</time></trkpt><trkpt lat="31.322581565680892" lon="-7.3809672667219814"><ele>1853.75</ele><time>2026-04-24T10:44:44.999Z</time></trkpt><trkpt lat="31.322446619912046" lon="-7.380917045146086"><ele>1856.0</ele><time>2026-04-24T10:44:45.999Z</time></trkpt><trkpt lat="31.322314668205603" lon="-7.380862883651482"><ele>1855.5</ele><time>2026-04-24T10:44:46.999Z</time></trkpt><trkpt lat="31.322183330662707" lon="-7.380808179595779"><ele>1855.0</ele><time>2026-04-24T10:44:47.999Z</time></trkpt><trkpt lat="31.32205628518314" lon="-7.3807549959437635"><ele>1854.5</ele><time>2026-04-24T10:44:48.999Z</time></trkpt><trkpt lat="31.321938910094808" lon="-7.380702989345663"><ele>1854.0</ele><time>2026-04-24T10:44:49.999Z</time></trkpt><trkpt lat="31.321830696129297" lon="-7.3806538605369925"><ele>1854.0</ele><time>2026-04-24T10:44:50.999Z</time></trkpt><trkpt lat="31.321733616885894" lon="-7.380611185282978"><ele>1854.0</ele><time>2026-04-24T10:44:51.999Z</time></trkpt><trkpt lat="31.32165202018376" lon="-7.380572082772175"><ele>1854.0</ele><time>2026-04-24T10:44:52.999Z</time></trkpt><trkpt lat="31.321574427577037" lon="-7.3805412421212155"><ele>1854.0</ele><time>2026-04-24T10:44:54.999Z</time></trkpt><trkpt lat="31.321510267819626" lon="-7.380502858981398"><ele>1854.0</ele><time>2026-04-24T10:46:11Z</time></trkpt><trkpt lat="31.32156993797572" lon="-7.380538986083653"><ele>1854.0</ele><time>2026-04-24T10:46:23Z</time></trkpt><trkpt lat="31.32150053068975" lon="-7.380485268548216"><ele>1856.8000000000002</ele><time>2026-04-24T10:47:58.999Z</time></trkpt><trkpt lat="31.321427556316856" lon="-7.380381857523604"><ele>1859.6000000000001</ele><time>2026-04-24T10:48:00.999Z</time></trkpt><trkpt lat="31.321389899506766" lon="-7.380302418122758"><ele>1862.4</ele><time>2026-04-24T10:48:01.999Z</time></trkpt><trkpt lat="31.32136070811034" lon="-7.380208452320336"><ele>1865.2</ele><time>2026-04-24T10:48:02.999Z</time></trkpt><trkpt lat="31.321336499042" lon="-7.380113045512732"><ele>1868.0</ele><time>2026-04-24T10:48:03.999Z</time></trkpt><trkpt lat="31.321315139774047" lon="-7.380013359425131"><ele>1876.2</ele><time>2026-04-24T10:48:04.999Z</time></trkpt><trkpt lat="31.321296784980607" lon="-7.3799088576118494"><ele>1884.4</ele><time>2026-04-24T10:48:05.999Z</time></trkpt><trkpt lat="31.321278763433206" lon="-7.379801221177401"><ele>1892.6000000000001</ele><time>2026-04-24T10:48:06.999Z</time></trkpt><trkpt lat="31.32126000912078" lon="-7.379693483135255"><ele>1900.8000000000002</ele><time>2026-04-24T10:48:07.999Z</time></trkpt><trkpt lat="31.32124310968705" lon="-7.37958654898477"><ele>1909.0</ele><time>2026-04-24T10:48:08.999Z</time></trkpt><trkpt lat="31.321226190317926" lon="-7.379485066816209"><ele>1905.5000000000002</ele><time>2026-04-24T10:48:09.999Z</time></trkpt><trkpt lat="31.321214981208932" lon="-7.379385936837941"><ele>1902.0</ele><time>2026-04-24T10:48:10.999Z</time></trkpt><trkpt lat="31.321215985717263" lon="-7.379285417571938"><ele>1898.5</ele><time>2026-04-24T10:48:11.999Z</time></trkpt><trkpt lat="31.32123746396752" lon="-7.379186742399812"><ele>1895.0</ele><time>2026-04-24T10:48:12.999Z</time></trkpt><trkpt lat="31.321282422827473" lon="-7.379094103378626"><ele>1891.5000000000002</ele><time>2026-04-24T10:48:13.999Z</time></trkpt><trkpt lat="31.321350883252304" lon="-7.379017275828622"><ele>1888.0</ele><time>2026-04-24T10:48:14.999Z</time></trkpt><trkpt lat="31.321439890944035" lon="-7.378960147166816"><ele>1888.0</ele><time>2026-04-24T10:48:15.999Z</time></trkpt><trkpt lat="31.321541846728437" lon="-7.3789151668179995"><ele>1888.0</ele><time>2026-04-24T10:48:16.999Z</time></trkpt><trkpt lat="31.321649654321213" lon="-7.3788720595641335"><ele>1888.0</ele><time>2026-04-24T10:48:17.999Z</time></trkpt><trkpt lat="31.321757353776114" lon="-7.3788258980580705"><ele>1888.0</ele><time>2026-04-24T10:48:18.999Z</time></trkpt><trkpt lat="31.321860305452535" lon="-7.378771504222417"><ele>1893.5</ele><time>2026-04-24T10:48:19.999Z</time></trkpt><trkpt lat="31.32195610696435" lon="-7.378707146705924"><ele>1899.0</ele><time>2026-04-24T10:48:20.999Z</time></trkpt><trkpt lat="31.322048298453737" lon="-7.378638235131272"><ele>1904.5</ele><time>2026-04-24T10:48:21.999Z</time></trkpt><trkpt lat="31.32214463038954" lon="-7.378569762498397"><ele>1910.0</ele><time>2026-04-24T10:48:22.999Z</time></trkpt><trkpt lat="31.322250922986797" lon="-7.378506800059463"><ele>1910.0</ele><time>2026-04-24T10:48:23.999Z</time></trkpt><trkpt lat="31.322375019793203" lon="-7.3784583224663525"><ele>1910.0</ele><time>2026-04-24T10:48:24.999Z</time></trkpt><trkpt lat="31.322510579328423" lon="-7.378428352474077"><ele>1910.0</ele><time>2026-04-24T10:48:25.999Z</time></trkpt><trkpt lat="31.322636591423485" lon="-7.378407092900043"><ele>1910.0</ele><time>2026-04-24T10:48:26.999Z</time></trkpt><trkpt lat="31.322761843910342" lon="-7.378362358347296"><ele>1910.0</ele><time>2026-04-24T10:48:27.999Z</time></trkpt><trkpt lat="31.32288189075316" lon="-7.378283608266895"><ele>1910.0</ele><time>2026-04-24T10:48:28.999Z</time></trkpt><trkpt lat="31.323013807699315" lon="-7.378186395350086"><ele>1910.0</ele><time>2026-04-24T10:48:29.999Z</time></trkpt><trkpt lat="31.323120193009018" lon="-7.378053581649343"><ele>1910.0</ele><time>2026-04-24T10:48:30.999Z</time></trkpt><trkpt lat="31.32325316791509" lon="-7.377919529532564"><ele>1913.0</ele><time>2026-04-24T10:48:31.999Z</time></trkpt><trkpt lat="31.32337365238095" lon="-7.377792298280187"><ele>1916.0</ele><time>2026-04-24T10:48:32.999Z</time></trkpt><trkpt lat="31.323474260909034" lon="-7.37767524226663"><ele>1919.0</ele><time>2026-04-24T10:48:33.999Z</time></trkpt><trkpt lat="31.323579773012302" lon="-7.377571360961359"><ele>1922.0</ele><time>2026-04-24T10:48:34.999Z</time></trkpt><trkpt lat="31.32363018953979" lon="-7.3774207913661805"><ele>1922.0</ele><time>2026-04-24T10:48:35.999Z</time></trkpt><trkpt lat="31.323668826311845" lon="-7.3772724885635235"><ele>1922.0</ele><time>2026-04-24T10:48:36.999Z</time></trkpt><trkpt lat="31.32371290155925" lon="-7.377113310271909"><ele>1922.0</ele><time>2026-04-24T10:48:37.999Z</time></trkpt><trkpt lat="31.32377504394609" lon="-7.376958405047531"><ele>1922.0</ele><time>2026-04-24T10:48:38.999Z</time></trkpt><trkpt lat="31.32384898058469" lon="-7.376801164908541"><ele>1917.25</ele><time>2026-04-24T10:48:39.999Z</time></trkpt><trkpt lat="31.32393287649909" lon="-7.376669909789256"><ele>1912.5</ele><time>2026-04-24T10:48:40.999Z</time></trkpt><trkpt lat="31.323959973082175" lon="-7.376525712630472"><ele>1907.75</ele><time>2026-04-24T10:48:41.999Z</time></trkpt><trkpt lat="31.32394975181076" lon="-7.376410039384758"><ele>1903.0</ele><time>2026-04-24T10:48:42.999Z</time></trkpt><trkpt lat="31.323894274786124" lon="-7.376335724412687"><ele>1903.0</ele><time>2026-04-24T10:48:43.999Z</time></trkpt><trkpt lat="31.32383560192648" lon="-7.376286785397965"><ele>1903.0000000000002</ele><time>2026-04-24T10:48:44.999Z</time></trkpt><trkpt lat="31.32375790791584" lon="-7.376273308318908"><ele>1903.0000000000002</ele><time>2026-04-24T10:48:45.999Z</time></trkpt><trkpt lat="31.323666662088065" lon="-7.376287805515891"><ele>1903.0</ele><time>2026-04-24T10:48:46.999Z</time></trkpt><trkpt lat="31.323565674774187" lon="-7.376320607501965"><ele>1903.0</ele><time>2026-04-24T10:48:47.999Z</time></trkpt><trkpt lat="31.32345548194241" lon="-7.376361568159933"><ele>1909.75</ele><time>2026-04-24T10:48:48.999Z</time></trkpt><trkpt lat="31.323337091837832" lon="-7.376389906612113"><ele>1916.5</ele><time>2026-04-24T10:48:49.999Z</time></trkpt><trkpt lat="31.323207244185408" lon="-7.376399583722106"><ele>1923.25</ele><time>2026-04-24T10:48:50.999Z</time></trkpt><trkpt lat="31.323068566430397" lon="-7.3763932951028295"><ele>1930.0</ele><time>2026-04-24T10:48:51.999Z</time></trkpt><trkpt lat="31.32292401093145" lon="-7.376376536197519"><ele>1934.3333333333335</ele><time>2026-04-24T10:48:52.999Z</time></trkpt><trkpt lat="31.32277179464394" lon="-7.37635410978659"><ele>1938.6666666666665</ele><time>2026-04-24T10:48:53.999Z</time></trkpt><trkpt lat="31.322604392361143" lon="-7.376331967514112"><ele>1943.0</ele><time>2026-04-24T10:48:54.999Z</time></trkpt><trkpt lat="31.32242757238236" lon="-7.376310140716428"><ele>1934.0</ele><time>2026-04-24T10:48:55.999Z</time></trkpt><trkpt lat="31.322243271698227" lon="-7.376311945686058"><ele>1925.0</ele><time>2026-04-24T10:48:56.999Z</time></trkpt><trkpt lat="31.322059876056187" lon="-7.376292858298426"><ele>1916.0</ele><time>2026-04-24T10:48:57.999Z</time></trkpt><trkpt lat="31.32188524146898" lon="-7.376274405163468"><ele>1916.0</ele><time>2026-04-24T10:48:58.999Z</time></trkpt><trkpt lat="31.32172041010475" lon="-7.3762567278668705"><ele>1916.0</ele><time>2026-04-24T10:48:59.999Z</time></trkpt><trkpt lat="31.3215633601629" lon="-7.376233096820959"><ele>1916.0</ele><time>2026-04-24T10:49:00.999Z</time></trkpt><trkpt lat="31.32141486330474" lon="-7.376209649946323"><ele>1917.5</ele><time>2026-04-24T10:49:01.999Z</time></trkpt><trkpt lat="31.32127001664814" lon="-7.376188888423785"><ele>1919.0</ele><time>2026-04-24T10:49:02.999Z</time></trkpt><trkpt lat="31.321135120285806" lon="-7.376172405728306"><ele>1920.5</ele><time>2026-04-24T10:49:03.999Z</time></trkpt><trkpt lat="31.321010007435063" lon="-7.376160317029481"><ele>1922.0</ele><time>2026-04-24T10:49:04.999Z</time></trkpt><trkpt lat="31.32090247846168" lon="-7.376152795036078"><ele>1921.9999999999998</ele><time>2026-04-24T10:49:05.999Z</time></trkpt><trkpt lat="31.320808600581355" lon="-7.376165473002374"><ele>1922.0</ele><time>2026-04-24T10:49:06.999Z</time></trkpt><trkpt lat="31.320741915342385" lon="-7.3762351438663005"><ele>1922.0</ele><time>2026-04-24T10:49:07.999Z</time></trkpt><trkpt lat="31.320686800124616" lon="-7.376309847982406"><ele>1922.0</ele><time>2026-04-24T10:49:08.999Z</time></trkpt><trkpt lat="31.320691083337913" lon="-7.37641531684152"><ele>1921.9999999999998</ele><time>2026-04-24T10:49:09.999Z</time></trkpt><trkpt lat="31.32071723449037" lon="-7.376506373659158"><ele>1922.0</ele><time>2026-04-24T10:49:10.999Z</time></trkpt><trkpt lat="31.32077350343993" lon="-7.376582591154444"><ele>1925.3999999999999</ele><time>2026-04-24T10:49:11.999Z</time></trkpt><trkpt lat="31.32085723393875" lon="-7.376599569169931"><ele>1928.7999999999997</ele><time>2026-04-24T10:49:12.999Z</time></trkpt><trkpt lat="31.320947765051" lon="-7.37659201680798"><ele>1932.2</ele><time>2026-04-24T10:49:13.999Z</time></trkpt><trkpt lat="31.32104074727585" lon="-7.376590569220137"><ele>1935.6</ele><time>2026-04-24T10:49:14.999Z</time></trkpt><trkpt lat="31.32116339285723" lon="-7.3765885577991535"><ele>1939.0</ele><time>2026-04-24T10:49:15.999Z</time></trkpt><trkpt lat="31.32130414392417" lon="-7.376585669329474"><ele>1939.0</ele><time>2026-04-24T10:49:16.999Z</time></trkpt><trkpt lat="31.32145349468149" lon="-7.3765897025960525"><ele>1939.0</ele><time>2026-04-24T10:49:17.999Z</time></trkpt><trkpt lat="31.321608048350324" lon="-7.37659615968661"><ele>1939.0</ele><time>2026-04-24T10:49:18.999Z</time></trkpt><trkpt lat="31.321763377428802" lon="-7.37660425146579"><ele>1939.0</ele><time>2026-04-24T10:49:19.999Z</time></trkpt><trkpt lat="31.321921854146392" lon="-7.376612577515837"><ele>1939.0</ele><time>2026-04-24T10:49:20.999Z</time></trkpt><trkpt lat="31.322079438504126" lon="-7.376621224881185"><ele>1939.0</ele><time>2026-04-24T10:49:21.999Z</time></trkpt><trkpt lat="31.32223472791663" lon="-7.376629417474969"><ele>1940.0</ele><time>2026-04-24T10:49:22.999Z</time></trkpt><trkpt lat="31.32238293271772" lon="-7.376647293272819"><ele>1941.0</ele><time>2026-04-24T10:49:23.999Z</time></trkpt><trkpt lat="31.32252689436318" lon="-7.376668029843917"><ele>1942.0</ele><time>2026-04-24T10:49:24.999Z</time></trkpt><trkpt lat="31.32265908756364" lon="-7.376700249017852"><ele>1943.0</ele><time>2026-04-24T10:49:25.999Z</time></trkpt><trkpt lat="31.322770909687485" lon="-7.376735427962884"><ele>1943.0</ele><time>2026-04-24T10:49:26.999Z</time></trkpt><trkpt lat="31.32287236180238" lon="-7.3767723018474625"><ele>1943.0000000000002</ele><time>2026-04-24T10:49:27.999Z</time></trkpt><trkpt lat="31.322956803219682" lon="-7.376808414145671"><ele>1943.0000000000002</ele><time>2026-04-24T10:49:28.999Z</time></trkpt><trkpt lat="31.323054311933145" lon="-7.376864039244977"><ele>1943.0</ele><time>2026-04-24T10:49:29.999Z</time></trkpt><trkpt lat="31.32314105144203" lon="-7.376980962709151"><ele>1943.0</ele><time>2026-04-24T10:49:31.999Z</time></trkpt><trkpt lat="31.323167130768965" lon="-7.377052279973869"><ele>1943.9999999999998</ele><time>2026-04-24T10:49:33.999Z</time></trkpt><trkpt lat="31.323164880328314" lon="-7.377139707685167"><ele>1945.0</ele><time>2026-04-24T10:49:35.999Z</time></trkpt><trkpt lat="31.323128043297288" lon="-7.37723840266049"><ele>1946.0</ele><time>2026-04-24T10:49:38.998Z</time></trkpt><trkpt lat="31.323062542619844" lon="-7.377344651805699"><ele>1947.0</ele><time>2026-04-24T10:49:40.998Z</time></trkpt><trkpt lat="31.32301158622994" lon="-7.377397763924654"><ele>1947.9999999999998</ele><time>2026-04-24T10:49:41.998Z</time></trkpt><trkpt lat="31.322947646822772" lon="-7.377451885584564"><ele>1949.0</ele><time>2026-04-24T10:49:42.998Z</time></trkpt><trkpt lat="31.32287925738234" lon="-7.377506171527756"><ele>1948.9999999999998</ele><time>2026-04-24T10:49:43.998Z</time></trkpt><trkpt lat="31.322799149394594" lon="-7.377561285475557"><ele>1949.0</ele><time>2026-04-24T10:49:44.998Z</time></trkpt><trkpt lat="31.32272336556017" lon="-7.377601977952471"><ele>1949.0</ele><time>2026-04-24T10:49:46Z</time></trkpt><trkpt lat="31.322642861429532" lon="-7.377636168768493"><ele>1949.0</ele><time>2026-04-24T10:49:47Z</time></trkpt><trkpt lat="31.322554808535624" lon="-7.377649005033557"><ele>1948.9999999999998</ele><time>2026-04-24T10:49:48Z</time></trkpt><trkpt lat="31.322468155451215" lon="-7.377653330595633"><ele>1949.0</ele><time>2026-04-24T10:49:49Z</time></trkpt><trkpt lat="31.32238424787509" lon="-7.377654015125659"><ele>1948.9999999999998</ele><time>2026-04-24T10:49:50Z</time></trkpt><trkpt lat="31.32229854854386" lon="-7.377654630594203"><ele>1949.0</ele><time>2026-04-24T10:49:51Z</time></trkpt><trkpt lat="31.322211193958214" lon="-7.377639844538249"><ele>1949.0</ele><time>2026-04-24T10:49:52Z</time></trkpt><trkpt lat="31.322130747059095" lon="-7.377685664171034"><ele>1949.0</ele><time>2026-04-24T10:49:53Z</time></trkpt><trkpt lat="31.32205611959859" lon="-7.377734853146012"><ele>1948.9999999999998</ele><time>2026-04-24T10:49:54Z</time></trkpt><trkpt lat="31.321977057613104" lon="-7.377792961303362"><ele>1949.0</ele><time>2026-04-24T10:49:55Z</time></trkpt><trkpt lat="31.321880192766507" lon="-7.377844349844718"><ele>1951.0</ele><time>2026-04-24T10:49:56Z</time></trkpt><trkpt lat="31.321781362555804" lon="-7.3778738390908805"><ele>1953.0</ele><time>2026-04-24T10:49:57Z</time></trkpt><trkpt lat="31.32167916390507" lon="-7.377896319404602"><ele>1955.0</ele><time>2026-04-24T10:49:58Z</time></trkpt><trkpt lat="31.321559909915056" lon="-7.377877818250295"><ele>1957.0</ele><time>2026-04-24T10:49:59Z</time></trkpt><trkpt lat="31.32144395296683" lon="-7.377856530095068"><ele>1959.0</ele><time>2026-04-24T10:50:00Z</time></trkpt><trkpt lat="31.321326740848516" lon="-7.377851667755026"><ele>1959.0</ele><time>2026-04-24T10:50:01Z</time></trkpt><trkpt lat="31.321206328575723" lon="-7.377841009332273"><ele>1959.0</ele><time>2026-04-24T10:50:02Z</time></trkpt><trkpt lat="31.321081320954743" lon="-7.377827253658385"><ele>1959.0</ele><time>2026-04-24T10:50:03Z</time></trkpt><trkpt lat="31.32095313425225" lon="-7.377814411562726"><ele>1959.0</ele><time>2026-04-24T10:50:04Z</time></trkpt><trkpt lat="31.320826788812035" lon="-7.377804252802392"><ele>1959.0</ele><time>2026-04-24T10:50:05Z</time></trkpt><trkpt lat="31.320703041896262" lon="-7.3777928716254495"><ele>1959.0</ele><time>2026-04-24T10:50:06Z</time></trkpt><trkpt lat="31.32058040080527" lon="-7.377773666233574"><ele>1959.0</ele><time>2026-04-24T10:50:07Z</time></trkpt><trkpt lat="31.320458928411735" lon="-7.377743658191996"><ele>1959.0</ele><time>2026-04-24T10:50:08Z</time></trkpt><trkpt lat="31.320343045508128" lon="-7.377693787451092"><ele>1962.75</ele><time>2026-04-24T10:50:09Z</time></trkpt><trkpt lat="31.320225282378882" lon="-7.377638162352239"><ele>1966.5</ele><time>2026-04-24T10:50:10Z</time></trkpt><trkpt lat="31.320135593175113" lon="-7.377527826941352"><ele>1970.25</ele><time>2026-04-24T10:50:11Z</time></trkpt><trkpt lat="31.320048293073473" lon="-7.37741779681378"><ele>1974.0</ele><time>2026-04-24T10:50:12Z</time></trkpt><trkpt lat="31.31997629714355" lon="-7.377293095803822"><ele>1971.5</ele><time>2026-04-24T10:50:13Z</time></trkpt><trkpt lat="31.31991629805509" lon="-7.3771580192049395"><ele>1969.0</ele><time>2026-04-24T10:50:14Z</time></trkpt><trkpt lat="31.319859431956168" lon="-7.377019725362215"><ele>1966.5</ele><time>2026-04-24T10:50:15Z</time></trkpt><trkpt lat="31.31979612506745" lon="-7.376882622081107"><ele>1964.0</ele><time>2026-04-24T10:50:16Z</time></trkpt><trkpt lat="31.319717934326842" lon="-7.376756036622121"><ele>1972.0</ele><time>2026-04-24T10:50:17Z</time></trkpt><trkpt lat="31.31962732776356" lon="-7.37664713835249"><ele>1980.0</ele><time>2026-04-24T10:50:18Z</time></trkpt><trkpt lat="31.31952961374011" lon="-7.37655149943122"><ele>1988.0</ele><time>2026-04-24T10:50:19Z</time></trkpt><trkpt lat="31.31943026963911" lon="-7.3764611495955865"><ele>1996.0</ele><time>2026-04-24T10:50:20Z</time></trkpt><trkpt lat="31.31933214438648" lon="-7.376371255432577"><ele>1991.0</ele><time>2026-04-24T10:50:21Z</time></trkpt><trkpt lat="31.319241508524364" lon="-7.376273703527408"><ele>1986.0</ele><time>2026-04-24T10:50:22Z</time></trkpt><trkpt lat="31.3191573780628" lon="-7.376170414358693"><ele>1981.0</ele><time>2026-04-24T10:50:23Z</time></trkpt><trkpt lat="31.319085377301736" lon="-7.376063146188056"><ele>1976.0</ele><time>2026-04-24T10:50:24Z</time></trkpt><trkpt lat="31.319027836044267" lon="-7.375962840406645"><ele>1975.9999999999998</ele><time>2026-04-24T10:50:25Z</time></trkpt><trkpt lat="31.31897452567153" lon="-7.375883552961316"><ele>1976.0</ele><time>2026-04-24T10:50:26Z</time></trkpt><trkpt lat="31.31892143223548" lon="-7.375817133596241"><ele>1976.0</ele><time>2026-04-24T10:50:27Z</time></trkpt><trkpt lat="31.31886418069812" lon="-7.375772476761153"><ele>1976.0</ele><time>2026-04-24T10:50:28Z</time></trkpt><trkpt lat="31.31880138555944" lon="-7.37576059764275"><ele>1975.9999999999998</ele><time>2026-04-24T10:50:29Z</time></trkpt><trkpt lat="31.318705526452963" lon="-7.3758405234519175"><ele>1976.0</ele><time>2026-04-24T10:50:31Z</time></trkpt><trkpt lat="31.318706760474647" lon="-7.375979971851868"><ele>1976.0</ele><time>2026-04-24T10:50:33Z</time></trkpt><trkpt lat="31.318752062816326" lon="-7.376046975607125"><ele>1976.0</ele><time>2026-04-24T10:50:34Z</time></trkpt><trkpt lat="31.318817630980384" lon="-7.376114373860003"><ele>1976.0</ele><time>2026-04-24T10:50:35Z</time></trkpt><trkpt lat="31.31889110505821" lon="-7.37618972683608"><ele>1976.0</ele><time>2026-04-24T10:50:36Z</time></trkpt><trkpt lat="31.31897274404028" lon="-7.376273693178357"><ele>1976.0</ele><time>2026-04-24T10:50:37Z</time></trkpt><trkpt lat="31.31906032979898" lon="-7.376365935236106"><ele>1981.0</ele><time>2026-04-24T10:50:37.999Z</time></trkpt><trkpt lat="31.319151778110907" lon="-7.376463314052012"><ele>1986.0</ele><time>2026-04-24T10:50:38.999Z</time></trkpt><trkpt lat="31.319245830726686" lon="-7.37656243585966"><ele>1991.0</ele><time>2026-04-24T10:50:39.999Z</time></trkpt><trkpt lat="31.319336242842077" lon="-7.37665943755939"><ele>1996.0</ele><time>2026-04-24T10:50:40.999Z</time></trkpt><trkpt lat="31.31941573095768" lon="-7.37676264375241"><ele>1996.0</ele><time>2026-04-24T10:50:41.999Z</time></trkpt><trkpt lat="31.319481118407197" lon="-7.376881791734212"><ele>1996.0</ele><time>2026-04-24T10:50:42.999Z</time></trkpt><trkpt lat="31.31952587273785" lon="-7.377017463794512"><ele>1996.0</ele><time>2026-04-24T10:50:43.999Z</time></trkpt><trkpt lat="31.319557536913248" lon="-7.377158242930969"><ele>1996.0</ele><time>2026-04-24T10:50:44.999Z</time></trkpt><trkpt lat="31.31957801082361" lon="-7.377295793876646"><ele>1999.4</ele><time>2026-04-24T10:50:45.999Z</time></trkpt><trkpt lat="31.319585220985108" lon="-7.377425180199611"><ele>2002.8</ele><time>2026-04-24T10:50:46.999Z</time></trkpt><trkpt lat="31.319569586412662" lon="-7.377548247636482"><ele>2006.2000000000003</ele><time>2026-04-24T10:50:47.999Z</time></trkpt><trkpt lat="31.319527410658488" lon="-7.377660142926389"><ele>2009.6000000000001</ele><time>2026-04-24T10:50:48.999Z</time></trkpt><trkpt lat="31.319459244259384" lon="-7.377762558842788"><ele>2013.0</ele><time>2026-04-24T10:50:49.999Z</time></trkpt><trkpt lat="31.31936868907049" lon="-7.3778569322905945"><ele>2013.0</ele><time>2026-04-24T10:50:50.999Z</time></trkpt><trkpt lat="31.31926557104889" lon="-7.377947293413541"><ele>2013.0</ele><time>2026-04-24T10:50:51.999Z</time></trkpt><trkpt lat="31.319159498589443" lon="-7.378037593142492"><ele>2013.0</ele><time>2026-04-24T10:50:52.999Z</time></trkpt><trkpt lat="31.31904860723508" lon="-7.378112266467173"><ele>2013.0</ele><time>2026-04-24T10:50:53.999Z</time></trkpt><trkpt lat="31.31893269697556" lon="-7.378159141761936"><ele>2013.2</ele><time>2026-04-24T10:50:54.999Z</time></trkpt><trkpt lat="31.31882405792375" lon="-7.378182595820913"><ele>2013.4</ele><time>2026-04-24T10:50:55.999Z</time></trkpt><trkpt lat="31.3187115207186" lon="-7.37818532510111"><ele>2013.6000000000001</ele><time>2026-04-24T10:50:56.999Z</time></trkpt><trkpt lat="31.318609522530977" lon="-7.37819117193028"><ele>2013.8000000000002</ele><time>2026-04-24T10:50:57.999Z</time></trkpt><trkpt lat="31.31852319439074" lon="-7.378216312031462"><ele>2014.0</ele><time>2026-04-24T10:50:58.999Z</time></trkpt><trkpt lat="31.318458536196754" lon="-7.378266990341185"><ele>2014.0</ele><time>2026-04-24T10:50:59.999Z</time></trkpt><trkpt lat="31.31841111891106" lon="-7.378323965494205"><ele>2014.0</ele><time>2026-04-24T10:51:00.999Z</time></trkpt><trkpt lat="31.318416148858216" lon="-7.378401284326015"><ele>2014.0</ele><time>2026-04-24T10:51:01.999Z</time></trkpt><trkpt lat="31.318457410954785" lon="-7.378469314509401"><ele>2014.0</ele><time>2026-04-24T10:51:02.999Z</time></trkpt><trkpt lat="31.318519265080315" lon="-7.378506482800651"><ele>2014.0</ele><time>2026-04-24T10:51:03.999Z</time></trkpt><trkpt lat="31.31859539361261" lon="-7.37847704683139"><ele>2014.0</ele><time>2026-04-24T10:51:04.999Z</time></trkpt><trkpt lat="31.318685898357483" lon="-7.378462599531315"><ele>2014.0</ele><time>2026-04-24T10:51:05.999Z</time></trkpt><trkpt lat="31.31879702857238" lon="-7.378443010693706"><ele>2013.0</ele><time>2026-04-24T10:51:06.999Z</time></trkpt><trkpt lat="31.31891775787059" lon="-7.378426249529056"><ele>2012.0</ele><time>2026-04-24T10:51:07.999Z</time></trkpt><trkpt lat="31.31904891435559" lon="-7.3784193808100484"><ele>2011.0</ele><time>2026-04-24T10:51:08.999Z</time></trkpt><trkpt lat="31.319176416194193" lon="-7.378389606469034"><ele>2010.0</ele><time>2026-04-24T10:51:09.999Z</time></trkpt><trkpt lat="31.31929808888037" lon="-7.3783645364268615"><ele>2010.0</ele><time>2026-04-24T10:51:10.999Z</time></trkpt><trkpt lat="31.31940660441481" lon="-7.3783448053857335"><ele>2010.0</ele><time>2026-04-24T10:51:11.999Z</time></trkpt><trkpt lat="31.319501464385002" lon="-7.378330205491336"><ele>2010.0</ele><time>2026-04-24T10:51:12.999Z</time></trkpt><trkpt lat="31.319576809427986" lon="-7.378325042641937"><ele>2010.0</ele><time>2026-04-24T10:51:13.999Z</time></trkpt><trkpt lat="31.319671727519722" lon="-7.378353215929848"><ele>2010.0</ele><time>2026-04-24T10:51:15.999Z</time></trkpt><trkpt lat="31.31972377510665" lon="-7.378403969713386"><ele>2010.0</ele><time>2026-04-24T10:51:53Z</time></trkpt><trkpt lat="31.319735553139274" lon="-7.378490625871062"><ele>2010.0</ele><time>2026-04-24T10:51:55Z</time></trkpt><trkpt lat="31.319752531584236" lon="-7.378562613677811"><ele>2010.0</ele><time>2026-04-24T10:51:56Z</time></trkpt><trkpt lat="31.319726061782777" lon="-7.378663370623727"><ele>2010.0</ele><time>2026-04-24T10:51:57Z</time></trkpt><trkpt lat="31.319661865608477" lon="-7.3787397005439255"><ele>2010.0</ele><time>2026-04-24T10:51:58Z</time></trkpt><trkpt lat="31.31956482678427" lon="-7.378806361056826"><ele>2010.0</ele><time>2026-04-24T10:51:59Z</time></trkpt><trkpt lat="31.319472003335743" lon="-7.378869275846655"><ele>2008.5</ele><time>2026-04-24T10:52:00Z</time></trkpt><trkpt lat="31.31938130000331" lon="-7.378937466698516"><ele>2007.0</ele><time>2026-04-24T10:52:01Z</time></trkpt><trkpt lat="31.31927788901149" lon="-7.379007501845166"><ele>2005.5</ele><time>2026-04-24T10:52:02Z</time></trkpt><trkpt lat="31.319172883493174" lon="-7.379064494389567"><ele>2004.0</ele><time>2026-04-24T10:52:03Z</time></trkpt><trkpt lat="31.319062174857972" lon="-7.379099267332635"><ele>2004.0</ele><time>2026-04-24T10:52:04Z</time></trkpt><trkpt lat="31.318964995748974" lon="-7.379147322740772"><ele>2004.0</ele><time>2026-04-24T10:52:05Z</time></trkpt><trkpt lat="31.3188749510481" lon="-7.379171194595748"><ele>2004.0</ele><time>2026-04-24T10:52:06Z</time></trkpt><trkpt lat="31.31878453461847" lon="-7.379168209686665"><ele>2004.0</ele><time>2026-04-24T10:52:07Z</time></trkpt><trkpt lat="31.318696856818885" lon="-7.379138537017764"><ele>2004.0</ele><time>2026-04-24T10:52:08Z</time></trkpt><trkpt lat="31.318628666977776" lon="-7.379085936753407"><ele>2005.8333333333333</ele><time>2026-04-24T10:52:09Z</time></trkpt><trkpt lat="31.318544739855255" lon="-7.379035688854503"><ele>2007.6666666666665</ele><time>2026-04-24T10:52:10Z</time></trkpt><trkpt lat="31.31845735218976" lon="-7.379012352495568"><ele>2009.5</ele><time>2026-04-24T10:52:11Z</time></trkpt><trkpt lat="31.3183775448315" lon="-7.379015007524707"><ele>2011.3333333333333</ele><time>2026-04-24T10:52:12Z</time></trkpt><trkpt lat="31.318306460251396" lon="-7.379035339754045"><ele>2013.1666666666665</ele><time>2026-04-24T10:52:13Z</time></trkpt><trkpt lat="31.318237678885243" lon="-7.379062348865041"><ele>2015.0</ele><time>2026-04-24T10:52:14Z</time></trkpt><trkpt lat="31.318183398370376" lon="-7.379100879760535"><ele>2014.9999999999998</ele><time>2026-04-24T10:52:15Z</time></trkpt><trkpt lat="31.318108033228377" lon="-7.379160832825349"><ele>2015.0</ele><time>2026-04-24T10:52:17Z</time></trkpt><trkpt lat="31.318054335600973" lon="-7.379206498166319"><ele>2015.0</ele><time>2026-04-24T10:52:20Z</time></trkpt><trkpt lat="31.31802961736742" lon="-7.379276575903558"><ele>2015.0</ele><time>2026-04-24T10:52:32Z</time></trkpt><trkpt lat="31.317953996569543" lon="-7.379287120107014"><ele>2014.9999999999998</ele><time>2026-04-24T11:00:29Z</time></trkpt><trkpt lat="31.317848243379068" lon="-7.379280799610473"><ele>2015.0</ele><time>2026-04-24T11:00:32Z</time></trkpt><trkpt lat="31.31773282919343" lon="-7.37929176194183"><ele>2016.8</ele><time>2026-04-24T11:00:34Z</time></trkpt><trkpt lat="31.317611555667582" lon="-7.379304326930866"><ele>2018.6</ele><time>2026-04-24T11:00:36Z</time></trkpt><trkpt lat="31.31749142367574" lon="-7.379304458373782"><ele>2020.4</ele><time>2026-04-24T11:00:38Z</time></trkpt><trkpt lat="31.317383214138843" lon="-7.379308117689193"><ele>2022.2</ele><time>2026-04-24T11:00:40Z</time></trkpt><trkpt lat="31.317294868949496" lon="-7.379310741642665"><ele>2024.0</ele><time>2026-04-24T11:00:42Z</time></trkpt><trkpt lat="31.317226562615392" lon="-7.379307193640126"><ele>2025.1666666666665</ele><time>2026-04-24T11:00:44Z</time></trkpt><trkpt lat="31.3171637415482" lon="-7.379299812759302"><ele>2026.3333333333333</ele><time>2026-04-24T11:00:47Z</time></trkpt><trkpt lat="31.317067730582796" lon="-7.379281817316284"><ele>2027.5</ele><time>2026-04-24T11:01:10.999Z</time></trkpt><trkpt lat="31.316954587985165" lon="-7.37926232990491"><ele>2028.6666666666665</ele><time>2026-04-24T11:01:12.999Z</time></trkpt><trkpt lat="31.316880742469785" lon="-7.379254759870262"><ele>2029.8333333333333</ele><time>2026-04-24T11:01:13.999Z</time></trkpt><trkpt lat="31.316798236999002" lon="-7.3792461990329015"><ele>2031.0</ele><time>2026-04-24T11:01:14.999Z</time></trkpt><trkpt lat="31.3167129886977" lon="-7.379236434152447"><ele>2031.0</ele><time>2026-04-24T11:01:15.999Z</time></trkpt><trkpt lat="31.31662593047487" lon="-7.379225926131292"><ele>2031.0</ele><time>2026-04-24T11:01:16.999Z</time></trkpt><trkpt lat="31.316534356979638" lon="-7.379211980339857"><ele>2031.0</ele><time>2026-04-24T11:01:17.999Z</time></trkpt><trkpt lat="31.31643972284468" lon="-7.379187062047328"><ele>2031.0</ele><time>2026-04-24T11:01:18.999Z</time></trkpt><trkpt lat="31.31635066625877" lon="-7.379149341004628"><ele>2031.0</ele><time>2026-04-24T11:01:19.999Z</time></trkpt><trkpt lat="31.316270557044884" lon="-7.379093052500434"><ele>2030.0</ele><time>2026-04-24T11:01:20.999Z</time></trkpt><trkpt lat="31.31619918880132" lon="-7.379016086276721"><ele>2029.0</ele><time>2026-04-24T11:01:21.999Z</time></trkpt><trkpt lat="31.316138030965583" lon="-7.378919174370282"><ele>2028.0</ele><time>2026-04-24T11:01:22.999Z</time></trkpt><trkpt lat="31.316090198633532" lon="-7.378805461318111"><ele>2027.0</ele><time>2026-04-24T11:01:23.999Z</time></trkpt><trkpt lat="31.31604975049113" lon="-7.378682622108016"><ele>2026.0</ele><time>2026-04-24T11:01:24.999Z</time></trkpt><trkpt lat="31.31601159480837" lon="-7.378561931018536"><ele>2026.0</ele><time>2026-04-24T11:01:25.999Z</time></trkpt><trkpt lat="31.31598035315086" lon="-7.378431116054937"><ele>2026.0</ele><time>2026-04-24T11:01:26.999Z</time></trkpt><trkpt lat="31.315950306497616" lon="-7.378299603977212"><ele>2026.0</ele><time>2026-04-24T11:01:27.999Z</time></trkpt><trkpt lat="31.3159189354745" lon="-7.378167046936347"><ele>2026.0</ele><time>2026-04-24T11:01:28.999Z</time></trkpt><trkpt lat="31.31588723970412" lon="-7.378034954427771"><ele>2033.5</ele><time>2026-04-24T11:01:29.999Z</time></trkpt><trkpt lat="31.31585068801533" lon="-7.3779042807319675"><ele>2041.0</ele><time>2026-04-24T11:01:30.999Z</time></trkpt><trkpt lat="31.31580748171584" lon="-7.377779635158368"><ele>2048.5</ele><time>2026-04-24T11:01:31.999Z</time></trkpt><trkpt lat="31.31574576367466" lon="-7.377665141494681"><ele>2056.0</ele><time>2026-04-24T11:01:32.999Z</time></trkpt><trkpt lat="31.315658864469057" lon="-7.377566311200948"><ele>2048.75</ele><time>2026-04-24T11:01:33.999Z</time></trkpt><trkpt lat="31.315551253218224" lon="-7.377484896644541"><ele>2041.5</ele><time>2026-04-24T11:01:34.999Z</time></trkpt><trkpt lat="31.315432338322957" lon="-7.377415160782509"><ele>2034.25</ele><time>2026-04-24T11:01:35.999Z</time></trkpt><trkpt lat="31.31530991405556" lon="-7.377347889024224"><ele>2027.0</ele><time>2026-04-24T11:01:36.999Z</time></trkpt><trkpt lat="31.315191948585138" lon="-7.377282453758127"><ele>2027.0</ele><time>2026-04-24T11:01:37.999Z</time></trkpt><trkpt lat="31.31508853780408" lon="-7.377212495498611"><ele>2026.9999999999998</ele><time>2026-04-24T11:01:38.999Z</time></trkpt><trkpt lat="31.315003835087893" lon="-7.377125329142009"><ele>2026.9999999999998</ele><time>2026-04-24T11:01:39.999Z</time></trkpt><trkpt lat="31.31494983500526" lon="-7.377021506003136"><ele>2027.0</ele><time>2026-04-24T11:01:40.999Z</time></trkpt><trkpt lat="31.314925942598162" lon="-7.376904981395824"><ele>2027.0</ele><time>2026-04-24T11:01:41.999Z</time></trkpt><trkpt lat="31.31491599618264" lon="-7.376789771079103"><ele>2027.5</ele><time>2026-04-24T11:01:42.999Z</time></trkpt><trkpt lat="31.314960874821114" lon="-7.3766690920550415"><ele>2028.0</ele><time>2026-04-24T11:01:43.999Z</time></trkpt><trkpt lat="31.315033780466596" lon="-7.3765516310107"><ele>2028.5</ele><time>2026-04-24T11:01:44.999Z</time></trkpt><trkpt lat="31.315126373600474" lon="-7.37643996932715"><ele>2029.0</ele><time>2026-04-24T11:01:45.999Z</time></trkpt><trkpt lat="31.315223361058585" lon="-7.376324239656426"><ele>2029.0</ele><time>2026-04-24T11:01:46.999Z</time></trkpt><trkpt lat="31.315319211082958" lon="-7.376196724169989"><ele>2029.0</ele><time>2026-04-24T11:01:47.999Z</time></trkpt><trkpt lat="31.31541334044251" lon="-7.376071027031026"><ele>2029.0</ele><time>2026-04-24T11:01:48.999Z</time></trkpt><trkpt lat="31.31549227774928" lon="-7.375947583764245"><ele>2029.0</ele><time>2026-04-24T11:01:49.999Z</time></trkpt><trkpt lat="31.31554758015727" lon="-7.375818043911849"><ele>2035.5</ele><time>2026-04-24T11:01:50.999Z</time></trkpt><trkpt lat="31.315575352106226" lon="-7.3756802564778665"><ele>2042.0</ele><time>2026-04-24T11:01:51.999Z</time></trkpt><trkpt lat="31.31559038811475" lon="-7.375540439886219"><ele>2048.5</ele><time>2026-04-24T11:01:52.999Z</time></trkpt><trkpt lat="31.315548689440647" lon="-7.375410068064656"><ele>2055.0</ele><time>2026-04-24T11:01:53.999Z</time></trkpt><trkpt lat="31.315472444048062" lon="-7.375288812800852"><ele>2055.0</ele><time>2026-04-24T11:01:54.999Z</time></trkpt><trkpt lat="31.315359100022086" lon="-7.37518537421674"><ele>2055.0</ele><time>2026-04-24T11:01:55.999Z</time></trkpt><trkpt lat="31.31521483790528" lon="-7.375092182461617"><ele>2055.0</ele><time>2026-04-24T11:01:56.999Z</time></trkpt><trkpt lat="31.315046166451918" lon="-7.374985521054488"><ele>2055.0</ele><time>2026-04-24T11:01:57.999Z</time></trkpt><trkpt lat="31.31486853655485" lon="-7.374869498868905"><ele>2055.0</ele><time>2026-04-24T11:01:58.999Z</time></trkpt><trkpt lat="31.314697480763442" lon="-7.37476071949751"><ele>2055.0</ele><time>2026-04-24T11:01:59.999Z</time></trkpt><trkpt lat="31.31453814822638" lon="-7.3746598757494"><ele>2058.6666666666665</ele><time>2026-04-24T11:02:00.999Z</time></trkpt><trkpt lat="31.314391166041418" lon="-7.374563262577786"><ele>2062.333333333333</ele><time>2026-04-24T11:02:01.999Z</time></trkpt><trkpt lat="31.31424911461732" lon="-7.374468898031007"><ele>2066.0</ele><time>2026-04-24T11:02:02.999Z</time></trkpt><trkpt lat="31.314110243712673" lon="-7.37437964296717"><ele>2066.0</ele><time>2026-04-24T11:02:03.999Z</time></trkpt><trkpt lat="31.31397577444726" lon="-7.374296933340378"><ele>2066.0</ele><time>2026-04-24T11:02:04.999Z</time></trkpt><trkpt lat="31.313850034676268" lon="-7.374220372771695"><ele>2066.0</ele><time>2026-04-24T11:02:05.999Z</time></trkpt><trkpt lat="31.31373239228782" lon="-7.37414623202515"><ele>2066.0</ele><time>2026-04-24T11:02:06.999Z</time></trkpt><trkpt lat="31.313625615644035" lon="-7.37407535401118"><ele>2063.8</ele><time>2026-04-24T11:02:07.999Z</time></trkpt><trkpt lat="31.313533390668297" lon="-7.374000659988713"><ele>2061.6</ele><time>2026-04-24T11:02:08.999Z</time></trkpt><trkpt lat="31.31344890954273" lon="-7.373921271356881"><ele>2059.4</ele><time>2026-04-24T11:02:09.999Z</time></trkpt><trkpt lat="31.31339413384007" lon="-7.373823362229607"><ele>2057.2</ele><time>2026-04-24T11:02:10.999Z</time></trkpt><trkpt lat="31.313384416086492" lon="-7.3737080247166755"><ele>2055.0</ele><time>2026-04-24T11:02:11.999Z</time></trkpt><trkpt lat="31.313396012985855" lon="-7.373578238949476"><ele>2055.0</ele><time>2026-04-24T11:02:12.999Z</time></trkpt><trkpt lat="31.31341849782249" lon="-7.373435491822111"><ele>2055.0</ele><time>2026-04-24T11:02:13.999Z</time></trkpt><trkpt lat="31.313443845519636" lon="-7.373282727012807"><ele>2055.0</ele><time>2026-04-24T11:02:14.999Z</time></trkpt><trkpt lat="31.313474356919844" lon="-7.373124233851473"><ele>2055.0</ele><time>2026-04-24T11:02:15.999Z</time></trkpt><trkpt lat="31.31350360120412" lon="-7.372965140008759"><ele>2055.25</ele><time>2026-04-24T11:02:16.999Z</time></trkpt><trkpt lat="31.31351940005636" lon="-7.372797570342569"><ele>2055.5</ele><time>2026-04-24T11:02:17.998Z</time></trkpt><trkpt lat="31.313504559923516" lon="-7.372625722433237"><ele>2055.75</ele><time>2026-04-24T11:02:19Z</time></trkpt><trkpt lat="31.31347804389642" lon="-7.3724549229638505"><ele>2056.0</ele><time>2026-04-24T11:02:20Z</time></trkpt><trkpt lat="31.31341527035297" lon="-7.372287992595871"><ele>2060.3333333333335</ele><time>2026-04-24T11:02:21Z</time></trkpt><trkpt lat="31.313334425763532" lon="-7.372113740525159"><ele>2064.6666666666665</ele><time>2026-04-24T11:02:22Z</time></trkpt><trkpt lat="31.313256753964815" lon="-7.371933208462049"><ele>2069.0</ele><time>2026-04-24T11:02:23Z</time></trkpt><trkpt lat="31.313179954706843" lon="-7.371749345027306"><ele>2069.0</ele><time>2026-04-24T11:02:24Z</time></trkpt><trkpt lat="31.313099869341286" lon="-7.371566683363865"><ele>2069.0</ele><time>2026-04-24T11:02:25Z</time></trkpt><trkpt lat="31.313021879936908" lon="-7.371385286193708"><ele>2069.0</ele><time>2026-04-24T11:02:26Z</time></trkpt><trkpt lat="31.312942172009294" lon="-7.371205668088427"><ele>2069.6666666666665</ele><time>2026-04-24T11:02:27Z</time></trkpt><trkpt lat="31.31285711022238" lon="-7.3710424206384015"><ele>2070.3333333333335</ele><time>2026-04-24T11:02:28Z</time></trkpt><trkpt lat="31.31275572427146" lon="-7.370886258472368"><ele>2071.0</ele><time>2026-04-24T11:02:29Z</time></trkpt><trkpt lat="31.312643394858192" lon="-7.370740593604476"><ele>2071.0</ele><time>2026-04-24T11:02:30Z</time></trkpt><trkpt lat="31.312528583952044" lon="-7.3706086289201584"><ele>2071.0</ele><time>2026-04-24T11:02:31Z</time></trkpt><trkpt lat="31.312419605869156" lon="-7.370490378110729"><ele>2071.0</ele><time>2026-04-24T11:02:32Z</time></trkpt><trkpt lat="31.31231543207559" lon="-7.370387421320292"><ele>2071.0</ele><time>2026-04-24T11:02:33Z</time></trkpt><trkpt lat="31.3122234441813" lon="-7.370342505258738"><ele>2072.2</ele><time>2026-04-24T11:02:34Z</time></trkpt><trkpt lat="31.312130878532393" lon="-7.370339917342806"><ele>2073.3999999999996</ele><time>2026-04-24T11:02:35Z</time></trkpt><trkpt lat="31.312042380712786" lon="-7.370374233312341"><ele>2074.6</ele><time>2026-04-24T11:02:36Z</time></trkpt><trkpt lat="31.311962349873433" lon="-7.370442739711132"><ele>2075.7999999999997</ele><time>2026-04-24T11:02:37Z</time></trkpt><trkpt lat="31.31188492001841" lon="-7.37053601530105"><ele>2077.0</ele><time>2026-04-24T11:02:38Z</time></trkpt><trkpt lat="31.31180262422586" lon="-7.370641790522287"><ele>2077.0</ele><time>2026-04-24T11:02:39Z</time></trkpt><trkpt lat="31.31171576849338" lon="-7.370755752633577"><ele>2077.0</ele><time>2026-04-24T11:02:40Z</time></trkpt><trkpt lat="31.311622359485867" lon="-7.370875929629496"><ele>2077.0</ele><time>2026-04-24T11:02:41Z</time></trkpt><trkpt lat="31.311525798080456" lon="-7.371000590613928"><ele>2077.0</ele><time>2026-04-24T11:02:42Z</time></trkpt><trkpt lat="31.311421667662962" lon="-7.371125118365405"><ele>2080.0</ele><time>2026-04-24T11:02:43Z</time></trkpt><trkpt lat="31.311318273625954" lon="-7.371251564656462"><ele>2083.0</ele><time>2026-04-24T11:02:44Z</time></trkpt><trkpt lat="31.311216559289726" lon="-7.3713807688071356"><ele>2086.0</ele><time>2026-04-24T11:02:45Z</time></trkpt><trkpt lat="31.311109925601183" lon="-7.371510742391466"><ele>2086.0</ele><time>2026-04-24T11:02:46Z</time></trkpt><trkpt lat="31.311003628250806" lon="-7.371639027064289"><ele>2086.0</ele><time>2026-04-24T11:02:47Z</time></trkpt><trkpt lat="31.310894536385014" lon="-7.371769347794472"><ele>2086.0</ele><time>2026-04-24T11:02:48Z</time></trkpt><trkpt lat="31.310784891115084" lon="-7.3718986723952495"><ele>2086.0</ele><time>2026-04-24T11:02:49Z</time></trkpt><trkpt lat="31.310674649007588" lon="-7.37202667827619"><ele>2086.0</ele><time>2026-04-24T11:02:50Z</time></trkpt><trkpt lat="31.310564584509027" lon="-7.372156218038681"><ele>2086.0</ele><time>2026-04-24T11:02:51Z</time></trkpt><trkpt lat="31.31045631272337" lon="-7.372286239280768"><ele>2087.3333333333335</ele><time>2026-04-24T11:02:52Z</time></trkpt><trkpt lat="31.310349816507188" lon="-7.372417098057582"><ele>2088.6666666666665</ele><time>2026-04-24T11:02:53Z</time></trkpt><trkpt lat="31.310255281043997" lon="-7.372563546048928"><ele>2090.0</ele><time>2026-04-24T11:02:54Z</time></trkpt><trkpt lat="31.31015587302215" lon="-7.372695233512844"><ele>2090.0</ele><time>2026-04-24T11:02:55Z</time></trkpt><trkpt lat="31.31005623178182" lon="-7.37282323346124"><ele>2090.0</ele><time>2026-04-24T11:02:56Z</time></trkpt><trkpt lat="31.309966611228685" lon="-7.3729378638446645"><ele>2090.0</ele><time>2026-04-24T11:02:57Z</time></trkpt><trkpt lat="31.30988139365523" lon="-7.373032502392759"><ele>2090.0</ele><time>2026-04-24T11:02:58Z</time></trkpt><trkpt lat="31.30978680713836" lon="-7.373092240037018"><ele>2090.0</ele><time>2026-04-24T11:02:59Z</time></trkpt><trkpt lat="31.309703948874773" lon="-7.373136599500998"><ele>2090.0</ele><time>2026-04-24T11:03:00Z</time></trkpt><trkpt lat="31.30961498576629" lon="-7.373170632340193"><ele>2090.0</ele><time>2026-04-24T11:03:01Z</time></trkpt><trkpt lat="31.309511410583855" lon="-7.373160038866108"><ele>2090.0</ele><time>2026-04-24T11:03:02Z</time></trkpt><trkpt lat="31.30940727380621" lon="-7.373127129621176"><ele>2090.0</ele><time>2026-04-24T11:03:03Z</time></trkpt><trkpt lat="31.30930031229974" lon="-7.373084194202253"><ele>2090.0</ele><time>2026-04-24T11:03:04Z</time></trkpt><trkpt lat="31.309189844607584" lon="-7.373029812965466"><ele>2090.0</ele><time>2026-04-24T11:03:05Z</time></trkpt><trkpt lat="31.309071271872362" lon="-7.372976540344282"><ele>2090.0</ele><time>2026-04-24T11:03:06Z</time></trkpt><trkpt lat="31.308946860961544" lon="-7.372933741588357"><ele>2090.0</ele><time>2026-04-24T11:03:07Z</time></trkpt><trkpt lat="31.30882078270281" lon="-7.3729076885769915"><ele>2087.75</ele><time>2026-04-24T11:03:08Z</time></trkpt><trkpt lat="31.308696294291323" lon="-7.3729048166152245"><ele>2085.5</ele><time>2026-04-24T11:03:09Z</time></trkpt><trkpt lat="31.308575032360334" lon="-7.372929692937468"><ele>2083.25</ele><time>2026-04-24T11:03:10Z</time></trkpt><trkpt lat="31.30845530253023" lon="-7.372978999356801"><ele>2081.0</ele><time>2026-04-24T11:03:11Z</time></trkpt><trkpt lat="31.30833710964609" lon="-7.373047287676236"><ele>2081.0</ele><time>2026-04-24T11:03:12Z</time></trkpt><trkpt lat="31.30821820540626" lon="-7.373127655135298"><ele>2081.0</ele><time>2026-04-24T11:03:13Z</time></trkpt><trkpt lat="31.308096958712575" lon="-7.373210097498742"><ele>2081.0</ele><time>2026-04-24T11:03:14Z</time></trkpt><trkpt lat="31.30797636088826" lon="-7.373290111565463"><ele>2081.0</ele><time>2026-04-24T11:03:15Z</time></trkpt><trkpt lat="31.30785566652932" lon="-7.3733655127700075"><ele>2080.0</ele><time>2026-04-24T11:03:16Z</time></trkpt><trkpt lat="31.307736281148884" lon="-7.373437902935133"><ele>2079.0</ele><time>2026-04-24T11:03:17Z</time></trkpt><trkpt lat="31.30762048290436" lon="-7.373510472624738"><ele>2078.0</ele><time>2026-04-24T11:03:18Z</time></trkpt><trkpt lat="31.307507215220436" lon="-7.37358237081817"><ele>2077.0</ele><time>2026-04-24T11:03:19Z</time></trkpt><trkpt lat="31.30739246213275" lon="-7.373649070055854"><ele>2077.0</ele><time>2026-04-24T11:03:19.999Z</time></trkpt><trkpt lat="31.30726878814431" lon="-7.373700444346459"><ele>2077.0</ele><time>2026-04-24T11:03:20.999Z</time></trkpt><trkpt lat="31.307133487537545" lon="-7.373729346781261"><ele>2077.0</ele><time>2026-04-24T11:03:21.999Z</time></trkpt><trkpt lat="31.30698958317898" lon="-7.373731806326445"><ele>2077.0</ele><time>2026-04-24T11:03:22.999Z</time></trkpt><trkpt lat="31.306842419142768" lon="-7.373709421491686"><ele>2078.666666666667</ele><time>2026-04-24T11:03:23.999Z</time></trkpt><trkpt lat="31.30669671339646" lon="-7.373663991968927"><ele>2080.3333333333335</ele><time>2026-04-24T11:03:24.999Z</time></trkpt><trkpt lat="31.30655470596112" lon="-7.373605083504391"><ele>2082.0</ele><time>2026-04-24T11:03:25.999Z</time></trkpt><trkpt lat="31.306412415605532" lon="-7.3735463293463415"><ele>2080.0</ele><time>2026-04-24T11:03:26.999Z</time></trkpt><trkpt lat="31.30626865201219" lon="-7.373488242313602"><ele>2078.0</ele><time>2026-04-24T11:03:27.999Z</time></trkpt><trkpt lat="31.306118768181534" lon="-7.373426951425458"><ele>2076.0</ele><time>2026-04-24T11:03:28.999Z</time></trkpt><trkpt lat="31.305969013386235" lon="-7.373364166955024"><ele>2076.0</ele><time>2026-04-24T11:03:29.999Z</time></trkpt><trkpt lat="31.305814881198334" lon="-7.373296278375558"><ele>2076.0</ele><time>2026-04-24T11:03:30.999Z</time></trkpt><trkpt lat="31.305658851631275" lon="-7.37322034086835"><ele>2076.0</ele><time>2026-04-24T11:03:31.999Z</time></trkpt><trkpt lat="31.30549939136178" lon="-7.373135520731542"><ele>2075.6666666666665</ele><time>2026-04-24T11:03:32.999Z</time></trkpt><trkpt lat="31.30533333105514" lon="-7.373044037939442"><ele>2075.333333333333</ele><time>2026-04-24T11:03:33.999Z</time></trkpt><trkpt lat="31.305163636867828" lon="-7.372951356753482"><ele>2075.0</ele><time>2026-04-24T11:03:34.999Z</time></trkpt><trkpt lat="31.304991130174045" lon="-7.372856850724038"><ele>2076.6666666666665</ele><time>2026-04-24T11:03:35.999Z</time></trkpt><trkpt lat="31.30481772792376" lon="-7.372763476933953"><ele>2078.3333333333335</ele><time>2026-04-24T11:03:36.999Z</time></trkpt><trkpt lat="31.30464329555484" lon="-7.372669633346652"><ele>2080.0</ele><time>2026-04-24T11:03:37.999Z</time></trkpt><trkpt lat="31.304468295430585" lon="-7.3725763281352314"><ele>2080.0</ele><time>2026-04-24T11:03:38.999Z</time></trkpt><trkpt lat="31.30429361391239" lon="-7.372483135606598"><ele>2080.0</ele><time>2026-04-24T11:03:39.999Z</time></trkpt><trkpt lat="31.304116499550595" lon="-7.3723919325277105"><ele>2080.0</ele><time>2026-04-24T11:03:40.999Z</time></trkpt><trkpt lat="31.303934408621462" lon="-7.372311138733025"><ele>2080.3333333333335</ele><time>2026-04-24T11:03:41.999Z</time></trkpt><trkpt lat="31.303749291719356" lon="-7.372253781829484"><ele>2080.6666666666665</ele><time>2026-04-24T11:03:42.999Z</time></trkpt><trkpt lat="31.303554331936045" lon="-7.37222201344625"><ele>2081.0</ele><time>2026-04-24T11:03:43.999Z</time></trkpt><trkpt lat="31.30335226056523" lon="-7.37220859129622"><ele>2081.0</ele><time>2026-04-24T11:03:44.999Z</time></trkpt><trkpt lat="31.3031564962619" lon="-7.37219167813724"><ele>2081.0</ele><time>2026-04-24T11:03:45.999Z</time></trkpt><trkpt lat="31.302964449656514" lon="-7.372169149269873"><ele>2081.0</ele><time>2026-04-24T11:03:46.999Z</time></trkpt><trkpt lat="31.302774660639443" lon="-7.372128510699727"><ele>2082.0</ele><time>2026-04-24T11:03:47.999Z</time></trkpt><trkpt lat="31.302591095024642" lon="-7.372061269713996"><ele>2083.0</ele><time>2026-04-24T11:03:48.999Z</time></trkpt><trkpt lat="31.30241721857521" lon="-7.371963778855904"><ele>2084.0</ele><time>2026-04-24T11:03:49.999Z</time></trkpt><trkpt lat="31.302255650688675" lon="-7.3718398235031595"><ele>2088.6666666666665</ele><time>2026-04-24T11:03:50.999Z</time></trkpt><trkpt lat="31.302102305230356" lon="-7.371702062943751"><ele>2093.3333333333335</ele><time>2026-04-24T11:03:51.999Z</time></trkpt><trkpt lat="31.301959776186493" lon="-7.3715594149187105"><ele>2098.0</ele><time>2026-04-24T11:03:52.999Z</time></trkpt><trkpt lat="31.301821273982704" lon="-7.371429652097934"><ele>2095.666666666667</ele><time>2026-04-24T11:03:53.999Z</time></trkpt><trkpt lat="31.301683142279312" lon="-7.371318953303875"><ele>2093.3333333333335</ele><time>2026-04-24T11:03:54.999Z</time></trkpt><trkpt lat="31.301534140406762" lon="-7.371238924711061"><ele>2091.0</ele><time>2026-04-24T11:03:55.999Z</time></trkpt><trkpt lat="31.30137734539445" lon="-7.371197946631587"><ele>2091.0</ele><time>2026-04-24T11:03:56.999Z</time></trkpt><trkpt lat="31.301207259947184" lon="-7.371186008743631"><ele>2091.0</ele><time>2026-04-24T11:03:57.999Z</time></trkpt><trkpt lat="31.301033169117634" lon="-7.371200267472376"><ele>2091.0</ele><time>2026-04-24T11:03:58.999Z</time></trkpt><trkpt lat="31.300854864646503" lon="-7.37122788592811"><ele>2091.0</ele><time>2026-04-24T11:03:59.999Z</time></trkpt><trkpt lat="31.30067713953337" lon="-7.371248745235849"><ele>2091.0</ele><time>2026-04-24T11:04:00.999Z</time></trkpt><trkpt lat="31.30049038708208" lon="-7.371268486627171"><ele>2091.0</ele><time>2026-04-24T11:04:01.999Z</time></trkpt><trkpt lat="31.300301072434088" lon="-7.371283042815232"><ele>2090.6666666666665</ele><time>2026-04-24T11:04:02.999Z</time></trkpt><trkpt lat="31.30010324781409" lon="-7.371302449321755"><ele>2090.333333333333</ele><time>2026-04-24T11:04:03.999Z</time></trkpt><trkpt lat="31.29989701298659" lon="-7.3713264736379065"><ele>2090.0</ele><time>2026-04-24T11:04:04.999Z</time></trkpt><trkpt lat="31.29969825114962" lon="-7.371348411725782"><ele>2094.0</ele><time>2026-04-24T11:04:05.999Z</time></trkpt><trkpt lat="31.299499053717515" lon="-7.371376289097419"><ele>2098.0</ele><time>2026-04-24T11:04:06.999Z</time></trkpt><trkpt lat="31.299306014865387" lon="-7.371423996579557"><ele>2102.0</ele><time>2026-04-24T11:04:07.999Z</time></trkpt><trkpt lat="31.2991140523251" lon="-7.371505717502671"><ele>2102.0</ele><time>2026-04-24T11:04:08.999Z</time></trkpt><trkpt lat="31.298924844828647" lon="-7.371615665415298"><ele>2102.0</ele><time>2026-04-24T11:04:09.999Z</time></trkpt><trkpt lat="31.29873118632069" lon="-7.371723361137191"><ele>2102.0</ele><time>2026-04-24T11:04:10.999Z</time></trkpt><trkpt lat="31.29853693604862" lon="-7.371831927832436"><ele>2102.333333333333</ele><time>2026-04-24T11:04:11.999Z</time></trkpt><trkpt lat="31.298342868607744" lon="-7.371942928439599"><ele>2102.6666666666665</ele><time>2026-04-24T11:04:12.999Z</time></trkpt><trkpt lat="31.298163497209096" lon="-7.372071734839992"><ele>2103.0</ele><time>2026-04-24T11:04:13.999Z</time></trkpt><trkpt lat="31.297987411030928" lon="-7.372193566454085"><ele>2103.0</ele><time>2026-04-24T11:04:14.999Z</time></trkpt><trkpt lat="31.297810917926533" lon="-7.372321806208894"><ele>2103.0</ele><time>2026-04-24T11:04:15.999Z</time></trkpt><trkpt lat="31.297663430050143" lon="-7.372452948596486"><ele>2103.0</ele><time>2026-04-24T11:04:16.999Z</time></trkpt><trkpt lat="31.29754212817077" lon="-7.372629131369307"><ele>2103.0</ele><time>2026-04-24T11:04:17.999Z</time></trkpt><trkpt lat="31.297430364847674" lon="-7.372828281734127"><ele>2103.0</ele><time>2026-04-24T11:04:18.999Z</time></trkpt><trkpt lat="31.297330007587142" lon="-7.373045650824157"><ele>2103.0</ele><time>2026-04-24T11:04:19.999Z</time></trkpt><trkpt lat="31.29724685677692" lon="-7.373280353716651"><ele>2103.0</ele><time>2026-04-24T11:04:20.999Z</time></trkpt><trkpt lat="31.297133630646574" lon="-7.373488337105222"><ele>2103.0</ele><time>2026-04-24T11:04:21.999Z</time></trkpt><trkpt lat="31.297034531483316" lon="-7.373705940872241"><ele>2103.0</ele><time>2026-04-24T11:04:22.999Z</time></trkpt><trkpt lat="31.296939699795978" lon="-7.373922714679958"><ele>2103.6666666666665</ele><time>2026-04-24T11:04:23.999Z</time></trkpt><trkpt lat="31.296847724568696" lon="-7.37414033005551"><ele>2104.333333333333</ele><time>2026-04-24T11:04:25Z</time></trkpt><trkpt lat="31.296756531182155" lon="-7.374355014518579"><ele>2105.0</ele><time>2026-04-24T11:04:26Z</time></trkpt><trkpt lat="31.29666656540328" lon="-7.374573305648358"><ele>2106.333333333333</ele><time>2026-04-24T11:04:27Z</time></trkpt><trkpt lat="31.296583243537107" lon="-7.374791001824537"><ele>2107.6666666666665</ele><time>2026-04-24T11:04:28Z</time></trkpt><trkpt lat="31.296496768684456" lon="-7.3750111604713195"><ele>2109.0</ele><time>2026-04-24T11:04:29Z</time></trkpt><trkpt lat="31.296400874100822" lon="-7.375228846690298"><ele>2110.6666666666665</ele><time>2026-04-24T11:04:30Z</time></trkpt><trkpt lat="31.29630474890844" lon="-7.375449091983055"><ele>2112.333333333333</ele><time>2026-04-24T11:04:31Z</time></trkpt><trkpt lat="31.29615384118968" lon="-7.375626526989992"><ele>2114.0</ele><time>2026-04-24T11:04:32Z</time></trkpt><trkpt lat="31.296009963138715" lon="-7.375801801486179"><ele>2114.0</ele><time>2026-04-24T11:04:33Z</time></trkpt><trkpt lat="31.29584590411252" lon="-7.375959794621945"><ele>2114.0</ele><time>2026-04-24T11:04:34Z</time></trkpt><trkpt lat="31.295671012890104" lon="-7.3761049525260765"><ele>2114.0</ele><time>2026-04-24T11:04:35Z</time></trkpt><trkpt lat="31.295480988157454" lon="-7.3762483759413815"><ele>2116.0</ele><time>2026-04-24T11:04:36Z</time></trkpt><trkpt lat="31.295292510462865" lon="-7.37639569083399"><ele>2118.0</ele><time>2026-04-24T11:04:37Z</time></trkpt><trkpt lat="31.295103769510423" lon="-7.376537748802749"><ele>2118.0</ele><time>2026-04-24T11:04:38Z</time></trkpt><trkpt lat="31.29491714531086" lon="-7.376681940178294"><ele>2118.0</ele><time>2026-04-24T11:04:39Z</time></trkpt><trkpt lat="31.29473464306587" lon="-7.376829731876567"><ele>2118.0</ele><time>2026-04-24T11:04:40Z</time></trkpt><trkpt lat="31.294551189348347" lon="-7.376973028178464"><ele>2118.0</ele><time>2026-04-24T11:04:41Z</time></trkpt><trkpt lat="31.29437211903738" lon="-7.377115254143425"><ele>2118.0</ele><time>2026-04-24T11:04:42Z</time></trkpt><trkpt lat="31.294185326108853" lon="-7.3772482412514435"><ele>2118.0</ele><time>2026-04-24T11:04:43Z</time></trkpt><trkpt lat="31.294011380008616" lon="-7.377381549812038"><ele>2117.6666666666665</ele><time>2026-04-24T11:04:44Z</time></trkpt><trkpt lat="31.29384620754915" lon="-7.377515129618532"><ele>2117.333333333333</ele><time>2026-04-24T11:04:45Z</time></trkpt><trkpt lat="31.29367986267928" lon="-7.3776398614236465"><ele>2117.0</ele><time>2026-04-24T11:04:46Z</time></trkpt><trkpt lat="31.293531751934548" lon="-7.377777900619624"><ele>2117.0</ele><time>2026-04-24T11:04:47Z</time></trkpt><trkpt lat="31.293399129970155" lon="-7.377931802516901"><ele>2117.0</ele><time>2026-04-24T11:04:48Z</time></trkpt><trkpt lat="31.293279402006878" lon="-7.37809027230216"><ele>2117.0</ele><time>2026-04-24T11:04:49Z</time></trkpt><trkpt lat="31.293161282145004" lon="-7.378260216224041"><ele>2119.6666666666665</ele><time>2026-04-24T11:04:50Z</time></trkpt><trkpt lat="31.293047398101873" lon="-7.378430278490166"><ele>2122.3333333333335</ele><time>2026-04-24T11:04:51Z</time></trkpt><trkpt lat="31.292942183118047" lon="-7.378594405885939"><ele>2125.0</ele><time>2026-04-24T11:04:52Z</time></trkpt><trkpt lat="31.292846605589357" lon="-7.378734712511258"><ele>2126.75</ele><time>2026-04-24T11:04:53Z</time></trkpt><trkpt lat="31.292758404015515" lon="-7.378864911405341"><ele>2128.5</ele><time>2026-04-24T11:04:54Z</time></trkpt><trkpt lat="31.292682974769438" lon="-7.378982478375808"><ele>2130.25</ele><time>2026-04-24T11:04:55Z</time></trkpt><trkpt lat="31.29260118582938" lon="-7.379103645242459"><ele>2132.0</ele><time>2026-04-24T11:04:56Z</time></trkpt><trkpt lat="31.292521933090878" lon="-7.379216148126348"><ele>2132.0</ele><time>2026-04-24T11:04:57Z</time></trkpt><trkpt lat="31.292455910174105" lon="-7.379340545519298"><ele>2132.0</ele><time>2026-04-24T11:04:58Z</time></trkpt><trkpt lat="31.292378057512416" lon="-7.379459655414497"><ele>2132.0</ele><time>2026-04-24T11:04:59Z</time></trkpt><trkpt lat="31.29229676961003" lon="-7.379582351532737"><ele>2132.0</ele><time>2026-04-24T11:05:00Z</time></trkpt><trkpt lat="31.292217328019508" lon="-7.379701486875233"><ele>2133.25</ele><time>2026-04-24T11:05:01Z</time></trkpt><trkpt lat="31.292124803230195" lon="-7.379810563680042"><ele>2134.5</ele><time>2026-04-24T11:05:02Z</time></trkpt><trkpt lat="31.292058232483782" lon="-7.379937031124306"><ele>2135.75</ele><time>2026-04-24T11:05:03Z</time></trkpt><trkpt lat="31.29197771244768" lon="-7.380053934443248"><ele>2137.0</ele><time>2026-04-24T11:05:04Z</time></trkpt><trkpt lat="31.291896921840777" lon="-7.380171230366174"><ele>2137.0</ele><time>2026-04-24T11:05:05Z</time></trkpt><trkpt lat="31.29181376446232" lon="-7.380295059726057"><ele>2137.0</ele><time>2026-04-24T11:05:06Z</time></trkpt><trkpt lat="31.291730412843865" lon="-7.3804213188877315"><ele>2137.0</ele><time>2026-04-24T11:05:07Z</time></trkpt><trkpt lat="31.29164347064776" lon="-7.380549837949617"><ele>2137.0</ele><time>2026-04-24T11:05:08Z</time></trkpt><trkpt lat="31.291551086920297" lon="-7.380683628576828"><ele>2138.3333333333335</ele><time>2026-04-24T11:05:09Z</time></trkpt><trkpt lat="31.291456997723262" lon="-7.38081988903765"><ele>2139.6666666666665</ele><time>2026-04-24T11:05:10Z</time></trkpt><trkpt lat="31.291356172934574" lon="-7.380965904094896"><ele>2141.0</ele><time>2026-04-24T11:05:11Z</time></trkpt><trkpt lat="31.29124876960906" lon="-7.381128271455389"><ele>2141.6666666666665</ele><time>2026-04-24T11:05:12Z</time></trkpt><trkpt lat="31.291126704625267" lon="-7.3813112243101"><ele>2142.3333333333335</ele><time>2026-04-24T11:05:13Z</time></trkpt><trkpt lat="31.29099836075044" lon="-7.3814936509392854"><ele>2143.0</ele><time>2026-04-24T11:05:14Z</time></trkpt><trkpt lat="31.29086663650096" lon="-7.381680845355556"><ele>2143.666666666667</ele><time>2026-04-24T11:05:15Z</time></trkpt><trkpt lat="31.29073882549155" lon="-7.381865170235481"><ele>2144.3333333333335</ele><time>2026-04-24T11:05:16Z</time></trkpt><trkpt lat="31.290614453452815" lon="-7.382050778124771"><ele>2145.0</ele><time>2026-04-24T11:05:17Z</time></trkpt><trkpt lat="31.29049568021707" lon="-7.382228242420437"><ele>2146.3333333333335</ele><time>2026-04-24T11:05:18Z</time></trkpt><trkpt lat="31.29038681958033" lon="-7.382396714690225"><ele>2147.666666666667</ele><time>2026-04-24T11:05:19Z</time></trkpt><trkpt lat="31.290287980703777" lon="-7.382549258045877"><ele>2149.0</ele><time>2026-04-24T11:05:20Z</time></trkpt><trkpt lat="31.2902022633146" lon="-7.382680017767768"><ele>2149.0</ele><time>2026-04-24T11:05:21Z</time></trkpt><trkpt lat="31.290112982902947" lon="-7.382798264090396"><ele>2149.0</ele><time>2026-04-24T11:05:22Z</time></trkpt><trkpt lat="31.2900261988948" lon="-7.3828845275840305"><ele>2149.0</ele><time>2026-04-24T11:05:23Z</time></trkpt><trkpt lat="31.28991736609299" lon="-7.382922714263356"><ele>2149.0</ele><time>2026-04-24T11:05:24Z</time></trkpt><trkpt lat="31.289810585333495" lon="-7.382908200776854"><ele>2152.75</ele><time>2026-04-24T11:05:24.999Z</time></trkpt><trkpt lat="31.28970033489582" lon="-7.382877325864153"><ele>2156.5</ele><time>2026-04-24T11:05:25.999Z</time></trkpt><trkpt lat="31.289584943279802" lon="-7.38281500204886"><ele>2160.25</ele><time>2026-04-24T11:05:26.999Z</time></trkpt><trkpt lat="31.28946158168442" lon="-7.382725877997227"><ele>2164.0</ele><time>2026-04-24T11:05:27.999Z</time></trkpt><trkpt lat="31.289337564580087" lon="-7.382619889448883"><ele>2164.0</ele><time>2026-04-24T11:05:28.999Z</time></trkpt><trkpt lat="31.289210500439644" lon="-7.382520187690555"><ele>2164.0</ele><time>2026-04-24T11:05:29.999Z</time></trkpt><trkpt lat="31.289088292228755" lon="-7.382420399190291"><ele>2164.0</ele><time>2026-04-24T11:05:30.999Z</time></trkpt><trkpt lat="31.28896243821958" lon="-7.382327167478758"><ele>2165.5</ele><time>2026-04-24T11:05:31.999Z</time></trkpt><trkpt lat="31.288832538055157" lon="-7.382246802852968"><ele>2167.0</ele><time>2026-04-24T11:05:32.999Z</time></trkpt><trkpt lat="31.288699110648718" lon="-7.382205469399671"><ele>2168.5</ele><time>2026-04-24T11:05:33.999Z</time></trkpt><trkpt lat="31.288569997267913" lon="-7.382183736662903"><ele>2170.0</ele><time>2026-04-24T11:05:34.999Z</time></trkpt><trkpt lat="31.28842771838942" lon="-7.382209220568962"><ele>2170.0</ele><time>2026-04-24T11:05:35.999Z</time></trkpt><trkpt lat="31.288274565259755" lon="-7.38227103060875"><ele>2170.0</ele><time>2026-04-24T11:05:36.999Z</time></trkpt><trkpt lat="31.288119367839144" lon="-7.382375526730324"><ele>2170.0</ele><time>2026-04-24T11:05:37.999Z</time></trkpt><trkpt lat="31.287961696361997" lon="-7.382494339082636"><ele>2169.666666666667</ele><time>2026-04-24T11:05:38.999Z</time></trkpt><trkpt lat="31.287784510317614" lon="-7.3826116294504365"><ele>2169.3333333333335</ele><time>2026-04-24T11:05:39.999Z</time></trkpt><trkpt lat="31.28760701005616" lon="-7.382721991003693"><ele>2169.0</ele><time>2026-04-24T11:05:40.999Z</time></trkpt><trkpt lat="31.28742399606193" lon="-7.382811203347103"><ele>2172.6666666666665</ele><time>2026-04-24T11:05:41.999Z</time></trkpt><trkpt lat="31.287230673864485" lon="-7.382888755556347"><ele>2176.333333333333</ele><time>2026-04-24T11:05:42.999Z</time></trkpt><trkpt lat="31.287041153452332" lon="-7.3829752294660125"><ele>2180.0</ele><time>2026-04-24T11:05:43.999Z</time></trkpt><trkpt lat="31.286849755583514" lon="-7.3830493861861655"><ele>2180.0</ele><time>2026-04-24T11:05:44.999Z</time></trkpt><trkpt lat="31.286675247937715" lon="-7.3831279419993905"><ele>2180.0</ele><time>2026-04-24T11:05:45.999Z</time></trkpt><trkpt lat="31.28651312223226" lon="-7.383231361482278"><ele>2180.0</ele><time>2026-04-24T11:05:46.999Z</time></trkpt><trkpt lat="31.286374332329864" lon="-7.383363976104814"><ele>2182.0</ele><time>2026-04-24T11:05:47.999Z</time></trkpt><trkpt lat="31.28625574798115" lon="-7.383533282104497"><ele>2184.0</ele><time>2026-04-24T11:05:48.999Z</time></trkpt><trkpt lat="31.28613315374417" lon="-7.38370367423973"><ele>2186.0</ele><time>2026-04-24T11:05:49.999Z</time></trkpt><trkpt lat="31.286011843483216" lon="-7.38387410657737"><ele>2188.75</ele><time>2026-04-24T11:05:50.999Z</time></trkpt><trkpt lat="31.28590824495975" lon="-7.384018446126785"><ele>2191.5</ele><time>2026-04-24T11:05:51.999Z</time></trkpt><trkpt lat="31.285821777458438" lon="-7.38413735522381"><ele>2194.25</ele><time>2026-04-24T11:05:52.999Z</time></trkpt><trkpt lat="31.285738761660596" lon="-7.3842395000244565"><ele>2197.0</ele><time>2026-04-24T11:05:53.999Z</time></trkpt><trkpt lat="31.285634745968387" lon="-7.384301850652587"><ele>2198.7999999999997</ele><time>2026-04-24T11:05:54.999Z</time></trkpt><trkpt lat="31.28551669643292" lon="-7.384301883829211"><ele>2200.6</ele><time>2026-04-24T11:05:55.999Z</time></trkpt><trkpt lat="31.285419799949757" lon="-7.384301960213767"><ele>2202.3999999999996</ele><time>2026-04-24T11:05:56.999Z</time></trkpt><trkpt lat="31.285332860696847" lon="-7.384260340670418"><ele>2204.2</ele><time>2026-04-24T11:05:57.999Z</time></trkpt><trkpt lat="31.285260183439725" lon="-7.384195029844187"><ele>2206.0</ele><time>2026-04-24T11:05:58.999Z</time></trkpt><trkpt lat="31.285203827166526" lon="-7.384100264048649"><ele>2206.0</ele><time>2026-04-24T11:05:59.999Z</time></trkpt><trkpt lat="31.285168796769554" lon="-7.383982224391059"><ele>2206.0</ele><time>2026-04-24T11:06:00.999Z</time></trkpt><trkpt lat="31.28519609633815" lon="-7.383859845346008"><ele>2206.0</ele><time>2026-04-24T11:06:01.999Z</time></trkpt><trkpt lat="31.285220709134705" lon="-7.383728522703759"><ele>2206.0</ele><time>2026-04-24T11:06:02.999Z</time></trkpt><trkpt lat="31.285244711229605" lon="-7.383580633359583"><ele>2207.0</ele><time>2026-04-24T11:06:03.999Z</time></trkpt><trkpt lat="31.285297223012705" lon="-7.383425256278944"><ele>2208.0</ele><time>2026-04-24T11:06:04.999Z</time></trkpt><trkpt lat="31.285364114922512" lon="-7.3832675794796"><ele>2209.0</ele><time>2026-04-24T11:06:05.999Z</time></trkpt><trkpt lat="31.285445420379713" lon="-7.383093924413759"><ele>2207.3333333333335</ele><time>2026-04-24T11:06:06.999Z</time></trkpt><trkpt lat="31.28554962332461" lon="-7.382922539803969"><ele>2205.6666666666665</ele><time>2026-04-24T11:06:07.999Z</time></trkpt><trkpt lat="31.2856700341911" lon="-7.382761839150167"><ele>2204.0</ele><time>2026-04-24T11:06:08.999Z</time></trkpt><trkpt lat="31.285800210600467" lon="-7.3825999494765275"><ele>2204.0</ele><time>2026-04-24T11:06:09.999Z</time></trkpt><trkpt lat="31.28593614545859" lon="-7.382439845624934"><ele>2204.0</ele><time>2026-04-24T11:06:10.999Z</time></trkpt><trkpt lat="31.286075522091263" lon="-7.382276915297098"><ele>2204.0</ele><time>2026-04-24T11:06:11.999Z</time></trkpt><trkpt lat="31.286201256382206" lon="-7.382111939333129"><ele>2207.0</ele><time>2026-04-24T11:06:12.999Z</time></trkpt><trkpt lat="31.28630695230616" lon="-7.381964168639135"><ele>2210.0</ele><time>2026-04-24T11:06:13.999Z</time></trkpt><trkpt lat="31.28639743607464" lon="-7.381824879398273"><ele>2213.0</ele><time>2026-04-24T11:06:14.999Z</time></trkpt><trkpt lat="31.286454311158955" lon="-7.381698252929089"><ele>2216.0</ele><time>2026-04-24T11:06:15.999Z</time></trkpt><trkpt lat="31.286472786606232" lon="-7.381574649337719"><ele>2216.0</ele><time>2026-04-24T11:06:16.999Z</time></trkpt><trkpt lat="31.286457676704853" lon="-7.381463070464942"><ele>2216.0</ele><time>2026-04-24T11:06:17.999Z</time></trkpt><trkpt lat="31.286424665362144" lon="-7.381372971129566"><ele>2216.0</ele><time>2026-04-24T11:06:18.999Z</time></trkpt><trkpt lat="31.286369821482275" lon="-7.381306618503023"><ele>2216.0</ele><time>2026-04-24T11:06:19.999Z</time></trkpt><trkpt lat="31.28631370408712" lon="-7.381248621942717"><ele>2216.0</ele><time>2026-04-24T11:06:20.999Z</time></trkpt><trkpt lat="31.286273033834732" lon="-7.38119157655556"><ele>2216.0</ele><time>2026-04-24T11:06:21.999Z</time></trkpt><trkpt lat="31.28619785835233" lon="-7.3811210468984925"><ele>2213.833333333333</ele><time>2026-04-24T11:06:23.999Z</time></trkpt><trkpt lat="31.28612763884905" lon="-7.381106746840141"><ele>2211.6666666666665</ele><time>2026-04-24T11:06:26.999Z</time></trkpt><trkpt lat="31.286051246558902" lon="-7.381107489430556"><ele>2209.5</ele><time>2026-04-24T11:06:45Z</time></trkpt><trkpt lat="31.285968742633703" lon="-7.381117268430495"><ele>2207.3333333333335</ele><time>2026-04-24T11:06:49Z</time></trkpt><trkpt lat="31.285894995657035" lon="-7.381127733092305"><ele>2205.166666666667</ele><time>2026-04-24T11:06:51Z</time></trkpt><trkpt lat="31.285823548597513" lon="-7.380999017143446"><ele>2203.0</ele><time>2026-04-24T11:06:55Z</time></trkpt><trkpt lat="31.285859454166328" lon="-7.380936943917097"><ele>2203.0</ele><time>2026-04-24T11:08:17.999Z</time></trkpt><trkpt lat="31.285927660692423" lon="-7.3809320911343725"><ele>2203.0</ele><time>2026-04-24T11:09:03Z</time></trkpt><trkpt lat="31.285990148827945" lon="-7.380907328920216"><ele>2203.0</ele><time>2026-04-24T11:10:45Z</time></trkpt><trkpt lat="31.286039476748375" lon="-7.380983798628564"><ele>2203.0</ele><time>2026-04-24T11:10:47Z</time></trkpt><trkpt lat="31.2861026212985" lon="-7.380958726366272"><ele>2203.0</ele><time>2026-04-24T11:10:51Z</time></trkpt><trkpt lat="31.286166515534966" lon="-7.3809260277392275"><ele>2203.0</ele><time>2026-04-24T11:15:59.999Z</time></trkpt><trkpt lat="31.286108006634052" lon="-7.380959542347985"><ele>2203.0</ele><time>2026-04-24T11:21:52Z</time></trkpt><trkpt lat="31.28606403165479" lon="-7.380903795070987"><ele>2203.0</ele><time>2026-04-24T11:21:57Z</time></trkpt><trkpt lat="31.28600353098223" lon="-7.380871105846233"><ele>2203.0</ele><time>2026-04-24T11:22:02.999Z</time></trkpt><trkpt lat="31.285954963176117" lon="-7.380818896055495"><ele>2203.0</ele><time>2026-04-24T11:22:11.999Z</time></trkpt><trkpt lat="31.286019802700864" lon="-7.380867802013946"><ele>2203.0</ele><time>2026-04-24T11:22:30.999Z</time></trkpt><trkpt lat="31.286078654713666" lon="-7.380918158914159"><ele>2203.0</ele><time>2026-04-24T11:22:34.999Z</time></trkpt><trkpt lat="31.286116264009998" lon="-7.380979610133207"><ele>2203.0</ele><time>2026-04-24T11:22:39.999Z</time></trkpt><trkpt lat="31.28610200614049" lon="-7.381069045963268"><ele>2203.0</ele><time>2026-04-24T11:24:15.999Z</time></trkpt><trkpt lat="31.286027480811732" lon="-7.381119066107581"><ele>2203.0</ele><time>2026-04-24T11:24:17.999Z</time></trkpt><trkpt lat="31.285912392057206" lon="-7.381156563182685"><ele>2203.0</ele><time>2026-04-24T11:24:19.999Z</time></trkpt><trkpt lat="31.285849864202607" lon="-7.381173416473418"><ele>2203.0</ele><time>2026-04-24T11:24:20.999Z</time></trkpt><trkpt lat="31.28577966679878" lon="-7.381192285111067"><ele>2203.0</ele><time>2026-04-24T11:24:21.999Z</time></trkpt><trkpt lat="31.28570681647121" lon="-7.381212962470526"><ele>2203.0</ele><time>2026-04-24T11:24:22.999Z</time></trkpt><trkpt lat="31.285632566074852" lon="-7.381232061783152"><ele>2203.0</ele><time>2026-04-24T11:24:23.999Z</time></trkpt><trkpt lat="31.285555969407127" lon="-7.381247730959185"><ele>2204.3333333333335</ele><time>2026-04-24T11:24:24.999Z</time></trkpt><trkpt lat="31.285477755183575" lon="-7.381264447280556"><ele>2205.666666666667</ele><time>2026-04-24T11:24:25.999Z</time></trkpt><trkpt lat="31.285399385455097" lon="-7.381283331852482"><ele>2207.0</ele><time>2026-04-24T11:24:26.999Z</time></trkpt><trkpt lat="31.28532535226815" lon="-7.381324202237202"><ele>2208.3333333333335</ele><time>2026-04-24T11:24:27.999Z</time></trkpt><trkpt lat="31.285245889240638" lon="-7.381351973380599"><ele>2209.6666666666665</ele><time>2026-04-24T11:24:28.999Z</time></trkpt><trkpt lat="31.28515985203468" lon="-7.381363114583335"><ele>2211.0</ele><time>2026-04-24T11:24:29.999Z</time></trkpt><trkpt lat="31.285081213335758" lon="-7.381396800243369"><ele>2211.0</ele><time>2026-04-24T11:24:30.999Z</time></trkpt><trkpt lat="31.28501067588323" lon="-7.381462656120162"><ele>2211.0</ele><time>2026-04-24T11:24:31.999Z</time></trkpt><trkpt lat="31.284931713703216" lon="-7.381516664792808"><ele>2211.0</ele><time>2026-04-24T11:24:32.999Z</time></trkpt><trkpt lat="31.284845415222406" lon="-7.3815588191276325"><ele>2211.0</ele><time>2026-04-24T11:24:33.999Z</time></trkpt><trkpt lat="31.28477035214871" lon="-7.381625079678458"><ele>2211.0</ele><time>2026-04-24T11:24:34.999Z</time></trkpt><trkpt lat="31.28469478643882" lon="-7.381694026541367"><ele>2206.8</ele><time>2026-04-24T11:24:35.999Z</time></trkpt><trkpt lat="31.28462183196172" lon="-7.381762843451958"><ele>2202.6</ele><time>2026-04-24T11:24:36.999Z</time></trkpt><trkpt lat="31.28454804020153" lon="-7.381841141640164"><ele>2198.4</ele><time>2026-04-24T11:24:37.999Z</time></trkpt><trkpt lat="31.284473368361976" lon="-7.38192603175745"><ele>2194.2</ele><time>2026-04-24T11:24:38.999Z</time></trkpt><trkpt lat="31.284399525460426" lon="-7.38201804351771"><ele>2190.0</ele><time>2026-04-24T11:24:39.999Z</time></trkpt><trkpt lat="31.28432253081682" lon="-7.382112672781238"><ele>2194.0</ele><time>2026-04-24T11:24:40.999Z</time></trkpt><trkpt lat="31.284243035589366" lon="-7.382211105470258"><ele>2198.0</ele><time>2026-04-24T11:24:41.999Z</time></trkpt><trkpt lat="31.28416168959882" lon="-7.382312327065213"><ele>2202.0</ele><time>2026-04-24T11:24:42.999Z</time></trkpt><trkpt lat="31.284078515488858" lon="-7.382415492335509"><ele>2206.0</ele><time>2026-04-24T11:24:43.999Z</time></trkpt><trkpt lat="31.28399213740043" lon="-7.382522091213443"><ele>2202.25</ele><time>2026-04-24T11:24:44.999Z</time></trkpt><trkpt lat="31.283904470066116" lon="-7.382629649226092"><ele>2198.5</ele><time>2026-04-24T11:24:45.999Z</time></trkpt><trkpt lat="31.28381531698652" lon="-7.382736320093131"><ele>2194.75</ele><time>2026-04-24T11:24:46.999Z</time></trkpt><trkpt lat="31.283723805821314" lon="-7.382839377435084"><ele>2191.0</ele><time>2026-04-24T11:24:47.999Z</time></trkpt><trkpt lat="31.28363215083786" lon="-7.382936809511521"><ele>2191.0</ele><time>2026-04-24T11:24:48.999Z</time></trkpt><trkpt lat="31.28353162152733" lon="-7.38300423619913"><ele>2191.0</ele><time>2026-04-24T11:24:49.999Z</time></trkpt><trkpt lat="31.283426409184592" lon="-7.38304672673053"><ele>2191.0</ele><time>2026-04-24T11:24:50.999Z</time></trkpt><trkpt lat="31.283316214202653" lon="-7.383068910336648"><ele>2191.0</ele><time>2026-04-24T11:24:51.999Z</time></trkpt><trkpt lat="31.283204233788865" lon="-7.383071920191444"><ele>2193.75</ele><time>2026-04-24T11:24:52.999Z</time></trkpt><trkpt lat="31.283089414318844" lon="-7.38305528821029"><ele>2196.5</ele><time>2026-04-24T11:24:53.999Z</time></trkpt><trkpt lat="31.282976035658812" lon="-7.3830167528445205"><ele>2199.25</ele><time>2026-04-24T11:24:54.999Z</time></trkpt><trkpt lat="31.28287119356945" lon="-7.382956200884678"><ele>2202.0</ele><time>2026-04-24T11:24:55.999Z</time></trkpt><trkpt lat="31.282777675954044" lon="-7.382875457142322"><ele>2202.0</ele><time>2026-04-24T11:24:56.999Z</time></trkpt><trkpt lat="31.282689961066172" lon="-7.382786797498278"><ele>2202.0</ele><time>2026-04-24T11:24:57.999Z</time></trkpt><trkpt lat="31.282623654219268" lon="-7.382673328334467"><ele>2202.0</ele><time>2026-04-24T11:24:58.999Z</time></trkpt><trkpt lat="31.28257375477409" lon="-7.382548137506998"><ele>2202.0</ele><time>2026-04-24T11:24:59.999Z</time></trkpt><trkpt lat="31.28254212595032" lon="-7.382408997694337"><ele>2202.0</ele><time>2026-04-24T11:25:00.999Z</time></trkpt><trkpt lat="31.28251911985874" lon="-7.382261622484969"><ele>2202.0</ele><time>2026-04-24T11:25:01.999Z</time></trkpt><trkpt lat="31.28251909686326" lon="-7.382106608503109"><ele>2202.0</ele><time>2026-04-24T11:25:02.999Z</time></trkpt><trkpt lat="31.282521991728014" lon="-7.381951727597108"><ele>2202.0</ele><time>2026-04-24T11:25:03.999Z</time></trkpt><trkpt lat="31.282527280269914" lon="-7.381791532492286"><ele>2202.25</ele><time>2026-04-24T11:25:04.999Z</time></trkpt><trkpt lat="31.28253179178945" lon="-7.381629046560554"><ele>2202.5</ele><time>2026-04-24T11:25:05.999Z</time></trkpt><trkpt lat="31.282534035523785" lon="-7.3814676128761265"><ele>2202.75</ele><time>2026-04-24T11:25:06.999Z</time></trkpt><trkpt lat="31.28253374275148" lon="-7.381307008023614"><ele>2203.0</ele><time>2026-04-24T11:25:07.999Z</time></trkpt><trkpt lat="31.28252775746604" lon="-7.3811469145637485"><ele>2203.0</ele><time>2026-04-24T11:25:08.999Z</time></trkpt><trkpt lat="31.28250957906645" lon="-7.380987262311362"><ele>2203.0</ele><time>2026-04-24T11:25:09.999Z</time></trkpt><trkpt lat="31.28247487578719" lon="-7.380830290289662"><ele>2203.0</ele><time>2026-04-24T11:25:10.999Z</time></trkpt><trkpt lat="31.282433653293715" lon="-7.380682314313995"><ele>2203.0</ele><time>2026-04-24T11:25:11.999Z</time></trkpt><trkpt lat="31.2823585597638" lon="-7.380537618491696"><ele>2199.75</ele><time>2026-04-24T11:25:12.999Z</time></trkpt><trkpt lat="31.282265060141615" lon="-7.380404336883015"><ele>2196.5</ele><time>2026-04-24T11:25:13.999Z</time></trkpt><trkpt lat="31.282166071357675" lon="-7.380281172870549"><ele>2193.25</ele><time>2026-04-24T11:25:14.999Z</time></trkpt><trkpt lat="31.282053538569777" lon="-7.380176403623784"><ele>2190.0</ele><time>2026-04-24T11:25:15.999Z</time></trkpt><trkpt lat="31.281945941648683" lon="-7.380094446146627"><ele>2195.8</ele><time>2026-04-24T11:25:16.999Z</time></trkpt><trkpt lat="31.28184561916864" lon="-7.380037082726902"><ele>2201.6</ele><time>2026-04-24T11:25:17.999Z</time></trkpt><trkpt lat="31.2817560719811" lon="-7.379982008153964"><ele>2207.4</ele><time>2026-04-24T11:25:18.999Z</time></trkpt><trkpt lat="31.281673286648886" lon="-7.37992898418131"><ele>2213.2</ele><time>2026-04-24T11:25:19.999Z</time></trkpt><trkpt lat="31.281607246891923" lon="-7.379882840237931"><ele>2219.0</ele><time>2026-04-24T11:25:20.999Z</time></trkpt><trkpt lat="31.281552880587906" lon="-7.379839909197554"><ele>2219.0</ele><time>2026-04-24T11:25:21.999Z</time></trkpt><trkpt lat="31.281487044333645" lon="-7.3797224968210955"><ele>2219.0</ele><time>2026-04-24T11:25:23.999Z</time></trkpt><trkpt lat="31.281473063278916" lon="-7.379647399837828"><ele>2219.0</ele><time>2026-04-24T11:25:25Z</time></trkpt><trkpt lat="31.28146035451497" lon="-7.37956837557728"><ele>2219.0</ele><time>2026-04-24T11:25:26Z</time></trkpt><trkpt lat="31.28145018332793" lon="-7.3794860721843"><ele>2219.0</ele><time>2026-04-24T11:25:27Z</time></trkpt><trkpt lat="31.28143765197529" lon="-7.3793935359566"><ele>2219.0</ele><time>2026-04-24T11:25:28Z</time></trkpt><trkpt lat="31.281416081903526" lon="-7.379295516262044"><ele>2219.4</ele><time>2026-04-24T11:25:29Z</time></trkpt><trkpt lat="31.281387655410256" lon="-7.379193152211339"><ele>2219.8</ele><time>2026-04-24T11:25:30Z</time></trkpt><trkpt lat="31.281347685061835" lon="-7.37909462012971"><ele>2220.2</ele><time>2026-04-24T11:25:31Z</time></trkpt><trkpt lat="31.2812988869535" lon="-7.379004375379581"><ele>2220.6</ele><time>2026-04-24T11:25:32Z</time></trkpt><trkpt lat="31.281220732549446" lon="-7.378929411494795"><ele>2221.0</ele><time>2026-04-24T11:25:33Z</time></trkpt><trkpt lat="31.281133529221464" lon="-7.378860880805547"><ele>2214.75</ele><time>2026-04-24T11:25:34Z</time></trkpt><trkpt lat="31.281029630319132" lon="-7.378808576788016"><ele>2208.5</ele><time>2026-04-24T11:25:35Z</time></trkpt><trkpt lat="31.280919521341023" lon="-7.378757964884432"><ele>2202.25</ele><time>2026-04-24T11:25:36Z</time></trkpt><trkpt lat="31.28080504890203" lon="-7.378704700415895"><ele>2196.0</ele><time>2026-04-24T11:25:37Z</time></trkpt><trkpt lat="31.280694231302146" lon="-7.378643464582368"><ele>2196.4</ele><time>2026-04-24T11:25:38Z</time></trkpt><trkpt lat="31.28058955413967" lon="-7.378582292388353"><ele>2196.8</ele><time>2026-04-24T11:25:39Z</time></trkpt><trkpt lat="31.28049275333517" lon="-7.37852664690136"><ele>2197.2000000000003</ele><time>2026-04-24T11:25:40Z</time></trkpt><trkpt lat="31.28039957953519" lon="-7.3784828122894055"><ele>2197.6</ele><time>2026-04-24T11:25:41Z</time></trkpt><trkpt lat="31.2803089906535" lon="-7.378449601649216"><ele>2198.0</ele><time>2026-04-24T11:25:42Z</time></trkpt><trkpt lat="31.280225543379817" lon="-7.3784484786380276"><ele>2198.0</ele><time>2026-04-24T11:25:43Z</time></trkpt><trkpt lat="31.2801506201023" lon="-7.378484879215927"><ele>2198.0</ele><time>2026-04-24T11:25:44Z</time></trkpt><trkpt lat="31.280070375854493" lon="-7.378511630700991"><ele>2198.0</ele><time>2026-04-24T11:25:45Z</time></trkpt><trkpt lat="31.279987352846373" lon="-7.378529055671724"><ele>2198.0</ele><time>2026-04-24T11:25:46Z</time></trkpt><trkpt lat="31.279905626739886" lon="-7.37855719790271"><ele>2198.0</ele><time>2026-04-24T11:25:47Z</time></trkpt><trkpt lat="31.27980982777917" lon="-7.378574299355634"><ele>2198.0</ele><time>2026-04-24T11:25:48Z</time></trkpt><trkpt lat="31.27971929444325" lon="-7.378572981870436"><ele>2200.6</ele><time>2026-04-24T11:25:49Z</time></trkpt><trkpt lat="31.279627821892017" lon="-7.378564614911833"><ele>2203.2000000000003</ele><time>2026-04-24T11:25:50Z</time></trkpt><trkpt lat="31.279546015181932" lon="-7.378528446601524"><ele>2205.8</ele><time>2026-04-24T11:25:51Z</time></trkpt><trkpt lat="31.279470464247343" lon="-7.378473400074573"><ele>2208.4</ele><time>2026-04-24T11:25:52Z</time></trkpt><trkpt lat="31.279397289019034" lon="-7.378408728795"><ele>2211.0</ele><time>2026-04-24T11:25:53Z</time></trkpt><trkpt lat="31.279325734134023" lon="-7.378335484186366"><ele>2211.0</ele><time>2026-04-24T11:25:54Z</time></trkpt><trkpt lat="31.279254477646397" lon="-7.378253292754715"><ele>2211.0</ele><time>2026-04-24T11:25:55Z</time></trkpt><trkpt lat="31.27918975271059" lon="-7.378159772961391"><ele>2211.0</ele><time>2026-04-24T11:25:56Z</time></trkpt><trkpt lat="31.279134224386592" lon="-7.37805319540286"><ele>2211.0</ele><time>2026-04-24T11:25:57Z</time></trkpt><trkpt lat="31.27908664818765" lon="-7.377934559523609"><ele>2211.0</ele><time>2026-04-24T11:25:58Z</time></trkpt><trkpt lat="31.279041638330153" lon="-7.37780921045706"><ele>2205.75</ele><time>2026-04-24T11:25:59Z</time></trkpt><trkpt lat="31.27898967556919" lon="-7.377686308296577"><ele>2200.5</ele><time>2026-04-24T11:26:00Z</time></trkpt><trkpt lat="31.278926766000364" lon="-7.377570842998667"><ele>2195.25</ele><time>2026-04-24T11:26:01Z</time></trkpt><trkpt lat="31.27885498222319" lon="-7.377467472414881"><ele>2190.0</ele><time>2026-04-24T11:26:02Z</time></trkpt><trkpt lat="31.27877821782995" lon="-7.377371751069398"><ele>2193.2</ele><time>2026-04-24T11:26:03Z</time></trkpt><trkpt lat="31.278697809760175" lon="-7.377281273506111"><ele>2196.4</ele><time>2026-04-24T11:26:04Z</time></trkpt><trkpt lat="31.278616721289016" lon="-7.377194463841038"><ele>2199.6</ele><time>2026-04-24T11:26:05Z</time></trkpt><trkpt lat="31.278535176857975" lon="-7.377110011597882"><ele>2202.8</ele><time>2026-04-24T11:26:06Z</time></trkpt><trkpt lat="31.27845099923181" lon="-7.377031268031116"><ele>2206.0</ele><time>2026-04-24T11:26:07Z</time></trkpt><trkpt lat="31.278363092984687" lon="-7.3769484236026"><ele>2206.0</ele><time>2026-04-24T11:26:08Z</time></trkpt><trkpt lat="31.278276984683167" lon="-7.376862577726997"><ele>2206.0</ele><time>2026-04-24T11:26:09Z</time></trkpt><trkpt lat="31.27819602408199" lon="-7.376778045875859"><ele>2206.0</ele><time>2026-04-24T11:26:10Z</time></trkpt><trkpt lat="31.27812049434845" lon="-7.3767003595492415"><ele>2206.0</ele><time>2026-04-24T11:26:11Z</time></trkpt><trkpt lat="31.278048072218713" lon="-7.3766361448945315"><ele>2206.0</ele><time>2026-04-24T11:26:12Z</time></trkpt><trkpt lat="31.27797558778362" lon="-7.376589229457354"><ele>2208.714285714286</ele><time>2026-04-24T11:26:13Z</time></trkpt><trkpt lat="31.27790548594079" lon="-7.376562357399195"><ele>2211.4285714285716</ele><time>2026-04-24T11:26:14Z</time></trkpt><trkpt lat="31.277839037326746" lon="-7.376546711295432"><ele>2214.142857142857</ele><time>2026-04-24T11:26:15Z</time></trkpt><trkpt lat="31.277774900510234" lon="-7.37655216534138"><ele>2216.857142857143</ele><time>2026-04-24T11:26:16Z</time></trkpt><trkpt lat="31.277704667287498" lon="-7.376554976967851"><ele>2219.5714285714284</ele><time>2026-04-24T11:26:17Z</time></trkpt><trkpt lat="31.277627819743937" lon="-7.376546633678067"><ele>2222.285714285714</ele><time>2026-04-24T11:26:18Z</time></trkpt><trkpt lat="31.277545449695015" lon="-7.376524862211693"><ele>2225.0</ele><time>2026-04-24T11:26:19Z</time></trkpt><trkpt lat="31.27745728620595" lon="-7.376494643581019"><ele>2225.0</ele><time>2026-04-24T11:26:19.999Z</time></trkpt><trkpt lat="31.277362215275218" lon="-7.37644159517365"><ele>2225.0</ele><time>2026-04-24T11:26:20.999Z</time></trkpt><trkpt lat="31.27726257630839" lon="-7.376367165152697"><ele>2225.0</ele><time>2026-04-24T11:26:21.999Z</time></trkpt><trkpt lat="31.277161805454124" lon="-7.37628987177509"><ele>2225.0</ele><time>2026-04-24T11:26:22.999Z</time></trkpt><trkpt lat="31.277059833155228" lon="-7.376211052286882"><ele>2220.25</ele><time>2026-04-24T11:26:23.999Z</time></trkpt><trkpt lat="31.27695398913216" lon="-7.376133539077872"><ele>2215.5</ele><time>2026-04-24T11:26:24.999Z</time></trkpt><trkpt lat="31.27684756606689" lon="-7.376059552290412"><ele>2210.75</ele><time>2026-04-24T11:26:25.999Z</time></trkpt><trkpt lat="31.27673686052698" lon="-7.375993253561162"><ele>2206.0</ele><time>2026-04-24T11:26:26.999Z</time></trkpt><trkpt lat="31.276619862726076" lon="-7.375943411737433"><ele>2206.0</ele><time>2026-04-24T11:26:27.999Z</time></trkpt><trkpt lat="31.27649824934706" lon="-7.375921001178879"><ele>2206.0</ele><time>2026-04-24T11:26:28.999Z</time></trkpt><trkpt lat="31.276374343963397" lon="-7.375929678547744"><ele>2206.0</ele><time>2026-04-24T11:26:29.999Z</time></trkpt><trkpt lat="31.276249871400246" lon="-7.375951425375994"><ele>2206.0</ele><time>2026-04-24T11:26:30.999Z</time></trkpt><trkpt lat="31.276123384070353" lon="-7.376009739376543"><ele>2202.5</ele><time>2026-04-24T11:26:31.999Z</time></trkpt><trkpt lat="31.27599254167965" lon="-7.376080607942621"><ele>2199.0</ele><time>2026-04-24T11:26:32.999Z</time></trkpt><trkpt lat="31.275858339098125" lon="-7.376154993703943"><ele>2195.5</ele><time>2026-04-24T11:26:33.999Z</time></trkpt><trkpt lat="31.275714987653014" lon="-7.376224571423719"><ele>2192.0</ele><time>2026-04-24T11:26:34.999Z</time></trkpt><trkpt lat="31.27556849194899" lon="-7.376295096334263"><ele>2193.0</ele><time>2026-04-24T11:26:35.999Z</time></trkpt><trkpt lat="31.275423327215872" lon="-7.376373844303567"><ele>2194.0</ele><time>2026-04-24T11:26:36.999Z</time></trkpt><trkpt lat="31.275282181311102" lon="-7.376464067559622"><ele>2195.0</ele><time>2026-04-24T11:26:37.999Z</time></trkpt><trkpt lat="31.27514997422346" lon="-7.376569036652279"><ele>2195.0</ele><time>2026-04-24T11:26:38.999Z</time></trkpt><trkpt lat="31.275029746188594" lon="-7.3766907763553515"><ele>2195.0</ele><time>2026-04-24T11:26:39.999Z</time></trkpt><trkpt lat="31.27492052277654" lon="-7.376824934653241"><ele>2195.0</ele><time>2026-04-24T11:26:40.999Z</time></trkpt><trkpt lat="31.274819562844733" lon="-7.376968080894391"><ele>2190.6666666666665</ele><time>2026-04-24T11:26:41.999Z</time></trkpt><trkpt lat="31.274725988903366" lon="-7.377118534013145"><ele>2186.3333333333335</ele><time>2026-04-24T11:26:42.999Z</time></trkpt><trkpt lat="31.274639217602175" lon="-7.3772712150129065"><ele>2182.0</ele><time>2026-04-24T11:26:43.999Z</time></trkpt><trkpt lat="31.274567268655346" lon="-7.377436135004817"><ele>2182.0</ele><time>2026-04-24T11:26:44.999Z</time></trkpt><trkpt lat="31.27447627593969" lon="-7.377569787960201"><ele>2182.0</ele><time>2026-04-24T11:26:45.999Z</time></trkpt><trkpt lat="31.274401669699465" lon="-7.377713891230342"><ele>2182.0</ele><time>2026-04-24T11:26:46.999Z</time></trkpt><trkpt lat="31.274329805797052" lon="-7.377854932455754"><ele>2182.0</ele><time>2026-04-24T11:26:47.999Z</time></trkpt><trkpt lat="31.274258640916667" lon="-7.377992946735083"><ele>2185.25</ele><time>2026-04-24T11:26:48.999Z</time></trkpt><trkpt lat="31.274185365532766" lon="-7.378129661678259"><ele>2188.5</ele><time>2026-04-24T11:26:49.999Z</time></trkpt><trkpt lat="31.27411236911266" lon="-7.378267572042941"><ele>2191.75</ele><time>2026-04-24T11:26:50.999Z</time></trkpt><trkpt lat="31.274038264293825" lon="-7.378405969509217"><ele>2195.0</ele><time>2026-04-24T11:26:51.999Z</time></trkpt><trkpt lat="31.27396339003597" lon="-7.37854220689241"><ele>2194.25</ele><time>2026-04-24T11:26:52.999Z</time></trkpt><trkpt lat="31.2738891320998" lon="-7.3786739665863985"><ele>2193.5</ele><time>2026-04-24T11:26:53.999Z</time></trkpt><trkpt lat="31.27381477992927" lon="-7.378800286412836"><ele>2192.75</ele><time>2026-04-24T11:26:54.999Z</time></trkpt><trkpt lat="31.273749827323837" lon="-7.378929708054835"><ele>2192.0</ele><time>2026-04-24T11:26:55.999Z</time></trkpt><trkpt lat="31.273651025496086" lon="-7.379024459678658"><ele>2192.0</ele><time>2026-04-24T11:26:56.999Z</time></trkpt><trkpt lat="31.273538419499246" lon="-7.37910604061086"><ele>2192.0</ele><time>2026-04-24T11:26:57.999Z</time></trkpt><trkpt lat="31.273407810225773" lon="-7.3791717491606015"><ele>2192.0</ele><time>2026-04-24T11:26:58.999Z</time></trkpt><trkpt lat="31.273262678939457" lon="-7.37921837307799"><ele>2192.0</ele><time>2026-04-24T11:26:59.999Z</time></trkpt><trkpt lat="31.27310791331125" lon="-7.379247556078249"><ele>2189.0</ele><time>2026-04-24T11:27:00.999Z</time></trkpt><trkpt lat="31.27295016427329" lon="-7.379270680954041"><ele>2186.0</ele><time>2026-04-24T11:27:01.999Z</time></trkpt><trkpt lat="31.272786220385374" lon="-7.379291099263369"><ele>2183.0</ele><time>2026-04-24T11:27:02.999Z</time></trkpt><trkpt lat="31.272624880003953" lon="-7.379325281095576"><ele>2183.0</ele><time>2026-04-24T11:27:03.999Z</time></trkpt><trkpt lat="31.27247001678898" lon="-7.37938370974732"><ele>2183.0</ele><time>2026-04-24T11:27:04.999Z</time></trkpt><trkpt lat="31.27232888248787" lon="-7.379466490457167"><ele>2183.0</ele><time>2026-04-24T11:27:05.999Z</time></trkpt><trkpt lat="31.27219525624084" lon="-7.379557218476578"><ele>2177.6666666666665</ele><time>2026-04-24T11:27:06.999Z</time></trkpt><trkpt lat="31.272106370638443" lon="-7.379708968935443"><ele>2172.3333333333335</ele><time>2026-04-24T11:27:07.999Z</time></trkpt><trkpt lat="31.272020839947093" lon="-7.3798617166550295"><ele>2167.0</ele><time>2026-04-24T11:27:08.999Z</time></trkpt><trkpt lat="31.271935211426417" lon="-7.38002586652957"><ele>2167.0</ele><time>2026-04-24T11:27:09.999Z</time></trkpt><trkpt lat="31.27185437584027" lon="-7.380189320947564"><ele>2167.0</ele><time>2026-04-24T11:27:10.999Z</time></trkpt><trkpt lat="31.271776465097226" lon="-7.380351871545831"><ele>2167.0</ele><time>2026-04-24T11:27:11.999Z</time></trkpt><trkpt lat="31.271689798425943" lon="-7.380506824531145"><ele>2165.3333333333335</ele><time>2026-04-24T11:27:12.999Z</time></trkpt><trkpt lat="31.27158862776684" lon="-7.380652009399425"><ele>2163.6666666666665</ele><time>2026-04-24T11:27:13.999Z</time></trkpt><trkpt lat="31.271471058276877" lon="-7.380783177615933"><ele>2162.0</ele><time>2026-04-24T11:27:14.999Z</time></trkpt><trkpt lat="31.271343105490356" lon="-7.380887554883339"><ele>2162.0</ele><time>2026-04-24T11:27:15.999Z</time></trkpt><trkpt lat="31.27120542784847" lon="-7.380974516218702"><ele>2162.0</ele><time>2026-04-24T11:27:16.999Z</time></trkpt><trkpt lat="31.271055794628694" lon="-7.381038222770119"><ele>2162.0</ele><time>2026-04-24T11:27:17.999Z</time></trkpt><trkpt lat="31.270895165140942" lon="-7.381074294825152"><ele>2162.0</ele><time>2026-04-24T11:27:18.999Z</time></trkpt><trkpt lat="31.270728044261308" lon="-7.381083111008386"><ele>2162.0</ele><time>2026-04-24T11:27:19.999Z</time></trkpt><trkpt lat="31.27055757741148" lon="-7.38106527258659"><ele>2162.0</ele><time>2026-04-24T11:27:20.999Z</time></trkpt><trkpt lat="31.27038293498357" lon="-7.381021660456489"><ele>2160.6666666666665</ele><time>2026-04-24T11:27:21.999Z</time></trkpt><trkpt lat="31.270205743233912" lon="-7.380956145821678"><ele>2159.3333333333335</ele><time>2026-04-24T11:27:22.999Z</time></trkpt><trkpt lat="31.27002490719811" lon="-7.380880751375484"><ele>2158.0</ele><time>2026-04-24T11:27:23.999Z</time></trkpt><trkpt lat="31.269840201411842" lon="-7.380804069778326"><ele>2159.0</ele><time>2026-04-24T11:27:24.999Z</time></trkpt><trkpt lat="31.269655786911745" lon="-7.380731517532035"><ele>2160.0</ele><time>2026-04-24T11:27:25.999Z</time></trkpt><trkpt lat="31.2694784114276" lon="-7.380663483050525"><ele>2161.0</ele><time>2026-04-24T11:27:26.999Z</time></trkpt><trkpt lat="31.2693175955368" lon="-7.380604036294326"><ele>2161.0</ele><time>2026-04-24T11:27:27.999Z</time></trkpt><trkpt lat="31.269163616425107" lon="-7.380552799265715"><ele>2161.0</ele><time>2026-04-24T11:27:28.999Z</time></trkpt><trkpt lat="31.269013965402138" lon="-7.380526171113133"><ele>2161.0</ele><time>2026-04-24T11:27:29.999Z</time></trkpt><trkpt lat="31.26886941874392" lon="-7.380532752537632"><ele>2157.0</ele><time>2026-04-24T11:27:31Z</time></trkpt><trkpt lat="31.268736027859514" lon="-7.38057109850778"><ele>2153.0</ele><time>2026-04-24T11:27:32Z</time></trkpt><trkpt lat="31.26861143885967" lon="-7.38064265593176"><ele>2149.0</ele><time>2026-04-24T11:27:33Z</time></trkpt><trkpt lat="31.268495720824717" lon="-7.380742698618046"><ele>2145.0</ele><time>2026-04-24T11:27:34Z</time></trkpt><trkpt lat="31.268388913650558" lon="-7.380865966710519"><ele>2145.0</ele><time>2026-04-24T11:27:35Z</time></trkpt><trkpt lat="31.268286354414172" lon="-7.380999618473921"><ele>2145.0</ele><time>2026-04-24T11:27:36Z</time></trkpt><trkpt lat="31.26818476955522" lon="-7.381131658076912"><ele>2145.0</ele><time>2026-04-24T11:27:37Z</time></trkpt><trkpt lat="31.268085833353698" lon="-7.381256648401726"><ele>2141.75</ele><time>2026-04-24T11:27:38Z</time></trkpt><trkpt lat="31.26798804687825" lon="-7.38137680631461"><ele>2138.5</ele><time>2026-04-24T11:27:39Z</time></trkpt><trkpt lat="31.267892180885326" lon="-7.381494023912662"><ele>2135.25</ele><time>2026-04-24T11:27:40Z</time></trkpt><trkpt lat="31.267802735539917" lon="-7.381617061619402"><ele>2132.0</ele><time>2026-04-24T11:27:41Z</time></trkpt><trkpt lat="31.267724876469188" lon="-7.381753083355627"><ele>2132.0</ele><time>2026-04-24T11:27:42Z</time></trkpt><trkpt lat="31.267669913410252" lon="-7.381906467363121"><ele>2132.0</ele><time>2026-04-24T11:27:43Z</time></trkpt><trkpt lat="31.26764553225389" lon="-7.382073819957699"><ele>2132.0</ele><time>2026-04-24T11:27:44Z</time></trkpt><trkpt lat="31.267653447733903" lon="-7.382248586415777"><ele>2132.0</ele><time>2026-04-24T11:27:45Z</time></trkpt><trkpt lat="31.26768529366107" lon="-7.382422652865088"><ele>2133.0</ele><time>2026-04-24T11:27:46Z</time></trkpt><trkpt lat="31.26772347241855" lon="-7.382592641306033"><ele>2134.0</ele><time>2026-04-24T11:27:47Z</time></trkpt><trkpt lat="31.26776097116887" lon="-7.382757402127472"><ele>2135.0</ele><time>2026-04-24T11:27:48Z</time></trkpt><trkpt lat="31.267800023629743" lon="-7.382921399803813"><ele>2136.0</ele><time>2026-04-24T11:27:49Z</time></trkpt><trkpt lat="31.26783229735152" lon="-7.383083542623146"><ele>2133.25</ele><time>2026-04-24T11:27:50Z</time></trkpt><trkpt lat="31.267863358858882" lon="-7.383243015477689"><ele>2130.5</ele><time>2026-04-24T11:27:51Z</time></trkpt><trkpt lat="31.26787653011163" lon="-7.383400614601723"><ele>2127.75</ele><time>2026-04-24T11:27:52Z</time></trkpt><trkpt lat="31.26786906740481" lon="-7.383557467290903"><ele>2125.0</ele><time>2026-04-24T11:27:53Z</time></trkpt><trkpt lat="31.267838244371994" lon="-7.383709302086941"><ele>2128.5</ele><time>2026-04-24T11:27:54Z</time></trkpt><trkpt lat="31.26777803844414" lon="-7.383851876071006"><ele>2132.0</ele><time>2026-04-24T11:27:55Z</time></trkpt><trkpt lat="31.267691451833027" lon="-7.38398270383603"><ele>2135.5</ele><time>2026-04-24T11:27:56Z</time></trkpt><trkpt lat="31.267578414873306" lon="-7.384093265151725"><ele>2139.0</ele><time>2026-04-24T11:27:57Z</time></trkpt><trkpt lat="31.267442988631874" lon="-7.384177532082481"><ele>2139.0</ele><time>2026-04-24T11:27:58Z</time></trkpt><trkpt lat="31.267292099031607" lon="-7.384231779067736"><ele>2139.0</ele><time>2026-04-24T11:27:59Z</time></trkpt><trkpt lat="31.26713549699658" lon="-7.384261899481626"><ele>2139.0</ele><time>2026-04-24T11:28:00Z</time></trkpt><trkpt lat="31.26697726538437" lon="-7.384282663489446"><ele>2134.6666666666665</ele><time>2026-04-24T11:28:01Z</time></trkpt><trkpt lat="31.266820801291374" lon="-7.3842981090046225"><ele>2130.333333333333</ele><time>2026-04-24T11:28:02Z</time></trkpt><trkpt lat="31.266668964303673" lon="-7.384308291038183"><ele>2126.0</ele><time>2026-04-24T11:28:03Z</time></trkpt><trkpt lat="31.266521575577478" lon="-7.384299798694281"><ele>2130.5</ele><time>2026-04-24T11:28:04Z</time></trkpt><trkpt lat="31.266381492671346" lon="-7.384260366751698"><ele>2135.0</ele><time>2026-04-24T11:28:05Z</time></trkpt><trkpt lat="31.266253488140798" lon="-7.384197612457554"><ele>2139.5</ele><time>2026-04-24T11:28:06Z</time></trkpt><trkpt lat="31.266127949832217" lon="-7.384128253289467"><ele>2144.0</ele><time>2026-04-24T11:28:07Z</time></trkpt><trkpt lat="31.266013096335456" lon="-7.384057122622795"><ele>2144.0</ele><time>2026-04-24T11:28:08Z</time></trkpt><trkpt lat="31.265896974698887" lon="-7.383986488003222"><ele>2144.0</ele><time>2026-04-24T11:28:09Z</time></trkpt><trkpt lat="31.265779886915084" lon="-7.383920208203655"><ele>2144.0</ele><time>2026-04-24T11:28:10Z</time></trkpt><trkpt lat="31.26566487681283" lon="-7.383855576175827"><ele>2144.0</ele><time>2026-04-24T11:28:11Z</time></trkpt><trkpt lat="31.26555196865637" lon="-7.3837901732283076"><ele>2137.0</ele><time>2026-04-24T11:28:12Z</time></trkpt><trkpt lat="31.265439452979635" lon="-7.3837231257525895"><ele>2130.0</ele><time>2026-04-24T11:28:13Z</time></trkpt><trkpt lat="31.265324591261894" lon="-7.383659042804287"><ele>2123.0</ele><time>2026-04-24T11:28:14Z</time></trkpt><trkpt lat="31.265206249196794" lon="-7.383606682501249"><ele>2116.0</ele><time>2026-04-24T11:28:15Z</time></trkpt><trkpt lat="31.265082737580244" lon="-7.383575364579831"><ele>2116.0</ele><time>2026-04-24T11:28:16Z</time></trkpt><trkpt lat="31.26494977956884" lon="-7.383568854474323"><ele>2116.0</ele><time>2026-04-24T11:28:17Z</time></trkpt><trkpt lat="31.26480900108995" lon="-7.383580949521088"><ele>2116.0</ele><time>2026-04-24T11:28:18Z</time></trkpt><trkpt lat="31.264664028307113" lon="-7.383595801058845"><ele>2116.0</ele><time>2026-04-24T11:28:19Z</time></trkpt><trkpt lat="31.264505557941536" lon="-7.383622000530662"><ele>2113.3333333333335</ele><time>2026-04-24T11:28:20Z</time></trkpt><trkpt lat="31.264345310269487" lon="-7.383650564349072"><ele>2110.6666666666665</ele><time>2026-04-24T11:28:21Z</time></trkpt><trkpt lat="31.26418347807549" lon="-7.3836765050171325"><ele>2108.0</ele><time>2026-04-24T11:28:22Z</time></trkpt><trkpt lat="31.2640199537818" lon="-7.38370175125747"><ele>2102.0</ele><time>2026-04-24T11:28:23Z</time></trkpt><trkpt lat="31.263860684820717" lon="-7.38372754145579"><ele>2096.0</ele><time>2026-04-24T11:28:24Z</time></trkpt><trkpt lat="31.26370626094799" lon="-7.383753135339458"><ele>2090.0</ele><time>2026-04-24T11:28:25Z</time></trkpt><trkpt lat="31.263557310439968" lon="-7.383779184901926"><ele>2090.0</ele><time>2026-04-24T11:28:26Z</time></trkpt><trkpt lat="31.263415279697014" lon="-7.383804225407339"><ele>2090.0</ele><time>2026-04-24T11:28:26.999Z</time></trkpt><trkpt lat="31.263278790775118" lon="-7.383828725351159"><ele>2090.0</ele><time>2026-04-24T11:28:27.999Z</time></trkpt><trkpt lat="31.263144262322704" lon="-7.383854603541122"><ele>2090.0</ele><time>2026-04-24T11:28:28.999Z</time></trkpt><trkpt lat="31.263023517020017" lon="-7.383879099428538"><ele>2093.6</ele><time>2026-04-24T11:28:29.999Z</time></trkpt><trkpt lat="31.26291180808047" lon="-7.383909489731153"><ele>2097.2</ele><time>2026-04-24T11:28:30.999Z</time></trkpt><trkpt lat="31.26281138134607" lon="-7.383948898184646"><ele>2100.8</ele><time>2026-04-24T11:28:31.999Z</time></trkpt><trkpt lat="31.262724033759962" lon="-7.383996865187579"><ele>2104.4</ele><time>2026-04-24T11:28:32.999Z</time></trkpt><trkpt lat="31.26265068644828" lon="-7.3840484409316405"><ele>2108.0</ele><time>2026-04-24T11:28:33.999Z</time></trkpt><trkpt lat="31.262588331242426" lon="-7.384099099666932"><ele>2108.0</ele><time>2026-04-24T11:28:34.999Z</time></trkpt><trkpt lat="31.262535340540673" lon="-7.384144455087503"><ele>2108.0</ele><time>2026-04-24T11:28:35.999Z</time></trkpt><trkpt lat="31.262440306348118" lon="-7.384208028870743"><ele>2108.0</ele><time>2026-04-24T11:28:37.999Z</time></trkpt><trkpt lat="31.262366869775608" lon="-7.3842289269712085"><ele>2108.0</ele><time>2026-04-24T11:28:39.999Z</time></trkpt><trkpt lat="31.26229457044575" lon="-7.3841927297509775"><ele>2108.0</ele><time>2026-04-24T11:29:01.999Z</time></trkpt><trkpt lat="31.262228970667273" lon="-7.384150978053334"><ele>2108.0</ele><time>2026-04-24T11:29:03.999Z</time></trkpt><trkpt lat="31.262135156603946" lon="-7.3842074186216715"><ele>2105.333333333333</ele><time>2026-04-24T11:29:05.999Z</time></trkpt><trkpt lat="31.262091072860006" lon="-7.384268381499986"><ele>2102.6666666666665</ele><time>2026-04-24T11:29:06.999Z</time></trkpt><trkpt lat="31.26204973779677" lon="-7.384330513189966"><ele>2100.0</ele><time>2026-04-24T11:29:07.999Z</time></trkpt><trkpt lat="31.26198744814857" lon="-7.384427177537372"><ele>2097.3333333333335</ele><time>2026-04-24T11:29:09.999Z</time></trkpt><trkpt lat="31.261948617540625" lon="-7.384502967955022"><ele>2094.666666666667</ele><time>2026-04-24T11:29:12.999Z</time></trkpt><trkpt lat="31.261902670346316" lon="-7.38460014320589"><ele>2092.0</ele><time>2026-04-24T11:29:14.999Z</time></trkpt><trkpt lat="31.261871569248758" lon="-7.384674605513051"><ele>2093.4</ele><time>2026-04-24T11:29:15.999Z</time></trkpt><trkpt lat="31.26183031340842" lon="-7.384760014173936"><ele>2094.7999999999997</ele><time>2026-04-24T11:29:16.999Z</time></trkpt><trkpt lat="31.261773864550264" lon="-7.384851927524583"><ele>2096.2</ele><time>2026-04-24T11:29:17.999Z</time></trkpt><trkpt lat="31.261702833827165" lon="-7.384940954136038"><ele>2097.6</ele><time>2026-04-24T11:29:18.999Z</time></trkpt><trkpt lat="31.261618294877078" lon="-7.385025831460329"><ele>2099.0</ele><time>2026-04-24T11:29:19.999Z</time></trkpt><trkpt lat="31.26152467692404" lon="-7.385108490810708"><ele>2094.75</ele><time>2026-04-24T11:29:20.999Z</time></trkpt><trkpt lat="31.26142410737147" lon="-7.3851891148229285"><ele>2090.5</ele><time>2026-04-24T11:29:21.999Z</time></trkpt><trkpt lat="31.26132102429736" lon="-7.38526917229201"><ele>2086.25</ele><time>2026-04-24T11:29:22.999Z</time></trkpt><trkpt lat="31.261217810272424" lon="-7.385352425215764"><ele>2082.0</ele><time>2026-04-24T11:29:23.999Z</time></trkpt><trkpt lat="31.261123075551986" lon="-7.385452076511209"><ele>2083.0</ele><time>2026-04-24T11:29:24.999Z</time></trkpt><trkpt lat="31.261037745141117" lon="-7.38557156496772"><ele>2084.0</ele><time>2026-04-24T11:29:25.999Z</time></trkpt><trkpt lat="31.26096391880186" lon="-7.385708949735357"><ele>2085.0</ele><time>2026-04-24T11:29:26.999Z</time></trkpt><trkpt lat="31.260903396913207" lon="-7.385860050216045"><ele>2086.0</ele><time>2026-04-24T11:29:27.999Z</time></trkpt><trkpt lat="31.260854927937846" lon="-7.386014863333891"><ele>2086.0</ele><time>2026-04-24T11:29:28.999Z</time></trkpt><trkpt lat="31.260812701283317" lon="-7.386165980216158"><ele>2086.0</ele><time>2026-04-24T11:29:29.999Z</time></trkpt><trkpt lat="31.26077989425196" lon="-7.38631325393003"><ele>2086.0</ele><time>2026-04-24T11:29:30.999Z</time></trkpt><trkpt lat="31.26075831653309" lon="-7.38645783214887"><ele>2086.0</ele><time>2026-04-24T11:29:31.999Z</time></trkpt><trkpt lat="31.26074326356966" lon="-7.386603321982425"><ele>2087.75</ele><time>2026-04-24T11:29:32.999Z</time></trkpt><trkpt lat="31.260729917432236" lon="-7.386747672581815"><ele>2089.5</ele><time>2026-04-24T11:29:33.999Z</time></trkpt><trkpt lat="31.26070935018099" lon="-7.3868926644993635"><ele>2091.25</ele><time>2026-04-24T11:29:34.999Z</time></trkpt><trkpt lat="31.260678342661112" lon="-7.3870337725697715"><ele>2093.0</ele><time>2026-04-24T11:29:35.999Z</time></trkpt><trkpt lat="31.26063626068269" lon="-7.387173231885906"><ele>2086.75</ele><time>2026-04-24T11:29:37Z</time></trkpt><trkpt lat="31.260585808738092" lon="-7.3873137304145065"><ele>2080.5</ele><time>2026-04-24T11:29:38Z</time></trkpt><trkpt lat="31.26053083596879" lon="-7.387455691299396"><ele>2074.25</ele><time>2026-04-24T11:29:39Z</time></trkpt><trkpt lat="31.260469823672043" lon="-7.387598100885598"><ele>2068.0</ele><time>2026-04-24T11:29:40Z</time></trkpt><trkpt lat="31.260402038701503" lon="-7.387737489875102"><ele>2068.0</ele><time>2026-04-24T11:29:41Z</time></trkpt><trkpt lat="31.260325313384367" lon="-7.387868553869107"><ele>2068.0</ele><time>2026-04-24T11:29:42Z</time></trkpt><trkpt lat="31.260248403135616" lon="-7.387990909971933"><ele>2068.0</ele><time>2026-04-24T11:29:43Z</time></trkpt><trkpt lat="31.260181615498798" lon="-7.388112365631831"><ele>2068.0</ele><time>2026-04-24T11:29:44Z</time></trkpt><trkpt lat="31.26012923413002" lon="-7.388238538826465"><ele>2069.75</ele><time>2026-04-24T11:29:45Z</time></trkpt><trkpt lat="31.2600943046269" lon="-7.38837485207551"><ele>2071.5</ele><time>2026-04-24T11:29:46Z</time></trkpt><trkpt lat="31.260069041555724" lon="-7.388514676962103"><ele>2073.25</ele><time>2026-04-24T11:29:47Z</time></trkpt><trkpt lat="31.260082371536654" lon="-7.38866422062892"><ele>2075.0</ele><time>2026-04-24T11:29:48Z</time></trkpt><trkpt lat="31.260115241219793" lon="-7.388815813892646"><ele>2075.0</ele><time>2026-04-24T11:29:49Z</time></trkpt><trkpt lat="31.26015488579694" lon="-7.388964002578202"><ele>2075.0</ele><time>2026-04-24T11:29:50Z</time></trkpt><trkpt lat="31.260202448431954" lon="-7.389102820328056"><ele>2075.0</ele><time>2026-04-24T11:29:51Z</time></trkpt><trkpt lat="31.260240635380825" lon="-7.389230871067579"><ele>2075.0</ele><time>2026-04-24T11:29:52Z</time></trkpt><trkpt lat="31.260263914525577" lon="-7.389345575211434"><ele>2075.0</ele><time>2026-04-24T11:29:53Z</time></trkpt><trkpt lat="31.260282215821825" lon="-7.3894533710391475"><ele>2075.0</ele><time>2026-04-24T11:29:54Z</time></trkpt><trkpt lat="31.260276784285526" lon="-7.389539878545035"><ele>2075.0</ele><time>2026-04-24T11:29:55Z</time></trkpt><trkpt lat="31.26024858204348" lon="-7.3896136605626115"><ele>2075.0</ele><time>2026-04-24T11:29:56Z</time></trkpt><trkpt lat="31.260204153405166" lon="-7.389674544168506"><ele>2075.0</ele><time>2026-04-24T11:29:57Z</time></trkpt><trkpt lat="31.260151753864726" lon="-7.389718126923632"><ele>2075.0</ele><time>2026-04-24T11:29:58Z</time></trkpt><trkpt lat="31.26008021598066" lon="-7.38971987273799"><ele>2075.0</ele><time>2026-04-24T11:29:59Z</time></trkpt><trkpt lat="31.260005219833033" lon="-7.389705174203955"><ele>2075.0</ele><time>2026-04-24T11:30:00Z</time></trkpt><trkpt lat="31.259943455408127" lon="-7.389640950797663"><ele>2075.0</ele><time>2026-04-24T11:30:01Z</time></trkpt><trkpt lat="31.25989324821597" lon="-7.389549860324982"><ele>2075.0</ele><time>2026-04-24T11:30:02Z</time></trkpt><trkpt lat="31.259847199754876" lon="-7.389440643844457"><ele>2075.0</ele><time>2026-04-24T11:30:03Z</time></trkpt><trkpt lat="31.259792952416387" lon="-7.3893238450959"><ele>2075.0</ele><time>2026-04-24T11:30:04Z</time></trkpt><trkpt lat="31.25971447925488" lon="-7.3892201080579"><ele>2073.75</ele><time>2026-04-24T11:30:05Z</time></trkpt><trkpt lat="31.259629883195984" lon="-7.3891325260824585"><ele>2072.5</ele><time>2026-04-24T11:30:06Z</time></trkpt><trkpt lat="31.25954551903085" lon="-7.389040726415289"><ele>2071.25</ele><time>2026-04-24T11:30:07Z</time></trkpt><trkpt lat="31.25947331378061" lon="-7.38893635465631"><ele>2070.0</ele><time>2026-04-24T11:30:08Z</time></trkpt><trkpt lat="31.25942104971136" lon="-7.388820056091572"><ele>2070.0</ele><time>2026-04-24T11:30:09Z</time></trkpt><trkpt lat="31.259382583589176" lon="-7.388691010441563"><ele>2070.0</ele><time>2026-04-24T11:30:10Z</time></trkpt><trkpt lat="31.25934669879153" lon="-7.388554508534647"><ele>2070.0</ele><time>2026-04-24T11:30:11Z</time></trkpt><trkpt lat="31.25930084547089" lon="-7.388419802190759"><ele>2070.0</ele><time>2026-04-24T11:30:12Z</time></trkpt><trkpt lat="31.25924102572515" lon="-7.388294375186803"><ele>2070.0</ele><time>2026-04-24T11:30:13Z</time></trkpt><trkpt lat="31.259173475663072" lon="-7.38818263557741"><ele>2070.0</ele><time>2026-04-24T11:30:14Z</time></trkpt><trkpt lat="31.25910974436478" lon="-7.388074198090972"><ele>2070.0</ele><time>2026-04-24T11:30:15Z</time></trkpt><trkpt lat="31.25906612437223" lon="-7.387949868215548"><ele>2070.0</ele><time>2026-04-24T11:30:16Z</time></trkpt><trkpt lat="31.25904520405243" lon="-7.38780659796044"><ele>2066.75</ele><time>2026-04-24T11:30:17Z</time></trkpt><trkpt lat="31.259031400346007" lon="-7.387654757827967"><ele>2063.5</ele><time>2026-04-24T11:30:18Z</time></trkpt><trkpt lat="31.259035182150797" lon="-7.387492566809269"><ele>2060.25</ele><time>2026-04-24T11:30:19Z</time></trkpt><trkpt lat="31.25904519694545" lon="-7.387322899282369"><ele>2057.0</ele><time>2026-04-24T11:30:20Z</time></trkpt><trkpt lat="31.259056096764404" lon="-7.3871497217184965"><ele>2055.5</ele><time>2026-04-24T11:30:21Z</time></trkpt><trkpt lat="31.259071194218723" lon="-7.386983896867397"><ele>2054.0</ele><time>2026-04-24T11:30:22Z</time></trkpt><trkpt lat="31.25909338638075" lon="-7.386827881154939"><ele>2052.5</ele><time>2026-04-24T11:30:23Z</time></trkpt><trkpt lat="31.25912428911092" lon="-7.386685887631337"><ele>2051.0</ele><time>2026-04-24T11:30:24Z</time></trkpt><trkpt lat="31.25916236423311" lon="-7.386558256631192"><ele>2051.0</ele><time>2026-04-24T11:30:25Z</time></trkpt><trkpt lat="31.259208946733647" lon="-7.386444812360588"><ele>2051.0</ele><time>2026-04-24T11:30:26Z</time></trkpt><trkpt lat="31.259260255404218" lon="-7.386340913079188"><ele>2051.0</ele><time>2026-04-24T11:30:27Z</time></trkpt><trkpt lat="31.259306168799952" lon="-7.386240210010367"><ele>2051.0</ele><time>2026-04-24T11:30:28Z</time></trkpt><trkpt lat="31.25933869371047" lon="-7.3861359022829465"><ele>2051.0</ele><time>2026-04-24T11:30:29Z</time></trkpt><trkpt lat="31.259356472623466" lon="-7.3860279170131715"><ele>2050.0</ele><time>2026-04-24T11:30:30Z</time></trkpt><trkpt lat="31.25936161462028" lon="-7.385913845087595"><ele>2049.0</ele><time>2026-04-24T11:30:31Z</time></trkpt><trkpt lat="31.259353975477005" lon="-7.3857962521843294"><ele>2048.0</ele><time>2026-04-24T11:30:32Z</time></trkpt><trkpt lat="31.259334085080816" lon="-7.385676674212403"><ele>2047.0</ele><time>2026-04-24T11:30:32.999Z</time></trkpt><trkpt lat="31.25929783912597" lon="-7.385563989274313"><ele>2046.0</ele><time>2026-04-24T11:30:33.999Z</time></trkpt><trkpt lat="31.25924080572624" lon="-7.385467918304919"><ele>2047.8</ele><time>2026-04-24T11:30:34.999Z</time></trkpt><trkpt lat="31.259164188967066" lon="-7.385393114899656"><ele>2049.6</ele><time>2026-04-24T11:30:35.999Z</time></trkpt><trkpt lat="31.259077940492016" lon="-7.385333545250166"><ele>2051.4</ele><time>2026-04-24T11:30:36.999Z</time></trkpt><trkpt lat="31.258991814539254" lon="-7.3852725122851695"><ele>2053.2</ele><time>2026-04-24T11:30:37.999Z</time></trkpt><trkpt lat="31.25891381214635" lon="-7.385191807949786"><ele>2055.0</ele><time>2026-04-24T11:30:38.999Z</time></trkpt><trkpt lat="31.258849420247618" lon="-7.3850838118210955"><ele>2055.0</ele><time>2026-04-24T11:30:39.999Z</time></trkpt><trkpt lat="31.25880010006542" lon="-7.384949238929161"><ele>2055.0</ele><time>2026-04-24T11:30:40.999Z</time></trkpt><trkpt lat="31.258760032133" lon="-7.384794224938856"><ele>2055.0</ele><time>2026-04-24T11:30:41.999Z</time></trkpt><trkpt lat="31.258714583953854" lon="-7.384625439051288"><ele>2055.0</ele><time>2026-04-24T11:30:42.999Z</time></trkpt><trkpt lat="31.258654289828062" lon="-7.384450601370264"><ele>2048.0</ele><time>2026-04-24T11:30:43.999Z</time></trkpt><trkpt lat="31.25858456038266" lon="-7.384274617779252"><ele>2041.0</ele><time>2026-04-24T11:30:44.999Z</time></trkpt><trkpt lat="31.258522200152488" lon="-7.384101979174312"><ele>2034.0</ele><time>2026-04-24T11:30:45.999Z</time></trkpt><trkpt lat="31.258476570590382" lon="-7.383930721508141"><ele>2031.5</ele><time>2026-04-24T11:30:46.999Z</time></trkpt><trkpt lat="31.258445441159267" lon="-7.383763191352385"><ele>2029.0</ele><time>2026-04-24T11:30:47.999Z</time></trkpt><trkpt lat="31.25841605944195" lon="-7.383597822582533"><ele>2026.5</ele><time>2026-04-24T11:30:48.999Z</time></trkpt><trkpt lat="31.25837424383209" lon="-7.383430765692247"><ele>2024.0</ele><time>2026-04-24T11:30:49.999Z</time></trkpt><trkpt lat="31.258314522789835" lon="-7.383265631734492"><ele>2024.0</ele><time>2026-04-24T11:30:50.999Z</time></trkpt><trkpt lat="31.25824382253892" lon="-7.3831084996158545"><ele>2024.0</ele><time>2026-04-24T11:30:51.999Z</time></trkpt><trkpt lat="31.258179864081708" lon="-7.382955388094971"><ele>2024.0</ele><time>2026-04-24T11:30:52.999Z</time></trkpt><trkpt lat="31.258136515232355" lon="-7.382805478452757"><ele>2024.0</ele><time>2026-04-24T11:30:53.999Z</time></trkpt><trkpt lat="31.258113212675543" lon="-7.382666654573753"><ele>2024.4</ele><time>2026-04-24T11:30:54.999Z</time></trkpt><trkpt lat="31.258101806321733" lon="-7.3825376526725925"><ele>2024.8000000000002</ele><time>2026-04-24T11:30:55.999Z</time></trkpt><trkpt lat="31.25809067242532" lon="-7.3824149268665655"><ele>2025.1999999999998</ele><time>2026-04-24T11:30:56.999Z</time></trkpt><trkpt lat="31.258067905800097" lon="-7.3822958332696365"><ele>2025.6</ele><time>2026-04-24T11:30:57.999Z</time></trkpt><trkpt lat="31.258029338159876" lon="-7.382183813279678"><ele>2026.0</ele><time>2026-04-24T11:30:58.999Z</time></trkpt><trkpt lat="31.257983957919034" lon="-7.382079613483566"><ele>2026.0</ele><time>2026-04-24T11:30:59.999Z</time></trkpt><trkpt lat="31.25791680779594" lon="-7.38197719483197"><ele>2026.0</ele><time>2026-04-24T11:31:00.999Z</time></trkpt><trkpt lat="31.2578480025155" lon="-7.381865021124769"><ele>2026.0</ele><time>2026-04-24T11:31:01.999Z</time></trkpt><trkpt lat="31.25779019117359" lon="-7.381737963650002"><ele>2026.0</ele><time>2026-04-24T11:31:02.999Z</time></trkpt><trkpt lat="31.257746255794693" lon="-7.381600057983865"><ele>2026.0</ele><time>2026-04-24T11:31:03.999Z</time></trkpt><trkpt lat="31.25771516103271" lon="-7.381454703749531"><ele>2026.0</ele><time>2026-04-24T11:31:04.999Z</time></trkpt><trkpt lat="31.257684457536957" lon="-7.381309260759851"><ele>2026.0</ele><time>2026-04-24T11:31:05.999Z</time></trkpt><trkpt lat="31.257640995594375" lon="-7.38116703213099"><ele>2026.0</ele><time>2026-04-24T11:31:06.999Z</time></trkpt><trkpt lat="31.257585854699787" lon="-7.381034448978227"><ele>2020.25</ele><time>2026-04-24T11:31:07.999Z</time></trkpt><trkpt lat="31.257522615110283" lon="-7.380912413005596"><ele>2014.5</ele><time>2026-04-24T11:31:08.999Z</time></trkpt><trkpt lat="31.25745335547141" lon="-7.380802545743794"><ele>2008.75</ele><time>2026-04-24T11:31:09.999Z</time></trkpt><trkpt lat="31.25737787312584" lon="-7.380709607265003"><ele>2003.0</ele><time>2026-04-24T11:31:10.999Z</time></trkpt><trkpt lat="31.257289540363843" lon="-7.380636165344766"><ele>2004.2</ele><time>2026-04-24T11:31:11.999Z</time></trkpt><trkpt lat="31.257199347304535" lon="-7.380574207714339"><ele>2005.4</ele><time>2026-04-24T11:31:12.999Z</time></trkpt><trkpt lat="31.257095325982505" lon="-7.380543305391102"><ele>2006.6000000000001</ele><time>2026-04-24T11:31:13.999Z</time></trkpt><trkpt lat="31.256982131873887" lon="-7.380537235104707"><ele>2007.8000000000002</ele><time>2026-04-24T11:31:14.999Z</time></trkpt><trkpt lat="31.25686366064488" lon="-7.38055203023848"><ele>2009.0</ele><time>2026-04-24T11:31:15.999Z</time></trkpt><trkpt lat="31.256759099125198" lon="-7.380566237399218"><ele>2009.0</ele><time>2026-04-24T11:31:16.999Z</time></trkpt><trkpt lat="31.256669159925398" lon="-7.380573200024135"><ele>2009.0</ele><time>2026-04-24T11:31:17.999Z</time></trkpt><trkpt lat="31.2565914438687" lon="-7.380574398476847"><ele>2009.0</ele><time>2026-04-24T11:31:18.999Z</time></trkpt><trkpt lat="31.256496069978738" lon="-7.380516146225545"><ele>2009.0</ele><time>2026-04-24T11:31:20.999Z</time></trkpt><trkpt lat="31.25646208537092" lon="-7.380414399758264"><ele>2009.0</ele><time>2026-04-24T11:31:22.999Z</time></trkpt><trkpt lat="31.256502812825833" lon="-7.38031067812629"><ele>2004.75</ele><time>2026-04-24T11:31:24.999Z</time></trkpt><trkpt lat="31.25661890728151" lon="-7.380242293054696"><ele>2000.5</ele><time>2026-04-24T11:31:26.999Z</time></trkpt><trkpt lat="31.25671226618775" lon="-7.380226436032068"><ele>1996.25</ele><time>2026-04-24T11:31:27.999Z</time></trkpt><trkpt lat="31.256821212883526" lon="-7.380207169493392"><ele>1992.0</ele><time>2026-04-24T11:31:28.999Z</time></trkpt><trkpt lat="31.25694254270984" lon="-7.380184872316592"><ele>1992.0</ele><time>2026-04-24T11:31:29.999Z</time></trkpt><trkpt lat="31.257070284313066" lon="-7.380163145941711"><ele>1992.0</ele><time>2026-04-24T11:31:30.999Z</time></trkpt><trkpt lat="31.25720491860653" lon="-7.380140521486734"><ele>1992.0</ele><time>2026-04-24T11:31:31.999Z</time></trkpt><trkpt lat="31.25734544835982" lon="-7.380110647460011"><ele>1992.0</ele><time>2026-04-24T11:31:32.999Z</time></trkpt><trkpt lat="31.257489069787297" lon="-7.380068925413482"><ele>1989.3333333333335</ele><time>2026-04-24T11:31:33.999Z</time></trkpt><trkpt lat="31.257635494548722" lon="-7.380018712280528"><ele>1986.6666666666667</ele><time>2026-04-24T11:31:34.999Z</time></trkpt><trkpt lat="31.257779663134894" lon="-7.379943729869945"><ele>1984.0</ele><time>2026-04-24T11:31:35.999Z</time></trkpt><trkpt lat="31.257921563152415" lon="-7.37985646538673"><ele>1984.0</ele><time>2026-04-24T11:31:36.999Z</time></trkpt><trkpt lat="31.258060973513963" lon="-7.379761271343245"><ele>1984.0</ele><time>2026-04-24T11:31:37.999Z</time></trkpt><trkpt lat="31.258196177755305" lon="-7.379664003534048"><ele>1984.0</ele><time>2026-04-24T11:31:38.999Z</time></trkpt><trkpt lat="31.25832773982384" lon="-7.379567382691755"><ele>1980.6666666666667</ele><time>2026-04-24T11:31:39.999Z</time></trkpt><trkpt lat="31.25845540544401" lon="-7.379471060170564"><ele>1977.3333333333335</ele><time>2026-04-24T11:31:40.999Z</time></trkpt><trkpt lat="31.258580270749686" lon="-7.3793759682129645"><ele>1974.0</ele><time>2026-04-24T11:31:41.999Z</time></trkpt><trkpt lat="31.258704188911505" lon="-7.37927954809102"><ele>1974.0</ele><time>2026-04-24T11:31:43Z</time></trkpt><trkpt lat="31.258824205606015" lon="-7.379176199037186"><ele>1974.0</ele><time>2026-04-24T11:31:44Z</time></trkpt><trkpt lat="31.258942431267077" lon="-7.379063587499525"><ele>1974.0</ele><time>2026-04-24T11:31:45Z</time></trkpt><trkpt lat="31.25905858460568" lon="-7.378939370392968"><ele>1972.3333333333335</ele><time>2026-04-24T11:31:46Z</time></trkpt><trkpt lat="31.259170783716016" lon="-7.378802426173332"><ele>1970.6666666666667</ele><time>2026-04-24T11:31:47Z</time></trkpt><trkpt lat="31.259280838007136" lon="-7.378652649553438"><ele>1969.0</ele><time>2026-04-24T11:31:48Z</time></trkpt><trkpt lat="31.259387391496713" lon="-7.378493911325468"><ele>1969.0</ele><time>2026-04-24T11:31:49Z</time></trkpt><trkpt lat="31.25949175343492" lon="-7.378327714830225"><ele>1969.0</ele><time>2026-04-24T11:31:50Z</time></trkpt><trkpt lat="31.25959073875136" lon="-7.378152858278315"><ele>1969.0</ele><time>2026-04-24T11:31:51Z</time></trkpt><trkpt lat="31.259682391209314" lon="-7.377970084868576"><ele>1969.0</ele><time>2026-04-24T11:31:52Z</time></trkpt><trkpt lat="31.259766764335982" lon="-7.377781173539277"><ele>1969.0</ele><time>2026-04-24T11:31:53Z</time></trkpt><trkpt lat="31.259846098452105" lon="-7.377589693487315"><ele>1969.0</ele><time>2026-04-24T11:31:54Z</time></trkpt><trkpt lat="31.25992309828873" lon="-7.377405721034315"><ele>1969.0</ele><time>2026-04-24T11:31:55Z</time></trkpt><trkpt lat="31.260001167283107" lon="-7.377234126558797"><ele>1969.0</ele><time>2026-04-24T11:31:56Z</time></trkpt><trkpt lat="31.2600787972731" lon="-7.377071870007368"><ele>1969.0</ele><time>2026-04-24T11:31:57Z</time></trkpt><trkpt lat="31.260154370759523" lon="-7.37692306343616"><ele>1966.75</ele><time>2026-04-24T11:31:58Z</time></trkpt><trkpt lat="31.260222531494428" lon="-7.3767850992562085"><ele>1964.5</ele><time>2026-04-24T11:31:59Z</time></trkpt><trkpt lat="31.260265207217415" lon="-7.376660400484832"><ele>1962.25</ele><time>2026-04-24T11:32:00Z</time></trkpt><trkpt lat="31.260296370017166" lon="-7.376538702160047"><ele>1960.0</ele><time>2026-04-24T11:32:01Z</time></trkpt><trkpt lat="31.26030198143528" lon="-7.376409257148283"><ele>1959.25</ele><time>2026-04-24T11:32:02Z</time></trkpt><trkpt lat="31.260287399628957" lon="-7.376259792034535"><ele>1958.5</ele><time>2026-04-24T11:32:03Z</time></trkpt><trkpt lat="31.26025633763489" lon="-7.376096592896566"><ele>1957.75</ele><time>2026-04-24T11:32:04Z</time></trkpt><trkpt lat="31.260223168133297" lon="-7.375922854445096"><ele>1957.0</ele><time>2026-04-24T11:32:05Z</time></trkpt><trkpt lat="31.260197061771496" lon="-7.375741583444516"><ele>1957.0</ele><time>2026-04-24T11:32:06Z</time></trkpt><trkpt lat="31.26018723190262" lon="-7.375558991358241"><ele>1957.0</ele><time>2026-04-24T11:32:07Z</time></trkpt><trkpt lat="31.260195480753175" lon="-7.375384257535132"><ele>1957.0</ele><time>2026-04-24T11:32:08Z</time></trkpt><trkpt lat="31.260213385102794" lon="-7.375205553121678"><ele>1956.0</ele><time>2026-04-24T11:32:09Z</time></trkpt><trkpt lat="31.26023354069309" lon="-7.375018132600201"><ele>1955.0</ele><time>2026-04-24T11:32:10Z</time></trkpt><trkpt lat="31.260251551205137" lon="-7.374821897635608"><ele>1954.0</ele><time>2026-04-24T11:32:11Z</time></trkpt><trkpt lat="31.26026773766497" lon="-7.374619514156833"><ele>1953.6666666666667</ele><time>2026-04-24T11:32:12Z</time></trkpt><trkpt lat="31.260284610432404" lon="-7.374409243603125"><ele>1953.3333333333335</ele><time>2026-04-24T11:32:13Z</time></trkpt><trkpt lat="31.26030353801223" lon="-7.374192492163159"><ele>1953.0</ele><time>2026-04-24T11:32:14Z</time></trkpt><trkpt lat="31.260326391202913" lon="-7.373969950089032"><ele>1952.0</ele><time>2026-04-24T11:32:15Z</time></trkpt><trkpt lat="31.260352946432953" lon="-7.373741826404036"><ele>1951.0</ele><time>2026-04-24T11:32:16Z</time></trkpt><trkpt lat="31.26038321548609" lon="-7.373515961291803"><ele>1950.0</ele><time>2026-04-24T11:32:17Z</time></trkpt><trkpt lat="31.260429318226915" lon="-7.3732826826390285"><ele>1950.0</ele><time>2026-04-24T11:32:18Z</time></trkpt><trkpt lat="31.260486628608472" lon="-7.373053194790768"><ele>1950.0</ele><time>2026-04-24T11:32:19Z</time></trkpt><trkpt lat="31.26054687887342" lon="-7.372823641475541"><ele>1950.0</ele><time>2026-04-24T11:32:20Z</time></trkpt><trkpt lat="31.26059745907884" lon="-7.372588579892922"><ele>1948.6666666666665</ele><time>2026-04-24T11:32:21Z</time></trkpt><trkpt lat="31.260636383491182" lon="-7.37234559102687"><ele>1947.3333333333333</ele><time>2026-04-24T11:32:22Z</time></trkpt><trkpt lat="31.260660464462127" lon="-7.3720880450951265"><ele>1946.0</ele><time>2026-04-24T11:32:23Z</time></trkpt><trkpt lat="31.260680898013096" lon="-7.371831228399903"><ele>1943.0</ele><time>2026-04-24T11:32:24Z</time></trkpt><trkpt lat="31.260700937946314" lon="-7.371576414056327"><ele>1940.0</ele><time>2026-04-24T11:32:25Z</time></trkpt><trkpt lat="31.260723904776494" lon="-7.371329052679223"><ele>1937.0</ele><time>2026-04-24T11:32:26Z</time></trkpt><trkpt lat="31.260748040787224" lon="-7.371096030750814"><ele>1937.0</ele><time>2026-04-24T11:32:27Z</time></trkpt><trkpt lat="31.26077548302088" lon="-7.370875218303038"><ele>1937.0</ele><time>2026-04-24T11:32:28Z</time></trkpt><trkpt lat="31.26081040650645" lon="-7.370656276675012"><ele>1937.0</ele><time>2026-04-24T11:32:29Z</time></trkpt><trkpt lat="31.26085298102717" lon="-7.370445133959955"><ele>1937.0</ele><time>2026-04-24T11:32:30Z</time></trkpt><trkpt lat="31.260896803940973" lon="-7.3702512606722825"><ele>1937.0</ele><time>2026-04-24T11:32:31Z</time></trkpt><trkpt lat="31.2609455917331" lon="-7.3700632655594775"><ele>1937.0</ele><time>2026-04-24T11:32:32Z</time></trkpt><trkpt lat="31.260997634194062" lon="-7.369882157263696"><ele>1937.0</ele><time>2026-04-24T11:32:33Z</time></trkpt><trkpt lat="31.261047786636002" lon="-7.369700196945743"><ele>1937.0</ele><time>2026-04-24T11:32:34Z</time></trkpt><trkpt lat="31.261099865986797" lon="-7.3695176511601"><ele>1937.0</ele><time>2026-04-24T11:32:35Z</time></trkpt><trkpt lat="31.261166069850656" lon="-7.3693290092553125"><ele>1940.0</ele><time>2026-04-24T11:32:35.999Z</time></trkpt><trkpt lat="31.261242127195317" lon="-7.369146964498738"><ele>1943.0</ele><time>2026-04-24T11:32:36.999Z</time></trkpt><trkpt lat="31.261338455601074" lon="-7.36897055801538"><ele>1946.0</ele><time>2026-04-24T11:32:37.999Z</time></trkpt><trkpt lat="31.261438717039795" lon="-7.368799057718078"><ele>1938.0</ele><time>2026-04-24T11:32:38.999Z</time></trkpt><trkpt lat="31.26154389768068" lon="-7.368629175799727"><ele>1930.0</ele><time>2026-04-24T11:32:39.999Z</time></trkpt><trkpt lat="31.261648545345743" lon="-7.368461871098893"><ele>1922.0</ele><time>2026-04-24T11:32:40.999Z</time></trkpt><trkpt lat="31.261751158087193" lon="-7.368304523127127"><ele>1922.0</ele><time>2026-04-24T11:32:41.999Z</time></trkpt><trkpt lat="31.261844196173236" lon="-7.368153562255731"><ele>1922.0</ele><time>2026-04-24T11:32:42.999Z</time></trkpt><trkpt lat="31.26192778022565" lon="-7.368005388470049"><ele>1922.0</ele><time>2026-04-24T11:32:43.999Z</time></trkpt><trkpt lat="31.261994384728247" lon="-7.367854667044899"><ele>1923.6666666666665</ele><time>2026-04-24T11:32:44.999Z</time></trkpt><trkpt lat="31.262034513115967" lon="-7.367687864317645"><ele>1925.3333333333335</ele><time>2026-04-24T11:32:45.999Z</time></trkpt><trkpt lat="31.262041320738177" lon="-7.367503692093587"><ele>1927.0</ele><time>2026-04-24T11:32:46.999Z</time></trkpt><trkpt lat="31.26203175834854" lon="-7.367313883329533"><ele>1926.6666666666667</ele><time>2026-04-24T11:32:47.999Z</time></trkpt><trkpt lat="31.26202294776026" lon="-7.36711116643812"><ele>1926.3333333333335</ele><time>2026-04-24T11:32:48.999Z</time></trkpt><trkpt lat="31.262013509450593" lon="-7.366908054560394"><ele>1926.0</ele><time>2026-04-24T11:32:49.999Z</time></trkpt><trkpt lat="31.26201260507285" lon="-7.366702912605036"><ele>1926.0</ele><time>2026-04-24T11:32:50.999Z</time></trkpt><trkpt lat="31.26202416281548" lon="-7.3665052656243155"><ele>1926.0</ele><time>2026-04-24T11:32:51.999Z</time></trkpt><trkpt lat="31.262047184751182" lon="-7.3663136741595325"><ele>1926.0</ele><time>2026-04-24T11:32:52.999Z</time></trkpt><trkpt lat="31.262071493534478" lon="-7.366131993989953"><ele>1926.0</ele><time>2026-04-24T11:32:53.999Z</time></trkpt><trkpt lat="31.262091002037586" lon="-7.365956475932811"><ele>1926.0</ele><time>2026-04-24T11:32:54.999Z</time></trkpt><trkpt lat="31.26210844537588" lon="-7.365781857085886"><ele>1926.0</ele><time>2026-04-24T11:32:55.999Z</time></trkpt><trkpt lat="31.262115431525114" lon="-7.365616150451082"><ele>1926.0</ele><time>2026-04-24T11:32:56.999Z</time></trkpt><trkpt lat="31.262112637057765" lon="-7.365444625851524"><ele>1926.0</ele><time>2026-04-24T11:32:57.999Z</time></trkpt><trkpt lat="31.262090100114424" lon="-7.365273815918752"><ele>1926.0</ele><time>2026-04-24T11:32:58.999Z</time></trkpt><trkpt lat="31.26204422005543" lon="-7.365108865216037"><ele>1926.0</ele><time>2026-04-24T11:32:59.999Z</time></trkpt><trkpt lat="31.261987742077174" lon="-7.364947816011669"><ele>1926.0</ele><time>2026-04-24T11:33:00.999Z</time></trkpt><trkpt lat="31.26192388502749" lon="-7.3647838546148465"><ele>1922.3333333333335</ele><time>2026-04-24T11:33:01.999Z</time></trkpt><trkpt lat="31.261868600686288" lon="-7.364614734052917"><ele>1918.6666666666667</ele><time>2026-04-24T11:33:02.999Z</time></trkpt><trkpt lat="31.261829964039773" lon="-7.364435684417085"><ele>1915.0</ele><time>2026-04-24T11:33:03.999Z</time></trkpt><trkpt lat="31.261804592768836" lon="-7.364253737006929"><ele>1915.0</ele><time>2026-04-24T11:33:04.999Z</time></trkpt><trkpt lat="31.261787830967155" lon="-7.36406533651456"><ele>1915.0</ele><time>2026-04-24T11:33:05.999Z</time></trkpt><trkpt lat="31.26176484823238" lon="-7.363879946627719"><ele>1915.0</ele><time>2026-04-24T11:33:06.999Z</time></trkpt><trkpt lat="31.2617423712851" lon="-7.363687440344695"><ele>1912.3333333333335</ele><time>2026-04-24T11:33:07.999Z</time></trkpt><trkpt lat="31.26172712093968" lon="-7.36349411061894"><ele>1909.6666666666665</ele><time>2026-04-24T11:33:08.999Z</time></trkpt><trkpt lat="31.26171409533786" lon="-7.36330303708134"><ele>1907.0</ele><time>2026-04-24T11:33:09.999Z</time></trkpt><trkpt lat="31.261697495717616" lon="-7.363116773062071"><ele>1905.3333333333333</ele><time>2026-04-24T11:33:10.999Z</time></trkpt><trkpt lat="31.261683116149616" lon="-7.362930037343377"><ele>1903.6666666666665</ele><time>2026-04-24T11:33:11.999Z</time></trkpt><trkpt lat="31.261661375527243" lon="-7.362744665935606"><ele>1902.0</ele><time>2026-04-24T11:33:12.999Z</time></trkpt><trkpt lat="31.261625957128416" lon="-7.362562671615455"><ele>1902.0</ele><time>2026-04-24T11:33:13.999Z</time></trkpt><trkpt lat="31.261570151867218" lon="-7.362379748984313"><ele>1902.0</ele><time>2026-04-24T11:33:14.999Z</time></trkpt><trkpt lat="31.261507106235896" lon="-7.362207964372323"><ele>1902.0</ele><time>2026-04-24T11:33:15.999Z</time></trkpt><trkpt lat="31.261436296713157" lon="-7.362041197708911"><ele>1902.0</ele><time>2026-04-24T11:33:16.999Z</time></trkpt><trkpt lat="31.261374817759524" lon="-7.361881973402354"><ele>1902.0</ele><time>2026-04-24T11:33:17.999Z</time></trkpt><trkpt lat="31.261332412856856" lon="-7.361728204374249"><ele>1902.0</ele><time>2026-04-24T11:33:18.999Z</time></trkpt><trkpt lat="31.26131270419171" lon="-7.36158684148236"><ele>1902.0</ele><time>2026-04-24T11:33:19.999Z</time></trkpt><trkpt lat="31.261316110492473" lon="-7.361449477027115"><ele>1903.5</ele><time>2026-04-24T11:33:20.999Z</time></trkpt><trkpt lat="31.26134403590208" lon="-7.361316665228963"><ele>1905.0</ele><time>2026-04-24T11:33:21.999Z</time></trkpt><trkpt lat="31.26138814431407" lon="-7.361186545100244"><ele>1906.5</ele><time>2026-04-24T11:33:22.999Z</time></trkpt><trkpt lat="31.261440954595606" lon="-7.361053120401802"><ele>1908.0</ele><time>2026-04-24T11:33:23.999Z</time></trkpt><trkpt lat="31.26150476237827" lon="-7.360917156230315"><ele>1907.25</ele><time>2026-04-24T11:33:24.999Z</time></trkpt><trkpt lat="31.261583576897216" lon="-7.360782839010635"><ele>1906.5</ele><time>2026-04-24T11:33:25.999Z</time></trkpt><trkpt lat="31.261670195568353" lon="-7.360653253631052"><ele>1905.75</ele><time>2026-04-24T11:33:26.999Z</time></trkpt><trkpt lat="31.26175806365447" lon="-7.360526823254366"><ele>1905.0</ele><time>2026-04-24T11:33:27.999Z</time></trkpt><trkpt lat="31.26184592461291" lon="-7.360404852536205"><ele>1905.0</ele><time>2026-04-24T11:33:28.999Z</time></trkpt><trkpt lat="31.26194132130102" lon="-7.360286351754001"><ele>1905.0</ele><time>2026-04-24T11:33:29.999Z</time></trkpt><trkpt lat="31.26204723258104" lon="-7.360175434125894"><ele>1905.0</ele><time>2026-04-24T11:33:30.999Z</time></trkpt><trkpt lat="31.262160846051803" lon="-7.360080340570547"><ele>1905.0</ele><time>2026-04-24T11:33:31.999Z</time></trkpt><trkpt lat="31.26227696122657" lon="-7.359998893678045"><ele>1901.25</ele><time>2026-04-24T11:33:32.999Z</time></trkpt><trkpt lat="31.262394180766957" lon="-7.359923126054436"><ele>1897.5</ele><time>2026-04-24T11:33:33.999Z</time></trkpt><trkpt lat="31.262507877580596" lon="-7.3598512884674845"><ele>1893.75</ele><time>2026-04-24T11:33:34.999Z</time></trkpt><trkpt lat="31.26260227280573" lon="-7.359774283450774"><ele>1890.0</ele><time>2026-04-24T11:33:35.999Z</time></trkpt><trkpt lat="31.262689613850323" lon="-7.35968073611816"><ele>1890.0</ele><time>2026-04-24T11:33:36.999Z</time></trkpt><trkpt lat="31.26276102001308" lon="-7.359577130007106"><ele>1890.0</ele><time>2026-04-24T11:33:37.999Z</time></trkpt><trkpt lat="31.262822189973654" lon="-7.359451895915878"><ele>1890.0</ele><time>2026-04-24T11:33:38.999Z</time></trkpt><trkpt lat="31.262874999069968" lon="-7.3593125401931205"><ele>1890.0</ele><time>2026-04-24T11:33:39.999Z</time></trkpt><trkpt lat="31.26292492505363" lon="-7.359160641078914"><ele>1890.0</ele><time>2026-04-24T11:33:40.999Z</time></trkpt><trkpt lat="31.262971274783656" lon="-7.359003822671271"><ele>1890.0</ele><time>2026-04-24T11:33:41.999Z</time></trkpt><trkpt lat="31.26301529997803" lon="-7.358849415551635"><ele>1890.0</ele><time>2026-04-24T11:33:42.999Z</time></trkpt><trkpt lat="31.263054389568282" lon="-7.358694779638817"><ele>1890.0</ele><time>2026-04-24T11:33:43.999Z</time></trkpt><trkpt lat="31.26308630222251" lon="-7.358543744262899"><ele>1888.25</ele><time>2026-04-24T11:33:44.999Z</time></trkpt><trkpt lat="31.263097997309604" lon="-7.358389511351368"><ele>1886.5</ele><time>2026-04-24T11:33:45.999Z</time></trkpt><trkpt lat="31.26309040552622" lon="-7.35823725067292"><ele>1884.75</ele><time>2026-04-24T11:33:46.999Z</time></trkpt><trkpt lat="31.263055240026752" lon="-7.358080131443921"><ele>1883.0</ele><time>2026-04-24T11:33:47.999Z</time></trkpt><trkpt lat="31.263000553382636" lon="-7.357928483392332"><ele>1880.75</ele><time>2026-04-24T11:33:49Z</time></trkpt><trkpt lat="31.26292672615709" lon="-7.357787559663255"><ele>1878.5</ele><time>2026-04-24T11:33:50Z</time></trkpt><trkpt lat="31.262835923864852" lon="-7.35766321161648"><ele>1876.25</ele><time>2026-04-24T11:33:51Z</time></trkpt><trkpt lat="31.262738056075964" lon="-7.357555763344397"><ele>1874.0</ele><time>2026-04-24T11:33:52Z</time></trkpt><trkpt lat="31.262638790095693" lon="-7.3574604712169025"><ele>1874.0</ele><time>2026-04-24T11:33:53Z</time></trkpt><trkpt lat="31.262550562063936" lon="-7.35737161267667"><ele>1874.0</ele><time>2026-04-24T11:33:54Z</time></trkpt><trkpt lat="31.26247599068316" lon="-7.357286808249496"><ele>1874.0</ele><time>2026-04-24T11:33:55Z</time></trkpt><trkpt lat="31.262412506753677" lon="-7.357204994278524"><ele>1874.0</ele><time>2026-04-24T11:33:56Z</time></trkpt><trkpt lat="31.26235931059193" lon="-7.357126329503659"><ele>1874.0</ele><time>2026-04-24T11:33:57Z</time></trkpt><trkpt lat="31.262310375516048" lon="-7.357044328970703"><ele>1874.2</ele><time>2026-04-24T11:33:58Z</time></trkpt><trkpt lat="31.262259725926594" lon="-7.356951771873096"><ele>1874.4</ele><time>2026-04-24T11:33:59Z</time></trkpt><trkpt lat="31.26220515823972" lon="-7.356847662310913"><ele>1874.6</ele><time>2026-04-24T11:34:00Z</time></trkpt><trkpt lat="31.262149481117344" lon="-7.356735627640373"><ele>1874.8</ele><time>2026-04-24T11:34:01Z</time></trkpt><trkpt lat="31.26209931849768" lon="-7.356620173432589"><ele>1875.0</ele><time>2026-04-24T11:34:02Z</time></trkpt><trkpt lat="31.26206184454116" lon="-7.356499957011658"><ele>1875.0</ele><time>2026-04-24T11:34:03Z</time></trkpt><trkpt lat="31.262043679354925" lon="-7.356382086812702"><ele>1875.0</ele><time>2026-04-24T11:34:04Z</time></trkpt><trkpt lat="31.262045072046956" lon="-7.356268602409437"><ele>1875.0</ele><time>2026-04-24T11:34:05Z</time></trkpt><trkpt lat="31.262063535283904" lon="-7.356156544347948"><ele>1875.0</ele><time>2026-04-24T11:34:06Z</time></trkpt><trkpt lat="31.26209684301079" lon="-7.356044416162465"><ele>1875.0</ele><time>2026-04-24T11:34:07Z</time></trkpt><trkpt lat="31.26214034785294" lon="-7.3559328038296234"><ele>1873.5</ele><time>2026-04-24T11:34:08Z</time></trkpt><trkpt lat="31.262191708629576" lon="-7.3558215466457915"><ele>1872.0</ele><time>2026-04-24T11:34:09Z</time></trkpt><trkpt lat="31.262246482107837" lon="-7.355707972566589"><ele>1870.5</ele><time>2026-04-24T11:34:10Z</time></trkpt><trkpt lat="31.262302697947543" lon="-7.3555903729176615"><ele>1869.0</ele><time>2026-04-24T11:34:11Z</time></trkpt><trkpt lat="31.262361176217773" lon="-7.355469903693194"><ele>1866.0</ele><time>2026-04-24T11:34:12Z</time></trkpt><trkpt lat="31.262421334292856" lon="-7.355346624950722"><ele>1863.0</ele><time>2026-04-24T11:34:13Z</time></trkpt><trkpt lat="31.262478972631662" lon="-7.355223105409653"><ele>1860.0</ele><time>2026-04-24T11:34:14Z</time></trkpt><trkpt lat="31.262534510969253" lon="-7.3551026059021645"><ele>1857.0</ele><time>2026-04-24T11:34:15Z</time></trkpt><trkpt lat="31.262591464169862" lon="-7.354982564175965"><ele>1857.0</ele><time>2026-04-24T11:34:16Z</time></trkpt><trkpt lat="31.262654407698275" lon="-7.354863515123092"><ele>1857.0</ele><time>2026-04-24T11:34:17Z</time></trkpt><trkpt lat="31.26272637561759" lon="-7.3547462265473476"><ele>1857.0</ele><time>2026-04-24T11:34:18Z</time></trkpt><trkpt lat="31.262809498553334" lon="-7.354633466815532"><ele>1857.0</ele><time>2026-04-24T11:34:19Z</time></trkpt><trkpt lat="31.262901248666623" lon="-7.354527725859931"><ele>1855.75</ele><time>2026-04-24T11:34:20Z</time></trkpt><trkpt lat="31.262998098123113" lon="-7.354431342358492"><ele>1854.5</ele><time>2026-04-24T11:34:21Z</time></trkpt><trkpt lat="31.263099832943062" lon="-7.3543422731182915"><ele>1853.25</ele><time>2026-04-24T11:34:22Z</time></trkpt><trkpt lat="31.26320158960483" lon="-7.354258380020652"><ele>1852.0</ele><time>2026-04-24T11:34:23Z</time></trkpt><trkpt lat="31.263302597951267" lon="-7.354177870155736"><ele>1849.75</ele><time>2026-04-24T11:34:24Z</time></trkpt><trkpt lat="31.263405209254195" lon="-7.354098996074131"><ele>1847.5</ele><time>2026-04-24T11:34:25Z</time></trkpt><trkpt lat="31.26350398960806" lon="-7.354013842263081"><ele>1845.25</ele><time>2026-04-24T11:34:26Z</time></trkpt><trkpt lat="31.26359404234306" lon="-7.353918722801123"><ele>1843.0</ele><time>2026-04-24T11:34:27Z</time></trkpt><trkpt lat="31.263663917705735" lon="-7.353812015433972"><ele>1842.5</ele><time>2026-04-24T11:34:28Z</time></trkpt><trkpt lat="31.263708938688158" lon="-7.353688858208737"><ele>1842.0</ele><time>2026-04-24T11:34:29Z</time></trkpt><trkpt lat="31.263730469127424" lon="-7.353549529261419"><ele>1841.5</ele><time>2026-04-24T11:34:30Z</time></trkpt><trkpt lat="31.263735373744623" lon="-7.353399798784703"><ele>1841.0</ele><time>2026-04-24T11:34:31Z</time></trkpt><trkpt lat="31.263729087688166" lon="-7.353241605743489"><ele>1841.0</ele><time>2026-04-24T11:34:32Z</time></trkpt><trkpt lat="31.263710999637965" lon="-7.353075257605226"><ele>1841.0</ele><time>2026-04-24T11:34:33Z</time></trkpt><trkpt lat="31.263680551827242" lon="-7.3529066251246995"><ele>1841.0</ele><time>2026-04-24T11:34:34Z</time></trkpt><trkpt lat="31.26363887312729" lon="-7.352737655570089"><ele>1841.0</ele><time>2026-04-24T11:34:35Z</time></trkpt><trkpt lat="31.263589399401326" lon="-7.352568910973209"><ele>1842.0</ele><time>2026-04-24T11:34:36Z</time></trkpt><trkpt lat="31.26353618985944" lon="-7.352395506924761"><ele>1843.0</ele><time>2026-04-24T11:34:37Z</time></trkpt><trkpt lat="31.26348621367042" lon="-7.352211919679782"><ele>1844.0</ele><time>2026-04-24T11:34:38Z</time></trkpt><trkpt lat="31.263443254969534" lon="-7.352021536813505"><ele>1845.6666666666665</ele><time>2026-04-24T11:34:39Z</time></trkpt><trkpt lat="31.26340406865521" lon="-7.351828978752423"><ele>1847.3333333333335</ele><time>2026-04-24T11:34:39.999Z</time></trkpt><trkpt lat="31.26336653238578" lon="-7.351632991219626"><ele>1849.0</ele><time>2026-04-24T11:34:40.999Z</time></trkpt><trkpt lat="31.263329012198863" lon="-7.351431874835901"><ele>1848.6666666666667</ele><time>2026-04-24T11:34:41.999Z</time></trkpt><trkpt lat="31.263291213626765" lon="-7.3512270315046715"><ele>1848.3333333333335</ele><time>2026-04-24T11:34:42.999Z</time></trkpt><trkpt lat="31.263252771774077" lon="-7.351018115034753"><ele>1848.0</ele><time>2026-04-24T11:34:43.999Z</time></trkpt><trkpt lat="31.263212532801216" lon="-7.350807794799974"><ele>1848.0</ele><time>2026-04-24T11:34:44.999Z</time></trkpt><trkpt lat="31.263170962660467" lon="-7.350601350474028"><ele>1848.0</ele><time>2026-04-24T11:34:45.999Z</time></trkpt><trkpt lat="31.263129366951013" lon="-7.350405491381882"><ele>1848.0</ele><time>2026-04-24T11:34:46.999Z</time></trkpt><trkpt lat="31.26308862610455" lon="-7.350219047244402"><ele>1845.3333333333335</ele><time>2026-04-24T11:34:47.999Z</time></trkpt><trkpt lat="31.263047561251504" lon="-7.350037067970246"><ele>1842.6666666666667</ele><time>2026-04-24T11:34:48.999Z</time></trkpt><trkpt lat="31.263009996019935" lon="-7.349864975673931"><ele>1840.0</ele><time>2026-04-24T11:34:49.999Z</time></trkpt><trkpt lat="31.262974195925395" lon="-7.349700458042437"><ele>1840.0</ele><time>2026-04-24T11:34:50.999Z</time></trkpt><trkpt lat="31.262935425511206" lon="-7.349539187470745"><ele>1840.0</ele><time>2026-04-24T11:34:51.999Z</time></trkpt><trkpt lat="31.262889455951008" lon="-7.349381822710627"><ele>1840.0</ele><time>2026-04-24T11:34:52.999Z</time></trkpt><trkpt lat="31.262813705207478" lon="-7.3492299525839915"><ele>1840.0</ele><time>2026-04-24T11:34:53.999Z</time></trkpt><trkpt lat="31.262723881104137" lon="-7.349080249921863"><ele>1840.0</ele><time>2026-04-24T11:34:54.999Z</time></trkpt><trkpt lat="31.262634193806" lon="-7.348925700102034"><ele>1840.0</ele><time>2026-04-24T11:34:55.999Z</time></trkpt><trkpt lat="31.26255131025458" lon="-7.348758285886076"><ele>1840.0</ele><time>2026-04-24T11:34:56.999Z</time></trkpt><trkpt lat="31.262476741720114" lon="-7.348581332158968"><ele>1841.6666666666667</ele><time>2026-04-24T11:34:57.999Z</time></trkpt><trkpt lat="31.26241586191814" lon="-7.348399003949991"><ele>1843.3333333333335</ele><time>2026-04-24T11:34:58.999Z</time></trkpt><trkpt lat="31.26236937883017" lon="-7.348209444758453"><ele>1845.0</ele><time>2026-04-24T11:34:59.999Z</time></trkpt><trkpt lat="31.262336403419148" lon="-7.348015309714869"><ele>1845.6666666666665</ele><time>2026-04-24T11:35:00.999Z</time></trkpt><trkpt lat="31.26231103145056" lon="-7.347818937578984"><ele>1846.3333333333333</ele><time>2026-04-24T11:35:01.999Z</time></trkpt><trkpt lat="31.262287385211533" lon="-7.347623358618192"><ele>1847.0</ele><time>2026-04-24T11:35:02.999Z</time></trkpt><trkpt lat="31.262257779086323" lon="-7.347434354984623"><ele>1844.0</ele><time>2026-04-24T11:35:03.999Z</time></trkpt><trkpt lat="31.26221111585734" lon="-7.347260367043901"><ele>1841.0</ele><time>2026-04-24T11:35:04.999Z</time></trkpt><trkpt lat="31.262138580930486" lon="-7.347102090898723"><ele>1838.0</ele><time>2026-04-24T11:35:05.999Z</time></trkpt><trkpt lat="31.262044440641205" lon="-7.34696503564112"><ele>1838.0</ele><time>2026-04-24T11:35:06.999Z</time></trkpt><trkpt lat="31.26194672920008" lon="-7.346839898328002"><ele>1838.0</ele><time>2026-04-24T11:35:07.999Z</time></trkpt><trkpt lat="31.261862558000864" lon="-7.346708391820755"><ele>1838.0</ele><time>2026-04-24T11:35:08.999Z</time></trkpt><trkpt lat="31.261793821770663" lon="-7.346557270343815"><ele>1838.0</ele><time>2026-04-24T11:35:09.999Z</time></trkpt><trkpt lat="31.261735767421815" lon="-7.346385948146761"><ele>1837.3333333333333</ele><time>2026-04-24T11:35:10.999Z</time></trkpt><trkpt lat="31.261683812848567" lon="-7.34620131562907"><ele>1836.6666666666665</ele><time>2026-04-24T11:35:11.999Z</time></trkpt><trkpt lat="31.261639010872237" lon="-7.34601018877756"><ele>1836.0</ele><time>2026-04-24T11:35:12.999Z</time></trkpt><trkpt lat="31.26160218043155" lon="-7.345817049267017"><ele>1836.0</ele><time>2026-04-24T11:35:13.999Z</time></trkpt><trkpt lat="31.2615704652877" lon="-7.345624815775887"><ele>1836.0</ele><time>2026-04-24T11:35:14.999Z</time></trkpt><trkpt lat="31.2615345026331" lon="-7.345437695921635"><ele>1836.0</ele><time>2026-04-24T11:35:15.999Z</time></trkpt><trkpt lat="31.26148570533633" lon="-7.345254648253076"><ele>1831.3333333333335</ele><time>2026-04-24T11:35:16.999Z</time></trkpt><trkpt lat="31.26142456425891" lon="-7.345070724117705"><ele>1826.6666666666667</ele><time>2026-04-24T11:35:17.999Z</time></trkpt><trkpt lat="31.26135619581792" lon="-7.344889847104879"><ele>1822.0</ele><time>2026-04-24T11:35:18.999Z</time></trkpt><trkpt lat="31.26128687067905" lon="-7.344714878131223"><ele>1822.0</ele><time>2026-04-24T11:35:19.999Z</time></trkpt><trkpt lat="31.261221869222144" lon="-7.344544607756518"><ele>1822.0</ele><time>2026-04-24T11:35:20.999Z</time></trkpt><trkpt lat="31.26115992407947" lon="-7.344379964646333"><ele>1822.0</ele><time>2026-04-24T11:35:21.999Z</time></trkpt><trkpt lat="31.261088947209828" lon="-7.344222144206095"><ele>1822.0</ele><time>2026-04-24T11:35:22.999Z</time></trkpt><trkpt lat="31.261005814925046" lon="-7.3440698665974065"><ele>1822.0</ele><time>2026-04-24T11:35:23.999Z</time></trkpt><trkpt lat="31.260914991959773" lon="-7.343926383199404"><ele>1822.0</ele><time>2026-04-24T11:35:24.999Z</time></trkpt><trkpt lat="31.26081474079663" lon="-7.343797184361381"><ele>1821.3333333333335</ele><time>2026-04-24T11:35:25.999Z</time></trkpt><trkpt lat="31.2607047741754" lon="-7.343677700660113"><ele>1820.6666666666665</ele><time>2026-04-24T11:35:26.999Z</time></trkpt><trkpt lat="31.26056776802384" lon="-7.3435937193522145"><ele>1820.0</ele><time>2026-04-24T11:35:27.999Z</time></trkpt><trkpt lat="31.260418816110008" lon="-7.3435323733992135"><ele>1820.0</ele><time>2026-04-24T11:35:28.999Z</time></trkpt><trkpt lat="31.2602627727424" lon="-7.343483929649286"><ele>1820.0</ele><time>2026-04-24T11:35:29.999Z</time></trkpt><trkpt lat="31.26010710654706" lon="-7.343443472031294"><ele>1820.0</ele><time>2026-04-24T11:35:30.999Z</time></trkpt><trkpt lat="31.259953738265757" lon="-7.343406454658168"><ele>1820.0</ele><time>2026-04-24T11:35:31.999Z</time></trkpt><trkpt lat="31.259812606840015" lon="-7.343375629727292"><ele>1820.0</ele><time>2026-04-24T11:35:32.999Z</time></trkpt><trkpt lat="31.259687510637953" lon="-7.34334918611886"><ele>1820.0</ele><time>2026-04-24T11:35:33.999Z</time></trkpt><trkpt lat="31.259576783846985" lon="-7.343343250487669"><ele>1820.0</ele><time>2026-04-24T11:35:34.999Z</time></trkpt><trkpt lat="31.259483681466378" lon="-7.343285211873223"><ele>1818.5</ele><time>2026-04-24T11:35:35.999Z</time></trkpt><trkpt lat="31.259401282180193" lon="-7.343221392574541"><ele>1817.0</ele><time>2026-04-24T11:35:36.999Z</time></trkpt><trkpt lat="31.259336007695364" lon="-7.343125892883453"><ele>1815.5</ele><time>2026-04-24T11:35:37.999Z</time></trkpt><trkpt lat="31.259286871396338" lon="-7.342997801162922"><ele>1814.0</ele><time>2026-04-24T11:35:38.999Z</time></trkpt><trkpt lat="31.259250183151593" lon="-7.3428443854432075"><ele>1813.6666666666665</ele><time>2026-04-24T11:35:39.999Z</time></trkpt><trkpt lat="31.259220162025443" lon="-7.342672594143281"><ele>1813.3333333333335</ele><time>2026-04-24T11:35:40.999Z</time></trkpt><trkpt lat="31.259195845473236" lon="-7.342487940305407"><ele>1813.0</ele><time>2026-04-24T11:35:41.999Z</time></trkpt><trkpt lat="31.25917430684469" lon="-7.342302913193515"><ele>1813.6666666666667</ele><time>2026-04-24T11:35:42.999Z</time></trkpt><trkpt lat="31.25916275085402" lon="-7.342108514816839"><ele>1814.3333333333335</ele><time>2026-04-24T11:35:43.999Z</time></trkpt><trkpt lat="31.25916277690205" lon="-7.341910300429164"><ele>1815.0</ele><time>2026-04-24T11:35:44.999Z</time></trkpt><trkpt lat="31.259178419678474" lon="-7.341722368280585"><ele>1815.0</ele><time>2026-04-24T11:35:45.999Z</time></trkpt><trkpt lat="31.25920199687461" lon="-7.341546069737037"><ele>1815.0</ele><time>2026-04-24T11:35:46.999Z</time></trkpt><trkpt lat="31.259216499847145" lon="-7.341375034831729"><ele>1815.0</ele><time>2026-04-24T11:35:47.999Z</time></trkpt><trkpt lat="31.259215621801747" lon="-7.341203535540436"><ele>1815.0</ele><time>2026-04-24T11:35:48.999Z</time></trkpt><trkpt lat="31.259193126054768" lon="-7.341037717345903"><ele>1814.75</ele><time>2026-04-24T11:35:49.999Z</time></trkpt><trkpt lat="31.259162267181377" lon="-7.340882033833492"><ele>1814.5</ele><time>2026-04-24T11:35:50.999Z</time></trkpt><trkpt lat="31.259109264096725" lon="-7.340735303897097"><ele>1814.25</ele><time>2026-04-24T11:35:51.999Z</time></trkpt><trkpt lat="31.259059760943543" lon="-7.340589476316465"><ele>1814.0</ele><time>2026-04-24T11:35:52.999Z</time></trkpt><trkpt lat="31.2590361958835" lon="-7.340442194712752"><ele>1813.0</ele><time>2026-04-24T11:35:54Z</time></trkpt><trkpt lat="31.259046244367916" lon="-7.340286016588458"><ele>1812.0</ele><time>2026-04-24T11:35:55Z</time></trkpt><trkpt lat="31.259081563168653" lon="-7.34011569384402"><ele>1811.0</ele><time>2026-04-24T11:35:56Z</time></trkpt><trkpt lat="31.259129623434184" lon="-7.339937765101676"><ele>1810.0</ele><time>2026-04-24T11:35:57Z</time></trkpt><trkpt lat="31.25917785258921" lon="-7.339751824130511"><ele>1809.3333333333335</ele><time>2026-04-24T11:35:58Z</time></trkpt><trkpt lat="31.259224418077576" lon="-7.339558663021285"><ele>1808.6666666666665</ele><time>2026-04-24T11:35:59Z</time></trkpt><trkpt lat="31.25927443559108" lon="-7.339363588415749"><ele>1808.0</ele><time>2026-04-24T11:36:00Z</time></trkpt><trkpt lat="31.259327346239413" lon="-7.339171553011385"><ele>1808.0</ele><time>2026-04-24T11:36:01Z</time></trkpt><trkpt lat="31.259388551465687" lon="-7.338983092139862"><ele>1808.0</ele><time>2026-04-24T11:36:02Z</time></trkpt><trkpt lat="31.259444681086382" lon="-7.338788556748368"><ele>1808.0</ele><time>2026-04-24T11:36:03Z</time></trkpt><trkpt lat="31.25948471134186" lon="-7.338588749738618"><ele>1806.6666666666665</ele><time>2026-04-24T11:36:04Z</time></trkpt><trkpt lat="31.25950793901879" lon="-7.338383858237141"><ele>1805.3333333333335</ele><time>2026-04-24T11:36:05Z</time></trkpt><trkpt lat="31.259513008483204" lon="-7.338177701164149"><ele>1804.0</ele><time>2026-04-24T11:36:06Z</time></trkpt><trkpt lat="31.259492532655543" lon="-7.337971825928091"><ele>1803.3333333333335</ele><time>2026-04-24T11:36:07Z</time></trkpt><trkpt lat="31.259448033287168" lon="-7.3377677198470534"><ele>1802.6666666666665</ele><time>2026-04-24T11:36:08Z</time></trkpt><trkpt lat="31.259399113392355" lon="-7.337560141649271"><ele>1802.0</ele><time>2026-04-24T11:36:09Z</time></trkpt><trkpt lat="31.259331436405997" lon="-7.33735981009348"><ele>1803.3333333333333</ele><time>2026-04-24T11:36:10Z</time></trkpt><trkpt lat="31.259290177701615" lon="-7.337159239332125"><ele>1804.6666666666665</ele><time>2026-04-24T11:36:11Z</time></trkpt><trkpt lat="31.259247424811686" lon="-7.3369623954497865"><ele>1806.0</ele><time>2026-04-24T11:36:12Z</time></trkpt><trkpt lat="31.259162219905843" lon="-7.336789500438057"><ele>1806.0</ele><time>2026-04-24T11:36:13Z</time></trkpt><trkpt lat="31.25905683118373" lon="-7.336631798996032"><ele>1806.0</ele><time>2026-04-24T11:36:14Z</time></trkpt><trkpt lat="31.25894679387745" lon="-7.336478770285742"><ele>1806.0</ele><time>2026-04-24T11:36:15Z</time></trkpt><trkpt lat="31.258851233591464" lon="-7.33631944316464"><ele>1801.3333333333335</ele><time>2026-04-24T11:36:16Z</time></trkpt><trkpt lat="31.258758163482362" lon="-7.336157413070777"><ele>1796.6666666666667</ele><time>2026-04-24T11:36:17Z</time></trkpt><trkpt lat="31.258675658190796" lon="-7.335986980146206"><ele>1792.0</ele><time>2026-04-24T11:36:18Z</time></trkpt><trkpt lat="31.25860743143039" lon="-7.3358045106134036"><ele>1792.0</ele><time>2026-04-24T11:36:19Z</time></trkpt><trkpt lat="31.258562918937503" lon="-7.3356130115462665"><ele>1792.0</ele><time>2026-04-24T11:36:20Z</time></trkpt><trkpt lat="31.25854980322046" lon="-7.335416331216181"><ele>1792.0</ele><time>2026-04-24T11:36:21Z</time></trkpt><trkpt lat="31.258554360348057" lon="-7.33521028397888"><ele>1792.3333333333335</ele><time>2026-04-24T11:36:22Z</time></trkpt><trkpt lat="31.258580175500903" lon="-7.335007992236388"><ele>1792.6666666666665</ele><time>2026-04-24T11:36:23Z</time></trkpt><trkpt lat="31.258627776914256" lon="-7.334804126925359"><ele>1793.0</ele><time>2026-04-24T11:36:24Z</time></trkpt><trkpt lat="31.258692469064467" lon="-7.334610009200398"><ele>1791.0</ele><time>2026-04-24T11:36:25Z</time></trkpt><trkpt lat="31.25876142551033" lon="-7.334415098314817"><ele>1789.0</ele><time>2026-04-24T11:36:26Z</time></trkpt><trkpt lat="31.258800820170777" lon="-7.3342057106226"><ele>1787.0</ele><time>2026-04-24T11:36:27Z</time></trkpt><trkpt lat="31.258851214781522" lon="-7.333997931490871"><ele>1786.6666666666665</ele><time>2026-04-24T11:36:28Z</time></trkpt><trkpt lat="31.25886187215523" lon="-7.333777443300467"><ele>1786.3333333333335</ele><time>2026-04-24T11:36:29Z</time></trkpt><trkpt lat="31.25886751043993" lon="-7.333550358442779"><ele>1786.0</ele><time>2026-04-24T11:36:30Z</time></trkpt><trkpt lat="31.2588724954427" lon="-7.333323368507242"><ele>1786.0</ele><time>2026-04-24T11:36:31Z</time></trkpt><trkpt lat="31.25887414368431" lon="-7.333097776161766"><ele>1786.0</ele><time>2026-04-24T11:36:32Z</time></trkpt><trkpt lat="31.258868991282128" lon="-7.332887135310309"><ele>1786.0</ele><time>2026-04-24T11:36:33Z</time></trkpt><trkpt lat="31.25885601700963" lon="-7.332682844413318"><ele>1786.3333333333335</ele><time>2026-04-24T11:36:34Z</time></trkpt><trkpt lat="31.258846587326218" lon="-7.3324856634152065"><ele>1786.6666666666665</ele><time>2026-04-24T11:36:35Z</time></trkpt><trkpt lat="31.258842844430692" lon="-7.332297187194105"><ele>1787.0</ele><time>2026-04-24T11:36:36Z</time></trkpt><trkpt lat="31.25882147689993" lon="-7.332119281979203"><ele>1786.0</ele><time>2026-04-24T11:36:37Z</time></trkpt><trkpt lat="31.258845609683792" lon="-7.331939250945334"><ele>1785.0</ele><time>2026-04-24T11:36:38Z</time></trkpt><trkpt lat="31.258841025186452" lon="-7.331758880919847"><ele>1784.0</ele><time>2026-04-24T11:36:39Z</time></trkpt><trkpt lat="31.25882652420869" lon="-7.331582864536355"><ele>1784.0</ele><time>2026-04-24T11:36:40Z</time></trkpt><trkpt lat="31.258769108062552" lon="-7.331413698159233"><ele>1784.0</ele><time>2026-04-24T11:36:41Z</time></trkpt><trkpt lat="31.258730894145756" lon="-7.331238241397426"><ele>1784.0</ele><time>2026-04-24T11:36:41.999Z</time></trkpt><trkpt lat="31.2587080969925" lon="-7.331057918413862"><ele>1783.75</ele><time>2026-04-24T11:36:42.999Z</time></trkpt><trkpt lat="31.258659231693894" lon="-7.330890425708045"><ele>1783.5</ele><time>2026-04-24T11:36:43.999Z</time></trkpt><trkpt lat="31.25861281405422" lon="-7.330726851581366"><ele>1783.25</ele><time>2026-04-24T11:36:44.999Z</time></trkpt><trkpt lat="31.258573695447147" lon="-7.330561153712916"><ele>1783.0</ele><time>2026-04-24T11:36:45.999Z</time></trkpt><trkpt lat="31.258527658375105" lon="-7.330395998595658"><ele>1783.0</ele><time>2026-04-24T11:36:46.999Z</time></trkpt><trkpt lat="31.258505819088864" lon="-7.330214310595031"><ele>1783.0</ele><time>2026-04-24T11:36:47.999Z</time></trkpt><trkpt lat="31.258533795501403" lon="-7.3300345594325185"><ele>1783.0</ele><time>2026-04-24T11:36:48.999Z</time></trkpt><trkpt lat="31.258543365936923" lon="-7.329857169991104"><ele>1782.25</ele><time>2026-04-24T11:36:49.999Z</time></trkpt><trkpt lat="31.25855830238387" lon="-7.329680394779733"><ele>1781.5</ele><time>2026-04-24T11:36:50.999Z</time></trkpt><trkpt lat="31.258575894638867" lon="-7.329514670559224"><ele>1780.75</ele><time>2026-04-24T11:36:51.999Z</time></trkpt><trkpt lat="31.25860158171" lon="-7.329361522070116"><ele>1780.0</ele><time>2026-04-24T11:36:52.999Z</time></trkpt><trkpt lat="31.25863574790498" lon="-7.329212486634071"><ele>1780.0</ele><time>2026-04-24T11:36:53.999Z</time></trkpt><trkpt lat="31.258661693827364" lon="-7.32907013138086"><ele>1780.0</ele><time>2026-04-24T11:36:54.999Z</time></trkpt><trkpt lat="31.258720034119822" lon="-7.328950617023347"><ele>1780.0</ele><time>2026-04-24T11:36:55.999Z</time></trkpt><trkpt lat="31.258754481783303" lon="-7.32882437544338"><ele>1780.0</ele><time>2026-04-24T11:36:56.999Z</time></trkpt><trkpt lat="31.2587723154246" lon="-7.3286952215825885"><ele>1780.0</ele><time>2026-04-24T11:36:57.999Z</time></trkpt><trkpt lat="31.258763144672592" lon="-7.328563192876442"><ele>1780.0</ele><time>2026-04-24T11:36:58.999Z</time></trkpt><trkpt lat="31.258728014090075" lon="-7.328426877132813"><ele>1780.0</ele><time>2026-04-24T11:36:59.999Z</time></trkpt><trkpt lat="31.258674954746482" lon="-7.328285086077673"><ele>1780.0</ele><time>2026-04-24T11:37:00.999Z</time></trkpt><trkpt lat="31.25862454158705" lon="-7.328146114569284"><ele>1780.75</ele><time>2026-04-24T11:37:01.999Z</time></trkpt><trkpt lat="31.25857210972795" lon="-7.3280118435706925"><ele>1781.5</ele><time>2026-04-24T11:37:02.999Z</time></trkpt><trkpt lat="31.258520993655402" lon="-7.32788774181529"><ele>1782.25</ele><time>2026-04-24T11:37:03.999Z</time></trkpt><trkpt lat="31.258477275647547" lon="-7.327762990241559"><ele>1783.0</ele><time>2026-04-24T11:37:04.999Z</time></trkpt><trkpt lat="31.2584292848138" lon="-7.327647300100841"><ele>1783.0</ele><time>2026-04-24T11:37:05.999Z</time></trkpt><trkpt lat="31.25837988530485" lon="-7.327522557101795"><ele>1783.0</ele><time>2026-04-24T11:37:06.999Z</time></trkpt><trkpt lat="31.258329115856537" lon="-7.327394850675207"><ele>1783.0</ele><time>2026-04-24T11:37:07.999Z</time></trkpt><trkpt lat="31.258273454092866" lon="-7.327259645002925"><ele>1783.0</ele><time>2026-04-24T11:37:08.999Z</time></trkpt><trkpt lat="31.258215672672048" lon="-7.327117124402818"><ele>1784.0</ele><time>2026-04-24T11:37:09.999Z</time></trkpt><trkpt lat="31.258164667054395" lon="-7.326965429884332"><ele>1785.0</ele><time>2026-04-24T11:37:10.999Z</time></trkpt><trkpt lat="31.258127063856264" lon="-7.326806793594158"><ele>1786.0</ele><time>2026-04-24T11:37:11.999Z</time></trkpt><trkpt lat="31.258103735227703" lon="-7.3266443888639445"><ele>1787.0</ele><time>2026-04-24T11:37:12.999Z</time></trkpt><trkpt lat="31.258095455296196" lon="-7.3264825734260635"><ele>1786.75</ele><time>2026-04-24T11:37:13.999Z</time></trkpt><trkpt lat="31.25810429654499" lon="-7.326329053153763"><ele>1786.5</ele><time>2026-04-24T11:37:14.999Z</time></trkpt><trkpt lat="31.258119215712934" lon="-7.326179020395508"><ele>1786.25</ele><time>2026-04-24T11:37:15.999Z</time></trkpt><trkpt lat="31.25814952825023" lon="-7.326039767526639"><ele>1786.0</ele><time>2026-04-24T11:37:16.999Z</time></trkpt><trkpt lat="31.258178785686937" lon="-7.325902121848412"><ele>1786.0</ele><time>2026-04-24T11:37:17.999Z</time></trkpt><trkpt lat="31.25820916671354" lon="-7.3257655861416255"><ele>1786.0</ele><time>2026-04-24T11:37:18.999Z</time></trkpt><trkpt lat="31.2582420492293" lon="-7.32562942010467"><ele>1786.0</ele><time>2026-04-24T11:37:19.999Z</time></trkpt><trkpt lat="31.25827590373321" lon="-7.325491665375609"><ele>1786.0</ele><time>2026-04-24T11:37:20.999Z</time></trkpt><trkpt lat="31.258307633778223" lon="-7.325349120282451"><ele>1785.25</ele><time>2026-04-24T11:37:21.999Z</time></trkpt><trkpt lat="31.258318503093665" lon="-7.325201149582167"><ele>1784.5</ele><time>2026-04-24T11:37:22.999Z</time></trkpt><trkpt lat="31.258334011018725" lon="-7.325051422416744"><ele>1783.75</ele><time>2026-04-24T11:37:23.999Z</time></trkpt><trkpt lat="31.25835039386289" lon="-7.32490067772042"><ele>1783.0</ele><time>2026-04-24T11:37:24.999Z</time></trkpt><trkpt lat="31.258367593588602" lon="-7.3247431731845705"><ele>1781.5</ele><time>2026-04-24T11:37:25.999Z</time></trkpt><trkpt lat="31.258382599639816" lon="-7.324584220529377"><ele>1780.0</ele><time>2026-04-24T11:37:26.999Z</time></trkpt><trkpt lat="31.258387326884275" lon="-7.324416306757323"><ele>1778.5</ele><time>2026-04-24T11:37:27.999Z</time></trkpt><trkpt lat="31.258392432191684" lon="-7.324245534145039"><ele>1777.0</ele><time>2026-04-24T11:37:28.999Z</time></trkpt><trkpt lat="31.2583971354946" lon="-7.324072647224011"><ele>1777.0</ele><time>2026-04-24T11:37:29.999Z</time></trkpt><trkpt lat="31.258404831080057" lon="-7.323899590987819"><ele>1777.0</ele><time>2026-04-24T11:37:30.999Z</time></trkpt><trkpt lat="31.258413989168663" lon="-7.3237271139986975"><ele>1777.0</ele><time>2026-04-24T11:37:31.999Z</time></trkpt><trkpt lat="31.258421662782204" lon="-7.323550888199549"><ele>1777.0</ele><time>2026-04-24T11:37:32.999Z</time></trkpt><trkpt lat="31.2584455633227" lon="-7.323378512640217"><ele>1776.0</ele><time>2026-04-24T11:37:33.999Z</time></trkpt><trkpt lat="31.258468875417336" lon="-7.3232065304377905"><ele>1775.0</ele><time>2026-04-24T11:37:34.999Z</time></trkpt><trkpt lat="31.25853227449695" lon="-7.323031076155978"><ele>1774.0</ele><time>2026-04-24T11:37:35.999Z</time></trkpt><trkpt lat="31.258625330780283" lon="-7.322888671284518"><ele>1772.5</ele><time>2026-04-24T11:37:36.999Z</time></trkpt><trkpt lat="31.258733099519695" lon="-7.322767228119779"><ele>1771.0</ele><time>2026-04-24T11:37:37.999Z</time></trkpt><trkpt lat="31.258822721269727" lon="-7.322628396204665"><ele>1769.5</ele><time>2026-04-24T11:37:38.999Z</time></trkpt><trkpt lat="31.258909315799055" lon="-7.322488654433708"><ele>1768.0</ele><time>2026-04-24T11:37:39.999Z</time></trkpt><trkpt lat="31.258986782812176" lon="-7.322345503886876"><ele>1770.0</ele><time>2026-04-24T11:37:40.999Z</time></trkpt><trkpt lat="31.259057879525322" lon="-7.322201783486202"><ele>1772.0</ele><time>2026-04-24T11:37:41.999Z</time></trkpt><trkpt lat="31.25910756612062" lon="-7.322045208255585"><ele>1774.0</ele><time>2026-04-24T11:37:42.999Z</time></trkpt><trkpt lat="31.259150367578073" lon="-7.321887207593032"><ele>1776.0</ele><time>2026-04-24T11:37:43.999Z</time></trkpt><trkpt lat="31.259192650487762" lon="-7.32173856395991"><ele>1776.0</ele><time>2026-04-24T11:37:44.999Z</time></trkpt><trkpt lat="31.25923670371878" lon="-7.321597455833631"><ele>1776.0</ele><time>2026-04-24T11:37:45.999Z</time></trkpt><trkpt lat="31.259282766769832" lon="-7.321464736008332"><ele>1776.0</ele><time>2026-04-24T11:37:46.999Z</time></trkpt><trkpt lat="31.25932715290777" lon="-7.3213423415302605"><ele>1776.0</ele><time>2026-04-24T11:37:47.999Z</time></trkpt><trkpt lat="31.259368652482074" lon="-7.321228964315031"><ele>1775.4</ele><time>2026-04-24T11:37:48.999Z</time></trkpt><trkpt lat="31.25940872782916" lon="-7.3211209128513515"><ele>1774.8</ele><time>2026-04-24T11:37:49.999Z</time></trkpt><trkpt lat="31.259444342857613" lon="-7.321018951820778"><ele>1774.2000000000003</ele><time>2026-04-24T11:37:50.999Z</time></trkpt><trkpt lat="31.259471828772938" lon="-7.320919813244042"><ele>1773.6000000000001</ele><time>2026-04-24T11:37:51.999Z</time></trkpt><trkpt lat="31.259486949575614" lon="-7.320821034947692"><ele>1773.0</ele><time>2026-04-24T11:37:52.999Z</time></trkpt><trkpt lat="31.259462873750937" lon="-7.320728078315407"><ele>1773.0</ele><time>2026-04-24T11:37:53.999Z</time></trkpt><trkpt lat="31.259444280912142" lon="-7.320630947940906"><ele>1773.0</ele><time>2026-04-24T11:37:54.999Z</time></trkpt><trkpt lat="31.259395538555957" lon="-7.320550282179375"><ele>1773.0</ele><time>2026-04-24T11:37:55.999Z</time></trkpt><trkpt lat="31.259345333286504" lon="-7.320460517032849"><ele>1773.0</ele><time>2026-04-24T11:37:56.998Z</time></trkpt><trkpt lat="31.259300991101814" lon="-7.320362900892267"><ele>1773.0</ele><time>2026-04-24T11:37:57.998Z</time></trkpt><trkpt lat="31.259239108470222" lon="-7.320283316289297"><ele>1773.0</ele><time>2026-04-24T11:37:58.998Z</time></trkpt><trkpt lat="31.259186369402848" lon="-7.320200740526192"><ele>1772.5</ele><time>2026-04-24T11:38:00Z</time></trkpt><trkpt lat="31.259153528981308" lon="-7.3201103525551074"><ele>1772.0</ele><time>2026-04-24T11:38:01Z</time></trkpt><trkpt lat="31.25914502134982" lon="-7.320018758030341"><ele>1771.5</ele><time>2026-04-24T11:38:02Z</time></trkpt><trkpt lat="31.259160813568645" lon="-7.31992971224011"><ele>1771.0</ele><time>2026-04-24T11:38:03Z</time></trkpt><trkpt lat="31.259187504667086" lon="-7.319847500697368"><ele>1770.5</ele><time>2026-04-24T11:38:04Z</time></trkpt><trkpt lat="31.259245020754786" lon="-7.319777468427843"><ele>1770.0</ele><time>2026-04-24T11:38:05Z</time></trkpt><trkpt lat="31.25932064724725" lon="-7.31972219007936"><ele>1770.0</ele><time>2026-04-24T11:38:06Z</time></trkpt><trkpt lat="31.25939311143602" lon="-7.319651613343054"><ele>1770.0</ele><time>2026-04-24T11:38:07Z</time></trkpt><trkpt lat="31.259471044262916" lon="-7.319591636712301"><ele>1770.0</ele><time>2026-04-24T11:38:08Z</time></trkpt><trkpt lat="31.259551082272502" lon="-7.319529508447097"><ele>1770.0</ele><time>2026-04-24T11:38:09Z</time></trkpt><trkpt lat="31.25961645940569" lon="-7.319458463364494"><ele>1770.0</ele><time>2026-04-24T11:38:10Z</time></trkpt><trkpt lat="31.259665934843927" lon="-7.319363931918571"><ele>1770.0</ele><time>2026-04-24T11:38:11Z</time></trkpt><trkpt lat="31.259704787611025" lon="-7.319237544185817"><ele>1770.0</ele><time>2026-04-24T11:38:12Z</time></trkpt><trkpt lat="31.259744039949748" lon="-7.319105936420196"><ele>1770.0</ele><time>2026-04-24T11:38:13Z</time></trkpt><trkpt lat="31.25979619429677" lon="-7.318972009913386"><ele>1770.0</ele><time>2026-04-24T11:38:14Z</time></trkpt><trkpt lat="31.25985029394309" lon="-7.318844276406622"><ele>1772.0</ele><time>2026-04-24T11:38:15Z</time></trkpt><trkpt lat="31.25990573071567" lon="-7.318713062824106"><ele>1774.0</ele><time>2026-04-24T11:38:16Z</time></trkpt><trkpt lat="31.259963432677075" lon="-7.3185786560547506"><ele>1776.0</ele><time>2026-04-24T11:38:17Z</time></trkpt><trkpt lat="31.260027876590247" lon="-7.3184633361822815"><ele>1778.0</ele><time>2026-04-24T11:38:18Z</time></trkpt><trkpt lat="31.260085729696485" lon="-7.318359461582061"><ele>1777.9999999999998</ele><time>2026-04-24T11:38:19Z</time></trkpt><trkpt lat="31.26017224212792" lon="-7.318279999514855"><ele>1778.0</ele><time>2026-04-24T11:38:20Z</time></trkpt><trkpt lat="31.26024274137474" lon="-7.318225849821916"><ele>1778.0</ele><time>2026-04-24T11:38:21Z</time></trkpt><trkpt lat="31.260270301673376" lon="-7.318139666235165"><ele>1778.0</ele><time>2026-04-24T11:38:22Z</time></trkpt><trkpt lat="31.260283665561566" lon="-7.3180566796771815"><ele>1777.9999999999998</ele><time>2026-04-24T11:38:23Z</time></trkpt><trkpt lat="31.260252157957066" lon="-7.3179757681144615"><ele>1778.0</ele><time>2026-04-24T11:38:24Z</time></trkpt><trkpt lat="31.260194555008763" lon="-7.317906105628086"><ele>1779.8000000000002</ele><time>2026-04-24T11:38:25Z</time></trkpt><trkpt lat="31.26011673484598" lon="-7.317853373539369"><ele>1781.6000000000001</ele><time>2026-04-24T11:38:26Z</time></trkpt><trkpt lat="31.260026874922456" lon="-7.3178123496971255"><ele>1783.3999999999999</ele><time>2026-04-24T11:38:27Z</time></trkpt><trkpt lat="31.25992876482604" lon="-7.317774069967453"><ele>1785.1999999999998</ele><time>2026-04-24T11:38:28Z</time></trkpt><trkpt lat="31.259823938067406" lon="-7.317735805993668"><ele>1787.0</ele><time>2026-04-24T11:38:29Z</time></trkpt><trkpt lat="31.25971175383994" lon="-7.317695707155216"><ele>1787.0</ele><time>2026-04-24T11:38:30Z</time></trkpt><trkpt lat="31.259592366884085" lon="-7.317652442939916"><ele>1787.0</ele><time>2026-04-24T11:38:31Z</time></trkpt><trkpt lat="31.259470223471986" lon="-7.317603434718805"><ele>1787.0</ele><time>2026-04-24T11:38:32Z</time></trkpt><trkpt lat="31.259345473326658" lon="-7.317548474206313"><ele>1787.0</ele><time>2026-04-24T11:38:33Z</time></trkpt><trkpt lat="31.259223666621743" lon="-7.317469518718212"><ele>1787.0</ele><time>2026-04-24T11:38:34Z</time></trkpt><trkpt lat="31.259107582345706" lon="-7.317374297368211"><ele>1787.0</ele><time>2026-04-24T11:38:35Z</time></trkpt><trkpt lat="31.25900201253355" lon="-7.3172711568401425"><ele>1787.0</ele><time>2026-04-24T11:38:36Z</time></trkpt><trkpt lat="31.25889400795394" lon="-7.317166480874919"><ele>1787.0</ele><time>2026-04-24T11:38:37Z</time></trkpt><trkpt lat="31.258780223473636" lon="-7.317071816536823"><ele>1791.0</ele><time>2026-04-24T11:38:38Z</time></trkpt><trkpt lat="31.258669022742772" lon="-7.316993248964132"><ele>1795.0</ele><time>2026-04-24T11:38:39Z</time></trkpt><trkpt lat="31.258565202324473" lon="-7.316926366872666"><ele>1799.0</ele><time>2026-04-24T11:38:40Z</time></trkpt><trkpt lat="31.258472139048134" lon="-7.3168652914276935"><ele>1803.0</ele><time>2026-04-24T11:38:41Z</time></trkpt><trkpt lat="31.2583889183208" lon="-7.316800881320889"><ele>1803.0</ele><time>2026-04-24T11:38:42Z</time></trkpt><trkpt lat="31.258320706837818" lon="-7.316733281915593"><ele>1803.0</ele><time>2026-04-24T11:38:43Z</time></trkpt><trkpt lat="31.258260889105987" lon="-7.316659642544223"><ele>1803.0</ele><time>2026-04-24T11:38:43.999Z</time></trkpt><trkpt lat="31.258205743300856" lon="-7.3165776056548095"><ele>1803.0</ele><time>2026-04-24T11:38:44.999Z</time></trkpt><trkpt lat="31.258168602446297" lon="-7.316473162187183"><ele>1803.0</ele><time>2026-04-24T11:38:45.999Z</time></trkpt><trkpt lat="31.258169712489142" lon="-7.316371501155268"><ele>1803.0</ele><time>2026-04-24T11:38:46.999Z</time></trkpt><trkpt lat="31.258194044369617" lon="-7.316254084600849"><ele>1802.8000000000002</ele><time>2026-04-24T11:38:47.999Z</time></trkpt><trkpt lat="31.25824108280583" lon="-7.316144375872805"><ele>1802.6000000000001</ele><time>2026-04-24T11:38:48.999Z</time></trkpt><trkpt lat="31.258314923558892" lon="-7.316049155388878"><ele>1802.3999999999999</ele><time>2026-04-24T11:38:49.999Z</time></trkpt><trkpt lat="31.258386272564117" lon="-7.315968220866428"><ele>1802.1999999999998</ele><time>2026-04-24T11:38:50.999Z</time></trkpt><trkpt lat="31.258465023028315" lon="-7.315879938629065"><ele>1802.0</ele><time>2026-04-24T11:38:51.999Z</time></trkpt><trkpt lat="31.258563203543442" lon="-7.315791908480443"><ele>1802.0</ele><time>2026-04-24T11:38:52.999Z</time></trkpt><trkpt lat="31.258661519669804" lon="-7.3157138996336935"><ele>1802.0</ele><time>2026-04-24T11:38:53.999Z</time></trkpt><trkpt lat="31.258758764077882" lon="-7.315636741133137"><ele>1802.0</ele><time>2026-04-24T11:38:54.999Z</time></trkpt><trkpt lat="31.258856582088242" lon="-7.315565006000757"><ele>1802.0</ele><time>2026-04-24T11:38:55.999Z</time></trkpt><trkpt lat="31.258955315263947" lon="-7.31549636156965"><ele>1802.25</ele><time>2026-04-24T11:38:56.999Z</time></trkpt><trkpt lat="31.259066236432727" lon="-7.315433845278746"><ele>1802.5</ele><time>2026-04-24T11:38:57.999Z</time></trkpt><trkpt lat="31.259173459769624" lon="-7.315384644444753"><ele>1802.75</ele><time>2026-04-24T11:38:58.999Z</time></trkpt><trkpt lat="31.259281090086102" lon="-7.31533648940057"><ele>1803.0</ele><time>2026-04-24T11:38:59.999Z</time></trkpt><trkpt lat="31.259387717606476" lon="-7.31529027709782"><ele>1803.0</ele><time>2026-04-24T11:39:00.999Z</time></trkpt><trkpt lat="31.259507037353917" lon="-7.315262292064278"><ele>1803.0</ele><time>2026-04-24T11:39:01.999Z</time></trkpt><trkpt lat="31.259626831416778" lon="-7.315262596097057"><ele>1803.0</ele><time>2026-04-24T11:39:02.999Z</time></trkpt><trkpt lat="31.259740820065566" lon="-7.315285901108048"><ele>1803.0</ele><time>2026-04-24T11:39:03.999Z</time></trkpt><trkpt lat="31.25985014060879" lon="-7.315320227836762"><ele>1804.8333333333333</ele><time>2026-04-24T11:39:04.999Z</time></trkpt><trkpt lat="31.259950280778266" lon="-7.315354271507389"><ele>1806.6666666666665</ele><time>2026-04-24T11:39:05.999Z</time></trkpt><trkpt lat="31.260041596591332" lon="-7.3153813212563605"><ele>1808.5</ele><time>2026-04-24T11:39:06.999Z</time></trkpt><trkpt lat="31.260116428449404" lon="-7.3153868824829065"><ele>1810.3333333333333</ele><time>2026-04-24T11:39:07.999Z</time></trkpt><trkpt lat="31.260191455129977" lon="-7.315375393938064"><ele>1812.1666666666665</ele><time>2026-04-24T11:39:08.999Z</time></trkpt><trkpt lat="31.260258321275245" lon="-7.3153469033046"><ele>1814.0</ele><time>2026-04-24T11:39:09.999Z</time></trkpt><trkpt lat="31.260316894878684" lon="-7.31529133897853"><ele>1814.0</ele><time>2026-04-24T11:39:10.999Z</time></trkpt><trkpt lat="31.26037318148881" lon="-7.315205592641424"><ele>1814.0</ele><time>2026-04-24T11:39:11.999Z</time></trkpt><trkpt lat="31.2604379441208" lon="-7.315111516572978"><ele>1814.0</ele><time>2026-04-24T11:39:12.999Z</time></trkpt><trkpt lat="31.260510373965893" lon="-7.315014429382921"><ele>1814.0</ele><time>2026-04-24T11:39:13.999Z</time></trkpt><trkpt lat="31.260585573263324" lon="-7.314915457057427"><ele>1814.0</ele><time>2026-04-24T11:39:14.999Z</time></trkpt><trkpt lat="31.260684679079805" lon="-7.314818833991199"><ele>1812.25</ele><time>2026-04-24T11:39:15.999Z</time></trkpt><trkpt lat="31.260792831515666" lon="-7.314728332071386"><ele>1810.5</ele><time>2026-04-24T11:39:16.999Z</time></trkpt><trkpt lat="31.260902528191934" lon="-7.314659451702565"><ele>1808.75</ele><time>2026-04-24T11:39:17.999Z</time></trkpt><trkpt lat="31.261009841013188" lon="-7.314590711775486"><ele>1807.0</ele><time>2026-04-24T11:39:18.999Z</time></trkpt><trkpt lat="31.261111915400143" lon="-7.31452407580212"><ele>1807.0</ele><time>2026-04-24T11:39:19.999Z</time></trkpt><trkpt lat="31.26120223132574" lon="-7.31446400230025"><ele>1806.9999999999998</ele><time>2026-04-24T11:39:20.999Z</time></trkpt><trkpt lat="31.26128559748936" lon="-7.3144086815927185"><ele>1806.9999999999998</ele><time>2026-04-24T11:39:21.999Z</time></trkpt><trkpt lat="31.261372462680868" lon="-7.314363370913929"><ele>1807.0</ele><time>2026-04-24T11:39:22.999Z</time></trkpt><trkpt lat="31.261458026803535" lon="-7.314318667027219"><ele>1807.0</ele><time>2026-04-24T11:39:23.999Z</time></trkpt><trkpt lat="31.261551735648993" lon="-7.314285424163039"><ele>1811.6</ele><time>2026-04-24T11:39:24.999Z</time></trkpt><trkpt lat="31.261643479661803" lon="-7.314250798916475"><ele>1816.1999999999998</ele><time>2026-04-24T11:39:25.999Z</time></trkpt><trkpt lat="31.26173699617918" lon="-7.3142206154005684"><ele>1820.8</ele><time>2026-04-24T11:39:26.999Z</time></trkpt><trkpt lat="31.26182881455921" lon="-7.314196092334923"><ele>1825.4</ele><time>2026-04-24T11:39:27.999Z</time></trkpt><trkpt lat="31.261920958814763" lon="-7.314188968590103"><ele>1830.0</ele><time>2026-04-24T11:39:28.999Z</time></trkpt><trkpt lat="31.26201134957936" lon="-7.314164984316041"><ele>1830.0</ele><time>2026-04-24T11:39:29.999Z</time></trkpt><trkpt lat="31.262104286076884" lon="-7.314140119829855"><ele>1830.0</ele><time>2026-04-24T11:39:30.999Z</time></trkpt><trkpt lat="31.262187643715713" lon="-7.314087328155496"><ele>1830.0</ele><time>2026-04-24T11:39:31.999Z</time></trkpt><trkpt lat="31.26227469656708" lon="-7.31404822878351"><ele>1830.0</ele><time>2026-04-24T11:39:32.999Z</time></trkpt><trkpt lat="31.26236317683165" lon="-7.3140174070948625"><ele>1830.0</ele><time>2026-04-24T11:39:33.999Z</time></trkpt><trkpt lat="31.262431992517502" lon="-7.31394653249284"><ele>1831.8</ele><time>2026-04-24T11:39:34.999Z</time></trkpt><trkpt lat="31.262482226903828" lon="-7.313857750123619"><ele>1833.6</ele><time>2026-04-24T11:39:35.999Z</time></trkpt><trkpt lat="31.262507883974727" lon="-7.313757053693641"><ele>1835.4</ele><time>2026-04-24T11:39:36.999Z</time></trkpt><trkpt lat="31.262508374835534" lon="-7.313649712235785"><ele>1837.2</ele><time>2026-04-24T11:39:37.999Z</time></trkpt><trkpt lat="31.26249447177031" lon="-7.313538897326864"><ele>1839.0</ele><time>2026-04-24T11:39:38.999Z</time></trkpt><trkpt lat="31.26246234065107" lon="-7.313430308869925"><ele>1839.0</ele><time>2026-04-24T11:39:39.999Z</time></trkpt><trkpt lat="31.262441233041677" lon="-7.313307668564683"><ele>1839.0</ele><time>2026-04-24T11:39:40.999Z</time></trkpt><trkpt lat="31.262456480926417" lon="-7.3131767461819415"><ele>1839.0</ele><time>2026-04-24T11:39:41.999Z</time></trkpt><trkpt lat="31.262512208723333" lon="-7.313061210148389"><ele>1839.0</ele><time>2026-04-24T11:39:42.999Z</time></trkpt><trkpt lat="31.262591822440374" lon="-7.312972689195154"><ele>1839.0</ele><time>2026-04-24T11:39:43.999Z</time></trkpt><trkpt lat="31.262682311453673" lon="-7.312899667209399"><ele>1839.4</ele><time>2026-04-24T11:39:44.999Z</time></trkpt><trkpt lat="31.262798595303412" lon="-7.3128683237916166"><ele>1839.8000000000002</ele><time>2026-04-24T11:39:45.999Z</time></trkpt><trkpt lat="31.262909564177196" lon="-7.312881127426877"><ele>1840.1999999999998</ele><time>2026-04-24T11:39:46.999Z</time></trkpt><trkpt lat="31.263011624575473" lon="-7.312892896462328"><ele>1840.6</ele><time>2026-04-24T11:39:47.999Z</time></trkpt><trkpt lat="31.26310561366719" lon="-7.312932653427954"><ele>1841.0</ele><time>2026-04-24T11:39:48.999Z</time></trkpt><trkpt lat="31.26318681785723" lon="-7.3129907585297955"><ele>1840.9999999999998</ele><time>2026-04-24T11:39:49.999Z</time></trkpt><trkpt lat="31.263267620510252" lon="-7.313030834786454"><ele>1841.0</ele><time>2026-04-24T11:39:50.999Z</time></trkpt><trkpt lat="31.263342249213057" lon="-7.3130704503430755"><ele>1841.0</ele><time>2026-04-24T11:39:51.999Z</time></trkpt><trkpt lat="31.263409470565005" lon="-7.313086878778939"><ele>1841.0</ele><time>2026-04-24T11:39:52.999Z</time></trkpt><trkpt lat="31.26347981986083" lon="-7.3130940804028235"><ele>1840.9999999999998</ele><time>2026-04-24T11:39:53.999Z</time></trkpt><trkpt lat="31.263585043997757" lon="-7.313011652000042"><ele>1841.0</ele><time>2026-04-24T11:39:55.999Z</time></trkpt><trkpt lat="31.263652666797565" lon="-7.31294775408523"><ele>1841.0</ele><time>2026-04-24T11:39:56.999Z</time></trkpt><trkpt lat="31.263675655663736" lon="-7.312841471128304"><ele>1841.0</ele><time>2026-04-24T11:39:57.999Z</time></trkpt><trkpt lat="31.263716537802114" lon="-7.312734988335661"><ele>1841.0</ele><time>2026-04-24T11:39:58.998Z</time></trkpt><trkpt lat="31.26373677135763" lon="-7.3126214308053745"><ele>1841.0</ele><time>2026-04-24T11:39:59.998Z</time></trkpt><trkpt lat="31.26376375612919" lon="-7.312498647635634"><ele>1841.0</ele><time>2026-04-24T11:40:00.998Z</time></trkpt><trkpt lat="31.26378837110955" lon="-7.312376575322677"><ele>1839.5</ele><time>2026-04-24T11:40:01.998Z</time></trkpt><trkpt lat="31.26379380592602" lon="-7.312229756575144"><ele>1838.0</ele><time>2026-04-24T11:40:02.998Z</time></trkpt><trkpt lat="31.26380084487549" lon="-7.312081147028731"><ele>1836.5</ele><time>2026-04-24T11:40:03.998Z</time></trkpt><trkpt lat="31.26381015342231" lon="-7.3119425436352055"><ele>1835.0</ele><time>2026-04-24T11:40:05Z</time></trkpt><trkpt lat="31.263818760803243" lon="-7.311814380516348"><ele>1835.0</ele><time>2026-04-24T11:40:06Z</time></trkpt><trkpt lat="31.26382593543163" lon="-7.311694042241206"><ele>1835.0</ele><time>2026-04-24T11:40:07Z</time></trkpt><trkpt lat="31.263833274842604" lon="-7.311579764179138"><ele>1835.0</ele><time>2026-04-24T11:40:08Z</time></trkpt><trkpt lat="31.263855863871388" lon="-7.311461113830818"><ele>1835.0</ele><time>2026-04-24T11:40:09Z</time></trkpt><trkpt lat="31.263879520724025" lon="-7.3113604787353585"><ele>1835.0</ele><time>2026-04-24T11:40:10Z</time></trkpt><trkpt lat="31.263926883008725" lon="-7.311266847556249"><ele>1837.4999999999998</ele><time>2026-04-24T11:40:11Z</time></trkpt><trkpt lat="31.263991999862476" lon="-7.311190183702891"><ele>1840.0</ele><time>2026-04-24T11:40:12Z</time></trkpt><trkpt lat="31.26405247737716" lon="-7.311146421050854"><ele>1842.5</ele><time>2026-04-24T11:40:13Z</time></trkpt><trkpt lat="31.264133758647155" lon="-7.3111505670915795"><ele>1845.0</ele><time>2026-04-24T11:40:14Z</time></trkpt><trkpt lat="31.264206978849323" lon="-7.311151640171277"><ele>1847.4999999999998</ele><time>2026-04-24T11:40:15Z</time></trkpt><trkpt lat="31.264280854921996" lon="-7.311177413053856"><ele>1850.0</ele><time>2026-04-24T11:40:16Z</time></trkpt><trkpt lat="31.264346035117516" lon="-7.3112249488435666"><ele>1850.0</ele><time>2026-04-24T11:40:17Z</time></trkpt><trkpt lat="31.264404059246086" lon="-7.311288844954202"><ele>1850.0</ele><time>2026-04-24T11:40:18Z</time></trkpt><trkpt lat="31.26445687639841" lon="-7.311371570853491"><ele>1850.0</ele><time>2026-04-24T11:40:19Z</time></trkpt><trkpt lat="31.264508518365314" lon="-7.311464647156274"><ele>1850.0</ele><time>2026-04-24T11:40:20Z</time></trkpt><trkpt lat="31.26455947077839" lon="-7.311564615624032"><ele>1850.0</ele><time>2026-04-24T11:40:21Z</time></trkpt><trkpt lat="31.264611480084433" lon="-7.311664695660423"><ele>1853.0</ele><time>2026-04-24T11:40:22Z</time></trkpt><trkpt lat="31.264666737789305" lon="-7.3117611975063355"><ele>1856.0</ele><time>2026-04-24T11:40:23Z</time></trkpt><trkpt lat="31.264730848431444" lon="-7.311855481376149"><ele>1859.0</ele><time>2026-04-24T11:40:24Z</time></trkpt><trkpt lat="31.264803873799114" lon="-7.311939855818551"><ele>1862.0</ele><time>2026-04-24T11:40:25Z</time></trkpt><trkpt lat="31.26488370114191" lon="-7.312010899528883"><ele>1865.0</ele><time>2026-04-24T11:40:26Z</time></trkpt><trkpt lat="31.264970514097307" lon="-7.312066150453786"><ele>1865.2</ele><time>2026-04-24T11:40:27Z</time></trkpt><trkpt lat="31.26505958753596" lon="-7.312096897076479"><ele>1865.4</ele><time>2026-04-24T11:40:28Z</time></trkpt><trkpt lat="31.265146889223804" lon="-7.312091857196143"><ele>1865.6</ele><time>2026-04-24T11:40:29Z</time></trkpt><trkpt lat="31.26523325673293" lon="-7.3120780663454115"><ele>1865.8</ele><time>2026-04-24T11:40:30Z</time></trkpt><trkpt lat="31.265295768568432" lon="-7.311991747974836"><ele>1866.0</ele><time>2026-04-24T11:40:31Z</time></trkpt><trkpt lat="31.265369041492562" lon="-7.311904007002794"><ele>1866.0</ele><time>2026-04-24T11:40:32Z</time></trkpt><trkpt lat="31.26543352569119" lon="-7.31179630089838"><ele>1866.0</ele><time>2026-04-24T11:40:33Z</time></trkpt><trkpt lat="31.26546924530738" lon="-7.311671655774141"><ele>1866.0</ele><time>2026-04-24T11:40:34Z</time></trkpt><trkpt lat="31.26549297987792" lon="-7.311521614717823"><ele>1866.0</ele><time>2026-04-24T11:40:35Z</time></trkpt><trkpt lat="31.2655207664341" lon="-7.31137191309905"><ele>1868.25</ele><time>2026-04-24T11:40:36Z</time></trkpt><trkpt lat="31.265551538355357" lon="-7.311220690737871"><ele>1870.5</ele><time>2026-04-24T11:40:37Z</time></trkpt><trkpt lat="31.265588499590525" lon="-7.311074873164911"><ele>1872.75</ele><time>2026-04-24T11:40:38Z</time></trkpt><trkpt lat="31.265636030212328" lon="-7.310927227129161"><ele>1875.0</ele><time>2026-04-24T11:40:39Z</time></trkpt><trkpt lat="31.26568941679632" lon="-7.310799074422798"><ele>1875.0</ele><time>2026-04-24T11:40:40Z</time></trkpt><trkpt lat="31.2657352437602" lon="-7.3106582606537085"><ele>1875.0</ele><time>2026-04-24T11:40:41Z</time></trkpt><trkpt lat="31.2657699905073" lon="-7.310514441105244"><ele>1875.0</ele><time>2026-04-24T11:40:42Z</time></trkpt><trkpt lat="31.26578524694814" lon="-7.3103692004779806"><ele>1875.0</ele><time>2026-04-24T11:40:43Z</time></trkpt><trkpt lat="31.2658031939527" lon="-7.310214437375697"><ele>1872.0</ele><time>2026-04-24T11:40:44Z</time></trkpt><trkpt lat="31.265824418783982" lon="-7.3100659869278966"><ele>1869.0</ele><time>2026-04-24T11:40:45Z</time></trkpt><trkpt lat="31.265845331371363" lon="-7.3099200786360035"><ele>1866.0</ele><time>2026-04-24T11:40:46Z</time></trkpt><trkpt lat="31.265866470440262" lon="-7.30977735298445"><ele>1863.0</ele><time>2026-04-24T11:40:46.999Z</time></trkpt><trkpt lat="31.265888124650466" lon="-7.309640176402265"><ele>1860.75</ele><time>2026-04-24T11:40:47.999Z</time></trkpt><trkpt lat="31.2659273024395" lon="-7.309514349826636"><ele>1858.5</ele><time>2026-04-24T11:40:48.999Z</time></trkpt><trkpt lat="31.26596227346194" lon="-7.3093951331428615"><ele>1856.25</ele><time>2026-04-24T11:40:49.999Z</time></trkpt><trkpt lat="31.266028748493046" lon="-7.3092861861283325"><ele>1854.0</ele><time>2026-04-24T11:40:50.999Z</time></trkpt><trkpt lat="31.266119961379456" lon="-7.309203727661506"><ele>1854.0</ele><time>2026-04-24T11:40:51.999Z</time></trkpt><trkpt lat="31.266215919943463" lon="-7.309124292167448"><ele>1854.0</ele><time>2026-04-24T11:40:52.999Z</time></trkpt><trkpt lat="31.26632823185887" lon="-7.309058607215748"><ele>1854.0</ele><time>2026-04-24T11:40:53.999Z</time></trkpt><trkpt lat="31.266451457307053" lon="-7.309004416302903"><ele>1854.0</ele><time>2026-04-24T11:40:54.999Z</time></trkpt><trkpt lat="31.26657940194158" lon="-7.308961347353287"><ele>1852.25</ele><time>2026-04-24T11:40:55.999Z</time></trkpt><trkpt lat="31.266706314636135" lon="-7.308925028563102"><ele>1850.5</ele><time>2026-04-24T11:40:56.999Z</time></trkpt><trkpt lat="31.26682860337248" lon="-7.308889215743175"><ele>1848.75</ele><time>2026-04-24T11:40:57.999Z</time></trkpt><trkpt lat="31.26694583751428" lon="-7.308847570781351"><ele>1847.0</ele><time>2026-04-24T11:40:58.999Z</time></trkpt><trkpt lat="31.26705960894033" lon="-7.308794149198629"><ele>1847.0</ele><time>2026-04-24T11:40:59.999Z</time></trkpt><trkpt lat="31.267170372003072" lon="-7.3087281509733035"><ele>1847.0</ele><time>2026-04-24T11:41:00.999Z</time></trkpt><trkpt lat="31.267273407232903" lon="-7.308645063783242"><ele>1847.0</ele><time>2026-04-24T11:41:01.999Z</time></trkpt><trkpt lat="31.267363838209977" lon="-7.308544468853687"><ele>1847.0</ele><time>2026-04-24T11:41:02.999Z</time></trkpt><trkpt lat="31.26744318862844" lon="-7.308433294127441"><ele>1849.0</ele><time>2026-04-24T11:41:03.999Z</time></trkpt><trkpt lat="31.26751549050381" lon="-7.308317541421882"><ele>1851.0</ele><time>2026-04-24T11:41:04.999Z</time></trkpt><trkpt lat="31.267579901451665" lon="-7.308192837066247"><ele>1853.0</ele><time>2026-04-24T11:41:05.999Z</time></trkpt><trkpt lat="31.267677423737812" lon="-7.30809765269365"><ele>1855.0</ele><time>2026-04-24T11:41:06.999Z</time></trkpt><trkpt lat="31.26770727488163" lon="-7.307918917834346"><ele>1855.75</ele><time>2026-04-24T11:41:07.999Z</time></trkpt><trkpt lat="31.26777262845862" lon="-7.307772327971036"><ele>1856.5</ele><time>2026-04-24T11:41:08.999Z</time></trkpt><trkpt lat="31.26783739163258" lon="-7.307619558423078"><ele>1857.25</ele><time>2026-04-24T11:41:09.999Z</time></trkpt><trkpt lat="31.26790379908261" lon="-7.307461942913751"><ele>1858.0</ele><time>2026-04-24T11:41:10.999Z</time></trkpt><trkpt lat="31.26797179237777" lon="-7.307303923632663"><ele>1858.0</ele><time>2026-04-24T11:41:11.999Z</time></trkpt><trkpt lat="31.268039833593583" lon="-7.307146891634466"><ele>1858.0</ele><time>2026-04-24T11:41:12.999Z</time></trkpt><trkpt lat="31.26810803829924" lon="-7.306988915794892"><ele>1858.0</ele><time>2026-04-24T11:41:13.999Z</time></trkpt><trkpt lat="31.268176772267356" lon="-7.306829347649602"><ele>1854.0</ele><time>2026-04-24T11:41:14.999Z</time></trkpt><trkpt lat="31.26824508490274" lon="-7.306671231770113"><ele>1850.0</ele><time>2026-04-24T11:41:15.999Z</time></trkpt><trkpt lat="31.268309295663812" lon="-7.3065138869228825"><ele>1846.0</ele><time>2026-04-24T11:41:16.999Z</time></trkpt><trkpt lat="31.26836802146037" lon="-7.306357530563279"><ele>1842.0</ele><time>2026-04-24T11:41:17.999Z</time></trkpt><trkpt lat="31.268421128153904" lon="-7.306198431232054"><ele>1840.75</ele><time>2026-04-24T11:41:18.999Z</time></trkpt><trkpt lat="31.268462557925588" lon="-7.306032947157204"><ele>1839.5</ele><time>2026-04-24T11:41:19.999Z</time></trkpt><trkpt lat="31.268478720521113" lon="-7.305858704491181"><ele>1838.25</ele><time>2026-04-24T11:41:20.999Z</time></trkpt><trkpt lat="31.268473922607882" lon="-7.305681236487527"><ele>1837.0</ele><time>2026-04-24T11:41:21.999Z</time></trkpt><trkpt lat="31.26846558229223" lon="-7.305497356713151"><ele>1834.3333333333335</ele><time>2026-04-24T11:41:22.999Z</time></trkpt><trkpt lat="31.268456786275024" lon="-7.305309762125095"><ele>1831.6666666666665</ele><time>2026-04-24T11:41:23.999Z</time></trkpt><trkpt lat="31.2684469050194" lon="-7.305119400023996"><ele>1829.0</ele><time>2026-04-24T11:41:24.999Z</time></trkpt><trkpt lat="31.26843830000152" lon="-7.304927546341048"><ele>1827.6666666666665</ele><time>2026-04-24T11:41:25.999Z</time></trkpt><trkpt lat="31.268429134074875" lon="-7.304733103611074"><ele>1826.3333333333335</ele><time>2026-04-24T11:41:26.999Z</time></trkpt><trkpt lat="31.268418411697485" lon="-7.304536051520772"><ele>1825.0</ele><time>2026-04-24T11:41:27.999Z</time></trkpt><trkpt lat="31.268407281453946" lon="-7.304335895242008"><ele>1825.0</ele><time>2026-04-24T11:41:28.999Z</time></trkpt><trkpt lat="31.26839611485912" lon="-7.304132995777796"><ele>1825.0</ele><time>2026-04-24T11:41:29.999Z</time></trkpt><trkpt lat="31.268387198020477" lon="-7.303927150319609"><ele>1825.0</ele><time>2026-04-24T11:41:30.999Z</time></trkpt><trkpt lat="31.268380398544696" lon="-7.303721518623086"><ele>1822.3333333333335</ele><time>2026-04-24T11:41:31.999Z</time></trkpt><trkpt lat="31.2683748888305" lon="-7.303515975732182"><ele>1819.6666666666665</ele><time>2026-04-24T11:41:32.999Z</time></trkpt><trkpt lat="31.268372410016983" lon="-7.303305387991226"><ele>1817.0</ele><time>2026-04-24T11:41:33.999Z</time></trkpt><trkpt lat="31.268375187736147" lon="-7.303088985366189"><ele>1815.6666666666665</ele><time>2026-04-24T11:41:34.999Z</time></trkpt><trkpt lat="31.26838255592721" lon="-7.302869938730461"><ele>1814.3333333333335</ele><time>2026-04-24T11:41:35.999Z</time></trkpt><trkpt lat="31.268396105484648" lon="-7.302648857768965"><ele>1813.0</ele><time>2026-04-24T11:41:36.999Z</time></trkpt><trkpt lat="31.26841954347617" lon="-7.302425743385603"><ele>1812.6666666666667</ele><time>2026-04-24T11:41:37.999Z</time></trkpt><trkpt lat="31.268457235176754" lon="-7.302214747606263"><ele>1812.3333333333335</ele><time>2026-04-24T11:41:38.999Z</time></trkpt><trkpt lat="31.26849430595775" lon="-7.302009482278534"><ele>1812.0</ele><time>2026-04-24T11:41:39.999Z</time></trkpt><trkpt lat="31.26853806605079" lon="-7.301801779869914"><ele>1812.0</ele><time>2026-04-24T11:41:40.999Z</time></trkpt><trkpt lat="31.268581709054402" lon="-7.301592013383097"><ele>1812.0</ele><time>2026-04-24T11:41:41.999Z</time></trkpt><trkpt lat="31.268623848380102" lon="-7.301388254895228"><ele>1812.0</ele><time>2026-04-24T11:41:42.999Z</time></trkpt><trkpt lat="31.268664441657197" lon="-7.301180886928855"><ele>1809.3333333333335</ele><time>2026-04-24T11:41:43.999Z</time></trkpt><trkpt lat="31.268708871311777" lon="-7.3009701629267125"><ele>1806.6666666666667</ele><time>2026-04-24T11:41:44.999Z</time></trkpt><trkpt lat="31.268751353440905" lon="-7.300759052092257"><ele>1804.0</ele><time>2026-04-24T11:41:45.999Z</time></trkpt><trkpt lat="31.268795517894468" lon="-7.300551843079051"><ele>1803.3333333333335</ele><time>2026-04-24T11:41:46.999Z</time></trkpt><trkpt lat="31.26884135503321" lon="-7.300350790802065"><ele>1802.6666666666665</ele><time>2026-04-24T11:41:47.999Z</time></trkpt><trkpt lat="31.268884721725463" lon="-7.300150405170836"><ele>1802.0</ele><time>2026-04-24T11:41:48.999Z</time></trkpt><trkpt lat="31.268924205686634" lon="-7.299955543186821"><ele>1799.3333333333333</ele><time>2026-04-24T11:41:49.999Z</time></trkpt><trkpt lat="31.268962408468767" lon="-7.29975741584608"><ele>1796.6666666666665</ele><time>2026-04-24T11:41:50.999Z</time></trkpt><trkpt lat="31.269003981342625" lon="-7.299562709742149"><ele>1794.0</ele><time>2026-04-24T11:41:51.999Z</time></trkpt><trkpt lat="31.26904814209159" lon="-7.299370566870553"><ele>1793.0</ele><time>2026-04-24T11:41:52.999Z</time></trkpt><trkpt lat="31.269092190118243" lon="-7.299190094462787"><ele>1792.0</ele><time>2026-04-24T11:41:53.999Z</time></trkpt><trkpt lat="31.269139719212557" lon="-7.299016791483841"><ele>1791.0</ele><time>2026-04-24T11:41:54.999Z</time></trkpt><trkpt lat="31.269192843845364" lon="-7.298847305217356"><ele>1791.0</ele><time>2026-04-24T11:41:55.999Z</time></trkpt><trkpt lat="31.269256510405096" lon="-7.298689292037512"><ele>1791.0</ele><time>2026-04-24T11:41:56.999Z</time></trkpt><trkpt lat="31.26932352500783" lon="-7.298547475816455"><ele>1791.0</ele><time>2026-04-24T11:41:57.999Z</time></trkpt><trkpt lat="31.26941061180304" lon="-7.298418831097648"><ele>1791.0</ele><time>2026-04-24T11:41:58.999Z</time></trkpt><trkpt lat="31.26951282908651" lon="-7.29830215091069"><ele>1791.0</ele><time>2026-04-24T11:41:59.999Z</time></trkpt><trkpt lat="31.26962457125415" lon="-7.29819519617722"><ele>1791.0</ele><time>2026-04-24T11:42:00.998Z</time></trkpt><trkpt lat="31.26973778283053" lon="-7.298084065023206"><ele>1791.0</ele><time>2026-04-24T11:42:01.998Z</time></trkpt><trkpt lat="31.26985055904859" lon="-7.297971539786723"><ele>1791.0</ele><time>2026-04-24T11:42:02.998Z</time></trkpt><trkpt lat="31.269957127139907" lon="-7.2978610773187205"><ele>1789.0</ele><time>2026-04-24T11:42:03.998Z</time></trkpt><trkpt lat="31.270047615063934" lon="-7.297750346005725"><ele>1787.0</ele><time>2026-04-24T11:42:04.998Z</time></trkpt><trkpt lat="31.27011556587877" lon="-7.297628702674027"><ele>1785.0</ele><time>2026-04-24T11:42:05.998Z</time></trkpt><trkpt lat="31.270164609379627" lon="-7.2974959634659"><ele>1783.0</ele><time>2026-04-24T11:42:06.998Z</time></trkpt><trkpt lat="31.270209849365823" lon="-7.297365996771017"><ele>1781.5</ele><time>2026-04-24T11:42:07.998Z</time></trkpt><trkpt lat="31.270246599918686" lon="-7.2972353239633385"><ele>1780.0</ele><time>2026-04-24T11:42:08.998Z</time></trkpt><trkpt lat="31.27027408969953" lon="-7.297109115298379"><ele>1778.5</ele><time>2026-04-24T11:42:09.998Z</time></trkpt><trkpt lat="31.27029585920013" lon="-7.296978837827217"><ele>1777.0</ele><time>2026-04-24T11:42:11Z</time></trkpt><trkpt lat="31.270306676509065" lon="-7.296842760886674"><ele>1777.0</ele><time>2026-04-24T11:42:12Z</time></trkpt><trkpt lat="31.270315185344003" lon="-7.296715088637346"><ele>1777.0</ele><time>2026-04-24T11:42:13Z</time></trkpt><trkpt lat="31.270318102325636" lon="-7.296583262652876"><ele>1777.0</ele><time>2026-04-24T11:42:14Z</time></trkpt><trkpt lat="31.270315344813557" lon="-7.296446140600275"><ele>1777.0</ele><time>2026-04-24T11:42:15Z</time></trkpt><trkpt lat="31.27029920795788" lon="-7.296309493246034"><ele>1776.25</ele><time>2026-04-24T11:42:16Z</time></trkpt><trkpt lat="31.270275760753687" lon="-7.296165069938396"><ele>1775.5</ele><time>2026-04-24T11:42:17Z</time></trkpt><trkpt lat="31.27025269436136" lon="-7.296009785206935"><ele>1774.75</ele><time>2026-04-24T11:42:18Z</time></trkpt><trkpt lat="31.270229474025058" lon="-7.2958536006922765"><ele>1774.0</ele><time>2026-04-24T11:42:19Z</time></trkpt><trkpt lat="31.27020843310512" lon="-7.295688798775704"><ele>1772.75</ele><time>2026-04-24T11:42:20Z</time></trkpt><trkpt lat="31.270187664476843" lon="-7.295517729145306"><ele>1771.5</ele><time>2026-04-24T11:42:21Z</time></trkpt><trkpt lat="31.270161391356503" lon="-7.2953497345027065"><ele>1770.25</ele><time>2026-04-24T11:42:22Z</time></trkpt><trkpt lat="31.27014257606627" lon="-7.295183550581413"><ele>1769.0</ele><time>2026-04-24T11:42:23Z</time></trkpt><trkpt lat="31.27012423617839" lon="-7.295018669344036"><ele>1769.0</ele><time>2026-04-24T11:42:24Z</time></trkpt><trkpt lat="31.27010244344474" lon="-7.294859601152827"><ele>1769.0</ele><time>2026-04-24T11:42:25Z</time></trkpt><trkpt lat="31.270070599702418" lon="-7.294709545703328"><ele>1769.0</ele><time>2026-04-24T11:42:26Z</time></trkpt><trkpt lat="31.27002239450944" lon="-7.2945695175504595"><ele>1769.0</ele><time>2026-04-24T11:42:27Z</time></trkpt><trkpt lat="31.269957401733627" lon="-7.294444261815082"><ele>1768.75</ele><time>2026-04-24T11:42:28Z</time></trkpt><trkpt lat="31.26987653995703" lon="-7.294336736514961"><ele>1768.5</ele><time>2026-04-24T11:42:29Z</time></trkpt><trkpt lat="31.26977965446446" lon="-7.294247359584178"><ele>1768.25</ele><time>2026-04-24T11:42:30Z</time></trkpt><trkpt lat="31.26966750635606" lon="-7.294182603086351"><ele>1768.0</ele><time>2026-04-24T11:42:31Z</time></trkpt><trkpt lat="31.269544637845435" lon="-7.294141738066475"><ele>1766.75</ele><time>2026-04-24T11:42:32Z</time></trkpt><trkpt lat="31.269414300859136" lon="-7.294106618763551"><ele>1765.5</ele><time>2026-04-24T11:42:33Z</time></trkpt><trkpt lat="31.269282214977217" lon="-7.294061427606048"><ele>1764.25</ele><time>2026-04-24T11:42:34Z</time></trkpt><trkpt lat="31.269147173444505" lon="-7.2940069175281375"><ele>1763.0</ele><time>2026-04-24T11:42:35Z</time></trkpt><trkpt lat="31.269008424894707" lon="-7.293946782224693"><ele>1759.3333333333333</ele><time>2026-04-24T11:42:36Z</time></trkpt><trkpt lat="31.26886749237521" lon="-7.293868022399559"><ele>1755.6666666666665</ele><time>2026-04-24T11:42:37Z</time></trkpt><trkpt lat="31.26874792630366" lon="-7.293758715907408"><ele>1752.0</ele><time>2026-04-24T11:42:38Z</time></trkpt><trkpt lat="31.268641517713526" lon="-7.293627131140368"><ele>1752.0</ele><time>2026-04-24T11:42:39Z</time></trkpt><trkpt lat="31.268537853003387" lon="-7.293483864364972"><ele>1752.0</ele><time>2026-04-24T11:42:40Z</time></trkpt><trkpt lat="31.26845590890899" lon="-7.293317199541021"><ele>1752.0</ele><time>2026-04-24T11:42:41Z</time></trkpt><trkpt lat="31.26837722559783" lon="-7.293152774371134"><ele>1753.0</ele><time>2026-04-24T11:42:42Z</time></trkpt><trkpt lat="31.26829913987697" lon="-7.292994389276587"><ele>1754.0</ele><time>2026-04-24T11:42:43Z</time></trkpt><trkpt lat="31.26822003832172" lon="-7.292846582411934"><ele>1755.0</ele><time>2026-04-24T11:42:44Z</time></trkpt><trkpt lat="31.268131580267895" lon="-7.292717394237888"><ele>1756.0</ele><time>2026-04-24T11:42:45Z</time></trkpt><trkpt lat="31.26803055448231" lon="-7.29260767664824"><ele>1754.0</ele><time>2026-04-24T11:42:46Z</time></trkpt><trkpt lat="31.267925058392994" lon="-7.292511990278627"><ele>1752.0</ele><time>2026-04-24T11:42:47Z</time></trkpt><trkpt lat="31.26780328286036" lon="-7.292445880120896"><ele>1750.0</ele><time>2026-04-24T11:42:47.999Z</time></trkpt><trkpt lat="31.26768543319138" lon="-7.292378395460526"><ele>1748.0</ele><time>2026-04-24T11:42:48.999Z</time></trkpt><trkpt lat="31.267585915966833" lon="-7.292288312738306"><ele>1748.75</ele><time>2026-04-24T11:42:49.999Z</time></trkpt><trkpt lat="31.26751362022571" lon="-7.292164483427584"><ele>1749.5</ele><time>2026-04-24T11:42:50.999Z</time></trkpt><trkpt lat="31.2674537514567" lon="-7.292025602185215"><ele>1750.25</ele><time>2026-04-24T11:42:51.999Z</time></trkpt><trkpt lat="31.267404900658278" lon="-7.291875331725538"><ele>1751.0</ele><time>2026-04-24T11:42:52.999Z</time></trkpt><trkpt lat="31.267362250296504" lon="-7.291720253174473"><ele>1751.0</ele><time>2026-04-24T11:42:53.999Z</time></trkpt><trkpt lat="31.26731565942973" lon="-7.2915657989969995"><ele>1751.0</ele><time>2026-04-24T11:42:54.999Z</time></trkpt><trkpt lat="31.267234183108272" lon="-7.291431331125982"><ele>1751.0</ele><time>2026-04-24T11:42:55.999Z</time></trkpt><trkpt lat="31.267137951292746" lon="-7.291310240077547"><ele>1751.0</ele><time>2026-04-24T11:42:56.999Z</time></trkpt><trkpt lat="31.26703605479968" lon="-7.291195193577712"><ele>1749.5</ele><time>2026-04-24T11:42:57.999Z</time></trkpt><trkpt lat="31.26694105671759" lon="-7.291077584264807"><ele>1748.0</ele><time>2026-04-24T11:42:58.999Z</time></trkpt><trkpt lat="31.266864205166765" lon="-7.290951211546462"><ele>1746.5</ele><time>2026-04-24T11:42:59.999Z</time></trkpt><trkpt lat="31.26679550873598" lon="-7.290812959230569"><ele>1745.0</ele><time>2026-04-24T11:43:00.999Z</time></trkpt><trkpt lat="31.266762217826333" lon="-7.290654596037683"><ele>1745.25</ele><time>2026-04-24T11:43:01.999Z</time></trkpt><trkpt lat="31.266740377393283" lon="-7.2904912171306036"><ele>1745.5</ele><time>2026-04-24T11:43:02.999Z</time></trkpt><trkpt lat="31.266716006802813" lon="-7.290324587920384"><ele>1745.75</ele><time>2026-04-24T11:43:03.999Z</time></trkpt><trkpt lat="31.266688014276802" lon="-7.290153842248444"><ele>1746.0</ele><time>2026-04-24T11:43:04.999Z</time></trkpt><trkpt lat="31.266657334202826" lon="-7.289982750303695"><ele>1746.0</ele><time>2026-04-24T11:43:05.999Z</time></trkpt><trkpt lat="31.26662138534979" lon="-7.289812942619497"><ele>1746.0</ele><time>2026-04-24T11:43:06.999Z</time></trkpt><trkpt lat="31.266573098345187" lon="-7.289645637320941"><ele>1746.0</ele><time>2026-04-24T11:43:07.999Z</time></trkpt><trkpt lat="31.266513156189582" lon="-7.289484577881063"><ele>1746.0</ele><time>2026-04-24T11:43:08.999Z</time></trkpt><trkpt lat="31.26644936962304" lon="-7.2893288233436735"><ele>1746.0</ele><time>2026-04-24T11:43:09.999Z</time></trkpt><trkpt lat="31.266386743467287" lon="-7.289178128323098"><ele>1746.0</ele><time>2026-04-24T11:43:10.999Z</time></trkpt><trkpt lat="31.266323770348937" lon="-7.289033625282809"><ele>1746.0</ele><time>2026-04-24T11:43:11.999Z</time></trkpt><trkpt lat="31.266255909511777" lon="-7.288891425388261"><ele>1746.0</ele><time>2026-04-24T11:43:12.999Z</time></trkpt><trkpt lat="31.266180739573702" lon="-7.288752734787976"><ele>1746.0</ele><time>2026-04-24T11:43:13.999Z</time></trkpt><trkpt lat="31.266092282526177" lon="-7.288625343798129"><ele>1746.0</ele><time>2026-04-24T11:43:14.999Z</time></trkpt><trkpt lat="31.265984228217665" lon="-7.288521591690581"><ele>1746.0</ele><time>2026-04-24T11:43:15.999Z</time></trkpt><trkpt lat="31.26586162325632" lon="-7.288440622038453"><ele>1746.0</ele><time>2026-04-24T11:43:16.999Z</time></trkpt><trkpt lat="31.265736524942547" lon="-7.288365732811291"><ele>1746.0</ele><time>2026-04-24T11:43:17.999Z</time></trkpt><trkpt lat="31.26561465863615" lon="-7.28827564653315"><ele>1746.0</ele><time>2026-04-24T11:43:18.999Z</time></trkpt><trkpt lat="31.265498620706126" lon="-7.2881644517001005"><ele>1746.0</ele><time>2026-04-24T11:43:19.999Z</time></trkpt><trkpt lat="31.2653904661407" lon="-7.288036918079365"><ele>1743.75</ele><time>2026-04-24T11:43:20.999Z</time></trkpt><trkpt lat="31.265296220150958" lon="-7.287900142028504"><ele>1741.5</ele><time>2026-04-24T11:43:21.999Z</time></trkpt><trkpt lat="31.265222936920917" lon="-7.287755120211295"><ele>1739.25</ele><time>2026-04-24T11:43:22.999Z</time></trkpt><trkpt lat="31.26517185161492" lon="-7.287604828682281"><ele>1737.0</ele><time>2026-04-24T11:43:23.999Z</time></trkpt><trkpt lat="31.265129548816887" lon="-7.287451076775835"><ele>1737.0</ele><time>2026-04-24T11:43:24.999Z</time></trkpt><trkpt lat="31.26512155456126" lon="-7.287289471862405"><ele>1737.0</ele><time>2026-04-24T11:43:25.999Z</time></trkpt><trkpt lat="31.265132754129624" lon="-7.287126605716218"><ele>1737.0</ele><time>2026-04-24T11:43:26.999Z</time></trkpt><trkpt lat="31.26515672370931" lon="-7.286966670130525"><ele>1737.0</ele><time>2026-04-24T11:43:27.999Z</time></trkpt><trkpt lat="31.26518908043628" lon="-7.286814821343858"><ele>1735.25</ele><time>2026-04-24T11:43:28.999Z</time></trkpt><trkpt lat="31.26522859771109" lon="-7.286669395784851"><ele>1733.5</ele><time>2026-04-24T11:43:29.999Z</time></trkpt><trkpt lat="31.26527473072382" lon="-7.28652906031421"><ele>1731.75</ele><time>2026-04-24T11:43:30.999Z</time></trkpt><trkpt lat="31.26532864869821" lon="-7.286386504001338"><ele>1730.0</ele><time>2026-04-24T11:43:31.999Z</time></trkpt><trkpt lat="31.26538261565919" lon="-7.286236859889001"><ele>1728.0</ele><time>2026-04-24T11:43:32.999Z</time></trkpt><trkpt lat="31.265424703157013" lon="-7.286083626080057"><ele>1726.0</ele><time>2026-04-24T11:43:33.999Z</time></trkpt><trkpt lat="31.26545311490522" lon="-7.2859427754858235"><ele>1724.0</ele><time>2026-04-24T11:43:34.999Z</time></trkpt><trkpt lat="31.265470514133217" lon="-7.285821022666315"><ele>1722.0</ele><time>2026-04-24T11:43:35.999Z</time></trkpt><trkpt lat="31.26547924661611" lon="-7.2857134003760065"><ele>1722.0</ele><time>2026-04-24T11:43:36.999Z</time></trkpt><trkpt lat="31.265480368936647" lon="-7.285621096385226"><ele>1722.0</ele><time>2026-04-24T11:43:37.999Z</time></trkpt><trkpt lat="31.26547738701806" lon="-7.28554674712961"><ele>1722.0</ele><time>2026-04-24T11:43:38.999Z</time></trkpt><trkpt lat="31.265474876500196" lon="-7.28545387910774"><ele>1722.0</ele><time>2026-04-24T11:43:40.999Z</time></trkpt><trkpt lat="31.265477629464925" lon="-7.285375964146416"><ele>1722.0</ele><time>2026-04-24T11:43:43.999Z</time></trkpt><trkpt lat="31.2654735897778" lon="-7.285301570297306"><ele>1722.0</ele><time>2026-04-24T11:43:55.999Z</time></trkpt><trkpt lat="31.26546505981316" lon="-7.285215747761097"><ele>1722.0</ele><time>2026-04-24T11:43:56.999Z</time></trkpt><trkpt lat="31.265450433798563" lon="-7.285102919742225"><ele>1721.1999999999998</ele><time>2026-04-24T11:43:57.999Z</time></trkpt><trkpt lat="31.265432383769767" lon="-7.284971623491212"><ele>1720.3999999999999</ele><time>2026-04-24T11:43:58.999Z</time></trkpt><trkpt lat="31.265413310797907" lon="-7.284841205779094"><ele>1719.6000000000001</ele><time>2026-04-24T11:43:59.999Z</time></trkpt><trkpt lat="31.26539308146646" lon="-7.2847178184398915"><ele>1718.8000000000002</ele><time>2026-04-24T11:44:00.999Z</time></trkpt><trkpt lat="31.265375280097118" lon="-7.284604148091272"><ele>1718.0</ele><time>2026-04-24T11:44:01.999Z</time></trkpt><trkpt lat="31.26536018520569" lon="-7.284505291941832"><ele>1717.9999999999998</ele><time>2026-04-24T11:44:02.998Z</time></trkpt><trkpt lat="31.265350111175795" lon="-7.284431392606333"><ele>1718.0</ele><time>2026-04-24T11:44:03.998Z</time></trkpt><trkpt lat="31.265329594650225" lon="-7.284355595185307"><ele>1718.0</ele><time>2026-04-24T11:45:27.999Z</time></trkpt><trkpt lat="31.265381303799817" lon="-7.284420611821362"><ele>1718.0</ele><time>2026-04-24T11:45:46.999Z</time></trkpt><trkpt lat="31.26540440265792" lon="-7.284557838390987"><ele>1717.9999999999998</ele><time>2026-04-24T11:45:48.999Z</time></trkpt><trkpt lat="31.26539651229595" lon="-7.284641856833674"><ele>1718.0</ele><time>2026-04-24T11:45:51.999Z</time></trkpt><trkpt lat="31.265355472327283" lon="-7.284579084647299"><ele>1717.9999999999998</ele><time>2026-04-24T11:45:57.999Z</time></trkpt><trkpt lat="31.265345942248416" lon="-7.284478495631535"><ele>1718.0</ele><time>2026-04-24T11:48:30Z</time></trkpt><trkpt lat="31.265339030765297" lon="-7.2843988580839465"><ele>1718.0</ele><time>2026-04-24T11:48:31Z</time></trkpt><trkpt lat="31.265328286643452" lon="-7.284300011607574"><ele>1718.0</ele><time>2026-04-24T11:48:32Z</time></trkpt><trkpt lat="31.265315454714734" lon="-7.284189831703102"><ele>1717.9999999999998</ele><time>2026-04-24T11:48:33Z</time></trkpt><trkpt lat="31.265299226709416" lon="-7.284075520133071"><ele>1718.0</ele><time>2026-04-24T11:48:34Z</time></trkpt><trkpt lat="31.265281343958033" lon="-7.283957361631092"><ele>1717.2</ele><time>2026-04-24T11:48:35Z</time></trkpt><trkpt lat="31.265265075638485" lon="-7.283837755036303"><ele>1716.4</ele><time>2026-04-24T11:48:36Z</time></trkpt><trkpt lat="31.26525032579426" lon="-7.283717958391238"><ele>1715.6000000000001</ele><time>2026-04-24T11:48:37Z</time></trkpt><trkpt lat="31.265236358707654" lon="-7.283599557692636"><ele>1714.8000000000002</ele><time>2026-04-24T11:48:38Z</time></trkpt><trkpt lat="31.265223184639023" lon="-7.283483946623374"><ele>1714.0</ele><time>2026-04-24T11:48:39Z</time></trkpt><trkpt lat="31.265208301688677" lon="-7.283368963258594"><ele>1714.0</ele><time>2026-04-24T11:48:40Z</time></trkpt><trkpt lat="31.265190501952627" lon="-7.2832568184287805"><ele>1714.0</ele><time>2026-04-24T11:48:41Z</time></trkpt><trkpt lat="31.265174011883705" lon="-7.283146003893588"><ele>1714.0</ele><time>2026-04-24T11:48:42Z</time></trkpt><trkpt lat="31.265160267194336" lon="-7.283037551293155"><ele>1714.0</ele><time>2026-04-24T11:48:43Z</time></trkpt><trkpt lat="31.265145962065773" lon="-7.282929793424655"><ele>1714.0</ele><time>2026-04-24T11:48:44Z</time></trkpt><trkpt lat="31.2651334861805" lon="-7.282820542947463"><ele>1714.0</ele><time>2026-04-24T11:48:45Z</time></trkpt><trkpt lat="31.26512193040541" lon="-7.282713271954936"><ele>1714.0</ele><time>2026-04-24T11:48:46Z</time></trkpt><trkpt lat="31.26510945796144" lon="-7.282608207328287"><ele>1714.0</ele><time>2026-04-24T11:48:47Z</time></trkpt><trkpt lat="31.265098838408786" lon="-7.282499161294897"><ele>1714.0</ele><time>2026-04-24T11:48:48Z</time></trkpt><trkpt lat="31.26509187695646" lon="-7.282368584238639"><ele>1714.0</ele><time>2026-04-24T11:48:49Z</time></trkpt><trkpt lat="31.265090381258084" lon="-7.282221394660607"><ele>1714.25</ele><time>2026-04-24T11:48:50Z</time></trkpt><trkpt lat="31.265094770760857" lon="-7.282073322172052"><ele>1714.5</ele><time>2026-04-24T11:48:51Z</time></trkpt><trkpt lat="31.26510036025459" lon="-7.281925591145657"><ele>1714.75</ele><time>2026-04-24T11:48:52Z</time></trkpt><trkpt lat="31.26511031098334" lon="-7.28177516911297"><ele>1715.0</ele><time>2026-04-24T11:48:53Z</time></trkpt><trkpt lat="31.26512429446493" lon="-7.281621461459428"><ele>1715.0</ele><time>2026-04-24T11:48:54Z</time></trkpt><trkpt lat="31.26514171697531" lon="-7.281469117470193"><ele>1715.0</ele><time>2026-04-24T11:48:55Z</time></trkpt><trkpt lat="31.2651653842278" lon="-7.281316583935"><ele>1715.0</ele><time>2026-04-24T11:48:56Z</time></trkpt><trkpt lat="31.265199007215884" lon="-7.281157073085495"><ele>1715.0</ele><time>2026-04-24T11:48:57Z</time></trkpt><trkpt lat="31.265246278870997" lon="-7.280995430637166"><ele>1714.0</ele><time>2026-04-24T11:48:58Z</time></trkpt><trkpt lat="31.265307096701022" lon="-7.280837229770138"><ele>1713.0</ele><time>2026-04-24T11:48:59Z</time></trkpt><trkpt lat="31.265377639704436" lon="-7.2806810570209"><ele>1712.0</ele><time>2026-04-24T11:49:00Z</time></trkpt><trkpt lat="31.26545475473061" lon="-7.280529828797858"><ele>1712.0</ele><time>2026-04-24T11:49:01Z</time></trkpt><trkpt lat="31.265536451758503" lon="-7.280385934671543"><ele>1712.0</ele><time>2026-04-24T11:49:02Z</time></trkpt><trkpt lat="31.2656188379109" lon="-7.280243414751694"><ele>1712.0</ele><time>2026-04-24T11:49:03Z</time></trkpt><trkpt lat="31.265694719140306" lon="-7.28011199729297"><ele>1712.0</ele><time>2026-04-24T11:49:04Z</time></trkpt><trkpt lat="31.265763418872705" lon="-7.27999529520196"><ele>1712.0</ele><time>2026-04-24T11:49:04.999Z</time></trkpt><trkpt lat="31.265825071752264" lon="-7.279891324463082"><ele>1711.9999999999998</ele><time>2026-04-24T11:49:05.999Z</time></trkpt><trkpt lat="31.26588395611652" lon="-7.279794818563673"><ele>1711.9999999999998</ele><time>2026-04-24T11:49:06.999Z</time></trkpt><trkpt lat="31.265937285222165" lon="-7.279706071105625"><ele>1712.0</ele><time>2026-04-24T11:49:07.999Z</time></trkpt><trkpt lat="31.26599962985215" lon="-7.279609148677105"><ele>1712.0</ele><time>2026-04-24T11:49:08.999Z</time></trkpt><trkpt lat="31.266075442036918" lon="-7.279495446938355"><ele>1710.0</ele><time>2026-04-24T11:49:09.999Z</time></trkpt><trkpt lat="31.266157807104772" lon="-7.279358414127839"><ele>1708.0</ele><time>2026-04-24T11:49:10.999Z</time></trkpt><trkpt lat="31.266238246997915" lon="-7.2791994894872865"><ele>1706.0</ele><time>2026-04-24T11:49:11.999Z</time></trkpt><trkpt lat="31.26631592288047" lon="-7.279027517735431"><ele>1705.3333333333333</ele><time>2026-04-24T11:49:12.999Z</time></trkpt><trkpt lat="31.26639106907951" lon="-7.278851892326816"><ele>1704.6666666666665</ele><time>2026-04-24T11:49:13.999Z</time></trkpt><trkpt lat="31.266464543899694" lon="-7.2786760972936495"><ele>1704.0</ele><time>2026-04-24T11:49:14.999Z</time></trkpt><trkpt lat="31.266539334168513" lon="-7.278496993775717"><ele>1707.0</ele><time>2026-04-24T11:49:15.999Z</time></trkpt><trkpt lat="31.266614370487392" lon="-7.278318750804598"><ele>1710.0</ele><time>2026-04-24T11:49:16.999Z</time></trkpt><trkpt lat="31.266688835003045" lon="-7.278134931837267"><ele>1713.0</ele><time>2026-04-24T11:49:17.999Z</time></trkpt><trkpt lat="31.26675457703972" lon="-7.277948440055643"><ele>1713.0</ele><time>2026-04-24T11:49:18.999Z</time></trkpt><trkpt lat="31.266811562092443" lon="-7.277758224465164"><ele>1713.0</ele><time>2026-04-24T11:49:19.999Z</time></trkpt><trkpt lat="31.26686166941966" lon="-7.277563777028034"><ele>1713.0</ele><time>2026-04-24T11:49:20.999Z</time></trkpt><trkpt lat="31.266905751704254" lon="-7.277367308487236"><ele>1712.6666666666665</ele><time>2026-04-24T11:49:21.999Z</time></trkpt><trkpt lat="31.266943249093625" lon="-7.277166696545169"><ele>1712.3333333333333</ele><time>2026-04-24T11:49:22.999Z</time></trkpt><trkpt lat="31.26697442239009" lon="-7.276962520680978"><ele>1712.0</ele><time>2026-04-24T11:49:23.999Z</time></trkpt><trkpt lat="31.266997818801006" lon="-7.276756031992403"><ele>1712.0</ele><time>2026-04-24T11:49:24.999Z</time></trkpt><trkpt lat="31.267012665060957" lon="-7.276546230995552"><ele>1712.0</ele><time>2026-04-24T11:49:25.999Z</time></trkpt><trkpt lat="31.26701855198615" lon="-7.2763322209203505"><ele>1712.0</ele><time>2026-04-24T11:49:26.999Z</time></trkpt><trkpt lat="31.26701708295958" lon="-7.276117370760955"><ele>1712.0</ele><time>2026-04-24T11:49:27.999Z</time></trkpt><trkpt lat="31.267011020912992" lon="-7.275901762496913"><ele>1712.0</ele><time>2026-04-24T11:49:28.999Z</time></trkpt><trkpt lat="31.267003823070198" lon="-7.275684125586928"><ele>1712.0</ele><time>2026-04-24T11:49:29.999Z</time></trkpt><trkpt lat="31.266993986826048" lon="-7.275464961050655"><ele>1713.3333333333333</ele><time>2026-04-24T11:49:30.999Z</time></trkpt><trkpt lat="31.266984780465666" lon="-7.27524487721678"><ele>1714.6666666666665</ele><time>2026-04-24T11:49:31.999Z</time></trkpt><trkpt lat="31.266976126701362" lon="-7.275024887466711"><ele>1716.0</ele><time>2026-04-24T11:49:32.999Z</time></trkpt><trkpt lat="31.266969686135862" lon="-7.274806555953618"><ele>1716.6666666666665</ele><time>2026-04-24T11:49:33.999Z</time></trkpt><trkpt lat="31.266965731812338" lon="-7.274590878639463"><ele>1717.3333333333333</ele><time>2026-04-24T11:49:34.999Z</time></trkpt><trkpt lat="31.266961336269482" lon="-7.274376069564944"><ele>1718.0</ele><time>2026-04-24T11:49:35.999Z</time></trkpt><trkpt lat="31.266954733446635" lon="-7.274161621099369"><ele>1718.0</ele><time>2026-04-24T11:49:36.999Z</time></trkpt><trkpt lat="31.266947082779332" lon="-7.2739468552277655"><ele>1718.0</ele><time>2026-04-24T11:49:37.999Z</time></trkpt><trkpt lat="31.266936298938777" lon="-7.273732952337274"><ele>1718.0</ele><time>2026-04-24T11:49:38.999Z</time></trkpt><trkpt lat="31.266924639490647" lon="-7.273516174627375"><ele>1718.0</ele><time>2026-04-24T11:49:39.999Z</time></trkpt><trkpt lat="31.26691238220296" lon="-7.273295405616504"><ele>1718.0</ele><time>2026-04-24T11:49:40.999Z</time></trkpt><trkpt lat="31.266901136526876" lon="-7.273073850505903"><ele>1718.0</ele><time>2026-04-24T11:49:41.999Z</time></trkpt><trkpt lat="31.266890767115484" lon="-7.27285377736761"><ele>1718.0</ele><time>2026-04-24T11:49:42.999Z</time></trkpt><trkpt lat="31.26688252067115" lon="-7.2726273765851985"><ele>1718.0</ele><time>2026-04-24T11:49:43.999Z</time></trkpt><trkpt lat="31.26687374701062" lon="-7.2723999257735095"><ele>1718.0</ele><time>2026-04-24T11:49:44.999Z</time></trkpt><trkpt lat="31.266866088488857" lon="-7.272169166672421"><ele>1718.0</ele><time>2026-04-24T11:49:45.999Z</time></trkpt><trkpt lat="31.26685601142974" lon="-7.271935294283526"><ele>1718.0</ele><time>2026-04-24T11:49:46.999Z</time></trkpt><trkpt lat="31.266850467579467" lon="-7.271700444023074"><ele>1718.0</ele><time>2026-04-24T11:49:47.999Z</time></trkpt><trkpt lat="31.266847193718725" lon="-7.271465694033584"><ele>1719.6666666666665</ele><time>2026-04-24T11:49:48.999Z</time></trkpt><trkpt lat="31.266848543120773" lon="-7.271230459252542"><ele>1721.3333333333335</ele><time>2026-04-24T11:49:49.999Z</time></trkpt><trkpt lat="31.266851998553328" lon="-7.270996017087062"><ele>1723.0</ele><time>2026-04-24T11:49:50.999Z</time></trkpt><trkpt lat="31.266855489210613" lon="-7.270766312532021"><ele>1724.0</ele><time>2026-04-24T11:49:51.999Z</time></trkpt><trkpt lat="31.26685745241015" lon="-7.270541054206793"><ele>1725.0</ele><time>2026-04-24T11:49:52.999Z</time></trkpt><trkpt lat="31.266859041320217" lon="-7.270318425785056"><ele>1726.0</ele><time>2026-04-24T11:49:53.999Z</time></trkpt><trkpt lat="31.26685960916792" lon="-7.270097313805987"><ele>1726.0</ele><time>2026-04-24T11:49:54.999Z</time></trkpt><trkpt lat="31.266861751182372" lon="-7.269871991684987"><ele>1726.0</ele><time>2026-04-24T11:49:55.999Z</time></trkpt><trkpt lat="31.266869938399218" lon="-7.269641174575139"><ele>1726.0</ele><time>2026-04-24T11:49:56.999Z</time></trkpt><trkpt lat="31.266884287227814" lon="-7.2694040140989005"><ele>1726.0</ele><time>2026-04-24T11:49:57.999Z</time></trkpt><trkpt lat="31.266903584393223" lon="-7.269161445041982"><ele>1726.0</ele><time>2026-04-24T11:49:58.999Z</time></trkpt><trkpt lat="31.26692357848915" lon="-7.268915525238313"><ele>1726.0</ele><time>2026-04-24T11:49:59.999Z</time></trkpt><trkpt lat="31.266943874275718" lon="-7.2686693343039765"><ele>1728.0</ele><time>2026-04-24T11:50:00.999Z</time></trkpt><trkpt lat="31.26696542606064" lon="-7.268418880302581"><ele>1730.0</ele><time>2026-04-24T11:50:01.999Z</time></trkpt><trkpt lat="31.266989535206314" lon="-7.26816208234213"><ele>1732.0</ele><time>2026-04-24T11:50:02.999Z</time></trkpt><trkpt lat="31.267012957081306" lon="-7.26790289208368"><ele>1732.6666666666667</ele><time>2026-04-24T11:50:03.999Z</time></trkpt><trkpt lat="31.267035065507848" lon="-7.267645104935466"><ele>1733.3333333333335</ele><time>2026-04-24T11:50:04.999Z</time></trkpt><trkpt lat="31.267054615549988" lon="-7.267390870149227"><ele>1734.0</ele><time>2026-04-24T11:50:05.999Z</time></trkpt><trkpt lat="31.26707628932665" lon="-7.267142330114533"><ele>1732.3333333333335</ele><time>2026-04-24T11:50:06.999Z</time></trkpt><trkpt lat="31.267102571120507" lon="-7.26689795085899"><ele>1730.6666666666667</ele><time>2026-04-24T11:50:07.999Z</time></trkpt><trkpt lat="31.267132462946666" lon="-7.266652876208486"><ele>1729.0</ele><time>2026-04-24T11:50:08.999Z</time></trkpt><trkpt lat="31.267167702158805" lon="-7.266409816791114"><ele>1729.0</ele><time>2026-04-24T11:50:09.999Z</time></trkpt><trkpt lat="31.267205748435394" lon="-7.266170002642432"><ele>1729.0</ele><time>2026-04-24T11:50:10.999Z</time></trkpt><trkpt lat="31.267245947586527" lon="-7.265935060928769"><ele>1729.0</ele><time>2026-04-24T11:50:11.999Z</time></trkpt><trkpt lat="31.267295103880674" lon="-7.265702378971124"><ele>1730.0</ele><time>2026-04-24T11:50:12.999Z</time></trkpt><trkpt lat="31.267349247227553" lon="-7.265466836406728"><ele>1731.0</ele><time>2026-04-24T11:50:13.999Z</time></trkpt><trkpt lat="31.26740478015489" lon="-7.265227511215195"><ele>1732.0</ele><time>2026-04-24T11:50:14.999Z</time></trkpt><trkpt lat="31.26746016614455" lon="-7.2649836415247355"><ele>1730.0</ele><time>2026-04-24T11:50:15.999Z</time></trkpt><trkpt lat="31.267516359088496" lon="-7.2647349868572855"><ele>1728.0</ele><time>2026-04-24T11:50:16.999Z</time></trkpt><trkpt lat="31.267570402040374" lon="-7.264482970367145"><ele>1726.0</ele><time>2026-04-24T11:50:17.999Z</time></trkpt><trkpt lat="31.267618384896593" lon="-7.26423069122356"><ele>1726.0</ele><time>2026-04-24T11:50:18.999Z</time></trkpt><trkpt lat="31.267657858454694" lon="-7.263982452659432"><ele>1726.0</ele><time>2026-04-24T11:50:19.998Z</time></trkpt><trkpt lat="31.26768751095773" lon="-7.263740301338632"><ele>1726.0</ele><time>2026-04-24T11:50:20.998Z</time></trkpt><trkpt lat="31.267701703401585" lon="-7.263503226953408"><ele>1723.3333333333335</ele><time>2026-04-24T11:50:21.998Z</time></trkpt><trkpt lat="31.267701061178062" lon="-7.263270401470647"><ele>1720.6666666666665</ele><time>2026-04-24T11:50:22.998Z</time></trkpt><trkpt lat="31.267683995482752" lon="-7.263039266519798"><ele>1718.0</ele><time>2026-04-24T11:50:23.998Z</time></trkpt><trkpt lat="31.267654534599487" lon="-7.262811580151502"><ele>1716.6666666666665</ele><time>2026-04-24T11:50:24.998Z</time></trkpt><trkpt lat="31.267613894857995" lon="-7.262586546221736"><ele>1715.3333333333335</ele><time>2026-04-24T11:50:25.998Z</time></trkpt><trkpt lat="31.26756851957067" lon="-7.2623658496012"><ele>1714.0</ele><time>2026-04-24T11:50:26.998Z</time></trkpt><trkpt lat="31.26751986666253" lon="-7.262143157825914"><ele>1714.0</ele><time>2026-04-24T11:50:27.998Z</time></trkpt><trkpt lat="31.267470170073544" lon="-7.261916523323617"><ele>1714.0</ele><time>2026-04-24T11:50:28.998Z</time></trkpt><trkpt lat="31.26741923876522" lon="-7.261685223622382"><ele>1714.0</ele><time>2026-04-24T11:50:29.998Z</time></trkpt><trkpt lat="31.26736742912007" lon="-7.261453220540659"><ele>1715.0</ele><time>2026-04-24T11:50:30.998Z</time></trkpt><trkpt lat="31.267316910082698" lon="-7.261221574895796"><ele>1716.0</ele><time>2026-04-24T11:50:31.998Z</time></trkpt><trkpt lat="31.267266835152682" lon="-7.260991003543694"><ele>1717.0</ele><time>2026-04-24T11:50:32.998Z</time></trkpt><trkpt lat="31.26721973728453" lon="-7.260760138666598"><ele>1715.0</ele><time>2026-04-24T11:50:33.998Z</time></trkpt><trkpt lat="31.26717945560046" lon="-7.260531390273182"><ele>1713.0</ele><time>2026-04-24T11:50:35Z</time></trkpt><trkpt lat="31.267146851430706" lon="-7.26030794347544"><ele>1711.0</ele><time>2026-04-24T11:50:36Z</time></trkpt><trkpt lat="31.267116495315783" lon="-7.260081521792561"><ele>1711.0</ele><time>2026-04-24T11:50:37Z</time></trkpt><trkpt lat="31.267092135070087" lon="-7.259851747831299"><ele>1711.0</ele><time>2026-04-24T11:50:38Z</time></trkpt><trkpt lat="31.267075113499452" lon="-7.259621324603134"><ele>1711.0</ele><time>2026-04-24T11:50:39Z</time></trkpt><trkpt lat="31.267063090525944" lon="-7.259386812385283"><ele>1711.6666666666667</ele><time>2026-04-24T11:50:40Z</time></trkpt><trkpt lat="31.267051718946355" lon="-7.259150940410948"><ele>1712.3333333333335</ele><time>2026-04-24T11:50:41Z</time></trkpt><trkpt lat="31.267039288779973" lon="-7.2589150333909425"><ele>1713.0</ele><time>2026-04-24T11:50:42Z</time></trkpt><trkpt lat="31.267025099427254" lon="-7.258675546438779"><ele>1713.0</ele><time>2026-04-24T11:50:43Z</time></trkpt><trkpt lat="31.267006240530904" lon="-7.258440537764753"><ele>1713.0</ele><time>2026-04-24T11:50:44Z</time></trkpt><trkpt lat="31.266989218141866" lon="-7.258212408442514"><ele>1713.0</ele><time>2026-04-24T11:50:45Z</time></trkpt><trkpt lat="31.266978114490907" lon="-7.257998910680133"><ele>1712.0</ele><time>2026-04-24T11:50:46Z</time></trkpt><trkpt lat="31.266975625238345" lon="-7.257791636768975"><ele>1711.0</ele><time>2026-04-24T11:50:47Z</time></trkpt><trkpt lat="31.266986664444683" lon="-7.257587222569914"><ele>1710.0</ele><time>2026-04-24T11:50:48Z</time></trkpt><trkpt lat="31.267018167308848" lon="-7.257391779348717"><ele>1709.3333333333335</ele><time>2026-04-24T11:50:49Z</time></trkpt><trkpt lat="31.267073305832504" lon="-7.257202125763539"><ele>1708.6666666666667</ele><time>2026-04-24T11:50:50Z</time></trkpt><trkpt lat="31.267154633522633" lon="-7.257018619335454"><ele>1708.0</ele><time>2026-04-24T11:50:51Z</time></trkpt><trkpt lat="31.267254378893" lon="-7.256839903463259"><ele>1712.0</ele><time>2026-04-24T11:50:52Z</time></trkpt><trkpt lat="31.26736141949865" lon="-7.256671331888051"><ele>1716.0</ele><time>2026-04-24T11:50:53Z</time></trkpt><trkpt lat="31.267466135555207" lon="-7.256506769771831"><ele>1720.0</ele><time>2026-04-24T11:50:54Z</time></trkpt><trkpt lat="31.26757077157661" lon="-7.256345614830035"><ele>1720.0</ele><time>2026-04-24T11:50:55Z</time></trkpt><trkpt lat="31.267674149977474" lon="-7.256189465189663"><ele>1720.0</ele><time>2026-04-24T11:50:56Z</time></trkpt><trkpt lat="31.267772937049262" lon="-7.256043720029113"><ele>1720.0</ele><time>2026-04-24T11:50:57Z</time></trkpt><trkpt lat="31.267861173662606" lon="-7.255905119216391"><ele>1720.0</ele><time>2026-04-24T11:50:58Z</time></trkpt><trkpt lat="31.267950668283618" lon="-7.255767858413991"><ele>1720.0</ele><time>2026-04-24T11:50:59Z</time></trkpt><trkpt lat="31.268039299549933" lon="-7.255627087899198"><ele>1720.0</ele><time>2026-04-24T11:51:00Z</time></trkpt><trkpt lat="31.268116273862383" lon="-7.255482105057303"><ele>1720.0</ele><time>2026-04-24T11:51:01Z</time></trkpt><trkpt lat="31.26818095798283" lon="-7.255328120223801"><ele>1721.0</ele><time>2026-04-24T11:51:02Z</time></trkpt><trkpt lat="31.26823488599335" lon="-7.255162033539803"><ele>1722.0</ele><time>2026-04-24T11:51:03Z</time></trkpt><trkpt lat="31.26828071620249" lon="-7.254989655085264"><ele>1723.0</ele><time>2026-04-24T11:51:04Z</time></trkpt><trkpt lat="31.26832628986209" lon="-7.2548151250899915"><ele>1722.3333333333335</ele><time>2026-04-24T11:51:04.999Z</time></trkpt><trkpt lat="31.2683718576193" lon="-7.2546421340301"><ele>1721.6666666666665</ele><time>2026-04-24T11:51:05.999Z</time></trkpt><trkpt lat="31.268417753491594" lon="-7.254474500953576"><ele>1721.0</ele><time>2026-04-24T11:51:06.999Z</time></trkpt><trkpt lat="31.268473000045528" lon="-7.254313636186971"><ele>1721.0</ele><time>2026-04-24T11:51:07.999Z</time></trkpt><trkpt lat="31.268540041639206" lon="-7.25415788805314"><ele>1721.0</ele><time>2026-04-24T11:51:08.999Z</time></trkpt><trkpt lat="31.26863051874746" lon="-7.254002429809998"><ele>1721.0</ele><time>2026-04-24T11:51:09.999Z</time></trkpt><trkpt lat="31.268734609406614" lon="-7.253857605217173"><ele>1720.6666666666665</ele><time>2026-04-24T11:51:10.999Z</time></trkpt><trkpt lat="31.268843592911416" lon="-7.253713718828878"><ele>1720.3333333333335</ele><time>2026-04-24T11:51:11.999Z</time></trkpt><trkpt lat="31.268952582709588" lon="-7.253569424286894"><ele>1720.0</ele><time>2026-04-24T11:51:12.999Z</time></trkpt><trkpt lat="31.269060783550614" lon="-7.253424659901789"><ele>1720.0</ele><time>2026-04-24T11:51:13.999Z</time></trkpt><trkpt lat="31.269167231231382" lon="-7.253280251220517"><ele>1720.0</ele><time>2026-04-24T11:51:14.999Z</time></trkpt><trkpt lat="31.269270398091866" lon="-7.253143890618404"><ele>1720.0</ele><time>2026-04-24T11:51:15.999Z</time></trkpt><trkpt lat="31.26937395607116" lon="-7.25302374987322"><ele>1719.0</ele><time>2026-04-24T11:51:16.999Z</time></trkpt><trkpt lat="31.269483868121302" lon="-7.252922402738131"><ele>1718.0</ele><time>2026-04-24T11:51:17.999Z</time></trkpt><trkpt lat="31.269607049765288" lon="-7.252845255313107"><ele>1717.0</ele><time>2026-04-24T11:51:18.999Z</time></trkpt><trkpt lat="31.269744059431474" lon="-7.252798560729419"><ele>1716.0</ele><time>2026-04-24T11:51:19.999Z</time></trkpt><trkpt lat="31.269896162062818" lon="-7.2527716753304095"><ele>1715.6666666666665</ele><time>2026-04-24T11:51:20.999Z</time></trkpt><trkpt lat="31.27005336470756" lon="-7.252752128629241"><ele>1715.3333333333333</ele><time>2026-04-24T11:51:21.999Z</time></trkpt><trkpt lat="31.270217988296352" lon="-7.252724645667419"><ele>1715.0</ele><time>2026-04-24T11:51:22.999Z</time></trkpt><trkpt lat="31.270389963378996" lon="-7.252689953398279"><ele>1715.0</ele><time>2026-04-24T11:51:23.999Z</time></trkpt><trkpt lat="31.270559242076025" lon="-7.252644086759063"><ele>1715.0</ele><time>2026-04-24T11:51:24.999Z</time></trkpt><trkpt lat="31.27072499412624" lon="-7.252591442269307"><ele>1715.0</ele><time>2026-04-24T11:51:25.999Z</time></trkpt><trkpt lat="31.27089122023188" lon="-7.252532731231225"><ele>1716.0</ele><time>2026-04-24T11:51:26.999Z</time></trkpt><trkpt lat="31.27104870688426" lon="-7.252462408149275"><ele>1717.0</ele><time>2026-04-24T11:51:27.999Z</time></trkpt><trkpt lat="31.27119874465451" lon="-7.252378661200406"><ele>1718.0</ele><time>2026-04-24T11:51:28.999Z</time></trkpt><trkpt lat="31.271340574355072" lon="-7.252288989245688"><ele>1718.0</ele><time>2026-04-24T11:51:29.999Z</time></trkpt><trkpt lat="31.271479543248162" lon="-7.252200159734821"><ele>1718.0</ele><time>2026-04-24T11:51:30.999Z</time></trkpt><trkpt lat="31.27161641282146" lon="-7.25211836049097"><ele>1718.0</ele><time>2026-04-24T11:51:31.999Z</time></trkpt><trkpt lat="31.271758714846996" lon="-7.2520560867666015"><ele>1718.0</ele><time>2026-04-24T11:51:32.999Z</time></trkpt><trkpt lat="31.271906583837957" lon="-7.252023559026798"><ele>1718.0</ele><time>2026-04-24T11:51:33.999Z</time></trkpt><trkpt lat="31.27205754296788" lon="-7.252012930556534"><ele>1718.0</ele><time>2026-04-24T11:51:34.999Z</time></trkpt><trkpt lat="31.272211173569858" lon="-7.2520173708011395"><ele>1718.3333333333333</ele><time>2026-04-24T11:51:35.999Z</time></trkpt><trkpt lat="31.2723645557921" lon="-7.252024127233792"><ele>1718.6666666666665</ele><time>2026-04-24T11:51:36.999Z</time></trkpt><trkpt lat="31.27252266478896" lon="-7.252016695281562"><ele>1719.0</ele><time>2026-04-24T11:51:37.999Z</time></trkpt><trkpt lat="31.272682395763102" lon="-7.252006557102356"><ele>1719.0</ele><time>2026-04-24T11:51:38.999Z</time></trkpt><trkpt lat="31.2728359118974" lon="-7.2519877539706945"><ele>1719.0</ele><time>2026-04-24T11:51:39.999Z</time></trkpt><trkpt lat="31.27298604798141" lon="-7.251950944870396"><ele>1719.0</ele><time>2026-04-24T11:51:40.999Z</time></trkpt><trkpt lat="31.27313178200128" lon="-7.251904856191053"><ele>1719.6666666666665</ele><time>2026-04-24T11:51:41.999Z</time></trkpt><trkpt lat="31.2732756554799" lon="-7.251846792145086"><ele>1720.3333333333333</ele><time>2026-04-24T11:51:42.999Z</time></trkpt><trkpt lat="31.27342166489953" lon="-7.251777551303119"><ele>1721.0</ele><time>2026-04-24T11:51:43.999Z</time></trkpt><trkpt lat="31.273570272844267" lon="-7.2516990598434985"><ele>1721.0</ele><time>2026-04-24T11:51:44.999Z</time></trkpt><trkpt lat="31.273725462930685" lon="-7.251613238178378"><ele>1721.0</ele><time>2026-04-24T11:51:45.999Z</time></trkpt><trkpt lat="31.27388878312236" lon="-7.251522824839836"><ele>1721.0</ele><time>2026-04-24T11:51:46.999Z</time></trkpt><trkpt lat="31.274057462604855" lon="-7.251430652576243"><ele>1721.3333333333333</ele><time>2026-04-24T11:51:47.999Z</time></trkpt><trkpt lat="31.274227297122305" lon="-7.251337077551467"><ele>1721.6666666666665</ele><time>2026-04-24T11:51:48.999Z</time></trkpt><trkpt lat="31.27439626298395" lon="-7.2512435879711505"><ele>1722.0</ele><time>2026-04-24T11:51:49.999Z</time></trkpt><trkpt lat="31.27456388513375" lon="-7.251151212025358"><ele>1722.0</ele><time>2026-04-24T11:51:50.999Z</time></trkpt><trkpt lat="31.27473404133458" lon="-7.251057335065221"><ele>1722.0</ele><time>2026-04-24T11:51:51.999Z</time></trkpt><trkpt lat="31.27490356210522" lon="-7.250963864295665"><ele>1722.0</ele><time>2026-04-24T11:51:52.999Z</time></trkpt><trkpt lat="31.275072645751283" lon="-7.2508714873005005"><ele>1722.3333333333335</ele><time>2026-04-24T11:51:53.999Z</time></trkpt><trkpt lat="31.275242395313825" lon="-7.250780006794161"><ele>1722.6666666666667</ele><time>2026-04-24T11:51:54.999Z</time></trkpt><trkpt lat="31.275409690812296" lon="-7.250688265204469"><ele>1723.0</ele><time>2026-04-24T11:51:55.999Z</time></trkpt><trkpt lat="31.275578478236312" lon="-7.250599162632062"><ele>1723.6666666666667</ele><time>2026-04-24T11:51:56.999Z</time></trkpt><trkpt lat="31.275745825807885" lon="-7.2505080685769805"><ele>1724.3333333333335</ele><time>2026-04-24T11:51:57.999Z</time></trkpt><trkpt lat="31.27591311165064" lon="-7.2504191509459295"><ele>1725.0</ele><time>2026-04-24T11:51:58.999Z</time></trkpt><trkpt lat="31.27607980401974" lon="-7.250333430366891"><ele>1725.0</ele><time>2026-04-24T11:51:59.999Z</time></trkpt><trkpt lat="31.276244434357256" lon="-7.250245027469883"><ele>1725.0</ele><time>2026-04-24T11:52:00.999Z</time></trkpt><trkpt lat="31.276403702382954" lon="-7.2501493685935"><ele>1725.0</ele><time>2026-04-24T11:52:01.999Z</time></trkpt><trkpt lat="31.27655534048596" lon="-7.250041392186048"><ele>1725.6666666666665</ele><time>2026-04-24T11:52:02.999Z</time></trkpt><trkpt lat="31.276698998047365" lon="-7.249917173396662"><ele>1726.3333333333333</ele><time>2026-04-24T11:52:03.999Z</time></trkpt><trkpt lat="31.276830716488494" lon="-7.249773098294347"><ele>1727.0</ele><time>2026-04-24T11:52:04.999Z</time></trkpt><trkpt lat="31.276955020991352" lon="-7.249614422505637"><ele>1727.0</ele><time>2026-04-24T11:52:05.999Z</time></trkpt><trkpt lat="31.277072505336786" lon="-7.249448367145863"><ele>1727.0</ele><time>2026-04-24T11:52:06.999Z</time></trkpt><trkpt lat="31.277184629282452" lon="-7.249272129060487"><ele>1727.0</ele><time>2026-04-24T11:52:07.999Z</time></trkpt><trkpt lat="31.277302750254997" lon="-7.249096011322851"><ele>1729.3333333333333</ele><time>2026-04-24T11:52:08.999Z</time></trkpt><trkpt lat="31.27742757373321" lon="-7.2489305492513365"><ele>1731.6666666666665</ele><time>2026-04-24T11:52:09.999Z</time></trkpt><trkpt lat="31.277562173519957" lon="-7.248765910062649"><ele>1734.0</ele><time>2026-04-24T11:52:10.999Z</time></trkpt><trkpt lat="31.2776865503086" lon="-7.248609517448753"><ele>1734.0</ele><time>2026-04-24T11:52:11.999Z</time></trkpt><trkpt lat="31.277809624573553" lon="-7.248448841684677"><ele>1734.0</ele><time>2026-04-24T11:52:12.999Z</time></trkpt><trkpt lat="31.27793323955036" lon="-7.248292620101604"><ele>1734.0</ele><time>2026-04-24T11:52:13.999Z</time></trkpt><trkpt lat="31.278053359431805" lon="-7.248150073785347"><ele>1735.3333333333335</ele><time>2026-04-24T11:52:14.999Z</time></trkpt><trkpt lat="31.278184744408904" lon="-7.248019891302837"><ele>1736.6666666666667</ele><time>2026-04-24T11:52:15.999Z</time></trkpt><trkpt lat="31.278335182560316" lon="-7.247909628231666"><ele>1738.0</ele><time>2026-04-24T11:52:16.999Z</time></trkpt><trkpt lat="31.27850438937543" lon="-7.2478213139355425"><ele>1738.0</ele><time>2026-04-24T11:52:17.999Z</time></trkpt><trkpt lat="31.2786847969619" lon="-7.247761445490271"><ele>1738.0</ele><time>2026-04-24T11:52:18.999Z</time></trkpt><trkpt lat="31.27887376648753" lon="-7.247720205446825"><ele>1738.0</ele><time>2026-04-24T11:52:19.999Z</time></trkpt><trkpt lat="31.27906507291758" lon="-7.247683758397785"><ele>1739.0</ele><time>2026-04-24T11:52:20.998Z</time></trkpt><trkpt lat="31.27925510305932" lon="-7.247650132475868"><ele>1740.0</ele><time>2026-04-24T11:52:21.998Z</time></trkpt><trkpt lat="31.279439558727823" lon="-7.247617988872637"><ele>1741.0</ele><time>2026-04-24T11:52:22.998Z</time></trkpt><trkpt lat="31.27961940667707" lon="-7.247580576511917"><ele>1741.0</ele><time>2026-04-24T11:52:23.998Z</time></trkpt><trkpt lat="31.279791585288773" lon="-7.2475409461763975"><ele>1741.0</ele><time>2026-04-24T11:52:24.998Z</time></trkpt><trkpt lat="31.279958427284086" lon="-7.2475005906007635"><ele>1741.0</ele><time>2026-04-24T11:52:25.998Z</time></trkpt><trkpt lat="31.280113608737977" lon="-7.247462146890776"><ele>1741.0</ele><time>2026-04-24T11:52:26.998Z</time></trkpt><trkpt lat="31.28025828884314" lon="-7.24742079747337"><ele>1741.0</ele><time>2026-04-24T11:52:27.998Z</time></trkpt><trkpt lat="31.28039277227653" lon="-7.247370307711997"><ele>1741.0</ele><time>2026-04-24T11:52:28.998Z</time></trkpt><trkpt lat="31.280521918705894" lon="-7.2472985271437675"><ele>1741.0</ele><time>2026-04-24T11:52:29.998Z</time></trkpt><trkpt lat="31.280641904101685" lon="-7.2472016240637345"><ele>1740.0</ele><time>2026-04-24T11:52:30.998Z</time></trkpt><trkpt lat="31.280757867168486" lon="-7.247078794682189"><ele>1739.0</ele><time>2026-04-24T11:52:31.998Z</time></trkpt><trkpt lat="31.28087012792048" lon="-7.246940828385133"><ele>1738.0</ele><time>2026-04-24T11:52:32.998Z</time></trkpt><trkpt lat="31.280985635667125" lon="-7.246788318908731"><ele>1738.0</ele><time>2026-04-24T11:52:33.998Z</time></trkpt><trkpt lat="31.281106651356488" lon="-7.24662678366828"><ele>1738.0</ele><time>2026-04-24T11:52:34.998Z</time></trkpt><trkpt lat="31.281232684841903" lon="-7.246454319770714"><ele>1738.0</ele><time>2026-04-24T11:52:35.998Z</time></trkpt><trkpt lat="31.281361383776858" lon="-7.246277557021481"><ele>1739.6666666666667</ele><time>2026-04-24T11:52:36.998Z</time></trkpt><trkpt lat="31.281489596462887" lon="-7.246094535391922"><ele>1741.3333333333335</ele><time>2026-04-24T11:52:37.998Z</time></trkpt><trkpt lat="31.28161777028929" lon="-7.245912372869085"><ele>1743.0</ele><time>2026-04-24T11:52:38.998Z</time></trkpt><trkpt lat="31.281748224982923" lon="-7.245732104136883"><ele>1742.3333333333335</ele><time>2026-04-24T11:52:40Z</time></trkpt><trkpt lat="31.281887422145076" lon="-7.2455587706126865"><ele>1741.6666666666667</ele><time>2026-04-24T11:52:41Z</time></trkpt><trkpt lat="31.282034756592022" lon="-7.245392620269668"><ele>1741.0</ele><time>2026-04-24T11:52:42Z</time></trkpt><trkpt lat="31.282185729993433" lon="-7.245225489636935"><ele>1741.6666666666667</ele><time>2026-04-24T11:52:43Z</time></trkpt><trkpt lat="31.282338214536868" lon="-7.245059258554272"><ele>1742.3333333333335</ele><time>2026-04-24T11:52:44Z</time></trkpt><trkpt lat="31.28249168443465" lon="-7.244896059056619"><ele>1743.0</ele><time>2026-04-24T11:52:45Z</time></trkpt><trkpt lat="31.28264434916819" lon="-7.244733992890106"><ele>1744.0</ele><time>2026-04-24T11:52:46Z</time></trkpt><trkpt lat="31.28279874810703" lon="-7.244571733113889"><ele>1745.0</ele><time>2026-04-24T11:52:47Z</time></trkpt><trkpt lat="31.282955057699365" lon="-7.24441131034717"><ele>1746.0</ele><time>2026-04-24T11:52:48Z</time></trkpt><trkpt lat="31.283114169722175" lon="-7.244253933047245"><ele>1747.6666666666665</ele><time>2026-04-24T11:52:49Z</time></trkpt><trkpt lat="31.283271384898836" lon="-7.244102911953253"><ele>1749.3333333333333</ele><time>2026-04-24T11:52:50Z</time></trkpt><trkpt lat="31.283432871278528" lon="-7.243964387398071"><ele>1751.0</ele><time>2026-04-24T11:52:51Z</time></trkpt><trkpt lat="31.28360151479818" lon="-7.243832091307006"><ele>1753.6666666666665</ele><time>2026-04-24T11:52:52Z</time></trkpt><trkpt lat="31.283771904089768" lon="-7.243702831471351"><ele>1756.3333333333335</ele><time>2026-04-24T11:52:53Z</time></trkpt><trkpt lat="31.28393452607964" lon="-7.243568600493588"><ele>1759.0</ele><time>2026-04-24T11:52:54Z</time></trkpt><trkpt lat="31.284090057041173" lon="-7.243429023796531"><ele>1759.0</ele><time>2026-04-24T11:52:55Z</time></trkpt><trkpt lat="31.284236521632486" lon="-7.243280166611163"><ele>1759.0</ele><time>2026-04-24T11:52:56Z</time></trkpt><trkpt lat="31.284359874875" lon="-7.243120816558994"><ele>1759.0</ele><time>2026-04-24T11:52:57Z</time></trkpt><trkpt lat="31.28445443958615" lon="-7.242954172472885"><ele>1761.6666666666667</ele><time>2026-04-24T11:52:58Z</time></trkpt><trkpt lat="31.284535140814665" lon="-7.2427922083705605"><ele>1764.3333333333335</ele><time>2026-04-24T11:52:59Z</time></trkpt><trkpt lat="31.284625413925834" lon="-7.242647371052081"><ele>1767.0</ele><time>2026-04-24T11:53:00Z</time></trkpt><trkpt lat="31.284739920809134" lon="-7.242529536577203"><ele>1765.6666666666665</ele><time>2026-04-24T11:53:01Z</time></trkpt><trkpt lat="31.28487388277872" lon="-7.242444388413813"><ele>1764.3333333333333</ele><time>2026-04-24T11:53:02Z</time></trkpt><trkpt lat="31.28502472137018" lon="-7.2423773476080875"><ele>1763.0</ele><time>2026-04-24T11:53:03Z</time></trkpt><trkpt lat="31.285181303903997" lon="-7.242332625073893"><ele>1763.0</ele><time>2026-04-24T11:53:04Z</time></trkpt><trkpt lat="31.285343053687672" lon="-7.2423109463216075"><ele>1763.0</ele><time>2026-04-24T11:53:05Z</time></trkpt><trkpt lat="31.28550788782571" lon="-7.24228868910397"><ele>1763.0</ele><time>2026-04-24T11:53:06Z</time></trkpt><trkpt lat="31.28566837620378" lon="-7.242332877172927"><ele>1763.3333333333333</ele><time>2026-04-24T11:53:06.999Z</time></trkpt><trkpt lat="31.285832294587152" lon="-7.242347674955544"><ele>1763.6666666666665</ele><time>2026-04-24T11:53:07.999Z</time></trkpt><trkpt lat="31.285981626356307" lon="-7.242421389629567"><ele>1764.0</ele><time>2026-04-24T11:53:08.999Z</time></trkpt><trkpt lat="31.286123404914978" lon="-7.242503056206014"><ele>1764.0</ele><time>2026-04-24T11:53:09.999Z</time></trkpt><trkpt lat="31.28625982655387" lon="-7.242608683857014"><ele>1764.0</ele><time>2026-04-24T11:53:10.999Z</time></trkpt><trkpt lat="31.286415990901887" lon="-7.24268076533609"><ele>1764.0</ele><time>2026-04-24T11:53:11.999Z</time></trkpt><trkpt lat="31.286564604470037" lon="-7.242712096345"><ele>1766.0</ele><time>2026-04-24T11:53:12.999Z</time></trkpt><trkpt lat="31.286702249605725" lon="-7.2427018443705276"><ele>1768.0</ele><time>2026-04-24T11:53:13.999Z</time></trkpt><trkpt lat="31.286821218939203" lon="-7.242646671177178"><ele>1770.0</ele><time>2026-04-24T11:53:14.999Z</time></trkpt><trkpt lat="31.286933058120635" lon="-7.242562680521375"><ele>1772.0</ele><time>2026-04-24T11:53:15.999Z</time></trkpt><trkpt lat="31.287049935015066" lon="-7.242471213827597"><ele>1772.0</ele><time>2026-04-24T11:53:16.999Z</time></trkpt><trkpt lat="31.287168377616347" lon="-7.242379562715504"><ele>1772.0</ele><time>2026-04-24T11:53:17.999Z</time></trkpt><trkpt lat="31.287291247178604" lon="-7.242296784336979"><ele>1772.0</ele><time>2026-04-24T11:53:18.999Z</time></trkpt><trkpt lat="31.287422437392898" lon="-7.242232648381441"><ele>1772.0</ele><time>2026-04-24T11:53:19.999Z</time></trkpt><trkpt lat="31.287567445763095" lon="-7.242192367487335"><ele>1775.3333333333333</ele><time>2026-04-24T11:53:20.999Z</time></trkpt><trkpt lat="31.287721353532536" lon="-7.242180110012882"><ele>1778.6666666666665</ele><time>2026-04-24T11:53:21.999Z</time></trkpt><trkpt lat="31.287887019209162" lon="-7.242199577326751"><ele>1782.0</ele><time>2026-04-24T11:53:22.999Z</time></trkpt><trkpt lat="31.288052365263923" lon="-7.242206681198192"><ele>1782.75</ele><time>2026-04-24T11:53:23.999Z</time></trkpt><trkpt lat="31.288200385152003" lon="-7.242243451478349"><ele>1783.5</ele><time>2026-04-24T11:53:24.999Z</time></trkpt><trkpt lat="31.288339860783534" lon="-7.242237294168468"><ele>1784.25</ele><time>2026-04-24T11:53:25.999Z</time></trkpt><trkpt lat="31.28847934232322" lon="-7.242202736325159"><ele>1785.0</ele><time>2026-04-24T11:53:26.999Z</time></trkpt><trkpt lat="31.288614764087015" lon="-7.242147424098095"><ele>1785.0</ele><time>2026-04-24T11:53:27.999Z</time></trkpt><trkpt lat="31.288746083083616" lon="-7.2420796509827285"><ele>1785.0</ele><time>2026-04-24T11:53:28.999Z</time></trkpt><trkpt lat="31.28887894102679" lon="-7.242010496530646"><ele>1785.0</ele><time>2026-04-24T11:53:29.999Z</time></trkpt><trkpt lat="31.289023158004312" lon="-7.241938788568597"><ele>1785.0</ele><time>2026-04-24T11:53:30.999Z</time></trkpt><trkpt lat="31.2891686286702" lon="-7.241869391038167"><ele>1785.5</ele><time>2026-04-24T11:53:31.999Z</time></trkpt><trkpt lat="31.289308743546172" lon="-7.241810743121366"><ele>1786.0</ele><time>2026-04-24T11:53:32.999Z</time></trkpt><trkpt lat="31.289447166374604" lon="-7.24174817899724"><ele>1786.5</ele><time>2026-04-24T11:53:33.999Z</time></trkpt><trkpt lat="31.289584384187034" lon="-7.241691227532412"><ele>1787.0</ele><time>2026-04-24T11:53:34.999Z</time></trkpt><trkpt lat="31.289714832409484" lon="-7.241638248533716"><ele>1787.75</ele><time>2026-04-24T11:53:35.999Z</time></trkpt><trkpt lat="31.289833241754145" lon="-7.241582491558983"><ele>1788.5</ele><time>2026-04-24T11:53:36.999Z</time></trkpt><trkpt lat="31.289939736001926" lon="-7.241515703099159"><ele>1789.25</ele><time>2026-04-24T11:53:37.999Z</time></trkpt><trkpt lat="31.290026417279815" lon="-7.241432891076065"><ele>1790.0</ele><time>2026-04-24T11:53:38.999Z</time></trkpt><trkpt lat="31.290097474452686" lon="-7.241331702626879"><ele>1790.8</ele><time>2026-04-24T11:53:39.999Z</time></trkpt><trkpt lat="31.29015576865877" lon="-7.241221637750593"><ele>1791.6</ele><time>2026-04-24T11:53:40.999Z</time></trkpt><trkpt lat="31.29020334358589" lon="-7.241117005258206"><ele>1792.4</ele><time>2026-04-24T11:53:41.999Z</time></trkpt><trkpt lat="31.290245997221096" lon="-7.241022433491321"><ele>1793.2</ele><time>2026-04-24T11:53:42.999Z</time></trkpt><trkpt lat="31.290285750129307" lon="-7.240936332296221"><ele>1794.0</ele><time>2026-04-24T11:53:43.999Z</time></trkpt><trkpt lat="31.290322587017044" lon="-7.240854008797178"><ele>1794.0</ele><time>2026-04-24T11:53:44.999Z</time></trkpt><trkpt lat="31.290357766010487" lon="-7.24077271585302"><ele>1794.0</ele><time>2026-04-24T11:53:45.999Z</time></trkpt><trkpt lat="31.290396488880837" lon="-7.240692058436971"><ele>1794.0</ele><time>2026-04-24T11:53:46.999Z</time></trkpt><trkpt lat="31.29043679821675" lon="-7.240608677833667"><ele>1794.0</ele><time>2026-04-24T11:53:47.999Z</time></trkpt><trkpt lat="31.29047689505369" lon="-7.240520216409025"><ele>1794.0</ele><time>2026-04-24T11:53:48.999Z</time></trkpt><trkpt lat="31.29051834823314" lon="-7.240429938178408"><ele>1794.0</ele><time>2026-04-24T11:53:49.999Z</time></trkpt><trkpt lat="31.29056136684052" lon="-7.240337477383421"><ele>1794.2</ele><time>2026-04-24T11:53:50.999Z</time></trkpt><trkpt lat="31.290607228783283" lon="-7.240243931226478"><ele>1794.4</ele><time>2026-04-24T11:53:51.999Z</time></trkpt><trkpt lat="31.290650210319818" lon="-7.240151155233322"><ele>1794.6</ele><time>2026-04-24T11:53:52.999Z</time></trkpt><trkpt lat="31.29069135886391" lon="-7.24005862845607"><ele>1794.8</ele><time>2026-04-24T11:53:53.999Z</time></trkpt><trkpt lat="31.290730651963738" lon="-7.239962150473365"><ele>1795.0</ele><time>2026-04-24T11:53:54.999Z</time></trkpt><trkpt lat="31.29076916050497" lon="-7.239861705633487"><ele>1794.2</ele><time>2026-04-24T11:53:55.999Z</time></trkpt><trkpt lat="31.290802595075704" lon="-7.239751764955606"><ele>1793.4</ele><time>2026-04-24T11:53:56.999Z</time></trkpt><trkpt lat="31.29082889522022" lon="-7.239632826429193"><ele>1792.6</ele><time>2026-04-24T11:53:57.999Z</time></trkpt><trkpt lat="31.290848433618194" lon="-7.239505210628066"><ele>1791.8</ele><time>2026-04-24T11:53:58.999Z</time></trkpt><trkpt lat="31.290861779075943" lon="-7.239366966382236"><ele>1791.0</ele><time>2026-04-24T11:53:59.999Z</time></trkpt><trkpt lat="31.29086915074462" lon="-7.23922338585015"><ele>1791.0</ele><time>2026-04-24T11:54:00.999Z</time></trkpt><trkpt lat="31.290871349984737" lon="-7.2390744586076865"><ele>1791.0</ele><time>2026-04-24T11:54:01.999Z</time></trkpt><trkpt lat="31.290871241797966" lon="-7.238920013088586"><ele>1791.0</ele><time>2026-04-24T11:54:02.999Z</time></trkpt><trkpt lat="31.290880854830164" lon="-7.238763848448047"><ele>1791.0</ele><time>2026-04-24T11:54:03.999Z</time></trkpt><trkpt lat="31.29090868403797" lon="-7.2386111863984794"><ele>1790.25</ele><time>2026-04-24T11:54:04.999Z</time></trkpt><trkpt lat="31.29095998228195" lon="-7.238466657324729"><ele>1789.5</ele><time>2026-04-24T11:54:05.999Z</time></trkpt><trkpt lat="31.291037534546042" lon="-7.23833529179984"><ele>1788.75</ele><time>2026-04-24T11:54:06.999Z</time></trkpt><trkpt lat="31.291132495599104" lon="-7.238231144753326"><ele>1788.0</ele><time>2026-04-24T11:54:07.999Z</time></trkpt><trkpt lat="31.291242058952378" lon="-7.238156641364814"><ele>1788.2</ele><time>2026-04-24T11:54:08.999Z</time></trkpt><trkpt lat="31.291354590528023" lon="-7.238096868358586"><ele>1788.4</ele><time>2026-04-24T11:54:09.999Z</time></trkpt><trkpt lat="31.291456826244673" lon="-7.238039261684204"><ele>1788.6000000000001</ele><time>2026-04-24T11:54:10.999Z</time></trkpt><trkpt lat="31.291546279436005" lon="-7.237976240537537"><ele>1788.8000000000002</ele><time>2026-04-24T11:54:11.999Z</time></trkpt><trkpt lat="31.291619830313273" lon="-7.237908826718556"><ele>1789.0</ele><time>2026-04-24T11:54:12.999Z</time></trkpt><trkpt lat="31.29167612263902" lon="-7.237836310786263"><ele>1789.0000000000002</ele><time>2026-04-24T11:54:13.999Z</time></trkpt><trkpt lat="31.291718976089367" lon="-7.237757428959304"><ele>1789.0</ele><time>2026-04-24T11:54:14.999Z</time></trkpt><trkpt lat="31.2917432754304" lon="-7.237667887232801"><ele>1789.0</ele><time>2026-04-24T11:54:15.999Z</time></trkpt><trkpt lat="31.291745197341857" lon="-7.23757278325969"><ele>1789.0</ele><time>2026-04-24T11:54:16.999Z</time></trkpt><trkpt lat="31.29172710738038" lon="-7.237476055334411"><ele>1789.0000000000002</ele><time>2026-04-24T11:54:17.999Z</time></trkpt><trkpt lat="31.291693501653487" lon="-7.237377088962898"><ele>1789.0</ele><time>2026-04-24T11:54:18.999Z</time></trkpt><trkpt lat="31.291649576317514" lon="-7.237277755805591"><ele>1790.0</ele><time>2026-04-24T11:54:19.999Z</time></trkpt><trkpt lat="31.291596762669982" lon="-7.237181259158691"><ele>1791.0</ele><time>2026-04-24T11:54:20.999Z</time></trkpt><trkpt lat="31.291531073249647" lon="-7.237089878290301"><ele>1792.0</ele><time>2026-04-24T11:54:21.999Z</time></trkpt><trkpt lat="31.291446394178845" lon="-7.237006512522472"><ele>1793.0</ele><time>2026-04-24T11:54:22.999Z</time></trkpt><trkpt lat="31.29134447973454" lon="-7.236938379438127"><ele>1794.0</ele><time>2026-04-24T11:54:23.999Z</time></trkpt><trkpt lat="31.291228402096277" lon="-7.236886039713502"><ele>1794.75</ele><time>2026-04-24T11:54:24.998Z</time></trkpt><trkpt lat="31.291104965520205" lon="-7.236844941614002"><ele>1795.5</ele><time>2026-04-24T11:54:25.998Z</time></trkpt><trkpt lat="31.290976767222425" lon="-7.236812392775249"><ele>1796.25</ele><time>2026-04-24T11:54:26.998Z</time></trkpt><trkpt lat="31.290852723095888" lon="-7.2367836126253815"><ele>1797.0</ele><time>2026-04-24T11:54:27.998Z</time></trkpt><trkpt lat="31.29073284672183" lon="-7.2367552698560935"><ele>1797.0</ele><time>2026-04-24T11:54:28.998Z</time></trkpt><trkpt lat="31.290616468438742" lon="-7.236756452818446"><ele>1796.9999999999998</ele><time>2026-04-24T11:54:29.998Z</time></trkpt><trkpt lat="31.290508556143433" lon="-7.236743624770168"><ele>1796.9999999999998</ele><time>2026-04-24T11:54:30.998Z</time></trkpt><trkpt lat="31.29040550068321" lon="-7.236743582592837"><ele>1797.0</ele><time>2026-04-24T11:54:31.998Z</time></trkpt><trkpt lat="31.290311665366055" lon="-7.236742987827588"><ele>1797.0</ele><time>2026-04-24T11:54:32.998Z</time></trkpt><trkpt lat="31.290226374082817" lon="-7.236742447218339"><ele>1797.1666666666667</ele><time>2026-04-24T11:54:33.998Z</time></trkpt><trkpt lat="31.29015056742931" lon="-7.236731160290616"><ele>1797.3333333333335</ele><time>2026-04-24T11:54:34.998Z</time></trkpt><trkpt lat="31.29009254501132" lon="-7.236702048207535"><ele>1797.5</ele><time>2026-04-24T11:54:35.998Z</time></trkpt><trkpt lat="31.28999944804345" lon="-7.236669221966522"><ele>1797.6666666666667</ele><time>2026-04-24T11:54:37.998Z</time></trkpt><trkpt lat="31.28993733733084" lon="-7.236637957295812"><ele>1797.8333333333335</ele><time>2026-04-24T11:54:39.998Z</time></trkpt><trkpt lat="31.28987938508233" lon="-7.236580412106492"><ele>1798.0</ele><time>2026-04-24T11:56:15.999Z</time></trkpt><trkpt lat="31.289857425185414" lon="-7.236474496824483"><ele>1798.5000000000002</ele><time>2026-04-24T11:56:18.999Z</time></trkpt><trkpt lat="31.289851885483454" lon="-7.236400448406134"><ele>1799.0</ele><time>2026-04-24T11:56:20.999Z</time></trkpt><trkpt lat="31.289851853373925" lon="-7.236306279952655"><ele>1799.5</ele><time>2026-04-24T11:56:23.999Z</time></trkpt><trkpt lat="31.289887502428304" lon="-7.236244847454167"><ele>1800.0</ele><time>2026-04-24T12:04:15.999Z</time></trkpt><trkpt lat="31.289896056834994" lon="-7.236152805395945"><ele>1800.5000000000002</ele><time>2026-04-24T12:04:22.999Z</time></trkpt><trkpt lat="31.289975058977586" lon="-7.236013220309864"><ele>1801.0</ele><time>2026-04-24T12:04:23.999Z</time></trkpt><trkpt lat="31.290038201029844" lon="-7.236001915345276"><ele>1801.0</ele><time>2026-04-24T12:04:34.998Z</time></trkpt><trkpt lat="31.290115224352775" lon="-7.236207144881603"><ele>1801.0</ele><time>2026-04-24T12:04:38.998Z</time></trkpt><trkpt lat="31.290261654814316" lon="-7.236142303637032"><ele>1801.0</ele><time>2026-04-24T12:04:40.998Z</time></trkpt><trkpt lat="31.290086792073673" lon="-7.236276953587807"><ele>1801.0</ele><time>2026-04-24T12:04:42.998Z</time></trkpt><trkpt lat="31.290098978277037" lon="-7.2363608155016514"><ele>1801.0</ele><time>2026-04-24T12:04:47.998Z</time></trkpt><trkpt lat="31.29011332676781" lon="-7.236435251256562"><ele>1801.0</ele><time>2026-04-24T12:04:53.998Z</time></trkpt><trkpt lat="31.290050275937258" lon="-7.236412623990377"><ele>1801.0</ele><time>2026-04-24T12:58:50.999Z</time></trkpt><trkpt lat="31.28998557388792" lon="-7.236399074528564"><ele>1801.0</ele><time>2026-04-24T12:59:02.999Z</time></trkpt><trkpt lat="31.289957498319264" lon="-7.236321401288072"><ele>1801.0</ele><time>2026-04-24T12:59:07.999Z</time></trkpt><trkpt lat="31.28993984283669" lon="-7.236395012134586"><ele>1801.0</ele><time>2026-04-24T13:02:28.999Z</time></trkpt><trkpt lat="31.289984428472128" lon="-7.236447529999416"><ele>1801.0</ele><time>2026-04-24T13:02:34.999Z</time></trkpt><trkpt lat="31.290049367976767" lon="-7.236415705907521"><ele>1801.0</ele><time>2026-04-24T13:02:42.999Z</time></trkpt><trkpt lat="31.290092884880316" lon="-7.236471196359493"><ele>1801.0</ele><time>2026-04-24T13:02:54.999Z</time></trkpt><trkpt lat="31.29008148820343" lon="-7.236394182273309"><ele>1801.0</ele><time>2026-04-24T13:08:32.999Z</time></trkpt><trkpt lat="31.290023454946432" lon="-7.236362938102186"><ele>1801.0</ele><time>2026-04-24T13:08:46.999Z</time></trkpt><trkpt lat="31.289980514867555" lon="-7.236302367093647"><ele>1801.0</ele><time>2026-04-24T13:09:44.999Z</time></trkpt><trkpt lat="31.290023380913524" lon="-7.236239345270581"><ele>1801.0</ele><time>2026-04-24T13:09:51.999Z</time></trkpt><trkpt lat="31.28997811307699" lon="-7.236185383729331"><ele>1801.0000000000002</ele><time>2026-04-24T13:10:14.999Z</time></trkpt><trkpt lat="31.28992797783411" lon="-7.236233442047529"><ele>1801.0</ele><time>2026-04-24T13:10:20.999Z</time></trkpt><trkpt lat="31.28996911271778" lon="-7.236306818584252"><ele>1801.0</ele><time>2026-04-24T13:10:32.999Z</time></trkpt><trkpt lat="31.28993455219069" lon="-7.236373948029938"><ele>1801.0</ele><time>2026-04-24T13:16:05.999Z</time></trkpt><trkpt lat="31.28986747149044" lon="-7.236323698670625"><ele>1801.0000000000002</ele><time>2026-04-24T13:16:59.999Z</time></trkpt><trkpt lat="31.28987295227481" lon="-7.236235941744326"><ele>1801.0</ele><time>2026-04-24T13:17:01.999Z</time></trkpt><trkpt lat="31.2898950548821" lon="-7.236111051694249"><ele>1801.0</ele><time>2026-04-24T13:17:03.999Z</time></trkpt><trkpt lat="31.289919709888427" lon="-7.235975023236327"><ele>1801.0</ele><time>2026-04-24T13:17:05.999Z</time></trkpt><trkpt lat="31.28995844637661" lon="-7.235833046551287"><ele>1801.0</ele><time>2026-04-24T13:17:07.999Z</time></trkpt><trkpt lat="31.28998935092952" lon="-7.235762279303322"><ele>1801.0</ele><time>2026-04-24T13:17:08.999Z</time></trkpt><trkpt lat="31.290029246813333" lon="-7.235690475694213"><ele>1801.0</ele><time>2026-04-24T13:17:09.999Z</time></trkpt><trkpt lat="31.290075954588673" lon="-7.235615421938724"><ele>1801.5000000000002</ele><time>2026-04-24T13:17:10.999Z</time></trkpt><trkpt lat="31.2901285189038" lon="-7.235546591135515"><ele>1802.0</ele><time>2026-04-24T13:17:11.999Z</time></trkpt><trkpt lat="31.290184661391013" lon="-7.235483773676694"><ele>1802.5</ele><time>2026-04-24T13:17:12.999Z</time></trkpt><trkpt lat="31.29024149740499" lon="-7.235419917402751"><ele>1803.0</ele><time>2026-04-24T13:17:13.999Z</time></trkpt><trkpt lat="31.290300201605987" lon="-7.235357669925249"><ele>1803.5000000000002</ele><time>2026-04-24T13:17:14.999Z</time></trkpt><trkpt lat="31.290360572266273" lon="-7.23529418229549"><ele>1804.0</ele><time>2026-04-24T13:17:15.999Z</time></trkpt><trkpt lat="31.290423616978813" lon="-7.235228790442345"><ele>1804.0000000000002</ele><time>2026-04-24T13:17:16.999Z</time></trkpt><trkpt lat="31.290487749646207" lon="-7.235162940395036"><ele>1804.0</ele><time>2026-04-24T13:17:17.999Z</time></trkpt><trkpt lat="31.290552476992996" lon="-7.235096931069122"><ele>1804.0</ele><time>2026-04-24T13:17:18.999Z</time></trkpt><trkpt lat="31.29061814217946" lon="-7.235030590342595"><ele>1804.0</ele><time>2026-04-24T13:17:19.999Z</time></trkpt><trkpt lat="31.29068534480983" lon="-7.234963714997159"><ele>1804.0000000000002</ele><time>2026-04-24T13:17:20.999Z</time></trkpt><trkpt lat="31.290755022763502" lon="-7.234898538097333"><ele>1804.0</ele><time>2026-04-24T13:17:21.999Z</time></trkpt><trkpt lat="31.29083081410774" lon="-7.234828915091164"><ele>1805.75</ele><time>2026-04-24T13:17:22.999Z</time></trkpt><trkpt lat="31.290915893813413" lon="-7.234752484141045"><ele>1807.5</ele><time>2026-04-24T13:17:23.999Z</time></trkpt><trkpt lat="31.291006985309266" lon="-7.23466728710274"><ele>1809.25</ele><time>2026-04-24T13:17:24.999Z</time></trkpt><trkpt lat="31.291101605416273" lon="-7.234575645576882"><ele>1811.0</ele><time>2026-04-24T13:17:25.999Z</time></trkpt><trkpt lat="31.29119750496846" lon="-7.234478989560809"><ele>1811.0</ele><time>2026-04-24T13:17:26.999Z</time></trkpt><trkpt lat="31.29129206923053" lon="-7.234382324756446"><ele>1811.0</ele><time>2026-04-24T13:17:27.999Z</time></trkpt><trkpt lat="31.291390080359193" lon="-7.234287749755832"><ele>1811.0</ele><time>2026-04-24T13:17:28.999Z</time></trkpt><trkpt lat="31.291494426508237" lon="-7.23419305095635"><ele>1811.0</ele><time>2026-04-24T13:17:29.999Z</time></trkpt><trkpt lat="31.291599712480064" lon="-7.234095463673313"><ele>1812.75</ele><time>2026-04-24T13:17:30.999Z</time></trkpt><trkpt lat="31.291705933739248" lon="-7.233998280132498"><ele>1814.5</ele><time>2026-04-24T13:17:31.999Z</time></trkpt><trkpt lat="31.291813510789265" lon="-7.233900408758592"><ele>1816.25</ele><time>2026-04-24T13:17:32.999Z</time></trkpt><trkpt lat="31.29192551698942" lon="-7.233799762379467"><ele>1818.0</ele><time>2026-04-24T13:17:33.999Z</time></trkpt><trkpt lat="31.292040952004605" lon="-7.233698973308546"><ele>1818.0</ele><time>2026-04-24T13:17:34.999Z</time></trkpt><trkpt lat="31.292158489023354" lon="-7.233598284556365"><ele>1818.0</ele><time>2026-04-24T13:17:35.999Z</time></trkpt><trkpt lat="31.292278356358075" lon="-7.233499433551188"><ele>1818.0</ele><time>2026-04-24T13:17:36.999Z</time></trkpt><trkpt lat="31.292398266735464" lon="-7.2334006303161695"><ele>1818.0</ele><time>2026-04-24T13:17:37.999Z</time></trkpt><trkpt lat="31.292518351288628" lon="-7.233303856577976"><ele>1819.5</ele><time>2026-04-24T13:17:38.999Z</time></trkpt><trkpt lat="31.292638828975914" lon="-7.233210569465098"><ele>1821.0</ele><time>2026-04-24T13:17:39.999Z</time></trkpt><trkpt lat="31.292757251275763" lon="-7.233118308037604"><ele>1822.5</ele><time>2026-04-24T13:17:40.999Z</time></trkpt><trkpt lat="31.29287324804917" lon="-7.233025527387177"><ele>1824.0</ele><time>2026-04-24T13:17:41.999Z</time></trkpt><trkpt lat="31.292987251098015" lon="-7.232933601874174"><ele>1826.25</ele><time>2026-04-24T13:17:42.999Z</time></trkpt><trkpt lat="31.293099951873916" lon="-7.232842411932037"><ele>1828.5</ele><time>2026-04-24T13:17:43.999Z</time></trkpt><trkpt lat="31.293212455176473" lon="-7.232752620002152"><ele>1830.75</ele><time>2026-04-24T13:17:44.999Z</time></trkpt><trkpt lat="31.293325422680716" lon="-7.232664889974598"><ele>1833.0</ele><time>2026-04-24T13:17:45.999Z</time></trkpt><trkpt lat="31.293438732206926" lon="-7.232577308032006"><ele>1833.0</ele><time>2026-04-24T13:17:46.999Z</time></trkpt><trkpt lat="31.293552081579712" lon="-7.232489174819881"><ele>1833.0</ele><time>2026-04-24T13:17:47.999Z</time></trkpt><trkpt lat="31.293664481171504" lon="-7.232399747851396"><ele>1833.0</ele><time>2026-04-24T13:17:48.999Z</time></trkpt><trkpt lat="31.293777038807622" lon="-7.232309246896756"><ele>1833.0</ele><time>2026-04-24T13:17:49.999Z</time></trkpt><trkpt lat="31.29389030603741" lon="-7.2322172913314136"><ele>1834.5</ele><time>2026-04-24T13:17:50.999Z</time></trkpt><trkpt lat="31.294005168990648" lon="-7.232123406011324"><ele>1836.0</ele><time>2026-04-24T13:17:51.999Z</time></trkpt><trkpt lat="31.29412249807446" lon="-7.232031000581752"><ele>1837.5</ele><time>2026-04-24T13:17:52.999Z</time></trkpt><trkpt lat="31.294241923003717" lon="-7.231936698784608"><ele>1839.0</ele><time>2026-04-24T13:17:53.999Z</time></trkpt><trkpt lat="31.294364615499582" lon="-7.231840216058041"><ele>1839.0</ele><time>2026-04-24T13:17:54.999Z</time></trkpt><trkpt lat="31.294489176534068" lon="-7.2317408864421475"><ele>1839.0</ele><time>2026-04-24T13:17:55.999Z</time></trkpt><trkpt lat="31.294614506226093" lon="-7.231639304647313"><ele>1839.0</ele><time>2026-04-24T13:17:56.999Z</time></trkpt><trkpt lat="31.294741029492663" lon="-7.231538258378914"><ele>1839.3333333333335</ele><time>2026-04-24T13:17:57.999Z</time></trkpt><trkpt lat="31.294867830473112" lon="-7.231436611702764"><ele>1839.6666666666667</ele><time>2026-04-24T13:17:58.999Z</time></trkpt><trkpt lat="31.29499381934346" lon="-7.23133294392002"><ele>1840.0</ele><time>2026-04-24T13:17:59.999Z</time></trkpt><trkpt lat="31.29511859931395" lon="-7.2312289732744786"><ele>1840.0</ele><time>2026-04-24T13:18:00.999Z</time></trkpt><trkpt lat="31.295244950445834" lon="-7.231128233757886"><ele>1840.0</ele><time>2026-04-24T13:18:01.999Z</time></trkpt><trkpt lat="31.295372394473443" lon="-7.231031199254947"><ele>1840.0</ele><time>2026-04-24T13:18:02.999Z</time></trkpt><trkpt lat="31.29549989397495" lon="-7.2309354548443965"><ele>1841.0</ele><time>2026-04-24T13:18:03.999Z</time></trkpt><trkpt lat="31.29562842339746" lon="-7.23084126803979"><ele>1842.0</ele><time>2026-04-24T13:18:04.999Z</time></trkpt><trkpt lat="31.29575980891721" lon="-7.230748523155542"><ele>1843.0</ele><time>2026-04-24T13:18:05.999Z</time></trkpt><trkpt lat="31.29589333358857" lon="-7.230654579571359"><ele>1840.3333333333335</ele><time>2026-04-24T13:18:06.999Z</time></trkpt><trkpt lat="31.29602975460612" lon="-7.2305617552414825"><ele>1837.6666666666665</ele><time>2026-04-24T13:18:07.999Z</time></trkpt><trkpt lat="31.296168770813097" lon="-7.230471549397357"><ele>1835.0</ele><time>2026-04-24T13:18:08.999Z</time></trkpt><trkpt lat="31.296307692235093" lon="-7.230382744042344"><ele>1837.0</ele><time>2026-04-24T13:18:09.999Z</time></trkpt><trkpt lat="31.296443958217072" lon="-7.230297909440924"><ele>1839.0</ele><time>2026-04-24T13:18:10.999Z</time></trkpt><trkpt lat="31.29657707706003" lon="-7.230214838513403"><ele>1841.0</ele><time>2026-04-24T13:18:11.999Z</time></trkpt><trkpt lat="31.296707007649367" lon="-7.230130405223487"><ele>1841.0</ele><time>2026-04-24T13:18:12.999Z</time></trkpt><trkpt lat="31.29683457369481" lon="-7.230047216942282"><ele>1841.0</ele><time>2026-04-24T13:18:13.999Z</time></trkpt><trkpt lat="31.29696080577652" lon="-7.22996428872972"><ele>1841.0</ele><time>2026-04-24T13:18:14.999Z</time></trkpt><trkpt lat="31.29708635755935" lon="-7.2298784880738864"><ele>1841.0</ele><time>2026-04-24T13:18:15.999Z</time></trkpt><trkpt lat="31.29721140548027" lon="-7.229788735810704"><ele>1840.5</ele><time>2026-04-24T13:18:16.999Z</time></trkpt><trkpt lat="31.297336193774694" lon="-7.229695410466687"><ele>1840.0</ele><time>2026-04-24T13:18:17.999Z</time></trkpt><trkpt lat="31.29745865489519" lon="-7.229601925982617"><ele>1839.5</ele><time>2026-04-24T13:18:18.999Z</time></trkpt><trkpt lat="31.297577078402814" lon="-7.229505307686111"><ele>1839.0</ele><time>2026-04-24T13:18:19.999Z</time></trkpt><trkpt lat="31.297691934790087" lon="-7.229400790181621"><ele>1839.0</ele><time>2026-04-24T13:18:20.999Z</time></trkpt><trkpt lat="31.29780244238436" lon="-7.229288066971514"><ele>1839.0</ele><time>2026-04-24T13:18:21.999Z</time></trkpt><trkpt lat="31.297910578601375" lon="-7.22916869411397"><ele>1839.0</ele><time>2026-04-24T13:18:22.999Z</time></trkpt><trkpt lat="31.298017839076323" lon="-7.229044582043177"><ele>1839.0</ele><time>2026-04-24T13:18:23.999Z</time></trkpt><trkpt lat="31.298125713693548" lon="-7.228918814415381"><ele>1840.0</ele><time>2026-04-24T13:18:24.999Z</time></trkpt><trkpt lat="31.298226663692596" lon="-7.228783905960223"><ele>1841.0</ele><time>2026-04-24T13:18:25.999Z</time></trkpt><trkpt lat="31.298326507383692" lon="-7.228646304955839"><ele>1842.0</ele><time>2026-04-24T13:18:26.999Z</time></trkpt><trkpt lat="31.298422824830197" lon="-7.228506049958246"><ele>1842.0</ele><time>2026-04-24T13:18:27.999Z</time></trkpt><trkpt lat="31.298516237778273" lon="-7.228363352328567"><ele>1842.0</ele><time>2026-04-24T13:18:28.999Z</time></trkpt><trkpt lat="31.298606154598577" lon="-7.228217599070906"><ele>1842.0</ele><time>2026-04-24T13:18:29.999Z</time></trkpt><trkpt lat="31.298689320791173" lon="-7.228068254384564"><ele>1840.6666666666665</ele><time>2026-04-24T13:18:30.999Z</time></trkpt><trkpt lat="31.298767061565492" lon="-7.227915331678479"><ele>1839.3333333333333</ele><time>2026-04-24T13:18:31.999Z</time></trkpt><trkpt lat="31.2988388597317" lon="-7.227758659087228"><ele>1838.0</ele><time>2026-04-24T13:18:32.999Z</time></trkpt><trkpt lat="31.29890408886455" lon="-7.227595554517438"><ele>1839.3333333333333</ele><time>2026-04-24T13:18:33.999Z</time></trkpt><trkpt lat="31.298964269396883" lon="-7.227427158608575"><ele>1840.6666666666665</ele><time>2026-04-24T13:18:34.999Z</time></trkpt><trkpt lat="31.299021605024304" lon="-7.2272557645975555"><ele>1842.0</ele><time>2026-04-24T13:18:35.999Z</time></trkpt><trkpt lat="31.299076545928948" lon="-7.227081696705802"><ele>1842.0</ele><time>2026-04-24T13:18:36.999Z</time></trkpt><trkpt lat="31.299127224096452" lon="-7.226904417656787"><ele>1842.0</ele><time>2026-04-24T13:18:37.999Z</time></trkpt><trkpt lat="31.299171433783737" lon="-7.226723482396931"><ele>1842.0</ele><time>2026-04-24T13:18:38.999Z</time></trkpt><trkpt lat="31.299210542901925" lon="-7.226541244741294"><ele>1842.0</ele><time>2026-04-24T13:18:39.999Z</time></trkpt><trkpt lat="31.29924919117603" lon="-7.226358822810142"><ele>1842.0</ele><time>2026-04-24T13:18:40.999Z</time></trkpt><trkpt lat="31.299278631125024" lon="-7.2261772324025895"><ele>1842.0</ele><time>2026-04-24T13:18:41.999Z</time></trkpt><trkpt lat="31.299301893859596" lon="-7.225991765914442"><ele>1842.0</ele><time>2026-04-24T13:18:42.999Z</time></trkpt><trkpt lat="31.29931803937268" lon="-7.225804559027934"><ele>1842.0</ele><time>2026-04-24T13:18:43.999Z</time></trkpt><trkpt lat="31.299327149325563" lon="-7.2256117343398385"><ele>1842.0</ele><time>2026-04-24T13:18:44.999Z</time></trkpt><trkpt lat="31.29933052097258" lon="-7.225415381816852"><ele>1842.6666666666665</ele><time>2026-04-24T13:18:45.999Z</time></trkpt><trkpt lat="31.299329970548733" lon="-7.225215794831705"><ele>1843.3333333333333</ele><time>2026-04-24T13:18:46.999Z</time></trkpt><trkpt lat="31.299327676072444" lon="-7.225014728018397"><ele>1844.0</ele><time>2026-04-24T13:18:47.999Z</time></trkpt><trkpt lat="31.299325479302862" lon="-7.224811392673794"><ele>1844.6666666666665</ele><time>2026-04-24T13:18:48.999Z</time></trkpt><trkpt lat="31.29932188362366" lon="-7.22460515489066"><ele>1845.3333333333335</ele><time>2026-04-24T13:18:49.999Z</time></trkpt><trkpt lat="31.299317988941464" lon="-7.224395456501773"><ele>1846.0</ele><time>2026-04-24T13:18:50.999Z</time></trkpt><trkpt lat="31.29931572456328" lon="-7.224183998392295"><ele>1847.3333333333335</ele><time>2026-04-24T13:18:51.999Z</time></trkpt><trkpt lat="31.299312225314722" lon="-7.2239708453465274"><ele>1848.6666666666665</ele><time>2026-04-24T13:18:52.999Z</time></trkpt><trkpt lat="31.299307826732328" lon="-7.2237574794239245"><ele>1850.0</ele><time>2026-04-24T13:18:53.999Z</time></trkpt><trkpt lat="31.299304590474478" lon="-7.223542881333073"><ele>1850.0</ele><time>2026-04-24T13:18:54.999Z</time></trkpt><trkpt lat="31.299302334005468" lon="-7.223326291621533"><ele>1850.0</ele><time>2026-04-24T13:18:55.999Z</time></trkpt><trkpt lat="31.29929737962913" lon="-7.223113713798229"><ele>1850.0</ele><time>2026-04-24T13:18:56.999Z</time></trkpt><trkpt lat="31.299293722480176" lon="-7.2228954377218635"><ele>1851.0</ele><time>2026-04-24T13:18:57.999Z</time></trkpt><trkpt lat="31.299287598263422" lon="-7.222681296359003"><ele>1852.0</ele><time>2026-04-24T13:18:58.999Z</time></trkpt><trkpt lat="31.29928519675942" lon="-7.222465133763188"><ele>1853.0</ele><time>2026-04-24T13:18:59.999Z</time></trkpt><trkpt lat="31.29928032081606" lon="-7.222251222242411"><ele>1855.0</ele><time>2026-04-24T13:19:00.999Z</time></trkpt><trkpt lat="31.29927979280811" lon="-7.222036758640608"><ele>1857.0</ele><time>2026-04-24T13:19:01.999Z</time></trkpt><trkpt lat="31.299278650379147" lon="-7.221825801484101"><ele>1859.0</ele><time>2026-04-24T13:19:02.999Z</time></trkpt><trkpt lat="31.299278846696804" lon="-7.221609852044154"><ele>1860.0</ele><time>2026-04-24T13:19:03.999Z</time></trkpt><trkpt lat="31.299275527684987" lon="-7.221389678714323"><ele>1861.0</ele><time>2026-04-24T13:19:04.999Z</time></trkpt><trkpt lat="31.29927411013065" lon="-7.221173920931055"><ele>1862.0</ele><time>2026-04-24T13:19:05.999Z</time></trkpt><trkpt lat="31.299271883398113" lon="-7.22095130268441"><ele>1862.0</ele><time>2026-04-24T13:19:06.999Z</time></trkpt><trkpt lat="31.299270941207645" lon="-7.2207191465681175"><ele>1862.0</ele><time>2026-04-24T13:19:07.999Z</time></trkpt><trkpt lat="31.299272811628363" lon="-7.220489458064398"><ele>1862.0</ele><time>2026-04-24T13:19:08.999Z</time></trkpt><trkpt lat="31.29926794588704" lon="-7.220260781777193"><ele>1862.3333333333333</ele><time>2026-04-24T13:19:09.999Z</time></trkpt><trkpt lat="31.299264987756608" lon="-7.220025440803473"><ele>1862.6666666666665</ele><time>2026-04-24T13:19:10.999Z</time></trkpt><trkpt lat="31.299264017978718" lon="-7.219802233346419"><ele>1863.0</ele><time>2026-04-24T13:19:11.999Z</time></trkpt><trkpt lat="31.299260728053028" lon="-7.2195909866173045"><ele>1863.3333333333335</ele><time>2026-04-24T13:19:12.999Z</time></trkpt><trkpt lat="31.29925579169465" lon="-7.219373129204831"><ele>1863.6666666666667</ele><time>2026-04-24T13:19:13.999Z</time></trkpt><trkpt lat="31.299249696581917" lon="-7.219165556651089"><ele>1864.0</ele><time>2026-04-24T13:19:14.999Z</time></trkpt><trkpt lat="31.299235475920742" lon="-7.218962918930172"><ele>1864.6666666666667</ele><time>2026-04-24T13:19:15.999Z</time></trkpt><trkpt lat="31.299218704222838" lon="-7.218771244228981"><ele>1865.3333333333335</ele><time>2026-04-24T13:19:16.999Z</time></trkpt><trkpt lat="31.299196206486958" lon="-7.218584231827449"><ele>1866.0</ele><time>2026-04-24T13:19:17.999Z</time></trkpt><trkpt lat="31.299162140238636" lon="-7.2184023982495225"><ele>1866.0</ele><time>2026-04-24T13:19:18.999Z</time></trkpt><trkpt lat="31.299108438895793" lon="-7.2182206874012556"><ele>1866.0</ele><time>2026-04-24T13:19:19.999Z</time></trkpt><trkpt lat="31.29904840161815" lon="-7.218049774417063"><ele>1866.0</ele><time>2026-04-24T13:19:20.999Z</time></trkpt><trkpt lat="31.29897613840253" lon="-7.217886332520662"><ele>1861.6666666666665</ele><time>2026-04-24T13:19:21.999Z</time></trkpt><trkpt lat="31.298873015246247" lon="-7.21772622029973"><ele>1857.3333333333333</ele><time>2026-04-24T13:19:22.999Z</time></trkpt><trkpt lat="31.298758255590453" lon="-7.217574505091649"><ele>1853.0</ele><time>2026-04-24T13:19:23.999Z</time></trkpt><trkpt lat="31.29862447451302" lon="-7.21742713474888"><ele>1848.0</ele><time>2026-04-24T13:19:24.999Z</time></trkpt><trkpt lat="31.29847477132984" lon="-7.21728229527923"><ele>1843.0</ele><time>2026-04-24T13:19:25.999Z</time></trkpt><trkpt lat="31.29832193709071" lon="-7.217158044968927"><ele>1838.0</ele><time>2026-04-24T13:19:26.999Z</time></trkpt><trkpt lat="31.298171268636207" lon="-7.217023951035338"><ele>1837.0</ele><time>2026-04-24T13:19:27.999Z</time></trkpt><trkpt lat="31.29802495033057" lon="-7.21689988177068"><ele>1836.0</ele><time>2026-04-24T13:19:28.999Z</time></trkpt><trkpt lat="31.297877365994356" lon="-7.216774103874017"><ele>1835.0</ele><time>2026-04-24T13:19:29.999Z</time></trkpt><trkpt lat="31.297733433512064" lon="-7.216646996591955"><ele>1835.0</ele><time>2026-04-24T13:19:30.999Z</time></trkpt><trkpt lat="31.297597957865662" lon="-7.216523577353942"><ele>1835.0</ele><time>2026-04-24T13:19:31.999Z</time></trkpt><trkpt lat="31.297467524506835" lon="-7.216373152775441"><ele>1835.0</ele><time>2026-04-24T13:19:32.999Z</time></trkpt><trkpt lat="31.297346658930735" lon="-7.216209105876361"><ele>1830.0</ele><time>2026-04-24T13:19:33.999Z</time></trkpt><trkpt lat="31.297238556823608" lon="-7.21603016072322"><ele>1825.0</ele><time>2026-04-24T13:19:34.999Z</time></trkpt><trkpt lat="31.297148607017114" lon="-7.215828324159823"><ele>1820.0</ele><time>2026-04-24T13:19:35.999Z</time></trkpt><trkpt lat="31.297085763599476" lon="-7.2156232121102395"><ele>1820.0</ele><time>2026-04-24T13:19:36.999Z</time></trkpt><trkpt lat="31.297039568012007" lon="-7.215401893494334"><ele>1820.0</ele><time>2026-04-24T13:19:37.999Z</time></trkpt><trkpt lat="31.29702291144675" lon="-7.215180587659229"><ele>1820.0</ele><time>2026-04-24T13:19:38.999Z</time></trkpt><trkpt lat="31.296995609270276" lon="-7.2149586386721305"><ele>1819.6666666666665</ele><time>2026-04-24T13:19:39.999Z</time></trkpt><trkpt lat="31.296959921110044" lon="-7.214738246376365"><ele>1819.3333333333335</ele><time>2026-04-24T13:19:40.999Z</time></trkpt><trkpt lat="31.296951366442652" lon="-7.214513750996794"><ele>1819.0</ele><time>2026-04-24T13:19:41.999Z</time></trkpt><trkpt lat="31.29692384607357" lon="-7.214291735070712"><ele>1819.0</ele><time>2026-04-24T13:19:42.999Z</time></trkpt><trkpt lat="31.296897907433735" lon="-7.214073088805959"><ele>1819.0</ele><time>2026-04-24T13:19:43.999Z</time></trkpt><trkpt lat="31.296867872134055" lon="-7.213849917082944"><ele>1819.0</ele><time>2026-04-24T13:19:44.999Z</time></trkpt><trkpt lat="31.296822707438995" lon="-7.213631074871648"><ele>1819.3333333333335</ele><time>2026-04-24T13:19:45.999Z</time></trkpt><trkpt lat="31.29675267271411" lon="-7.213417219444975"><ele>1819.6666666666665</ele><time>2026-04-24T13:19:46.999Z</time></trkpt><trkpt lat="31.296678499523313" lon="-7.2132023552202575"><ele>1820.0</ele><time>2026-04-24T13:19:47.999Z</time></trkpt><trkpt lat="31.296598132907057" lon="-7.212989877259755"><ele>1821.6666666666665</ele><time>2026-04-24T13:19:48.999Z</time></trkpt><trkpt lat="31.296510479984025" lon="-7.212779888351721"><ele>1823.3333333333335</ele><time>2026-04-24T13:19:49.999Z</time></trkpt><trkpt lat="31.29642103325938" lon="-7.212572428282047"><ele>1825.0</ele><time>2026-04-24T13:19:50.999Z</time></trkpt><trkpt lat="31.296329413525108" lon="-7.212363459885118"><ele>1825.0</ele><time>2026-04-24T13:19:51.999Z</time></trkpt><trkpt lat="31.296239915871727" lon="-7.212156216552411"><ele>1825.0</ele><time>2026-04-24T13:19:52.999Z</time></trkpt><trkpt lat="31.29612992176468" lon="-7.211953586171651"><ele>1825.0</ele><time>2026-04-24T13:19:53.999Z</time></trkpt><trkpt lat="31.296040910320446" lon="-7.211740164366431"><ele>1825.0</ele><time>2026-04-24T13:19:54.999Z</time></trkpt><trkpt lat="31.29595658358549" lon="-7.211526816295753"><ele>1825.0</ele><time>2026-04-24T13:19:55.999Z</time></trkpt><trkpt lat="31.295888094713344" lon="-7.211313428860007"><ele>1825.0</ele><time>2026-04-24T13:19:56.999Z</time></trkpt><trkpt lat="31.295802069071115" lon="-7.211102065822166"><ele>1825.3333333333335</ele><time>2026-04-24T13:19:57.999Z</time></trkpt><trkpt lat="31.295722882227736" lon="-7.210895859485967"><ele>1825.6666666666665</ele><time>2026-04-24T13:19:58.999Z</time></trkpt><trkpt lat="31.295646064934264" lon="-7.210694197960121"><ele>1826.0</ele><time>2026-04-24T13:19:59.999Z</time></trkpt><trkpt lat="31.295578928624188" lon="-7.210497215344175"><ele>1826.3333333333333</ele><time>2026-04-24T13:20:00.999Z</time></trkpt><trkpt lat="31.295513619625815" lon="-7.2103013882357265"><ele>1826.6666666666665</ele><time>2026-04-24T13:20:01.999Z</time></trkpt><trkpt lat="31.29546405390044" lon="-7.210109414419653"><ele>1827.0</ele><time>2026-04-24T13:20:02.999Z</time></trkpt><trkpt lat="31.295427126567095" lon="-7.2099274126485415"><ele>1828.3333333333335</ele><time>2026-04-24T13:20:03.999Z</time></trkpt><trkpt lat="31.29539041126516" lon="-7.209749896654349"><ele>1829.6666666666667</ele><time>2026-04-24T13:20:04.999Z</time></trkpt><trkpt lat="31.29535213866309" lon="-7.209575419392803"><ele>1831.0</ele><time>2026-04-24T13:20:05.999Z</time></trkpt><trkpt lat="31.295304875709057" lon="-7.209407997513641"><ele>1831.0</ele><time>2026-04-24T13:20:06.999Z</time></trkpt><trkpt lat="31.295251006038157" lon="-7.209253756479147"><ele>1831.0</ele><time>2026-04-24T13:20:07.999Z</time></trkpt><trkpt lat="31.295181819420336" lon="-7.209104080124435"><ele>1831.0</ele><time>2026-04-24T13:20:08.999Z</time></trkpt><trkpt lat="31.295098630040478" lon="-7.2089717115012295"><ele>1831.0</ele><time>2026-04-24T13:20:09.999Z</time></trkpt><trkpt lat="31.295007242165095" lon="-7.208857066065637"><ele>1830.8333333333335</ele><time>2026-04-24T13:20:10.999Z</time></trkpt><trkpt lat="31.29491894652224" lon="-7.20876793219178"><ele>1830.6666666666667</ele><time>2026-04-24T13:20:11.999Z</time></trkpt><trkpt lat="31.294835270553737" lon="-7.208709849722931"><ele>1830.5</ele><time>2026-04-24T13:20:12.999Z</time></trkpt><trkpt lat="31.294770638654978" lon="-7.208670723666532"><ele>1830.3333333333335</ele><time>2026-04-24T13:20:13.999Z</time></trkpt><trkpt lat="31.294701775521958" lon="-7.208624423955096"><ele>1830.1666666666667</ele><time>2026-04-24T13:20:15.999Z</time></trkpt><trkpt lat="31.294647314017205" lon="-7.208577313709627"><ele>1830.0</ele><time>2026-04-24T13:20:47Z</time></trkpt><trkpt lat="31.294572943823454" lon="-7.208508985219854"><ele>1830.0</ele><time>2026-04-24T13:20:49Z</time></trkpt><trkpt lat="31.29451632552757" lon="-7.208456393776998"><ele>1830.0</ele><time>2026-04-24T13:20:50Z</time></trkpt><trkpt lat="31.29444713251155" lon="-7.208392879425257"><ele>1830.0</ele><time>2026-04-24T13:20:51Z</time></trkpt><trkpt lat="31.29436339178525" lon="-7.208322764123498"><ele>1830.0</ele><time>2026-04-24T13:20:52Z</time></trkpt><trkpt lat="31.29427380756967" lon="-7.208253173691539"><ele>1830.0</ele><time>2026-04-24T13:20:53Z</time></trkpt><trkpt lat="31.294173084309282" lon="-7.208181860906632"><ele>1831.75</ele><time>2026-04-24T13:20:54Z</time></trkpt><trkpt lat="31.29406715140997" lon="-7.208107706476299"><ele>1833.5</ele><time>2026-04-24T13:20:55Z</time></trkpt><trkpt lat="31.293955956666156" lon="-7.208031534526426"><ele>1835.25</ele><time>2026-04-24T13:20:56Z</time></trkpt><trkpt lat="31.29384351701091" lon="-7.207958127457539"><ele>1837.0</ele><time>2026-04-24T13:20:57Z</time></trkpt><trkpt lat="31.293731145800827" lon="-7.207882994073911"><ele>1837.0</ele><time>2026-04-24T13:20:58Z</time></trkpt><trkpt lat="31.29361901314371" lon="-7.207802199247022"><ele>1837.0</ele><time>2026-04-24T13:20:59Z</time></trkpt><trkpt lat="31.293507496963212" lon="-7.207715040900127"><ele>1837.0</ele><time>2026-04-24T13:21:00Z</time></trkpt><trkpt lat="31.29338644034312" lon="-7.207633888185861"><ele>1837.0</ele><time>2026-04-24T13:21:01Z</time></trkpt><trkpt lat="31.29327142767526" lon="-7.207536955852231"><ele>1837.0</ele><time>2026-04-24T13:21:02Z</time></trkpt><trkpt lat="31.2931710654628" lon="-7.207421846122693"><ele>1837.0</ele><time>2026-04-24T13:21:03Z</time></trkpt><trkpt lat="31.293087772841886" lon="-7.207301733675101"><ele>1837.0</ele><time>2026-04-24T13:21:04Z</time></trkpt><trkpt lat="31.293023380567877" lon="-7.207144939808203"><ele>1837.0</ele><time>2026-04-24T13:21:05Z</time></trkpt><trkpt lat="31.2929908581759" lon="-7.206982158314611"><ele>1836.75</ele><time>2026-04-24T13:21:06Z</time></trkpt><trkpt lat="31.292953839877093" lon="-7.206824917156982"><ele>1836.5</ele><time>2026-04-24T13:21:07Z</time></trkpt><trkpt lat="31.292915527285878" lon="-7.2066621782815306"><ele>1836.25</ele><time>2026-04-24T13:21:08Z</time></trkpt><trkpt lat="31.292876482584912" lon="-7.206496329651218"><ele>1836.0</ele><time>2026-04-24T13:21:09Z</time></trkpt><trkpt lat="31.29292686175251" lon="-7.206294935310389"><ele>1837.0</ele><time>2026-04-24T13:21:10Z</time></trkpt><trkpt lat="31.292904897712834" lon="-7.206109119921846"><ele>1838.0</ele><time>2026-04-24T13:21:11Z</time></trkpt><trkpt lat="31.292879864769738" lon="-7.205919361213563"><ele>1839.0</ele><time>2026-04-24T13:21:12Z</time></trkpt><trkpt lat="31.29285050627459" lon="-7.205724257924735"><ele>1839.6666666666665</ele><time>2026-04-24T13:21:13Z</time></trkpt><trkpt lat="31.292815688255477" lon="-7.205526255674203"><ele>1840.3333333333333</ele><time>2026-04-24T13:21:14Z</time></trkpt><trkpt lat="31.292778794631534" lon="-7.2053255785314425"><ele>1841.0</ele><time>2026-04-24T13:21:15Z</time></trkpt><trkpt lat="31.292741339761655" lon="-7.205122717225543"><ele>1841.0</ele><time>2026-04-24T13:21:16Z</time></trkpt><trkpt lat="31.29270272024769" lon="-7.204918576087224"><ele>1841.0</ele><time>2026-04-24T13:21:17Z</time></trkpt><trkpt lat="31.29266386508231" lon="-7.204712892686057"><ele>1841.0</ele><time>2026-04-24T13:21:18Z</time></trkpt><trkpt lat="31.292624141616702" lon="-7.204504317620643"><ele>1841.6666666666665</ele><time>2026-04-24T13:21:19Z</time></trkpt><trkpt lat="31.292582021633315" lon="-7.204291849305079"><ele>1842.3333333333335</ele><time>2026-04-24T13:21:20Z</time></trkpt><trkpt lat="31.292537239632978" lon="-7.204076459554047"><ele>1843.0</ele><time>2026-04-24T13:21:21Z</time></trkpt><trkpt lat="31.29249488574375" lon="-7.2038613357056285"><ele>1843.3333333333335</ele><time>2026-04-24T13:21:22Z</time></trkpt><trkpt lat="31.292456453842433" lon="-7.2036466129176695"><ele>1843.6666666666665</ele><time>2026-04-24T13:21:23Z</time></trkpt><trkpt lat="31.29242323976442" lon="-7.203435018357851"><ele>1844.0</ele><time>2026-04-24T13:21:24Z</time></trkpt><trkpt lat="31.292397005274246" lon="-7.203216495090687"><ele>1844.3333333333333</ele><time>2026-04-24T13:21:25Z</time></trkpt><trkpt lat="31.292380413825953" lon="-7.202993967400505"><ele>1844.6666666666665</ele><time>2026-04-24T13:21:26Z</time></trkpt><trkpt lat="31.29236466785111" lon="-7.202757435971154"><ele>1845.0</ele><time>2026-04-24T13:21:27Z</time></trkpt><trkpt lat="31.292348936335188" lon="-7.202531396186538"><ele>1845.3333333333335</ele><time>2026-04-24T13:21:28Z</time></trkpt><trkpt lat="31.292333613466347" lon="-7.20231254250614"><ele>1845.6666666666667</ele><time>2026-04-24T13:21:29Z</time></trkpt><trkpt lat="31.292312806408077" lon="-7.202098570198914"><ele>1846.0</ele><time>2026-04-24T13:21:30Z</time></trkpt><trkpt lat="31.292284502210897" lon="-7.2018924524047225"><ele>1847.0</ele><time>2026-04-24T13:21:31Z</time></trkpt><trkpt lat="31.29225493996555" lon="-7.20171330453535"><ele>1848.0</ele><time>2026-04-24T13:21:32Z</time></trkpt><trkpt lat="31.292215662346315" lon="-7.201551300838043"><ele>1849.0</ele><time>2026-04-24T13:21:33Z</time></trkpt><trkpt lat="31.29215350408827" lon="-7.201397855026255"><ele>1850.0</ele><time>2026-04-24T13:21:34Z</time></trkpt><trkpt lat="31.292070262381497" lon="-7.201235927463464"><ele>1850.0</ele><time>2026-04-24T13:21:35Z</time></trkpt><trkpt lat="31.291958545519687" lon="-7.201073043335771"><ele>1850.0</ele><time>2026-04-24T13:21:36Z</time></trkpt><trkpt lat="31.291826675524355" lon="-7.200913518881584"><ele>1850.0</ele><time>2026-04-24T13:21:37Z</time></trkpt><trkpt lat="31.291686972087323" lon="-7.200758176494183"><ele>1850.0</ele><time>2026-04-24T13:21:38Z</time></trkpt><trkpt lat="31.29154687899086" lon="-7.2006020365225565"><ele>1850.0</ele><time>2026-04-24T13:21:39Z</time></trkpt><trkpt lat="31.29141656051954" lon="-7.200441868887412"><ele>1850.0</ele><time>2026-04-24T13:21:40Z</time></trkpt><trkpt lat="31.291298004300934" lon="-7.200282919404408"><ele>1851.6666666666665</ele><time>2026-04-24T13:21:41Z</time></trkpt><trkpt lat="31.29119671383773" lon="-7.200109850329413"><ele>1853.3333333333335</ele><time>2026-04-24T13:21:42Z</time></trkpt><trkpt lat="31.291106127905557" lon="-7.199931612311787"><ele>1855.0</ele><time>2026-04-24T13:21:43Z</time></trkpt><trkpt lat="31.291029198655654" lon="-7.199739842552381"><ele>1855.0</ele><time>2026-04-24T13:21:44Z</time></trkpt><trkpt lat="31.29096354622137" lon="-7.199544823297927"><ele>1855.0</ele><time>2026-04-24T13:21:45Z</time></trkpt><trkpt lat="31.290900589904382" lon="-7.199343724135132"><ele>1855.0</ele><time>2026-04-24T13:21:46Z</time></trkpt><trkpt lat="31.290828926753843" lon="-7.199142421289056"><ele>1856.6666666666667</ele><time>2026-04-24T13:21:47Z</time></trkpt><trkpt lat="31.29074231333264" lon="-7.198948381038705"><ele>1858.3333333333335</ele><time>2026-04-24T13:21:48Z</time></trkpt><trkpt lat="31.290637098549638" lon="-7.1987684990004555"><ele>1860.0</ele><time>2026-04-24T13:21:49Z</time></trkpt><trkpt lat="31.290522280386394" lon="-7.198598064228224"><ele>1861.0</ele><time>2026-04-24T13:21:50Z</time></trkpt><trkpt lat="31.29040376373928" lon="-7.198439056392349"><ele>1862.0</ele><time>2026-04-24T13:21:51Z</time></trkpt><trkpt lat="31.290287712277372" lon="-7.198280625151536"><ele>1863.0</ele><time>2026-04-24T13:21:52Z</time></trkpt><trkpt lat="31.290178267575183" lon="-7.198128442357412"><ele>1864.3333333333335</ele><time>2026-04-24T13:21:53Z</time></trkpt><trkpt lat="31.29006286170644" lon="-7.1979795363598225"><ele>1865.6666666666667</ele><time>2026-04-24T13:21:54Z</time></trkpt><trkpt lat="31.289938237602517" lon="-7.1978568456286425"><ele>1867.0</ele><time>2026-04-24T13:21:55Z</time></trkpt><trkpt lat="31.289796946684074" lon="-7.197758595400946"><ele>1867.6666666666667</ele><time>2026-04-24T13:21:56Z</time></trkpt><trkpt lat="31.28964840008855" lon="-7.1976741034546325"><ele>1868.3333333333335</ele><time>2026-04-24T13:21:57Z</time></trkpt><trkpt lat="31.28948858649014" lon="-7.197599785512886"><ele>1869.0</ele><time>2026-04-24T13:21:58Z</time></trkpt><trkpt lat="31.289319446666475" lon="-7.197528128204892"><ele>1869.0</ele><time>2026-04-24T13:21:59Z</time></trkpt><trkpt lat="31.289142617468297" lon="-7.197459316616579"><ele>1869.0</ele><time>2026-04-24T13:22:00Z</time></trkpt><trkpt lat="31.288961422456403" lon="-7.1973940775284415"><ele>1869.0</ele><time>2026-04-24T13:22:01Z</time></trkpt><trkpt lat="31.288781179485603" lon="-7.197330750873447"><ele>1874.3333333333335</ele><time>2026-04-24T13:22:02Z</time></trkpt><trkpt lat="31.28860237261896" lon="-7.19726886875752"><ele>1879.6666666666667</ele><time>2026-04-24T13:22:03Z</time></trkpt><trkpt lat="31.288426421449923" lon="-7.197203117421087"><ele>1885.0</ele><time>2026-04-24T13:22:04Z</time></trkpt><trkpt lat="31.288255821215568" lon="-7.197118927742254"><ele>1885.0</ele><time>2026-04-24T13:22:05Z</time></trkpt><trkpt lat="31.288095289047494" lon="-7.1970092689987295"><ele>1885.0</ele><time>2026-04-24T13:22:06Z</time></trkpt><trkpt lat="31.287946270757274" lon="-7.1968799581708875"><ele>1885.0</ele><time>2026-04-24T13:22:07Z</time></trkpt><trkpt lat="31.28781158291078" lon="-7.196729771974329"><ele>1884.0</ele><time>2026-04-24T13:22:08Z</time></trkpt><trkpt lat="31.287696928809435" lon="-7.196564210528522"><ele>1883.0</ele><time>2026-04-24T13:22:09Z</time></trkpt><trkpt lat="31.287596976358785" lon="-7.196390073455828"><ele>1882.0</ele><time>2026-04-24T13:22:10Z</time></trkpt><trkpt lat="31.287499929022797" lon="-7.196200905341692"><ele>1882.0</ele><time>2026-04-24T13:22:11Z</time></trkpt><trkpt lat="31.287395962932866" lon="-7.19601186727098"><ele>1882.0</ele><time>2026-04-24T13:22:12Z</time></trkpt><trkpt lat="31.28728950710167" lon="-7.1958379511162525"><ele>1882.0</ele><time>2026-04-24T13:22:13Z</time></trkpt><trkpt lat="31.28718096082112" lon="-7.1956595084143125"><ele>1883.0</ele><time>2026-04-24T13:22:13.999Z</time></trkpt><trkpt lat="31.287076585669812" lon="-7.195475548477622"><ele>1884.0</ele><time>2026-04-24T13:22:14.999Z</time></trkpt><trkpt lat="31.2869871182892" lon="-7.195292883588061"><ele>1885.0</ele><time>2026-04-24T13:22:15.999Z</time></trkpt><trkpt lat="31.286908007601177" lon="-7.195112463243935"><ele>1885.0</ele><time>2026-04-24T13:22:16.999Z</time></trkpt><trkpt lat="31.28685642225704" lon="-7.194919201250635"><ele>1885.0</ele><time>2026-04-24T13:22:17.999Z</time></trkpt><trkpt lat="31.286823910149117" lon="-7.194714733894444"><ele>1885.0</ele><time>2026-04-24T13:22:18.999Z</time></trkpt><trkpt lat="31.286799054015123" lon="-7.194502696808907"><ele>1884.6666666666667</ele><time>2026-04-24T13:22:19.999Z</time></trkpt><trkpt lat="31.286774994563338" lon="-7.194288653818838"><ele>1884.3333333333335</ele><time>2026-04-24T13:22:20.999Z</time></trkpt><trkpt lat="31.28675365457669" lon="-7.194067161997315"><ele>1884.0</ele><time>2026-04-24T13:22:21.999Z</time></trkpt><trkpt lat="31.28673014265235" lon="-7.193841024427394"><ele>1885.6666666666665</ele><time>2026-04-24T13:22:22.999Z</time></trkpt><trkpt lat="31.286703793661033" lon="-7.193608265479948"><ele>1887.3333333333333</ele><time>2026-04-24T13:22:23.999Z</time></trkpt><trkpt lat="31.28667172762826" lon="-7.193381555614213"><ele>1889.0</ele><time>2026-04-24T13:22:24.999Z</time></trkpt><trkpt lat="31.286639846130207" lon="-7.19315403712755"><ele>1890.6666666666665</ele><time>2026-04-24T13:22:25.999Z</time></trkpt><trkpt lat="31.286606962532172" lon="-7.192917417351306"><ele>1892.3333333333335</ele><time>2026-04-24T13:22:26.999Z</time></trkpt><trkpt lat="31.286585460770763" lon="-7.192670907919498"><ele>1894.0</ele><time>2026-04-24T13:22:27.999Z</time></trkpt><trkpt lat="31.286582306688825" lon="-7.192417154887132"><ele>1895.0</ele><time>2026-04-24T13:22:28.999Z</time></trkpt><trkpt lat="31.286587665266403" lon="-7.192160070865429"><ele>1896.0</ele><time>2026-04-24T13:22:29.999Z</time></trkpt><trkpt lat="31.28658859983609" lon="-7.191898612608832"><ele>1897.0</ele><time>2026-04-24T13:22:30.999Z</time></trkpt><trkpt lat="31.286586242078357" lon="-7.191633874685174"><ele>1899.5</ele><time>2026-04-24T13:22:31.999Z</time></trkpt><trkpt lat="31.286585868899458" lon="-7.191371288467273"><ele>1902.0</ele><time>2026-04-24T13:22:32.999Z</time></trkpt><trkpt lat="31.28657938633247" lon="-7.191099557054352"><ele>1902.0</ele><time>2026-04-24T13:22:33.999Z</time></trkpt><trkpt lat="31.286573878672012" lon="-7.190831897661277"><ele>1902.0</ele><time>2026-04-24T13:22:34.999Z</time></trkpt><trkpt lat="31.286575395149207" lon="-7.190560188299741"><ele>1905.5</ele><time>2026-04-24T13:22:35.999Z</time></trkpt><trkpt lat="31.286573958315284" lon="-7.19029654263141"><ele>1909.0</ele><time>2026-04-24T13:22:36.999Z</time></trkpt><trkpt lat="31.286577940681312" lon="-7.190029727366222"><ele>1910.0</ele><time>2026-04-24T13:22:37.999Z</time></trkpt><trkpt lat="31.286572045421696" lon="-7.189773025629744"><ele>1911.0</ele><time>2026-04-24T13:22:38.999Z</time></trkpt><trkpt lat="31.286557028378944" lon="-7.189527066095043"><ele>1912.0</ele><time>2026-04-24T13:22:39.999Z</time></trkpt><trkpt lat="31.286537740163805" lon="-7.189272688876041"><ele>1912.0</ele><time>2026-04-24T13:22:40.999Z</time></trkpt><trkpt lat="31.286519897235028" lon="-7.189016974044205"><ele>1912.0</ele><time>2026-04-24T13:22:41.999Z</time></trkpt><trkpt lat="31.286506793785204" lon="-7.18876066462644"><ele>1912.0</ele><time>2026-04-24T13:22:42.999Z</time></trkpt><trkpt lat="31.2865068773948" lon="-7.188506687455494"><ele>1912.0</ele><time>2026-04-24T13:22:43.999Z</time></trkpt><trkpt lat="31.286512076385304" lon="-7.188241095112116"><ele>1912.0</ele><time>2026-04-24T13:22:44.999Z</time></trkpt><trkpt lat="31.28652701334896" lon="-7.187983199859341"><ele>1912.0</ele><time>2026-04-24T13:22:45.999Z</time></trkpt><trkpt lat="31.286552400316086" lon="-7.187724970214397"><ele>1912.3333333333335</ele><time>2026-04-24T13:22:46.999Z</time></trkpt><trkpt lat="31.286582161249605" lon="-7.1874702660433645"><ele>1912.6666666666665</ele><time>2026-04-24T13:22:47.999Z</time></trkpt><trkpt lat="31.28661398331795" lon="-7.187228732620099"><ele>1913.0</ele><time>2026-04-24T13:22:48.999Z</time></trkpt><trkpt lat="31.28664286604385" lon="-7.18699643267263"><ele>1913.0</ele><time>2026-04-24T13:22:50Z</time></trkpt><trkpt lat="31.28666408683895" lon="-7.186780195019263"><ele>1913.0</ele><time>2026-04-24T13:22:51.001Z</time></trkpt><trkpt lat="31.2866672840667" lon="-7.186584371001606"><ele>1913.0</ele><time>2026-04-24T13:22:52.001Z</time></trkpt><trkpt lat="31.286662084063128" lon="-7.186397605711587"><ele>1912.6666666666665</ele><time>2026-04-24T13:22:53.001Z</time></trkpt><trkpt lat="31.286639520802932" lon="-7.186222745574164"><ele>1912.3333333333335</ele><time>2026-04-24T13:22:54.001Z</time></trkpt><trkpt lat="31.286600174802643" lon="-7.186054057863136"><ele>1912.0</ele><time>2026-04-24T13:22:55Z</time></trkpt><trkpt lat="31.286552613607956" lon="-7.185882684330511"><ele>1912.0</ele><time>2026-04-24T13:22:56Z</time></trkpt><trkpt lat="31.28650438879905" lon="-7.185703211327883"><ele>1912.0</ele><time>2026-04-24T13:22:57Z</time></trkpt><trkpt lat="31.28646149411149" lon="-7.185519293463134"><ele>1912.0</ele><time>2026-04-24T13:22:58Z</time></trkpt><trkpt lat="31.2864205223925" lon="-7.18532492118847"><ele>1910.0</ele><time>2026-04-24T13:22:59Z</time></trkpt><trkpt lat="31.286385012944706" lon="-7.185141280208687"><ele>1908.0</ele><time>2026-04-24T13:23:00Z</time></trkpt><trkpt lat="31.286349281406103" lon="-7.184967916578499"><ele>1906.0</ele><time>2026-04-24T13:23:01Z</time></trkpt><trkpt lat="31.286326198382383" lon="-7.184790272843365"><ele>1904.0</ele><time>2026-04-24T13:23:02Z</time></trkpt><trkpt lat="31.286328342867307" lon="-7.184607028454273"><ele>1902.0</ele><time>2026-04-24T13:23:03Z</time></trkpt><trkpt lat="31.286355882544342" lon="-7.184420135948691"><ele>1900.0</ele><time>2026-04-24T13:23:04Z</time></trkpt><trkpt lat="31.286380325860094" lon="-7.1842382346787215"><ele>1900.0</ele><time>2026-04-24T13:23:05Z</time></trkpt><trkpt lat="31.28640752775002" lon="-7.184058401363643"><ele>1900.0</ele><time>2026-04-24T13:23:06Z</time></trkpt><trkpt lat="31.286445224327707" lon="-7.18388753431862"><ele>1900.0</ele><time>2026-04-24T13:23:07Z</time></trkpt><trkpt lat="31.286468130811713" lon="-7.183704047074533"><ele>1896.0</ele><time>2026-04-24T13:23:08Z</time></trkpt><trkpt lat="31.286483421768203" lon="-7.183507410354038"><ele>1892.0</ele><time>2026-04-24T13:23:09Z</time></trkpt><trkpt lat="31.286481407927848" lon="-7.183295113412918"><ele>1888.0</ele><time>2026-04-24T13:23:10Z</time></trkpt><trkpt lat="31.28646280283693" lon="-7.183073426935269"><ele>1887.6666666666667</ele><time>2026-04-24T13:23:11Z</time></trkpt><trkpt lat="31.286442118545505" lon="-7.182858596164578"><ele>1887.3333333333335</ele><time>2026-04-24T13:23:12Z</time></trkpt><trkpt lat="31.286424470666613" lon="-7.182644492068064"><ele>1887.0</ele><time>2026-04-24T13:23:13Z</time></trkpt><trkpt lat="31.286409546489196" lon="-7.182440969300161"><ele>1890.6666666666665</ele><time>2026-04-24T13:23:14Z</time></trkpt><trkpt lat="31.28641946449224" lon="-7.182244849342363"><ele>1894.3333333333333</ele><time>2026-04-24T13:23:15Z</time></trkpt><trkpt lat="31.286456523186217" lon="-7.182048395939286"><ele>1898.0</ele><time>2026-04-24T13:23:16Z</time></trkpt><trkpt lat="31.28652565773115" lon="-7.181852334464398"><ele>1891.6666666666665</ele><time>2026-04-24T13:23:17Z</time></trkpt><trkpt lat="31.286613845913113" lon="-7.181659859229848"><ele>1885.3333333333335</ele><time>2026-04-24T13:23:18Z</time></trkpt><trkpt lat="31.286706757074096" lon="-7.181470511703015"><ele>1879.0</ele><time>2026-04-24T13:23:19Z</time></trkpt><trkpt lat="31.286791846872774" lon="-7.1812685242201395"><ele>1879.0</ele><time>2026-04-24T13:23:20Z</time></trkpt><trkpt lat="31.286873138671837" lon="-7.181053497425464"><ele>1879.0</ele><time>2026-04-24T13:23:21Z</time></trkpt><trkpt lat="31.286944703817657" lon="-7.180829431181368"><ele>1879.0</ele><time>2026-04-24T13:23:22Z</time></trkpt><trkpt lat="31.287010653971645" lon="-7.18060788431206"><ele>1884.6666666666667</ele><time>2026-04-24T13:23:23Z</time></trkpt><trkpt lat="31.28707186581102" lon="-7.180391092559693"><ele>1890.3333333333335</ele><time>2026-04-24T13:23:24Z</time></trkpt><trkpt lat="31.287131143310987" lon="-7.1801808389431185"><ele>1896.0</ele><time>2026-04-24T13:23:25Z</time></trkpt><trkpt lat="31.287191448615857" lon="-7.179981372011855"><ele>1888.3333333333335</ele><time>2026-04-24T13:23:26Z</time></trkpt><trkpt lat="31.287255631835965" lon="-7.1797903287379885"><ele>1880.6666666666667</ele><time>2026-04-24T13:23:27Z</time></trkpt><trkpt lat="31.287330904542817" lon="-7.179605406663857"><ele>1873.0</ele><time>2026-04-24T13:23:28Z</time></trkpt><trkpt lat="31.287430275365768" lon="-7.179435712376286"><ele>1873.0</ele><time>2026-04-24T13:23:29Z</time></trkpt><trkpt lat="31.28754383258957" lon="-7.179277888307654"><ele>1873.0</ele><time>2026-04-24T13:23:30Z</time></trkpt><trkpt lat="31.28765716631341" lon="-7.1791235479098665"><ele>1873.0</ele><time>2026-04-24T13:23:31Z</time></trkpt><trkpt lat="31.28777280845872" lon="-7.178950623337773"><ele>1877.3333333333335</ele><time>2026-04-24T13:23:32Z</time></trkpt><trkpt lat="31.287890186455737" lon="-7.178764903932676"><ele>1881.6666666666665</ele><time>2026-04-24T13:23:33Z</time></trkpt><trkpt lat="31.28800097663997" lon="-7.1785703968024075"><ele>1886.0</ele><time>2026-04-24T13:23:34Z</time></trkpt><trkpt lat="31.28808963715716" lon="-7.17837389666327"><ele>1878.6666666666665</ele><time>2026-04-24T13:23:35Z</time></trkpt><trkpt lat="31.288163948019644" lon="-7.178172383860362"><ele>1871.3333333333335</ele><time>2026-04-24T13:23:36Z</time></trkpt><trkpt lat="31.288225615410976" lon="-7.177952852604505"><ele>1864.0</ele><time>2026-04-24T13:23:37Z</time></trkpt><trkpt lat="31.28827240865299" lon="-7.177738660583913"><ele>1864.0</ele><time>2026-04-24T13:23:38Z</time></trkpt><trkpt lat="31.28831567888632" lon="-7.1775332031160035"><ele>1864.0</ele><time>2026-04-24T13:23:39Z</time></trkpt><trkpt lat="31.28836931097559" lon="-7.17733932537676"><ele>1864.0</ele><time>2026-04-24T13:23:40Z</time></trkpt><trkpt lat="31.288441318734037" lon="-7.17715478840298"><ele>1865.6666666666667</ele><time>2026-04-24T13:23:41Z</time></trkpt><trkpt lat="31.28853241442269" lon="-7.1769933923133244"><ele>1867.3333333333335</ele><time>2026-04-24T13:23:42Z</time></trkpt><trkpt lat="31.288646141824238" lon="-7.176848441905388"><ele>1869.0</ele><time>2026-04-24T13:23:43Z</time></trkpt><trkpt lat="31.288763512379365" lon="-7.176710442360261"><ele>1869.0</ele><time>2026-04-24T13:23:44Z</time></trkpt><trkpt lat="31.288858674311054" lon="-7.1765545923275855"><ele>1869.0</ele><time>2026-04-24T13:23:45Z</time></trkpt><trkpt lat="31.28891566819541" lon="-7.176397823796943"><ele>1869.0</ele><time>2026-04-24T13:23:46Z</time></trkpt><trkpt lat="31.288948849092293" lon="-7.176234859203794"><ele>1864.0</ele><time>2026-04-24T13:23:47Z</time></trkpt><trkpt lat="31.288952933951844" lon="-7.176060505406093"><ele>1859.0</ele><time>2026-04-24T13:23:48Z</time></trkpt><trkpt lat="31.288943249984197" lon="-7.175882513886877"><ele>1854.0</ele><time>2026-04-24T13:23:49Z</time></trkpt><trkpt lat="31.288935703185256" lon="-7.1756928704925285"><ele>1852.6666666666665</ele><time>2026-04-24T13:23:50Z</time></trkpt><trkpt lat="31.2889454455662" lon="-7.17549018198935"><ele>1851.3333333333333</ele><time>2026-04-24T13:23:51Z</time></trkpt><trkpt lat="31.28897954327049" lon="-7.175296212312109"><ele>1850.0</ele><time>2026-04-24T13:23:52Z</time></trkpt><trkpt lat="31.289021783784282" lon="-7.17510525677141"><ele>1850.0</ele><time>2026-04-24T13:23:53Z</time></trkpt><trkpt lat="31.2890294722747" lon="-7.174913420139321"><ele>1850.0</ele><time>2026-04-24T13:23:54Z</time></trkpt><trkpt lat="31.288998467531854" lon="-7.174728693842232"><ele>1850.0</ele><time>2026-04-24T13:23:55Z</time></trkpt><trkpt lat="31.288945451889532" lon="-7.174551644760278"><ele>1854.0</ele><time>2026-04-24T13:23:56Z</time></trkpt><trkpt lat="31.288882926362174" lon="-7.174378013662506"><ele>1858.0</ele><time>2026-04-24T13:23:57Z</time></trkpt><trkpt lat="31.28882412501804" lon="-7.174197381163607"><ele>1862.0</ele><time>2026-04-24T13:23:58Z</time></trkpt><trkpt lat="31.288774472202963" lon="-7.174021228768662"><ele>1862.0</ele><time>2026-04-24T13:23:59Z</time></trkpt><trkpt lat="31.28873526546388" lon="-7.173843530179922"><ele>1862.0</ele><time>2026-04-24T13:24:00Z</time></trkpt><trkpt lat="31.288710511175715" lon="-7.173659268111489"><ele>1862.0</ele><time>2026-04-24T13:24:01Z</time></trkpt><trkpt lat="31.288709793952044" lon="-7.17347786780655"><ele>1862.0</ele><time>2026-04-24T13:24:02Z</time></trkpt><trkpt lat="31.28871712828489" lon="-7.173291479146465"><ele>1862.0</ele><time>2026-04-24T13:24:03Z</time></trkpt><trkpt lat="31.288716866849658" lon="-7.173113758255041"><ele>1862.0</ele><time>2026-04-24T13:24:04Z</time></trkpt><trkpt lat="31.28869757337361" lon="-7.172925535329251"><ele>1860.6666666666665</ele><time>2026-04-24T13:24:05Z</time></trkpt><trkpt lat="31.288656499213452" lon="-7.172731968543906"><ele>1859.3333333333335</ele><time>2026-04-24T13:24:06Z</time></trkpt><trkpt lat="31.288604419021652" lon="-7.172534029140575"><ele>1858.0</ele><time>2026-04-24T13:24:07Z</time></trkpt><trkpt lat="31.288553525123692" lon="-7.172328315102402"><ele>1854.3333333333335</ele><time>2026-04-24T13:24:08Z</time></trkpt><trkpt lat="31.28852041087401" lon="-7.17211118825204"><ele>1850.6666666666665</ele><time>2026-04-24T13:24:09Z</time></trkpt><trkpt lat="31.28849756755945" lon="-7.171888248414456"><ele>1847.0</ele><time>2026-04-24T13:24:10Z</time></trkpt><trkpt lat="31.288478268671707" lon="-7.171664607648818"><ele>1845.6666666666665</ele><time>2026-04-24T13:24:11Z</time></trkpt><trkpt lat="31.28846158627985" lon="-7.1714429166023965"><ele>1844.3333333333335</ele><time>2026-04-24T13:24:12Z</time></trkpt><trkpt lat="31.288445519983398" lon="-7.171230844333121"><ele>1843.0</ele><time>2026-04-24T13:24:13Z</time></trkpt><trkpt lat="31.288449640568846" lon="-7.171022053073725"><ele>1843.0</ele><time>2026-04-24T13:24:14Z</time></trkpt><trkpt lat="31.28846240592554" lon="-7.170817787682822"><ele>1843.0</ele><time>2026-04-24T13:24:15Z</time></trkpt><trkpt lat="31.28846373161644" lon="-7.170604256800022"><ele>1843.0</ele><time>2026-04-24T13:24:16Z</time></trkpt><trkpt lat="31.28844601386093" lon="-7.1703932967681085"><ele>1841.3333333333335</ele><time>2026-04-24T13:24:17Z</time></trkpt><trkpt lat="31.288395212626565" lon="-7.170185029473283"><ele>1839.6666666666665</ele><time>2026-04-24T13:24:18Z</time></trkpt><trkpt lat="31.2883250979236" lon="-7.169992453997197"><ele>1838.0</ele><time>2026-04-24T13:24:19Z</time></trkpt><trkpt lat="31.288256083241908" lon="-7.169810762767524"><ele>1836.0</ele><time>2026-04-24T13:24:20Z</time></trkpt><trkpt lat="31.288204718130196" lon="-7.169635184220579"><ele>1834.0</ele><time>2026-04-24T13:24:21Z</time></trkpt><trkpt lat="31.288183048461182" lon="-7.169454080054153"><ele>1832.0</ele><time>2026-04-24T13:24:22Z</time></trkpt><trkpt lat="31.288179498713212" lon="-7.169273042095837"><ele>1832.0</ele><time>2026-04-24T13:24:23Z</time></trkpt><trkpt lat="31.288212001387027" lon="-7.169092260779116"><ele>1832.0</ele><time>2026-04-24T13:24:24Z</time></trkpt><trkpt lat="31.288255134843265" lon="-7.1689091359829655"><ele>1832.0</ele><time>2026-04-24T13:24:25Z</time></trkpt><trkpt lat="31.288300789568247" lon="-7.168724776222007"><ele>1829.6666666666665</ele><time>2026-04-24T13:24:26Z</time></trkpt><trkpt lat="31.28832164759901" lon="-7.1685374346787984"><ele>1827.3333333333335</ele><time>2026-04-24T13:24:27Z</time></trkpt><trkpt lat="31.288317682497894" lon="-7.168338516325578"><ele>1825.0</ele><time>2026-04-24T13:24:28Z</time></trkpt><trkpt lat="31.288293223243173" lon="-7.168138096997738"><ele>1824.6666666666667</ele><time>2026-04-24T13:24:29Z</time></trkpt><trkpt lat="31.2882482427166" lon="-7.1679403876064045"><ele>1824.3333333333335</ele><time>2026-04-24T13:24:30Z</time></trkpt><trkpt lat="31.288184144781066" lon="-7.167745581959106"><ele>1824.0</ele><time>2026-04-24T13:24:31Z</time></trkpt><trkpt lat="31.28812760165921" lon="-7.16754893620078"><ele>1828.6666666666665</ele><time>2026-04-24T13:24:32Z</time></trkpt><trkpt lat="31.28808306011302" lon="-7.167331668699713"><ele>1833.3333333333333</ele><time>2026-04-24T13:24:33Z</time></trkpt><trkpt lat="31.28805384046544" lon="-7.167099994686227"><ele>1838.0</ele><time>2026-04-24T13:24:34Z</time></trkpt><trkpt lat="31.288035748077583" lon="-7.166860690455641"><ele>1838.0</ele><time>2026-04-24T13:24:35Z</time></trkpt><trkpt lat="31.288028882763268" lon="-7.166622352105478"><ele>1838.0</ele><time>2026-04-24T13:24:36Z</time></trkpt><trkpt lat="31.28802678564154" lon="-7.166378197105324"><ele>1838.0</ele><time>2026-04-24T13:24:37Z</time></trkpt><trkpt lat="31.288018954186374" lon="-7.166140094341676"><ele>1834.6666666666665</ele><time>2026-04-24T13:24:38Z</time></trkpt><trkpt lat="31.28801550911983" lon="-7.165909260677218"><ele>1831.3333333333335</ele><time>2026-04-24T13:24:39Z</time></trkpt><trkpt lat="31.28801139740906" lon="-7.165688145170484"><ele>1828.0</ele><time>2026-04-24T13:24:40Z</time></trkpt><trkpt lat="31.28800436452548" lon="-7.1654555657178"><ele>1828.0</ele><time>2026-04-24T13:24:41Z</time></trkpt><trkpt lat="31.287985590330972" lon="-7.165228999539816"><ele>1828.0</ele><time>2026-04-24T13:24:42Z</time></trkpt><trkpt lat="31.287958145751542" lon="-7.164996060151159"><ele>1828.0</ele><time>2026-04-24T13:24:43Z</time></trkpt><trkpt lat="31.287925730221826" lon="-7.164763126851586"><ele>1826.3333333333335</ele><time>2026-04-24T13:24:44Z</time></trkpt><trkpt lat="31.287890762685937" lon="-7.164532048473851"><ele>1824.6666666666665</ele><time>2026-04-24T13:24:45Z</time></trkpt><trkpt lat="31.28785573696698" lon="-7.164292242823198"><ele>1823.0</ele><time>2026-04-24T13:24:46Z</time></trkpt><trkpt lat="31.287817117445766" lon="-7.164046994971818"><ele>1820.6666666666665</ele><time>2026-04-24T13:24:47Z</time></trkpt><trkpt lat="31.287780836248476" lon="-7.163794817725153"><ele>1818.3333333333335</ele><time>2026-04-24T13:24:48Z</time></trkpt><trkpt lat="31.28774969370863" lon="-7.163551310781932"><ele>1816.0</ele><time>2026-04-24T13:24:49Z</time></trkpt><trkpt lat="31.287729290001593" lon="-7.163310658743472"><ele>1821.0</ele><time>2026-04-24T13:24:50Z</time></trkpt><trkpt lat="31.287733081801935" lon="-7.163064827817284"><ele>1826.0</ele><time>2026-04-24T13:24:51Z</time></trkpt><trkpt lat="31.287757646082895" lon="-7.1628202253329"><ele>1831.0</ele><time>2026-04-24T13:24:52Z</time></trkpt><trkpt lat="31.28779883144831" lon="-7.162574918849411"><ele>1830.3333333333335</ele><time>2026-04-24T13:24:53Z</time></trkpt><trkpt lat="31.28784710422004" lon="-7.162321211605273"><ele>1829.6666666666665</ele><time>2026-04-24T13:24:54Z</time></trkpt><trkpt lat="31.287893297785466" lon="-7.162064931771427"><ele>1829.0</ele><time>2026-04-24T13:24:55.001Z</time></trkpt><trkpt lat="31.287938585867067" lon="-7.161804664033005"><ele>1829.0</ele><time>2026-04-24T13:24:56.001Z</time></trkpt><trkpt lat="31.28798138198688" lon="-7.161541737346904"><ele>1829.0</ele><time>2026-04-24T13:24:57.001Z</time></trkpt><trkpt lat="31.288027367544018" lon="-7.161281537962662"><ele>1829.0</ele><time>2026-04-24T13:24:58.001Z</time></trkpt><trkpt lat="31.288067962336015" lon="-7.16102735771272"><ele>1829.0</ele><time>2026-04-24T13:24:59.001Z</time></trkpt><trkpt lat="31.28810070082795" lon="-7.160775520463569"><ele>1829.0</ele><time>2026-04-24T13:25:00.001Z</time></trkpt><trkpt lat="31.288131987426418" lon="-7.1605469093500975"><ele>1820.6666666666665</ele><time>2026-04-24T13:25:01.001Z</time></trkpt><trkpt lat="31.288164438358667" lon="-7.160347917994739"><ele>1812.3333333333335</ele><time>2026-04-24T13:25:02.001Z</time></trkpt><trkpt lat="31.28821291205349" lon="-7.160182017597387"><ele>1804.0</ele><time>2026-04-24T13:25:03.001Z</time></trkpt><trkpt lat="31.288279266100233" lon="-7.160032103665863"><ele>1804.0</ele><time>2026-04-24T13:25:04.001Z</time></trkpt><trkpt lat="31.28836333879661" lon="-7.1599134836213665"><ele>1804.0</ele><time>2026-04-24T13:25:05.001Z</time></trkpt><trkpt lat="31.288462445505804" lon="-7.159805315459929"><ele>1804.0</ele><time>2026-04-24T13:25:06.001Z</time></trkpt><trkpt lat="31.288556025213325" lon="-7.159699568324573"><ele>1804.0</ele><time>2026-04-24T13:25:07.001Z</time></trkpt><trkpt lat="31.288648922433765" lon="-7.159607919526143"><ele>1802.8000000000002</ele><time>2026-04-24T13:25:08.001Z</time></trkpt><trkpt lat="31.28872862306247" lon="-7.159520064130278"><ele>1801.6000000000001</ele><time>2026-04-24T13:25:09.001Z</time></trkpt><trkpt lat="31.288802231416774" lon="-7.159435378381574"><ele>1800.4</ele><time>2026-04-24T13:25:10.001Z</time></trkpt><trkpt lat="31.288872011049946" lon="-7.159348849717551"><ele>1799.2</ele><time>2026-04-24T13:25:11.001Z</time></trkpt><trkpt lat="31.288926713138807" lon="-7.159250843240839"><ele>1798.0</ele><time>2026-04-24T13:25:12.001Z</time></trkpt><trkpt lat="31.28897284333672" lon="-7.159148208613669"><ele>1798.0</ele><time>2026-04-24T13:25:13Z</time></trkpt><trkpt lat="31.28900409961224" lon="-7.159043895370726"><ele>1798.0000000000002</ele><time>2026-04-24T13:25:14Z</time></trkpt><trkpt lat="31.289022706170275" lon="-7.158933969418492"><ele>1798.0000000000002</ele><time>2026-04-24T13:25:15Z</time></trkpt><trkpt lat="31.28904586526789" lon="-7.158822770837874"><ele>1798.0</ele><time>2026-04-24T13:25:16Z</time></trkpt><trkpt lat="31.289066787726505" lon="-7.158705360919423"><ele>1798.0</ele><time>2026-04-24T13:25:17Z</time></trkpt><trkpt lat="31.289082647277066" lon="-7.158587994448175"><ele>1797.4</ele><time>2026-04-24T13:25:18Z</time></trkpt><trkpt lat="31.289101346679413" lon="-7.158482090043906"><ele>1796.8000000000002</ele><time>2026-04-24T13:25:19Z</time></trkpt><trkpt lat="31.2891169450275" lon="-7.158377234550418"><ele>1796.2</ele><time>2026-04-24T13:25:20Z</time></trkpt><trkpt lat="31.289117228748182" lon="-7.158270227206609"><ele>1795.6</ele><time>2026-04-24T13:25:21Z</time></trkpt><trkpt lat="31.289106293951015" lon="-7.158157805528885"><ele>1795.0</ele><time>2026-04-24T13:25:22Z</time></trkpt><trkpt lat="31.28908797730148" lon="-7.158065064212905"><ele>1794.3333333333335</ele><time>2026-04-24T13:25:23Z</time></trkpt><trkpt lat="31.289065511541054" lon="-7.157984827479377"><ele>1793.6666666666667</ele><time>2026-04-24T13:25:24Z</time></trkpt><trkpt lat="31.289042172272822" lon="-7.157904754204614"><ele>1793.0</ele><time>2026-04-24T13:25:25Z</time></trkpt><trkpt lat="31.289021046942487" lon="-7.157827361531049"><ele>1792.3333333333335</ele><time>2026-04-24T13:25:26Z</time></trkpt><trkpt lat="31.28900499171423" lon="-7.157754097875236"><ele>1791.6666666666667</ele><time>2026-04-24T13:25:27Z</time></trkpt><trkpt lat="31.288991969383815" lon="-7.157678958623516"><ele>1791.0</ele><time>2026-04-24T13:25:28Z</time></trkpt><trkpt lat="31.288977083359246" lon="-7.157537371072107"><ele>1791.0</ele><time>2026-04-24T13:25:30Z</time></trkpt><trkpt lat="31.288969556155095" lon="-7.157449802006559"><ele>1791.0</ele><time>2026-04-24T13:25:32Z</time></trkpt><trkpt lat="31.28895719529447" lon="-7.157364343865818"><ele>1791.0</ele><time>2026-04-24T13:25:36Z</time></trkpt><trkpt lat="31.28895718081035" lon="-7.157282225165632"><ele>1791.0</ele><time>2026-04-24T13:27:30Z</time></trkpt><trkpt lat="31.288957704334084" lon="-7.157187549324187"><ele>1791.0</ele><time>2026-04-24T13:27:32Z</time></trkpt><trkpt lat="31.288958144417546" lon="-7.157113384174348"><ele>1791.0</ele><time>2026-04-24T13:27:33Z</time></trkpt><trkpt lat="31.2889564707669" lon="-7.157023081513315"><ele>1791.0</ele><time>2026-04-24T13:27:34Z</time></trkpt><trkpt lat="31.288950393405642" lon="-7.156918639670897"><ele>1790.8</ele><time>2026-04-24T13:27:35Z</time></trkpt><trkpt lat="31.28894066387901" lon="-7.1568067808205065"><ele>1790.6</ele><time>2026-04-24T13:27:36Z</time></trkpt><trkpt lat="31.28893054486368" lon="-7.156689485558024"><ele>1790.4</ele><time>2026-04-24T13:27:37Z</time></trkpt><trkpt lat="31.288919156033923" lon="-7.156571134405699"><ele>1790.2</ele><time>2026-04-24T13:27:38Z</time></trkpt><trkpt lat="31.288896111261117" lon="-7.156438915771438"><ele>1790.0</ele><time>2026-04-24T13:27:39Z</time></trkpt><trkpt lat="31.288861043851735" lon="-7.156301073556307"><ele>1793.0</ele><time>2026-04-24T13:27:40Z</time></trkpt><trkpt lat="31.28881982672012" lon="-7.156161319280226"><ele>1796.0</ele><time>2026-04-24T13:27:41Z</time></trkpt><trkpt lat="31.288762396009442" lon="-7.156017399455864"><ele>1799.0</ele><time>2026-04-24T13:27:42Z</time></trkpt><trkpt lat="31.28869130404452" lon="-7.155874286042644"><ele>1802.0</ele><time>2026-04-24T13:27:43Z</time></trkpt><trkpt lat="31.28861292942551" lon="-7.1557292204364416"><ele>1797.3333333333333</ele><time>2026-04-24T13:27:44Z</time></trkpt><trkpt lat="31.288531298955853" lon="-7.155583663124183"><ele>1792.6666666666665</ele><time>2026-04-24T13:27:45Z</time></trkpt><trkpt lat="31.288447777823386" lon="-7.155435304866519"><ele>1788.0</ele><time>2026-04-24T13:27:46Z</time></trkpt><trkpt lat="31.288362334637423" lon="-7.155281864151176"><ele>1788.0</ele><time>2026-04-24T13:27:47Z</time></trkpt><trkpt lat="31.288278374509076" lon="-7.155128579518814"><ele>1788.0</ele><time>2026-04-24T13:27:48Z</time></trkpt><trkpt lat="31.288194288663895" lon="-7.154976027839666"><ele>1788.0</ele><time>2026-04-24T13:27:49Z</time></trkpt><trkpt lat="31.288111478849785" lon="-7.154826152949892"><ele>1789.3333333333335</ele><time>2026-04-24T13:27:50Z</time></trkpt><trkpt lat="31.288026122488176" lon="-7.154682946399039"><ele>1790.6666666666667</ele><time>2026-04-24T13:27:51Z</time></trkpt><trkpt lat="31.28793043537529" lon="-7.154549549411649"><ele>1792.0</ele><time>2026-04-24T13:27:52Z</time></trkpt><trkpt lat="31.287818908533776" lon="-7.154429451340968"><ele>1792.0</ele><time>2026-04-24T13:27:53Z</time></trkpt><trkpt lat="31.28769427768913" lon="-7.154320900045938"><ele>1792.0</ele><time>2026-04-24T13:27:54Z</time></trkpt><trkpt lat="31.28756600766851" lon="-7.154218054475886"><ele>1792.0</ele><time>2026-04-24T13:27:55Z</time></trkpt><trkpt lat="31.287438617304364" lon="-7.154128581421715"><ele>1792.0</ele><time>2026-04-24T13:27:56Z</time></trkpt><trkpt lat="31.28731151368263" lon="-7.154039978924997"><ele>1792.0</ele><time>2026-04-24T13:27:57Z</time></trkpt><trkpt lat="31.287198111753906" lon="-7.153946439486494"><ele>1792.0</ele><time>2026-04-24T13:27:58Z</time></trkpt><trkpt lat="31.287100268241097" lon="-7.153839611051284"><ele>1792.0</ele><time>2026-04-24T13:27:59Z</time></trkpt><trkpt lat="31.287022998775907" lon="-7.15371326873367"><ele>1796.3333333333335</ele><time>2026-04-24T13:28:00Z</time></trkpt><trkpt lat="31.28695578194852" lon="-7.1535730149330625"><ele>1800.6666666666665</ele><time>2026-04-24T13:28:01Z</time></trkpt><trkpt lat="31.28691843843674" lon="-7.153399520548468"><ele>1805.0</ele><time>2026-04-24T13:28:02Z</time></trkpt><trkpt lat="31.286889970845195" lon="-7.153214434603125"><ele>1805.3333333333333</ele><time>2026-04-24T13:28:03Z</time></trkpt><trkpt lat="31.286901195066584" lon="-7.1530158752299835"><ele>1805.6666666666665</ele><time>2026-04-24T13:28:04Z</time></trkpt><trkpt lat="31.286925826110128" lon="-7.152806680591677"><ele>1806.0</ele><time>2026-04-24T13:28:05Z</time></trkpt><trkpt lat="31.286951767508974" lon="-7.152589516131002"><ele>1805.6666666666665</ele><time>2026-04-24T13:28:06Z</time></trkpt><trkpt lat="31.28697927979522" lon="-7.152366951957537"><ele>1805.3333333333333</ele><time>2026-04-24T13:28:07Z</time></trkpt><trkpt lat="31.287008433739967" lon="-7.152144902893814"><ele>1805.0</ele><time>2026-04-24T13:28:08Z</time></trkpt><trkpt lat="31.287038028389247" lon="-7.151921764582165"><ele>1805.0</ele><time>2026-04-24T13:28:09Z</time></trkpt><trkpt lat="31.28706539389618" lon="-7.151704793290171"><ele>1805.0</ele><time>2026-04-24T13:28:10Z</time></trkpt><trkpt lat="31.287089289031066" lon="-7.151499212082307"><ele>1805.0</ele><time>2026-04-24T13:28:11Z</time></trkpt><trkpt lat="31.287108727519794" lon="-7.1512954484340705"><ele>1803.3333333333333</ele><time>2026-04-24T13:28:12Z</time></trkpt><trkpt lat="31.28712268465555" lon="-7.151091281018835"><ele>1801.6666666666665</ele><time>2026-04-24T13:28:13Z</time></trkpt><trkpt lat="31.287134148841606" lon="-7.150893934800836"><ele>1800.0</ele><time>2026-04-24T13:28:14Z</time></trkpt><trkpt lat="31.287132791730958" lon="-7.150702300389469"><ele>1793.6666666666665</ele><time>2026-04-24T13:28:15Z</time></trkpt><trkpt lat="31.287128007175088" lon="-7.1505106718098"><ele>1787.3333333333333</ele><time>2026-04-24T13:28:16Z</time></trkpt><trkpt lat="31.28712833963474" lon="-7.150328646703128"><ele>1781.0</ele><time>2026-04-24T13:28:17Z</time></trkpt><trkpt lat="31.28712013534482" lon="-7.150159230635988"><ele>1781.0</ele><time>2026-04-24T13:28:18Z</time></trkpt><trkpt lat="31.28709060617124" lon="-7.149993880330688"><ele>1781.0</ele><time>2026-04-24T13:28:19Z</time></trkpt><trkpt lat="31.287043722162128" lon="-7.149856106336967"><ele>1781.0</ele><time>2026-04-24T13:28:20Z</time></trkpt><trkpt lat="31.286971909719227" lon="-7.149725600102824"><ele>1781.0</ele><time>2026-04-24T13:28:21Z</time></trkpt><trkpt lat="31.286875536630802" lon="-7.149612665141143"><ele>1777.75</ele><time>2026-04-24T13:28:22Z</time></trkpt><trkpt lat="31.286759961190757" lon="-7.149520807573218"><ele>1774.5</ele><time>2026-04-24T13:28:22.999Z</time></trkpt><trkpt lat="31.286639254578493" lon="-7.149444963562964"><ele>1771.25</ele><time>2026-04-24T13:28:23.999Z</time></trkpt><trkpt lat="31.286515054765506" lon="-7.149387497955446"><ele>1768.0</ele><time>2026-04-24T13:28:24.999Z</time></trkpt><trkpt lat="31.286390062702317" lon="-7.149350593261878"><ele>1767.0</ele><time>2026-04-24T13:28:25.999Z</time></trkpt><trkpt lat="31.28626024725543" lon="-7.149332718046353"><ele>1766.0</ele><time>2026-04-24T13:28:26.999Z</time></trkpt><trkpt lat="31.286123241204212" lon="-7.149345517372596"><ele>1765.0</ele><time>2026-04-24T13:28:27.999Z</time></trkpt><trkpt lat="31.285977361324093" lon="-7.149378416725705"><ele>1764.0</ele><time>2026-04-24T13:28:28.999Z</time></trkpt><trkpt lat="31.285829475490345" lon="-7.149422977728942"><ele>1764.0</ele><time>2026-04-24T13:28:29.999Z</time></trkpt><trkpt lat="31.285671492971655" lon="-7.14947624810266"><ele>1764.0</ele><time>2026-04-24T13:28:30.999Z</time></trkpt><trkpt lat="31.28551702748326" lon="-7.14952936247574"><ele>1764.0</ele><time>2026-04-24T13:28:31.999Z</time></trkpt><trkpt lat="31.285365194909552" lon="-7.149587978341661"><ele>1764.0</ele><time>2026-04-24T13:28:32.999Z</time></trkpt><trkpt lat="31.28524199866972" lon="-7.149639261300084"><ele>1764.0</ele><time>2026-04-24T13:28:33.999Z</time></trkpt><trkpt lat="31.28514537496474" lon="-7.149686736484133"><ele>1764.0</ele><time>2026-04-24T13:28:34.999Z</time></trkpt><trkpt lat="31.285079756737506" lon="-7.149737864703015"><ele>1764.0</ele><time>2026-04-24T13:28:35.999Z</time></trkpt><trkpt lat="31.285027172757218" lon="-7.149793041593566"><ele>1764.0</ele><time>2026-04-24T13:28:36.999Z</time></trkpt><trkpt lat="31.284981688296803" lon="-7.149872360517691"><ele>1764.6</ele><time>2026-04-24T13:28:37.999Z</time></trkpt><trkpt lat="31.284949429044428" lon="-7.149967662433489"><ele>1765.2</ele><time>2026-04-24T13:28:38.999Z</time></trkpt><trkpt lat="31.284911898974624" lon="-7.150067185283482"><ele>1765.7999999999997</ele><time>2026-04-24T13:28:39.999Z</time></trkpt><trkpt lat="31.284863280188958" lon="-7.150166937270195"><ele>1766.3999999999999</ele><time>2026-04-24T13:28:40.999Z</time></trkpt><trkpt lat="31.284799677723512" lon="-7.15027106379468"><ele>1767.0</ele><time>2026-04-24T13:28:41.999Z</time></trkpt><trkpt lat="31.28472646318171" lon="-7.150369812441295"><ele>1767.0</ele><time>2026-04-24T13:28:42.999Z</time></trkpt><trkpt lat="31.284632893143986" lon="-7.150463641758792"><ele>1767.0</ele><time>2026-04-24T13:28:43.999Z</time></trkpt><trkpt lat="31.284531812833567" lon="-7.150561207260209"><ele>1767.0</ele><time>2026-04-24T13:28:44.999Z</time></trkpt><trkpt lat="31.284426002506844" lon="-7.150644270329809"><ele>1767.0</ele><time>2026-04-24T13:28:45.999Z</time></trkpt><trkpt lat="31.284336231838136" lon="-7.150728243569438"><ele>1767.0</ele><time>2026-04-24T13:28:46.999Z</time></trkpt><trkpt lat="31.28425279046093" lon="-7.150803152311418"><ele>1766.9999999999998</ele><time>2026-04-24T13:28:47.999Z</time></trkpt><trkpt lat="31.28417425113194" lon="-7.15087756612807"><ele>1766.9999999999998</ele><time>2026-04-24T13:28:48.999Z</time></trkpt><trkpt lat="31.28409705689585" lon="-7.150942611339155"><ele>1767.0</ele><time>2026-04-24T13:28:49.999Z</time></trkpt><trkpt lat="31.28400818968643" lon="-7.150975992510141"><ele>1767.0</ele><time>2026-04-24T13:28:50.999Z</time></trkpt><trkpt lat="31.28391599574355" lon="-7.150976457534756"><ele>1765.8</ele><time>2026-04-24T13:28:51.999Z</time></trkpt><trkpt lat="31.283817074832225" lon="-7.150943051712019"><ele>1764.6</ele><time>2026-04-24T13:28:52.999Z</time></trkpt><trkpt lat="31.28371570173351" lon="-7.150888273696442"><ele>1763.3999999999999</ele><time>2026-04-24T13:28:53.999Z</time></trkpt><trkpt lat="31.283615884712233" lon="-7.150822928679962"><ele>1762.1999999999998</ele><time>2026-04-24T13:28:54.999Z</time></trkpt><trkpt lat="31.283518833880915" lon="-7.150748723386416"><ele>1761.0</ele><time>2026-04-24T13:28:55.999Z</time></trkpt><trkpt lat="31.283422003039817" lon="-7.150681561886604"><ele>1761.0</ele><time>2026-04-24T13:28:56.999Z</time></trkpt><trkpt lat="31.283311841961993" lon="-7.1506370438010824"><ele>1761.0</ele><time>2026-04-24T13:28:57.999Z</time></trkpt><trkpt lat="31.28318766858514" lon="-7.1506029311762624"><ele>1761.0</ele><time>2026-04-24T13:28:58.999Z</time></trkpt><trkpt lat="31.283057514235672" lon="-7.15059707907119"><ele>1761.0</ele><time>2026-04-24T13:28:59.999Z</time></trkpt><trkpt lat="31.282920660348545" lon="-7.150599298237005"><ele>1760.0</ele><time>2026-04-24T13:29:00.999Z</time></trkpt><trkpt lat="31.282780361833986" lon="-7.150606655666211"><ele>1759.0</ele><time>2026-04-24T13:29:01.999Z</time></trkpt><trkpt lat="31.28263813840914" lon="-7.150615202239352"><ele>1758.0</ele><time>2026-04-24T13:29:02.999Z</time></trkpt><trkpt lat="31.282492935988166" lon="-7.1506111193235435"><ele>1757.0</ele><time>2026-04-24T13:29:03.999Z</time></trkpt><trkpt lat="31.28235344184047" lon="-7.150594911121257"><ele>1756.8</ele><time>2026-04-24T13:29:04.999Z</time></trkpt><trkpt lat="31.282236022640397" lon="-7.150578266321572"><ele>1756.6</ele><time>2026-04-24T13:29:06Z</time></trkpt><trkpt lat="31.28212597757072" lon="-7.150561401406861"><ele>1756.3999999999999</ele><time>2026-04-24T13:29:07Z</time></trkpt><trkpt lat="31.28201946565735" lon="-7.15055191642868"><ele>1756.1999999999998</ele><time>2026-04-24T13:29:08Z</time></trkpt><trkpt lat="31.281911398386057" lon="-7.150555367537348"><ele>1756.0</ele><time>2026-04-24T13:29:09Z</time></trkpt><trkpt lat="31.281799570833655" lon="-7.1505700738057065"><ele>1756.0</ele><time>2026-04-24T13:29:10Z</time></trkpt><trkpt lat="31.281684804008393" lon="-7.150585658580422"><ele>1756.0</ele><time>2026-04-24T13:29:11Z</time></trkpt><trkpt lat="31.281567188273353" lon="-7.150594152432969"><ele>1756.0</ele><time>2026-04-24T13:29:12Z</time></trkpt><trkpt lat="31.281447006330016" lon="-7.1505958540645125"><ele>1756.0</ele><time>2026-04-24T13:29:13Z</time></trkpt><trkpt lat="31.281325270736193" lon="-7.150594079594772"><ele>1755.75</ele><time>2026-04-24T13:29:14Z</time></trkpt><trkpt lat="31.281202213507857" lon="-7.150592164180313"><ele>1755.5</ele><time>2026-04-24T13:29:15Z</time></trkpt><trkpt lat="31.281081109853368" lon="-7.150591448989902"><ele>1755.25</ele><time>2026-04-24T13:29:16Z</time></trkpt><trkpt lat="31.280962224473882" lon="-7.150592071271941"><ele>1755.0</ele><time>2026-04-24T13:29:17Z</time></trkpt><trkpt lat="31.28084561277061" lon="-7.150595010148371"><ele>1755.0</ele><time>2026-04-24T13:29:18Z</time></trkpt><trkpt lat="31.28072991522325" lon="-7.150597677162746"><ele>1755.0</ele><time>2026-04-24T13:29:19Z</time></trkpt><trkpt lat="31.280613486588933" lon="-7.150599537286119"><ele>1755.0</ele><time>2026-04-24T13:29:20Z</time></trkpt><trkpt lat="31.280496043555402" lon="-7.150600625381558"><ele>1755.0</ele><time>2026-04-24T13:29:21Z</time></trkpt><trkpt lat="31.280376948008072" lon="-7.150601866672631"><ele>1755.5</ele><time>2026-04-24T13:29:22Z</time></trkpt><trkpt lat="31.280257310322174" lon="-7.150599374621134"><ele>1756.0</ele><time>2026-04-24T13:29:23Z</time></trkpt><trkpt lat="31.28013686226116" lon="-7.15059682647035"><ele>1756.5</ele><time>2026-04-24T13:29:24Z</time></trkpt><trkpt lat="31.28001578850018" lon="-7.15059642226379"><ele>1757.0</ele><time>2026-04-24T13:29:25Z</time></trkpt><trkpt lat="31.2798886853409" lon="-7.150594076335822"><ele>1756.5</ele><time>2026-04-24T13:29:26Z</time></trkpt><trkpt lat="31.279752043301347" lon="-7.150590611136066"><ele>1756.0</ele><time>2026-04-24T13:29:27Z</time></trkpt><trkpt lat="31.279612480401696" lon="-7.150589464838037"><ele>1755.5</ele><time>2026-04-24T13:29:28Z</time></trkpt><trkpt lat="31.279468770791347" lon="-7.150592166636613"><ele>1755.0</ele><time>2026-04-24T13:29:29Z</time></trkpt><trkpt lat="31.27932503239278" lon="-7.150592276855972"><ele>1755.0</ele><time>2026-04-24T13:29:30Z</time></trkpt><trkpt lat="31.279180530787006" lon="-7.1505931959591305"><ele>1755.0</ele><time>2026-04-24T13:29:31Z</time></trkpt><trkpt lat="31.279037892759195" lon="-7.150601402938188"><ele>1755.0</ele><time>2026-04-24T13:29:32Z</time></trkpt><trkpt lat="31.2789011020779" lon="-7.150619471899834"><ele>1755.0</ele><time>2026-04-24T13:29:33Z</time></trkpt><trkpt lat="31.278772574600847" lon="-7.15064214112481"><ele>1755.2</ele><time>2026-04-24T13:29:34Z</time></trkpt><trkpt lat="31.27865067019547" lon="-7.150653156139675"><ele>1755.4</ele><time>2026-04-24T13:29:35Z</time></trkpt><trkpt lat="31.27853902644619" lon="-7.150639341564123"><ele>1755.6</ele><time>2026-04-24T13:29:36Z</time></trkpt><trkpt lat="31.27844146370871" lon="-7.150609882106675"><ele>1755.8</ele><time>2026-04-24T13:29:37Z</time></trkpt><trkpt lat="31.278351840869494" lon="-7.150587344582376"><ele>1756.0</ele><time>2026-04-24T13:29:38Z</time></trkpt><trkpt lat="31.27826797904599" lon="-7.15058918334829"><ele>1756.0</ele><time>2026-04-24T13:29:39Z</time></trkpt><trkpt lat="31.278188149103965" lon="-7.15061283527529"><ele>1756.0</ele><time>2026-04-24T13:29:40Z</time></trkpt><trkpt lat="31.27811063704309" lon="-7.1506529235639675"><ele>1756.0</ele><time>2026-04-24T13:29:41Z</time></trkpt><trkpt lat="31.278032821025565" lon="-7.150708313309944"><ele>1756.0</ele><time>2026-04-24T13:29:42Z</time></trkpt><trkpt lat="31.277958525550748" lon="-7.150780839903359"><ele>1756.0</ele><time>2026-04-24T13:29:43Z</time></trkpt><trkpt lat="31.27788667111081" lon="-7.150867377581247"><ele>1758.1999999999998</ele><time>2026-04-24T13:29:44Z</time></trkpt><trkpt lat="31.277814282634683" lon="-7.1509558950512915"><ele>1760.3999999999999</ele><time>2026-04-24T13:29:45Z</time></trkpt><trkpt lat="31.277745559661042" lon="-7.151048329020633"><ele>1762.6</ele><time>2026-04-24T13:29:46Z</time></trkpt><trkpt lat="31.277692987694497" lon="-7.151145529572984"><ele>1764.8</ele><time>2026-04-24T13:29:47Z</time></trkpt><trkpt lat="31.277665018516014" lon="-7.151250329342424"><ele>1767.0</ele><time>2026-04-24T13:29:48Z</time></trkpt><trkpt lat="31.277660745029255" lon="-7.151359716870973"><ele>1767.0</ele><time>2026-04-24T13:29:49Z</time></trkpt><trkpt lat="31.27766271560309" lon="-7.151475408722347"><ele>1767.0</ele><time>2026-04-24T13:29:50Z</time></trkpt><trkpt lat="31.277653414723737" lon="-7.151602681271734"><ele>1767.0</ele><time>2026-04-24T13:29:51Z</time></trkpt><trkpt lat="31.277669029575566" lon="-7.151750951209387"><ele>1767.0</ele><time>2026-04-24T13:29:52Z</time></trkpt><trkpt lat="31.277638823029964" lon="-7.151892241124739"><ele>1768.25</ele><time>2026-04-24T13:29:53Z</time></trkpt><trkpt lat="31.277601614433504" lon="-7.1520390343050035"><ele>1769.5</ele><time>2026-04-24T13:29:54Z</time></trkpt><trkpt lat="31.277563560805334" lon="-7.15217995446706"><ele>1770.75</ele><time>2026-04-24T13:29:55Z</time></trkpt><trkpt lat="31.27752686437862" lon="-7.152311107980369"><ele>1772.0</ele><time>2026-04-24T13:29:56Z</time></trkpt><trkpt lat="31.277492153993116" lon="-7.152431928195942"><ele>1772.1999999999998</ele><time>2026-04-24T13:29:57Z</time></trkpt><trkpt lat="31.277450179745973" lon="-7.152544887731549"><ele>1772.3999999999999</ele><time>2026-04-24T13:29:58Z</time></trkpt><trkpt lat="31.277391850866188" lon="-7.1526475786858725"><ele>1772.6000000000001</ele><time>2026-04-24T13:29:59Z</time></trkpt><trkpt lat="31.2773313229836" lon="-7.1527047696703265"><ele>1772.8000000000002</ele><time>2026-04-24T13:30:00Z</time></trkpt><trkpt lat="31.277217935643716" lon="-7.152695879433358"><ele>1773.0</ele><time>2026-04-24T13:30:01Z</time></trkpt><trkpt lat="31.277154326306636" lon="-7.152650337502416"><ele>1773.4</ele><time>2026-04-24T13:30:02Z</time></trkpt><trkpt lat="31.27709295232057" lon="-7.152572029569259"><ele>1773.8000000000002</ele><time>2026-04-24T13:30:03Z</time></trkpt><trkpt lat="31.277034156408376" lon="-7.152477823667317"><ele>1774.2</ele><time>2026-04-24T13:30:03.999Z</time></trkpt><trkpt lat="31.276971143252005" lon="-7.152374996816157"><ele>1774.6</ele><time>2026-04-24T13:30:04.999Z</time></trkpt><trkpt lat="31.276898237647366" lon="-7.152276891321504"><ele>1775.0</ele><time>2026-04-24T13:30:05.999Z</time></trkpt><trkpt lat="31.276809734083965" lon="-7.1521916577281"><ele>1774.9999999999998</ele><time>2026-04-24T13:30:06.999Z</time></trkpt><trkpt lat="31.276711975356594" lon="-7.152125367553407"><ele>1775.0</ele><time>2026-04-24T13:30:07.999Z</time></trkpt><trkpt lat="31.276619110933883" lon="-7.152075587978979"><ele>1775.0</ele><time>2026-04-24T13:30:08.999Z</time></trkpt><trkpt lat="31.276538790512863" lon="-7.152038686472152"><ele>1775.0</ele><time>2026-04-24T13:30:09.999Z</time></trkpt><trkpt lat="31.276468843668766" lon="-7.152010635247585"><ele>1774.9999999999998</ele><time>2026-04-24T13:30:10.999Z</time></trkpt><trkpt lat="31.27640441838533" lon="-7.1519897363877325"><ele>1775.0</ele><time>2026-04-24T13:30:11.999Z</time></trkpt><trkpt lat="31.27634350944692" lon="-7.151970803053822"><ele>1775.9999999999998</ele><time>2026-04-24T13:30:12.999Z</time></trkpt><trkpt lat="31.276281687970087" lon="-7.1519503243562"><ele>1777.0</ele><time>2026-04-24T13:30:13.999Z</time></trkpt><trkpt lat="31.27620649691111" lon="-7.151950904319583"><ele>1778.0</ele><time>2026-04-24T13:30:14.999Z</time></trkpt><trkpt lat="31.276126799883397" lon="-7.1519410794308325"><ele>1779.0</ele><time>2026-04-24T13:30:15.999Z</time></trkpt><trkpt lat="31.27603932396161" lon="-7.1519286529436465"><ele>1779.9999999999998</ele><time>2026-04-24T13:30:16.999Z</time></trkpt><trkpt lat="31.275948336159182" lon="-7.151915770145026"><ele>1781.0</ele><time>2026-04-24T13:30:17.999Z</time></trkpt><trkpt lat="31.275851113201657" lon="-7.151903393447877"><ele>1781.0</ele><time>2026-04-24T13:30:18.999Z</time></trkpt><trkpt lat="31.275748283362642" lon="-7.151898723910039"><ele>1781.0</ele><time>2026-04-24T13:30:19.999Z</time></trkpt><trkpt lat="31.27565122291467" lon="-7.151893049346882"><ele>1781.0</ele><time>2026-04-24T13:30:20.999Z</time></trkpt><trkpt lat="31.27556068216891" lon="-7.151889633633473"><ele>1781.0</ele><time>2026-04-24T13:30:21.999Z</time></trkpt><trkpt lat="31.275474993708496" lon="-7.151884931709777"><ele>1781.0</ele><time>2026-04-24T13:30:22.999Z</time></trkpt><trkpt lat="31.275396276900874" lon="-7.151881621967497"><ele>1779.1999999999998</ele><time>2026-04-24T13:30:23.999Z</time></trkpt><trkpt lat="31.275314614370018" lon="-7.151881621969122"><ele>1777.3999999999999</ele><time>2026-04-24T13:30:24.999Z</time></trkpt><trkpt lat="31.275235113479162" lon="-7.151890071511737"><ele>1775.6</ele><time>2026-04-24T13:30:25.999Z</time></trkpt><trkpt lat="31.27514544058835" lon="-7.15192371715089"><ele>1773.8</ele><time>2026-04-24T13:30:26.999Z</time></trkpt><trkpt lat="31.275053007975966" lon="-7.151982878004213"><ele>1772.0</ele><time>2026-04-24T13:30:27.999Z</time></trkpt><trkpt lat="31.274953086252506" lon="-7.15203753616996"><ele>1772.0</ele><time>2026-04-24T13:30:28.999Z</time></trkpt><trkpt lat="31.274844426627705" lon="-7.152079446052189"><ele>1771.9999999999998</ele><time>2026-04-24T13:30:29.999Z</time></trkpt><trkpt lat="31.274738517272947" lon="-7.152089203552224"><ele>1771.9999999999998</ele><time>2026-04-24T13:30:30.999Z</time></trkpt><trkpt lat="31.274631225767273" lon="-7.152075667519294"><ele>1772.0</ele><time>2026-04-24T13:30:31.999Z</time></trkpt><trkpt lat="31.27453267577316" lon="-7.152050044153826"><ele>1772.0</ele><time>2026-04-24T13:30:32.999Z</time></trkpt><trkpt lat="31.27443990003969" lon="-7.152006637265068"><ele>1770.0</ele><time>2026-04-24T13:30:33.999Z</time></trkpt><trkpt lat="31.2743356889479" lon="-7.152019656131598"><ele>1767.9999999999998</ele><time>2026-04-24T13:30:34.999Z</time></trkpt><trkpt lat="31.274231536135115" lon="-7.1520555187989405"><ele>1765.9999999999998</ele><time>2026-04-24T13:30:35.999Z</time></trkpt><trkpt lat="31.27413288229686" lon="-7.152120369102136"><ele>1764.0</ele><time>2026-04-24T13:30:36.999Z</time></trkpt><trkpt lat="31.27401987929842" lon="-7.152165277001585"><ele>1762.0</ele><time>2026-04-24T13:30:37.999Z</time></trkpt><trkpt lat="31.27389828513029" lon="-7.152183201594766"><ele>1760.6</ele><time>2026-04-24T13:30:38.999Z</time></trkpt><trkpt lat="31.273778712578846" lon="-7.15216879762557"><ele>1759.1999999999998</ele><time>2026-04-24T13:30:39.999Z</time></trkpt><trkpt lat="31.273671390083322" lon="-7.152161696433796"><ele>1757.8</ele><time>2026-04-24T13:30:40.999Z</time></trkpt><trkpt lat="31.27358550523322" lon="-7.15217293946549"><ele>1756.4</ele><time>2026-04-24T13:30:41.999Z</time></trkpt><trkpt lat="31.27349797136751" lon="-7.152226187596791"><ele>1755.0</ele><time>2026-04-24T13:30:43.999Z</time></trkpt><trkpt lat="31.2734124235268" lon="-7.152329007046583"><ele>1756.6</ele><time>2026-04-24T13:30:45.999Z</time></trkpt><trkpt lat="31.273348376047505" lon="-7.15240310336917"><ele>1758.2</ele><time>2026-04-24T13:30:46.999Z</time></trkpt><trkpt lat="31.273251485965538" lon="-7.152471300373167"><ele>1759.8000000000002</ele><time>2026-04-24T13:30:47.999Z</time></trkpt><trkpt lat="31.27313741836123" lon="-7.152494366555693"><ele>1761.4</ele><time>2026-04-24T13:30:48.999Z</time></trkpt><trkpt lat="31.27303130601108" lon="-7.152489283907075"><ele>1763.0</ele><time>2026-04-24T13:30:49.999Z</time></trkpt><trkpt lat="31.27292995031305" lon="-7.152484863713184"><ele>1763.0</ele><time>2026-04-24T13:30:50.999Z</time></trkpt><trkpt lat="31.272828184468697" lon="-7.152480114939315"><ele>1763.0000000000002</ele><time>2026-04-24T13:30:51.999Z</time></trkpt><trkpt lat="31.272729003476933" lon="-7.152476529518921"><ele>1763.0000000000002</ele><time>2026-04-24T13:30:52.999Z</time></trkpt><trkpt lat="31.27262822462987" lon="-7.152472778504745"><ele>1763.0</ele><time>2026-04-24T13:30:53.999Z</time></trkpt><trkpt lat="31.272537420077672" lon="-7.1525075727513965"><ele>1763.0</ele><time>2026-04-24T13:30:54.999Z</time></trkpt><trkpt lat="31.27246472854188" lon="-7.152572844498241"><ele>1762.9999999999998</ele><time>2026-04-24T13:30:55.999Z</time></trkpt><trkpt lat="31.272391642392403" lon="-7.1526318147356145"><ele>1763.0</ele><time>2026-04-24T13:30:56.999Z</time></trkpt><trkpt lat="31.2723236635009" lon="-7.152685452788997"><ele>1763.0</ele><time>2026-04-24T13:30:57.999Z</time></trkpt><trkpt lat="31.272261788379083" lon="-7.152720993341999"><ele>1763.0</ele><time>2026-04-24T13:30:58.999Z</time></trkpt><trkpt lat="31.272187103707758" lon="-7.1527435670725845"><ele>1762.9999999999998</ele><time>2026-04-24T13:30:59.999Z</time></trkpt><trkpt lat="31.272105328728422" lon="-7.152729410814449"><ele>1763.0</ele><time>2026-04-24T13:31:00.999Z</time></trkpt><trkpt lat="31.27203524324844" lon="-7.152684413042011"><ele>1763.2</ele><time>2026-04-24T13:31:01.999Z</time></trkpt><trkpt lat="31.271962858162365" lon="-7.152634312541789"><ele>1763.4</ele><time>2026-04-24T13:31:02.999Z</time></trkpt><trkpt lat="31.271892210449163" lon="-7.152572144994814"><ele>1763.6000000000001</ele><time>2026-04-24T13:31:03.999Z</time></trkpt><trkpt lat="31.27181550454783" lon="-7.152508485212925"><ele>1763.8000000000002</ele><time>2026-04-24T13:31:04.999Z</time></trkpt><trkpt lat="31.271732803373283" lon="-7.152441986596198"><ele>1764.0</ele><time>2026-04-24T13:31:05.999Z</time></trkpt><trkpt lat="31.27163614144744" lon="-7.1524128021001365"><ele>1764.0</ele><time>2026-04-24T13:31:06.999Z</time></trkpt><trkpt lat="31.271522968017184" lon="-7.1523980755330765"><ele>1764.0</ele><time>2026-04-24T13:31:07.999Z</time></trkpt><trkpt lat="31.271396598842752" lon="-7.152390792659447"><ele>1764.0</ele><time>2026-04-24T13:31:08.999Z</time></trkpt><trkpt lat="31.271265971029308" lon="-7.152393258895008"><ele>1764.0</ele><time>2026-04-24T13:31:09.999Z</time></trkpt><trkpt lat="31.271144850279097" lon="-7.152394922200758"><ele>1764.6</ele><time>2026-04-24T13:31:10.999Z</time></trkpt><trkpt lat="31.271033845700817" lon="-7.152396576483325"><ele>1765.2</ele><time>2026-04-24T13:31:12Z</time></trkpt><trkpt lat="31.270928449024193" lon="-7.152383789269362"><ele>1765.7999999999997</ele><time>2026-04-24T13:31:13Z</time></trkpt><trkpt lat="31.2708300896536" lon="-7.15234076344171"><ele>1766.3999999999999</ele><time>2026-04-24T13:31:14Z</time></trkpt><trkpt lat="31.270769174750363" lon="-7.152244152947808"><ele>1767.0</ele><time>2026-04-24T13:31:15Z</time></trkpt><trkpt lat="31.270711630312228" lon="-7.152155021019944"><ele>1764.6</ele><time>2026-04-24T13:31:16Z</time></trkpt><trkpt lat="31.270655057906726" lon="-7.152068562632556"><ele>1762.1999999999998</ele><time>2026-04-24T13:31:17Z</time></trkpt><trkpt lat="31.270577283938607" lon="-7.152006313914635"><ele>1759.8</ele><time>2026-04-24T13:31:18Z</time></trkpt><trkpt lat="31.27047798913456" lon="-7.152006380824493"><ele>1757.4</ele><time>2026-04-24T13:31:19Z</time></trkpt><trkpt lat="31.270366310377366" lon="-7.152000862374717"><ele>1755.0</ele><time>2026-04-24T13:31:20Z</time></trkpt><trkpt lat="31.270241259127065" lon="-7.151996839589924"><ele>1755.0</ele><time>2026-04-24T13:31:21Z</time></trkpt><trkpt lat="31.27011040180446" lon="-7.151980905161581"><ele>1755.0</ele><time>2026-04-24T13:31:22Z</time></trkpt><trkpt lat="31.269978514907933" lon="-7.151964170539705"><ele>1755.0</ele><time>2026-04-24T13:31:23Z</time></trkpt><trkpt lat="31.269846115317304" lon="-7.151945614249595"><ele>1755.0</ele><time>2026-04-24T13:31:24Z</time></trkpt><trkpt lat="31.26971743438085" lon="-7.151924021362234"><ele>1754.0</ele><time>2026-04-24T13:31:25Z</time></trkpt><trkpt lat="31.26959755377082" lon="-7.151903721265015"><ele>1753.0</ele><time>2026-04-24T13:31:26Z</time></trkpt><trkpt lat="31.269489215358306" lon="-7.151886235438084"><ele>1752.0</ele><time>2026-04-24T13:31:27Z</time></trkpt><trkpt lat="31.269392507647286" lon="-7.151882921024406"><ele>1751.0</ele><time>2026-04-24T13:31:28Z</time></trkpt><trkpt lat="31.269305142659604" lon="-7.151900724982214"><ele>1750.0</ele><time>2026-04-24T13:31:29Z</time></trkpt><trkpt lat="31.269222321163515" lon="-7.15192051605866"><ele>1750.0</ele><time>2026-04-24T13:31:30Z</time></trkpt><trkpt lat="31.269169276766558" lon="-7.151998176409083"><ele>1750.0</ele><time>2026-04-24T13:31:31Z</time></trkpt><trkpt lat="31.269107395503692" lon="-7.152065256115807"><ele>1750.0</ele><time>2026-04-24T13:31:32Z</time></trkpt><trkpt lat="31.26901813212035" lon="-7.152111817446016"><ele>1750.0</ele><time>2026-04-24T13:31:33Z</time></trkpt><trkpt lat="31.268918691185664" lon="-7.152131242095707"><ele>1750.0</ele><time>2026-04-24T13:31:34Z</time></trkpt><trkpt lat="31.268823308357458" lon="-7.152125437689217"><ele>1749.6</ele><time>2026-04-24T13:31:35Z</time></trkpt><trkpt lat="31.26871663009615" lon="-7.152075274401481"><ele>1749.2</ele><time>2026-04-24T13:31:36Z</time></trkpt><trkpt lat="31.268620680611495" lon="-7.152033699450216"><ele>1748.8000000000002</ele><time>2026-04-24T13:31:37Z</time></trkpt><trkpt lat="31.268521317676814" lon="-7.1519860948252045"><ele>1748.4</ele><time>2026-04-24T13:31:38Z</time></trkpt><trkpt lat="31.268431444130034" lon="-7.151956352528159"><ele>1748.0</ele><time>2026-04-24T13:31:39Z</time></trkpt><trkpt lat="31.268324429224013" lon="-7.151955001290844"><ele>1748.0</ele><time>2026-04-24T13:31:40Z</time></trkpt><trkpt lat="31.2682162473441" lon="-7.1519595693110025"><ele>1748.0</ele><time>2026-04-24T13:31:41Z</time></trkpt><trkpt lat="31.268103398969824" lon="-7.15196958567949"><ele>1748.0</ele><time>2026-04-24T13:31:42Z</time></trkpt><trkpt lat="31.267983223839238" lon="-7.15196508279123"><ele>1748.0</ele><time>2026-04-24T13:31:43Z</time></trkpt><trkpt lat="31.267864331662274" lon="-7.151944194862192"><ele>1747.25</ele><time>2026-04-24T13:31:44Z</time></trkpt><trkpt lat="31.267744373492075" lon="-7.151925807429159"><ele>1746.5</ele><time>2026-04-24T13:31:45Z</time></trkpt><trkpt lat="31.267623378745515" lon="-7.151908492259391"><ele>1745.75</ele><time>2026-04-24T13:31:45.999Z</time></trkpt><trkpt lat="31.26750162217404" lon="-7.151890813354946"><ele>1745.0</ele><time>2026-04-24T13:31:46.999Z</time></trkpt><trkpt lat="31.267381997312068" lon="-7.151878674102978"><ele>1743.25</ele><time>2026-04-24T13:31:47.999Z</time></trkpt><trkpt lat="31.26725757768986" lon="-7.151871156304619"><ele>1741.5</ele><time>2026-04-24T13:31:48.999Z</time></trkpt><trkpt lat="31.267135881536085" lon="-7.1518669200361105"><ele>1739.75</ele><time>2026-04-24T13:31:49.999Z</time></trkpt><trkpt lat="31.26701173376975" lon="-7.151866920038529"><ele>1738.0</ele><time>2026-04-24T13:31:50.999Z</time></trkpt><trkpt lat="31.266892686995376" lon="-7.151884908411799"><ele>1738.0</ele><time>2026-04-24T13:31:51.999Z</time></trkpt><trkpt lat="31.26677636109778" lon="-7.151919252487364"><ele>1738.0</ele><time>2026-04-24T13:31:52.999Z</time></trkpt><trkpt lat="31.266656202654833" lon="-7.151974742816943"><ele>1738.0</ele><time>2026-04-24T13:31:53.999Z</time></trkpt><trkpt lat="31.266531628631135" lon="-7.152037658670066"><ele>1738.0</ele><time>2026-04-24T13:31:54.999Z</time></trkpt><trkpt lat="31.266410300742848" lon="-7.152105250328366"><ele>1739.5</ele><time>2026-04-24T13:31:55.999Z</time></trkpt><trkpt lat="31.26629736603634" lon="-7.152190656581953"><ele>1741.0</ele><time>2026-04-24T13:31:56.999Z</time></trkpt><trkpt lat="31.266180086438226" lon="-7.152284112884461"><ele>1742.5</ele><time>2026-04-24T13:31:57.999Z</time></trkpt><trkpt lat="31.266065445458214" lon="-7.152378614246238"><ele>1744.0</ele><time>2026-04-24T13:31:58.999Z</time></trkpt><trkpt lat="31.265950725638614" lon="-7.15247503759586"><ele>1744.0</ele><time>2026-04-24T13:31:59.999Z</time></trkpt><trkpt lat="31.265837452786624" lon="-7.152569629197402"><ele>1744.0</ele><time>2026-04-24T13:32:00.999Z</time></trkpt><trkpt lat="31.26572666865278" lon="-7.152662574429406"><ele>1744.0</ele><time>2026-04-24T13:32:01.999Z</time></trkpt><trkpt lat="31.265613214314442" lon="-7.15275338818872"><ele>1744.0</ele><time>2026-04-24T13:32:02.999Z</time></trkpt><trkpt lat="31.265499493431395" lon="-7.152840434058852"><ele>1738.5</ele><time>2026-04-24T13:32:03.999Z</time></trkpt><trkpt lat="31.265388187253027" lon="-7.152925283508338"><ele>1733.0</ele><time>2026-04-24T13:32:04.999Z</time></trkpt><trkpt lat="31.265277030267484" lon="-7.153010485734057"><ele>1727.5</ele><time>2026-04-24T13:32:05.999Z</time></trkpt><trkpt lat="31.265165944744037" lon="-7.153095917278456"><ele>1722.0</ele><time>2026-04-24T13:32:06.999Z</time></trkpt><trkpt lat="31.265047822340513" lon="-7.153175391516903"><ele>1721.25</ele><time>2026-04-24T13:32:07.999Z</time></trkpt><trkpt lat="31.26493143697091" lon="-7.153250825561754"><ele>1720.5</ele><time>2026-04-24T13:32:08.999Z</time></trkpt><trkpt lat="31.264819496319703" lon="-7.153331892579479"><ele>1719.75</ele><time>2026-04-24T13:32:09.999Z</time></trkpt><trkpt lat="31.264709020215044" lon="-7.153431095832121"><ele>1719.0</ele><time>2026-04-24T13:32:10.999Z</time></trkpt><trkpt lat="31.264601514763257" lon="-7.153540464094877"><ele>1719.0</ele><time>2026-04-24T13:32:11.999Z</time></trkpt><trkpt lat="31.26448953880857" lon="-7.153655637149589"><ele>1719.0</ele><time>2026-04-24T13:32:12.999Z</time></trkpt><trkpt lat="31.264373647314716" lon="-7.153775305975499"><ele>1719.0</ele><time>2026-04-24T13:32:13.999Z</time></trkpt><trkpt lat="31.264255710279162" lon="-7.153897410121733"><ele>1719.0</ele><time>2026-04-24T13:32:14.999Z</time></trkpt><trkpt lat="31.264137728466622" lon="-7.15401920374149"><ele>1719.0</ele><time>2026-04-24T13:32:15.999Z</time></trkpt><trkpt lat="31.264021280879668" lon="-7.154141157364195"><ele>1719.0</ele><time>2026-04-24T13:32:16.999Z</time></trkpt><trkpt lat="31.263894602428895" lon="-7.154254719830499"><ele>1719.0</ele><time>2026-04-24T13:32:17.999Z</time></trkpt><trkpt lat="31.26377053349163" lon="-7.154366302054411"><ele>1719.0</ele><time>2026-04-24T13:32:18.999Z</time></trkpt><trkpt lat="31.263648588904825" lon="-7.1544757997929285"><ele>1719.0</ele><time>2026-04-24T13:32:19.999Z</time></trkpt><trkpt lat="31.263532712131948" lon="-7.154582379620452"><ele>1719.0</ele><time>2026-04-24T13:32:20.999Z</time></trkpt><trkpt lat="31.263425011496174" lon="-7.15468377202043"><ele>1719.0</ele><time>2026-04-24T13:32:21.999Z</time></trkpt><trkpt lat="31.263318282191957" lon="-7.154774248947898"><ele>1719.0</ele><time>2026-04-24T13:32:22.999Z</time></trkpt><trkpt lat="31.26320250505254" lon="-7.154849639681824"><ele>1719.0</ele><time>2026-04-24T13:32:23.999Z</time></trkpt><trkpt lat="31.26309264735255" lon="-7.154895132476094"><ele>1719.0</ele><time>2026-04-24T13:32:24.999Z</time></trkpt><trkpt lat="31.262965426790974" lon="-7.154895542359138"><ele>1719.0</ele><time>2026-04-24T13:32:25.999Z</time></trkpt><trkpt lat="31.262846638419866" lon="-7.1548696087439"><ele>1719.0</ele><time>2026-04-24T13:32:26.999Z</time></trkpt><trkpt lat="31.262731290320247" lon="-7.154820598863933"><ele>1719.0</ele><time>2026-04-24T13:32:27.999Z</time></trkpt><trkpt lat="31.262619910397145" lon="-7.154771506459527"><ele>1719.0</ele><time>2026-04-24T13:32:28.999Z</time></trkpt><trkpt lat="31.262506045065575" lon="-7.154729627684065"><ele>1719.0</ele><time>2026-04-24T13:32:29.999Z</time></trkpt><trkpt lat="31.26238707384562" lon="-7.154694437310464"><ele>1719.0</ele><time>2026-04-24T13:32:30.999Z</time></trkpt><trkpt lat="31.262260038839425" lon="-7.154667679421571"><ele>1719.0</ele><time>2026-04-24T13:32:31.999Z</time></trkpt><trkpt lat="31.262132073420275" lon="-7.154653884543857"><ele>1719.0</ele><time>2026-04-24T13:32:32.999Z</time></trkpt><trkpt lat="31.262002295558077" lon="-7.154641509741325"><ele>1719.0</ele><time>2026-04-24T13:32:33.999Z</time></trkpt><trkpt lat="31.26187136196869" lon="-7.154627731373885"><ele>1719.0</ele><time>2026-04-24T13:32:34.999Z</time></trkpt><trkpt lat="31.261737510957676" lon="-7.154599761908211"><ele>1719.0</ele><time>2026-04-24T13:32:35.999Z</time></trkpt><trkpt lat="31.261606434926275" lon="-7.154572403309904"><ele>1719.0</ele><time>2026-04-24T13:32:36.999Z</time></trkpt><trkpt lat="31.261478384529504" lon="-7.154521561402732"><ele>1719.0</ele><time>2026-04-24T13:32:37.999Z</time></trkpt><trkpt lat="31.261363143957848" lon="-7.154483539988881"><ele>1719.0</ele><time>2026-04-24T13:32:38.999Z</time></trkpt><trkpt lat="31.26125460738752" lon="-7.154449679846485"><ele>1719.0</ele><time>2026-04-24T13:32:39.999Z</time></trkpt><trkpt lat="31.261149174307963" lon="-7.154415655906285"><ele>1720.0</ele><time>2026-04-24T13:32:40.999Z</time></trkpt><trkpt lat="31.2610433372209" lon="-7.154383273665516"><ele>1721.0</ele><time>2026-04-24T13:32:41.999Z</time></trkpt><trkpt lat="31.260937052379337" lon="-7.154353302318759"><ele>1722.0</ele><time>2026-04-24T13:32:42.999Z</time></trkpt><trkpt lat="31.260828992677748" lon="-7.154322038026847"><ele>1723.0</ele><time>2026-04-24T13:32:43.999Z</time></trkpt><trkpt lat="31.26070947863049" lon="-7.154280717527216"><ele>1726.75</ele><time>2026-04-24T13:32:44.999Z</time></trkpt><trkpt lat="31.260604404196062" lon="-7.154230026331295"><ele>1730.5</ele><time>2026-04-24T13:32:45.999Z</time></trkpt><trkpt lat="31.260502760342487" lon="-7.154180990229305"><ele>1734.25</ele><time>2026-04-24T13:32:46.999Z</time></trkpt><trkpt lat="31.260398747739984" lon="-7.154121551970773"><ele>1738.0</ele><time>2026-04-24T13:32:47.999Z</time></trkpt><trkpt lat="31.260298800504543" lon="-7.154064867079125"><ele>1732.25</ele><time>2026-04-24T13:32:48.999Z</time></trkpt><trkpt lat="31.26019163556189" lon="-7.1540006558702265"><ele>1726.5</ele><time>2026-04-24T13:32:49.999Z</time></trkpt><trkpt lat="31.260099038159087" lon="-7.153928741827516"><ele>1720.75</ele><time>2026-04-24T13:32:50.999Z</time></trkpt><trkpt lat="31.260005576611036" lon="-7.153856228317968"><ele>1715.0</ele><time>2026-04-24T13:32:51.999Z</time></trkpt><trkpt lat="31.259911478277672" lon="-7.153785483643989"><ele>1715.0</ele><time>2026-04-24T13:32:52.999Z</time></trkpt><trkpt lat="31.25981659616474" lon="-7.1537159218073505"><ele>1715.0</ele><time>2026-04-24T13:32:53.999Z</time></trkpt><trkpt lat="31.259720019591605" lon="-7.153633790626527"><ele>1715.0</ele><time>2026-04-24T13:32:54.999Z</time></trkpt><trkpt lat="31.259630424349538" lon="-7.15355255918975"><ele>1715.0</ele><time>2026-04-24T13:32:55.999Z</time></trkpt><trkpt lat="31.25954401182121" lon="-7.153441372331601"><ele>1715.25</ele><time>2026-04-24T13:32:56.999Z</time></trkpt><trkpt lat="31.25946730657187" lon="-7.153341253184439"><ele>1715.5</ele><time>2026-04-24T13:32:57.999Z</time></trkpt><trkpt lat="31.25941050520528" lon="-7.153197722200479"><ele>1715.75</ele><time>2026-04-24T13:32:58.999Z</time></trkpt><trkpt lat="31.259361305285026" lon="-7.153081461803482"><ele>1716.0</ele><time>2026-04-24T13:32:59.999Z</time></trkpt><trkpt lat="31.25931610238905" lon="-7.152974112743767"><ele>1717.6</ele><time>2026-04-24T13:33:00.999Z</time></trkpt><trkpt lat="31.25926270564822" lon="-7.152897698735767"><ele>1719.1999999999998</ele><time>2026-04-24T13:33:01.999Z</time></trkpt><trkpt lat="31.25919104475677" lon="-7.152851987617352"><ele>1720.8000000000002</ele><time>2026-04-24T13:33:02.999Z</time></trkpt><trkpt lat="31.259102870640923" lon="-7.152853537671452"><ele>1722.4</ele><time>2026-04-24T13:33:03.999Z</time></trkpt><trkpt lat="31.259003389424024" lon="-7.152852543212793"><ele>1724.0</ele><time>2026-04-24T13:33:04.999Z</time></trkpt><trkpt lat="31.258887423447405" lon="-7.152866321274201"><ele>1724.75</ele><time>2026-04-24T13:33:05.999Z</time></trkpt><trkpt lat="31.258762584487094" lon="-7.152881011597485"><ele>1725.5</ele><time>2026-04-24T13:33:06.999Z</time></trkpt><trkpt lat="31.258632228161233" lon="-7.1528958521745505"><ele>1726.25</ele><time>2026-04-24T13:33:07.999Z</time></trkpt><trkpt lat="31.258497376802918" lon="-7.152909700571082"><ele>1727.0</ele><time>2026-04-24T13:33:08.999Z</time></trkpt><trkpt lat="31.258357353015047" lon="-7.152923605501622"><ele>1727.0</ele><time>2026-04-24T13:33:09.999Z</time></trkpt><trkpt lat="31.258213754316394" lon="-7.152935211390946"><ele>1727.0</ele><time>2026-04-24T13:33:10.999Z</time></trkpt><trkpt lat="31.258066576848346" lon="-7.152946714405493"><ele>1727.0</ele><time>2026-04-24T13:33:11.999Z</time></trkpt><trkpt lat="31.257912277563413" lon="-7.152958602366511"><ele>1727.0</ele><time>2026-04-24T13:33:12.999Z</time></trkpt><trkpt lat="31.257755717496394" lon="-7.152970484771683"><ele>1724.6666666666665</ele><time>2026-04-24T13:33:13.999Z</time></trkpt><trkpt lat="31.257592346149917" lon="-7.1529764866672565"><ele>1722.3333333333335</ele><time>2026-04-24T13:33:14.999Z</time></trkpt><trkpt lat="31.25742001528561" lon="-7.152978817995445"><ele>1720.0</ele><time>2026-04-24T13:33:15.999Z</time></trkpt><trkpt lat="31.257247248166163" lon="-7.1529669272008665"><ele>1720.0</ele><time>2026-04-24T13:33:16.999Z</time></trkpt><trkpt lat="31.257072220098618" lon="-7.152952705076726"><ele>1720.0</ele><time>2026-04-24T13:33:18Z</time></trkpt><trkpt lat="31.256900139807453" lon="-7.15293044165058"><ele>1720.0</ele><time>2026-04-24T13:33:19Z</time></trkpt><trkpt lat="31.256737641446172" lon="-7.152919216493747"><ele>1720.0</ele><time>2026-04-24T13:33:20Z</time></trkpt><trkpt lat="31.256592411774687" lon="-7.152934262395153"><ele>1720.0</ele><time>2026-04-24T13:33:21Z</time></trkpt><trkpt lat="31.256456896786414" lon="-7.152944718725508"><ele>1720.0</ele><time>2026-04-24T13:33:22Z</time></trkpt><trkpt lat="31.25633286289317" lon="-7.152928731880798"><ele>1720.0</ele><time>2026-04-24T13:33:23Z</time></trkpt><trkpt lat="31.256232899314654" lon="-7.152895206291165"><ele>1717.25</ele><time>2026-04-24T13:33:24Z</time></trkpt><trkpt lat="31.25614422024957" lon="-7.152810536198379"><ele>1714.5</ele><time>2026-04-24T13:33:25Z</time></trkpt><trkpt lat="31.25608847127485" lon="-7.15269715239537"><ele>1711.75</ele><time>2026-04-24T13:33:26Z</time></trkpt><trkpt lat="31.2560235908707" lon="-7.152586881325779"><ele>1709.0</ele><time>2026-04-24T13:33:27Z</time></trkpt><trkpt lat="31.255964611567446" lon="-7.15247181232704"><ele>1712.0</ele><time>2026-04-24T13:33:28Z</time></trkpt><trkpt lat="31.255907230935872" lon="-7.152354420038827"><ele>1715.0</ele><time>2026-04-24T13:33:29Z</time></trkpt><trkpt lat="31.255851901880295" lon="-7.152239033959511"><ele>1718.0</ele><time>2026-04-24T13:33:30Z</time></trkpt><trkpt lat="31.255796122810978" lon="-7.15212823177026"><ele>1721.0</ele><time>2026-04-24T13:33:31Z</time></trkpt><trkpt lat="31.255733610837883" lon="-7.152028393933311"><ele>1724.0</ele><time>2026-04-24T13:33:32.001Z</time></trkpt><trkpt lat="31.25565780824385" lon="-7.151945943764615"><ele>1721.6</ele><time>2026-04-24T13:33:33.001Z</time></trkpt><trkpt lat="31.25556568674994" lon="-7.1518810137462125"><ele>1719.2</ele><time>2026-04-24T13:33:34.001Z</time></trkpt><trkpt lat="31.25545699421978" lon="-7.151850928300513"><ele>1716.7999999999997</ele><time>2026-04-24T13:33:35.001Z</time></trkpt><trkpt lat="31.255349335486375" lon="-7.151806229194033"><ele>1714.3999999999999</ele><time>2026-04-24T13:33:36.001Z</time></trkpt><trkpt lat="31.25523995953974" lon="-7.151764508923623"><ele>1712.0</ele><time>2026-04-24T13:33:37.001Z</time></trkpt><trkpt lat="31.2551280860542" lon="-7.151726956777932"><ele>1712.0</ele><time>2026-04-24T13:33:38.001Z</time></trkpt><trkpt lat="31.255010934389833" lon="-7.151687632916975"><ele>1712.0</ele><time>2026-04-24T13:33:39Z</time></trkpt><trkpt lat="31.2548919942188" lon="-7.151634014745758"><ele>1712.0</ele><time>2026-04-24T13:33:40Z</time></trkpt><trkpt lat="31.25476122418552" lon="-7.151640641857925"><ele>1712.0</ele><time>2026-04-24T13:33:41Z</time></trkpt><trkpt lat="31.254624911000025" lon="-7.15163285833915"><ele>1710.5</ele><time>2026-04-24T13:33:42Z</time></trkpt><trkpt lat="31.25448580684894" lon="-7.151624759407852"><ele>1709.0</ele><time>2026-04-24T13:33:43Z</time></trkpt><trkpt lat="31.2543492116529" lon="-7.1516177792135585"><ele>1707.5</ele><time>2026-04-24T13:33:44Z</time></trkpt><trkpt lat="31.254233198779453" lon="-7.151611850803271"><ele>1706.0</ele><time>2026-04-24T13:33:45Z</time></trkpt><trkpt lat="31.254133630991916" lon="-7.151607128547966"><ele>1706.0</ele><time>2026-04-24T13:33:46Z</time></trkpt><trkpt lat="31.254034177501797" lon="-7.151601366217395"><ele>1706.0</ele><time>2026-04-24T13:33:47Z</time></trkpt><trkpt lat="31.253932718065773" lon="-7.151597743751223"><ele>1706.0</ele><time>2026-04-24T13:33:48Z</time></trkpt><trkpt lat="31.253824587194803" lon="-7.151594677436434"><ele>1706.0</ele><time>2026-04-24T13:33:49Z</time></trkpt><trkpt lat="31.25371027194292" lon="-7.15159044871715"><ele>1706.0</ele><time>2026-04-24T13:33:50Z</time></trkpt><trkpt lat="31.253592068597786" lon="-7.151592163246317"><ele>1707.0</ele><time>2026-04-24T13:33:51Z</time></trkpt><trkpt lat="31.2534646812787" lon="-7.151602500619573"><ele>1708.0</ele><time>2026-04-24T13:33:52Z</time></trkpt><trkpt lat="31.25333228819283" lon="-7.151613793292856"><ele>1709.0</ele><time>2026-04-24T13:33:53Z</time></trkpt><trkpt lat="31.253199011392695" lon="-7.151635438736285"><ele>1710.0</ele><time>2026-04-24T13:33:54Z</time></trkpt><trkpt lat="31.25305919612388" lon="-7.151662865510991"><ele>1710.5</ele><time>2026-04-24T13:33:55Z</time></trkpt><trkpt lat="31.252917585083683" lon="-7.151690605171089"><ele>1711.0</ele><time>2026-04-24T13:33:56Z</time></trkpt><trkpt lat="31.25277742433256" lon="-7.151717780798263"><ele>1711.5</ele><time>2026-04-24T13:33:57Z</time></trkpt><trkpt lat="31.252634626787145" lon="-7.151740501144914"><ele>1712.0</ele><time>2026-04-24T13:33:58Z</time></trkpt><trkpt lat="31.252492622378654" lon="-7.151762188488083"><ele>1712.0</ele><time>2026-04-24T13:33:59Z</time></trkpt><trkpt lat="31.252352730496952" lon="-7.1518009796973585"><ele>1712.0</ele><time>2026-04-24T13:34:00Z</time></trkpt><trkpt lat="31.25220682685518" lon="-7.151846635392023"><ele>1712.0</ele><time>2026-04-24T13:34:01Z</time></trkpt><trkpt lat="31.2520558477047" lon="-7.15189644163057"><ele>1715.3333333333333</ele><time>2026-04-24T13:34:02Z</time></trkpt><trkpt lat="31.251899545356615" lon="-7.151947660627927"><ele>1718.6666666666665</ele><time>2026-04-24T13:34:03Z</time></trkpt><trkpt lat="31.25173910689177" lon="-7.151993980982852"><ele>1722.0</ele><time>2026-04-24T13:34:04Z</time></trkpt><trkpt lat="31.251578169608297" lon="-7.1520404453655555"><ele>1723.6666666666665</ele><time>2026-04-24T13:34:05Z</time></trkpt><trkpt lat="31.251417426333234" lon="-7.152079090103004"><ele>1725.3333333333333</ele><time>2026-04-24T13:34:06Z</time></trkpt><trkpt lat="31.251264766742462" lon="-7.1521138385515055"><ele>1727.0</ele><time>2026-04-24T13:34:07Z</time></trkpt><trkpt lat="31.25111911465288" lon="-7.152147085114065"><ele>1727.0</ele><time>2026-04-24T13:34:08Z</time></trkpt><trkpt lat="31.250983912892742" lon="-7.152177960983539"><ele>1727.0</ele><time>2026-04-24T13:34:09Z</time></trkpt><trkpt lat="31.250857747399976" lon="-7.152203277946744"><ele>1727.0</ele><time>2026-04-24T13:34:10Z</time></trkpt><trkpt lat="31.25073689215629" lon="-7.152226863365625"><ele>1727.0</ele><time>2026-04-24T13:34:11Z</time></trkpt><trkpt lat="31.250617307119754" lon="-7.152250098663718"><ele>1726.0</ele><time>2026-04-24T13:34:12Z</time></trkpt><trkpt lat="31.250494128420524" lon="-7.152273933550225"><ele>1725.0</ele><time>2026-04-24T13:34:13Z</time></trkpt><trkpt lat="31.250367509638004" lon="-7.152304418134407"><ele>1724.0</ele><time>2026-04-24T13:34:14Z</time></trkpt><trkpt lat="31.250233229417983" lon="-7.152344457050684"><ele>1723.0</ele><time>2026-04-24T13:34:15Z</time></trkpt><trkpt lat="31.250096716564144" lon="-7.152388374156652"><ele>1720.25</ele><time>2026-04-24T13:34:16Z</time></trkpt><trkpt lat="31.249957486822606" lon="-7.152433724876268"><ele>1717.5</ele><time>2026-04-24T13:34:17Z</time></trkpt><trkpt lat="31.249815948925846" lon="-7.152480423270043"><ele>1714.75</ele><time>2026-04-24T13:34:18Z</time></trkpt><trkpt lat="31.249675371934764" lon="-7.15252626473396"><ele>1712.0</ele><time>2026-04-24T13:34:19Z</time></trkpt><trkpt lat="31.24954060296675" lon="-7.15258240840309"><ele>1712.0</ele><time>2026-04-24T13:34:20Z</time></trkpt><trkpt lat="31.249404899563686" lon="-7.15264107762143"><ele>1712.0</ele><time>2026-04-24T13:34:21Z</time></trkpt><trkpt lat="31.249273240550036" lon="-7.152699041812436"><ele>1712.0</ele><time>2026-04-24T13:34:22Z</time></trkpt><trkpt lat="31.249144712657046" lon="-7.152758631152398"><ele>1712.0</ele><time>2026-04-24T13:34:23Z</time></trkpt><trkpt lat="31.249021210623837" lon="-7.152816319164951"><ele>1715.75</ele><time>2026-04-24T13:34:24Z</time></trkpt><trkpt lat="31.248889807154836" lon="-7.152869511055652"><ele>1719.5</ele><time>2026-04-24T13:34:25Z</time></trkpt><trkpt lat="31.248761848119475" lon="-7.152911661034319"><ele>1723.25</ele><time>2026-04-24T13:34:26Z</time></trkpt><trkpt lat="31.248648985711938" lon="-7.152949374675601"><ele>1727.0</ele><time>2026-04-24T13:34:27Z</time></trkpt><trkpt lat="31.24855857663169" lon="-7.152982165110483"><ele>1727.0</ele><time>2026-04-24T13:34:28Z</time></trkpt><trkpt lat="31.248472988907032" lon="-7.153013039680848"><ele>1726.9999999999998</ele><time>2026-04-24T13:34:29Z</time></trkpt><trkpt lat="31.248402109930105" lon="-7.1530691451528465"><ele>1726.9999999999998</ele><time>2026-04-24T13:34:30Z</time></trkpt><trkpt lat="31.248337100560875" lon="-7.1531296308555605"><ele>1727.0</ele><time>2026-04-24T13:34:31Z</time></trkpt><trkpt lat="31.24825957198981" lon="-7.153204060082009"><ele>1727.0</ele><time>2026-04-24T13:34:32Z</time></trkpt><trkpt lat="31.24817183790342" lon="-7.153278338555527"><ele>1727.0</ele><time>2026-04-24T13:34:33Z</time></trkpt><trkpt lat="31.248086114055464" lon="-7.153350628942408"><ele>1727.0</ele><time>2026-04-24T13:34:34Z</time></trkpt><trkpt lat="31.247996105318016" lon="-7.153426332957"><ele>1727.0</ele><time>2026-04-24T13:34:35Z</time></trkpt><trkpt lat="31.247887771999377" lon="-7.153507196581401"><ele>1727.0</ele><time>2026-04-24T13:34:36Z</time></trkpt><trkpt lat="31.24778349633295" lon="-7.153569641076883"><ele>1727.0</ele><time>2026-04-24T13:34:37Z</time></trkpt><trkpt lat="31.247672607893552" lon="-7.153631479106052"><ele>1727.0</ele><time>2026-04-24T13:34:38Z</time></trkpt><trkpt lat="31.24756529471239" lon="-7.153689407105818"><ele>1727.0</ele><time>2026-04-24T13:34:39Z</time></trkpt><trkpt lat="31.247454671555676" lon="-7.153749188045762"><ele>1727.0</ele><time>2026-04-24T13:34:40Z</time></trkpt><trkpt lat="31.247329426413263" lon="-7.153806732976739"><ele>1734.25</ele><time>2026-04-24T13:34:41Z</time></trkpt><trkpt lat="31.24720687052379" lon="-7.153861968880507"><ele>1741.5</ele><time>2026-04-24T13:34:42Z</time></trkpt><trkpt lat="31.247080701123423" lon="-7.153917208190551"><ele>1748.75</ele><time>2026-04-24T13:34:43Z</time></trkpt><trkpt lat="31.246953071151818" lon="-7.153972418180727"><ele>1756.0</ele><time>2026-04-24T13:34:44Z</time></trkpt><trkpt lat="31.246823948572285" lon="-7.154028603363964"><ele>1749.5</ele><time>2026-04-24T13:34:45Z</time></trkpt><trkpt lat="31.246703014392608" lon="-7.154085282499975"><ele>1743.0</ele><time>2026-04-24T13:34:46Z</time></trkpt><trkpt lat="31.246578534675077" lon="-7.154167586408048"><ele>1736.5</ele><time>2026-04-24T13:34:47Z</time></trkpt><trkpt lat="31.246451079685176" lon="-7.1542521287545755"><ele>1730.0</ele><time>2026-04-24T13:34:48Z</time></trkpt><trkpt lat="31.24631019479567" lon="-7.154327185925697"><ele>1730.0</ele><time>2026-04-24T13:34:49Z</time></trkpt><trkpt lat="31.24617446168353" lon="-7.154398618503514"><ele>1730.0</ele><time>2026-04-24T13:34:50Z</time></trkpt><trkpt lat="31.246042207821723" lon="-7.154469396581892"><ele>1730.0</ele><time>2026-04-24T13:34:51Z</time></trkpt><trkpt lat="31.24590842474513" lon="-7.1545390787277"><ele>1730.0</ele><time>2026-04-24T13:34:52Z</time></trkpt><trkpt lat="31.245803258735688" lon="-7.15461080488719"><ele>1730.0</ele><time>2026-04-24T13:34:53Z</time></trkpt><trkpt lat="31.245701155951913" lon="-7.15470073038723"><ele>1730.0</ele><time>2026-04-24T13:34:54Z</time></trkpt><trkpt lat="31.24560254246519" lon="-7.154781475990197"><ele>1730.0</ele><time>2026-04-24T13:34:55Z</time></trkpt><trkpt lat="31.245513304518592" lon="-7.154853248561624"><ele>1730.0</ele><time>2026-04-24T13:34:56Z</time></trkpt><trkpt lat="31.245435033650054" lon="-7.1549162216456725"><ele>1730.9999999999998</ele><time>2026-04-24T13:34:57Z</time></trkpt><trkpt lat="31.245349488256334" lon="-7.154962459216327"><ele>1732.0</ele><time>2026-04-24T13:34:58Z</time></trkpt><trkpt lat="31.24526353772526" lon="-7.1549673178282465"><ele>1733.0</ele><time>2026-04-24T13:34:59Z</time></trkpt><trkpt lat="31.24518382761442" lon="-7.154926029476123"><ele>1734.0</ele><time>2026-04-24T13:35:00Z</time></trkpt><trkpt lat="31.2451165720162" lon="-7.154865575793039"><ele>1734.9999999999998</ele><time>2026-04-24T13:35:01Z</time></trkpt><trkpt lat="31.245059899387687" lon="-7.1547880704364335"><ele>1736.0</ele><time>2026-04-24T13:35:02Z</time></trkpt><trkpt lat="31.24500767509798" lon="-7.154689933334257"><ele>1736.0</ele><time>2026-04-24T13:35:03Z</time></trkpt><trkpt lat="31.24492074389865" lon="-7.154623438423257"><ele>1736.0</ele><time>2026-04-24T13:35:04Z</time></trkpt><trkpt lat="31.2448422601473" lon="-7.154537672077755"><ele>1736.0</ele><time>2026-04-24T13:35:05Z</time></trkpt><trkpt lat="31.244732603473203" lon="-7.154506585489066"><ele>1736.0</ele><time>2026-04-24T13:35:06Z</time></trkpt><trkpt lat="31.2446232751329" lon="-7.154468764549415"><ele>1736.0</ele><time>2026-04-24T13:35:07Z</time></trkpt><trkpt lat="31.24450593951713" lon="-7.15443139403896"><ele>1734.4</ele><time>2026-04-24T13:35:08Z</time></trkpt><trkpt lat="31.244399021258644" lon="-7.154377550803213"><ele>1732.8</ele><time>2026-04-24T13:35:09Z</time></trkpt><trkpt lat="31.244314481937277" lon="-7.154275723134727"><ele>1731.2000000000003</ele><time>2026-04-24T13:35:10Z</time></trkpt><trkpt lat="31.24424480645057" lon="-7.154192598514938"><ele>1729.6000000000001</ele><time>2026-04-24T13:35:11Z</time></trkpt><trkpt lat="31.244175238420077" lon="-7.154116927043741"><ele>1728.0</ele><time>2026-04-24T13:35:12Z</time></trkpt><trkpt lat="31.24409269928503" lon="-7.15405940283058"><ele>1728.0</ele><time>2026-04-24T13:35:12.999Z</time></trkpt><trkpt lat="31.243996252842436" lon="-7.1540523161736065"><ele>1728.0</ele><time>2026-04-24T13:35:13.999Z</time></trkpt><trkpt lat="31.243887453377432" lon="-7.154050735683564"><ele>1728.0</ele><time>2026-04-24T13:35:14.999Z</time></trkpt><trkpt lat="31.243767169467898" lon="-7.1540491867206315"><ele>1728.0</ele><time>2026-04-24T13:35:15.999Z</time></trkpt><trkpt lat="31.243638721783316" lon="-7.154049486793017"><ele>1728.0</ele><time>2026-04-24T13:35:16.999Z</time></trkpt><trkpt lat="31.24350494321971" lon="-7.154050932628905"><ele>1728.0</ele><time>2026-04-24T13:35:17.999Z</time></trkpt><trkpt lat="31.24337373198425" lon="-7.154052578795246"><ele>1728.0</ele><time>2026-04-24T13:35:18.999Z</time></trkpt><trkpt lat="31.243253453601334" lon="-7.154054087793286"><ele>1728.0</ele><time>2026-04-24T13:35:19.999Z</time></trkpt><trkpt lat="31.24314227426468" lon="-7.154055465375537"><ele>1732.0</ele><time>2026-04-24T13:35:20.999Z</time></trkpt><trkpt lat="31.243036997722342" lon="-7.154056816803312"><ele>1736.0</ele><time>2026-04-24T13:35:21.999Z</time></trkpt><trkpt lat="31.242927594536003" lon="-7.154055860016662"><ele>1740.0</ele><time>2026-04-24T13:35:22.999Z</time></trkpt><trkpt lat="31.24281094941973" lon="-7.154045858807576"><ele>1744.0</ele><time>2026-04-24T13:35:24.001Z</time></trkpt><trkpt lat="31.24269034969429" lon="-7.154011161129609"><ele>1744.0</ele><time>2026-04-24T13:35:25.001Z</time></trkpt><trkpt lat="31.242575346512044" lon="-7.153989509130795"><ele>1744.0</ele><time>2026-04-24T13:35:26.001Z</time></trkpt><trkpt lat="31.242462626541972" lon="-7.153988588967245"><ele>1744.0</ele><time>2026-04-24T13:35:27.001Z</time></trkpt><trkpt lat="31.242356828270687" lon="-7.153949088943901"><ele>1744.0</ele><time>2026-04-24T13:35:28.001Z</time></trkpt><trkpt lat="31.242246444159008" lon="-7.153895097164265"><ele>1736.0</ele><time>2026-04-24T13:35:29.001Z</time></trkpt><trkpt lat="31.24214559052264" lon="-7.153802501821739"><ele>1728.0</ele><time>2026-04-24T13:35:30.001Z</time></trkpt><trkpt lat="31.24205916098766" lon="-7.153693281095423"><ele>1720.0</ele><time>2026-04-24T13:35:31.001Z</time></trkpt><trkpt lat="31.241951672021678" lon="-7.153600297419062"><ele>1712.0</ele><time>2026-04-24T13:35:32.001Z</time></trkpt><trkpt lat="31.24184037027793" lon="-7.15350644264465"><ele>1712.0</ele><time>2026-04-24T13:35:33.001Z</time></trkpt><trkpt lat="31.241727510905047" lon="-7.1534103890691885"><ele>1712.0</ele><time>2026-04-24T13:35:34.001Z</time></trkpt><trkpt lat="31.24161303368284" lon="-7.153311892827367"><ele>1712.0</ele><time>2026-04-24T13:35:35.001Z</time></trkpt><trkpt lat="31.24149622157308" lon="-7.1532121887452105"><ele>1712.0</ele><time>2026-04-24T13:35:36.001Z</time></trkpt><trkpt lat="31.24137857431058" lon="-7.153110169169297"><ele>1708.6666666666665</ele><time>2026-04-24T13:35:37.001Z</time></trkpt><trkpt lat="31.241255976532806" lon="-7.153006219871807"><ele>1705.3333333333335</ele><time>2026-04-24T13:35:38.001Z</time></trkpt><trkpt lat="31.241131049855433" lon="-7.1528993305995385"><ele>1702.0</ele><time>2026-04-24T13:35:39.001Z</time></trkpt><trkpt lat="31.24100235168217" lon="-7.152792576605108"><ele>1702.0</ele><time>2026-04-24T13:35:40.001Z</time></trkpt><trkpt lat="31.24087117269848" lon="-7.152691167208874"><ele>1702.0</ele><time>2026-04-24T13:35:41.001Z</time></trkpt><trkpt lat="31.240732591844253" lon="-7.1526137357405775"><ele>1702.0</ele><time>2026-04-24T13:35:42.001Z</time></trkpt><trkpt lat="31.24061501435841" lon="-7.152508913739465"><ele>1700.75</ele><time>2026-04-24T13:35:43Z</time></trkpt><trkpt lat="31.24049952628597" lon="-7.152420393842616"><ele>1699.5</ele><time>2026-04-24T13:35:44Z</time></trkpt><trkpt lat="31.2403968606928" lon="-7.1523270969015575"><ele>1698.25</ele><time>2026-04-24T13:35:45Z</time></trkpt><trkpt lat="31.240305679470737" lon="-7.152227377407301"><ele>1697.0</ele><time>2026-04-24T13:35:46Z</time></trkpt><trkpt lat="31.240229496753766" lon="-7.15212442809734"><ele>1697.0</ele><time>2026-04-24T13:35:47Z</time></trkpt><trkpt lat="31.24016929078612" lon="-7.1520228761985996"><ele>1697.0</ele><time>2026-04-24T13:35:48Z</time></trkpt><trkpt lat="31.24011354400976" lon="-7.151930686037076"><ele>1697.0</ele><time>2026-04-24T13:35:49Z</time></trkpt><trkpt lat="31.240047961029664" lon="-7.151864615327557"><ele>1697.0</ele><time>2026-04-24T13:35:50Z</time></trkpt><trkpt lat="31.239960897872887" lon="-7.151847497005049"><ele>1697.0</ele><time>2026-04-24T13:35:51Z</time></trkpt><trkpt lat="31.23986808931547" lon="-7.151827118174326"><ele>1692.25</ele><time>2026-04-24T13:35:52Z</time></trkpt><trkpt lat="31.239767685682523" lon="-7.151881921085378"><ele>1687.5</ele><time>2026-04-24T13:35:53Z</time></trkpt><trkpt lat="31.239651371552714" lon="-7.151907069648654"><ele>1682.75</ele><time>2026-04-24T13:35:54Z</time></trkpt><trkpt lat="31.239529504043194" lon="-7.151946390925086"><ele>1678.0</ele><time>2026-04-24T13:35:55Z</time></trkpt><trkpt lat="31.23939461372075" lon="-7.151968361740353"><ele>1678.0</ele><time>2026-04-24T13:35:56Z</time></trkpt><trkpt lat="31.23925378214821" lon="-7.151996164476002"><ele>1678.0</ele><time>2026-04-24T13:35:57Z</time></trkpt><trkpt lat="31.239103886519583" lon="-7.152002209023716"><ele>1678.0</ele><time>2026-04-24T13:35:58Z</time></trkpt><trkpt lat="31.238956217464377" lon="-7.151990767031372"><ele>1678.0</ele><time>2026-04-24T13:35:59Z</time></trkpt><trkpt lat="31.238813993576315" lon="-7.151979746953498"><ele>1679.5</ele><time>2026-04-24T13:36:00Z</time></trkpt><trkpt lat="31.238675220060912" lon="-7.151975371215344"><ele>1681.0</ele><time>2026-04-24T13:36:01Z</time></trkpt><trkpt lat="31.238540874151933" lon="-7.151954669445133"><ele>1682.5</ele><time>2026-04-24T13:36:02Z</time></trkpt><trkpt lat="31.238413113586045" lon="-7.151981468654476"><ele>1684.0</ele><time>2026-04-24T13:36:03Z</time></trkpt><trkpt lat="31.23829160935976" lon="-7.15199454250551"><ele>1684.0</ele><time>2026-04-24T13:36:04Z</time></trkpt><trkpt lat="31.23817774236295" lon="-7.15200724400699"><ele>1684.0</ele><time>2026-04-24T13:36:05Z</time></trkpt><trkpt lat="31.23807305550139" lon="-7.152020103094633"><ele>1684.0</ele><time>2026-04-24T13:36:06Z</time></trkpt><trkpt lat="31.237969433261103" lon="-7.152018840869577"><ele>1684.0</ele><time>2026-04-24T13:36:07Z</time></trkpt><trkpt lat="31.237877667043424" lon="-7.151995605523968"><ele>1684.0</ele><time>2026-04-24T13:36:08Z</time></trkpt><trkpt lat="31.23778054583756" lon="-7.151953213349658"><ele>1681.8000000000002</ele><time>2026-04-24T13:36:09Z</time></trkpt><trkpt lat="31.23770247326728" lon="-7.151869386891114"><ele>1679.6000000000001</ele><time>2026-04-24T13:36:10Z</time></trkpt><trkpt lat="31.237655372234684" lon="-7.151765411009444"><ele>1677.4</ele><time>2026-04-24T13:36:11Z</time></trkpt><trkpt lat="31.237602455621012" lon="-7.15167822199022"><ele>1675.2</ele><time>2026-04-24T13:36:12Z</time></trkpt><trkpt lat="31.237551640953885" lon="-7.151595029410772"><ele>1673.0</ele><time>2026-04-24T13:36:13Z</time></trkpt><trkpt lat="31.23749085468279" lon="-7.151517727298723"><ele>1675.6000000000001</ele><time>2026-04-24T13:36:14Z</time></trkpt><trkpt lat="31.237410440361227" lon="-7.151456235577164"><ele>1678.2</ele><time>2026-04-24T13:36:15Z</time></trkpt><trkpt lat="31.237319766729264" lon="-7.151413998894678"><ele>1680.8</ele><time>2026-04-24T13:36:16Z</time></trkpt><trkpt lat="31.23722375599281" lon="-7.151419815229385"><ele>1683.4</ele><time>2026-04-24T13:36:17Z</time></trkpt><trkpt lat="31.237126800572565" lon="-7.1514321908748055"><ele>1686.0</ele><time>2026-04-24T13:36:18Z</time></trkpt><trkpt lat="31.237025086019738" lon="-7.151449511915675"><ele>1686.0</ele><time>2026-04-24T13:36:19Z</time></trkpt><trkpt lat="31.236922867648826" lon="-7.151467035038649"><ele>1686.0</ele><time>2026-04-24T13:36:20Z</time></trkpt><trkpt lat="31.23681935447364" lon="-7.151433660435642"><ele>1686.0</ele><time>2026-04-24T13:36:21Z</time></trkpt><trkpt lat="31.236727361571717" lon="-7.151382958126374"><ele>1686.0</ele><time>2026-04-24T13:36:22Z</time></trkpt><trkpt lat="31.23664612192291" lon="-7.151299439684414"><ele>1686.0</ele><time>2026-04-24T13:36:23Z</time></trkpt><trkpt lat="31.236591940765578" lon="-7.15118502538479"><ele>1686.0</ele><time>2026-04-24T13:36:24Z</time></trkpt><trkpt lat="31.236525347240736" lon="-7.151082201509864"><ele>1686.0</ele><time>2026-04-24T13:36:25Z</time></trkpt><trkpt lat="31.236465014002082" lon="-7.150967220361565"><ele>1686.0</ele><time>2026-04-24T13:36:26Z</time></trkpt><trkpt lat="31.236406514054327" lon="-7.150846877360603"><ele>1686.0</ele><time>2026-04-24T13:36:27Z</time></trkpt><trkpt lat="31.236346109047474" lon="-7.150722979865637"><ele>1683.0</ele><time>2026-04-24T13:36:28Z</time></trkpt><trkpt lat="31.23627460572694" lon="-7.150599911655354"><ele>1680.0</ele><time>2026-04-24T13:36:29Z</time></trkpt><trkpt lat="31.23618859806325" lon="-7.150479702645228"><ele>1677.0</ele><time>2026-04-24T13:36:30Z</time></trkpt><trkpt lat="31.236092548730273" lon="-7.150363256761829"><ele>1674.0</ele><time>2026-04-24T13:36:31Z</time></trkpt><trkpt lat="31.23598693430924" lon="-7.150242658775698"><ele>1674.0</ele><time>2026-04-24T13:36:32Z</time></trkpt><trkpt lat="31.235875049284942" lon="-7.1501165288844835"><ele>1674.0</ele><time>2026-04-24T13:36:33Z</time></trkpt><trkpt lat="31.235763643494053" lon="-7.149990903615579"><ele>1674.0</ele><time>2026-04-24T13:36:34Z</time></trkpt><trkpt lat="31.235649715992768" lon="-7.14986280782243"><ele>1676.0</ele><time>2026-04-24T13:36:35Z</time></trkpt><trkpt lat="31.235523537117214" lon="-7.149739489423096"><ele>1678.0</ele><time>2026-04-24T13:36:36Z</time></trkpt><trkpt lat="31.235383306569286" lon="-7.149627988025221"><ele>1680.0</ele><time>2026-04-24T13:36:37Z</time></trkpt><trkpt lat="31.235229807853997" lon="-7.149533151687522"><ele>1680.0</ele><time>2026-04-24T13:36:38Z</time></trkpt><trkpt lat="31.235066801637565" lon="-7.149439405105543"><ele>1680.0</ele><time>2026-04-24T13:36:39Z</time></trkpt><trkpt lat="31.23490772525769" lon="-7.149351938688295"><ele>1680.0</ele><time>2026-04-24T13:36:40Z</time></trkpt><trkpt lat="31.234753127380486" lon="-7.149259836058104"><ele>1683.6666666666665</ele><time>2026-04-24T13:36:41Z</time></trkpt><trkpt lat="31.234605842142116" lon="-7.149162422754877"><ele>1687.3333333333333</ele><time>2026-04-24T13:36:42Z</time></trkpt><trkpt lat="31.23446485414006" lon="-7.149060656408572"><ele>1691.0</ele><time>2026-04-24T13:36:43Z</time></trkpt><trkpt lat="31.234324649005472" lon="-7.148962223350109"><ele>1691.0</ele><time>2026-04-24T13:36:44Z</time></trkpt><trkpt lat="31.23417840577137" lon="-7.148881336790276"><ele>1691.0</ele><time>2026-04-24T13:36:45Z</time></trkpt><trkpt lat="31.23402643624101" lon="-7.148821664321752"><ele>1691.0</ele><time>2026-04-24T13:36:46Z</time></trkpt><trkpt lat="31.23386635053249" lon="-7.1487959053058985"><ele>1686.3333333333333</ele><time>2026-04-24T13:36:47Z</time></trkpt><trkpt lat="31.233711246007232" lon="-7.148767607970575"><ele>1681.6666666666665</ele><time>2026-04-24T13:36:48Z</time></trkpt><trkpt lat="31.233554057726373" lon="-7.148741241911523"><ele>1677.0</ele><time>2026-04-24T13:36:49Z</time></trkpt><trkpt lat="31.233397201523506" lon="-7.148697509852922"><ele>1677.0</ele><time>2026-04-24T13:36:50Z</time></trkpt><trkpt lat="31.23324156885294" lon="-7.14864582631054"><ele>1677.0</ele><time>2026-04-24T13:36:51Z</time></trkpt><trkpt lat="31.233087436549848" lon="-7.14858865770386"><ele>1677.0</ele><time>2026-04-24T13:36:52Z</time></trkpt><trkpt lat="31.232930907470966" lon="-7.1485319252186"><ele>1673.0</ele><time>2026-04-24T13:36:53Z</time></trkpt><trkpt lat="31.23277461941239" lon="-7.14848440610139"><ele>1669.0</ele><time>2026-04-24T13:36:54Z</time></trkpt><trkpt lat="31.232617961472272" lon="-7.148464187038054"><ele>1665.0</ele><time>2026-04-24T13:36:55Z</time></trkpt><trkpt lat="31.23246751300185" lon="-7.148457655849792"><ele>1665.0</ele><time>2026-04-24T13:36:56Z</time></trkpt><trkpt lat="31.23232892563535" lon="-7.148460333551748"><ele>1665.0</ele><time>2026-04-24T13:36:57Z</time></trkpt><trkpt lat="31.232195805313385" lon="-7.148449050071045"><ele>1665.0</ele><time>2026-04-24T13:36:58Z</time></trkpt><trkpt lat="31.232060730887344" lon="-7.1484200280338674"><ele>1665.0</ele><time>2026-04-24T13:36:59Z</time></trkpt><trkpt lat="31.231923571720806" lon="-7.148362975045086"><ele>1661.0</ele><time>2026-04-24T13:37:00Z</time></trkpt><trkpt lat="31.23179205970122" lon="-7.148291288613628"><ele>1657.0</ele><time>2026-04-24T13:37:01Z</time></trkpt><trkpt lat="31.23166184429129" lon="-7.148198046710626"><ele>1653.0</ele><time>2026-04-24T13:37:02Z</time></trkpt><trkpt lat="31.2315370655713" lon="-7.148093210491169"><ele>1655.0</ele><time>2026-04-24T13:37:03Z</time></trkpt><trkpt lat="31.231416158168017" lon="-7.147977834381902"><ele>1657.0</ele><time>2026-04-24T13:37:04Z</time></trkpt><trkpt lat="31.231296536925566" lon="-7.1478554615622"><ele>1659.0</ele><time>2026-04-24T13:37:05Z</time></trkpt><trkpt lat="31.231174350325805" lon="-7.147730467600226"><ele>1659.0</ele><time>2026-04-24T13:37:06Z</time></trkpt><trkpt lat="31.23106142629015" lon="-7.147587015808508"><ele>1659.0</ele><time>2026-04-24T13:37:07Z</time></trkpt><trkpt lat="31.230940692087724" lon="-7.147457429950127"><ele>1659.0</ele><time>2026-04-24T13:37:08Z</time></trkpt><trkpt lat="31.23082492535037" lon="-7.147323743908355"><ele>1664.0</ele><time>2026-04-24T13:37:09Z</time></trkpt><trkpt lat="31.230713291920317" lon="-7.147187950760196"><ele>1669.0</ele><time>2026-04-24T13:37:10Z</time></trkpt><trkpt lat="31.23060525875918" lon="-7.147052736447159"><ele>1674.0</ele><time>2026-04-24T13:37:11Z</time></trkpt><trkpt lat="31.23049387234234" lon="-7.146929796402769"><ele>1674.0</ele><time>2026-04-24T13:37:12Z</time></trkpt><trkpt lat="31.230374393582217" lon="-7.146823937148715"><ele>1674.0</ele><time>2026-04-24T13:37:13Z</time></trkpt><trkpt lat="31.230254658947786" lon="-7.14673355559018"><ele>1674.0</ele><time>2026-04-24T13:37:14Z</time></trkpt><trkpt lat="31.230147389582864" lon="-7.14663247589513"><ele>1674.0</ele><time>2026-04-24T13:37:15Z</time></trkpt><trkpt lat="31.230044733118824" lon="-7.146526524429515"><ele>1672.25</ele><time>2026-04-24T13:37:15.999Z</time></trkpt><trkpt lat="31.229936687647598" lon="-7.146436318406141"><ele>1670.5</ele><time>2026-04-24T13:37:16.999Z</time></trkpt><trkpt lat="31.22981924333365" lon="-7.146366984660962"><ele>1668.75</ele><time>2026-04-24T13:37:17.999Z</time></trkpt><trkpt lat="31.229732334734525" lon="-7.1462595407970735"><ele>1667.0</ele><time>2026-04-24T13:37:18.999Z</time></trkpt><trkpt lat="31.229680127055456" lon="-7.146126272028086"><ele>1667.0</ele><time>2026-04-24T13:37:19.999Z</time></trkpt><trkpt lat="31.229624050111603" lon="-7.145993693248337"><ele>1667.0</ele><time>2026-04-24T13:37:20.999Z</time></trkpt><trkpt lat="31.22956421166835" lon="-7.1458654880094805"><ele>1667.0</ele><time>2026-04-24T13:37:21.999Z</time></trkpt><trkpt lat="31.229491057738123" lon="-7.145752185527388"><ele>1667.0</ele><time>2026-04-24T13:37:22.999Z</time></trkpt><trkpt lat="31.229407845717013" lon="-7.14566033426409"><ele>1676.0</ele><time>2026-04-24T13:37:23.999Z</time></trkpt><trkpt lat="31.229309789783613" lon="-7.145612934336251"><ele>1685.0</ele><time>2026-04-24T13:37:24.999Z</time></trkpt><trkpt lat="31.229206879485083" lon="-7.145596412352746"><ele>1693.9999999999998</ele><time>2026-04-24T13:37:25.999Z</time></trkpt><trkpt lat="31.22908943374695" lon="-7.145596412351498"><ele>1703.0</ele><time>2026-04-24T13:37:26.999Z</time></trkpt><trkpt lat="31.228968179964784" lon="-7.145596632741831"><ele>1712.0</ele><time>2026-04-24T13:37:27.999Z</time></trkpt><trkpt lat="31.228840391442237" lon="-7.145598419007608"><ele>1712.0</ele><time>2026-04-24T13:37:28.999Z</time></trkpt><trkpt lat="31.22870853299827" lon="-7.14560020831978"><ele>1712.0</ele><time>2026-04-24T13:37:30.001Z</time></trkpt><trkpt lat="31.2285716888618" lon="-7.145603120586935"><ele>1712.0</ele><time>2026-04-24T13:37:31.001Z</time></trkpt><trkpt lat="31.22843270154019" lon="-7.145612801686406"><ele>1712.0</ele><time>2026-04-24T13:37:32.001Z</time></trkpt><trkpt lat="31.228298015630667" lon="-7.145622829690313"><ele>1712.0</ele><time>2026-04-24T13:37:33.001Z</time></trkpt><trkpt lat="31.228167107514842" lon="-7.145633096992034"><ele>1712.0</ele><time>2026-04-24T13:37:34.001Z</time></trkpt><trkpt lat="31.228028710915837" lon="-7.145632714024026"><ele>1712.0</ele><time>2026-04-24T13:37:35.001Z</time></trkpt><trkpt lat="31.22787641266194" lon="-7.145602108340158"><ele>1712.0</ele><time>2026-04-24T13:37:36.001Z</time></trkpt><trkpt lat="31.22772186117456" lon="-7.145536568707229"><ele>1707.6666666666665</ele><time>2026-04-24T13:37:37.001Z</time></trkpt><trkpt lat="31.227552984280678" lon="-7.145486366780512"><ele>1703.3333333333335</ele><time>2026-04-24T13:37:38.001Z</time></trkpt><trkpt lat="31.2273760650064" lon="-7.1454320146759285"><ele>1699.0</ele><time>2026-04-24T13:37:39.001Z</time></trkpt><trkpt lat="31.227193859414765" lon="-7.145377452219069"><ele>1690.6666666666667</ele><time>2026-04-24T13:37:40.001Z</time></trkpt><trkpt lat="31.227003104381236" lon="-7.145319013507753"><ele>1682.3333333333335</ele><time>2026-04-24T13:37:41.001Z</time></trkpt><trkpt lat="31.226809955954135" lon="-7.145260270026624"><ele>1674.0</ele><time>2026-04-24T13:37:42.001Z</time></trkpt><trkpt lat="31.22662052548378" lon="-7.145200984517235"><ele>1668.3333333333335</ele><time>2026-04-24T13:37:43.001Z</time></trkpt><trkpt lat="31.226438324814605" lon="-7.145139270988578"><ele>1662.6666666666667</ele><time>2026-04-24T13:37:44.001Z</time></trkpt><trkpt lat="31.226266507677902" lon="-7.145083746236301"><ele>1657.0</ele><time>2026-04-24T13:37:45.001Z</time></trkpt><trkpt lat="31.226103883717077" lon="-7.145032190617583"><ele>1657.0</ele><time>2026-04-24T13:37:46Z</time></trkpt><trkpt lat="31.225949500563367" lon="-7.144979786843824"><ele>1657.0</ele><time>2026-04-24T13:37:47Z</time></trkpt><trkpt lat="31.225801161119204" lon="-7.144913313961333"><ele>1657.0</ele><time>2026-04-24T13:37:48Z</time></trkpt><trkpt lat="31.225660567939094" lon="-7.1448357598564325"><ele>1661.3333333333335</ele><time>2026-04-24T13:37:49Z</time></trkpt><trkpt lat="31.2255270155729" lon="-7.144754193323548"><ele>1665.6666666666665</ele><time>2026-04-24T13:37:50Z</time></trkpt><trkpt lat="31.225398415830657" lon="-7.1446672236312025"><ele>1670.0</ele><time>2026-04-24T13:37:51Z</time></trkpt><trkpt lat="31.225272290820612" lon="-7.144570670910132"><ele>1670.0</ele><time>2026-04-24T13:37:52Z</time></trkpt><trkpt lat="31.225149024651042" lon="-7.144462818797149"><ele>1670.0</ele><time>2026-04-24T13:37:53Z</time></trkpt><trkpt lat="31.225020758894917" lon="-7.144359608335722"><ele>1670.0</ele><time>2026-04-24T13:37:54Z</time></trkpt><trkpt lat="31.224879333915705" lon="-7.144266343449509"><ele>1676.3333333333333</ele><time>2026-04-24T13:37:55Z</time></trkpt><trkpt lat="31.224729897376367" lon="-7.144201428998756"><ele>1682.6666666666665</ele><time>2026-04-24T13:37:56Z</time></trkpt><trkpt lat="31.22458889823388" lon="-7.144105465765237"><ele>1689.0</ele><time>2026-04-24T13:37:57Z</time></trkpt><trkpt lat="31.22446656143097" lon="-7.143992545332864"><ele>1689.0</ele><time>2026-04-24T13:37:58Z</time></trkpt><trkpt lat="31.224334890635028" lon="-7.14391230102621"><ele>1689.0</ele><time>2026-04-24T13:37:59Z</time></trkpt><trkpt lat="31.22419730072371" lon="-7.143854841330013"><ele>1689.0</ele><time>2026-04-24T13:38:00Z</time></trkpt><trkpt lat="31.224048924968503" lon="-7.143845962294489"><ele>1689.0</ele><time>2026-04-24T13:38:01Z</time></trkpt><trkpt lat="31.223898743056502" lon="-7.143830671643581"><ele>1685.25</ele><time>2026-04-24T13:38:02Z</time></trkpt><trkpt lat="31.22374609399558" lon="-7.143819211434991"><ele>1681.5</ele><time>2026-04-24T13:38:03Z</time></trkpt><trkpt lat="31.223602845896593" lon="-7.143822714661961"><ele>1677.75</ele><time>2026-04-24T13:38:04Z</time></trkpt><trkpt lat="31.223456015773934" lon="-7.143828856398509"><ele>1674.0</ele><time>2026-04-24T13:38:05Z</time></trkpt><trkpt lat="31.223313924797555" lon="-7.143803255832514"><ele>1674.0</ele><time>2026-04-24T13:38:06Z</time></trkpt><trkpt lat="31.223168596280203" lon="-7.143761281083117"><ele>1674.0</ele><time>2026-04-24T13:38:07Z</time></trkpt><trkpt lat="31.223027405380126" lon="-7.143709525927033"><ele>1674.0</ele><time>2026-04-24T13:38:08Z</time></trkpt><trkpt lat="31.222886233174634" lon="-7.143655790747818"><ele>1674.0</ele><time>2026-04-24T13:38:09Z</time></trkpt><trkpt lat="31.222745259464926" lon="-7.143609731499018"><ele>1675.25</ele><time>2026-04-24T13:38:10Z</time></trkpt><trkpt lat="31.222600298683634" lon="-7.143566630945244"><ele>1676.5</ele><time>2026-04-24T13:38:11Z</time></trkpt><trkpt lat="31.222459370959015" lon="-7.14353556222447"><ele>1677.75</ele><time>2026-04-24T13:38:12Z</time></trkpt><trkpt lat="31.222321809683287" lon="-7.143506177757215"><ele>1679.0</ele><time>2026-04-24T13:38:13Z</time></trkpt><trkpt lat="31.222193143302185" lon="-7.143482231726974"><ele>1672.25</ele><time>2026-04-24T13:38:14Z</time></trkpt><trkpt lat="31.222067683283854" lon="-7.143474875938901"><ele>1665.5</ele><time>2026-04-24T13:38:15Z</time></trkpt><trkpt lat="31.221946448933494" lon="-7.1434829418975"><ele>1658.75</ele><time>2026-04-24T13:38:16Z</time></trkpt><trkpt lat="31.22183329520057" lon="-7.143493002345475"><ele>1652.0</ele><time>2026-04-24T13:38:17Z</time></trkpt><trkpt lat="31.221723685407255" lon="-7.1434880852111595"><ele>1652.0</ele><time>2026-04-24T13:38:18Z</time></trkpt><trkpt lat="31.221620125449174" lon="-7.143462829946561"><ele>1652.0</ele><time>2026-04-24T13:38:19Z</time></trkpt><trkpt lat="31.221541623194216" lon="-7.143372075411548"><ele>1652.0</ele><time>2026-04-24T13:38:20Z</time></trkpt><trkpt lat="31.2215144404765" lon="-7.14325924771546"><ele>1652.0</ele><time>2026-04-24T13:38:21Z</time></trkpt><trkpt lat="31.22149378969485" lon="-7.143137242958265"><ele>1652.0</ele><time>2026-04-24T13:38:22Z</time></trkpt><trkpt lat="31.221488238151128" lon="-7.143015977762842"><ele>1653.6666666666665</ele><time>2026-04-24T13:38:23Z</time></trkpt><trkpt lat="31.221483370214255" lon="-7.14290147526245"><ele>1655.3333333333333</ele><time>2026-04-24T13:38:24Z</time></trkpt><trkpt lat="31.22148842046556" lon="-7.142800354935631"><ele>1657.0</ele><time>2026-04-24T13:38:25Z</time></trkpt><trkpt lat="31.22154798561443" lon="-7.142721252277962"><ele>1658.6666666666665</ele><time>2026-04-24T13:38:26Z</time></trkpt><trkpt lat="31.221603781806945" lon="-7.1426685115786155"><ele>1660.3333333333333</ele><time>2026-04-24T13:38:27Z</time></trkpt><trkpt lat="31.221667384558863" lon="-7.1426278454626075"><ele>1662.0</ele><time>2026-04-24T13:38:28Z</time></trkpt><trkpt lat="31.221717779156485" lon="-7.1425670531618195"><ele>1662.0</ele><time>2026-04-24T13:38:29Z</time></trkpt><trkpt lat="31.22174667568507" lon="-7.142475291445251"><ele>1662.0</ele><time>2026-04-24T13:38:30Z</time></trkpt><trkpt lat="31.221754852082956" lon="-7.1423647952349345"><ele>1662.0</ele><time>2026-04-24T13:38:31Z</time></trkpt><trkpt lat="31.221744225437202" lon="-7.142246087582846"><ele>1662.0</ele><time>2026-04-24T13:38:32Z</time></trkpt><trkpt lat="31.221717688595543" lon="-7.142125690338172"><ele>1662.0</ele><time>2026-04-24T13:38:33Z</time></trkpt><trkpt lat="31.221674381365375" lon="-7.142010034506507"><ele>1663.5</ele><time>2026-04-24T13:38:34Z</time></trkpt><trkpt lat="31.221611866204807" lon="-7.141900660732516"><ele>1665.0</ele><time>2026-04-24T13:38:35Z</time></trkpt><trkpt lat="31.221534870166025" lon="-7.141795887021533"><ele>1666.5</ele><time>2026-04-24T13:38:36Z</time></trkpt><trkpt lat="31.22144836414858" lon="-7.14169531968818"><ele>1668.0</ele><time>2026-04-24T13:38:37Z</time></trkpt><trkpt lat="31.221349940934076" lon="-7.141602126625508"><ele>1668.75</ele><time>2026-04-24T13:38:38Z</time></trkpt><trkpt lat="31.221227947261134" lon="-7.14155761616127"><ele>1669.5</ele><time>2026-04-24T13:38:39Z</time></trkpt><trkpt lat="31.221094323310055" lon="-7.141519611058476"><ele>1670.25</ele><time>2026-04-24T13:38:40Z</time></trkpt><trkpt lat="31.220954299025095" lon="-7.1414799398983355"><ele>1671.0</ele><time>2026-04-24T13:38:41Z</time></trkpt><trkpt lat="31.220810867122147" lon="-7.1414405837606365"><ele>1671.0</ele><time>2026-04-24T13:38:42Z</time></trkpt><trkpt lat="31.220664981239256" lon="-7.141403489885618"><ele>1671.0</ele><time>2026-04-24T13:38:43Z</time></trkpt><trkpt lat="31.220516861855696" lon="-7.141365568590933"><ele>1671.0</ele><time>2026-04-24T13:38:44Z</time></trkpt><trkpt lat="31.22036863740228" lon="-7.141323542081931"><ele>1666.25</ele><time>2026-04-24T13:38:45Z</time></trkpt><trkpt lat="31.22022745469697" lon="-7.141276976530207"><ele>1661.5</ele><time>2026-04-24T13:38:46Z</time></trkpt><trkpt lat="31.22009033089862" lon="-7.141232261291819"><ele>1656.75</ele><time>2026-04-24T13:38:47Z</time></trkpt><trkpt lat="31.219959443042704" lon="-7.141189339855377"><ele>1652.0</ele><time>2026-04-24T13:38:48Z</time></trkpt><trkpt lat="31.219832393746746" lon="-7.14115842921581"><ele>1647.6</ele><time>2026-04-24T13:38:49Z</time></trkpt><trkpt lat="31.21971408731234" lon="-7.141130473888385"><ele>1643.1999999999998</ele><time>2026-04-24T13:38:50Z</time></trkpt><trkpt lat="31.219611401811918" lon="-7.141104778167865"><ele>1638.8</ele><time>2026-04-24T13:38:51Z</time></trkpt><trkpt lat="31.21952492102581" lon="-7.141071841335886"><ele>1634.4</ele><time>2026-04-24T13:38:52Z</time></trkpt><trkpt lat="31.219450004460548" lon="-7.14099289521125"><ele>1630.0</ele><time>2026-04-24T13:38:53Z</time></trkpt><trkpt lat="31.21941543219072" lon="-7.140874246264997"><ele>1630.0</ele><time>2026-04-24T13:38:54Z</time></trkpt><trkpt lat="31.219382770463493" lon="-7.140757021985656"><ele>1630.0</ele><time>2026-04-24T13:38:55Z</time></trkpt><trkpt lat="31.219353026517446" lon="-7.14062871323234"><ele>1630.0</ele><time>2026-04-24T13:38:56Z</time></trkpt><trkpt lat="31.21934209194237" lon="-7.140498519175842"><ele>1630.0</ele><time>2026-04-24T13:38:57Z</time></trkpt><trkpt lat="31.219312482081275" lon="-7.140373714523449"><ele>1630.0</ele><time>2026-04-24T13:38:58Z</time></trkpt><trkpt lat="31.219292275967327" lon="-7.140253169836916"><ele>1633.8</ele><time>2026-04-24T13:38:59Z</time></trkpt><trkpt lat="31.21927476618217" lon="-7.140137381890705"><ele>1637.6</ele><time>2026-04-24T13:39:00Z</time></trkpt><trkpt lat="31.219249864477906" lon="-7.140026280058895"><ele>1641.4</ele><time>2026-04-24T13:39:01Z</time></trkpt><trkpt lat="31.219207543903927" lon="-7.139923369751851"><ele>1645.2</ele><time>2026-04-24T13:39:02Z</time></trkpt><trkpt lat="31.219139381266327" lon="-7.139838299822196"><ele>1649.0</ele><time>2026-04-24T13:39:03Z</time></trkpt><trkpt lat="31.21904650636" lon="-7.139776144802843"><ele>1648.75</ele><time>2026-04-24T13:39:04Z</time></trkpt><trkpt lat="31.218942504417008" lon="-7.139723980231285"><ele>1648.5</ele><time>2026-04-24T13:39:05Z</time></trkpt><trkpt lat="31.218830812603294" lon="-7.139683577311699"><ele>1648.25</ele><time>2026-04-24T13:39:06Z</time></trkpt><trkpt lat="31.218722848657002" lon="-7.139609590237604"><ele>1648.0</ele><time>2026-04-24T13:39:07Z</time></trkpt><trkpt lat="31.21863583137855" lon="-7.139511847389921"><ele>1648.0</ele><time>2026-04-24T13:39:08Z</time></trkpt><trkpt lat="31.218560031624715" lon="-7.139394569698594"><ele>1648.0</ele><time>2026-04-24T13:39:09Z</time></trkpt><trkpt lat="31.218510858485754" lon="-7.139258399904147"><ele>1648.0</ele><time>2026-04-24T13:39:10Z</time></trkpt><trkpt lat="31.218504807456213" lon="-7.139106624638934"><ele>1648.0</ele><time>2026-04-24T13:39:11Z</time></trkpt><trkpt lat="31.218498917172106" lon="-7.138952900020651"><ele>1648.75</ele><time>2026-04-24T13:39:12Z</time></trkpt><trkpt lat="31.21849865906614" lon="-7.138797593275418"><ele>1649.5</ele><time>2026-04-24T13:39:13Z</time></trkpt><trkpt lat="31.21848832051597" lon="-7.1386397284430405"><ele>1650.25</ele><time>2026-04-24T13:39:14Z</time></trkpt><trkpt lat="31.218459796698806" lon="-7.138480798434137"><ele>1651.0</ele><time>2026-04-24T13:39:15Z</time></trkpt><trkpt lat="31.218407859064083" lon="-7.138320128372615"><ele>1654.75</ele><time>2026-04-24T13:39:16Z</time></trkpt><trkpt lat="31.21832249711952" lon="-7.1381834223698215"><ele>1658.5</ele><time>2026-04-24T13:39:17Z</time></trkpt><trkpt lat="31.21824019363835" lon="-7.138053031992295"><ele>1662.25</ele><time>2026-04-24T13:39:18Z</time></trkpt><trkpt lat="31.218163574465265" lon="-7.137933525854438"><ele>1666.0</ele><time>2026-04-24T13:39:19Z</time></trkpt><trkpt lat="31.21810098128431" lon="-7.137823368153461"><ele>1666.0</ele><time>2026-04-24T13:39:19.999Z</time></trkpt><trkpt lat="31.218018933769404" lon="-7.137762952839646"><ele>1666.0</ele><time>2026-04-24T13:39:20.999Z</time></trkpt><trkpt lat="31.217930805683267" lon="-7.137771507244935"><ele>1666.0</ele><time>2026-04-24T13:39:21.999Z</time></trkpt><trkpt lat="31.217852324484557" lon="-7.137796374171613"><ele>1666.0</ele><time>2026-04-24T13:39:22.999Z</time></trkpt><trkpt lat="31.217766874495148" lon="-7.137814488506907"><ele>1666.0</ele><time>2026-04-24T13:39:23.999Z</time></trkpt><trkpt lat="31.217670456899935" lon="-7.137821196365525"><ele>1666.0</ele><time>2026-04-24T13:39:24.999Z</time></trkpt><trkpt lat="31.21756317833281" lon="-7.1378123894538135"><ele>1666.0</ele><time>2026-04-24T13:39:25.999Z</time></trkpt><trkpt lat="31.217451964556744" lon="-7.137768948620449"><ele>1666.0</ele><time>2026-04-24T13:39:26.999Z</time></trkpt><trkpt lat="31.217336828546816" lon="-7.137719276258072"><ele>1666.0</ele><time>2026-04-24T13:39:27.999Z</time></trkpt><trkpt lat="31.21722200605688" lon="-7.137659288512537"><ele>1667.25</ele><time>2026-04-24T13:39:28.999Z</time></trkpt><trkpt lat="31.217111559090245" lon="-7.1375742237601205"><ele>1668.5</ele><time>2026-04-24T13:39:29.999Z</time></trkpt><trkpt lat="31.2170040651943" lon="-7.137490221179215"><ele>1669.75</ele><time>2026-04-24T13:39:30.999Z</time></trkpt><trkpt lat="31.216905675779618" lon="-7.1373989203765715"><ele>1671.0</ele><time>2026-04-24T13:39:31.999Z</time></trkpt><trkpt lat="31.21681098578146" lon="-7.137297958539742"><ele>1671.0</ele><time>2026-04-24T13:39:32.999Z</time></trkpt><trkpt lat="31.216720909288416" lon="-7.137193569567756"><ele>1671.0</ele><time>2026-04-24T13:39:33.999Z</time></trkpt><trkpt lat="31.216629437492657" lon="-7.137087558271429"><ele>1671.0</ele><time>2026-04-24T13:39:34.999Z</time></trkpt><trkpt lat="31.216533786170388" lon="-7.136975126665872"><ele>1671.0</ele><time>2026-04-24T13:39:36.001Z</time></trkpt><trkpt lat="31.21643844959127" lon="-7.136862926567"><ele>1666.25</ele><time>2026-04-24T13:39:37.001Z</time></trkpt><trkpt lat="31.21634771045779" lon="-7.136756180132764"><ele>1661.5</ele><time>2026-04-24T13:39:38.001Z</time></trkpt><trkpt lat="31.216262408039245" lon="-7.136655829504023"><ele>1656.75</ele><time>2026-04-24T13:39:39.001Z</time></trkpt><trkpt lat="31.21618366725626" lon="-7.136563795291137"><ele>1652.0</ele><time>2026-04-24T13:39:40.001Z</time></trkpt><trkpt lat="31.216113272447004" lon="-7.136462816727865"><ele>1652.0</ele><time>2026-04-24T13:39:41.001Z</time></trkpt><trkpt lat="31.21608279815078" lon="-7.136333463547329"><ele>1652.0</ele><time>2026-04-24T13:39:42.001Z</time></trkpt><trkpt lat="31.21605222326124" lon="-7.1361938679725085"><ele>1652.0</ele><time>2026-04-24T13:39:43.001Z</time></trkpt><trkpt lat="31.21603045239425" lon="-7.1360436656313695"><ele>1652.0</ele><time>2026-04-24T13:39:44.001Z</time></trkpt><trkpt lat="31.21600650960329" lon="-7.135894601992494"><ele>1652.0</ele><time>2026-04-24T13:39:45.001Z</time></trkpt><trkpt lat="31.215951835127775" lon="-7.135771252197003"><ele>1652.0</ele><time>2026-04-24T13:39:46.001Z</time></trkpt><trkpt lat="31.21591817337424" lon="-7.13565046823423"><ele>1652.0</ele><time>2026-04-24T13:39:47Z</time></trkpt><trkpt lat="31.21591759989549" lon="-7.135521809699517"><ele>1652.0</ele><time>2026-04-24T13:39:48Z</time></trkpt><trkpt lat="31.21594917351873" lon="-7.135399409565254"><ele>1652.0</ele><time>2026-04-24T13:39:49Z</time></trkpt><trkpt lat="31.216003472241272" lon="-7.135292610057094"><ele>1651.1999999999998</ele><time>2026-04-24T13:39:50Z</time></trkpt><trkpt lat="31.216027459747174" lon="-7.13517313722187"><ele>1650.4</ele><time>2026-04-24T13:39:51Z</time></trkpt><trkpt lat="31.21603528440072" lon="-7.135050148955271"><ele>1649.6</ele><time>2026-04-24T13:39:52Z</time></trkpt><trkpt lat="31.216018030441717" lon="-7.134937134832851"><ele>1648.8000000000002</ele><time>2026-04-24T13:39:53Z</time></trkpt><trkpt lat="31.216031260937218" lon="-7.134814452352748"><ele>1648.0</ele><time>2026-04-24T13:39:54Z</time></trkpt><trkpt lat="31.216087829901465" lon="-7.134708840178159"><ele>1648.0000000000002</ele><time>2026-04-24T13:39:55Z</time></trkpt><trkpt lat="31.216132823991433" lon="-7.134605935433877"><ele>1648.0</ele><time>2026-04-24T13:39:56Z</time></trkpt><trkpt lat="31.21616535722382" lon="-7.134511073001451"><ele>1648.0</ele><time>2026-04-24T13:39:57Z</time></trkpt><trkpt lat="31.216171436319023" lon="-7.134419510428578"><ele>1648.0</ele><time>2026-04-24T13:39:58Z</time></trkpt><trkpt lat="31.216161995047457" lon="-7.13433631478319"><ele>1648.0000000000002</ele><time>2026-04-24T13:39:59Z</time></trkpt><trkpt lat="31.216094045409758" lon="-7.134280089504796"><ele>1648.0</ele><time>2026-04-24T13:40:00Z</time></trkpt><trkpt lat="31.21600124955306" lon="-7.134291096432671"><ele>1648.0</ele><time>2026-04-24T13:40:01Z</time></trkpt><trkpt lat="31.21590430332357" lon="-7.134267934056725"><ele>1648.0</ele><time>2026-04-24T13:40:02Z</time></trkpt><trkpt lat="31.2158037639282" lon="-7.134245022018589"><ele>1648.0</ele><time>2026-04-24T13:40:03Z</time></trkpt><trkpt lat="31.21570235769884" lon="-7.134221912440786"><ele>1648.0</ele><time>2026-04-24T13:40:04Z</time></trkpt><trkpt lat="31.215602564551332" lon="-7.1342111525398515"><ele>1648.0</ele><time>2026-04-24T13:40:05Z</time></trkpt><trkpt lat="31.21550575301558" lon="-7.134231114906595"><ele>1650.2</ele><time>2026-04-24T13:40:06Z</time></trkpt><trkpt lat="31.215400060104603" lon="-7.134262876739624"><ele>1652.4</ele><time>2026-04-24T13:40:07Z</time></trkpt><trkpt lat="31.21531229858912" lon="-7.134315983221858"><ele>1654.6000000000001</ele><time>2026-04-24T13:40:08Z</time></trkpt><trkpt lat="31.215225504450494" lon="-7.134396589562773"><ele>1656.8000000000002</ele><time>2026-04-24T13:40:09Z</time></trkpt><trkpt lat="31.21515090158767" lon="-7.134504228661441"><ele>1659.0</ele><time>2026-04-24T13:40:10Z</time></trkpt><trkpt lat="31.215071430882773" lon="-7.13460803127382"><ele>1659.0</ele><time>2026-04-24T13:40:11Z</time></trkpt><trkpt lat="31.21499638447204" lon="-7.134701972868619"><ele>1659.0</ele><time>2026-04-24T13:40:12Z</time></trkpt><trkpt lat="31.214922319445456" lon="-7.134781636716412"><ele>1659.0</ele><time>2026-04-24T13:40:13Z</time></trkpt><trkpt lat="31.21483016861265" lon="-7.134836842279145"><ele>1659.0</ele><time>2026-04-24T13:40:14Z</time></trkpt><trkpt lat="31.21473240096544" lon="-7.134844154708641"><ele>1659.0</ele><time>2026-04-24T13:40:15Z</time></trkpt><trkpt lat="31.214638167488268" lon="-7.134806209031473"><ele>1657.5</ele><time>2026-04-24T13:40:16Z</time></trkpt><trkpt lat="31.21455267724771" lon="-7.134745042693834"><ele>1656.0</ele><time>2026-04-24T13:40:17Z</time></trkpt><trkpt lat="31.21445372741063" lon="-7.134654703008491"><ele>1654.5</ele><time>2026-04-24T13:40:18Z</time></trkpt><trkpt lat="31.214345328059068" lon="-7.1345528990417275"><ele>1653.0</ele><time>2026-04-24T13:40:19Z</time></trkpt><trkpt lat="31.214236081775336" lon="-7.134446754376439"><ele>1653.0</ele><time>2026-04-24T13:40:20Z</time></trkpt><trkpt lat="31.214125109862564" lon="-7.134336581188822"><ele>1653.0</ele><time>2026-04-24T13:40:21Z</time></trkpt><trkpt lat="31.214008060320637" lon="-7.134228998760408"><ele>1653.0</ele><time>2026-04-24T13:40:22Z</time></trkpt><trkpt lat="31.213885817878932" lon="-7.134131431282166"><ele>1653.0</ele><time>2026-04-24T13:40:23Z</time></trkpt><trkpt lat="31.2137628392231" lon="-7.134052614370729"><ele>1654.25</ele><time>2026-04-24T13:40:24Z</time></trkpt><trkpt lat="31.21364047659392" lon="-7.133998421873573"><ele>1655.5</ele><time>2026-04-24T13:40:25Z</time></trkpt><trkpt lat="31.213516095188176" lon="-7.133982974855802"><ele>1656.75</ele><time>2026-04-24T13:40:26Z</time></trkpt><trkpt lat="31.213386283172486" lon="-7.133943925272448"><ele>1658.0</ele><time>2026-04-24T13:40:27Z</time></trkpt><trkpt lat="31.21327446495604" lon="-7.133859774476014"><ele>1658.0</ele><time>2026-04-24T13:40:28Z</time></trkpt><trkpt lat="31.213175897319815" lon="-7.1337608952192895"><ele>1658.0</ele><time>2026-04-24T13:40:29Z</time></trkpt><trkpt lat="31.213079086992497" lon="-7.133665551021393"><ele>1658.0</ele><time>2026-04-24T13:40:30Z</time></trkpt><trkpt lat="31.212990442464527" lon="-7.133568180621646"><ele>1658.0</ele><time>2026-04-24T13:40:31Z</time></trkpt><trkpt lat="31.21287791611746" lon="-7.133528557245848"><ele>1654.5</ele><time>2026-04-24T13:40:32Z</time></trkpt><trkpt lat="31.21276991363362" lon="-7.133485564238399"><ele>1651.0</ele><time>2026-04-24T13:40:33Z</time></trkpt><trkpt lat="31.212660456766685" lon="-7.13345631937189"><ele>1647.5</ele><time>2026-04-24T13:40:34Z</time></trkpt><trkpt lat="31.212544972377394" lon="-7.133424084343864"><ele>1644.0</ele><time>2026-04-24T13:40:35Z</time></trkpt><trkpt lat="31.212427613414764" lon="-7.133395361389858"><ele>1640.0</ele><time>2026-04-24T13:40:36Z</time></trkpt><trkpt lat="31.212305306857612" lon="-7.133367918483999"><ele>1636.0</ele><time>2026-04-24T13:40:37Z</time></trkpt><trkpt lat="31.212195676937203" lon="-7.133352610815912"><ele>1632.0</ele><time>2026-04-24T13:40:38Z</time></trkpt><trkpt lat="31.2120855066324" lon="-7.133349781323967"><ele>1628.0</ele><time>2026-04-24T13:40:39Z</time></trkpt><trkpt lat="31.211980327490657" lon="-7.133346889269464"><ele>1628.0</ele><time>2026-04-24T13:40:40Z</time></trkpt><trkpt lat="31.21188085036842" lon="-7.133341827939191"><ele>1628.0</ele><time>2026-04-24T13:40:41Z</time></trkpt><trkpt lat="31.21178883706764" lon="-7.133310707643474"><ele>1628.0</ele><time>2026-04-24T13:40:42Z</time></trkpt><trkpt lat="31.211712092755747" lon="-7.133246582469996"><ele>1628.0</ele><time>2026-04-24T13:40:43Z</time></trkpt><trkpt lat="31.211665028486873" lon="-7.133127230928984"><ele>1628.0</ele><time>2026-04-24T13:40:44Z</time></trkpt><trkpt lat="31.211677335029748" lon="-7.1330171577434225"><ele>1628.8000000000002</ele><time>2026-04-24T13:40:45Z</time></trkpt><trkpt lat="31.211714574670584" lon="-7.1329160360472015"><ele>1629.6</ele><time>2026-04-24T13:40:46Z</time></trkpt><trkpt lat="31.21176228265809" lon="-7.13280447370455"><ele>1630.4</ele><time>2026-04-24T13:40:47Z</time></trkpt><trkpt lat="31.211829859688137" lon="-7.132698450653448"><ele>1631.1999999999998</ele><time>2026-04-24T13:40:48Z</time></trkpt><trkpt lat="31.211851702479912" lon="-7.132567894813174"><ele>1632.0</ele><time>2026-04-24T13:40:49Z</time></trkpt><trkpt lat="31.211824443707535" lon="-7.132434860756156"><ele>1632.25</ele><time>2026-04-24T13:40:50Z</time></trkpt><trkpt lat="31.21179145644158" lon="-7.132294277475928"><ele>1632.5</ele><time>2026-04-24T13:40:51Z</time></trkpt><trkpt lat="31.211771750567433" lon="-7.132145127300416"><ele>1632.75</ele><time>2026-04-24T13:40:52Z</time></trkpt><trkpt lat="31.211778542991826" lon="-7.131986874802566"><ele>1633.0</ele><time>2026-04-24T13:40:53Z</time></trkpt><trkpt lat="31.211778815813584" lon="-7.131816432286824"><ele>1633.0</ele><time>2026-04-24T13:40:54Z</time></trkpt><trkpt lat="31.211777512786067" lon="-7.131641336711897"><ele>1633.0</ele><time>2026-04-24T13:40:55Z</time></trkpt><trkpt lat="31.21176094601317" lon="-7.131462493569979"><ele>1633.0</ele><time>2026-04-24T13:40:56Z</time></trkpt><trkpt lat="31.211724648066166" lon="-7.131283163229502"><ele>1633.0</ele><time>2026-04-24T13:40:57Z</time></trkpt><trkpt lat="31.211674619793303" lon="-7.131105742064239"><ele>1633.0</ele><time>2026-04-24T13:40:58Z</time></trkpt><trkpt lat="31.211629607518955" lon="-7.130929468593155"><ele>1633.0</ele><time>2026-04-24T13:40:59Z</time></trkpt><trkpt lat="31.211594714311" lon="-7.130756570864955"><ele>1632.5</ele><time>2026-04-24T13:41:00Z</time></trkpt><trkpt lat="31.211559200420794" lon="-7.130590222779045"><ele>1632.0</ele><time>2026-04-24T13:41:01Z</time></trkpt><trkpt lat="31.211511938601383" lon="-7.130435298859926"><ele>1631.5</ele><time>2026-04-24T13:41:02Z</time></trkpt><trkpt lat="31.211450204785443" lon="-7.130296085642386"><ele>1631.0</ele><time>2026-04-24T13:41:03Z</time></trkpt><trkpt lat="31.211375926673163" lon="-7.130174988211197"><ele>1630.6666666666665</ele><time>2026-04-24T13:41:04Z</time></trkpt><trkpt lat="31.211296977728214" lon="-7.130075085816406"><ele>1630.3333333333333</ele><time>2026-04-24T13:41:05Z</time></trkpt><trkpt lat="31.211218373402314" lon="-7.130006401054211"><ele>1630.0</ele><time>2026-04-24T13:41:06Z</time></trkpt><trkpt lat="31.211138752564842" lon="-7.129998440625774"><ele>1629.6666666666665</ele><time>2026-04-24T13:41:07Z</time></trkpt><trkpt lat="31.211068052989905" lon="-7.130013506805586"><ele>1629.3333333333333</ele><time>2026-04-24T13:41:08Z</time></trkpt><trkpt lat="31.211018248628278" lon="-7.1300765852422705"><ele>1629.0</ele><time>2026-04-24T13:41:09Z</time></trkpt><trkpt lat="31.210966416966215" lon="-7.130169601766778"><ele>1629.0</ele><time>2026-04-24T13:41:10Z</time></trkpt><trkpt lat="31.210917671779356" lon="-7.130288786706136"><ele>1629.0</ele><time>2026-04-24T13:41:11Z</time></trkpt><trkpt lat="31.210867330938836" lon="-7.130423570653152"><ele>1629.0</ele><time>2026-04-24T13:41:12Z</time></trkpt><trkpt lat="31.210816104086344" lon="-7.130567784206396"><ele>1629.0</ele><time>2026-04-24T13:41:13Z</time></trkpt><trkpt lat="31.210758548860703" lon="-7.130716193625336"><ele>1628.0</ele><time>2026-04-24T13:41:14Z</time></trkpt><trkpt lat="31.210695701792872" lon="-7.1308631590777125"><ele>1627.0</ele><time>2026-04-24T13:41:15Z</time></trkpt><trkpt lat="31.210627604374086" lon="-7.131018541052919"><ele>1626.0</ele><time>2026-04-24T13:41:16Z</time></trkpt><trkpt lat="31.210555381458356" lon="-7.1311798260114845"><ele>1625.0</ele><time>2026-04-24T13:41:17Z</time></trkpt><trkpt lat="31.21047998884632" lon="-7.131342226774083"><ele>1629.0</ele><time>2026-04-24T13:41:17.999Z</time></trkpt><trkpt lat="31.210404020407307" lon="-7.131506163600135"><ele>1633.0</ele><time>2026-04-24T13:41:18.999Z</time></trkpt><trkpt lat="31.210328612735044" lon="-7.131669172428288"><ele>1637.0</ele><time>2026-04-24T13:41:19.999Z</time></trkpt><trkpt lat="31.210254265718202" lon="-7.131831376483491"><ele>1637.0</ele><time>2026-04-24T13:41:20.999Z</time></trkpt><trkpt lat="31.210179227097434" lon="-7.131994358987214"><ele>1637.0</ele><time>2026-04-24T13:41:21.999Z</time></trkpt><trkpt lat="31.210101739803836" lon="-7.132159054727503"><ele>1637.0</ele><time>2026-04-24T13:41:22.999Z</time></trkpt><trkpt lat="31.210026540294653" lon="-7.132324569529794"><ele>1634.0</ele><time>2026-04-24T13:41:23.999Z</time></trkpt><trkpt lat="31.209954794423208" lon="-7.132497250262804"><ele>1631.0</ele><time>2026-04-24T13:41:24.999Z</time></trkpt><trkpt lat="31.209884595823105" lon="-7.13266729218873"><ele>1628.0</ele><time>2026-04-24T13:41:25.999Z</time></trkpt><trkpt lat="31.209818318892808" lon="-7.132831651205621"><ele>1631.5</ele><time>2026-04-24T13:41:26.999Z</time></trkpt><trkpt lat="31.209753586979488" lon="-7.132990776648594"><ele>1635.0</ele><time>2026-04-24T13:41:27.999Z</time></trkpt><trkpt lat="31.209694262724312" lon="-7.133138199041391"><ele>1638.5</ele><time>2026-04-24T13:41:28.999Z</time></trkpt><trkpt lat="31.209640724802483" lon="-7.133281565840402"><ele>1642.0</ele><time>2026-04-24T13:41:29.999Z</time></trkpt><trkpt lat="31.20959091763262" lon="-7.133413858046007"><ele>1642.0</ele><time>2026-04-24T13:41:30.999Z</time></trkpt><trkpt lat="31.20953009244915" lon="-7.133539407230028"><ele>1642.0</ele><time>2026-04-24T13:41:31.999Z</time></trkpt><trkpt lat="31.209463885933634" lon="-7.1336411281567536"><ele>1642.0</ele><time>2026-04-24T13:41:32.999Z</time></trkpt><trkpt lat="31.20937886127715" lon="-7.133727892255107"><ele>1642.0</ele><time>2026-04-24T13:41:33.999Z</time></trkpt><trkpt lat="31.209266556617642" lon="-7.133772872952504"><ele>1642.0</ele><time>2026-04-24T13:41:34.999Z</time></trkpt><trkpt lat="31.20917432877042" lon="-7.1337885202072835"><ele>1642.0</ele><time>2026-04-24T13:41:35.999Z</time></trkpt><trkpt lat="31.209091478764662" lon="-7.133784528545989"><ele>1642.0</ele><time>2026-04-24T13:41:36.999Z</time></trkpt><trkpt lat="31.20900539402229" lon="-7.1337989300788065"><ele>1642.0</ele><time>2026-04-24T13:41:37.999Z</time></trkpt><trkpt lat="31.20890271126124" lon="-7.133810131270554"><ele>1642.0</ele><time>2026-04-24T13:41:38.999Z</time></trkpt><trkpt lat="31.208795879823278" lon="-7.133826164056721"><ele>1640.75</ele><time>2026-04-24T13:41:39.999Z</time></trkpt><trkpt lat="31.20868349531284" lon="-7.133835420278492"><ele>1639.5</ele><time>2026-04-24T13:41:40.999Z</time></trkpt><trkpt lat="31.20856785151985" lon="-7.133829532531375"><ele>1638.25</ele><time>2026-04-24T13:41:42Z</time></trkpt><trkpt lat="31.208446261257606" lon="-7.133820270084016"><ele>1637.0</ele><time>2026-04-24T13:41:43Z</time></trkpt><trkpt lat="31.208327751154094" lon="-7.13375477035305"><ele>1637.0</ele><time>2026-04-24T13:41:44Z</time></trkpt><trkpt lat="31.208207035236057" lon="-7.133694854709741"><ele>1637.0</ele><time>2026-04-24T13:41:45Z</time></trkpt><trkpt lat="31.208090757607323" lon="-7.133627872687964"><ele>1637.0</ele><time>2026-04-24T13:41:46Z</time></trkpt><trkpt lat="31.207973136058758" lon="-7.133561934474819"><ele>1637.0</ele><time>2026-04-24T13:41:47Z</time></trkpt><trkpt lat="31.207854957733247" lon="-7.133503358668304"><ele>1635.8</ele><time>2026-04-24T13:41:48Z</time></trkpt><trkpt lat="31.207747577994972" lon="-7.133455405952229"><ele>1634.6</ele><time>2026-04-24T13:41:49Z</time></trkpt><trkpt lat="31.207653886226943" lon="-7.133411913646412"><ele>1633.3999999999999</ele><time>2026-04-24T13:41:50Z</time></trkpt><trkpt lat="31.2075591530574" lon="-7.133385944701202"><ele>1632.1999999999998</ele><time>2026-04-24T13:41:51Z</time></trkpt><trkpt lat="31.20748789895417" lon="-7.133292710687353"><ele>1631.0</ele><time>2026-04-24T13:41:52Z</time></trkpt><trkpt lat="31.20741318807124" lon="-7.133212481029952"><ele>1633.4</ele><time>2026-04-24T13:41:53Z</time></trkpt><trkpt lat="31.207342941404278" lon="-7.133127826500768"><ele>1635.8</ele><time>2026-04-24T13:41:54Z</time></trkpt><trkpt lat="31.207276479845415" lon="-7.133041632287232"><ele>1638.2</ele><time>2026-04-24T13:41:55Z</time></trkpt><trkpt lat="31.20721338210639" lon="-7.13295243103167"><ele>1640.6000000000001</ele><time>2026-04-24T13:41:56Z</time></trkpt><trkpt lat="31.20715652334641" lon="-7.132858314291646"><ele>1643.0</ele><time>2026-04-24T13:41:57Z</time></trkpt><trkpt lat="31.207110401800097" lon="-7.132762592592162"><ele>1642.9999999999998</ele><time>2026-04-24T13:41:58Z</time></trkpt><trkpt lat="31.207074280272305" lon="-7.132670423324137"><ele>1643.0</ele><time>2026-04-24T13:41:59Z</time></trkpt><trkpt lat="31.20704277163909" lon="-7.132586717657534"><ele>1643.0</ele><time>2026-04-24T13:42:00Z</time></trkpt><trkpt lat="31.207013415896956" lon="-7.132508157149397"><ele>1643.0</ele><time>2026-04-24T13:42:01Z</time></trkpt><trkpt lat="31.206984119409146" lon="-7.132434257658758"><ele>1642.9999999999998</ele><time>2026-04-24T13:42:02Z</time></trkpt><trkpt lat="31.2069454173969" lon="-7.132376197831117"><ele>1643.0</ele><time>2026-04-24T13:42:03Z</time></trkpt><trkpt lat="31.206849627944315" lon="-7.132411253086366"><ele>1643.0</ele><time>2026-04-24T13:42:05Z</time></trkpt><trkpt lat="31.20682121174674" lon="-7.132523708426779"><ele>1643.0</ele><time>2026-04-24T13:42:07Z</time></trkpt><trkpt lat="31.206805450668067" lon="-7.132611074540219"><ele>1643.0</ele><time>2026-04-24T13:42:08Z</time></trkpt><trkpt lat="31.206794362450623" lon="-7.132724743493296"><ele>1643.0</ele><time>2026-04-24T13:42:09Z</time></trkpt><trkpt lat="31.20678502803046" lon="-7.132850000480605"><ele>1643.0</ele><time>2026-04-24T13:42:10Z</time></trkpt><trkpt lat="31.206776259830306" lon="-7.132970389295496"><ele>1643.0</ele><time>2026-04-24T13:42:11Z</time></trkpt><trkpt lat="31.206768902851124" lon="-7.133077552766552"><ele>1643.0</ele><time>2026-04-24T13:42:12Z</time></trkpt><trkpt lat="31.206758356700266" lon="-7.133176730506321"><ele>1643.0</ele><time>2026-04-24T13:42:13Z</time></trkpt><trkpt lat="31.206734471705655" lon="-7.13326350988912"><ele>1643.0</ele><time>2026-04-24T13:42:14Z</time></trkpt><trkpt lat="31.206692087405138" lon="-7.1333336722074225"><ele>1643.0</ele><time>2026-04-24T13:42:15Z</time></trkpt><trkpt lat="31.206531367497472" lon="-7.133350715931488"><ele>1640.9999999999998</ele><time>2026-04-24T13:42:17Z</time></trkpt><trkpt lat="31.206449650259987" lon="-7.133328392508374"><ele>1639.0</ele><time>2026-04-24T13:42:18Z</time></trkpt><trkpt lat="31.20638992257472" lon="-7.133258075888265"><ele>1637.0</ele><time>2026-04-24T13:42:19Z</time></trkpt><trkpt lat="31.206353668808283" lon="-7.13317133830363"><ele>1635.0</ele><time>2026-04-24T13:42:20Z</time></trkpt><trkpt lat="31.206334163429407" lon="-7.133084845118454"><ele>1632.9999999999998</ele><time>2026-04-24T13:42:21Z</time></trkpt><trkpt lat="31.206295859684463" lon="-7.133010738736373"><ele>1631.0</ele><time>2026-04-24T13:42:22Z</time></trkpt><trkpt lat="31.206247179643235" lon="-7.13294049143013"><ele>1631.0</ele><time>2026-04-24T13:42:23Z</time></trkpt><trkpt lat="31.20618009714517" lon="-7.1328705065163005"><ele>1631.0</ele><time>2026-04-24T13:42:24Z</time></trkpt><trkpt lat="31.206099504492677" lon="-7.132792055502192"><ele>1631.0</ele><time>2026-04-24T13:42:25Z</time></trkpt><trkpt lat="31.205997953611615" lon="-7.1327140230017205"><ele>1631.0</ele><time>2026-04-24T13:42:26Z</time></trkpt><trkpt lat="31.20590100289547" lon="-7.132606253851448"><ele>1631.0</ele><time>2026-04-24T13:42:27Z</time></trkpt><trkpt lat="31.20581503713741" lon="-7.132479537348456"><ele>1631.0</ele><time>2026-04-24T13:42:28Z</time></trkpt><trkpt lat="31.205745492428093" lon="-7.1323434141738575"><ele>1631.0</ele><time>2026-04-24T13:42:29Z</time></trkpt><trkpt lat="31.205655116157995" lon="-7.132222624934748"><ele>1631.0</ele><time>2026-04-24T13:42:30Z</time></trkpt><trkpt lat="31.205559865666537" lon="-7.132103877390185"><ele>1632.25</ele><time>2026-04-24T13:42:31Z</time></trkpt><trkpt lat="31.205457293318723" lon="-7.1319910557761075"><ele>1633.5</ele><time>2026-04-24T13:42:32Z</time></trkpt><trkpt lat="31.20535255101612" lon="-7.1318905061255995"><ele>1634.75</ele><time>2026-04-24T13:42:33Z</time></trkpt><trkpt lat="31.205250224029324" lon="-7.131802934080247"><ele>1636.0</ele><time>2026-04-24T13:42:34Z</time></trkpt><trkpt lat="31.20515187329336" lon="-7.131727811490025"><ele>1636.0</ele><time>2026-04-24T13:42:35Z</time></trkpt><trkpt lat="31.205053812740527" lon="-7.13165789114525"><ele>1636.0</ele><time>2026-04-24T13:42:36Z</time></trkpt><trkpt lat="31.204949875558725" lon="-7.131582297029706"><ele>1636.0</ele><time>2026-04-24T13:42:37Z</time></trkpt><trkpt lat="31.20483208858905" lon="-7.131518891558608"><ele>1636.0</ele><time>2026-04-24T13:42:38Z</time></trkpt><trkpt lat="31.20472199958579" lon="-7.131431535494029"><ele>1639.75</ele><time>2026-04-24T13:42:39Z</time></trkpt><trkpt lat="31.204624357051674" lon="-7.131320028374242"><ele>1643.5</ele><time>2026-04-24T13:42:40Z</time></trkpt><trkpt lat="31.204512131389297" lon="-7.131237684294917"><ele>1647.25</ele><time>2026-04-24T13:42:41Z</time></trkpt><trkpt lat="31.204392718207114" lon="-7.131178643847186"><ele>1651.0</ele><time>2026-04-24T13:42:42Z</time></trkpt><trkpt lat="31.20427169252492" lon="-7.131188407522493"><ele>1651.0</ele><time>2026-04-24T13:42:43Z</time></trkpt><trkpt lat="31.20414517316757" lon="-7.131199841912885"><ele>1651.0</ele><time>2026-04-24T13:42:44Z</time></trkpt><trkpt lat="31.20400944118662" lon="-7.13120285843825"><ele>1651.0</ele><time>2026-04-24T13:42:45Z</time></trkpt><trkpt lat="31.203867209144384" lon="-7.131183949391584"><ele>1651.0</ele><time>2026-04-24T13:42:46Z</time></trkpt><trkpt lat="31.203726009165266" lon="-7.131152822232629"><ele>1651.75</ele><time>2026-04-24T13:42:47Z</time></trkpt><trkpt lat="31.203587228780968" lon="-7.131121404898372"><ele>1652.5</ele><time>2026-04-24T13:42:48Z</time></trkpt><trkpt lat="31.203456243833152" lon="-7.131088453991342"><ele>1653.25</ele><time>2026-04-24T13:42:49Z</time></trkpt><trkpt lat="31.203331818693204" lon="-7.131059964133357"><ele>1654.0</ele><time>2026-04-24T13:42:50Z</time></trkpt><trkpt lat="31.2032155747713" lon="-7.131049045840526"><ele>1655.2</ele><time>2026-04-24T13:42:51Z</time></trkpt><trkpt lat="31.203111495459417" lon="-7.131062933438122"><ele>1656.4</ele><time>2026-04-24T13:42:52Z</time></trkpt><trkpt lat="31.203009933536045" lon="-7.131109693667134"><ele>1657.6</ele><time>2026-04-24T13:42:53Z</time></trkpt><trkpt lat="31.20291519024213" lon="-7.1311841299518886"><ele>1658.8</ele><time>2026-04-24T13:42:54Z</time></trkpt><trkpt lat="31.20283168808228" lon="-7.13127060992791"><ele>1660.0</ele><time>2026-04-24T13:42:55Z</time></trkpt><trkpt lat="31.202749044649774" lon="-7.131353685476722"><ele>1660.0</ele><time>2026-04-24T13:42:56Z</time></trkpt><trkpt lat="31.20264552727392" lon="-7.131425978598071"><ele>1660.0</ele><time>2026-04-24T13:42:57Z</time></trkpt><trkpt lat="31.20252923927882" lon="-7.131454965797827"><ele>1660.0</ele><time>2026-04-24T13:42:58Z</time></trkpt><trkpt lat="31.202409806905674" lon="-7.1314574958820165"><ele>1660.0</ele><time>2026-04-24T13:42:59Z</time></trkpt><trkpt lat="31.202297616887112" lon="-7.131460926612603"><ele>1659.8</ele><time>2026-04-24T13:43:00Z</time></trkpt><trkpt lat="31.202186638084846" lon="-7.131463507462446"><ele>1659.6</ele><time>2026-04-24T13:43:01Z</time></trkpt><trkpt lat="31.2020771677771" lon="-7.131462282117975"><ele>1659.4</ele><time>2026-04-24T13:43:02Z</time></trkpt><trkpt lat="31.201966635354104" lon="-7.131460307087392"><ele>1659.2</ele><time>2026-04-24T13:43:03Z</time></trkpt><trkpt lat="31.201854024317484" lon="-7.131455244377982"><ele>1659.0</ele><time>2026-04-24T13:43:04Z</time></trkpt><trkpt lat="31.201740682303864" lon="-7.131449514388183"><ele>1659.0</ele><time>2026-04-24T13:43:05Z</time></trkpt><trkpt lat="31.201623526515863" lon="-7.131443837404456"><ele>1659.0</ele><time>2026-04-24T13:43:06Z</time></trkpt><trkpt lat="31.201509907354286" lon="-7.131407072477135"><ele>1659.0</ele><time>2026-04-24T13:43:07Z</time></trkpt><trkpt lat="31.201414884218984" lon="-7.1313465704459835"><ele>1659.0</ele><time>2026-04-24T13:43:08Z</time></trkpt><trkpt lat="31.201337438932864" lon="-7.131242780350067"><ele>1657.2</ele><time>2026-04-24T13:43:09Z</time></trkpt><trkpt lat="31.201267439380022" lon="-7.13114623586659"><ele>1655.4</ele><time>2026-04-24T13:43:10Z</time></trkpt><trkpt lat="31.201195615529183" lon="-7.1310544775175275"><ele>1653.6</ele><time>2026-04-24T13:43:11Z</time></trkpt><trkpt lat="31.20111673795447" lon="-7.130980819446879"><ele>1651.8</ele><time>2026-04-24T13:43:12Z</time></trkpt><trkpt lat="31.201014905302774" lon="-7.130941754830836"><ele>1650.0</ele><time>2026-04-24T13:43:13Z</time></trkpt><trkpt lat="31.200904001675546" lon="-7.130933707451957"><ele>1650.0</ele><time>2026-04-24T13:43:14Z</time></trkpt><trkpt lat="31.200778057608975" lon="-7.13093541931427"><ele>1650.0</ele><time>2026-04-24T13:43:14.999Z</time></trkpt><trkpt lat="31.200643077713746" lon="-7.130938285768247"><ele>1650.0</ele><time>2026-04-24T13:43:15.999Z</time></trkpt><trkpt lat="31.200502588096995" lon="-7.1309412692215774"><ele>1650.0</ele><time>2026-04-24T13:43:16.999Z</time></trkpt><trkpt lat="31.2003624191546" lon="-7.130946093612003"><ele>1650.0</ele><time>2026-04-24T13:43:17.999Z</time></trkpt><trkpt lat="31.200227003720617" lon="-7.130972281688193"><ele>1650.0</ele><time>2026-04-24T13:43:18.999Z</time></trkpt><trkpt lat="31.20009050076623" lon="-7.1309985780982394"><ele>1650.0</ele><time>2026-04-24T13:43:19.999Z</time></trkpt><trkpt lat="31.19995360922918" lon="-7.131010307974909"><ele>1650.0</ele><time>2026-04-24T13:43:20.999Z</time></trkpt><trkpt lat="31.19980496374209" lon="-7.130997719948331"><ele>1650.0</ele><time>2026-04-24T13:43:21.999Z</time></trkpt><trkpt lat="31.199659530539837" lon="-7.130948539641564"><ele>1650.0</ele><time>2026-04-24T13:43:22.999Z</time></trkpt><trkpt lat="31.19951458899786" lon="-7.130859657217151"><ele>1650.0</ele><time>2026-04-24T13:43:23.999Z</time></trkpt><trkpt lat="31.19937581706545" lon="-7.13077040306449"><ele>1654.75</ele><time>2026-04-24T13:43:24.999Z</time></trkpt><trkpt lat="31.19923873829097" lon="-7.130691800625204"><ele>1659.5</ele><time>2026-04-24T13:43:25.999Z</time></trkpt><trkpt lat="31.199100471787773" lon="-7.130624618409352"><ele>1664.25</ele><time>2026-04-24T13:43:26.999Z</time></trkpt><trkpt lat="31.198972510208993" lon="-7.130570354952852"><ele>1669.0</ele><time>2026-04-24T13:43:27.999Z</time></trkpt><trkpt lat="31.198851329384432" lon="-7.130545574497994"><ele>1669.0</ele><time>2026-04-24T13:43:28.999Z</time></trkpt><trkpt lat="31.198755140483005" lon="-7.130552819708004"><ele>1669.0</ele><time>2026-04-24T13:43:29.999Z</time></trkpt><trkpt lat="31.19866861552509" lon="-7.130605137578565"><ele>1669.0</ele><time>2026-04-24T13:43:30.999Z</time></trkpt><trkpt lat="31.198611251293542" lon="-7.1307000952415835"><ele>1669.0</ele><time>2026-04-24T13:43:31.999Z</time></trkpt><trkpt lat="31.19853242633454" lon="-7.130803655294846"><ele>1669.0</ele><time>2026-04-24T13:43:32.999Z</time></trkpt><trkpt lat="31.198436721468095" lon="-7.13089505716129"><ele>1667.75</ele><time>2026-04-24T13:43:33.999Z</time></trkpt><trkpt lat="31.1983117842923" lon="-7.1309644966787875"><ele>1666.5</ele><time>2026-04-24T13:43:34.999Z</time></trkpt><trkpt lat="31.198180308095854" lon="-7.131016030408812"><ele>1665.25</ele><time>2026-04-24T13:43:35.999Z</time></trkpt><trkpt lat="31.19803591352898" lon="-7.131062797695292"><ele>1664.0</ele><time>2026-04-24T13:43:36.999Z</time></trkpt><trkpt lat="31.197887087705023" lon="-7.131110557026356"><ele>1664.0</ele><time>2026-04-24T13:43:37.999Z</time></trkpt><trkpt lat="31.197738566640027" lon="-7.131158881217915"><ele>1664.0</ele><time>2026-04-24T13:43:38.999Z</time></trkpt><trkpt lat="31.197586514830498" lon="-7.131207861638086"><ele>1664.0</ele><time>2026-04-24T13:43:39.999Z</time></trkpt><trkpt lat="31.197428110638835" lon="-7.131254189952187"><ele>1663.3333333333333</ele><time>2026-04-24T13:43:40.999Z</time></trkpt><trkpt lat="31.197261877801846" lon="-7.131289184147432"><ele>1662.6666666666665</ele><time>2026-04-24T13:43:41.999Z</time></trkpt><trkpt lat="31.197087683020825" lon="-7.131310930242957"><ele>1662.0</ele><time>2026-04-24T13:43:42.999Z</time></trkpt><trkpt lat="31.196913672227023" lon="-7.131328973938498"><ele>1662.0</ele><time>2026-04-24T13:43:43.999Z</time></trkpt><trkpt lat="31.196739043792487" lon="-7.131346693891324"><ele>1662.0</ele><time>2026-04-24T13:43:44.999Z</time></trkpt><trkpt lat="31.19657123177862" lon="-7.131356575733655"><ele>1662.0</ele><time>2026-04-24T13:43:45.999Z</time></trkpt><trkpt lat="31.19642166434245" lon="-7.131358906471386"><ele>1659.5</ele><time>2026-04-24T13:43:46.999Z</time></trkpt><trkpt lat="31.196289452390403" lon="-7.131351517360866"><ele>1657.0</ele><time>2026-04-24T13:43:48Z</time></trkpt><trkpt lat="31.196164866858066" lon="-7.131307849776168"><ele>1654.5</ele><time>2026-04-24T13:43:49Z</time></trkpt><trkpt lat="31.196060202415406" lon="-7.131223818688379"><ele>1652.0</ele><time>2026-04-24T13:43:50Z</time></trkpt><trkpt lat="31.19597985696444" lon="-7.131112048526113"><ele>1652.0</ele><time>2026-04-24T13:43:51Z</time></trkpt><trkpt lat="31.195935067738393" lon="-7.130979626858078"><ele>1652.0</ele><time>2026-04-24T13:43:52Z</time></trkpt><trkpt lat="31.195907538971156" lon="-7.130844378963809"><ele>1652.0</ele><time>2026-04-24T13:43:53Z</time></trkpt><trkpt lat="31.195881075411478" lon="-7.130719432927604"><ele>1652.0</ele><time>2026-04-24T13:43:54Z</time></trkpt><trkpt lat="31.19585471379601" lon="-7.130610867170092"><ele>1652.0</ele><time>2026-04-24T13:43:55Z</time></trkpt><trkpt lat="31.19580854389712" lon="-7.130543993099812"><ele>1652.8</ele><time>2026-04-24T13:43:56Z</time></trkpt><trkpt lat="31.19568762607543" lon="-7.130536281825228"><ele>1653.6</ele><time>2026-04-24T13:43:58Z</time></trkpt><trkpt lat="31.1956039507932" lon="-7.130610856792215"><ele>1654.3999999999999</ele><time>2026-04-24T13:44:00Z</time></trkpt><trkpt lat="31.195550017639587" lon="-7.130684412950807"><ele>1655.1999999999998</ele><time>2026-04-24T13:44:01Z</time></trkpt><trkpt lat="31.195490000468958" lon="-7.130766266459025"><ele>1656.0</ele><time>2026-04-24T13:44:02Z</time></trkpt><trkpt lat="31.195421694692126" lon="-7.130861473338613"><ele>1657.25</ele><time>2026-04-24T13:44:03Z</time></trkpt><trkpt lat="31.195343064713825" lon="-7.13096030479143"><ele>1658.5</ele><time>2026-04-24T13:44:04Z</time></trkpt><trkpt lat="31.195257762991787" lon="-7.13105633651818"><ele>1659.75</ele><time>2026-04-24T13:44:05Z</time></trkpt><trkpt lat="31.19516797775296" lon="-7.131147518166921"><ele>1661.0</ele><time>2026-04-24T13:44:06Z</time></trkpt><trkpt lat="31.195078484221092" lon="-7.131231948544903"><ele>1661.0</ele><time>2026-04-24T13:44:07Z</time></trkpt><trkpt lat="31.194987717995605" lon="-7.131314497352669"><ele>1661.0</ele><time>2026-04-24T13:44:08Z</time></trkpt><trkpt lat="31.19490243998307" lon="-7.131388224734266"><ele>1661.0</ele><time>2026-04-24T13:44:09Z</time></trkpt><trkpt lat="31.1948210055024" lon="-7.131458539862705"><ele>1661.0</ele><time>2026-04-24T13:44:10Z</time></trkpt><trkpt lat="31.194730330445957" lon="-7.131518077485371"><ele>1661.0</ele><time>2026-04-24T13:44:11Z</time></trkpt><trkpt lat="31.19463239939423" lon="-7.131561661931316"><ele>1658.75</ele><time>2026-04-24T13:44:12Z</time></trkpt><trkpt lat="31.194525809960826" lon="-7.13158182079357"><ele>1656.5</ele><time>2026-04-24T13:44:13Z</time></trkpt><trkpt lat="31.19441632454862" lon="-7.131593058995656"><ele>1654.25</ele><time>2026-04-24T13:44:14Z</time></trkpt><trkpt lat="31.19429983431492" lon="-7.131599653945698"><ele>1652.0</ele><time>2026-04-24T13:44:15Z</time></trkpt><trkpt lat="31.194178761243833" lon="-7.131601605479099"><ele>1652.0</ele><time>2026-04-24T13:44:16Z</time></trkpt><trkpt lat="31.194057722215934" lon="-7.131599269705514"><ele>1652.0</ele><time>2026-04-24T13:44:17Z</time></trkpt><trkpt lat="31.193940515261932" lon="-7.1315822731869964"><ele>1652.0</ele><time>2026-04-24T13:44:18Z</time></trkpt><trkpt lat="31.19383002577472" lon="-7.13153346339082"><ele>1652.0</ele><time>2026-04-24T13:44:19Z</time></trkpt><trkpt lat="31.193731089215667" lon="-7.131459188182451"><ele>1650.75</ele><time>2026-04-24T13:44:20Z</time></trkpt><trkpt lat="31.19363644882028" lon="-7.131361454084134"><ele>1649.5</ele><time>2026-04-24T13:44:21Z</time></trkpt><trkpt lat="31.193547762508803" lon="-7.131232335558563"><ele>1648.25</ele><time>2026-04-24T13:44:22Z</time></trkpt><trkpt lat="31.19346507951501" lon="-7.13108927425022"><ele>1647.0</ele><time>2026-04-24T13:44:23Z</time></trkpt><trkpt lat="31.19337987740264" lon="-7.130936796840285"><ele>1647.0</ele><time>2026-04-24T13:44:24Z</time></trkpt><trkpt lat="31.19331101973864" lon="-7.13078082315786"><ele>1647.0</ele><time>2026-04-24T13:44:25Z</time></trkpt><trkpt lat="31.19326258455504" lon="-7.1306300642389715"><ele>1647.0</ele><time>2026-04-24T13:44:26Z</time></trkpt><trkpt lat="31.193186840018114" lon="-7.1305279851859416"><ele>1647.0</ele><time>2026-04-24T13:44:27Z</time></trkpt><trkpt lat="31.193121000805778" lon="-7.130434447441619"><ele>1649.0</ele><time>2026-04-24T13:44:28Z</time></trkpt><trkpt lat="31.19302616183936" lon="-7.130436627321375"><ele>1651.0</ele><time>2026-04-24T13:44:29Z</time></trkpt><trkpt lat="31.19295791510706" lon="-7.130442033320736"><ele>1653.0</ele><time>2026-04-24T13:44:30Z</time></trkpt><trkpt lat="31.192873902478254" lon="-7.130488774250628"><ele>1655.0</ele><time>2026-04-24T13:44:31Z</time></trkpt><trkpt lat="31.192807136850686" lon="-7.130570601074775"><ele>1657.0</ele><time>2026-04-24T13:44:32Z</time></trkpt><trkpt lat="31.192744958468797" lon="-7.130685010439672"><ele>1655.0</ele><time>2026-04-24T13:44:33Z</time></trkpt><trkpt lat="31.19269745308367" lon="-7.130811081378923"><ele>1653.0</ele><time>2026-04-24T13:44:34Z</time></trkpt><trkpt lat="31.192651201627864" lon="-7.130939914934509"><ele>1651.0</ele><time>2026-04-24T13:44:35Z</time></trkpt><trkpt lat="31.192603922321084" lon="-7.1310658188851255"><ele>1649.0</ele><time>2026-04-24T13:44:36Z</time></trkpt><trkpt lat="31.19255433046486" lon="-7.131188914357029"><ele>1649.0</ele><time>2026-04-24T13:44:37Z</time></trkpt><trkpt lat="31.19250651010348" lon="-7.131295144864987"><ele>1649.0</ele><time>2026-04-24T13:44:38Z</time></trkpt><trkpt lat="31.1924645349563" lon="-7.131388390508716"><ele>1649.0</ele><time>2026-04-24T13:44:39Z</time></trkpt><trkpt lat="31.192422006853093" lon="-7.131470578772228"><ele>1649.0</ele><time>2026-04-24T13:44:40Z</time></trkpt><trkpt lat="31.192372147663264" lon="-7.131551218860189"><ele>1649.0</ele><time>2026-04-24T13:44:41Z</time></trkpt><trkpt lat="31.19231050904803" lon="-7.131632132589478"><ele>1648.6</ele><time>2026-04-24T13:44:42Z</time></trkpt><trkpt lat="31.192240558190758" lon="-7.131705332409648"><ele>1648.2</ele><time>2026-04-24T13:44:43Z</time></trkpt><trkpt lat="31.192159647029175" lon="-7.131770938695305"><ele>1647.8</ele><time>2026-04-24T13:44:44Z</time></trkpt><trkpt lat="31.192066565856596" lon="-7.131817708132283"><ele>1647.3999999999999</ele><time>2026-04-24T13:44:45Z</time></trkpt><trkpt lat="31.191968623486776" lon="-7.131839237577173"><ele>1647.0</ele><time>2026-04-24T13:44:46Z</time></trkpt><trkpt lat="31.191870394749166" lon="-7.131840405500909"><ele>1647.0</ele><time>2026-04-24T13:44:47Z</time></trkpt><trkpt lat="31.191771148212233" lon="-7.131816900923696"><ele>1647.0</ele><time>2026-04-24T13:44:48Z</time></trkpt><trkpt lat="31.19166986810385" lon="-7.131768740074229"><ele>1647.0</ele><time>2026-04-24T13:44:49Z</time></trkpt><trkpt lat="31.191564521835026" lon="-7.131716309912639"><ele>1647.0</ele><time>2026-04-24T13:44:50Z</time></trkpt><trkpt lat="31.19144976512104" lon="-7.131661800406646"><ele>1647.0</ele><time>2026-04-24T13:44:51Z</time></trkpt><trkpt lat="31.191327747016892" lon="-7.131621275500986"><ele>1645.5</ele><time>2026-04-24T13:44:52Z</time></trkpt><trkpt lat="31.19120039279212" lon="-7.131615187950046"><ele>1644.0</ele><time>2026-04-24T13:44:53Z</time></trkpt><trkpt lat="31.1910712491738" lon="-7.131639908176364"><ele>1642.5</ele><time>2026-04-24T13:44:54Z</time></trkpt><trkpt lat="31.190942264767372" lon="-7.131665730074477"><ele>1641.0</ele><time>2026-04-24T13:44:55Z</time></trkpt><trkpt lat="31.190805921458924" lon="-7.1316703929371155"><ele>1642.75</ele><time>2026-04-24T13:44:56Z</time></trkpt><trkpt lat="31.19065875100454" lon="-7.131632472609932"><ele>1644.5</ele><time>2026-04-24T13:44:57Z</time></trkpt><trkpt lat="31.190529461760796" lon="-7.131563726742607"><ele>1646.25</ele><time>2026-04-24T13:44:58Z</time></trkpt><trkpt lat="31.190402642717853" lon="-7.1315121213576615"><ele>1648.0</ele><time>2026-04-24T13:44:59Z</time></trkpt><trkpt lat="31.190269185278098" lon="-7.131501849401593"><ele>1648.0</ele><time>2026-04-24T13:45:00Z</time></trkpt><trkpt lat="31.19013558641614" lon="-7.131490060626221"><ele>1648.0</ele><time>2026-04-24T13:45:01Z</time></trkpt><trkpt lat="31.1900068480849" lon="-7.131508560545528"><ele>1648.0</ele><time>2026-04-24T13:45:02Z</time></trkpt><trkpt lat="31.189884168425447" lon="-7.131511682097451"><ele>1648.0</ele><time>2026-04-24T13:45:03Z</time></trkpt><trkpt lat="31.18976342176632" lon="-7.13150519031559"><ele>1643.25</ele><time>2026-04-24T13:45:04Z</time></trkpt><trkpt lat="31.189650087978396" lon="-7.131443012783927"><ele>1638.5</ele><time>2026-04-24T13:45:05Z</time></trkpt><trkpt lat="31.189540924978466" lon="-7.131336881572267"><ele>1633.75</ele><time>2026-04-24T13:45:06Z</time></trkpt><trkpt lat="31.189441567197484" lon="-7.131198261966734"><ele>1629.0</ele><time>2026-04-24T13:45:07Z</time></trkpt><trkpt lat="31.18932734485263" lon="-7.131063201453585"><ele>1629.0</ele><time>2026-04-24T13:45:08Z</time></trkpt><trkpt lat="31.189201391242634" lon="-7.130938547664252"><ele>1629.0</ele><time>2026-04-24T13:45:09Z</time></trkpt><trkpt lat="31.189093396326896" lon="-7.130801842463327"><ele>1629.0</ele><time>2026-04-24T13:45:10Z</time></trkpt><trkpt lat="31.18901115565112" lon="-7.130653523040967"><ele>1626.5</ele><time>2026-04-24T13:45:11Z</time></trkpt><trkpt lat="31.188915628998" lon="-7.130533396545662"><ele>1624.0</ele><time>2026-04-24T13:45:12Z</time></trkpt><trkpt lat="31.18887516702836" lon="-7.13037604359868"><ele>1621.5</ele><time>2026-04-24T13:45:13Z</time></trkpt><trkpt lat="31.188843974354334" lon="-7.13021279031494"><ele>1619.0</ele><time>2026-04-24T13:45:14Z</time></trkpt><trkpt lat="31.188831098955944" lon="-7.130040000253847"><ele>1621.0</ele><time>2026-04-24T13:45:15Z</time></trkpt><trkpt lat="31.188822949113057" lon="-7.129873488643572"><ele>1623.0</ele><time>2026-04-24T13:45:16Z</time></trkpt><trkpt lat="31.18880972851838" lon="-7.129720992647155"><ele>1625.0</ele><time>2026-04-24T13:45:17Z</time></trkpt><trkpt lat="31.18878691324557" lon="-7.129591492924528"><ele>1627.0</ele><time>2026-04-24T13:45:18Z</time></trkpt><trkpt lat="31.18874424262916" lon="-7.129489558678729"><ele>1627.0000000000002</ele><time>2026-04-24T13:45:19Z</time></trkpt><trkpt lat="31.18866036323488" lon="-7.12944917814837"><ele>1627.0</ele><time>2026-04-24T13:45:19.999Z</time></trkpt><trkpt lat="31.188586355481604" lon="-7.129452435404015"><ele>1627.0</ele><time>2026-04-24T13:45:20.999Z</time></trkpt><trkpt lat="31.188501851385688" lon="-7.129459701054995"><ele>1627.0</ele><time>2026-04-24T13:45:21.999Z</time></trkpt><trkpt lat="31.18844650805032" lon="-7.129509125238279"><ele>1627.0000000000002</ele><time>2026-04-24T13:45:22.999Z</time></trkpt><trkpt lat="31.188357650285127" lon="-7.12961658156754"><ele>1627.0</ele><time>2026-04-24T13:45:23.999Z</time></trkpt><trkpt lat="31.18826123331513" lon="-7.129737108970936"><ele>1628.0</ele><time>2026-04-24T13:45:24.999Z</time></trkpt><trkpt lat="31.18814846850464" lon="-7.129869780705431"><ele>1629.0</ele><time>2026-04-24T13:45:25.999Z</time></trkpt><trkpt lat="31.18802668258171" lon="-7.129994877505845"><ele>1630.0</ele><time>2026-04-24T13:45:26.999Z</time></trkpt><trkpt lat="31.187899008826978" lon="-7.130109924513693"><ele>1630.0</ele><time>2026-04-24T13:45:27.999Z</time></trkpt><trkpt lat="31.18777083076565" lon="-7.1302243961714895"><ele>1630.0</ele><time>2026-04-24T13:45:28.999Z</time></trkpt><trkpt lat="31.18765197909159" lon="-7.130330073414654"><ele>1630.0</ele><time>2026-04-24T13:45:29.999Z</time></trkpt><trkpt lat="31.187547320560014" lon="-7.130427171627123"><ele>1630.0</ele><time>2026-04-24T13:45:30.999Z</time></trkpt><trkpt lat="31.1874643867545" lon="-7.130520699166466"><ele>1630.0</ele><time>2026-04-24T13:45:31.999Z</time></trkpt><trkpt lat="31.18740623170116" lon="-7.130614442304243"><ele>1630.0</ele><time>2026-04-24T13:45:32.999Z</time></trkpt><trkpt lat="31.18736311235619" lon="-7.130732716356313"><ele>1630.0</ele><time>2026-04-24T13:45:33.999Z</time></trkpt><trkpt lat="31.187333871168786" lon="-7.130846633782272"><ele>1630.0</ele><time>2026-04-24T13:45:34.999Z</time></trkpt><trkpt lat="31.187296953968552" lon="-7.1309640841445106"><ele>1630.0</ele><time>2026-04-24T13:45:35.999Z</time></trkpt><trkpt lat="31.187240216501568" lon="-7.131069364910678"><ele>1630.75</ele><time>2026-04-24T13:45:36.999Z</time></trkpt><trkpt lat="31.18715229871258" lon="-7.131163515087669"><ele>1631.5</ele><time>2026-04-24T13:45:37.999Z</time></trkpt><trkpt lat="31.187036759032136" lon="-7.131230858649727"><ele>1632.25</ele><time>2026-04-24T13:45:38.999Z</time></trkpt><trkpt lat="31.186905541342238" lon="-7.13127481172189"><ele>1633.0</ele><time>2026-04-24T13:45:39.999Z</time></trkpt><trkpt lat="31.18676916113642" lon="-7.131283889899285"><ele>1633.0</ele><time>2026-04-24T13:45:40.999Z</time></trkpt><trkpt lat="31.186621840078406" lon="-7.131259007180855"><ele>1633.0</ele><time>2026-04-24T13:45:41.999Z</time></trkpt><trkpt lat="31.186476155695853" lon="-7.13119551713669"><ele>1633.0</ele><time>2026-04-24T13:45:42.999Z</time></trkpt><trkpt lat="31.186349786870565" lon="-7.131114143451467"><ele>1633.0</ele><time>2026-04-24T13:45:43.999Z</time></trkpt><trkpt lat="31.18623123857005" lon="-7.131028402924128"><ele>1632.75</ele><time>2026-04-24T13:45:44.999Z</time></trkpt><trkpt lat="31.18611755054545" lon="-7.13099208778899"><ele>1632.5</ele><time>2026-04-24T13:45:45.999Z</time></trkpt><trkpt lat="31.185993088041414" lon="-7.130997177428296"><ele>1632.25</ele><time>2026-04-24T13:45:46.999Z</time></trkpt><trkpt lat="31.185859342116693" lon="-7.131017868421904"><ele>1632.0</ele><time>2026-04-24T13:45:47.999Z</time></trkpt><trkpt lat="31.18572906695697" lon="-7.131028233966901"><ele>1630.6666666666665</ele><time>2026-04-24T13:45:48.999Z</time></trkpt><trkpt lat="31.18558790683973" lon="-7.131008261394469"><ele>1629.3333333333333</ele><time>2026-04-24T13:45:49.999Z</time></trkpt><trkpt lat="31.18544293639746" lon="-7.1309520512854405"><ele>1628.0</ele><time>2026-04-24T13:45:50.999Z</time></trkpt><trkpt lat="31.185300150414264" lon="-7.1308629483326715"><ele>1628.0</ele><time>2026-04-24T13:45:51.999Z</time></trkpt><trkpt lat="31.18514896684992" lon="-7.130798330924098"><ele>1628.0</ele><time>2026-04-24T13:45:53Z</time></trkpt><trkpt lat="31.18501515015039" lon="-7.130721542365503"><ele>1628.0</ele><time>2026-04-24T13:45:54Z</time></trkpt><trkpt lat="31.184895932907306" lon="-7.130651615842109"><ele>1628.0</ele><time>2026-04-24T13:45:55Z</time></trkpt><trkpt lat="31.184798829059652" lon="-7.130615700341776"><ele>1631.0</ele><time>2026-04-24T13:45:56Z</time></trkpt><trkpt lat="31.18472164520602" lon="-7.1306321656050375"><ele>1634.0</ele><time>2026-04-24T13:45:57Z</time></trkpt><trkpt lat="31.184630032795518" lon="-7.130730815056973"><ele>1637.0</ele><time>2026-04-24T13:45:59Z</time></trkpt><trkpt lat="31.184598245006367" lon="-7.1308344835913795"><ele>1640.0</ele><time>2026-04-24T13:46:00Z</time></trkpt><trkpt lat="31.184584756359495" lon="-7.130965379671579"><ele>1643.0</ele><time>2026-04-24T13:46:01Z</time></trkpt><trkpt lat="31.18457911004417" lon="-7.131102835706989"><ele>1643.0</ele><time>2026-04-24T13:46:02Z</time></trkpt><trkpt lat="31.184576036109746" lon="-7.1312263180383395"><ele>1643.0</ele><time>2026-04-24T13:46:03Z</time></trkpt><trkpt lat="31.18456016561369" lon="-7.131351150715886"><ele>1643.0</ele><time>2026-04-24T13:46:04Z</time></trkpt><trkpt lat="31.184516029899253" lon="-7.131460022879087"><ele>1643.0</ele><time>2026-04-24T13:46:05Z</time></trkpt><trkpt lat="31.184440398111814" lon="-7.131539223365845"><ele>1643.0</ele><time>2026-04-24T13:46:06Z</time></trkpt><trkpt lat="31.184329982022547" lon="-7.131573889043123"><ele>1643.0</ele><time>2026-04-24T13:46:07Z</time></trkpt><trkpt lat="31.1842179533397" lon="-7.131560014407219"><ele>1643.0</ele><time>2026-04-24T13:46:08Z</time></trkpt><trkpt lat="31.184094033171565" lon="-7.131504310352671"><ele>1643.0</ele><time>2026-04-24T13:46:09Z</time></trkpt><trkpt lat="31.183962963272467" lon="-7.13139902953043"><ele>1643.0</ele><time>2026-04-24T13:46:10Z</time></trkpt><trkpt lat="31.183824069337163" lon="-7.131288937234159"><ele>1641.0</ele><time>2026-04-24T13:46:11Z</time></trkpt><trkpt lat="31.18367666796258" lon="-7.131173573938566"><ele>1639.0</ele><time>2026-04-24T13:46:12Z</time></trkpt><trkpt lat="31.183523819730315" lon="-7.13105413373575"><ele>1637.0</ele><time>2026-04-24T13:46:13Z</time></trkpt><trkpt lat="31.183376946044326" lon="-7.130937233432349"><ele>1637.0</ele><time>2026-04-24T13:46:14Z</time></trkpt><trkpt lat="31.183239015141307" lon="-7.130828180952861"><ele>1637.0</ele><time>2026-04-24T13:46:15Z</time></trkpt><trkpt lat="31.183116370470408" lon="-7.130737920567278"><ele>1637.0</ele><time>2026-04-24T13:46:16Z</time></trkpt><trkpt lat="31.183004527901705" lon="-7.130674871029993"><ele>1637.0</ele><time>2026-04-24T13:46:17Z</time></trkpt><trkpt lat="31.182899170398088" lon="-7.1306813645908536"><ele>1636.25</ele><time>2026-04-24T13:46:18Z</time></trkpt><trkpt lat="31.182785652058165" lon="-7.130718514841624"><ele>1635.5</ele><time>2026-04-24T13:46:19Z</time></trkpt><trkpt lat="31.182652619851364" lon="-7.130770928576501"><ele>1634.75</ele><time>2026-04-24T13:46:20Z</time></trkpt><trkpt lat="31.182495128705" lon="-7.130798203597785"><ele>1634.0</ele><time>2026-04-24T13:46:21Z</time></trkpt><trkpt lat="31.182341318899656" lon="-7.130788888445129"><ele>1633.25</ele><time>2026-04-24T13:46:22Z</time></trkpt><trkpt lat="31.18220351022049" lon="-7.130761001456492"><ele>1632.5</ele><time>2026-04-24T13:46:23Z</time></trkpt><trkpt lat="31.18207661026506" lon="-7.1307266772865825"><ele>1631.75</ele><time>2026-04-24T13:46:24Z</time></trkpt><trkpt lat="31.181950092139704" lon="-7.1306542121046474"><ele>1631.0</ele><time>2026-04-24T13:46:25Z</time></trkpt><trkpt lat="31.18183422086109" lon="-7.130545377739918"><ele>1634.5</ele><time>2026-04-24T13:46:26Z</time></trkpt><trkpt lat="31.181743313194318" lon="-7.130412920353112"><ele>1638.0</ele><time>2026-04-24T13:46:27Z</time></trkpt><trkpt lat="31.18161765828108" lon="-7.130354877645229"><ele>1641.5</ele><time>2026-04-24T13:46:28Z</time></trkpt><trkpt lat="31.181491997991426" lon="-7.1303414954702795"><ele>1645.0</ele><time>2026-04-24T13:46:29Z</time></trkpt><trkpt lat="31.181349941090033" lon="-7.130344182446066"><ele>1645.0</ele><time>2026-04-24T13:46:30Z</time></trkpt><trkpt lat="31.18119345059029" lon="-7.130365203419992"><ele>1645.0</ele><time>2026-04-24T13:46:31Z</time></trkpt><trkpt lat="31.181026084096263" lon="-7.130398187300979"><ele>1645.0</ele><time>2026-04-24T13:46:32Z</time></trkpt><trkpt lat="31.180865393685803" lon="-7.130455128085422"><ele>1645.0</ele><time>2026-04-24T13:46:33Z</time></trkpt><trkpt lat="31.18069429225627" lon="-7.1305075363590005"><ele>1645.0</ele><time>2026-04-24T13:46:34Z</time></trkpt><trkpt lat="31.180505414473338" lon="-7.130546102584555"><ele>1645.0</ele><time>2026-04-24T13:46:35Z</time></trkpt><trkpt lat="31.180311607414655" lon="-7.130547211926557"><ele>1647.3333333333335</ele><time>2026-04-24T13:46:36Z</time></trkpt><trkpt lat="31.180106670201447" lon="-7.13052142149709"><ele>1649.6666666666665</ele><time>2026-04-24T13:46:37Z</time></trkpt><trkpt lat="31.17991562016826" lon="-7.130456777432941"><ele>1652.0</ele><time>2026-04-24T13:46:38Z</time></trkpt><trkpt lat="31.17974607228868" lon="-7.130385226628397"><ele>1653.0</ele><time>2026-04-24T13:46:39Z</time></trkpt><trkpt lat="31.17958732580521" lon="-7.130335194475981"><ele>1654.0</ele><time>2026-04-24T13:46:40Z</time></trkpt><trkpt lat="31.179435183059226" lon="-7.130334865837219"><ele>1655.0</ele><time>2026-04-24T13:46:41Z</time></trkpt><trkpt lat="31.179276939729355" lon="-7.130358416363896"><ele>1655.0</ele><time>2026-04-24T13:46:42Z</time></trkpt><trkpt lat="31.17913800018684" lon="-7.130394385467061"><ele>1655.0</ele><time>2026-04-24T13:46:43Z</time></trkpt><trkpt lat="31.179023339986134" lon="-7.13043682645377"><ele>1655.0</ele><time>2026-04-24T13:46:44Z</time></trkpt><trkpt lat="31.178901391780673" lon="-7.130464909320593"><ele>1655.0</ele><time>2026-04-24T13:46:45Z</time></trkpt><trkpt lat="31.178770656774034" lon="-7.130476295633879"><ele>1655.0</ele><time>2026-04-24T13:46:46Z</time></trkpt><trkpt lat="31.178629824185773" lon="-7.130460735501441"><ele>1655.0</ele><time>2026-04-24T13:46:47Z</time></trkpt><trkpt lat="31.178500659929025" lon="-7.130424052346432"><ele>1655.0</ele><time>2026-04-24T13:46:48Z</time></trkpt><trkpt lat="31.178378687902185" lon="-7.130374721321696"><ele>1655.0</ele><time>2026-04-24T13:46:49Z</time></trkpt><trkpt lat="31.178253826308787" lon="-7.130292717885761"><ele>1651.3333333333333</ele><time>2026-04-24T13:46:50Z</time></trkpt><trkpt lat="31.178132682953194" lon="-7.130197247716711"><ele>1647.6666666666665</ele><time>2026-04-24T13:46:51Z</time></trkpt><trkpt lat="31.178005914835392" lon="-7.1300823367938175"><ele>1644.0</ele><time>2026-04-24T13:46:52Z</time></trkpt><trkpt lat="31.17787328810591" lon="-7.129956894942214"><ele>1644.75</ele><time>2026-04-24T13:46:53Z</time></trkpt><trkpt lat="31.177741925601325" lon="-7.129834687881942"><ele>1645.5</ele><time>2026-04-24T13:46:54Z</time></trkpt><trkpt lat="31.177619305499384" lon="-7.129729990743467"><ele>1646.25</ele><time>2026-04-24T13:46:55Z</time></trkpt><trkpt lat="31.177516822295214" lon="-7.1296482093900995"><ele>1647.0</ele><time>2026-04-24T13:46:56Z</time></trkpt><trkpt lat="31.177435393714415" lon="-7.129576683887787"><ele>1647.0</ele><time>2026-04-24T13:46:57Z</time></trkpt><trkpt lat="31.17738330130341" lon="-7.129530405375762"><ele>1647.0</ele><time>2026-04-24T13:46:58Z</time></trkpt><trkpt lat="31.177335046159843" lon="-7.129457416337624"><ele>1647.0</ele><time>2026-04-24T13:47:01Z</time></trkpt><trkpt lat="31.177273480115108" lon="-7.129414304069957"><ele>1647.0</ele><time>2026-04-24T13:47:06Z</time></trkpt><trkpt lat="31.17725761082011" lon="-7.129329304001422"><ele>1647.0</ele><time>2026-04-24T13:48:08Z</time></trkpt><trkpt lat="31.17723960864989" lon="-7.129217690965625"><ele>1647.0</ele><time>2026-04-24T13:48:11Z</time></trkpt><trkpt lat="31.17722265756871" lon="-7.129118801609094"><ele>1644.6</ele><time>2026-04-24T13:48:14Z</time></trkpt><trkpt lat="31.17718502743994" lon="-7.129056342088948"><ele>1642.1999999999998</ele><time>2026-04-24T13:48:18Z</time></trkpt><trkpt lat="31.1771466518504" lon="-7.129223333520521"><ele>1639.8</ele><time>2026-04-24T13:48:20Z</time></trkpt><trkpt lat="31.177128181287134" lon="-7.129104398779299"><ele>1637.4</ele><time>2026-04-24T13:48:22Z</time></trkpt><trkpt lat="31.177076139360892" lon="-7.12914599569302"><ele>1635.0</ele><time>2026-04-24T13:48:25Z</time></trkpt><trkpt lat="31.177011765312322" lon="-7.1291789450927565"><ele>1635.0</ele><time>2026-04-24T13:48:34Z</time></trkpt><trkpt lat="31.17710690321805" lon="-7.129325069088556"><ele>1635.0</ele><time>2026-04-24T13:50:42Z</time></trkpt><trkpt lat="31.17718789211301" lon="-7.129399102815833"><ele>1635.0</ele><time>2026-04-24T13:50:44Z</time></trkpt><trkpt lat="31.177250414508844" lon="-7.129438027774809"><ele>1635.0</ele><time>2026-04-24T13:50:46Z</time></trkpt><trkpt lat="31.177313842800785" lon="-7.129448333122095"><ele>1635.0</ele><time>2026-04-24T13:50:52Z</time></trkpt><trkpt lat="31.17728548213663" lon="-7.129360937608192"><ele>1635.0</ele><time>2026-04-24T13:50:57Z</time></trkpt><trkpt lat="31.17723775743031" lon="-7.129303140622079"><ele>1635.0</ele><time>2026-04-24T13:50:59Z</time></trkpt><trkpt lat="31.177221193810865" lon="-7.129225125672709"><ele>1635.0</ele><time>2026-04-24T13:53:00Z</time></trkpt><trkpt lat="31.177207964712117" lon="-7.129144140642781"><ele>1635.0</ele><time>2026-04-24T13:55:52.999Z</time></trkpt><trkpt lat="31.177205530890635" lon="-7.129029146921462"><ele>1635.0</ele><time>2026-04-24T13:55:54.999Z</time></trkpt><trkpt lat="31.177206112655536" lon="-7.128950346261769"><ele>1635.0</ele><time>2026-04-24T13:55:55.999Z</time></trkpt><trkpt lat="31.177212612694507" lon="-7.128856130675719"><ele>1636.6</ele><time>2026-04-24T13:55:56.999Z</time></trkpt><trkpt lat="31.177227154630906" lon="-7.128751161068432"><ele>1638.2</ele><time>2026-04-24T13:55:57.999Z</time></trkpt><trkpt lat="31.17724872176616" lon="-7.12863908163657"><ele>1639.8000000000002</ele><time>2026-04-24T13:55:58.999Z</time></trkpt><trkpt lat="31.17727804516556" lon="-7.128517330548824"><ele>1641.4</ele><time>2026-04-24T13:55:59.999Z</time></trkpt><trkpt lat="31.177316515848318" lon="-7.128387876548364"><ele>1643.0</ele><time>2026-04-24T13:56:00.999Z</time></trkpt><trkpt lat="31.177361029449916" lon="-7.128255758973715"><ele>1641.75</ele><time>2026-04-24T13:56:01.999Z</time></trkpt><trkpt lat="31.17740830102139" lon="-7.1281266097226155"><ele>1640.5</ele><time>2026-04-24T13:56:02.999Z</time></trkpt><trkpt lat="31.1774542597873" lon="-7.127997548191089"><ele>1639.25</ele><time>2026-04-24T13:56:03.999Z</time></trkpt><trkpt lat="31.177499055793714" lon="-7.127868974707573"><ele>1638.0</ele><time>2026-04-24T13:56:04.999Z</time></trkpt><trkpt lat="31.17754371301957" lon="-7.127740417093087"><ele>1638.0</ele><time>2026-04-24T13:56:05.999Z</time></trkpt><trkpt lat="31.1775863543646" lon="-7.127615383419925"><ele>1638.0</ele><time>2026-04-24T13:56:06.999Z</time></trkpt><trkpt lat="31.177620024365847" lon="-7.127495919415602"><ele>1638.0</ele><time>2026-04-24T13:56:07.999Z</time></trkpt><trkpt lat="31.17764442545949" lon="-7.127379439445979"><ele>1638.0</ele><time>2026-04-24T13:56:08.999Z</time></trkpt><trkpt lat="31.17765797858417" lon="-7.127270452074445"><ele>1638.0</ele><time>2026-04-24T13:56:09.999Z</time></trkpt><trkpt lat="31.177659034791628" lon="-7.127168622788608"><ele>1636.2</ele><time>2026-04-24T13:56:10.999Z</time></trkpt><trkpt lat="31.17764622317378" lon="-7.127070779200197"><ele>1634.4</ele><time>2026-04-24T13:56:11.999Z</time></trkpt><trkpt lat="31.17761800369537" lon="-7.1269729262607235"><ele>1632.6000000000001</ele><time>2026-04-24T13:56:12.999Z</time></trkpt><trkpt lat="31.17756834106048" lon="-7.126879658089114"><ele>1630.8000000000002</ele><time>2026-04-24T13:56:13.999Z</time></trkpt><trkpt lat="31.177500625926193" lon="-7.126791764303568"><ele>1629.0</ele><time>2026-04-24T13:56:14.999Z</time></trkpt><trkpt lat="31.177421715570404" lon="-7.126720643601094"><ele>1623.1666666666667</ele><time>2026-04-24T13:56:15.999Z</time></trkpt><trkpt lat="31.177336458352848" lon="-7.126666464611142"><ele>1617.3333333333335</ele><time>2026-04-24T13:56:16.999Z</time></trkpt><trkpt lat="31.17725559228373" lon="-7.126633502927781"><ele>1611.5</ele><time>2026-04-24T13:56:17.999Z</time></trkpt><trkpt lat="31.177173146094326" lon="-7.12663118392245"><ele>1605.6666666666667</ele><time>2026-04-24T13:56:18.999Z</time></trkpt><trkpt lat="31.177091096342156" lon="-7.126660515755914"><ele>1599.8333333333335</ele><time>2026-04-24T13:56:19.999Z</time></trkpt><trkpt lat="31.17700181477568" lon="-7.126700546280569"><ele>1594.0</ele><time>2026-04-24T13:56:21Z</time></trkpt><trkpt lat="31.176937452989744" lon="-7.126799922444056"><ele>1594.0</ele><time>2026-04-24T13:56:22Z</time></trkpt><trkpt lat="31.176869723139458" lon="-7.1268893044446155"><ele>1594.0</ele><time>2026-04-24T13:56:23Z</time></trkpt><trkpt lat="31.1768094572709" lon="-7.126985734772512"><ele>1594.0</ele><time>2026-04-24T13:56:24Z</time></trkpt><trkpt lat="31.176759243102786" lon="-7.127089557973856"><ele>1594.0</ele><time>2026-04-24T13:56:25Z</time></trkpt><trkpt lat="31.176717992475645" lon="-7.1271945096529485"><ele>1594.0</ele><time>2026-04-24T13:56:26Z</time></trkpt><trkpt lat="31.17667884286913" lon="-7.127296396304163"><ele>1597.2</ele><time>2026-04-24T13:56:27Z</time></trkpt><trkpt lat="31.17663785196526" lon="-7.127394508691924"><ele>1600.4</ele><time>2026-04-24T13:56:28Z</time></trkpt><trkpt lat="31.17659531671283" lon="-7.1274896982915985"><ele>1603.6</ele><time>2026-04-24T13:56:29Z</time></trkpt><trkpt lat="31.17654981083341" lon="-7.127582039105053"><ele>1606.8</ele><time>2026-04-24T13:56:30Z</time></trkpt><trkpt lat="31.176500345521518" lon="-7.127677366851288"><ele>1610.0</ele><time>2026-04-24T13:56:31Z</time></trkpt><trkpt lat="31.17644767927572" lon="-7.127775510304694"><ele>1605.8</ele><time>2026-04-24T13:56:32Z</time></trkpt><trkpt lat="31.17639311871387" lon="-7.127879096116888"><ele>1601.6</ele><time>2026-04-24T13:56:33Z</time></trkpt><trkpt lat="31.17633612222287" lon="-7.12798715546948"><ele>1597.4</ele><time>2026-04-24T13:56:34Z</time></trkpt><trkpt lat="31.176277375677135" lon="-7.128096691779906"><ele>1593.2</ele><time>2026-04-24T13:56:35Z</time></trkpt><trkpt lat="31.17621759197337" lon="-7.128204942419981"><ele>1589.0</ele><time>2026-04-24T13:56:36Z</time></trkpt><trkpt lat="31.176160881203746" lon="-7.128307825525365"><ele>1589.0</ele><time>2026-04-24T13:56:37Z</time></trkpt><trkpt lat="31.176105125140676" lon="-7.128408614570998"><ele>1589.0</ele><time>2026-04-24T13:56:38Z</time></trkpt><trkpt lat="31.176051583631864" lon="-7.128506872626317"><ele>1589.0</ele><time>2026-04-24T13:56:39Z</time></trkpt><trkpt lat="31.176000809843764" lon="-7.128601411552115"><ele>1589.0</ele><time>2026-04-24T13:56:40Z</time></trkpt><trkpt lat="31.17595598130792" lon="-7.128687824936627"><ele>1589.0</ele><time>2026-04-24T13:56:41Z</time></trkpt><trkpt lat="31.175916349558292" lon="-7.128761146853161"><ele>1588.9999999999998</ele><time>2026-04-24T13:56:42Z</time></trkpt><trkpt lat="31.175872292669204" lon="-7.128815458853276"><ele>1589.0</ele><time>2026-04-24T13:56:43Z</time></trkpt><trkpt lat="31.175771894365205" lon="-7.128845176321618"><ele>1589.0</ele><time>2026-04-24T13:56:45Z</time></trkpt><trkpt lat="31.175710826154887" lon="-7.128763348911885"><ele>1589.0</ele><time>2026-04-24T13:56:47Z</time></trkpt><trkpt lat="31.17567491227278" lon="-7.128696852695974"><ele>1588.9999999999998</ele><time>2026-04-24T13:56:48Z</time></trkpt><trkpt lat="31.175680281384356" lon="-7.128603018518619"><ele>1589.0</ele><time>2026-04-24T13:56:49Z</time></trkpt><trkpt lat="31.175710401612935" lon="-7.128489407113933"><ele>1589.0</ele><time>2026-04-24T13:56:50Z</time></trkpt><trkpt lat="31.17576388185538" lon="-7.128368066810089"><ele>1589.0</ele><time>2026-04-24T13:56:51Z</time></trkpt><trkpt lat="31.175824318601837" lon="-7.128250782450979"><ele>1589.0</ele><time>2026-04-24T13:56:52Z</time></trkpt><trkpt lat="31.175890602868755" lon="-7.128124215027732"><ele>1589.0</ele><time>2026-04-24T13:56:53Z</time></trkpt><trkpt lat="31.17595667891644" lon="-7.127997488510504"><ele>1583.25</ele><time>2026-04-24T13:56:54Z</time></trkpt><trkpt lat="31.176019408941453" lon="-7.127875783098716"><ele>1577.5</ele><time>2026-04-24T13:56:55Z</time></trkpt><trkpt lat="31.176079251988483" lon="-7.127760769028144"><ele>1571.75</ele><time>2026-04-24T13:56:56Z</time></trkpt><trkpt lat="31.17613605728857" lon="-7.127650231085264"><ele>1566.0</ele><time>2026-04-24T13:56:57Z</time></trkpt><trkpt lat="31.176186552287728" lon="-7.127540525794036"><ele>1566.0</ele><time>2026-04-24T13:56:58Z</time></trkpt><trkpt lat="31.176235224689112" lon="-7.127435605629183"><ele>1566.0</ele><time>2026-04-24T13:56:59Z</time></trkpt><trkpt lat="31.17628155076525" lon="-7.12733528036783"><ele>1566.0</ele><time>2026-04-24T13:57:00Z</time></trkpt><trkpt lat="31.176322501532656" lon="-7.127243055471213"><ele>1566.0</ele><time>2026-04-24T13:57:01Z</time></trkpt><trkpt lat="31.176368093458173" lon="-7.127167993009754"><ele>1566.0</ele><time>2026-04-24T13:57:02Z</time></trkpt><trkpt lat="31.17634758440445" lon="-7.127041644739228"><ele>1566.0</ele><time>2026-04-24T13:57:04Z</time></trkpt><trkpt lat="31.176249573715296" lon="-7.127034893175782"><ele>1566.0</ele><time>2026-04-24T13:57:06Z</time></trkpt><trkpt lat="31.176205362138624" lon="-7.127089725811163"><ele>1566.0</ele><time>2026-04-24T13:57:07Z</time></trkpt><trkpt lat="31.17617648598864" lon="-7.127155794936795"><ele>1566.0</ele><time>2026-04-24T13:57:08Z</time></trkpt><trkpt lat="31.176141961583383" lon="-7.127239008917506"><ele>1566.0</ele><time>2026-04-24T13:57:09Z</time></trkpt><trkpt lat="31.176103918198226" lon="-7.12732153846102"><ele>1566.0</ele><time>2026-04-24T13:57:10Z</time></trkpt><trkpt lat="31.176066460572486" lon="-7.127402870175758"><ele>1566.0</ele><time>2026-04-24T13:57:11Z</time></trkpt><trkpt lat="31.176029951842448" lon="-7.127483693271159"><ele>1566.0</ele><time>2026-04-24T13:57:12Z</time></trkpt><trkpt lat="31.17599099603234" lon="-7.127563626123808"><ele>1566.0</ele><time>2026-04-24T13:57:13Z</time></trkpt><trkpt lat="31.17595120990007" lon="-7.12763977165107"><ele>1566.0</ele><time>2026-04-24T13:57:14Z</time></trkpt><trkpt lat="31.175908166962607" lon="-7.127719291060849"><ele>1566.0</ele><time>2026-04-24T13:57:15Z</time></trkpt><trkpt lat="31.175860877852884" lon="-7.127805886004426"><ele>1566.0</ele><time>2026-04-24T13:57:16Z</time></trkpt><trkpt lat="31.175812098736113" lon="-7.127899758969757"><ele>1566.0</ele><time>2026-04-24T13:57:17Z</time></trkpt><trkpt lat="31.175758494593428" lon="-7.128002373666079"><ele>1566.0</ele><time>2026-04-24T13:57:18Z</time></trkpt><trkpt lat="31.175696505506174" lon="-7.128110804000354"><ele>1566.0</ele><time>2026-04-24T13:57:19Z</time></trkpt><trkpt lat="31.175627815919714" lon="-7.128222598993858"><ele>1566.0</ele><time>2026-04-24T13:57:20Z</time></trkpt><trkpt lat="31.1755555730433" lon="-7.128337572719791"><ele>1561.0</ele><time>2026-04-24T13:57:21Z</time></trkpt><trkpt lat="31.175479940903532" lon="-7.128454939945725"><ele>1556.0</ele><time>2026-04-24T13:57:22Z</time></trkpt><trkpt lat="31.17539735727541" lon="-7.128577889788977"><ele>1551.0</ele><time>2026-04-24T13:57:23Z</time></trkpt><trkpt lat="31.175308653024672" lon="-7.128702938646925"><ele>1546.0</ele><time>2026-04-24T13:57:24Z</time></trkpt><trkpt lat="31.175219080933232" lon="-7.12883279861644"><ele>1546.0</ele><time>2026-04-24T13:57:25Z</time></trkpt><trkpt lat="31.175133361260144" lon="-7.128964968605112"><ele>1546.0</ele><time>2026-04-24T13:57:26Z</time></trkpt><trkpt lat="31.17505205535604" lon="-7.129096186980961"><ele>1546.0</ele><time>2026-04-24T13:57:27Z</time></trkpt><trkpt lat="31.174973098793053" lon="-7.129219927397904"><ele>1546.0</ele><time>2026-04-24T13:57:28Z</time></trkpt><trkpt lat="31.174893593436376" lon="-7.1293370445066016"><ele>1542.0</ele><time>2026-04-24T13:57:29Z</time></trkpt><trkpt lat="31.174815048096097" lon="-7.129448746011286"><ele>1538.0</ele><time>2026-04-24T13:57:30Z</time></trkpt><trkpt lat="31.174736607053106" lon="-7.129560187606151"><ele>1534.0</ele><time>2026-04-24T13:57:31Z</time></trkpt><trkpt lat="31.17466071752415" lon="-7.129681052639265"><ele>1530.0</ele><time>2026-04-24T13:57:32Z</time></trkpt><trkpt lat="31.174592354802588" lon="-7.129809951632828"><ele>1535.0</ele><time>2026-04-24T13:57:33Z</time></trkpt><trkpt lat="31.17453474807865" lon="-7.129936957693643"><ele>1540.0</ele><time>2026-04-24T13:57:34Z</time></trkpt><trkpt lat="31.174484564642704" lon="-7.130065093874351"><ele>1545.0</ele><time>2026-04-24T13:57:35Z</time></trkpt><trkpt lat="31.174441762341267" lon="-7.130187772570525"><ele>1550.0</ele><time>2026-04-24T13:57:36Z</time></trkpt><trkpt lat="31.174407883826383" lon="-7.130303088912834"><ele>1550.0</ele><time>2026-04-24T13:57:37Z</time></trkpt><trkpt lat="31.174377447195962" lon="-7.130406376336585"><ele>1550.0</ele><time>2026-04-24T13:57:38Z</time></trkpt><trkpt lat="31.174341799518373" lon="-7.130493892707904"><ele>1550.0</ele><time>2026-04-24T13:57:39Z</time></trkpt><trkpt lat="31.17429261279334" lon="-7.130560713536779"><ele>1550.0</ele><time>2026-04-24T13:57:40Z</time></trkpt><trkpt lat="31.17418369289679" lon="-7.130588289871215"><ele>1550.0</ele><time>2026-04-24T13:57:42Z</time></trkpt><trkpt lat="31.17411357787823" lon="-7.13049865535163"><ele>1550.0</ele><time>2026-04-24T13:57:44Z</time></trkpt><trkpt lat="31.17411388849493" lon="-7.130410793206196"><ele>1550.0</ele><time>2026-04-24T13:57:45Z</time></trkpt><trkpt lat="31.174135983439026" lon="-7.1302950025092535"><ele>1550.0</ele><time>2026-04-24T13:57:46Z</time></trkpt><trkpt lat="31.174153434592693" lon="-7.130156788584031"><ele>1550.0</ele><time>2026-04-24T13:57:47Z</time></trkpt><trkpt lat="31.174191193508978" lon="-7.130012516762219"><ele>1550.0</ele><time>2026-04-24T13:57:48Z</time></trkpt><trkpt lat="31.174232244059628" lon="-7.129864113841023"><ele>1545.0</ele><time>2026-04-24T13:57:49Z</time></trkpt><trkpt lat="31.17427004249981" lon="-7.129715804484626"><ele>1540.0</ele><time>2026-04-24T13:57:50Z</time></trkpt><trkpt lat="31.174307654768743" lon="-7.129559125262477"><ele>1535.0</ele><time>2026-04-24T13:57:51Z</time></trkpt><trkpt lat="31.17435121119604" lon="-7.129394126211579"><ele>1530.0</ele><time>2026-04-24T13:57:52Z</time></trkpt><trkpt lat="31.174416010216675" lon="-7.129225936936838"><ele>1530.0</ele><time>2026-04-24T13:57:53Z</time></trkpt><trkpt lat="31.174492580197036" lon="-7.129065360472214"><ele>1530.0</ele><time>2026-04-24T13:57:54Z</time></trkpt><trkpt lat="31.174572201523873" lon="-7.128898650715895"><ele>1530.0</ele><time>2026-04-24T13:57:55Z</time></trkpt><trkpt lat="31.17465195685624" lon="-7.128730408127725"><ele>1535.3333333333335</ele><time>2026-04-24T13:57:56Z</time></trkpt><trkpt lat="31.174748758604668" lon="-7.128571395553777"><ele>1540.6666666666667</ele><time>2026-04-24T13:57:57Z</time></trkpt><trkpt lat="31.174832308261603" lon="-7.128403772567316"><ele>1546.0</ele><time>2026-04-24T13:57:57.999Z</time></trkpt><trkpt lat="31.174916782890115" lon="-7.128235001651695"><ele>1537.6666666666667</ele><time>2026-04-24T13:57:58.999Z</time></trkpt><trkpt lat="31.174996551415518" lon="-7.12806167641058"><ele>1529.3333333333335</ele><time>2026-04-24T13:57:59.999Z</time></trkpt><trkpt lat="31.175068790032373" lon="-7.127883324223669"><ele>1521.0</ele><time>2026-04-24T13:58:00.999Z</time></trkpt><trkpt lat="31.175134569880473" lon="-7.127701537815608"><ele>1521.0</ele><time>2026-04-24T13:58:01.999Z</time></trkpt><trkpt lat="31.175191720447685" lon="-7.127521442301127"><ele>1521.0</ele><time>2026-04-24T13:58:02.999Z</time></trkpt><trkpt lat="31.175245412749298" lon="-7.127342711889006"><ele>1521.0</ele><time>2026-04-24T13:58:03.999Z</time></trkpt><trkpt lat="31.175296296103422" lon="-7.127169871123022"><ele>1521.0</ele><time>2026-04-24T13:58:04.999Z</time></trkpt><trkpt lat="31.175346587967763" lon="-7.12700208554555"><ele>1521.0</ele><time>2026-04-24T13:58:05.999Z</time></trkpt><trkpt lat="31.175396530109943" lon="-7.126841214008829"><ele>1521.0</ele><time>2026-04-24T13:58:06.999Z</time></trkpt><trkpt lat="31.175447414433496" lon="-7.126687162923509"><ele>1521.0</ele><time>2026-04-24T13:58:07.999Z</time></trkpt><trkpt lat="31.17550042596848" lon="-7.126541518184671"><ele>1521.0</ele><time>2026-04-24T13:58:08.999Z</time></trkpt><trkpt lat="31.17555504069988" lon="-7.1264039359417675"><ele>1521.0</ele><time>2026-04-24T13:58:09.999Z</time></trkpt><trkpt lat="31.17561170051744" lon="-7.126275618166356"><ele>1521.0</ele><time>2026-04-24T13:58:10.999Z</time></trkpt><trkpt lat="31.17566123545028" lon="-7.126153801349686"><ele>1521.0</ele><time>2026-04-24T13:58:11.999Z</time></trkpt><trkpt lat="31.17569812570705" lon="-7.12603633396725"><ele>1522.3333333333333</ele><time>2026-04-24T13:58:12.999Z</time></trkpt><trkpt lat="31.175716539680113" lon="-7.1259188839147285"><ele>1523.6666666666667</ele><time>2026-04-24T13:58:13.999Z</time></trkpt><trkpt lat="31.17571234065482" lon="-7.1258086826316624"><ele>1525.0</ele><time>2026-04-24T13:58:14.999Z</time></trkpt><trkpt lat="31.175677858590724" lon="-7.12571536405995"><ele>1526.3333333333335</ele><time>2026-04-24T13:58:15.999Z</time></trkpt><trkpt lat="31.17560188413766" lon="-7.125683145405807"><ele>1527.6666666666667</ele><time>2026-04-24T13:58:16.999Z</time></trkpt><trkpt lat="31.175524306868564" lon="-7.125656701419712"><ele>1529.0</ele><time>2026-04-24T13:58:17.999Z</time></trkpt><trkpt lat="31.175439475905204" lon="-7.125659957127082"><ele>1527.4</ele><time>2026-04-24T13:58:18.999Z</time></trkpt><trkpt lat="31.175359837806425" lon="-7.125694315950431"><ele>1525.8000000000002</ele><time>2026-04-24T13:58:19.999Z</time></trkpt><trkpt lat="31.17528088519285" lon="-7.125746117906897"><ele>1524.1999999999998</ele><time>2026-04-24T13:58:20.999Z</time></trkpt><trkpt lat="31.17521622531268" lon="-7.125822741617168"><ele>1522.6</ele><time>2026-04-24T13:58:21.999Z</time></trkpt><trkpt lat="31.175158969239153" lon="-7.125920251352324"><ele>1521.0</ele><time>2026-04-24T13:58:22.999Z</time></trkpt><trkpt lat="31.1751078330617" lon="-7.1260233434580895"><ele>1521.0</ele><time>2026-04-24T13:58:23.999Z</time></trkpt><trkpt lat="31.17504995624352" lon="-7.126125887558725"><ele>1521.0</ele><time>2026-04-24T13:58:24.999Z</time></trkpt><trkpt lat="31.174947017139118" lon="-7.12621867383716"><ele>1521.0</ele><time>2026-04-24T13:58:26Z</time></trkpt><trkpt lat="31.174834180636466" lon="-7.126270571113422"><ele>1521.0</ele><time>2026-04-24T13:58:27Z</time></trkpt><trkpt lat="31.174718472696494" lon="-7.126305076544641"><ele>1520.25</ele><time>2026-04-24T13:58:28Z</time></trkpt><trkpt lat="31.17462465283338" lon="-7.126343260491883"><ele>1519.5</ele><time>2026-04-24T13:58:29Z</time></trkpt><trkpt lat="31.174529357379118" lon="-7.126423417305459"><ele>1518.75</ele><time>2026-04-24T13:58:30Z</time></trkpt><trkpt lat="31.174446628659837" lon="-7.126536517076215"><ele>1518.0</ele><time>2026-04-24T13:58:31Z</time></trkpt><trkpt lat="31.1743525434483" lon="-7.126667597258578"><ele>1518.0</ele><time>2026-04-24T13:58:32Z</time></trkpt><trkpt lat="31.17425925483006" lon="-7.126808189431693"><ele>1518.0</ele><time>2026-04-24T13:58:33Z</time></trkpt><trkpt lat="31.17416471322472" lon="-7.126952932270504"><ele>1518.0</ele><time>2026-04-24T13:58:34Z</time></trkpt><trkpt lat="31.1740697216581" lon="-7.127098135863207"><ele>1517.3333333333333</ele><time>2026-04-24T13:58:35Z</time></trkpt><trkpt lat="31.17398194650721" lon="-7.127232584690636"><ele>1516.6666666666665</ele><time>2026-04-24T13:58:36Z</time></trkpt><trkpt lat="31.17389390292601" lon="-7.127368437384915"><ele>1516.0</ele><time>2026-04-24T13:58:37Z</time></trkpt><trkpt lat="31.173786547982598" lon="-7.127511994471009"><ele>1516.0</ele><time>2026-04-24T13:58:38Z</time></trkpt><trkpt lat="31.173647201081803" lon="-7.127632854550471"><ele>1516.0</ele><time>2026-04-24T13:58:39Z</time></trkpt><trkpt lat="31.173495503953156" lon="-7.127734739558656"><ele>1516.0</ele><time>2026-04-24T13:58:40Z</time></trkpt><trkpt lat="31.173345874831835" lon="-7.127824299747399"><ele>1516.0</ele><time>2026-04-24T13:58:41Z</time></trkpt><trkpt lat="31.17319637491024" lon="-7.1279289938373935"><ele>1516.0</ele><time>2026-04-24T13:58:42Z</time></trkpt><trkpt lat="31.173044263498266" lon="-7.128043992495726"><ele>1516.0</ele><time>2026-04-24T13:58:43Z</time></trkpt><trkpt lat="31.172903361774484" lon="-7.128147786914212"><ele>1513.6666666666665</ele><time>2026-04-24T13:58:44Z</time></trkpt><trkpt lat="31.172766838994196" lon="-7.128247667902508"><ele>1511.3333333333333</ele><time>2026-04-24T13:58:45Z</time></trkpt><trkpt lat="31.1726273547604" lon="-7.128337515542556"><ele>1509.0</ele><time>2026-04-24T13:58:46Z</time></trkpt><trkpt lat="31.172498471775107" lon="-7.128421088697492"><ele>1509.0</ele><time>2026-04-24T13:58:47Z</time></trkpt><trkpt lat="31.172369109451807" lon="-7.128500048117385"><ele>1509.0</ele><time>2026-04-24T13:58:48Z</time></trkpt><trkpt lat="31.172254217349945" lon="-7.128570041396132"><ele>1509.0</ele><time>2026-04-24T13:58:49Z</time></trkpt><trkpt lat="31.172151164565044" lon="-7.12865416661334"><ele>1509.0</ele><time>2026-04-24T13:58:50Z</time></trkpt><trkpt lat="31.17205452946042" lon="-7.1287449611997316"><ele>1508.75</ele><time>2026-04-24T13:58:51Z</time></trkpt><trkpt lat="31.171964519109043" lon="-7.128841108351991"><ele>1508.5</ele><time>2026-04-24T13:58:52Z</time></trkpt><trkpt lat="31.171877188976296" lon="-7.128912666121524"><ele>1508.25</ele><time>2026-04-24T13:58:53Z</time></trkpt><trkpt lat="31.17177423064775" lon="-7.128955235644531"><ele>1508.0</ele><time>2026-04-24T13:58:54Z</time></trkpt><trkpt lat="31.17165318615279" lon="-7.128962083159133"><ele>1508.0</ele><time>2026-04-24T13:58:55Z</time></trkpt><trkpt lat="31.1715409692243" lon="-7.128956910502364"><ele>1508.0</ele><time>2026-04-24T13:58:56Z</time></trkpt><trkpt lat="31.171408721574554" lon="-7.1289381648161925"><ele>1508.0</ele><time>2026-04-24T13:58:57Z</time></trkpt><trkpt lat="31.171273477794784" lon="-7.128928666336333"><ele>1508.0</ele><time>2026-04-24T13:58:58Z</time></trkpt><trkpt lat="31.171126896121336" lon="-7.128921478665365"><ele>1508.0</ele><time>2026-04-24T13:58:59Z</time></trkpt><trkpt lat="31.170978621718394" lon="-7.1289198088736825"><ele>1508.0</ele><time>2026-04-24T13:59:00Z</time></trkpt><trkpt lat="31.170822297663616" lon="-7.128919089968211"><ele>1508.0</ele><time>2026-04-24T13:59:01Z</time></trkpt><trkpt lat="31.17065879414131" lon="-7.1289178010788"><ele>1508.0</ele><time>2026-04-24T13:59:02Z</time></trkpt><trkpt lat="31.17049041012008" lon="-7.128921588721789"><ele>1508.0</ele><time>2026-04-24T13:59:03Z</time></trkpt><trkpt lat="31.17031584520857" lon="-7.128925944897444"><ele>1508.0</ele><time>2026-04-24T13:59:04Z</time></trkpt><trkpt lat="31.17013604837593" lon="-7.128930780074148"><ele>1508.0</ele><time>2026-04-24T13:59:05Z</time></trkpt><trkpt lat="31.1699474602728" lon="-7.128919263451826"><ele>1508.0</ele><time>2026-04-24T13:59:06Z</time></trkpt><trkpt lat="31.169763718239043" lon="-7.128906330924234"><ele>1508.0</ele><time>2026-04-24T13:59:07Z</time></trkpt><trkpt lat="31.16958407439767" lon="-7.128893535062423"><ele>1507.3333333333335</ele><time>2026-04-24T13:59:08Z</time></trkpt><trkpt lat="31.169412800016485" lon="-7.128886113643651"><ele>1506.6666666666667</ele><time>2026-04-24T13:59:09Z</time></trkpt><trkpt lat="31.169245302883215" lon="-7.1288819270857795"><ele>1506.0</ele><time>2026-04-24T13:59:10Z</time></trkpt><trkpt lat="31.169082731064393" lon="-7.128877583192983"><ele>1506.0</ele><time>2026-04-24T13:59:11Z</time></trkpt><trkpt lat="31.16892450823548" lon="-7.128873355503643"><ele>1506.0</ele><time>2026-04-24T13:59:12Z</time></trkpt><trkpt lat="31.16876992977788" lon="-7.128869277913809"><ele>1506.0</ele><time>2026-04-24T13:59:13Z</time></trkpt><trkpt lat="31.16861357749306" lon="-7.128859471838103"><ele>1506.0</ele><time>2026-04-24T13:59:14Z</time></trkpt><trkpt lat="31.16846443076736" lon="-7.12884117520214"><ele>1506.0</ele><time>2026-04-24T13:59:15Z</time></trkpt><trkpt lat="31.168325387001058" lon="-7.128829201089506"><ele>1506.0</ele><time>2026-04-24T13:59:16Z</time></trkpt><trkpt lat="31.16817898096028" lon="-7.128831890768366"><ele>1506.0</ele><time>2026-04-24T13:59:17Z</time></trkpt><trkpt lat="31.16803280295877" lon="-7.128849344205795"><ele>1505.3333333333333</ele><time>2026-04-24T13:59:18Z</time></trkpt><trkpt lat="31.167875708232035" lon="-7.128873722545773"><ele>1504.6666666666665</ele><time>2026-04-24T13:59:19Z</time></trkpt><trkpt lat="31.167711002206854" lon="-7.1288969009303385"><ele>1504.0</ele><time>2026-04-24T13:59:20Z</time></trkpt><trkpt lat="31.167536230915026" lon="-7.128911905602034"><ele>1504.0</ele><time>2026-04-24T13:59:21Z</time></trkpt><trkpt lat="31.16736358104222" lon="-7.128918455782551"><ele>1504.0</ele><time>2026-04-24T13:59:22Z</time></trkpt><trkpt lat="31.1671955779752" lon="-7.12892831516285"><ele>1504.0</ele><time>2026-04-24T13:59:23Z</time></trkpt><trkpt lat="31.167054191632793" lon="-7.12896457617964"><ele>1505.0</ele><time>2026-04-24T13:59:24Z</time></trkpt><trkpt lat="31.16691845450816" lon="-7.129014939094411"><ele>1506.0</ele><time>2026-04-24T13:59:25Z</time></trkpt><trkpt lat="31.16679735475164" lon="-7.129052405637905"><ele>1507.0</ele><time>2026-04-24T13:59:26Z</time></trkpt><trkpt lat="31.16666965971383" lon="-7.129062377983627"><ele>1508.0</ele><time>2026-04-24T13:59:27Z</time></trkpt><trkpt lat="31.16654009952701" lon="-7.129037019438346"><ele>1507.25</ele><time>2026-04-24T13:59:28Z</time></trkpt><trkpt lat="31.166411746890578" lon="-7.128999091784747"><ele>1506.5</ele><time>2026-04-24T13:59:29Z</time></trkpt><trkpt lat="31.1662782726255" lon="-7.128959112224679"><ele>1505.75</ele><time>2026-04-24T13:59:30Z</time></trkpt><trkpt lat="31.166138700526737" lon="-7.128915637046971"><ele>1505.0</ele><time>2026-04-24T13:59:31Z</time></trkpt><trkpt lat="31.16599505296278" lon="-7.1288703065573475"><ele>1505.0</ele><time>2026-04-24T13:59:32Z</time></trkpt><trkpt lat="31.165847051912856" lon="-7.128819036198243"><ele>1505.0</ele><time>2026-04-24T13:59:33Z</time></trkpt><trkpt lat="31.165701882997602" lon="-7.128762161624716"><ele>1505.0</ele><time>2026-04-24T13:59:34Z</time></trkpt><trkpt lat="31.16555466569705" lon="-7.128701718380943"><ele>1503.25</ele><time>2026-04-24T13:59:35Z</time></trkpt><trkpt lat="31.16540739845581" lon="-7.128632069507154"><ele>1501.5</ele><time>2026-04-24T13:59:36Z</time></trkpt><trkpt lat="31.165276383301173" lon="-7.128550629441905"><ele>1499.75</ele><time>2026-04-24T13:59:37Z</time></trkpt><trkpt lat="31.16514893894846" lon="-7.12847834537931"><ele>1498.0</ele><time>2026-04-24T13:59:38Z</time></trkpt><trkpt lat="31.16502281306609" lon="-7.128408667100306"><ele>1498.0</ele><time>2026-04-24T13:59:39Z</time></trkpt><trkpt lat="31.1649057887765" lon="-7.128340408722285"><ele>1498.0</ele><time>2026-04-24T13:59:40Z</time></trkpt><trkpt lat="31.1647972649838" lon="-7.128278528284005"><ele>1498.0</ele><time>2026-04-24T13:59:41Z</time></trkpt><trkpt lat="31.164695440397907" lon="-7.12823110325249"><ele>1498.0</ele><time>2026-04-24T13:59:42Z</time></trkpt><trkpt lat="31.164593192388917" lon="-7.128200957408922"><ele>1500.75</ele><time>2026-04-24T13:59:43Z</time></trkpt><trkpt lat="31.164486062903716" lon="-7.128180366440595"><ele>1503.5</ele><time>2026-04-24T13:59:44Z</time></trkpt><trkpt lat="31.164374457444353" lon="-7.128160619351352"><ele>1506.25</ele><time>2026-04-24T13:59:45Z</time></trkpt><trkpt lat="31.164260450966108" lon="-7.128140447426481"><ele>1509.0</ele><time>2026-04-24T13:59:46Z</time></trkpt><trkpt lat="31.16414472928022" lon="-7.1281196454724824"><ele>1505.75</ele><time>2026-04-24T13:59:47Z</time></trkpt><trkpt lat="31.164028879484196" lon="-7.12809867938791"><ele>1502.5</ele><time>2026-04-24T13:59:48Z</time></trkpt><trkpt lat="31.163914299456916" lon="-7.128076445587631"><ele>1499.25</ele><time>2026-04-24T13:59:49Z</time></trkpt><trkpt lat="31.16380256201606" lon="-7.128058128335461"><ele>1496.0</ele><time>2026-04-24T13:59:50Z</time></trkpt><trkpt lat="31.163691069434574" lon="-7.1280541897853515"><ele>1496.0</ele><time>2026-04-24T13:59:51Z</time></trkpt><trkpt lat="31.163573049896065" lon="-7.128061159717263"><ele>1496.0</ele><time>2026-04-24T13:59:52Z</time></trkpt><trkpt lat="31.163452887379318" lon="-7.1280635500164715"><ele>1496.0</ele><time>2026-04-24T13:59:53Z</time></trkpt><trkpt lat="31.163337401771308" lon="-7.128082598653589"><ele>1496.0</ele><time>2026-04-24T13:59:54Z</time></trkpt><trkpt lat="31.163216404473893" lon="-7.128079878547961"><ele>1494.0</ele><time>2026-04-24T13:59:55Z</time></trkpt><trkpt lat="31.163095196642118" lon="-7.128056063376074"><ele>1492.0</ele><time>2026-04-24T13:59:56Z</time></trkpt><trkpt lat="31.16298755407442" lon="-7.128025659506088"><ele>1490.0</ele><time>2026-04-24T13:59:57Z</time></trkpt><trkpt lat="31.162890481900565" lon="-7.127997899215799"><ele>1488.0</ele><time>2026-04-24T13:59:58Z</time></trkpt><trkpt lat="31.16281135220402" lon="-7.127971606744677"><ele>1486.0</ele><time>2026-04-24T13:59:59Z</time></trkpt><trkpt lat="31.162731282936132" lon="-7.127943614587762"><ele>1486.0</ele><time>2026-04-24T14:00:00Z</time></trkpt><trkpt lat="31.162648007053814" lon="-7.127908780614151"><ele>1486.0</ele><time>2026-04-24T14:00:01Z</time></trkpt><trkpt lat="31.162557930650674" lon="-7.12786236333333"><ele>1486.0</ele><time>2026-04-24T14:00:02Z</time></trkpt><trkpt lat="31.16245544523648" lon="-7.127822801346632"><ele>1486.0</ele><time>2026-04-24T14:00:03Z</time></trkpt><trkpt lat="31.162357207895706" lon="-7.127757508562296"><ele>1486.0</ele><time>2026-04-24T14:00:04Z</time></trkpt><trkpt lat="31.16226132748842" lon="-7.1276944847444215"><ele>1483.5</ele><time>2026-04-24T14:00:05Z</time></trkpt><trkpt lat="31.16216605348798" lon="-7.127642772256362"><ele>1481.0</ele><time>2026-04-24T14:00:06Z</time></trkpt><trkpt lat="31.16206405904951" lon="-7.127606245925877"><ele>1478.5</ele><time>2026-04-24T14:00:07Z</time></trkpt><trkpt lat="31.16194240109284" lon="-7.127584691041036"><ele>1476.0</ele><time>2026-04-24T14:00:08Z</time></trkpt><trkpt lat="31.161804530371427" lon="-7.127571772209282"><ele>1476.0</ele><time>2026-04-24T14:00:09Z</time></trkpt><trkpt lat="31.161654976792047" lon="-7.127564060623938"><ele>1476.0</ele><time>2026-04-24T14:00:10Z</time></trkpt><trkpt lat="31.161500895953665" lon="-7.127566222633217"><ele>1476.0</ele><time>2026-04-24T14:00:11Z</time></trkpt><trkpt lat="31.161341799958766" lon="-7.127572332944129"><ele>1473.6666666666667</ele><time>2026-04-24T14:00:11.999Z</time></trkpt><trkpt lat="31.161181736717506" lon="-7.127578509910341"><ele>1471.3333333333335</ele><time>2026-04-24T14:00:12.999Z</time></trkpt><trkpt lat="31.161025533102016" lon="-7.127584764820621"><ele>1469.0</ele><time>2026-04-24T14:00:13.999Z</time></trkpt><trkpt lat="31.160873694870077" lon="-7.127590844926579"><ele>1469.0</ele><time>2026-04-24T14:00:14.999Z</time></trkpt><trkpt lat="31.160730809989392" lon="-7.127604040702816"><ele>1469.0</ele><time>2026-04-24T14:00:15.999Z</time></trkpt><trkpt lat="31.16060305959699" lon="-7.127621228234531"><ele>1469.0</ele><time>2026-04-24T14:00:16.999Z</time></trkpt><trkpt lat="31.160481952398985" lon="-7.127645373476057"><ele>1469.0</ele><time>2026-04-24T14:00:17.999Z</time></trkpt><trkpt lat="31.16038110851701" lon="-7.1277046290734924"><ele>1468.75</ele><time>2026-04-24T14:00:18.999Z</time></trkpt><trkpt lat="31.160268840332428" lon="-7.127767949026128"><ele>1468.5</ele><time>2026-04-24T14:00:19.999Z</time></trkpt><trkpt lat="31.160157619980772" lon="-7.127819240180954"><ele>1468.25</ele><time>2026-04-24T14:00:20.999Z</time></trkpt><trkpt lat="31.160034614657985" lon="-7.127846889927836"><ele>1468.0</ele><time>2026-04-24T14:00:21.999Z</time></trkpt><trkpt lat="31.159913988972768" lon="-7.127876611591037"><ele>1471.5</ele><time>2026-04-24T14:00:22.999Z</time></trkpt><trkpt lat="31.159792767337105" lon="-7.1279180458469575"><ele>1475.0</ele><time>2026-04-24T14:00:23.999Z</time></trkpt><trkpt lat="31.159668766076337" lon="-7.1279873067358"><ele>1478.5</ele><time>2026-04-24T14:00:24.999Z</time></trkpt><trkpt lat="31.159533089665157" lon="-7.128074054939524"><ele>1482.0</ele><time>2026-04-24T14:00:25.999Z</time></trkpt><trkpt lat="31.159393099664815" lon="-7.128164319997363"><ele>1484.25</ele><time>2026-04-24T14:00:26.999Z</time></trkpt><trkpt lat="31.159259832162377" lon="-7.128259078688555"><ele>1486.5</ele><time>2026-04-24T14:00:27.999Z</time></trkpt><trkpt lat="31.15912977200285" lon="-7.128357706990037"><ele>1488.75</ele><time>2026-04-24T14:00:28.999Z</time></trkpt><trkpt lat="31.159021291316364" lon="-7.128452228682894"><ele>1491.0</ele><time>2026-04-24T14:00:29.999Z</time></trkpt><trkpt lat="31.15892108454978" lon="-7.128552114486086"><ele>1491.0</ele><time>2026-04-24T14:00:30.999Z</time></trkpt><trkpt lat="31.158847608977485" lon="-7.128646357054875"><ele>1491.0</ele><time>2026-04-24T14:00:32Z</time></trkpt><trkpt lat="31.158774854759745" lon="-7.128741002864337"><ele>1491.0</ele><time>2026-04-24T14:00:33Z</time></trkpt><trkpt lat="31.15873027598189" lon="-7.128830482660943"><ele>1491.0</ele><time>2026-04-24T14:00:34Z</time></trkpt><trkpt lat="31.15867988859407" lon="-7.128933282597501"><ele>1491.0</ele><time>2026-04-24T14:00:35Z</time></trkpt><trkpt lat="31.158637844924353" lon="-7.129028235183104"><ele>1486.1999999999998</ele><time>2026-04-24T14:00:36Z</time></trkpt><trkpt lat="31.158596359200477" lon="-7.129135607467294"><ele>1481.3999999999999</ele><time>2026-04-24T14:00:37Z</time></trkpt><trkpt lat="31.15855423076094" lon="-7.1292452368967165"><ele>1476.6</ele><time>2026-04-24T14:00:38Z</time></trkpt><trkpt lat="31.15850950825542" lon="-7.129360572262968"><ele>1471.8</ele><time>2026-04-24T14:00:39Z</time></trkpt><trkpt lat="31.15846432077615" lon="-7.1294841686580765"><ele>1467.0</ele><time>2026-04-24T14:00:40Z</time></trkpt><trkpt lat="31.158417237899787" lon="-7.129613817131516"><ele>1467.0</ele><time>2026-04-24T14:00:41Z</time></trkpt><trkpt lat="31.158368607219195" lon="-7.129749184301749"><ele>1467.0</ele><time>2026-04-24T14:00:42Z</time></trkpt><trkpt lat="31.15831750919906" lon="-7.129889087058049"><ele>1467.0</ele><time>2026-04-24T14:00:43Z</time></trkpt><trkpt lat="31.158264705022958" lon="-7.130031151065949"><ele>1467.0</ele><time>2026-04-24T14:00:44Z</time></trkpt><trkpt lat="31.158213375723793" lon="-7.130167295636217"><ele>1472.5</ele><time>2026-04-24T14:00:45Z</time></trkpt><trkpt lat="31.158158104894593" lon="-7.130302668275395"><ele>1478.0</ele><time>2026-04-24T14:00:46Z</time></trkpt><trkpt lat="31.15810079286575" lon="-7.130417861937291"><ele>1483.5</ele><time>2026-04-24T14:00:47Z</time></trkpt><trkpt lat="31.158045747638685" lon="-7.130528499472297"><ele>1489.0</ele><time>2026-04-24T14:00:48Z</time></trkpt><trkpt lat="31.157974724944882" lon="-7.130638610775821"><ele>1482.25</ele><time>2026-04-24T14:00:49Z</time></trkpt><trkpt lat="31.157905807602837" lon="-7.130748120586662"><ele>1475.5</ele><time>2026-04-24T14:00:50Z</time></trkpt><trkpt lat="31.157812447212912" lon="-7.130855004454824"><ele>1468.75</ele><time>2026-04-24T14:00:51Z</time></trkpt><trkpt lat="31.157705329645438" lon="-7.130957409466039"><ele>1462.0</ele><time>2026-04-24T14:00:52Z</time></trkpt><trkpt lat="31.157592230423923" lon="-7.131043638808682"><ele>1462.0</ele><time>2026-04-24T14:00:53Z</time></trkpt><trkpt lat="31.157454556352455" lon="-7.1311265360692335"><ele>1462.0</ele><time>2026-04-24T14:00:54Z</time></trkpt><trkpt lat="31.157319689673535" lon="-7.131199155262314"><ele>1462.0</ele><time>2026-04-24T14:00:55Z</time></trkpt><trkpt lat="31.157180463026798" lon="-7.131273348426488"><ele>1471.3333333333333</ele><time>2026-04-24T14:00:56Z</time></trkpt><trkpt lat="31.157036831953462" lon="-7.131349393650568"><ele>1480.6666666666667</ele><time>2026-04-24T14:00:57Z</time></trkpt><trkpt lat="31.156898184565" lon="-7.131424577505512"><ele>1490.0</ele><time>2026-04-24T14:00:58Z</time></trkpt><trkpt lat="31.156759572551024" lon="-7.1315146408782075"><ele>1484.0</ele><time>2026-04-24T14:00:59Z</time></trkpt><trkpt lat="31.156626069194612" lon="-7.131603885775253"><ele>1478.0</ele><time>2026-04-24T14:01:00Z</time></trkpt><trkpt lat="31.156498100101835" lon="-7.131697221949129"><ele>1472.0</ele><time>2026-04-24T14:01:01Z</time></trkpt><trkpt lat="31.156373542511073" lon="-7.131788321047438"><ele>1472.0</ele><time>2026-04-24T14:01:02Z</time></trkpt><trkpt lat="31.15625529287204" lon="-7.13187356927495"><ele>1472.0</ele><time>2026-04-24T14:01:03Z</time></trkpt><trkpt lat="31.156149305149423" lon="-7.131953145437095"><ele>1472.0</ele><time>2026-04-24T14:01:04Z</time></trkpt><trkpt lat="31.156051131570646" lon="-7.1320457941397235"><ele>1472.0</ele><time>2026-04-24T14:01:05Z</time></trkpt><trkpt lat="31.15594946819203" lon="-7.132152335592623"><ele>1472.0</ele><time>2026-04-24T14:01:06Z</time></trkpt><trkpt lat="31.15583537924058" lon="-7.132266931004587"><ele>1472.0</ele><time>2026-04-24T14:01:07Z</time></trkpt><trkpt lat="31.155715698606894" lon="-7.132357348586468"><ele>1472.0</ele><time>2026-04-24T14:01:08Z</time></trkpt><trkpt lat="31.155561815447083" lon="-7.132422654056379"><ele>1466.5</ele><time>2026-04-24T14:01:09Z</time></trkpt><trkpt lat="31.155427987887983" lon="-7.132473404050646"><ele>1461.0</ele><time>2026-04-24T14:01:10Z</time></trkpt><trkpt lat="31.155276692612816" lon="-7.132488423067847"><ele>1455.5</ele><time>2026-04-24T14:01:11Z</time></trkpt><trkpt lat="31.15514863348743" lon="-7.13247453398129"><ele>1450.0</ele><time>2026-04-24T14:01:12Z</time></trkpt><trkpt lat="31.155024618487612" lon="-7.1324109847367545"><ele>1450.8</ele><time>2026-04-24T14:01:13Z</time></trkpt><trkpt lat="31.15492738664698" lon="-7.132364755836481"><ele>1451.6</ele><time>2026-04-24T14:01:14Z</time></trkpt><trkpt lat="31.154832764519163" lon="-7.132348568084597"><ele>1452.4</ele><time>2026-04-24T14:01:15Z</time></trkpt><trkpt lat="31.154733330024378" lon="-7.132367090885407"><ele>1453.2</ele><time>2026-04-24T14:01:16Z</time></trkpt><trkpt lat="31.154652492701437" lon="-7.132437513029487"><ele>1454.0</ele><time>2026-04-24T14:01:17Z</time></trkpt><trkpt lat="31.154540395293026" lon="-7.13250743767325"><ele>1454.0</ele><time>2026-04-24T14:01:18Z</time></trkpt><trkpt lat="31.15441921533834" lon="-7.1325876166169"><ele>1454.0</ele><time>2026-04-24T14:01:19Z</time></trkpt><trkpt lat="31.15429604887638" lon="-7.132675033652705"><ele>1454.0</ele><time>2026-04-24T14:01:20Z</time></trkpt><trkpt lat="31.154165921220194" lon="-7.132768780457582"><ele>1454.0</ele><time>2026-04-24T14:01:21Z</time></trkpt><trkpt lat="31.15402941310825" lon="-7.13286700280916"><ele>1464.3333333333335</ele><time>2026-04-24T14:01:22Z</time></trkpt><trkpt lat="31.153886761037754" lon="-7.132970192248503"><ele>1474.6666666666667</ele><time>2026-04-24T14:01:23Z</time></trkpt><trkpt lat="31.153726868540907" lon="-7.133068216352277"><ele>1485.0</ele><time>2026-04-24T14:01:24Z</time></trkpt><trkpt lat="31.153568171049265" lon="-7.133165361736543"><ele>1480.0</ele><time>2026-04-24T14:01:25Z</time></trkpt><trkpt lat="31.15340973683077" lon="-7.133266934040251"><ele>1475.0</ele><time>2026-04-24T14:01:26Z</time></trkpt><trkpt lat="31.153250302675726" lon="-7.133370329307659"><ele>1470.0</ele><time>2026-04-24T14:01:27Z</time></trkpt><trkpt lat="31.153093860574067" lon="-7.133477479133742"><ele>1470.0</ele><time>2026-04-24T14:01:28Z</time></trkpt><trkpt lat="31.152939458273607" lon="-7.133589279301042"><ele>1470.0</ele><time>2026-04-24T14:01:29Z</time></trkpt><trkpt lat="31.15278248000544" lon="-7.133696183861511"><ele>1470.0</ele><time>2026-04-24T14:01:30Z</time></trkpt><trkpt lat="31.15264338043272" lon="-7.133793982365584"><ele>1470.0</ele><time>2026-04-24T14:01:31Z</time></trkpt><trkpt lat="31.152516582460922" lon="-7.133900183386665"><ele>1470.0</ele><time>2026-04-24T14:01:32Z</time></trkpt><trkpt lat="31.152398214274132" lon="-7.13400551911664"><ele>1470.0</ele><time>2026-04-24T14:01:33Z</time></trkpt><trkpt lat="31.152302854017055" lon="-7.134105007952734"><ele>1470.0</ele><time>2026-04-24T14:01:34Z</time></trkpt><trkpt lat="31.15220360887186" lon="-7.134203497534428"><ele>1470.75</ele><time>2026-04-24T14:01:35Z</time></trkpt><trkpt lat="31.152086801440202" lon="-7.134296830832271"><ele>1471.5</ele><time>2026-04-24T14:01:36Z</time></trkpt><trkpt lat="31.15196637061352" lon="-7.134387477881935"><ele>1472.25</ele><time>2026-04-24T14:01:37Z</time></trkpt><trkpt lat="31.151848498645688" lon="-7.134474366366165"><ele>1473.0</ele><time>2026-04-24T14:01:38Z</time></trkpt><trkpt lat="31.151731422179697" lon="-7.134563510418956"><ele>1473.0</ele><time>2026-04-24T14:01:39Z</time></trkpt><trkpt lat="31.15160936481536" lon="-7.134662286882847"><ele>1473.0</ele><time>2026-04-24T14:01:40Z</time></trkpt><trkpt lat="31.151484121217873" lon="-7.134757911131889"><ele>1473.0</ele><time>2026-04-24T14:01:41Z</time></trkpt><trkpt lat="31.151363809801445" lon="-7.134859929176663"><ele>1473.0</ele><time>2026-04-24T14:01:42Z</time></trkpt><trkpt lat="31.151247172869727" lon="-7.13495670888807"><ele>1468.4</ele><time>2026-04-24T14:01:43Z</time></trkpt><trkpt lat="31.151145917539097" lon="-7.13504541724418"><ele>1463.8000000000002</ele><time>2026-04-24T14:01:44Z</time></trkpt><trkpt lat="31.151059448716552" lon="-7.135128013014581"><ele>1459.2</ele><time>2026-04-24T14:01:45Z</time></trkpt><trkpt lat="31.150972035546864" lon="-7.135192689410973"><ele>1454.6</ele><time>2026-04-24T14:01:46Z</time></trkpt><trkpt lat="31.15088566050849" lon="-7.1352161895765525"><ele>1450.0</ele><time>2026-04-24T14:01:47Z</time></trkpt><trkpt lat="31.15079956157302" lon="-7.135159867079539"><ele>1450.0</ele><time>2026-04-24T14:01:48Z</time></trkpt><trkpt lat="31.15071905546463" lon="-7.135139219110548"><ele>1450.0</ele><time>2026-04-24T14:01:49Z</time></trkpt><trkpt lat="31.150638709656395" lon="-7.135100181118619"><ele>1450.0</ele><time>2026-04-24T14:01:50Z</time></trkpt><trkpt lat="31.150556611430414" lon="-7.135061364284056"><ele>1450.0</ele><time>2026-04-24T14:01:51Z</time></trkpt><trkpt lat="31.150478669249015" lon="-7.135024389866924"><ele>1450.0</ele><time>2026-04-24T14:01:52Z</time></trkpt><trkpt lat="31.150403802428233" lon="-7.134990377575338"><ele>1450.0</ele><time>2026-04-24T14:01:53Z</time></trkpt><trkpt lat="31.150325874472955" lon="-7.1349588212971"><ele>1451.0</ele><time>2026-04-24T14:01:54Z</time></trkpt><trkpt lat="31.150250038985522" lon="-7.13490835398855"><ele>1452.0</ele><time>2026-04-24T14:01:55Z</time></trkpt><trkpt lat="31.150169024468415" lon="-7.134873809457783"><ele>1453.0</ele><time>2026-04-24T14:01:56Z</time></trkpt><trkpt lat="31.1500955161322" lon="-7.13483706585673"><ele>1454.0</ele><time>2026-04-24T14:01:57Z</time></trkpt><trkpt lat="31.15003185711091" lon="-7.134793648243975"><ele>1455.0</ele><time>2026-04-24T14:01:58Z</time></trkpt><trkpt lat="31.149981989895693" lon="-7.13473567780517"><ele>1456.0</ele><time>2026-04-24T14:01:59Z</time></trkpt><trkpt lat="31.149949554464587" lon="-7.134659802918748"><ele>1456.0</ele><time>2026-04-24T14:02:00Z</time></trkpt><trkpt lat="31.149921028364083" lon="-7.134576265956544"><ele>1456.0</ele><time>2026-04-24T14:02:01Z</time></trkpt><trkpt lat="31.149901224288353" lon="-7.1344871554474265"><ele>1456.0</ele><time>2026-04-24T14:02:02Z</time></trkpt><trkpt lat="31.1498800935259" lon="-7.134396401667319"><ele>1456.0</ele><time>2026-04-24T14:02:03Z</time></trkpt><trkpt lat="31.14985421969795" lon="-7.134305614661932"><ele>1456.0</ele><time>2026-04-24T14:02:04Z</time></trkpt><trkpt lat="31.14982339256" lon="-7.134218013781727"><ele>1456.0</ele><time>2026-04-24T14:02:05Z</time></trkpt><trkpt lat="31.149775089781006" lon="-7.134147154433038"><ele>1453.3333333333333</ele><time>2026-04-24T14:02:06Z</time></trkpt><trkpt lat="31.149730422727718" lon="-7.134069274831279"><ele>1450.6666666666665</ele><time>2026-04-24T14:02:07Z</time></trkpt><trkpt lat="31.149681276361115" lon="-7.133989116051164"><ele>1448.0</ele><time>2026-04-24T14:02:08Z</time></trkpt><trkpt lat="31.14962898836817" lon="-7.133906129927772"><ele>1445.3333333333333</ele><time>2026-04-24T14:02:09Z</time></trkpt><trkpt lat="31.149571216830278" lon="-7.133827753693989"><ele>1442.6666666666667</ele><time>2026-04-24T14:02:10Z</time></trkpt><trkpt lat="31.149509767909034" lon="-7.133743728195673"><ele>1440.0</ele><time>2026-04-24T14:02:11Z</time></trkpt><trkpt lat="31.14946088721921" lon="-7.133647532389105"><ele>1440.0</ele><time>2026-04-24T14:02:12Z</time></trkpt><trkpt lat="31.149403889831472" lon="-7.133564320244039"><ele>1440.0</ele><time>2026-04-24T14:02:13Z</time></trkpt><trkpt lat="31.149365464678247" lon="-7.133475716908006"><ele>1440.0</ele><time>2026-04-24T14:02:14Z</time></trkpt><trkpt lat="31.149332110603407" lon="-7.133388634531843"><ele>1440.0</ele><time>2026-04-24T14:02:15Z</time></trkpt><trkpt lat="31.14929157782238" lon="-7.133310851628185"><ele>1440.0</ele><time>2026-04-24T14:02:16Z</time></trkpt><trkpt lat="31.14927780173534" lon="-7.133221487149484"><ele>1440.0</ele><time>2026-04-24T14:02:17Z</time></trkpt><trkpt lat="31.149313430407222" lon="-7.133128608363119"><ele>1441.2857142857142</ele><time>2026-04-24T14:02:18Z</time></trkpt><trkpt lat="31.149339248905918" lon="-7.1330404225953"><ele>1442.5714285714287</ele><time>2026-04-24T14:02:19Z</time></trkpt><trkpt lat="31.149360252655114" lon="-7.132950706371411"><ele>1443.857142857143</ele><time>2026-04-24T14:02:20Z</time></trkpt><trkpt lat="31.14935634389545" lon="-7.13286292689475"><ele>1445.142857142857</ele><time>2026-04-24T14:02:21Z</time></trkpt><trkpt lat="31.149296581803203" lon="-7.132810485951935"><ele>1446.4285714285716</ele><time>2026-04-24T14:02:22Z</time></trkpt><trkpt lat="31.14924125673058" lon="-7.132768839778371"><ele>1447.7142857142858</ele><time>2026-04-24T14:02:23Z</time></trkpt><trkpt lat="31.149185477154894" lon="-7.13271594633606"><ele>1449.0</ele><time>2026-04-24T14:02:24Z</time></trkpt><trkpt lat="31.14912919748995" lon="-7.132662578674633"><ele>1449.0</ele><time>2026-04-24T14:02:25Z</time></trkpt><trkpt lat="31.149069902953826" lon="-7.132606352066152"><ele>1449.0</ele><time>2026-04-24T14:02:25.999Z</time></trkpt><trkpt lat="31.149005593160577" lon="-7.1325233686380844"><ele>1449.0</ele><time>2026-04-24T14:02:26.999Z</time></trkpt><trkpt lat="31.14894554033982" lon="-7.132413936902199"><ele>1449.0</ele><time>2026-04-24T14:02:27.999Z</time></trkpt><trkpt lat="31.1489009682512" lon="-7.132269431196868"><ele>1449.0</ele><time>2026-04-24T14:02:28.999Z</time></trkpt><trkpt lat="31.14885939283017" lon="-7.132101963961736"><ele>1448.3333333333333</ele><time>2026-04-24T14:02:29.999Z</time></trkpt><trkpt lat="31.14883607033378" lon="-7.131913239832455"><ele>1447.6666666666665</ele><time>2026-04-24T14:02:30.999Z</time></trkpt><trkpt lat="31.14880178714178" lon="-7.131728027179371"><ele>1447.0</ele><time>2026-04-24T14:02:31.999Z</time></trkpt><trkpt lat="31.148777690316013" lon="-7.131550837637459"><ele>1447.0</ele><time>2026-04-24T14:02:32.999Z</time></trkpt><trkpt lat="31.14876671339962" lon="-7.131387063792113"><ele>1447.0</ele><time>2026-04-24T14:02:33.999Z</time></trkpt><trkpt lat="31.148756879028447" lon="-7.13124385915435"><ele>1447.0</ele><time>2026-04-24T14:02:34.999Z</time></trkpt><trkpt lat="31.148718177046714" lon="-7.131130984517201"><ele>1447.0</ele><time>2026-04-24T14:02:35.999Z</time></trkpt><trkpt lat="31.14866339389953" lon="-7.131057092113353"><ele>1447.0</ele><time>2026-04-24T14:02:36.999Z</time></trkpt><trkpt lat="31.14859862271297" lon="-7.130997865038115"><ele>1447.0</ele><time>2026-04-24T14:02:38Z</time></trkpt><trkpt lat="31.148467324498363" lon="-7.13099376486322"><ele>1447.0</ele><time>2026-04-24T14:02:40Z</time></trkpt><trkpt lat="31.148395899243177" lon="-7.1310349179450885"><ele>1447.0</ele><time>2026-04-24T14:02:42Z</time></trkpt><trkpt lat="31.148366088113328" lon="-7.131117371834716"><ele>1447.0</ele><time>2026-04-24T14:02:43Z</time></trkpt><trkpt lat="31.14833310355684" lon="-7.131208704523594"><ele>1447.0</ele><time>2026-04-24T14:02:44Z</time></trkpt><trkpt lat="31.148297625189155" lon="-7.131308424746405"><ele>1447.0</ele><time>2026-04-24T14:02:45Z</time></trkpt><trkpt lat="31.1482640807554" lon="-7.131417459674717"><ele>1447.0</ele><time>2026-04-24T14:02:46Z</time></trkpt><trkpt lat="31.148233914689474" lon="-7.13152396292706"><ele>1447.0</ele><time>2026-04-24T14:02:47Z</time></trkpt><trkpt lat="31.14822231658163" lon="-7.131631956194049"><ele>1447.0</ele><time>2026-04-24T14:02:48Z</time></trkpt><trkpt lat="31.1482383959501" lon="-7.131736431014346"><ele>1446.3999999999999</ele><time>2026-04-24T14:02:49Z</time></trkpt><trkpt lat="31.14826621342635" lon="-7.131841234785506"><ele>1445.8</ele><time>2026-04-24T14:02:50Z</time></trkpt><trkpt lat="31.148284156494416" lon="-7.131965430079252"><ele>1445.2</ele><time>2026-04-24T14:02:51Z</time></trkpt><trkpt lat="31.148270792532287" lon="-7.132092384599604"><ele>1444.6</ele><time>2026-04-24T14:02:52Z</time></trkpt><trkpt lat="31.148227645450852" lon="-7.132220718596018"><ele>1444.0</ele><time>2026-04-24T14:02:53Z</time></trkpt><trkpt lat="31.14817321547919" lon="-7.132341623359493"><ele>1454.5</ele><time>2026-04-24T14:02:54Z</time></trkpt><trkpt lat="31.148127426895446" lon="-7.132464019574615"><ele>1465.0</ele><time>2026-04-24T14:02:55Z</time></trkpt><trkpt lat="31.14810580210982" lon="-7.132599562014378"><ele>1475.5</ele><time>2026-04-24T14:02:56Z</time></trkpt><trkpt lat="31.148102910344683" lon="-7.132764942878128"><ele>1486.0</ele><time>2026-04-24T14:02:57Z</time></trkpt><trkpt lat="31.148133045096912" lon="-7.132933438871427"><ele>1486.0</ele><time>2026-04-24T14:02:58Z</time></trkpt><trkpt lat="31.148178874221923" lon="-7.133091127663554"><ele>1486.0</ele><time>2026-04-24T14:02:59Z</time></trkpt><trkpt lat="31.14820912208042" lon="-7.133249350150556"><ele>1486.0</ele><time>2026-04-24T14:03:00Z</time></trkpt><trkpt lat="31.1482399004854" lon="-7.1334238831884145"><ele>1486.0</ele><time>2026-04-24T14:03:01Z</time></trkpt><trkpt lat="31.148273809933176" lon="-7.1336033366788945"><ele>1474.0</ele><time>2026-04-24T14:03:02Z</time></trkpt><trkpt lat="31.148331109270856" lon="-7.133784480290593"><ele>1462.0</ele><time>2026-04-24T14:03:03Z</time></trkpt><trkpt lat="31.14839372416649" lon="-7.133961263025692"><ele>1450.0</ele><time>2026-04-24T14:03:04Z</time></trkpt><trkpt lat="31.1484578137425" lon="-7.13413026321705"><ele>1450.0</ele><time>2026-04-24T14:03:05Z</time></trkpt><trkpt lat="31.148521627990704" lon="-7.134282786720576"><ele>1450.0</ele><time>2026-04-24T14:03:06Z</time></trkpt><trkpt lat="31.148578291043826" lon="-7.1344176127952865"><ele>1450.0</ele><time>2026-04-24T14:03:07Z</time></trkpt><trkpt lat="31.148623267106252" lon="-7.134541602668654"><ele>1450.0</ele><time>2026-04-24T14:03:08Z</time></trkpt><trkpt lat="31.1486331204959" lon="-7.134672401058916"><ele>1450.0</ele><time>2026-04-24T14:03:09Z</time></trkpt><trkpt lat="31.14865049808509" lon="-7.134801537507994"><ele>1450.0</ele><time>2026-04-24T14:03:10Z</time></trkpt><trkpt lat="31.148633028957928" lon="-7.134939974500007"><ele>1450.0</ele><time>2026-04-24T14:03:11Z</time></trkpt><trkpt lat="31.148604178992354" lon="-7.135081623780308"><ele>1450.0</ele><time>2026-04-24T14:03:12Z</time></trkpt><trkpt lat="31.14857007532371" lon="-7.13522825766684"><ele>1449.25</ele><time>2026-04-24T14:03:13Z</time></trkpt><trkpt lat="31.14853546924837" lon="-7.1353801357998385"><ele>1448.5</ele><time>2026-04-24T14:03:14Z</time></trkpt><trkpt lat="31.148500466392335" lon="-7.135534255256642"><ele>1447.75</ele><time>2026-04-24T14:03:15Z</time></trkpt><trkpt lat="31.148467173012342" lon="-7.135681686180715"><ele>1447.0</ele><time>2026-04-24T14:03:16Z</time></trkpt><trkpt lat="31.14843760303705" lon="-7.1358118585316985"><ele>1446.0</ele><time>2026-04-24T14:03:17Z</time></trkpt><trkpt lat="31.148410966236032" lon="-7.135935470343425"><ele>1445.0</ele><time>2026-04-24T14:03:18Z</time></trkpt><trkpt lat="31.148373347984286" lon="-7.136039115758932"><ele>1444.0</ele><time>2026-04-24T14:03:19Z</time></trkpt><trkpt lat="31.148322217718302" lon="-7.13615954685827"><ele>1443.0</ele><time>2026-04-24T14:03:20Z</time></trkpt><trkpt lat="31.14826045323845" lon="-7.136276943853396"><ele>1442.0</ele><time>2026-04-24T14:03:21Z</time></trkpt><trkpt lat="31.148197673165274" lon="-7.136398844524811"><ele>1451.25</ele><time>2026-04-24T14:03:22Z</time></trkpt><trkpt lat="31.148134396729127" lon="-7.136541191941097"><ele>1460.5</ele><time>2026-04-24T14:03:23Z</time></trkpt><trkpt lat="31.148066892188485" lon="-7.136691588986416"><ele>1469.75</ele><time>2026-04-24T14:03:24Z</time></trkpt><trkpt lat="31.14800983089382" lon="-7.136848060374025"><ele>1479.0</ele><time>2026-04-24T14:03:25Z</time></trkpt><trkpt lat="31.14795143142618" lon="-7.137017689434703"><ele>1479.0</ele><time>2026-04-24T14:03:26Z</time></trkpt><trkpt lat="31.14790624890268" lon="-7.137184433599634"><ele>1479.0</ele><time>2026-04-24T14:03:27Z</time></trkpt><trkpt lat="31.147860606750957" lon="-7.137360812672104"><ele>1479.0</ele><time>2026-04-24T14:03:28Z</time></trkpt><trkpt lat="31.147819418050595" lon="-7.137533345414603"><ele>1474.75</ele><time>2026-04-24T14:03:29Z</time></trkpt><trkpt lat="31.147789013758224" lon="-7.137711430043706"><ele>1470.5</ele><time>2026-04-24T14:03:30Z</time></trkpt><trkpt lat="31.147762015669496" lon="-7.1378765485604365"><ele>1466.25</ele><time>2026-04-24T14:03:31Z</time></trkpt><trkpt lat="31.14774851770509" lon="-7.138048146981183"><ele>1462.0</ele><time>2026-04-24T14:03:32Z</time></trkpt><trkpt lat="31.147743837189612" lon="-7.13821844962163"><ele>1459.0</ele><time>2026-04-24T14:03:33Z</time></trkpt><trkpt lat="31.147748293712986" lon="-7.1383932227639555"><ele>1456.0</ele><time>2026-04-24T14:03:34Z</time></trkpt><trkpt lat="31.147754991035292" lon="-7.138558594474991"><ele>1453.0</ele><time>2026-04-24T14:03:35Z</time></trkpt><trkpt lat="31.147764848653967" lon="-7.138718301115293"><ele>1450.0</ele><time>2026-04-24T14:03:36Z</time></trkpt><trkpt lat="31.1477738727294" lon="-7.138870361667537"><ele>1450.0</ele><time>2026-04-24T14:03:37Z</time></trkpt><trkpt lat="31.14778244129468" lon="-7.139015282208325"><ele>1450.0</ele><time>2026-04-24T14:03:38Z</time></trkpt><trkpt lat="31.14777819960968" lon="-7.139157458534133"><ele>1450.0</ele><time>2026-04-24T14:03:39Z</time></trkpt><trkpt lat="31.14776916213498" lon="-7.139291153145359"><ele>1450.0</ele><time>2026-04-24T14:03:40Z</time></trkpt><trkpt lat="31.147756588005123" lon="-7.139411432540794"><ele>1448.6666666666665</ele><time>2026-04-24T14:03:41Z</time></trkpt><trkpt lat="31.14773939565699" lon="-7.139518586602553"><ele>1447.3333333333333</ele><time>2026-04-24T14:03:42Z</time></trkpt><trkpt lat="31.14772200204211" lon="-7.139613938530765"><ele>1446.0</ele><time>2026-04-24T14:03:43Z</time></trkpt><trkpt lat="31.147707341901768" lon="-7.139708828505249"><ele>1444.6666666666667</ele><time>2026-04-24T14:03:44Z</time></trkpt><trkpt lat="31.147684087176547" lon="-7.13979022020189"><ele>1443.3333333333335</ele><time>2026-04-24T14:03:45Z</time></trkpt><trkpt lat="31.147664182100943" lon="-7.139896805996943"><ele>1442.0</ele><time>2026-04-24T14:03:46Z</time></trkpt><trkpt lat="31.14762873050761" lon="-7.139970444902989"><ele>1440.6666666666667</ele><time>2026-04-24T14:03:47Z</time></trkpt><trkpt lat="31.147594832000433" lon="-7.140038355684734"><ele>1439.3333333333335</ele><time>2026-04-24T14:03:48Z</time></trkpt><trkpt lat="31.147544486416447" lon="-7.140126805493906"><ele>1438.0</ele><time>2026-04-24T14:03:49Z</time></trkpt><trkpt lat="31.147466170227254" lon="-7.140226347233786"><ele>1436.6666666666667</ele><time>2026-04-24T14:03:51Z</time></trkpt><trkpt lat="31.1474025790425" lon="-7.140280015396027"><ele>1435.3333333333333</ele><time>2026-04-24T14:03:52Z</time></trkpt><trkpt lat="31.147328248415867" lon="-7.140341197755232"><ele>1434.0</ele><time>2026-04-24T14:03:54Z</time></trkpt><trkpt lat="31.147262287775828" lon="-7.1403951324132295"><ele>1434.0</ele><time>2026-04-24T14:03:56Z</time></trkpt><trkpt lat="31.147185826024096" lon="-7.14045744802864"><ele>1434.0</ele><time>2026-04-24T14:03:59Z</time></trkpt><trkpt lat="31.147115622436257" lon="-7.140515690221044"><ele>1434.0</ele><time>2026-04-24T14:04:01Z</time></trkpt><trkpt lat="31.14700450784946" lon="-7.140608838750587"><ele>1434.0</ele><time>2026-04-24T14:04:03Z</time></trkpt><trkpt lat="31.146929814689553" lon="-7.140670973913753"><ele>1434.0</ele><time>2026-04-24T14:04:04Z</time></trkpt><trkpt lat="31.146851315514205" lon="-7.140736577508048"><ele>1431.8333333333333</ele><time>2026-04-24T14:04:05Z</time></trkpt><trkpt lat="31.146779581053814" lon="-7.140796527486519"><ele>1429.6666666666667</ele><time>2026-04-24T14:04:06Z</time></trkpt><trkpt lat="31.146713029634626" lon="-7.140852146371846"><ele>1427.5</ele><time>2026-04-24T14:04:07Z</time></trkpt><trkpt lat="31.14660914170501" lon="-7.1408986645961505"><ele>1425.3333333333335</ele><time>2026-04-24T14:04:08Z</time></trkpt><trkpt lat="31.146528905377263" lon="-7.140927912852434"><ele>1423.1666666666667</ele><time>2026-04-24T14:04:09Z</time></trkpt><trkpt lat="31.146467633761592" lon="-7.140952804655976"><ele>1421.0</ele><time>2026-04-24T14:04:10Z</time></trkpt><trkpt lat="31.14638248532682" lon="-7.14095567118391"><ele>1419.5</ele><time>2026-04-24T14:04:11Z</time></trkpt><trkpt lat="31.146263434277962" lon="-7.140983830816846"><ele>1418.0</ele><time>2026-04-24T14:04:13Z</time></trkpt><trkpt lat="31.146201206568346" lon="-7.141005987689086"><ele>1416.5</ele><time>2026-04-24T14:04:14Z</time></trkpt><trkpt lat="31.14613619758756" lon="-7.1410291334122915"><ele>1415.0</ele><time>2026-04-24T14:04:15Z</time></trkpt><trkpt lat="31.146062543198664" lon="-7.141055356174039"><ele>1413.5</ele><time>2026-04-24T14:04:16Z</time></trkpt><trkpt lat="31.14597868102621" lon="-7.141089450456741"><ele>1412.0</ele><time>2026-04-24T14:04:17Z</time></trkpt><trkpt lat="31.145880688620988" lon="-7.141133410375111"><ele>1412.0</ele><time>2026-04-24T14:04:18Z</time></trkpt><trkpt lat="31.145773459264873" lon="-7.141182623076865"><ele>1412.0</ele><time>2026-04-24T14:04:19Z</time></trkpt><trkpt lat="31.14566126234045" lon="-7.141223103271011"><ele>1412.0</ele><time>2026-04-24T14:04:20Z</time></trkpt><trkpt lat="31.145564492301805" lon="-7.141301611086045"><ele>1412.0</ele><time>2026-04-24T14:04:21Z</time></trkpt><trkpt lat="31.14545741784517" lon="-7.141343564674949"><ele>1411.3999999999999</ele><time>2026-04-24T14:04:22Z</time></trkpt><trkpt lat="31.14536688011053" lon="-7.1414194307309575"><ele>1410.8</ele><time>2026-04-24T14:04:23Z</time></trkpt><trkpt lat="31.145270506689148" lon="-7.141475684879844"><ele>1410.2</ele><time>2026-04-24T14:04:24Z</time></trkpt><trkpt lat="31.14517446713716" lon="-7.141520939707118"><ele>1409.6</ele><time>2026-04-24T14:04:25Z</time></trkpt><trkpt lat="31.145073525482953" lon="-7.141547096366688"><ele>1409.0</ele><time>2026-04-24T14:04:26Z</time></trkpt><trkpt lat="31.144977254255696" lon="-7.141529267886823"><ele>1409.0</ele><time>2026-04-24T14:04:27Z</time></trkpt><trkpt lat="31.14488630223989" lon="-7.141489034453072"><ele>1409.0</ele><time>2026-04-24T14:04:28Z</time></trkpt><trkpt lat="31.144796717328834" lon="-7.1414357931021"><ele>1409.0</ele><time>2026-04-24T14:04:29Z</time></trkpt><trkpt lat="31.144707102122936" lon="-7.14138411207703"><ele>1409.0</ele><time>2026-04-24T14:04:30Z</time></trkpt><trkpt lat="31.14461043023545" lon="-7.141344192741399"><ele>1409.0</ele><time>2026-04-24T14:04:31Z</time></trkpt><trkpt lat="31.14450531587838" lon="-7.141319529987435"><ele>1410.0</ele><time>2026-04-24T14:04:32Z</time></trkpt><trkpt lat="31.144380363933422" lon="-7.141317388701437"><ele>1411.0</ele><time>2026-04-24T14:04:33Z</time></trkpt><trkpt lat="31.14425273538703" lon="-7.141295093629835"><ele>1412.0</ele><time>2026-04-24T14:04:34Z</time></trkpt><trkpt lat="31.144123368399597" lon="-7.141272309438202"><ele>1413.0</ele><time>2026-04-24T14:04:35Z</time></trkpt><trkpt lat="31.143988509873786" lon="-7.141236703678481"><ele>1415.0</ele><time>2026-04-24T14:04:36Z</time></trkpt><trkpt lat="31.14385793489938" lon="-7.141199567230528"><ele>1417.0</ele><time>2026-04-24T14:04:37Z</time></trkpt><trkpt lat="31.143719747005406" lon="-7.141143429028231"><ele>1419.0</ele><time>2026-04-24T14:04:38Z</time></trkpt><trkpt lat="31.143591906201877" lon="-7.141023607473428"><ele>1421.0</ele><time>2026-04-24T14:04:39Z</time></trkpt><trkpt lat="31.143473012723184" lon="-7.1409164430849605"><ele>1421.0</ele><time>2026-04-24T14:04:40Z</time></trkpt><trkpt lat="31.14335212676536" lon="-7.140807330313588"><ele>1421.0</ele><time>2026-04-24T14:04:41Z</time></trkpt><trkpt lat="31.14322318108127" lon="-7.140710881201875"><ele>1421.0</ele><time>2026-04-24T14:04:42Z</time></trkpt><trkpt lat="31.143084734948673" lon="-7.140637880639219"><ele>1419.3333333333335</ele><time>2026-04-24T14:04:42.999Z</time></trkpt><trkpt lat="31.14293822827629" lon="-7.14056317916408"><ele>1417.6666666666667</ele><time>2026-04-24T14:04:44Z</time></trkpt><trkpt lat="31.142788363371768" lon="-7.140477627011187"><ele>1416.0</ele><time>2026-04-24T14:04:45Z</time></trkpt><trkpt lat="31.1426524958473" lon="-7.140380402211993"><ele>1416.0</ele><time>2026-04-24T14:04:46Z</time></trkpt><trkpt lat="31.142515260005027" lon="-7.140283076050445"><ele>1416.0</ele><time>2026-04-24T14:04:47Z</time></trkpt><trkpt lat="31.14237687162661" lon="-7.140171370178842"><ele>1416.0</ele><time>2026-04-24T14:04:48Z</time></trkpt><trkpt lat="31.142245065735487" lon="-7.140059109603626"><ele>1415.6666666666667</ele><time>2026-04-24T14:04:49Z</time></trkpt><trkpt lat="31.14212032814968" lon="-7.139928917534444"><ele>1415.3333333333335</ele><time>2026-04-24T14:04:50Z</time></trkpt><trkpt lat="31.1420011474594" lon="-7.139805852643119"><ele>1415.0</ele><time>2026-04-24T14:04:51Z</time></trkpt><trkpt lat="31.14188442652567" lon="-7.139685874649374"><ele>1415.0</ele><time>2026-04-24T14:04:52Z</time></trkpt><trkpt lat="31.14177329621485" lon="-7.139549781163705"><ele>1415.0</ele><time>2026-04-24T14:04:53Z</time></trkpt><trkpt lat="31.14167251714112" lon="-7.139407781089172"><ele>1415.0</ele><time>2026-04-24T14:04:54Z</time></trkpt><trkpt lat="31.141577508515617" lon="-7.1392579348744185"><ele>1423.0</ele><time>2026-04-24T14:04:55Z</time></trkpt><trkpt lat="31.14148877542106" lon="-7.139102021319006"><ele>1431.0</ele><time>2026-04-24T14:04:56Z</time></trkpt><trkpt lat="31.141406043237453" lon="-7.138940823684187"><ele>1439.0</ele><time>2026-04-24T14:04:57Z</time></trkpt><trkpt lat="31.141329986549948" lon="-7.1387698147563965"><ele>1439.0</ele><time>2026-04-24T14:04:58Z</time></trkpt><trkpt lat="31.141268550152162" lon="-7.138599098215676"><ele>1439.0</ele><time>2026-04-24T14:04:59Z</time></trkpt><trkpt lat="31.14120925393729" lon="-7.13843336676859"><ele>1439.0</ele><time>2026-04-24T14:05:00Z</time></trkpt><trkpt lat="31.141150113075188" lon="-7.138266804939272"><ele>1437.6666666666667</ele><time>2026-04-24T14:05:01Z</time></trkpt><trkpt lat="31.14112366078643" lon="-7.138086839135547"><ele>1436.3333333333333</ele><time>2026-04-24T14:05:02Z</time></trkpt><trkpt lat="31.141099923890497" lon="-7.137908846860836"><ele>1435.0</ele><time>2026-04-24T14:05:03Z</time></trkpt><trkpt lat="31.141097815073955" lon="-7.137724808311319"><ele>1435.0</ele><time>2026-04-24T14:05:04Z</time></trkpt><trkpt lat="31.141117794692686" lon="-7.137537217752841"><ele>1435.0</ele><time>2026-04-24T14:05:05Z</time></trkpt><trkpt lat="31.14115517912843" lon="-7.13734760254331"><ele>1435.0</ele><time>2026-04-24T14:05:06Z</time></trkpt><trkpt lat="31.141208001673196" lon="-7.137157852258485"><ele>1439.3333333333333</ele><time>2026-04-24T14:05:07Z</time></trkpt><trkpt lat="31.141274302745234" lon="-7.136971726400672"><ele>1443.6666666666667</ele><time>2026-04-24T14:05:08Z</time></trkpt><trkpt lat="31.141346692898335" lon="-7.136792059272774"><ele>1448.0</ele><time>2026-04-24T14:05:09Z</time></trkpt><trkpt lat="31.14141672394408" lon="-7.136612970837756"><ele>1451.0</ele><time>2026-04-24T14:05:10Z</time></trkpt><trkpt lat="31.1414762326075" lon="-7.136429168835214"><ele>1454.0</ele><time>2026-04-24T14:05:11Z</time></trkpt><trkpt lat="31.141516072531754" lon="-7.136245707273731"><ele>1457.0</ele><time>2026-04-24T14:05:12Z</time></trkpt><trkpt lat="31.14153315090194" lon="-7.13606735136759"><ele>1457.0</ele><time>2026-04-24T14:05:13Z</time></trkpt><trkpt lat="31.141534718366888" lon="-7.135891003486613"><ele>1457.0</ele><time>2026-04-24T14:05:14Z</time></trkpt><trkpt lat="31.14152368454159" lon="-7.135716164343266"><ele>1457.0</ele><time>2026-04-24T14:05:15Z</time></trkpt><trkpt lat="31.141501831828847" lon="-7.135542958907479"><ele>1454.75</ele><time>2026-04-24T14:05:16Z</time></trkpt><trkpt lat="31.141470456692794" lon="-7.1353775532072"><ele>1452.5</ele><time>2026-04-24T14:05:17Z</time></trkpt><trkpt lat="31.14143768128389" lon="-7.135223053785668"><ele>1450.25</ele><time>2026-04-24T14:05:18Z</time></trkpt><trkpt lat="31.14139472308289" lon="-7.135075378045241"><ele>1448.0</ele><time>2026-04-24T14:05:18.999Z</time></trkpt><trkpt lat="31.141362855640956" lon="-7.134927330196117"><ele>1447.25</ele><time>2026-04-24T14:05:19.999Z</time></trkpt><trkpt lat="31.1413547020268" lon="-7.134768717839265"><ele>1446.5</ele><time>2026-04-24T14:05:20.999Z</time></trkpt><trkpt lat="31.14136932152479" lon="-7.134601108947257"><ele>1445.75</ele><time>2026-04-24T14:05:21.999Z</time></trkpt><trkpt lat="31.141399645565674" lon="-7.134429337727607"><ele>1445.0</ele><time>2026-04-24T14:05:22.999Z</time></trkpt><trkpt lat="31.141443853473945" lon="-7.134256449549038"><ele>1445.0</ele><time>2026-04-24T14:05:23.999Z</time></trkpt><trkpt lat="31.141496761444365" lon="-7.134084431491098"><ele>1445.0</ele><time>2026-04-24T14:05:24.999Z</time></trkpt><trkpt lat="31.141544165754006" lon="-7.133917238807872"><ele>1445.0</ele><time>2026-04-24T14:05:25.999Z</time></trkpt><trkpt lat="31.14157519470959" lon="-7.133753635792452"><ele>1442.75</ele><time>2026-04-24T14:05:26.999Z</time></trkpt><trkpt lat="31.14158141804589" lon="-7.133586232839907"><ele>1440.5</ele><time>2026-04-24T14:05:27.999Z</time></trkpt><trkpt lat="31.141562092028302" lon="-7.133426668877023"><ele>1438.25</ele><time>2026-04-24T14:05:28.999Z</time></trkpt><trkpt lat="31.141539769197326" lon="-7.1332609824684985"><ele>1436.0</ele><time>2026-04-24T14:05:29.999Z</time></trkpt><trkpt lat="31.141501277340712" lon="-7.133096175668239"><ele>1435.25</ele><time>2026-04-24T14:05:30.999Z</time></trkpt><trkpt lat="31.141492684901635" lon="-7.132934322562472"><ele>1434.5</ele><time>2026-04-24T14:05:31.999Z</time></trkpt><trkpt lat="31.141512845363017" lon="-7.1327969042014026"><ele>1433.75</ele><time>2026-04-24T14:05:32.999Z</time></trkpt><trkpt lat="31.141543021289113" lon="-7.132676578311885"><ele>1433.0</ele><time>2026-04-24T14:05:33.999Z</time></trkpt><trkpt lat="31.1415668247129" lon="-7.132549948517897"><ele>1430.5</ele><time>2026-04-24T14:05:34.999Z</time></trkpt><trkpt lat="31.141571211081118" lon="-7.132408564271342"><ele>1428.0</ele><time>2026-04-24T14:05:35.999Z</time></trkpt><trkpt lat="31.14155111876264" lon="-7.132261802186696"><ele>1425.5</ele><time>2026-04-24T14:05:36.999Z</time></trkpt><trkpt lat="31.1415047334733" lon="-7.1321172021477715"><ele>1423.0</ele><time>2026-04-24T14:05:37.999Z</time></trkpt><trkpt lat="31.14141680925635" lon="-7.131990991935476"><ele>1423.0</ele><time>2026-04-24T14:05:38.999Z</time></trkpt><trkpt lat="31.141329747220926" lon="-7.131860472644864"><ele>1423.0</ele><time>2026-04-24T14:05:39.999Z</time></trkpt><trkpt lat="31.141251071161854" lon="-7.131716269533064"><ele>1423.0</ele><time>2026-04-24T14:05:40.999Z</time></trkpt><trkpt lat="31.141207134771953" lon="-7.131553883760566"><ele>1423.0</ele><time>2026-04-24T14:05:41.999Z</time></trkpt><trkpt lat="31.141166819469365" lon="-7.131396781453279"><ele>1421.25</ele><time>2026-04-24T14:05:42.999Z</time></trkpt><trkpt lat="31.141129347734633" lon="-7.131250882833048"><ele>1419.5</ele><time>2026-04-24T14:05:43.999Z</time></trkpt><trkpt lat="31.141078088851703" lon="-7.131124165665757"><ele>1417.75</ele><time>2026-04-24T14:05:44.999Z</time></trkpt><trkpt lat="31.141011178946936" lon="-7.131021847261123"><ele>1416.0</ele><time>2026-04-24T14:05:45.999Z</time></trkpt><trkpt lat="31.14092607329498" lon="-7.13093904581548"><ele>1416.0</ele><time>2026-04-24T14:05:46.999Z</time></trkpt><trkpt lat="31.14082353560427" lon="-7.130865326629894"><ele>1416.0</ele><time>2026-04-24T14:05:47.999Z</time></trkpt><trkpt lat="31.14071341844831" lon="-7.130791767202675"><ele>1416.0</ele><time>2026-04-24T14:05:48.999Z</time></trkpt><trkpt lat="31.140592134850888" lon="-7.130739626741571"><ele>1416.0</ele><time>2026-04-24T14:05:49.999Z</time></trkpt><trkpt lat="31.140478604123885" lon="-7.13068789449849"><ele>1417.6666666666667</ele><time>2026-04-24T14:05:50.999Z</time></trkpt><trkpt lat="31.140387480163565" lon="-7.130641775688172"><ele>1419.3333333333333</ele><time>2026-04-24T14:05:51.999Z</time></trkpt><trkpt lat="31.140307547517512" lon="-7.130666516271255"><ele>1421.0</ele><time>2026-04-24T14:05:52.999Z</time></trkpt><trkpt lat="31.140244988737" lon="-7.1306961609573944"><ele>1422.6666666666665</ele><time>2026-04-24T14:05:53.999Z</time></trkpt><trkpt lat="31.1401660076778" lon="-7.130753790142407"><ele>1424.3333333333333</ele><time>2026-04-24T14:05:54.999Z</time></trkpt><trkpt lat="31.140094201178044" lon="-7.130820282619242"><ele>1426.0</ele><time>2026-04-24T14:05:55.999Z</time></trkpt><trkpt lat="31.140011279803797" lon="-7.130899885691535"><ele>1426.4</ele><time>2026-04-24T14:05:56.999Z</time></trkpt><trkpt lat="31.139931483284094" lon="-7.130952353751253"><ele>1426.8</ele><time>2026-04-24T14:05:57.999Z</time></trkpt><trkpt lat="31.139825984227738" lon="-7.130986607814804"><ele>1427.2</ele><time>2026-04-24T14:05:58.999Z</time></trkpt><trkpt lat="31.139725198653245" lon="-7.130979182829165"><ele>1427.6000000000001</ele><time>2026-04-24T14:05:59.999Z</time></trkpt><trkpt lat="31.139626568616734" lon="-7.130938967243335"><ele>1428.0</ele><time>2026-04-24T14:06:00.999Z</time></trkpt><trkpt lat="31.139539730468137" lon="-7.130867210055523"><ele>1427.75</ele><time>2026-04-24T14:06:01.999Z</time></trkpt><trkpt lat="31.13945715523278" lon="-7.130771789979606"><ele>1427.5</ele><time>2026-04-24T14:06:02.999Z</time></trkpt><trkpt lat="31.139379578724167" lon="-7.130673670184433"><ele>1427.25</ele><time>2026-04-24T14:06:03.999Z</time></trkpt><trkpt lat="31.13930047650312" lon="-7.1305639153221545"><ele>1427.0</ele><time>2026-04-24T14:06:04.999Z</time></trkpt><trkpt lat="31.139224282998008" lon="-7.130454439857524"><ele>1427.0</ele><time>2026-04-24T14:06:05.999Z</time></trkpt><trkpt lat="31.13915037480058" lon="-7.130347624607883"><ele>1427.0</ele><time>2026-04-24T14:06:06.999Z</time></trkpt><trkpt lat="31.13907952503766" lon="-7.1302508167114516"><ele>1427.0</ele><time>2026-04-24T14:06:07.999Z</time></trkpt><trkpt lat="31.139023188062662" lon="-7.130161800744385"><ele>1427.0</ele><time>2026-04-24T14:06:08.999Z</time></trkpt><trkpt lat="31.13894800170228" lon="-7.130117552045612"><ele>1427.0</ele><time>2026-04-24T14:06:09.999Z</time></trkpt><trkpt lat="31.138862939266524" lon="-7.130109369428222"><ele>1429.8</ele><time>2026-04-24T14:06:10.999Z</time></trkpt><trkpt lat="31.13877341341686" lon="-7.130127557458104"><ele>1432.6</ele><time>2026-04-24T14:06:11.999Z</time></trkpt><trkpt lat="31.138682975221904" lon="-7.1301817924299735"><ele>1435.3999999999999</ele><time>2026-04-24T14:06:12.999Z</time></trkpt><trkpt lat="31.13856918398133" lon="-7.130198399683499"><ele>1438.1999999999998</ele><time>2026-04-24T14:06:13.999Z</time></trkpt><trkpt lat="31.13844451778512" lon="-7.130176135931792"><ele>1441.0</ele><time>2026-04-24T14:06:14.999Z</time></trkpt><trkpt lat="31.13832874575323" lon="-7.130115947280528"><ele>1438.25</ele><time>2026-04-24T14:06:15.999Z</time></trkpt><trkpt lat="31.138206467197787" lon="-7.130032976177994"><ele>1435.5</ele><time>2026-04-24T14:06:16.999Z</time></trkpt><trkpt lat="31.13808598726873" lon="-7.129939969464279"><ele>1432.75</ele><time>2026-04-24T14:06:17.999Z</time></trkpt><trkpt lat="31.137961628370277" lon="-7.129827771178506"><ele>1430.0</ele><time>2026-04-24T14:06:18.999Z</time></trkpt><trkpt lat="31.13784655722729" lon="-7.129691190967304"><ele>1430.0</ele><time>2026-04-24T14:06:19.999Z</time></trkpt><trkpt lat="31.137716969801353" lon="-7.129563190115502"><ele>1430.0</ele><time>2026-04-24T14:06:20.999Z</time></trkpt><trkpt lat="31.13758764737641" lon="-7.129427162046644"><ele>1430.0</ele><time>2026-04-24T14:06:21.999Z</time></trkpt><trkpt lat="31.13746425284941" lon="-7.129268929244251"><ele>1433.3333333333335</ele><time>2026-04-24T14:06:22.999Z</time></trkpt><trkpt lat="31.137346678250548" lon="-7.129104217568308"><ele>1436.6666666666667</ele><time>2026-04-24T14:06:23.999Z</time></trkpt><trkpt lat="31.137214587059518" lon="-7.128954603492735"><ele>1440.0</ele><time>2026-04-24T14:06:24.999Z</time></trkpt><trkpt lat="31.137100147690514" lon="-7.12879123625564"><ele>1440.0</ele><time>2026-04-24T14:06:25.999Z</time></trkpt><trkpt lat="31.136986977461618" lon="-7.128628860629396"><ele>1440.0</ele><time>2026-04-24T14:06:26.999Z</time></trkpt><trkpt lat="31.136877069602743" lon="-7.128464355842388"><ele>1440.0</ele><time>2026-04-24T14:06:27.999Z</time></trkpt><trkpt lat="31.13677948026287" lon="-7.128300027234443"><ele>1438.3333333333333</ele><time>2026-04-24T14:06:28.999Z</time></trkpt><trkpt lat="31.136685210395324" lon="-7.128140016931302"><ele>1436.6666666666665</ele><time>2026-04-24T14:06:29.999Z</time></trkpt><trkpt lat="31.136596352951617" lon="-7.127984979107608"><ele>1435.0</ele><time>2026-04-24T14:06:30.999Z</time></trkpt><trkpt lat="31.13651642198364" lon="-7.127830779064421"><ele>1435.0</ele><time>2026-04-24T14:06:31.999Z</time></trkpt><trkpt lat="31.1364357277647" lon="-7.127689616793872"><ele>1435.0</ele><time>2026-04-24T14:06:32.999Z</time></trkpt><trkpt lat="31.13634453398125" lon="-7.127557707354777"><ele>1435.0</ele><time>2026-04-24T14:06:33.999Z</time></trkpt><trkpt lat="31.136244856305073" lon="-7.127434532752243"><ele>1435.0</ele><time>2026-04-24T14:06:34.999Z</time></trkpt><trkpt lat="31.13613811346082" lon="-7.127316125327141"><ele>1428.0</ele><time>2026-04-24T14:06:35.999Z</time></trkpt><trkpt lat="31.136033639370112" lon="-7.127200200914845"><ele>1421.0</ele><time>2026-04-24T14:06:36.999Z</time></trkpt><trkpt lat="31.135926696204756" lon="-7.127093260594389"><ele>1414.0</ele><time>2026-04-24T14:06:37.999Z</time></trkpt><trkpt lat="31.135812000128052" lon="-7.126992368902707"><ele>1407.0</ele><time>2026-04-24T14:06:38.999Z</time></trkpt><trkpt lat="31.13568254471781" lon="-7.126905666019779"><ele>1406.5</ele><time>2026-04-24T14:06:39.999Z</time></trkpt><trkpt lat="31.135560396474215" lon="-7.126818209254004"><ele>1406.0</ele><time>2026-04-24T14:06:40.999Z</time></trkpt><trkpt lat="31.13543428161107" lon="-7.126760744143079"><ele>1405.5</ele><time>2026-04-24T14:06:41.999Z</time></trkpt><trkpt lat="31.135315440108744" lon="-7.126713834156264"><ele>1405.0</ele><time>2026-04-24T14:06:42.999Z</time></trkpt><trkpt lat="31.135208147293646" lon="-7.126683082946296"><ele>1405.0</ele><time>2026-04-24T14:06:43.999Z</time></trkpt><trkpt lat="31.135111484211492" lon="-7.126672171031292"><ele>1405.0</ele><time>2026-04-24T14:06:44.999Z</time></trkpt><trkpt lat="31.135025432995242" lon="-7.1266842069028185"><ele>1405.0</ele><time>2026-04-24T14:06:45.999Z</time></trkpt><trkpt lat="31.1349527230356" lon="-7.12672629139117"><ele>1405.0</ele><time>2026-04-24T14:06:46.999Z</time></trkpt><trkpt lat="31.134895739585296" lon="-7.126795657149903"><ele>1405.0</ele><time>2026-04-24T14:06:47.999Z</time></trkpt><trkpt lat="31.134858160952028" lon="-7.126884737593197"><ele>1405.0</ele><time>2026-04-24T14:06:48.999Z</time></trkpt><trkpt lat="31.134845540984706" lon="-7.126993190364689"><ele>1403.5</ele><time>2026-04-24T14:06:50Z</time></trkpt><trkpt lat="31.134854201990084" lon="-7.127121877367471"><ele>1402.0</ele><time>2026-04-24T14:06:51Z</time></trkpt><trkpt lat="31.134863683009982" lon="-7.127266365017607"><ele>1400.5</ele><time>2026-04-24T14:06:52Z</time></trkpt><trkpt lat="31.134861748659795" lon="-7.127420046830082"><ele>1399.0</ele><time>2026-04-24T14:06:53Z</time></trkpt><trkpt lat="31.13485439902886" lon="-7.127582387345377"><ele>1399.0</ele><time>2026-04-24T14:06:54Z</time></trkpt><trkpt lat="31.134847589965304" lon="-7.127750986483577"><ele>1399.0</ele><time>2026-04-24T14:06:55Z</time></trkpt><trkpt lat="31.13481798822339" lon="-7.127913844457933"><ele>1399.0</ele><time>2026-04-24T14:06:56Z</time></trkpt><trkpt lat="31.134790787916096" lon="-7.128068159085219"><ele>1399.0</ele><time>2026-04-24T14:06:57Z</time></trkpt><trkpt lat="31.134751959277402" lon="-7.1282083481850025"><ele>1399.8000000000002</ele><time>2026-04-24T14:06:58Z</time></trkpt><trkpt lat="31.134736213424798" lon="-7.128339452037043"><ele>1400.6000000000001</ele><time>2026-04-24T14:06:59Z</time></trkpt><trkpt lat="31.134718517885283" lon="-7.128461609666565"><ele>1401.4</ele><time>2026-04-24T14:07:00Z</time></trkpt><trkpt lat="31.13469030097468" lon="-7.128577126010789"><ele>1402.2</ele><time>2026-04-24T14:07:01Z</time></trkpt><trkpt lat="31.134668163765074" lon="-7.128700290295887"><ele>1403.0</ele><time>2026-04-24T14:07:02Z</time></trkpt><trkpt lat="31.134607710332535" lon="-7.128812259867069"><ele>1403.0</ele><time>2026-04-24T14:07:03Z</time></trkpt><trkpt lat="31.13454257114625" lon="-7.128921212501197"><ele>1403.0</ele><time>2026-04-24T14:07:04Z</time></trkpt><trkpt lat="31.134474807824347" lon="-7.1290282643672915"><ele>1403.0</ele><time>2026-04-24T14:07:05Z</time></trkpt><trkpt lat="31.13441133211387" lon="-7.129140450606388"><ele>1403.0</ele><time>2026-04-24T14:07:06Z</time></trkpt><trkpt lat="31.134339559681194" lon="-7.129245518903807"><ele>1404.25</ele><time>2026-04-24T14:07:07Z</time></trkpt><trkpt lat="31.13429780248197" lon="-7.129367036560125"><ele>1405.5</ele><time>2026-04-24T14:07:08Z</time></trkpt><trkpt lat="31.134274638865282" lon="-7.129495916611026"><ele>1406.75</ele><time>2026-04-24T14:07:09Z</time></trkpt><trkpt lat="31.13427173341217" lon="-7.129630322390009"><ele>1408.0</ele><time>2026-04-24T14:07:10Z</time></trkpt><trkpt lat="31.134285813847683" lon="-7.1297684007873565"><ele>1408.25</ele><time>2026-04-24T14:07:11Z</time></trkpt><trkpt lat="31.13429862191325" lon="-7.129908242187275"><ele>1408.5</ele><time>2026-04-24T14:07:12Z</time></trkpt><trkpt lat="31.134302698161704" lon="-7.13004649905039"><ele>1408.75</ele><time>2026-04-24T14:07:13Z</time></trkpt><trkpt lat="31.13429526435981" lon="-7.130191494739239"><ele>1409.0</ele><time>2026-04-24T14:07:14Z</time></trkpt><trkpt lat="31.134229140028648" lon="-7.130333873026085"><ele>1409.0</ele><time>2026-04-24T14:07:15Z</time></trkpt><trkpt lat="31.13412404650408" lon="-7.130448956145591"><ele>1409.0</ele><time>2026-04-24T14:07:16Z</time></trkpt><trkpt lat="31.134018312256874" lon="-7.1305595304519205"><ele>1409.0</ele><time>2026-04-24T14:07:17Z</time></trkpt><trkpt lat="31.13391959083847" lon="-7.130671314440962"><ele>1409.0</ele><time>2026-04-24T14:07:18Z</time></trkpt><trkpt lat="31.13382717984165" lon="-7.130802309408493"><ele>1407.25</ele><time>2026-04-24T14:07:19Z</time></trkpt><trkpt lat="31.13375927518189" lon="-7.130953042202878"><ele>1405.5</ele><time>2026-04-24T14:07:20Z</time></trkpt><trkpt lat="31.133689916358424" lon="-7.131094733607032"><ele>1403.75</ele><time>2026-04-24T14:07:21Z</time></trkpt><trkpt lat="31.133630072352922" lon="-7.1312370386978285"><ele>1402.0</ele><time>2026-04-24T14:07:22Z</time></trkpt><trkpt lat="31.133532841113237" lon="-7.131351978436166"><ele>1402.0</ele><time>2026-04-24T14:07:23Z</time></trkpt><trkpt lat="31.133422260137973" lon="-7.131444277222666"><ele>1402.0</ele><time>2026-04-24T14:07:24Z</time></trkpt><trkpt lat="31.133273445153844" lon="-7.131486161079125"><ele>1402.0</ele><time>2026-04-24T14:07:25Z</time></trkpt><trkpt lat="31.133128836639788" lon="-7.1315427711679105"><ele>1402.0</ele><time>2026-04-24T14:07:26Z</time></trkpt><trkpt lat="31.13297588798089" lon="-7.131585867792288"><ele>1403.3333333333333</ele><time>2026-04-24T14:07:27Z</time></trkpt><trkpt lat="31.132817682234027" lon="-7.1316179191134745"><ele>1404.6666666666667</ele><time>2026-04-24T14:07:28Z</time></trkpt><trkpt lat="31.13265503754962" lon="-7.131638250029433"><ele>1406.0</ele><time>2026-04-24T14:07:29Z</time></trkpt><trkpt lat="31.13248955970441" lon="-7.131645689218656"><ele>1405.0</ele><time>2026-04-24T14:07:30Z</time></trkpt><trkpt lat="31.13232500355945" lon="-7.131642184280933"><ele>1404.0</ele><time>2026-04-24T14:07:31Z</time></trkpt><trkpt lat="31.13216367695407" lon="-7.13163237976084"><ele>1403.0</ele><time>2026-04-24T14:07:32Z</time></trkpt><trkpt lat="31.132004309301546" lon="-7.131620730970832"><ele>1403.0</ele><time>2026-04-24T14:07:33Z</time></trkpt><trkpt lat="31.131843757775556" lon="-7.1316143642380645"><ele>1403.0</ele><time>2026-04-24T14:07:34Z</time></trkpt><trkpt lat="31.131678854132197" lon="-7.131630911736509"><ele>1403.0</ele><time>2026-04-24T14:07:35Z</time></trkpt><trkpt lat="31.131509553704134" lon="-7.131676537462148"><ele>1400.6666666666667</ele><time>2026-04-24T14:07:36Z</time></trkpt><trkpt lat="31.13133571739484" lon="-7.131729287640656"><ele>1398.3333333333333</ele><time>2026-04-24T14:07:37Z</time></trkpt><trkpt lat="31.13115530540301" lon="-7.131765501990305"><ele>1396.0</ele><time>2026-04-24T14:07:38Z</time></trkpt><trkpt lat="31.130972918626508" lon="-7.131807224484297"><ele>1396.0</ele><time>2026-04-24T14:07:39Z</time></trkpt><trkpt lat="31.130789492665347" lon="-7.13182502185366"><ele>1396.0</ele><time>2026-04-24T14:07:40Z</time></trkpt><trkpt lat="31.130604968162526" lon="-7.131842989361838"><ele>1396.0</ele><time>2026-04-24T14:07:41Z</time></trkpt><trkpt lat="31.130417526258473" lon="-7.131843080924977"><ele>1393.3333333333333</ele><time>2026-04-24T14:07:42Z</time></trkpt><trkpt lat="31.13022613058726" lon="-7.131867573689409"><ele>1390.6666666666667</ele><time>2026-04-24T14:07:43Z</time></trkpt><trkpt lat="31.130036012884194" lon="-7.13192042781038"><ele>1388.0</ele><time>2026-04-24T14:07:44Z</time></trkpt><trkpt lat="31.129841619987666" lon="-7.131945050823448"><ele>1386.6666666666667</ele><time>2026-04-24T14:07:45Z</time></trkpt><trkpt lat="31.1296598233449" lon="-7.132024872922427"><ele>1385.3333333333333</ele><time>2026-04-24T14:07:46Z</time></trkpt><trkpt lat="31.129489676996556" lon="-7.132088715073646"><ele>1384.0</ele><time>2026-04-24T14:07:47Z</time></trkpt><trkpt lat="31.129306663355194" lon="-7.132127675374895"><ele>1384.0</ele><time>2026-04-24T14:07:48Z</time></trkpt><trkpt lat="31.129125824402983" lon="-7.132156339812082"><ele>1384.0</ele><time>2026-04-24T14:07:49Z</time></trkpt><trkpt lat="31.12896724291817" lon="-7.132181026639354"><ele>1384.0</ele><time>2026-04-24T14:07:50Z</time></trkpt><trkpt lat="31.12882283630763" lon="-7.13220694428306"><ele>1382.0</ele><time>2026-04-24T14:07:51Z</time></trkpt><trkpt lat="31.12866906588124" lon="-7.132279416535414"><ele>1380.0</ele><time>2026-04-24T14:07:52Z</time></trkpt><trkpt lat="31.128514754156175" lon="-7.132368098733774"><ele>1378.0</ele><time>2026-04-24T14:07:53Z</time></trkpt><trkpt lat="31.128365851491708" lon="-7.132469239119656"><ele>1380.0</ele><time>2026-04-24T14:07:54Z</time></trkpt><trkpt lat="31.128221887325434" lon="-7.1325605178465015"><ele>1382.0</ele><time>2026-04-24T14:07:55Z</time></trkpt><trkpt lat="31.128084637077414" lon="-7.1326423672358175"><ele>1384.0</ele><time>2026-04-24T14:07:56Z</time></trkpt><trkpt lat="31.127953286844363" lon="-7.132714596971988"><ele>1384.0</ele><time>2026-04-24T14:07:57Z</time></trkpt><trkpt lat="31.12781711610405" lon="-7.132761766269941"><ele>1384.0</ele><time>2026-04-24T14:07:58Z</time></trkpt><trkpt lat="31.127683155434962" lon="-7.132778324249397"><ele>1384.0</ele><time>2026-04-24T14:07:59Z</time></trkpt><trkpt lat="31.127541790040834" lon="-7.1327841123519145"><ele>1384.0</ele><time>2026-04-24T14:08:00Z</time></trkpt><trkpt lat="31.127428165587933" lon="-7.132747836069254"><ele>1382.2</ele><time>2026-04-24T14:08:01Z</time></trkpt><trkpt lat="31.127319125427196" lon="-7.132729017221546"><ele>1380.4</ele><time>2026-04-24T14:08:02Z</time></trkpt><trkpt lat="31.127210247940106" lon="-7.132717220539878"><ele>1378.6</ele><time>2026-04-24T14:08:03Z</time></trkpt><trkpt lat="31.12711033737306" lon="-7.132752427689643"><ele>1376.8</ele><time>2026-04-24T14:08:04Z</time></trkpt><trkpt lat="31.12700928581471" lon="-7.132798180046242"><ele>1375.0</ele><time>2026-04-24T14:08:05Z</time></trkpt><trkpt lat="31.126907191668742" lon="-7.132847110452971"><ele>1375.0</ele><time>2026-04-24T14:08:06Z</time></trkpt><trkpt lat="31.12680989589319" lon="-7.132903437990793"><ele>1375.0</ele><time>2026-04-24T14:08:07Z</time></trkpt><trkpt lat="31.126724914427477" lon="-7.132971651302125"><ele>1375.0</ele><time>2026-04-24T14:08:08Z</time></trkpt><trkpt lat="31.126635336138506" lon="-7.133064516992562"><ele>1375.0</ele><time>2026-04-24T14:08:09Z</time></trkpt><trkpt lat="31.12653573858666" lon="-7.133156611149337"><ele>1375.75</ele><time>2026-04-24T14:08:10Z</time></trkpt><trkpt lat="31.126433177853517" lon="-7.133247920630277"><ele>1376.5</ele><time>2026-04-24T14:08:11Z</time></trkpt><trkpt lat="31.126326511109788" lon="-7.133328118796665"><ele>1377.25</ele><time>2026-04-24T14:08:12Z</time></trkpt><trkpt lat="31.12622074429567" lon="-7.133404491685206"><ele>1378.0</ele><time>2026-04-24T14:08:13Z</time></trkpt><trkpt lat="31.12612191889198" lon="-7.133458642804377"><ele>1378.0</ele><time>2026-04-24T14:08:14Z</time></trkpt><trkpt lat="31.12601971098893" lon="-7.133496456205011"><ele>1378.0</ele><time>2026-04-24T14:08:15Z</time></trkpt><trkpt lat="31.125915617545072" lon="-7.133523950873153"><ele>1378.0</ele><time>2026-04-24T14:08:16Z</time></trkpt><trkpt lat="31.125804144854264" lon="-7.133542998061046"><ele>1378.0</ele><time>2026-04-24T14:08:17Z</time></trkpt><trkpt lat="31.12568962968021" lon="-7.133552777185166"><ele>1378.0</ele><time>2026-04-24T14:08:18Z</time></trkpt><trkpt lat="31.125569670927536" lon="-7.133565523607557"><ele>1377.0</ele><time>2026-04-24T14:08:19Z</time></trkpt><trkpt lat="31.125438916532314" lon="-7.133588989889811"><ele>1376.0</ele><time>2026-04-24T14:08:20Z</time></trkpt><trkpt lat="31.125309460200615" lon="-7.13363146755266"><ele>1375.0</ele><time>2026-04-24T14:08:21Z</time></trkpt><trkpt lat="31.12518956576402" lon="-7.133715370455445"><ele>1374.0</ele><time>2026-04-24T14:08:22Z</time></trkpt><trkpt lat="31.125081658593135" lon="-7.1338141589306705"><ele>1374.0</ele><time>2026-04-24T14:08:23Z</time></trkpt><trkpt lat="31.12498895249155" lon="-7.133917364340038"><ele>1374.0</ele><time>2026-04-24T14:08:24Z</time></trkpt><trkpt lat="31.124912994892377" lon="-7.134033441336769"><ele>1374.0</ele><time>2026-04-24T14:08:25Z</time></trkpt><trkpt lat="31.124865741004765" lon="-7.134171316762244"><ele>1374.0</ele><time>2026-04-24T14:08:26Z</time></trkpt><trkpt lat="31.124830559861866" lon="-7.134314573334968"><ele>1374.25</ele><time>2026-04-24T14:08:27Z</time></trkpt><trkpt lat="31.12479700367502" lon="-7.134473568292"><ele>1374.5</ele><time>2026-04-24T14:08:28Z</time></trkpt><trkpt lat="31.124767896017833" lon="-7.134632130252807"><ele>1374.75</ele><time>2026-04-24T14:08:29Z</time></trkpt><trkpt lat="31.12473871192753" lon="-7.134791701507943"><ele>1375.0</ele><time>2026-04-24T14:08:30Z</time></trkpt><trkpt lat="31.124700854105072" lon="-7.134946873162581"><ele>1375.0</ele><time>2026-04-24T14:08:31Z</time></trkpt><trkpt lat="31.12465821448148" lon="-7.135101352179733"><ele>1375.0</ele><time>2026-04-24T14:08:32Z</time></trkpt><trkpt lat="31.12461355485096" lon="-7.135254986579621"><ele>1375.0</ele><time>2026-04-24T14:08:33Z</time></trkpt><trkpt lat="31.1245683366123" lon="-7.135407446444867"><ele>1375.0</ele><time>2026-04-24T14:08:34Z</time></trkpt><trkpt lat="31.124522624792007" lon="-7.135558198606555"><ele>1375.0</ele><time>2026-04-24T14:08:35Z</time></trkpt><trkpt lat="31.12447425529281" lon="-7.135702538846291"><ele>1375.0</ele><time>2026-04-24T14:08:36Z</time></trkpt><trkpt lat="31.124419962723607" lon="-7.135834728099032"><ele>1375.0</ele><time>2026-04-24T14:08:37Z</time></trkpt><trkpt lat="31.124357627234588" lon="-7.135956768105599"><ele>1375.0</ele><time>2026-04-24T14:08:38Z</time></trkpt><trkpt lat="31.12430155581098" lon="-7.136081975593092"><ele>1375.5</ele><time>2026-04-24T14:08:39Z</time></trkpt><trkpt lat="31.124186484853784" lon="-7.136153493059095"><ele>1376.0</ele><time>2026-04-24T14:08:39.999Z</time></trkpt><trkpt lat="31.124070790925128" lon="-7.136205463937192"><ele>1376.5</ele><time>2026-04-24T14:08:40.999Z</time></trkpt><trkpt lat="31.123938377120492" lon="-7.136219650545068"><ele>1377.0</ele><time>2026-04-24T14:08:41.999Z</time></trkpt><trkpt lat="31.12379854328448" lon="-7.136198561806589"><ele>1377.3333333333333</ele><time>2026-04-24T14:08:42.999Z</time></trkpt><trkpt lat="31.123655587858526" lon="-7.136155204404894"><ele>1377.6666666666665</ele><time>2026-04-24T14:08:43.999Z</time></trkpt><trkpt lat="31.123503929390303" lon="-7.136106538024586"><ele>1378.0</ele><time>2026-04-24T14:08:44.999Z</time></trkpt><trkpt lat="31.1233422174047" lon="-7.136057023581069"><ele>1380.0</ele><time>2026-04-24T14:08:45.999Z</time></trkpt><trkpt lat="31.123173303431816" lon="-7.136006841020838"><ele>1382.0</ele><time>2026-04-24T14:08:46.999Z</time></trkpt><trkpt lat="31.12299892685294" lon="-7.135954835330094"><ele>1384.0</ele><time>2026-04-24T14:08:47.999Z</time></trkpt><trkpt lat="31.12281942762156" lon="-7.13589997034036"><ele>1384.0</ele><time>2026-04-24T14:08:48.999Z</time></trkpt><trkpt lat="31.12263956599184" lon="-7.135844244961278"><ele>1384.0</ele><time>2026-04-24T14:08:49.999Z</time></trkpt><trkpt lat="31.122463496812003" lon="-7.135794502949718"><ele>1384.0</ele><time>2026-04-24T14:08:50.999Z</time></trkpt><trkpt lat="31.122296317311587" lon="-7.135754202275111"><ele>1378.3333333333333</ele><time>2026-04-24T14:08:51.999Z</time></trkpt><trkpt lat="31.122132282346534" lon="-7.13571773873286"><ele>1372.6666666666667</ele><time>2026-04-24T14:08:52.999Z</time></trkpt><trkpt lat="31.121967570733524" lon="-7.135687160897298"><ele>1367.0</ele><time>2026-04-24T14:08:53.999Z</time></trkpt><trkpt lat="31.12180492141763" lon="-7.135675935067146"><ele>1367.0</ele><time>2026-04-24T14:08:54.999Z</time></trkpt><trkpt lat="31.121643714032174" lon="-7.13567310914385"><ele>1367.0</ele><time>2026-04-24T14:08:56Z</time></trkpt><trkpt lat="31.121478904631985" lon="-7.1356489969178325"><ele>1367.0</ele><time>2026-04-24T14:08:57Z</time></trkpt><trkpt lat="31.121308637646646" lon="-7.135596394534411"><ele>1369.6666666666667</ele><time>2026-04-24T14:08:58Z</time></trkpt><trkpt lat="31.121133998141104" lon="-7.135530235246065"><ele>1372.3333333333333</ele><time>2026-04-24T14:08:59Z</time></trkpt><trkpt lat="31.120957397280733" lon="-7.13546411591089"><ele>1375.0</ele><time>2026-04-24T14:09:00Z</time></trkpt><trkpt lat="31.120775713196537" lon="-7.135400386074495"><ele>1377.6666666666665</ele><time>2026-04-24T14:09:01Z</time></trkpt><trkpt lat="31.12059718061892" lon="-7.135345618763683"><ele>1380.3333333333333</ele><time>2026-04-24T14:09:02Z</time></trkpt><trkpt lat="31.12042999749334" lon="-7.135298648330207"><ele>1383.0</ele><time>2026-04-24T14:09:03Z</time></trkpt><trkpt lat="31.120273020599235" lon="-7.135256611157236"><ele>1383.0</ele><time>2026-04-24T14:09:04Z</time></trkpt><trkpt lat="31.120124414304552" lon="-7.135218010306584"><ele>1383.0</ele><time>2026-04-24T14:09:05Z</time></trkpt><trkpt lat="31.119981407690993" lon="-7.135177455801101"><ele>1383.0</ele><time>2026-04-24T14:09:06Z</time></trkpt><trkpt lat="31.119844706361597" lon="-7.135130536446199"><ele>1383.0</ele><time>2026-04-24T14:09:07Z</time></trkpt><trkpt lat="31.11971744238348" lon="-7.135062525414244"><ele>1381.0</ele><time>2026-04-24T14:09:08Z</time></trkpt><trkpt lat="31.119592187149888" lon="-7.13498844180797"><ele>1379.0</ele><time>2026-04-24T14:09:09Z</time></trkpt><trkpt lat="31.11951280383513" lon="-7.134831152765125"><ele>1377.0</ele><time>2026-04-24T14:09:10Z</time></trkpt><trkpt lat="31.119427770751162" lon="-7.134680895134683"><ele>1377.0</ele><time>2026-04-24T14:09:11Z</time></trkpt><trkpt lat="31.11933635719085" lon="-7.134527135697822"><ele>1377.0</ele><time>2026-04-24T14:09:12Z</time></trkpt><trkpt lat="31.11922686250285" lon="-7.134376639388271"><ele>1377.0</ele><time>2026-04-24T14:09:13Z</time></trkpt><trkpt lat="31.11910712345766" lon="-7.134229831167033"><ele>1377.3333333333333</ele><time>2026-04-24T14:09:14Z</time></trkpt><trkpt lat="31.118989045597623" lon="-7.1340820151355695"><ele>1377.6666666666665</ele><time>2026-04-24T14:09:15Z</time></trkpt><trkpt lat="31.118877261738024" lon="-7.133937884967646"><ele>1378.0</ele><time>2026-04-24T14:09:16Z</time></trkpt><trkpt lat="31.118772663418593" lon="-7.133804351364817"><ele>1378.0</ele><time>2026-04-24T14:09:17Z</time></trkpt><trkpt lat="31.118681236638725" lon="-7.1336903284509345"><ele>1378.0</ele><time>2026-04-24T14:09:18Z</time></trkpt><trkpt lat="31.118588005587828" lon="-7.1336195189578095"><ele>1378.0</ele><time>2026-04-24T14:09:19Z</time></trkpt><trkpt lat="31.118502204073884" lon="-7.133544953763668"><ele>1378.0</ele><time>2026-04-24T14:09:20Z</time></trkpt><trkpt lat="31.11838608295817" lon="-7.133519449206994"><ele>1378.0</ele><time>2026-04-24T14:09:21Z</time></trkpt><trkpt lat="31.11825843114319" lon="-7.133514698976679"><ele>1378.0</ele><time>2026-04-24T14:09:22Z</time></trkpt><trkpt lat="31.11812370582952" lon="-7.133516820810533"><ele>1378.0</ele><time>2026-04-24T14:09:23Z</time></trkpt><trkpt lat="31.117982888793048" lon="-7.133523360774958"><ele>1378.0</ele><time>2026-04-24T14:09:24Z</time></trkpt><trkpt lat="31.117842105971455" lon="-7.133553776367991"><ele>1379.75</ele><time>2026-04-24T14:09:25Z</time></trkpt><trkpt lat="31.11770137641131" lon="-7.133566196934236"><ele>1381.5</ele><time>2026-04-24T14:09:26Z</time></trkpt><trkpt lat="31.117563575672364" lon="-7.133556467448392"><ele>1383.25</ele><time>2026-04-24T14:09:27Z</time></trkpt><trkpt lat="31.1174314116621" lon="-7.133563394550981"><ele>1385.0</ele><time>2026-04-24T14:09:28Z</time></trkpt><trkpt lat="31.117304170987136" lon="-7.1335689319445015"><ele>1385.25</ele><time>2026-04-24T14:09:29Z</time></trkpt><trkpt lat="31.117182002901213" lon="-7.133577595974261"><ele>1385.5</ele><time>2026-04-24T14:09:30Z</time></trkpt><trkpt lat="31.117063123669876" lon="-7.133589489141264"><ele>1385.75</ele><time>2026-04-24T14:09:31Z</time></trkpt><trkpt lat="31.116950191336848" lon="-7.133604712161534"><ele>1386.0</ele><time>2026-04-24T14:09:32Z</time></trkpt><trkpt lat="31.11684301526779" lon="-7.133634766984067"><ele>1386.0</ele><time>2026-04-24T14:09:33Z</time></trkpt><trkpt lat="31.116740134589744" lon="-7.1336925729631435"><ele>1386.0</ele><time>2026-04-24T14:09:34Z</time></trkpt><trkpt lat="31.116639283108583" lon="-7.133773249856553"><ele>1386.0</ele><time>2026-04-24T14:09:35Z</time></trkpt><trkpt lat="31.116551625832287" lon="-7.133854364411328"><ele>1386.0</ele><time>2026-04-24T14:09:36Z</time></trkpt><trkpt lat="31.11647641276393" lon="-7.13393522085761"><ele>1383.25</ele><time>2026-04-24T14:09:37Z</time></trkpt><trkpt lat="31.116403380335907" lon="-7.134029043162612"><ele>1380.5</ele><time>2026-04-24T14:09:38Z</time></trkpt><trkpt lat="31.116333501904567" lon="-7.134138083854335"><ele>1377.75</ele><time>2026-04-24T14:09:39Z</time></trkpt><trkpt lat="31.116266648674983" lon="-7.1342571118180755"><ele>1375.0</ele><time>2026-04-24T14:09:40Z</time></trkpt><trkpt lat="31.11619263587985" lon="-7.134377214613266"><ele>1375.0</ele><time>2026-04-24T14:09:41Z</time></trkpt><trkpt lat="31.116100112773978" lon="-7.134484048184403"><ele>1375.0</ele><time>2026-04-24T14:09:42Z</time></trkpt><trkpt lat="31.115983932769446" lon="-7.134566880538063"><ele>1375.0</ele><time>2026-04-24T14:09:43Z</time></trkpt><trkpt lat="31.11584925786215" lon="-7.134622078074575"><ele>1375.0</ele><time>2026-04-24T14:09:44Z</time></trkpt><trkpt lat="31.11571132623789" lon="-7.134680405144084"><ele>1368.6666666666665</ele><time>2026-04-24T14:09:45Z</time></trkpt><trkpt lat="31.115561280431248" lon="-7.134692379281292"><ele>1362.3333333333333</ele><time>2026-04-24T14:09:46Z</time></trkpt><trkpt lat="31.115420858519276" lon="-7.134748312975621"><ele>1356.0</ele><time>2026-04-24T14:09:47Z</time></trkpt><trkpt lat="31.115284932230363" lon="-7.134832681325488"><ele>1357.0</ele><time>2026-04-24T14:09:48Z</time></trkpt><trkpt lat="31.11514911612375" lon="-7.134935886807302"><ele>1358.0</ele><time>2026-04-24T14:09:49Z</time></trkpt><trkpt lat="31.115008306697828" lon="-7.135041034859925"><ele>1359.0</ele><time>2026-04-24T14:09:50Z</time></trkpt><trkpt lat="31.114865716940663" lon="-7.135142854238882"><ele>1359.0</ele><time>2026-04-24T14:09:51Z</time></trkpt><trkpt lat="31.11472987722854" lon="-7.135241538217877"><ele>1359.0</ele><time>2026-04-24T14:09:52Z</time></trkpt><trkpt lat="31.11460060827357" lon="-7.135338422182109"><ele>1359.0</ele><time>2026-04-24T14:09:53Z</time></trkpt><trkpt lat="31.11446998747362" lon="-7.135432867942589"><ele>1359.0</ele><time>2026-04-24T14:09:54Z</time></trkpt><trkpt lat="31.114332054789447" lon="-7.135516190523149"><ele>1359.0</ele><time>2026-04-24T14:09:55Z</time></trkpt><trkpt lat="31.114186229261428" lon="-7.135586303626621"><ele>1359.0</ele><time>2026-04-24T14:09:56Z</time></trkpt><trkpt lat="31.114039118215214" lon="-7.135646939536276"><ele>1358.75</ele><time>2026-04-24T14:09:57Z</time></trkpt><trkpt lat="31.113891016866386" lon="-7.135702268953464"><ele>1358.5</ele><time>2026-04-24T14:09:58Z</time></trkpt><trkpt lat="31.113747085414516" lon="-7.135759387358833"><ele>1358.25</ele><time>2026-04-24T14:09:59Z</time></trkpt><trkpt lat="31.113621060658232" lon="-7.135821911433976"><ele>1358.0</ele><time>2026-04-24T14:10:00Z</time></trkpt><trkpt lat="31.11351866189788" lon="-7.135890446395021"><ele>1358.0</ele><time>2026-04-24T14:10:01Z</time></trkpt><trkpt lat="31.113437430565636" lon="-7.135969706841009"><ele>1358.0</ele><time>2026-04-24T14:10:02Z</time></trkpt><trkpt lat="31.11336248101133" lon="-7.1360592687730735"><ele>1358.0</ele><time>2026-04-24T14:10:03Z</time></trkpt><trkpt lat="31.113338066006435" lon="-7.136188791233085"><ele>1358.0</ele><time>2026-04-24T14:10:04Z</time></trkpt><trkpt lat="31.11333154749891" lon="-7.136331964437245"><ele>1358.0</ele><time>2026-04-24T14:10:05Z</time></trkpt><trkpt lat="31.113325255817735" lon="-7.136475424001994"><ele>1358.6000000000001</ele><time>2026-04-24T14:10:06Z</time></trkpt><trkpt lat="31.11333679488568" lon="-7.136622867274534"><ele>1359.2</ele><time>2026-04-24T14:10:07Z</time></trkpt><trkpt lat="31.113317364104454" lon="-7.136751008889296"><ele>1359.8</ele><time>2026-04-24T14:10:08Z</time></trkpt><trkpt lat="31.113282357791707" lon="-7.136858170235529"><ele>1360.4</ele><time>2026-04-24T14:10:09Z</time></trkpt><trkpt lat="31.113232410483292" lon="-7.136964861416968"><ele>1361.0</ele><time>2026-04-24T14:10:10Z</time></trkpt><trkpt lat="31.11313920797392" lon="-7.1370540449805855"><ele>1357.75</ele><time>2026-04-24T14:10:11Z</time></trkpt><trkpt lat="31.113004696280353" lon="-7.137100510552062"><ele>1354.5</ele><time>2026-04-24T14:10:12Z</time></trkpt><trkpt lat="31.112881315841616" lon="-7.137107476149524"><ele>1351.25</ele><time>2026-04-24T14:10:13Z</time></trkpt><trkpt lat="31.112732469342063" lon="-7.137092044623664"><ele>1348.0</ele><time>2026-04-24T14:10:14Z</time></trkpt><trkpt lat="31.112588047533123" lon="-7.1370515130434615"><ele>1348.0</ele><time>2026-04-24T14:10:15Z</time></trkpt><trkpt lat="31.11243897062227" lon="-7.136996239334671"><ele>1348.0</ele><time>2026-04-24T14:10:16Z</time></trkpt><trkpt lat="31.112296516889568" lon="-7.1369138101006655"><ele>1348.0</ele><time>2026-04-24T14:10:17Z</time></trkpt><trkpt lat="31.112150127113654" lon="-7.136861349211603"><ele>1350.0</ele><time>2026-04-24T14:10:18Z</time></trkpt><trkpt lat="31.11201268193233" lon="-7.136817561272272"><ele>1352.0</ele><time>2026-04-24T14:10:18.999Z</time></trkpt><trkpt lat="31.111883962962953" lon="-7.1367903977639715"><ele>1354.0</ele><time>2026-04-24T14:10:19.999Z</time></trkpt><trkpt lat="31.111759003546222" lon="-7.136788473387073"><ele>1356.0</ele><time>2026-04-24T14:10:20.999Z</time></trkpt><trkpt lat="31.111635995860826" lon="-7.13682107885081"><ele>1361.0</ele><time>2026-04-24T14:10:21.999Z</time></trkpt><trkpt lat="31.11153337546271" lon="-7.136910808421221"><ele>1366.0</ele><time>2026-04-24T14:10:22.999Z</time></trkpt><trkpt lat="31.11142521318009" lon="-7.136994451540872"><ele>1371.0</ele><time>2026-04-24T14:10:23.999Z</time></trkpt><trkpt lat="31.111302806606936" lon="-7.137070553796697"><ele>1376.0</ele><time>2026-04-24T14:10:24.999Z</time></trkpt><trkpt lat="31.111187093481853" lon="-7.137113145730553"><ele>1376.0</ele><time>2026-04-24T14:10:25.999Z</time></trkpt><trkpt lat="31.11106467920809" lon="-7.137138364523413"><ele>1376.0</ele><time>2026-04-24T14:10:26.999Z</time></trkpt><trkpt lat="31.110931108724074" lon="-7.1371403503965425"><ele>1376.0</ele><time>2026-04-24T14:10:27.999Z</time></trkpt><trkpt lat="31.11079604413557" lon="-7.137124621191727"><ele>1376.0</ele><time>2026-04-24T14:10:28.999Z</time></trkpt><trkpt lat="31.110665128344902" lon="-7.137097080261765"><ele>1374.5</ele><time>2026-04-24T14:10:29.999Z</time></trkpt><trkpt lat="31.110534188596578" lon="-7.13706364149298"><ele>1373.0</ele><time>2026-04-24T14:10:30.999Z</time></trkpt><trkpt lat="31.110399308677703" lon="-7.137029230672396"><ele>1371.5</ele><time>2026-04-24T14:10:31.999Z</time></trkpt><trkpt lat="31.110258796516106" lon="-7.136993382937346"><ele>1370.0</ele><time>2026-04-24T14:10:32.999Z</time></trkpt><trkpt lat="31.110114734102762" lon="-7.13695641736115"><ele>1370.0</ele><time>2026-04-24T14:10:33.999Z</time></trkpt><trkpt lat="31.109965593890642" lon="-7.136924115107449"><ele>1370.0</ele><time>2026-04-24T14:10:34.999Z</time></trkpt><trkpt lat="31.10981561118804" lon="-7.136891883170411"><ele>1370.0</ele><time>2026-04-24T14:10:35.999Z</time></trkpt><trkpt lat="31.109669415601502" lon="-7.136864742750214"><ele>1370.5</ele><time>2026-04-24T14:10:36.999Z</time></trkpt><trkpt lat="31.109523584041167" lon="-7.136845440057993"><ele>1371.0</ele><time>2026-04-24T14:10:37.999Z</time></trkpt><trkpt lat="31.109386775560917" lon="-7.136831108422105"><ele>1371.5</ele><time>2026-04-24T14:10:38.999Z</time></trkpt><trkpt lat="31.109249785759665" lon="-7.136823238554158"><ele>1372.0</ele><time>2026-04-24T14:10:39.999Z</time></trkpt><trkpt lat="31.109109615146416" lon="-7.13681518595389"><ele>1378.3333333333333</ele><time>2026-04-24T14:10:40.999Z</time></trkpt><trkpt lat="31.108963580456276" lon="-7.1368583663211"><ele>1384.6666666666667</ele><time>2026-04-24T14:10:41.999Z</time></trkpt><trkpt lat="31.10880595767059" lon="-7.136940690624319"><ele>1391.0</ele><time>2026-04-24T14:10:42.999Z</time></trkpt><trkpt lat="31.10863225182375" lon="-7.137057209686148"><ele>1391.0</ele><time>2026-04-24T14:10:43.999Z</time></trkpt><trkpt lat="31.108440546998622" lon="-7.137183587053171"><ele>1391.0</ele><time>2026-04-24T14:10:44.999Z</time></trkpt><trkpt lat="31.10824007138271" lon="-7.137320059970717"><ele>1382.3333333333335</ele><time>2026-04-24T14:10:45.999Z</time></trkpt><trkpt lat="31.10804280460267" lon="-7.137457682796065"><ele>1373.6666666666667</ele><time>2026-04-24T14:10:46.999Z</time></trkpt><trkpt lat="31.107856500129078" lon="-7.13759150429123"><ele>1365.0</ele><time>2026-04-24T14:10:47.999Z</time></trkpt><trkpt lat="31.10768184457021" lon="-7.137717208062743"><ele>1365.0</ele><time>2026-04-24T14:10:48.999Z</time></trkpt><trkpt lat="31.10752324328456" lon="-7.137835235248021"><ele>1365.0</ele><time>2026-04-24T14:10:49.999Z</time></trkpt><trkpt lat="31.107375842845222" lon="-7.137939105386994"><ele>1365.0</ele><time>2026-04-24T14:10:50.999Z</time></trkpt><trkpt lat="31.107234626528843" lon="-7.138017009932856"><ele>1362.75</ele><time>2026-04-24T14:10:51.999Z</time></trkpt><trkpt lat="31.107101357431144" lon="-7.1380724802675255"><ele>1360.5</ele><time>2026-04-24T14:10:52.999Z</time></trkpt><trkpt lat="31.106975553305045" lon="-7.138135946774847"><ele>1358.25</ele><time>2026-04-24T14:10:53.999Z</time></trkpt><trkpt lat="31.106859599965887" lon="-7.138232766773935"><ele>1356.0</ele><time>2026-04-24T14:10:54.999Z</time></trkpt><trkpt lat="31.1067540250687" lon="-7.138353292980918"><ele>1356.0</ele><time>2026-04-24T14:10:55.999Z</time></trkpt><trkpt lat="31.106648395151826" lon="-7.138478797052513"><ele>1356.0</ele><time>2026-04-24T14:10:56.999Z</time></trkpt><trkpt lat="31.10653948708328" lon="-7.13860712247973"><ele>1356.0</ele><time>2026-04-24T14:10:57.999Z</time></trkpt><trkpt lat="31.106410526597173" lon="-7.138738412719081"><ele>1355.0</ele><time>2026-04-24T14:10:58.999Z</time></trkpt><trkpt lat="31.106278474666684" lon="-7.138863871971953"><ele>1354.0</ele><time>2026-04-24T14:10:59.999Z</time></trkpt><trkpt lat="31.1061388356343" lon="-7.138981041080203"><ele>1353.0</ele><time>2026-04-24T14:11:00.999Z</time></trkpt><trkpt lat="31.106002628702388" lon="-7.139097876535994"><ele>1353.0</ele><time>2026-04-24T14:11:02Z</time></trkpt><trkpt lat="31.10586636623544" lon="-7.139207802003785"><ele>1353.0</ele><time>2026-04-24T14:11:03Z</time></trkpt><trkpt lat="31.105722500258608" lon="-7.139307854446827"><ele>1353.0</ele><time>2026-04-24T14:11:04Z</time></trkpt><trkpt lat="31.105573554755367" lon="-7.139397608443603"><ele>1360.3333333333333</ele><time>2026-04-24T14:11:05Z</time></trkpt><trkpt lat="31.10542442828125" lon="-7.139479928854555"><ele>1367.6666666666665</ele><time>2026-04-24T14:11:06Z</time></trkpt><trkpt lat="31.105282868301643" lon="-7.139553064280005"><ele>1375.0</ele><time>2026-04-24T14:11:07Z</time></trkpt><trkpt lat="31.10515243625198" lon="-7.139623030477882"><ele>1375.0</ele><time>2026-04-24T14:11:08Z</time></trkpt><trkpt lat="31.105023361060407" lon="-7.139695189524663"><ele>1375.0</ele><time>2026-04-24T14:11:09Z</time></trkpt><trkpt lat="31.104910253424073" lon="-7.139804626697953"><ele>1375.0</ele><time>2026-04-24T14:11:10Z</time></trkpt><trkpt lat="31.104806169093926" lon="-7.139921802914648"><ele>1375.0</ele><time>2026-04-24T14:11:11Z</time></trkpt><trkpt lat="31.10468863569122" lon="-7.14002719978812"><ele>1369.6666666666665</ele><time>2026-04-24T14:11:12Z</time></trkpt><trkpt lat="31.10455298857646" lon="-7.140112848193531"><ele>1364.3333333333333</ele><time>2026-04-24T14:11:13Z</time></trkpt><trkpt lat="31.10441060117173" lon="-7.140189629764847"><ele>1359.0</ele><time>2026-04-24T14:11:14Z</time></trkpt><trkpt lat="31.104270364300998" lon="-7.140262368552831"><ele>1359.0</ele><time>2026-04-24T14:11:15Z</time></trkpt><trkpt lat="31.104135390459618" lon="-7.140321142681976"><ele>1359.0</ele><time>2026-04-24T14:11:16Z</time></trkpt><trkpt lat="31.103999239221565" lon="-7.140352419248659"><ele>1359.0</ele><time>2026-04-24T14:11:17Z</time></trkpt><trkpt lat="31.103861968477208" lon="-7.140354101073181"><ele>1359.0</ele><time>2026-04-24T14:11:18Z</time></trkpt><trkpt lat="31.103724813956372" lon="-7.14034976941825"><ele>1360.5</ele><time>2026-04-24T14:11:19Z</time></trkpt><trkpt lat="31.103599244412226" lon="-7.140371778119689"><ele>1362.0</ele><time>2026-04-24T14:11:20Z</time></trkpt><trkpt lat="31.103478544037294" lon="-7.140428093566974"><ele>1363.5</ele><time>2026-04-24T14:11:21Z</time></trkpt><trkpt lat="31.10336456509463" lon="-7.140509629440627"><ele>1365.0</ele><time>2026-04-24T14:11:22Z</time></trkpt><trkpt lat="31.103262243671985" lon="-7.1406024042634355"><ele>1365.5</ele><time>2026-04-24T14:11:23Z</time></trkpt><trkpt lat="31.103164078320606" lon="-7.140691305119122"><ele>1366.0</ele><time>2026-04-24T14:11:24Z</time></trkpt><trkpt lat="31.103060269642032" lon="-7.140776466400343"><ele>1366.5</ele><time>2026-04-24T14:11:25Z</time></trkpt><trkpt lat="31.102942937692433" lon="-7.140824923603729"><ele>1367.0</ele><time>2026-04-24T14:11:26Z</time></trkpt><trkpt lat="31.10281748710346" lon="-7.140850260903493"><ele>1363.75</ele><time>2026-04-24T14:11:27Z</time></trkpt><trkpt lat="31.102681620176792" lon="-7.140854317293961"><ele>1360.5</ele><time>2026-04-24T14:11:28Z</time></trkpt><trkpt lat="31.102540234508172" lon="-7.140842653920407"><ele>1357.25</ele><time>2026-04-24T14:11:29Z</time></trkpt><trkpt lat="31.102397206955537" lon="-7.140843564738734"><ele>1354.0</ele><time>2026-04-24T14:11:30Z</time></trkpt><trkpt lat="31.10225235200345" lon="-7.14088267463774"><ele>1354.0</ele><time>2026-04-24T14:11:31Z</time></trkpt><trkpt lat="31.10211373248365" lon="-7.140948539252929"><ele>1354.0</ele><time>2026-04-24T14:11:32Z</time></trkpt><trkpt lat="31.101975769910105" lon="-7.141011127775614"><ele>1354.0</ele><time>2026-04-24T14:11:33Z</time></trkpt><trkpt lat="31.101834759089137" lon="-7.141052635336819"><ele>1354.0</ele><time>2026-04-24T14:11:34Z</time></trkpt><trkpt lat="31.101696571338245" lon="-7.141074214899672"><ele>1353.75</ele><time>2026-04-24T14:11:35Z</time></trkpt><trkpt lat="31.101559128721558" lon="-7.141072949997223"><ele>1353.5</ele><time>2026-04-24T14:11:36Z</time></trkpt><trkpt lat="31.10141680252978" lon="-7.141043897575806"><ele>1353.25</ele><time>2026-04-24T14:11:37Z</time></trkpt><trkpt lat="31.10127732922784" lon="-7.140993154202742"><ele>1353.0</ele><time>2026-04-24T14:11:38Z</time></trkpt><trkpt lat="31.101141888603212" lon="-7.140940898967825"><ele>1353.0</ele><time>2026-04-24T14:11:39Z</time></trkpt><trkpt lat="31.10100838041809" lon="-7.140899170470751"><ele>1353.0</ele><time>2026-04-24T14:11:40Z</time></trkpt><trkpt lat="31.100880608926985" lon="-7.140873386917991"><ele>1353.0</ele><time>2026-04-24T14:11:41Z</time></trkpt><trkpt lat="31.100767758759837" lon="-7.1408723372215634"><ele>1353.0</ele><time>2026-04-24T14:11:42Z</time></trkpt><trkpt lat="31.100669586808802" lon="-7.140890901280963"><ele>1352.4</ele><time>2026-04-24T14:11:43Z</time></trkpt><trkpt lat="31.100569822309158" lon="-7.140911769959252"><ele>1351.8000000000002</ele><time>2026-04-24T14:11:44Z</time></trkpt><trkpt lat="31.100465326967004" lon="-7.140926278552873"><ele>1351.2</ele><time>2026-04-24T14:11:45Z</time></trkpt><trkpt lat="31.100360959894015" lon="-7.1409395134338"><ele>1350.6</ele><time>2026-04-24T14:11:46Z</time></trkpt><trkpt lat="31.100256182667305" lon="-7.1409442480824135"><ele>1350.0</ele><time>2026-04-24T14:11:47Z</time></trkpt><trkpt lat="31.10015859797344" lon="-7.140895314903369"><ele>1350.0</ele><time>2026-04-24T14:11:48Z</time></trkpt><trkpt lat="31.10006498589509" lon="-7.140820588057226"><ele>1350.0</ele><time>2026-04-24T14:11:49Z</time></trkpt><trkpt lat="31.099984524833925" lon="-7.140685135367941"><ele>1350.0</ele><time>2026-04-24T14:11:50Z</time></trkpt><trkpt lat="31.09991205517454" lon="-7.140526865044938"><ele>1350.0</ele><time>2026-04-24T14:11:51Z</time></trkpt><trkpt lat="31.099845048338306" lon="-7.140355473297177"><ele>1350.0</ele><time>2026-04-24T14:11:52Z</time></trkpt><trkpt lat="31.099777347915065" lon="-7.140178543715655"><ele>1350.0</ele><time>2026-04-24T14:11:53Z</time></trkpt><trkpt lat="31.099701469110226" lon="-7.140004665777116"><ele>1350.0</ele><time>2026-04-24T14:11:54Z</time></trkpt><trkpt lat="31.099618124601697" lon="-7.1398326260777765"><ele>1354.0</ele><time>2026-04-24T14:11:55Z</time></trkpt><trkpt lat="31.09950223828451" lon="-7.139692786361878"><ele>1358.0</ele><time>2026-04-24T14:11:56Z</time></trkpt><trkpt lat="31.099382820850707" lon="-7.139568125903574"><ele>1362.0</ele><time>2026-04-24T14:11:57Z</time></trkpt><trkpt lat="31.099275161578763" lon="-7.139451486955837"><ele>1362.0</ele><time>2026-04-24T14:11:58Z</time></trkpt><trkpt lat="31.099175484303213" lon="-7.139358998465038"><ele>1362.0</ele><time>2026-04-24T14:11:59Z</time></trkpt><trkpt lat="31.0990762183847" lon="-7.139309297236565"><ele>1362.0</ele><time>2026-04-24T14:12:00Z</time></trkpt><trkpt lat="31.098979409198808" lon="-7.139309106140491"><ele>1362.0</ele><time>2026-04-24T14:12:01Z</time></trkpt><trkpt lat="31.098893824819246" lon="-7.139355545084997"><ele>1362.0</ele><time>2026-04-24T14:12:02Z</time></trkpt><trkpt lat="31.098816607487894" lon="-7.139431699284555"><ele>1363.5</ele><time>2026-04-24T14:12:03Z</time></trkpt><trkpt lat="31.098733172148037" lon="-7.139516894420879"><ele>1365.0</ele><time>2026-04-24T14:12:04Z</time></trkpt><trkpt lat="31.098627435312082" lon="-7.139594654949419"><ele>1366.5</ele><time>2026-04-24T14:12:05Z</time></trkpt><trkpt lat="31.098495137935288" lon="-7.139654404862246"><ele>1368.0</ele><time>2026-04-24T14:12:06Z</time></trkpt><trkpt lat="31.09834927674236" lon="-7.1396984926318785"><ele>1369.5</ele><time>2026-04-24T14:12:07Z</time></trkpt><trkpt lat="31.09820030367232" lon="-7.139714944001764"><ele>1371.0</ele><time>2026-04-24T14:12:08Z</time></trkpt><trkpt lat="31.0980526784642" lon="-7.139691714509697"><ele>1372.5</ele><time>2026-04-24T14:12:09Z</time></trkpt><trkpt lat="31.09790748579827" lon="-7.139660197866586"><ele>1374.0</ele><time>2026-04-24T14:12:10Z</time></trkpt><trkpt lat="31.097758192445973" lon="-7.139653892804324"><ele>1374.0</ele><time>2026-04-24T14:12:11Z</time></trkpt><trkpt lat="31.097610198353433" lon="-7.139672368216486"><ele>1374.0</ele><time>2026-04-24T14:12:12Z</time></trkpt><trkpt lat="31.097477313420033" lon="-7.1397485415576485"><ele>1374.0</ele><time>2026-04-24T14:12:13Z</time></trkpt><trkpt lat="31.09735826778087" lon="-7.139818696042004"><ele>1374.0</ele><time>2026-04-24T14:12:14Z</time></trkpt><trkpt lat="31.097235069699167" lon="-7.139863349247898"><ele>1373.0</ele><time>2026-04-24T14:12:15Z</time></trkpt><trkpt lat="31.09710614232616" lon="-7.139889634969411"><ele>1372.0</ele><time>2026-04-24T14:12:16Z</time></trkpt><trkpt lat="31.096986762676053" lon="-7.139859389049071"><ele>1371.0</ele><time>2026-04-24T14:12:17Z</time></trkpt><trkpt lat="31.096881750876143" lon="-7.139795930966047"><ele>1370.0</ele><time>2026-04-24T14:12:18Z</time></trkpt><trkpt lat="31.096782144014647" lon="-7.139704167570239"><ele>1370.0</ele><time>2026-04-24T14:12:19Z</time></trkpt><trkpt lat="31.096674531396538" lon="-7.1396093463947405"><ele>1370.0</ele><time>2026-04-24T14:12:20Z</time></trkpt><trkpt lat="31.096564189908122" lon="-7.1395359933526965"><ele>1370.0</ele><time>2026-04-24T14:12:21Z</time></trkpt><trkpt lat="31.096450693091256" lon="-7.139473918380413"><ele>1370.0</ele><time>2026-04-24T14:12:22Z</time></trkpt><trkpt lat="31.096341568788198" lon="-7.139422720489843"><ele>1367.5</ele><time>2026-04-24T14:12:23Z</time></trkpt><trkpt lat="31.096249628733005" lon="-7.139388979593201"><ele>1365.0</ele><time>2026-04-24T14:12:24Z</time></trkpt><trkpt lat="31.096165563876397" lon="-7.139364076945007"><ele>1362.5</ele><time>2026-04-24T14:12:25Z</time></trkpt><trkpt lat="31.096097579719856" lon="-7.139377497713356"><ele>1360.0</ele><time>2026-04-24T14:12:26Z</time></trkpt><trkpt lat="31.096023255330817" lon="-7.139477394402833"><ele>1357.5</ele><time>2026-04-24T14:12:28Z</time></trkpt><trkpt lat="31.096025060018157" lon="-7.1395587514589955"><ele>1355.0</ele><time>2026-04-24T14:12:28.999Z</time></trkpt><trkpt lat="31.096051174436663" lon="-7.139644240885829"><ele>1355.0</ele><time>2026-04-24T14:12:29.999Z</time></trkpt><trkpt lat="31.09608658829076" lon="-7.139722301141321"><ele>1355.0</ele><time>2026-04-24T14:12:30.999Z</time></trkpt><trkpt lat="31.096117864901597" lon="-7.139798174392644"><ele>1355.0</ele><time>2026-04-24T14:12:31.999Z</time></trkpt><trkpt lat="31.096131032906804" lon="-7.139879822147872"><ele>1355.0</ele><time>2026-04-24T14:12:32.999Z</time></trkpt><trkpt lat="31.096120123451424" lon="-7.139956968687439"><ele>1355.0</ele><time>2026-04-24T14:12:33.999Z</time></trkpt><trkpt lat="31.09608666641543" lon="-7.140020614028451"><ele>1355.0</ele><time>2026-04-24T14:12:34.999Z</time></trkpt><trkpt lat="31.095965984806575" lon="-7.140039930391132"><ele>1355.4</ele><time>2026-04-24T14:12:36.999Z</time></trkpt><trkpt lat="31.09589155457793" lon="-7.139995843230771"><ele>1355.8</ele><time>2026-04-24T14:12:37.999Z</time></trkpt><trkpt lat="31.095810484424053" lon="-7.139940036550458"><ele>1356.1999999999998</ele><time>2026-04-24T14:12:38.999Z</time></trkpt><trkpt lat="31.09572271739063" lon="-7.139895697752459"><ele>1356.6</ele><time>2026-04-24T14:12:39.999Z</time></trkpt><trkpt lat="31.095634448295097" lon="-7.139862259005404"><ele>1357.0</ele><time>2026-04-24T14:12:40.999Z</time></trkpt><trkpt lat="31.095538882229185" lon="-7.139876514913194"><ele>1354.75</ele><time>2026-04-24T14:12:41.999Z</time></trkpt><trkpt lat="31.095446336111916" lon="-7.1399289368704375"><ele>1352.5</ele><time>2026-04-24T14:12:42.999Z</time></trkpt><trkpt lat="31.095358096781574" lon="-7.140000171729462"><ele>1350.25</ele><time>2026-04-24T14:12:43.999Z</time></trkpt><trkpt lat="31.0952860941265" lon="-7.140118155446528"><ele>1348.0</ele><time>2026-04-24T14:12:44.999Z</time></trkpt><trkpt lat="31.09522562712706" lon="-7.140243801249212"><ele>1348.0</ele><time>2026-04-24T14:12:45.999Z</time></trkpt><trkpt lat="31.095143909542124" lon="-7.140336249135358"><ele>1348.0</ele><time>2026-04-24T14:12:46.999Z</time></trkpt><trkpt lat="31.095035859035097" lon="-7.140398030950116"><ele>1348.0</ele><time>2026-04-24T14:12:47.999Z</time></trkpt><trkpt lat="31.09490402928775" lon="-7.1404263777074535"><ele>1348.0</ele><time>2026-04-24T14:12:48.999Z</time></trkpt><trkpt lat="31.094756729771195" lon="-7.1404207887757485"><ele>1351.0</ele><time>2026-04-24T14:12:49.999Z</time></trkpt><trkpt lat="31.09460386602584" lon="-7.140391025284876"><ele>1354.0</ele><time>2026-04-24T14:12:50.999Z</time></trkpt><trkpt lat="31.094444273891767" lon="-7.140363621282914"><ele>1357.0</ele><time>2026-04-24T14:12:51.999Z</time></trkpt><trkpt lat="31.094276909808585" lon="-7.1403697577416985"><ele>1357.0</ele><time>2026-04-24T14:12:52.999Z</time></trkpt><trkpt lat="31.094111549616656" lon="-7.140376080800309"><ele>1357.0</ele><time>2026-04-24T14:12:53.999Z</time></trkpt><trkpt lat="31.093959823137272" lon="-7.140374715403111"><ele>1357.0</ele><time>2026-04-24T14:12:54.999Z</time></trkpt><trkpt lat="31.093820870907837" lon="-7.140377504402184"><ele>1353.0</ele><time>2026-04-24T14:12:55.999Z</time></trkpt><trkpt lat="31.09369666027937" lon="-7.140399465400597"><ele>1349.0</ele><time>2026-04-24T14:12:56.999Z</time></trkpt><trkpt lat="31.093579617563215" lon="-7.140444467266039"><ele>1345.0</ele><time>2026-04-24T14:12:57.999Z</time></trkpt><trkpt lat="31.09345951062086" lon="-7.140501444484571"><ele>1341.0</ele><time>2026-04-24T14:12:58.999Z</time></trkpt><trkpt lat="31.09332993308848" lon="-7.140586758703655"><ele>1340.0</ele><time>2026-04-24T14:12:59.999Z</time></trkpt><trkpt lat="31.09320079924103" lon="-7.140679143488292"><ele>1339.0</ele><time>2026-04-24T14:13:00.999Z</time></trkpt><trkpt lat="31.093085119514488" lon="-7.140788614990346"><ele>1338.0</ele><time>2026-04-24T14:13:01.999Z</time></trkpt><trkpt lat="31.09298942706001" lon="-7.140892833460584"><ele>1337.0</ele><time>2026-04-24T14:13:02.999Z</time></trkpt><trkpt lat="31.092912629467587" lon="-7.140979099825168"><ele>1337.0</ele><time>2026-04-24T14:13:03.999Z</time></trkpt><trkpt lat="31.092846405246124" lon="-7.141044049975368"><ele>1337.0</ele><time>2026-04-24T14:13:04.999Z</time></trkpt><trkpt lat="31.0927810468379" lon="-7.141089147225403"><ele>1337.0</ele><time>2026-04-24T14:13:05.999Z</time></trkpt><trkpt lat="31.092711039352373" lon="-7.141129377652743"><ele>1337.0</ele><time>2026-04-24T14:13:07Z</time></trkpt><trkpt lat="31.092623007124402" lon="-7.141174878070179"><ele>1337.0</ele><time>2026-04-24T14:13:08Z</time></trkpt><trkpt lat="31.092517188202425" lon="-7.141209459693925"><ele>1337.0</ele><time>2026-04-24T14:13:09Z</time></trkpt><trkpt lat="31.092399188729928" lon="-7.1412319908238935"><ele>1339.0</ele><time>2026-04-24T14:13:10Z</time></trkpt><trkpt lat="31.09227081499919" lon="-7.141253121327333"><ele>1341.0</ele><time>2026-04-24T14:13:11Z</time></trkpt><trkpt lat="31.09213365119863" lon="-7.141274342132548"><ele>1343.0</ele><time>2026-04-24T14:13:12Z</time></trkpt><trkpt lat="31.09199518358318" lon="-7.1412916417881975"><ele>1345.0</ele><time>2026-04-24T14:13:13Z</time></trkpt><trkpt lat="31.091849569179566" lon="-7.141304508074979"><ele>1345.0</ele><time>2026-04-24T14:13:14Z</time></trkpt><trkpt lat="31.09169809479271" lon="-7.141316634741796"><ele>1345.0</ele><time>2026-04-24T14:13:15Z</time></trkpt><trkpt lat="31.09154353267186" lon="-7.141330809889146"><ele>1345.0</ele><time>2026-04-24T14:13:16Z</time></trkpt><trkpt lat="31.091388763226607" lon="-7.141346757421165"><ele>1344.0</ele><time>2026-04-24T14:13:17Z</time></trkpt><trkpt lat="31.09123501600848" lon="-7.141361869801858"><ele>1343.0</ele><time>2026-04-24T14:13:18Z</time></trkpt><trkpt lat="31.091083934935376" lon="-7.1413752737136456"><ele>1342.0</ele><time>2026-04-24T14:13:19Z</time></trkpt><trkpt lat="31.090931716178513" lon="-7.14138950858453"><ele>1342.0</ele><time>2026-04-24T14:13:20Z</time></trkpt><trkpt lat="31.090779030704944" lon="-7.141412969142118"><ele>1342.0</ele><time>2026-04-24T14:13:21Z</time></trkpt><trkpt lat="31.090627250094126" lon="-7.141450743526257"><ele>1342.0</ele><time>2026-04-24T14:13:22Z</time></trkpt><trkpt lat="31.090475635358935" lon="-7.141494809019723"><ele>1340.3333333333333</ele><time>2026-04-24T14:13:23Z</time></trkpt><trkpt lat="31.090324331230107" lon="-7.141558930578356"><ele>1338.6666666666667</ele><time>2026-04-24T14:13:24Z</time></trkpt><trkpt lat="31.090168565072393" lon="-7.141632279009338"><ele>1337.0</ele><time>2026-04-24T14:13:25Z</time></trkpt><trkpt lat="31.0900029193079" lon="-7.1417092648232074"><ele>1335.6666666666667</ele><time>2026-04-24T14:13:26Z</time></trkpt><trkpt lat="31.089829863840542" lon="-7.141785912124567"><ele>1334.3333333333333</ele><time>2026-04-24T14:13:27Z</time></trkpt><trkpt lat="31.089656612032872" lon="-7.141861161280306"><ele>1333.0</ele><time>2026-04-24T14:13:28Z</time></trkpt><trkpt lat="31.08948978120394" lon="-7.141934031992877"><ele>1333.0</ele><time>2026-04-24T14:13:29Z</time></trkpt><trkpt lat="31.089328665766686" lon="-7.1420114365501135"><ele>1333.0</ele><time>2026-04-24T14:13:30Z</time></trkpt><trkpt lat="31.089167896073818" lon="-7.142109127608901"><ele>1333.0</ele><time>2026-04-24T14:13:31Z</time></trkpt><trkpt lat="31.08901176375484" lon="-7.1422301076115255"><ele>1333.3333333333333</ele><time>2026-04-24T14:13:32Z</time></trkpt><trkpt lat="31.088862911568118" lon="-7.142366322029719"><ele>1333.6666666666667</ele><time>2026-04-24T14:13:33Z</time></trkpt><trkpt lat="31.08871419619511" lon="-7.142511864687704"><ele>1334.0</ele><time>2026-04-24T14:13:34Z</time></trkpt><trkpt lat="31.088563831530152" lon="-7.1426623467214245"><ele>1334.0</ele><time>2026-04-24T14:13:35Z</time></trkpt><trkpt lat="31.088413715148754" lon="-7.142815713412983"><ele>1334.0</ele><time>2026-04-24T14:13:36Z</time></trkpt><trkpt lat="31.088263299697953" lon="-7.1429761254534885"><ele>1334.0</ele><time>2026-04-24T14:13:37Z</time></trkpt><trkpt lat="31.088109578192554" lon="-7.1431381784359"><ele>1333.0</ele><time>2026-04-24T14:13:38Z</time></trkpt><trkpt lat="31.087956172397835" lon="-7.1432942589574875"><ele>1332.0</ele><time>2026-04-24T14:13:39Z</time></trkpt><trkpt lat="31.087808950733663" lon="-7.1434442018549476"><ele>1331.0</ele><time>2026-04-24T14:13:40Z</time></trkpt><trkpt lat="31.087665957843694" lon="-7.143578141789224"><ele>1331.0</ele><time>2026-04-24T14:13:41Z</time></trkpt><trkpt lat="31.0875263410408" lon="-7.1437093438637245"><ele>1331.0</ele><time>2026-04-24T14:13:42Z</time></trkpt><trkpt lat="31.087381492759004" lon="-7.143844584959917"><ele>1331.0</ele><time>2026-04-24T14:13:43Z</time></trkpt><trkpt lat="31.08724095146081" lon="-7.143974403173636"><ele>1330.1999999999998</ele><time>2026-04-24T14:13:44Z</time></trkpt><trkpt lat="31.087130462555375" lon="-7.144083496536768"><ele>1329.3999999999999</ele><time>2026-04-24T14:13:45Z</time></trkpt><trkpt lat="31.087033869427813" lon="-7.144175124293207"><ele>1328.6</ele><time>2026-04-24T14:13:46Z</time></trkpt><trkpt lat="31.086958027710192" lon="-7.144244833988007"><ele>1327.8</ele><time>2026-04-24T14:13:47Z</time></trkpt><trkpt lat="31.08690305899643" lon="-7.144298165578632"><ele>1327.0</ele><time>2026-04-24T14:13:48Z</time></trkpt><trkpt lat="31.08685094843177" lon="-7.144364790359855"><ele>1327.0000000000002</ele><time>2026-04-24T14:13:50Z</time></trkpt><trkpt lat="31.08680007560097" lon="-7.144410933919529"><ele>1327.0</ele><time>2026-04-24T14:14:01Z</time></trkpt><trkpt lat="31.08673735283919" lon="-7.14443762134652"><ele>1327.0</ele><time>2026-04-24T14:14:17Z</time></trkpt><trkpt lat="31.08666887150668" lon="-7.1444749887276355"><ele>1327.0</ele><time>2026-04-24T14:14:19Z</time></trkpt><trkpt lat="31.086610392832828" lon="-7.144508565708536"><ele>1327.0</ele><time>2026-04-24T14:14:20Z</time></trkpt><trkpt lat="31.086539996806746" lon="-7.1445441998458925"><ele>1327.0000000000002</ele><time>2026-04-24T14:14:21Z</time></trkpt><trkpt lat="31.086459010774952" lon="-7.144580059295868"><ele>1327.0</ele><time>2026-04-24T14:14:22Z</time></trkpt><trkpt lat="31.086372711683467" lon="-7.14461305298001"><ele>1326.6</ele><time>2026-04-24T14:14:23Z</time></trkpt><trkpt lat="31.086280382282375" lon="-7.144641925191994"><ele>1326.1999999999998</ele><time>2026-04-24T14:14:24Z</time></trkpt><trkpt lat="31.08617995255672" lon="-7.144663274253187"><ele>1325.8</ele><time>2026-04-24T14:14:25Z</time></trkpt><trkpt lat="31.08607594184832" lon="-7.144668880835253"><ele>1325.4</ele><time>2026-04-24T14:14:26Z</time></trkpt><trkpt lat="31.085971434220834" lon="-7.144664293142396"><ele>1325.0</ele><time>2026-04-24T14:14:27Z</time></trkpt><trkpt lat="31.085860294428276" lon="-7.144620030213467"><ele>1323.75</ele><time>2026-04-24T14:14:28Z</time></trkpt><trkpt lat="31.085739310144273" lon="-7.144563348954361"><ele>1322.5</ele><time>2026-04-24T14:14:28.999Z</time></trkpt><trkpt lat="31.085609587232575" lon="-7.14450186670926"><ele>1321.25</ele><time>2026-04-24T14:14:29.999Z</time></trkpt><trkpt lat="31.085466243269096" lon="-7.144433640658276"><ele>1320.0</ele><time>2026-04-24T14:14:30.999Z</time></trkpt><trkpt lat="31.085310614266778" lon="-7.1443624197177815"><ele>1320.0</ele><time>2026-04-24T14:14:31.999Z</time></trkpt><trkpt lat="31.085148816908372" lon="-7.144290627457153"><ele>1320.0</ele><time>2026-04-24T14:14:32.999Z</time></trkpt><trkpt lat="31.0849583958479" lon="-7.144219717779617"><ele>1320.0</ele><time>2026-04-24T14:14:33.999Z</time></trkpt><trkpt lat="31.084750317184078" lon="-7.144150805732626"><ele>1322.5</ele><time>2026-04-24T14:14:34.999Z</time></trkpt><trkpt lat="31.084509234898913" lon="-7.144098593819578"><ele>1325.0</ele><time>2026-04-24T14:14:35.999Z</time></trkpt><trkpt lat="31.08428268952452" lon="-7.144057746161284"><ele>1326.6666666666667</ele><time>2026-04-24T14:14:36.999Z</time></trkpt><trkpt lat="31.084072521020023" lon="-7.144020364430067"><ele>1328.3333333333333</ele><time>2026-04-24T14:14:37.999Z</time></trkpt><trkpt lat="31.083868878850733" lon="-7.144022868220627"><ele>1330.0</ele><time>2026-04-24T14:14:38.999Z</time></trkpt><trkpt lat="31.08367384255429" lon="-7.14398728972797"><ele>1330.0</ele><time>2026-04-24T14:14:39.999Z</time></trkpt><trkpt lat="31.08349090489486" lon="-7.143938138725397"><ele>1330.0</ele><time>2026-04-24T14:14:40.999Z</time></trkpt><trkpt lat="31.083322311886597" lon="-7.143870503928924"><ele>1330.0</ele><time>2026-04-24T14:14:41.999Z</time></trkpt><trkpt lat="31.08316849335043" lon="-7.1437936822576"><ele>1328.0</ele><time>2026-04-24T14:14:42.999Z</time></trkpt><trkpt lat="31.08301899080174" lon="-7.143705660104876"><ele>1326.0</ele><time>2026-04-24T14:14:43.999Z</time></trkpt><trkpt lat="31.082874978300804" lon="-7.143633260013342"><ele>1324.0</ele><time>2026-04-24T14:14:44.999Z</time></trkpt><trkpt lat="31.08273183560822" lon="-7.143564788978631"><ele>1324.0</ele><time>2026-04-24T14:14:46Z</time></trkpt><trkpt lat="31.08258941929615" lon="-7.143503187414873"><ele>1324.0</ele><time>2026-04-24T14:14:46.999Z</time></trkpt><trkpt lat="31.082438343981426" lon="-7.143445737815477"><ele>1324.0</ele><time>2026-04-24T14:14:47.999Z</time></trkpt><trkpt lat="31.082282989161826" lon="-7.143391505907717"><ele>1323.0</ele><time>2026-04-24T14:14:48.999Z</time></trkpt><trkpt lat="31.082125077272366" lon="-7.143338512204434"><ele>1322.0</ele><time>2026-04-24T14:14:49.999Z</time></trkpt><trkpt lat="31.081962623120624" lon="-7.143299051824239"><ele>1321.0</ele><time>2026-04-24T14:14:50.999Z</time></trkpt><trkpt lat="31.08179738044187" lon="-7.143269914828038"><ele>1321.0</ele><time>2026-04-24T14:14:51.999Z</time></trkpt><trkpt lat="31.08163588081154" lon="-7.14326096670875"><ele>1321.0</ele><time>2026-04-24T14:14:52.999Z</time></trkpt><trkpt lat="31.081479993791316" lon="-7.1432613167511665"><ele>1321.0</ele><time>2026-04-24T14:14:53.999Z</time></trkpt><trkpt lat="31.081323983566104" lon="-7.143269040493257"><ele>1319.5</ele><time>2026-04-24T14:14:54.999Z</time></trkpt><trkpt lat="31.081181425547793" lon="-7.143268006011691"><ele>1318.0</ele><time>2026-04-24T14:14:55.999Z</time></trkpt><trkpt lat="31.08104135593034" lon="-7.143251343834961"><ele>1316.5</ele><time>2026-04-24T14:14:56.999Z</time></trkpt><trkpt lat="31.080895281886548" lon="-7.143205040075152"><ele>1315.0</ele><time>2026-04-24T14:14:57.999Z</time></trkpt><trkpt lat="31.080753871233917" lon="-7.143128033526703"><ele>1319.3333333333333</ele><time>2026-04-24T14:14:58.999Z</time></trkpt><trkpt lat="31.08060700530594" lon="-7.143016306202524"><ele>1323.6666666666667</ele><time>2026-04-24T14:14:59.999Z</time></trkpt><trkpt lat="31.0804587581136" lon="-7.1428670142814665"><ele>1328.0</ele><time>2026-04-24T14:15:00.999Z</time></trkpt><trkpt lat="31.08032058125476" lon="-7.1427183571601525"><ele>1328.0</ele><time>2026-04-24T14:15:01.999Z</time></trkpt><trkpt lat="31.08018162975868" lon="-7.142561350274734"><ele>1328.0</ele><time>2026-04-24T14:15:02.999Z</time></trkpt><trkpt lat="31.080026600420794" lon="-7.142389719381872"><ele>1328.0</ele><time>2026-04-24T14:15:03.999Z</time></trkpt><trkpt lat="31.07987630935352" lon="-7.142224390554228"><ele>1326.3333333333335</ele><time>2026-04-24T14:15:04.999Z</time></trkpt><trkpt lat="31.07971917087599" lon="-7.1420627909279855"><ele>1324.6666666666667</ele><time>2026-04-24T14:15:05.999Z</time></trkpt><trkpt lat="31.07956194418814" lon="-7.141909412909812"><ele>1323.0</ele><time>2026-04-24T14:15:06.999Z</time></trkpt><trkpt lat="31.079400550589853" lon="-7.141771650463758"><ele>1323.0</ele><time>2026-04-24T14:15:07.999Z</time></trkpt><trkpt lat="31.07922787832596" lon="-7.141675526346993"><ele>1323.0</ele><time>2026-04-24T14:15:08.999Z</time></trkpt><trkpt lat="31.079058192225904" lon="-7.141595400414412"><ele>1323.0</ele><time>2026-04-24T14:15:09.999Z</time></trkpt><trkpt lat="31.078891229182904" lon="-7.1415337538256445"><ele>1323.6666666666667</ele><time>2026-04-24T14:15:10.999Z</time></trkpt><trkpt lat="31.07872362602864" lon="-7.1414904455109"><ele>1324.3333333333335</ele><time>2026-04-24T14:15:11.999Z</time></trkpt><trkpt lat="31.078552146958874" lon="-7.141445609570091"><ele>1325.0</ele><time>2026-04-24T14:15:13Z</time></trkpt><trkpt lat="31.078378311475458" lon="-7.141481256512885"><ele>1324.0</ele><time>2026-04-24T14:15:14Z</time></trkpt><trkpt lat="31.078191044118526" lon="-7.141518015643011"><ele>1323.0</ele><time>2026-04-24T14:15:15Z</time></trkpt><trkpt lat="31.07800475160324" lon="-7.141562305669184"><ele>1322.0</ele><time>2026-04-24T14:15:16Z</time></trkpt><trkpt lat="31.077804246231327" lon="-7.141612977348867"><ele>1319.6666666666667</ele><time>2026-04-24T14:15:17Z</time></trkpt><trkpt lat="31.077605444555868" lon="-7.1416828232239205"><ele>1317.3333333333333</ele><time>2026-04-24T14:15:18Z</time></trkpt><trkpt lat="31.07740441531154" lon="-7.141754574508843"><ele>1315.0</ele><time>2026-04-24T14:15:19Z</time></trkpt><trkpt lat="31.077196803576836" lon="-7.141804640353868"><ele>1312.6666666666665</ele><time>2026-04-24T14:15:20Z</time></trkpt><trkpt lat="31.07698956617755" lon="-7.141863740939842"><ele>1310.3333333333333</ele><time>2026-04-24T14:15:21Z</time></trkpt><trkpt lat="31.07678559491842" lon="-7.141929591970673"><ele>1308.0</ele><time>2026-04-24T14:15:22Z</time></trkpt><trkpt lat="31.076580557909253" lon="-7.141995880572275"><ele>1306.0</ele><time>2026-04-24T14:15:23Z</time></trkpt><trkpt lat="31.076377221000133" lon="-7.1420633472224555"><ele>1304.0</ele><time>2026-04-24T14:15:24Z</time></trkpt><trkpt lat="31.076175112163263" lon="-7.142127964240075"><ele>1302.0</ele><time>2026-04-24T14:15:25Z</time></trkpt><trkpt lat="31.07597765908343" lon="-7.142175252709065"><ele>1302.0</ele><time>2026-04-24T14:15:26Z</time></trkpt><trkpt lat="31.07578794992371" lon="-7.142241431168085"><ele>1302.0</ele><time>2026-04-24T14:15:27Z</time></trkpt><trkpt lat="31.075613901482416" lon="-7.142299817499772"><ele>1302.0</ele><time>2026-04-24T14:15:28Z</time></trkpt><trkpt lat="31.075441388461975" lon="-7.142356970401586"><ele>1300.0</ele><time>2026-04-24T14:15:29Z</time></trkpt><trkpt lat="31.07527218560677" lon="-7.1424198804079175"><ele>1298.0</ele><time>2026-04-24T14:15:30Z</time></trkpt><trkpt lat="31.075104423729105" lon="-7.142464644744805"><ele>1296.0</ele><time>2026-04-24T14:15:31Z</time></trkpt><trkpt lat="31.07493938446135" lon="-7.1424942240498925"><ele>1296.6666666666667</ele><time>2026-04-24T14:15:32Z</time></trkpt><trkpt lat="31.074790229988597" lon="-7.14250292308692"><ele>1297.3333333333335</ele><time>2026-04-24T14:15:33Z</time></trkpt><trkpt lat="31.074625783086145" lon="-7.142501042916601"><ele>1298.0</ele><time>2026-04-24T14:15:34Z</time></trkpt><trkpt lat="31.07444927046746" lon="-7.142471874813058"><ele>1298.0</ele><time>2026-04-24T14:15:35Z</time></trkpt><trkpt lat="31.074262250903246" lon="-7.142419126642846"><ele>1298.0</ele><time>2026-04-24T14:15:36Z</time></trkpt><trkpt lat="31.074077382334814" lon="-7.142320936845826"><ele>1298.0</ele><time>2026-04-24T14:15:37Z</time></trkpt><trkpt lat="31.0738776410025" lon="-7.1422376719549545"><ele>1296.6666666666667</ele><time>2026-04-24T14:15:38Z</time></trkpt><trkpt lat="31.07368282133132" lon="-7.142155349734404"><ele>1295.3333333333333</ele><time>2026-04-24T14:15:39Z</time></trkpt><trkpt lat="31.073496184491578" lon="-7.142074697099396"><ele>1294.0</ele><time>2026-04-24T14:15:40Z</time></trkpt><trkpt lat="31.073304920174866" lon="-7.142000473306182"><ele>1292.0</ele><time>2026-04-24T14:15:41Z</time></trkpt><trkpt lat="31.073105052621766" lon="-7.14193827291054"><ele>1290.0</ele><time>2026-04-24T14:15:42Z</time></trkpt><trkpt lat="31.072893458485762" lon="-7.141906907417583"><ele>1288.0</ele><time>2026-04-24T14:15:43Z</time></trkpt><trkpt lat="31.072692916308874" lon="-7.141897388995942"><ele>1288.0</ele><time>2026-04-24T14:15:44Z</time></trkpt><trkpt lat="31.072490224904794" lon="-7.1418784336082215"><ele>1288.0</ele><time>2026-04-24T14:15:45Z</time></trkpt><trkpt lat="31.072282102134867" lon="-7.141855308385245"><ele>1288.0</ele><time>2026-04-24T14:15:46Z</time></trkpt><trkpt lat="31.072070146974294" lon="-7.141829434021479"><ele>1289.3333333333333</ele><time>2026-04-24T14:15:47Z</time></trkpt><trkpt lat="31.071874281101945" lon="-7.141802928700437"><ele>1290.6666666666667</ele><time>2026-04-24T14:15:48Z</time></trkpt><trkpt lat="31.0716856255412" lon="-7.141781941313086"><ele>1292.0</ele><time>2026-04-24T14:15:49Z</time></trkpt><trkpt lat="31.07149484101174" lon="-7.1417593463664755"><ele>1294.3333333333335</ele><time>2026-04-24T14:15:50Z</time></trkpt><trkpt lat="31.07130925226497" lon="-7.141744245302381"><ele>1296.6666666666667</ele><time>2026-04-24T14:15:51Z</time></trkpt><trkpt lat="31.071130354703254" lon="-7.141731313175154"><ele>1299.0</ele><time>2026-04-24T14:15:52Z</time></trkpt><trkpt lat="31.070960959328318" lon="-7.141719276135478"><ele>1299.0</ele><time>2026-04-24T14:15:53Z</time></trkpt><trkpt lat="31.070799711880046" lon="-7.1416999978473275"><ele>1299.0</ele><time>2026-04-24T14:15:54Z</time></trkpt><trkpt lat="31.070637093031273" lon="-7.141696809566709"><ele>1299.0</ele><time>2026-04-24T14:15:55Z</time></trkpt><trkpt lat="31.070470491162393" lon="-7.141670612182265"><ele>1300.3333333333333</ele><time>2026-04-24T14:15:56Z</time></trkpt><trkpt lat="31.07030509679897" lon="-7.141639500758055"><ele>1301.6666666666665</ele><time>2026-04-24T14:15:57Z</time></trkpt><trkpt lat="31.070131290713295" lon="-7.141577890192997"><ele>1303.0</ele><time>2026-04-24T14:15:58Z</time></trkpt><trkpt lat="31.06996296406839" lon="-7.1415025400737715"><ele>1300.6666666666665</ele><time>2026-04-24T14:15:59Z</time></trkpt><trkpt lat="31.069791200399514" lon="-7.141441914275292"><ele>1298.3333333333333</ele><time>2026-04-24T14:16:00Z</time></trkpt><trkpt lat="31.06960984287956" lon="-7.141400695858851"><ele>1296.0</ele><time>2026-04-24T14:16:01Z</time></trkpt><trkpt lat="31.069424270985994" lon="-7.141385313495515"><ele>1296.0</ele><time>2026-04-24T14:16:02Z</time></trkpt><trkpt lat="31.069233557198064" lon="-7.141387989247851"><ele>1296.0</ele><time>2026-04-24T14:16:03Z</time></trkpt><trkpt lat="31.069038998497334" lon="-7.141398807532784"><ele>1296.0</ele><time>2026-04-24T14:16:04Z</time></trkpt><trkpt lat="31.068851027971906" lon="-7.141425290342655"><ele>1296.0</ele><time>2026-04-24T14:16:05Z</time></trkpt><trkpt lat="31.068670396164716" lon="-7.141457951671856"><ele>1296.0</ele><time>2026-04-24T14:16:06Z</time></trkpt><trkpt lat="31.06850646817088" lon="-7.141507491030598"><ele>1296.0</ele><time>2026-04-24T14:16:07Z</time></trkpt><trkpt lat="31.068360838243777" lon="-7.14156472952692"><ele>1296.1999999999998</ele><time>2026-04-24T14:16:08Z</time></trkpt><trkpt lat="31.068225933960854" lon="-7.141620373068697"><ele>1296.3999999999999</ele><time>2026-04-24T14:16:09Z</time></trkpt><trkpt lat="31.06812249555991" lon="-7.141675685493623"><ele>1296.6</ele><time>2026-04-24T14:16:10Z</time></trkpt><trkpt lat="31.068034117205126" lon="-7.141721688806491"><ele>1296.8</ele><time>2026-04-24T14:16:11Z</time></trkpt><trkpt lat="31.067963078902576" lon="-7.141765488816107"><ele>1297.0</ele><time>2026-04-24T14:16:12Z</time></trkpt><trkpt lat="31.067903462122167" lon="-7.141809136856405"><ele>1297.0</ele><time>2026-04-24T14:16:13Z</time></trkpt><trkpt lat="31.067843663068576" lon="-7.141850837478798"><ele>1297.0</ele><time>2026-04-24T14:16:14Z</time></trkpt><trkpt lat="31.06779190387861" lon="-7.141898993637951"><ele>1297.0</ele><time>2026-04-24T14:16:15Z</time></trkpt><trkpt lat="31.06768797429271" lon="-7.141990073723075"><ele>1297.0</ele><time>2026-04-24T14:16:17Z</time></trkpt><trkpt lat="31.06762876482281" lon="-7.142043800325476"><ele>1297.0</ele><time>2026-04-24T14:16:18Z</time></trkpt><trkpt lat="31.067569779615" lon="-7.14212040193092"><ele>1297.0</ele><time>2026-04-24T14:16:19Z</time></trkpt><trkpt lat="31.067511503371545" lon="-7.142232926630119"><ele>1297.0</ele><time>2026-04-24T14:16:20Z</time></trkpt><trkpt lat="31.06745841688141" lon="-7.142378301157359"><ele>1297.0</ele><time>2026-04-24T14:16:21Z</time></trkpt><trkpt lat="31.067396966267093" lon="-7.142532042513934"><ele>1297.0</ele><time>2026-04-24T14:16:22Z</time></trkpt><trkpt lat="31.067341991428027" lon="-7.14269708653861"><ele>1297.0</ele><time>2026-04-24T14:16:23Z</time></trkpt><trkpt lat="31.06728101567731" lon="-7.142864501868014"><ele>1298.0</ele><time>2026-04-24T14:16:24Z</time></trkpt><trkpt lat="31.06721820362929" lon="-7.1430504497655765"><ele>1299.0</ele><time>2026-04-24T14:16:25Z</time></trkpt><trkpt lat="31.067156558548568" lon="-7.143244791772089"><ele>1300.0</ele><time>2026-04-24T14:16:26Z</time></trkpt><trkpt lat="31.06707735551564" lon="-7.143431209365795"><ele>1300.6666666666665</ele><time>2026-04-24T14:16:26.999Z</time></trkpt><trkpt lat="31.066994793447346" lon="-7.143619376707856"><ele>1301.3333333333333</ele><time>2026-04-24T14:16:27.999Z</time></trkpt><trkpt lat="31.06689915853003" lon="-7.1437991211933065"><ele>1302.0</ele><time>2026-04-24T14:16:28.999Z</time></trkpt><trkpt lat="31.06678420922367" lon="-7.143958779126137"><ele>1302.3333333333333</ele><time>2026-04-24T14:16:29.999Z</time></trkpt><trkpt lat="31.066648395989606" lon="-7.144103858730032"><ele>1302.6666666666665</ele><time>2026-04-24T14:16:30.999Z</time></trkpt><trkpt lat="31.06649268458251" lon="-7.144230546592687"><ele>1303.0</ele><time>2026-04-24T14:16:31.999Z</time></trkpt><trkpt lat="31.066333037623547" lon="-7.144353927296339"><ele>1303.0</ele><time>2026-04-24T14:16:32.999Z</time></trkpt><trkpt lat="31.06615023043462" lon="-7.144458804064226"><ele>1303.0</ele><time>2026-04-24T14:16:33.999Z</time></trkpt><trkpt lat="31.065945471280838" lon="-7.144549601654316"><ele>1303.0</ele><time>2026-04-24T14:16:34.999Z</time></trkpt><trkpt lat="31.0657278604861" lon="-7.144627127997586"><ele>1301.5</ele><time>2026-04-24T14:16:35.999Z</time></trkpt><trkpt lat="31.06550789320903" lon="-7.1446849718448"><ele>1300.0</ele><time>2026-04-24T14:16:36.999Z</time></trkpt><trkpt lat="31.06527539820808" lon="-7.144723785320242"><ele>1300.0</ele><time>2026-04-24T14:16:37.999Z</time></trkpt><trkpt lat="31.065035338895484" lon="-7.144768149555675"><ele>1300.0</ele><time>2026-04-24T14:16:38.999Z</time></trkpt><trkpt lat="31.064814700491894" lon="-7.144811362850375"><ele>1299.6666666666665</ele><time>2026-04-24T14:16:39.999Z</time></trkpt><trkpt lat="31.064592097288493" lon="-7.1448559084961385"><ele>1299.3333333333333</ele><time>2026-04-24T14:16:40.999Z</time></trkpt><trkpt lat="31.064374536902204" lon="-7.144899241170269"><ele>1299.0</ele><time>2026-04-24T14:16:41.999Z</time></trkpt><trkpt lat="31.064161645245182" lon="-7.144940641007992"><ele>1299.3333333333333</ele><time>2026-04-24T14:16:42.999Z</time></trkpt><trkpt lat="31.06395276043988" lon="-7.144980775733318"><ele>1299.6666666666665</ele><time>2026-04-24T14:16:43.999Z</time></trkpt><trkpt lat="31.06374891745345" lon="-7.1450207140868"><ele>1300.0</ele><time>2026-04-24T14:16:44.999Z</time></trkpt><trkpt lat="31.063544855396113" lon="-7.145060662510906"><ele>1300.0</ele><time>2026-04-24T14:16:45.999Z</time></trkpt><trkpt lat="31.0633421429223" lon="-7.145101410658263"><ele>1300.0</ele><time>2026-04-24T14:16:46.999Z</time></trkpt><trkpt lat="31.063135991576267" lon="-7.145141981651105"><ele>1300.0</ele><time>2026-04-24T14:16:47.999Z</time></trkpt><trkpt lat="31.062939220104774" lon="-7.145206619239614"><ele>1300.6666666666665</ele><time>2026-04-24T14:16:48.999Z</time></trkpt><trkpt lat="31.062744034358282" lon="-7.145249317084496"><ele>1301.3333333333333</ele><time>2026-04-24T14:16:49.999Z</time></trkpt><trkpt lat="31.062552390578446" lon="-7.145291240098999"><ele>1302.0</ele><time>2026-04-24T14:16:50.999Z</time></trkpt><trkpt lat="31.06236278164953" lon="-7.145332717979727"><ele>1303.3333333333333</ele><time>2026-04-24T14:16:51.999Z</time></trkpt><trkpt lat="31.062173252240346" lon="-7.145372356898649"><ele>1304.6666666666665</ele><time>2026-04-24T14:16:52.999Z</time></trkpt><trkpt lat="31.06197606903948" lon="-7.145413441118906"><ele>1306.0</ele><time>2026-04-24T14:16:53.999Z</time></trkpt><trkpt lat="31.061764465386116" lon="-7.145453588970514"><ele>1306.0</ele><time>2026-04-24T14:16:54.999Z</time></trkpt><trkpt lat="31.06155561983014" lon="-7.145493190318845"><ele>1306.0</ele><time>2026-04-24T14:16:55.999Z</time></trkpt><trkpt lat="31.061347802712024" lon="-7.14551752285072"><ele>1306.0</ele><time>2026-04-24T14:16:56.999Z</time></trkpt><trkpt lat="31.061122008216824" lon="-7.1455251298954225"><ele>1306.0</ele><time>2026-04-24T14:16:57.999Z</time></trkpt><trkpt lat="31.060889477527947" lon="-7.14551667223769"><ele>1306.0</ele><time>2026-04-24T14:16:58.999Z</time></trkpt><trkpt lat="31.060665211864738" lon="-7.145483535648203"><ele>1304.5</ele><time>2026-04-24T14:16:59.999Z</time></trkpt><trkpt lat="31.060433861739664" lon="-7.145444969994759"><ele>1303.0</ele><time>2026-04-24T14:17:00.999Z</time></trkpt><trkpt lat="31.06021015586502" lon="-7.145376786929533"><ele>1303.0</ele><time>2026-04-24T14:17:01.999Z</time></trkpt><trkpt lat="31.059977567105207" lon="-7.145300041026527"><ele>1303.0</ele><time>2026-04-24T14:17:02.999Z</time></trkpt><trkpt lat="31.059754929269268" lon="-7.145204159482813"><ele>1303.5</ele><time>2026-04-24T14:17:03.999Z</time></trkpt><trkpt lat="31.059535612499168" lon="-7.145091827538377"><ele>1304.0</ele><time>2026-04-24T14:17:04.999Z</time></trkpt><trkpt lat="31.059324377309217" lon="-7.144941062968057"><ele>1302.5</ele><time>2026-04-24T14:17:05.999Z</time></trkpt><trkpt lat="31.05911090353106" lon="-7.14479278362246"><ele>1301.0</ele><time>2026-04-24T14:17:06.999Z</time></trkpt><trkpt lat="31.05890158611344" lon="-7.144626639773555"><ele>1301.0</ele><time>2026-04-24T14:17:07.999Z</time></trkpt><trkpt lat="31.058697340459982" lon="-7.144461721560417"><ele>1301.0</ele><time>2026-04-24T14:17:08.999Z</time></trkpt><trkpt lat="31.05849013261054" lon="-7.144299313715304"><ele>1300.0</ele><time>2026-04-24T14:17:09.999Z</time></trkpt><trkpt lat="31.05828266271969" lon="-7.1441576044582575"><ele>1299.0</ele><time>2026-04-24T14:17:10.999Z</time></trkpt><trkpt lat="31.0580745649224" lon="-7.144036096091648"><ele>1298.3333333333333</ele><time>2026-04-24T14:17:11.999Z</time></trkpt><trkpt lat="31.057863973361634" lon="-7.143938809464231"><ele>1297.6666666666665</ele><time>2026-04-24T14:17:12.999Z</time></trkpt><trkpt lat="31.057655280691552" lon="-7.143871622562684"><ele>1297.0</ele><time>2026-04-24T14:17:13.999Z</time></trkpt><trkpt lat="31.057451386426735" lon="-7.14383276283223"><ele>1296.3333333333333</ele><time>2026-04-24T14:17:14.999Z</time></trkpt><trkpt lat="31.057261036965144" lon="-7.143822713135393"><ele>1295.6666666666667</ele><time>2026-04-24T14:17:15.999Z</time></trkpt><trkpt lat="31.057065510023975" lon="-7.143823645606941"><ele>1295.0</ele><time>2026-04-24T14:17:16.999Z</time></trkpt><trkpt lat="31.056874211337647" lon="-7.143816521097869"><ele>1295.0</ele><time>2026-04-24T14:17:18Z</time></trkpt><trkpt lat="31.056685338044883" lon="-7.143804200878702"><ele>1295.0</ele><time>2026-04-24T14:17:19Z</time></trkpt><trkpt lat="31.056494464963745" lon="-7.143781614096978"><ele>1295.0</ele><time>2026-04-24T14:17:20Z</time></trkpt><trkpt lat="31.056295836077755" lon="-7.143742277327266"><ele>1295.3333333333335</ele><time>2026-04-24T14:17:21Z</time></trkpt><trkpt lat="31.056090926020808" lon="-7.143708524694992"><ele>1295.6666666666667</ele><time>2026-04-24T14:17:22Z</time></trkpt><trkpt lat="31.055897167475777" lon="-7.143630888100914"><ele>1296.0</ele><time>2026-04-24T14:17:23Z</time></trkpt><trkpt lat="31.055698893309707" lon="-7.143539849030083"><ele>1294.3333333333333</ele><time>2026-04-24T14:17:24Z</time></trkpt><trkpt lat="31.055501516538264" lon="-7.143425588135907"><ele>1292.6666666666665</ele><time>2026-04-24T14:17:25Z</time></trkpt><trkpt lat="31.055315139728837" lon="-7.143289098123068"><ele>1291.0</ele><time>2026-04-24T14:17:26Z</time></trkpt><trkpt lat="31.055129742554914" lon="-7.143142131061224"><ele>1291.6666666666665</ele><time>2026-04-24T14:17:27Z</time></trkpt><trkpt lat="31.054952715311405" lon="-7.142994778420545"><ele>1292.3333333333333</ele><time>2026-04-24T14:17:28Z</time></trkpt><trkpt lat="31.054766312548928" lon="-7.142858290253424"><ele>1293.0</ele><time>2026-04-24T14:17:29Z</time></trkpt><trkpt lat="31.054581483907068" lon="-7.142707510289252"><ele>1293.0</ele><time>2026-04-24T14:17:30Z</time></trkpt><trkpt lat="31.05438207139023" lon="-7.142595963780646"><ele>1293.0</ele><time>2026-04-24T14:17:31Z</time></trkpt><trkpt lat="31.054186785647655" lon="-7.142496483335665"><ele>1293.0</ele><time>2026-04-24T14:17:32Z</time></trkpt><trkpt lat="31.053995318082734" lon="-7.142408818080907"><ele>1293.0</ele><time>2026-04-24T14:17:33Z</time></trkpt><trkpt lat="31.053809860817392" lon="-7.1423317169428175"><ele>1293.0</ele><time>2026-04-24T14:17:34Z</time></trkpt><trkpt lat="31.05362818743413" lon="-7.142247340601167"><ele>1293.0</ele><time>2026-04-24T14:17:35Z</time></trkpt><trkpt lat="31.053435497912503" lon="-7.1421655885557005"><ele>1293.6666666666667</ele><time>2026-04-24T14:17:36Z</time></trkpt><trkpt lat="31.05324577940718" lon="-7.142061215964742"><ele>1294.3333333333335</ele><time>2026-04-24T14:17:37Z</time></trkpt><trkpt lat="31.053052298978027" lon="-7.141942317214172"><ele>1295.0</ele><time>2026-04-24T14:17:38Z</time></trkpt><trkpt lat="31.05284647844" lon="-7.141815836275813"><ele>1295.0</ele><time>2026-04-24T14:17:39Z</time></trkpt><trkpt lat="31.05262715988892" lon="-7.141681060530989"><ele>1295.0</ele><time>2026-04-24T14:17:40Z</time></trkpt><trkpt lat="31.05240849553613" lon="-7.141544732009827"><ele>1292.5</ele><time>2026-04-24T14:17:41Z</time></trkpt><trkpt lat="31.0522051659367" lon="-7.141392653464502"><ele>1290.0</ele><time>2026-04-24T14:17:42Z</time></trkpt><trkpt lat="31.051997694480395" lon="-7.141266255513318"><ele>1290.0</ele><time>2026-04-24T14:17:43Z</time></trkpt><trkpt lat="31.051792122095286" lon="-7.1411391144614065"><ele>1290.0</ele><time>2026-04-24T14:17:44Z</time></trkpt><trkpt lat="31.05159484580435" lon="-7.141013940946903"><ele>1290.3333333333333</ele><time>2026-04-24T14:17:45Z</time></trkpt><trkpt lat="31.051404134213833" lon="-7.140895165542202"><ele>1290.6666666666665</ele><time>2026-04-24T14:17:46Z</time></trkpt><trkpt lat="31.051218717917454" lon="-7.14078912813149"><ele>1291.0</ele><time>2026-04-24T14:17:47Z</time></trkpt><trkpt lat="31.05103092574676" lon="-7.1406951282709965"><ele>1291.0</ele><time>2026-04-24T14:17:48Z</time></trkpt><trkpt lat="31.050841468912644" lon="-7.140614333396269"><ele>1291.0</ele><time>2026-04-24T14:17:49Z</time></trkpt><trkpt lat="31.050644768438133" lon="-7.140537949921518"><ele>1291.0</ele><time>2026-04-24T14:17:50Z</time></trkpt><trkpt lat="31.050446884845503" lon="-7.140479816612804"><ele>1290.6666666666665</ele><time>2026-04-24T14:17:51Z</time></trkpt><trkpt lat="31.05024928810685" lon="-7.140425294271952"><ele>1290.3333333333333</ele><time>2026-04-24T14:17:52Z</time></trkpt><trkpt lat="31.050061900186023" lon="-7.140366330196595"><ele>1290.0</ele><time>2026-04-24T14:17:53Z</time></trkpt><trkpt lat="31.04988223095973" lon="-7.140301605020391"><ele>1288.6666666666667</ele><time>2026-04-24T14:17:54Z</time></trkpt><trkpt lat="31.049716914950913" lon="-7.140215722731044"><ele>1287.3333333333335</ele><time>2026-04-24T14:17:55Z</time></trkpt><trkpt lat="31.04955847100023" lon="-7.140106619751453"><ele>1286.0</ele><time>2026-04-24T14:17:56Z</time></trkpt><trkpt lat="31.049408936420424" lon="-7.139980092777745"><ele>1285.3333333333335</ele><time>2026-04-24T14:17:57Z</time></trkpt><trkpt lat="31.04925922712028" lon="-7.1398357609554575"><ele>1284.6666666666667</ele><time>2026-04-24T14:17:58Z</time></trkpt><trkpt lat="31.049118663127754" lon="-7.139657690503314"><ele>1284.0</ele><time>2026-04-24T14:17:59Z</time></trkpt><trkpt lat="31.048986181014048" lon="-7.139457441552063"><ele>1284.0</ele><time>2026-04-24T14:18:00Z</time></trkpt><trkpt lat="31.048870350030157" lon="-7.139239674428027"><ele>1284.0</ele><time>2026-04-24T14:18:01Z</time></trkpt><trkpt lat="31.048762746482854" lon="-7.139013831436555"><ele>1284.0</ele><time>2026-04-24T14:18:02Z</time></trkpt><trkpt lat="31.0486627077522" lon="-7.138786966903915"><ele>1283.6666666666667</ele><time>2026-04-24T14:18:03Z</time></trkpt><trkpt lat="31.048564190445756" lon="-7.13856407760376"><ele>1283.3333333333335</ele><time>2026-04-24T14:18:04Z</time></trkpt><trkpt lat="31.048465547544872" lon="-7.138339170943778"><ele>1283.0</ele><time>2026-04-24T14:18:05Z</time></trkpt><trkpt lat="31.04838660146123" lon="-7.138120189465107"><ele>1283.0</ele><time>2026-04-24T14:18:06Z</time></trkpt><trkpt lat="31.048313198783294" lon="-7.137917356461959"><ele>1283.0</ele><time>2026-04-24T14:18:07Z</time></trkpt><trkpt lat="31.04824698308746" lon="-7.137718504979235"><ele>1283.0</ele><time>2026-04-24T14:18:08Z</time></trkpt><trkpt lat="31.048181703187968" lon="-7.137534258482831"><ele>1284.6666666666667</ele><time>2026-04-24T14:18:09Z</time></trkpt><trkpt lat="31.048126138463847" lon="-7.137354158555824"><ele>1286.3333333333333</ele><time>2026-04-24T14:18:10Z</time></trkpt><trkpt lat="31.048074208030037" lon="-7.137177751894716"><ele>1288.0</ele><time>2026-04-24T14:18:11Z</time></trkpt><trkpt lat="31.048029988334303" lon="-7.137014255650902"><ele>1288.0</ele><time>2026-04-24T14:18:12Z</time></trkpt><trkpt lat="31.047983907733947" lon="-7.136858416440596"><ele>1288.0</ele><time>2026-04-24T14:18:13Z</time></trkpt><trkpt lat="31.04793883801726" lon="-7.136708109069642"><ele>1288.0</ele><time>2026-04-24T14:18:14Z</time></trkpt><trkpt lat="31.04789105964947" lon="-7.136562019036287"><ele>1288.0</ele><time>2026-04-24T14:18:15Z</time></trkpt><trkpt lat="31.047836554524043" lon="-7.136420476689012"><ele>1286.25</ele><time>2026-04-24T14:18:16Z</time></trkpt><trkpt lat="31.04777925940358" lon="-7.136286503726924"><ele>1284.5</ele><time>2026-04-24T14:18:17Z</time></trkpt><trkpt lat="31.04770826203246" lon="-7.136162985469102"><ele>1282.75</ele><time>2026-04-24T14:18:18Z</time></trkpt><trkpt lat="31.047630092526294" lon="-7.136052356996368"><ele>1281.0</ele><time>2026-04-24T14:18:19Z</time></trkpt><trkpt lat="31.047553862260603" lon="-7.135946284111346"><ele>1281.0</ele><time>2026-04-24T14:18:20Z</time></trkpt><trkpt lat="31.047480083934328" lon="-7.135845897469599"><ele>1281.0</ele><time>2026-04-24T14:18:21Z</time></trkpt><trkpt lat="31.047406672042108" lon="-7.135739936752984"><ele>1281.0</ele><time>2026-04-24T14:18:22Z</time></trkpt><trkpt lat="31.0473273599062" lon="-7.135640394147326"><ele>1281.0</ele><time>2026-04-24T14:18:22.999Z</time></trkpt><trkpt lat="31.047249808922277" lon="-7.135538427114198"><ele>1280.6</ele><time>2026-04-24T14:18:23.999Z</time></trkpt><trkpt lat="31.047177564103986" lon="-7.135442206138056"><ele>1280.1999999999998</ele><time>2026-04-24T14:18:24.999Z</time></trkpt><trkpt lat="31.04710565400011" lon="-7.13534548824255"><ele>1279.8000000000002</ele><time>2026-04-24T14:18:25.999Z</time></trkpt><trkpt lat="31.04703784834966" lon="-7.135248762661441"><ele>1279.4</ele><time>2026-04-24T14:18:26.999Z</time></trkpt><trkpt lat="31.046967549564645" lon="-7.135156731920866"><ele>1279.0</ele><time>2026-04-24T14:18:27.999Z</time></trkpt><trkpt lat="31.046898126647584" lon="-7.135063817706426"><ele>1279.0</ele><time>2026-04-24T14:18:28.999Z</time></trkpt><trkpt lat="31.04682842941378" lon="-7.134975024991212"><ele>1279.0</ele><time>2026-04-24T14:18:29.999Z</time></trkpt><trkpt lat="31.046754420868382" lon="-7.134890733220195"><ele>1279.0</ele><time>2026-04-24T14:18:30.999Z</time></trkpt><trkpt lat="31.046691208311273" lon="-7.134795008722067"><ele>1279.0</ele><time>2026-04-24T14:18:31.999Z</time></trkpt><trkpt lat="31.046633053094414" lon="-7.134712678538514"><ele>1279.0</ele><time>2026-04-24T14:18:32.999Z</time></trkpt><trkpt lat="31.046575782264206" lon="-7.1346383355244996"><ele>1279.0</ele><time>2026-04-24T14:18:33.999Z</time></trkpt><trkpt lat="31.046528191675606" lon="-7.134573412022399"><ele>1279.0</ele><time>2026-04-24T14:18:34.999Z</time></trkpt><trkpt lat="31.04648234831176" lon="-7.134514277611094"><ele>1279.0</ele><time>2026-04-24T14:18:35.999Z</time></trkpt><trkpt lat="31.04640934413768" lon="-7.134411996644802"><ele>1279.0</ele><time>2026-04-24T14:18:37.999Z</time></trkpt><trkpt lat="31.04634345413809" lon="-7.134335296954857"><ele>1279.0</ele><time>2026-04-24T14:18:39.999Z</time></trkpt><trkpt lat="31.046282116377366" lon="-7.1342492812618135"><ele>1279.0</ele><time>2026-04-24T14:18:41.999Z</time></trkpt><trkpt lat="31.04620580988264" lon="-7.134169587644424"><ele>1279.0</ele><time>2026-04-24T14:18:43.999Z</time></trkpt><trkpt lat="31.046138856208575" lon="-7.134105310030063"><ele>1279.0</ele><time>2026-04-24T14:18:45.999Z</time></trkpt><trkpt lat="31.04607949824567" lon="-7.134061059985821"><ele>1279.0</ele><time>2026-04-24T14:18:47.999Z</time></trkpt><trkpt lat="31.046017579321834" lon="-7.134015527476639"><ele>1279.0</ele><time>2026-04-24T14:18:50.999Z</time></trkpt><trkpt lat="31.045966001812765" lon="-7.133964275508256"><ele>1279.0</ele><time>2026-04-24T14:22:42.999Z</time></trkpt><trkpt lat="31.045905304913042" lon="-7.133882238203077"><ele>1279.0</ele><time>2026-04-24T14:22:44.999Z</time></trkpt><trkpt lat="31.045861374148263" lon="-7.133815164278928"><ele>1279.0</ele><time>2026-04-24T14:22:45.999Z</time></trkpt><trkpt lat="31.045810258161914" lon="-7.133750762844044"><ele>1279.0</ele><time>2026-04-24T14:22:46.999Z</time></trkpt><trkpt lat="31.045750440927595" lon="-7.133671742771909"><ele>1279.0</ele><time>2026-04-24T14:22:47.999Z</time></trkpt><trkpt lat="31.04568695880665" lon="-7.133588481126271"><ele>1279.0</ele><time>2026-04-24T14:22:48.999Z</time></trkpt><trkpt lat="31.04561860073432" lon="-7.133506787493203"><ele>1279.0</ele><time>2026-04-24T14:22:49.999Z</time></trkpt><trkpt lat="31.045548838840027" lon="-7.1334301518138465"><ele>1279.0</ele><time>2026-04-24T14:22:50.999Z</time></trkpt><trkpt lat="31.04547818139217" lon="-7.133358457039627"><ele>1279.0</ele><time>2026-04-24T14:22:51.999Z</time></trkpt><trkpt lat="31.045405317672877" lon="-7.133287280733192"><ele>1279.0</ele><time>2026-04-24T14:22:52.999Z</time></trkpt><trkpt lat="31.045334079845468" lon="-7.133213769767178"><ele>1279.0</ele><time>2026-04-24T14:22:53.999Z</time></trkpt><trkpt lat="31.045262232856782" lon="-7.1331420557328125"><ele>1279.0</ele><time>2026-04-24T14:22:54.999Z</time></trkpt><trkpt lat="31.04518766010325" lon="-7.133072250589432"><ele>1279.0</ele><time>2026-04-24T14:22:55.999Z</time></trkpt><trkpt lat="31.045118397978285" lon="-7.133003007557376"><ele>1279.0</ele><time>2026-04-24T14:22:56.999Z</time></trkpt><trkpt lat="31.04505480854231" lon="-7.132939927824762"><ele>1279.0</ele><time>2026-04-24T14:22:57.999Z</time></trkpt><trkpt lat="31.044993963031573" lon="-7.1328788279940225"><ele>1279.0</ele><time>2026-04-24T14:22:58.999Z</time></trkpt><trkpt lat="31.04493458281115" lon="-7.132815301365028"><ele>1279.0</ele><time>2026-04-24T14:22:59.999Z</time></trkpt><trkpt lat="31.044868948197365" lon="-7.132747739289345"><ele>1279.0</ele><time>2026-04-24T14:23:00.999Z</time></trkpt><trkpt lat="31.044796825489602" lon="-7.132678468883427"><ele>1279.0</ele><time>2026-04-24T14:23:01.999Z</time></trkpt><trkpt lat="31.044724074494585" lon="-7.132610149885656"><ele>1279.0</ele><time>2026-04-24T14:23:02.999Z</time></trkpt><trkpt lat="31.04465679685603" lon="-7.132549790470671"><ele>1279.0</ele><time>2026-04-24T14:23:03.999Z</time></trkpt><trkpt lat="31.04459928541998" lon="-7.13249486737231"><ele>1279.0</ele><time>2026-04-24T14:23:04.999Z</time></trkpt><trkpt lat="31.044551004979926" lon="-7.13244396076637"><ele>1279.0</ele><time>2026-04-24T14:23:05.999Z</time></trkpt><trkpt lat="31.04449928258193" lon="-7.132391184126436"><ele>1279.0</ele><time>2026-04-24T14:23:06.999Z</time></trkpt><trkpt lat="31.04442753301356" lon="-7.132346617251078"><ele>1279.0</ele><time>2026-04-24T14:23:07.999Z</time></trkpt><trkpt lat="31.04435914954182" lon="-7.1322821067893365"><ele>1279.0</ele><time>2026-04-24T14:23:08.999Z</time></trkpt><trkpt lat="31.044283071155515" lon="-7.132210206802257"><ele>1279.0</ele><time>2026-04-24T14:23:09.999Z</time></trkpt><trkpt lat="31.044198338997862" lon="-7.132130128326397"><ele>1279.0</ele><time>2026-04-24T14:23:10.999Z</time></trkpt><trkpt lat="31.04410801933931" lon="-7.132044112798008"><ele>1279.0</ele><time>2026-04-24T14:23:11.999Z</time></trkpt><trkpt lat="31.044019499721088" lon="-7.131946529058217"><ele>1279.5</ele><time>2026-04-24T14:23:12.999Z</time></trkpt><trkpt lat="31.04393491847987" lon="-7.131849751347756"><ele>1280.0</ele><time>2026-04-24T14:23:13.999Z</time></trkpt><trkpt lat="31.04384483043751" lon="-7.131757089470369"><ele>1280.5</ele><time>2026-04-24T14:23:14.999Z</time></trkpt><trkpt lat="31.04375399457669" lon="-7.13166277405747"><ele>1281.0</ele><time>2026-04-24T14:23:15.999Z</time></trkpt><trkpt lat="31.043673113867396" lon="-7.131555968042913"><ele>1281.0</ele><time>2026-04-24T14:23:16.999Z</time></trkpt><trkpt lat="31.043582332202526" lon="-7.131462202189662"><ele>1281.0</ele><time>2026-04-24T14:23:17.999Z</time></trkpt><trkpt lat="31.043492474672153" lon="-7.131365227857067"><ele>1281.0</ele><time>2026-04-24T14:23:18.999Z</time></trkpt><trkpt lat="31.04339030122483" lon="-7.1312832632674885"><ele>1281.0</ele><time>2026-04-24T14:23:19.999Z</time></trkpt><trkpt lat="31.04330262305677" lon="-7.131191570822329"><ele>1280.75</ele><time>2026-04-24T14:23:20.999Z</time></trkpt><trkpt lat="31.043219040799627" lon="-7.1310946277546"><ele>1280.5</ele><time>2026-04-24T14:23:21.999Z</time></trkpt><trkpt lat="31.043134755764157" lon="-7.130995557025132"><ele>1280.25</ele><time>2026-04-24T14:23:22.999Z</time></trkpt><trkpt lat="31.043050771029023" lon="-7.130897088773451"><ele>1280.0</ele><time>2026-04-24T14:23:23.999Z</time></trkpt><trkpt lat="31.042966858454324" lon="-7.130798705127507"><ele>1279.8</ele><time>2026-04-24T14:23:24.999Z</time></trkpt><trkpt lat="31.042886315407195" lon="-7.130704272028047"><ele>1279.6</ele><time>2026-04-24T14:23:25.999Z</time></trkpt><trkpt lat="31.04281937289856" lon="-7.130598200851603"><ele>1279.4</ele><time>2026-04-24T14:23:26.999Z</time></trkpt><trkpt lat="31.042741276451768" lon="-7.1305104517314595"><ele>1279.2</ele><time>2026-04-24T14:23:27.999Z</time></trkpt><trkpt lat="31.042665238481323" lon="-7.130424813915325"><ele>1279.0</ele><time>2026-04-24T14:23:28.999Z</time></trkpt><trkpt lat="31.042595629328254" lon="-7.130339843186392"><ele>1279.0</ele><time>2026-04-24T14:23:29.999Z</time></trkpt><trkpt lat="31.042530435467263" lon="-7.130263301534588"><ele>1279.0</ele><time>2026-04-24T14:23:30.999Z</time></trkpt><trkpt lat="31.04246862710638" lon="-7.130190951757172"><ele>1279.0</ele><time>2026-04-24T14:23:31.999Z</time></trkpt><trkpt lat="31.04240863194555" lon="-7.130126962455325"><ele>1279.0</ele><time>2026-04-24T14:23:32.999Z</time></trkpt><trkpt lat="31.042353197897736" lon="-7.130069987735656"><ele>1279.0</ele><time>2026-04-24T14:23:33.999Z</time></trkpt><trkpt lat="31.042278274851668" lon="-7.129982484362726"><ele>1279.0</ele><time>2026-04-24T14:23:36Z</time></trkpt><trkpt lat="31.042226119163836" lon="-7.129917386701205"><ele>1278.5</ele><time>2026-04-24T14:24:00Z</time></trkpt><trkpt lat="31.042181109795617" lon="-7.129863839582039"><ele>1278.0</ele><time>2026-04-24T14:25:38.999Z</time></trkpt><trkpt lat="31.042125375317568" lon="-7.129778219201986"><ele>1277.5</ele><time>2026-04-24T14:25:40.999Z</time></trkpt><trkpt lat="31.04208017067522" lon="-7.129718559891484"><ele>1277.0</ele><time>2026-04-24T14:25:42Z</time></trkpt><trkpt lat="31.042024752567084" lon="-7.1296509793084955"><ele>1276.5</ele><time>2026-04-24T14:25:43Z</time></trkpt><trkpt lat="31.04196333035971" lon="-7.129573469654858"><ele>1276.0</ele><time>2026-04-24T14:25:44Z</time></trkpt><trkpt lat="31.041895583292746" lon="-7.12949001641905"><ele>1276.0</ele><time>2026-04-24T14:25:45Z</time></trkpt><trkpt lat="31.041821831939846" lon="-7.1294014988739285"><ele>1276.0</ele><time>2026-04-24T14:25:46Z</time></trkpt><trkpt lat="31.041743802075207" lon="-7.129308088711252"><ele>1276.0</ele><time>2026-04-24T14:25:47Z</time></trkpt><trkpt lat="31.041661772861932" lon="-7.129209314074219"><ele>1276.0</ele><time>2026-04-24T14:25:48Z</time></trkpt><trkpt lat="31.041572342120546" lon="-7.129106090746672"><ele>1276.5</ele><time>2026-04-24T14:25:49Z</time></trkpt><trkpt lat="31.041478502343885" lon="-7.129002774513827"><ele>1277.0</ele><time>2026-04-24T14:25:50Z</time></trkpt><trkpt lat="31.041384834725545" lon="-7.128893327273112"><ele>1277.5</ele><time>2026-04-24T14:25:51Z</time></trkpt><trkpt lat="31.041289991481648" lon="-7.128778049108076"><ele>1278.0</ele><time>2026-04-24T14:25:52Z</time></trkpt><trkpt lat="31.041196921884033" lon="-7.128656283419884"><ele>1278.0</ele><time>2026-04-24T14:25:53Z</time></trkpt><trkpt lat="31.04110204102326" lon="-7.128534649467627"><ele>1278.0</ele><time>2026-04-24T14:25:54Z</time></trkpt><trkpt lat="31.04100625068073" lon="-7.128414901754018"><ele>1278.0</ele><time>2026-04-24T14:25:55Z</time></trkpt><trkpt lat="31.04091528260638" lon="-7.128299815886761"><ele>1278.0</ele><time>2026-04-24T14:25:56Z</time></trkpt><trkpt lat="31.040830578823822" lon="-7.128192378433029"><ele>1281.6</ele><time>2026-04-24T14:25:57Z</time></trkpt><trkpt lat="31.0407556789277" lon="-7.128092808850801"><ele>1285.1999999999998</ele><time>2026-04-24T14:25:58Z</time></trkpt><trkpt lat="31.040677945275007" lon="-7.128012059610538"><ele>1288.8</ele><time>2026-04-24T14:25:59Z</time></trkpt><trkpt lat="31.040633154876144" lon="-7.127915416597847"><ele>1292.3999999999999</ele><time>2026-04-24T14:26:00Z</time></trkpt><trkpt lat="31.04056815905673" lon="-7.127847423444357"><ele>1296.0</ele><time>2026-04-24T14:26:01Z</time></trkpt><trkpt lat="31.040519768483595" lon="-7.127777573866976"><ele>1296.0</ele><time>2026-04-24T14:26:02Z</time></trkpt><trkpt lat="31.04047546471855" lon="-7.127712412320222"><ele>1296.0</ele><time>2026-04-24T14:26:03Z</time></trkpt><trkpt lat="31.040433097215125" lon="-7.127650311121912"><ele>1296.0</ele><time>2026-04-24T14:26:04Z</time></trkpt><trkpt lat="31.040391482501832" lon="-7.127590767537502"><ele>1296.0</ele><time>2026-04-24T14:26:05Z</time></trkpt><trkpt lat="31.04035007716146" lon="-7.127531141448115"><ele>1296.0</ele><time>2026-04-24T14:26:06Z</time></trkpt><trkpt lat="31.040309497205097" lon="-7.127465550383589"><ele>1296.0</ele><time>2026-04-24T14:26:07Z</time></trkpt><trkpt lat="31.040271903208474" lon="-7.127401523397783"><ele>1296.0</ele><time>2026-04-24T14:26:08Z</time></trkpt><trkpt lat="31.040211425373425" lon="-7.127299974673099"><ele>1294.5</ele><time>2026-04-24T14:26:10Z</time></trkpt><trkpt lat="31.04016967357465" lon="-7.12722919180019"><ele>1293.0</ele><time>2026-04-24T14:26:11.999Z</time></trkpt><trkpt lat="31.04012527840369" lon="-7.127154381814035"><ele>1291.5</ele><time>2026-04-24T14:26:15.999Z</time></trkpt><trkpt lat="31.040185370488867" lon="-7.1270677325679745"><ele>1290.0</ele><time>2026-04-24T14:26:17.999Z</time></trkpt><trkpt lat="31.040179014471764" lon="-7.126993133267077"><ele>1288.5</ele><time>2026-04-24T14:28:16.998Z</time></trkpt><trkpt lat="31.040065465188466" lon="-7.127052405138288"><ele>1287.0</ele><time>2026-04-24T14:28:17.998Z</time></trkpt><trkpt lat="31.04001550489757" lon="-7.126968908137854"><ele>1286.0</ele><time>2026-04-24T14:28:43.998Z</time></trkpt><trkpt lat="31.039961451502613" lon="-7.126878488759231"><ele>1285.0</ele><time>2026-04-24T14:28:45.998Z</time></trkpt><trkpt lat="31.039898010173037" lon="-7.126772227651336"><ele>1284.0</ele><time>2026-04-24T14:28:47.998Z</time></trkpt><trkpt lat="31.039844202316036" lon="-7.126682102134311"><ele>1283.0</ele><time>2026-04-24T14:28:49.998Z</time></trkpt><trkpt lat="31.039791506319897" lon="-7.126593740243604"><ele>1282.0</ele><time>2026-04-24T14:28:51.998Z</time></trkpt><trkpt lat="31.039751889519195" lon="-7.1265272943404865"><ele>1282.0</ele><time>2026-04-24T14:28:52.998Z</time></trkpt><trkpt lat="31.03970004389078" lon="-7.126441638773925"><ele>1282.0</ele><time>2026-04-24T14:28:53.998Z</time></trkpt><trkpt lat="31.039633448674767" lon="-7.126337242730163"><ele>1282.0</ele><time>2026-04-24T14:28:54.998Z</time></trkpt><trkpt lat="31.03956858179277" lon="-7.126233243553948"><ele>1282.0</ele><time>2026-04-24T14:28:55.998Z</time></trkpt><trkpt lat="31.039506311845077" lon="-7.126135962338645"><ele>1282.0</ele><time>2026-04-24T14:28:56.998Z</time></trkpt><trkpt lat="31.039439219944978" lon="-7.126034142697064"><ele>1282.0</ele><time>2026-04-24T14:28:57.998Z</time></trkpt><trkpt lat="31.039371024428235" lon="-7.125930265039531"><ele>1282.0</ele><time>2026-04-24T14:28:58.998Z</time></trkpt><trkpt lat="31.039302438670983" lon="-7.125825792953565"><ele>1282.0</ele><time>2026-04-24T14:28:59.998Z</time></trkpt><trkpt lat="31.039249299070047" lon="-7.125718446108773"><ele>1282.0</ele><time>2026-04-24T14:29:00.998Z</time></trkpt><trkpt lat="31.03918144433728" lon="-7.125628644434838"><ele>1282.0</ele><time>2026-04-24T14:29:01.998Z</time></trkpt><trkpt lat="31.039109869231243" lon="-7.125544184574113"><ele>1280.5</ele><time>2026-04-24T14:29:02.998Z</time></trkpt><trkpt lat="31.039028851222366" lon="-7.125453773282452"><ele>1279.0</ele><time>2026-04-24T14:29:03.998Z</time></trkpt><trkpt lat="31.0389395595413" lon="-7.125361005014876"><ele>1277.5</ele><time>2026-04-24T14:29:04.998Z</time></trkpt><trkpt lat="31.03883458328327" lon="-7.125269061948807"><ele>1276.0</ele><time>2026-04-24T14:29:05.998Z</time></trkpt><trkpt lat="31.038718399927326" lon="-7.12517564289156"><ele>1276.0</ele><time>2026-04-24T14:29:06.998Z</time></trkpt><trkpt lat="31.038588745436375" lon="-7.125082881214844"><ele>1276.0</ele><time>2026-04-24T14:29:07.998Z</time></trkpt><trkpt lat="31.038453209502787" lon="-7.124993415302172"><ele>1276.0</ele><time>2026-04-24T14:29:08.998Z</time></trkpt><trkpt lat="31.038312767998992" lon="-7.12491132177381"><ele>1275.0</ele><time>2026-04-24T14:29:09.998Z</time></trkpt><trkpt lat="31.038165947115452" lon="-7.124831570538715"><ele>1274.0</ele><time>2026-04-24T14:29:10.998Z</time></trkpt><trkpt lat="31.038011169612417" lon="-7.124751909866053"><ele>1273.0</ele><time>2026-04-24T14:29:11.998Z</time></trkpt><trkpt lat="31.03784962360167" lon="-7.124670052335713"><ele>1273.0</ele><time>2026-04-24T14:29:12.998Z</time></trkpt><trkpt lat="31.037686200623984" lon="-7.124586933923752"><ele>1273.0</ele><time>2026-04-24T14:29:13.998Z</time></trkpt><trkpt lat="31.037518796697597" lon="-7.124503009802005"><ele>1273.0</ele><time>2026-04-24T14:29:14.998Z</time></trkpt><trkpt lat="31.037360170783728" lon="-7.124423302127327"><ele>1272.0</ele><time>2026-04-24T14:29:15.998Z</time></trkpt><trkpt lat="31.037207330165828" lon="-7.124345563014675"><ele>1271.0</ele><time>2026-04-24T14:29:16.998Z</time></trkpt><trkpt lat="31.037052990945806" lon="-7.12427094949033"><ele>1270.0</ele><time>2026-04-24T14:29:17.998Z</time></trkpt><trkpt lat="31.03690517640131" lon="-7.1241973512677585"><ele>1270.0</ele><time>2026-04-24T14:29:18.998Z</time></trkpt><trkpt lat="31.0367554102354" lon="-7.124122772364364"><ele>1270.0</ele><time>2026-04-24T14:29:19.998Z</time></trkpt><trkpt lat="31.036606961453874" lon="-7.124044302455072"><ele>1270.0</ele><time>2026-04-24T14:29:20.998Z</time></trkpt><trkpt lat="31.03646039361925" lon="-7.123968499052563"><ele>1270.3333333333333</ele><time>2026-04-24T14:29:21.998Z</time></trkpt><trkpt lat="31.036317556602313" lon="-7.123892526707937"><ele>1270.6666666666667</ele><time>2026-04-24T14:29:22.998Z</time></trkpt><trkpt lat="31.03617507954909" lon="-7.123820083312054"><ele>1271.0</ele><time>2026-04-24T14:29:23.998Z</time></trkpt><trkpt lat="31.036029679259652" lon="-7.1237466450578575"><ele>1271.0</ele><time>2026-04-24T14:29:24.998Z</time></trkpt><trkpt lat="31.035885036175017" lon="-7.123673209968742"><ele>1271.0</ele><time>2026-04-24T14:29:25.998Z</time></trkpt><trkpt lat="31.035741976597514" lon="-7.123601174718515"><ele>1271.0</ele><time>2026-04-24T14:29:26.998Z</time></trkpt><trkpt lat="31.035594254091368" lon="-7.123529306051975"><ele>1270.6666666666667</ele><time>2026-04-24T14:29:27.998Z</time></trkpt><trkpt lat="31.03544596606544" lon="-7.123452457451459"><ele>1270.3333333333333</ele><time>2026-04-24T14:29:28.998Z</time></trkpt><trkpt lat="31.035286217716273" lon="-7.123369960012855"><ele>1270.0</ele><time>2026-04-24T14:29:29.998Z</time></trkpt><trkpt lat="31.035118781878694" lon="-7.123287521779208"><ele>1269.3333333333333</ele><time>2026-04-24T14:29:30.998Z</time></trkpt><trkpt lat="31.03494959081264" lon="-7.123205048909232"><ele>1268.6666666666667</ele><time>2026-04-24T14:29:31.998Z</time></trkpt><trkpt lat="31.034776474375484" lon="-7.123128642494957"><ele>1268.0</ele><time>2026-04-24T14:29:32.998Z</time></trkpt><trkpt lat="31.034596138236243" lon="-7.123051211639066"><ele>1268.0</ele><time>2026-04-24T14:29:33.998Z</time></trkpt><trkpt lat="31.034404087701148" lon="-7.1229709044956975"><ele>1268.0</ele><time>2026-04-24T14:29:34.998Z</time></trkpt><trkpt lat="31.034211857298136" lon="-7.122892381930038"><ele>1268.0</ele><time>2026-04-24T14:29:35.998Z</time></trkpt><trkpt lat="31.034014516564106" lon="-7.1228228257247315"><ele>1267.6666666666667</ele><time>2026-04-24T14:29:36.998Z</time></trkpt><trkpt lat="31.033816667268717" lon="-7.122757462428266"><ele>1267.3333333333333</ele><time>2026-04-24T14:29:37.998Z</time></trkpt><trkpt lat="31.033620910639673" lon="-7.12270107321533"><ele>1267.0</ele><time>2026-04-24T14:29:38.998Z</time></trkpt><trkpt lat="31.033417422712322" lon="-7.122649871299814"><ele>1266.6666666666665</ele><time>2026-04-24T14:29:39.998Z</time></trkpt><trkpt lat="31.03322005675588" lon="-7.122602014741308"><ele>1266.3333333333333</ele><time>2026-04-24T14:29:40.998Z</time></trkpt><trkpt lat="31.03301720391842" lon="-7.122556268535245"><ele>1266.0</ele><time>2026-04-24T14:29:41.998Z</time></trkpt><trkpt lat="31.0328158563694" lon="-7.122506342395208"><ele>1266.0</ele><time>2026-04-24T14:29:42.998Z</time></trkpt><trkpt lat="31.03261620431987" lon="-7.122452496230408"><ele>1266.0</ele><time>2026-04-24T14:29:43.998Z</time></trkpt><trkpt lat="31.032411300896694" lon="-7.122398777005464"><ele>1266.0</ele><time>2026-04-24T14:29:44.998Z</time></trkpt><trkpt lat="31.03219301808674" lon="-7.1223629132380735"><ele>1267.3333333333333</ele><time>2026-04-24T14:29:45.998Z</time></trkpt><trkpt lat="31.031976451932287" lon="-7.122306779297811"><ele>1268.6666666666665</ele><time>2026-04-24T14:29:46.998Z</time></trkpt><trkpt lat="31.031771832946397" lon="-7.122235752986461"><ele>1270.0</ele><time>2026-04-24T14:29:47.998Z</time></trkpt><trkpt lat="31.031565692853313" lon="-7.122187475571886"><ele>1270.6666666666665</ele><time>2026-04-24T14:29:48.998Z</time></trkpt><trkpt lat="31.031359497065758" lon="-7.122140717935964"><ele>1271.3333333333333</ele><time>2026-04-24T14:29:49.998Z</time></trkpt><trkpt lat="31.031153573904277" lon="-7.122089450142212"><ele>1272.0</ele><time>2026-04-24T14:29:50.998Z</time></trkpt><trkpt lat="31.030937176989223" lon="-7.122051392636388"><ele>1271.3333333333333</ele><time>2026-04-24T14:29:51.998Z</time></trkpt><trkpt lat="31.030727358839563" lon="-7.121964286881154"><ele>1270.6666666666665</ele><time>2026-04-24T14:29:52.998Z</time></trkpt><trkpt lat="31.030511656872328" lon="-7.12188837609795"><ele>1270.0</ele><time>2026-04-24T14:29:53.998Z</time></trkpt><trkpt lat="31.0302928242334" lon="-7.1218000930496945"><ele>1270.0</ele><time>2026-04-24T14:29:54.998Z</time></trkpt><trkpt lat="31.030074480046682" lon="-7.121699532068831"><ele>1270.0</ele><time>2026-04-24T14:29:55.998Z</time></trkpt><trkpt lat="31.02986074585942" lon="-7.1215805507524195"><ele>1270.0</ele><time>2026-04-24T14:29:56.998Z</time></trkpt><trkpt lat="31.02964507912498" lon="-7.12144011509038"><ele>1270.0</ele><time>2026-04-24T14:29:57.998Z</time></trkpt><trkpt lat="31.029434769772575" lon="-7.121281083127681"><ele>1270.0</ele><time>2026-04-24T14:29:58.998Z</time></trkpt><trkpt lat="31.02923068393808" lon="-7.12111240561342"><ele>1270.0</ele><time>2026-04-24T14:29:59.998Z</time></trkpt><trkpt lat="31.02903048186094" lon="-7.1209299461330255"><ele>1269.5</ele><time>2026-04-24T14:30:00.998Z</time></trkpt><trkpt lat="31.02883481018882" lon="-7.120730125363088"><ele>1269.0</ele><time>2026-04-24T14:30:01.998Z</time></trkpt><trkpt lat="31.028649058581152" lon="-7.120515339949375"><ele>1269.0</ele><time>2026-04-24T14:30:02.998Z</time></trkpt><trkpt lat="31.028477375078314" lon="-7.120286020819469"><ele>1269.0</ele><time>2026-04-24T14:30:03.998Z</time></trkpt><trkpt lat="31.028318321581413" lon="-7.12004360634246"><ele>1267.5</ele><time>2026-04-24T14:30:04.998Z</time></trkpt><trkpt lat="31.028165926224645" lon="-7.119789793686444"><ele>1266.0</ele><time>2026-04-24T14:30:05.998Z</time></trkpt><trkpt lat="31.02801794717861" lon="-7.119534510810867"><ele>1266.0</ele><time>2026-04-24T14:30:06.998Z</time></trkpt><trkpt lat="31.027869965104117" lon="-7.119284182857416"><ele>1266.0</ele><time>2026-04-24T14:30:07.998Z</time></trkpt><trkpt lat="31.027722254193414" lon="-7.119040399673327"><ele>1266.0</ele><time>2026-04-24T14:30:08.998Z</time></trkpt><trkpt lat="31.027580759982595" lon="-7.1187965708276355"><ele>1266.0</ele><time>2026-04-24T14:30:09.998Z</time></trkpt><trkpt lat="31.027425640419512" lon="-7.118561087440374"><ele>1265.0</ele><time>2026-04-24T14:30:10.998Z</time></trkpt><trkpt lat="31.027276480752217" lon="-7.118320414008811"><ele>1264.0</ele><time>2026-04-24T14:30:11.998Z</time></trkpt><trkpt lat="31.02713114047999" lon="-7.118084877000261"><ele>1264.0</ele><time>2026-04-24T14:30:12.998Z</time></trkpt><trkpt lat="31.026977549010244" lon="-7.117869600676354"><ele>1264.0</ele><time>2026-04-24T14:30:13.998Z</time></trkpt><trkpt lat="31.026834847719062" lon="-7.117646950344535"><ele>1264.0</ele><time>2026-04-24T14:30:14.998Z</time></trkpt><trkpt lat="31.026675161515485" lon="-7.117442722661661"><ele>1264.0</ele><time>2026-04-24T14:30:15.998Z</time></trkpt><trkpt lat="31.026499051075877" lon="-7.117261873450925"><ele>1264.5</ele><time>2026-04-24T14:30:16.998Z</time></trkpt><trkpt lat="31.02633276928387" lon="-7.117077256986771"><ele>1265.0</ele><time>2026-04-24T14:30:17.998Z</time></trkpt><trkpt lat="31.02616501436878" lon="-7.116890565206185"><ele>1265.0</ele><time>2026-04-24T14:30:18.998Z</time></trkpt><trkpt lat="31.025997038496985" lon="-7.116703460184696"><ele>1265.0</ele><time>2026-04-24T14:30:19.998Z</time></trkpt><trkpt lat="31.025815186069455" lon="-7.116536861679986"><ele>1264.5</ele><time>2026-04-24T14:30:20.998Z</time></trkpt><trkpt lat="31.02562419977457" lon="-7.116367616948724"><ele>1264.0</ele><time>2026-04-24T14:30:21.998Z</time></trkpt><trkpt lat="31.025430158723033" lon="-7.116195381988375"><ele>1264.0</ele><time>2026-04-24T14:30:22.998Z</time></trkpt><trkpt lat="31.02523743886667" lon="-7.116024573727211"><ele>1264.0</ele><time>2026-04-24T14:30:23.998Z</time></trkpt><trkpt lat="31.025037075707736" lon="-7.1158636922119936"><ele>1263.0</ele><time>2026-04-24T14:30:24.998Z</time></trkpt><trkpt lat="31.024831940234026" lon="-7.115699535484288"><ele>1262.0</ele><time>2026-04-24T14:30:25.998Z</time></trkpt><trkpt lat="31.02462596237112" lon="-7.115535257362781"><ele>1262.0</ele><time>2026-04-24T14:30:26.998Z</time></trkpt><trkpt lat="31.024409081006585" lon="-7.115363594497423"><ele>1262.0</ele><time>2026-04-24T14:30:27.998Z</time></trkpt><trkpt lat="31.024163008039395" lon="-7.1152121931512164"><ele>1261.0</ele><time>2026-04-24T14:30:28.998Z</time></trkpt><trkpt lat="31.023906379625306" lon="-7.1150574651159895"><ele>1260.0</ele><time>2026-04-24T14:30:29.998Z</time></trkpt><trkpt lat="31.02363978932462" lon="-7.114905451828344"><ele>1260.0</ele><time>2026-04-24T14:30:30.998Z</time></trkpt><trkpt lat="31.023369752425644" lon="-7.114751841072854"><ele>1260.0</ele><time>2026-04-24T14:30:31.999Z</time></trkpt><trkpt lat="31.023098479242787" lon="-7.114598652129843"><ele>1260.0</ele><time>2026-04-24T14:30:32.999Z</time></trkpt><trkpt lat="31.02282584083817" lon="-7.114443877289199"><ele>1260.0</ele><time>2026-04-24T14:30:33.999Z</time></trkpt><trkpt lat="31.02255479682168" lon="-7.114287961901576"><ele>1259.5</ele><time>2026-04-24T14:30:34.999Z</time></trkpt><trkpt lat="31.022287714093743" lon="-7.114134375969899"><ele>1259.0</ele><time>2026-04-24T14:30:35.999Z</time></trkpt><trkpt lat="31.022026565957322" lon="-7.113979980441501"><ele>1258.0</ele><time>2026-04-24T14:30:36.999Z</time></trkpt><trkpt lat="31.021769914676995" lon="-7.113824843194271"><ele>1257.0</ele><time>2026-04-24T14:30:37.999Z</time></trkpt><trkpt lat="31.021519797909455" lon="-7.11367006910941"><ele>1257.0</ele><time>2026-04-24T14:30:38.999Z</time></trkpt><trkpt lat="31.021272168553963" lon="-7.113511459592078"><ele>1257.0</ele><time>2026-04-24T14:30:39.999Z</time></trkpt><trkpt lat="31.021031577305052" lon="-7.113354594599098"><ele>1256.5</ele><time>2026-04-24T14:30:40.999Z</time></trkpt><trkpt lat="31.02079888897349" lon="-7.113195644437943"><ele>1256.0</ele><time>2026-04-24T14:30:41.999Z</time></trkpt><trkpt lat="31.020574533170524" lon="-7.113025961883001"><ele>1256.0</ele><time>2026-04-24T14:30:42.999Z</time></trkpt><trkpt lat="31.020353933761257" lon="-7.112842283359934"><ele>1256.0</ele><time>2026-04-24T14:30:43.999Z</time></trkpt><trkpt lat="31.02013528694393" lon="-7.112647183084647"><ele>1256.0</ele><time>2026-04-24T14:30:44.999Z</time></trkpt><trkpt lat="31.019917766542143" lon="-7.112441980693673"><ele>1256.0</ele><time>2026-04-24T14:30:45.999Z</time></trkpt><trkpt lat="31.019703632849062" lon="-7.112228886216739"><ele>1256.0</ele><time>2026-04-24T14:30:46.999Z</time></trkpt><trkpt lat="31.019491931869617" lon="-7.112012871243605"><ele>1256.0</ele><time>2026-04-24T14:30:47.999Z</time></trkpt><trkpt lat="31.019286317605005" lon="-7.111790214534378"><ele>1255.0</ele><time>2026-04-24T14:30:48.999Z</time></trkpt><trkpt lat="31.019086105072635" lon="-7.111564893442322"><ele>1254.0</ele><time>2026-04-24T14:30:49.999Z</time></trkpt><trkpt lat="31.0188840240257" lon="-7.111338353979134"><ele>1254.0</ele><time>2026-04-24T14:30:50.999Z</time></trkpt><trkpt lat="31.01867898926135" lon="-7.111112682021602"><ele>1254.0</ele><time>2026-04-24T14:30:51.999Z</time></trkpt><trkpt lat="31.018476409549596" lon="-7.110886915295246"><ele>1254.5</ele><time>2026-04-24T14:30:52.999Z</time></trkpt><trkpt lat="31.01827575567942" lon="-7.110660546339952"><ele>1255.0</ele><time>2026-04-24T14:30:53.999Z</time></trkpt><trkpt lat="31.0180794876314" lon="-7.110438237110471"><ele>1255.0</ele><time>2026-04-24T14:30:54.999Z</time></trkpt><trkpt lat="31.017883234878312" lon="-7.110218331949243"><ele>1255.0</ele><time>2026-04-24T14:30:55.999Z</time></trkpt><trkpt lat="31.01769054528381" lon="-7.110004062976719"><ele>1254.5</ele><time>2026-04-24T14:30:56.999Z</time></trkpt><trkpt lat="31.01750592160688" lon="-7.10979655971911"><ele>1254.0</ele><time>2026-04-24T14:30:57.999Z</time></trkpt><trkpt lat="31.017329651110714" lon="-7.109591198758367"><ele>1254.0</ele><time>2026-04-24T14:30:58.999Z</time></trkpt><trkpt lat="31.017164824364187" lon="-7.1093855568228514"><ele>1254.0</ele><time>2026-04-24T14:30:59.999Z</time></trkpt><trkpt lat="31.017011106353504" lon="-7.109171563833196"><ele>1254.5</ele><time>2026-04-24T14:31:00.999Z</time></trkpt><trkpt lat="31.01687244156147" lon="-7.108949048443761"><ele>1255.0</ele><time>2026-04-24T14:31:01.999Z</time></trkpt><trkpt lat="31.016743289755194" lon="-7.1087244733217"><ele>1254.5</ele><time>2026-04-24T14:31:02.999Z</time></trkpt><trkpt lat="31.016623420226217" lon="-7.108498174122597"><ele>1254.0</ele><time>2026-04-24T14:31:03.999Z</time></trkpt><trkpt lat="31.016513442802264" lon="-7.108266554372905"><ele>1254.0</ele><time>2026-04-24T14:31:04.999Z</time></trkpt><trkpt lat="31.016412845659463" lon="-7.108021572008487"><ele>1254.0</ele><time>2026-04-24T14:31:05.999Z</time></trkpt><trkpt lat="31.01631940012505" lon="-7.107767536797544"><ele>1254.0</ele><time>2026-04-24T14:31:06.999Z</time></trkpt><trkpt lat="31.0162287727996" lon="-7.107510126637917"><ele>1254.0</ele><time>2026-04-24T14:31:07.999Z</time></trkpt><trkpt lat="31.01613532392521" lon="-7.107253605666326"><ele>1253.5</ele><time>2026-04-24T14:31:08.999Z</time></trkpt><trkpt lat="31.016044821098074" lon="-7.106996749459143"><ele>1253.0</ele><time>2026-04-24T14:31:09.998Z</time></trkpt><trkpt lat="31.01595486856531" lon="-7.106740660139728"><ele>1253.5</ele><time>2026-04-24T14:31:10.998Z</time></trkpt><trkpt lat="31.015860442561042" lon="-7.106487159148562"><ele>1254.0</ele><time>2026-04-24T14:31:11.998Z</time></trkpt><trkpt lat="31.015758866189113" lon="-7.106246132884621"><ele>1254.0</ele><time>2026-04-24T14:31:12.998Z</time></trkpt><trkpt lat="31.015651695957942" lon="-7.106021139850541"><ele>1254.0</ele><time>2026-04-24T14:31:13.998Z</time></trkpt><trkpt lat="31.01553504868181" lon="-7.105807433252507"><ele>1254.0</ele><time>2026-04-24T14:31:14.998Z</time></trkpt><trkpt lat="31.015405266233167" lon="-7.105606342022667"><ele>1253.3333333333333</ele><time>2026-04-24T14:31:15.998Z</time></trkpt><trkpt lat="31.015262024256746" lon="-7.105415441598957"><ele>1252.6666666666665</ele><time>2026-04-24T14:31:16.998Z</time></trkpt><trkpt lat="31.015111471942106" lon="-7.105235161692362"><ele>1252.0</ele><time>2026-04-24T14:31:17.998Z</time></trkpt><trkpt lat="31.01495606252081" lon="-7.105065431202902"><ele>1251.6666666666665</ele><time>2026-04-24T14:31:18.998Z</time></trkpt><trkpt lat="31.0147999862091" lon="-7.104902741831762"><ele>1251.3333333333333</ele><time>2026-04-24T14:31:19.998Z</time></trkpt><trkpt lat="31.014642617277214" lon="-7.104746170914551"><ele>1251.0</ele><time>2026-04-24T14:31:20.998Z</time></trkpt><trkpt lat="31.014482596335384" lon="-7.104586698140437"><ele>1251.0</ele><time>2026-04-24T14:31:21.998Z</time></trkpt><trkpt lat="31.014324444752653" lon="-7.104426595440126"><ele>1251.0</ele><time>2026-04-24T14:31:22.998Z</time></trkpt><trkpt lat="31.0141673262968" lon="-7.10426845142851"><ele>1251.0</ele><time>2026-04-24T14:31:23.998Z</time></trkpt><trkpt lat="31.01400517566308" lon="-7.104108889524931"><ele>1250.3333333333333</ele><time>2026-04-24T14:31:24.998Z</time></trkpt><trkpt lat="31.013837191469122" lon="-7.1039464929354414"><ele>1249.6666666666665</ele><time>2026-04-24T14:31:25.998Z</time></trkpt><trkpt lat="31.01366820271154" lon="-7.103781430192447"><ele>1249.0</ele><time>2026-04-24T14:31:26.998Z</time></trkpt><trkpt lat="31.013501297422064" lon="-7.1036144230077"><ele>1249.0</ele><time>2026-04-24T14:31:27.998Z</time></trkpt><trkpt lat="31.013337661820014" lon="-7.103448990960302"><ele>1249.0</ele><time>2026-04-24T14:31:28.998Z</time></trkpt><trkpt lat="31.0131818119299" lon="-7.103288077481394"><ele>1249.0</ele><time>2026-04-24T14:31:29.998Z</time></trkpt><trkpt lat="31.01303168124622" lon="-7.103140454892922"><ele>1250.0</ele><time>2026-04-24T14:31:30.998Z</time></trkpt><trkpt lat="31.012886122318406" lon="-7.103008710141359"><ele>1251.0</ele><time>2026-04-24T14:31:31.998Z</time></trkpt><trkpt lat="31.012735011272675" lon="-7.102890412375733"><ele>1252.0</ele><time>2026-04-24T14:31:32.998Z</time></trkpt><trkpt lat="31.012582379347986" lon="-7.102787615304704"><ele>1251.6666666666665</ele><time>2026-04-24T14:31:33.998Z</time></trkpt><trkpt lat="31.012429634718625" lon="-7.102692189661788"><ele>1251.3333333333333</ele><time>2026-04-24T14:31:34.998Z</time></trkpt><trkpt lat="31.012275706950096" lon="-7.102601174373712"><ele>1251.0</ele><time>2026-04-24T14:31:35.998Z</time></trkpt><trkpt lat="31.01211246180922" lon="-7.102515232954461"><ele>1251.0</ele><time>2026-04-24T14:31:36.998Z</time></trkpt><trkpt lat="31.011938879881736" lon="-7.102440105333468"><ele>1251.0</ele><time>2026-04-24T14:31:37.998Z</time></trkpt><trkpt lat="31.0117624862345" lon="-7.102368937478499"><ele>1251.0</ele><time>2026-04-24T14:31:38.998Z</time></trkpt><trkpt lat="31.01158350353263" lon="-7.1023011067314155"><ele>1251.0</ele><time>2026-04-24T14:31:39.998Z</time></trkpt><trkpt lat="31.011397025059768" lon="-7.102242020180764"><ele>1251.0</ele><time>2026-04-24T14:31:40.998Z</time></trkpt><trkpt lat="31.01120845342053" lon="-7.102197055517656"><ele>1251.0</ele><time>2026-04-24T14:31:41.998Z</time></trkpt><trkpt lat="31.011023989716385" lon="-7.102163137571274"><ele>1251.0</ele><time>2026-04-24T14:31:42.998Z</time></trkpt><trkpt lat="31.01085056008163" lon="-7.10213438039747"><ele>1251.0</ele><time>2026-04-24T14:31:43.998Z</time></trkpt><trkpt lat="31.010684841122576" lon="-7.102112533467285"><ele>1251.0</ele><time>2026-04-24T14:31:44.998Z</time></trkpt><trkpt lat="31.010518968337795" lon="-7.1021044480181"><ele>1249.3333333333333</ele><time>2026-04-24T14:31:45.998Z</time></trkpt><trkpt lat="31.010348366723083" lon="-7.102110714638441"><ele>1247.6666666666665</ele><time>2026-04-24T14:31:46.998Z</time></trkpt><trkpt lat="31.010176205768072" lon="-7.102126203597964"><ele>1246.0</ele><time>2026-04-24T14:31:47.998Z</time></trkpt><trkpt lat="31.009997948618857" lon="-7.1021458004004"><ele>1243.3333333333333</ele><time>2026-04-24T14:31:48.998Z</time></trkpt><trkpt lat="31.009821109721003" lon="-7.102165156258183"><ele>1240.6666666666667</ele><time>2026-04-24T14:31:49.998Z</time></trkpt><trkpt lat="31.00965640724956" lon="-7.102187532031965"><ele>1238.0</ele><time>2026-04-24T14:31:50.998Z</time></trkpt><trkpt lat="31.009500197288848" lon="-7.102215783299776"><ele>1238.0</ele><time>2026-04-24T14:31:51.998Z</time></trkpt><trkpt lat="31.009346311126404" lon="-7.102255779804811"><ele>1238.0</ele><time>2026-04-24T14:31:52.998Z</time></trkpt><trkpt lat="31.00918491963987" lon="-7.10231242955084"><ele>1238.0</ele><time>2026-04-24T14:31:53.998Z</time></trkpt><trkpt lat="31.0090155215204" lon="-7.10238016620079"><ele>1239.0</ele><time>2026-04-24T14:31:54.998Z</time></trkpt><trkpt lat="31.008831767846903" lon="-7.102457583710801"><ele>1240.0</ele><time>2026-04-24T14:31:55.998Z</time></trkpt><trkpt lat="31.008632183254033" lon="-7.102544126603678"><ele>1241.0</ele><time>2026-04-24T14:31:56.998Z</time></trkpt><trkpt lat="31.008429514363918" lon="-7.102638394106522"><ele>1239.3333333333335</ele><time>2026-04-24T14:31:57.998Z</time></trkpt><trkpt lat="31.008226918216334" lon="-7.102739912425598"><ele>1237.6666666666667</ele><time>2026-04-24T14:31:58.998Z</time></trkpt><trkpt lat="31.008026416724174" lon="-7.102849475606101"><ele>1236.0</ele><time>2026-04-24T14:31:59.999Z</time></trkpt><trkpt lat="31.00782506770507" lon="-7.102952935254796"><ele>1236.0</ele><time>2026-04-24T14:32:00.999Z</time></trkpt><trkpt lat="31.007625355059908" lon="-7.103056522006423"><ele>1236.0</ele><time>2026-04-24T14:32:01.999Z</time></trkpt><trkpt lat="31.00742544736392" lon="-7.10316013200649"><ele>1236.0</ele><time>2026-04-24T14:32:02.999Z</time></trkpt><trkpt lat="31.007224637755254" lon="-7.103258246063993"><ele>1236.3333333333333</ele><time>2026-04-24T14:32:03.999Z</time></trkpt><trkpt lat="31.007025850901893" lon="-7.103354067040097"><ele>1236.6666666666665</ele><time>2026-04-24T14:32:04.999Z</time></trkpt><trkpt lat="31.006825510030087" lon="-7.103453499166344"><ele>1237.0</ele><time>2026-04-24T14:32:05.999Z</time></trkpt><trkpt lat="31.00661915413363" lon="-7.103556370519336"><ele>1233.0</ele><time>2026-04-24T14:32:06.999Z</time></trkpt><trkpt lat="31.006410464064125" lon="-7.103663914298486"><ele>1229.0</ele><time>2026-04-24T14:32:07.999Z</time></trkpt><trkpt lat="31.006201268301947" lon="-7.103770441187757"><ele>1229.0</ele><time>2026-04-24T14:32:08.999Z</time></trkpt><trkpt lat="31.005990680677645" lon="-7.103872448505878"><ele>1229.0</ele><time>2026-04-24T14:32:09.999Z</time></trkpt><trkpt lat="31.005781115287004" lon="-7.103975858210733"><ele>1228.0</ele><time>2026-04-24T14:32:10.999Z</time></trkpt><trkpt lat="31.005571847109938" lon="-7.104076943111497"><ele>1227.0</ele><time>2026-04-24T14:32:11.999Z</time></trkpt><trkpt lat="31.00536350002664" lon="-7.104175008530827"><ele>1228.6666666666667</ele><time>2026-04-24T14:32:12.999Z</time></trkpt><trkpt lat="31.005154031857614" lon="-7.104265918625762"><ele>1230.3333333333335</ele><time>2026-04-24T14:32:13.999Z</time></trkpt><trkpt lat="31.00494250327851" lon="-7.1043485270767714"><ele>1232.0</ele><time>2026-04-24T14:32:14.999Z</time></trkpt><trkpt lat="31.004724462223482" lon="-7.104418007651184"><ele>1232.0</ele><time>2026-04-24T14:32:15.999Z</time></trkpt><trkpt lat="31.00449528048696" lon="-7.104473569609219"><ele>1232.0</ele><time>2026-04-24T14:32:16.999Z</time></trkpt><trkpt lat="31.00425794938166" lon="-7.104509753740913"><ele>1229.5</ele><time>2026-04-24T14:32:17.999Z</time></trkpt><trkpt lat="31.004011140756727" lon="-7.104531198825203"><ele>1227.0</ele><time>2026-04-24T14:32:18.999Z</time></trkpt><trkpt lat="31.0037569113667" lon="-7.104545522694406"><ele>1227.0</ele><time>2026-04-24T14:32:19.999Z</time></trkpt><trkpt lat="31.003498570828203" lon="-7.104554893713643"><ele>1227.0</ele><time>2026-04-24T14:32:20.999Z</time></trkpt><trkpt lat="31.003238885939712" lon="-7.104558843590639"><ele>1227.0</ele><time>2026-04-24T14:32:21.999Z</time></trkpt><trkpt lat="31.002979917692297" lon="-7.104560063013557"><ele>1227.0</ele><time>2026-04-24T14:32:22.999Z</time></trkpt><trkpt lat="31.002725037022348" lon="-7.1045584773627395"><ele>1227.0</ele><time>2026-04-24T14:32:23.999Z</time></trkpt><trkpt lat="31.00247610833492" lon="-7.104557679730528"><ele>1227.0</ele><time>2026-04-24T14:32:24.999Z</time></trkpt><trkpt lat="31.00222783542886" lon="-7.1045621403771895"><ele>1227.0</ele><time>2026-04-24T14:32:25.999Z</time></trkpt><trkpt lat="31.00197832591643" lon="-7.104575620593556"><ele>1227.0</ele><time>2026-04-24T14:32:26.999Z</time></trkpt><trkpt lat="31.00172752246257" lon="-7.104601016768877"><ele>1227.0</ele><time>2026-04-24T14:32:27.999Z</time></trkpt><trkpt lat="31.00148737806557" lon="-7.104639106689406"><ele>1227.0</ele><time>2026-04-24T14:32:28.999Z</time></trkpt><trkpt lat="31.00126322515816" lon="-7.10469053262726"><ele>1227.0</ele><time>2026-04-24T14:32:29.999Z</time></trkpt><trkpt lat="31.001053864255343" lon="-7.104752216944382"><ele>1227.0</ele><time>2026-04-24T14:32:30.999Z</time></trkpt><trkpt lat="31.000856117003586" lon="-7.104826096972169"><ele>1227.0</ele><time>2026-04-24T14:32:31.999Z</time></trkpt><trkpt lat="31.00066878595877" lon="-7.1049128602955385"><ele>1228.0</ele><time>2026-04-24T14:32:32.999Z</time></trkpt><trkpt lat="31.00047884992369" lon="-7.105014541778207"><ele>1229.0</ele><time>2026-04-24T14:32:33.999Z</time></trkpt><trkpt lat="31.000291308731978" lon="-7.105130962516999"><ele>1230.0</ele><time>2026-04-24T14:32:34.999Z</time></trkpt><trkpt lat="31.000108238178132" lon="-7.105259882140325"><ele>1230.0</ele><time>2026-04-24T14:32:35.999Z</time></trkpt><trkpt lat="30.999932230833245" lon="-7.10540492609262"><ele>1230.0</ele><time>2026-04-24T14:32:36.999Z</time></trkpt><trkpt lat="30.999757569997044" lon="-7.1055623804413575"><ele>1230.0</ele><time>2026-04-24T14:32:37.999Z</time></trkpt><trkpt lat="30.99958376942232" lon="-7.105727706693215"><ele>1229.0</ele><time>2026-04-24T14:32:38.999Z</time></trkpt><trkpt lat="30.999411943796044" lon="-7.105894402971763"><ele>1228.0</ele><time>2026-04-24T14:32:39.999Z</time></trkpt><trkpt lat="30.99924450927896" lon="-7.106061776726064"><ele>1227.0</ele><time>2026-04-24T14:32:40.999Z</time></trkpt><trkpt lat="30.99907911188724" lon="-7.106228550061289"><ele>1227.3333333333333</ele><time>2026-04-24T14:32:41.999Z</time></trkpt><trkpt lat="30.998912164582105" lon="-7.106389203807242"><ele>1227.6666666666665</ele><time>2026-04-24T14:32:42.999Z</time></trkpt><trkpt lat="30.998741732688146" lon="-7.106537026827606"><ele>1228.0</ele><time>2026-04-24T14:32:43.999Z</time></trkpt><trkpt lat="30.998568593270843" lon="-7.106675179245407"><ele>1228.0</ele><time>2026-04-24T14:32:44.999Z</time></trkpt><trkpt lat="30.998387798693408" lon="-7.106799932143465"><ele>1228.0</ele><time>2026-04-24T14:32:45.999Z</time></trkpt><trkpt lat="30.99819128152849" lon="-7.1069046513322425"><ele>1228.0</ele><time>2026-04-24T14:32:46.999Z</time></trkpt><trkpt lat="30.99798034890909" lon="-7.106994372682695"><ele>1228.0</ele><time>2026-04-24T14:32:47.999Z</time></trkpt><trkpt lat="30.997754761577717" lon="-7.107064827288234"><ele>1228.0</ele><time>2026-04-24T14:32:48.999Z</time></trkpt><trkpt lat="30.99751765665572" lon="-7.1071176373005"><ele>1226.5</ele><time>2026-04-24T14:32:49.999Z</time></trkpt><trkpt lat="30.997265938993497" lon="-7.10714853384284"><ele>1225.0</ele><time>2026-04-24T14:32:50.999Z</time></trkpt><trkpt lat="30.997007332748126" lon="-7.107166821716042"><ele>1225.0</ele><time>2026-04-24T14:32:51.999Z</time></trkpt><trkpt lat="30.99674562815111" lon="-7.107175965300108"><ele>1225.0</ele><time>2026-04-24T14:32:52.999Z</time></trkpt><trkpt lat="30.996481268442846" lon="-7.1071791714418895"><ele>1226.0</ele><time>2026-04-24T14:32:53.999Z</time></trkpt><trkpt lat="30.996215568835385" lon="-7.107176867878198"><ele>1227.0</ele><time>2026-04-24T14:32:54.999Z</time></trkpt><trkpt lat="30.99594730394337" lon="-7.107177549400095"><ele>1227.0</ele><time>2026-04-24T14:32:55.999Z</time></trkpt><trkpt lat="30.995676664902646" lon="-7.107179865239208"><ele>1227.0</ele><time>2026-04-24T14:32:56.999Z</time></trkpt><trkpt lat="30.995405710024492" lon="-7.107181221379905"><ele>1227.0</ele><time>2026-04-24T14:32:57.999Z</time></trkpt><trkpt lat="30.995133842144416" lon="-7.1071822078490134"><ele>1227.0</ele><time>2026-04-24T14:32:58.999Z</time></trkpt><trkpt lat="30.994865280444685" lon="-7.107182032453546"><ele>1227.0</ele><time>2026-04-24T14:32:59.999Z</time></trkpt><trkpt lat="30.994601090716326" lon="-7.1071834555253455"><ele>1227.0</ele><time>2026-04-24T14:33:00.999Z</time></trkpt><trkpt lat="30.994339877890063" lon="-7.107187433792899"><ele>1226.5</ele><time>2026-04-24T14:33:01.999Z</time></trkpt><trkpt lat="30.994087490525608" lon="-7.107190914220374"><ele>1226.0</ele><time>2026-04-24T14:33:02.999Z</time></trkpt><trkpt lat="30.993840086213748" lon="-7.107193638253101"><ele>1226.0</ele><time>2026-04-24T14:33:03.999Z</time></trkpt><trkpt lat="30.993604304322204" lon="-7.107196521506095"><ele>1226.0</ele><time>2026-04-24T14:33:04.999Z</time></trkpt><trkpt lat="30.993377854894913" lon="-7.107195963930453"><ele>1226.0</ele><time>2026-04-24T14:33:05.999Z</time></trkpt><trkpt lat="30.993162151009482" lon="-7.107188343865727"><ele>1226.0</ele><time>2026-04-24T14:33:06.999Z</time></trkpt><trkpt lat="30.99295658345293" lon="-7.1071683328071344"><ele>1226.0</ele><time>2026-04-24T14:33:07.999Z</time></trkpt><trkpt lat="30.992756385376534" lon="-7.107129616956539"><ele>1226.0</ele><time>2026-04-24T14:33:08.999Z</time></trkpt><trkpt lat="30.99256110924871" lon="-7.107059416485144"><ele>1226.0</ele><time>2026-04-24T14:33:09.999Z</time></trkpt><trkpt lat="30.99236941200466" lon="-7.106957825544477"><ele>1226.0</ele><time>2026-04-24T14:33:10.999Z</time></trkpt><trkpt lat="30.99218169546214" lon="-7.106830647349148"><ele>1226.3333333333335</ele><time>2026-04-24T14:33:11.999Z</time></trkpt><trkpt lat="30.991998552112186" lon="-7.106684683325848"><ele>1226.6666666666667</ele><time>2026-04-24T14:33:12.999Z</time></trkpt><trkpt lat="30.99182006680982" lon="-7.106520816585975"><ele>1227.0</ele><time>2026-04-24T14:33:13.999Z</time></trkpt><trkpt lat="30.991649082229355" lon="-7.106347632833304"><ele>1225.0</ele><time>2026-04-24T14:33:14.999Z</time></trkpt><trkpt lat="30.991475130305563" lon="-7.1061760796549205"><ele>1223.0</ele><time>2026-04-24T14:33:15.999Z</time></trkpt><trkpt lat="30.99130059865992" lon="-7.106015672385523"><ele>1223.0</ele><time>2026-04-24T14:33:16.999Z</time></trkpt><trkpt lat="30.99113178092825" lon="-7.105861786457135"><ele>1223.0</ele><time>2026-04-24T14:33:17.999Z</time></trkpt><trkpt lat="30.990965015595727" lon="-7.105716824651455"><ele>1223.0</ele><time>2026-04-24T14:33:18.999Z</time></trkpt><trkpt lat="30.990787939293227" lon="-7.10558590198012"><ele>1221.3333333333335</ele><time>2026-04-24T14:33:19.999Z</time></trkpt><trkpt lat="30.990594650581837" lon="-7.105473487883052"><ele>1219.6666666666667</ele><time>2026-04-24T14:33:20.999Z</time></trkpt><trkpt lat="30.990387181296704" lon="-7.105374315863738"><ele>1218.0</ele><time>2026-04-24T14:33:21.999Z</time></trkpt><trkpt lat="30.990168263070167" lon="-7.105280040286816"><ele>1220.0</ele><time>2026-04-24T14:33:22.999Z</time></trkpt><trkpt lat="30.989941400875185" lon="-7.105192299074346"><ele>1222.0</ele><time>2026-04-24T14:33:23.999Z</time></trkpt><trkpt lat="30.989711713868864" lon="-7.105110410425522"><ele>1222.0</ele><time>2026-04-24T14:33:24.999Z</time></trkpt><trkpt lat="30.989482940871724" lon="-7.105035268386749"><ele>1222.0</ele><time>2026-04-24T14:33:25.999Z</time></trkpt><trkpt lat="30.989257530602735" lon="-7.104962965600821"><ele>1219.6666666666665</ele><time>2026-04-24T14:33:26.999Z</time></trkpt><trkpt lat="30.989038242527936" lon="-7.104893452654357"><ele>1217.3333333333333</ele><time>2026-04-24T14:33:27.999Z</time></trkpt><trkpt lat="30.988829789180578" lon="-7.104826729889552"><ele>1215.0</ele><time>2026-04-24T14:33:28.999Z</time></trkpt><trkpt lat="30.988630975347494" lon="-7.104771895882076"><ele>1215.0</ele><time>2026-04-24T14:33:29.999Z</time></trkpt><trkpt lat="30.988436215905026" lon="-7.1047442202700894"><ele>1215.0</ele><time>2026-04-24T14:33:30.999Z</time></trkpt><trkpt lat="30.988235754558705" lon="-7.1047566653315695"><ele>1215.0</ele><time>2026-04-24T14:33:31.999Z</time></trkpt><trkpt lat="30.98803469303899" lon="-7.104814106207315"><ele>1220.6666666666667</ele><time>2026-04-24T14:33:32.999Z</time></trkpt><trkpt lat="30.987845498041565" lon="-7.10492263918304"><ele>1226.3333333333335</ele><time>2026-04-24T14:33:33.999Z</time></trkpt><trkpt lat="30.98767395272043" lon="-7.105078191717417"><ele>1232.0</ele><time>2026-04-24T14:33:34.999Z</time></trkpt><trkpt lat="30.98751823542249" lon="-7.105246820411235"><ele>1228.6666666666667</ele><time>2026-04-24T14:33:35.999Z</time></trkpt><trkpt lat="30.987358036508244" lon="-7.105396387588682"><ele>1225.3333333333333</ele><time>2026-04-24T14:33:36.999Z</time></trkpt><trkpt lat="30.987169321100254" lon="-7.105514839673913"><ele>1222.0</ele><time>2026-04-24T14:33:37.999Z</time></trkpt><trkpt lat="30.986960238927743" lon="-7.105621398955892"><ele>1222.0</ele><time>2026-04-24T14:33:38.999Z</time></trkpt><trkpt lat="30.98673342168416" lon="-7.10571279241952"><ele>1222.0</ele><time>2026-04-24T14:33:39.999Z</time></trkpt><trkpt lat="30.98649163176524" lon="-7.1057852732499756"><ele>1223.0</ele><time>2026-04-24T14:33:40.999Z</time></trkpt><trkpt lat="30.986239311108342" lon="-7.105855350298814"><ele>1224.0</ele><time>2026-04-24T14:33:41.999Z</time></trkpt><trkpt lat="30.98598335472604" lon="-7.105930293114147"><ele>1220.0</ele><time>2026-04-24T14:33:42.999Z</time></trkpt><trkpt lat="30.985727641355112" lon="-7.106003450729624"><ele>1216.0</ele><time>2026-04-24T14:33:43.999Z</time></trkpt><trkpt lat="30.985477804142562" lon="-7.106073153740176"><ele>1216.0</ele><time>2026-04-24T14:33:44.999Z</time></trkpt><trkpt lat="30.98524156885523" lon="-7.106139335555236"><ele>1216.0</ele><time>2026-04-24T14:33:45.999Z</time></trkpt><trkpt lat="30.985005114575895" lon="-7.106198459181252"><ele>1217.5</ele><time>2026-04-24T14:33:46.999Z</time></trkpt><trkpt lat="30.9847685407201" lon="-7.106246054407672"><ele>1219.0</ele><time>2026-04-24T14:33:47.999Z</time></trkpt><trkpt lat="30.98453780717122" lon="-7.106273387354974"><ele>1219.0</ele><time>2026-04-24T14:33:48.999Z</time></trkpt><trkpt lat="30.984301619954536" lon="-7.106269856348795"><ele>1219.0</ele><time>2026-04-24T14:33:49.999Z</time></trkpt><trkpt lat="30.984056847643988" lon="-7.106232527390995"><ele>1217.5</ele><time>2026-04-24T14:33:50.999Z</time></trkpt><trkpt lat="30.98380354616763" lon="-7.106173853784129"><ele>1216.0</ele><time>2026-04-24T14:33:51.999Z</time></trkpt><trkpt lat="30.983543973289702" lon="-7.1061059809870475"><ele>1215.5</ele><time>2026-04-24T14:33:52.999Z</time></trkpt><trkpt lat="30.98328008334413" lon="-7.106038626661011"><ele>1215.0</ele><time>2026-04-24T14:33:53.999Z</time></trkpt><trkpt lat="30.983020792743293" lon="-7.105971745610828"><ele>1215.0</ele><time>2026-04-24T14:33:54.999Z</time></trkpt><trkpt lat="30.982771839271788" lon="-7.105908718716716"><ele>1215.0</ele><time>2026-04-24T14:33:55.999Z</time></trkpt><trkpt lat="30.982535840228227" lon="-7.105846050654308"><ele>1214.3333333333333</ele><time>2026-04-24T14:33:56.999Z</time></trkpt><trkpt lat="30.98231265086327" lon="-7.105776930072226"><ele>1213.6666666666665</ele><time>2026-04-24T14:33:57.999Z</time></trkpt><trkpt lat="30.98210902252178" lon="-7.10569480001759"><ele>1213.0</ele><time>2026-04-24T14:33:58.999Z</time></trkpt><trkpt lat="30.981921344909477" lon="-7.105592161332382"><ele>1213.0</ele><time>2026-04-24T14:33:59.999Z</time></trkpt><trkpt lat="30.981738835357252" lon="-7.10545965596319"><ele>1213.0</ele><time>2026-04-24T14:34:00.999Z</time></trkpt><trkpt lat="30.981554912671356" lon="-7.105300043711978"><ele>1213.0</ele><time>2026-04-24T14:34:01.999Z</time></trkpt><trkpt lat="30.981364384178793" lon="-7.105128723361052"><ele>1214.0</ele><time>2026-04-24T14:34:02.999Z</time></trkpt><trkpt lat="30.98116894044006" lon="-7.104951458561246"><ele>1215.0</ele><time>2026-04-24T14:34:03.999Z</time></trkpt><trkpt lat="30.98097734572681" lon="-7.1047714302188085"><ele>1214.0</ele><time>2026-04-24T14:34:04.999Z</time></trkpt><trkpt lat="30.980797164377588" lon="-7.104589232574369"><ele>1213.0</ele><time>2026-04-24T14:34:06Z</time></trkpt><trkpt lat="30.980630949838257" lon="-7.104409335020054"><ele>1213.0</ele><time>2026-04-24T14:34:07Z</time></trkpt><trkpt lat="30.98047470428173" lon="-7.10423647522595"><ele>1213.0</ele><time>2026-04-24T14:34:08Z</time></trkpt><trkpt lat="30.980321964697236" lon="-7.10407600820053"><ele>1213.0</ele><time>2026-04-24T14:34:09Z</time></trkpt><trkpt lat="30.98018034825834" lon="-7.103931927043436"><ele>1213.3333333333333</ele><time>2026-04-24T14:34:10Z</time></trkpt><trkpt lat="30.980044309563905" lon="-7.103803328475624"><ele>1213.6666666666667</ele><time>2026-04-24T14:34:11Z</time></trkpt><trkpt lat="30.979905143042807" lon="-7.103696035655988"><ele>1214.0</ele><time>2026-04-24T14:34:12Z</time></trkpt><trkpt lat="30.979761819096137" lon="-7.103615289711164"><ele>1214.0</ele><time>2026-04-24T14:34:13Z</time></trkpt><trkpt lat="30.979602382477644" lon="-7.103561521076536"><ele>1214.0</ele><time>2026-04-24T14:34:14Z</time></trkpt><trkpt lat="30.97945105137681" lon="-7.103547273277792"><ele>1214.0</ele><time>2026-04-24T14:34:15Z</time></trkpt><trkpt lat="30.979337195915004" lon="-7.1035505948534166"><ele>1214.0</ele><time>2026-04-24T14:34:16Z</time></trkpt><trkpt lat="30.97920997892307" lon="-7.103560658689283"><ele>1214.6000000000001</ele><time>2026-04-24T14:34:17Z</time></trkpt><trkpt lat="30.97914057862672" lon="-7.103573201359194"><ele>1215.2</ele><time>2026-04-24T14:34:18Z</time></trkpt><trkpt lat="30.979055262043232" lon="-7.103595585871111"><ele>1215.8000000000002</ele><time>2026-04-24T14:34:20Z</time></trkpt><trkpt lat="30.978973222153822" lon="-7.1036188962984905"><ele>1216.4</ele><time>2026-04-24T14:34:21Z</time></trkpt><trkpt lat="30.9788695928894" lon="-7.103659217929992"><ele>1217.0</ele><time>2026-04-24T14:34:22Z</time></trkpt><trkpt lat="30.97875372289032" lon="-7.103707866292463"><ele>1217.0</ele><time>2026-04-24T14:34:23Z</time></trkpt><trkpt lat="30.978622704514024" lon="-7.103768050444585"><ele>1217.0</ele><time>2026-04-24T14:34:24Z</time></trkpt><trkpt lat="30.978484449800554" lon="-7.103827989120688"><ele>1217.0</ele><time>2026-04-24T14:34:25Z</time></trkpt><trkpt lat="30.97834056180024" lon="-7.103884115166308"><ele>1217.0</ele><time>2026-04-24T14:34:26Z</time></trkpt><trkpt lat="30.978189230105006" lon="-7.1039368703073675"><ele>1216.3333333333335</ele><time>2026-04-24T14:34:27Z</time></trkpt><trkpt lat="30.978024919269288" lon="-7.1039873533590105"><ele>1215.6666666666667</ele><time>2026-04-24T14:34:28Z</time></trkpt><trkpt lat="30.977854660463954" lon="-7.10403721632465"><ele>1215.0</ele><time>2026-04-24T14:34:29Z</time></trkpt><trkpt lat="30.977677668719142" lon="-7.104078098301473"><ele>1214.6666666666667</ele><time>2026-04-24T14:34:30Z</time></trkpt><trkpt lat="30.977504698773057" lon="-7.104109473723481"><ele>1214.3333333333335</ele><time>2026-04-24T14:34:31Z</time></trkpt><trkpt lat="30.977345255577845" lon="-7.104133888282554"><ele>1214.0</ele><time>2026-04-24T14:34:32Z</time></trkpt><trkpt lat="30.977190707160148" lon="-7.104153646689365"><ele>1214.0</ele><time>2026-04-24T14:34:33Z</time></trkpt><trkpt lat="30.97703689338978" lon="-7.104172266482825"><ele>1214.0</ele><time>2026-04-24T14:34:34Z</time></trkpt><trkpt lat="30.976879320401167" lon="-7.104192046681723"><ele>1214.0</ele><time>2026-04-24T14:34:35Z</time></trkpt><trkpt lat="30.97672031015554" lon="-7.104213851854743"><ele>1213.3333333333335</ele><time>2026-04-24T14:34:36Z</time></trkpt><trkpt lat="30.976560788403948" lon="-7.10423308257745"><ele>1212.6666666666667</ele><time>2026-04-24T14:34:37Z</time></trkpt><trkpt lat="30.97640295814665" lon="-7.104249102233932"><ele>1212.0</ele><time>2026-04-24T14:34:38Z</time></trkpt><trkpt lat="30.976245467059975" lon="-7.104269561503909"><ele>1212.0</ele><time>2026-04-24T14:34:39Z</time></trkpt><trkpt lat="30.976089331231616" lon="-7.104294102134681"><ele>1212.0</ele><time>2026-04-24T14:34:40Z</time></trkpt><trkpt lat="30.975936848864436" lon="-7.104315361429745"><ele>1212.0</ele><time>2026-04-24T14:34:41Z</time></trkpt><trkpt lat="30.97579163289474" lon="-7.104333966470584"><ele>1211.75</ele><time>2026-04-24T14:34:42Z</time></trkpt><trkpt lat="30.97565814378578" lon="-7.104351974298705"><ele>1211.5</ele><time>2026-04-24T14:34:43Z</time></trkpt><trkpt lat="30.975534073173534" lon="-7.1043715173648145"><ele>1211.25</ele><time>2026-04-24T14:34:44Z</time></trkpt><trkpt lat="30.975418278176896" lon="-7.104394711318673"><ele>1211.0</ele><time>2026-04-24T14:34:45Z</time></trkpt><trkpt lat="30.97530490669302" lon="-7.104424668704793"><ele>1211.0</ele><time>2026-04-24T14:34:46Z</time></trkpt><trkpt lat="30.97518949834581" lon="-7.104407242132737"><ele>1211.0</ele><time>2026-04-24T14:34:47Z</time></trkpt><trkpt lat="30.975116235816685" lon="-7.104447957807846"><ele>1211.0</ele><time>2026-04-24T14:34:48Z</time></trkpt><trkpt lat="30.97505530399897" lon="-7.104481820711479"><ele>1211.0</ele><time>2026-04-24T14:34:49Z</time></trkpt><trkpt lat="30.974979873895997" lon="-7.1045237416524"><ele>1211.0</ele><time>2026-04-24T14:34:51Z</time></trkpt><trkpt lat="30.97495686631697" lon="-7.104610141167901"><ele>1211.0</ele><time>2026-04-24T14:36:34Z</time></trkpt><trkpt lat="30.9749024782142" lon="-7.104675300036294"><ele>1210.8</ele><time>2026-04-24T14:36:37Z</time></trkpt><trkpt lat="30.97485620490367" lon="-7.104732493552261"><ele>1210.6</ele><time>2026-04-24T14:39:10Z</time></trkpt><trkpt lat="30.974752304040255" lon="-7.104591409740081"><ele>1210.4</ele><time>2026-04-24T14:39:14Z</time></trkpt><trkpt lat="30.974761208071886" lon="-7.104493043619766"><ele>1210.2</ele><time>2026-04-24T14:39:15Z</time></trkpt><trkpt lat="30.974771218238583" lon="-7.104386677764423"><ele>1210.0</ele><time>2026-04-24T14:39:16Z</time></trkpt><trkpt lat="30.974783111860166" lon="-7.104263000581704"><ele>1210.0</ele><time>2026-04-24T14:39:17Z</time></trkpt><trkpt lat="30.9747936677277" lon="-7.104139295428401"><ele>1210.0</ele><time>2026-04-24T14:39:18Z</time></trkpt><trkpt lat="30.97480548248825" lon="-7.104005572244175"><ele>1210.0</ele><time>2026-04-24T14:39:19Z</time></trkpt><trkpt lat="30.97481760868857" lon="-7.103868322919879"><ele>1210.0</ele><time>2026-04-24T14:39:20Z</time></trkpt><trkpt lat="30.974833046005823" lon="-7.1037278411919775"><ele>1210.0</ele><time>2026-04-24T14:39:21Z</time></trkpt><trkpt lat="30.974847383319652" lon="-7.103588693824018"><ele>1210.0</ele><time>2026-04-24T14:39:22Z</time></trkpt><trkpt lat="30.974861550971728" lon="-7.103447738844442"><ele>1210.0</ele><time>2026-04-24T14:39:23Z</time></trkpt><trkpt lat="30.974874953207724" lon="-7.10331371645794"><ele>1210.0</ele><time>2026-04-24T14:39:24Z</time></trkpt><trkpt lat="30.974887822447442" lon="-7.103185024108177"><ele>1210.6</ele><time>2026-04-24T14:39:25Z</time></trkpt><trkpt lat="30.974900748028627" lon="-7.103055768286284"><ele>1211.2</ele><time>2026-04-24T14:39:26Z</time></trkpt><trkpt lat="30.974912692897846" lon="-7.102937849923523"><ele>1211.8</ele><time>2026-04-24T14:39:27Z</time></trkpt><trkpt lat="30.974922923186323" lon="-7.102843553374036"><ele>1212.4</ele><time>2026-04-24T14:39:28Z</time></trkpt><trkpt lat="30.974932030840368" lon="-7.102759604572385"><ele>1213.0</ele><time>2026-04-24T14:39:29Z</time></trkpt><trkpt lat="30.97494683054959" lon="-7.1026231898093055"><ele>1213.0</ele><time>2026-04-24T14:39:31Z</time></trkpt><trkpt lat="30.974960445865772" lon="-7.10249769217215"><ele>1213.0</ele><time>2026-04-24T14:39:33Z</time></trkpt><trkpt lat="30.974973102965706" lon="-7.102381026719036"><ele>1213.0</ele><time>2026-04-24T14:39:35Z</time></trkpt><trkpt lat="30.97498505965004" lon="-7.102271043993116"><ele>1213.0</ele><time>2026-04-24T14:39:37Z</time></trkpt><trkpt lat="30.974993956203193" lon="-7.102189710682938"><ele>1213.0</ele><time>2026-04-24T14:39:40Z</time></trkpt><trkpt lat="30.975007745322046" lon="-7.102063649136181"><ele>1212.2</ele><time>2026-04-24T14:39:44Z</time></trkpt><trkpt lat="30.97502395429037" lon="-7.101914965954386"><ele>1211.4</ele><time>2026-04-24T14:39:46Z</time></trkpt><trkpt lat="30.97503376987976" lon="-7.101823976792379"><ele>1210.6000000000001</ele><time>2026-04-24T14:39:47Z</time></trkpt><trkpt lat="30.975044504227974" lon="-7.101724470772303"><ele>1209.8</ele><time>2026-04-24T14:39:48Z</time></trkpt><trkpt lat="30.9750566559422" lon="-7.1016118260899"><ele>1209.0</ele><time>2026-04-24T14:39:49Z</time></trkpt><trkpt lat="30.97507016301176" lon="-7.101486617317276"><ele>1208.0</ele><time>2026-04-24T14:39:50Z</time></trkpt><trkpt lat="30.975084615078348" lon="-7.101352648578569"><ele>1207.0</ele><time>2026-04-24T14:39:51Z</time></trkpt><trkpt lat="30.975100393531633" lon="-7.101208269820656"><ele>1206.0</ele><time>2026-04-24T14:39:52Z</time></trkpt><trkpt lat="30.975116601159357" lon="-7.101060266688224"><ele>1205.0</ele><time>2026-04-24T14:39:53Z</time></trkpt><trkpt lat="30.975133358949098" lon="-7.100906007025204"><ele>1205.0</ele><time>2026-04-24T14:39:54Z</time></trkpt><trkpt lat="30.97514914468111" lon="-7.100751154355608"><ele>1205.0</ele><time>2026-04-24T14:39:55Z</time></trkpt><trkpt lat="30.975165447696554" lon="-7.100591227284246"><ele>1205.0</ele><time>2026-04-24T14:39:56Z</time></trkpt><trkpt lat="30.97518222046533" lon="-7.100426692069564"><ele>1205.0</ele><time>2026-04-24T14:39:57Z</time></trkpt><trkpt lat="30.975199239369907" lon="-7.100259742372628"><ele>1205.0</ele><time>2026-04-24T14:39:58Z</time></trkpt><trkpt lat="30.9752166095898" lon="-7.100089346387479"><ele>1205.0</ele><time>2026-04-24T14:39:59Z</time></trkpt><trkpt lat="30.975234043985765" lon="-7.099918320876609"><ele>1205.0</ele><time>2026-04-24T14:40:00Z</time></trkpt><trkpt lat="30.975251485446893" lon="-7.099746968474293"><ele>1205.0</ele><time>2026-04-24T14:40:01Z</time></trkpt><trkpt lat="30.975269102815776" lon="-7.099573872257644"><ele>1205.0</ele><time>2026-04-24T14:40:02Z</time></trkpt><trkpt lat="30.975286895711502" lon="-7.099399051428328"><ele>1205.0</ele><time>2026-04-24T14:40:03Z</time></trkpt><trkpt lat="30.975304363916607" lon="-7.099227420782626"><ele>1205.0</ele><time>2026-04-24T14:40:04Z</time></trkpt><trkpt lat="30.97532232524318" lon="-7.09905094508641"><ele>1205.6666666666667</ele><time>2026-04-24T14:40:05Z</time></trkpt><trkpt lat="30.975340447194778" lon="-7.098872891233293"><ele>1206.3333333333333</ele><time>2026-04-24T14:40:05.999Z</time></trkpt><trkpt lat="30.975359111768153" lon="-7.098693074911606"><ele>1207.0</ele><time>2026-04-24T14:40:06.999Z</time></trkpt><trkpt lat="30.975378185649305" lon="-7.0985109103194635"><ele>1207.0</ele><time>2026-04-24T14:40:07.999Z</time></trkpt><trkpt lat="30.975398045252117" lon="-7.098328504252156"><ele>1207.0</ele><time>2026-04-24T14:40:08.999Z</time></trkpt><trkpt lat="30.975417612478786" lon="-7.098148387624691"><ele>1207.0</ele><time>2026-04-24T14:40:09.999Z</time></trkpt><trkpt lat="30.975437252118127" lon="-7.0979675086399885"><ele>1209.3333333333333</ele><time>2026-04-24T14:40:10.999Z</time></trkpt><trkpt lat="30.97545731142096" lon="-7.097782764665595"><ele>1211.6666666666667</ele><time>2026-04-24T14:40:11.999Z</time></trkpt><trkpt lat="30.975477610574377" lon="-7.0975998773954805"><ele>1214.0</ele><time>2026-04-24T14:40:12.999Z</time></trkpt><trkpt lat="30.975496113622533" lon="-7.097420694315948"><ele>1214.3333333333335</ele><time>2026-04-24T14:40:13.999Z</time></trkpt><trkpt lat="30.975515616878877" lon="-7.097240642538262"><ele>1214.6666666666667</ele><time>2026-04-24T14:40:14.999Z</time></trkpt><trkpt lat="30.975536313253844" lon="-7.097057820446414"><ele>1215.0</ele><time>2026-04-24T14:40:15.999Z</time></trkpt><trkpt lat="30.97555010404287" lon="-7.096871907586426"><ele>1215.0</ele><time>2026-04-24T14:40:16.999Z</time></trkpt><trkpt lat="30.975602687122837" lon="-7.096686100356704"><ele>1215.0</ele><time>2026-04-24T14:40:17.999Z</time></trkpt><trkpt lat="30.97562414746942" lon="-7.096497221550712"><ele>1215.0</ele><time>2026-04-24T14:40:18.999Z</time></trkpt><trkpt lat="30.975642360183546" lon="-7.096305289586721"><ele>1215.6666666666667</ele><time>2026-04-24T14:40:19.999Z</time></trkpt><trkpt lat="30.975662582780817" lon="-7.096114447263167"><ele>1216.3333333333335</ele><time>2026-04-24T14:40:20.999Z</time></trkpt><trkpt lat="30.975652508752848" lon="-7.095923474734478"><ele>1217.0</ele><time>2026-04-24T14:40:21.999Z</time></trkpt><trkpt lat="30.975671905167108" lon="-7.095741878672879"><ele>1217.75</ele><time>2026-04-24T14:40:22.999Z</time></trkpt><trkpt lat="30.975689157261748" lon="-7.095563126192014"><ele>1218.5</ele><time>2026-04-24T14:40:24Z</time></trkpt><trkpt lat="30.975705560879135" lon="-7.095390914105931"><ele>1219.25</ele><time>2026-04-24T14:40:25Z</time></trkpt><trkpt lat="30.975721475906614" lon="-7.0952216693605"><ele>1220.0</ele><time>2026-04-24T14:40:26Z</time></trkpt><trkpt lat="30.975737186245134" lon="-7.09505460123006"><ele>1221.0</ele><time>2026-04-24T14:40:27Z</time></trkpt><trkpt lat="30.97574415832978" lon="-7.094887748588023"><ele>1222.0</ele><time>2026-04-24T14:40:28Z</time></trkpt><trkpt lat="30.975743674482374" lon="-7.09471510476248"><ele>1223.0</ele><time>2026-04-24T14:40:29Z</time></trkpt><trkpt lat="30.97572267907965" lon="-7.094553207902623"><ele>1224.0</ele><time>2026-04-24T14:40:30Z</time></trkpt><trkpt lat="30.975688739171" lon="-7.094401054633521"><ele>1224.0</ele><time>2026-04-24T14:40:31Z</time></trkpt><trkpt lat="30.975641794687107" lon="-7.094248703096045"><ele>1224.0</ele><time>2026-04-24T14:40:32Z</time></trkpt><trkpt lat="30.975582403351744" lon="-7.094105206630859"><ele>1224.0</ele><time>2026-04-24T14:40:33Z</time></trkpt><trkpt lat="30.975522963390894" lon="-7.093950948682671"><ele>1224.0</ele><time>2026-04-24T14:40:34Z</time></trkpt><trkpt lat="30.975428705837455" lon="-7.09382038626993"><ele>1224.25</ele><time>2026-04-24T14:40:35Z</time></trkpt><trkpt lat="30.97532153100516" lon="-7.093702066728505"><ele>1224.5</ele><time>2026-04-24T14:40:36Z</time></trkpt><trkpt lat="30.975204813627947" lon="-7.093598327485902"><ele>1224.75</ele><time>2026-04-24T14:40:37Z</time></trkpt><trkpt lat="30.97507790016914" lon="-7.093515506080259"><ele>1225.0</ele><time>2026-04-24T14:40:38Z</time></trkpt><trkpt lat="30.974945637035415" lon="-7.093444684455509"><ele>1225.0</ele><time>2026-04-24T14:40:39Z</time></trkpt><trkpt lat="30.974807287398917" lon="-7.093383907432424"><ele>1225.0</ele><time>2026-04-24T14:40:40Z</time></trkpt><trkpt lat="30.97466954870212" lon="-7.093326364216726"><ele>1225.0</ele><time>2026-04-24T14:40:41Z</time></trkpt><trkpt lat="30.97453194721894" lon="-7.0932672102695165"><ele>1225.0</ele><time>2026-04-24T14:40:42Z</time></trkpt><trkpt lat="30.974393485314394" lon="-7.093207775148343"><ele>1227.0</ele><time>2026-04-24T14:40:43Z</time></trkpt><trkpt lat="30.974253145996823" lon="-7.0931484553826785"><ele>1229.0</ele><time>2026-04-24T14:40:44Z</time></trkpt><trkpt lat="30.97411094681665" lon="-7.093091434074331"><ele>1231.0</ele><time>2026-04-24T14:40:45Z</time></trkpt><trkpt lat="30.97396796904878" lon="-7.093038722561592"><ele>1232.0</ele><time>2026-04-24T14:40:46Z</time></trkpt><trkpt lat="30.973827880157835" lon="-7.092985347540398"><ele>1233.0</ele><time>2026-04-24T14:40:47Z</time></trkpt><trkpt lat="30.973691480544932" lon="-7.092930305247612"><ele>1234.0</ele><time>2026-04-24T14:40:48Z</time></trkpt><trkpt lat="30.973554242364457" lon="-7.092873478652982"><ele>1235.0</ele><time>2026-04-24T14:40:49Z</time></trkpt><trkpt lat="30.973414881218293" lon="-7.092816081552319"><ele>1236.75</ele><time>2026-04-24T14:40:50Z</time></trkpt><trkpt lat="30.973276476740182" lon="-7.092758246075536"><ele>1238.5</ele><time>2026-04-24T14:40:51Z</time></trkpt><trkpt lat="30.973136274054557" lon="-7.092702831733379"><ele>1240.25</ele><time>2026-04-24T14:40:52Z</time></trkpt><trkpt lat="30.97299590784691" lon="-7.092646735669279"><ele>1242.0</ele><time>2026-04-24T14:40:53Z</time></trkpt><trkpt lat="30.972855573957148" lon="-7.092590217069878"><ele>1242.0</ele><time>2026-04-24T14:40:54Z</time></trkpt><trkpt lat="30.972715027675093" lon="-7.092533271886812"><ele>1242.0</ele><time>2026-04-24T14:40:55Z</time></trkpt><trkpt lat="30.97257487350136" lon="-7.09247618111296"><ele>1242.0</ele><time>2026-04-24T14:40:56Z</time></trkpt><trkpt lat="30.972436769003558" lon="-7.092419589871015"><ele>1242.0</ele><time>2026-04-24T14:40:57Z</time></trkpt><trkpt lat="30.97229466099222" lon="-7.092359758334697"><ele>1250.6666666666667</ele><time>2026-04-24T14:40:58Z</time></trkpt><trkpt lat="30.972148305333633" lon="-7.092296295071956"><ele>1259.3333333333335</ele><time>2026-04-24T14:40:59Z</time></trkpt><trkpt lat="30.97199790729147" lon="-7.092237288160476"><ele>1268.0</ele><time>2026-04-24T14:41:00Z</time></trkpt><trkpt lat="30.971845260961356" lon="-7.092197318096077"><ele>1266.3333333333335</ele><time>2026-04-24T14:41:01Z</time></trkpt><trkpt lat="30.971684225515595" lon="-7.092202234141286"><ele>1264.6666666666667</ele><time>2026-04-24T14:41:02Z</time></trkpt><trkpt lat="30.971509500304528" lon="-7.092234671295832"><ele>1263.0</ele><time>2026-04-24T14:41:03Z</time></trkpt><trkpt lat="30.971343221073575" lon="-7.092282209180962"><ele>1263.0</ele><time>2026-04-24T14:41:04Z</time></trkpt><trkpt lat="30.97118924629171" lon="-7.092304622447566"><ele>1263.0</ele><time>2026-04-24T14:41:05Z</time></trkpt><trkpt lat="30.971043513815268" lon="-7.092285237624079"><ele>1263.0</ele><time>2026-04-24T14:41:06Z</time></trkpt><trkpt lat="30.97091055029922" lon="-7.09223176214907"><ele>1263.0</ele><time>2026-04-24T14:41:07Z</time></trkpt><trkpt lat="30.97080396550021" lon="-7.092135282680293"><ele>1262.0</ele><time>2026-04-24T14:41:08Z</time></trkpt><trkpt lat="30.97071412792272" lon="-7.0919900251604915"><ele>1261.0</ele><time>2026-04-24T14:41:09Z</time></trkpt><trkpt lat="30.970654809174476" lon="-7.091803184940921"><ele>1260.0</ele><time>2026-04-24T14:41:10Z</time></trkpt><trkpt lat="30.970590479565892" lon="-7.091611043629702"><ele>1263.3333333333333</ele><time>2026-04-24T14:41:11Z</time></trkpt><trkpt lat="30.970555628050537" lon="-7.091417763569986"><ele>1266.6666666666665</ele><time>2026-04-24T14:41:12Z</time></trkpt><trkpt lat="30.970543632565217" lon="-7.091223920938879"><ele>1270.0</ele><time>2026-04-24T14:41:13Z</time></trkpt><trkpt lat="30.970532076594182" lon="-7.0910374608705755"><ele>1270.0</ele><time>2026-04-24T14:41:14Z</time></trkpt><trkpt lat="30.970490821457318" lon="-7.090866943666113"><ele>1270.0</ele><time>2026-04-24T14:41:15Z</time></trkpt><trkpt lat="30.970429920622124" lon="-7.09069106078587"><ele>1270.0</ele><time>2026-04-24T14:41:16Z</time></trkpt><trkpt lat="30.970330043236597" lon="-7.090534969327999"><ele>1277.0</ele><time>2026-04-24T14:41:17Z</time></trkpt><trkpt lat="30.970237324079957" lon="-7.0903627031248915"><ele>1284.0</ele><time>2026-04-24T14:41:18Z</time></trkpt><trkpt lat="30.97015453139293" lon="-7.09016991431597"><ele>1291.0</ele><time>2026-04-24T14:41:19Z</time></trkpt><trkpt lat="30.970071692533452" lon="-7.0899811213431265"><ele>1296.3333333333333</ele><time>2026-04-24T14:41:20Z</time></trkpt><trkpt lat="30.970033256369156" lon="-7.089769356244729"><ele>1301.6666666666667</ele><time>2026-04-24T14:41:21Z</time></trkpt><trkpt lat="30.969987797408628" lon="-7.0895620003112585"><ele>1307.0</ele><time>2026-04-24T14:41:22Z</time></trkpt><trkpt lat="30.96993475269795" lon="-7.08935463192894"><ele>1300.0</ele><time>2026-04-24T14:41:23Z</time></trkpt><trkpt lat="30.969898127436554" lon="-7.0891482312584415"><ele>1293.0</ele><time>2026-04-24T14:41:24Z</time></trkpt><trkpt lat="30.96984886691933" lon="-7.0889481031076205"><ele>1286.0</ele><time>2026-04-24T14:41:25Z</time></trkpt><trkpt lat="30.96977050375785" lon="-7.088753251913157"><ele>1286.0</ele><time>2026-04-24T14:41:26Z</time></trkpt><trkpt lat="30.96966470197401" lon="-7.088565911555411"><ele>1286.0</ele><time>2026-04-24T14:41:27Z</time></trkpt><trkpt lat="30.969564095798688" lon="-7.088364880721744"><ele>1286.0</ele><time>2026-04-24T14:41:28Z</time></trkpt><trkpt lat="30.96950415306028" lon="-7.088136348423607"><ele>1293.6666666666667</ele><time>2026-04-24T14:41:29Z</time></trkpt><trkpt lat="30.96943215361712" lon="-7.087912837328212"><ele>1301.3333333333333</ele><time>2026-04-24T14:41:30Z</time></trkpt><trkpt lat="30.969380232495112" lon="-7.087679202045429"><ele>1309.0</ele><time>2026-04-24T14:41:31Z</time></trkpt><trkpt lat="30.969301256437042" lon="-7.087457064785785"><ele>1311.6666666666665</ele><time>2026-04-24T14:41:32Z</time></trkpt><trkpt lat="30.969218154173895" lon="-7.087235786326983"><ele>1314.3333333333333</ele><time>2026-04-24T14:41:33Z</time></trkpt><trkpt lat="30.969133927148235" lon="-7.087017594039363"><ele>1317.0</ele><time>2026-04-24T14:41:34Z</time></trkpt><trkpt lat="30.969047478430358" lon="-7.08680681223768"><ele>1310.0</ele><time>2026-04-24T14:41:35Z</time></trkpt><trkpt lat="30.968933265622717" lon="-7.086623460160275"><ele>1303.0</ele><time>2026-04-24T14:41:36Z</time></trkpt><trkpt lat="30.968848256472278" lon="-7.086424714857784"><ele>1296.0</ele><time>2026-04-24T14:41:37Z</time></trkpt><trkpt lat="30.968748877358408" lon="-7.086241468926963"><ele>1296.0</ele><time>2026-04-24T14:41:38Z</time></trkpt><trkpt lat="30.96866137590514" lon="-7.0860525726229575"><ele>1296.0</ele><time>2026-04-24T14:41:39Z</time></trkpt><trkpt lat="30.968560028765594" lon="-7.08586579894423"><ele>1296.0</ele><time>2026-04-24T14:41:40Z</time></trkpt><trkpt lat="30.968472745618506" lon="-7.0856559206063485"><ele>1293.0</ele><time>2026-04-24T14:41:41Z</time></trkpt><trkpt lat="30.968400370035614" lon="-7.08543861096287"><ele>1290.0</ele><time>2026-04-24T14:41:42Z</time></trkpt><trkpt lat="30.96832660820619" lon="-7.085229334509188"><ele>1287.0</ele><time>2026-04-24T14:41:42.999Z</time></trkpt><trkpt lat="30.968258853844205" lon="-7.085018902070445"><ele>1283.0</ele><time>2026-04-24T14:41:43.999Z</time></trkpt><trkpt lat="30.96822950783584" lon="-7.0847934272481945"><ele>1279.0</ele><time>2026-04-24T14:41:44.999Z</time></trkpt><trkpt lat="30.968212511944618" lon="-7.084561448976828"><ele>1275.0</ele><time>2026-04-24T14:41:45.999Z</time></trkpt><trkpt lat="30.968198978999354" lon="-7.08432591452671"><ele>1274.3333333333333</ele><time>2026-04-24T14:41:46.999Z</time></trkpt><trkpt lat="30.968198887108603" lon="-7.084084281925051"><ele>1273.6666666666665</ele><time>2026-04-24T14:41:47.999Z</time></trkpt><trkpt lat="30.968178090109888" lon="-7.083838702667047"><ele>1273.0</ele><time>2026-04-24T14:41:48.999Z</time></trkpt><trkpt lat="30.968159266002306" lon="-7.083592442926887"><ele>1273.0</ele><time>2026-04-24T14:41:49.999Z</time></trkpt><trkpt lat="30.9681249085554" lon="-7.083344823113093"><ele>1273.0</ele><time>2026-04-24T14:41:50.999Z</time></trkpt><trkpt lat="30.968105614894014" lon="-7.08310326740168"><ele>1273.0</ele><time>2026-04-24T14:41:51.999Z</time></trkpt><trkpt lat="30.96808701063724" lon="-7.082868531122871"><ele>1273.0</ele><time>2026-04-24T14:41:52.999Z</time></trkpt><trkpt lat="30.968067911370024" lon="-7.082643643378249"><ele>1273.0</ele><time>2026-04-24T14:41:53.999Z</time></trkpt><trkpt lat="30.968085253323068" lon="-7.082421237859902"><ele>1273.0</ele><time>2026-04-24T14:41:54.999Z</time></trkpt><trkpt lat="30.968127506850532" lon="-7.082225552793802"><ele>1273.0</ele><time>2026-04-24T14:41:55.999Z</time></trkpt><trkpt lat="30.968185821106587" lon="-7.082041197304521"><ele>1273.0</ele><time>2026-04-24T14:41:56.999Z</time></trkpt><trkpt lat="30.96823825446877" lon="-7.0818750304969"><ele>1273.0</ele><time>2026-04-24T14:41:57.999Z</time></trkpt><trkpt lat="30.968265561977343" lon="-7.081705676287065"><ele>1271.3333333333333</ele><time>2026-04-24T14:41:58.999Z</time></trkpt><trkpt lat="30.968262269658997" lon="-7.081537431095056"><ele>1269.6666666666667</ele><time>2026-04-24T14:41:59.999Z</time></trkpt><trkpt lat="30.968253831579037" lon="-7.081359790958534"><ele>1268.0</ele><time>2026-04-24T14:42:00.999Z</time></trkpt><trkpt lat="30.968247328234753" lon="-7.081178144988441"><ele>1268.0</ele><time>2026-04-24T14:42:01.999Z</time></trkpt><trkpt lat="30.968242721447872" lon="-7.080994541202266"><ele>1268.0</ele><time>2026-04-24T14:42:02.999Z</time></trkpt><trkpt lat="30.968233969784666" lon="-7.080812102985147"><ele>1268.0</ele><time>2026-04-24T14:42:03.999Z</time></trkpt><trkpt lat="30.96822118756589" lon="-7.080626496744109"><ele>1266.6666666666667</ele><time>2026-04-24T14:42:04.999Z</time></trkpt><trkpt lat="30.96820075498311" lon="-7.080446570079763"><ele>1265.3333333333333</ele><time>2026-04-24T14:42:05.999Z</time></trkpt><trkpt lat="30.968175412617676" lon="-7.080262992507981"><ele>1264.0</ele><time>2026-04-24T14:42:06.999Z</time></trkpt><trkpt lat="30.96814828320493" lon="-7.080080022389354"><ele>1261.6666666666665</ele><time>2026-04-24T14:42:07.999Z</time></trkpt><trkpt lat="30.96811217161919" lon="-7.079894788828415"><ele>1259.3333333333333</ele><time>2026-04-24T14:42:08.999Z</time></trkpt><trkpt lat="30.968074232600603" lon="-7.07970619333825"><ele>1257.0</ele><time>2026-04-24T14:42:09.999Z</time></trkpt><trkpt lat="30.96804371097004" lon="-7.079509873423572"><ele>1257.0</ele><time>2026-04-24T14:42:10.999Z</time></trkpt><trkpt lat="30.968022173428146" lon="-7.0793060889889095"><ele>1257.0</ele><time>2026-04-24T14:42:11.999Z</time></trkpt><trkpt lat="30.968010133465768" lon="-7.079092110735439"><ele>1257.0</ele><time>2026-04-24T14:42:12.999Z</time></trkpt><trkpt lat="30.968006406570915" lon="-7.078869397239865"><ele>1257.0</ele><time>2026-04-24T14:42:13.999Z</time></trkpt><trkpt lat="30.968021455700026" lon="-7.078642304438526"><ele>1257.0</ele><time>2026-04-24T14:42:14.999Z</time></trkpt><trkpt lat="30.968047888969735" lon="-7.078420023779026"><ele>1257.0</ele><time>2026-04-24T14:42:15.999Z</time></trkpt><trkpt lat="30.96807614672111" lon="-7.078203814289677"><ele>1258.3333333333333</ele><time>2026-04-24T14:42:16.999Z</time></trkpt><trkpt lat="30.968106584062404" lon="-7.078001133664132"><ele>1259.6666666666665</ele><time>2026-04-24T14:42:17.999Z</time></trkpt><trkpt lat="30.968134561271356" lon="-7.077812987047132"><ele>1261.0</ele><time>2026-04-24T14:42:18.999Z</time></trkpt><trkpt lat="30.968160352222807" lon="-7.077638754538584"><ele>1261.0</ele><time>2026-04-24T14:42:19.999Z</time></trkpt><trkpt lat="30.968185234255316" lon="-7.0774723459238515"><ele>1261.0</ele><time>2026-04-24T14:42:20.999Z</time></trkpt><trkpt lat="30.968215043121273" lon="-7.077312699159398"><ele>1261.0</ele><time>2026-04-24T14:42:21.999Z</time></trkpt><trkpt lat="30.968255825432966" lon="-7.077159970290548"><ele>1261.0</ele><time>2026-04-24T14:42:22.999Z</time></trkpt><trkpt lat="30.968310609170263" lon="-7.077015529945357"><ele>1263.5</ele><time>2026-04-24T14:42:23.999Z</time></trkpt><trkpt lat="30.968407966305445" lon="-7.076884336703263"><ele>1266.0</ele><time>2026-04-24T14:42:24.999Z</time></trkpt><trkpt lat="30.968511254068357" lon="-7.07678217706498"><ele>1268.5</ele><time>2026-04-24T14:42:25.999Z</time></trkpt><trkpt lat="30.96863285752186" lon="-7.076709707017867"><ele>1271.0</ele><time>2026-04-24T14:42:26.999Z</time></trkpt><trkpt lat="30.968742447815156" lon="-7.076648926521303"><ele>1271.3999999999999</ele><time>2026-04-24T14:42:27.999Z</time></trkpt><trkpt lat="30.968849007147213" lon="-7.076601227275442"><ele>1271.8</ele><time>2026-04-24T14:42:28.999Z</time></trkpt><trkpt lat="30.968930077121634" lon="-7.0765438722250575"><ele>1272.1999999999998</ele><time>2026-04-24T14:42:30Z</time></trkpt><trkpt lat="30.968993453885755" lon="-7.0764690480853005"><ele>1272.6</ele><time>2026-04-24T14:42:31Z</time></trkpt><trkpt lat="30.969025593385137" lon="-7.076377832380641"><ele>1273.0</ele><time>2026-04-24T14:42:32Z</time></trkpt><trkpt lat="30.969023910345868" lon="-7.076289117404619"><ele>1273.0</ele><time>2026-04-24T14:42:33Z</time></trkpt><trkpt lat="30.96900359299355" lon="-7.076204447959108"><ele>1273.0</ele><time>2026-04-24T14:42:34Z</time></trkpt><trkpt lat="30.968964825269286" lon="-7.076119670443612"><ele>1273.0</ele><time>2026-04-24T14:42:35Z</time></trkpt><trkpt lat="30.96891773583415" lon="-7.076026479967185"><ele>1273.0</ele><time>2026-04-24T14:42:36Z</time></trkpt><trkpt lat="30.96886998673958" lon="-7.0759258014080775"><ele>1273.0</ele><time>2026-04-24T14:42:37Z</time></trkpt><trkpt lat="30.968829180465256" lon="-7.075811095266495"><ele>1271.2</ele><time>2026-04-24T14:42:38Z</time></trkpt><trkpt lat="30.96881066677683" lon="-7.075685305905693"><ele>1269.4</ele><time>2026-04-24T14:42:39Z</time></trkpt><trkpt lat="30.968809716991526" lon="-7.0755628086567395"><ele>1267.6000000000001</ele><time>2026-04-24T14:42:40Z</time></trkpt><trkpt lat="30.968820016144132" lon="-7.075440855188858"><ele>1265.8</ele><time>2026-04-24T14:42:41Z</time></trkpt><trkpt lat="30.968866503408513" lon="-7.075322191617421"><ele>1264.0</ele><time>2026-04-24T14:42:42Z</time></trkpt><trkpt lat="30.968937500352435" lon="-7.075216699932661"><ele>1264.0</ele><time>2026-04-24T14:42:43Z</time></trkpt><trkpt lat="30.96902724179736" lon="-7.0751362441236445"><ele>1264.0</ele><time>2026-04-24T14:42:44Z</time></trkpt><trkpt lat="30.969133890652245" lon="-7.075076993336008"><ele>1264.0</ele><time>2026-04-24T14:42:45Z</time></trkpt><trkpt lat="30.96927461206932" lon="-7.0750485012045585"><ele>1264.0</ele><time>2026-04-24T14:42:46Z</time></trkpt><trkpt lat="30.96941107929652" lon="-7.075045795140969"><ele>1264.75</ele><time>2026-04-24T14:42:47Z</time></trkpt><trkpt lat="30.969546064558035" lon="-7.075048375649013"><ele>1265.5</ele><time>2026-04-24T14:42:48Z</time></trkpt><trkpt lat="30.969684767503328" lon="-7.075052154489257"><ele>1266.25</ele><time>2026-04-24T14:42:49Z</time></trkpt><trkpt lat="30.96982524491194" lon="-7.075045648540546"><ele>1267.0</ele><time>2026-04-24T14:42:50Z</time></trkpt><trkpt lat="30.96996959395507" lon="-7.0750197590978665"><ele>1268.0</ele><time>2026-04-24T14:42:51Z</time></trkpt><trkpt lat="30.970112586149355" lon="-7.074964674333128"><ele>1269.0</ele><time>2026-04-24T14:42:52Z</time></trkpt><trkpt lat="30.97025404956074" lon="-7.0748928404852975"><ele>1270.0</ele><time>2026-04-24T14:42:53Z</time></trkpt><trkpt lat="30.970398653351857" lon="-7.074820840309475"><ele>1267.5</ele><time>2026-04-24T14:42:54Z</time></trkpt><trkpt lat="30.970538722731835" lon="-7.074751541472336"><ele>1265.0</ele><time>2026-04-24T14:42:55Z</time></trkpt><trkpt lat="30.97067529162512" lon="-7.074682791577149"><ele>1262.5</ele><time>2026-04-24T14:42:56Z</time></trkpt><trkpt lat="30.970811233042543" lon="-7.074613665469378"><ele>1260.0</ele><time>2026-04-24T14:42:57Z</time></trkpt><trkpt lat="30.970938059896778" lon="-7.074547782571974"><ele>1260.0</ele><time>2026-04-24T14:42:58Z</time></trkpt><trkpt lat="30.97106163575363" lon="-7.074483690679"><ele>1260.0</ele><time>2026-04-24T14:42:59Z</time></trkpt><trkpt lat="30.971184589079094" lon="-7.074420248970356"><ele>1260.0</ele><time>2026-04-24T14:43:00Z</time></trkpt><trkpt lat="30.971303109410034" lon="-7.074358055092931"><ele>1260.0</ele><time>2026-04-24T14:43:01Z</time></trkpt><trkpt lat="30.971416905590555" lon="-7.074298881038469"><ele>1260.0</ele><time>2026-04-24T14:43:02Z</time></trkpt><trkpt lat="30.97152037891636" lon="-7.074245074963497"><ele>1260.0</ele><time>2026-04-24T14:43:03Z</time></trkpt><trkpt lat="30.971602186276467" lon="-7.074185638163524"><ele>1260.0</ele><time>2026-04-24T14:43:04Z</time></trkpt><trkpt lat="30.97167271422136" lon="-7.074118063160545"><ele>1260.0</ele><time>2026-04-24T14:43:05Z</time></trkpt><trkpt lat="30.971703998962163" lon="-7.074029921458402"><ele>1260.0</ele><time>2026-04-24T14:43:06Z</time></trkpt><trkpt lat="30.971728825909594" lon="-7.0739281078847345"><ele>1259.6</ele><time>2026-04-24T14:43:07Z</time></trkpt><trkpt lat="30.97172813445572" lon="-7.073817818199547"><ele>1259.2</ele><time>2026-04-24T14:43:08Z</time></trkpt><trkpt lat="30.971711773617237" lon="-7.073698929805775"><ele>1258.8</ele><time>2026-04-24T14:43:08.999Z</time></trkpt><trkpt lat="30.971639739910096" lon="-7.0736036955601325"><ele>1258.4</ele><time>2026-04-24T14:43:09.999Z</time></trkpt><trkpt lat="30.971581610164815" lon="-7.073498859721789"><ele>1258.0</ele><time>2026-04-24T14:43:10.999Z</time></trkpt><trkpt lat="30.971520835443755" lon="-7.0733892538451775"><ele>1257.75</ele><time>2026-04-24T14:43:11.999Z</time></trkpt><trkpt lat="30.971469828087642" lon="-7.073263490063124"><ele>1257.5</ele><time>2026-04-24T14:43:12.999Z</time></trkpt><trkpt lat="30.97139910414076" lon="-7.073145716375259"><ele>1257.25</ele><time>2026-04-24T14:43:13.999Z</time></trkpt><trkpt lat="30.97132606928411" lon="-7.073031211123889"><ele>1257.0</ele><time>2026-04-24T14:43:14.999Z</time></trkpt><trkpt lat="30.971257671913357" lon="-7.0729183303386485"><ele>1257.0</ele><time>2026-04-24T14:43:15.999Z</time></trkpt><trkpt lat="30.971205435260043" lon="-7.072797850310847"><ele>1257.0</ele><time>2026-04-24T14:43:16.999Z</time></trkpt><trkpt lat="30.97117431300619" lon="-7.072668854443247"><ele>1257.0</ele><time>2026-04-24T14:43:17.999Z</time></trkpt><trkpt lat="30.971145322365484" lon="-7.072530983024615"><ele>1257.0</ele><time>2026-04-24T14:43:18.999Z</time></trkpt><trkpt lat="30.971158202939677" lon="-7.0723919048794786"><ele>1254.6666666666667</ele><time>2026-04-24T14:43:19.999Z</time></trkpt><trkpt lat="30.971222129278104" lon="-7.07225120275551"><ele>1252.3333333333335</ele><time>2026-04-24T14:43:20.999Z</time></trkpt><trkpt lat="30.971319523243967" lon="-7.072108932969384"><ele>1250.0</ele><time>2026-04-24T14:43:21.999Z</time></trkpt><trkpt lat="30.971434668109765" lon="-7.071951839501943"><ele>1250.0</ele><time>2026-04-24T14:43:22.999Z</time></trkpt><trkpt lat="30.971557717992187" lon="-7.071792149877051"><ele>1250.0</ele><time>2026-04-24T14:43:23.999Z</time></trkpt><trkpt lat="30.971688511810427" lon="-7.071621259278145"><ele>1250.0</ele><time>2026-04-24T14:43:24.999Z</time></trkpt><trkpt lat="30.97182349058655" lon="-7.071452829745794"><ele>1248.6666666666667</ele><time>2026-04-24T14:43:25.999Z</time></trkpt><trkpt lat="30.971965690713073" lon="-7.071276149625614"><ele>1247.3333333333333</ele><time>2026-04-24T14:43:26.999Z</time></trkpt><trkpt lat="30.972118337161277" lon="-7.071086073030562"><ele>1246.0</ele><time>2026-04-24T14:43:27.999Z</time></trkpt><trkpt lat="30.97228053591181" lon="-7.070883456060379"><ele>1245.5</ele><time>2026-04-24T14:43:28.999Z</time></trkpt><trkpt lat="30.972450894738117" lon="-7.070670734050337"><ele>1245.0</ele><time>2026-04-24T14:43:29.999Z</time></trkpt><trkpt lat="30.972625060673394" lon="-7.070453345794048"><ele>1244.0</ele><time>2026-04-24T14:43:30.999Z</time></trkpt><trkpt lat="30.9728061170154" lon="-7.070229109241574"><ele>1243.0</ele><time>2026-04-24T14:43:31.999Z</time></trkpt><trkpt lat="30.973001681548894" lon="-7.069994568333083"><ele>1242.0</ele><time>2026-04-24T14:43:32.999Z</time></trkpt><trkpt lat="30.973210287796075" lon="-7.0697445177089495"><ele>1241.0</ele><time>2026-04-24T14:43:33.999Z</time></trkpt><trkpt lat="30.97341552600206" lon="-7.069498922630714"><ele>1240.5</ele><time>2026-04-24T14:43:34.999Z</time></trkpt><trkpt lat="30.973600998280695" lon="-7.069277230060448"><ele>1240.0</ele><time>2026-04-24T14:43:35.999Z</time></trkpt><trkpt lat="30.97377628893758" lon="-7.06907034802943"><ele>1241.0</ele><time>2026-04-24T14:43:36.999Z</time></trkpt><trkpt lat="30.973941020077696" lon="-7.068878258893254"><ele>1242.0</ele><time>2026-04-24T14:43:37.999Z</time></trkpt><trkpt lat="30.974103848319523" lon="-7.068689629131388"><ele>1240.0</ele><time>2026-04-24T14:43:38.999Z</time></trkpt><trkpt lat="30.974262944785103" lon="-7.068502657701629"><ele>1238.0</ele><time>2026-04-24T14:43:39.999Z</time></trkpt><trkpt lat="30.974421608766896" lon="-7.068310801074965"><ele>1237.6666666666667</ele><time>2026-04-24T14:43:40.999Z</time></trkpt><trkpt lat="30.974575195024553" lon="-7.068124949812729"><ele>1237.3333333333333</ele><time>2026-04-24T14:43:41.999Z</time></trkpt><trkpt lat="30.97472414765097" lon="-7.067945404432159"><ele>1237.0</ele><time>2026-04-24T14:43:42.999Z</time></trkpt><trkpt lat="30.97486976474262" lon="-7.067769783897524"><ele>1237.0</ele><time>2026-04-24T14:43:43.999Z</time></trkpt><trkpt lat="30.975020603468046" lon="-7.067587716029198"><ele>1237.0</ele><time>2026-04-24T14:43:44.999Z</time></trkpt><trkpt lat="30.975180420923756" lon="-7.067394444970234"><ele>1237.0</ele><time>2026-04-24T14:43:45.999Z</time></trkpt><trkpt lat="30.975346430382857" lon="-7.067194097847578"><ele>1237.0</ele><time>2026-04-24T14:43:46.999Z</time></trkpt><trkpt lat="30.975513304756515" lon="-7.066992472864506"><ele>1237.0</ele><time>2026-04-24T14:43:47.999Z</time></trkpt><trkpt lat="30.975671513775662" lon="-7.066801557806108"><ele>1237.0</ele><time>2026-04-24T14:43:48.999Z</time></trkpt><trkpt lat="30.975818499563903" lon="-7.066624009144443"><ele>1237.0</ele><time>2026-04-24T14:43:49.999Z</time></trkpt><trkpt lat="30.97595610710548" lon="-7.06645692572214"><ele>1237.0</ele><time>2026-04-24T14:43:50.999Z</time></trkpt><trkpt lat="30.97608639836221" lon="-7.066297664264659"><ele>1235.6666666666665</ele><time>2026-04-24T14:43:51.999Z</time></trkpt><trkpt lat="30.976218324526144" lon="-7.066161347959289"><ele>1234.3333333333333</ele><time>2026-04-24T14:43:52.999Z</time></trkpt><trkpt lat="30.976288821147826" lon="-7.065980077247715"><ele>1233.0</ele><time>2026-04-24T14:43:53.999Z</time></trkpt><trkpt lat="30.97635707335353" lon="-7.0658019815311475"><ele>1233.0</ele><time>2026-04-24T14:43:54.999Z</time></trkpt><trkpt lat="30.976370596518326" lon="-7.065601997447345"><ele>1233.0</ele><time>2026-04-24T14:43:55.999Z</time></trkpt><trkpt lat="30.976362947223507" lon="-7.065386405048622"><ele>1233.0</ele><time>2026-04-24T14:43:56.999Z</time></trkpt><trkpt lat="30.9763038453921" lon="-7.065181767979875"><ele>1233.0</ele><time>2026-04-24T14:43:57.999Z</time></trkpt><trkpt lat="30.976249398580645" lon="-7.064973704798064"><ele>1233.0</ele><time>2026-04-24T14:43:58.999Z</time></trkpt><trkpt lat="30.976139949254453" lon="-7.064808659331402"><ele>1233.0</ele><time>2026-04-24T14:43:59.999Z</time></trkpt><trkpt lat="30.97602998588325" lon="-7.064664594202752"><ele>1232.6666666666667</ele><time>2026-04-24T14:44:00.999Z</time></trkpt><trkpt lat="30.975920247014713" lon="-7.064525543899967"><ele>1232.3333333333335</ele><time>2026-04-24T14:44:01.999Z</time></trkpt><trkpt lat="30.975785972103104" lon="-7.0644258579688906"><ele>1232.0</ele><time>2026-04-24T14:44:02.999Z</time></trkpt><trkpt lat="30.975660179152666" lon="-7.064331736713287"><ele>1232.0</ele><time>2026-04-24T14:44:03.999Z</time></trkpt><trkpt lat="30.97554970819482" lon="-7.064248331178067"><ele>1232.0</ele><time>2026-04-24T14:44:04.999Z</time></trkpt><trkpt lat="30.975444680000276" lon="-7.06416876276247"><ele>1232.0</ele><time>2026-04-24T14:44:05.999Z</time></trkpt><trkpt lat="30.975345474250673" lon="-7.0640946462401955"><ele>1232.0</ele><time>2026-04-24T14:44:06.999Z</time></trkpt><trkpt lat="30.975250386148417" lon="-7.064029424795689"><ele>1231.75</ele><time>2026-04-24T14:44:07.999Z</time></trkpt><trkpt lat="30.975151422173987" lon="-7.063958815165001"><ele>1231.5</ele><time>2026-04-24T14:44:08.999Z</time></trkpt><trkpt lat="30.975044973191352" lon="-7.063878720085539"><ele>1231.25</ele><time>2026-04-24T14:44:10Z</time></trkpt><trkpt lat="30.97492718407362" lon="-7.0637898804204315"><ele>1231.0</ele><time>2026-04-24T14:44:11Z</time></trkpt><trkpt lat="30.974805069731804" lon="-7.063697881563576"><ele>1230.3333333333333</ele><time>2026-04-24T14:44:12Z</time></trkpt><trkpt lat="30.974676550912754" lon="-7.063601426770796"><ele>1229.6666666666667</ele><time>2026-04-24T14:44:13Z</time></trkpt><trkpt lat="30.974540520498334" lon="-7.063499781488621"><ele>1229.0</ele><time>2026-04-24T14:44:14Z</time></trkpt><trkpt lat="30.97439810771172" lon="-7.063392296101829"><ele>1229.6666666666667</ele><time>2026-04-24T14:44:15Z</time></trkpt><trkpt lat="30.974250106611507" lon="-7.063278621565222"><ele>1230.3333333333333</ele><time>2026-04-24T14:44:16Z</time></trkpt><trkpt lat="30.97409669568792" lon="-7.063160395659035"><ele>1231.0</ele><time>2026-04-24T14:44:17Z</time></trkpt><trkpt lat="30.97394468352369" lon="-7.063043190209882"><ele>1232.0</ele><time>2026-04-24T14:44:18Z</time></trkpt><trkpt lat="30.97378585137255" lon="-7.0629217693752455"><ele>1233.0</ele><time>2026-04-24T14:44:19Z</time></trkpt><trkpt lat="30.97361946986693" lon="-7.062798408644209"><ele>1234.0</ele><time>2026-04-24T14:44:20Z</time></trkpt><trkpt lat="30.973448177862014" lon="-7.062670288488268"><ele>1234.0</ele><time>2026-04-24T14:44:21Z</time></trkpt><trkpt lat="30.973274637353796" lon="-7.0625382538878325"><ele>1234.0</ele><time>2026-04-24T14:44:22Z</time></trkpt><trkpt lat="30.973096821522674" lon="-7.062405487581534"><ele>1234.0</ele><time>2026-04-24T14:44:23Z</time></trkpt><trkpt lat="30.972914962601084" lon="-7.062271525496444"><ele>1235.0</ele><time>2026-04-24T14:44:24Z</time></trkpt><trkpt lat="30.972732006575068" lon="-7.062134838351679"><ele>1236.0</ele><time>2026-04-24T14:44:25Z</time></trkpt><trkpt lat="30.972547146964" lon="-7.061995523729099"><ele>1237.0</ele><time>2026-04-24T14:44:26Z</time></trkpt><trkpt lat="30.972360024287582" lon="-7.061856466000763"><ele>1237.0</ele><time>2026-04-24T14:44:27Z</time></trkpt><trkpt lat="30.97217308295254" lon="-7.061717883470953"><ele>1237.0</ele><time>2026-04-24T14:44:28Z</time></trkpt><trkpt lat="30.971990184863387" lon="-7.061578641597079"><ele>1237.0</ele><time>2026-04-24T14:44:29Z</time></trkpt><trkpt lat="30.971807683353713" lon="-7.061438402354479"><ele>1237.3333333333333</ele><time>2026-04-24T14:44:30Z</time></trkpt><trkpt lat="30.971628056485876" lon="-7.061295059730604"><ele>1237.6666666666667</ele><time>2026-04-24T14:44:31Z</time></trkpt><trkpt lat="30.97146289244167" lon="-7.061134484880562"><ele>1238.0</ele><time>2026-04-24T14:44:32Z</time></trkpt><trkpt lat="30.97132696922669" lon="-7.0609562862629005"><ele>1238.6666666666667</ele><time>2026-04-24T14:44:33Z</time></trkpt><trkpt lat="30.971226358156684" lon="-7.06075537883238"><ele>1239.3333333333333</ele><time>2026-04-24T14:44:34Z</time></trkpt><trkpt lat="30.971166582641747" lon="-7.060531763401503"><ele>1240.0</ele><time>2026-04-24T14:44:35Z</time></trkpt><trkpt lat="30.971142890657756" lon="-7.0602889916916105"><ele>1240.0</ele><time>2026-04-24T14:44:36Z</time></trkpt><trkpt lat="30.971145384748418" lon="-7.060038978891448"><ele>1240.0</ele><time>2026-04-24T14:44:37Z</time></trkpt><trkpt lat="30.971160195081506" lon="-7.059792716242698"><ele>1240.0</ele><time>2026-04-24T14:44:38Z</time></trkpt><trkpt lat="30.971173829948246" lon="-7.059552442480452"><ele>1238.3333333333333</ele><time>2026-04-24T14:44:39Z</time></trkpt><trkpt lat="30.9711750386225" lon="-7.059318796485068"><ele>1236.6666666666667</ele><time>2026-04-24T14:44:40Z</time></trkpt><trkpt lat="30.971156140969" lon="-7.059090078207908"><ele>1235.0</ele><time>2026-04-24T14:44:41Z</time></trkpt><trkpt lat="30.971105990521625" lon="-7.058872117619182"><ele>1234.6666666666667</ele><time>2026-04-24T14:44:42Z</time></trkpt><trkpt lat="30.971026812142455" lon="-7.058675474216586"><ele>1234.3333333333333</ele><time>2026-04-24T14:44:43Z</time></trkpt><trkpt lat="30.970923900616892" lon="-7.058503452966252"><ele>1234.0</ele><time>2026-04-24T14:44:44Z</time></trkpt><trkpt lat="30.970802165088877" lon="-7.058345421767804"><ele>1231.0</ele><time>2026-04-24T14:44:45Z</time></trkpt><trkpt lat="30.97067453549797" lon="-7.05818488631768"><ele>1228.0</ele><time>2026-04-24T14:44:46Z</time></trkpt><trkpt lat="30.970549434921214" lon="-7.058017860767402"><ele>1225.0</ele><time>2026-04-24T14:44:47Z</time></trkpt><trkpt lat="30.970425694715953" lon="-7.057847852503001"><ele>1225.0</ele><time>2026-04-24T14:44:48Z</time></trkpt><trkpt lat="30.97029836319034" lon="-7.057680914242379"><ele>1225.0</ele><time>2026-04-24T14:44:49Z</time></trkpt><trkpt lat="30.970171226508988" lon="-7.0575206989232635"><ele>1225.0</ele><time>2026-04-24T14:44:50Z</time></trkpt><trkpt lat="30.970048571859444" lon="-7.057365864931565"><ele>1224.3333333333333</ele><time>2026-04-24T14:44:51Z</time></trkpt><trkpt lat="30.969931885032356" lon="-7.057216602730788"><ele>1223.6666666666667</ele><time>2026-04-24T14:44:52Z</time></trkpt><trkpt lat="30.969822190984424" lon="-7.057074884072158"><ele>1223.0</ele><time>2026-04-24T14:44:53Z</time></trkpt><trkpt lat="30.969716673462727" lon="-7.056937087932717"><ele>1223.0</ele><time>2026-04-24T14:44:54Z</time></trkpt><trkpt lat="30.969614847355224" lon="-7.056803789139298"><ele>1223.0</ele><time>2026-04-24T14:44:55Z</time></trkpt><trkpt lat="30.969513448196906" lon="-7.056674657775616"><ele>1223.0</ele><time>2026-04-24T14:44:56Z</time></trkpt><trkpt lat="30.969415865255623" lon="-7.056550160755531"><ele>1223.0</ele><time>2026-04-24T14:44:57Z</time></trkpt><trkpt lat="30.96931860543265" lon="-7.056425596874178"><ele>1222.3333333333335</ele><time>2026-04-24T14:44:58Z</time></trkpt><trkpt lat="30.969217313952754" lon="-7.056294915427724"><ele>1221.6666666666667</ele><time>2026-04-24T14:44:59Z</time></trkpt><trkpt lat="30.969109859234266" lon="-7.056159002693127"><ele>1221.0</ele><time>2026-04-24T14:45:00Z</time></trkpt><trkpt lat="30.96900660930694" lon="-7.056027150996037"><ele>1220.25</ele><time>2026-04-24T14:45:01Z</time></trkpt><trkpt lat="30.9689074280792" lon="-7.055893158623376"><ele>1219.5</ele><time>2026-04-24T14:45:02Z</time></trkpt><trkpt lat="30.968807717934475" lon="-7.0557613562666575"><ele>1218.75</ele><time>2026-04-24T14:45:03Z</time></trkpt><trkpt lat="30.96871268927479" lon="-7.055636444706013"><ele>1218.0</ele><time>2026-04-24T14:45:04Z</time></trkpt><trkpt lat="30.968614885113652" lon="-7.055513879101345"><ele>1217.5</ele><time>2026-04-24T14:45:05Z</time></trkpt><trkpt lat="30.96852131859396" lon="-7.055399036694928"><ele>1217.0</ele><time>2026-04-24T14:45:06Z</time></trkpt><trkpt lat="30.96843295178418" lon="-7.055289894299257"><ele>1216.5</ele><time>2026-04-24T14:45:07Z</time></trkpt><trkpt lat="30.968350024797516" lon="-7.055182512322826"><ele>1216.0</ele><time>2026-04-24T14:45:08Z</time></trkpt><trkpt lat="30.968269845910033" lon="-7.05507442525017"><ele>1215.5</ele><time>2026-04-24T14:45:09Z</time></trkpt><trkpt lat="30.968188607190207" lon="-7.054965185907011"><ele>1215.0</ele><time>2026-04-24T14:45:10Z</time></trkpt><trkpt lat="30.968103677152882" lon="-7.054855068788991"><ele>1214.5</ele><time>2026-04-24T14:45:11Z</time></trkpt><trkpt lat="30.9680148769484" lon="-7.054742424305846"><ele>1214.0</ele><time>2026-04-24T14:45:12Z</time></trkpt><trkpt lat="30.967922012296683" lon="-7.054627674330638"><ele>1213.5</ele><time>2026-04-24T14:45:13Z</time></trkpt><trkpt lat="30.96781032448517" lon="-7.0545263429755085"><ele>1213.0</ele><time>2026-04-24T14:45:14Z</time></trkpt><trkpt lat="30.967717026010025" lon="-7.0544019566747"><ele>1212.5</ele><time>2026-04-24T14:45:15Z</time></trkpt><trkpt lat="30.96763555117117" lon="-7.054262823700578"><ele>1212.0</ele><time>2026-04-24T14:45:16Z</time></trkpt><trkpt lat="30.967541666958358" lon="-7.054138694700691"><ele>1211.25</ele><time>2026-04-24T14:45:17Z</time></trkpt><trkpt lat="30.967445468801017" lon="-7.054012808725384"><ele>1210.5</ele><time>2026-04-24T14:45:18Z</time></trkpt><trkpt lat="30.96734648223073" lon="-7.053887813080132"><ele>1209.75</ele><time>2026-04-24T14:45:19Z</time></trkpt><trkpt lat="30.967246427371503" lon="-7.053760482280361"><ele>1209.0</ele><time>2026-04-24T14:45:20Z</time></trkpt><trkpt lat="30.967146206341" lon="-7.053632698599949"><ele>1209.0</ele><time>2026-04-24T14:45:21Z</time></trkpt><trkpt lat="30.967042216613862" lon="-7.0534997748263235"><ele>1209.0</ele><time>2026-04-24T14:45:22Z</time></trkpt><trkpt lat="30.966938919530424" lon="-7.053368565950831"><ele>1209.0</ele><time>2026-04-24T14:45:23Z</time></trkpt><trkpt lat="30.966837863950033" lon="-7.053236646978937"><ele>1208.3333333333333</ele><time>2026-04-24T14:45:24Z</time></trkpt><trkpt lat="30.96673183703656" lon="-7.053096043623435"><ele>1207.6666666666665</ele><time>2026-04-24T14:45:25Z</time></trkpt><trkpt lat="30.966622761543803" lon="-7.052952820175254"><ele>1207.0</ele><time>2026-04-24T14:45:26Z</time></trkpt><trkpt lat="30.96651184649544" lon="-7.05280615894095"><ele>1207.0</ele><time>2026-04-24T14:45:27Z</time></trkpt><trkpt lat="30.966392854581045" lon="-7.052654746223874"><ele>1207.0</ele><time>2026-04-24T14:45:28Z</time></trkpt><trkpt lat="30.96626266259805" lon="-7.052487968082611"><ele>1207.0</ele><time>2026-04-24T14:45:29Z</time></trkpt><trkpt lat="30.966125991108054" lon="-7.052309829818312"><ele>1206.3333333333333</ele><time>2026-04-24T14:45:30Z</time></trkpt><trkpt lat="30.96596643185029" lon="-7.052136341721971"><ele>1205.6666666666667</ele><time>2026-04-24T14:45:31Z</time></trkpt><trkpt lat="30.965813629382335" lon="-7.0519446877824725"><ele>1205.0</ele><time>2026-04-24T14:45:32Z</time></trkpt><trkpt lat="30.96565748938143" lon="-7.051749477076877"><ele>1204.5</ele><time>2026-04-24T14:45:33Z</time></trkpt><trkpt lat="30.965495384482356" lon="-7.051547910664998"><ele>1204.0</ele><time>2026-04-24T14:45:34Z</time></trkpt><trkpt lat="30.965330248086232" lon="-7.0513406768240285"><ele>1204.0</ele><time>2026-04-24T14:45:35Z</time></trkpt><trkpt lat="30.965156862581303" lon="-7.051125173928223"><ele>1204.0</ele><time>2026-04-24T14:45:36Z</time></trkpt><trkpt lat="30.964980645123656" lon="-7.050905476918694"><ele>1207.0</ele><time>2026-04-24T14:45:37Z</time></trkpt><trkpt lat="30.96480597214539" lon="-7.050687269870108"><ele>1210.0</ele><time>2026-04-24T14:45:38Z</time></trkpt><trkpt lat="30.964630951994014" lon="-7.050467965347716"><ele>1210.0</ele><time>2026-04-24T14:45:39Z</time></trkpt><trkpt lat="30.96445891363043" lon="-7.050245082506547"><ele>1210.0</ele><time>2026-04-24T14:45:40Z</time></trkpt><trkpt lat="30.96429069644434" lon="-7.050021598484712"><ele>1212.5</ele><time>2026-04-24T14:45:41Z</time></trkpt><trkpt lat="30.96412685067609" lon="-7.049803555877243"><ele>1215.0</ele><time>2026-04-24T14:45:42Z</time></trkpt><trkpt lat="30.963963956582834" lon="-7.049587500440312"><ele>1215.0</ele><time>2026-04-24T14:45:43Z</time></trkpt><trkpt lat="30.96379618045036" lon="-7.049372910206346"><ele>1215.0</ele><time>2026-04-24T14:45:44Z</time></trkpt><trkpt lat="30.963631570709026" lon="-7.049161698590428"><ele>1215.5</ele><time>2026-04-24T14:45:45Z</time></trkpt><trkpt lat="30.96347031710577" lon="-7.048955816547059"><ele>1216.0</ele><time>2026-04-24T14:45:46Z</time></trkpt><trkpt lat="30.963312099976847" lon="-7.048753622428264"><ele>1216.0</ele><time>2026-04-24T14:45:47Z</time></trkpt><trkpt lat="30.963155074934903" lon="-7.048553099589029"><ele>1216.0</ele><time>2026-04-24T14:45:48Z</time></trkpt><trkpt lat="30.96299967421283" lon="-7.04835341418506"><ele>1217.3333333333333</ele><time>2026-04-24T14:45:49Z</time></trkpt><trkpt lat="30.96284409691619" lon="-7.048159315270977"><ele>1218.6666666666667</ele><time>2026-04-24T14:45:50Z</time></trkpt><trkpt lat="30.96269774792377" lon="-7.0479765919081325"><ele>1220.0</ele><time>2026-04-24T14:45:51Z</time></trkpt><trkpt lat="30.962555664966903" lon="-7.047800763638418"><ele>1219.3333333333335</ele><time>2026-04-24T14:45:52Z</time></trkpt><trkpt lat="30.962413049208237" lon="-7.047623560280464"><ele>1218.6666666666667</ele><time>2026-04-24T14:45:53Z</time></trkpt><trkpt lat="30.9622627043882" lon="-7.047450675031598"><ele>1218.0</ele><time>2026-04-24T14:45:54Z</time></trkpt><trkpt lat="30.96210420276081" lon="-7.047279046629409"><ele>1217.6666666666667</ele><time>2026-04-24T14:45:55Z</time></trkpt><trkpt lat="30.961946330171354" lon="-7.0471076056291055"><ele>1217.3333333333335</ele><time>2026-04-24T14:45:56Z</time></trkpt><trkpt lat="30.961787981600683" lon="-7.04693549823923"><ele>1217.0</ele><time>2026-04-24T14:45:57Z</time></trkpt><trkpt lat="30.961628569153465" lon="-7.046762453704941"><ele>1215.6666666666667</ele><time>2026-04-24T14:45:58Z</time></trkpt><trkpt lat="30.961470477744253" lon="-7.046588810246234"><ele>1214.3333333333333</ele><time>2026-04-24T14:45:59Z</time></trkpt><trkpt lat="30.961317738627216" lon="-7.046419350997555"><ele>1213.0</ele><time>2026-04-24T14:46:00Z</time></trkpt><trkpt lat="30.96116935493004" lon="-7.046254799188547"><ele>1213.0</ele><time>2026-04-24T14:46:01Z</time></trkpt><trkpt lat="30.961026032354987" lon="-7.046097280714935"><ele>1213.0</ele><time>2026-04-24T14:46:02Z</time></trkpt><trkpt lat="30.960886066577146" lon="-7.045945523166379"><ele>1213.0</ele><time>2026-04-24T14:46:03Z</time></trkpt><trkpt lat="30.960741595298497" lon="-7.045802810198786"><ele>1213.3333333333333</ele><time>2026-04-24T14:46:04Z</time></trkpt><trkpt lat="30.96058373603376" lon="-7.04568534672523"><ele>1213.6666666666667</ele><time>2026-04-24T14:46:05Z</time></trkpt><trkpt lat="30.960414206369087" lon="-7.0455866263792455"><ele>1214.0</ele><time>2026-04-24T14:46:06Z</time></trkpt><trkpt lat="30.960230025501406" lon="-7.04551155652428"><ele>1214.0</ele><time>2026-04-24T14:46:07Z</time></trkpt><trkpt lat="30.960037176842214" lon="-7.045460712040901"><ele>1214.0</ele><time>2026-04-24T14:46:08Z</time></trkpt><trkpt lat="30.95983419136785" lon="-7.045424827793694"><ele>1214.0</ele><time>2026-04-24T14:46:09Z</time></trkpt><trkpt lat="30.95962573699644" lon="-7.045401361621037"><ele>1212.3333333333335</ele><time>2026-04-24T14:46:10Z</time></trkpt><trkpt lat="30.95941611904107" lon="-7.045376219792788"><ele>1210.6666666666667</ele><time>2026-04-24T14:46:11Z</time></trkpt><trkpt lat="30.959213259222956" lon="-7.045351680126152"><ele>1209.0</ele><time>2026-04-24T14:46:12Z</time></trkpt><trkpt lat="30.959020266746876" lon="-7.045329518913035"><ele>1208.6666666666667</ele><time>2026-04-24T14:46:13Z</time></trkpt><trkpt lat="30.958824807555132" lon="-7.04530615242264"><ele>1208.3333333333335</ele><time>2026-04-24T14:46:14Z</time></trkpt><trkpt lat="30.958630322142994" lon="-7.045281992885626"><ele>1208.0</ele><time>2026-04-24T14:46:15Z</time></trkpt><trkpt lat="30.958438824699158" lon="-7.045258204584507"><ele>1207.6666666666667</ele><time>2026-04-24T14:46:16Z</time></trkpt><trkpt lat="30.958251960644894" lon="-7.0452349918548105"><ele>1207.3333333333333</ele><time>2026-04-24T14:46:17Z</time></trkpt><trkpt lat="30.958072118613927" lon="-7.045211168901391"><ele>1207.0</ele><time>2026-04-24T14:46:18Z</time></trkpt><trkpt lat="30.957905118330444" lon="-7.04516344515545"><ele>1207.0</ele><time>2026-04-24T14:46:19Z</time></trkpt><trkpt lat="30.957738878798068" lon="-7.045137659010694"><ele>1207.0</ele><time>2026-04-24T14:46:20Z</time></trkpt><trkpt lat="30.957571048957238" lon="-7.045096215148758"><ele>1207.0</ele><time>2026-04-24T14:46:21Z</time></trkpt><trkpt lat="30.957406472703283" lon="-7.045035778985033"><ele>1208.0</ele><time>2026-04-24T14:46:22Z</time></trkpt><trkpt lat="30.957248938802383" lon="-7.044958834394324"><ele>1209.0</ele><time>2026-04-24T14:46:23Z</time></trkpt><trkpt lat="30.957097978267598" lon="-7.044870585477795"><ele>1210.0</ele><time>2026-04-24T14:46:24Z</time></trkpt><trkpt lat="30.956956890652325" lon="-7.044781617440028"><ele>1210.0</ele><time>2026-04-24T14:46:25Z</time></trkpt><trkpt lat="30.95682263455637" lon="-7.044693660494661"><ele>1210.0</ele><time>2026-04-24T14:46:26Z</time></trkpt><trkpt lat="30.956697046076997" lon="-7.0446114565960976"><ele>1210.0</ele><time>2026-04-24T14:46:27Z</time></trkpt><trkpt lat="30.956575887940158" lon="-7.0445332885081156"><ele>1210.0</ele><time>2026-04-24T14:46:28Z</time></trkpt><trkpt lat="30.956455255029276" lon="-7.044454637710849"><ele>1209.0</ele><time>2026-04-24T14:46:29Z</time></trkpt><trkpt lat="30.95633535606065" lon="-7.044376737350204"><ele>1208.0</ele><time>2026-04-24T14:46:30Z</time></trkpt><trkpt lat="30.95621894196281" lon="-7.044302475088121"><ele>1207.0</ele><time>2026-04-24T14:46:31Z</time></trkpt><trkpt lat="30.956111491586327" lon="-7.04423434771241"><ele>1206.0</ele><time>2026-04-24T14:46:32Z</time></trkpt><trkpt lat="30.956009633563614" lon="-7.044167208801411"><ele>1206.25</ele><time>2026-04-24T14:46:33Z</time></trkpt><trkpt lat="30.955902939029144" lon="-7.04409503376766"><ele>1206.5</ele><time>2026-04-24T14:46:34Z</time></trkpt><trkpt lat="30.955788611874556" lon="-7.044019383558425"><ele>1206.75</ele><time>2026-04-24T14:46:35Z</time></trkpt><trkpt lat="30.955668624406975" lon="-7.043941784354357"><ele>1207.0</ele><time>2026-04-24T14:46:36Z</time></trkpt><trkpt lat="30.95554271943525" lon="-7.043865829925386"><ele>1207.3333333333333</ele><time>2026-04-24T14:46:37Z</time></trkpt><trkpt lat="30.955410436665158" lon="-7.0437883566679735"><ele>1207.6666666666667</ele><time>2026-04-24T14:46:38Z</time></trkpt><trkpt lat="30.955275903895114" lon="-7.043706681392864"><ele>1208.0</ele><time>2026-04-24T14:46:39Z</time></trkpt><trkpt lat="30.95514078528013" lon="-7.04361707235014"><ele>1207.6666666666667</ele><time>2026-04-24T14:46:40Z</time></trkpt><trkpt lat="30.955006599894922" lon="-7.0435228418859905"><ele>1207.3333333333333</ele><time>2026-04-24T14:46:41Z</time></trkpt><trkpt lat="30.95487071834403" lon="-7.043433552355223"><ele>1207.0</ele><time>2026-04-24T14:46:42Z</time></trkpt><trkpt lat="30.95473431694999" lon="-7.043339975253819"><ele>1210.6666666666665</ele><time>2026-04-24T14:46:43Z</time></trkpt><trkpt lat="30.954593494287003" lon="-7.0432343810181335"><ele>1214.3333333333333</ele><time>2026-04-24T14:46:44Z</time></trkpt><trkpt lat="30.954449808775934" lon="-7.043121149963848"><ele>1218.0</ele><time>2026-04-24T14:46:45Z</time></trkpt><trkpt lat="30.954307187658415" lon="-7.043003736548728"><ele>1215.6666666666667</ele><time>2026-04-24T14:46:46Z</time></trkpt><trkpt lat="30.954171164724897" lon="-7.042880938582404"><ele>1213.3333333333335</ele><time>2026-04-24T14:46:47Z</time></trkpt><trkpt lat="30.954039620492452" lon="-7.042750115604492"><ele>1211.0</ele><time>2026-04-24T14:46:48Z</time></trkpt><trkpt lat="30.953909005717684" lon="-7.04261437092005"><ele>1211.0</ele><time>2026-04-24T14:46:49Z</time></trkpt><trkpt lat="30.953778973952588" lon="-7.042471387039354"><ele>1211.0</ele><time>2026-04-24T14:46:50Z</time></trkpt><trkpt lat="30.953647757891144" lon="-7.042320357283716"><ele>1211.0</ele><time>2026-04-24T14:46:51Z</time></trkpt><trkpt lat="30.953511294274243" lon="-7.0421642853193"><ele>1211.3333333333335</ele><time>2026-04-24T14:46:52Z</time></trkpt><trkpt lat="30.95337702253722" lon="-7.042012240651848"><ele>1211.6666666666667</ele><time>2026-04-24T14:46:53Z</time></trkpt><trkpt lat="30.953248046935148" lon="-7.0418648051786645"><ele>1212.0</ele><time>2026-04-24T14:46:54Z</time></trkpt><trkpt lat="30.95312229443847" lon="-7.04171549836651"><ele>1208.3333333333333</ele><time>2026-04-24T14:46:55Z</time></trkpt><trkpt lat="30.952996839660976" lon="-7.041569294702599"><ele>1204.6666666666665</ele><time>2026-04-24T14:46:56Z</time></trkpt><trkpt lat="30.952870283365872" lon="-7.0414269389563025"><ele>1201.0</ele><time>2026-04-24T14:46:57Z</time></trkpt><trkpt lat="30.95274269507826" lon="-7.041284101633135"><ele>1201.0</ele><time>2026-04-24T14:46:58Z</time></trkpt><trkpt lat="30.952618616333538" lon="-7.041144520593088"><ele>1201.0</ele><time>2026-04-24T14:46:59Z</time></trkpt><trkpt lat="30.952497862095882" lon="-7.0410077612403486"><ele>1201.0</ele><time>2026-04-24T14:47:00Z</time></trkpt><trkpt lat="30.95237837975734" lon="-7.040872859351232"><ele>1199.6666666666665</ele><time>2026-04-24T14:47:01Z</time></trkpt><trkpt lat="30.952262017460523" lon="-7.04073960873902"><ele>1198.3333333333333</ele><time>2026-04-24T14:47:02Z</time></trkpt><trkpt lat="30.95215216147478" lon="-7.040610282311883"><ele>1197.0</ele><time>2026-04-24T14:47:03Z</time></trkpt><trkpt lat="30.952052740525982" lon="-7.040491682870834"><ele>1197.0</ele><time>2026-04-24T14:47:04Z</time></trkpt><trkpt lat="30.951964718963318" lon="-7.040392207987765"><ele>1197.0</ele><time>2026-04-24T14:47:05Z</time></trkpt><trkpt lat="30.951867708227716" lon="-7.040285387920995"><ele>1197.0</ele><time>2026-04-24T14:47:06Z</time></trkpt><trkpt lat="30.951757458778694" lon="-7.040160972795373"><ele>1197.0</ele><time>2026-04-24T14:47:07Z</time></trkpt><trkpt lat="30.95163760212884" lon="-7.040025060989286"><ele>1198.3333333333333</ele><time>2026-04-24T14:47:08Z</time></trkpt><trkpt lat="30.95151075490067" lon="-7.039877098650524"><ele>1199.6666666666665</ele><time>2026-04-24T14:47:09Z</time></trkpt><trkpt lat="30.951373296148436" lon="-7.039720053236109"><ele>1201.0</ele><time>2026-04-24T14:47:10Z</time></trkpt><trkpt lat="30.95122823702699" lon="-7.039558121663976"><ele>1201.0</ele><time>2026-04-24T14:47:11Z</time></trkpt><trkpt lat="30.95108299887905" lon="-7.039397459425164"><ele>1201.0</ele><time>2026-04-24T14:47:12Z</time></trkpt><trkpt lat="30.95092699060682" lon="-7.039223433467097"><ele>1201.0</ele><time>2026-04-24T14:47:13Z</time></trkpt><trkpt lat="30.950769575349373" lon="-7.039041485334105"><ele>1203.0</ele><time>2026-04-24T14:47:14Z</time></trkpt><trkpt lat="30.9506046173815" lon="-7.038852870748165"><ele>1205.0</ele><time>2026-04-24T14:47:15Z</time></trkpt><trkpt lat="30.950432309686118" lon="-7.03865781490738"><ele>1205.0</ele><time>2026-04-24T14:47:16Z</time></trkpt><trkpt lat="30.950257031407528" lon="-7.03845731749985"><ele>1205.0</ele><time>2026-04-24T14:47:17Z</time></trkpt><trkpt lat="30.950081188665585" lon="-7.038249649141696"><ele>1206.5</ele><time>2026-04-24T14:47:18Z</time></trkpt><trkpt lat="30.949909382330507" lon="-7.038040605849756"><ele>1208.0</ele><time>2026-04-24T14:47:19Z</time></trkpt><trkpt lat="30.94975337567848" lon="-7.037827139129961"><ele>1208.0</ele><time>2026-04-24T14:47:20Z</time></trkpt><trkpt lat="30.949616090820847" lon="-7.037616142401362"><ele>1208.0</ele><time>2026-04-24T14:47:21Z</time></trkpt><trkpt lat="30.949493264417786" lon="-7.03740695032902"><ele>1208.0</ele><time>2026-04-24T14:47:22Z</time></trkpt><trkpt lat="30.949375959589382" lon="-7.037197281166942"><ele>1208.0</ele><time>2026-04-24T14:47:23Z</time></trkpt><trkpt lat="30.949228005757" lon="-7.037010248363343"><ele>1208.0</ele><time>2026-04-24T14:47:24Z</time></trkpt><trkpt lat="30.94911553844179" lon="-7.036798031034507"><ele>1208.0</ele><time>2026-04-24T14:47:25Z</time></trkpt><trkpt lat="30.949003790422314" lon="-7.036584217019748"><ele>1208.0</ele><time>2026-04-24T14:47:26Z</time></trkpt><trkpt lat="30.948891564956167" lon="-7.0363715093723735"><ele>1208.0</ele><time>2026-04-24T14:47:27Z</time></trkpt><trkpt lat="30.948779278157335" lon="-7.036156458272041"><ele>1208.0</ele><time>2026-04-24T14:47:28Z</time></trkpt><trkpt lat="30.948666094256797" lon="-7.0359383196692535"><ele>1208.5</ele><time>2026-04-24T14:47:29Z</time></trkpt><trkpt lat="30.948549083290036" lon="-7.035705496140954"><ele>1209.0</ele><time>2026-04-24T14:47:30Z</time></trkpt><trkpt lat="30.94844870610878" lon="-7.035461350782555"><ele>1208.5</ele><time>2026-04-24T14:47:31Z</time></trkpt><trkpt lat="30.94834663696997" lon="-7.035213090006886"><ele>1208.0</ele><time>2026-04-24T14:47:32Z</time></trkpt><trkpt lat="30.948254415717532" lon="-7.034942314783539"><ele>1207.0</ele><time>2026-04-24T14:47:33Z</time></trkpt><trkpt lat="30.94817587908294" lon="-7.034663486367151"><ele>1206.0</ele><time>2026-04-24T14:47:34Z</time></trkpt><trkpt lat="30.948111529445388" lon="-7.03437906688553"><ele>1205.0</ele><time>2026-04-24T14:47:35Z</time></trkpt><trkpt lat="30.94806507936072" lon="-7.034077961151808"><ele>1204.0</ele><time>2026-04-24T14:47:36Z</time></trkpt><trkpt lat="30.948024237175204" lon="-7.033767404522862"><ele>1204.0</ele><time>2026-04-24T14:47:37Z</time></trkpt><trkpt lat="30.9479982870018" lon="-7.03342138848219"><ele>1204.0</ele><time>2026-04-24T14:47:38Z</time></trkpt><trkpt lat="30.947971925319315" lon="-7.033051835781581"><ele>1202.5</ele><time>2026-04-24T14:47:39Z</time></trkpt><trkpt lat="30.947952260952775" lon="-7.032691850064788"><ele>1201.0</ele><time>2026-04-24T14:47:40Z</time></trkpt><trkpt lat="30.94793426069439" lon="-7.0323604698979025"><ele>1200.5</ele><time>2026-04-24T14:47:41Z</time></trkpt><trkpt lat="30.947916748244985" lon="-7.03204662314101"><ele>1200.0</ele><time>2026-04-24T14:47:42Z</time></trkpt><trkpt lat="30.947899699161006" lon="-7.031746156650319"><ele>1199.0</ele><time>2026-04-24T14:47:43Z</time></trkpt><trkpt lat="30.947883895697267" lon="-7.031455546902727"><ele>1198.0</ele><time>2026-04-24T14:47:44Z</time></trkpt><trkpt lat="30.94786807269856" lon="-7.031177684081367"><ele>1198.0</ele><time>2026-04-24T14:47:45Z</time></trkpt><trkpt lat="30.947852223313827" lon="-7.030907667615905"><ele>1198.0</ele><time>2026-04-24T14:47:46Z</time></trkpt><trkpt lat="30.947837037262087" lon="-7.030640560514224"><ele>1197.0</ele><time>2026-04-24T14:47:47Z</time></trkpt><trkpt lat="30.947821578869736" lon="-7.030370926898868"><ele>1196.0</ele><time>2026-04-24T14:47:48Z</time></trkpt><trkpt lat="30.947806706802826" lon="-7.030099888743472"><ele>1196.0</ele><time>2026-04-24T14:47:49Z</time></trkpt><trkpt lat="30.947791483362376" lon="-7.029828263919865"><ele>1196.0</ele><time>2026-04-24T14:47:50Z</time></trkpt><trkpt lat="30.947776020185625" lon="-7.029560145907377"><ele>1196.0</ele><time>2026-04-24T14:47:51Z</time></trkpt><trkpt lat="30.947759793533944" lon="-7.029292446430152"><ele>1196.0</ele><time>2026-04-24T14:47:52Z</time></trkpt><trkpt lat="30.94774025386373" lon="-7.029025087835985"><ele>1198.0</ele><time>2026-04-24T14:47:53Z</time></trkpt><trkpt lat="30.94772077854591" lon="-7.028756608851961"><ele>1200.0</ele><time>2026-04-24T14:47:54Z</time></trkpt><trkpt lat="30.947700946271272" lon="-7.028490724440756"><ele>1199.5</ele><time>2026-04-24T14:47:55Z</time></trkpt><trkpt lat="30.94768131623431" lon="-7.028226657730594"><ele>1199.0</ele><time>2026-04-24T14:47:56Z</time></trkpt><trkpt lat="30.947662903275134" lon="-7.027965137091843"><ele>1199.0</ele><time>2026-04-24T14:47:57Z</time></trkpt><trkpt lat="30.947643292108886" lon="-7.027699395454771"><ele>1199.0</ele><time>2026-04-24T14:47:58Z</time></trkpt><trkpt lat="30.94762348130981" lon="-7.027430024081407"><ele>1197.5</ele><time>2026-04-24T14:47:59Z</time></trkpt><trkpt lat="30.947603380629683" lon="-7.027156513728512"><ele>1196.0</ele><time>2026-04-24T14:48:00Z</time></trkpt><trkpt lat="30.947582888012153" lon="-7.026875483079989"><ele>1193.5</ele><time>2026-04-24T14:48:01Z</time></trkpt><trkpt lat="30.947562140792897" lon="-7.026587547766083"><ele>1191.0</ele><time>2026-04-24T14:48:02Z</time></trkpt><trkpt lat="30.947541967269252" lon="-7.026295617500986"><ele>1190.5</ele><time>2026-04-24T14:48:03Z</time></trkpt><trkpt lat="30.94752202880167" lon="-7.026000426941386"><ele>1190.0</ele><time>2026-04-24T14:48:04Z</time></trkpt><trkpt lat="30.9475017292614" lon="-7.025704898872217"><ele>1189.5</ele><time>2026-04-24T14:48:05Z</time></trkpt><trkpt lat="30.947481140029016" lon="-7.025411191526728"><ele>1189.0</ele><time>2026-04-24T14:48:06Z</time></trkpt><trkpt lat="30.94746176517308" lon="-7.025121586094302"><ele>1189.5</ele><time>2026-04-24T14:48:07Z</time></trkpt><trkpt lat="30.947442370324406" lon="-7.024842273669976"><ele>1190.0</ele><time>2026-04-24T14:48:08Z</time></trkpt><trkpt lat="30.947426196034044" lon="-7.024572675844423"><ele>1190.0</ele><time>2026-04-24T14:48:09Z</time></trkpt><trkpt lat="30.947412626600066" lon="-7.024306679427248"><ele>1190.0</ele><time>2026-04-24T14:48:10Z</time></trkpt><trkpt lat="30.94739783024248" lon="-7.024039668307733"><ele>1190.0</ele><time>2026-04-24T14:48:11Z</time></trkpt><trkpt lat="30.947383970196764" lon="-7.023776166622923"><ele>1190.0</ele><time>2026-04-24T14:48:12Z</time></trkpt><trkpt lat="30.947369971552384" lon="-7.0235101724192655"><ele>1189.5</ele><time>2026-04-24T14:48:13Z</time></trkpt><trkpt lat="30.947355852086467" lon="-7.0232417431944185"><ele>1189.0</ele><time>2026-04-24T14:48:14Z</time></trkpt><trkpt lat="30.947341488314127" lon="-7.0229741512302555"><ele>1189.0</ele><time>2026-04-24T14:48:15Z</time></trkpt><trkpt lat="30.94732707126524" lon="-7.022707905939672"><ele>1189.0</ele><time>2026-04-24T14:48:16Z</time></trkpt><trkpt lat="30.9473128975826" lon="-7.022441015878798"><ele>1189.5</ele><time>2026-04-24T14:48:17Z</time></trkpt><trkpt lat="30.94729583811442" lon="-7.0221788775090355"><ele>1190.0</ele><time>2026-04-24T14:48:18Z</time></trkpt><trkpt lat="30.94727757103744" lon="-7.021917490625564"><ele>1190.0</ele><time>2026-04-24T14:48:19Z</time></trkpt><trkpt lat="30.94725946049811" lon="-7.021658343746072"><ele>1190.0</ele><time>2026-04-24T14:48:20Z</time></trkpt><trkpt lat="30.947241327189058" lon="-7.021398870926097"><ele>1190.0</ele><time>2026-04-24T14:48:21Z</time></trkpt><trkpt lat="30.947223261295203" lon="-7.021140362807971"><ele>1189.6666666666667</ele><time>2026-04-24T14:48:22Z</time></trkpt><trkpt lat="30.9472053013348" lon="-7.020883370578884"><ele>1189.3333333333333</ele><time>2026-04-24T14:48:23Z</time></trkpt><trkpt lat="30.947187315737192" lon="-7.020626011466492"><ele>1189.0</ele><time>2026-04-24T14:48:24Z</time></trkpt><trkpt lat="30.94716923819836" lon="-7.020368644111546"><ele>1189.0</ele><time>2026-04-24T14:48:25Z</time></trkpt><trkpt lat="30.94715101886945" lon="-7.020109456338093"><ele>1189.0</ele><time>2026-04-24T14:48:26Z</time></trkpt><trkpt lat="30.94713280314892" lon="-7.019850321263172"><ele>1189.0</ele><time>2026-04-24T14:48:27Z</time></trkpt><trkpt lat="30.947114691927954" lon="-7.019592672791436"><ele>1188.0</ele><time>2026-04-24T14:48:28Z</time></trkpt><trkpt lat="30.947130983700536" lon="-7.019330581235588"><ele>1187.0</ele><time>2026-04-24T14:48:29Z</time></trkpt><trkpt lat="30.947114314636686" lon="-7.019068088400883"><ele>1186.5</ele><time>2026-04-24T14:48:30Z</time></trkpt><trkpt lat="30.947098339460947" lon="-7.0187990153070645"><ele>1186.0</ele><time>2026-04-24T14:48:31Z</time></trkpt><trkpt lat="30.947081729069783" lon="-7.0185271376933445"><ele>1185.5</ele><time>2026-04-24T14:48:32Z</time></trkpt><trkpt lat="30.94706309363011" lon="-7.01825472665566"><ele>1185.0</ele><time>2026-04-24T14:48:33Z</time></trkpt><trkpt lat="30.9470457928036" lon="-7.017983753842466"><ele>1185.0</ele><time>2026-04-24T14:48:34Z</time></trkpt><trkpt lat="30.94702824659329" lon="-7.01770659302493"><ele>1185.0</ele><time>2026-04-24T14:48:35Z</time></trkpt><trkpt lat="30.94701111060512" lon="-7.0174297475505405"><ele>1184.5</ele><time>2026-04-24T14:48:36Z</time></trkpt><trkpt lat="30.94699201994557" lon="-7.017150870253895"><ele>1184.0</ele><time>2026-04-24T14:48:37Z</time></trkpt><trkpt lat="30.946972515354634" lon="-7.016868737816106"><ele>1182.5</ele><time>2026-04-24T14:48:38Z</time></trkpt><trkpt lat="30.94695431319771" lon="-7.016580952908744"><ele>1181.0</ele><time>2026-04-24T14:48:39Z</time></trkpt><trkpt lat="30.946936603201607" lon="-7.016290782406682"><ele>1181.0</ele><time>2026-04-24T14:48:40Z</time></trkpt><trkpt lat="30.946917558984087" lon="-7.016000816734675"><ele>1181.0</ele><time>2026-04-24T14:48:41Z</time></trkpt><trkpt lat="30.946898184042297" lon="-7.0157106020162985"><ele>1181.5</ele><time>2026-04-24T14:48:42Z</time></trkpt><trkpt lat="30.946878227136207" lon="-7.015421652622841"><ele>1182.0</ele><time>2026-04-24T14:48:43Z</time></trkpt><trkpt lat="30.946858442589377" lon="-7.015132902787852"><ele>1181.0</ele><time>2026-04-24T14:48:44Z</time></trkpt><trkpt lat="30.94684097355344" lon="-7.0148461529417565"><ele>1180.0</ele><time>2026-04-24T14:48:45Z</time></trkpt><trkpt lat="30.946823974653526" lon="-7.0145598466992976"><ele>1180.0</ele><time>2026-04-24T14:48:46Z</time></trkpt><trkpt lat="30.946805792220736" lon="-7.014274662219684"><ele>1180.0</ele><time>2026-04-24T14:48:47Z</time></trkpt><trkpt lat="30.946786681836585" lon="-7.013990090272264"><ele>1178.0</ele><time>2026-04-24T14:48:48Z</time></trkpt><trkpt lat="30.946767741170063" lon="-7.013706417720995"><ele>1176.0</ele><time>2026-04-24T14:48:49Z</time></trkpt><trkpt lat="30.946746442764685" lon="-7.013422776686611"><ele>1174.0</ele><time>2026-04-24T14:48:50Z</time></trkpt><trkpt lat="30.946725066573975" lon="-7.013139191351531"><ele>1172.0</ele><time>2026-04-24T14:48:51Z</time></trkpt><trkpt lat="30.94670949925388" lon="-7.012857176468778"><ele>1171.5</ele><time>2026-04-24T14:48:52Z</time></trkpt><trkpt lat="30.946694420683993" lon="-7.012575800792087"><ele>1171.0</ele><time>2026-04-24T14:48:53Z</time></trkpt><trkpt lat="30.946675752848428" lon="-7.012298554195835"><ele>1171.0</ele><time>2026-04-24T14:48:54Z</time></trkpt><trkpt lat="30.946658948012153" lon="-7.012028288951376"><ele>1171.0</ele><time>2026-04-24T14:48:55Z</time></trkpt><trkpt lat="30.946643100851958" lon="-7.0117640376772865"><ele>1169.0</ele><time>2026-04-24T14:48:56Z</time></trkpt><trkpt lat="30.946626665680988" lon="-7.011500111106707"><ele>1167.0</ele><time>2026-04-24T14:48:57Z</time></trkpt><trkpt lat="30.94660627943118" lon="-7.011235269016389"><ele>1167.0</ele><time>2026-04-24T14:48:58Z</time></trkpt><trkpt lat="30.946578074961756" lon="-7.010967237999152"><ele>1167.0</ele><time>2026-04-24T14:48:59Z</time></trkpt><trkpt lat="30.946532498132733" lon="-7.010699999003514"><ele>1166.5</ele><time>2026-04-24T14:49:00Z</time></trkpt><trkpt lat="30.94645572810628" lon="-7.01043824584591"><ele>1166.0</ele><time>2026-04-24T14:49:01Z</time></trkpt><trkpt lat="30.946356802861057" lon="-7.010180560403311"><ele>1165.0</ele><time>2026-04-24T14:49:02Z</time></trkpt><trkpt lat="30.94626493971104" lon="-7.009913552339688"><ele>1164.0</ele><time>2026-04-24T14:49:03Z</time></trkpt><trkpt lat="30.946172968616956" lon="-7.009641293489566"><ele>1164.0</ele><time>2026-04-24T14:49:04Z</time></trkpt><trkpt lat="30.94607680925087" lon="-7.009364003697777"><ele>1164.0</ele><time>2026-04-24T14:49:05Z</time></trkpt><trkpt lat="30.94597932908695" lon="-7.0090813914427335"><ele>1164.0</ele><time>2026-04-24T14:49:06Z</time></trkpt><trkpt lat="30.94587868054564" lon="-7.008787077983136"><ele>1164.0</ele><time>2026-04-24T14:49:07Z</time></trkpt><trkpt lat="30.94577397819093" lon="-7.008482321105124"><ele>1163.0</ele><time>2026-04-24T14:49:08Z</time></trkpt><trkpt lat="30.945665290610936" lon="-7.008166087531643"><ele>1162.0</ele><time>2026-04-24T14:49:09Z</time></trkpt><trkpt lat="30.945556083702847" lon="-7.007847237951086"><ele>1162.0</ele><time>2026-04-24T14:49:10Z</time></trkpt><trkpt lat="30.9454506986347" lon="-7.007539560893809"><ele>1162.0</ele><time>2026-04-24T14:49:11Z</time></trkpt><trkpt lat="30.945349349338" lon="-7.007247587355707"><ele>1162.0</ele><time>2026-04-24T14:49:12Z</time></trkpt><trkpt lat="30.945250091392797" lon="-7.006962906007596"><ele>1162.0</ele><time>2026-04-24T14:49:13Z</time></trkpt><trkpt lat="30.94515124087752" lon="-7.006678347509331"><ele>1161.5</ele><time>2026-04-24T14:49:14Z</time></trkpt><trkpt lat="30.94505205393991" lon="-7.006391708656629"><ele>1161.0</ele><time>2026-04-24T14:49:15Z</time></trkpt><trkpt lat="30.94495710973459" lon="-7.006114900076189"><ele>1162.0</ele><time>2026-04-24T14:49:16Z</time></trkpt><trkpt lat="30.944863567681605" lon="-7.005848083186794"><ele>1163.0</ele><time>2026-04-24T14:49:17Z</time></trkpt><trkpt lat="30.944771583104068" lon="-7.005585178203287"><ele>1163.0</ele><time>2026-04-24T14:49:18Z</time></trkpt><trkpt lat="30.94467804418332" lon="-7.005327951328389"><ele>1163.0</ele><time>2026-04-24T14:49:19Z</time></trkpt><trkpt lat="30.944586018409243" lon="-7.005073279244339"><ele>1165.0</ele><time>2026-04-24T14:49:20Z</time></trkpt><trkpt lat="30.944497417382706" lon="-7.004820744371443"><ele>1167.0</ele><time>2026-04-24T14:49:21Z</time></trkpt><trkpt lat="30.944413277241424" lon="-7.004572528818906"><ele>1167.0</ele><time>2026-04-24T14:49:22Z</time></trkpt><trkpt lat="30.944336758353085" lon="-7.004327663262233"><ele>1167.0</ele><time>2026-04-24T14:49:23Z</time></trkpt><trkpt lat="30.944262522629177" lon="-7.004085380445308"><ele>1167.0</ele><time>2026-04-24T14:49:24Z</time></trkpt><trkpt lat="30.94418870485284" lon="-7.0038446314185165"><ele>1163.5</ele><time>2026-04-24T14:49:25Z</time></trkpt><trkpt lat="30.944118970229727" lon="-7.003595359538504"><ele>1160.0</ele><time>2026-04-24T14:49:26Z</time></trkpt><trkpt lat="30.944061346417808" lon="-7.003334548696827"><ele>1161.0</ele><time>2026-04-24T14:49:27Z</time></trkpt><trkpt lat="30.944020860833565" lon="-7.003065852383545"><ele>1162.0</ele><time>2026-04-24T14:49:28Z</time></trkpt><trkpt lat="30.943991530883373" lon="-7.002791340952819"><ele>1162.0</ele><time>2026-04-24T14:49:29Z</time></trkpt><trkpt lat="30.9439674496812" lon="-7.002516271429321"><ele>1162.0</ele><time>2026-04-24T14:49:30Z</time></trkpt><trkpt lat="30.943950716548784" lon="-7.002242912173308"><ele>1162.5</ele><time>2026-04-24T14:49:31Z</time></trkpt><trkpt lat="30.943939287593132" lon="-7.001969476141203"><ele>1163.0</ele><time>2026-04-24T14:49:32Z</time></trkpt><trkpt lat="30.943902388657285" lon="-7.00170100806856"><ele>1163.5</ele><time>2026-04-24T14:49:33Z</time></trkpt><trkpt lat="30.943886938135083" lon="-7.001425887604365"><ele>1164.0</ele><time>2026-04-24T14:49:34Z</time></trkpt><trkpt lat="30.943871197586958" lon="-7.001156501825238"><ele>1164.0</ele><time>2026-04-24T14:49:35Z</time></trkpt><trkpt lat="30.94385787519656" lon="-7.000887347168535"><ele>1164.0</ele><time>2026-04-24T14:49:36Z</time></trkpt><trkpt lat="30.943845115745464" lon="-7.000618137758248"><ele>1164.5</ele><time>2026-04-24T14:49:37Z</time></trkpt><trkpt lat="30.94383252955331" lon="-7.000350670019666"><ele>1165.0</ele><time>2026-04-24T14:49:38Z</time></trkpt><trkpt lat="30.9438197350615" lon="-7.000077775139478"><ele>1165.0</ele><time>2026-04-24T14:49:39Z</time></trkpt><trkpt lat="30.943806656500932" lon="-6.99979882146246"><ele>1165.0</ele><time>2026-04-24T14:49:40Z</time></trkpt><trkpt lat="30.94379333123392" lon="-6.999514581031976"><ele>1165.0</ele><time>2026-04-24T14:49:41Z</time></trkpt><trkpt lat="30.94378012893271" lon="-6.999232194519903"><ele>1165.0</ele><time>2026-04-24T14:49:42Z</time></trkpt><trkpt lat="30.943766514800593" lon="-6.998951781193554"><ele>1164.5</ele><time>2026-04-24T14:49:43Z</time></trkpt><trkpt lat="30.943752587648742" lon="-6.998670918230999"><ele>1164.0</ele><time>2026-04-24T14:49:44Z</time></trkpt><trkpt lat="30.943739021343767" lon="-6.998396742562698"><ele>1162.5</ele><time>2026-04-24T14:49:45Z</time></trkpt><trkpt lat="30.94372563621667" lon="-6.998118199609606"><ele>1161.0</ele><time>2026-04-24T14:49:46Z</time></trkpt><trkpt lat="30.943711841472776" lon="-6.997850099450735"><ele>1161.0</ele><time>2026-04-24T14:49:47Z</time></trkpt><trkpt lat="30.943699141623114" lon="-6.997582850555999"><ele>1161.0</ele><time>2026-04-24T14:49:48Z</time></trkpt><trkpt lat="30.943684662030137" lon="-6.997313609098577"><ele>1160.0</ele><time>2026-04-24T14:49:49Z</time></trkpt><trkpt lat="30.943666126398444" lon="-6.997039277839843"><ele>1159.0</ele><time>2026-04-24T14:49:50Z</time></trkpt><trkpt lat="30.943646067628023" lon="-6.996771792033046"><ele>1157.5</ele><time>2026-04-24T14:49:51Z</time></trkpt><trkpt lat="30.943618364793796" lon="-6.996507412362106"><ele>1156.0</ele><time>2026-04-24T14:49:52Z</time></trkpt><trkpt lat="30.943592100080103" lon="-6.996241883276001"><ele>1156.0</ele><time>2026-04-24T14:49:53Z</time></trkpt><trkpt lat="30.943558041299873" lon="-6.995976350230886"><ele>1156.0</ele><time>2026-04-24T14:49:54Z</time></trkpt><trkpt lat="30.943525116359822" lon="-6.995711580761046"><ele>1153.0</ele><time>2026-04-24T14:49:55Z</time></trkpt><trkpt lat="30.943492351271484" lon="-6.995445898431567"><ele>1150.0</ele><time>2026-04-24T14:49:56Z</time></trkpt><trkpt lat="30.94345942544679" lon="-6.9951821514314645"><ele>1150.0</ele><time>2026-04-24T14:49:57Z</time></trkpt><trkpt lat="30.94342757681604" lon="-6.994923146646983"><ele>1150.0</ele><time>2026-04-24T14:49:58Z</time></trkpt><trkpt lat="30.9433968523486" lon="-6.994668613980741"><ele>1150.0</ele><time>2026-04-24T14:49:59Z</time></trkpt><trkpt lat="30.943363395656554" lon="-6.994415326778186"><ele>1149.6666666666665</ele><time>2026-04-24T14:50:00Z</time></trkpt><trkpt lat="30.943329679723913" lon="-6.994165047984792"><ele>1149.3333333333333</ele><time>2026-04-24T14:50:01Z</time></trkpt><trkpt lat="30.943296306430874" lon="-6.993917758575408"><ele>1149.0</ele><time>2026-04-24T14:50:02Z</time></trkpt><trkpt lat="30.943263598310093" lon="-6.993672454443127"><ele>1149.0</ele><time>2026-04-24T14:50:03Z</time></trkpt><trkpt lat="30.943236408761614" lon="-6.9934270198402375"><ele>1149.0</ele><time>2026-04-24T14:50:04Z</time></trkpt><trkpt lat="30.943209564318487" lon="-6.9931862040392"><ele>1149.0</ele><time>2026-04-24T14:50:05Z</time></trkpt><trkpt lat="30.943182883174888" lon="-6.992947528709774"><ele>1149.6666666666667</ele><time>2026-04-24T14:50:06Z</time></trkpt><trkpt lat="30.94315152650176" lon="-6.992705691104384"><ele>1150.3333333333335</ele><time>2026-04-24T14:50:07Z</time></trkpt><trkpt lat="30.9431201987175" lon="-6.992467097056241"><ele>1151.0</ele><time>2026-04-24T14:50:08Z</time></trkpt><trkpt lat="30.943089265593162" lon="-6.99222654274684"><ele>1151.6666666666667</ele><time>2026-04-24T14:50:09Z</time></trkpt><trkpt lat="30.943061916920204" lon="-6.991987489049784"><ele>1152.3333333333333</ele><time>2026-04-24T14:50:10Z</time></trkpt><trkpt lat="30.943033628078926" lon="-6.991751338744947"><ele>1153.0</ele><time>2026-04-24T14:50:11Z</time></trkpt><trkpt lat="30.943007273022015" lon="-6.991519513110198"><ele>1153.0</ele><time>2026-04-24T14:50:12Z</time></trkpt><trkpt lat="30.9429753667697" lon="-6.991294621817989"><ele>1153.0</ele><time>2026-04-24T14:50:13Z</time></trkpt><trkpt lat="30.942937948226277" lon="-6.991075227114416"><ele>1153.0</ele><time>2026-04-24T14:50:14Z</time></trkpt><trkpt lat="30.942882302060845" lon="-6.990878724146257"><ele>1153.3333333333333</ele><time>2026-04-24T14:50:15Z</time></trkpt><trkpt lat="30.942818417341982" lon="-6.990685936091619"><ele>1153.6666666666667</ele><time>2026-04-24T14:50:16Z</time></trkpt><trkpt lat="30.942730333201034" lon="-6.990510200191835"><ele>1154.0</ele><time>2026-04-24T14:50:17Z</time></trkpt><trkpt lat="30.942638038793564" lon="-6.990333939429142"><ele>1153.6666666666667</ele><time>2026-04-24T14:50:18Z</time></trkpt><trkpt lat="30.942529487557508" lon="-6.990181238492867"><ele>1153.3333333333333</ele><time>2026-04-24T14:50:19Z</time></trkpt><trkpt lat="30.942411638701927" lon="-6.990051030797504"><ele>1153.0</ele><time>2026-04-24T14:50:20Z</time></trkpt><trkpt lat="30.942280306168495" lon="-6.989932889932534"><ele>1155.3333333333333</ele><time>2026-04-24T14:50:21Z</time></trkpt><trkpt lat="30.942145085994945" lon="-6.989830089691847"><ele>1157.6666666666667</ele><time>2026-04-24T14:50:22Z</time></trkpt><trkpt lat="30.942004429627747" lon="-6.989742048724237"><ele>1160.0</ele><time>2026-04-24T14:50:23Z</time></trkpt><trkpt lat="30.941865163956837" lon="-6.989653980440083"><ele>1160.0</ele><time>2026-04-24T14:50:24Z</time></trkpt><trkpt lat="30.94173952497533" lon="-6.989557776755547"><ele>1160.0</ele><time>2026-04-24T14:50:25Z</time></trkpt><trkpt lat="30.94161273527115" lon="-6.989485106854116"><ele>1160.0</ele><time>2026-04-24T14:50:26Z</time></trkpt><trkpt lat="30.941501073395283" lon="-6.989419563732813"><ele>1160.0</ele><time>2026-04-24T14:50:27Z</time></trkpt><trkpt lat="30.941393235065068" lon="-6.989359206899659"><ele>1159.25</ele><time>2026-04-24T14:50:28Z</time></trkpt><trkpt lat="30.941288966293556" lon="-6.989292522184617"><ele>1158.5</ele><time>2026-04-24T14:50:29Z</time></trkpt><trkpt lat="30.941189514446105" lon="-6.989207385444394"><ele>1157.75</ele><time>2026-04-24T14:50:30Z</time></trkpt><trkpt lat="30.94110142412164" lon="-6.989109548257963"><ele>1157.0</ele><time>2026-04-24T14:50:31Z</time></trkpt><trkpt lat="30.941013226211386" lon="-6.989017309044551"><ele>1158.25</ele><time>2026-04-24T14:50:32Z</time></trkpt><trkpt lat="30.94094679673995" lon="-6.988901727025268"><ele>1159.5</ele><time>2026-04-24T14:50:33Z</time></trkpt><trkpt lat="30.940894393255967" lon="-6.988778693921242"><ele>1160.75</ele><time>2026-04-24T14:50:34Z</time></trkpt><trkpt lat="30.940855453302262" lon="-6.988652489186126"><ele>1162.0</ele><time>2026-04-24T14:50:35Z</time></trkpt><trkpt lat="30.940829725836107" lon="-6.988527836834911"><ele>1162.0</ele><time>2026-04-24T14:50:36Z</time></trkpt><trkpt lat="30.940809670955097" lon="-6.988403640483054"><ele>1162.0</ele><time>2026-04-24T14:50:37Z</time></trkpt><trkpt lat="30.940791488242375" lon="-6.98829073096828"><ele>1162.0</ele><time>2026-04-24T14:50:38Z</time></trkpt><trkpt lat="30.940779429338885" lon="-6.988178840409423"><ele>1162.0</ele><time>2026-04-24T14:50:39Z</time></trkpt><trkpt lat="30.94076795748169" lon="-6.988068188753222"><ele>1162.0</ele><time>2026-04-24T14:50:40Z</time></trkpt><trkpt lat="30.94075707773446" lon="-6.987964556732364"><ele>1162.0</ele><time>2026-04-24T14:50:41Z</time></trkpt><trkpt lat="30.940747317813855" lon="-6.987874454320499"><ele>1162.0</ele><time>2026-04-24T14:50:42Z</time></trkpt><trkpt lat="30.940737828742762" lon="-6.987786853122822"><ele>1162.0</ele><time>2026-04-24T14:50:43Z</time></trkpt><trkpt lat="30.940728578700718" lon="-6.9877014586741"><ele>1162.0</ele><time>2026-04-24T14:50:44Z</time></trkpt><trkpt lat="30.940720486269505" lon="-6.987626751045142"><ele>1162.0</ele><time>2026-04-24T14:50:45Z</time></trkpt><trkpt lat="30.94070645681794" lon="-6.987497234087813"><ele>1162.0</ele><time>2026-04-24T14:50:47Z</time></trkpt><trkpt lat="30.94071652194764" lon="-6.987369331704512"><ele>1161.6</ele><time>2026-04-24T14:50:49Z</time></trkpt><trkpt lat="30.9407034046975" lon="-6.98724090728127"><ele>1161.2</ele><time>2026-04-24T14:50:51Z</time></trkpt><trkpt lat="30.94069117720379" lon="-6.987116887975907"><ele>1160.8</ele><time>2026-04-24T14:50:53Z</time></trkpt><trkpt lat="30.940678093197917" lon="-6.986999176514292"><ele>1160.4</ele><time>2026-04-24T14:50:55Z</time></trkpt><trkpt lat="30.940662975071803" lon="-6.986867765474191"><ele>1160.0</ele><time>2026-04-24T14:50:57Z</time></trkpt><trkpt lat="30.94065389805527" lon="-6.986792413574747"><ele>1160.0</ele><time>2026-04-24T14:50:58Z</time></trkpt><trkpt lat="30.94064424284868" lon="-6.986710650653408"><ele>1160.0</ele><time>2026-04-24T14:50:59Z</time></trkpt><trkpt lat="30.94063307009275" lon="-6.986623381486078"><ele>1160.0</ele><time>2026-04-24T14:51:00Z</time></trkpt><trkpt lat="30.94062169449556" lon="-6.986533250955018"><ele>1160.0</ele><time>2026-04-24T14:51:01Z</time></trkpt><trkpt lat="30.94060977873005" lon="-6.98644281095604"><ele>1160.0</ele><time>2026-04-24T14:51:02Z</time></trkpt><trkpt lat="30.940598283462904" lon="-6.986353238073423"><ele>1160.0</ele><time>2026-04-24T14:51:03Z</time></trkpt><trkpt lat="30.94058817495966" lon="-6.986267339713944"><ele>1160.0</ele><time>2026-04-24T14:51:04Z</time></trkpt><trkpt lat="30.940576978215333" lon="-6.986183359845529"><ele>1160.0</ele><time>2026-04-24T14:51:05Z</time></trkpt><trkpt lat="30.94056238104964" lon="-6.986094556459309"><ele>1160.0</ele><time>2026-04-24T14:51:06Z</time></trkpt><trkpt lat="30.94054749319648" lon="-6.986009473220526"><ele>1160.0</ele><time>2026-04-24T14:51:07Z</time></trkpt><trkpt lat="30.940530971292986" lon="-6.985931222691687"><ele>1160.0</ele><time>2026-04-24T14:51:08Z</time></trkpt><trkpt lat="30.940507394067566" lon="-6.985860265449211"><ele>1160.0</ele><time>2026-04-24T14:51:09Z</time></trkpt><trkpt lat="30.94043820109289" lon="-6.9857439280516544"><ele>1160.0</ele><time>2026-04-24T14:51:11Z</time></trkpt><trkpt lat="30.940381124711852" lon="-6.985625480959963"><ele>1160.0</ele><time>2026-04-24T14:51:13Z</time></trkpt><trkpt lat="30.940388157926638" lon="-6.985478484735926"><ele>1160.0</ele><time>2026-04-24T14:51:15Z</time></trkpt><trkpt lat="30.94041173645131" lon="-6.985393569745264"><ele>1160.0</ele><time>2026-04-24T14:51:16Z</time></trkpt><trkpt lat="30.940432331934332" lon="-6.985298027088303"><ele>1160.0</ele><time>2026-04-24T14:51:17Z</time></trkpt><trkpt lat="30.940438848332064" lon="-6.985191675258904"><ele>1160.0</ele><time>2026-04-24T14:51:18Z</time></trkpt><trkpt lat="30.94043235530276" lon="-6.9850819669051925"><ele>1160.0</ele><time>2026-04-24T14:51:19Z</time></trkpt><trkpt lat="30.94042046814053" lon="-6.984971086541214"><ele>1160.0</ele><time>2026-04-24T14:51:20Z</time></trkpt><trkpt lat="30.94040980528923" lon="-6.984867274592779"><ele>1160.0</ele><time>2026-04-24T14:51:21Z</time></trkpt><trkpt lat="30.94039999831713" lon="-6.9847742797236245"><ele>1160.0</ele><time>2026-04-24T14:51:22Z</time></trkpt><trkpt lat="30.940386802556795" lon="-6.984693634012597"><ele>1160.0</ele><time>2026-04-24T14:51:23Z</time></trkpt><trkpt lat="30.940347972316182" lon="-6.984572897243295"><ele>1160.0</ele><time>2026-04-24T14:51:25Z</time></trkpt><trkpt lat="30.94027015968266" lon="-6.984488584125735"><ele>1160.0</ele><time>2026-04-24T14:51:27Z</time></trkpt><trkpt lat="30.940178935903432" lon="-6.984419499686513"><ele>1160.0</ele><time>2026-04-24T14:51:29Z</time></trkpt><trkpt lat="30.940088066003625" lon="-6.984374280991018"><ele>1160.0</ele><time>2026-04-24T14:51:31Z</time></trkpt><trkpt lat="30.940014455610594" lon="-6.984321818906657"><ele>1160.0</ele><time>2026-04-24T14:51:33Z</time></trkpt><trkpt lat="30.939939994553168" lon="-6.984283078576707"><ele>1159.5</ele><time>2026-04-24T14:51:35Z</time></trkpt><trkpt lat="30.939883006169847" lon="-6.984097360997125"><ele>1159.0</ele><time>2026-04-24T14:55:13Z</time></trkpt><trkpt lat="30.93997004906571" lon="-6.983957325785283"><ele>1158.5</ele><time>2026-04-24T15:00:32.999Z</time></trkpt><trkpt lat="30.940047420784953" lon="-6.983848488996432"><ele>1158.0</ele><time>2026-04-24T15:00:34.999Z</time></trkpt><trkpt lat="30.94009192716561" lon="-6.9837858832959965"><ele>1157.9999999999998</ele><time>2026-04-24T15:00:35.999Z</time></trkpt><trkpt lat="30.940161134825658" lon="-6.983688530890431"><ele>1158.0</ele><time>2026-04-24T15:00:37.999Z</time></trkpt><trkpt lat="30.940216763673664" lon="-6.983639890842107"><ele>1158.0</ele><time>2026-04-24T15:00:39.999Z</time></trkpt><trkpt lat="30.940244266713943" lon="-6.98357354491708"><ele>1158.0</ele><time>2026-04-24T15:00:43.999Z</time></trkpt><trkpt lat="30.94025482628495" lon="-6.98349875858351"><ele>1158.0</ele><time>2026-04-24T15:00:45.999Z</time></trkpt><trkpt lat="30.940245660378356" lon="-6.9834259441098645"><ele>1157.9999999999998</ele><time>2026-04-24T15:00:46.999Z</time></trkpt><trkpt lat="30.94022068960114" lon="-6.9833425576310875"><ele>1158.0</ele><time>2026-04-24T15:00:47.999Z</time></trkpt><trkpt lat="30.94021001129133" lon="-6.983251553433545"><ele>1158.4</ele><time>2026-04-24T15:00:48.999Z</time></trkpt><trkpt lat="30.940198705452882" lon="-6.983155080249948"><ele>1158.8</ele><time>2026-04-24T15:00:49.999Z</time></trkpt><trkpt lat="30.940202265052918" lon="-6.983050662230644"><ele>1159.2</ele><time>2026-04-24T15:00:50.999Z</time></trkpt><trkpt lat="30.940187588309062" lon="-6.9829392175043665"><ele>1159.6</ele><time>2026-04-24T15:00:51.999Z</time></trkpt><trkpt lat="30.940166357702765" lon="-6.982819874258684"><ele>1160.0</ele><time>2026-04-24T15:00:52.999Z</time></trkpt><trkpt lat="30.94015183699014" lon="-6.982703885922404"><ele>1160.0</ele><time>2026-04-24T15:00:53.999Z</time></trkpt><trkpt lat="30.940135282764277" lon="-6.9825806097575045"><ele>1160.0</ele><time>2026-04-24T15:00:54.999Z</time></trkpt><trkpt lat="30.94012122970995" lon="-6.98245226616567"><ele>1160.0</ele><time>2026-04-24T15:00:55.999Z</time></trkpt><trkpt lat="30.94010676810998" lon="-6.982318748381499"><ele>1160.0</ele><time>2026-04-24T15:00:56.999Z</time></trkpt><trkpt lat="30.940089419235086" lon="-6.982182015805375"><ele>1160.0</ele><time>2026-04-24T15:00:57.999Z</time></trkpt><trkpt lat="30.940071833926154" lon="-6.982043367953739"><ele>1160.0</ele><time>2026-04-24T15:00:58.999Z</time></trkpt><trkpt lat="30.940053571442636" lon="-6.981897249165738"><ele>1160.0</ele><time>2026-04-24T15:00:59.999Z</time></trkpt><trkpt lat="30.940037717197132" lon="-6.981744653467842"><ele>1160.0</ele><time>2026-04-24T15:01:00.999Z</time></trkpt><trkpt lat="30.9400190729009" lon="-6.981590333328581"><ele>1160.0</ele><time>2026-04-24T15:01:01.999Z</time></trkpt><trkpt lat="30.9400001973556" lon="-6.981434844042938"><ele>1160.0</ele><time>2026-04-24T15:01:02.999Z</time></trkpt><trkpt lat="30.93998094543829" lon="-6.981278499110997"><ele>1160.0</ele><time>2026-04-24T15:01:03.999Z</time></trkpt><trkpt lat="30.939962494450956" lon="-6.981121567277341"><ele>1160.0</ele><time>2026-04-24T15:01:04.999Z</time></trkpt><trkpt lat="30.93994456811923" lon="-6.980964480486526"><ele>1160.0</ele><time>2026-04-24T15:01:05.999Z</time></trkpt><trkpt lat="30.939929255457205" lon="-6.980807990809933"><ele>1160.0</ele><time>2026-04-24T15:01:06.999Z</time></trkpt><trkpt lat="30.93991627953009" lon="-6.9806518856533675"><ele>1160.0</ele><time>2026-04-24T15:01:07.999Z</time></trkpt><trkpt lat="30.93989977758558" lon="-6.98049344076283"><ele>1160.0</ele><time>2026-04-24T15:01:08.999Z</time></trkpt><trkpt lat="30.939878393265882" lon="-6.98033405892518"><ele>1160.0</ele><time>2026-04-24T15:01:09.999Z</time></trkpt><trkpt lat="30.939858775988984" lon="-6.980174905659728"><ele>1160.0</ele><time>2026-04-24T15:01:10.999Z</time></trkpt><trkpt lat="30.939843733929333" lon="-6.98001382609677"><ele>1160.0</ele><time>2026-04-24T15:01:11.999Z</time></trkpt><trkpt lat="30.93982743846827" lon="-6.979849625782547"><ele>1160.0</ele><time>2026-04-24T15:01:12.999Z</time></trkpt><trkpt lat="30.939807941332823" lon="-6.979686595183363"><ele>1159.0</ele><time>2026-04-24T15:01:13.999Z</time></trkpt><trkpt lat="30.939792285317353" lon="-6.9795206550419815"><ele>1158.0</ele><time>2026-04-24T15:01:14.999Z</time></trkpt><trkpt lat="30.939776213599718" lon="-6.979354269826016"><ele>1157.0</ele><time>2026-04-24T15:01:15.999Z</time></trkpt><trkpt lat="30.939756488297405" lon="-6.979188722016996"><ele>1156.0</ele><time>2026-04-24T15:01:16.999Z</time></trkpt><trkpt lat="30.939735283209583" lon="-6.979022014650778"><ele>1156.0</ele><time>2026-04-24T15:01:17.999Z</time></trkpt><trkpt lat="30.93971700705728" lon="-6.978855798978416"><ele>1156.0</ele><time>2026-04-24T15:01:18.999Z</time></trkpt><trkpt lat="30.939698810332846" lon="-6.978692138352814"><ele>1156.0</ele><time>2026-04-24T15:01:19.999Z</time></trkpt><trkpt lat="30.93966401179964" lon="-6.978530511342092"><ele>1156.0</ele><time>2026-04-24T15:01:20.999Z</time></trkpt><trkpt lat="30.93964376367361" lon="-6.978367353955353"><ele>1156.0</ele><time>2026-04-24T15:01:21.999Z</time></trkpt><trkpt lat="30.939623829739702" lon="-6.978206799105077"><ele>1156.0</ele><time>2026-04-24T15:01:23Z</time></trkpt><trkpt lat="30.939604380709454" lon="-6.978042808368642"><ele>1156.0</ele><time>2026-04-24T15:01:24Z</time></trkpt><trkpt lat="30.93960174332862" lon="-6.977879484622053"><ele>1156.0</ele><time>2026-04-24T15:01:25Z</time></trkpt><trkpt lat="30.939566631993127" lon="-6.977721223875327"><ele>1156.0</ele><time>2026-04-24T15:01:26Z</time></trkpt><trkpt lat="30.93956487237455" lon="-6.977559322810836"><ele>1156.0</ele><time>2026-04-24T15:01:27Z</time></trkpt><trkpt lat="30.939544636714064" lon="-6.977399273713305"><ele>1156.0</ele><time>2026-04-24T15:01:28Z</time></trkpt><trkpt lat="30.93952517086087" lon="-6.97723656535541"><ele>1156.0</ele><time>2026-04-24T15:01:29Z</time></trkpt><trkpt lat="30.939503117228238" lon="-6.977070946177125"><ele>1155.75</ele><time>2026-04-24T15:01:30Z</time></trkpt><trkpt lat="30.939466523041713" lon="-6.976903352599225"><ele>1155.5</ele><time>2026-04-24T15:01:31Z</time></trkpt><trkpt lat="30.93944511534545" lon="-6.97672799963278"><ele>1155.25</ele><time>2026-04-24T15:01:32Z</time></trkpt><trkpt lat="30.93942557450851" lon="-6.976562799296204"><ele>1155.0</ele><time>2026-04-24T15:01:33Z</time></trkpt><trkpt lat="30.939405551594376" lon="-6.976405980264418"><ele>1154.75</ele><time>2026-04-24T15:01:34Z</time></trkpt><trkpt lat="30.93938749449055" lon="-6.976259505919775"><ele>1154.5</ele><time>2026-04-24T15:01:35Z</time></trkpt><trkpt lat="30.93937028728498" lon="-6.976112016678116"><ele>1154.25</ele><time>2026-04-24T15:01:36Z</time></trkpt><trkpt lat="30.939368557709905" lon="-6.975962876517411"><ele>1154.0</ele><time>2026-04-24T15:01:37Z</time></trkpt><trkpt lat="30.939334897999355" lon="-6.97581134753629"><ele>1153.75</ele><time>2026-04-24T15:01:38Z</time></trkpt><trkpt lat="30.939330328976038" lon="-6.975654671872591"><ele>1153.5</ele><time>2026-04-24T15:01:39Z</time></trkpt><trkpt lat="30.93930859860977" lon="-6.975492877330528"><ele>1153.25</ele><time>2026-04-24T15:01:40Z</time></trkpt><trkpt lat="30.93928861517571" lon="-6.975327972594363"><ele>1153.0</ele><time>2026-04-24T15:01:41Z</time></trkpt><trkpt lat="30.939267790324315" lon="-6.975160136328364"><ele>1153.0</ele><time>2026-04-24T15:01:42Z</time></trkpt><trkpt lat="30.939244766589557" lon="-6.974991567101287"><ele>1153.0</ele><time>2026-04-24T15:01:43Z</time></trkpt><trkpt lat="30.9392224494746" lon="-6.9748172666637585"><ele>1153.0</ele><time>2026-04-24T15:01:44Z</time></trkpt><trkpt lat="30.939202753778314" lon="-6.974640991221418"><ele>1153.0</ele><time>2026-04-24T15:01:45Z</time></trkpt><trkpt lat="30.939183004988564" lon="-6.97446350017862"><ele>1153.0</ele><time>2026-04-24T15:01:46Z</time></trkpt><trkpt lat="30.93916107712288" lon="-6.974284139828244"><ele>1153.0</ele><time>2026-04-24T15:01:47Z</time></trkpt><trkpt lat="30.93914062755847" lon="-6.974108964563252"><ele>1153.5</ele><time>2026-04-24T15:01:48Z</time></trkpt><trkpt lat="30.939123617994575" lon="-6.973943349735568"><ele>1154.0</ele><time>2026-04-24T15:01:49Z</time></trkpt><trkpt lat="30.939104416252437" lon="-6.973791437341951"><ele>1154.5</ele><time>2026-04-24T15:01:50Z</time></trkpt><trkpt lat="30.939089725960372" lon="-6.973652763410589"><ele>1155.0</ele><time>2026-04-24T15:01:51Z</time></trkpt><trkpt lat="30.939078707869353" lon="-6.9735280945368885"><ele>1155.0</ele><time>2026-04-24T15:01:52Z</time></trkpt><trkpt lat="30.939066656623236" lon="-6.973412084041871"><ele>1155.0</ele><time>2026-04-24T15:01:53Z</time></trkpt><trkpt lat="30.939054605100157" lon="-6.973294176521793"><ele>1155.0</ele><time>2026-04-24T15:01:54Z</time></trkpt><trkpt lat="30.939025389038505" lon="-6.973173160242639"><ele>1155.0</ele><time>2026-04-24T15:01:55Z</time></trkpt><trkpt lat="30.939010458778643" lon="-6.9730448491030215"><ele>1155.0</ele><time>2026-04-24T15:01:56Z</time></trkpt><trkpt lat="30.938995832991047" lon="-6.972919154582422"><ele>1155.0</ele><time>2026-04-24T15:01:57Z</time></trkpt><trkpt lat="30.938981303756147" lon="-6.9727942898397295"><ele>1155.0</ele><time>2026-04-24T15:01:58Z</time></trkpt><trkpt lat="30.938967277046274" lon="-6.972674306501508"><ele>1155.0</ele><time>2026-04-24T15:01:59Z</time></trkpt><trkpt lat="30.9389541703007" lon="-6.972559333868443"><ele>1155.0</ele><time>2026-04-24T15:02:00Z</time></trkpt><trkpt lat="30.93894014935347" lon="-6.972435872900416"><ele>1155.0</ele><time>2026-04-24T15:02:01Z</time></trkpt><trkpt lat="30.938926028442737" lon="-6.972312326728371"><ele>1155.0</ele><time>2026-04-24T15:02:02Z</time></trkpt><trkpt lat="30.93891172899359" lon="-6.972190314051777"><ele>1155.0</ele><time>2026-04-24T15:02:03Z</time></trkpt><trkpt lat="30.938897450380924" lon="-6.972069205945809"><ele>1155.0</ele><time>2026-04-24T15:02:04Z</time></trkpt><trkpt lat="30.93888497087706" lon="-6.9719626862491095"><ele>1155.0</ele><time>2026-04-24T15:02:05Z</time></trkpt><trkpt lat="30.938872178951833" lon="-6.9718534998192245"><ele>1155.0</ele><time>2026-04-24T15:02:06Z</time></trkpt><trkpt lat="30.938858718944726" lon="-6.971738610960058"><ele>1155.5</ele><time>2026-04-24T15:02:07Z</time></trkpt><trkpt lat="30.93884462877196" lon="-6.9716174531279504"><ele>1156.0</ele><time>2026-04-24T15:02:08Z</time></trkpt><trkpt lat="30.938829364029814" lon="-6.971485870506125"><ele>1156.5</ele><time>2026-04-24T15:02:09Z</time></trkpt><trkpt lat="30.938813428429" lon="-6.971348504988702"><ele>1157.0</ele><time>2026-04-24T15:02:10Z</time></trkpt><trkpt lat="30.93879721574317" lon="-6.971207126713661"><ele>1157.0</ele><time>2026-04-24T15:02:11Z</time></trkpt><trkpt lat="30.938797005808645" lon="-6.971063272380269"><ele>1157.0</ele><time>2026-04-24T15:02:12Z</time></trkpt><trkpt lat="30.93877865923108" lon="-6.970921506555546"><ele>1157.0</ele><time>2026-04-24T15:02:13Z</time></trkpt><trkpt lat="30.93876271446973" lon="-6.970771980270099"><ele>1157.0</ele><time>2026-04-24T15:02:14Z</time></trkpt><trkpt lat="30.938742440275067" lon="-6.9706134174361205"><ele>1156.25</ele><time>2026-04-24T15:02:15Z</time></trkpt><trkpt lat="30.93872119183382" lon="-6.970449911829451"><ele>1155.5</ele><time>2026-04-24T15:02:16Z</time></trkpt><trkpt lat="30.93870046307909" lon="-6.970283651801396"><ele>1154.75</ele><time>2026-04-24T15:02:17Z</time></trkpt><trkpt lat="30.938678872337487" lon="-6.97010949513022"><ele>1154.0</ele><time>2026-04-24T15:02:18Z</time></trkpt><trkpt lat="30.938659080689284" lon="-6.969932708989552"><ele>1153.3333333333335</ele><time>2026-04-24T15:02:19Z</time></trkpt><trkpt lat="30.938640855182136" lon="-6.96975391180658"><ele>1152.6666666666667</ele><time>2026-04-24T15:02:20Z</time></trkpt><trkpt lat="30.938622223160863" lon="-6.969579588845544"><ele>1152.0</ele><time>2026-04-24T15:02:21Z</time></trkpt><trkpt lat="30.93860348517082" lon="-6.969407428724528"><ele>1152.0</ele><time>2026-04-24T15:02:22Z</time></trkpt><trkpt lat="30.93858396033456" lon="-6.969241473227269"><ele>1152.0</ele><time>2026-04-24T15:02:23Z</time></trkpt><trkpt lat="30.93856915704881" lon="-6.969075866615774"><ele>1152.0</ele><time>2026-04-24T15:02:24Z</time></trkpt><trkpt lat="30.938552803606918" lon="-6.968910314776268"><ele>1152.0</ele><time>2026-04-24T15:02:25Z</time></trkpt><trkpt lat="30.93853288124648" lon="-6.968740742164498"><ele>1151.75</ele><time>2026-04-24T15:02:26Z</time></trkpt><trkpt lat="30.938514606200414" lon="-6.968570983906377"><ele>1151.5</ele><time>2026-04-24T15:02:27Z</time></trkpt><trkpt lat="30.938479678575614" lon="-6.96840272544404"><ele>1151.25</ele><time>2026-04-24T15:02:28Z</time></trkpt><trkpt lat="30.938458926301802" lon="-6.96823196968978"><ele>1151.0</ele><time>2026-04-24T15:02:29Z</time></trkpt><trkpt lat="30.938453867637524" lon="-6.9680584540308175"><ele>1151.5</ele><time>2026-04-24T15:02:30Z</time></trkpt><trkpt lat="30.93843252154506" lon="-6.967897021719436"><ele>1152.0</ele><time>2026-04-24T15:02:31Z</time></trkpt><trkpt lat="30.93841165457522" lon="-6.967737235622968"><ele>1152.5</ele><time>2026-04-24T15:02:32Z</time></trkpt><trkpt lat="30.938389412813226" lon="-6.967576017431577"><ele>1153.0</ele><time>2026-04-24T15:02:33Z</time></trkpt><trkpt lat="30.938367788444637" lon="-6.967415875278093"><ele>1153.0</ele><time>2026-04-24T15:02:34Z</time></trkpt><trkpt lat="30.93834851627659" lon="-6.967253521272695"><ele>1153.0</ele><time>2026-04-24T15:02:35Z</time></trkpt><trkpt lat="30.938329305992596" lon="-6.967088422266698"><ele>1153.0</ele><time>2026-04-24T15:02:36Z</time></trkpt><trkpt lat="30.938312098149897" lon="-6.966930030417558"><ele>1153.0</ele><time>2026-04-24T15:02:37Z</time></trkpt><trkpt lat="30.93829396841262" lon="-6.966774264183435"><ele>1152.25</ele><time>2026-04-24T15:02:38Z</time></trkpt><trkpt lat="30.93827644176396" lon="-6.966625923627018"><ele>1151.5</ele><time>2026-04-24T15:02:39Z</time></trkpt><trkpt lat="30.938259135149078" lon="-6.96647986425026"><ele>1150.75</ele><time>2026-04-24T15:02:40Z</time></trkpt><trkpt lat="30.938242521576196" lon="-6.966330637144089"><ele>1150.0</ele><time>2026-04-24T15:02:41Z</time></trkpt><trkpt lat="30.938225632912093" lon="-6.966181482490573"><ele>1150.0</ele><time>2026-04-24T15:02:42Z</time></trkpt><trkpt lat="30.93820785671241" lon="-6.966031072140295"><ele>1150.0</ele><time>2026-04-24T15:02:43Z</time></trkpt><trkpt lat="30.938192250801574" lon="-6.965880527572289"><ele>1150.0</ele><time>2026-04-24T15:02:44Z</time></trkpt><trkpt lat="30.938172013500083" lon="-6.965727170211732"><ele>1150.0</ele><time>2026-04-24T15:02:45Z</time></trkpt><trkpt lat="30.938152424073685" lon="-6.9655732520828595"><ele>1149.5</ele><time>2026-04-24T15:02:46Z</time></trkpt><trkpt lat="30.938130768355645" lon="-6.965421515045859"><ele>1149.0</ele><time>2026-04-24T15:02:47Z</time></trkpt><trkpt lat="30.93811541910357" lon="-6.965281078142072"><ele>1148.5</ele><time>2026-04-24T15:02:48Z</time></trkpt><trkpt lat="30.938101323608343" lon="-6.965145333017979"><ele>1148.0</ele><time>2026-04-24T15:02:49Z</time></trkpt><trkpt lat="30.938086068173565" lon="-6.9650209446356355"><ele>1147.2</ele><time>2026-04-24T15:02:50Z</time></trkpt><trkpt lat="30.93807108077115" lon="-6.9649072863560795"><ele>1146.4</ele><time>2026-04-24T15:02:51Z</time></trkpt><trkpt lat="30.938057659849896" lon="-6.964798094521045"><ele>1145.6000000000001</ele><time>2026-04-24T15:02:52Z</time></trkpt><trkpt lat="30.938047594026248" lon="-6.964689924996363"><ele>1144.8</ele><time>2026-04-24T15:02:53Z</time></trkpt><trkpt lat="30.938035414457616" lon="-6.964584971258815"><ele>1144.0</ele><time>2026-04-24T15:02:54Z</time></trkpt><trkpt lat="30.93802432219126" lon="-6.964479601200912"><ele>1144.0</ele><time>2026-04-24T15:02:55Z</time></trkpt><trkpt lat="30.937994910465978" lon="-6.964388475618079"><ele>1144.0</ele><time>2026-04-24T15:02:56Z</time></trkpt><trkpt lat="30.937979597701" lon="-6.964289934554387"><ele>1144.0</ele><time>2026-04-24T15:02:57Z</time></trkpt><trkpt lat="30.937963081473455" lon="-6.964183649465892"><ele>1144.0</ele><time>2026-04-24T15:02:58Z</time></trkpt><trkpt lat="30.937937650000173" lon="-6.9640694182294665"><ele>1144.0</ele><time>2026-04-24T15:02:59Z</time></trkpt><trkpt lat="30.93791157478294" lon="-6.963942705194737"><ele>1143.0</ele><time>2026-04-24T15:03:00Z</time></trkpt><trkpt lat="30.937879799632874" lon="-6.963809748359554"><ele>1142.0</ele><time>2026-04-24T15:03:01Z</time></trkpt><trkpt lat="30.93784297278888" lon="-6.963667599248869"><ele>1141.0</ele><time>2026-04-24T15:03:02Z</time></trkpt><trkpt lat="30.937805352044496" lon="-6.963524162683699"><ele>1140.0</ele><time>2026-04-24T15:03:03Z</time></trkpt><trkpt lat="30.937766044279595" lon="-6.963394520938624"><ele>1140.75</ele><time>2026-04-24T15:03:04Z</time></trkpt><trkpt lat="30.937719038802946" lon="-6.963265878460705"><ele>1141.5</ele><time>2026-04-24T15:03:05Z</time></trkpt><trkpt lat="30.937670565312978" lon="-6.963133218386815"><ele>1142.25</ele><time>2026-04-24T15:03:06Z</time></trkpt><trkpt lat="30.93761998429611" lon="-6.962994790560278"><ele>1143.0</ele><time>2026-04-24T15:03:07Z</time></trkpt><trkpt lat="30.937586769946417" lon="-6.962845891576638"><ele>1143.0</ele><time>2026-04-24T15:03:08Z</time></trkpt><trkpt lat="30.93752507116252" lon="-6.962712087130011"><ele>1143.0</ele><time>2026-04-24T15:03:09Z</time></trkpt><trkpt lat="30.93745941381716" lon="-6.962578328669321"><ele>1143.0</ele><time>2026-04-24T15:03:10Z</time></trkpt><trkpt lat="30.937388099262453" lon="-6.962439008051499"><ele>1143.0</ele><time>2026-04-24T15:03:11Z</time></trkpt><trkpt lat="30.937307430120484" lon="-6.962296021318698"><ele>1143.3333333333333</ele><time>2026-04-24T15:03:12Z</time></trkpt><trkpt lat="30.93721800257856" lon="-6.962149729680652"><ele>1143.6666666666665</ele><time>2026-04-24T15:03:13Z</time></trkpt><trkpt lat="30.937123476363258" lon="-6.96199689736174"><ele>1144.0</ele><time>2026-04-24T15:03:14Z</time></trkpt><trkpt lat="30.93702529405816" lon="-6.961842849133351"><ele>1143.0</ele><time>2026-04-24T15:03:15Z</time></trkpt><trkpt lat="30.93692288352981" lon="-6.96168422410473"><ele>1142.0</ele><time>2026-04-24T15:03:16Z</time></trkpt><trkpt lat="30.936819233209427" lon="-6.961522888665083"><ele>1141.0</ele><time>2026-04-24T15:03:17Z</time></trkpt><trkpt lat="30.93671283834786" lon="-6.961358315481303"><ele>1140.6666666666665</ele><time>2026-04-24T15:03:18Z</time></trkpt><trkpt lat="30.936601571064596" lon="-6.9611912851634825"><ele>1140.3333333333333</ele><time>2026-04-24T15:03:19Z</time></trkpt><trkpt lat="30.936488315787965" lon="-6.961023207279076"><ele>1140.0</ele><time>2026-04-24T15:03:20Z</time></trkpt><trkpt lat="30.936375370405397" lon="-6.960856238817408"><ele>1139.3333333333333</ele><time>2026-04-24T15:03:21Z</time></trkpt><trkpt lat="30.93625999973792" lon="-6.960686106613267"><ele>1138.6666666666665</ele><time>2026-04-24T15:03:22Z</time></trkpt><trkpt lat="30.936143061370913" lon="-6.960512975637157"><ele>1138.0</ele><time>2026-04-24T15:03:23Z</time></trkpt><trkpt lat="30.936023988412522" lon="-6.960337507131485"><ele>1138.0</ele><time>2026-04-24T15:03:24Z</time></trkpt><trkpt lat="30.93590341348899" lon="-6.960158919603138"><ele>1138.0</ele><time>2026-04-24T15:03:25Z</time></trkpt><trkpt lat="30.93578055714894" lon="-6.95997572470371"><ele>1138.0</ele><time>2026-04-24T15:03:26Z</time></trkpt><trkpt lat="30.935657383250383" lon="-6.959794228229518"><ele>1137.0</ele><time>2026-04-24T15:03:27Z</time></trkpt><trkpt lat="30.935534146071404" lon="-6.959609230433369"><ele>1136.0</ele><time>2026-04-24T15:03:28Z</time></trkpt><trkpt lat="30.935410778331846" lon="-6.959421120111982"><ele>1135.0</ele><time>2026-04-24T15:03:29Z</time></trkpt><trkpt lat="30.935290102540183" lon="-6.9592352139446465"><ele>1135.0</ele><time>2026-04-24T15:03:30Z</time></trkpt><trkpt lat="30.935168626148737" lon="-6.959042404019527"><ele>1135.0</ele><time>2026-04-24T15:03:31Z</time></trkpt><trkpt lat="30.93504229610057" lon="-6.958844406915441"><ele>1135.0</ele><time>2026-04-24T15:03:32Z</time></trkpt><trkpt lat="30.934909493099266" lon="-6.958642144465217"><ele>1135.0</ele><time>2026-04-24T15:03:33Z</time></trkpt><trkpt lat="30.934776786780354" lon="-6.958437934310608"><ele>1135.0</ele><time>2026-04-24T15:03:34Z</time></trkpt><trkpt lat="30.934642148692273" lon="-6.958230819165902"><ele>1135.0</ele><time>2026-04-24T15:03:35Z</time></trkpt><trkpt lat="30.934507671867127" lon="-6.95802143332552"><ele>1136.0</ele><time>2026-04-24T15:03:36Z</time></trkpt><trkpt lat="30.93437274898107" lon="-6.957811964821989"><ele>1137.0</ele><time>2026-04-24T15:03:37Z</time></trkpt><trkpt lat="30.93423654602532" lon="-6.957603157684919"><ele>1136.3333333333333</ele><time>2026-04-24T15:03:38Z</time></trkpt><trkpt lat="30.934105101338726" lon="-6.9574009252561275"><ele>1135.6666666666665</ele><time>2026-04-24T15:03:39Z</time></trkpt><trkpt lat="30.933980204024806" lon="-6.957207533559411"><ele>1135.0</ele><time>2026-04-24T15:03:40Z</time></trkpt><trkpt lat="30.933859395771243" lon="-6.95701483577163"><ele>1135.0</ele><time>2026-04-24T15:03:41Z</time></trkpt><trkpt lat="30.933741468025925" lon="-6.956821045939082"><ele>1135.0</ele><time>2026-04-24T15:03:42Z</time></trkpt><trkpt lat="30.93362144188847" lon="-6.956627315452869"><ele>1135.0</ele><time>2026-04-24T15:03:43Z</time></trkpt><trkpt lat="30.933499230411993" lon="-6.956433449883945"><ele>1134.6666666666665</ele><time>2026-04-24T15:03:44Z</time></trkpt><trkpt lat="30.93337833218598" lon="-6.956244241880866"><ele>1134.3333333333333</ele><time>2026-04-24T15:03:45Z</time></trkpt><trkpt lat="30.93326070680615" lon="-6.956062076744184"><ele>1134.0</ele><time>2026-04-24T15:03:46Z</time></trkpt><trkpt lat="30.93314545608497" lon="-6.955879946591435"><ele>1134.3333333333333</ele><time>2026-04-24T15:03:47Z</time></trkpt><trkpt lat="30.933033865801175" lon="-6.955695914216548"><ele>1134.6666666666665</ele><time>2026-04-24T15:03:48Z</time></trkpt><trkpt lat="30.932926381766205" lon="-6.955509010063033"><ele>1135.0</ele><time>2026-04-24T15:03:49Z</time></trkpt><trkpt lat="30.932825565428825" lon="-6.95532259540706"><ele>1135.0</ele><time>2026-04-24T15:03:50Z</time></trkpt><trkpt lat="30.932727545175275" lon="-6.955133323627456"><ele>1135.0</ele><time>2026-04-24T15:03:51Z</time></trkpt><trkpt lat="30.932637918226906" lon="-6.954943935830753"><ele>1135.0</ele><time>2026-04-24T15:03:52Z</time></trkpt><trkpt lat="30.932550490983036" lon="-6.954751531644964"><ele>1134.6666666666665</ele><time>2026-04-24T15:03:53Z</time></trkpt><trkpt lat="30.93246428613134" lon="-6.954554342899328"><ele>1134.3333333333333</ele><time>2026-04-24T15:03:54Z</time></trkpt><trkpt lat="30.932383178342363" lon="-6.954354414041458"><ele>1134.0</ele><time>2026-04-24T15:03:55Z</time></trkpt><trkpt lat="30.932304838817654" lon="-6.954149447771966"><ele>1134.0</ele><time>2026-04-24T15:03:56Z</time></trkpt><trkpt lat="30.93222695995604" lon="-6.953941303169737"><ele>1134.0</ele><time>2026-04-24T15:03:57Z</time></trkpt><trkpt lat="30.93214955422044" lon="-6.953729569145955"><ele>1134.0</ele><time>2026-04-24T15:03:58Z</time></trkpt><trkpt lat="30.932071568003135" lon="-6.953512643961572"><ele>1133.6666666666667</ele><time>2026-04-24T15:03:59Z</time></trkpt><trkpt lat="30.93199294340812" lon="-6.953294073862947"><ele>1133.3333333333335</ele><time>2026-04-24T15:04:00Z</time></trkpt><trkpt lat="30.931915849267206" lon="-6.953076226085454"><ele>1133.0</ele><time>2026-04-24T15:04:01Z</time></trkpt><trkpt lat="30.931839806602124" lon="-6.95285771410494"><ele>1133.0</ele><time>2026-04-24T15:04:02Z</time></trkpt><trkpt lat="30.931764846544436" lon="-6.9526420047155355"><ele>1133.0</ele><time>2026-04-24T15:04:03Z</time></trkpt><trkpt lat="30.931693725472826" lon="-6.95243679803379"><ele>1133.0</ele><time>2026-04-24T15:04:04Z</time></trkpt><trkpt lat="30.931624162937077" lon="-6.9522357482941795"><ele>1132.6666666666667</ele><time>2026-04-24T15:04:05Z</time></trkpt><trkpt lat="30.93155914569725" lon="-6.952042512859548"><ele>1132.3333333333333</ele><time>2026-04-24T15:04:06Z</time></trkpt><trkpt lat="30.931495132182313" lon="-6.951856133572988"><ele>1132.0</ele><time>2026-04-24T15:04:07Z</time></trkpt><trkpt lat="30.931430609633185" lon="-6.951673365851065"><ele>1132.0</ele><time>2026-04-24T15:04:08Z</time></trkpt><trkpt lat="30.93136684615113" lon="-6.951496150947822"><ele>1132.0</ele><time>2026-04-24T15:04:09Z</time></trkpt><trkpt lat="30.931305143795644" lon="-6.9513262134170155"><ele>1132.0</ele><time>2026-04-24T15:04:10Z</time></trkpt><trkpt lat="30.9312461956029" lon="-6.951161591021002"><ele>1132.0</ele><time>2026-04-24T15:04:11Z</time></trkpt><trkpt lat="30.931192672144817" lon="-6.951009817827051"><ele>1132.0</ele><time>2026-04-24T15:04:12Z</time></trkpt><trkpt lat="30.931143167563643" lon="-6.95086875357711"><ele>1132.0</ele><time>2026-04-24T15:04:13Z</time></trkpt><trkpt lat="30.931091679051388" lon="-6.950736233378008"><ele>1132.0</ele><time>2026-04-24T15:04:14Z</time></trkpt><trkpt lat="30.931036871454232" lon="-6.950617003955421"><ele>1132.0</ele><time>2026-04-24T15:04:15Z</time></trkpt><trkpt lat="30.930980238357254" lon="-6.950510688972119"><ele>1132.0</ele><time>2026-04-24T15:04:16Z</time></trkpt><trkpt lat="30.930920365943543" lon="-6.9504171458612065"><ele>1132.0</ele><time>2026-04-24T15:04:17Z</time></trkpt><trkpt lat="30.930855079073925" lon="-6.95033090436505"><ele>1132.0</ele><time>2026-04-24T15:04:18Z</time></trkpt><trkpt lat="30.930795307037847" lon="-6.950240082156084"><ele>1132.0</ele><time>2026-04-24T15:04:19Z</time></trkpt><trkpt lat="30.93076281474912" lon="-6.95012723254951"><ele>1132.0</ele><time>2026-04-24T15:04:20Z</time></trkpt><trkpt lat="30.930756132652657" lon="-6.949994884678282"><ele>1132.0</ele><time>2026-04-24T15:04:21Z</time></trkpt><trkpt lat="30.930746043171357" lon="-6.949853384209422"><ele>1132.0</ele><time>2026-04-24T15:04:22Z</time></trkpt><trkpt lat="30.930710229390694" lon="-6.949704741935756"><ele>1132.0</ele><time>2026-04-24T15:04:23Z</time></trkpt><trkpt lat="30.930660872785474" lon="-6.949548265279479"><ele>1132.0</ele><time>2026-04-24T15:04:24Z</time></trkpt><trkpt lat="30.930542358544972" lon="-6.949240335476924"><ele>1132.0</ele><time>2026-04-24T15:04:26Z</time></trkpt><trkpt lat="30.930488502305774" lon="-6.9490855629025425"><ele>1132.0</ele><time>2026-04-24T15:04:27Z</time></trkpt><trkpt lat="30.93043715125119" lon="-6.948938666216653"><ele>1131.75</ele><time>2026-04-24T15:04:28Z</time></trkpt><trkpt lat="30.930401742259225" lon="-6.948792618878475"><ele>1131.5</ele><time>2026-04-24T15:04:29Z</time></trkpt><trkpt lat="30.930353784030068" lon="-6.948655065320966"><ele>1131.25</ele><time>2026-04-24T15:04:30Z</time></trkpt><trkpt lat="30.93030551223515" lon="-6.9485167191786825"><ele>1131.0</ele><time>2026-04-24T15:04:31Z</time></trkpt><trkpt lat="30.930254972703285" lon="-6.948370387075153"><ele>1131.0</ele><time>2026-04-24T15:04:32Z</time></trkpt><trkpt lat="30.930186481824958" lon="-6.948223830374747"><ele>1131.0</ele><time>2026-04-24T15:04:33Z</time></trkpt><trkpt lat="30.930128841455545" lon="-6.948060412179777"><ele>1131.0</ele><time>2026-04-24T15:04:34Z</time></trkpt><trkpt lat="30.93007003141522" lon="-6.947893271236143"><ele>1131.0</ele><time>2026-04-24T15:04:35Z</time></trkpt><trkpt lat="30.930009632487568" lon="-6.947724831864019"><ele>1131.0</ele><time>2026-04-24T15:04:36Z</time></trkpt><trkpt lat="30.929948720253186" lon="-6.9475535497779575"><ele>1131.0</ele><time>2026-04-24T15:04:37Z</time></trkpt><trkpt lat="30.929886353114362" lon="-6.947379248315235"><ele>1131.0</ele><time>2026-04-24T15:04:38Z</time></trkpt><trkpt lat="30.929824428258915" lon="-6.947205226936462"><ele>1131.0</ele><time>2026-04-24T15:04:39Z</time></trkpt><trkpt lat="30.929762562221192" lon="-6.947030383348067"><ele>1131.0</ele><time>2026-04-24T15:04:40Z</time></trkpt><trkpt lat="30.929701696432897" lon="-6.946858534905334"><ele>1131.0</ele><time>2026-04-24T15:04:41Z</time></trkpt><trkpt lat="30.929640363820653" lon="-6.946685047331514"><ele>1131.0</ele><time>2026-04-24T15:04:42Z</time></trkpt><trkpt lat="30.92957806698629" lon="-6.94650837212061"><ele>1131.0</ele><time>2026-04-24T15:04:43Z</time></trkpt><trkpt lat="30.929517550597208" lon="-6.946336373971923"><ele>1131.0</ele><time>2026-04-24T15:04:44Z</time></trkpt><trkpt lat="30.929456334212148" lon="-6.94616385717281"><ele>1131.0</ele><time>2026-04-24T15:04:45Z</time></trkpt><trkpt lat="30.929394882799283" lon="-6.945989645650491"><ele>1131.0</ele><time>2026-04-24T15:04:46Z</time></trkpt><trkpt lat="30.929333696993652" lon="-6.945815387604239"><ele>1131.0</ele><time>2026-04-24T15:04:47Z</time></trkpt><trkpt lat="30.929272639724154" lon="-6.945641825374846"><ele>1131.0</ele><time>2026-04-24T15:04:48Z</time></trkpt><trkpt lat="30.929211775834577" lon="-6.94546881284986"><ele>1131.0</ele><time>2026-04-24T15:04:49Z</time></trkpt><trkpt lat="30.929089359432336" lon="-6.9451225742865"><ele>1130.6666666666667</ele><time>2026-04-24T15:04:51Z</time></trkpt><trkpt lat="30.929027401198145" lon="-6.9449477834751105"><ele>1130.3333333333335</ele><time>2026-04-24T15:04:52Z</time></trkpt><trkpt lat="30.92896733830031" lon="-6.944777061212164"><ele>1130.0</ele><time>2026-04-24T15:04:53Z</time></trkpt><trkpt lat="30.928909716754422" lon="-6.944614507084431"><ele>1130.0</ele><time>2026-04-24T15:04:54Z</time></trkpt><trkpt lat="30.928855210120958" lon="-6.944458986010102"><ele>1130.0</ele><time>2026-04-24T15:04:55Z</time></trkpt><trkpt lat="30.928801873791844" lon="-6.944307386313303"><ele>1130.0</ele><time>2026-04-24T15:04:56Z</time></trkpt><trkpt lat="30.928749439610844" lon="-6.944158454132499"><ele>1130.0</ele><time>2026-04-24T15:04:57Z</time></trkpt><trkpt lat="30.92869602314942" lon="-6.944006918428678"><ele>1129.75</ele><time>2026-04-24T15:04:58Z</time></trkpt><trkpt lat="30.928642418056324" lon="-6.943854992165058"><ele>1129.5</ele><time>2026-04-24T15:04:59Z</time></trkpt><trkpt lat="30.92858804148591" lon="-6.943701692756653"><ele>1129.25</ele><time>2026-04-24T15:05:00Z</time></trkpt><trkpt lat="30.92853435186848" lon="-6.943550415058478"><ele>1129.0</ele><time>2026-04-24T15:05:01Z</time></trkpt><trkpt lat="30.92848199660365" lon="-6.943401527115152"><ele>1129.25</ele><time>2026-04-24T15:05:02Z</time></trkpt><trkpt lat="30.92843038828147" lon="-6.943254551701755"><ele>1129.5</ele><time>2026-04-24T15:05:03Z</time></trkpt><trkpt lat="30.92837816322151" lon="-6.943105531959593"><ele>1129.75</ele><time>2026-04-24T15:05:04Z</time></trkpt><trkpt lat="30.92832337107854" lon="-6.942951042836975"><ele>1130.0</ele><time>2026-04-24T15:05:05Z</time></trkpt><trkpt lat="30.92826537596746" lon="-6.942787440002819"><ele>1130.0</ele><time>2026-04-24T15:05:06Z</time></trkpt><trkpt lat="30.928204850126296" lon="-6.942616072646941"><ele>1130.0</ele><time>2026-04-24T15:05:07Z</time></trkpt><trkpt lat="30.928145309756914" lon="-6.942437863213975"><ele>1130.0</ele><time>2026-04-24T15:05:08Z</time></trkpt><trkpt lat="30.92808345662193" lon="-6.9422547312088"><ele>1130.0</ele><time>2026-04-24T15:05:09Z</time></trkpt><trkpt lat="30.928019402184592" lon="-6.9420654712281875"><ele>1130.0</ele><time>2026-04-24T15:05:10Z</time></trkpt><trkpt lat="30.92795255712922" lon="-6.941875468009787"><ele>1130.0</ele><time>2026-04-24T15:05:11Z</time></trkpt><trkpt lat="30.927886563545414" lon="-6.941692118254616"><ele>1130.0</ele><time>2026-04-24T15:05:12Z</time></trkpt><trkpt lat="30.927824663935134" lon="-6.941520087647415"><ele>1130.0</ele><time>2026-04-24T15:05:13Z</time></trkpt><trkpt lat="30.927765972711484" lon="-6.9413562544617085"><ele>1130.0</ele><time>2026-04-24T15:05:14Z</time></trkpt><trkpt lat="30.927710165034295" lon="-6.941201970447154"><ele>1130.0</ele><time>2026-04-24T15:05:15Z</time></trkpt><trkpt lat="30.927656366104465" lon="-6.941051523607943"><ele>1130.0</ele><time>2026-04-24T15:05:16Z</time></trkpt><trkpt lat="30.927602844497972" lon="-6.9409024564380335"><ele>1130.0</ele><time>2026-04-24T15:05:17Z</time></trkpt><trkpt lat="30.927549834524665" lon="-6.9407552265101895"><ele>1130.0</ele><time>2026-04-24T15:05:18Z</time></trkpt><trkpt lat="30.927497046325833" lon="-6.94060958089072"><ele>1129.75</ele><time>2026-04-24T15:05:19Z</time></trkpt><trkpt lat="30.927446311959226" lon="-6.940468161612095"><ele>1129.5</ele><time>2026-04-24T15:05:20Z</time></trkpt><trkpt lat="30.927395981061533" lon="-6.940328938427482"><ele>1129.25</ele><time>2026-04-24T15:05:21Z</time></trkpt><trkpt lat="30.92734553819001" lon="-6.940189405510013"><ele>1129.0</ele><time>2026-04-24T15:05:22Z</time></trkpt><trkpt lat="30.927294435006335" lon="-6.940048114879487"><ele>1128.75</ele><time>2026-04-24T15:05:23Z</time></trkpt><trkpt lat="30.927243278796247" lon="-6.939906819779895"><ele>1128.5</ele><time>2026-04-24T15:05:24Z</time></trkpt><trkpt lat="30.927193375708818" lon="-6.939760179162815"><ele>1128.25</ele><time>2026-04-24T15:05:25Z</time></trkpt><trkpt lat="30.92714344395987" lon="-6.93961200669101"><ele>1128.0</ele><time>2026-04-24T15:05:26Z</time></trkpt><trkpt lat="30.92709295049148" lon="-6.939462167320038"><ele>1128.0</ele><time>2026-04-24T15:05:27Z</time></trkpt><trkpt lat="30.92704060302863" lon="-6.939311629106851"><ele>1128.0</ele><time>2026-04-24T15:05:28Z</time></trkpt><trkpt lat="30.926986797198815" lon="-6.939159217898355"><ele>1128.0</ele><time>2026-04-24T15:05:29Z</time></trkpt><trkpt lat="30.926931914753553" lon="-6.939003650674235"><ele>1128.0</ele><time>2026-04-24T15:05:30Z</time></trkpt><trkpt lat="30.926877143628236" lon="-6.938847370967914"><ele>1128.25</ele><time>2026-04-24T15:05:31Z</time></trkpt><trkpt lat="30.92682226305147" lon="-6.938690778964631"><ele>1128.5</ele><time>2026-04-24T15:05:32Z</time></trkpt><trkpt lat="30.926780267857385" lon="-6.938524314117323"><ele>1128.75</ele><time>2026-04-24T15:05:33Z</time></trkpt><trkpt lat="30.92672301580132" lon="-6.9383640132961615"><ele>1129.0</ele><time>2026-04-24T15:05:34Z</time></trkpt><trkpt lat="30.926663952571595" lon="-6.93820136153099"><ele>1129.0</ele><time>2026-04-24T15:05:35Z</time></trkpt><trkpt lat="30.926603393278505" lon="-6.9380362222709495"><ele>1129.0</ele><time>2026-04-24T15:05:36Z</time></trkpt><trkpt lat="30.92654290661843" lon="-6.937866377204007"><ele>1129.0</ele><time>2026-04-24T15:05:37Z</time></trkpt><trkpt lat="30.92648279696661" lon="-6.937697449715628"><ele>1129.3333333333333</ele><time>2026-04-24T15:05:38Z</time></trkpt><trkpt lat="30.92642250754077" lon="-6.93752473607448"><ele>1129.6666666666667</ele><time>2026-04-24T15:05:39Z</time></trkpt><trkpt lat="30.926362471495764" lon="-6.937351018567956"><ele>1130.0</ele><time>2026-04-24T15:05:40Z</time></trkpt><trkpt lat="30.926302119953334" lon="-6.937179789660204"><ele>1130.0</ele><time>2026-04-24T15:05:41Z</time></trkpt><trkpt lat="30.926242127234158" lon="-6.937008293366486"><ele>1130.0</ele><time>2026-04-24T15:05:42Z</time></trkpt><trkpt lat="30.926182404150712" lon="-6.936836539093316"><ele>1130.0</ele><time>2026-04-24T15:05:43Z</time></trkpt><trkpt lat="30.926121481543703" lon="-6.936664526764648"><ele>1129.6666666666667</ele><time>2026-04-24T15:05:44Z</time></trkpt><trkpt lat="30.926061179432832" lon="-6.9364927361597895"><ele>1129.3333333333333</ele><time>2026-04-24T15:05:45Z</time></trkpt><trkpt lat="30.92600113922322" lon="-6.936322891225135"><ele>1129.0</ele><time>2026-04-24T15:05:46Z</time></trkpt><trkpt lat="30.925938390074723" lon="-6.936150898425699"><ele>1129.3333333333333</ele><time>2026-04-24T15:05:47Z</time></trkpt><trkpt lat="30.92587662512317" lon="-6.9359772517387155"><ele>1129.6666666666667</ele><time>2026-04-24T15:05:48Z</time></trkpt><trkpt lat="30.92581615930924" lon="-6.935807512523278"><ele>1130.0</ele><time>2026-04-24T15:05:49Z</time></trkpt><trkpt lat="30.92575703224577" lon="-6.935639905961624"><ele>1128.6666666666667</ele><time>2026-04-24T15:05:50Z</time></trkpt><trkpt lat="30.925698590019977" lon="-6.935471983245732"><ele>1127.3333333333333</ele><time>2026-04-24T15:05:51Z</time></trkpt><trkpt lat="30.925638852209755" lon="-6.935304637596546"><ele>1126.0</ele><time>2026-04-24T15:05:52Z</time></trkpt><trkpt lat="30.925580764580463" lon="-6.9351417343332615"><ele>1126.5</ele><time>2026-04-24T15:05:53Z</time></trkpt><trkpt lat="30.925525798077146" lon="-6.934982285750651"><ele>1127.0</ele><time>2026-04-24T15:05:54Z</time></trkpt><trkpt lat="30.925475205698824" lon="-6.934832046342235"><ele>1127.5</ele><time>2026-04-24T15:05:55Z</time></trkpt><trkpt lat="30.925427427098825" lon="-6.934690427914798"><ele>1128.0</ele><time>2026-04-24T15:05:56Z</time></trkpt><trkpt lat="30.925378068490463" lon="-6.934549650920122"><ele>1128.0</ele><time>2026-04-24T15:05:57Z</time></trkpt><trkpt lat="30.925329189345646" lon="-6.93441262829683"><ele>1128.0</ele><time>2026-04-24T15:05:58Z</time></trkpt><trkpt lat="30.92527825119287" lon="-6.934280885206494"><ele>1128.0</ele><time>2026-04-24T15:05:59Z</time></trkpt><trkpt lat="30.925222460605745" lon="-6.934162300542732"><ele>1128.0</ele><time>2026-04-24T15:06:00Z</time></trkpt><trkpt lat="30.925162624910318" lon="-6.93405616648859"><ele>1128.2</ele><time>2026-04-24T15:06:01Z</time></trkpt><trkpt lat="30.925103481965955" lon="-6.93396189470914"><ele>1128.4</ele><time>2026-04-24T15:06:02Z</time></trkpt><trkpt lat="30.925038063379844" lon="-6.933871149485642"><ele>1128.6000000000001</ele><time>2026-04-24T15:06:03Z</time></trkpt><trkpt lat="30.924972282184214" lon="-6.933778948669129"><ele>1128.8</ele><time>2026-04-24T15:06:04Z</time></trkpt><trkpt lat="30.924913094324154" lon="-6.933685285885609"><ele>1129.0</ele><time>2026-04-24T15:06:05Z</time></trkpt><trkpt lat="30.924865072804216" lon="-6.9335865791158655"><ele>1129.0</ele><time>2026-04-24T15:06:06Z</time></trkpt><trkpt lat="30.924834680138297" lon="-6.933480195982537"><ele>1129.0</ele><time>2026-04-24T15:06:07Z</time></trkpt><trkpt lat="30.924802284738263" lon="-6.9333694907827175"><ele>1129.0</ele><time>2026-04-24T15:06:08Z</time></trkpt><trkpt lat="30.92481345397129" lon="-6.933260578003109"><ele>1129.0</ele><time>2026-04-24T15:06:09Z</time></trkpt><trkpt lat="30.92485173667942" lon="-6.933154543176041"><ele>1129.0</ele><time>2026-04-24T15:06:10Z</time></trkpt><trkpt lat="30.924958606252027" lon="-6.933091025677014"><ele>1129.0</ele><time>2026-04-24T15:06:11Z</time></trkpt><trkpt lat="30.925051672205125" lon="-6.933020941568047"><ele>1129.0</ele><time>2026-04-24T15:06:12Z</time></trkpt><trkpt lat="30.925120207051343" lon="-6.932939636155383"><ele>1129.0</ele><time>2026-04-24T15:06:13Z</time></trkpt><trkpt lat="30.92518146393592" lon="-6.932838438836488"><ele>1129.0</ele><time>2026-04-24T15:06:14Z</time></trkpt><trkpt lat="30.925233525091077" lon="-6.932717061297194"><ele>1129.0</ele><time>2026-04-24T15:06:15Z</time></trkpt><trkpt lat="30.92529062076025" lon="-6.932578541884113"><ele>1130.25</ele><time>2026-04-24T15:06:16Z</time></trkpt><trkpt lat="30.92535331063335" lon="-6.932426942703418"><ele>1131.5</ele><time>2026-04-24T15:06:17Z</time></trkpt><trkpt lat="30.92541428456054" lon="-6.932273822478231"><ele>1132.75</ele><time>2026-04-24T15:06:18Z</time></trkpt><trkpt lat="30.925475108553265" lon="-6.932117838957034"><ele>1134.0</ele><time>2026-04-24T15:06:19Z</time></trkpt><trkpt lat="30.925537240245237" lon="-6.931959697534087"><ele>1134.0</ele><time>2026-04-24T15:06:20Z</time></trkpt><trkpt lat="30.925600988796585" lon="-6.931794951842315"><ele>1134.0</ele><time>2026-04-24T15:06:21Z</time></trkpt><trkpt lat="30.925667336856204" lon="-6.931629115492072"><ele>1134.0</ele><time>2026-04-24T15:06:22Z</time></trkpt><trkpt lat="30.92573077606324" lon="-6.931470805049881"><ele>1134.0</ele><time>2026-04-24T15:06:23Z</time></trkpt><trkpt lat="30.925787942319207" lon="-6.931326759383907"><ele>1134.0</ele><time>2026-04-24T15:06:24Z</time></trkpt><trkpt lat="30.925842195006304" lon="-6.93119022130095"><ele>1134.0</ele><time>2026-04-24T15:06:25Z</time></trkpt><trkpt lat="30.9258922736567" lon="-6.931062975335697"><ele>1134.0</ele><time>2026-04-24T15:06:26Z</time></trkpt><trkpt lat="30.925940959662352" lon="-6.930939792663137"><ele>1133.25</ele><time>2026-04-24T15:06:27Z</time></trkpt><trkpt lat="30.92599120425967" lon="-6.930816618572131"><ele>1132.5</ele><time>2026-04-24T15:06:28Z</time></trkpt><trkpt lat="30.92603897158679" lon="-6.930694269819618"><ele>1131.75</ele><time>2026-04-24T15:06:29Z</time></trkpt><trkpt lat="30.926088644458783" lon="-6.930571649779985"><ele>1131.0</ele><time>2026-04-24T15:06:30Z</time></trkpt><trkpt lat="30.926140044095007" lon="-6.930444913140202"><ele>1131.0</ele><time>2026-04-24T15:06:31Z</time></trkpt><trkpt lat="30.92619067412632" lon="-6.930316983976987"><ele>1131.0</ele><time>2026-04-24T15:06:32Z</time></trkpt><trkpt lat="30.926241233868293" lon="-6.930191417238809"><ele>1131.0</ele><time>2026-04-24T15:06:33Z</time></trkpt><trkpt lat="30.926292301976034" lon="-6.930064693091856"><ele>1131.0</ele><time>2026-04-24T15:06:34Z</time></trkpt><trkpt lat="30.926342323536307" lon="-6.9299360904164535"><ele>1131.2</ele><time>2026-04-24T15:06:35Z</time></trkpt><trkpt lat="30.92638798409616" lon="-6.929817417564414"><ele>1131.3999999999999</ele><time>2026-04-24T15:06:36Z</time></trkpt><trkpt lat="30.926434770721137" lon="-6.929706584112818"><ele>1131.6</ele><time>2026-04-24T15:06:37Z</time></trkpt><trkpt lat="30.926485025224174" lon="-6.92959018021511"><ele>1131.8</ele><time>2026-04-24T15:06:38Z</time></trkpt><trkpt lat="30.926529488543153" lon="-6.929469945301769"><ele>1132.0</ele><time>2026-04-24T15:06:39Z</time></trkpt><trkpt lat="30.926567862529915" lon="-6.929358333114632"><ele>1132.0</ele><time>2026-04-24T15:06:40Z</time></trkpt><trkpt lat="30.92660489931869" lon="-6.9292570787680505"><ele>1132.0</ele><time>2026-04-24T15:06:41Z</time></trkpt><trkpt lat="30.926642806276575" lon="-6.92915786122363"><ele>1132.0</ele><time>2026-04-24T15:06:42Z</time></trkpt><trkpt lat="30.926679068687452" lon="-6.929060293502816"><ele>1132.0</ele><time>2026-04-24T15:06:43Z</time></trkpt><trkpt lat="30.926720089311292" lon="-6.928950914430469"><ele>1132.0</ele><time>2026-04-24T15:06:44Z</time></trkpt><trkpt lat="30.926760899106846" lon="-6.928844269864715"><ele>1132.2</ele><time>2026-04-24T15:06:45Z</time></trkpt><trkpt lat="30.926803544976686" lon="-6.928737106879085"><ele>1132.4</ele><time>2026-04-24T15:06:46Z</time></trkpt><trkpt lat="30.926845677474567" lon="-6.928629166648848"><ele>1132.6</ele><time>2026-04-24T15:06:47Z</time></trkpt><trkpt lat="30.926888004399313" lon="-6.928522222360236"><ele>1132.8</ele><time>2026-04-24T15:06:48Z</time></trkpt><trkpt lat="30.92693197646467" lon="-6.9284134426908945"><ele>1133.0</ele><time>2026-04-24T15:06:49Z</time></trkpt><trkpt lat="30.926976366050926" lon="-6.928302313542256"><ele>1133.6</ele><time>2026-04-24T15:06:50Z</time></trkpt><trkpt lat="30.927021207475672" lon="-6.928189034445741"><ele>1134.1999999999998</ele><time>2026-04-24T15:06:51Z</time></trkpt><trkpt lat="30.92706612138048" lon="-6.928073756252582"><ele>1134.8</ele><time>2026-04-24T15:06:52Z</time></trkpt><trkpt lat="30.927112061134654" lon="-6.927957971634821"><ele>1135.3999999999999</ele><time>2026-04-24T15:06:53Z</time></trkpt><trkpt lat="30.927157828743947" lon="-6.927837502444495"><ele>1136.0</ele><time>2026-04-24T15:06:54Z</time></trkpt><trkpt lat="30.927205995556445" lon="-6.92770821148797"><ele>1136.0</ele><time>2026-04-24T15:06:55Z</time></trkpt><trkpt lat="30.92725643206023" lon="-6.927571008430173"><ele>1136.0</ele><time>2026-04-24T15:06:56Z</time></trkpt><trkpt lat="30.927310122285856" lon="-6.927425519670065"><ele>1136.0</ele><time>2026-04-24T15:06:57Z</time></trkpt><trkpt lat="30.927365349306" lon="-6.927278632509532"><ele>1136.0</ele><time>2026-04-24T15:06:58Z</time></trkpt><trkpt lat="30.92742614258605" lon="-6.927126395513141"><ele>1136.0</ele><time>2026-04-24T15:06:59Z</time></trkpt><trkpt lat="30.92748602255421" lon="-6.926969915512985"><ele>1136.0</ele><time>2026-04-24T15:07:00Z</time></trkpt><trkpt lat="30.927546355805575" lon="-6.926812512114448"><ele>1136.0</ele><time>2026-04-24T15:07:01Z</time></trkpt><trkpt lat="30.92760666651645" lon="-6.9266550307409505"><ele>1136.0</ele><time>2026-04-24T15:07:02Z</time></trkpt><trkpt lat="30.927668229080126" lon="-6.926493114610035"><ele>1136.0</ele><time>2026-04-24T15:07:03Z</time></trkpt><trkpt lat="30.92772877706456" lon="-6.926332192576957"><ele>1136.0</ele><time>2026-04-24T15:07:04Z</time></trkpt><trkpt lat="30.927792480040697" lon="-6.926167676365008"><ele>1136.0</ele><time>2026-04-24T15:07:05Z</time></trkpt><trkpt lat="30.92785895116991" lon="-6.925996984919353"><ele>1135.6666666666667</ele><time>2026-04-24T15:07:06Z</time></trkpt><trkpt lat="30.92792726732267" lon="-6.925820310122154"><ele>1135.3333333333333</ele><time>2026-04-24T15:07:07Z</time></trkpt><trkpt lat="30.92799740152203" lon="-6.9256409195178845"><ele>1135.0</ele><time>2026-04-24T15:07:08Z</time></trkpt><trkpt lat="30.928068911680644" lon="-6.925463772875149"><ele>1135.0</ele><time>2026-04-24T15:07:09Z</time></trkpt><trkpt lat="30.9281360097152" lon="-6.925287053536979"><ele>1135.0</ele><time>2026-04-24T15:07:10Z</time></trkpt><trkpt lat="30.928200741574" lon="-6.925113146152534"><ele>1135.0</ele><time>2026-04-24T15:07:11Z</time></trkpt><trkpt lat="30.928266042814347" lon="-6.9249400484319965"><ele>1135.6666666666665</ele><time>2026-04-24T15:07:12Z</time></trkpt><trkpt lat="30.928332892225356" lon="-6.924767200879016"><ele>1136.3333333333333</ele><time>2026-04-24T15:07:13Z</time></trkpt><trkpt lat="30.928400453243356" lon="-6.924594969546263"><ele>1137.0</ele><time>2026-04-24T15:07:14Z</time></trkpt><trkpt lat="30.928468817157256" lon="-6.924422603908117"><ele>1137.0</ele><time>2026-04-24T15:07:15Z</time></trkpt><trkpt lat="30.928535732594327" lon="-6.924245461205054"><ele>1137.0</ele><time>2026-04-24T15:07:16Z</time></trkpt><trkpt lat="30.928604166339152" lon="-6.924064232547882"><ele>1137.0</ele><time>2026-04-24T15:07:17Z</time></trkpt><trkpt lat="30.928675486539685" lon="-6.9238779695487835"><ele>1137.0</ele><time>2026-04-24T15:07:18Z</time></trkpt><trkpt lat="30.928748185755158" lon="-6.92368816444796"><ele>1137.0</ele><time>2026-04-24T15:07:19Z</time></trkpt><trkpt lat="30.92882199348359" lon="-6.9234979566520085"><ele>1137.0</ele><time>2026-04-24T15:07:20Z</time></trkpt><trkpt lat="30.928894549631934" lon="-6.923310535725717"><ele>1137.3333333333333</ele><time>2026-04-24T15:07:21Z</time></trkpt><trkpt lat="30.92896191666576" lon="-6.923135176419407"><ele>1137.6666666666665</ele><time>2026-04-24T15:07:22Z</time></trkpt><trkpt lat="30.92902534495456" lon="-6.922969604582064"><ele>1138.0</ele><time>2026-04-24T15:07:23Z</time></trkpt><trkpt lat="30.929087764409037" lon="-6.922807614595174"><ele>1138.0</ele><time>2026-04-24T15:07:24Z</time></trkpt><trkpt lat="30.929150372989398" lon="-6.922651077698544"><ele>1138.0</ele><time>2026-04-24T15:07:25Z</time></trkpt><trkpt lat="30.92921182210686" lon="-6.92249221796252"><ele>1138.0</ele><time>2026-04-24T15:07:26Z</time></trkpt><trkpt lat="30.92927602087265" lon="-6.922325181128242"><ele>1140.3333333333333</ele><time>2026-04-24T15:07:27Z</time></trkpt><trkpt lat="30.929345330649475" lon="-6.922156190462504"><ele>1142.6666666666667</ele><time>2026-04-24T15:07:28Z</time></trkpt><trkpt lat="30.929416419668215" lon="-6.921981351821595"><ele>1145.0</ele><time>2026-04-24T15:07:29Z</time></trkpt><trkpt lat="30.9294885633515" lon="-6.9217987718521785"><ele>1147.3333333333335</ele><time>2026-04-24T15:07:30Z</time></trkpt><trkpt lat="30.929557084381745" lon="-6.9216143988219025"><ele>1149.6666666666667</ele><time>2026-04-24T15:07:31Z</time></trkpt><trkpt lat="30.929622154076302" lon="-6.921433940605021"><ele>1152.0</ele><time>2026-04-24T15:07:32Z</time></trkpt><trkpt lat="30.92968879500078" lon="-6.921254369142495"><ele>1152.0</ele><time>2026-04-24T15:07:33Z</time></trkpt><trkpt lat="30.929755537425624" lon="-6.921071837176345"><ele>1152.0</ele><time>2026-04-24T15:07:34Z</time></trkpt><trkpt lat="30.929821804707334" lon="-6.9208905414394515"><ele>1152.0</ele><time>2026-04-24T15:07:35Z</time></trkpt><trkpt lat="30.92988983984854" lon="-6.920708342717729"><ele>1152.6666666666667</ele><time>2026-04-24T15:07:36Z</time></trkpt><trkpt lat="30.929960274311153" lon="-6.920528382367871"><ele>1153.3333333333335</ele><time>2026-04-24T15:07:37Z</time></trkpt><trkpt lat="30.930028755577883" lon="-6.920347587667759"><ele>1154.0</ele><time>2026-04-24T15:07:38Z</time></trkpt><trkpt lat="30.930098954857556" lon="-6.920165509189866"><ele>1153.6666666666667</ele><time>2026-04-24T15:07:39Z</time></trkpt><trkpt lat="30.930170487663663" lon="-6.91998585040789"><ele>1153.3333333333333</ele><time>2026-04-24T15:07:40Z</time></trkpt><trkpt lat="30.930242199673987" lon="-6.919805982150968"><ele>1153.0</ele><time>2026-04-24T15:07:40.999Z</time></trkpt><trkpt lat="30.930310285301633" lon="-6.919630182264227"><ele>1153.0</ele><time>2026-04-24T15:07:41.999Z</time></trkpt><trkpt lat="30.93037415130603" lon="-6.9194634228178264"><ele>1153.0</ele><time>2026-04-24T15:07:42.999Z</time></trkpt><trkpt lat="30.930436194892028" lon="-6.919304283049802"><ele>1153.0</ele><time>2026-04-24T15:07:43.999Z</time></trkpt><trkpt lat="30.930496554306636" lon="-6.919152971065277"><ele>1152.25</ele><time>2026-04-24T15:07:44.999Z</time></trkpt><trkpt lat="30.9305551300337" lon="-6.919007252106838"><ele>1151.5</ele><time>2026-04-24T15:07:45.999Z</time></trkpt><trkpt lat="30.930615391807212" lon="-6.918860995686562"><ele>1150.75</ele><time>2026-04-24T15:07:47Z</time></trkpt><trkpt lat="30.930676850047696" lon="-6.91870421189633"><ele>1150.0</ele><time>2026-04-24T15:07:48Z</time></trkpt><trkpt lat="30.93074056476954" lon="-6.918533993441974"><ele>1149.3333333333333</ele><time>2026-04-24T15:07:49Z</time></trkpt><trkpt lat="30.93080961030411" lon="-6.918355030579306"><ele>1148.6666666666667</ele><time>2026-04-24T15:07:50Z</time></trkpt><trkpt lat="30.93088141481606" lon="-6.918170968127366"><ele>1148.0</ele><time>2026-04-24T15:07:51Z</time></trkpt><trkpt lat="30.93095487945759" lon="-6.917983357924483"><ele>1148.0</ele><time>2026-04-24T15:07:52Z</time></trkpt><trkpt lat="30.931027547894224" lon="-6.917794796914952"><ele>1148.0</ele><time>2026-04-24T15:07:53Z</time></trkpt><trkpt lat="30.931098494778855" lon="-6.917607626329022"><ele>1148.0</ele><time>2026-04-24T15:07:54Z</time></trkpt><trkpt lat="30.931168223805578" lon="-6.9174213229775505"><ele>1147.0</ele><time>2026-04-24T15:07:55Z</time></trkpt><trkpt lat="30.931240365186017" lon="-6.91723712513888"><ele>1146.0</ele><time>2026-04-24T15:07:56Z</time></trkpt><trkpt lat="30.931309577755705" lon="-6.917056977843915"><ele>1145.0</ele><time>2026-04-24T15:07:57Z</time></trkpt><trkpt lat="30.93137592351271" lon="-6.916884970322434"><ele>1144.3333333333335</ele><time>2026-04-24T15:07:58Z</time></trkpt><trkpt lat="30.9314396794168" lon="-6.916719979647032"><ele>1143.6666666666667</ele><time>2026-04-24T15:07:59Z</time></trkpt><trkpt lat="30.931502825244085" lon="-6.916557947660357"><ele>1143.0</ele><time>2026-04-24T15:08:00Z</time></trkpt><trkpt lat="30.931565399471374" lon="-6.916399066627932"><ele>1143.0</ele><time>2026-04-24T15:08:01Z</time></trkpt><trkpt lat="30.931622076033182" lon="-6.916250122963781"><ele>1143.0</ele><time>2026-04-24T15:08:02Z</time></trkpt><trkpt lat="30.931673970712524" lon="-6.916108117894959"><ele>1143.0</ele><time>2026-04-24T15:08:03Z</time></trkpt><trkpt lat="30.931719745891066" lon="-6.915975936492615"><ele>1143.0</ele><time>2026-04-24T15:08:04Z</time></trkpt><trkpt lat="30.93176213488913" lon="-6.915843995655115"><ele>1143.0</ele><time>2026-04-24T15:08:05Z</time></trkpt><trkpt lat="30.93180266208384" lon="-6.915710399130897"><ele>1143.0</ele><time>2026-04-24T15:08:06Z</time></trkpt><trkpt lat="30.93183926969299" lon="-6.915582393357466"><ele>1143.0</ele><time>2026-04-24T15:08:07Z</time></trkpt><trkpt lat="30.93187237176034" lon="-6.915453522147017"><ele>1143.0</ele><time>2026-04-24T15:08:08Z</time></trkpt><trkpt lat="30.931900748021313" lon="-6.915317419673449"><ele>1143.0</ele><time>2026-04-24T15:08:09Z</time></trkpt><trkpt lat="30.93192650731858" lon="-6.9151738393867745"><ele>1143.0</ele><time>2026-04-24T15:08:10Z</time></trkpt><trkpt lat="30.931949685392027" lon="-6.915019878234064"><ele>1143.0</ele><time>2026-04-24T15:08:11Z</time></trkpt><trkpt lat="30.931965443539074" lon="-6.914854218953517"><ele>1143.0</ele><time>2026-04-24T15:08:12Z</time></trkpt><trkpt lat="30.931978298346227" lon="-6.914685333714658"><ele>1142.75</ele><time>2026-04-24T15:08:13Z</time></trkpt><trkpt lat="30.931987052979427" lon="-6.914512732542272"><ele>1142.5</ele><time>2026-04-24T15:08:14Z</time></trkpt><trkpt lat="30.931988450323303" lon="-6.914342168399968"><ele>1142.25</ele><time>2026-04-24T15:08:15Z</time></trkpt><trkpt lat="30.931985971266037" lon="-6.91417503760359"><ele>1142.0</ele><time>2026-04-24T15:08:16Z</time></trkpt><trkpt lat="30.93197832790155" lon="-6.9140115368197925"><ele>1142.0</ele><time>2026-04-24T15:08:17Z</time></trkpt><trkpt lat="30.931964864366346" lon="-6.913847399377619"><ele>1142.0</ele><time>2026-04-24T15:08:18Z</time></trkpt><trkpt lat="30.931944805940166" lon="-6.913687996670441"><ele>1142.0</ele><time>2026-04-24T15:08:19Z</time></trkpt><trkpt lat="30.93191650693593" lon="-6.913541212983072"><ele>1142.0</ele><time>2026-04-24T15:08:20Z</time></trkpt><trkpt lat="30.931885291297178" lon="-6.9134031960013616"><ele>1142.0</ele><time>2026-04-24T15:08:21Z</time></trkpt><trkpt lat="30.931851717131746" lon="-6.913273537822384"><ele>1142.0</ele><time>2026-04-24T15:08:22Z</time></trkpt><trkpt lat="30.931814460853868" lon="-6.913155274691704"><ele>1142.0</ele><time>2026-04-24T15:08:23Z</time></trkpt><trkpt lat="30.931772264504264" lon="-6.913040131915817"><ele>1142.0</ele><time>2026-04-24T15:08:24Z</time></trkpt><trkpt lat="30.931730589201372" lon="-6.912925031803566"><ele>1142.0</ele><time>2026-04-24T15:08:25Z</time></trkpt><trkpt lat="30.931693391509317" lon="-6.912802608603832"><ele>1141.75</ele><time>2026-04-24T15:08:26Z</time></trkpt><trkpt lat="30.931659202328827" lon="-6.912667361659769"><ele>1141.5</ele><time>2026-04-24T15:08:27Z</time></trkpt><trkpt lat="30.931624642777145" lon="-6.912519069001714"><ele>1141.25</ele><time>2026-04-24T15:08:28Z</time></trkpt><trkpt lat="30.931582967449877" lon="-6.912360459575583"><ele>1141.0</ele><time>2026-04-24T15:08:29Z</time></trkpt><trkpt lat="30.931533723460117" lon="-6.912193376314245"><ele>1141.0</ele><time>2026-04-24T15:08:30Z</time></trkpt><trkpt lat="30.931480994801962" lon="-6.912019069988983"><ele>1141.0</ele><time>2026-04-24T15:08:31Z</time></trkpt><trkpt lat="30.93142740405043" lon="-6.911835458262347"><ele>1141.0</ele><time>2026-04-24T15:08:32Z</time></trkpt><trkpt lat="30.931372964087245" lon="-6.911645995130741"><ele>1140.3333333333333</ele><time>2026-04-24T15:08:33Z</time></trkpt><trkpt lat="30.931318180693264" lon="-6.911457451362862"><ele>1139.6666666666667</ele><time>2026-04-24T15:08:34Z</time></trkpt><trkpt lat="30.931263664051134" lon="-6.911268304545224"><ele>1139.0</ele><time>2026-04-24T15:08:35Z</time></trkpt><trkpt lat="30.931206856514148" lon="-6.911074191671885"><ele>1139.3333333333335</ele><time>2026-04-24T15:08:36Z</time></trkpt><trkpt lat="30.931151861584688" lon="-6.910875897697767"><ele>1139.6666666666667</ele><time>2026-04-24T15:08:37Z</time></trkpt><trkpt lat="30.931096268339903" lon="-6.910679783427748"><ele>1140.0</ele><time>2026-04-24T15:08:38Z</time></trkpt><trkpt lat="30.93103790863567" lon="-6.910481626328747"><ele>1140.0</ele><time>2026-04-24T15:08:39Z</time></trkpt><trkpt lat="30.930978071248518" lon="-6.910281324723824"><ele>1140.0</ele><time>2026-04-24T15:08:40Z</time></trkpt><trkpt lat="30.9309183647406" lon="-6.910080238454225"><ele>1140.0</ele><time>2026-04-24T15:08:41Z</time></trkpt><trkpt lat="30.9308575036625" lon="-6.9098848167915925"><ele>1140.6666666666667</ele><time>2026-04-24T15:08:42Z</time></trkpt><trkpt lat="30.930796376458705" lon="-6.909692192850003"><ele>1141.3333333333335</ele><time>2026-04-24T15:08:43Z</time></trkpt><trkpt lat="30.930738961639545" lon="-6.909506681661565"><ele>1142.0</ele><time>2026-04-24T15:08:44Z</time></trkpt><trkpt lat="30.930681185946785" lon="-6.9093276929394145"><ele>1141.6666666666667</ele><time>2026-04-24T15:08:45Z</time></trkpt><trkpt lat="30.930621063904706" lon="-6.909150308548038"><ele>1141.3333333333333</ele><time>2026-04-24T15:08:46Z</time></trkpt><trkpt lat="30.930561826156985" lon="-6.908972048869557"><ele>1141.0</ele><time>2026-04-24T15:08:47Z</time></trkpt><trkpt lat="30.930498834330642" lon="-6.908795515520659"><ele>1141.0</ele><time>2026-04-24T15:08:48Z</time></trkpt><trkpt lat="30.930432870228717" lon="-6.908622160824727"><ele>1141.0</ele><time>2026-04-24T15:08:49Z</time></trkpt><trkpt lat="30.930367871817285" lon="-6.9084557052127185"><ele>1141.0</ele><time>2026-04-24T15:08:50Z</time></trkpt><trkpt lat="30.93030443238462" lon="-6.9082981993374055"><ele>1140.75</ele><time>2026-04-24T15:08:51Z</time></trkpt><trkpt lat="30.930243660050586" lon="-6.908150515843897"><ele>1140.5</ele><time>2026-04-24T15:08:52Z</time></trkpt><trkpt lat="30.930185664031388" lon="-6.908009456416926"><ele>1140.25</ele><time>2026-04-24T15:08:53Z</time></trkpt><trkpt lat="30.930128926044603" lon="-6.907867706613376"><ele>1140.0</ele><time>2026-04-24T15:08:54Z</time></trkpt><trkpt lat="30.93007575431926" lon="-6.907733633257292"><ele>1140.6</ele><time>2026-04-24T15:08:55Z</time></trkpt><trkpt lat="30.930024491087437" lon="-6.9076061028471"><ele>1141.2</ele><time>2026-04-24T15:08:56Z</time></trkpt><trkpt lat="30.929978819980292" lon="-6.907486312044728"><ele>1141.8</ele><time>2026-04-24T15:08:57Z</time></trkpt><trkpt lat="30.92993787310326" lon="-6.9073791857116325"><ele>1142.4</ele><time>2026-04-24T15:08:58Z</time></trkpt><trkpt lat="30.929901747643957" lon="-6.90728571930246"><ele>1143.0</ele><time>2026-04-24T15:08:59Z</time></trkpt><trkpt lat="30.929868643059077" lon="-6.9071989589291425"><ele>1143.0</ele><time>2026-04-24T15:09:00Z</time></trkpt><trkpt lat="30.929840919898474" lon="-6.907122160601243"><ele>1143.0</ele><time>2026-04-24T15:09:01Z</time></trkpt><trkpt lat="30.929827481144624" lon="-6.907043238732033"><ele>1143.0</ele><time>2026-04-24T15:09:02Z</time></trkpt><trkpt lat="30.92984420248188" lon="-6.906970710196252"><ele>1143.0</ele><time>2026-04-24T15:09:03Z</time></trkpt><trkpt lat="30.929856909930347" lon="-6.9068866934488655"><ele>1143.0</ele><time>2026-04-24T15:09:04Z</time></trkpt><trkpt lat="30.929983592784847" lon="-6.906827760111399"><ele>1143.0</ele><time>2026-04-24T15:09:05Z</time></trkpt><trkpt lat="30.930075146182137" lon="-6.906732761950511"><ele>1142.0</ele><time>2026-04-24T15:09:06Z</time></trkpt><trkpt lat="30.930174982997997" lon="-6.906618892490265"><ele>1141.0</ele><time>2026-04-24T15:09:07Z</time></trkpt><trkpt lat="30.930279309496836" lon="-6.9064953153278985"><ele>1140.0</ele><time>2026-04-24T15:09:08Z</time></trkpt><trkpt lat="30.930388154096548" lon="-6.906371015667524"><ele>1139.0</ele><time>2026-04-24T15:09:09Z</time></trkpt><trkpt lat="30.93050862031222" lon="-6.906233223436137"><ele>1139.0</ele><time>2026-04-24T15:09:10Z</time></trkpt><trkpt lat="30.9306415482577" lon="-6.90608402868263"><ele>1139.0</ele><time>2026-04-24T15:09:11Z</time></trkpt><trkpt lat="30.93078150453529" lon="-6.905925210780232"><ele>1139.0</ele><time>2026-04-24T15:09:12Z</time></trkpt><trkpt lat="30.93092663798559" lon="-6.905759402792307"><ele>1138.3333333333335</ele><time>2026-04-24T15:09:13Z</time></trkpt><trkpt lat="30.93107491466032" lon="-6.905588126860541"><ele>1137.6666666666667</ele><time>2026-04-24T15:09:14Z</time></trkpt><trkpt lat="30.931224865849725" lon="-6.9054097834297155"><ele>1137.0</ele><time>2026-04-24T15:09:15Z</time></trkpt><trkpt lat="30.931377442707426" lon="-6.905225676745165"><ele>1137.3333333333333</ele><time>2026-04-24T15:09:16Z</time></trkpt><trkpt lat="30.931530123236293" lon="-6.905042664541782"><ele>1137.6666666666665</ele><time>2026-04-24T15:09:17Z</time></trkpt><trkpt lat="30.931686490996352" lon="-6.904857195577566"><ele>1138.0</ele><time>2026-04-24T15:09:18Z</time></trkpt><trkpt lat="30.931845191470426" lon="-6.904671481384823"><ele>1138.0</ele><time>2026-04-24T15:09:19Z</time></trkpt><trkpt lat="30.932003484492448" lon="-6.904487606795362"><ele>1138.0</ele><time>2026-04-24T15:09:20Z</time></trkpt><trkpt lat="30.932159746749434" lon="-6.904305895219452"><ele>1138.0</ele><time>2026-04-24T15:09:21Z</time></trkpt><trkpt lat="30.932316197149426" lon="-6.904125379337793"><ele>1137.3333333333333</ele><time>2026-04-24T15:09:22Z</time></trkpt><trkpt lat="30.93247159777576" lon="-6.903946513437526"><ele>1136.6666666666667</ele><time>2026-04-24T15:09:23Z</time></trkpt><trkpt lat="30.93261626933914" lon="-6.9037815806231135"><ele>1136.0</ele><time>2026-04-24T15:09:24Z</time></trkpt><trkpt lat="30.93273327231496" lon="-6.903638797820109"><ele>1135.25</ele><time>2026-04-24T15:09:25Z</time></trkpt><trkpt lat="30.932824600261434" lon="-6.903506722436267"><ele>1134.5</ele><time>2026-04-24T15:09:26Z</time></trkpt><trkpt lat="30.932898389793642" lon="-6.903365009594219"><ele>1133.75</ele><time>2026-04-24T15:09:27Z</time></trkpt><trkpt lat="30.932953079741882" lon="-6.903211638793038"><ele>1133.0</ele><time>2026-04-24T15:09:28Z</time></trkpt><trkpt lat="30.932972237631173" lon="-6.9030502073566025"><ele>1133.0</ele><time>2026-04-24T15:09:29Z</time></trkpt><trkpt lat="30.93296146545729" lon="-6.902880900136724"><ele>1133.0</ele><time>2026-04-24T15:09:30Z</time></trkpt><trkpt lat="30.932919577748375" lon="-6.902701934935533"><ele>1133.0</ele><time>2026-04-24T15:09:31Z</time></trkpt><trkpt lat="30.93285348983698" lon="-6.902516557127798"><ele>1133.3333333333335</ele><time>2026-04-24T15:09:32Z</time></trkpt><trkpt lat="30.93276861131695" lon="-6.90232434719139"><ele>1133.6666666666667</ele><time>2026-04-24T15:09:33Z</time></trkpt><trkpt lat="30.93267886574843" lon="-6.902121381610212"><ele>1134.0</ele><time>2026-04-24T15:09:34Z</time></trkpt><trkpt lat="30.932590233787042" lon="-6.901912701250008"><ele>1134.3333333333333</ele><time>2026-04-24T15:09:35Z</time></trkpt><trkpt lat="30.932499885753703" lon="-6.901703617699391"><ele>1134.6666666666665</ele><time>2026-04-24T15:09:36Z</time></trkpt><trkpt lat="30.9324091954363" lon="-6.901492409636398"><ele>1135.0</ele><time>2026-04-24T15:09:37Z</time></trkpt><trkpt lat="30.932319179723425" lon="-6.901279523067289"><ele>1135.0</ele><time>2026-04-24T15:09:38Z</time></trkpt><trkpt lat="30.932228911973482" lon="-6.901062594542661"><ele>1135.0</ele><time>2026-04-24T15:09:39Z</time></trkpt><trkpt lat="30.932137444803235" lon="-6.900841806474204"><ele>1135.0</ele><time>2026-04-24T15:09:40Z</time></trkpt><trkpt lat="30.93204430826464" lon="-6.900617694924159"><ele>1134.0</ele><time>2026-04-24T15:09:41Z</time></trkpt><trkpt lat="30.931948590169036" lon="-6.900391506837611"><ele>1133.0</ele><time>2026-04-24T15:09:42Z</time></trkpt><trkpt lat="30.931849419909163" lon="-6.900168672931713"><ele>1132.0</ele><time>2026-04-24T15:09:43Z</time></trkpt><trkpt lat="30.93174752333707" lon="-6.899943177398486"><ele>1131.6666666666665</ele><time>2026-04-24T15:09:44Z</time></trkpt><trkpt lat="30.931646823729533" lon="-6.899717271879271"><ele>1131.3333333333333</ele><time>2026-04-24T15:09:45Z</time></trkpt><trkpt lat="30.931547229227903" lon="-6.8994933156061355"><ele>1131.0</ele><time>2026-04-24T15:09:46Z</time></trkpt><trkpt lat="30.9314484859944" lon="-6.8992717705928115"><ele>1131.3333333333333</ele><time>2026-04-24T15:09:47Z</time></trkpt><trkpt lat="30.931351693015355" lon="-6.899052577891639"><ele>1131.6666666666665</ele><time>2026-04-24T15:09:48Z</time></trkpt><trkpt lat="30.93125726400666" lon="-6.898836499647216"><ele>1132.0</ele><time>2026-04-24T15:09:49Z</time></trkpt><trkpt lat="30.931164211799118" lon="-6.898623139701346"><ele>1131.0</ele><time>2026-04-24T15:09:50Z</time></trkpt><trkpt lat="30.931072057010226" lon="-6.898411906449799"><ele>1130.0</ele><time>2026-04-24T15:09:51Z</time></trkpt><trkpt lat="30.930978344411475" lon="-6.898198141968229"><ele>1129.0</ele><time>2026-04-24T15:09:52Z</time></trkpt><trkpt lat="30.93088549610735" lon="-6.897985247757171"><ele>1129.0</ele><time>2026-04-24T15:09:53Z</time></trkpt><trkpt lat="30.930791649068173" lon="-6.89777038156837"><ele>1129.0</ele><time>2026-04-24T15:09:54Z</time></trkpt><trkpt lat="30.93069843703134" lon="-6.897554436818171"><ele>1129.0</ele><time>2026-04-24T15:09:55Z</time></trkpt><trkpt lat="30.930601171116137" lon="-6.897328370171411"><ele>1127.5</ele><time>2026-04-24T15:09:56Z</time></trkpt><trkpt lat="30.930498752592182" lon="-6.897095049216918"><ele>1126.0</ele><time>2026-04-24T15:09:57Z</time></trkpt><trkpt lat="30.93039282252923" lon="-6.896861931511635"><ele>1126.5</ele><time>2026-04-24T15:09:58Z</time></trkpt><trkpt lat="30.930288001808073" lon="-6.8966286452954435"><ele>1127.0</ele><time>2026-04-24T15:09:59Z</time></trkpt><trkpt lat="30.930186333572887" lon="-6.89639587967455"><ele>1127.0</ele><time>2026-04-24T15:10:00Z</time></trkpt><trkpt lat="30.930087319269358" lon="-6.896170961021514"><ele>1127.0</ele><time>2026-04-24T15:10:01Z</time></trkpt><trkpt lat="30.92999224384177" lon="-6.895956579273991"><ele>1127.0</ele><time>2026-04-24T15:10:02Z</time></trkpt><trkpt lat="30.929903443023306" lon="-6.895750375752218"><ele>1127.0</ele><time>2026-04-24T15:10:03Z</time></trkpt><trkpt lat="30.929819289884104" lon="-6.895557898592346"><ele>1127.0</ele><time>2026-04-24T15:10:04Z</time></trkpt><trkpt lat="30.92973909547492" lon="-6.895374728552217"><ele>1127.0</ele><time>2026-04-24T15:10:05Z</time></trkpt><trkpt lat="30.92966437115491" lon="-6.895200796642039"><ele>1127.0</ele><time>2026-04-24T15:10:06Z</time></trkpt><trkpt lat="30.92959329711272" lon="-6.895038414466514"><ele>1127.0</ele><time>2026-04-24T15:10:07Z</time></trkpt><trkpt lat="30.929527579203437" lon="-6.894887660729024"><ele>1127.0</ele><time>2026-04-24T15:10:08Z</time></trkpt><trkpt lat="30.92946258972646" lon="-6.894745372063349"><ele>1127.0</ele><time>2026-04-24T15:10:09Z</time></trkpt><trkpt lat="30.92939867873711" lon="-6.8946027164832175"><ele>1127.0</ele><time>2026-04-24T15:10:10Z</time></trkpt><trkpt lat="30.92933514623383" lon="-6.894459759959217"><ele>1127.0</ele><time>2026-04-24T15:10:11Z</time></trkpt><trkpt lat="30.92927125395053" lon="-6.894316767115832"><ele>1127.0</ele><time>2026-04-24T15:10:12Z</time></trkpt><trkpt lat="30.929204256313103" lon="-6.894176966975837"><ele>1127.0</ele><time>2026-04-24T15:10:13Z</time></trkpt><trkpt lat="30.929130609330855" lon="-6.894038566302134"><ele>1127.75</ele><time>2026-04-24T15:10:14Z</time></trkpt><trkpt lat="30.92905164079032" lon="-6.893905476597798"><ele>1128.5</ele><time>2026-04-24T15:10:15Z</time></trkpt><trkpt lat="30.928970503089193" lon="-6.893781331203279"><ele>1129.25</ele><time>2026-04-24T15:10:16Z</time></trkpt><trkpt lat="30.92889052182547" lon="-6.893658873639006"><ele>1130.0</ele><time>2026-04-24T15:10:17Z</time></trkpt><trkpt lat="30.928809678790227" lon="-6.8935383125373795"><ele>1129.5</ele><time>2026-04-24T15:10:18Z</time></trkpt><trkpt lat="30.928731428864864" lon="-6.893421031449871"><ele>1129.0</ele><time>2026-04-24T15:10:19Z</time></trkpt><trkpt lat="30.928652312040917" lon="-6.893306821734013"><ele>1128.5</ele><time>2026-04-24T15:10:20Z</time></trkpt><trkpt lat="30.928574695566304" lon="-6.893190627174511"><ele>1128.0</ele><time>2026-04-24T15:10:21Z</time></trkpt><trkpt lat="30.92849671644833" lon="-6.89307270143713"><ele>1128.0</ele><time>2026-04-24T15:10:22Z</time></trkpt><trkpt lat="30.928417931290674" lon="-6.892957123851223"><ele>1128.0</ele><time>2026-04-24T15:10:23Z</time></trkpt><trkpt lat="30.92834111099332" lon="-6.89284486753395"><ele>1128.0</ele><time>2026-04-24T15:10:24Z</time></trkpt><trkpt lat="30.928264685188687" lon="-6.892732364030471"><ele>1128.0</ele><time>2026-04-24T15:10:25Z</time></trkpt><trkpt lat="30.928185656262947" lon="-6.892615978271729"><ele>1128.5</ele><time>2026-04-24T15:10:26Z</time></trkpt><trkpt lat="30.92810424005859" lon="-6.892497170142615"><ele>1129.0</ele><time>2026-04-24T15:10:27Z</time></trkpt><trkpt lat="30.928021587748702" lon="-6.8923752611504225"><ele>1129.5</ele><time>2026-04-24T15:10:28Z</time></trkpt><trkpt lat="30.927927096358008" lon="-6.892265232692633"><ele>1130.0</ele><time>2026-04-24T15:10:29Z</time></trkpt><trkpt lat="30.927859538562572" lon="-6.892132628702179"><ele>1130.0</ele><time>2026-04-24T15:10:30Z</time></trkpt><trkpt lat="30.92777783771372" lon="-6.892013192314278"><ele>1130.0</ele><time>2026-04-24T15:10:31Z</time></trkpt><trkpt lat="30.9277048278687" lon="-6.891890388538242"><ele>1130.0</ele><time>2026-04-24T15:10:32Z</time></trkpt><trkpt lat="30.92763823615702" lon="-6.891763034712785"><ele>1130.0</ele><time>2026-04-24T15:10:33Z</time></trkpt><trkpt lat="30.92757533063381" lon="-6.891633157353593"><ele>1130.0</ele><time>2026-04-24T15:10:34Z</time></trkpt><trkpt lat="30.927512193540977" lon="-6.891498283596065"><ele>1130.0</ele><time>2026-04-24T15:10:35Z</time></trkpt><trkpt lat="30.927448024868262" lon="-6.891365235222143"><ele>1130.0</ele><time>2026-04-24T15:10:36Z</time></trkpt><trkpt lat="30.927386393729456" lon="-6.891236339575021"><ele>1130.0</ele><time>2026-04-24T15:10:37Z</time></trkpt><trkpt lat="30.927329769691113" lon="-6.8911153497490325"><ele>1130.0</ele><time>2026-04-24T15:10:38Z</time></trkpt><trkpt lat="30.927275176350502" lon="-6.8909996064985775"><ele>1130.0</ele><time>2026-04-24T15:10:39Z</time></trkpt><trkpt lat="30.927220030682616" lon="-6.890884857305725"><ele>1130.0</ele><time>2026-04-24T15:10:40Z</time></trkpt><trkpt lat="30.927169869256858" lon="-6.890780042580762"><ele>1130.0</ele><time>2026-04-24T15:10:41Z</time></trkpt><trkpt lat="30.927122583253723" lon="-6.890682253908679"><ele>1130.0</ele><time>2026-04-24T15:10:42Z</time></trkpt><trkpt lat="30.927078677985154" lon="-6.890590796997317"><ele>1129.8333333333335</ele><time>2026-04-24T15:10:43Z</time></trkpt><trkpt lat="30.927035222476228" lon="-6.890501249795246"><ele>1129.6666666666667</ele><time>2026-04-24T15:10:44Z</time></trkpt><trkpt lat="30.926993364659484" lon="-6.89041468662198"><ele>1129.5</ele><time>2026-04-24T15:10:45Z</time></trkpt><trkpt lat="30.92695902791992" lon="-6.890337816500754"><ele>1129.3333333333333</ele><time>2026-04-24T15:10:46Z</time></trkpt><trkpt lat="30.926929398460658" lon="-6.890273042669919"><ele>1129.1666666666665</ele><time>2026-04-24T15:10:47Z</time></trkpt><trkpt lat="30.926886027861634" lon="-6.890184293571934"><ele>1129.0</ele><time>2026-04-24T15:10:49Z</time></trkpt><trkpt lat="30.92685140585307" lon="-6.890118078208321"><ele>1128.5</ele><time>2026-04-24T15:10:53Z</time></trkpt><trkpt lat="30.92681730717733" lon="-6.890039679982752"><ele>1128.0</ele><time>2026-04-24T15:10:55Z</time></trkpt><trkpt lat="30.92678843574166" lon="-6.889968825429564"><ele>1127.5</ele><time>2026-04-24T15:10:57Z</time></trkpt><trkpt lat="30.92673180785114" lon="-6.889924381063972"><ele>1127.0</ele><time>2026-04-24T15:11:02Z</time></trkpt><trkpt lat="30.92674115509265" lon="-6.88982875444531"><ele>1126.5</ele><time>2026-04-24T15:11:03Z</time></trkpt><trkpt lat="30.926803472832102" lon="-6.889732838644335"><ele>1126.0</ele><time>2026-04-24T15:11:05Z</time></trkpt><trkpt lat="30.92686633392386" lon="-6.889712737398306"><ele>1126.0</ele><time>2026-04-24T15:11:06Z</time></trkpt><trkpt lat="30.926934925931683" lon="-6.8897078896045425"><ele>1126.0</ele><time>2026-04-24T15:11:07Z</time></trkpt><trkpt lat="30.927009813174408" lon="-6.889708581649446"><ele>1126.0</ele><time>2026-04-24T15:11:08Z</time></trkpt><trkpt lat="30.92709270623762" lon="-6.8897132110511645"><ele>1126.0</ele><time>2026-04-24T15:11:09Z</time></trkpt><trkpt lat="30.92717985678852" lon="-6.889719771128364"><ele>1126.0</ele><time>2026-04-24T15:11:10Z</time></trkpt><trkpt lat="30.92727095324039" lon="-6.889724952554374"><ele>1126.0</ele><time>2026-04-24T15:11:11Z</time></trkpt><trkpt lat="30.927371130630785" lon="-6.889728124389894"><ele>1126.0</ele><time>2026-04-24T15:11:12Z</time></trkpt><trkpt lat="30.927480359209227" lon="-6.889735870614831"><ele>1126.0</ele><time>2026-04-24T15:11:13Z</time></trkpt><trkpt lat="30.927596685540085" lon="-6.889746197329433"><ele>1126.0</ele><time>2026-04-24T15:11:14Z</time></trkpt><trkpt lat="30.927719321998566" lon="-6.889760727606164"><ele>1126.0</ele><time>2026-04-24T15:11:15Z</time></trkpt><trkpt lat="30.92784329057466" lon="-6.889774308330237"><ele>1126.75</ele><time>2026-04-24T15:11:16Z</time></trkpt><trkpt lat="30.92797086452348" lon="-6.889786943858428"><ele>1127.5</ele><time>2026-04-24T15:11:17Z</time></trkpt><trkpt lat="30.928096826542436" lon="-6.889798984980679"><ele>1128.25</ele><time>2026-04-24T15:11:18Z</time></trkpt><trkpt lat="30.928217260544756" lon="-6.88980903417096"><ele>1129.0</ele><time>2026-04-24T15:11:19Z</time></trkpt><trkpt lat="30.928329869330305" lon="-6.889818730630501"><ele>1128.8</ele><time>2026-04-24T15:11:20Z</time></trkpt><trkpt lat="30.928433018921538" lon="-6.889826651494255"><ele>1128.6000000000001</ele><time>2026-04-24T15:11:21Z</time></trkpt><trkpt lat="30.928532360097943" lon="-6.889831454706504"><ele>1128.4</ele><time>2026-04-24T15:11:22Z</time></trkpt><trkpt lat="30.928634024655725" lon="-6.88984401897821"><ele>1128.2</ele><time>2026-04-24T15:11:23Z</time></trkpt><trkpt lat="30.92874248711432" lon="-6.8898530403315945"><ele>1128.0</ele><time>2026-04-24T15:11:24Z</time></trkpt><trkpt lat="30.928856293815286" lon="-6.889856884408452"><ele>1128.0</ele><time>2026-04-24T15:11:25Z</time></trkpt><trkpt lat="30.928968311497776" lon="-6.889860692727766"><ele>1128.0</ele><time>2026-04-24T15:11:26Z</time></trkpt><trkpt lat="30.929081497945525" lon="-6.889865399699034"><ele>1128.0</ele><time>2026-04-24T15:11:27Z</time></trkpt><trkpt lat="30.929199797421532" lon="-6.889870493194426"><ele>1128.0</ele><time>2026-04-24T15:11:28Z</time></trkpt><trkpt lat="30.929328162687096" lon="-6.889876391978345"><ele>1128.1666666666667</ele><time>2026-04-24T15:11:29Z</time></trkpt><trkpt lat="30.929460191787136" lon="-6.889880168170013"><ele>1128.3333333333333</ele><time>2026-04-24T15:11:30Z</time></trkpt><trkpt lat="30.92955952296128" lon="-6.889881003289804"><ele>1128.5</ele><time>2026-04-24T15:11:31Z</time></trkpt><trkpt lat="30.92962822238349" lon="-6.889883111091576"><ele>1128.6666666666665</ele><time>2026-04-24T15:11:32Z</time></trkpt><trkpt lat="30.929695838469776" lon="-6.8898837460571"><ele>1128.8333333333333</ele><time>2026-04-24T15:11:33Z</time></trkpt><trkpt lat="30.92976724603623" lon="-6.889883555131772"><ele>1129.0</ele><time>2026-04-24T15:11:34Z</time></trkpt><trkpt lat="30.929840219520617" lon="-6.889883299905677"><ele>1129.0</ele><time>2026-04-24T15:11:35Z</time></trkpt><trkpt lat="30.92991049506353" lon="-6.8898838817372505"><ele>1129.0</ele><time>2026-04-24T15:11:36Z</time></trkpt><trkpt lat="30.929977093178977" lon="-6.889882953278365"><ele>1129.0</ele><time>2026-04-24T15:11:37Z</time></trkpt><trkpt lat="30.930094520513606" lon="-6.889886389157562"><ele>1129.0</ele><time>2026-04-24T15:11:39Z</time></trkpt><trkpt lat="30.930186976858092" lon="-6.88988983175765"><ele>1129.0</ele><time>2026-04-24T15:11:41Z</time></trkpt><trkpt lat="30.930281120687326" lon="-6.889892243452864"><ele>1129.0</ele><time>2026-04-24T15:11:43Z</time></trkpt><trkpt lat="30.93040481588058" lon="-6.889895604790952"><ele>1129.2</ele><time>2026-04-24T15:11:45Z</time></trkpt><trkpt lat="30.930485072839122" lon="-6.889898854014503"><ele>1129.4</ele><time>2026-04-24T15:11:46Z</time></trkpt><trkpt lat="30.930570690872084" lon="-6.889900506848225"><ele>1129.6</ele><time>2026-04-24T15:11:47Z</time></trkpt><trkpt lat="30.930664147318506" lon="-6.8899019230178995"><ele>1129.8</ele><time>2026-04-24T15:11:48Z</time></trkpt><trkpt lat="30.93076500726083" lon="-6.889902724708666"><ele>1130.0</ele><time>2026-04-24T15:11:49Z</time></trkpt><trkpt lat="30.930871014849718" lon="-6.889907813794885"><ele>1129.75</ele><time>2026-04-24T15:11:50Z</time></trkpt><trkpt lat="30.930983684250613" lon="-6.889908856459066"><ele>1129.5</ele><time>2026-04-24T15:11:51Z</time></trkpt><trkpt lat="30.931100954336475" lon="-6.8899099988653045"><ele>1129.25</ele><time>2026-04-24T15:11:52Z</time></trkpt><trkpt lat="30.931220269573547" lon="-6.889910066858107"><ele>1129.0</ele><time>2026-04-24T15:11:53Z</time></trkpt><trkpt lat="30.93133900803716" lon="-6.889913530709303"><ele>1129.0</ele><time>2026-04-24T15:11:54Z</time></trkpt><trkpt lat="30.93145789078355" lon="-6.889918635136365"><ele>1129.0</ele><time>2026-04-24T15:11:55Z</time></trkpt><trkpt lat="30.931574990524165" lon="-6.8899229478873245"><ele>1129.0</ele><time>2026-04-24T15:11:56Z</time></trkpt><trkpt lat="30.93169371887087" lon="-6.889926636236934"><ele>1129.0</ele><time>2026-04-24T15:11:57Z</time></trkpt><trkpt lat="30.93181197653559" lon="-6.889927894501489"><ele>1127.75</ele><time>2026-04-24T15:11:58Z</time></trkpt><trkpt lat="30.931930401915647" lon="-6.889931324541574"><ele>1126.5</ele><time>2026-04-24T15:11:59Z</time></trkpt><trkpt lat="30.932041635103122" lon="-6.889934468170327"><ele>1125.25</ele><time>2026-04-24T15:12:00Z</time></trkpt><trkpt lat="30.93215958652479" lon="-6.8899402078337655"><ele>1124.0</ele><time>2026-04-24T15:12:01Z</time></trkpt><trkpt lat="30.932282972506354" lon="-6.889943034446343"><ele>1124.0</ele><time>2026-04-24T15:12:02Z</time></trkpt><trkpt lat="30.932409723136168" lon="-6.889943570294038"><ele>1124.0</ele><time>2026-04-24T15:12:03Z</time></trkpt><trkpt lat="30.932540869118807" lon="-6.889946317506066"><ele>1124.0</ele><time>2026-04-24T15:12:04Z</time></trkpt><trkpt lat="30.932676523624753" lon="-6.889947741865481"><ele>1124.0</ele><time>2026-04-24T15:12:05Z</time></trkpt><trkpt lat="30.932817569655572" lon="-6.889948567343281"><ele>1123.25</ele><time>2026-04-24T15:12:06Z</time></trkpt><trkpt lat="30.932963269384416" lon="-6.889954796783666"><ele>1122.5</ele><time>2026-04-24T15:12:07Z</time></trkpt><trkpt lat="30.933109284530513" lon="-6.889960868329303"><ele>1121.75</ele><time>2026-04-24T15:12:08Z</time></trkpt><trkpt lat="30.93325391169933" lon="-6.88995852011014"><ele>1121.0</ele><time>2026-04-24T15:12:09Z</time></trkpt><trkpt lat="30.933392026616414" lon="-6.889960935149724"><ele>1121.0</ele><time>2026-04-24T15:12:10Z</time></trkpt><trkpt lat="30.933525263545967" lon="-6.88996821469323"><ele>1121.0</ele><time>2026-04-24T15:12:11Z</time></trkpt><trkpt lat="30.933661657263333" lon="-6.889968693966875"><ele>1121.0</ele><time>2026-04-24T15:12:12Z</time></trkpt><trkpt lat="30.933798290363107" lon="-6.889970390545596"><ele>1121.0</ele><time>2026-04-24T15:12:13Z</time></trkpt><trkpt lat="30.933934621796595" lon="-6.889973115734676"><ele>1121.0</ele><time>2026-04-24T15:12:14Z</time></trkpt><trkpt lat="30.934072112799704" lon="-6.889975224704404"><ele>1121.0</ele><time>2026-04-24T15:12:15Z</time></trkpt><trkpt lat="30.934214848859977" lon="-6.889974801483842"><ele>1121.0</ele><time>2026-04-24T15:12:16Z</time></trkpt><trkpt lat="30.934355463669103" lon="-6.889973023351797"><ele>1121.0</ele><time>2026-04-24T15:12:17Z</time></trkpt><trkpt lat="30.934492549347752" lon="-6.889967790559122"><ele>1121.25</ele><time>2026-04-24T15:12:18Z</time></trkpt><trkpt lat="30.934627741008033" lon="-6.889959159848004"><ele>1121.5</ele><time>2026-04-24T15:12:19Z</time></trkpt><trkpt lat="30.934760623128227" lon="-6.889944234237548"><ele>1121.75</ele><time>2026-04-24T15:12:20Z</time></trkpt><trkpt lat="30.93489329398162" lon="-6.889915051298973"><ele>1122.0</ele><time>2026-04-24T15:12:21Z</time></trkpt><trkpt lat="30.935026461374747" lon="-6.88987766078315"><ele>1121.75</ele><time>2026-04-24T15:12:22Z</time></trkpt><trkpt lat="30.93515986182255" lon="-6.889831379839638"><ele>1121.5</ele><time>2026-04-24T15:12:23Z</time></trkpt><trkpt lat="30.935293043170788" lon="-6.889774056838427"><ele>1121.25</ele><time>2026-04-24T15:12:24Z</time></trkpt><trkpt lat="30.935425216785944" lon="-6.8897085526099895"><ele>1121.0</ele><time>2026-04-24T15:12:25Z</time></trkpt><trkpt lat="30.935555757341497" lon="-6.889636937868324"><ele>1121.0</ele><time>2026-04-24T15:12:26Z</time></trkpt><trkpt lat="30.935687672700446" lon="-6.889556575479481"><ele>1121.0</ele><time>2026-04-24T15:12:27Z</time></trkpt><trkpt lat="30.935818915421486" lon="-6.889461292605064"><ele>1121.0</ele><time>2026-04-24T15:12:28Z</time></trkpt><trkpt lat="30.935948778570523" lon="-6.889352189159275"><ele>1119.0</ele><time>2026-04-24T15:12:29Z</time></trkpt><trkpt lat="30.936085345159462" lon="-6.88922380029767"><ele>1117.0</ele><time>2026-04-24T15:12:30Z</time></trkpt><trkpt lat="30.936225790749752" lon="-6.889083133927707"><ele>1115.0</ele><time>2026-04-24T15:12:31Z</time></trkpt><trkpt lat="30.936372880406015" lon="-6.888921551692888"><ele>1115.0</ele><time>2026-04-24T15:12:32Z</time></trkpt><trkpt lat="30.936477147751088" lon="-6.888780067721969"><ele>1115.0</ele><time>2026-04-24T15:12:33Z</time></trkpt><trkpt lat="30.93669683807907" lon="-6.888528724470415"><ele>1115.0</ele><time>2026-04-24T15:12:34Z</time></trkpt><trkpt lat="30.936876454708834" lon="-6.888322148297811"><ele>1115.0</ele><time>2026-04-24T15:12:35Z</time></trkpt><trkpt lat="30.937055478515262" lon="-6.8881256707242144"><ele>1115.0</ele><time>2026-04-24T15:12:36Z</time></trkpt><trkpt lat="30.937221047058955" lon="-6.887943859768735"><ele>1115.0</ele><time>2026-04-24T15:12:37Z</time></trkpt><trkpt lat="30.937371867074194" lon="-6.887777817155394"><ele>1115.0</ele><time>2026-04-24T15:12:38Z</time></trkpt><trkpt lat="30.937514594735795" lon="-6.887643837376527"><ele>1116.6666666666667</ele><time>2026-04-24T15:12:39Z</time></trkpt><trkpt lat="30.9376310898263" lon="-6.887513443193471"><ele>1118.3333333333333</ele><time>2026-04-24T15:12:40Z</time></trkpt><trkpt lat="30.93773187847821" lon="-6.887365298526145"><ele>1120.0</ele><time>2026-04-24T15:12:41Z</time></trkpt><trkpt lat="30.93782647464775" lon="-6.887249432688648"><ele>1120.0</ele><time>2026-04-24T15:12:42Z</time></trkpt><trkpt lat="30.93791505992119" lon="-6.887140060491163"><ele>1120.0</ele><time>2026-04-24T15:12:43Z</time></trkpt><trkpt lat="30.938007348954113" lon="-6.887036906704655"><ele>1120.0</ele><time>2026-04-24T15:12:44Z</time></trkpt><trkpt lat="30.938080561879207" lon="-6.886928855002118"><ele>1120.0</ele><time>2026-04-24T15:12:45Z</time></trkpt><trkpt lat="30.938135043048707" lon="-6.886801991890978"><ele>1119.5</ele><time>2026-04-24T15:12:46Z</time></trkpt><trkpt lat="30.938212750718222" lon="-6.88667770119016"><ele>1119.0</ele><time>2026-04-24T15:12:47Z</time></trkpt><trkpt lat="30.93831808928211" lon="-6.886562113583874"><ele>1118.5</ele><time>2026-04-24T15:12:48Z</time></trkpt><trkpt lat="30.93842926834703" lon="-6.886440293398229"><ele>1118.0</ele><time>2026-04-24T15:12:49Z</time></trkpt><trkpt lat="30.938541838462996" lon="-6.886316367933747"><ele>1117.5</ele><time>2026-04-24T15:12:50Z</time></trkpt><trkpt lat="30.93865279616682" lon="-6.8861937524444"><ele>1117.0</ele><time>2026-04-24T15:12:51Z</time></trkpt><trkpt lat="30.93876064467032" lon="-6.88607486966192"><ele>1116.5</ele><time>2026-04-24T15:12:52Z</time></trkpt><trkpt lat="30.93886065536986" lon="-6.88596521910394"><ele>1116.0</ele><time>2026-04-24T15:12:53Z</time></trkpt><trkpt lat="30.93894539068255" lon="-6.885871899044165"><ele>1116.0</ele><time>2026-04-24T15:12:54Z</time></trkpt><trkpt lat="30.93901608263445" lon="-6.885794045370249"><ele>1116.0</ele><time>2026-04-24T15:12:55Z</time></trkpt><trkpt lat="30.939076556893735" lon="-6.885740108684633"><ele>1116.0</ele><time>2026-04-24T15:12:56Z</time></trkpt><trkpt lat="30.939158174109377" lon="-6.88572251883192"><ele>1116.0</ele><time>2026-04-24T15:12:57Z</time></trkpt><trkpt lat="30.93923230788483" lon="-6.885687773109838"><ele>1116.0</ele><time>2026-04-24T15:12:58Z</time></trkpt><trkpt lat="30.93928955657033" lon="-6.885626517091637"><ele>1116.0</ele><time>2026-04-24T15:12:59Z</time></trkpt><trkpt lat="30.939351965110625" lon="-6.885557975777492"><ele>1116.25</ele><time>2026-04-24T15:13:00Z</time></trkpt><trkpt lat="30.939427212369388" lon="-6.885475334148556"><ele>1116.5</ele><time>2026-04-24T15:13:01Z</time></trkpt><trkpt lat="30.939508892770476" lon="-6.885386177306127"><ele>1116.75</ele><time>2026-04-24T15:13:02Z</time></trkpt><trkpt lat="30.939597900031007" lon="-6.8852904720107535"><ele>1117.0</ele><time>2026-04-24T15:13:03Z</time></trkpt><trkpt lat="30.939687086301966" lon="-6.8851945744305345"><ele>1117.0</ele><time>2026-04-24T15:13:04Z</time></trkpt><trkpt lat="30.939774827508597" lon="-6.885100230591865"><ele>1117.0</ele><time>2026-04-24T15:13:05Z</time></trkpt><trkpt lat="30.939861351789283" lon="-6.885007195277133"><ele>1117.0</ele><time>2026-04-24T15:13:06Z</time></trkpt><trkpt lat="30.93994884174869" lon="-6.884912796425816"><ele>1117.0</ele><time>2026-04-24T15:13:07Z</time></trkpt><trkpt lat="30.94004189086268" lon="-6.88481190271117"><ele>1117.5</ele><time>2026-04-24T15:13:08Z</time></trkpt><trkpt lat="30.94013396579863" lon="-6.884712065284592"><ele>1118.0</ele><time>2026-04-24T15:13:09Z</time></trkpt><trkpt lat="30.940230331220572" lon="-6.884607135247216"><ele>1118.5</ele><time>2026-04-24T15:13:10Z</time></trkpt><trkpt lat="30.940330380821198" lon="-6.884498139265125"><ele>1119.0</ele><time>2026-04-24T15:13:11Z</time></trkpt><trkpt lat="30.940442846289592" lon="-6.884400828742088"><ele>1119.0</ele><time>2026-04-24T15:13:12Z</time></trkpt><trkpt lat="30.94053346948963" lon="-6.884269853168688"><ele>1119.0</ele><time>2026-04-24T15:13:13Z</time></trkpt><trkpt lat="30.94064134354184" lon="-6.884145329355299"><ele>1119.0</ele><time>2026-04-24T15:13:14Z</time></trkpt><trkpt lat="30.940750652895098" lon="-6.884016315499384"><ele>1118.0</ele><time>2026-04-24T15:13:15Z</time></trkpt><trkpt lat="30.940864419934442" lon="-6.883882040345106"><ele>1117.0</ele><time>2026-04-24T15:13:16Z</time></trkpt><trkpt lat="30.94098594327923" lon="-6.8837467243478185"><ele>1116.0</ele><time>2026-04-24T15:13:17Z</time></trkpt><trkpt lat="30.941110778599885" lon="-6.883612894542168"><ele>1116.0</ele><time>2026-04-24T15:13:18Z</time></trkpt><trkpt lat="30.94123657325738" lon="-6.883473480411526"><ele>1116.0</ele><time>2026-04-24T15:13:19Z</time></trkpt><trkpt lat="30.941364125571244" lon="-6.883333235820867"><ele>1116.0</ele><time>2026-04-24T15:13:20Z</time></trkpt><trkpt lat="30.941492209223174" lon="-6.883191946942162"><ele>1116.3333333333333</ele><time>2026-04-24T15:13:21Z</time></trkpt><trkpt lat="30.94162797585665" lon="-6.88304218303131"><ele>1116.6666666666665</ele><time>2026-04-24T15:13:22Z</time></trkpt><trkpt lat="30.941766079950416" lon="-6.882890508991013"><ele>1117.0</ele><time>2026-04-24T15:13:23Z</time></trkpt><trkpt lat="30.941904799323883" lon="-6.882737534579712"><ele>1116.3333333333333</ele><time>2026-04-24T15:13:24Z</time></trkpt><trkpt lat="30.942044521575717" lon="-6.882583089631394"><ele>1115.6666666666667</ele><time>2026-04-24T15:13:25Z</time></trkpt><trkpt lat="30.942183250113658" lon="-6.8824302911619615"><ele>1115.0</ele><time>2026-04-24T15:13:26Z</time></trkpt><trkpt lat="30.94232075383489" lon="-6.882278841609007"><ele>1115.0</ele><time>2026-04-24T15:13:27Z</time></trkpt><trkpt lat="30.94245498965809" lon="-6.882130849502097"><ele>1115.0</ele><time>2026-04-24T15:13:28Z</time></trkpt><trkpt lat="30.94258299643439" lon="-6.881989541751772"><ele>1115.0</ele><time>2026-04-24T15:13:29Z</time></trkpt><trkpt lat="30.942706245047507" lon="-6.8818534864326795"><ele>1115.0</ele><time>2026-04-24T15:13:30Z</time></trkpt><trkpt lat="30.942828422860664" lon="-6.88171865820025"><ele>1115.0</ele><time>2026-04-24T15:13:31Z</time></trkpt><trkpt lat="30.942962236069608" lon="-6.881597674768016"><ele>1115.0</ele><time>2026-04-24T15:13:32Z</time></trkpt><trkpt lat="30.943081356009564" lon="-6.88146506879079"><ele>1115.0</ele><time>2026-04-24T15:13:33Z</time></trkpt><trkpt lat="30.94320370227174" lon="-6.881330568727035"><ele>1115.0</ele><time>2026-04-24T15:13:34Z</time></trkpt><trkpt lat="30.9433161268144" lon="-6.881180063769851"><ele>1115.0</ele><time>2026-04-24T15:13:35Z</time></trkpt><trkpt lat="30.94344033385418" lon="-6.881042424838103"><ele>1115.3333333333335</ele><time>2026-04-24T15:13:36Z</time></trkpt><trkpt lat="30.943577452034923" lon="-6.88091570874666"><ele>1115.6666666666667</ele><time>2026-04-24T15:13:37Z</time></trkpt><trkpt lat="30.943704586766295" lon="-6.880771443526088"><ele>1116.0</ele><time>2026-04-24T15:13:38Z</time></trkpt><trkpt lat="30.94383489184332" lon="-6.880629574261591"><ele>1116.0</ele><time>2026-04-24T15:13:39Z</time></trkpt><trkpt lat="30.943955243111336" lon="-6.880473146242306"><ele>1116.0</ele><time>2026-04-24T15:13:40Z</time></trkpt><trkpt lat="30.944086926049113" lon="-6.880327694222398"><ele>1116.0</ele><time>2026-04-24T15:13:41Z</time></trkpt><trkpt lat="30.944220453540574" lon="-6.880180765383918"><ele>1115.3333333333333</ele><time>2026-04-24T15:13:42Z</time></trkpt><trkpt lat="30.944363035883026" lon="-6.880047690591334"><ele>1114.6666666666665</ele><time>2026-04-24T15:13:43Z</time></trkpt><trkpt lat="30.944492446448372" lon="-6.87990445064762"><ele>1114.0</ele><time>2026-04-24T15:13:44Z</time></trkpt><trkpt lat="30.94460625214921" lon="-6.87975352175538"><ele>1114.0</ele><time>2026-04-24T15:13:45Z</time></trkpt><trkpt lat="30.944724958628836" lon="-6.8796221304831615"><ele>1114.0</ele><time>2026-04-24T15:13:46Z</time></trkpt><trkpt lat="30.944852723583235" lon="-6.87950604053725"><ele>1114.0</ele><time>2026-04-24T15:13:47Z</time></trkpt><trkpt lat="30.944968668529633" lon="-6.87937263712415"><ele>1114.6666666666665</ele><time>2026-04-24T15:13:48Z</time></trkpt><trkpt lat="30.945087407924717" lon="-6.879243039479699"><ele>1115.3333333333333</ele><time>2026-04-24T15:13:49Z</time></trkpt><trkpt lat="30.945194969393903" lon="-6.879101159618837"><ele>1116.0</ele><time>2026-04-24T15:13:50Z</time></trkpt><trkpt lat="30.945313101765016" lon="-6.878969352181"><ele>1116.0</ele><time>2026-04-24T15:13:51Z</time></trkpt><trkpt lat="30.945434857243885" lon="-6.8788334662162995"><ele>1116.0</ele><time>2026-04-24T15:13:52Z</time></trkpt><trkpt lat="30.94557320186937" lon="-6.878705881866418"><ele>1116.0</ele><time>2026-04-24T15:13:53Z</time></trkpt><trkpt lat="30.945689971148074" lon="-6.878549503153578"><ele>1116.6666666666667</ele><time>2026-04-24T15:13:54Z</time></trkpt><trkpt lat="30.945813259908146" lon="-6.878412101090699"><ele>1117.3333333333335</ele><time>2026-04-24T15:13:55Z</time></trkpt><trkpt lat="30.945931668404068" lon="-6.878280109918727"><ele>1118.0</ele><time>2026-04-24T15:13:56Z</time></trkpt><trkpt lat="30.946050100259285" lon="-6.878148141983795"><ele>1119.0</ele><time>2026-04-24T15:13:57Z</time></trkpt><trkpt lat="30.94616886831104" lon="-6.878015951487918"><ele>1120.0</ele><time>2026-04-24T15:13:58Z</time></trkpt><trkpt lat="30.946284520457606" lon="-6.877887229074471"><ele>1121.0</ele><time>2026-04-24T15:13:59Z</time></trkpt><trkpt lat="30.946394941276104" lon="-6.877764329397695"><ele>1121.0</ele><time>2026-04-24T15:14:00Z</time></trkpt><trkpt lat="30.946496809144207" lon="-6.8776497704835124"><ele>1121.0</ele><time>2026-04-24T15:14:01Z</time></trkpt><trkpt lat="30.946592037982487" lon="-6.877543266228426"><ele>1121.0</ele><time>2026-04-24T15:14:02Z</time></trkpt><trkpt lat="30.946683017405004" lon="-6.877442276192121"><ele>1121.0</ele><time>2026-04-24T15:14:03Z</time></trkpt><trkpt lat="30.946766174398757" lon="-6.877349681989587"><ele>1121.8</ele><time>2026-04-24T15:14:04Z</time></trkpt><trkpt lat="30.946841657386372" lon="-6.877266496005726"><ele>1122.6</ele><time>2026-04-24T15:14:05Z</time></trkpt><trkpt lat="30.946913336947425" lon="-6.877186916059261"><ele>1123.4</ele><time>2026-04-24T15:14:06Z</time></trkpt><trkpt lat="30.946983781077723" lon="-6.877108154791659"><ele>1124.2</ele><time>2026-04-24T15:14:07Z</time></trkpt><trkpt lat="30.947053986271925" lon="-6.8770296605498995"><ele>1125.0</ele><time>2026-04-24T15:14:08Z</time></trkpt><trkpt lat="30.947125490984106" lon="-6.876949713452751"><ele>1125.0</ele><time>2026-04-24T15:14:09Z</time></trkpt><trkpt lat="30.947198504665167" lon="-6.876868458300039"><ele>1125.0</ele><time>2026-04-24T15:14:10Z</time></trkpt><trkpt lat="30.947271003393766" lon="-6.876788137511743"><ele>1125.0</ele><time>2026-04-24T15:14:11Z</time></trkpt><trkpt lat="30.94734374427694" lon="-6.876707548447359"><ele>1125.0</ele><time>2026-04-24T15:14:12Z</time></trkpt><trkpt lat="30.947419920484283" lon="-6.8766231535101365"><ele>1125.0</ele><time>2026-04-24T15:14:13Z</time></trkpt><trkpt lat="30.94749501105536" lon="-6.8765399117883055"><ele>1125.6</ele><time>2026-04-24T15:14:14Z</time></trkpt><trkpt lat="30.94756925251204" lon="-6.876457550831448"><ele>1126.2</ele><time>2026-04-24T15:14:15Z</time></trkpt><trkpt lat="30.94764343781133" lon="-6.87637525211045"><ele>1126.8</ele><time>2026-04-24T15:14:16Z</time></trkpt><trkpt lat="30.947718830188347" lon="-6.8762916142341"><ele>1127.4</ele><time>2026-04-24T15:14:17Z</time></trkpt><trkpt lat="30.947794456995307" lon="-6.876207716348808"><ele>1128.0</ele><time>2026-04-24T15:14:18Z</time></trkpt><trkpt lat="30.947870989687207" lon="-6.87612286166539"><ele>1128.0</ele><time>2026-04-24T15:14:19Z</time></trkpt><trkpt lat="30.947946595397788" lon="-6.876039441503551"><ele>1128.0</ele><time>2026-04-24T15:14:20Z</time></trkpt><trkpt lat="30.94802172361403" lon="-6.875956511759567"><ele>1128.0</ele><time>2026-04-24T15:14:21Z</time></trkpt><trkpt lat="30.94809651795691" lon="-6.8758735875934605"><ele>1128.0</ele><time>2026-04-24T15:14:22Z</time></trkpt><trkpt lat="30.948169518534367" lon="-6.875792236845013"><ele>1128.0</ele><time>2026-04-24T15:14:23Z</time></trkpt><trkpt lat="30.948243031552384" lon="-6.87571024687544"><ele>1128.4</ele><time>2026-04-24T15:14:24Z</time></trkpt><trkpt lat="30.948318666619862" lon="-6.87562660243726"><ele>1128.8</ele><time>2026-04-24T15:14:25Z</time></trkpt><trkpt lat="30.948395370198334" lon="-6.875542083061164"><ele>1129.2</ele><time>2026-04-24T15:14:26Z</time></trkpt><trkpt lat="30.948473741762008" lon="-6.8754555937266035"><ele>1129.6</ele><time>2026-04-24T15:14:27Z</time></trkpt><trkpt lat="30.948551670860848" lon="-6.875369463965279"><ele>1130.0</ele><time>2026-04-24T15:14:28Z</time></trkpt><trkpt lat="30.948630559082225" lon="-6.875281239932035"><ele>1130.6</ele><time>2026-04-24T15:14:29Z</time></trkpt><trkpt lat="30.94870948267076" lon="-6.875193763464698"><ele>1131.2</ele><time>2026-04-24T15:14:30Z</time></trkpt><trkpt lat="30.948788160440206" lon="-6.87510634517372"><ele>1131.8</ele><time>2026-04-24T15:14:31Z</time></trkpt><trkpt lat="30.948868997076175" lon="-6.875016489990736"><ele>1132.4</ele><time>2026-04-24T15:14:32Z</time></trkpt><trkpt lat="30.948951860629727" lon="-6.8749243814292775"><ele>1133.0</ele><time>2026-04-24T15:14:33Z</time></trkpt><trkpt lat="30.949038851910327" lon="-6.87482770527653"><ele>1133.0</ele><time>2026-04-24T15:14:34Z</time></trkpt><trkpt lat="30.94912821317762" lon="-6.8747288020900825"><ele>1133.0</ele><time>2026-04-24T15:14:35Z</time></trkpt><trkpt lat="30.949221784156816" lon="-6.874626008078075"><ele>1133.0</ele><time>2026-04-24T15:14:36Z</time></trkpt><trkpt lat="30.949315924636043" lon="-6.8745212031184"><ele>1133.0</ele><time>2026-04-24T15:14:37Z</time></trkpt><trkpt lat="30.949414575071497" lon="-6.8744117027017335"><ele>1133.75</ele><time>2026-04-24T15:14:38Z</time></trkpt><trkpt lat="30.949515178706296" lon="-6.874300300260821"><ele>1134.5</ele><time>2026-04-24T15:14:39Z</time></trkpt><trkpt lat="30.949616200373963" lon="-6.87418843505692"><ele>1135.25</ele><time>2026-04-24T15:14:40Z</time></trkpt><trkpt lat="30.949719844063335" lon="-6.874073666304406"><ele>1136.0</ele><time>2026-04-24T15:14:41Z</time></trkpt><trkpt lat="30.949826571056878" lon="-6.873955287652331"><ele>1135.3333333333335</ele><time>2026-04-24T15:14:42Z</time></trkpt><trkpt lat="30.949939378668414" lon="-6.873831025540377"><ele>1134.6666666666667</ele><time>2026-04-24T15:14:43Z</time></trkpt><trkpt lat="30.95004888186608" lon="-6.8737146784299625"><ele>1134.0</ele><time>2026-04-24T15:14:44Z</time></trkpt><trkpt lat="30.95015932184038" lon="-6.873597335855517"><ele>1134.0</ele><time>2026-04-24T15:14:45Z</time></trkpt><trkpt lat="30.950265705705274" lon="-6.873478647086193"><ele>1134.0</ele><time>2026-04-24T15:14:46Z</time></trkpt><trkpt lat="30.950374295412654" lon="-6.873355641712095"><ele>1134.0</ele><time>2026-04-24T15:14:47Z</time></trkpt><trkpt lat="30.950482427136308" lon="-6.873234540921887"><ele>1134.0</ele><time>2026-04-24T15:14:48Z</time></trkpt><trkpt lat="30.950590513141737" lon="-6.873112811072442"><ele>1133.5</ele><time>2026-04-24T15:14:49Z</time></trkpt><trkpt lat="30.950696175444154" lon="-6.87299408844715"><ele>1133.0</ele><time>2026-04-24T15:14:50Z</time></trkpt><trkpt lat="30.950802450879326" lon="-6.872875406823642"><ele>1132.5</ele><time>2026-04-24T15:14:51Z</time></trkpt><trkpt lat="30.950908045058565" lon="-6.872757564132921"><ele>1132.0</ele><time>2026-04-24T15:14:52Z</time></trkpt><trkpt lat="30.951013901445062" lon="-6.872639428834163"><ele>1133.0</ele><time>2026-04-24T15:14:53Z</time></trkpt><trkpt lat="30.951118442869287" lon="-6.872522533037547"><ele>1134.0</ele><time>2026-04-24T15:14:54Z</time></trkpt><trkpt lat="30.95122274213771" lon="-6.872405298144329"><ele>1135.0</ele><time>2026-04-24T15:14:55Z</time></trkpt><trkpt lat="30.95132697327345" lon="-6.872289607026967"><ele>1136.0</ele><time>2026-04-24T15:14:56Z</time></trkpt><trkpt lat="30.951431355861114" lon="-6.872173635768712"><ele>1136.0</ele><time>2026-04-24T15:14:57Z</time></trkpt><trkpt lat="30.951534613335262" lon="-6.872058624990046"><ele>1136.0</ele><time>2026-04-24T15:14:58Z</time></trkpt><trkpt lat="30.95163426189707" lon="-6.871944807251116"><ele>1136.0</ele><time>2026-04-24T15:14:59Z</time></trkpt><trkpt lat="30.95173429602123" lon="-6.871823059801863"><ele>1136.0</ele><time>2026-04-24T15:15:00Z</time></trkpt><trkpt lat="30.95182042678875" lon="-6.871708254316635"><ele>1137.0</ele><time>2026-04-24T15:15:01Z</time></trkpt><trkpt lat="30.951903219789763" lon="-6.871581309493346"><ele>1138.0</ele><time>2026-04-24T15:15:02Z</time></trkpt><trkpt lat="30.951971461230418" lon="-6.871456397319202"><ele>1139.0</ele><time>2026-04-24T15:15:03Z</time></trkpt><trkpt lat="30.952044207007226" lon="-6.871318399754042"><ele>1140.0</ele><time>2026-04-24T15:15:04Z</time></trkpt><trkpt lat="30.952115418947933" lon="-6.87118295458714"><ele>1140.0</ele><time>2026-04-24T15:15:05Z</time></trkpt><trkpt lat="30.952187033106686" lon="-6.87104673193665"><ele>1140.0</ele><time>2026-04-24T15:15:06Z</time></trkpt><trkpt lat="30.952259173704665" lon="-6.87091024064988"><ele>1140.0</ele><time>2026-04-24T15:15:07Z</time></trkpt><trkpt lat="30.952332294498042" lon="-6.870773079918572"><ele>1140.0</ele><time>2026-04-24T15:15:08Z</time></trkpt><trkpt lat="30.952405277534616" lon="-6.87063617757066"><ele>1139.75</ele><time>2026-04-24T15:15:09Z</time></trkpt><trkpt lat="30.952476982440913" lon="-6.870503281513591"><ele>1139.5</ele><time>2026-04-24T15:15:10Z</time></trkpt><trkpt lat="30.952545184188676" lon="-6.87037574793322"><ele>1139.25</ele><time>2026-04-24T15:15:11Z</time></trkpt><trkpt lat="30.9526134702633" lon="-6.870249103901482"><ele>1139.0</ele><time>2026-04-24T15:15:12Z</time></trkpt><trkpt lat="30.95268225257349" lon="-6.87012119846725"><ele>1137.4</ele><time>2026-04-24T15:15:13Z</time></trkpt><trkpt lat="30.95274746993007" lon="-6.869999497129448"><ele>1135.8000000000002</ele><time>2026-04-24T15:15:14Z</time></trkpt><trkpt lat="30.952803357839926" lon="-6.869894407301804"><ele>1134.1999999999998</ele><time>2026-04-24T15:15:15Z</time></trkpt><trkpt lat="30.952853880251702" lon="-6.869797264848228"><ele>1132.6</ele><time>2026-04-24T15:15:16Z</time></trkpt><trkpt lat="30.952898762729884" lon="-6.8697110931763525"><ele>1131.0</ele><time>2026-04-24T15:15:17Z</time></trkpt><trkpt lat="30.952938713678165" lon="-6.869634006369468"><ele>1131.0</ele><time>2026-04-24T15:15:18Z</time></trkpt><trkpt lat="30.95297514701957" lon="-6.869563706955049"><ele>1131.0</ele><time>2026-04-24T15:15:19Z</time></trkpt><trkpt lat="30.953025003588497" lon="-6.869503183448544"><ele>1131.0</ele><time>2026-04-24T15:15:20Z</time></trkpt><trkpt lat="30.95305552496207" lon="-6.86942700387775"><ele>1131.0</ele><time>2026-04-24T15:15:21Z</time></trkpt><trkpt lat="30.953092791537475" lon="-6.869347203918785"><ele>1131.0</ele><time>2026-04-24T15:15:22Z</time></trkpt><trkpt lat="30.953139299916863" lon="-6.869258000856179"><ele>1131.0</ele><time>2026-04-24T15:15:23Z</time></trkpt><trkpt lat="30.95319616852321" lon="-6.869153284954532"><ele>1129.5</ele><time>2026-04-24T15:15:24Z</time></trkpt><trkpt lat="30.953259023666458" lon="-6.86903153578728"><ele>1128.0</ele><time>2026-04-24T15:15:25Z</time></trkpt><trkpt lat="30.953328232159315" lon="-6.868895732800235"><ele>1126.5</ele><time>2026-04-24T15:15:26Z</time></trkpt><trkpt lat="30.953403732851545" lon="-6.868748559525554"><ele>1125.0</ele><time>2026-04-24T15:15:27Z</time></trkpt><trkpt lat="30.953485712051968" lon="-6.868591917702926"><ele>1123.3333333333333</ele><time>2026-04-24T15:15:28Z</time></trkpt><trkpt lat="30.953571347959407" lon="-6.868423898724798"><ele>1121.6666666666665</ele><time>2026-04-24T15:15:29Z</time></trkpt><trkpt lat="30.9536587437722" lon="-6.86825177570213"><ele>1120.0</ele><time>2026-04-24T15:15:30Z</time></trkpt><trkpt lat="30.95375095129515" lon="-6.868066018077239"><ele>1120.0</ele><time>2026-04-24T15:15:31Z</time></trkpt><trkpt lat="30.953845769961912" lon="-6.86787891020845"><ele>1120.0</ele><time>2026-04-24T15:15:32Z</time></trkpt><trkpt lat="30.953943885042086" lon="-6.86768899935381"><ele>1120.0</ele><time>2026-04-24T15:15:33Z</time></trkpt><trkpt lat="30.954044392198625" lon="-6.867496989706981"><ele>1120.0</ele><time>2026-04-24T15:15:34Z</time></trkpt><trkpt lat="30.9541438840607" lon="-6.8673036299772585"><ele>1120.0</ele><time>2026-04-24T15:15:35Z</time></trkpt><trkpt lat="30.954241861718415" lon="-6.867110962220941"><ele>1120.0</ele><time>2026-04-24T15:15:36Z</time></trkpt><trkpt lat="30.954339586308503" lon="-6.866918860209012"><ele>1123.6666666666665</ele><time>2026-04-24T15:15:37Z</time></trkpt><trkpt lat="30.954439440851168" lon="-6.866726814557147"><ele>1127.3333333333333</ele><time>2026-04-24T15:15:38Z</time></trkpt><trkpt lat="30.954538455527565" lon="-6.8665372274731"><ele>1131.0</ele><time>2026-04-24T15:15:39Z</time></trkpt><trkpt lat="30.9546360738175" lon="-6.8663488025024035"><ele>1131.0</ele><time>2026-04-24T15:15:40Z</time></trkpt><trkpt lat="30.954731337881622" lon="-6.86616132631084"><ele>1131.0</ele><time>2026-04-24T15:15:41Z</time></trkpt><trkpt lat="30.95482727000978" lon="-6.865972444366027"><ele>1131.0</ele><time>2026-04-24T15:15:42Z</time></trkpt><trkpt lat="30.95492380501852" lon="-6.865785008036491"><ele>1132.0</ele><time>2026-04-24T15:15:43Z</time></trkpt><trkpt lat="30.95502131761041" lon="-6.865595771246918"><ele>1133.0</ele><time>2026-04-24T15:15:44Z</time></trkpt><trkpt lat="30.955104482891393" lon="-6.8653958335579395"><ele>1134.0</ele><time>2026-04-24T15:15:45Z</time></trkpt><trkpt lat="30.955202178009962" lon="-6.865204110761007"><ele>1135.0</ele><time>2026-04-24T15:15:46Z</time></trkpt><trkpt lat="30.955300110855465" lon="-6.865011921366614"><ele>1136.0</ele><time>2026-04-24T15:15:47Z</time></trkpt><trkpt lat="30.95539791290317" lon="-6.8648199885333865"><ele>1137.0</ele><time>2026-04-24T15:15:48Z</time></trkpt><trkpt lat="30.955497014052774" lon="-6.864625506375207"><ele>1137.0</ele><time>2026-04-24T15:15:49Z</time></trkpt><trkpt lat="30.95559613926246" lon="-6.864430977098779"><ele>1137.0</ele><time>2026-04-24T15:15:50Z</time></trkpt><trkpt lat="30.955695187061878" lon="-6.864236599516881"><ele>1137.0</ele><time>2026-04-24T15:15:51Z</time></trkpt><trkpt lat="30.955797295436934" lon="-6.864036215752969"><ele>1138.3333333333333</ele><time>2026-04-24T15:15:52Z</time></trkpt><trkpt lat="30.95590257669825" lon="-6.863829605356426"><ele>1139.6666666666665</ele><time>2026-04-24T15:15:53Z</time></trkpt><trkpt lat="30.956008694515813" lon="-6.863621353295199"><ele>1141.0</ele><time>2026-04-24T15:15:54Z</time></trkpt><trkpt lat="30.956114978160777" lon="-6.86341443082433"><ele>1141.0</ele><time>2026-04-24T15:15:55Z</time></trkpt><trkpt lat="30.95622288668808" lon="-6.863205572661675"><ele>1141.0</ele><time>2026-04-24T15:15:56Z</time></trkpt><trkpt lat="30.95633307477017" lon="-6.862992302165212"><ele>1141.0</ele><time>2026-04-24T15:15:57Z</time></trkpt><trkpt lat="30.956444837875665" lon="-6.862775983630494"><ele>1138.0</ele><time>2026-04-24T15:15:58Z</time></trkpt><trkpt lat="30.956557931595295" lon="-6.8625570894303936"><ele>1135.0</ele><time>2026-04-24T15:15:59Z</time></trkpt><trkpt lat="30.956670956457984" lon="-6.862338328609641"><ele>1132.0</ele><time>2026-04-24T15:16:00Z</time></trkpt><trkpt lat="30.95678450136117" lon="-6.8621185609224415"><ele>1132.0</ele><time>2026-04-24T15:16:01Z</time></trkpt><trkpt lat="30.956898822905572" lon="-6.861897290427303"><ele>1132.0</ele><time>2026-04-24T15:16:02Z</time></trkpt><trkpt lat="30.95701044276968" lon="-6.86168052442205"><ele>1132.0</ele><time>2026-04-24T15:16:03Z</time></trkpt><trkpt lat="30.95712276743808" lon="-6.861458385537051"><ele>1132.0</ele><time>2026-04-24T15:16:04Z</time></trkpt><trkpt lat="30.957237575640466" lon="-6.86123133488744"><ele>1132.0</ele><time>2026-04-24T15:16:05Z</time></trkpt><trkpt lat="30.95735442943563" lon="-6.861000238816388"><ele>1132.0</ele><time>2026-04-24T15:16:06Z</time></trkpt><trkpt lat="30.957467703652114" lon="-6.860771581456203"><ele>1132.0</ele><time>2026-04-24T15:16:07Z</time></trkpt><trkpt lat="30.957581016007556" lon="-6.860542603502498"><ele>1132.0</ele><time>2026-04-24T15:16:08Z</time></trkpt><trkpt lat="30.95768951540354" lon="-6.860317027902203"><ele>1132.0</ele><time>2026-04-24T15:16:09Z</time></trkpt><trkpt lat="30.957794408582494" lon="-6.86009048530598"><ele>1132.0</ele><time>2026-04-24T15:16:10Z</time></trkpt><trkpt lat="30.957890917508934" lon="-6.85985917061035"><ele>1133.0</ele><time>2026-04-24T15:16:11Z</time></trkpt><trkpt lat="30.957983912216392" lon="-6.859630225238531"><ele>1134.0</ele><time>2026-04-24T15:16:12Z</time></trkpt><trkpt lat="30.958072941178397" lon="-6.85940217583636"><ele>1135.0</ele><time>2026-04-24T15:16:13Z</time></trkpt><trkpt lat="30.958173641765597" lon="-6.859184794676136"><ele>1135.0</ele><time>2026-04-24T15:16:14Z</time></trkpt><trkpt lat="30.95825839495657" lon="-6.858960023947894"><ele>1135.0</ele><time>2026-04-24T15:16:15Z</time></trkpt><trkpt lat="30.958342509539598" lon="-6.858732253277825"><ele>1135.0</ele><time>2026-04-24T15:16:16Z</time></trkpt><trkpt lat="30.958428340116917" lon="-6.858504269801364"><ele>1135.3333333333333</ele><time>2026-04-24T15:16:17Z</time></trkpt><trkpt lat="30.958513199398634" lon="-6.858277103446728"><ele>1135.6666666666667</ele><time>2026-04-24T15:16:18Z</time></trkpt><trkpt lat="30.958600084713172" lon="-6.858047521951627"><ele>1136.0</ele><time>2026-04-24T15:16:19Z</time></trkpt><trkpt lat="30.958686738865335" lon="-6.857818057500718"><ele>1135.6666666666667</ele><time>2026-04-24T15:16:20Z</time></trkpt><trkpt lat="30.958770022609073" lon="-6.8575906302119725"><ele>1135.3333333333333</ele><time>2026-04-24T15:16:21Z</time></trkpt><trkpt lat="30.958850947199263" lon="-6.857369133509862"><ele>1135.0</ele><time>2026-04-24T15:16:22Z</time></trkpt><trkpt lat="30.9589305236211" lon="-6.8571572988466585"><ele>1135.0</ele><time>2026-04-24T15:16:23Z</time></trkpt><trkpt lat="30.95900170490799" lon="-6.8569574270383855"><ele>1135.0</ele><time>2026-04-24T15:16:24Z</time></trkpt><trkpt lat="30.959070549752308" lon="-6.8567705505046685"><ele>1135.0</ele><time>2026-04-24T15:16:25Z</time></trkpt><trkpt lat="30.95913724405132" lon="-6.8565939315547855"><ele>1135.3333333333333</ele><time>2026-04-24T15:16:26Z</time></trkpt><trkpt lat="30.95920050638506" lon="-6.856428204939835"><ele>1135.6666666666667</ele><time>2026-04-24T15:16:27Z</time></trkpt><trkpt lat="30.95925788315686" lon="-6.856265582936116"><ele>1136.0</ele><time>2026-04-24T15:16:28Z</time></trkpt><trkpt lat="30.959316209202942" lon="-6.85610773086826"><ele>1135.75</ele><time>2026-04-24T15:16:29Z</time></trkpt><trkpt lat="30.959375874549647" lon="-6.855952407846443"><ele>1135.5</ele><time>2026-04-24T15:16:30Z</time></trkpt><trkpt lat="30.959434128522485" lon="-6.855793925232499"><ele>1135.25</ele><time>2026-04-24T15:16:31Z</time></trkpt><trkpt lat="30.95948715034983" lon="-6.855633877219501"><ele>1135.0</ele><time>2026-04-24T15:16:32Z</time></trkpt><trkpt lat="30.959527637575114" lon="-6.85546630213807"><ele>1135.0</ele><time>2026-04-24T15:16:33Z</time></trkpt><trkpt lat="30.95956684682833" lon="-6.855295234716412"><ele>1135.0</ele><time>2026-04-24T15:16:34Z</time></trkpt><trkpt lat="30.95961252932291" lon="-6.8551386782970924"><ele>1135.0</ele><time>2026-04-24T15:16:35Z</time></trkpt><trkpt lat="30.95966368844442" lon="-6.854987505630347"><ele>1135.0</ele><time>2026-04-24T15:16:36Z</time></trkpt><trkpt lat="30.959715441621235" lon="-6.85484625313227"><ele>1134.5</ele><time>2026-04-24T15:16:37Z</time></trkpt><trkpt lat="30.95977158093889" lon="-6.854713850590551"><ele>1134.0</ele><time>2026-04-24T15:16:38Z</time></trkpt><trkpt lat="30.959832328339747" lon="-6.854589918554838"><ele>1133.5</ele><time>2026-04-24T15:16:39Z</time></trkpt><trkpt lat="30.959890885157495" lon="-6.854479122750406"><ele>1133.0</ele><time>2026-04-24T15:16:40Z</time></trkpt><trkpt lat="30.959943887334923" lon="-6.8543710237286595"><ele>1133.5</ele><time>2026-04-24T15:16:41Z</time></trkpt><trkpt lat="30.959992776550912" lon="-6.854261627583185"><ele>1134.0</ele><time>2026-04-24T15:16:42Z</time></trkpt><trkpt lat="30.960039652170458" lon="-6.8541482297906775"><ele>1134.5</ele><time>2026-04-24T15:16:43Z</time></trkpt><trkpt lat="30.96008477064199" lon="-6.854022609953826"><ele>1135.0</ele><time>2026-04-24T15:16:44Z</time></trkpt><trkpt lat="30.96013794084129" lon="-6.853882619833566"><ele>1135.0</ele><time>2026-04-24T15:16:45Z</time></trkpt><trkpt lat="30.96019729763572" lon="-6.85373144149408"><ele>1135.0</ele><time>2026-04-24T15:16:46Z</time></trkpt><trkpt lat="30.960261566919606" lon="-6.853574741348034"><ele>1135.0</ele><time>2026-04-24T15:16:47Z</time></trkpt><trkpt lat="30.960324362620426" lon="-6.853415212555831"><ele>1135.0</ele><time>2026-04-24T15:16:48Z</time></trkpt><trkpt lat="30.96037381212076" lon="-6.853270176150846"><ele>1136.0</ele><time>2026-04-24T15:16:49Z</time></trkpt><trkpt lat="30.96041516003966" lon="-6.8531464953764605"><ele>1137.0</ele><time>2026-04-24T15:16:50Z</time></trkpt><trkpt lat="30.9604457871217" lon="-6.853055990498606"><ele>1138.0</ele><time>2026-04-24T15:16:51Z</time></trkpt><trkpt lat="30.960471305015243" lon="-6.852977775152253"><ele>1139.0</ele><time>2026-04-24T15:16:52Z</time></trkpt><trkpt lat="30.96051186095617" lon="-6.852865466700214"><ele>1140.0</ele><time>2026-04-24T15:16:54Z</time></trkpt><trkpt lat="30.960548147862372" lon="-6.852764781987791"><ele>1140.0</ele><time>2026-04-24T15:16:56Z</time></trkpt><trkpt lat="30.960590022341343" lon="-6.852650297001762"><ele>1140.0</ele><time>2026-04-24T15:16:58Z</time></trkpt><trkpt lat="30.960615377245137" lon="-6.85257444838705"><ele>1140.0</ele><time>2026-04-24T15:16:59Z</time></trkpt><trkpt lat="30.96064294283916" lon="-6.852495581420872"><ele>1140.0</ele><time>2026-04-24T15:17:00Z</time></trkpt><trkpt lat="30.960673287700164" lon="-6.852411431335469"><ele>1140.0</ele><time>2026-04-24T15:17:01Z</time></trkpt><trkpt lat="30.96070627034856" lon="-6.852328130958084"><ele>1140.0</ele><time>2026-04-24T15:17:02Z</time></trkpt><trkpt lat="30.960740953045452" lon="-6.852239807563797"><ele>1140.0</ele><time>2026-04-24T15:17:03Z</time></trkpt><trkpt lat="30.960775046541876" lon="-6.852144662797395"><ele>1140.0</ele><time>2026-04-24T15:17:04Z</time></trkpt><trkpt lat="30.96080922668008" lon="-6.852045691351399"><ele>1140.0</ele><time>2026-04-24T15:17:05Z</time></trkpt><trkpt lat="30.960845239974585" lon="-6.851944906661196"><ele>1140.0</ele><time>2026-04-24T15:17:06Z</time></trkpt><trkpt lat="30.960886579827886" lon="-6.8518383932398095"><ele>1140.0</ele><time>2026-04-24T15:17:07Z</time></trkpt><trkpt lat="30.96092980000596" lon="-6.851726661045328"><ele>1141.25</ele><time>2026-04-24T15:17:08Z</time></trkpt><trkpt lat="30.960980223661295" lon="-6.851610083950816"><ele>1142.5</ele><time>2026-04-24T15:17:09Z</time></trkpt><trkpt lat="30.96103746691872" lon="-6.851480479272228"><ele>1143.75</ele><time>2026-04-24T15:17:10Z</time></trkpt><trkpt lat="30.961096636112746" lon="-6.85132834433025"><ele>1145.0</ele><time>2026-04-24T15:17:11Z</time></trkpt><trkpt lat="30.961168567068608" lon="-6.851136595512322"><ele>1145.6666666666667</ele><time>2026-04-24T15:17:12Z</time></trkpt><trkpt lat="30.961246273547196" lon="-6.850933248448883"><ele>1146.3333333333333</ele><time>2026-04-24T15:17:13Z</time></trkpt><trkpt lat="30.961325640619634" lon="-6.850723609453891"><ele>1147.0</ele><time>2026-04-24T15:17:14Z</time></trkpt><trkpt lat="30.961401818780523" lon="-6.850498965853447"><ele>1147.0</ele><time>2026-04-24T15:17:15Z</time></trkpt><trkpt lat="30.96147633510772" lon="-6.850275607025782"><ele>1147.0</ele><time>2026-04-24T15:17:16Z</time></trkpt><trkpt lat="30.961556537273573" lon="-6.850056596978272"><ele>1147.0</ele><time>2026-04-24T15:17:17Z</time></trkpt><trkpt lat="30.96163629863057" lon="-6.849845334731202"><ele>1148.0</ele><time>2026-04-24T15:17:18Z</time></trkpt><trkpt lat="30.96170937465474" lon="-6.849641957938743"><ele>1149.0</ele><time>2026-04-24T15:17:19Z</time></trkpt><trkpt lat="30.961781134572387" lon="-6.849441290832266"><ele>1150.0</ele><time>2026-04-24T15:17:20Z</time></trkpt><trkpt lat="30.961855760277235" lon="-6.849241641977563"><ele>1150.0</ele><time>2026-04-24T15:17:21Z</time></trkpt><trkpt lat="30.96193277894957" lon="-6.849041790916243"><ele>1150.0</ele><time>2026-04-24T15:17:22Z</time></trkpt><trkpt lat="30.962010494935203" lon="-6.8488413989489745"><ele>1150.0</ele><time>2026-04-24T15:17:23Z</time></trkpt><trkpt lat="30.96208662427938" lon="-6.848641323556067"><ele>1149.0</ele><time>2026-04-24T15:17:24Z</time></trkpt><trkpt lat="30.962157770792135" lon="-6.848445225028051"><ele>1148.0</ele><time>2026-04-24T15:17:25Z</time></trkpt><trkpt lat="30.962225788952495" lon="-6.848251057680581"><ele>1147.0</ele><time>2026-04-24T15:17:26Z</time></trkpt><trkpt lat="30.9622992847308" lon="-6.848059625524646"><ele>1147.0</ele><time>2026-04-24T15:17:27Z</time></trkpt><trkpt lat="30.96238044341121" lon="-6.84787824480411"><ele>1147.0</ele><time>2026-04-24T15:17:28Z</time></trkpt><trkpt lat="30.962469813552595" lon="-6.847702219772062"><ele>1147.0</ele><time>2026-04-24T15:17:29Z</time></trkpt><trkpt lat="30.96256796828647" lon="-6.847529275108883"><ele>1148.6666666666665</ele><time>2026-04-24T15:17:30Z</time></trkpt><trkpt lat="30.96266669206875" lon="-6.8473600952282405"><ele>1150.3333333333333</ele><time>2026-04-24T15:17:31Z</time></trkpt><trkpt lat="30.962763107735736" lon="-6.847191875305853"><ele>1152.0</ele><time>2026-04-24T15:17:32Z</time></trkpt><trkpt lat="30.962856536316895" lon="-6.847029136861252"><ele>1152.0</ele><time>2026-04-24T15:17:33Z</time></trkpt><trkpt lat="30.962946610183497" lon="-6.846869321102093"><ele>1152.0</ele><time>2026-04-24T15:17:34Z</time></trkpt><trkpt lat="30.963035355580896" lon="-6.8467050450993625"><ele>1152.0</ele><time>2026-04-24T15:17:35Z</time></trkpt><trkpt lat="30.963124183409633" lon="-6.846529185861121"><ele>1148.3333333333333</ele><time>2026-04-24T15:17:36Z</time></trkpt><trkpt lat="30.963211543399087" lon="-6.846356150879673"><ele>1144.6666666666665</ele><time>2026-04-24T15:17:37Z</time></trkpt><trkpt lat="30.963298444673338" lon="-6.84619274837275"><ele>1141.0</ele><time>2026-04-24T15:17:38Z</time></trkpt><trkpt lat="30.9633945213226" lon="-6.846029995889463"><ele>1141.0</ele><time>2026-04-24T15:17:39Z</time></trkpt><trkpt lat="30.963496193797297" lon="-6.845867583981334"><ele>1141.0</ele><time>2026-04-24T15:17:40Z</time></trkpt><trkpt lat="30.96359997892037" lon="-6.845709098443692"><ele>1141.0</ele><time>2026-04-24T15:17:41Z</time></trkpt><trkpt lat="30.96370128475429" lon="-6.845553337914314"><ele>1141.0</ele><time>2026-04-24T15:17:42Z</time></trkpt><trkpt lat="30.96379448463944" lon="-6.845403280431058"><ele>1141.0</ele><time>2026-04-24T15:17:43Z</time></trkpt><trkpt lat="30.963879743007727" lon="-6.845264502114641"><ele>1141.0</ele><time>2026-04-24T15:17:44Z</time></trkpt><trkpt lat="30.9639602722283" lon="-6.845136188401503"><ele>1141.0</ele><time>2026-04-24T15:17:45Z</time></trkpt><trkpt lat="30.964035417271088" lon="-6.845014881606841"><ele>1142.0</ele><time>2026-04-24T15:17:46Z</time></trkpt><trkpt lat="30.964109800842298" lon="-6.8448945431941075"><ele>1143.0</ele><time>2026-04-24T15:17:47Z</time></trkpt><trkpt lat="30.964184912834916" lon="-6.844773906408972"><ele>1144.0</ele><time>2026-04-24T15:17:48Z</time></trkpt><trkpt lat="30.9642604282834" lon="-6.844648312045686"><ele>1145.0</ele><time>2026-04-24T15:17:49Z</time></trkpt><trkpt lat="30.96433655254834" lon="-6.844518756137863"><ele>1145.75</ele><time>2026-04-24T15:17:50Z</time></trkpt><trkpt lat="30.964415709215665" lon="-6.84438881162542"><ele>1146.5</ele><time>2026-04-24T15:17:51Z</time></trkpt><trkpt lat="30.964494487097394" lon="-6.844259370451116"><ele>1147.25</ele><time>2026-04-24T15:17:52Z</time></trkpt><trkpt lat="30.964576460794664" lon="-6.844127522227106"><ele>1148.0</ele><time>2026-04-24T15:17:53Z</time></trkpt><trkpt lat="30.964658433205628" lon="-6.843990508575592"><ele>1149.0</ele><time>2026-04-24T15:17:54Z</time></trkpt><trkpt lat="30.964739196753133" lon="-6.843845445067642"><ele>1150.0</ele><time>2026-04-24T15:17:55Z</time></trkpt><trkpt lat="30.964821923764028" lon="-6.843705386310435"><ele>1151.0</ele><time>2026-04-24T15:17:56Z</time></trkpt><trkpt lat="30.96490260185837" lon="-6.843573031356398"><ele>1152.0</ele><time>2026-04-24T15:17:57Z</time></trkpt><trkpt lat="30.96498436380432" lon="-6.8434400625443175"><ele>1156.5</ele><time>2026-04-24T15:17:58Z</time></trkpt><trkpt lat="30.965066630181724" lon="-6.84330622233752"><ele>1161.0</ele><time>2026-04-24T15:17:59Z</time></trkpt><trkpt lat="30.965146080500354" lon="-6.843179254982324"><ele>1165.5</ele><time>2026-04-24T15:18:00Z</time></trkpt><trkpt lat="30.965226689258348" lon="-6.843051238610406"><ele>1170.0</ele><time>2026-04-24T15:18:01Z</time></trkpt><trkpt lat="30.965305860649064" lon="-6.842927112491461"><ele>1170.0</ele><time>2026-04-24T15:18:02Z</time></trkpt><trkpt lat="30.965383823447414" lon="-6.84280166375123"><ele>1170.0</ele><time>2026-04-24T15:18:03Z</time></trkpt><trkpt lat="30.965465124450652" lon="-6.842679912319761"><ele>1170.0</ele><time>2026-04-24T15:18:04Z</time></trkpt><trkpt lat="30.965545858334263" lon="-6.8425702375951865"><ele>1170.0</ele><time>2026-04-24T15:18:05Z</time></trkpt><trkpt lat="30.965631087770106" lon="-6.842464242104788"><ele>1170.75</ele><time>2026-04-24T15:18:06Z</time></trkpt><trkpt lat="30.96572157726808" lon="-6.842357251063587"><ele>1171.5</ele><time>2026-04-24T15:18:07Z</time></trkpt><trkpt lat="30.96581218383585" lon="-6.842253523980618"><ele>1172.25</ele><time>2026-04-24T15:18:08Z</time></trkpt><trkpt lat="30.965902239210592" lon="-6.842153893103191"><ele>1173.0</ele><time>2026-04-24T15:18:09Z</time></trkpt><trkpt lat="30.965993502573557" lon="-6.842061064107545"><ele>1173.0</ele><time>2026-04-24T15:18:10Z</time></trkpt><trkpt lat="30.966085541833625" lon="-6.841971743028829"><ele>1173.0</ele><time>2026-04-24T15:18:11Z</time></trkpt><trkpt lat="30.966178990418356" lon="-6.84188263891793"><ele>1173.0</ele><time>2026-04-24T15:18:12Z</time></trkpt><trkpt lat="30.966270887751147" lon="-6.841793402045935"><ele>1173.0</ele><time>2026-04-24T15:18:13Z</time></trkpt><trkpt lat="30.966363669926018" lon="-6.84170718932305"><ele>1173.0</ele><time>2026-04-24T15:18:14Z</time></trkpt><trkpt lat="30.96646189698577" lon="-6.841619379175379"><ele>1173.0</ele><time>2026-04-24T15:18:15Z</time></trkpt><trkpt lat="30.9665596102027" lon="-6.841532669911551"><ele>1173.0</ele><time>2026-04-24T15:18:16Z</time></trkpt><trkpt lat="30.966655227082477" lon="-6.841450131954823"><ele>1173.0</ele><time>2026-04-24T15:18:17Z</time></trkpt><trkpt lat="30.966750996512225" lon="-6.841365746599687"><ele>1173.5</ele><time>2026-04-24T15:18:18Z</time></trkpt><trkpt lat="30.96684581722359" lon="-6.841282588286324"><ele>1174.0</ele><time>2026-04-24T15:18:19Z</time></trkpt><trkpt lat="30.966945692466112" lon="-6.841194145299363"><ele>1174.5</ele><time>2026-04-24T15:18:20Z</time></trkpt><trkpt lat="30.9670481346805" lon="-6.841101190780393"><ele>1175.0</ele><time>2026-04-24T15:18:21Z</time></trkpt><trkpt lat="30.96715335089802" lon="-6.84100466068514"><ele>1175.25</ele><time>2026-04-24T15:18:22Z</time></trkpt><trkpt lat="30.967259621091767" lon="-6.84090706261335"><ele>1175.5</ele><time>2026-04-24T15:18:23Z</time></trkpt><trkpt lat="30.967367446658947" lon="-6.840806603338715"><ele>1175.75</ele><time>2026-04-24T15:18:24Z</time></trkpt><trkpt lat="30.96747597162326" lon="-6.840702971131025"><ele>1176.0</ele><time>2026-04-24T15:18:25Z</time></trkpt><trkpt lat="30.96758850561133" lon="-6.840599266920189"><ele>1176.0</ele><time>2026-04-24T15:18:26Z</time></trkpt><trkpt lat="30.967710618649296" lon="-6.840492641036681"><ele>1176.0</ele><time>2026-04-24T15:18:27Z</time></trkpt><trkpt lat="30.967835385048048" lon="-6.840380827050698"><ele>1176.0</ele><time>2026-04-24T15:18:28Z</time></trkpt><trkpt lat="30.967950650625294" lon="-6.840276785992321"><ele>1176.0</ele><time>2026-04-24T15:18:29Z</time></trkpt><trkpt lat="30.968062693088346" lon="-6.840171753526511"><ele>1176.0</ele><time>2026-04-24T15:18:30Z</time></trkpt><trkpt lat="30.968172396529134" lon="-6.840071474086023"><ele>1176.0</ele><time>2026-04-24T15:18:31Z</time></trkpt><trkpt lat="30.968277412540747" lon="-6.839973846040655"><ele>1176.0</ele><time>2026-04-24T15:18:32Z</time></trkpt><trkpt lat="30.968380951361603" lon="-6.839879209110195"><ele>1173.0</ele><time>2026-04-24T15:18:33Z</time></trkpt><trkpt lat="30.968481069371098" lon="-6.839786317358654"><ele>1170.0</ele><time>2026-04-24T15:18:34Z</time></trkpt><trkpt lat="30.96857757916518" lon="-6.839693314518122"><ele>1167.0</ele><time>2026-04-24T15:18:35Z</time></trkpt><trkpt lat="30.968670759472612" lon="-6.839601821005014"><ele>1164.0</ele><time>2026-04-24T15:18:36Z</time></trkpt><trkpt lat="30.968762785408874" lon="-6.839510533500093"><ele>1164.0</ele><time>2026-04-24T15:18:37Z</time></trkpt><trkpt lat="30.968856905324408" lon="-6.839417418049944"><ele>1164.0</ele><time>2026-04-24T15:18:38Z</time></trkpt><trkpt lat="30.968944792256476" lon="-6.839328187294011"><ele>1164.0</ele><time>2026-04-24T15:18:39Z</time></trkpt><trkpt lat="30.969019238199337" lon="-6.83924676206557"><ele>1164.0</ele><time>2026-04-24T15:18:40Z</time></trkpt><trkpt lat="30.96908814828628" lon="-6.839158576434907"><ele>1164.0</ele><time>2026-04-24T15:18:41Z</time></trkpt><trkpt lat="30.96915890020148" lon="-6.83906210739939"><ele>1162.8</ele><time>2026-04-24T15:18:42Z</time></trkpt><trkpt lat="30.969227914981484" lon="-6.838966069579705"><ele>1161.6000000000001</ele><time>2026-04-24T15:18:43Z</time></trkpt><trkpt lat="30.969297403501294" lon="-6.838871726947232"><ele>1160.4</ele><time>2026-04-24T15:18:44Z</time></trkpt><trkpt lat="30.96936887518224" lon="-6.838773381594837"><ele>1159.2</ele><time>2026-04-24T15:18:45Z</time></trkpt><trkpt lat="30.969439433959916" lon="-6.838669024392617"><ele>1158.0</ele><time>2026-04-24T15:18:46Z</time></trkpt><trkpt lat="30.969508075600583" lon="-6.838561657024734"><ele>1157.25</ele><time>2026-04-24T15:18:47Z</time></trkpt><trkpt lat="30.969573382440416" lon="-6.838448756143485"><ele>1156.5</ele><time>2026-04-24T15:18:48Z</time></trkpt><trkpt lat="30.969629979844324" lon="-6.838333139023048"><ele>1155.75</ele><time>2026-04-24T15:18:49Z</time></trkpt><trkpt lat="30.969685078605345" lon="-6.838218033734047"><ele>1155.0</ele><time>2026-04-24T15:18:50Z</time></trkpt><trkpt lat="30.969739726613223" lon="-6.838102160769189"><ele>1155.0</ele><time>2026-04-24T15:18:51Z</time></trkpt><trkpt lat="30.96979410036842" lon="-6.837981963357231"><ele>1155.0</ele><time>2026-04-24T15:18:52Z</time></trkpt><trkpt lat="30.96984724652302" lon="-6.837855371668525"><ele>1155.0</ele><time>2026-04-24T15:18:53Z</time></trkpt><trkpt lat="30.969900538493974" lon="-6.837728211645966"><ele>1155.0</ele><time>2026-04-24T15:18:54Z</time></trkpt><trkpt lat="30.969951796540624" lon="-6.837589417710432"><ele>1154.75</ele><time>2026-04-24T15:18:55Z</time></trkpt><trkpt lat="30.970000419711962" lon="-6.837446038248163"><ele>1154.5</ele><time>2026-04-24T15:18:56Z</time></trkpt><trkpt lat="30.970047190379304" lon="-6.837301168807347"><ele>1154.25</ele><time>2026-04-24T15:18:57Z</time></trkpt><trkpt lat="30.97009798961391" lon="-6.837153945866534"><ele>1154.0</ele><time>2026-04-24T15:18:58Z</time></trkpt><trkpt lat="30.970154494352016" lon="-6.837006161355931"><ele>1154.0</ele><time>2026-04-24T15:18:59Z</time></trkpt><trkpt lat="30.970212483103406" lon="-6.836854325069671"><ele>1154.0</ele><time>2026-04-24T15:19:00Z</time></trkpt><trkpt lat="30.970242695468446" lon="-6.8367112087499144"><ele>1154.0</ele><time>2026-04-24T15:19:01Z</time></trkpt><trkpt lat="30.970274181794384" lon="-6.836577831009237"><ele>1154.0</ele><time>2026-04-24T15:19:02Z</time></trkpt><trkpt lat="30.97031013949903" lon="-6.836425728508844"><ele>1154.3333333333335</ele><time>2026-04-24T15:19:03Z</time></trkpt><trkpt lat="30.970354962592438" lon="-6.836238801500224"><ele>1154.6666666666667</ele><time>2026-04-24T15:19:04Z</time></trkpt><trkpt lat="30.97040397375271" lon="-6.836032722623779"><ele>1155.0</ele><time>2026-04-24T15:19:05Z</time></trkpt><trkpt lat="30.97045431636193" lon="-6.8358217832879244"><ele>1155.0</ele><time>2026-04-24T15:19:06Z</time></trkpt><trkpt lat="30.9705171765143" lon="-6.835614625509294"><ele>1155.0</ele><time>2026-04-24T15:19:07Z</time></trkpt><trkpt lat="30.97055894000319" lon="-6.835402764232973"><ele>1155.0</ele><time>2026-04-24T15:19:08Z</time></trkpt><trkpt lat="30.97060204350448" lon="-6.835196004131159"><ele>1154.0</ele><time>2026-04-24T15:19:09Z</time></trkpt><trkpt lat="30.970651263757865" lon="-6.834996282547872"><ele>1153.0</ele><time>2026-04-24T15:19:10Z</time></trkpt><trkpt lat="30.970698353214388" lon="-6.834797884362086"><ele>1152.0</ele><time>2026-04-24T15:19:11Z</time></trkpt><trkpt lat="30.97074207605151" lon="-6.834603959346959"><ele>1152.0</ele><time>2026-04-24T15:19:12Z</time></trkpt><trkpt lat="30.97078835266365" lon="-6.834412485672947"><ele>1152.0</ele><time>2026-04-24T15:19:13Z</time></trkpt><trkpt lat="30.970833814506754" lon="-6.834219808656751"><ele>1152.0</ele><time>2026-04-24T15:19:14Z</time></trkpt><trkpt lat="30.97087602509395" lon="-6.834033128125567"><ele>1151.75</ele><time>2026-04-24T15:19:15Z</time></trkpt><trkpt lat="30.970911626555782" lon="-6.833862483362378"><ele>1151.5</ele><time>2026-04-24T15:19:16Z</time></trkpt><trkpt lat="30.970943917904247" lon="-6.833706524973063"><ele>1151.25</ele><time>2026-04-24T15:19:17Z</time></trkpt><trkpt lat="30.97097274539053" lon="-6.833567915933327"><ele>1151.0</ele><time>2026-04-24T15:19:18Z</time></trkpt><trkpt lat="30.970997679970594" lon="-6.833450297904266"><ele>1150.8333333333335</ele><time>2026-04-24T15:19:19Z</time></trkpt><trkpt lat="30.971019209454244" lon="-6.833360199340358"><ele>1150.6666666666667</ele><time>2026-04-24T15:19:20Z</time></trkpt><trkpt lat="30.97103950569768" lon="-6.833269473267429"><ele>1150.5</ele><time>2026-04-24T15:19:21Z</time></trkpt><trkpt lat="30.971061304701035" lon="-6.833180131543436"><ele>1150.3333333333333</ele><time>2026-04-24T15:19:22Z</time></trkpt><trkpt lat="30.971088381327014" lon="-6.833093650372428"><ele>1150.1666666666665</ele><time>2026-04-24T15:19:23Z</time></trkpt><trkpt lat="30.971112004778927" lon="-6.832998432705872"><ele>1150.0</ele><time>2026-04-24T15:19:24Z</time></trkpt><trkpt lat="30.971133172158975" lon="-6.832891228720016"><ele>1150.0</ele><time>2026-04-24T15:19:25Z</time></trkpt><trkpt lat="30.97115845632961" lon="-6.83277782299488"><ele>1150.0</ele><time>2026-04-24T15:19:26Z</time></trkpt><trkpt lat="30.971182705018144" lon="-6.832665265375646"><ele>1150.0</ele><time>2026-04-24T15:19:27Z</time></trkpt><trkpt lat="30.971205861898795" lon="-6.832554997632998"><ele>1150.0</ele><time>2026-04-24T15:19:28Z</time></trkpt><trkpt lat="30.971227462272694" lon="-6.832449623094546"><ele>1150.0</ele><time>2026-04-24T15:19:29Z</time></trkpt><trkpt lat="30.971252181766705" lon="-6.832339540763947"><ele>1149.6666666666665</ele><time>2026-04-24T15:19:30Z</time></trkpt><trkpt lat="30.97127707479091" lon="-6.832237016728724"><ele>1149.3333333333333</ele><time>2026-04-24T15:19:31Z</time></trkpt><trkpt lat="30.971300888043483" lon="-6.8321383424358775"><ele>1149.0</ele><time>2026-04-24T15:19:32Z</time></trkpt><trkpt lat="30.971323451174793" lon="-6.83204128155029"><ele>1148.6666666666667</ele><time>2026-04-24T15:19:33Z</time></trkpt><trkpt lat="30.971346020047005" lon="-6.831945716165593"><ele>1148.3333333333335</ele><time>2026-04-24T15:19:34Z</time></trkpt><trkpt lat="30.971370319464814" lon="-6.8318495160880435"><ele>1148.0</ele><time>2026-04-24T15:19:35Z</time></trkpt><trkpt lat="30.97139383339239" lon="-6.831761340233266"><ele>1147.4285714285713</ele><time>2026-04-24T15:19:36Z</time></trkpt><trkpt lat="30.971417837322488" lon="-6.831683042108882"><ele>1146.857142857143</ele><time>2026-04-24T15:19:37Z</time></trkpt><trkpt lat="30.971437980762627" lon="-6.831610143916832"><ele>1146.2857142857142</ele><time>2026-04-24T15:19:38Z</time></trkpt><trkpt lat="30.971455480322028" lon="-6.831528696091916"><ele>1145.7142857142858</ele><time>2026-04-24T15:19:39Z</time></trkpt><trkpt lat="30.971472627328936" lon="-6.831446891214987"><ele>1145.142857142857</ele><time>2026-04-24T15:19:40Z</time></trkpt><trkpt lat="30.97149042079912" lon="-6.831363969968612"><ele>1144.5714285714284</ele><time>2026-04-24T15:19:41Z</time></trkpt><trkpt lat="30.97150875642755" lon="-6.831283832155102"><ele>1144.0</ele><time>2026-04-24T15:19:42Z</time></trkpt><trkpt lat="30.971523473043916" lon="-6.831205473476853"><ele>1143.9999999999998</ele><time>2026-04-24T15:19:43Z</time></trkpt><trkpt lat="30.97153766804011" lon="-6.831125224954863"><ele>1144.0</ele><time>2026-04-24T15:19:44Z</time></trkpt><trkpt lat="30.971554280900726" lon="-6.83104313612227"><ele>1144.0</ele><time>2026-04-24T15:19:45Z</time></trkpt><trkpt lat="30.97157334631168" lon="-6.830964128274928"><ele>1144.0</ele><time>2026-04-24T15:19:46Z</time></trkpt><trkpt lat="30.971595178843206" lon="-6.830885507622286"><ele>1144.0</ele><time>2026-04-24T15:19:47Z</time></trkpt><trkpt lat="30.971616423642928" lon="-6.830805717172303"><ele>1143.9999999999998</ele><time>2026-04-24T15:19:48Z</time></trkpt><trkpt lat="30.971635553058782" lon="-6.830727942633195"><ele>1144.0</ele><time>2026-04-24T15:19:49Z</time></trkpt><trkpt lat="30.97165515908943" lon="-6.830654403824427"><ele>1143.7142857142856</ele><time>2026-04-24T15:19:50Z</time></trkpt><trkpt lat="30.971675641181644" lon="-6.830583625862011"><ele>1143.4285714285713</ele><time>2026-04-24T15:19:51Z</time></trkpt><trkpt lat="30.97169248474122" lon="-6.830511026477171"><ele>1143.142857142857</ele><time>2026-04-24T15:19:52Z</time></trkpt><trkpt lat="30.971707021117645" lon="-6.830437211491812"><ele>1142.8571428571427</ele><time>2026-04-24T15:19:53Z</time></trkpt><trkpt lat="30.97172426538562" lon="-6.830363155829656"><ele>1142.5714285714284</ele><time>2026-04-24T15:19:54Z</time></trkpt><trkpt lat="30.971744185638627" lon="-6.830283345172895"><ele>1142.2857142857142</ele><time>2026-04-24T15:19:55Z</time></trkpt><trkpt lat="30.97176614977732" lon="-6.830199614678758"><ele>1142.0</ele><time>2026-04-24T15:19:56Z</time></trkpt><trkpt lat="30.971756218515473" lon="-6.830097059785853"><ele>1141.4</ele><time>2026-04-24T15:19:57Z</time></trkpt><trkpt lat="30.971782744174575" lon="-6.829991839802263"><ele>1140.8000000000002</ele><time>2026-04-24T15:19:58Z</time></trkpt><trkpt lat="30.971813228887452" lon="-6.829872895665051"><ele>1140.2</ele><time>2026-04-24T15:19:59Z</time></trkpt><trkpt lat="30.971847199484348" lon="-6.829740350432292"><ele>1139.6000000000001</ele><time>2026-04-24T15:20:00Z</time></trkpt><trkpt lat="30.97188045592283" lon="-6.829607948661591"><ele>1139.0</ele><time>2026-04-24T15:20:01Z</time></trkpt><trkpt lat="30.971913828337936" lon="-6.829474942652783"><ele>1139.0</ele><time>2026-04-24T15:20:02Z</time></trkpt><trkpt lat="30.971946397947722" lon="-6.829347274645747"><ele>1139.0</ele><time>2026-04-24T15:20:03Z</time></trkpt><trkpt lat="30.971981526320015" lon="-6.8292087515637565"><ele>1139.0</ele><time>2026-04-24T15:20:04Z</time></trkpt><trkpt lat="30.972019618755496" lon="-6.8290588724685355"><ele>1139.0</ele><time>2026-04-24T15:20:05Z</time></trkpt><trkpt lat="30.972059636142237" lon="-6.8289000647991465"><ele>1138.0</ele><time>2026-04-24T15:20:06Z</time></trkpt><trkpt lat="30.97210008461983" lon="-6.8287337992343895"><ele>1137.0</ele><time>2026-04-24T15:20:07Z</time></trkpt><trkpt lat="30.972142509313127" lon="-6.828559897638354"><ele>1136.0</ele><time>2026-04-24T15:20:08Z</time></trkpt><trkpt lat="30.972186197538214" lon="-6.828380171926762"><ele>1135.6666666666667</ele><time>2026-04-24T15:20:09Z</time></trkpt><trkpt lat="30.972230307612417" lon="-6.8281953741648405"><ele>1135.3333333333333</ele><time>2026-04-24T15:20:10Z</time></trkpt><trkpt lat="30.972292011504575" lon="-6.828007069840077"><ele>1135.0</ele><time>2026-04-24T15:20:11Z</time></trkpt><trkpt lat="30.972338747277846" lon="-6.827802639940082"><ele>1135.0</ele><time>2026-04-24T15:20:12Z</time></trkpt><trkpt lat="30.97238724865717" lon="-6.827596836510559"><ele>1135.0</ele><time>2026-04-24T15:20:13Z</time></trkpt><trkpt lat="30.972436288816404" lon="-6.827386223716506"><ele>1135.0</ele><time>2026-04-24T15:20:14Z</time></trkpt><trkpt lat="30.972486085966032" lon="-6.827172126497807"><ele>1135.3333333333333</ele><time>2026-04-24T15:20:15Z</time></trkpt><trkpt lat="30.97253706975475" lon="-6.826954871398821"><ele>1135.6666666666667</ele><time>2026-04-24T15:20:16Z</time></trkpt><trkpt lat="30.97258822787357" lon="-6.8267345955731065"><ele>1136.0</ele><time>2026-04-24T15:20:17.001Z</time></trkpt><trkpt lat="30.972639240864574" lon="-6.826511238405208"><ele>1136.0</ele><time>2026-04-24T15:20:18.001Z</time></trkpt><trkpt lat="30.97269141323681" lon="-6.826284028647394"><ele>1136.0</ele><time>2026-04-24T15:20:19.001Z</time></trkpt><trkpt lat="30.97274435871894" lon="-6.826056283810916"><ele>1136.0</ele><time>2026-04-24T15:20:20.001Z</time></trkpt><trkpt lat="30.972800195102486" lon="-6.825822380161095"><ele>1136.0</ele><time>2026-04-24T15:20:21.001Z</time></trkpt><trkpt lat="30.972855807270303" lon="-6.825580082065081"><ele>1136.0</ele><time>2026-04-24T15:20:22.001Z</time></trkpt><trkpt lat="30.972912145109806" lon="-6.825335527916749"><ele>1136.0</ele><time>2026-04-24T15:20:23.001Z</time></trkpt><trkpt lat="30.97296705965818" lon="-6.825092926158244"><ele>1135.6666666666667</ele><time>2026-04-24T15:20:24.001Z</time></trkpt><trkpt lat="30.973023758943825" lon="-6.824849533380596"><ele>1135.3333333333333</ele><time>2026-04-24T15:20:25.001Z</time></trkpt><trkpt lat="30.973082029150273" lon="-6.824606565104373"><ele>1135.0</ele><time>2026-04-24T15:20:26.001Z</time></trkpt><trkpt lat="30.97314127641605" lon="-6.824364090500495"><ele>1134.6666666666665</ele><time>2026-04-24T15:20:27.001Z</time></trkpt><trkpt lat="30.973198881606255" lon="-6.824121803428154"><ele>1134.3333333333333</ele><time>2026-04-24T15:20:28.001Z</time></trkpt><trkpt lat="30.973255481120027" lon="-6.823878755916916"><ele>1134.0</ele><time>2026-04-24T15:20:29.001Z</time></trkpt><trkpt lat="30.97331142267257" lon="-6.82363759231301"><ele>1135.0</ele><time>2026-04-24T15:20:30.001Z</time></trkpt><trkpt lat="30.973367342992148" lon="-6.823396490148963"><ele>1136.0</ele><time>2026-04-24T15:20:31.001Z</time></trkpt><trkpt lat="30.973422151581147" lon="-6.823155672370158"><ele>1137.0</ele><time>2026-04-24T15:20:32Z</time></trkpt><trkpt lat="30.973477092611915" lon="-6.822915908279661"><ele>1137.0</ele><time>2026-04-24T15:20:33Z</time></trkpt><trkpt lat="30.973531893708017" lon="-6.822675950135131"><ele>1137.0</ele><time>2026-04-24T15:20:34Z</time></trkpt><trkpt lat="30.97358956346131" lon="-6.82243638992628"><ele>1137.0</ele><time>2026-04-24T15:20:35Z</time></trkpt><trkpt lat="30.973649140324923" lon="-6.822194501401659"><ele>1137.3333333333333</ele><time>2026-04-24T15:20:36Z</time></trkpt><trkpt lat="30.97370964130532" lon="-6.821953718948068"><ele>1137.6666666666665</ele><time>2026-04-24T15:20:37Z</time></trkpt><trkpt lat="30.97376664993389" lon="-6.821711553159937"><ele>1138.0</ele><time>2026-04-24T15:20:38Z</time></trkpt><trkpt lat="30.9738201503254" lon="-6.821467845827831"><ele>1138.0</ele><time>2026-04-24T15:20:39Z</time></trkpt><trkpt lat="30.973876227844418" lon="-6.821222195475286"><ele>1138.0</ele><time>2026-04-24T15:20:40Z</time></trkpt><trkpt lat="30.973934066396055" lon="-6.820974503404325"><ele>1138.0</ele><time>2026-04-24T15:20:41Z</time></trkpt><trkpt lat="30.97399345709091" lon="-6.82072938628442"><ele>1136.3333333333333</ele><time>2026-04-24T15:20:42Z</time></trkpt><trkpt lat="30.97405284709666" lon="-6.8204822128058815"><ele>1134.6666666666667</ele><time>2026-04-24T15:20:43Z</time></trkpt><trkpt lat="30.97411157220051" lon="-6.820230214453643"><ele>1133.0</ele><time>2026-04-24T15:20:44Z</time></trkpt><trkpt lat="30.9741698520564" lon="-6.819974960824217"><ele>1134.5</ele><time>2026-04-24T15:20:45Z</time></trkpt><trkpt lat="30.974228227358033" lon="-6.819722733334793"><ele>1136.0</ele><time>2026-04-24T15:20:46Z</time></trkpt><trkpt lat="30.974287538292213" lon="-6.819467531405491"><ele>1135.5</ele><time>2026-04-24T15:20:47Z</time></trkpt><trkpt lat="30.97434726627969" lon="-6.819210878925241"><ele>1135.0</ele><time>2026-04-24T15:20:48Z</time></trkpt><trkpt lat="30.974409297179935" lon="-6.818958360028994"><ele>1135.0</ele><time>2026-04-24T15:20:49Z</time></trkpt><trkpt lat="30.974469906877804" lon="-6.818705189774763"><ele>1135.0</ele><time>2026-04-24T15:20:50Z</time></trkpt><trkpt lat="30.974526466891067" lon="-6.818456679049667"><ele>1135.0</ele><time>2026-04-24T15:20:51Z</time></trkpt><trkpt lat="30.9745843558373" lon="-6.818207622661544"><ele>1134.6666666666665</ele><time>2026-04-24T15:20:52Z</time></trkpt><trkpt lat="30.974645107510984" lon="-6.817958492768633"><ele>1134.3333333333333</ele><time>2026-04-24T15:20:53Z</time></trkpt><trkpt lat="30.97470668620589" lon="-6.817704493262336"><ele>1134.0</ele><time>2026-04-24T15:20:54Z</time></trkpt><trkpt lat="30.97476886763227" lon="-6.817443838095883"><ele>1133.0</ele><time>2026-04-24T15:20:55Z</time></trkpt><trkpt lat="30.974830359545475" lon="-6.817181927083047"><ele>1132.0</ele><time>2026-04-24T15:20:56Z</time></trkpt><trkpt lat="30.974892095704558" lon="-6.81691678442583"><ele>1132.0</ele><time>2026-04-24T15:20:57Z</time></trkpt><trkpt lat="30.974956511667724" lon="-6.816651333756311"><ele>1132.0</ele><time>2026-04-24T15:20:58Z</time></trkpt><trkpt lat="30.975018123088365" lon="-6.816383527910567"><ele>1133.0</ele><time>2026-04-24T15:20:59Z</time></trkpt><trkpt lat="30.975079825257303" lon="-6.816116114161651"><ele>1134.0</ele><time>2026-04-24T15:21:00Z</time></trkpt><trkpt lat="30.975145421934954" lon="-6.815853263890213"><ele>1134.5</ele><time>2026-04-24T15:21:01Z</time></trkpt><trkpt lat="30.975209016498766" lon="-6.815590810788002"><ele>1135.0</ele><time>2026-04-24T15:21:02Z</time></trkpt><trkpt lat="30.975268697574613" lon="-6.815329164137447"><ele>1134.0</ele><time>2026-04-24T15:21:03Z</time></trkpt><trkpt lat="30.97532799571039" lon="-6.8150687547011675"><ele>1133.0</ele><time>2026-04-24T15:21:04Z</time></trkpt><trkpt lat="30.975389578147393" lon="-6.814812519916596"><ele>1133.0</ele><time>2026-04-24T15:21:05Z</time></trkpt><trkpt lat="30.975449668900865" lon="-6.814560990211832"><ele>1133.0</ele><time>2026-04-24T15:21:06Z</time></trkpt><trkpt lat="30.97550988138888" lon="-6.814310103861849"><ele>1133.0</ele><time>2026-04-24T15:21:07Z</time></trkpt><trkpt lat="30.975572528269666" lon="-6.814058864262633"><ele>1132.0</ele><time>2026-04-24T15:21:08Z</time></trkpt><trkpt lat="30.975634224049774" lon="-6.8138035221443705"><ele>1131.0</ele><time>2026-04-24T15:21:09Z</time></trkpt><trkpt lat="30.975694438818984" lon="-6.8135483356316575"><ele>1130.3333333333333</ele><time>2026-04-24T15:21:10Z</time></trkpt><trkpt lat="30.975748811479114" lon="-6.813297325173273"><ele>1129.6666666666665</ele><time>2026-04-24T15:21:11Z</time></trkpt><trkpt lat="30.975804400789958" lon="-6.813047409699975"><ele>1129.0</ele><time>2026-04-24T15:21:12Z</time></trkpt><trkpt lat="30.97586286088796" lon="-6.812797063549424"><ele>1128.6666666666665</ele><time>2026-04-24T15:21:13Z</time></trkpt><trkpt lat="30.975924055962707" lon="-6.812550129664913"><ele>1128.3333333333333</ele><time>2026-04-24T15:21:14Z</time></trkpt><trkpt lat="30.97598448000662" lon="-6.812302979765031"><ele>1128.0</ele><time>2026-04-24T15:21:15Z</time></trkpt><trkpt lat="30.97604410715003" lon="-6.812052263170116"><ele>1127.3333333333333</ele><time>2026-04-24T15:21:16Z</time></trkpt><trkpt lat="30.97610257066976" lon="-6.811800834936112"><ele>1126.6666666666665</ele><time>2026-04-24T15:21:17Z</time></trkpt><trkpt lat="30.9761610273815" lon="-6.8115524432886865"><ele>1126.0</ele><time>2026-04-24T15:21:18Z</time></trkpt><trkpt lat="30.976219236194115" lon="-6.81130327421957"><ele>1126.0</ele><time>2026-04-24T15:21:19Z</time></trkpt><trkpt lat="30.976277982405033" lon="-6.811052555362955"><ele>1126.0</ele><time>2026-04-24T15:21:20Z</time></trkpt><trkpt lat="30.976336965811775" lon="-6.810803004331416"><ele>1126.0</ele><time>2026-04-24T15:21:21Z</time></trkpt><trkpt lat="30.976394067432313" lon="-6.810554542267705"><ele>1125.6666666666665</ele><time>2026-04-24T15:21:22Z</time></trkpt><trkpt lat="30.97645390783802" lon="-6.8103123287609435"><ele>1125.3333333333333</ele><time>2026-04-24T15:21:23Z</time></trkpt><trkpt lat="30.976513020924834" lon="-6.810073940972875"><ele>1125.0</ele><time>2026-04-24T15:21:24Z</time></trkpt><trkpt lat="30.97657229009183" lon="-6.809835459175097"><ele>1125.0</ele><time>2026-04-24T15:21:25Z</time></trkpt><trkpt lat="30.97662623470074" lon="-6.8095956604529615"><ele>1125.0</ele><time>2026-04-24T15:21:26Z</time></trkpt><trkpt lat="30.976679914172717" lon="-6.809353817103865"><ele>1125.0</ele><time>2026-04-24T15:21:27Z</time></trkpt><trkpt lat="30.976737635822435" lon="-6.809109778460314"><ele>1125.3333333333333</ele><time>2026-04-24T15:21:28Z</time></trkpt><trkpt lat="30.976793787866697" lon="-6.808863036129631"><ele>1125.6666666666665</ele><time>2026-04-24T15:21:29Z</time></trkpt><trkpt lat="30.97684978253588" lon="-6.808617952205574"><ele>1126.0</ele><time>2026-04-24T15:21:30Z</time></trkpt><trkpt lat="30.976906209606028" lon="-6.808370731835853"><ele>1126.0</ele><time>2026-04-24T15:21:31Z</time></trkpt><trkpt lat="30.97696631368406" lon="-6.8081244356420205"><ele>1126.0</ele><time>2026-04-24T15:21:32Z</time></trkpt><trkpt lat="30.97702539043739" lon="-6.80787737533736"><ele>1126.0</ele><time>2026-04-24T15:21:33Z</time></trkpt><trkpt lat="30.977065592212654" lon="-6.807626041922478"><ele>1125.6666666666665</ele><time>2026-04-24T15:21:34Z</time></trkpt><trkpt lat="30.977121325541184" lon="-6.807380064580101"><ele>1125.3333333333333</ele><time>2026-04-24T15:21:35Z</time></trkpt><trkpt lat="30.97717656992234" lon="-6.807136245150965"><ele>1125.0</ele><time>2026-04-24T15:21:36Z</time></trkpt><trkpt lat="30.977230841446424" lon="-6.806896719446091"><ele>1125.0</ele><time>2026-04-24T15:21:37Z</time></trkpt><trkpt lat="30.977284849433616" lon="-6.806658356812752"><ele>1125.0</ele><time>2026-04-24T15:21:38Z</time></trkpt><trkpt lat="30.97733933955808" lon="-6.806422267205398"><ele>1125.0</ele><time>2026-04-24T15:21:39Z</time></trkpt><trkpt lat="30.977391957042077" lon="-6.806188404780309"><ele>1124.6666666666667</ele><time>2026-04-24T15:21:40Z</time></trkpt><trkpt lat="30.977445045650484" lon="-6.805954326992834"><ele>1124.3333333333335</ele><time>2026-04-24T15:21:41Z</time></trkpt><trkpt lat="30.9775011010377" lon="-6.80571765668959"><ele>1124.0</ele><time>2026-04-24T15:21:42Z</time></trkpt><trkpt lat="30.977557581770732" lon="-6.805484155391612"><ele>1125.0</ele><time>2026-04-24T15:21:43Z</time></trkpt><trkpt lat="30.977613897360786" lon="-6.805253043718557"><ele>1126.0</ele><time>2026-04-24T15:21:44Z</time></trkpt><trkpt lat="30.97767151322592" lon="-6.805025035249905"><ele>1127.0</ele><time>2026-04-24T15:21:45Z</time></trkpt><trkpt lat="30.977731608576704" lon="-6.804794990911093"><ele>1128.0</ele><time>2026-04-24T15:21:46Z</time></trkpt><trkpt lat="30.977792692279007" lon="-6.8045628113273295"><ele>1129.0</ele><time>2026-04-24T15:21:47Z</time></trkpt><trkpt lat="30.977856751091988" lon="-6.804329345162009"><ele>1130.0</ele><time>2026-04-24T15:21:48Z</time></trkpt><trkpt lat="30.977922347220915" lon="-6.804092126964576"><ele>1130.0</ele><time>2026-04-24T15:21:49Z</time></trkpt><trkpt lat="30.977988797318268" lon="-6.803851820489105"><ele>1130.0</ele><time>2026-04-24T15:21:50Z</time></trkpt><trkpt lat="30.978055737205622" lon="-6.803609742624916"><ele>1130.0</ele><time>2026-04-24T15:21:51Z</time></trkpt><trkpt lat="30.978123477528516" lon="-6.80336476967155"><ele>1131.0</ele><time>2026-04-24T15:21:52Z</time></trkpt><trkpt lat="30.97819277814239" lon="-6.803114219319033"><ele>1132.0</ele><time>2026-04-24T15:21:53Z</time></trkpt><trkpt lat="30.97826488354914" lon="-6.802853017034956"><ele>1132.0</ele><time>2026-04-24T15:21:54Z</time></trkpt><trkpt lat="30.978341240606596" lon="-6.802576413083596"><ele>1132.0</ele><time>2026-04-24T15:21:55Z</time></trkpt><trkpt lat="30.978420996286545" lon="-6.802288174093863"><ele>1132.0</ele><time>2026-04-24T15:21:56Z</time></trkpt><trkpt lat="30.97850332310978" lon="-6.802001907110805"><ele>1132.0</ele><time>2026-04-24T15:21:57Z</time></trkpt><trkpt lat="30.978585356920867" lon="-6.801729130169585"><ele>1134.0</ele><time>2026-04-24T15:21:58Z</time></trkpt><trkpt lat="30.978681914316162" lon="-6.801468101469907"><ele>1136.0</ele><time>2026-04-24T15:21:59Z</time></trkpt><trkpt lat="30.978757384829688" lon="-6.801204678018244"><ele>1136.5</ele><time>2026-04-24T15:22:00Z</time></trkpt><trkpt lat="30.978835224538198" lon="-6.800942236038753"><ele>1137.0</ele><time>2026-04-24T15:22:01Z</time></trkpt><trkpt lat="30.978916437493773" lon="-6.800666999496161"><ele>1137.0</ele><time>2026-04-24T15:22:02Z</time></trkpt><trkpt lat="30.979137950517085" lon="-6.800538956847932"><ele>1137.0</ele><time>2026-04-24T15:22:03Z</time></trkpt><trkpt lat="30.979086805219392" lon="-6.800053865415995"><ele>1138.0</ele><time>2026-04-24T15:22:04Z</time></trkpt><trkpt lat="30.979164960715888" lon="-6.799742455440999"><ele>1139.0</ele><time>2026-04-24T15:22:05Z</time></trkpt><trkpt lat="30.979234935094183" lon="-6.799453595143374"><ele>1141.5</ele><time>2026-04-24T15:22:06Z</time></trkpt><trkpt lat="30.979302442480975" lon="-6.799181369810807"><ele>1144.0</ele><time>2026-04-24T15:22:07Z</time></trkpt><trkpt lat="30.979372748372366" lon="-6.798925087265851"><ele>1144.0</ele><time>2026-04-24T15:22:08Z</time></trkpt><trkpt lat="30.979441255556782" lon="-6.798678944097179"><ele>1144.0</ele><time>2026-04-24T15:22:09Z</time></trkpt><trkpt lat="30.979510086586966" lon="-6.798436074418276"><ele>1144.0</ele><time>2026-04-24T15:22:10Z</time></trkpt><trkpt lat="30.979577494254954" lon="-6.798196498430424"><ele>1147.3333333333333</ele><time>2026-04-24T15:22:11Z</time></trkpt><trkpt lat="30.97964393158152" lon="-6.797951658626463"><ele>1150.6666666666667</ele><time>2026-04-24T15:22:12Z</time></trkpt><trkpt lat="30.97970744344673" lon="-6.797705490788905"><ele>1154.0</ele><time>2026-04-24T15:22:13Z</time></trkpt><trkpt lat="30.9797620335052" lon="-6.797460599022522"><ele>1155.3333333333335</ele><time>2026-04-24T15:22:14Z</time></trkpt><trkpt lat="30.97979966876594" lon="-6.7972140995169585"><ele>1156.6666666666667</ele><time>2026-04-24T15:22:15Z</time></trkpt><trkpt lat="30.979818152294307" lon="-6.796966850745318"><ele>1158.0</ele><time>2026-04-24T15:22:16Z</time></trkpt><trkpt lat="30.979823154943805" lon="-6.796718887747167"><ele>1158.0</ele><time>2026-04-24T15:22:17Z</time></trkpt><trkpt lat="30.979816128757527" lon="-6.796470681223927"><ele>1158.0</ele><time>2026-04-24T15:22:18Z</time></trkpt><trkpt lat="30.979798289201085" lon="-6.796231719430534"><ele>1158.0</ele><time>2026-04-24T15:22:19Z</time></trkpt><trkpt lat="30.979767927577917" lon="-6.796001766947264"><ele>1158.6666666666667</ele><time>2026-04-24T15:22:20Z</time></trkpt><trkpt lat="30.979727089941278" lon="-6.795787405107493"><ele>1159.3333333333335</ele><time>2026-04-24T15:22:21Z</time></trkpt><trkpt lat="30.979676637558786" lon="-6.795585329798821"><ele>1160.0</ele><time>2026-04-24T15:22:22Z</time></trkpt><trkpt lat="30.97961647766938" lon="-6.795392730000974"><ele>1160.0</ele><time>2026-04-24T15:22:23Z</time></trkpt><trkpt lat="30.97954820354955" lon="-6.7952082930628865"><ele>1160.0</ele><time>2026-04-24T15:22:24Z</time></trkpt><trkpt lat="30.9794728837542" lon="-6.795035462537416"><ele>1160.0</ele><time>2026-04-24T15:22:25Z</time></trkpt><trkpt lat="30.97939474577545" lon="-6.7948789830675524"><ele>1159.3333333333335</ele><time>2026-04-24T15:22:26Z</time></trkpt><trkpt lat="30.97931482151726" lon="-6.794732297225804"><ele>1158.6666666666667</ele><time>2026-04-24T15:22:27Z</time></trkpt><trkpt lat="30.979232176549154" lon="-6.794587103463316"><ele>1158.0</ele><time>2026-04-24T15:22:28Z</time></trkpt><trkpt lat="30.979139466638177" lon="-6.794435778615703"><ele>1157.6666666666667</ele><time>2026-04-24T15:22:29Z</time></trkpt><trkpt lat="30.979026223807768" lon="-6.794266050595547"><ele>1157.3333333333335</ele><time>2026-04-24T15:22:30Z</time></trkpt><trkpt lat="30.97889515672037" lon="-6.794088237552414"><ele>1157.0</ele><time>2026-04-24T15:22:31Z</time></trkpt><trkpt lat="30.978753459311555" lon="-6.793908476971908"><ele>1157.0</ele><time>2026-04-24T15:22:32Z</time></trkpt><trkpt lat="30.978602245264206" lon="-6.7937261961188975"><ele>1157.0</ele><time>2026-04-24T15:22:33Z</time></trkpt><trkpt lat="30.978448948075332" lon="-6.793537412421746"><ele>1157.0</ele><time>2026-04-24T15:22:34Z</time></trkpt><trkpt lat="30.978293224191727" lon="-6.793340318984409"><ele>1155.6666666666667</ele><time>2026-04-24T15:22:35Z</time></trkpt><trkpt lat="30.978138162120587" lon="-6.793146929064581"><ele>1154.3333333333333</ele><time>2026-04-24T15:22:36Z</time></trkpt><trkpt lat="30.977984453300643" lon="-6.792964505630316"><ele>1153.0</ele><time>2026-04-24T15:22:37Z</time></trkpt><trkpt lat="30.977830013284365" lon="-6.792791261339505"><ele>1153.6666666666665</ele><time>2026-04-24T15:22:38Z</time></trkpt><trkpt lat="30.977679341305638" lon="-6.792619817778449"><ele>1154.3333333333333</ele><time>2026-04-24T15:22:39Z</time></trkpt><trkpt lat="30.977534511547695" lon="-6.7924457156432485"><ele>1155.0</ele><time>2026-04-24T15:22:40Z</time></trkpt><trkpt lat="30.977395843604654" lon="-6.792274613367103"><ele>1155.0</ele><time>2026-04-24T15:22:41Z</time></trkpt><trkpt lat="30.97726079799478" lon="-6.792107540641655"><ele>1155.0</ele><time>2026-04-24T15:22:42Z</time></trkpt><trkpt lat="30.97713153552886" lon="-6.791945298953731"><ele>1155.0</ele><time>2026-04-24T15:22:43Z</time></trkpt><trkpt lat="30.977003807765772" lon="-6.791780121657313"><ele>1155.0</ele><time>2026-04-24T15:22:44Z</time></trkpt><trkpt lat="30.976880353153764" lon="-6.79160295058863"><ele>1155.0</ele><time>2026-04-24T15:22:45Z</time></trkpt><trkpt lat="30.97676699561046" lon="-6.791422997315151"><ele>1155.0</ele><time>2026-04-24T15:22:46Z</time></trkpt><trkpt lat="30.976660833659444" lon="-6.791235456551007"><ele>1155.0</ele><time>2026-04-24T15:22:47Z</time></trkpt><trkpt lat="30.976566269814505" lon="-6.791041072551792"><ele>1155.0</ele><time>2026-04-24T15:22:48Z</time></trkpt><trkpt lat="30.97648227280336" lon="-6.790837937953716"><ele>1155.0</ele><time>2026-04-24T15:22:49Z</time></trkpt><trkpt lat="30.976404204715127" lon="-6.790625990039566"><ele>1152.3333333333333</ele><time>2026-04-24T15:22:50Z</time></trkpt><trkpt lat="30.976337609696124" lon="-6.790409097534369"><ele>1149.6666666666665</ele><time>2026-04-24T15:22:51Z</time></trkpt><trkpt lat="30.97628626823503" lon="-6.790189227789484"><ele>1147.0</ele><time>2026-04-24T15:22:52Z</time></trkpt><trkpt lat="30.976249238134475" lon="-6.789964678615025"><ele>1142.6666666666665</ele><time>2026-04-24T15:22:53Z</time></trkpt><trkpt lat="30.976223327071644" lon="-6.789744786613617"><ele>1138.3333333333333</ele><time>2026-04-24T15:22:54Z</time></trkpt><trkpt lat="30.976204417045548" lon="-6.789532116079111"><ele>1134.0</ele><time>2026-04-24T15:22:55Z</time></trkpt><trkpt lat="30.976198083948265" lon="-6.789330423726529"><ele>1131.3333333333333</ele><time>2026-04-24T15:22:56Z</time></trkpt><trkpt lat="30.976203580581974" lon="-6.789136948592656"><ele>1128.6666666666665</ele><time>2026-04-24T15:22:57Z</time></trkpt><trkpt lat="30.97621827484341" lon="-6.788948949801264"><ele>1126.0</ele><time>2026-04-24T15:22:58Z</time></trkpt><trkpt lat="30.976237811894627" lon="-6.788771673445526"><ele>1126.0</ele><time>2026-04-24T15:22:59Z</time></trkpt><trkpt lat="30.97626099192641" lon="-6.7886047459661585"><ele>1126.0</ele><time>2026-04-24T15:23:00Z</time></trkpt><trkpt lat="30.97628725346019" lon="-6.788446187748571"><ele>1126.0</ele><time>2026-04-24T15:23:01Z</time></trkpt><trkpt lat="30.97631813024954" lon="-6.788299504812652"><ele>1126.0</ele><time>2026-04-24T15:23:02Z</time></trkpt><trkpt lat="30.976350212329603" lon="-6.78816075878075"><ele>1125.0</ele><time>2026-04-24T15:23:03Z</time></trkpt><trkpt lat="30.976381342156188" lon="-6.788029806144478"><ele>1124.0</ele><time>2026-04-24T15:23:04Z</time></trkpt><trkpt lat="30.976414423416838" lon="-6.787904367655217"><ele>1123.0</ele><time>2026-04-24T15:23:05Z</time></trkpt><trkpt lat="30.97644537357244" lon="-6.787789813598123"><ele>1122.0</ele><time>2026-04-24T15:23:06Z</time></trkpt><trkpt lat="30.97647551901907" lon="-6.787685374049632"><ele>1121.0</ele><time>2026-04-24T15:23:07Z</time></trkpt><trkpt lat="30.976504817320652" lon="-6.787584560254941"><ele>1120.8</ele><time>2026-04-24T15:23:08Z</time></trkpt><trkpt lat="30.97653387206074" lon="-6.787483452314425"><ele>1120.6</ele><time>2026-04-24T15:23:09Z</time></trkpt><trkpt lat="30.97655989761168" lon="-6.787383244540912"><ele>1120.4</ele><time>2026-04-24T15:23:10Z</time></trkpt><trkpt lat="30.97658476236629" lon="-6.787285962590353"><ele>1120.2</ele><time>2026-04-24T15:23:11Z</time></trkpt><trkpt lat="30.97660918394247" lon="-6.787185010633169"><ele>1120.0</ele><time>2026-04-24T15:23:12Z</time></trkpt><trkpt lat="30.97663689362274" lon="-6.787079735631363"><ele>1120.0</ele><time>2026-04-24T15:23:13Z</time></trkpt><trkpt lat="30.976666013832382" lon="-6.7869709253329065"><ele>1120.0</ele><time>2026-04-24T15:23:14Z</time></trkpt><trkpt lat="30.97669719152337" lon="-6.786861165227959"><ele>1120.0</ele><time>2026-04-24T15:23:15Z</time></trkpt><trkpt lat="30.97672752967597" lon="-6.786748904068216"><ele>1120.0</ele><time>2026-04-24T15:23:16Z</time></trkpt><trkpt lat="30.976758418254956" lon="-6.786634358884721"><ele>1120.0</ele><time>2026-04-24T15:23:17Z</time></trkpt><trkpt lat="30.976788886168094" lon="-6.7865186854325685"><ele>1120.8</ele><time>2026-04-24T15:23:18Z</time></trkpt><trkpt lat="30.976820686044153" lon="-6.786403231242604"><ele>1121.6</ele><time>2026-04-24T15:23:19Z</time></trkpt><trkpt lat="30.97685187492178" lon="-6.786287523579105"><ele>1122.4</ele><time>2026-04-24T15:23:20Z</time></trkpt><trkpt lat="30.976881275903082" lon="-6.786169336114008"><ele>1123.2</ele><time>2026-04-24T15:23:21Z</time></trkpt><trkpt lat="30.97691095215486" lon="-6.786051253493911"><ele>1124.0</ele><time>2026-04-24T15:23:22Z</time></trkpt><trkpt lat="30.97694041439699" lon="-6.785933389335684"><ele>1124.0</ele><time>2026-04-24T15:23:23Z</time></trkpt><trkpt lat="30.976972558920284" lon="-6.785815618810706"><ele>1124.0</ele><time>2026-04-24T15:23:24Z</time></trkpt><trkpt lat="30.97700504241307" lon="-6.785697995266091"><ele>1124.0</ele><time>2026-04-24T15:23:25Z</time></trkpt><trkpt lat="30.97703667620706" lon="-6.785580078771339"><ele>1124.0</ele><time>2026-04-24T15:23:26Z</time></trkpt><trkpt lat="30.97706859685955" lon="-6.785464356301979"><ele>1124.0</ele><time>2026-04-24T15:23:27Z</time></trkpt><trkpt lat="30.977098683303613" lon="-6.785351177455396"><ele>1124.0</ele><time>2026-04-24T15:23:28Z</time></trkpt><trkpt lat="30.97712544775425" lon="-6.785247782244777"><ele>1124.0</ele><time>2026-04-24T15:23:29Z</time></trkpt><trkpt lat="30.97715186569892" lon="-6.7851467673409855"><ele>1124.0</ele><time>2026-04-24T15:23:30Z</time></trkpt><trkpt lat="30.977180162681265" lon="-6.78504637690607"><ele>1124.0</ele><time>2026-04-24T15:23:31Z</time></trkpt><trkpt lat="30.977208420708976" lon="-6.784944799416371"><ele>1124.0</ele><time>2026-04-24T15:23:32Z</time></trkpt><trkpt lat="30.9772370059163" lon="-6.7848405017640605"><ele>1124.2</ele><time>2026-04-24T15:23:33Z</time></trkpt><trkpt lat="30.97726515646731" lon="-6.784736509579191"><ele>1124.4</ele><time>2026-04-24T15:23:34Z</time></trkpt><trkpt lat="30.977292951699802" lon="-6.784631606346319"><ele>1124.6</ele><time>2026-04-24T15:23:35Z</time></trkpt><trkpt lat="30.977320366413107" lon="-6.784522346590553"><ele>1124.8</ele><time>2026-04-24T15:23:36Z</time></trkpt><trkpt lat="30.977348352986695" lon="-6.784411068623208"><ele>1125.0</ele><time>2026-04-24T15:23:37Z</time></trkpt><trkpt lat="30.977377502300566" lon="-6.784299039134097"><ele>1125.0</ele><time>2026-04-24T15:23:38Z</time></trkpt><trkpt lat="30.977406637379467" lon="-6.784188163393724"><ele>1125.0</ele><time>2026-04-24T15:23:39Z</time></trkpt><trkpt lat="30.97743348290663" lon="-6.784080881590262"><ele>1125.0</ele><time>2026-04-24T15:23:40Z</time></trkpt><trkpt lat="30.9774596518082" lon="-6.7839798614612095"><ele>1125.0</ele><time>2026-04-24T15:23:41Z</time></trkpt><trkpt lat="30.977482233688463" lon="-6.783889422571102"><ele>1125.0</ele><time>2026-04-24T15:23:42Z</time></trkpt><trkpt lat="30.97750331645764" lon="-6.78380773440623"><ele>1125.0</ele><time>2026-04-24T15:23:43Z</time></trkpt><trkpt lat="30.977523903347855" lon="-6.783732808844099"><ele>1125.2857142857142</ele><time>2026-04-24T15:23:44Z</time></trkpt><trkpt lat="30.977543765341835" lon="-6.783659936334914"><ele>1125.5714285714287</ele><time>2026-04-24T15:23:45Z</time></trkpt><trkpt lat="30.977562688600326" lon="-6.783586626202579"><ele>1125.857142857143</ele><time>2026-04-24T15:23:46Z</time></trkpt><trkpt lat="30.977581226393074" lon="-6.783511488290483"><ele>1126.142857142857</ele><time>2026-04-24T15:23:47Z</time></trkpt><trkpt lat="30.97759994829269" lon="-6.7834349524414685"><ele>1126.4285714285716</ele><time>2026-04-24T15:23:48Z</time></trkpt><trkpt lat="30.97761837512088" lon="-6.783359883903318"><ele>1126.7142857142858</ele><time>2026-04-24T15:23:49Z</time></trkpt><trkpt lat="30.977636635280334" lon="-6.783283722950321"><ele>1127.0</ele><time>2026-04-24T15:23:50Z</time></trkpt><trkpt lat="30.977654670732743" lon="-6.783206937076006"><ele>1127.6</ele><time>2026-04-24T15:23:51Z</time></trkpt><trkpt lat="30.977670392215327" lon="-6.783133985943838"><ele>1128.2</ele><time>2026-04-24T15:23:52Z</time></trkpt><trkpt lat="30.977696683136774" lon="-6.783012412598422"><ele>1128.8</ele><time>2026-04-24T15:23:54Z</time></trkpt><trkpt lat="30.977734776947464" lon="-6.7828533207983925"><ele>1129.4</ele><time>2026-04-24T15:23:56Z</time></trkpt><trkpt lat="30.977757824132617" lon="-6.782749521637454"><ele>1130.0</ele><time>2026-04-24T15:23:57Z</time></trkpt><trkpt lat="30.977786127671568" lon="-6.782633921021685"><ele>1131.5</ele><time>2026-04-24T15:23:58Z</time></trkpt><trkpt lat="30.977823484347855" lon="-6.782506907851054"><ele>1133.0</ele><time>2026-04-24T15:23:59Z</time></trkpt><trkpt lat="30.977865896028327" lon="-6.782369241340742"><ele>1134.5</ele><time>2026-04-24T15:24:00Z</time></trkpt><trkpt lat="30.977911692356567" lon="-6.782221004226988"><ele>1136.0</ele><time>2026-04-24T15:24:01Z</time></trkpt><trkpt lat="30.97795942894016" lon="-6.782064935328901"><ele>1136.0</ele><time>2026-04-24T15:24:02Z</time></trkpt><trkpt lat="30.9780061578838" lon="-6.781908407289945"><ele>1136.0</ele><time>2026-04-24T15:24:03Z</time></trkpt><trkpt lat="30.978055840013894" lon="-6.781738972704248"><ele>1136.0</ele><time>2026-04-24T15:24:04Z</time></trkpt><trkpt lat="30.978107983458496" lon="-6.781553918511519"><ele>1137.3333333333335</ele><time>2026-04-24T15:24:05Z</time></trkpt><trkpt lat="30.97816270103767" lon="-6.781357029624916"><ele>1138.6666666666667</ele><time>2026-04-24T15:24:06Z</time></trkpt><trkpt lat="30.97821809585844" lon="-6.781160515154548"><ele>1140.0</ele><time>2026-04-24T15:24:07Z</time></trkpt><trkpt lat="30.978274506735477" lon="-6.780961905537333"><ele>1141.0</ele><time>2026-04-24T15:24:08Z</time></trkpt><trkpt lat="30.978331097492102" lon="-6.780761419464694"><ele>1142.0</ele><time>2026-04-24T15:24:09Z</time></trkpt><trkpt lat="30.978384249126332" lon="-6.7805593301321805"><ele>1143.0</ele><time>2026-04-24T15:24:10Z</time></trkpt><trkpt lat="30.97843042119568" lon="-6.780353108181664"><ele>1143.0</ele><time>2026-04-24T15:24:11Z</time></trkpt><trkpt lat="30.978466501918447" lon="-6.780147825937207"><ele>1143.0</ele><time>2026-04-24T15:24:12Z</time></trkpt><trkpt lat="30.978491459298457" lon="-6.779951981267814"><ele>1143.0</ele><time>2026-04-24T15:24:13Z</time></trkpt><trkpt lat="30.97850651336419" lon="-6.779761723625029"><ele>1143.0</ele><time>2026-04-24T15:24:14Z</time></trkpt><trkpt lat="30.97851464959116" lon="-6.779573351218287"><ele>1143.0</ele><time>2026-04-24T15:24:15Z</time></trkpt><trkpt lat="30.97851330472383" lon="-6.779388510180126"><ele>1143.0</ele><time>2026-04-24T15:24:16Z</time></trkpt><trkpt lat="30.978505495978055" lon="-6.77920485596409"><ele>1140.6666666666667</ele><time>2026-04-24T15:24:17Z</time></trkpt><trkpt lat="30.978491889511194" lon="-6.779023723659772"><ele>1138.3333333333335</ele><time>2026-04-24T15:24:18Z</time></trkpt><trkpt lat="30.978467505638204" lon="-6.77884536943327"><ele>1136.0</ele><time>2026-04-24T15:24:19Z</time></trkpt><trkpt lat="30.978435305166652" lon="-6.778665262900917"><ele>1136.3333333333335</ele><time>2026-04-24T15:24:20Z</time></trkpt><trkpt lat="30.978392840195124" lon="-6.778474964099507"><ele>1136.6666666666667</ele><time>2026-04-24T15:24:21Z</time></trkpt><trkpt lat="30.978336023431144" lon="-6.77827266386725"><ele>1137.0</ele><time>2026-04-24T15:24:22Z</time></trkpt><trkpt lat="30.97826501251163" lon="-6.7780669119450145"><ele>1135.3333333333333</ele><time>2026-04-24T15:24:23Z</time></trkpt><trkpt lat="30.978168252236912" lon="-6.777868180340499"><ele>1133.6666666666665</ele><time>2026-04-24T15:24:24Z</time></trkpt><trkpt lat="30.97807826671038" lon="-6.777655562352123"><ele>1132.0</ele><time>2026-04-24T15:24:25Z</time></trkpt><trkpt lat="30.977988648838483" lon="-6.777441243642341"><ele>1132.0</ele><time>2026-04-24T15:24:26Z</time></trkpt><trkpt lat="30.97791476767073" lon="-6.777223574702494"><ele>1132.0</ele><time>2026-04-24T15:24:27Z</time></trkpt><trkpt lat="30.97782824889295" lon="-6.777018772004045"><ele>1132.0</ele><time>2026-04-24T15:24:28Z</time></trkpt><trkpt lat="30.977727542616666" lon="-6.776825652967339"><ele>1131.3333333333333</ele><time>2026-04-24T15:24:29Z</time></trkpt><trkpt lat="30.977643791198087" lon="-6.776627237781185"><ele>1130.6666666666667</ele><time>2026-04-24T15:24:30Z</time></trkpt><trkpt lat="30.97756029108343" lon="-6.776430871087556"><ele>1130.0</ele><time>2026-04-24T15:24:31Z</time></trkpt><trkpt lat="30.977478588103473" lon="-6.7762394611611"><ele>1130.0</ele><time>2026-04-24T15:24:32Z</time></trkpt><trkpt lat="30.977413716082715" lon="-6.77604221689003"><ele>1130.0</ele><time>2026-04-24T15:24:33Z</time></trkpt><trkpt lat="30.9773189752314" lon="-6.775864153150332"><ele>1130.0</ele><time>2026-04-24T15:24:34Z</time></trkpt><trkpt lat="30.97724063226236" lon="-6.7756783809448065"><ele>1130.6666666666667</ele><time>2026-04-24T15:24:35Z</time></trkpt><trkpt lat="30.977162229033134" lon="-6.77549445845815"><ele>1131.3333333333333</ele><time>2026-04-24T15:24:36Z</time></trkpt><trkpt lat="30.977085965612446" lon="-6.775307435247994"><ele>1132.0</ele><time>2026-04-24T15:24:37Z</time></trkpt><trkpt lat="30.9770109528744" lon="-6.775116640460626"><ele>1132.0</ele><time>2026-04-24T15:24:38Z</time></trkpt><trkpt lat="30.976956277988442" lon="-6.774925391413017"><ele>1132.0</ele><time>2026-04-24T15:24:39Z</time></trkpt><trkpt lat="30.976908285275837" lon="-6.774728961031083"><ele>1132.0</ele><time>2026-04-24T15:24:40Z</time></trkpt><trkpt lat="30.976872546302673" lon="-6.774526961295138"><ele>1131.6666666666665</ele><time>2026-04-24T15:24:41Z</time></trkpt><trkpt lat="30.97684966972465" lon="-6.774323655828111"><ele>1131.3333333333333</ele><time>2026-04-24T15:24:42Z</time></trkpt><trkpt lat="30.976835248243255" lon="-6.7741186597721805"><ele>1131.0</ele><time>2026-04-24T15:24:43Z</time></trkpt><trkpt lat="30.976841550434266" lon="-6.773912100078117"><ele>1131.0</ele><time>2026-04-24T15:24:44Z</time></trkpt><trkpt lat="30.97682473362711" lon="-6.773708852597468"><ele>1131.0</ele><time>2026-04-24T15:24:45Z</time></trkpt><trkpt lat="30.976811328673715" lon="-6.7735041164796925"><ele>1131.0</ele><time>2026-04-24T15:24:46Z</time></trkpt><trkpt lat="30.976799546649847" lon="-6.773296085445153"><ele>1131.0</ele><time>2026-04-24T15:24:47Z</time></trkpt><trkpt lat="30.97678908117668" lon="-6.773086648475654"><ele>1131.0</ele><time>2026-04-24T15:24:48Z</time></trkpt><trkpt lat="30.97677881241654" lon="-6.772877777782116"><ele>1131.0</ele><time>2026-04-24T15:24:49Z</time></trkpt><trkpt lat="30.976770741468027" lon="-6.772666266038259"><ele>1131.6666666666667</ele><time>2026-04-24T15:24:50Z</time></trkpt><trkpt lat="30.976763122875546" lon="-6.772451919289666"><ele>1132.3333333333335</ele><time>2026-04-24T15:24:51Z</time></trkpt><trkpt lat="30.976754759342587" lon="-6.772235205909679"><ele>1133.0</ele><time>2026-04-24T15:24:52Z</time></trkpt><trkpt lat="30.976745196460932" lon="-6.772014882875754"><ele>1132.6666666666667</ele><time>2026-04-24T15:24:53Z</time></trkpt><trkpt lat="30.976735794245283" lon="-6.771792628805453"><ele>1132.3333333333333</ele><time>2026-04-24T15:24:54Z</time></trkpt><trkpt lat="30.9767254528555" lon="-6.77157055559943"><ele>1132.0</ele><time>2026-04-24T15:24:55Z</time></trkpt><trkpt lat="30.976714919690558" lon="-6.771348314972574"><ele>1132.0</ele><time>2026-04-24T15:24:56Z</time></trkpt><trkpt lat="30.976704708865476" lon="-6.77112550216049"><ele>1132.0</ele><time>2026-04-24T15:24:57Z</time></trkpt><trkpt lat="30.976694922956717" lon="-6.77090157433222"><ele>1132.0</ele><time>2026-04-24T15:24:58Z</time></trkpt><trkpt lat="30.9766835550151" lon="-6.770677210338933"><ele>1131.6666666666665</ele><time>2026-04-24T15:24:59Z</time></trkpt><trkpt lat="30.97667222863147" lon="-6.770455124089982"><ele>1131.3333333333333</ele><time>2026-04-24T15:25:00Z</time></trkpt><trkpt lat="30.976644180851032" lon="-6.770238361295623"><ele>1131.0</ele><time>2026-04-24T15:25:01Z</time></trkpt><trkpt lat="30.97663301136494" lon="-6.770025467536417"><ele>1131.0</ele><time>2026-04-24T15:25:02Z</time></trkpt><trkpt lat="30.976622761931935" lon="-6.769824241965084"><ele>1131.0</ele><time>2026-04-24T15:25:03Z</time></trkpt><trkpt lat="30.97661227622226" lon="-6.769623901187499"><ele>1131.0</ele><time>2026-04-24T15:25:04Z</time></trkpt><trkpt lat="30.97660091156916" lon="-6.769424895679549"><ele>1129.6666666666667</ele><time>2026-04-24T15:25:05Z</time></trkpt><trkpt lat="30.976597261657005" lon="-6.769222938223421"><ele>1128.3333333333335</ele><time>2026-04-24T15:25:06Z</time></trkpt><trkpt lat="30.97659205382372" lon="-6.7690202290467205"><ele>1127.0</ele><time>2026-04-24T15:25:07Z</time></trkpt><trkpt lat="30.976586856448492" lon="-6.768798186487165"><ele>1127.0</ele><time>2026-04-24T15:25:08Z</time></trkpt><trkpt lat="30.976581487076686" lon="-6.7685682707288315"><ele>1127.0</ele><time>2026-04-24T15:25:09Z</time></trkpt><trkpt lat="30.976575233860256" lon="-6.768304909367719"><ele>1127.0</ele><time>2026-04-24T15:25:10Z</time></trkpt><trkpt lat="30.976571016276182" lon="-6.7680533602038615"><ele>1126.3333333333335</ele><time>2026-04-24T15:25:11Z</time></trkpt><trkpt lat="30.976548712931365" lon="-6.767805629000327"><ele>1125.6666666666667</ele><time>2026-04-24T15:25:12Z</time></trkpt><trkpt lat="30.97653041173594" lon="-6.767573096831877"><ele>1125.0</ele><time>2026-04-24T15:25:13Z</time></trkpt><trkpt lat="30.976517419194952" lon="-6.767347857629961"><ele>1125.0</ele><time>2026-04-24T15:25:14Z</time></trkpt><trkpt lat="30.976509116047225" lon="-6.767128551507506"><ele>1125.0</ele><time>2026-04-24T15:25:15Z</time></trkpt><trkpt lat="30.976499456729083" lon="-6.76690974541924"><ele>1125.0</ele><time>2026-04-24T15:25:16Z</time></trkpt><trkpt lat="30.976487922206694" lon="-6.766686592879096"><ele>1125.6666666666667</ele><time>2026-04-24T15:25:17Z</time></trkpt><trkpt lat="30.976473637947972" lon="-6.76645673249309"><ele>1126.3333333333335</ele><time>2026-04-24T15:25:18Z</time></trkpt><trkpt lat="30.97646055786745" lon="-6.766232539195478"><ele>1127.0</ele><time>2026-04-24T15:25:19Z</time></trkpt><trkpt lat="30.97644989785053" lon="-6.766013583985098"><ele>1127.0</ele><time>2026-04-24T15:25:20Z</time></trkpt><trkpt lat="30.97643930199797" lon="-6.765790629310423"><ele>1127.0</ele><time>2026-04-24T15:25:21Z</time></trkpt><trkpt lat="30.97643049605654" lon="-6.765561740480973"><ele>1127.0</ele><time>2026-04-24T15:25:22Z</time></trkpt><trkpt lat="30.976420185267532" lon="-6.765330560914508"><ele>1128.0</ele><time>2026-04-24T15:25:23Z</time></trkpt><trkpt lat="30.97640995561942" lon="-6.765098324706354"><ele>1129.0</ele><time>2026-04-24T15:25:24Z</time></trkpt><trkpt lat="30.976401045332402" lon="-6.764867202538585"><ele>1130.0</ele><time>2026-04-24T15:25:25Z</time></trkpt><trkpt lat="30.976388501848614" lon="-6.764637025997939"><ele>1130.0</ele><time>2026-04-24T15:25:26Z</time></trkpt><trkpt lat="30.976377075009896" lon="-6.764405260097449"><ele>1130.0</ele><time>2026-04-24T15:25:27Z</time></trkpt><trkpt lat="30.97636699504157" lon="-6.764172578668043"><ele>1130.0</ele><time>2026-04-24T15:25:28Z</time></trkpt><trkpt lat="30.976354658479597" lon="-6.763935729294735"><ele>1130.0</ele><time>2026-04-24T15:25:29Z</time></trkpt><trkpt lat="30.97634116618564" lon="-6.763698852240784"><ele>1130.0</ele><time>2026-04-24T15:25:30Z</time></trkpt><trkpt lat="30.976326927239832" lon="-6.763460038372594"><ele>1130.0</ele><time>2026-04-24T15:25:31Z</time></trkpt><trkpt lat="30.97631353493255" lon="-6.763220580005216"><ele>1129.0</ele><time>2026-04-24T15:25:32Z</time></trkpt><trkpt lat="30.97630483877876" lon="-6.7629836115110615"><ele>1128.0</ele><time>2026-04-24T15:25:33Z</time></trkpt><trkpt lat="30.976295848468343" lon="-6.762748559282482"><ele>1127.0</ele><time>2026-04-24T15:25:34Z</time></trkpt><trkpt lat="30.976284350659107" lon="-6.762513090063773"><ele>1126.6666666666667</ele><time>2026-04-24T15:25:35Z</time></trkpt><trkpt lat="30.976272255909457" lon="-6.762277242062844"><ele>1126.3333333333333</ele><time>2026-04-24T15:25:36Z</time></trkpt><trkpt lat="30.976260415593682" lon="-6.7620385545075"><ele>1126.0</ele><time>2026-04-24T15:25:37Z</time></trkpt><trkpt lat="30.97624950186433" lon="-6.761798908411799"><ele>1126.6666666666665</ele><time>2026-04-24T15:25:38Z</time></trkpt><trkpt lat="30.976239084652168" lon="-6.761561024824307"><ele>1127.3333333333333</ele><time>2026-04-24T15:25:39Z</time></trkpt><trkpt lat="30.976230211312036" lon="-6.761328315944883"><ele>1128.0</ele><time>2026-04-24T15:25:40Z</time></trkpt><trkpt lat="30.976219241131222" lon="-6.761099823901981"><ele>1129.3333333333333</ele><time>2026-04-24T15:25:41Z</time></trkpt><trkpt lat="30.976206296614627" lon="-6.760883480051308"><ele>1130.6666666666665</ele><time>2026-04-24T15:25:42Z</time></trkpt><trkpt lat="30.976195850344627" lon="-6.760682145905552"><ele>1132.0</ele><time>2026-04-24T15:25:43Z</time></trkpt><trkpt lat="30.97619031196192" lon="-6.760491560323197"><ele>1132.0</ele><time>2026-04-24T15:25:44Z</time></trkpt><trkpt lat="30.976186499168314" lon="-6.760295175742223"><ele>1132.0</ele><time>2026-04-24T15:25:45Z</time></trkpt><trkpt lat="30.97618109727205" lon="-6.760087625476818"><ele>1132.0</ele><time>2026-04-24T15:25:46Z</time></trkpt><trkpt lat="30.976175974683592" lon="-6.75986450768118"><ele>1131.6666666666665</ele><time>2026-04-24T15:25:47Z</time></trkpt><trkpt lat="30.976170913810073" lon="-6.759625269156698"><ele>1131.3333333333333</ele><time>2026-04-24T15:25:48Z</time></trkpt><trkpt lat="30.976161025826496" lon="-6.759377487613239"><ele>1131.0</ele><time>2026-04-24T15:25:49Z</time></trkpt><trkpt lat="30.976147333876813" lon="-6.7591240076264025"><ele>1130.6666666666667</ele><time>2026-04-24T15:25:50Z</time></trkpt><trkpt lat="30.97613237091332" lon="-6.758869591096622"><ele>1130.3333333333335</ele><time>2026-04-24T15:25:51Z</time></trkpt><trkpt lat="30.97612008646615" lon="-6.758617625196901"><ele>1130.0</ele><time>2026-04-24T15:25:52Z</time></trkpt><trkpt lat="30.976112956478282" lon="-6.75836877639357"><ele>1130.0</ele><time>2026-04-24T15:25:53Z</time></trkpt><trkpt lat="30.976099169692734" lon="-6.758111263466868"><ele>1130.0</ele><time>2026-04-24T15:25:54Z</time></trkpt><trkpt lat="30.976079476056753" lon="-6.757855097114451"><ele>1130.0</ele><time>2026-04-24T15:25:55Z</time></trkpt><trkpt lat="30.976061496638675" lon="-6.757595974230948"><ele>1130.0</ele><time>2026-04-24T15:25:56Z</time></trkpt><trkpt lat="30.97604757785131" lon="-6.757338970625205"><ele>1130.0</ele><time>2026-04-24T15:25:57Z</time></trkpt><trkpt lat="30.976034178108453" lon="-6.7570776012717175"><ele>1130.0</ele><time>2026-04-24T15:25:58Z</time></trkpt><trkpt lat="30.97602057908882" lon="-6.756814461510297"><ele>1130.0</ele><time>2026-04-24T15:25:59Z</time></trkpt><trkpt lat="30.97600781185582" lon="-6.756553008981729"><ele>1130.0</ele><time>2026-04-24T15:26:00Z</time></trkpt><trkpt lat="30.975995456785974" lon="-6.756287615948624"><ele>1131.5</ele><time>2026-04-24T15:26:01Z</time></trkpt><trkpt lat="30.975983637690298" lon="-6.756024615839815"><ele>1133.0</ele><time>2026-04-24T15:26:02Z</time></trkpt><trkpt lat="30.975972168649456" lon="-6.75576373555466"><ele>1133.0</ele><time>2026-04-24T15:26:03Z</time></trkpt><trkpt lat="30.975958730551024" lon="-6.755500759374705"><ele>1133.0</ele><time>2026-04-24T15:26:04Z</time></trkpt><trkpt lat="30.9759449633333" lon="-6.755239230762089"><ele>1132.5</ele><time>2026-04-24T15:26:05Z</time></trkpt><trkpt lat="30.975930154778165" lon="-6.754975875917674"><ele>1132.0</ele><time>2026-04-24T15:26:06Z</time></trkpt><trkpt lat="30.97591561832089" lon="-6.754708650463264"><ele>1132.0</ele><time>2026-04-24T15:26:07Z</time></trkpt><trkpt lat="30.97590169548697" lon="-6.754440258807149"><ele>1132.0</ele><time>2026-04-24T15:26:08Z</time></trkpt><trkpt lat="30.975889159022536" lon="-6.754170753452447"><ele>1131.0</ele><time>2026-04-24T15:26:09Z</time></trkpt><trkpt lat="30.975875756582543" lon="-6.75389612738152"><ele>1130.0</ele><time>2026-04-24T15:26:10Z</time></trkpt><trkpt lat="30.97586190422231" lon="-6.753618073502495"><ele>1128.5</ele><time>2026-04-24T15:26:11Z</time></trkpt><trkpt lat="30.97584919564591" lon="-6.753340967010589"><ele>1127.0</ele><time>2026-04-24T15:26:12Z</time></trkpt><trkpt lat="30.975836359306566" lon="-6.7530650451905645"><ele>1127.0</ele><time>2026-04-24T15:26:13Z</time></trkpt><trkpt lat="30.975824763366038" lon="-6.752787689267575"><ele>1127.0</ele><time>2026-04-24T15:26:14Z</time></trkpt><trkpt lat="30.975811838759967" lon="-6.752509275241001"><ele>1126.0</ele><time>2026-04-24T15:26:15Z</time></trkpt><trkpt lat="30.975799119977157" lon="-6.752231175992979"><ele>1125.0</ele><time>2026-04-24T15:26:16Z</time></trkpt><trkpt lat="30.975785905593128" lon="-6.75195370367322"><ele>1126.5</ele><time>2026-04-24T15:26:17Z</time></trkpt><trkpt lat="30.975772749709865" lon="-6.7516781395216166"><ele>1128.0</ele><time>2026-04-24T15:26:18Z</time></trkpt><trkpt lat="30.975759945862734" lon="-6.751403073191222"><ele>1128.0</ele><time>2026-04-24T15:26:19Z</time></trkpt><trkpt lat="30.97574699106473" lon="-6.751127991602985"><ele>1128.0</ele><time>2026-04-24T15:26:20Z</time></trkpt><trkpt lat="30.975733317860627" lon="-6.750853718036875"><ele>1128.0</ele><time>2026-04-24T15:26:21Z</time></trkpt><trkpt lat="30.975719380793024" lon="-6.750579872416571"><ele>1128.0</ele><time>2026-04-24T15:26:22Z</time></trkpt><trkpt lat="30.975705647507738" lon="-6.750302775754484"><ele>1128.0</ele><time>2026-04-24T15:26:23Z</time></trkpt><trkpt lat="30.975691537025092" lon="-6.750023061824642"><ele>1128.0</ele><time>2026-04-24T15:26:24Z</time></trkpt><trkpt lat="30.975677856098613" lon="-6.749741423366343"><ele>1128.0</ele><time>2026-04-24T15:26:25Z</time></trkpt><trkpt lat="30.975665031873866" lon="-6.749459893324734"><ele>1128.0</ele><time>2026-04-24T15:26:26Z</time></trkpt><trkpt lat="30.975653146188357" lon="-6.74918130685763"><ele>1128.0</ele><time>2026-04-24T15:26:27Z</time></trkpt><trkpt lat="30.975639912585233" lon="-6.748900635967699"><ele>1128.0</ele><time>2026-04-24T15:26:28Z</time></trkpt><trkpt lat="30.97562683468436" lon="-6.748621418534502"><ele>1127.5</ele><time>2026-04-24T15:26:29Z</time></trkpt><trkpt lat="30.97561424966011" lon="-6.748343238673157"><ele>1127.0</ele><time>2026-04-24T15:26:30Z</time></trkpt><trkpt lat="30.975603356028238" lon="-6.748065935156071"><ele>1127.0</ele><time>2026-04-24T15:26:31Z</time></trkpt><trkpt lat="30.975592660674092" lon="-6.7477890164769505"><ele>1127.0</ele><time>2026-04-24T15:26:32Z</time></trkpt><trkpt lat="30.97558047637485" lon="-6.747512771520016"><ele>1128.0</ele><time>2026-04-24T15:26:33Z</time></trkpt><trkpt lat="30.97556669413194" lon="-6.747237301430716"><ele>1129.0</ele><time>2026-04-24T15:26:34Z</time></trkpt><trkpt lat="30.975551825759656" lon="-6.7469615239473555"><ele>1129.0</ele><time>2026-04-24T15:26:35Z</time></trkpt><trkpt lat="30.97553623117965" lon="-6.746685130119023"><ele>1129.0</ele><time>2026-04-24T15:26:36Z</time></trkpt><trkpt lat="30.975520887193582" lon="-6.7464093300404"><ele>1129.0</ele><time>2026-04-24T15:26:37Z</time></trkpt><trkpt lat="30.975505994909557" lon="-6.746132458726203"><ele>1129.0</ele><time>2026-04-24T15:26:38Z</time></trkpt><trkpt lat="30.97549283916478" lon="-6.745855628068985"><ele>1127.0</ele><time>2026-04-24T15:26:39Z</time></trkpt><trkpt lat="30.975479488931434" lon="-6.745579296994136"><ele>1125.0</ele><time>2026-04-24T15:26:40Z</time></trkpt><trkpt lat="30.975464963910163" lon="-6.745303284195826"><ele>1126.0</ele><time>2026-04-24T15:26:41Z</time></trkpt><trkpt lat="30.975451477826894" lon="-6.7450305907817"><ele>1127.0</ele><time>2026-04-24T15:26:42Z</time></trkpt><trkpt lat="30.975439346953433" lon="-6.74476247108856"><ele>1127.0</ele><time>2026-04-24T15:26:43Z</time></trkpt><trkpt lat="30.97542667884203" lon="-6.744498277674825"><ele>1127.0</ele><time>2026-04-24T15:26:44Z</time></trkpt><trkpt lat="30.97541424653042" lon="-6.74423438111042"><ele>1128.0</ele><time>2026-04-24T15:26:45Z</time></trkpt><trkpt lat="30.97540316417881" lon="-6.743967745222038"><ele>1129.0</ele><time>2026-04-24T15:26:46Z</time></trkpt><trkpt lat="30.975392585029027" lon="-6.743702276115629"><ele>1129.0</ele><time>2026-04-24T15:26:47Z</time></trkpt><trkpt lat="30.975379136304017" lon="-6.743437790515361"><ele>1129.0</ele><time>2026-04-24T15:26:48Z</time></trkpt><trkpt lat="30.975365839405686" lon="-6.743173546010099"><ele>1129.0</ele><time>2026-04-24T15:26:49Z</time></trkpt><trkpt lat="30.975353660905412" lon="-6.742908704967045"><ele>1129.0</ele><time>2026-04-24T15:26:50Z</time></trkpt><trkpt lat="30.975341071228783" lon="-6.742644197877671"><ele>1128.0</ele><time>2026-04-24T15:26:51Z</time></trkpt><trkpt lat="30.97532862936157" lon="-6.7423791825943065"><ele>1127.0</ele><time>2026-04-24T15:26:52Z</time></trkpt><trkpt lat="30.975317033992216" lon="-6.742113607928651"><ele>1127.0</ele><time>2026-04-24T15:26:53Z</time></trkpt><trkpt lat="30.97530541256277" lon="-6.74184809108228"><ele>1127.0</ele><time>2026-04-24T15:26:54Z</time></trkpt><trkpt lat="30.975293075462993" lon="-6.741582390652598"><ele>1127.0</ele><time>2026-04-24T15:26:55Z</time></trkpt><trkpt lat="30.975280277947377" lon="-6.741317219058698"><ele>1127.0</ele><time>2026-04-24T15:26:56Z</time></trkpt><trkpt lat="30.975267997754674" lon="-6.741050631661842"><ele>1127.0</ele><time>2026-04-24T15:26:57Z</time></trkpt><trkpt lat="30.97525827315219" lon="-6.740784458388011"><ele>1127.0</ele><time>2026-04-24T15:26:58Z</time></trkpt><trkpt lat="30.975246343120556" lon="-6.7405176162244"><ele>1127.0</ele><time>2026-04-24T15:26:59Z</time></trkpt><trkpt lat="30.975233067308398" lon="-6.7402518203035315"><ele>1127.0</ele><time>2026-04-24T15:27:00Z</time></trkpt><trkpt lat="30.975219947627593" lon="-6.7399871341403115"><ele>1128.0</ele><time>2026-04-24T15:27:01Z</time></trkpt><trkpt lat="30.9752057004808" lon="-6.7397213672080385"><ele>1129.0</ele><time>2026-04-24T15:27:02Z</time></trkpt><trkpt lat="30.97519249980033" lon="-6.739447747860062"><ele>1129.5</ele><time>2026-04-24T15:27:03Z</time></trkpt><trkpt lat="30.975180845524076" lon="-6.739172357110479"><ele>1130.0</ele><time>2026-04-24T15:27:04Z</time></trkpt><trkpt lat="30.975168665338277" lon="-6.738893988396367"><ele>1130.0</ele><time>2026-04-24T15:27:05Z</time></trkpt><trkpt lat="30.97515348166206" lon="-6.7386120640895335"><ele>1130.0</ele><time>2026-04-24T15:27:06Z</time></trkpt><trkpt lat="30.97513532403379" lon="-6.7383260949433055"><ele>1130.5</ele><time>2026-04-24T15:27:07Z</time></trkpt><trkpt lat="30.97511476908575" lon="-6.7380379629288125"><ele>1131.0</ele><time>2026-04-24T15:27:08Z</time></trkpt><trkpt lat="30.975092787427457" lon="-6.737748247367884"><ele>1131.5</ele><time>2026-04-24T15:27:09Z</time></trkpt><trkpt lat="30.975067122029586" lon="-6.737455456657767"><ele>1132.0</ele><time>2026-04-24T15:27:10Z</time></trkpt><trkpt lat="30.975039127411343" lon="-6.7371617770593515"><ele>1132.5</ele><time>2026-04-24T15:27:11Z</time></trkpt><trkpt lat="30.97500899930181" lon="-6.736864633405886"><ele>1133.0</ele><time>2026-04-24T15:27:12Z</time></trkpt><trkpt lat="30.974978507514408" lon="-6.736565587412774"><ele>1133.0</ele><time>2026-04-24T15:27:13Z</time></trkpt><trkpt lat="30.974949598209324" lon="-6.736267474117654"><ele>1133.0</ele><time>2026-04-24T15:27:14Z</time></trkpt><trkpt lat="30.974920894964452" lon="-6.735970914429333"><ele>1133.0</ele><time>2026-04-24T15:27:15Z</time></trkpt><trkpt lat="30.97489238894061" lon="-6.735679079936019"><ele>1133.0</ele><time>2026-04-24T15:27:16Z</time></trkpt><trkpt lat="30.974864133876476" lon="-6.735394304151288"><ele>1133.5</ele><time>2026-04-24T15:27:17Z</time></trkpt><trkpt lat="30.97483627975124" lon="-6.735115970322723"><ele>1134.0</ele><time>2026-04-24T15:27:18Z</time></trkpt><trkpt lat="30.9748077482991" lon="-6.734844102601245"><ele>1134.0</ele><time>2026-04-24T15:27:19Z</time></trkpt><trkpt lat="30.974779763814258" lon="-6.734579281106151"><ele>1134.0</ele><time>2026-04-24T15:27:20Z</time></trkpt><trkpt lat="30.974752124569235" lon="-6.734315302439092"><ele>1134.3333333333333</ele><time>2026-04-24T15:27:21Z</time></trkpt><trkpt lat="30.97472654669156" lon="-6.734053900738413"><ele>1134.6666666666665</ele><time>2026-04-24T15:27:22Z</time></trkpt><trkpt lat="30.974703060655465" lon="-6.733796687406759"><ele>1135.0</ele><time>2026-04-24T15:27:23Z</time></trkpt><trkpt lat="30.974680685465316" lon="-6.733539921193061"><ele>1135.0</ele><time>2026-04-24T15:27:24Z</time></trkpt><trkpt lat="30.97465895703093" lon="-6.733285379581326"><ele>1135.0</ele><time>2026-04-24T15:27:25Z</time></trkpt><trkpt lat="30.974634517584626" lon="-6.733030517924246"><ele>1135.0</ele><time>2026-04-24T15:27:26Z</time></trkpt><trkpt lat="30.97460843950471" lon="-6.732776980800623"><ele>1135.0</ele><time>2026-04-24T15:27:27Z</time></trkpt><trkpt lat="30.97458123658884" lon="-6.732523129300772"><ele>1135.0</ele><time>2026-04-24T15:27:28Z</time></trkpt><trkpt lat="30.97455572091422" lon="-6.732270393283774"><ele>1135.0</ele><time>2026-04-24T15:27:29Z</time></trkpt><trkpt lat="30.974532646785917" lon="-6.7320322646912585"><ele>1135.3333333333333</ele><time>2026-04-24T15:27:30Z</time></trkpt><trkpt lat="30.97451029871053" lon="-6.731810266807381"><ele>1135.6666666666667</ele><time>2026-04-24T15:27:31Z</time></trkpt><trkpt lat="30.974489451247965" lon="-6.731593865785873"><ele>1136.0</ele><time>2026-04-24T15:27:32Z</time></trkpt><trkpt lat="30.974470266771387" lon="-6.731381454479329"><ele>1136.0</ele><time>2026-04-24T15:27:33Z</time></trkpt><trkpt lat="30.97444932594912" lon="-6.731166195087678"><ele>1136.0</ele><time>2026-04-24T15:27:34Z</time></trkpt><trkpt lat="30.974424259963566" lon="-6.730946972904866"><ele>1136.0</ele><time>2026-04-24T15:27:35Z</time></trkpt><trkpt lat="30.97439809195552" lon="-6.730724670400964"><ele>1137.0</ele><time>2026-04-24T15:27:36Z</time></trkpt><trkpt lat="30.97437344633686" lon="-6.730498298851527"><ele>1138.0</ele><time>2026-04-24T15:27:37Z</time></trkpt><trkpt lat="30.97435020816733" lon="-6.730269701870771"><ele>1139.0</ele><time>2026-04-24T15:27:38Z</time></trkpt><trkpt lat="30.97432771909522" lon="-6.730038830246038"><ele>1139.3333333333335</ele><time>2026-04-24T15:27:39Z</time></trkpt><trkpt lat="30.974304202959853" lon="-6.729807595107249"><ele>1139.6666666666667</ele><time>2026-04-24T15:27:40Z</time></trkpt><trkpt lat="30.974280755081534" lon="-6.729574639003062"><ele>1140.0</ele><time>2026-04-24T15:27:41Z</time></trkpt><trkpt lat="30.974258549423663" lon="-6.729340920403274"><ele>1140.3333333333333</ele><time>2026-04-24T15:27:42Z</time></trkpt><trkpt lat="30.97423677583437" lon="-6.729105172020243"><ele>1140.6666666666665</ele><time>2026-04-24T15:27:43Z</time></trkpt><trkpt lat="30.974215541785373" lon="-6.728866778001723"><ele>1141.0</ele><time>2026-04-24T15:27:44Z</time></trkpt><trkpt lat="30.97419951094206" lon="-6.72862566774246"><ele>1141.3333333333333</ele><time>2026-04-24T15:27:45Z</time></trkpt><trkpt lat="30.97419064467006" lon="-6.728379533968044"><ele>1141.6666666666667</ele><time>2026-04-24T15:27:46Z</time></trkpt><trkpt lat="30.97418934033363" lon="-6.728129530254874"><ele>1142.0</ele><time>2026-04-24T15:27:47Z</time></trkpt><trkpt lat="30.974197150937197" lon="-6.7278759101166505"><ele>1143.0</ele><time>2026-04-24T15:27:48Z</time></trkpt><trkpt lat="30.97421584561782" lon="-6.727619440922717"><ele>1144.0</ele><time>2026-04-24T15:27:49Z</time></trkpt><trkpt lat="30.97424678902166" lon="-6.727359285173116"><ele>1145.0</ele><time>2026-04-24T15:27:50Z</time></trkpt><trkpt lat="30.9742913387472" lon="-6.727095687660253"><ele>1146.0</ele><time>2026-04-24T15:27:51Z</time></trkpt><trkpt lat="30.974347604359334" lon="-6.726833386920346"><ele>1147.0</ele><time>2026-04-24T15:27:52Z</time></trkpt><trkpt lat="30.974414062950633" lon="-6.726573021971064"><ele>1147.0</ele><time>2026-04-24T15:27:53Z</time></trkpt><trkpt lat="30.97449065549249" lon="-6.726314661381844"><ele>1147.0</ele><time>2026-04-24T15:27:54Z</time></trkpt><trkpt lat="30.974578161388575" lon="-6.726059080512162"><ele>1142.5</ele><time>2026-04-24T15:27:55Z</time></trkpt><trkpt lat="30.974675273096217" lon="-6.725803375314979"><ele>1138.0</ele><time>2026-04-24T15:27:56Z</time></trkpt><trkpt lat="30.974779991512875" lon="-6.7255520966987685"><ele>1138.0</ele><time>2026-04-24T15:27:57Z</time></trkpt><trkpt lat="30.974887342558773" lon="-6.725303362636202"><ele>1138.0</ele><time>2026-04-24T15:27:58Z</time></trkpt><trkpt lat="30.97499368367683" lon="-6.72505759667828"><ele>1137.5</ele><time>2026-04-24T15:27:59Z</time></trkpt><trkpt lat="30.97509910424369" lon="-6.724813581053922"><ele>1137.0</ele><time>2026-04-24T15:28:00Z</time></trkpt><trkpt lat="30.97520106409415" lon="-6.724575425775695"><ele>1137.0</ele><time>2026-04-24T15:28:01Z</time></trkpt><trkpt lat="30.975300037247422" lon="-6.724342711256372"><ele>1137.0</ele><time>2026-04-24T15:28:02Z</time></trkpt><trkpt lat="30.975395441394088" lon="-6.7241180460762635"><ele>1137.0</ele><time>2026-04-24T15:28:03Z</time></trkpt><trkpt lat="30.975489598304733" lon="-6.723897336688135"><ele>1137.0</ele><time>2026-04-24T15:28:04Z</time></trkpt><trkpt lat="30.975585982396982" lon="-6.723680945224097"><ele>1137.0</ele><time>2026-04-24T15:28:05Z</time></trkpt><trkpt lat="30.975681912432453" lon="-6.723464798016184"><ele>1137.0</ele><time>2026-04-24T15:28:06Z</time></trkpt><trkpt lat="30.975776217425476" lon="-6.723249741279292"><ele>1138.0</ele><time>2026-04-24T15:28:07Z</time></trkpt><trkpt lat="30.975869945760106" lon="-6.7230345985050475"><ele>1139.0</ele><time>2026-04-24T15:28:08Z</time></trkpt><trkpt lat="30.97596372069554" lon="-6.7228202475543615"><ele>1140.0</ele><time>2026-04-24T15:28:09Z</time></trkpt><trkpt lat="30.976056370664367" lon="-6.722604820944827"><ele>1140.3333333333333</ele><time>2026-04-24T15:28:10Z</time></trkpt><trkpt lat="30.976147281886455" lon="-6.722391047404781"><ele>1140.6666666666665</ele><time>2026-04-24T15:28:11Z</time></trkpt><trkpt lat="30.9762372386607" lon="-6.722180396598157"><ele>1141.0</ele><time>2026-04-24T15:28:12Z</time></trkpt><trkpt lat="30.976323852522725" lon="-6.721973866814647"><ele>1141.6666666666665</ele><time>2026-04-24T15:28:13Z</time></trkpt><trkpt lat="30.976407663523116" lon="-6.721770809979428"><ele>1142.3333333333333</ele><time>2026-04-24T15:28:14Z</time></trkpt><trkpt lat="30.97649225673021" lon="-6.721570682484206"><ele>1143.0</ele><time>2026-04-24T15:28:15Z</time></trkpt><trkpt lat="30.976570446410456" lon="-6.721366156688912"><ele>1143.0</ele><time>2026-04-24T15:28:16Z</time></trkpt><trkpt lat="30.976648274747067" lon="-6.721160658799872"><ele>1143.0</ele><time>2026-04-24T15:28:17Z</time></trkpt><trkpt lat="30.976730031193778" lon="-6.720954331015954"><ele>1143.0</ele><time>2026-04-24T15:28:18Z</time></trkpt><trkpt lat="30.97681257418344" lon="-6.720743029222351"><ele>1142.6666666666667</ele><time>2026-04-24T15:28:19Z</time></trkpt><trkpt lat="30.976897270222963" lon="-6.720526678387714"><ele>1142.3333333333335</ele><time>2026-04-24T15:28:20Z</time></trkpt><trkpt lat="30.976982878852567" lon="-6.720302630581742"><ele>1142.0</ele><time>2026-04-24T15:28:21Z</time></trkpt><trkpt lat="30.977070648563622" lon="-6.720074929585676"><ele>1142.0</ele><time>2026-04-24T15:28:22Z</time></trkpt><trkpt lat="30.97715908245514" lon="-6.719849490167785"><ele>1142.0</ele><time>2026-04-24T15:28:23Z</time></trkpt><trkpt lat="30.97724316556419" lon="-6.719622931726338"><ele>1142.0</ele><time>2026-04-24T15:28:24Z</time></trkpt><trkpt lat="30.977326106211844" lon="-6.719397785500264"><ele>1142.3333333333335</ele><time>2026-04-24T15:28:25Z</time></trkpt><trkpt lat="30.977410349405886" lon="-6.719173886886076"><ele>1142.6666666666667</ele><time>2026-04-24T15:28:26Z</time></trkpt><trkpt lat="30.97749637261238" lon="-6.718949213059147"><ele>1143.0</ele><time>2026-04-24T15:28:27Z</time></trkpt><trkpt lat="30.97758422996231" lon="-6.71872396864825"><ele>1143.0</ele><time>2026-04-24T15:28:28Z</time></trkpt><trkpt lat="30.977670760004887" lon="-6.718495668864956"><ele>1143.0</ele><time>2026-04-24T15:28:29Z</time></trkpt><trkpt lat="30.977756432655493" lon="-6.718265198606211"><ele>1143.0</ele><time>2026-04-24T15:28:30Z</time></trkpt><trkpt lat="30.97784291627483" lon="-6.718034332238978"><ele>1143.0</ele><time>2026-04-24T15:28:31Z</time></trkpt><trkpt lat="30.97792864277283" lon="-6.717801549858762"><ele>1143.0</ele><time>2026-04-24T15:28:32Z</time></trkpt><trkpt lat="30.978014991187518" lon="-6.717570152464931"><ele>1143.0</ele><time>2026-04-24T15:28:33Z</time></trkpt><trkpt lat="30.978102445495423" lon="-6.7173399941295395"><ele>1143.0</ele><time>2026-04-24T15:28:34Z</time></trkpt><trkpt lat="30.978190850885237" lon="-6.717108057371463"><ele>1143.0</ele><time>2026-04-24T15:28:35Z</time></trkpt><trkpt lat="30.978281010182886" lon="-6.716874945093901"><ele>1143.0</ele><time>2026-04-24T15:28:36Z</time></trkpt><trkpt lat="30.978372438181026" lon="-6.716639583686562"><ele>1141.0</ele><time>2026-04-24T15:28:37Z</time></trkpt><trkpt lat="30.9784634614665" lon="-6.716399457865479"><ele>1139.0</ele><time>2026-04-24T15:28:38Z</time></trkpt><trkpt lat="30.978554355954227" lon="-6.716155008580925"><ele>1139.0</ele><time>2026-04-24T15:28:39Z</time></trkpt><trkpt lat="30.9786452344367" lon="-6.71590875615501"><ele>1139.0</ele><time>2026-04-24T15:28:40Z</time></trkpt><trkpt lat="30.978737931621474" lon="-6.715658782437912"><ele>1139.0</ele><time>2026-04-24T15:28:41Z</time></trkpt><trkpt lat="30.978834461581606" lon="-6.71540629350568"><ele>1139.0</ele><time>2026-04-24T15:28:42Z</time></trkpt><trkpt lat="30.978931614714146" lon="-6.715153426242186"><ele>1139.5</ele><time>2026-04-24T15:28:43Z</time></trkpt><trkpt lat="30.979028584347905" lon="-6.714897791215582"><ele>1140.0</ele><time>2026-04-24T15:28:44Z</time></trkpt><trkpt lat="30.97912525975271" lon="-6.714640279684418"><ele>1139.0</ele><time>2026-04-24T15:28:45Z</time></trkpt><trkpt lat="30.979224766070907" lon="-6.714379289170666"><ele>1138.0</ele><time>2026-04-24T15:28:46Z</time></trkpt><trkpt lat="30.979325278911965" lon="-6.71411618635239"><ele>1138.0</ele><time>2026-04-24T15:28:47Z</time></trkpt><trkpt lat="30.97942462697966" lon="-6.713855028245143"><ele>1138.0</ele><time>2026-04-24T15:28:48Z</time></trkpt><trkpt lat="30.97952435812526" lon="-6.71359643437554"><ele>1138.0</ele><time>2026-04-24T15:28:49Z</time></trkpt><trkpt lat="30.97962426927394" lon="-6.713336139983128"><ele>1138.0</ele><time>2026-04-24T15:28:50Z</time></trkpt><trkpt lat="30.979723466322444" lon="-6.713075080088522"><ele>1138.0</ele><time>2026-04-24T15:28:51Z</time></trkpt><trkpt lat="30.979823511401936" lon="-6.712817333914132"><ele>1138.0</ele><time>2026-04-24T15:28:52Z</time></trkpt><trkpt lat="30.979922297464263" lon="-6.71256038796941"><ele>1138.0</ele><time>2026-04-24T15:28:53Z</time></trkpt><trkpt lat="30.98001904031196" lon="-6.712302334493766"><ele>1138.0</ele><time>2026-04-24T15:28:54Z</time></trkpt><trkpt lat="30.98011388710737" lon="-6.71204512531228"><ele>1138.5</ele><time>2026-04-24T15:28:55Z</time></trkpt><trkpt lat="30.980206766186697" lon="-6.711788630192265"><ele>1139.0</ele><time>2026-04-24T15:28:56Z</time></trkpt><trkpt lat="30.980297436288826" lon="-6.71154022944751"><ele>1139.0</ele><time>2026-04-24T15:28:57Z</time></trkpt><trkpt lat="30.98038899041648" lon="-6.711295598713674"><ele>1139.0</ele><time>2026-04-24T15:28:58Z</time></trkpt><trkpt lat="30.98048137645825" lon="-6.711057632916177"><ele>1139.0</ele><time>2026-04-24T15:28:59Z</time></trkpt><trkpt lat="30.980571754263618" lon="-6.710819435108324"><ele>1139.0</ele><time>2026-04-24T15:29:00Z</time></trkpt><trkpt lat="30.980662701390813" lon="-6.7105799381719144"><ele>1139.0</ele><time>2026-04-24T15:29:01Z</time></trkpt><trkpt lat="30.980754351554804" lon="-6.710335415983244"><ele>1137.0</ele><time>2026-04-24T15:29:02Z</time></trkpt><trkpt lat="30.98084809012835" lon="-6.710089532627064"><ele>1135.0</ele><time>2026-04-24T15:29:03Z</time></trkpt><trkpt lat="30.98094635913518" lon="-6.709841712752969"><ele>1134.0</ele><time>2026-04-24T15:29:04Z</time></trkpt><trkpt lat="30.981049094952553" lon="-6.709587877123893"><ele>1133.0</ele><time>2026-04-24T15:29:05Z</time></trkpt><trkpt lat="30.981155992914235" lon="-6.7093223867090055"><ele>1133.0</ele><time>2026-04-24T15:29:06Z</time></trkpt><trkpt lat="30.981270877250257" lon="-6.709031207651021"><ele>1133.0</ele><time>2026-04-24T15:29:07Z</time></trkpt><trkpt lat="30.981390729346785" lon="-6.708722295751982"><ele>1133.0</ele><time>2026-04-24T15:29:08Z</time></trkpt><trkpt lat="30.981516281323017" lon="-6.708393166063601"><ele>1133.0</ele><time>2026-04-24T15:29:09Z</time></trkpt><trkpt lat="30.981641869995098" lon="-6.708052368021689"><ele>1134.0</ele><time>2026-04-24T15:29:10Z</time></trkpt><trkpt lat="30.981767031044946" lon="-6.707707404373213"><ele>1135.0</ele><time>2026-04-24T15:29:11Z</time></trkpt><trkpt lat="30.981894249900133" lon="-6.707357325202009"><ele>1135.0</ele><time>2026-04-24T15:29:12Z</time></trkpt><trkpt lat="30.982024306626663" lon="-6.7070072331801525"><ele>1135.0</ele><time>2026-04-24T15:29:13Z</time></trkpt><trkpt lat="30.982155571191804" lon="-6.70665716522713"><ele>1134.0</ele><time>2026-04-24T15:29:14Z</time></trkpt><trkpt lat="30.982287392850438" lon="-6.706308910090377"><ele>1133.0</ele><time>2026-04-24T15:29:15Z</time></trkpt><trkpt lat="30.982419575489185" lon="-6.705960625905076"><ele>1134.5</ele><time>2026-04-24T15:29:16Z</time></trkpt><trkpt lat="30.982549681096412" lon="-6.705612227880693"><ele>1136.0</ele><time>2026-04-24T15:29:17Z</time></trkpt><trkpt lat="30.98267816489308" lon="-6.7052672111227025"><ele>1135.5</ele><time>2026-04-24T15:29:18Z</time></trkpt><trkpt lat="30.98280455982473" lon="-6.704928851374794"><ele>1135.0</ele><time>2026-04-24T15:29:19Z</time></trkpt><trkpt lat="30.98293066867036" lon="-6.704592055607527"><ele>1133.5</ele><time>2026-04-24T15:29:20Z</time></trkpt><trkpt lat="30.983057428072485" lon="-6.704254551881176"><ele>1132.0</ele><time>2026-04-24T15:29:21Z</time></trkpt><trkpt lat="30.983185309934537" lon="-6.703916025938682"><ele>1132.0</ele><time>2026-04-24T15:29:22Z</time></trkpt><trkpt lat="30.983313361628078" lon="-6.703577820714385"><ele>1132.0</ele><time>2026-04-24T15:29:23Z</time></trkpt><trkpt lat="30.98344017394151" lon="-6.703236526215509"><ele>1132.5</ele><time>2026-04-24T15:29:24Z</time></trkpt><trkpt lat="30.983567249144954" lon="-6.70289437468537"><ele>1133.0</ele><time>2026-04-24T15:29:25Z</time></trkpt><trkpt lat="30.98369611883645" lon="-6.702556132478429"><ele>1132.0</ele><time>2026-04-24T15:29:26Z</time></trkpt><trkpt lat="30.983829198056767" lon="-6.702216879451227"><ele>1131.0</ele><time>2026-04-24T15:29:27Z</time></trkpt><trkpt lat="30.983961599246793" lon="-6.701876497706116"><ele>1131.0</ele><time>2026-04-24T15:29:28Z</time></trkpt><trkpt lat="30.98409307532861" lon="-6.701537755921261"><ele>1131.0</ele><time>2026-04-24T15:29:29Z</time></trkpt><trkpt lat="30.984220506810278" lon="-6.701200276814084"><ele>1133.0</ele><time>2026-04-24T15:29:30Z</time></trkpt><trkpt lat="30.9843456871169" lon="-6.700864431867135"><ele>1135.0</ele><time>2026-04-24T15:29:31Z</time></trkpt><trkpt lat="30.98447040101529" lon="-6.700533432348532"><ele>1135.5</ele><time>2026-04-24T15:29:32Z</time></trkpt><trkpt lat="30.98459204974877" lon="-6.700209717856451"><ele>1136.0</ele><time>2026-04-24T15:29:33Z</time></trkpt><trkpt lat="30.984710204232716" lon="-6.699892540444867"><ele>1136.0</ele><time>2026-04-24T15:29:34Z</time></trkpt><trkpt lat="30.984824703842158" lon="-6.699583009377244"><ele>1136.0</ele><time>2026-04-24T15:29:35Z</time></trkpt><trkpt lat="30.984934532580642" lon="-6.699287266344066"><ele>1135.5</ele><time>2026-04-24T15:29:36Z</time></trkpt><trkpt lat="30.98504192889873" lon="-6.698994511532562"><ele>1135.0</ele><time>2026-04-24T15:29:37Z</time></trkpt><trkpt lat="30.98514961773605" lon="-6.698710124557509"><ele>1135.0</ele><time>2026-04-24T15:29:38Z</time></trkpt><trkpt lat="30.985257216400225" lon="-6.698423554974454"><ele>1135.0</ele><time>2026-04-24T15:29:39Z</time></trkpt><trkpt lat="30.985366651918934" lon="-6.698136613188071"><ele>1135.0</ele><time>2026-04-24T15:29:40Z</time></trkpt><trkpt lat="30.98547799560067" lon="-6.697847815861946"><ele>1135.0</ele><time>2026-04-24T15:29:41Z</time></trkpt><trkpt lat="30.985589451145533" lon="-6.697561004375245"><ele>1136.5</ele><time>2026-04-24T15:29:42Z</time></trkpt><trkpt lat="30.985699251310972" lon="-6.697274944044672"><ele>1138.0</ele><time>2026-04-24T15:29:43Z</time></trkpt><trkpt lat="30.985807870058025" lon="-6.696987797131932"><ele>1138.0</ele><time>2026-04-24T15:29:44Z</time></trkpt><trkpt lat="30.985916518211383" lon="-6.6967014557504525"><ele>1138.0</ele><time>2026-04-24T15:29:45Z</time></trkpt><trkpt lat="30.986023891460814" lon="-6.696418211041403"><ele>1138.0</ele><time>2026-04-24T15:29:46Z</time></trkpt><trkpt lat="30.986131330918624" lon="-6.696135571849791"><ele>1138.0</ele><time>2026-04-24T15:29:47Z</time></trkpt><trkpt lat="30.986237894389483" lon="-6.695852885860307"><ele>1138.0</ele><time>2026-04-24T15:29:48Z</time></trkpt><trkpt lat="30.98634468259979" lon="-6.695573843761576"><ele>1138.0</ele><time>2026-04-24T15:29:49Z</time></trkpt><trkpt lat="30.986449873006062" lon="-6.69529818050548"><ele>1137.0</ele><time>2026-04-24T15:29:50Z</time></trkpt><trkpt lat="30.986551866457457" lon="-6.695024211437612"><ele>1136.0</ele><time>2026-04-24T15:29:51Z</time></trkpt><trkpt lat="30.9866474627783" lon="-6.694748165708399"><ele>1138.0</ele><time>2026-04-24T15:29:52Z</time></trkpt><trkpt lat="30.98673605516823" lon="-6.6944707827204315"><ele>1140.0</ele><time>2026-04-24T15:29:53Z</time></trkpt><trkpt lat="30.98681335246414" lon="-6.694185120882186"><ele>1142.0</ele><time>2026-04-24T15:29:54Z</time></trkpt><trkpt lat="30.986878126885973" lon="-6.693892841833421"><ele>1144.0</ele><time>2026-04-24T15:29:55Z</time></trkpt><trkpt lat="30.98694149421336" lon="-6.693597015517876"><ele>1144.0</ele><time>2026-04-24T15:29:56Z</time></trkpt><trkpt lat="30.98699839517411" lon="-6.693292571457584"><ele>1144.0</ele><time>2026-04-24T15:29:57Z</time></trkpt><trkpt lat="30.987056430021145" lon="-6.692991179499269"><ele>1143.5</ele><time>2026-04-24T15:29:58Z</time></trkpt><trkpt lat="30.987112707762947" lon="-6.692688872168971"><ele>1143.0</ele><time>2026-04-24T15:29:59Z</time></trkpt><trkpt lat="30.987169983678793" lon="-6.692388017781726"><ele>1143.0</ele><time>2026-04-24T15:30:00Z</time></trkpt><trkpt lat="30.987227335409873" lon="-6.692089927628877"><ele>1143.0</ele><time>2026-04-24T15:30:01Z</time></trkpt><trkpt lat="30.987284773826058" lon="-6.691789632719697"><ele>1144.0</ele><time>2026-04-24T15:30:02Z</time></trkpt><trkpt lat="30.987342870345277" lon="-6.6914855453847775"><ele>1145.0</ele><time>2026-04-24T15:30:03Z</time></trkpt><trkpt lat="30.9874010693406" lon="-6.691181820861289"><ele>1143.5</ele><time>2026-04-24T15:30:04Z</time></trkpt><trkpt lat="30.98745958891068" lon="-6.690879223395538"><ele>1142.0</ele><time>2026-04-24T15:30:05Z</time></trkpt><trkpt lat="30.987517087708508" lon="-6.690576583254686"><ele>1141.5</ele><time>2026-04-24T15:30:06Z</time></trkpt><trkpt lat="30.987573421328747" lon="-6.690276515301203"><ele>1141.0</ele><time>2026-04-24T15:30:07Z</time></trkpt><trkpt lat="30.987628705891844" lon="-6.68997553744062"><ele>1141.0</ele><time>2026-04-24T15:30:08Z</time></trkpt><trkpt lat="30.98768345523103" lon="-6.689677355904373"><ele>1141.0</ele><time>2026-04-24T15:30:09Z</time></trkpt><trkpt lat="30.987737110829013" lon="-6.689381705331219"><ele>1142.5</ele><time>2026-04-24T15:30:10Z</time></trkpt><trkpt lat="30.987791955936924" lon="-6.689090773921311"><ele>1144.0</ele><time>2026-04-24T15:30:11Z</time></trkpt><trkpt lat="30.987848247255858" lon="-6.688803467088184"><ele>1144.0</ele><time>2026-04-24T15:30:12Z</time></trkpt><trkpt lat="30.987901305373047" lon="-6.688528077894832"><ele>1144.0</ele><time>2026-04-24T15:30:13Z</time></trkpt><trkpt lat="30.987950260495893" lon="-6.6882674203300185"><ele>1144.0</ele><time>2026-04-24T15:30:14Z</time></trkpt><trkpt lat="30.987997446146196" lon="-6.688018315322199"><ele>1144.0</ele><time>2026-04-24T15:30:15Z</time></trkpt><trkpt lat="30.988043680351094" lon="-6.687772763156368"><ele>1144.0</ele><time>2026-04-24T15:30:16Z</time></trkpt><trkpt lat="30.98809008131775" lon="-6.687530588460366"><ele>1144.6666666666665</ele><time>2026-04-24T15:30:17Z</time></trkpt><trkpt lat="30.988133470846893" lon="-6.687301078734062"><ele>1145.3333333333333</ele><time>2026-04-24T15:30:18Z</time></trkpt><trkpt lat="30.988175879710248" lon="-6.687085233079299"><ele>1146.0</ele><time>2026-04-24T15:30:19Z</time></trkpt><trkpt lat="30.98821270880087" lon="-6.68689315759212"><ele>1146.0</ele><time>2026-04-24T15:30:20Z</time></trkpt><trkpt lat="30.988245341910016" lon="-6.686719081769911"><ele>1146.0</ele><time>2026-04-24T15:30:21Z</time></trkpt><trkpt lat="30.988274540673668" lon="-6.686557187520383"><ele>1146.0</ele><time>2026-04-24T15:30:22Z</time></trkpt><trkpt lat="30.988304892209886" lon="-6.686398949025332"><ele>1146.0</ele><time>2026-04-24T15:30:23Z</time></trkpt><trkpt lat="30.988336702577104" lon="-6.686228735490034"><ele>1146.0</ele><time>2026-04-24T15:30:24Z</time></trkpt><trkpt lat="30.98837249085606" lon="-6.6860448511901165"><ele>1146.0</ele><time>2026-04-24T15:30:25Z</time></trkpt><trkpt lat="30.988414170375865" lon="-6.685850643618001"><ele>1146.0</ele><time>2026-04-24T15:30:26Z</time></trkpt><trkpt lat="30.988459028172" lon="-6.685642118217525"><ele>1146.0</ele><time>2026-04-24T15:30:27Z</time></trkpt><trkpt lat="30.98850488376477" lon="-6.685426409711505"><ele>1146.0</ele><time>2026-04-24T15:30:28Z</time></trkpt><trkpt lat="30.988549572019515" lon="-6.685202023700474"><ele>1146.0</ele><time>2026-04-24T15:30:29Z</time></trkpt><trkpt lat="30.988590146214644" lon="-6.684969360528666"><ele>1146.3333333333333</ele><time>2026-04-24T15:30:30Z</time></trkpt><trkpt lat="30.98862963695956" lon="-6.684733081249812"><ele>1146.6666666666665</ele><time>2026-04-24T15:30:31Z</time></trkpt><trkpt lat="30.988669969189104" lon="-6.684490161121187"><ele>1147.0</ele><time>2026-04-24T15:30:32Z</time></trkpt><trkpt lat="30.98871683807776" lon="-6.684243338137963"><ele>1147.0</ele><time>2026-04-24T15:30:33Z</time></trkpt><trkpt lat="30.98877115950316" lon="-6.683988753184723"><ele>1147.0</ele><time>2026-04-24T15:30:34Z</time></trkpt><trkpt lat="30.988831470603163" lon="-6.683736643113965"><ele>1147.0</ele><time>2026-04-24T15:30:35Z</time></trkpt><trkpt lat="30.98889872365964" lon="-6.683492347259864"><ele>1146.6666666666665</ele><time>2026-04-24T15:30:36Z</time></trkpt><trkpt lat="30.988971215654836" lon="-6.683251737985116"><ele>1146.3333333333333</ele><time>2026-04-24T15:30:37Z</time></trkpt><trkpt lat="30.989045751740246" lon="-6.683009614299489"><ele>1146.0</ele><time>2026-04-24T15:30:38Z</time></trkpt><trkpt lat="30.98912257516806" lon="-6.682764731376281"><ele>1147.5</ele><time>2026-04-24T15:30:39Z</time></trkpt><trkpt lat="30.989200902455213" lon="-6.682517971584943"><ele>1149.0</ele><time>2026-04-24T15:30:40Z</time></trkpt><trkpt lat="30.989279761337325" lon="-6.68226625264049"><ele>1149.0</ele><time>2026-04-24T15:30:41Z</time></trkpt><trkpt lat="30.989359526825922" lon="-6.682011026921241"><ele>1149.0</ele><time>2026-04-24T15:30:42Z</time></trkpt><trkpt lat="30.989441753536394" lon="-6.681749410195557"><ele>1148.0</ele><time>2026-04-24T15:30:43Z</time></trkpt><trkpt lat="30.98952710541972" lon="-6.681482105594754"><ele>1147.0</ele><time>2026-04-24T15:30:44Z</time></trkpt><trkpt lat="30.989614137860965" lon="-6.681207842574466"><ele>1146.5</ele><time>2026-04-24T15:30:45Z</time></trkpt><trkpt lat="30.989701378773802" lon="-6.680926882131945"><ele>1146.0</ele><time>2026-04-24T15:30:46Z</time></trkpt><trkpt lat="30.989790031019883" lon="-6.680643294215107"><ele>1146.0</ele><time>2026-04-24T15:30:47Z</time></trkpt><trkpt lat="30.989880602921062" lon="-6.680356286403754"><ele>1146.0</ele><time>2026-04-24T15:30:48Z</time></trkpt><trkpt lat="30.989971099241192" lon="-6.6800688586852734"><ele>1147.0</ele><time>2026-04-24T15:30:49Z</time></trkpt><trkpt lat="30.990062319067086" lon="-6.679780077700951"><ele>1148.0</ele><time>2026-04-24T15:30:50Z</time></trkpt><trkpt lat="30.990153332561274" lon="-6.679488046369587"><ele>1147.0</ele><time>2026-04-24T15:30:51Z</time></trkpt><trkpt lat="30.9902456070558" lon="-6.679195414288336"><ele>1146.0</ele><time>2026-04-24T15:30:52Z</time></trkpt><trkpt lat="30.990338461420485" lon="-6.678901159376678"><ele>1146.0</ele><time>2026-04-24T15:30:53Z</time></trkpt><trkpt lat="30.990431678964992" lon="-6.678604038779105"><ele>1146.0</ele><time>2026-04-24T15:30:54Z</time></trkpt><trkpt lat="30.990528296358082" lon="-6.678302802777221"><ele>1146.0</ele><time>2026-04-24T15:30:55Z</time></trkpt><trkpt lat="30.990624878072364" lon="-6.677997903358016"><ele>1146.0</ele><time>2026-04-24T15:30:56Z</time></trkpt><trkpt lat="30.990720684252196" lon="-6.677693661069772"><ele>1146.0</ele><time>2026-04-24T15:30:57Z</time></trkpt><trkpt lat="30.9908174167937" lon="-6.677388521161513"><ele>1146.0</ele><time>2026-04-24T15:30:58Z</time></trkpt><trkpt lat="30.99091379513413" lon="-6.677082748781918"><ele>1146.0</ele><time>2026-04-24T15:30:59Z</time></trkpt><trkpt lat="30.9910096738895" lon="-6.676774157919338"><ele>1146.0</ele><time>2026-04-24T15:31:00Z</time></trkpt><trkpt lat="30.991104957824493" lon="-6.67646607755701"><ele>1146.0</ele><time>2026-04-24T15:31:01Z</time></trkpt><trkpt lat="30.991202465704667" lon="-6.676155709763841"><ele>1146.0</ele><time>2026-04-24T15:31:02Z</time></trkpt><trkpt lat="30.991299852002676" lon="-6.675843329623043"><ele>1147.0</ele><time>2026-04-24T15:31:03Z</time></trkpt><trkpt lat="30.991397875857647" lon="-6.675531531079227"><ele>1148.0</ele><time>2026-04-24T15:31:04Z</time></trkpt><trkpt lat="30.9914943708084" lon="-6.67522519172185"><ele>1148.0</ele><time>2026-04-24T15:31:05Z</time></trkpt><trkpt lat="30.99158894415326" lon="-6.67492678101485"><ele>1148.0</ele><time>2026-04-24T15:31:06Z</time></trkpt><trkpt lat="30.991679811987154" lon="-6.674637634525382"><ele>1148.0</ele><time>2026-04-24T15:31:07Z</time></trkpt><trkpt lat="30.991768121992852" lon="-6.6743571088411295"><ele>1148.0</ele><time>2026-04-24T15:31:08Z</time></trkpt><trkpt lat="30.991852957457002" lon="-6.674081731638025"><ele>1148.0</ele><time>2026-04-24T15:31:09Z</time></trkpt><trkpt lat="30.991938194596873" lon="-6.673807397151554"><ele>1148.0</ele><time>2026-04-24T15:31:10Z</time></trkpt><trkpt lat="30.99202307471776" lon="-6.673540276898343"><ele>1149.5</ele><time>2026-04-24T15:31:11Z</time></trkpt><trkpt lat="30.99210375946926" lon="-6.6732820932823875"><ele>1151.0</ele><time>2026-04-24T15:31:12Z</time></trkpt><trkpt lat="30.992183184898465" lon="-6.673030679266002"><ele>1151.0</ele><time>2026-04-24T15:31:13Z</time></trkpt><trkpt lat="30.99226072873665" lon="-6.672781641718924"><ele>1151.0</ele><time>2026-04-24T15:31:14Z</time></trkpt><trkpt lat="30.99233515315554" lon="-6.67254390474357"><ele>1151.0</ele><time>2026-04-24T15:31:15Z</time></trkpt><trkpt lat="30.992405844993268" lon="-6.672317106792292"><ele>1151.0</ele><time>2026-04-24T15:31:16Z</time></trkpt><trkpt lat="30.992471514305112" lon="-6.672101353559754"><ele>1151.0</ele><time>2026-04-24T15:31:17Z</time></trkpt><trkpt lat="30.992531236391713" lon="-6.67189496644962"><ele>1151.0</ele><time>2026-04-24T15:31:18Z</time></trkpt><trkpt lat="30.99259041142633" lon="-6.671699337677882"><ele>1151.6666666666667</ele><time>2026-04-24T15:31:19Z</time></trkpt><trkpt lat="30.9926514128327" lon="-6.671511095175485"><ele>1152.3333333333333</ele><time>2026-04-24T15:31:20Z</time></trkpt><trkpt lat="30.992718110524947" lon="-6.6713189565514694"><ele>1153.0</ele><time>2026-04-24T15:31:21Z</time></trkpt><trkpt lat="30.99278968678654" lon="-6.6711223039108365"><ele>1152.3333333333333</ele><time>2026-04-24T15:31:22Z</time></trkpt><trkpt lat="30.992859623637305" lon="-6.670916363470927"><ele>1151.6666666666667</ele><time>2026-04-24T15:31:23Z</time></trkpt><trkpt lat="30.992924082491335" lon="-6.670704103049339"><ele>1151.0</ele><time>2026-04-24T15:31:24Z</time></trkpt><trkpt lat="30.992988499034947" lon="-6.670493479511836"><ele>1151.0</ele><time>2026-04-24T15:31:25Z</time></trkpt><trkpt lat="30.99305492021448" lon="-6.670281855741265"><ele>1151.0</ele><time>2026-04-24T15:31:26Z</time></trkpt><trkpt lat="30.99312049402376" lon="-6.67006600756108"><ele>1151.0</ele><time>2026-04-24T15:31:27Z</time></trkpt><trkpt lat="30.993188019580675" lon="-6.669843887545113"><ele>1150.6666666666667</ele><time>2026-04-24T15:31:28Z</time></trkpt><trkpt lat="30.99325904048673" lon="-6.669611291875908"><ele>1150.3333333333333</ele><time>2026-04-24T15:31:29Z</time></trkpt><trkpt lat="30.993334842831956" lon="-6.66936807833107"><ele>1150.0</ele><time>2026-04-24T15:31:30Z</time></trkpt><trkpt lat="30.993413855518558" lon="-6.669116226817959"><ele>1150.0</ele><time>2026-04-24T15:31:31Z</time></trkpt><trkpt lat="30.993495946238937" lon="-6.668856630228587"><ele>1150.0</ele><time>2026-04-24T15:31:32Z</time></trkpt><trkpt lat="30.993582989255074" lon="-6.668586043753865"><ele>1151.5</ele><time>2026-04-24T15:31:33Z</time></trkpt><trkpt lat="30.993671756060287" lon="-6.668308890996241"><ele>1153.0</ele><time>2026-04-24T15:31:34Z</time></trkpt><trkpt lat="30.993763068319115" lon="-6.668019635631716"><ele>1154.0</ele><time>2026-04-24T15:31:35Z</time></trkpt><trkpt lat="30.993856645264128" lon="-6.667720463153548"><ele>1155.0</ele><time>2026-04-24T15:31:36Z</time></trkpt><trkpt lat="30.993952181631627" lon="-6.6674162492072915"><ele>1155.0</ele><time>2026-04-24T15:31:37Z</time></trkpt><trkpt lat="30.994051492935174" lon="-6.667109446750282"><ele>1155.0</ele><time>2026-04-24T15:31:38Z</time></trkpt><trkpt lat="30.994153997194356" lon="-6.6668015678400465"><ele>1155.0</ele><time>2026-04-24T15:31:39Z</time></trkpt><trkpt lat="30.99425250348279" lon="-6.666508744924163"><ele>1155.0</ele><time>2026-04-24T15:31:40Z</time></trkpt><trkpt lat="30.99434216444922" lon="-6.666245902227013"><ele>1153.5</ele><time>2026-04-24T15:31:41Z</time></trkpt><trkpt lat="30.99443549351871" lon="-6.6659719240665485"><ele>1152.0</ele><time>2026-04-24T15:31:42Z</time></trkpt><trkpt lat="30.994529232620867" lon="-6.665679163965999"><ele>1152.0</ele><time>2026-04-24T15:31:43Z</time></trkpt><trkpt lat="30.994622413319938" lon="-6.665371799257624"><ele>1152.0</ele><time>2026-04-24T15:31:44Z</time></trkpt><trkpt lat="30.99471752089563" lon="-6.6650533819469135"><ele>1152.5</ele><time>2026-04-24T15:31:45Z</time></trkpt><trkpt lat="30.994811549577175" lon="-6.664730362562416"><ele>1153.0</ele><time>2026-04-24T15:31:46Z</time></trkpt><trkpt lat="30.994904076127057" lon="-6.664405279611019"><ele>1153.0</ele><time>2026-04-24T15:31:47Z</time></trkpt><trkpt lat="30.994997973825853" lon="-6.664081570823201"><ele>1153.0</ele><time>2026-04-24T15:31:48Z</time></trkpt><trkpt lat="30.99509466536042" lon="-6.663761143884793"><ele>1156.0</ele><time>2026-04-24T15:31:49Z</time></trkpt><trkpt lat="30.995192570084253" lon="-6.663441470169205"><ele>1159.0</ele><time>2026-04-24T15:31:50Z</time></trkpt><trkpt lat="30.995288532793168" lon="-6.663127068975501"><ele>1159.0</ele><time>2026-04-24T15:31:51Z</time></trkpt><trkpt lat="30.995383261253096" lon="-6.662818594088095"><ele>1159.0</ele><time>2026-04-24T15:31:52Z</time></trkpt><trkpt lat="30.99547783823869" lon="-6.662514036738946"><ele>1159.0</ele><time>2026-04-24T15:31:53Z</time></trkpt><trkpt lat="30.995571876782606" lon="-6.662210446477542"><ele>1159.0</ele><time>2026-04-24T15:31:54Z</time></trkpt><trkpt lat="30.99566634044544" lon="-6.661905858565608"><ele>1159.0</ele><time>2026-04-24T15:31:55Z</time></trkpt><trkpt lat="30.995760958923835" lon="-6.661601631379576"><ele>1159.0</ele><time>2026-04-24T15:31:56Z</time></trkpt><trkpt lat="30.99585450945899" lon="-6.661302396890442"><ele>1158.0</ele><time>2026-04-24T15:31:57Z</time></trkpt><trkpt lat="30.995947962088852" lon="-6.661008324104148"><ele>1157.0</ele><time>2026-04-24T15:31:58Z</time></trkpt><trkpt lat="30.996042343083822" lon="-6.660716388182608"><ele>1157.0</ele><time>2026-04-24T15:31:59Z</time></trkpt><trkpt lat="30.99613615793678" lon="-6.660424650748146"><ele>1157.0</ele><time>2026-04-24T15:32:00Z</time></trkpt><trkpt lat="30.99622901375299" lon="-6.660132114192299"><ele>1159.0</ele><time>2026-04-24T15:32:01Z</time></trkpt><trkpt lat="30.99632141178779" lon="-6.659839658314238"><ele>1161.0</ele><time>2026-04-24T15:32:02Z</time></trkpt><trkpt lat="30.996413479083365" lon="-6.659547622762372"><ele>1159.0</ele><time>2026-04-24T15:32:03Z</time></trkpt><trkpt lat="30.99650267975439" lon="-6.6592631890443705"><ele>1157.0</ele><time>2026-04-24T15:32:04Z</time></trkpt><trkpt lat="30.996589203879367" lon="-6.658986629914171"><ele>1158.0</ele><time>2026-04-24T15:32:05Z</time></trkpt><trkpt lat="30.99667338954202" lon="-6.658719322547363"><ele>1159.0</ele><time>2026-04-24T15:32:06Z</time></trkpt><trkpt lat="30.996754659556586" lon="-6.6584591072810815"><ele>1159.0</ele><time>2026-04-24T15:32:07Z</time></trkpt><trkpt lat="30.99683390615126" lon="-6.6582058626915055"><ele>1159.0</ele><time>2026-04-24T15:32:08Z</time></trkpt><trkpt lat="30.99691132157845" lon="-6.657955687145148"><ele>1159.5</ele><time>2026-04-24T15:32:09Z</time></trkpt><trkpt lat="30.996986132798302" lon="-6.657705379832113"><ele>1160.0</ele><time>2026-04-24T15:32:10Z</time></trkpt><trkpt lat="30.997063559967682" lon="-6.657456685426372"><ele>1160.0</ele><time>2026-04-24T15:32:11Z</time></trkpt><trkpt lat="30.99714526789756" lon="-6.65720634528238"><ele>1160.0</ele><time>2026-04-24T15:32:12Z</time></trkpt><trkpt lat="30.99722700007797" lon="-6.656959271980041"><ele>1161.0</ele><time>2026-04-24T15:32:13Z</time></trkpt><trkpt lat="30.997305021665465" lon="-6.656716960136972"><ele>1162.0</ele><time>2026-04-24T15:32:14Z</time></trkpt><trkpt lat="30.997376536502717" lon="-6.6564856955156415"><ele>1163.0</ele><time>2026-04-24T15:32:15Z</time></trkpt><trkpt lat="30.997445189937967" lon="-6.656262727127863"><ele>1163.6666666666667</ele><time>2026-04-24T15:32:16Z</time></trkpt><trkpt lat="30.997511041558106" lon="-6.656052038669392"><ele>1164.3333333333333</ele><time>2026-04-24T15:32:17Z</time></trkpt><trkpt lat="30.997574025143727" lon="-6.65585142899851"><ele>1165.0</ele><time>2026-04-24T15:32:18Z</time></trkpt><trkpt lat="30.997636119776644" lon="-6.655659623448465"><ele>1165.0</ele><time>2026-04-24T15:32:19Z</time></trkpt><trkpt lat="30.99769827873074" lon="-6.655465804112621"><ele>1165.0</ele><time>2026-04-24T15:32:20Z</time></trkpt><trkpt lat="30.997762271359846" lon="-6.655272421883625"><ele>1165.0</ele><time>2026-04-24T15:32:21Z</time></trkpt><trkpt lat="30.99782847566447" lon="-6.65508011830701"><ele>1164.6666666666665</ele><time>2026-04-24T15:32:22Z</time></trkpt><trkpt lat="30.997893392026914" lon="-6.6548808547654685"><ele>1164.3333333333333</ele><time>2026-04-24T15:32:23Z</time></trkpt><trkpt lat="30.997956253776284" lon="-6.654679210804619"><ele>1164.0</ele><time>2026-04-24T15:32:24Z</time></trkpt><trkpt lat="30.99801714398155" lon="-6.654474056731442"><ele>1165.0</ele><time>2026-04-24T15:32:25Z</time></trkpt><trkpt lat="30.998075943359943" lon="-6.6542712368849255"><ele>1166.0</ele><time>2026-04-24T15:32:26Z</time></trkpt><trkpt lat="30.99813471325825" lon="-6.654071361144903"><ele>1167.0</ele><time>2026-04-24T15:32:27Z</time></trkpt><trkpt lat="30.998194564465408" lon="-6.653873404794046"><ele>1167.0</ele><time>2026-04-24T15:32:28Z</time></trkpt><trkpt lat="30.998255163431192" lon="-6.65367784134114"><ele>1167.0</ele><time>2026-04-24T15:32:29Z</time></trkpt><trkpt lat="30.998315349700285" lon="-6.653482852284205"><ele>1167.0</ele><time>2026-04-24T15:32:30Z</time></trkpt><trkpt lat="30.99837595033767" lon="-6.65328712393246"><ele>1167.0</ele><time>2026-04-24T15:32:31Z</time></trkpt><trkpt lat="30.99843661150385" lon="-6.653090610663453"><ele>1167.0</ele><time>2026-04-24T15:32:32Z</time></trkpt><trkpt lat="30.99849904293126" lon="-6.652894970069943"><ele>1167.0</ele><time>2026-04-24T15:32:33Z</time></trkpt><trkpt lat="30.998562409067002" lon="-6.65270053522178"><ele>1167.0</ele><time>2026-04-24T15:32:34Z</time></trkpt><trkpt lat="30.998625713952755" lon="-6.652509064752422"><ele>1167.0</ele><time>2026-04-24T15:32:35Z</time></trkpt><trkpt lat="30.998689482728196" lon="-6.652320363827105"><ele>1167.0</ele><time>2026-04-24T15:32:36Z</time></trkpt><trkpt lat="30.998749932573002" lon="-6.6521411020861745"><ele>1167.0</ele><time>2026-04-24T15:32:37Z</time></trkpt><trkpt lat="30.99880912510372" lon="-6.651970770146523"><ele>1167.0</ele><time>2026-04-24T15:32:38Z</time></trkpt><trkpt lat="30.998867451358727" lon="-6.651802216895301"><ele>1167.0</ele><time>2026-04-24T15:32:39Z</time></trkpt><trkpt lat="30.998923769795326" lon="-6.651636159006835"><ele>1167.3333333333333</ele><time>2026-04-24T15:32:40Z</time></trkpt><trkpt lat="30.998980117397757" lon="-6.651471527826101"><ele>1167.6666666666665</ele><time>2026-04-24T15:32:41Z</time></trkpt><trkpt lat="30.999037673933053" lon="-6.651307446604393"><ele>1168.0</ele><time>2026-04-24T15:32:42Z</time></trkpt><trkpt lat="30.999094777446043" lon="-6.651146133714667"><ele>1167.25</ele><time>2026-04-24T15:32:43Z</time></trkpt><trkpt lat="30.999150086940677" lon="-6.650988866618595"><ele>1166.5</ele><time>2026-04-24T15:32:44Z</time></trkpt><trkpt lat="30.999204208491644" lon="-6.650836242592826"><ele>1165.75</ele><time>2026-04-24T15:32:45Z</time></trkpt><trkpt lat="30.999255824974682" lon="-6.650689134318763"><ele>1165.0</ele><time>2026-04-24T15:32:46Z</time></trkpt><trkpt lat="30.99930497098504" lon="-6.650546070300046"><ele>1165.0</ele><time>2026-04-24T15:32:47Z</time></trkpt><trkpt lat="30.999353791680573" lon="-6.65039863857796"><ele>1165.0</ele><time>2026-04-24T15:32:48Z</time></trkpt><trkpt lat="30.99940237599321" lon="-6.650243969373243"><ele>1165.0</ele><time>2026-04-24T15:32:49Z</time></trkpt><trkpt lat="30.999454846568426" lon="-6.650083407579875"><ele>1165.0</ele><time>2026-04-24T15:32:50Z</time></trkpt><trkpt lat="30.99950832170418" lon="-6.649921358467429"><ele>1164.6666666666665</ele><time>2026-04-24T15:32:51Z</time></trkpt><trkpt lat="30.999563590194096" lon="-6.649756272499023"><ele>1164.3333333333333</ele><time>2026-04-24T15:32:52Z</time></trkpt><trkpt lat="30.999618885681222" lon="-6.64958740710874"><ele>1164.0</ele><time>2026-04-24T15:32:53Z</time></trkpt><trkpt lat="30.99967704031137" lon="-6.649414078659622"><ele>1163.6666666666667</ele><time>2026-04-24T15:32:54Z</time></trkpt><trkpt lat="30.999737596071164" lon="-6.6492365081699685"><ele>1163.3333333333335</ele><time>2026-04-24T15:32:55Z</time></trkpt><trkpt lat="30.999802520462254" lon="-6.6490536855272415"><ele>1163.0</ele><time>2026-04-24T15:32:56Z</time></trkpt><trkpt lat="30.999867815652326" lon="-6.648868415723772"><ele>1163.0</ele><time>2026-04-24T15:32:57Z</time></trkpt><trkpt lat="30.999933264710215" lon="-6.648682622688092"><ele>1163.0</ele><time>2026-04-24T15:32:58Z</time></trkpt><trkpt lat="30.999999422588928" lon="-6.648492999991936"><ele>1163.0</ele><time>2026-04-24T15:32:59Z</time></trkpt><trkpt lat="31.000065703998562" lon="-6.648297935654913"><ele>1162.6666666666667</ele><time>2026-04-24T15:33:00Z</time></trkpt><trkpt lat="31.000132480131008" lon="-6.64810301971746"><ele>1162.3333333333333</ele><time>2026-04-24T15:33:01Z</time></trkpt><trkpt lat="31.000198498753452" lon="-6.647905953886379"><ele>1162.0</ele><time>2026-04-24T15:33:02Z</time></trkpt><trkpt lat="31.0002648655272" lon="-6.647710230375601"><ele>1162.0</ele><time>2026-04-24T15:33:03Z</time></trkpt><trkpt lat="31.000330917501945" lon="-6.647510909681063"><ele>1162.0</ele><time>2026-04-24T15:33:04Z</time></trkpt><trkpt lat="31.000399396486877" lon="-6.647308155470279"><ele>1162.0</ele><time>2026-04-24T15:33:05Z</time></trkpt><trkpt lat="31.000469472041193" lon="-6.647104374273702"><ele>1162.0</ele><time>2026-04-24T15:33:06Z</time></trkpt><trkpt lat="31.000540937798725" lon="-6.646901035386298"><ele>1162.0</ele><time>2026-04-24T15:33:07Z</time></trkpt><trkpt lat="31.0006122578866" lon="-6.646697280194401"><ele>1162.0</ele><time>2026-04-24T15:33:08Z</time></trkpt><trkpt lat="31.000683592790473" lon="-6.646494288704657"><ele>1162.0</ele><time>2026-04-24T15:33:09Z</time></trkpt><trkpt lat="31.00075368977347" lon="-6.6462931047800975"><ele>1162.0</ele><time>2026-04-24T15:33:10Z</time></trkpt><trkpt lat="31.000821418254855" lon="-6.64609053286083"><ele>1162.0</ele><time>2026-04-24T15:33:11Z</time></trkpt><trkpt lat="31.00088865377943" lon="-6.645886133599316"><ele>1161.6666666666665</ele><time>2026-04-24T15:33:12Z</time></trkpt><trkpt lat="31.000955901784423" lon="-6.645680989121965"><ele>1161.3333333333333</ele><time>2026-04-24T15:33:13Z</time></trkpt><trkpt lat="31.00102385433911" lon="-6.645475008768954"><ele>1161.0</ele><time>2026-04-24T15:33:14Z</time></trkpt><trkpt lat="31.001093163737913" lon="-6.645265904704766"><ele>1161.6666666666667</ele><time>2026-04-24T15:33:15Z</time></trkpt><trkpt lat="31.00116476510626" lon="-6.645052822766397"><ele>1162.3333333333335</ele><time>2026-04-24T15:33:16Z</time></trkpt><trkpt lat="31.0012375905134" lon="-6.644838508488441"><ele>1163.0</ele><time>2026-04-24T15:33:17Z</time></trkpt><trkpt lat="31.001308727526578" lon="-6.644621785236945"><ele>1162.0</ele><time>2026-04-24T15:33:18Z</time></trkpt><trkpt lat="31.00138041923108" lon="-6.644405987035206"><ele>1161.0</ele><time>2026-04-24T15:33:19Z</time></trkpt><trkpt lat="31.001456008839728" lon="-6.644192834333674"><ele>1160.0</ele><time>2026-04-24T15:33:20Z</time></trkpt><trkpt lat="31.001531883603334" lon="-6.643980365170768"><ele>1160.0</ele><time>2026-04-24T15:33:21Z</time></trkpt><trkpt lat="31.001607637762195" lon="-6.64376593446526"><ele>1160.0</ele><time>2026-04-24T15:33:21.999Z</time></trkpt><trkpt lat="31.00168201831999" lon="-6.6435473956390965"><ele>1160.0</ele><time>2026-04-24T15:33:22.999Z</time></trkpt><trkpt lat="31.00175555189737" lon="-6.643335439320592"><ele>1160.3333333333335</ele><time>2026-04-24T15:33:23.999Z</time></trkpt><trkpt lat="31.00182762822541" lon="-6.643123027588732"><ele>1160.6666666666667</ele><time>2026-04-24T15:33:24.999Z</time></trkpt><trkpt lat="31.001898714175912" lon="-6.64291205758261"><ele>1161.0</ele><time>2026-04-24T15:33:25.999Z</time></trkpt><trkpt lat="31.001970113047946" lon="-6.642700358490484"><ele>1161.0</ele><time>2026-04-24T15:33:26.999Z</time></trkpt><trkpt lat="31.002041317980016" lon="-6.642490504007646"><ele>1161.0</ele><time>2026-04-24T15:33:27.999Z</time></trkpt><trkpt lat="31.00211191939422" lon="-6.642280987268688"><ele>1161.0</ele><time>2026-04-24T15:33:28.999Z</time></trkpt><trkpt lat="31.00218166828498" lon="-6.642071969020699"><ele>1160.6666666666667</ele><time>2026-04-24T15:33:29.999Z</time></trkpt><trkpt lat="31.002250283899595" lon="-6.641864342803851"><ele>1160.3333333333335</ele><time>2026-04-24T15:33:30.999Z</time></trkpt><trkpt lat="31.002319264060944" lon="-6.64165974983887"><ele>1160.0</ele><time>2026-04-24T15:33:31.999Z</time></trkpt><trkpt lat="31.00239027073638" lon="-6.6414544808161144"><ele>1160.0</ele><time>2026-04-24T15:33:32.999Z</time></trkpt><trkpt lat="31.002465944545406" lon="-6.641242556099731"><ele>1160.0</ele><time>2026-04-24T15:33:33.999Z</time></trkpt><trkpt lat="31.002546317484867" lon="-6.641021192522959"><ele>1160.0</ele><time>2026-04-24T15:33:34.999Z</time></trkpt><trkpt lat="31.002629575441212" lon="-6.640789582601768"><ele>1161.0</ele><time>2026-04-24T15:33:35.999Z</time></trkpt><trkpt lat="31.00271585420247" lon="-6.640546178271679"><ele>1162.0</ele><time>2026-04-24T15:33:36.999Z</time></trkpt><trkpt lat="31.002800978770114" lon="-6.640294340027311"><ele>1160.0</ele><time>2026-04-24T15:33:37.999Z</time></trkpt><trkpt lat="31.002882747362474" lon="-6.640036779720904"><ele>1158.0</ele><time>2026-04-24T15:33:38.999Z</time></trkpt><trkpt lat="31.002968165566298" lon="-6.639777398959262"><ele>1158.0</ele><time>2026-04-24T15:33:39.999Z</time></trkpt><trkpt lat="31.003053858449803" lon="-6.639516846788795"><ele>1158.0</ele><time>2026-04-24T15:33:40.999Z</time></trkpt><trkpt lat="31.003141683072787" lon="-6.6392541633156545"><ele>1158.5</ele><time>2026-04-24T15:33:41.999Z</time></trkpt><trkpt lat="31.003231049910443" lon="-6.638984664514736"><ele>1159.0</ele><time>2026-04-24T15:33:42.999Z</time></trkpt><trkpt lat="31.00332153694637" lon="-6.63871367926838"><ele>1161.0</ele><time>2026-04-24T15:33:43.999Z</time></trkpt><trkpt lat="31.003411859960963" lon="-6.638441104011342"><ele>1163.0</ele><time>2026-04-24T15:33:44.999Z</time></trkpt><trkpt lat="31.003507391621085" lon="-6.638169126257725"><ele>1163.0</ele><time>2026-04-24T15:33:45.999Z</time></trkpt><trkpt lat="31.00360192464666" lon="-6.637888036542268"><ele>1163.0</ele><time>2026-04-24T15:33:46.999Z</time></trkpt><trkpt lat="31.003698023978536" lon="-6.637602987130036"><ele>1161.5</ele><time>2026-04-24T15:33:47.999Z</time></trkpt><trkpt lat="31.003795657202406" lon="-6.637312959391339"><ele>1160.0</ele><time>2026-04-24T15:33:48.999Z</time></trkpt><trkpt lat="31.00389302287864" lon="-6.637023126114776"><ele>1161.0</ele><time>2026-04-24T15:33:49.999Z</time></trkpt><trkpt lat="31.003991108996882" lon="-6.63673002455486"><ele>1162.0</ele><time>2026-04-24T15:33:50.999Z</time></trkpt><trkpt lat="31.00409040034682" lon="-6.636437012743316"><ele>1161.0</ele><time>2026-04-24T15:33:51.999Z</time></trkpt><trkpt lat="31.00419171001241" lon="-6.636141560284548"><ele>1160.0</ele><time>2026-04-24T15:33:52.999Z</time></trkpt><trkpt lat="31.004294679892748" lon="-6.635842185080771"><ele>1160.0</ele><time>2026-04-24T15:33:53.999Z</time></trkpt><trkpt lat="31.004398944750854" lon="-6.635539186830364"><ele>1160.0</ele><time>2026-04-24T15:33:54.999Z</time></trkpt><trkpt lat="31.00450374255554" lon="-6.635233251393057"><ele>1158.5</ele><time>2026-04-24T15:33:55.999Z</time></trkpt><trkpt lat="31.004611042065722" lon="-6.634925266575389"><ele>1157.0</ele><time>2026-04-24T15:33:56.999Z</time></trkpt><trkpt lat="31.004719827542424" lon="-6.634613582726433"><ele>1158.0</ele><time>2026-04-24T15:33:57.999Z</time></trkpt><trkpt lat="31.004825816274476" lon="-6.634300178263608"><ele>1159.0</ele><time>2026-04-24T15:33:58.999Z</time></trkpt><trkpt lat="31.004931245697925" lon="-6.633989236711801"><ele>1159.5</ele><time>2026-04-24T15:33:59.999Z</time></trkpt><trkpt lat="31.005033828329186" lon="-6.633677804741116"><ele>1160.0</ele><time>2026-04-24T15:34:00.999Z</time></trkpt><trkpt lat="31.005139008333487" lon="-6.633366779171167"><ele>1160.0</ele><time>2026-04-24T15:34:01.999Z</time></trkpt><trkpt lat="31.00524890069484" lon="-6.633055754339415"><ele>1160.0</ele><time>2026-04-24T15:34:02.999Z</time></trkpt><trkpt lat="31.005354386391808" lon="-6.6327448217358365"><ele>1160.0</ele><time>2026-04-24T15:34:03.999Z</time></trkpt><trkpt lat="31.005460450011565" lon="-6.632435370581617"><ele>1160.0</ele><time>2026-04-24T15:34:04.999Z</time></trkpt><trkpt lat="31.00557217722547" lon="-6.63212621251016"><ele>1160.0</ele><time>2026-04-24T15:34:05.999Z</time></trkpt><trkpt lat="31.005704770037756" lon="-6.631824689963451"><ele>1160.0</ele><time>2026-04-24T15:34:06.999Z</time></trkpt><trkpt lat="31.005842648036865" lon="-6.631525073788972"><ele>1160.0</ele><time>2026-04-24T15:34:07.999Z</time></trkpt><trkpt lat="31.005977842878995" lon="-6.631224830556302"><ele>1160.0</ele><time>2026-04-24T15:34:08.999Z</time></trkpt><trkpt lat="31.00611245675302" lon="-6.630927767239733"><ele>1157.5</ele><time>2026-04-24T15:34:09.999Z</time></trkpt><trkpt lat="31.0062473080862" lon="-6.630635225156141"><ele>1155.0</ele><time>2026-04-24T15:34:10.999Z</time></trkpt><trkpt lat="31.006380463004106" lon="-6.630344306963865"><ele>1155.5</ele><time>2026-04-24T15:34:11.999Z</time></trkpt><trkpt lat="31.006509617454203" lon="-6.630058708480638"><ele>1156.0</ele><time>2026-04-24T15:34:12.999Z</time></trkpt><trkpt lat="31.006636725066283" lon="-6.6297790614475725"><ele>1156.0</ele><time>2026-04-24T15:34:13.999Z</time></trkpt><trkpt lat="31.006762693948726" lon="-6.629502518688402"><ele>1156.0</ele><time>2026-04-24T15:34:14.999Z</time></trkpt><trkpt lat="31.00688644101494" lon="-6.62923144969313"><ele>1155.0</ele><time>2026-04-24T15:34:15.999Z</time></trkpt><trkpt lat="31.007007437407808" lon="-6.628965551621101"><ele>1154.0</ele><time>2026-04-24T15:34:16.999Z</time></trkpt><trkpt lat="31.007123887309284" lon="-6.628703973672674"><ele>1154.0</ele><time>2026-04-24T15:34:17.999Z</time></trkpt><trkpt lat="31.00723718527137" lon="-6.6284465215167305"><ele>1154.0</ele><time>2026-04-24T15:34:18.999Z</time></trkpt><trkpt lat="31.007344132034117" lon="-6.628186757673261"><ele>1154.0</ele><time>2026-04-24T15:34:19.999Z</time></trkpt><trkpt lat="31.00742729324929" lon="-6.62792614775121"><ele>1154.0</ele><time>2026-04-24T15:34:20.999Z</time></trkpt><trkpt lat="31.00750251565574" lon="-6.627667982168137"><ele>1154.0</ele><time>2026-04-24T15:34:21.999Z</time></trkpt><trkpt lat="31.007564463430867" lon="-6.627413709505726"><ele>1154.0</ele><time>2026-04-24T15:34:22.999Z</time></trkpt><trkpt lat="31.007615484047303" lon="-6.627167275244868"><ele>1154.0</ele><time>2026-04-24T15:34:23.999Z</time></trkpt><trkpt lat="31.007653351801114" lon="-6.626920089366357"><ele>1154.3333333333335</ele><time>2026-04-24T15:34:24.999Z</time></trkpt><trkpt lat="31.00768201289545" lon="-6.626669534786952"><ele>1154.6666666666667</ele><time>2026-04-24T15:34:25.999Z</time></trkpt><trkpt lat="31.007700969140405" lon="-6.626415242874318"><ele>1155.0</ele><time>2026-04-24T15:34:26.999Z</time></trkpt><trkpt lat="31.007713139422382" lon="-6.62615706904894"><ele>1154.0</ele><time>2026-04-24T15:34:27.999Z</time></trkpt><trkpt lat="31.007717369089615" lon="-6.625893563156583"><ele>1153.0</ele><time>2026-04-24T15:34:28.999Z</time></trkpt><trkpt lat="31.007709374603444" lon="-6.6256196849594575"><ele>1153.0</ele><time>2026-04-24T15:34:29.999Z</time></trkpt><trkpt lat="31.00768713097698" lon="-6.625338838925132"><ele>1153.0</ele><time>2026-04-24T15:34:30.999Z</time></trkpt><trkpt lat="31.007648772466645" lon="-6.625045457086357"><ele>1153.0</ele><time>2026-04-24T15:34:31.999Z</time></trkpt><trkpt lat="31.007601398277725" lon="-6.624744951937223"><ele>1153.0</ele><time>2026-04-24T15:34:32.999Z</time></trkpt><trkpt lat="31.007551241025052" lon="-6.624434734272813"><ele>1153.5</ele><time>2026-04-24T15:34:33.999Z</time></trkpt><trkpt lat="31.00750137115557" lon="-6.624116639430511"><ele>1154.0</ele><time>2026-04-24T15:34:34.999Z</time></trkpt><trkpt lat="31.007450749940798" lon="-6.623794421258639"><ele>1151.5</ele><time>2026-04-24T15:34:35.999Z</time></trkpt><trkpt lat="31.007401791652683" lon="-6.623467974270995"><ele>1149.0</ele><time>2026-04-24T15:34:36.999Z</time></trkpt><trkpt lat="31.007355661220757" lon="-6.623143379779859"><ele>1149.0</ele><time>2026-04-24T15:34:37.999Z</time></trkpt><trkpt lat="31.00731143232334" lon="-6.622825211449518"><ele>1149.0</ele><time>2026-04-24T15:34:38.999Z</time></trkpt><trkpt lat="31.007268620361042" lon="-6.622510981369664"><ele>1149.0</ele><time>2026-04-24T15:34:39.999Z</time></trkpt><trkpt lat="31.00722529412163" lon="-6.622197101458705"><ele>1149.0</ele><time>2026-04-24T15:34:40.999Z</time></trkpt><trkpt lat="31.00718134830644" lon="-6.621878904886691"><ele>1149.5</ele><time>2026-04-24T15:34:41.999Z</time></trkpt><trkpt lat="31.00713821693371" lon="-6.621558574785923"><ele>1150.0</ele><time>2026-04-24T15:34:42.999Z</time></trkpt><trkpt lat="31.007093955512502" lon="-6.621234825295514"><ele>1150.0</ele><time>2026-04-24T15:34:43.999Z</time></trkpt><trkpt lat="31.007048214901975" lon="-6.620912147997661"><ele>1150.0</ele><time>2026-04-24T15:34:44.999Z</time></trkpt><trkpt lat="31.007009439960033" lon="-6.62058842029135"><ele>1148.5</ele><time>2026-04-24T15:34:45.999Z</time></trkpt><trkpt lat="31.006985195949934" lon="-6.620262741162842"><ele>1147.0</ele><time>2026-04-24T15:34:46.999Z</time></trkpt><trkpt lat="31.006975593868923" lon="-6.619932917822768"><ele>1147.0</ele><time>2026-04-24T15:34:47.999Z</time></trkpt><trkpt lat="31.006982409924312" lon="-6.619602653281738"><ele>1147.0</ele><time>2026-04-24T15:34:48.999Z</time></trkpt><trkpt lat="31.007005982649282" lon="-6.61927516632589"><ele>1147.0</ele><time>2026-04-24T15:34:49.999Z</time></trkpt><trkpt lat="31.007049163074065" lon="-6.61895488852413"><ele>1147.0</ele><time>2026-04-24T15:34:50.999Z</time></trkpt><trkpt lat="31.00711445232189" lon="-6.618635969079476"><ele>1147.0</ele><time>2026-04-24T15:34:51.999Z</time></trkpt><trkpt lat="31.007204313212856" lon="-6.618327049205625"><ele>1147.0</ele><time>2026-04-24T15:34:52.999Z</time></trkpt><trkpt lat="31.007312895396655" lon="-6.618029190166377"><ele>1148.0</ele><time>2026-04-24T15:34:53.999Z</time></trkpt><trkpt lat="31.00743499476488" lon="-6.6177442569874465"><ele>1149.0</ele><time>2026-04-24T15:34:54.999Z</time></trkpt><trkpt lat="31.00757584210586" lon="-6.617468079068016"><ele>1149.0</ele><time>2026-04-24T15:34:55.999Z</time></trkpt><trkpt lat="31.00773109543131" lon="-6.617208319758527"><ele>1149.0</ele><time>2026-04-24T15:34:56.999Z</time></trkpt><trkpt lat="31.007899322761805" lon="-6.616965470387922"><ele>1149.5</ele><time>2026-04-24T15:34:57.999Z</time></trkpt><trkpt lat="31.0080701722025" lon="-6.616743796807826"><ele>1150.0</ele><time>2026-04-24T15:34:58.999Z</time></trkpt><trkpt lat="31.008243265845504" lon="-6.616548584817095"><ele>1149.5</ele><time>2026-04-24T15:34:59.999Z</time></trkpt><trkpt lat="31.008419571758743" lon="-6.616370187009251"><ele>1149.0</ele><time>2026-04-24T15:35:00.999Z</time></trkpt><trkpt lat="31.0086083430116" lon="-6.6161997018495535"><ele>1150.0</ele><time>2026-04-24T15:35:01.999Z</time></trkpt><trkpt lat="31.00881007740671" lon="-6.616040370408929"><ele>1151.0</ele><time>2026-04-24T15:35:02.999Z</time></trkpt><trkpt lat="31.009023485595083" lon="-6.615893832271172"><ele>1152.5</ele><time>2026-04-24T15:35:03.999Z</time></trkpt><trkpt lat="31.009246136972045" lon="-6.615753080248726"><ele>1154.0</ele><time>2026-04-24T15:35:04.999Z</time></trkpt><trkpt lat="31.009471952925523" lon="-6.6156162327904555"><ele>1154.0</ele><time>2026-04-24T15:35:05.999Z</time></trkpt><trkpt lat="31.009696986668875" lon="-6.615474514640937"><ele>1154.0</ele><time>2026-04-24T15:35:06.999Z</time></trkpt><trkpt lat="31.00992623750363" lon="-6.61533121620757"><ele>1153.0</ele><time>2026-04-24T15:35:07.999Z</time></trkpt><trkpt lat="31.010163526484877" lon="-6.615186376290195"><ele>1152.0</ele><time>2026-04-24T15:35:08.999Z</time></trkpt><trkpt lat="31.010402703865424" lon="-6.615040475002211"><ele>1152.0</ele><time>2026-04-24T15:35:09.999Z</time></trkpt><trkpt lat="31.0106471781017" lon="-6.614890807704267"><ele>1152.0</ele><time>2026-04-24T15:35:10.999Z</time></trkpt><trkpt lat="31.0108948492466" lon="-6.614735259867381"><ele>1152.5</ele><time>2026-04-24T15:35:11.999Z</time></trkpt><trkpt lat="31.011135470018274" lon="-6.614575137286728"><ele>1153.0</ele><time>2026-04-24T15:35:13Z</time></trkpt><trkpt lat="31.011370820903576" lon="-6.61441196796693"><ele>1153.5</ele><time>2026-04-24T15:35:14Z</time></trkpt><trkpt lat="31.011606318929772" lon="-6.614249358420696"><ele>1154.0</ele><time>2026-04-24T15:35:15Z</time></trkpt><trkpt lat="31.01184234727107" lon="-6.614091327807887"><ele>1154.0</ele><time>2026-04-24T15:35:16Z</time></trkpt><trkpt lat="31.012078752041262" lon="-6.6139367084987155"><ele>1154.0</ele><time>2026-04-24T15:35:17Z</time></trkpt><trkpt lat="31.012314617189524" lon="-6.613783896316351"><ele>1153.5</ele><time>2026-04-24T15:35:18Z</time></trkpt><trkpt lat="31.012545473989977" lon="-6.613629057198815"><ele>1153.0</ele><time>2026-04-24T15:35:19Z</time></trkpt><trkpt lat="31.012764395272587" lon="-6.6134669755966735"><ele>1153.0</ele><time>2026-04-24T15:35:20Z</time></trkpt><trkpt lat="31.012962544906596" lon="-6.613295719519541"><ele>1153.0</ele><time>2026-04-24T15:35:21Z</time></trkpt><trkpt lat="31.013148908109788" lon="-6.613119283842153"><ele>1152.5</ele><time>2026-04-24T15:35:22Z</time></trkpt><trkpt lat="31.013330412211175" lon="-6.6129312343470765"><ele>1152.0</ele><time>2026-04-24T15:35:23Z</time></trkpt><trkpt lat="31.013505913844206" lon="-6.612733957834529"><ele>1151.0</ele><time>2026-04-24T15:35:24Z</time></trkpt><trkpt lat="31.013673317766628" lon="-6.612521932751301"><ele>1150.0</ele><time>2026-04-24T15:35:25Z</time></trkpt><trkpt lat="31.013834892555884" lon="-6.612296887488069"><ele>1150.0</ele><time>2026-04-24T15:35:26Z</time></trkpt><trkpt lat="31.013999765060326" lon="-6.612068516191361"><ele>1150.0</ele><time>2026-04-24T15:35:27Z</time></trkpt><trkpt lat="31.014167014460753" lon="-6.611844184696061"><ele>1151.5</ele><time>2026-04-24T15:35:28Z</time></trkpt><trkpt lat="31.014336109573435" lon="-6.611618651429364"><ele>1153.0</ele><time>2026-04-24T15:35:29Z</time></trkpt><trkpt lat="31.01450377492274" lon="-6.61139862392938"><ele>1153.0</ele><time>2026-04-24T15:35:30Z</time></trkpt><trkpt lat="31.014670411166396" lon="-6.61117812786442"><ele>1153.0</ele><time>2026-04-24T15:35:31Z</time></trkpt><trkpt lat="31.0148366501186" lon="-6.610956314875318"><ele>1154.5</ele><time>2026-04-24T15:35:32Z</time></trkpt><trkpt lat="31.014998155582" lon="-6.610733540275585"><ele>1156.0</ele><time>2026-04-24T15:35:33Z</time></trkpt><trkpt lat="31.01514635730321" lon="-6.6105138933265355"><ele>1155.3333333333333</ele><time>2026-04-24T15:35:34Z</time></trkpt><trkpt lat="31.015271357807414" lon="-6.610301414084168"><ele>1154.6666666666667</ele><time>2026-04-24T15:35:35Z</time></trkpt><trkpt lat="31.015363449142434" lon="-6.610082588347589"><ele>1154.0</ele><time>2026-04-24T15:35:36Z</time></trkpt><trkpt lat="31.01542649879201" lon="-6.609850252747032"><ele>1154.0</ele><time>2026-04-24T15:35:37Z</time></trkpt><trkpt lat="31.015468603627426" lon="-6.609605030104249"><ele>1154.0</ele><time>2026-04-24T15:35:38Z</time></trkpt><trkpt lat="31.01549028840392" lon="-6.609345997912809"><ele>1154.0</ele><time>2026-04-24T15:35:39Z</time></trkpt><trkpt lat="31.015489968520672" lon="-6.609083934617652"><ele>1154.5</ele><time>2026-04-24T15:35:40Z</time></trkpt><trkpt lat="31.015459882196996" lon="-6.608821125201084"><ele>1155.0</ele><time>2026-04-24T15:35:41Z</time></trkpt><trkpt lat="31.015394047134908" lon="-6.608560187425314"><ele>1154.0</ele><time>2026-04-24T15:35:42Z</time></trkpt><trkpt lat="31.01530038221762" lon="-6.608300152934884"><ele>1153.0</ele><time>2026-04-24T15:35:43Z</time></trkpt><trkpt lat="31.01520758726526" lon="-6.608037842255644"><ele>1152.5</ele><time>2026-04-24T15:35:44Z</time></trkpt><trkpt lat="31.0151195519497" lon="-6.607768098844084"><ele>1152.0</ele><time>2026-04-24T15:35:45Z</time></trkpt><trkpt lat="31.015031430098464" lon="-6.607496357558219"><ele>1152.5</ele><time>2026-04-24T15:35:46Z</time></trkpt><trkpt lat="31.014942414524686" lon="-6.607223818836001"><ele>1153.0</ele><time>2026-04-24T15:35:47Z</time></trkpt><trkpt lat="31.014852983309755" lon="-6.606952700673683"><ele>1152.0</ele><time>2026-04-24T15:35:48Z</time></trkpt><trkpt lat="31.01476100241726" lon="-6.606679600644946"><ele>1151.0</ele><time>2026-04-24T15:35:49Z</time></trkpt><trkpt lat="31.01466683096182" lon="-6.606408500642826"><ele>1150.5</ele><time>2026-04-24T15:35:50Z</time></trkpt><trkpt lat="31.014575010899225" lon="-6.6061382497055625"><ele>1150.0</ele><time>2026-04-24T15:35:51Z</time></trkpt><trkpt lat="31.014485383692854" lon="-6.605867854108184"><ele>1150.0</ele><time>2026-04-24T15:35:52Z</time></trkpt><trkpt lat="31.014399711441186" lon="-6.6056010769837"><ele>1150.0</ele><time>2026-04-24T15:35:53Z</time></trkpt><trkpt lat="31.014314237912057" lon="-6.605336693666061"><ele>1150.0</ele><time>2026-04-24T15:35:54Z</time></trkpt><trkpt lat="31.014228890748967" lon="-6.605074577449164"><ele>1150.0</ele><time>2026-04-24T15:35:55Z</time></trkpt><trkpt lat="31.01414627167634" lon="-6.604818940577234"><ele>1150.0</ele><time>2026-04-24T15:35:56Z</time></trkpt><trkpt lat="31.01406721770079" lon="-6.60457740763336"><ele>1150.0</ele><time>2026-04-24T15:35:57Z</time></trkpt><trkpt lat="31.013991650283867" lon="-6.60434555805444"><ele>1150.0</ele><time>2026-04-24T15:35:58Z</time></trkpt><trkpt lat="31.01392064424149" lon="-6.604124170607184"><ele>1150.0</ele><time>2026-04-24T15:35:59Z</time></trkpt><trkpt lat="31.013851605267543" lon="-6.6039132308393675"><ele>1150.0</ele><time>2026-04-24T15:36:00Z</time></trkpt><trkpt lat="31.013788469623556" lon="-6.603725276871022"><ele>1150.0</ele><time>2026-04-24T15:36:01Z</time></trkpt><trkpt lat="31.01373091251201" lon="-6.603552365357999"><ele>1150.0</ele><time>2026-04-24T15:36:02Z</time></trkpt><trkpt lat="31.01368062501289" lon="-6.603394701070241"><ele>1150.0</ele><time>2026-04-24T15:36:03Z</time></trkpt><trkpt lat="31.013632549308117" lon="-6.603247619987276"><ele>1150.0</ele><time>2026-04-24T15:36:04Z</time></trkpt><trkpt lat="31.013586009082886" lon="-6.603110641880889"><ele>1150.0</ele><time>2026-04-24T15:36:05Z</time></trkpt><trkpt lat="31.013540397283403" lon="-6.6029795409666665"><ele>1150.0</ele><time>2026-04-24T15:36:06Z</time></trkpt><trkpt lat="31.013494518109983" lon="-6.6028431604878"><ele>1150.0</ele><time>2026-04-24T15:36:07Z</time></trkpt><trkpt lat="31.013450486142816" lon="-6.6027018681082055"><ele>1150.0</ele><time>2026-04-24T15:36:08Z</time></trkpt><trkpt lat="31.01340836856133" lon="-6.6025627223716326"><ele>1150.0</ele><time>2026-04-24T15:36:09Z</time></trkpt><trkpt lat="31.013360821165808" lon="-6.602421858751718"><ele>1150.0</ele><time>2026-04-24T15:36:10Z</time></trkpt><trkpt lat="31.013315181126988" lon="-6.60227557427626"><ele>1150.0</ele><time>2026-04-24T15:36:11Z</time></trkpt><trkpt lat="31.013267911302854" lon="-6.602126978127219"><ele>1150.0</ele><time>2026-04-24T15:36:12Z</time></trkpt><trkpt lat="31.013220011164105" lon="-6.601978543152012"><ele>1150.0</ele><time>2026-04-24T15:36:13Z</time></trkpt><trkpt lat="31.013172304998065" lon="-6.601831666780627"><ele>1149.25</ele><time>2026-04-24T15:36:14Z</time></trkpt><trkpt lat="31.013124380384312" lon="-6.601686404644592"><ele>1148.5</ele><time>2026-04-24T15:36:15Z</time></trkpt><trkpt lat="31.01307797668651" lon="-6.6015426189578275"><ele>1147.75</ele><time>2026-04-24T15:36:16Z</time></trkpt><trkpt lat="31.013030785517792" lon="-6.6013994808383485"><ele>1147.0</ele><time>2026-04-24T15:36:17Z</time></trkpt><trkpt lat="31.012984660432764" lon="-6.601254922935304"><ele>1147.25</ele><time>2026-04-24T15:36:18Z</time></trkpt><trkpt lat="31.012937642622738" lon="-6.601108150930557"><ele>1147.5</ele><time>2026-04-24T15:36:19Z</time></trkpt><trkpt lat="31.012887875437425" lon="-6.600960963659276"><ele>1147.75</ele><time>2026-04-24T15:36:20Z</time></trkpt><trkpt lat="31.012836224116956" lon="-6.600812275479419"><ele>1148.0</ele><time>2026-04-24T15:36:21Z</time></trkpt><trkpt lat="31.01278438496459" lon="-6.600664866331012"><ele>1148.0</ele><time>2026-04-24T15:36:22Z</time></trkpt><trkpt lat="31.012735937819954" lon="-6.600514249733655"><ele>1148.0</ele><time>2026-04-24T15:36:23Z</time></trkpt><trkpt lat="31.01269595623722" lon="-6.600362517883918"><ele>1148.0</ele><time>2026-04-24T15:36:24Z</time></trkpt><trkpt lat="31.012660977899998" lon="-6.600204901381136"><ele>1148.0</ele><time>2026-04-24T15:36:25Z</time></trkpt><trkpt lat="31.012634706761368" lon="-6.600040486193679"><ele>1149.25</ele><time>2026-04-24T15:36:26Z</time></trkpt><trkpt lat="31.012619119705306" lon="-6.599872366832357"><ele>1150.5</ele><time>2026-04-24T15:36:27Z</time></trkpt><trkpt lat="31.012614837923813" lon="-6.599704370759645"><ele>1151.75</ele><time>2026-04-24T15:36:28Z</time></trkpt><trkpt lat="31.012621963456436" lon="-6.599534655643739"><ele>1153.0</ele><time>2026-04-24T15:36:29Z</time></trkpt><trkpt lat="31.012637990623386" lon="-6.599361262113105"><ele>1154.3333333333333</ele><time>2026-04-24T15:36:30Z</time></trkpt><trkpt lat="31.01266723366776" lon="-6.5991858938471735"><ele>1155.6666666666667</ele><time>2026-04-24T15:36:31Z</time></trkpt><trkpt lat="31.012714978640236" lon="-6.599011800796229"><ele>1157.0</ele><time>2026-04-24T15:36:32Z</time></trkpt><trkpt lat="31.012777073949042" lon="-6.598840316062083"><ele>1157.0</ele><time>2026-04-24T15:36:33Z</time></trkpt><trkpt lat="31.012851228508623" lon="-6.598669860746688"><ele>1157.0</ele><time>2026-04-24T15:36:34Z</time></trkpt><trkpt lat="31.012933645435197" lon="-6.598501973667433"><ele>1157.0</ele><time>2026-04-24T15:36:35Z</time></trkpt><trkpt lat="31.013025071205067" lon="-6.598341895821959"><ele>1157.3333333333335</ele><time>2026-04-24T15:36:36Z</time></trkpt><trkpt lat="31.01312609290509" lon="-6.598188523359375"><ele>1157.6666666666667</ele><time>2026-04-24T15:36:37Z</time></trkpt><trkpt lat="31.013233943230013" lon="-6.59803415655662"><ele>1158.0</ele><time>2026-04-24T15:36:38Z</time></trkpt><trkpt lat="31.013346923463686" lon="-6.597874572216919"><ele>1159.3333333333333</ele><time>2026-04-24T15:36:39Z</time></trkpt><trkpt lat="31.013465249622143" lon="-6.597708293960919"><ele>1160.6666666666665</ele><time>2026-04-24T15:36:40Z</time></trkpt><trkpt lat="31.013586024787568" lon="-6.597536607276901"><ele>1162.0</ele><time>2026-04-24T15:36:41Z</time></trkpt><trkpt lat="31.013717847262683" lon="-6.597352532056236"><ele>1162.0</ele><time>2026-04-24T15:36:42Z</time></trkpt><trkpt lat="31.013853655083032" lon="-6.597161731112002"><ele>1162.0</ele><time>2026-04-24T15:36:43Z</time></trkpt><trkpt lat="31.01399647362233" lon="-6.596959954539509"><ele>1162.0</ele><time>2026-04-24T15:36:44Z</time></trkpt><trkpt lat="31.014145313823565" lon="-6.596749918087195"><ele>1160.5</ele><time>2026-04-24T15:36:45Z</time></trkpt><trkpt lat="31.014298264397446" lon="-6.596534775520754"><ele>1159.0</ele><time>2026-04-24T15:36:46Z</time></trkpt><trkpt lat="31.01444929400431" lon="-6.596322039029467"><ele>1160.0</ele><time>2026-04-24T15:36:47Z</time></trkpt><trkpt lat="31.01460311468252" lon="-6.596103315089938"><ele>1161.0</ele><time>2026-04-24T15:36:48Z</time></trkpt><trkpt lat="31.014762563619406" lon="-6.595877003393518"><ele>1161.0</ele><time>2026-04-24T15:36:49Z</time></trkpt><trkpt lat="31.014925034126463" lon="-6.5956504364470465"><ele>1161.0</ele><time>2026-04-24T15:36:50Z</time></trkpt><trkpt lat="31.01508770086334" lon="-6.595424145104852"><ele>1163.0</ele><time>2026-04-24T15:36:51Z</time></trkpt><trkpt lat="31.015250460111762" lon="-6.595193495740828"><ele>1165.0</ele><time>2026-04-24T15:36:52Z</time></trkpt><trkpt lat="31.015412601540035" lon="-6.594964215108363"><ele>1165.0</ele><time>2026-04-24T15:36:53Z</time></trkpt><trkpt lat="31.015574451292704" lon="-6.5947351040817725"><ele>1165.0</ele><time>2026-04-24T15:36:54Z</time></trkpt><trkpt lat="31.015738533011458" lon="-6.594502401581334"><ele>1162.0</ele><time>2026-04-24T15:36:55Z</time></trkpt><trkpt lat="31.015903084358744" lon="-6.594271352606689"><ele>1159.0</ele><time>2026-04-24T15:36:56Z</time></trkpt><trkpt lat="31.01606742044522" lon="-6.594041030433987"><ele>1159.0</ele><time>2026-04-24T15:36:57Z</time></trkpt><trkpt lat="31.016231345184867" lon="-6.593814514279027"><ele>1159.0</ele><time>2026-04-24T15:36:58Z</time></trkpt><trkpt lat="31.01639835662931" lon="-6.59357555064792"><ele>1158.5</ele><time>2026-04-24T15:36:59Z</time></trkpt><trkpt lat="31.016566986448076" lon="-6.593334170047145"><ele>1158.0</ele><time>2026-04-24T15:37:00Z</time></trkpt><trkpt lat="31.01673789456761" lon="-6.59308874668964"><ele>1158.0</ele><time>2026-04-24T15:37:01Z</time></trkpt><trkpt lat="31.01691503597241" lon="-6.59284062739568"><ele>1158.0</ele><time>2026-04-24T15:37:02Z</time></trkpt><trkpt lat="31.017094676906908" lon="-6.592586960611078"><ele>1157.0</ele><time>2026-04-24T15:37:03Z</time></trkpt><trkpt lat="31.01727163185919" lon="-6.592335241782435"><ele>1156.0</ele><time>2026-04-24T15:37:04Z</time></trkpt><trkpt lat="31.01745343066696" lon="-6.592080682222884"><ele>1159.5</ele><time>2026-04-24T15:37:05Z</time></trkpt><trkpt lat="31.017639407930993" lon="-6.591816642897734"><ele>1163.0</ele><time>2026-04-24T15:37:06Z</time></trkpt><trkpt lat="31.017831440186665" lon="-6.591548529660636"><ele>1163.0</ele><time>2026-04-24T15:37:07Z</time></trkpt><trkpt lat="31.01802411097561" lon="-6.591277702160102"><ele>1163.0</ele><time>2026-04-24T15:37:08Z</time></trkpt><trkpt lat="31.01821955764537" lon="-6.59100561470075"><ele>1162.5</ele><time>2026-04-24T15:37:09Z</time></trkpt><trkpt lat="31.018398854640367" lon="-6.59078224071421"><ele>1162.0</ele><time>2026-04-24T15:37:10Z</time></trkpt><trkpt lat="31.01861981317822" lon="-6.590468794604519"><ele>1162.0</ele><time>2026-04-24T15:37:11Z</time></trkpt><trkpt lat="31.018815626908747" lon="-6.5901906459850865"><ele>1162.0</ele><time>2026-04-24T15:37:12Z</time></trkpt><trkpt lat="31.019011391938264" lon="-6.589917312048449"><ele>1163.0</ele><time>2026-04-24T15:37:13Z</time></trkpt><trkpt lat="31.019212504784782" lon="-6.589639826539815"><ele>1164.0</ele><time>2026-04-24T15:37:14Z</time></trkpt><trkpt lat="31.019409826162306" lon="-6.58936712176007"><ele>1164.5</ele><time>2026-04-24T15:37:15Z</time></trkpt><trkpt lat="31.019584994514457" lon="-6.589125669754646"><ele>1165.0</ele><time>2026-04-24T15:37:16Z</time></trkpt><trkpt lat="31.019704838306627" lon="-6.58896042991583"><ele>1165.0</ele><time>2026-04-24T15:37:17Z</time></trkpt><trkpt lat="31.01980697872691" lon="-6.5888212947190095"><ele>1165.0</ele><time>2026-04-24T15:37:18Z</time></trkpt><trkpt lat="31.019916786684256" lon="-6.588671032773654"><ele>1165.0</ele><time>2026-04-24T15:37:19Z</time></trkpt><trkpt lat="31.02001381565413" lon="-6.588514849954263"><ele>1163.6666666666665</ele><time>2026-04-24T15:37:20Z</time></trkpt><trkpt lat="31.020135941354994" lon="-6.588386043478932"><ele>1162.3333333333333</ele><time>2026-04-24T15:37:21Z</time></trkpt><trkpt lat="31.02023619645235" lon="-6.588229540706724"><ele>1161.0</ele><time>2026-04-24T15:37:22Z</time></trkpt><trkpt lat="31.020363823930925" lon="-6.588092165146816"><ele>1161.0</ele><time>2026-04-24T15:37:23Z</time></trkpt><trkpt lat="31.0204746682734" lon="-6.587934406627039"><ele>1161.0</ele><time>2026-04-24T15:37:24Z</time></trkpt><trkpt lat="31.02059095965799" lon="-6.587783853747647"><ele>1161.0</ele><time>2026-04-24T15:37:25Z</time></trkpt><trkpt lat="31.020704980829237" lon="-6.587636901354189"><ele>1162.0</ele><time>2026-04-24T15:37:26Z</time></trkpt><trkpt lat="31.020811570941504" lon="-6.587493685415925"><ele>1163.0</ele><time>2026-04-24T15:37:27Z</time></trkpt><trkpt lat="31.0209081012585" lon="-6.587356936466136"><ele>1164.0</ele><time>2026-04-24T15:37:28Z</time></trkpt><trkpt lat="31.021011519341954" lon="-6.587220760637612"><ele>1164.0</ele><time>2026-04-24T15:37:29Z</time></trkpt><trkpt lat="31.021116074378266" lon="-6.587090832619531"><ele>1164.0</ele><time>2026-04-24T15:37:30Z</time></trkpt><trkpt lat="31.0212217650977" lon="-6.586961973658924"><ele>1164.0</ele><time>2026-04-24T15:37:31Z</time></trkpt><trkpt lat="31.021317965198836" lon="-6.586831082422544"><ele>1164.0</ele><time>2026-04-24T15:37:32Z</time></trkpt><trkpt lat="31.02141912919044" lon="-6.586702551513919"><ele>1164.0</ele><time>2026-04-24T15:37:33Z</time></trkpt><trkpt lat="31.021516062351697" lon="-6.586567058363715"><ele>1164.0</ele><time>2026-04-24T15:37:34Z</time></trkpt><trkpt lat="31.02161893209068" lon="-6.586429695103519"><ele>1164.0</ele><time>2026-04-24T15:37:35Z</time></trkpt><trkpt lat="31.0217253269558" lon="-6.586286025042351"><ele>1164.0</ele><time>2026-04-24T15:37:36Z</time></trkpt><trkpt lat="31.02183670789283" lon="-6.5861411953473485"><ele>1164.0</ele><time>2026-04-24T15:37:37Z</time></trkpt><trkpt lat="31.021950665842997" lon="-6.585992713920882"><ele>1164.0</ele><time>2026-04-24T15:37:38Z</time></trkpt><trkpt lat="31.02206777245254" lon="-6.585842591505206"><ele>1164.0</ele><time>2026-04-24T15:37:39Z</time></trkpt><trkpt lat="31.02218460162369" lon="-6.5856912167041015"><ele>1164.0</ele><time>2026-04-24T15:37:40Z</time></trkpt><trkpt lat="31.0222997039256" lon="-6.585541585247508"><ele>1164.0</ele><time>2026-04-24T15:37:41Z</time></trkpt><trkpt lat="31.022411957274386" lon="-6.585394240457936"><ele>1164.0</ele><time>2026-04-24T15:37:42Z</time></trkpt><trkpt lat="31.02252849688339" lon="-6.585241056623215"><ele>1164.0</ele><time>2026-04-24T15:37:43Z</time></trkpt><trkpt lat="31.022646819388456" lon="-6.585086171659343"><ele>1164.6666666666667</ele><time>2026-04-24T15:37:44Z</time></trkpt><trkpt lat="31.022766575933634" lon="-6.584928632291601"><ele>1165.3333333333335</ele><time>2026-04-24T15:37:45Z</time></trkpt><trkpt lat="31.022888647134923" lon="-6.584763148743125"><ele>1166.0</ele><time>2026-04-24T15:37:46Z</time></trkpt><trkpt lat="31.02301522940416" lon="-6.5845937429297265"><ele>1165.0</ele><time>2026-04-24T15:37:47Z</time></trkpt><trkpt lat="31.02314269782835" lon="-6.584421654220287"><ele>1164.0</ele><time>2026-04-24T15:37:48Z</time></trkpt><trkpt lat="31.023272161947308" lon="-6.58424696447653"><ele>1163.0</ele><time>2026-04-24T15:37:49Z</time></trkpt><trkpt lat="31.023402059741848" lon="-6.584073942089594"><ele>1163.0</ele><time>2026-04-24T15:37:50Z</time></trkpt><trkpt lat="31.023532719293435" lon="-6.583902294859345"><ele>1163.0</ele><time>2026-04-24T15:37:51Z</time></trkpt><trkpt lat="31.023661859785012" lon="-6.583732789485662"><ele>1163.0</ele><time>2026-04-24T15:37:52Z</time></trkpt><trkpt lat="31.02378932037006" lon="-6.583566034624948"><ele>1163.6666666666667</ele><time>2026-04-24T15:37:53Z</time></trkpt><trkpt lat="31.023913468486004" lon="-6.583404155775528"><ele>1164.3333333333333</ele><time>2026-04-24T15:37:54Z</time></trkpt><trkpt lat="31.02403707684476" lon="-6.583240752718006"><ele>1165.0</ele><time>2026-04-24T15:37:55Z</time></trkpt><trkpt lat="31.02416093918912" lon="-6.583083029390114"><ele>1165.0</ele><time>2026-04-24T15:37:56Z</time></trkpt><trkpt lat="31.024275565809873" lon="-6.582916232371059"><ele>1165.0</ele><time>2026-04-24T15:37:57Z</time></trkpt><trkpt lat="31.02439678959611" lon="-6.582761756979809"><ele>1165.0</ele><time>2026-04-24T15:37:58Z</time></trkpt><trkpt lat="31.02452563945185" lon="-6.582609391293375"><ele>1166.3333333333333</ele><time>2026-04-24T15:37:59Z</time></trkpt><trkpt lat="31.02465626407184" lon="-6.582480744343603"><ele>1167.6666666666667</ele><time>2026-04-24T15:38:00Z</time></trkpt><trkpt lat="31.024801619502234" lon="-6.582358341001752"><ele>1169.0</ele><time>2026-04-24T15:38:01Z</time></trkpt><trkpt lat="31.02494281912575" lon="-6.582248363043136"><ele>1169.0</ele><time>2026-04-24T15:38:02Z</time></trkpt><trkpt lat="31.025093219894895" lon="-6.582148015122437"><ele>1169.0</ele><time>2026-04-24T15:38:03Z</time></trkpt><trkpt lat="31.025246046833654" lon="-6.58206480396778"><ele>1169.0</ele><time>2026-04-24T15:38:04Z</time></trkpt><trkpt lat="31.025396921750655" lon="-6.5819906354642645"><ele>1169.0</ele><time>2026-04-24T15:38:05Z</time></trkpt><trkpt lat="31.025554868347903" lon="-6.581928703923118"><ele>1169.0</ele><time>2026-04-24T15:38:06Z</time></trkpt><trkpt lat="31.025715452215387" lon="-6.5818855955172335"><ele>1169.0</ele><time>2026-04-24T15:38:07Z</time></trkpt><trkpt lat="31.025872969706413" lon="-6.581853640208336"><ele>1169.3333333333335</ele><time>2026-04-24T15:38:08Z</time></trkpt><trkpt lat="31.02603348570371" lon="-6.581832316798309"><ele>1169.6666666666667</ele><time>2026-04-24T15:38:09Z</time></trkpt><trkpt lat="31.026184213630273" lon="-6.58181450305345"><ele>1170.0</ele><time>2026-04-24T15:38:10Z</time></trkpt><trkpt lat="31.02633250074533" lon="-6.5818018579824775"><ele>1170.0</ele><time>2026-04-24T15:38:11Z</time></trkpt><trkpt lat="31.026477894694676" lon="-6.581789451810287"><ele>1170.0</ele><time>2026-04-24T15:38:12Z</time></trkpt><trkpt lat="31.026621194614325" lon="-6.581796198675541"><ele>1170.0</ele><time>2026-04-24T15:38:13Z</time></trkpt><trkpt lat="31.026762312464413" lon="-6.5817827692546"><ele>1170.0</ele><time>2026-04-24T15:38:14Z</time></trkpt><trkpt lat="31.02689780967842" lon="-6.58176901146355"><ele>1169.75</ele><time>2026-04-24T15:38:15Z</time></trkpt><trkpt lat="31.02702907802468" lon="-6.581759173898245"><ele>1169.5</ele><time>2026-04-24T15:38:16Z</time></trkpt><trkpt lat="31.027156162352444" lon="-6.581746646390925"><ele>1169.25</ele><time>2026-04-24T15:38:17Z</time></trkpt><trkpt lat="31.027279625937744" lon="-6.581736164533"><ele>1169.0</ele><time>2026-04-24T15:38:18Z</time></trkpt><trkpt lat="31.02740406570912" lon="-6.581728269466573"><ele>1168.75</ele><time>2026-04-24T15:38:19Z</time></trkpt><trkpt lat="31.02752805060249" lon="-6.581718549250331"><ele>1168.5</ele><time>2026-04-24T15:38:20Z</time></trkpt><trkpt lat="31.02764921227742" lon="-6.581709790986574"><ele>1168.25</ele><time>2026-04-24T15:38:21Z</time></trkpt><trkpt lat="31.027766071771698" lon="-6.581702750195135"><ele>1168.0</ele><time>2026-04-24T15:38:22Z</time></trkpt><trkpt lat="31.02787834078163" lon="-6.58167453203785"><ele>1168.0</ele><time>2026-04-24T15:38:23Z</time></trkpt><trkpt lat="31.02799076322232" lon="-6.5816644471798655"><ele>1168.0</ele><time>2026-04-24T15:38:24Z</time></trkpt><trkpt lat="31.028091637973553" lon="-6.581656087013476"><ele>1168.0</ele><time>2026-04-24T15:38:25Z</time></trkpt><trkpt lat="31.02818367097029" lon="-6.58164897402104"><ele>1168.0</ele><time>2026-04-24T15:38:26Z</time></trkpt><trkpt lat="31.02826861980648" lon="-6.581642884129587"><ele>1168.0</ele><time>2026-04-24T15:38:27Z</time></trkpt><trkpt lat="31.02835011773843" lon="-6.581637041629669"><ele>1168.3333333333333</ele><time>2026-04-24T15:38:28Z</time></trkpt><trkpt lat="31.028428178364656" lon="-6.581631445546226"><ele>1168.6666666666665</ele><time>2026-04-24T15:38:29Z</time></trkpt><trkpt lat="31.028505195185414" lon="-6.581625924291196"><ele>1169.0</ele><time>2026-04-24T15:38:30Z</time></trkpt><trkpt lat="31.028572924903752" lon="-6.581620973683956"><ele>1169.3333333333333</ele><time>2026-04-24T15:38:31Z</time></trkpt><trkpt lat="31.02867749783988" lon="-6.581631508704471"><ele>1169.6666666666667</ele><time>2026-04-24T15:38:33Z</time></trkpt><trkpt lat="31.028742212933196" lon="-6.581622457990877"><ele>1170.0</ele><time>2026-04-24T15:38:35Z</time></trkpt><trkpt lat="31.028805739790872" lon="-6.5816139779236815"><ele>1170.0</ele><time>2026-04-24T15:38:39Z</time></trkpt><trkpt lat="31.028912839600814" lon="-6.581596551631039"><ele>1170.0</ele><time>2026-04-24T15:38:41Z</time></trkpt><trkpt lat="31.02898971447291" lon="-6.58159090132857"><ele>1170.0</ele><time>2026-04-24T15:38:42Z</time></trkpt><trkpt lat="31.029076402180035" lon="-6.5815849838428955"><ele>1170.0</ele><time>2026-04-24T15:38:43Z</time></trkpt><trkpt lat="31.02916648829283" lon="-6.581579238663791"><ele>1170.0</ele><time>2026-04-24T15:38:44Z</time></trkpt><trkpt lat="31.02926712682355" lon="-6.581572819552748"><ele>1170.75</ele><time>2026-04-24T15:38:45Z</time></trkpt><trkpt lat="31.029373090668187" lon="-6.581566062439751"><ele>1171.5</ele><time>2026-04-24T15:38:46Z</time></trkpt><trkpt lat="31.029486147704496" lon="-6.581558899692026"><ele>1172.25</ele><time>2026-04-24T15:38:47Z</time></trkpt><trkpt lat="31.02960377942298" lon="-6.581570198940661"><ele>1173.0</ele><time>2026-04-24T15:38:48Z</time></trkpt><trkpt lat="31.029725998294868" lon="-6.581559400314005"><ele>1173.0</ele><time>2026-04-24T15:38:49Z</time></trkpt><trkpt lat="31.029853587674403" lon="-6.581549141682661"><ele>1173.0</ele><time>2026-04-24T15:38:50Z</time></trkpt><trkpt lat="31.029981104381363" lon="-6.581535611493532"><ele>1173.0</ele><time>2026-04-24T15:38:51Z</time></trkpt><trkpt lat="31.030118488239488" lon="-6.581524379788118"><ele>1173.0</ele><time>2026-04-24T15:38:52Z</time></trkpt><trkpt lat="31.03026491795145" lon="-6.581511464627972"><ele>1173.3333333333333</ele><time>2026-04-24T15:38:53Z</time></trkpt><trkpt lat="31.030414539147536" lon="-6.581501461248461"><ele>1173.6666666666665</ele><time>2026-04-24T15:38:54Z</time></trkpt><trkpt lat="31.030573901322917" lon="-6.58148450485742"><ele>1174.0</ele><time>2026-04-24T15:38:55Z</time></trkpt><trkpt lat="31.03073691593718" lon="-6.581468082939035"><ele>1173.3333333333333</ele><time>2026-04-24T15:38:56Z</time></trkpt><trkpt lat="31.03090475173631" lon="-6.581457401279051"><ele>1172.6666666666667</ele><time>2026-04-24T15:38:57Z</time></trkpt><trkpt lat="31.03107833201691" lon="-6.58144365903777"><ele>1172.0</ele><time>2026-04-24T15:38:58Z</time></trkpt><trkpt lat="31.031259269971876" lon="-6.581427481182401"><ele>1172.0</ele><time>2026-04-24T15:38:59Z</time></trkpt><trkpt lat="31.031445200097053" lon="-6.581415009160627"><ele>1172.0</ele><time>2026-04-24T15:39:00Z</time></trkpt><trkpt lat="31.031631690263392" lon="-6.581398559358349"><ele>1172.0</ele><time>2026-04-24T15:39:01Z</time></trkpt><trkpt lat="31.031821818252723" lon="-6.581383582983351"><ele>1172.6666666666667</ele><time>2026-04-24T15:39:02Z</time></trkpt><trkpt lat="31.032016810398638" lon="-6.581370054061743"><ele>1173.3333333333333</ele><time>2026-04-24T15:39:03Z</time></trkpt><trkpt lat="31.032215029923094" lon="-6.58135775646145"><ele>1174.0</ele><time>2026-04-24T15:39:04Z</time></trkpt><trkpt lat="31.032414559618164" lon="-6.58134588372093"><ele>1174.0</ele><time>2026-04-24T15:39:05Z</time></trkpt><trkpt lat="31.032614539616493" lon="-6.581334005372982"><ele>1174.0</ele><time>2026-04-24T15:39:06Z</time></trkpt><trkpt lat="31.032817408572093" lon="-6.581324196696047"><ele>1174.0</ele><time>2026-04-24T15:39:07Z</time></trkpt><trkpt lat="31.03301886815341" lon="-6.581313893553008"><ele>1174.0</ele><time>2026-04-24T15:39:08Z</time></trkpt><trkpt lat="31.033224131446197" lon="-6.581307039860235"><ele>1174.0</ele><time>2026-04-24T15:39:09Z</time></trkpt><trkpt lat="31.033428858308667" lon="-6.581303581745126"><ele>1174.0</ele><time>2026-04-24T15:39:10Z</time></trkpt><trkpt lat="31.033634897493712" lon="-6.581299494959556"><ele>1174.3333333333333</ele><time>2026-04-24T15:39:11Z</time></trkpt><trkpt lat="31.033838720360734" lon="-6.581296664605279"><ele>1174.6666666666667</ele><time>2026-04-24T15:39:12Z</time></trkpt><trkpt lat="31.034037277077182" lon="-6.581296844014516"><ele>1175.0</ele><time>2026-04-24T15:39:13Z</time></trkpt><trkpt lat="31.034233316495673" lon="-6.58129646459155"><ele>1174.3333333333335</ele><time>2026-04-24T15:39:14Z</time></trkpt><trkpt lat="31.03443846045552" lon="-6.581273263899347"><ele>1173.6666666666667</ele><time>2026-04-24T15:39:15Z</time></trkpt><trkpt lat="31.03465301676567" lon="-6.581283845040905"><ele>1173.0</ele><time>2026-04-24T15:39:16Z</time></trkpt><trkpt lat="31.03487264315321" lon="-6.581271143576186"><ele>1173.3333333333333</ele><time>2026-04-24T15:39:17Z</time></trkpt><trkpt lat="31.035090527139978" lon="-6.581249733165907"><ele>1173.6666666666665</ele><time>2026-04-24T15:39:18Z</time></trkpt><trkpt lat="31.035308680351186" lon="-6.581217638913584"><ele>1174.0</ele><time>2026-04-24T15:39:19Z</time></trkpt><trkpt lat="31.035521309388905" lon="-6.581160956021206"><ele>1175.6666666666665</ele><time>2026-04-24T15:39:20Z</time></trkpt><trkpt lat="31.035730613604475" lon="-6.581086116368459"><ele>1177.3333333333333</ele><time>2026-04-24T15:39:21Z</time></trkpt><trkpt lat="31.03593588812163" lon="-6.580996071991898"><ele>1179.0</ele><time>2026-04-24T15:39:22Z</time></trkpt><trkpt lat="31.03613973132108" lon="-6.58089869575741"><ele>1179.0</ele><time>2026-04-24T15:39:23Z</time></trkpt><trkpt lat="31.036344500155792" lon="-6.580796446945897"><ele>1179.0</ele><time>2026-04-24T15:39:24Z</time></trkpt><trkpt lat="31.03654852444537" lon="-6.580681420901667"><ele>1179.0</ele><time>2026-04-24T15:39:25Z</time></trkpt><trkpt lat="31.03675099872985" lon="-6.580552489814178"><ele>1179.0</ele><time>2026-04-24T15:39:26Z</time></trkpt><trkpt lat="31.036950839326554" lon="-6.5804029134862"><ele>1179.0</ele><time>2026-04-24T15:39:27Z</time></trkpt><trkpt lat="31.03714249320794" lon="-6.580234158178497"><ele>1180.0</ele><time>2026-04-24T15:39:28Z</time></trkpt><trkpt lat="31.037324549716136" lon="-6.580055940314865"><ele>1181.0</ele><time>2026-04-24T15:39:29Z</time></trkpt><trkpt lat="31.037505306223956" lon="-6.579876657699223"><ele>1181.0</ele><time>2026-04-24T15:39:30Z</time></trkpt><trkpt lat="31.037692253142367" lon="-6.5796896986202675"><ele>1181.0</ele><time>2026-04-24T15:39:31Z</time></trkpt><trkpt lat="31.037879475422216" lon="-6.579500320631481"><ele>1183.5</ele><time>2026-04-24T15:39:32Z</time></trkpt><trkpt lat="31.038064118277493" lon="-6.579313322147559"><ele>1186.0</ele><time>2026-04-24T15:39:33Z</time></trkpt><trkpt lat="31.038249174585964" lon="-6.57912571752424"><ele>1187.0</ele><time>2026-04-24T15:39:34Z</time></trkpt><trkpt lat="31.03843961812289" lon="-6.578936289988861"><ele>1188.0</ele><time>2026-04-24T15:39:35Z</time></trkpt><trkpt lat="31.038629363881736" lon="-6.578744264288626"><ele>1187.0</ele><time>2026-04-24T15:39:36Z</time></trkpt><trkpt lat="31.038816001399326" lon="-6.578551255967475"><ele>1186.0</ele><time>2026-04-24T15:39:37Z</time></trkpt><trkpt lat="31.03900321675076" lon="-6.5783568261160195"><ele>1187.5</ele><time>2026-04-24T15:39:38Z</time></trkpt><trkpt lat="31.039188814397832" lon="-6.578167926050611"><ele>1189.0</ele><time>2026-04-24T15:39:39Z</time></trkpt><trkpt lat="31.039369609025048" lon="-6.577985260188161"><ele>1189.0</ele><time>2026-04-24T15:39:40Z</time></trkpt><trkpt lat="31.039542488449612" lon="-6.577812776799021"><ele>1189.0</ele><time>2026-04-24T15:39:41Z</time></trkpt><trkpt lat="31.03970403181777" lon="-6.577648146952286"><ele>1189.0</ele><time>2026-04-24T15:39:42Z</time></trkpt><trkpt lat="31.039855919376" lon="-6.577491124328925"><ele>1190.0</ele><time>2026-04-24T15:39:43Z</time></trkpt><trkpt lat="31.0399968040317" lon="-6.577343742465786"><ele>1191.0</ele><time>2026-04-24T15:39:44Z</time></trkpt><trkpt lat="31.040140394832484" lon="-6.57719676885128"><ele>1192.0</ele><time>2026-04-24T15:39:45Z</time></trkpt><trkpt lat="31.040284639061397" lon="-6.577051750970008"><ele>1192.6666666666665</ele><time>2026-04-24T15:39:46Z</time></trkpt><trkpt lat="31.040429409811534" lon="-6.576915254683199"><ele>1193.3333333333333</ele><time>2026-04-24T15:39:47Z</time></trkpt><trkpt lat="31.040576029679972" lon="-6.576788867741608"><ele>1194.0</ele><time>2026-04-24T15:39:48Z</time></trkpt><trkpt lat="31.04072545561937" lon="-6.576672876007188"><ele>1193.6666666666667</ele><time>2026-04-24T15:39:49Z</time></trkpt><trkpt lat="31.04087618037418" lon="-6.5765649906331705"><ele>1193.3333333333335</ele><time>2026-04-24T15:39:50Z</time></trkpt><trkpt lat="31.041027911777906" lon="-6.576462511592791"><ele>1193.0</ele><time>2026-04-24T15:39:51Z</time></trkpt><trkpt lat="31.04118607837071" lon="-6.5763666072721305"><ele>1193.0</ele><time>2026-04-24T15:39:52Z</time></trkpt><trkpt lat="31.041350605260412" lon="-6.576277349718339"><ele>1193.0</ele><time>2026-04-24T15:39:53Z</time></trkpt><trkpt lat="31.041524901385078" lon="-6.576202706311823"><ele>1193.0</ele><time>2026-04-24T15:39:54Z</time></trkpt><trkpt lat="31.041696109131742" lon="-6.576107688811459"><ele>1192.6666666666667</ele><time>2026-04-24T15:39:55Z</time></trkpt><trkpt lat="31.041875037984976" lon="-6.5760241288285375"><ele>1192.3333333333333</ele><time>2026-04-24T15:39:56Z</time></trkpt><trkpt lat="31.042056204400794" lon="-6.575953285260298"><ele>1192.0</ele><time>2026-04-24T15:39:57Z</time></trkpt><trkpt lat="31.04222994137677" lon="-6.575885043213107"><ele>1192.0</ele><time>2026-04-24T15:39:58Z</time></trkpt><trkpt lat="31.042406184712476" lon="-6.575831314010807"><ele>1192.0</ele><time>2026-04-24T15:39:59Z</time></trkpt><trkpt lat="31.042575841992885" lon="-6.575760426284936"><ele>1192.0</ele><time>2026-04-24T15:40:00Z</time></trkpt><trkpt lat="31.042742937737103" lon="-6.575689699270004"><ele>1192.0</ele><time>2026-04-24T15:40:01Z</time></trkpt><trkpt lat="31.042900410754783" lon="-6.575599452933965"><ele>1192.0</ele><time>2026-04-24T15:40:02Z</time></trkpt><trkpt lat="31.043062761379122" lon="-6.57552715186322"><ele>1192.0</ele><time>2026-04-24T15:40:03Z</time></trkpt><trkpt lat="31.043223372682984" lon="-6.575455625364331"><ele>1193.0</ele><time>2026-04-24T15:40:04Z</time></trkpt><trkpt lat="31.043381535052127" lon="-6.575385189472175"><ele>1194.0</ele><time>2026-04-24T15:40:05Z</time></trkpt><trkpt lat="31.043547702636037" lon="-6.575347283918274"><ele>1195.0</ele><time>2026-04-24T15:40:06Z</time></trkpt><trkpt lat="31.043704284803635" lon="-6.575281953784825"><ele>1195.0</ele><time>2026-04-24T15:40:07Z</time></trkpt><trkpt lat="31.04386025551464" lon="-6.575219807754532"><ele>1195.0</ele><time>2026-04-24T15:40:08Z</time></trkpt><trkpt lat="31.044018318971098" lon="-6.575155893718515"><ele>1195.0</ele><time>2026-04-24T15:40:09Z</time></trkpt><trkpt lat="31.044178800219182" lon="-6.5750895691114595"><ele>1195.0</ele><time>2026-04-24T15:40:10Z</time></trkpt><trkpt lat="31.044341439236618" lon="-6.575021763972632"><ele>1195.0</ele><time>2026-04-24T15:40:11Z</time></trkpt><trkpt lat="31.044502732120876" lon="-6.574953977689753"><ele>1195.0</ele><time>2026-04-24T15:40:12Z</time></trkpt><trkpt lat="31.04466400098695" lon="-6.574884793207827"><ele>1195.0</ele><time>2026-04-24T15:40:13Z</time></trkpt><trkpt lat="31.044823787887875" lon="-6.5748144276117735"><ele>1195.0</ele><time>2026-04-24T15:40:14Z</time></trkpt><trkpt lat="31.044982926804686" lon="-6.574739848920545"><ele>1195.0</ele><time>2026-04-24T15:40:15Z</time></trkpt><trkpt lat="31.045137279347657" lon="-6.574659939428101"><ele>1195.3333333333333</ele><time>2026-04-24T15:40:16Z</time></trkpt><trkpt lat="31.04528865754998" lon="-6.574570043846934"><ele>1195.6666666666667</ele><time>2026-04-24T15:40:17Z</time></trkpt><trkpt lat="31.04543691085196" lon="-6.57447322983671"><ele>1196.0</ele><time>2026-04-24T15:40:18Z</time></trkpt><trkpt lat="31.045582910802906" lon="-6.574371322388745"><ele>1196.3333333333335</ele><time>2026-04-24T15:40:19Z</time></trkpt><trkpt lat="31.045722910897492" lon="-6.574264757441113"><ele>1196.6666666666667</ele><time>2026-04-24T15:40:20Z</time></trkpt><trkpt lat="31.045858724757206" lon="-6.574147841716929"><ele>1197.0</ele><time>2026-04-24T15:40:21Z</time></trkpt><trkpt lat="31.045990896600525" lon="-6.574023223654496"><ele>1197.3333333333333</ele><time>2026-04-24T15:40:22Z</time></trkpt><trkpt lat="31.04612361616918" lon="-6.573890248804825"><ele>1197.6666666666665</ele><time>2026-04-24T15:40:23Z</time></trkpt><trkpt lat="31.046256065622586" lon="-6.573749531019421"><ele>1198.0</ele><time>2026-04-24T15:40:24Z</time></trkpt><trkpt lat="31.046389449232784" lon="-6.573607548779117"><ele>1198.0</ele><time>2026-04-24T15:40:25Z</time></trkpt><trkpt lat="31.046520024680426" lon="-6.573461974168117"><ele>1198.0</ele><time>2026-04-24T15:40:26Z</time></trkpt><trkpt lat="31.04665315942447" lon="-6.573311229266938"><ele>1198.0</ele><time>2026-04-24T15:40:27Z</time></trkpt><trkpt lat="31.04679210100898" lon="-6.573157035230259"><ele>1197.3333333333333</ele><time>2026-04-24T15:40:28Z</time></trkpt><trkpt lat="31.046933841288666" lon="-6.573002751004748"><ele>1196.6666666666667</ele><time>2026-04-24T15:40:29Z</time></trkpt><trkpt lat="31.047074753170822" lon="-6.572848351893832"><ele>1196.0</ele><time>2026-04-24T15:40:30Z</time></trkpt><trkpt lat="31.047213180441684" lon="-6.572696045389926"><ele>1195.3333333333335</ele><time>2026-04-24T15:40:31Z</time></trkpt><trkpt lat="31.047351409172105" lon="-6.572546821958771"><ele>1194.6666666666667</ele><time>2026-04-24T15:40:32Z</time></trkpt><trkpt lat="31.047490746988082" lon="-6.572393156555421"><ele>1194.0</ele><time>2026-04-24T15:40:33Z</time></trkpt><trkpt lat="31.047630498194046" lon="-6.572238388797442"><ele>1194.0</ele><time>2026-04-24T15:40:34Z</time></trkpt><trkpt lat="31.04777238555872" lon="-6.572083124719434"><ele>1194.0</ele><time>2026-04-24T15:40:35Z</time></trkpt><trkpt lat="31.047918565402565" lon="-6.571923755406216"><ele>1194.0</ele><time>2026-04-24T15:40:36Z</time></trkpt><trkpt lat="31.04806919939644" lon="-6.5717629595338956"><ele>1194.6666666666667</ele><time>2026-04-24T15:40:37Z</time></trkpt><trkpt lat="31.048223524873574" lon="-6.571596653116332"><ele>1195.3333333333335</ele><time>2026-04-24T15:40:38Z</time></trkpt><trkpt lat="31.04838130932363" lon="-6.571423403210851"><ele>1196.0</ele><time>2026-04-24T15:40:39Z</time></trkpt><trkpt lat="31.04854183391533" lon="-6.571244283604879"><ele>1196.3333333333335</ele><time>2026-04-24T15:40:40Z</time></trkpt><trkpt lat="31.048704437818298" lon="-6.571064552421423"><ele>1196.6666666666667</ele><time>2026-04-24T15:40:41Z</time></trkpt><trkpt lat="31.048863469593517" lon="-6.570881653760889"><ele>1197.0</ele><time>2026-04-24T15:40:42Z</time></trkpt><trkpt lat="31.049017921131632" lon="-6.570698041211625"><ele>1197.0</ele><time>2026-04-24T15:40:43Z</time></trkpt><trkpt lat="31.049173047884995" lon="-6.570512349526419"><ele>1197.0</ele><time>2026-04-24T15:40:44Z</time></trkpt><trkpt lat="31.049329609909584" lon="-6.570328915838114"><ele>1197.0</ele><time>2026-04-24T15:40:45Z</time></trkpt><trkpt lat="31.04949008773289" lon="-6.570145193103548"><ele>1198.0</ele><time>2026-04-24T15:40:46Z</time></trkpt><trkpt lat="31.049651092818785" lon="-6.569966993492104"><ele>1199.0</ele><time>2026-04-24T15:40:47Z</time></trkpt><trkpt lat="31.049812975670743" lon="-6.569788988156475"><ele>1200.0</ele><time>2026-04-24T15:40:48Z</time></trkpt><trkpt lat="31.049972896863185" lon="-6.569612995262651"><ele>1199.6666666666667</ele><time>2026-04-24T15:40:49Z</time></trkpt><trkpt lat="31.05013242026257" lon="-6.56943574823964"><ele>1199.3333333333335</ele><time>2026-04-24T15:40:50Z</time></trkpt><trkpt lat="31.050290588031455" lon="-6.569260803083129"><ele>1199.0</ele><time>2026-04-24T15:40:51Z</time></trkpt><trkpt lat="31.05044790644567" lon="-6.569087028985005"><ele>1199.0</ele><time>2026-04-24T15:40:52Z</time></trkpt><trkpt lat="31.050603499336805" lon="-6.568916806380107"><ele>1199.0</ele><time>2026-04-24T15:40:53Z</time></trkpt><trkpt lat="31.050755974618983" lon="-6.568748196075271"><ele>1199.0</ele><time>2026-04-24T15:40:54Z</time></trkpt><trkpt lat="31.050905859488562" lon="-6.568581868152866"><ele>1199.3333333333335</ele><time>2026-04-24T15:40:55Z</time></trkpt><trkpt lat="31.051054595063164" lon="-6.5684169701679105"><ele>1199.6666666666667</ele><time>2026-04-24T15:40:56Z</time></trkpt><trkpt lat="31.051200418080956" lon="-6.56825385002104"><ele>1200.0</ele><time>2026-04-24T15:40:57Z</time></trkpt><trkpt lat="31.051341482661982" lon="-6.568096192571818"><ele>1200.0</ele><time>2026-04-24T15:40:58Z</time></trkpt><trkpt lat="31.05147241531784" lon="-6.567950436085126"><ele>1200.0</ele><time>2026-04-24T15:40:59Z</time></trkpt><trkpt lat="31.051595275167895" lon="-6.567814647033982"><ele>1200.0</ele><time>2026-04-24T15:41:00Z</time></trkpt><trkpt lat="31.051709568684128" lon="-6.5676866349736995"><ele>1201.3333333333333</ele><time>2026-04-24T15:41:01Z</time></trkpt><trkpt lat="31.051818365063706" lon="-6.56756177498615"><ele>1202.6666666666665</ele><time>2026-04-24T15:41:02Z</time></trkpt><trkpt lat="31.0519240283828" lon="-6.56744009728741"><ele>1204.0</ele><time>2026-04-24T15:41:03Z</time></trkpt><trkpt lat="31.05202867790276" lon="-6.567315205649138"><ele>1204.0</ele><time>2026-04-24T15:41:04Z</time></trkpt><trkpt lat="31.0521317778195" lon="-6.567177632091341"><ele>1204.0</ele><time>2026-04-24T15:41:05Z</time></trkpt><trkpt lat="31.052236842197114" lon="-6.567031967723931"><ele>1204.0</ele><time>2026-04-24T15:41:06Z</time></trkpt><trkpt lat="31.052340451153633" lon="-6.566883120335678"><ele>1205.6666666666665</ele><time>2026-04-24T15:41:07Z</time></trkpt><trkpt lat="31.052439342985867" lon="-6.566737237920083"><ele>1207.3333333333333</ele><time>2026-04-24T15:41:08Z</time></trkpt><trkpt lat="31.052536723524003" lon="-6.566590370577078"><ele>1209.0</ele><time>2026-04-24T15:41:09Z</time></trkpt><trkpt lat="31.052635112324268" lon="-6.56643820407286"><ele>1209.0</ele><time>2026-04-24T15:41:10Z</time></trkpt><trkpt lat="31.0527208986701" lon="-6.566263150968072"><ele>1209.0</ele><time>2026-04-24T15:41:11Z</time></trkpt><trkpt lat="31.05282248215234" lon="-6.566089318940093"><ele>1209.0</ele><time>2026-04-24T15:41:12Z</time></trkpt><trkpt lat="31.0529285221386" lon="-6.5659134293278205"><ele>1210.3333333333333</ele><time>2026-04-24T15:41:13Z</time></trkpt><trkpt lat="31.053044646213323" lon="-6.56573902584316"><ele>1211.6666666666665</ele><time>2026-04-24T15:41:14Z</time></trkpt><trkpt lat="31.053147033852728" lon="-6.565550808755292"><ele>1213.0</ele><time>2026-04-24T15:41:15Z</time></trkpt><trkpt lat="31.053247456526652" lon="-6.565371847797594"><ele>1212.3333333333333</ele><time>2026-04-24T15:41:16Z</time></trkpt><trkpt lat="31.053348645475147" lon="-6.565199599201203"><ele>1211.6666666666667</ele><time>2026-04-24T15:41:17Z</time></trkpt><trkpt lat="31.053448560352347" lon="-6.565029474472463"><ele>1211.0</ele><time>2026-04-24T15:41:18Z</time></trkpt><trkpt lat="31.05354954237811" lon="-6.564865977821092"><ele>1211.0</ele><time>2026-04-24T15:41:19Z</time></trkpt><trkpt lat="31.053652826985896" lon="-6.5647110102791775"><ele>1211.0</ele><time>2026-04-24T15:41:20Z</time></trkpt><trkpt lat="31.053762546552978" lon="-6.564563204054238"><ele>1211.0</ele><time>2026-04-24T15:41:21Z</time></trkpt><trkpt lat="31.053877614206453" lon="-6.564425022001417"><ele>1212.0</ele><time>2026-04-24T15:41:22Z</time></trkpt><trkpt lat="31.05399695538599" lon="-6.564298263137415"><ele>1213.0</ele><time>2026-04-24T15:41:23Z</time></trkpt><trkpt lat="31.05410669737738" lon="-6.564166270077387"><ele>1214.0</ele><time>2026-04-24T15:41:24Z</time></trkpt><trkpt lat="31.05423413943134" lon="-6.564072527310316"><ele>1214.0</ele><time>2026-04-24T15:41:25Z</time></trkpt><trkpt lat="31.05435333676391" lon="-6.5639639351613965"><ele>1214.0</ele><time>2026-04-24T15:41:26Z</time></trkpt><trkpt lat="31.054472591966125" lon="-6.563855583423561"><ele>1214.0</ele><time>2026-04-24T15:41:27Z</time></trkpt><trkpt lat="31.05459515625926" lon="-6.5637458851749715"><ele>1214.3333333333335</ele><time>2026-04-24T15:41:28Z</time></trkpt><trkpt lat="31.054712441210427" lon="-6.563613991051959"><ele>1214.6666666666667</ele><time>2026-04-24T15:41:29Z</time></trkpt><trkpt lat="31.05484958665145" lon="-6.563509159021903"><ele>1215.0</ele><time>2026-04-24T15:41:30Z</time></trkpt><trkpt lat="31.05497589366418" lon="-6.563381021585748"><ele>1215.0</ele><time>2026-04-24T15:41:31Z</time></trkpt><trkpt lat="31.055096130475583" lon="-6.563244313334066"><ele>1215.0</ele><time>2026-04-24T15:41:32Z</time></trkpt><trkpt lat="31.055210009374512" lon="-6.563101880438557"><ele>1215.0</ele><time>2026-04-24T15:41:33Z</time></trkpt><trkpt lat="31.0553138604961" lon="-6.5629605292842985"><ele>1215.3333333333333</ele><time>2026-04-24T15:41:34Z</time></trkpt><trkpt lat="31.05541290981574" lon="-6.56281856100039"><ele>1215.6666666666665</ele><time>2026-04-24T15:41:35Z</time></trkpt><trkpt lat="31.055505690800512" lon="-6.562674761189368"><ele>1216.0</ele><time>2026-04-24T15:41:36Z</time></trkpt><trkpt lat="31.0555904988914" lon="-6.56253641356334"><ele>1216.0</ele><time>2026-04-24T15:41:37Z</time></trkpt><trkpt lat="31.055676276896186" lon="-6.562400329892084"><ele>1216.0</ele><time>2026-04-24T15:41:38Z</time></trkpt><trkpt lat="31.05576145486762" lon="-6.562260778157312"><ele>1216.0</ele><time>2026-04-24T15:41:39Z</time></trkpt><trkpt lat="31.055846709229147" lon="-6.562120648132637"><ele>1216.0</ele><time>2026-04-24T15:41:40Z</time></trkpt><trkpt lat="31.055931870217453" lon="-6.561981789972274"><ele>1214.3333333333333</ele><time>2026-04-24T15:41:41Z</time></trkpt><trkpt lat="31.056019980221514" lon="-6.561838929385308"><ele>1212.6666666666667</ele><time>2026-04-24T15:41:42Z</time></trkpt><trkpt lat="31.056110031053404" lon="-6.561694017418524"><ele>1211.0</ele><time>2026-04-24T15:41:43Z</time></trkpt><trkpt lat="31.05619941972991" lon="-6.561548975301026"><ele>1211.0</ele><time>2026-04-24T15:41:44Z</time></trkpt><trkpt lat="31.056287836711952" lon="-6.561404489802528"><ele>1211.0</ele><time>2026-04-24T15:41:45Z</time></trkpt><trkpt lat="31.05637689889019" lon="-6.561260844404645"><ele>1211.0</ele><time>2026-04-24T15:41:46Z</time></trkpt><trkpt lat="31.056464100639044" lon="-6.561119109091672"><ele>1211.25</ele><time>2026-04-24T15:41:47Z</time></trkpt><trkpt lat="31.05655175336341" lon="-6.560977144446868"><ele>1211.5</ele><time>2026-04-24T15:41:48Z</time></trkpt><trkpt lat="31.05663599621336" lon="-6.560842001795471"><ele>1211.75</ele><time>2026-04-24T15:41:49Z</time></trkpt><trkpt lat="31.056718438683927" lon="-6.560709600026303"><ele>1212.0</ele><time>2026-04-24T15:41:50Z</time></trkpt><trkpt lat="31.05679680389679" lon="-6.560584052741552"><ele>1212.0</ele><time>2026-04-24T15:41:51Z</time></trkpt><trkpt lat="31.05686818935019" lon="-6.5604658421500845"><ele>1212.0</ele><time>2026-04-24T15:41:52Z</time></trkpt><trkpt lat="31.056935434014783" lon="-6.560351704958874"><ele>1212.0</ele><time>2026-04-24T15:41:53Z</time></trkpt><trkpt lat="31.05700707548783" lon="-6.560231507874391"><ele>1212.0</ele><time>2026-04-24T15:41:54Z</time></trkpt><trkpt lat="31.05708191228806" lon="-6.5601030816611745"><ele>1212.75</ele><time>2026-04-24T15:41:55Z</time></trkpt><trkpt lat="31.057160235582884" lon="-6.559972171196563"><ele>1213.5</ele><time>2026-04-24T15:41:56Z</time></trkpt><trkpt lat="31.057240381770036" lon="-6.559839109214915"><ele>1214.25</ele><time>2026-04-24T15:41:57Z</time></trkpt><trkpt lat="31.057321974149758" lon="-6.559703691480198"><ele>1215.0</ele><time>2026-04-24T15:41:58Z</time></trkpt><trkpt lat="31.05740346809096" lon="-6.559567409205764"><ele>1215.25</ele><time>2026-04-24T15:41:59Z</time></trkpt><trkpt lat="31.057484362376258" lon="-6.559432450208566"><ele>1215.5</ele><time>2026-04-24T15:42:00Z</time></trkpt><trkpt lat="31.057560033259453" lon="-6.559302442460896"><ele>1215.75</ele><time>2026-04-24T15:42:01Z</time></trkpt><trkpt lat="31.057630786241713" lon="-6.559177499211915"><ele>1216.0</ele><time>2026-04-24T15:42:02Z</time></trkpt><trkpt lat="31.057703037491034" lon="-6.559051751641643"><ele>1216.0</ele><time>2026-04-24T15:42:03Z</time></trkpt><trkpt lat="31.057775785977263" lon="-6.558928738087577"><ele>1216.0</ele><time>2026-04-24T15:42:04Z</time></trkpt><trkpt lat="31.05785174333871" lon="-6.558805131981586"><ele>1216.0</ele><time>2026-04-24T15:42:05Z</time></trkpt><trkpt lat="31.057931454156297" lon="-6.558681325684479"><ele>1216.0</ele><time>2026-04-24T15:42:06Z</time></trkpt><trkpt lat="31.058012901039334" lon="-6.558555515293297"><ele>1216.0</ele><time>2026-04-24T15:42:07Z</time></trkpt><trkpt lat="31.058094520815548" lon="-6.5584250830848125"><ele>1216.0</ele><time>2026-04-24T15:42:08Z</time></trkpt><trkpt lat="31.05817664973716" lon="-6.558292909106295"><ele>1216.0</ele><time>2026-04-24T15:42:09Z</time></trkpt><trkpt lat="31.058259952973533" lon="-6.558158096948104"><ele>1216.0</ele><time>2026-04-24T15:42:10Z</time></trkpt><trkpt lat="31.058344440182044" lon="-6.558022818949819"><ele>1216.25</ele><time>2026-04-24T15:42:11Z</time></trkpt><trkpt lat="31.058428552812057" lon="-6.557889422332941"><ele>1216.5</ele><time>2026-04-24T15:42:12Z</time></trkpt><trkpt lat="31.058511861955687" lon="-6.557757580345788"><ele>1216.75</ele><time>2026-04-24T15:42:13Z</time></trkpt><trkpt lat="31.058593262304854" lon="-6.557624279031721"><ele>1217.0</ele><time>2026-04-24T15:42:14Z</time></trkpt><trkpt lat="31.058675434181964" lon="-6.557489035886523"><ele>1217.25</ele><time>2026-04-24T15:42:15Z</time></trkpt><trkpt lat="31.05875814079527" lon="-6.557351716966881"><ele>1217.5</ele><time>2026-04-24T15:42:16Z</time></trkpt><trkpt lat="31.05884227692349" lon="-6.557215096500012"><ele>1217.75</ele><time>2026-04-24T15:42:17Z</time></trkpt><trkpt lat="31.058926384510702" lon="-6.557074827664045"><ele>1218.0</ele><time>2026-04-24T15:42:18Z</time></trkpt><trkpt lat="31.059010997504075" lon="-6.556933554038303"><ele>1218.6666666666667</ele><time>2026-04-24T15:42:19Z</time></trkpt><trkpt lat="31.059097371485752" lon="-6.5567892622239"><ele>1219.3333333333335</ele><time>2026-04-24T15:42:20Z</time></trkpt><trkpt lat="31.05918589183788" lon="-6.5566438481958755"><ele>1220.0</ele><time>2026-04-24T15:42:21Z</time></trkpt><trkpt lat="31.059274985911134" lon="-6.556500804822282"><ele>1220.0</ele><time>2026-04-24T15:42:22Z</time></trkpt><trkpt lat="31.059363775668714" lon="-6.556360792215562"><ele>1220.0</ele><time>2026-04-24T15:42:23Z</time></trkpt><trkpt lat="31.059452353897328" lon="-6.556219713732389"><ele>1220.0</ele><time>2026-04-24T15:42:24Z</time></trkpt><trkpt lat="31.059539848227452" lon="-6.556077812502561"><ele>1220.0</ele><time>2026-04-24T15:42:25Z</time></trkpt><trkpt lat="31.05962751672591" lon="-6.555933812124626"><ele>1220.6666666666667</ele><time>2026-04-24T15:42:26Z</time></trkpt><trkpt lat="31.059717689916745" lon="-6.555787385112333"><ele>1221.3333333333333</ele><time>2026-04-24T15:42:27Z</time></trkpt><trkpt lat="31.059811927377723" lon="-6.555639111618577"><ele>1222.0</ele><time>2026-04-24T15:42:28Z</time></trkpt><trkpt lat="31.059905032215102" lon="-6.555492390827902"><ele>1222.3333333333333</ele><time>2026-04-24T15:42:29Z</time></trkpt><trkpt lat="31.05999978419725" lon="-6.5553401803464215"><ele>1222.6666666666667</ele><time>2026-04-24T15:42:30Z</time></trkpt><trkpt lat="31.060096484026282" lon="-6.555184424224787"><ele>1223.0</ele><time>2026-04-24T15:42:31Z</time></trkpt><trkpt lat="31.060192522310548" lon="-6.555031741300734"><ele>1223.0</ele><time>2026-04-24T15:42:32Z</time></trkpt><trkpt lat="31.06029056238243" lon="-6.5548793197373465"><ele>1223.0</ele><time>2026-04-24T15:42:33Z</time></trkpt><trkpt lat="31.060389860715308" lon="-6.5547245588040015"><ele>1223.0</ele><time>2026-04-24T15:42:34Z</time></trkpt><trkpt lat="31.06048829532151" lon="-6.554570743025494"><ele>1223.3333333333335</ele><time>2026-04-24T15:42:35Z</time></trkpt><trkpt lat="31.06058600681004" lon="-6.5544172340313835"><ele>1223.6666666666667</ele><time>2026-04-24T15:42:36Z</time></trkpt><trkpt lat="31.06068313168768" lon="-6.55426270962981"><ele>1224.0</ele><time>2026-04-24T15:42:37Z</time></trkpt><trkpt lat="31.060778603352773" lon="-6.554110421508438"><ele>1222.6666666666667</ele><time>2026-04-24T15:42:38Z</time></trkpt><trkpt lat="31.060874710303708" lon="-6.553959666851483"><ele>1221.3333333333335</ele><time>2026-04-24T15:42:39Z</time></trkpt><trkpt lat="31.06097328634244" lon="-6.553803522868465"><ele>1220.0</ele><time>2026-04-24T15:42:40Z</time></trkpt><trkpt lat="31.06107252573573" lon="-6.553642910239887"><ele>1220.0</ele><time>2026-04-24T15:42:41Z</time></trkpt><trkpt lat="31.061172508090117" lon="-6.553479035915337"><ele>1220.0</ele><time>2026-04-24T15:42:41.999Z</time></trkpt><trkpt lat="31.06127508307007" lon="-6.553316936259103"><ele>1220.0</ele><time>2026-04-24T15:42:42.999Z</time></trkpt><trkpt lat="31.06137893242644" lon="-6.553149708779206"><ele>1220.0</ele><time>2026-04-24T15:42:43.999Z</time></trkpt><trkpt lat="31.061482932050318" lon="-6.552980558651294"><ele>1220.0</ele><time>2026-04-24T15:42:44.999Z</time></trkpt><trkpt lat="31.061588246862378" lon="-6.5528098094438745"><ele>1220.0</ele><time>2026-04-24T15:42:45.999Z</time></trkpt><trkpt lat="31.06169371317274" lon="-6.55263990530622"><ele>1221.0</ele><time>2026-04-24T15:42:46.999Z</time></trkpt><trkpt lat="31.061798261232497" lon="-6.552471573778312"><ele>1222.0</ele><time>2026-04-24T15:42:47.999Z</time></trkpt><trkpt lat="31.061902248109668" lon="-6.552303369791334"><ele>1223.0</ele><time>2026-04-24T15:42:48.999Z</time></trkpt><trkpt lat="31.06200627461912" lon="-6.552136978943329"><ele>1222.3333333333335</ele><time>2026-04-24T15:42:49.999Z</time></trkpt><trkpt lat="31.062106686797605" lon="-6.5519780139986254"><ele>1221.6666666666667</ele><time>2026-04-24T15:42:50.999Z</time></trkpt><trkpt lat="31.062203501007147" lon="-6.551822867864291"><ele>1221.0</ele><time>2026-04-24T15:42:51.999Z</time></trkpt><trkpt lat="31.062299941478976" lon="-6.551668909843726"><ele>1221.0</ele><time>2026-04-24T15:42:52.999Z</time></trkpt><trkpt lat="31.06239316292348" lon="-6.551513054661135"><ele>1221.0</ele><time>2026-04-24T15:42:53.999Z</time></trkpt><trkpt lat="31.06248913595488" lon="-6.55136412782348"><ele>1221.0</ele><time>2026-04-24T15:42:54.999Z</time></trkpt><trkpt lat="31.0625796335901" lon="-6.551213453378599"><ele>1223.0</ele><time>2026-04-24T15:42:55.999Z</time></trkpt><trkpt lat="31.062669661383563" lon="-6.551064645884053"><ele>1225.0</ele><time>2026-04-24T15:42:56.999Z</time></trkpt><trkpt lat="31.062758483183377" lon="-6.55091624297897"><ele>1227.0</ele><time>2026-04-24T15:42:57.999Z</time></trkpt><trkpt lat="31.062846371842575" lon="-6.550770994572297"><ele>1227.0</ele><time>2026-04-24T15:42:58.999Z</time></trkpt><trkpt lat="31.062931701805713" lon="-6.5506270457085005"><ele>1227.0</ele><time>2026-04-24T15:42:59.999Z</time></trkpt><trkpt lat="31.063017327029318" lon="-6.550487351527787"><ele>1227.0</ele><time>2026-04-24T15:43:00.999Z</time></trkpt><trkpt lat="31.063101926898433" lon="-6.550347403697103"><ele>1227.0</ele><time>2026-04-24T15:43:01.999Z</time></trkpt><trkpt lat="31.063187141467466" lon="-6.550206220815189"><ele>1226.5</ele><time>2026-04-24T15:43:02.999Z</time></trkpt><trkpt lat="31.06327137676942" lon="-6.550063978378307"><ele>1226.0</ele><time>2026-04-24T15:43:03.999Z</time></trkpt><trkpt lat="31.06335532521646" lon="-6.549923571821143"><ele>1225.5</ele><time>2026-04-24T15:43:04.999Z</time></trkpt><trkpt lat="31.06343927597409" lon="-6.549783596189963"><ele>1225.0</ele><time>2026-04-24T15:43:05.999Z</time></trkpt><trkpt lat="31.06352371395075" lon="-6.549646979467906"><ele>1225.75</ele><time>2026-04-24T15:43:06.999Z</time></trkpt><trkpt lat="31.06360808504787" lon="-6.549510635947746"><ele>1226.5</ele><time>2026-04-24T15:43:07.999Z</time></trkpt><trkpt lat="31.06369096091319" lon="-6.549375514080726"><ele>1227.25</ele><time>2026-04-24T15:43:08.999Z</time></trkpt><trkpt lat="31.063774770169008" lon="-6.549238128786956"><ele>1228.0</ele><time>2026-04-24T15:43:09.999Z</time></trkpt><trkpt lat="31.063856711509217" lon="-6.549101009624256"><ele>1228.0</ele><time>2026-04-24T15:43:10.999Z</time></trkpt><trkpt lat="31.063938516468617" lon="-6.548964141425366"><ele>1228.0</ele><time>2026-04-24T15:43:11.999Z</time></trkpt><trkpt lat="31.0640219623348" lon="-6.548827712165479"><ele>1228.0</ele><time>2026-04-24T15:43:12.999Z</time></trkpt><trkpt lat="31.06410633182757" lon="-6.548688729704775"><ele>1228.0</ele><time>2026-04-24T15:43:13.999Z</time></trkpt><trkpt lat="31.0641911518381" lon="-6.548551262681843"><ele>1227.25</ele><time>2026-04-24T15:43:14.999Z</time></trkpt><trkpt lat="31.06427436942247" lon="-6.548411666096655"><ele>1226.5</ele><time>2026-04-24T15:43:15.999Z</time></trkpt><trkpt lat="31.064358766764137" lon="-6.548273876081211"><ele>1225.75</ele><time>2026-04-24T15:43:16.999Z</time></trkpt><trkpt lat="31.064444749676692" lon="-6.548134492324843"><ele>1225.0</ele><time>2026-04-24T15:43:17.999Z</time></trkpt><trkpt lat="31.064528969310686" lon="-6.547996213362551"><ele>1226.25</ele><time>2026-04-24T15:43:18.999Z</time></trkpt><trkpt lat="31.064611140768744" lon="-6.547855784195653"><ele>1227.5</ele><time>2026-04-24T15:43:19.999Z</time></trkpt><trkpt lat="31.064692610319952" lon="-6.54771331314762"><ele>1228.75</ele><time>2026-04-24T15:43:21Z</time></trkpt><trkpt lat="31.06477463568327" lon="-6.54757069140729"><ele>1230.0</ele><time>2026-04-24T15:43:22Z</time></trkpt><trkpt lat="31.064856798702564" lon="-6.5474239831821315"><ele>1230.0</ele><time>2026-04-24T15:43:23Z</time></trkpt><trkpt lat="31.064936446026913" lon="-6.547277156396122"><ele>1230.0</ele><time>2026-04-24T15:43:24Z</time></trkpt><trkpt lat="31.06501237673446" lon="-6.547127002761619"><ele>1230.0</ele><time>2026-04-24T15:43:25Z</time></trkpt><trkpt lat="31.065082402984334" lon="-6.546974988215445"><ele>1230.0</ele><time>2026-04-24T15:43:26Z</time></trkpt><trkpt lat="31.065152366844387" lon="-6.546822706709562"><ele>1228.5</ele><time>2026-04-24T15:43:27Z</time></trkpt><trkpt lat="31.065217907218823" lon="-6.546666714781625"><ele>1227.0</ele><time>2026-04-24T15:43:28Z</time></trkpt><trkpt lat="31.065280444952243" lon="-6.546509322769996"><ele>1225.5</ele><time>2026-04-24T15:43:29Z</time></trkpt><trkpt lat="31.065338608439497" lon="-6.546350031693949"><ele>1224.0</ele><time>2026-04-24T15:43:30Z</time></trkpt><trkpt lat="31.065391117816805" lon="-6.546191284049528"><ele>1223.25</ele><time>2026-04-24T15:43:31Z</time></trkpt><trkpt lat="31.065437781649955" lon="-6.5460309743218295"><ele>1222.5</ele><time>2026-04-24T15:43:32Z</time></trkpt><trkpt lat="31.065481293461804" lon="-6.54587051997573"><ele>1221.75</ele><time>2026-04-24T15:43:33Z</time></trkpt><trkpt lat="31.06552529592425" lon="-6.54571106803762"><ele>1221.0</ele><time>2026-04-24T15:43:34Z</time></trkpt><trkpt lat="31.065569199885203" lon="-6.545552345666437"><ele>1221.0</ele><time>2026-04-24T15:43:35Z</time></trkpt><trkpt lat="31.06560881604353" lon="-6.545393990234776"><ele>1221.0</ele><time>2026-04-24T15:43:36Z</time></trkpt><trkpt lat="31.065645838314346" lon="-6.545232506893158"><ele>1221.0</ele><time>2026-04-24T15:43:37Z</time></trkpt><trkpt lat="31.06568396644518" lon="-6.545069491059943"><ele>1221.0</ele><time>2026-04-24T15:43:38Z</time></trkpt><trkpt lat="31.065721203367925" lon="-6.544907718236604"><ele>1221.25</ele><time>2026-04-24T15:43:39Z</time></trkpt><trkpt lat="31.065759552998394" lon="-6.544747396243216"><ele>1221.5</ele><time>2026-04-24T15:43:40Z</time></trkpt><trkpt lat="31.06579643860935" lon="-6.544591730836007"><ele>1221.75</ele><time>2026-04-24T15:43:41Z</time></trkpt><trkpt lat="31.065833651725928" lon="-6.544434543751288"><ele>1222.0</ele><time>2026-04-24T15:43:42Z</time></trkpt><trkpt lat="31.065871202230422" lon="-6.544278265230409"><ele>1222.25</ele><time>2026-04-24T15:43:43Z</time></trkpt><trkpt lat="31.065908802446458" lon="-6.5441255985745945"><ele>1222.5</ele><time>2026-04-24T15:43:44Z</time></trkpt><trkpt lat="31.065942641653038" lon="-6.543979146627418"><ele>1222.75</ele><time>2026-04-24T15:43:45Z</time></trkpt><trkpt lat="31.065975923018485" lon="-6.543836723097438"><ele>1223.0</ele><time>2026-04-24T15:43:46Z</time></trkpt><trkpt lat="31.066010451067907" lon="-6.543690524363384"><ele>1222.0</ele><time>2026-04-24T15:43:47Z</time></trkpt><trkpt lat="31.066046110940874" lon="-6.543540938234254"><ele>1221.0</ele><time>2026-04-24T15:43:48Z</time></trkpt><trkpt lat="31.066083015548354" lon="-6.543388134887592"><ele>1220.0</ele><time>2026-04-24T15:43:49Z</time></trkpt><trkpt lat="31.06611982474133" lon="-6.543234994297515"><ele>1219.0</ele><time>2026-04-24T15:43:50Z</time></trkpt><trkpt lat="31.06615860984505" lon="-6.543078594265616"><ele>1219.0</ele><time>2026-04-24T15:43:51Z</time></trkpt><trkpt lat="31.066196721607653" lon="-6.542920378960927"><ele>1219.0</ele><time>2026-04-24T15:43:52Z</time></trkpt><trkpt lat="31.066234955490593" lon="-6.54275671273125"><ele>1219.0</ele><time>2026-04-24T15:43:53Z</time></trkpt><trkpt lat="31.066275521131185" lon="-6.542592022823139"><ele>1219.0</ele><time>2026-04-24T15:43:54Z</time></trkpt><trkpt lat="31.066314932896592" lon="-6.5424269543938705"><ele>1219.5</ele><time>2026-04-24T15:43:55Z</time></trkpt><trkpt lat="31.06635312428197" lon="-6.542258793118602"><ele>1220.0</ele><time>2026-04-24T15:43:56Z</time></trkpt><trkpt lat="31.066391216622243" lon="-6.542090401508327"><ele>1220.5</ele><time>2026-04-24T15:43:57Z</time></trkpt><trkpt lat="31.06643057732015" lon="-6.541925022118351"><ele>1221.0</ele><time>2026-04-24T15:43:58Z</time></trkpt><trkpt lat="31.066469842750145" lon="-6.541761759702882"><ele>1221.0</ele><time>2026-04-24T15:43:59Z</time></trkpt><trkpt lat="31.066507917517495" lon="-6.541604573911522"><ele>1221.0</ele><time>2026-04-24T15:44:00Z</time></trkpt><trkpt lat="31.066542472387436" lon="-6.541454333087453"><ele>1221.0</ele><time>2026-04-24T15:44:01Z</time></trkpt><trkpt lat="31.066575493868" lon="-6.541308849772167"><ele>1221.0</ele><time>2026-04-24T15:44:02Z</time></trkpt><trkpt lat="31.066608152606307" lon="-6.541170328482926"><ele>1220.75</ele><time>2026-04-24T15:44:03Z</time></trkpt><trkpt lat="31.06664242103607" lon="-6.541041491942647"><ele>1220.5</ele><time>2026-04-24T15:44:04Z</time></trkpt><trkpt lat="31.066685740473744" lon="-6.540919540648411"><ele>1220.25</ele><time>2026-04-24T15:44:05Z</time></trkpt><trkpt lat="31.066712526600977" lon="-6.540797714384569"><ele>1220.0</ele><time>2026-04-24T15:44:06Z</time></trkpt><trkpt lat="31.06674253402802" lon="-6.540669158215346"><ele>1220.0</ele><time>2026-04-24T15:44:07Z</time></trkpt><trkpt lat="31.06676756234093" lon="-6.540564101095917"><ele>1220.0</ele><time>2026-04-24T15:44:08Z</time></trkpt><trkpt lat="31.066794176348246" lon="-6.540452387978352"><ele>1220.0</ele><time>2026-04-24T15:44:09Z</time></trkpt><trkpt lat="31.066821992852766" lon="-6.5403356273520075"><ele>1220.0</ele><time>2026-04-24T15:44:10Z</time></trkpt><trkpt lat="31.06685030186364" lon="-6.540216799391506"><ele>1220.0</ele><time>2026-04-24T15:44:11Z</time></trkpt><trkpt lat="31.066878979420576" lon="-6.540096424500858"><ele>1220.25</ele><time>2026-04-24T15:44:12Z</time></trkpt><trkpt lat="31.066908575095653" lon="-6.539972476562607"><ele>1220.5</ele><time>2026-04-24T15:44:13Z</time></trkpt><trkpt lat="31.06693167104605" lon="-6.539834498245086"><ele>1220.75</ele><time>2026-04-24T15:44:14Z</time></trkpt><trkpt lat="31.0669577583905" lon="-6.539685781943378"><ele>1221.0</ele><time>2026-04-24T15:44:15Z</time></trkpt><trkpt lat="31.066996576694677" lon="-6.539530455780408"><ele>1221.0</ele><time>2026-04-24T15:44:16Z</time></trkpt><trkpt lat="31.06703744041361" lon="-6.539369800267697"><ele>1221.0</ele><time>2026-04-24T15:44:17Z</time></trkpt><trkpt lat="31.067079936655112" lon="-6.53919959766954"><ele>1221.0</ele><time>2026-04-24T15:44:18Z</time></trkpt><trkpt lat="31.06712199542401" lon="-6.539023030285909"><ele>1221.0</ele><time>2026-04-24T15:44:19Z</time></trkpt><trkpt lat="31.06716571982645" lon="-6.538842391741012"><ele>1221.0</ele><time>2026-04-24T15:44:20Z</time></trkpt><trkpt lat="31.067209978330823" lon="-6.538658331592304"><ele>1221.0</ele><time>2026-04-24T15:44:21Z</time></trkpt><trkpt lat="31.06725526618038" lon="-6.538469104141018"><ele>1221.0</ele><time>2026-04-24T15:44:21.999Z</time></trkpt><trkpt lat="31.067301066289765" lon="-6.538275993667941"><ele>1221.0</ele><time>2026-04-24T15:44:22.999Z</time></trkpt><trkpt lat="31.067347166628267" lon="-6.538078003153049"><ele>1221.0</ele><time>2026-04-24T15:44:23.999Z</time></trkpt><trkpt lat="31.067396557593497" lon="-6.537875444439833"><ele>1221.0</ele><time>2026-04-24T15:44:24.999Z</time></trkpt><trkpt lat="31.067446563837542" lon="-6.537668809537666"><ele>1221.0</ele><time>2026-04-24T15:44:25.999Z</time></trkpt><trkpt lat="31.06749790590058" lon="-6.537450678923597"><ele>1221.0</ele><time>2026-04-24T15:44:26.999Z</time></trkpt><trkpt lat="31.0675510592847" lon="-6.537230316782318"><ele>1221.0</ele><time>2026-04-24T15:44:27.999Z</time></trkpt><trkpt lat="31.067604935481604" lon="-6.5370075515111115"><ele>1221.0</ele><time>2026-04-24T15:44:28.999Z</time></trkpt><trkpt lat="31.06765860239744" lon="-6.536779644832842"><ele>1221.0</ele><time>2026-04-24T15:44:29.999Z</time></trkpt><trkpt lat="31.067711926672587" lon="-6.536550404138905"><ele>1221.0</ele><time>2026-04-24T15:44:30.999Z</time></trkpt><trkpt lat="31.067767078606927" lon="-6.5363208140446645"><ele>1221.0</ele><time>2026-04-24T15:44:31.999Z</time></trkpt><trkpt lat="31.067821884871964" lon="-6.5360890024178175"><ele>1221.0</ele><time>2026-04-24T15:44:32.999Z</time></trkpt><trkpt lat="31.06787724488227" lon="-6.53585413827035"><ele>1221.0</ele><time>2026-04-24T15:44:33.999Z</time></trkpt><trkpt lat="31.06793485563121" lon="-6.535617047320337"><ele>1221.0</ele><time>2026-04-24T15:44:34.999Z</time></trkpt><trkpt lat="31.06799427416709" lon="-6.535376913051114"><ele>1221.0</ele><time>2026-04-24T15:44:35.999Z</time></trkpt><trkpt lat="31.06805258147745" lon="-6.53513772946503"><ele>1221.0</ele><time>2026-04-24T15:44:36.999Z</time></trkpt><trkpt lat="31.068108634499286" lon="-6.53490195448716"><ele>1221.0</ele><time>2026-04-24T15:44:37.999Z</time></trkpt><trkpt lat="31.06816368676431" lon="-6.534677204690019"><ele>1221.0</ele><time>2026-04-24T15:44:38.999Z</time></trkpt><trkpt lat="31.068214951734877" lon="-6.534458936041433"><ele>1221.0</ele><time>2026-04-24T15:44:39.999Z</time></trkpt><trkpt lat="31.068262967719473" lon="-6.5342432254263105"><ele>1221.0</ele><time>2026-04-24T15:44:40.999Z</time></trkpt><trkpt lat="31.068311325851823" lon="-6.534031822601423"><ele>1221.0</ele><time>2026-04-24T15:44:41.999Z</time></trkpt><trkpt lat="31.068360530202956" lon="-6.533822989112564"><ele>1222.3333333333333</ele><time>2026-04-24T15:44:42.999Z</time></trkpt><trkpt lat="31.068411084702614" lon="-6.533612872548615"><ele>1223.6666666666665</ele><time>2026-04-24T15:44:43.999Z</time></trkpt><trkpt lat="31.068464599298537" lon="-6.533394241010887"><ele>1225.0</ele><time>2026-04-24T15:44:44.999Z</time></trkpt><trkpt lat="31.068519625599517" lon="-6.5331667520603816"><ele>1225.0</ele><time>2026-04-24T15:44:45.999Z</time></trkpt><trkpt lat="31.068575202624565" lon="-6.532930799495471"><ele>1225.0</ele><time>2026-04-24T15:44:46.999Z</time></trkpt><trkpt lat="31.068632850330385" lon="-6.532685495552327"><ele>1225.0</ele><time>2026-04-24T15:44:47.999Z</time></trkpt><trkpt lat="31.068692697264982" lon="-6.532433433863573"><ele>1225.5</ele><time>2026-04-24T15:44:48.999Z</time></trkpt><trkpt lat="31.0687538563115" lon="-6.5321750629698485"><ele>1226.0</ele><time>2026-04-24T15:44:49.999Z</time></trkpt><trkpt lat="31.06881776005535" lon="-6.5319134844810725"><ele>1225.0</ele><time>2026-04-24T15:44:50.999Z</time></trkpt><trkpt lat="31.068882245428107" lon="-6.531651841558764"><ele>1224.0</ele><time>2026-04-24T15:44:51.999Z</time></trkpt><trkpt lat="31.06894582040136" lon="-6.5313922132397115"><ele>1225.0</ele><time>2026-04-24T15:44:52.999Z</time></trkpt><trkpt lat="31.069005708888888" lon="-6.531134743166634"><ele>1226.0</ele><time>2026-04-24T15:44:53.999Z</time></trkpt><trkpt lat="31.06906616315101" lon="-6.5308821003807775"><ele>1225.6666666666667</ele><time>2026-04-24T15:44:54.999Z</time></trkpt><trkpt lat="31.069126691163728" lon="-6.530636072049849"><ele>1225.3333333333333</ele><time>2026-04-24T15:44:55.999Z</time></trkpt><trkpt lat="31.069186242565284" lon="-6.530393214052144"><ele>1225.0</ele><time>2026-04-24T15:44:56.999Z</time></trkpt><trkpt lat="31.069241407468816" lon="-6.530159106396962"><ele>1225.0</ele><time>2026-04-24T15:44:57.999Z</time></trkpt><trkpt lat="31.06929524414589" lon="-6.529930801608155"><ele>1225.0</ele><time>2026-04-24T15:44:58.999Z</time></trkpt><trkpt lat="31.069349889772873" lon="-6.529706751833545"><ele>1225.0</ele><time>2026-04-24T15:44:59.999Z</time></trkpt><trkpt lat="31.06940394790217" lon="-6.529488062943519"><ele>1225.0</ele><time>2026-04-24T15:45:00.999Z</time></trkpt><trkpt lat="31.06945382058654" lon="-6.529281718742331"><ele>1225.0</ele><time>2026-04-24T15:45:01.999Z</time></trkpt><trkpt lat="31.06949874398928" lon="-6.529083594559054"><ele>1225.0</ele><time>2026-04-24T15:45:02.999Z</time></trkpt><trkpt lat="31.069540144093093" lon="-6.5289016165483345"><ele>1225.0</ele><time>2026-04-24T15:45:03.999Z</time></trkpt><trkpt lat="31.069579633954255" lon="-6.5287387946547835"><ele>1225.0</ele><time>2026-04-24T15:45:04.999Z</time></trkpt><trkpt lat="31.06962151272567" lon="-6.528589405674544"><ele>1225.0</ele><time>2026-04-24T15:45:05.999Z</time></trkpt><trkpt lat="31.069633351088942" lon="-6.528450076368135"><ele>1225.0</ele><time>2026-04-24T15:45:06.999Z</time></trkpt><trkpt lat="31.06965775410623" lon="-6.52832200725248"><ele>1225.0</ele><time>2026-04-24T15:45:07.999Z</time></trkpt><trkpt lat="31.069676826432186" lon="-6.528207491420118"><ele>1225.0</ele><time>2026-04-24T15:45:08.999Z</time></trkpt><trkpt lat="31.069693346380145" lon="-6.528109025261636"><ele>1225.0</ele><time>2026-04-24T15:45:09.999Z</time></trkpt><trkpt lat="31.0697045293867" lon="-6.528018823495947"><ele>1225.0</ele><time>2026-04-24T15:45:10.999Z</time></trkpt><trkpt lat="31.069716172939142" lon="-6.527924044657885"><ele>1225.0</ele><time>2026-04-24T15:45:11.999Z</time></trkpt><trkpt lat="31.069729070188078" lon="-6.527819925858534"><ele>1225.0</ele><time>2026-04-24T15:45:12.999Z</time></trkpt><trkpt lat="31.069735654254607" lon="-6.52772390343211"><ele>1225.0</ele><time>2026-04-24T15:45:13.999Z</time></trkpt><trkpt lat="31.069742527390375" lon="-6.527618786568385"><ele>1225.0</ele><time>2026-04-24T15:45:14.999Z</time></trkpt><trkpt lat="31.06974903367798" lon="-6.527504879460629"><ele>1225.0</ele><time>2026-04-24T15:45:15.999Z</time></trkpt><trkpt lat="31.069755173212762" lon="-6.527386760103483"><ele>1225.0</ele><time>2026-04-24T15:45:16.999Z</time></trkpt><trkpt lat="31.069760246403302" lon="-6.527277971394182"><ele>1225.0</ele><time>2026-04-24T15:45:17.999Z</time></trkpt><trkpt lat="31.069763027721425" lon="-6.527163397143642"><ele>1224.6</ele><time>2026-04-24T15:45:18.999Z</time></trkpt><trkpt lat="31.069766650203835" lon="-6.52705105491408"><ele>1224.2</ele><time>2026-04-24T15:45:19.999Z</time></trkpt><trkpt lat="31.06977023316733" lon="-6.526939805200655"><ele>1223.8</ele><time>2026-04-24T15:45:20.999Z</time></trkpt><trkpt lat="31.069773734212372" lon="-6.526826783818124"><ele>1223.4</ele><time>2026-04-24T15:45:21.999Z</time></trkpt><trkpt lat="31.069777168799078" lon="-6.526715908046757"><ele>1223.0</ele><time>2026-04-24T15:45:22.999Z</time></trkpt><trkpt lat="31.069780634891963" lon="-6.5266040145810305"><ele>1223.0</ele><time>2026-04-24T15:45:23.999Z</time></trkpt><trkpt lat="31.0697841885718" lon="-6.526489294534587"><ele>1223.0</ele><time>2026-04-24T15:45:24.999Z</time></trkpt><trkpt lat="31.06978775243347" lon="-6.526374245273086"><ele>1223.0</ele><time>2026-04-24T15:45:25.999Z</time></trkpt><trkpt lat="31.069791260142885" lon="-6.526261008936836"><ele>1223.0</ele><time>2026-04-24T15:45:27Z</time></trkpt><trkpt lat="31.0697946111106" lon="-6.526153591966404"><ele>1223.0</ele><time>2026-04-24T15:45:28Z</time></trkpt><trkpt lat="31.069798020699842" lon="-6.526050294188646"><ele>1222.8333333333335</ele><time>2026-04-24T15:45:29Z</time></trkpt><trkpt lat="31.069801376629773" lon="-6.525948621728749"><ele>1222.6666666666667</ele><time>2026-04-24T15:45:30Z</time></trkpt><trkpt lat="31.069804067413827" lon="-6.525850574453427"><ele>1222.5</ele><time>2026-04-24T15:45:31Z</time></trkpt><trkpt lat="31.069806386266194" lon="-6.525750501140728"><ele>1222.3333333333333</ele><time>2026-04-24T15:45:32Z</time></trkpt><trkpt lat="31.069808326297363" lon="-6.5256667759946"><ele>1222.1666666666665</ele><time>2026-04-24T15:45:33Z</time></trkpt><trkpt lat="31.069811237404885" lon="-6.525541142834493"><ele>1222.0</ele><time>2026-04-24T15:45:35Z</time></trkpt><trkpt lat="31.06981294410943" lon="-6.525467487228627"><ele>1222.6666666666665</ele><time>2026-04-24T15:45:36Z</time></trkpt><trkpt lat="31.06981492314096" lon="-6.525382079060863"><ele>1223.3333333333333</ele><time>2026-04-24T15:45:37Z</time></trkpt><trkpt lat="31.0698168865642" lon="-6.525295240503195"><ele>1224.0</ele><time>2026-04-24T15:45:38Z</time></trkpt><trkpt lat="31.069818846039976" lon="-6.525208576665603"><ele>1224.6666666666667</ele><time>2026-04-24T15:45:39Z</time></trkpt><trkpt lat="31.06982110592889" lon="-6.525106470497513"><ele>1225.3333333333335</ele><time>2026-04-24T15:45:40Z</time></trkpt><trkpt lat="31.069823655409895" lon="-6.524982347264149"><ele>1226.0</ele><time>2026-04-24T15:45:41Z</time></trkpt><trkpt lat="31.069826147027467" lon="-6.524854440587772"><ele>1226.0</ele><time>2026-04-24T15:45:42Z</time></trkpt><trkpt lat="31.069829013080493" lon="-6.52470556512678"><ele>1226.0</ele><time>2026-04-24T15:45:43Z</time></trkpt><trkpt lat="31.069832211977364" lon="-6.524539400233462"><ele>1226.0</ele><time>2026-04-24T15:45:44Z</time></trkpt><trkpt lat="31.069835079591254" lon="-6.524390443791263"><ele>1226.0</ele><time>2026-04-24T15:45:45Z</time></trkpt><trkpt lat="31.069837392110006" lon="-6.524261456432457"><ele>1226.0</ele><time>2026-04-24T15:45:46Z</time></trkpt><trkpt lat="31.069839332842182" lon="-6.524135031799064"><ele>1226.0</ele><time>2026-04-24T15:45:47Z</time></trkpt><trkpt lat="31.069844297829757" lon="-6.523993380619144"><ele>1226.0</ele><time>2026-04-24T15:45:48Z</time></trkpt><trkpt lat="31.069831702761483" lon="-6.523833613645217"><ele>1226.0</ele><time>2026-04-24T15:45:49Z</time></trkpt><trkpt lat="31.06982300092459" lon="-6.523644360872866"><ele>1227.3333333333335</ele><time>2026-04-24T15:45:50Z</time></trkpt><trkpt lat="31.069821064185273" lon="-6.523424573803104"><ele>1228.6666666666667</ele><time>2026-04-24T15:45:51Z</time></trkpt><trkpt lat="31.069828982430003" lon="-6.523205542663539"><ele>1230.0</ele><time>2026-04-24T15:45:52Z</time></trkpt><trkpt lat="31.069833242424743" lon="-6.522996549589869"><ele>1230.3333333333333</ele><time>2026-04-24T15:45:53Z</time></trkpt><trkpt lat="31.06983131739287" lon="-6.522806792750929"><ele>1230.6666666666665</ele><time>2026-04-24T15:45:54Z</time></trkpt><trkpt lat="31.069830350915282" lon="-6.522630011516768"><ele>1231.0</ele><time>2026-04-24T15:45:55Z</time></trkpt><trkpt lat="31.06983188451472" lon="-6.522465403116236"><ele>1231.0</ele><time>2026-04-24T15:45:56Z</time></trkpt><trkpt lat="31.06983335514731" lon="-6.522304604823203"><ele>1231.0</ele><time>2026-04-24T15:45:57Z</time></trkpt><trkpt lat="31.06984803273769" lon="-6.522141731526794"><ele>1231.0</ele><time>2026-04-24T15:45:58Z</time></trkpt><trkpt lat="31.06986356339023" lon="-6.5219746055719074"><ele>1231.0</ele><time>2026-04-24T15:45:59Z</time></trkpt><trkpt lat="31.06986630645353" lon="-6.521813621864479"><ele>1228.3333333333333</ele><time>2026-04-24T15:46:00Z</time></trkpt><trkpt lat="31.06986917707776" lon="-6.521645551689716"><ele>1225.6666666666667</ele><time>2026-04-24T15:46:01Z</time></trkpt><trkpt lat="31.06987247511283" lon="-6.521468800054851"><ele>1223.0</ele><time>2026-04-24T15:46:02Z</time></trkpt><trkpt lat="31.069876341347207" lon="-6.521279595271997"><ele>1224.0</ele><time>2026-04-24T15:46:03Z</time></trkpt><trkpt lat="31.069880828641775" lon="-6.521076631719095"><ele>1225.0</ele><time>2026-04-24T15:46:04Z</time></trkpt><trkpt lat="31.069886050330172" lon="-6.520848875200216"><ele>1226.0</ele><time>2026-04-24T15:46:05Z</time></trkpt><trkpt lat="31.069890910987432" lon="-6.520609266956983"><ele>1228.3333333333335</ele><time>2026-04-24T15:46:06Z</time></trkpt><trkpt lat="31.069891917116802" lon="-6.520359816608035"><ele>1230.6666666666667</ele><time>2026-04-24T15:46:07Z</time></trkpt><trkpt lat="31.06989573848464" lon="-6.5200998433755"><ele>1233.0</ele><time>2026-04-24T15:46:08Z</time></trkpt><trkpt lat="31.06990396885082" lon="-6.519842494788298"><ele>1233.0</ele><time>2026-04-24T15:46:09Z</time></trkpt><trkpt lat="31.06992110800871" lon="-6.519591819988697"><ele>1233.0</ele><time>2026-04-24T15:46:10Z</time></trkpt><trkpt lat="31.06994780240753" lon="-6.519381648759123"><ele>1233.0</ele><time>2026-04-24T15:46:11Z</time></trkpt><trkpt lat="31.069983659448045" lon="-6.519194381034336"><ele>1232.3333333333333</ele><time>2026-04-24T15:46:12Z</time></trkpt><trkpt lat="31.070015811628355" lon="-6.51901144814708"><ele>1231.6666666666665</ele><time>2026-04-24T15:46:13Z</time></trkpt><trkpt lat="31.070057548271247" lon="-6.518821789596618"><ele>1231.0</ele><time>2026-04-24T15:46:14Z</time></trkpt><trkpt lat="31.070118033723013" lon="-6.518623335592566"><ele>1231.0</ele><time>2026-04-24T15:46:15Z</time></trkpt><trkpt lat="31.070189745325674" lon="-6.518412422499464"><ele>1231.0</ele><time>2026-04-24T15:46:16Z</time></trkpt><trkpt lat="31.070269167623625" lon="-6.51819319850787"><ele>1231.0</ele><time>2026-04-24T15:46:17Z</time></trkpt><trkpt lat="31.070353215790746" lon="-6.517966819354933"><ele>1231.3333333333333</ele><time>2026-04-24T15:46:18Z</time></trkpt><trkpt lat="31.070440367221824" lon="-6.517736131464079"><ele>1231.6666666666667</ele><time>2026-04-24T15:46:19Z</time></trkpt><trkpt lat="31.070525980109466" lon="-6.517511126614562"><ele>1232.0</ele><time>2026-04-24T15:46:20Z</time></trkpt><trkpt lat="31.070613020672734" lon="-6.517286249422524"><ele>1232.3333333333335</ele><time>2026-04-24T15:46:21Z</time></trkpt><trkpt lat="31.070698744472345" lon="-6.517058526838244"><ele>1232.6666666666667</ele><time>2026-04-24T15:46:22Z</time></trkpt><trkpt lat="31.070783737154027" lon="-6.516829297560105"><ele>1233.0</ele><time>2026-04-24T15:46:23Z</time></trkpt><trkpt lat="31.07086925779939" lon="-6.516599765220624"><ele>1232.3333333333333</ele><time>2026-04-24T15:46:24Z</time></trkpt><trkpt lat="31.070955197330814" lon="-6.51637008538801"><ele>1231.6666666666665</ele><time>2026-04-24T15:46:25Z</time></trkpt><trkpt lat="31.071041768937697" lon="-6.516139861604288"><ele>1231.0</ele><time>2026-04-24T15:46:26Z</time></trkpt><trkpt lat="31.071130615077017" lon="-6.515908327051852"><ele>1231.0</ele><time>2026-04-24T15:46:27Z</time></trkpt><trkpt lat="31.07121871065564" lon="-6.515675446334227"><ele>1231.0</ele><time>2026-04-24T15:46:28Z</time></trkpt><trkpt lat="31.071302626677788" lon="-6.5154415690434675"><ele>1231.0</ele><time>2026-04-24T15:46:29Z</time></trkpt><trkpt lat="31.071386915385812" lon="-6.515208275363624"><ele>1232.0</ele><time>2026-04-24T15:46:30Z</time></trkpt><trkpt lat="31.071474264253272" lon="-6.514975099574092"><ele>1233.0</ele><time>2026-04-24T15:46:31Z</time></trkpt><trkpt lat="31.071561468039043" lon="-6.514743233867657"><ele>1234.0</ele><time>2026-04-24T15:46:32Z</time></trkpt><trkpt lat="31.071646844056005" lon="-6.514511660524942"><ele>1234.6666666666665</ele><time>2026-04-24T15:46:33Z</time></trkpt><trkpt lat="31.071730878786067" lon="-6.514279998218842"><ele>1235.3333333333333</ele><time>2026-04-24T15:46:34Z</time></trkpt><trkpt lat="31.071815718159733" lon="-6.51404827625237"><ele>1236.0</ele><time>2026-04-24T15:46:35Z</time></trkpt><trkpt lat="31.071902198260094" lon="-6.5138188450179895"><ele>1235.5</ele><time>2026-04-24T15:46:36Z</time></trkpt><trkpt lat="31.07199018075283" lon="-6.513582016384258"><ele>1235.0</ele><time>2026-04-24T15:46:37Z</time></trkpt><trkpt lat="31.0720843237524" lon="-6.513324977552452"><ele>1235.0</ele><time>2026-04-24T15:46:38Z</time></trkpt><trkpt lat="31.0721814377744" lon="-6.513059333082014"><ele>1235.0</ele><time>2026-04-24T15:46:39Z</time></trkpt><trkpt lat="31.072281333030386" lon="-6.512793277022637"><ele>1237.0</ele><time>2026-04-24T15:46:40Z</time></trkpt><trkpt lat="31.072381213382386" lon="-6.512531989031879"><ele>1239.0</ele><time>2026-04-24T15:46:41Z</time></trkpt><trkpt lat="31.072478409692195" lon="-6.51227094687942"><ele>1242.5</ele><time>2026-04-24T15:46:42Z</time></trkpt><trkpt lat="31.07257207712538" lon="-6.512013566480839"><ele>1246.0</ele><time>2026-04-24T15:46:43Z</time></trkpt><trkpt lat="31.072661431713417" lon="-6.511761358501009"><ele>1246.0</ele><time>2026-04-24T15:46:44Z</time></trkpt><trkpt lat="31.072744025596524" lon="-6.51151236166454"><ele>1246.0</ele><time>2026-04-24T15:46:45Z</time></trkpt><trkpt lat="31.0728170082018" lon="-6.511262801543493"><ele>1247.5</ele><time>2026-04-24T15:46:46Z</time></trkpt><trkpt lat="31.07288329046835" lon="-6.511007440019501"><ele>1249.0</ele><time>2026-04-24T15:46:47Z</time></trkpt><trkpt lat="31.072943435000855" lon="-6.510753381981765"><ele>1249.0</ele><time>2026-04-24T15:46:48Z</time></trkpt><trkpt lat="31.073000285052913" lon="-6.510502295945891"><ele>1249.0</ele><time>2026-04-24T15:46:49Z</time></trkpt><trkpt lat="31.073056444795213" lon="-6.510257536369864"><ele>1249.0</ele><time>2026-04-24T15:46:50Z</time></trkpt><trkpt lat="31.073108334695945" lon="-6.5100295110680335"><ele>1249.3333333333333</ele><time>2026-04-24T15:46:51Z</time></trkpt><trkpt lat="31.0731631809062" lon="-6.509805981990719"><ele>1249.6666666666667</ele><time>2026-04-24T15:46:52Z</time></trkpt><trkpt lat="31.0732262178815" lon="-6.509566876420501"><ele>1250.0</ele><time>2026-04-24T15:46:53Z</time></trkpt><trkpt lat="31.073294455326767" lon="-6.5093084255487925"><ele>1250.0</ele><time>2026-04-24T15:46:54Z</time></trkpt><trkpt lat="31.07335996812198" lon="-6.509051822253594"><ele>1250.0</ele><time>2026-04-24T15:46:55Z</time></trkpt><trkpt lat="31.073424622072455" lon="-6.508789622163932"><ele>1248.5</ele><time>2026-04-24T15:46:56Z</time></trkpt><trkpt lat="31.073491401842112" lon="-6.508506914719289"><ele>1247.0</ele><time>2026-04-24T15:46:57Z</time></trkpt><trkpt lat="31.073555205750704" lon="-6.508217525498824"><ele>1247.0</ele><time>2026-04-24T15:46:58Z</time></trkpt><trkpt lat="31.073622608701065" lon="-6.507932326183942"><ele>1247.0</ele><time>2026-04-24T15:46:58.999Z</time></trkpt><trkpt lat="31.073694565715854" lon="-6.507652522721081"><ele>1247.5</ele><time>2026-04-24T15:46:59.999Z</time></trkpt><trkpt lat="31.07377301872637" lon="-6.5073778247589305"><ele>1248.0</ele><time>2026-04-24T15:47:00.999Z</time></trkpt><trkpt lat="31.073854713056065" lon="-6.507112771712468"><ele>1247.5</ele><time>2026-04-24T15:47:01.999Z</time></trkpt><trkpt lat="31.0739361598768" lon="-6.506857328153349"><ele>1247.0</ele><time>2026-04-24T15:47:02.999Z</time></trkpt><trkpt lat="31.07401641867947" lon="-6.5066049464721765"><ele>1247.0</ele><time>2026-04-24T15:47:03.999Z</time></trkpt><trkpt lat="31.074096139982206" lon="-6.506352932578635"><ele>1247.0</ele><time>2026-04-24T15:47:04.999Z</time></trkpt><trkpt lat="31.07417789201606" lon="-6.506096539552813"><ele>1248.5</ele><time>2026-04-24T15:47:05.999Z</time></trkpt><trkpt lat="31.074260835250676" lon="-6.505835694201292"><ele>1250.0</ele><time>2026-04-24T15:47:06.999Z</time></trkpt><trkpt lat="31.074344551962596" lon="-6.505575770184029"><ele>1248.5</ele><time>2026-04-24T15:47:07.999Z</time></trkpt><trkpt lat="31.074427864740937" lon="-6.505315279108244"><ele>1247.0</ele><time>2026-04-24T15:47:08.999Z</time></trkpt><trkpt lat="31.074508734265844" lon="-6.505056470513061"><ele>1247.0</ele><time>2026-04-24T15:47:09.999Z</time></trkpt><trkpt lat="31.074592377060174" lon="-6.504792136128708"><ele>1247.0</ele><time>2026-04-24T15:47:10.999Z</time></trkpt><trkpt lat="31.074676958109674" lon="-6.5045267137639"><ele>1247.5</ele><time>2026-04-24T15:47:11.999Z</time></trkpt><trkpt lat="31.07476332852061" lon="-6.504259474246631"><ele>1248.0</ele><time>2026-04-24T15:47:12.999Z</time></trkpt><trkpt lat="31.074851113861055" lon="-6.5039853048424145"><ele>1250.0</ele><time>2026-04-24T15:47:13.999Z</time></trkpt><trkpt lat="31.07493938297012" lon="-6.503705544968724"><ele>1252.0</ele><time>2026-04-24T15:47:14.999Z</time></trkpt><trkpt lat="31.07502942703193" lon="-6.503422724942328"><ele>1252.0</ele><time>2026-04-24T15:47:15.999Z</time></trkpt><trkpt lat="31.07512103260113" lon="-6.503137155693215"><ele>1252.0</ele><time>2026-04-24T15:47:16.999Z</time></trkpt><trkpt lat="31.075214706001947" lon="-6.502848005246356"><ele>1254.0</ele><time>2026-04-24T15:47:17.999Z</time></trkpt><trkpt lat="31.075309113124927" lon="-6.5025565029337935"><ele>1256.0</ele><time>2026-04-24T15:47:18.999Z</time></trkpt><trkpt lat="31.075403613191398" lon="-6.502264329898896"><ele>1253.5</ele><time>2026-04-24T15:47:19.999Z</time></trkpt><trkpt lat="31.07549891602584" lon="-6.501966616266473"><ele>1251.0</ele><time>2026-04-24T15:47:20.999Z</time></trkpt><trkpt lat="31.075594987496277" lon="-6.501666350743947"><ele>1251.0</ele><time>2026-04-24T15:47:21.999Z</time></trkpt><trkpt lat="31.07569219117946" lon="-6.5013639814543716"><ele>1251.0</ele><time>2026-04-24T15:47:22.999Z</time></trkpt><trkpt lat="31.075789934843776" lon="-6.501056676956755"><ele>1252.5</ele><time>2026-04-24T15:47:23.999Z</time></trkpt><trkpt lat="31.075888576866788" lon="-6.500745261726651"><ele>1254.0</ele><time>2026-04-24T15:47:24.999Z</time></trkpt><trkpt lat="31.075990422402562" lon="-6.500426042151868"><ele>1254.5</ele><time>2026-04-24T15:47:25.999Z</time></trkpt><trkpt lat="31.076094267637124" lon="-6.500101431537087"><ele>1255.0</ele><time>2026-04-24T15:47:26.999Z</time></trkpt><trkpt lat="31.0761987343665" lon="-6.499775279880585"><ele>1255.5</ele><time>2026-04-24T15:47:27.999Z</time></trkpt><trkpt lat="31.076302503842044" lon="-6.499451800519066"><ele>1256.0</ele><time>2026-04-24T15:47:28.999Z</time></trkpt><trkpt lat="31.076405333526083" lon="-6.499132441787608"><ele>1256.0</ele><time>2026-04-24T15:47:29.999Z</time></trkpt><trkpt lat="31.076508108402283" lon="-6.498817498890368"><ele>1256.0</ele><time>2026-04-24T15:47:30.999Z</time></trkpt><trkpt lat="31.076607848841814" lon="-6.49850909090902"><ele>1257.0</ele><time>2026-04-24T15:47:31.999Z</time></trkpt><trkpt lat="31.07670439987104" lon="-6.498207725860325"><ele>1258.0</ele><time>2026-04-24T15:47:32.999Z</time></trkpt><trkpt lat="31.07680175529513" lon="-6.497908388276884"><ele>1258.0</ele><time>2026-04-24T15:47:33.999Z</time></trkpt><trkpt lat="31.07689736271003" lon="-6.4976135914752255"><ele>1258.0</ele><time>2026-04-24T15:47:34.999Z</time></trkpt><trkpt lat="31.076989392937573" lon="-6.497323147364332"><ele>1261.0</ele><time>2026-04-24T15:47:35.999Z</time></trkpt><trkpt lat="31.077079368777774" lon="-6.497039892746388"><ele>1264.0</ele><time>2026-04-24T15:47:36.999Z</time></trkpt><trkpt lat="31.0771670800385" lon="-6.496766392905278"><ele>1264.0</ele><time>2026-04-24T15:47:37.999Z</time></trkpt><trkpt lat="31.077252779475813" lon="-6.496502702306178"><ele>1264.0</ele><time>2026-04-24T15:47:38.999Z</time></trkpt><trkpt lat="31.077337055557642" lon="-6.4962461754396985"><ele>1265.5</ele><time>2026-04-24T15:47:39.999Z</time></trkpt><trkpt lat="31.077420191956943" lon="-6.495993775702753"><ele>1267.0</ele><time>2026-04-24T15:47:40.999Z</time></trkpt><trkpt lat="31.077501363635054" lon="-6.495741698806024"><ele>1269.0</ele><time>2026-04-24T15:47:41.999Z</time></trkpt><trkpt lat="31.077581702590766" lon="-6.495494095842574"><ele>1271.0</ele><time>2026-04-24T15:47:42.999Z</time></trkpt><trkpt lat="31.077663290045795" lon="-6.49524610713848"><ele>1271.0</ele><time>2026-04-24T15:47:43.999Z</time></trkpt><trkpt lat="31.077747233590372" lon="-6.494994555858684"><ele>1271.0</ele><time>2026-04-24T15:47:44.999Z</time></trkpt><trkpt lat="31.077833773548946" lon="-6.49473686505751"><ele>1270.5</ele><time>2026-04-24T15:47:45.999Z</time></trkpt><trkpt lat="31.07792337768012" lon="-6.494476635442547"><ele>1270.0</ele><time>2026-04-24T15:47:46.999Z</time></trkpt><trkpt lat="31.07801551084449" lon="-6.494214231877523"><ele>1270.0</ele><time>2026-04-24T15:47:47.999Z</time></trkpt><trkpt lat="31.07811125580702" lon="-6.493947477630682"><ele>1270.0</ele><time>2026-04-24T15:47:48.999Z</time></trkpt><trkpt lat="31.078206528987003" lon="-6.493677423747445"><ele>1272.0</ele><time>2026-04-24T15:47:49.999Z</time></trkpt><trkpt lat="31.078302914937353" lon="-6.493404924279146"><ele>1274.0</ele><time>2026-04-24T15:47:50.999Z</time></trkpt><trkpt lat="31.07839894104372" lon="-6.493133173693684"><ele>1274.5</ele><time>2026-04-24T15:47:51.999Z</time></trkpt><trkpt lat="31.07849525535224" lon="-6.492862512083046"><ele>1275.0</ele><time>2026-04-24T15:47:52.999Z</time></trkpt><trkpt lat="31.07859135829895" lon="-6.492593210201351"><ele>1275.0</ele><time>2026-04-24T15:47:53.999Z</time></trkpt><trkpt lat="31.078687250960254" lon="-6.492325061975778"><ele>1275.0</ele><time>2026-04-24T15:47:54.999Z</time></trkpt><trkpt lat="31.078782805608018" lon="-6.492056569513744"><ele>1274.0</ele><time>2026-04-24T15:47:55.999Z</time></trkpt><trkpt lat="31.078879914056667" lon="-6.491786255206079"><ele>1273.0</ele><time>2026-04-24T15:47:57Z</time></trkpt><trkpt lat="31.07897667208775" lon="-6.491515851932324"><ele>1273.5</ele><time>2026-04-24T15:47:58Z</time></trkpt><trkpt lat="31.07907491137509" lon="-6.491244903481707"><ele>1274.0</ele><time>2026-04-24T15:47:59Z</time></trkpt><trkpt lat="31.079171291621737" lon="-6.490977015434757"><ele>1274.0</ele><time>2026-04-24T15:48:00Z</time></trkpt><trkpt lat="31.079267569514617" lon="-6.490711122432885"><ele>1274.0</ele><time>2026-04-24T15:48:01Z</time></trkpt><trkpt lat="31.07936435031944" lon="-6.490439758743786"><ele>1274.0</ele><time>2026-04-24T15:48:02Z</time></trkpt><trkpt lat="31.07946235901731" lon="-6.490159705972054"><ele>1274.0</ele><time>2026-04-24T15:48:03Z</time></trkpt><trkpt lat="31.079558873969873" lon="-6.489873481041541"><ele>1274.0</ele><time>2026-04-24T15:48:04Z</time></trkpt><trkpt lat="31.079657808339167" lon="-6.489588337001679"><ele>1274.0</ele><time>2026-04-24T15:48:05Z</time></trkpt><trkpt lat="31.07975946925654" lon="-6.489302805402188"><ele>1274.0</ele><time>2026-04-24T15:48:06Z</time></trkpt><trkpt lat="31.079862497021566" lon="-6.489011803178943"><ele>1274.0</ele><time>2026-04-24T15:48:07Z</time></trkpt><trkpt lat="31.079968442500892" lon="-6.48871939959373"><ele>1274.5</ele><time>2026-04-24T15:48:08Z</time></trkpt><trkpt lat="31.080074355208264" lon="-6.488423082672068"><ele>1275.0</ele><time>2026-04-24T15:48:09Z</time></trkpt><trkpt lat="31.080182048343715" lon="-6.488123263701744"><ele>1272.5</ele><time>2026-04-24T15:48:10Z</time></trkpt><trkpt lat="31.08028932461692" lon="-6.487820319320675"><ele>1270.0</ele><time>2026-04-24T15:48:11Z</time></trkpt><trkpt lat="31.08039489323246" lon="-6.487514007669734"><ele>1270.0</ele><time>2026-04-24T15:48:12Z</time></trkpt><trkpt lat="31.080504101600525" lon="-6.487210392179612"><ele>1270.0</ele><time>2026-04-24T15:48:13Z</time></trkpt><trkpt lat="31.080613733144077" lon="-6.486906917311711"><ele>1270.5</ele><time>2026-04-24T15:48:14Z</time></trkpt><trkpt lat="31.080724278697357" lon="-6.486597147307853"><ele>1271.0</ele><time>2026-04-24T15:48:15Z</time></trkpt><trkpt lat="31.08083357191909" lon="-6.486286227427702"><ele>1269.5</ele><time>2026-04-24T15:48:16Z</time></trkpt><trkpt lat="31.08094401943975" lon="-6.485977772341319"><ele>1268.0</ele><time>2026-04-24T15:48:17Z</time></trkpt><trkpt lat="31.08105370893327" lon="-6.485669923524553"><ele>1270.5</ele><time>2026-04-24T15:48:18Z</time></trkpt><trkpt lat="31.08116648958544" lon="-6.485363239641617"><ele>1273.0</ele><time>2026-04-24T15:48:19Z</time></trkpt><trkpt lat="31.081278137216536" lon="-6.48505760895238"><ele>1273.0</ele><time>2026-04-24T15:48:20Z</time></trkpt><trkpt lat="31.08139074760115" lon="-6.484753764660069"><ele>1273.0</ele><time>2026-04-24T15:48:21Z</time></trkpt><trkpt lat="31.081494419440038" lon="-6.484447428061696"><ele>1275.0</ele><time>2026-04-24T15:48:22Z</time></trkpt><trkpt lat="31.081600141112055" lon="-6.484146658828905"><ele>1277.0</ele><time>2026-04-24T15:48:23Z</time></trkpt><trkpt lat="31.081703471212126" lon="-6.483849840164616"><ele>1277.5</ele><time>2026-04-24T15:48:24Z</time></trkpt><trkpt lat="31.081808218188563" lon="-6.483558426181184"><ele>1278.0</ele><time>2026-04-24T15:48:25Z</time></trkpt><trkpt lat="31.081911081454763" lon="-6.483270911858735"><ele>1278.0</ele><time>2026-04-24T15:48:26Z</time></trkpt><trkpt lat="31.08201296667319" lon="-6.482984191943077"><ele>1278.0</ele><time>2026-04-24T15:48:27Z</time></trkpt><trkpt lat="31.082114934105128" lon="-6.4826982859714235"><ele>1278.0</ele><time>2026-04-24T15:48:28Z</time></trkpt><trkpt lat="31.082217891340655" lon="-6.48240987900301"><ele>1278.0</ele><time>2026-04-24T15:48:29Z</time></trkpt><trkpt lat="31.082320627948082" lon="-6.482119021074941"><ele>1278.0</ele><time>2026-04-24T15:48:30Z</time></trkpt><trkpt lat="31.082423182305057" lon="-6.48183107045818"><ele>1278.0</ele><time>2026-04-24T15:48:31Z</time></trkpt><trkpt lat="31.082525169198288" lon="-6.481545293853236"><ele>1277.0</ele><time>2026-04-24T15:48:32Z</time></trkpt><trkpt lat="31.08262664179974" lon="-6.481262063139425"><ele>1276.0</ele><time>2026-04-24T15:48:33Z</time></trkpt><trkpt lat="31.08272969096699" lon="-6.480980319703079"><ele>1276.0</ele><time>2026-04-24T15:48:34Z</time></trkpt><trkpt lat="31.082830537020545" lon="-6.480697152369917"><ele>1276.0</ele><time>2026-04-24T15:48:35Z</time></trkpt><trkpt lat="31.082929561696876" lon="-6.480410975257905"><ele>1278.0</ele><time>2026-04-24T15:48:36Z</time></trkpt><trkpt lat="31.083028124176224" lon="-6.480131706085995"><ele>1280.0</ele><time>2026-04-24T15:48:37Z</time></trkpt><trkpt lat="31.08312216779562" lon="-6.479863531761338"><ele>1280.0</ele><time>2026-04-24T15:48:38Z</time></trkpt><trkpt lat="31.083211118106952" lon="-6.479609039450158"><ele>1280.0</ele><time>2026-04-24T15:48:39Z</time></trkpt><trkpt lat="31.083297253631663" lon="-6.47936640100267"><ele>1281.0</ele><time>2026-04-24T15:48:40Z</time></trkpt><trkpt lat="31.083383274234027" lon="-6.479135191059894"><ele>1282.0</ele><time>2026-04-24T15:48:41Z</time></trkpt><trkpt lat="31.083462881765147" lon="-6.478914835210936"><ele>1283.0</ele><time>2026-04-24T15:48:42Z</time></trkpt><trkpt lat="31.08353764403501" lon="-6.478704457189659"><ele>1283.0</ele><time>2026-04-24T15:48:43Z</time></trkpt><trkpt lat="31.08360983315611" lon="-6.4785023305401115"><ele>1283.0</ele><time>2026-04-24T15:48:44Z</time></trkpt><trkpt lat="31.083680109805176" lon="-6.478310338781961"><ele>1283.0</ele><time>2026-04-24T15:48:45Z</time></trkpt><trkpt lat="31.083749340686378" lon="-6.478121332328238"><ele>1282.6666666666667</ele><time>2026-04-24T15:48:46Z</time></trkpt><trkpt lat="31.083815969244984" lon="-6.477928793880234"><ele>1282.3333333333333</ele><time>2026-04-24T15:48:47Z</time></trkpt><trkpt lat="31.08388142459511" lon="-6.477741740297765"><ele>1282.0</ele><time>2026-04-24T15:48:48Z</time></trkpt><trkpt lat="31.083944480711303" lon="-6.477564816286748"><ele>1282.0</ele><time>2026-04-24T15:48:49Z</time></trkpt><trkpt lat="31.084002160455846" lon="-6.477399792666896"><ele>1282.0</ele><time>2026-04-24T15:48:50Z</time></trkpt><trkpt lat="31.084047859420394" lon="-6.47725862875758"><ele>1282.0</ele><time>2026-04-24T15:48:51Z</time></trkpt><trkpt lat="31.084077710308858" lon="-6.477128347682042"><ele>1282.0</ele><time>2026-04-24T15:48:52Z</time></trkpt><trkpt lat="31.084091830730788" lon="-6.47699674578962"><ele>1282.1999999999998</ele><time>2026-04-24T15:48:53Z</time></trkpt><trkpt lat="31.084137637168197" lon="-6.476884238228947"><ele>1282.4</ele><time>2026-04-24T15:48:54Z</time></trkpt><trkpt lat="31.08417810298518" lon="-6.476770547045462"><ele>1282.6</ele><time>2026-04-24T15:48:55Z</time></trkpt><trkpt lat="31.08421822732616" lon="-6.4766578152521435"><ele>1282.8000000000002</ele><time>2026-04-24T15:48:56Z</time></trkpt><trkpt lat="31.084258696155956" lon="-6.4765447777399405"><ele>1283.0</ele><time>2026-04-24T15:48:57Z</time></trkpt><trkpt lat="31.084298822404424" lon="-6.47643278432671"><ele>1283.0</ele><time>2026-04-24T15:48:58Z</time></trkpt><trkpt lat="31.084340501290523" lon="-6.47631636775605"><ele>1283.0</ele><time>2026-04-24T15:48:59Z</time></trkpt><trkpt lat="31.084386326082708" lon="-6.476188370908322"><ele>1283.0</ele><time>2026-04-24T15:49:00Z</time></trkpt><trkpt lat="31.084436676178104" lon="-6.476047734037193"><ele>1283.0</ele><time>2026-04-24T15:49:01Z</time></trkpt><trkpt lat="31.084486704778893" lon="-6.4759040232565726"><ele>1282.3333333333335</ele><time>2026-04-24T15:49:02Z</time></trkpt><trkpt lat="31.084544554091167" lon="-6.475739813370418"><ele>1281.6666666666667</ele><time>2026-04-24T15:49:03Z</time></trkpt><trkpt lat="31.084605396946923" lon="-6.475567106077927"><ele>1281.0</ele><time>2026-04-24T15:49:04Z</time></trkpt><trkpt lat="31.084668280617013" lon="-6.475386503901127"><ele>1279.6666666666667</ele><time>2026-04-24T15:49:05Z</time></trkpt><trkpt lat="31.084733231105762" lon="-6.475202163729898"><ele>1278.3333333333335</ele><time>2026-04-24T15:49:06Z</time></trkpt><trkpt lat="31.084797496248164" lon="-6.475019237349411"><ele>1277.0</ele><time>2026-04-24T15:49:07Z</time></trkpt><trkpt lat="31.08486210044533" lon="-6.474835339478288"><ele>1277.0</ele><time>2026-04-24T15:49:08Z</time></trkpt><trkpt lat="31.084926399861008" lon="-6.474652116763682"><ele>1277.0</ele><time>2026-04-24T15:49:09Z</time></trkpt><trkpt lat="31.084989992484285" lon="-6.4744709080315195"><ele>1277.0</ele><time>2026-04-24T15:49:10Z</time></trkpt><trkpt lat="31.085048748532525" lon="-6.474303481241163"><ele>1278.4</ele><time>2026-04-24T15:49:11Z</time></trkpt><trkpt lat="31.08509964117116" lon="-6.474158461446853"><ele>1279.8000000000002</ele><time>2026-04-24T15:49:12Z</time></trkpt><trkpt lat="31.0851420784771" lon="-6.474037535328454"><ele>1281.2</ele><time>2026-04-24T15:49:13Z</time></trkpt><trkpt lat="31.085178653700407" lon="-6.473933311441447"><ele>1282.6000000000001</ele><time>2026-04-24T15:49:14Z</time></trkpt><trkpt lat="31.085217573229155" lon="-6.473822434913042"><ele>1284.0</ele><time>2026-04-24T15:49:15Z</time></trkpt><trkpt lat="31.085258329764123" lon="-6.473706395598502"><ele>1285.25</ele><time>2026-04-24T15:49:16Z</time></trkpt><trkpt lat="31.085299442972886" lon="-6.473589340826371"><ele>1286.5</ele><time>2026-04-24T15:49:17Z</time></trkpt><trkpt lat="31.085342101601128" lon="-6.473467805765167"><ele>1287.75</ele><time>2026-04-24T15:49:18Z</time></trkpt><trkpt lat="31.085387905766343" lon="-6.473337255144462"><ele>1289.0</ele><time>2026-04-24T15:49:19Z</time></trkpt><trkpt lat="31.085436856807366" lon="-6.473198202241609"><ele>1289.0</ele><time>2026-04-24T15:49:20Z</time></trkpt><trkpt lat="31.08548638108564" lon="-6.473057789443873"><ele>1289.0</ele><time>2026-04-24T15:49:21Z</time></trkpt><trkpt lat="31.08553564055041" lon="-6.472917527459274"><ele>1289.0</ele><time>2026-04-24T15:49:22Z</time></trkpt><trkpt lat="31.08558484274608" lon="-6.472777146625063"><ele>1289.0</ele><time>2026-04-24T15:49:23Z</time></trkpt><trkpt lat="31.085634345118383" lon="-6.472635909392589"><ele>1290.0</ele><time>2026-04-24T15:49:24Z</time></trkpt><trkpt lat="31.085685807038114" lon="-6.472491905740219"><ele>1291.0</ele><time>2026-04-24T15:49:25Z</time></trkpt><trkpt lat="31.08573809563558" lon="-6.472343271837053"><ele>1292.0</ele><time>2026-04-24T15:49:26Z</time></trkpt><trkpt lat="31.085790142653625" lon="-6.472194466667663"><ele>1293.0</ele><time>2026-04-24T15:49:27Z</time></trkpt><trkpt lat="31.085840688071904" lon="-6.472048541009106"><ele>1293.0</ele><time>2026-04-24T15:49:28Z</time></trkpt><trkpt lat="31.085889893854414" lon="-6.471910663183118"><ele>1293.0</ele><time>2026-04-24T15:49:29Z</time></trkpt><trkpt lat="31.08594003654869" lon="-6.471768454979315"><ele>1293.0</ele><time>2026-04-24T15:49:30Z</time></trkpt><trkpt lat="31.085988108542548" lon="-6.471630886907737"><ele>1293.0</ele><time>2026-04-24T15:49:31Z</time></trkpt><trkpt lat="31.08603559399776" lon="-6.4714949029394875"><ele>1293.0</ele><time>2026-04-24T15:49:32Z</time></trkpt><trkpt lat="31.08608376635801" lon="-6.471357050359322"><ele>1293.0</ele><time>2026-04-24T15:49:33Z</time></trkpt><trkpt lat="31.08613387424352" lon="-6.471217982343175"><ele>1293.0</ele><time>2026-04-24T15:49:34Z</time></trkpt><trkpt lat="31.08618577060655" lon="-6.471072905723023"><ele>1293.0</ele><time>2026-04-24T15:49:35Z</time></trkpt><trkpt lat="31.08623833017969" lon="-6.470925975134857"><ele>1292.75</ele><time>2026-04-24T15:49:36Z</time></trkpt><trkpt lat="31.08629192587626" lon="-6.4707725003434104"><ele>1292.5</ele><time>2026-04-24T15:49:37Z</time></trkpt><trkpt lat="31.086338915389263" lon="-6.47066455232703"><ele>1292.25</ele><time>2026-04-24T15:49:38Z</time></trkpt><trkpt lat="31.086400114770427" lon="-6.470516632248981"><ele>1292.0</ele><time>2026-04-24T15:49:39Z</time></trkpt><trkpt lat="31.08646250241057" lon="-6.4703653090248245"><ele>1292.0</ele><time>2026-04-24T15:49:40Z</time></trkpt><trkpt lat="31.086515051155192" lon="-6.470242005314523"><ele>1292.0</ele><time>2026-04-24T15:49:41Z</time></trkpt><trkpt lat="31.08658879054242" lon="-6.470088286562457"><ele>1292.0</ele><time>2026-04-24T15:49:42Z</time></trkpt><trkpt lat="31.08666355282541" lon="-6.469932617480661"><ele>1292.0</ele><time>2026-04-24T15:49:43Z</time></trkpt><trkpt lat="31.086735582147554" lon="-6.469782825138171"><ele>1292.0</ele><time>2026-04-24T15:49:44Z</time></trkpt><trkpt lat="31.08680667359141" lon="-6.469634466485486"><ele>1292.0</ele><time>2026-04-24T15:49:45Z</time></trkpt><trkpt lat="31.086871715674476" lon="-6.469505407274614"><ele>1292.0</ele><time>2026-04-24T15:49:46Z</time></trkpt><trkpt lat="31.086938648101814" lon="-6.469376249231823"><ele>1292.0</ele><time>2026-04-24T15:49:47Z</time></trkpt><trkpt lat="31.087006695233843" lon="-6.4692449402240655"><ele>1291.0</ele><time>2026-04-24T15:49:48Z</time></trkpt><trkpt lat="31.08707291721093" lon="-6.469116419120162"><ele>1290.0</ele><time>2026-04-24T15:49:49Z</time></trkpt><trkpt lat="31.08713784141096" lon="-6.468990042327875"><ele>1289.0</ele><time>2026-04-24T15:49:50Z</time></trkpt><trkpt lat="31.087235855928157" lon="-6.468884754490778"><ele>1288.0</ele><time>2026-04-24T15:49:51Z</time></trkpt><trkpt lat="31.087342361528176" lon="-6.468781684017324"><ele>1287.75</ele><time>2026-04-24T15:49:52Z</time></trkpt><trkpt lat="31.087407273368996" lon="-6.468656337066986"><ele>1287.5</ele><time>2026-04-24T15:49:53Z</time></trkpt><trkpt lat="31.08747201826315" lon="-6.468530805550594"><ele>1287.25</ele><time>2026-04-24T15:49:54Z</time></trkpt><trkpt lat="31.087538981270757" lon="-6.468401229999755"><ele>1287.0</ele><time>2026-04-24T15:49:55Z</time></trkpt><trkpt lat="31.087608097752803" lon="-6.468266976482175"><ele>1287.0</ele><time>2026-04-24T15:49:56Z</time></trkpt><trkpt lat="31.087681674937013" lon="-6.468123931453399"><ele>1287.0</ele><time>2026-04-24T15:49:57Z</time></trkpt><trkpt lat="31.08775919034068" lon="-6.467974472909916"><ele>1287.0</ele><time>2026-04-24T15:49:58Z</time></trkpt><trkpt lat="31.087837954662323" lon="-6.467820817892247"><ele>1287.0</ele><time>2026-04-24T15:49:59Z</time></trkpt><trkpt lat="31.087900532055613" lon="-6.467679221178568"><ele>1286.3333333333333</ele><time>2026-04-24T15:50:00Z</time></trkpt><trkpt lat="31.08796827228265" lon="-6.467522112517004"><ele>1285.6666666666665</ele><time>2026-04-24T15:50:01Z</time></trkpt><trkpt lat="31.088036771809648" lon="-6.467363242790045"><ele>1285.0</ele><time>2026-04-24T15:50:02Z</time></trkpt><trkpt lat="31.088120252519698" lon="-6.467176628725056"><ele>1285.0</ele><time>2026-04-24T15:50:03Z</time></trkpt><trkpt lat="31.088200149429955" lon="-6.467025336658665"><ele>1285.0</ele><time>2026-04-24T15:50:04Z</time></trkpt><trkpt lat="31.088278521756337" lon="-6.466876931507005"><ele>1285.0</ele><time>2026-04-24T15:50:05Z</time></trkpt><trkpt lat="31.088359342950266" lon="-6.466723889201241"><ele>1286.3333333333333</ele><time>2026-04-24T15:50:06Z</time></trkpt><trkpt lat="31.088456577785315" lon="-6.466544692033699"><ele>1287.6666666666667</ele><time>2026-04-24T15:50:07Z</time></trkpt><trkpt lat="31.088549406996496" lon="-6.466390342054174"><ele>1289.0</ele><time>2026-04-24T15:50:08Z</time></trkpt><trkpt lat="31.088660705237654" lon="-6.466221645404607"><ele>1289.0</ele><time>2026-04-24T15:50:09Z</time></trkpt><trkpt lat="31.08876197961488" lon="-6.46607489444987"><ele>1289.0</ele><time>2026-04-24T15:50:10Z</time></trkpt><trkpt lat="31.088872975259182" lon="-6.465924506598268"><ele>1289.0</ele><time>2026-04-24T15:50:11Z</time></trkpt><trkpt lat="31.088969453405305" lon="-6.465803352428511"><ele>1289.0</ele><time>2026-04-24T15:50:12Z</time></trkpt><trkpt lat="31.08909763811502" lon="-6.465660129066763"><ele>1289.0</ele><time>2026-04-24T15:50:13Z</time></trkpt><trkpt lat="31.08922415462926" lon="-6.465528264541571"><ele>1289.0</ele><time>2026-04-24T15:50:14Z</time></trkpt><trkpt lat="31.089341466334666" lon="-6.465412536619848"><ele>1289.0</ele><time>2026-04-24T15:50:15Z</time></trkpt><trkpt lat="31.089466853852247" lon="-6.465293429956095"><ele>1289.0</ele><time>2026-04-24T15:50:16Z</time></trkpt><trkpt lat="31.089585254438823" lon="-6.465182909469675"><ele>1289.0</ele><time>2026-04-24T15:50:17Z</time></trkpt><trkpt lat="31.089699528937736" lon="-6.465075936753699"><ele>1289.0</ele><time>2026-04-24T15:50:18Z</time></trkpt><trkpt lat="31.089808908243562" lon="-6.464972293696825"><ele>1289.0</ele><time>2026-04-24T15:50:19Z</time></trkpt><trkpt lat="31.089915763424084" lon="-6.464871042378181"><ele>1289.0</ele><time>2026-04-24T15:50:20Z</time></trkpt><trkpt lat="31.09002283242155" lon="-6.464769654195809"><ele>1289.0</ele><time>2026-04-24T15:50:21Z</time></trkpt><trkpt lat="31.090128093859683" lon="-6.464669540472764"><ele>1291.0</ele><time>2026-04-24T15:50:22Z</time></trkpt><trkpt lat="31.090231722168852" lon="-6.464569383399662"><ele>1293.0</ele><time>2026-04-24T15:50:23Z</time></trkpt><trkpt lat="31.09033408458345" lon="-6.464473041724678"><ele>1295.0</ele><time>2026-04-24T15:50:24Z</time></trkpt><trkpt lat="31.09042409751179" lon="-6.464379499288336"><ele>1297.0</ele><time>2026-04-24T15:50:25Z</time></trkpt><trkpt lat="31.09051728460737" lon="-6.464274384421304"><ele>1297.0</ele><time>2026-04-24T15:50:26Z</time></trkpt><trkpt lat="31.090610458982038" lon="-6.464162462439506"><ele>1297.0</ele><time>2026-04-24T15:50:27Z</time></trkpt><trkpt lat="31.09070021300978" lon="-6.4640471703037425"><ele>1297.0</ele><time>2026-04-24T15:50:28Z</time></trkpt><trkpt lat="31.090782320635714" lon="-6.4639321420130536"><ele>1297.0</ele><time>2026-04-24T15:50:29Z</time></trkpt><trkpt lat="31.090862937919983" lon="-6.4638115266312886"><ele>1297.0</ele><time>2026-04-24T15:50:30Z</time></trkpt><trkpt lat="31.090939249533637" lon="-6.463688767246448"><ele>1297.0</ele><time>2026-04-24T15:50:31Z</time></trkpt><trkpt lat="31.09102624967877" lon="-6.463574906874653"><ele>1297.0</ele><time>2026-04-24T15:50:32Z</time></trkpt><trkpt lat="31.091096705038023" lon="-6.463448436119691"><ele>1297.0</ele><time>2026-04-24T15:50:33Z</time></trkpt><trkpt lat="31.091154526364836" lon="-6.463300608469089"><ele>1297.0</ele><time>2026-04-24T15:50:34Z</time></trkpt><trkpt lat="31.09122560852499" lon="-6.4631516180664"><ele>1297.0</ele><time>2026-04-24T15:50:35Z</time></trkpt><trkpt lat="31.09129164999003" lon="-6.462997666930899"><ele>1297.0</ele><time>2026-04-24T15:50:36Z</time></trkpt><trkpt lat="31.09137350284178" lon="-6.462847690737266"><ele>1297.0</ele><time>2026-04-24T15:50:37Z</time></trkpt><trkpt lat="31.09144018482174" lon="-6.462687773739484"><ele>1297.0</ele><time>2026-04-24T15:50:38Z</time></trkpt><trkpt lat="31.091507317194043" lon="-6.4625279622381715"><ele>1297.0</ele><time>2026-04-24T15:50:39Z</time></trkpt><trkpt lat="31.09155980781193" lon="-6.462356769991365"><ele>1297.0</ele><time>2026-04-24T15:50:40Z</time></trkpt><trkpt lat="31.091627347703806" lon="-6.46219195448998"><ele>1299.3333333333333</ele><time>2026-04-24T15:50:41Z</time></trkpt><trkpt lat="31.09169714631995" lon="-6.462024925707194"><ele>1301.6666666666667</ele><time>2026-04-24T15:50:42Z</time></trkpt><trkpt lat="31.091767527212514" lon="-6.4618564711875015"><ele>1304.0</ele><time>2026-04-24T15:50:43Z</time></trkpt><trkpt lat="31.091839045374822" lon="-6.461684840207897"><ele>1304.0</ele><time>2026-04-24T15:50:44Z</time></trkpt><trkpt lat="31.091912598107584" lon="-6.46150832654979"><ele>1304.0</ele><time>2026-04-24T15:50:45Z</time></trkpt><trkpt lat="31.09199002507887" lon="-6.461322515269052"><ele>1304.0</ele><time>2026-04-24T15:50:46Z</time></trkpt><trkpt lat="31.092074550931354" lon="-6.461122480612079"><ele>1303.6666666666667</ele><time>2026-04-24T15:50:47Z</time></trkpt><trkpt lat="31.09216740093164" lon="-6.460901550086082"><ele>1303.3333333333333</ele><time>2026-04-24T15:50:48Z</time></trkpt><trkpt lat="31.092272544105594" lon="-6.460651368707035"><ele>1303.0</ele><time>2026-04-24T15:50:49Z</time></trkpt><trkpt lat="31.092391991552187" lon="-6.460368878729383"><ele>1303.5</ele><time>2026-04-24T15:50:50Z</time></trkpt><trkpt lat="31.092526503133808" lon="-6.46005091250309"><ele>1304.0</ele><time>2026-04-24T15:50:51Z</time></trkpt><trkpt lat="31.09267214215269" lon="-6.459705837969716"><ele>1304.5</ele><time>2026-04-24T15:50:52Z</time></trkpt><trkpt lat="31.092826314357303" lon="-6.459340804174392"><ele>1305.0</ele><time>2026-04-24T15:50:53Z</time></trkpt><trkpt lat="31.092977604346878" lon="-6.4589825945070976"><ele>1307.0</ele><time>2026-04-24T15:50:54Z</time></trkpt><trkpt lat="31.093119124221076" lon="-6.458647663110873"><ele>1309.0</ele><time>2026-04-24T15:50:55Z</time></trkpt><trkpt lat="31.093253402408376" lon="-6.458330158933433"><ele>1309.0</ele><time>2026-04-24T15:50:56Z</time></trkpt><trkpt lat="31.09338144353757" lon="-6.458027402575278"><ele>1309.0</ele><time>2026-04-24T15:50:57Z</time></trkpt><trkpt lat="31.093507737616743" lon="-6.457728777148465"><ele>1309.0</ele><time>2026-04-24T15:50:58Z</time></trkpt><trkpt lat="31.093631981027904" lon="-6.457434793460389"><ele>1309.0</ele><time>2026-04-24T15:50:59Z</time></trkpt><trkpt lat="31.093756078929648" lon="-6.457141084091844"><ele>1310.5</ele><time>2026-04-24T15:51:00Z</time></trkpt><trkpt lat="31.093879805474973" lon="-6.456847806463417"><ele>1312.0</ele><time>2026-04-24T15:51:01Z</time></trkpt><trkpt lat="31.094003338263104" lon="-6.456556241935146"><ele>1311.5</ele><time>2026-04-24T15:51:02Z</time></trkpt><trkpt lat="31.094124908629794" lon="-6.45626760019009"><ele>1311.0</ele><time>2026-04-24T15:51:03Z</time></trkpt><trkpt lat="31.094245295109857" lon="-6.455981843045525"><ele>1311.0</ele><time>2026-04-24T15:51:04Z</time></trkpt><trkpt lat="31.094364568241485" lon="-6.455699032204068"><ele>1311.0</ele><time>2026-04-24T15:51:05Z</time></trkpt><trkpt lat="31.094482120864242" lon="-6.455420093016551"><ele>1313.5</ele><time>2026-04-24T15:51:06Z</time></trkpt><trkpt lat="31.09460031092528" lon="-6.455139630931323"><ele>1316.0</ele><time>2026-04-24T15:51:07Z</time></trkpt><trkpt lat="31.094720068217075" lon="-6.454855449922857"><ele>1316.5</ele><time>2026-04-24T15:51:08Z</time></trkpt><trkpt lat="31.094839308571817" lon="-6.454572495556486"><ele>1317.0</ele><time>2026-04-24T15:51:09Z</time></trkpt><trkpt lat="31.094959753874424" lon="-6.454285394329699"><ele>1317.0</ele><time>2026-04-24T15:51:10Z</time></trkpt><trkpt lat="31.095082446919005" lon="-6.453995983566871"><ele>1317.0</ele><time>2026-04-24T15:51:11Z</time></trkpt><trkpt lat="31.09521744202478" lon="-6.4537155933125545"><ele>1315.0</ele><time>2026-04-24T15:51:12Z</time></trkpt><trkpt lat="31.095340642844807" lon="-6.453424557190385"><ele>1313.0</ele><time>2026-04-24T15:51:13Z</time></trkpt><trkpt lat="31.095466060982368" lon="-6.453127183591731"><ele>1313.5</ele><time>2026-04-24T15:51:14Z</time></trkpt><trkpt lat="31.095591132911164" lon="-6.452829554431958"><ele>1314.0</ele><time>2026-04-24T15:51:15Z</time></trkpt><trkpt lat="31.095710502109092" lon="-6.452543425321547"><ele>1313.5</ele><time>2026-04-24T15:51:16Z</time></trkpt><trkpt lat="31.095823441255117" lon="-6.4522743137179175"><ele>1313.0</ele><time>2026-04-24T15:51:17Z</time></trkpt><trkpt lat="31.095931607085333" lon="-6.452019763878897"><ele>1313.0</ele><time>2026-04-24T15:51:18Z</time></trkpt><trkpt lat="31.096037249740267" lon="-6.451770712939871"><ele>1313.0</ele><time>2026-04-24T15:51:19Z</time></trkpt><trkpt lat="31.096129817567967" lon="-6.451508464212899"><ele>1315.0</ele><time>2026-04-24T15:51:20Z</time></trkpt><trkpt lat="31.09624068189829" lon="-6.451245356741093"><ele>1317.0</ele><time>2026-04-24T15:51:21Z</time></trkpt><trkpt lat="31.096356142196736" lon="-6.45097138524898"><ele>1317.0</ele><time>2026-04-24T15:51:22Z</time></trkpt><trkpt lat="31.09647416498792" lon="-6.450691201980135"><ele>1317.0</ele><time>2026-04-24T15:51:23Z</time></trkpt><trkpt lat="31.09659518550521" lon="-6.450403784547877"><ele>1318.5</ele><time>2026-04-24T15:51:24Z</time></trkpt><trkpt lat="31.096718327031947" lon="-6.4501120825531535"><ele>1320.0</ele><time>2026-04-24T15:51:25Z</time></trkpt><trkpt lat="31.09684372628253" lon="-6.44981468165601"><ele>1320.0</ele><time>2026-04-24T15:51:26Z</time></trkpt><trkpt lat="31.096970949806657" lon="-6.4495117800209725"><ele>1320.0</ele><time>2026-04-24T15:51:27Z</time></trkpt><trkpt lat="31.097103409494643" lon="-6.449203250422785"><ele>1320.0</ele><time>2026-04-24T15:51:28Z</time></trkpt><trkpt lat="31.097237948696574" lon="-6.448891656374382"><ele>1320.0</ele><time>2026-04-24T15:51:29Z</time></trkpt><trkpt lat="31.097384542674043" lon="-6.4485842783911895"><ele>1319.5</ele><time>2026-04-24T15:51:30Z</time></trkpt><trkpt lat="31.097516026128652" lon="-6.448263590244903"><ele>1319.0</ele><time>2026-04-24T15:51:31Z</time></trkpt><trkpt lat="31.097646678934336" lon="-6.447943229616057"><ele>1319.0</ele><time>2026-04-24T15:51:32Z</time></trkpt><trkpt lat="31.09777412293041" lon="-6.447623755584721"><ele>1319.0</ele><time>2026-04-24T15:51:33Z</time></trkpt><trkpt lat="31.097898818951712" lon="-6.447304171487691"><ele>1318.5</ele><time>2026-04-24T15:51:34Z</time></trkpt><trkpt lat="31.09802181558633" lon="-6.446984890327951"><ele>1318.0</ele><time>2026-04-24T15:51:35Z</time></trkpt><trkpt lat="31.09814435095958" lon="-6.446665586525061"><ele>1319.0</ele><time>2026-04-24T15:51:36Z</time></trkpt><trkpt lat="31.09826648210009" lon="-6.446348066057518"><ele>1320.0</ele><time>2026-04-24T15:51:37Z</time></trkpt><trkpt lat="31.098389619494235" lon="-6.446032982491357"><ele>1320.0</ele><time>2026-04-24T15:51:38Z</time></trkpt><trkpt lat="31.09851546304771" lon="-6.445709725842211"><ele>1320.0</ele><time>2026-04-24T15:51:39Z</time></trkpt><trkpt lat="31.098645052479736" lon="-6.44537546564925"><ele>1320.5</ele><time>2026-04-24T15:51:40Z</time></trkpt><trkpt lat="31.098775130391605" lon="-6.445040757332078"><ele>1321.0</ele><time>2026-04-24T15:51:41Z</time></trkpt><trkpt lat="31.09890538924545" lon="-6.4447005423468"><ele>1321.5</ele><time>2026-04-24T15:51:42Z</time></trkpt><trkpt lat="31.099037829127678" lon="-6.4443587233991275"><ele>1322.0</ele><time>2026-04-24T15:51:43Z</time></trkpt><trkpt lat="31.099171392355608" lon="-6.4440182780217485"><ele>1325.5</ele><time>2026-04-24T15:51:44Z</time></trkpt><trkpt lat="31.099305391358214" lon="-6.443681957377003"><ele>1329.0</ele><time>2026-04-24T15:51:45Z</time></trkpt><trkpt lat="31.099438988040582" lon="-6.44334513505225"><ele>1329.0</ele><time>2026-04-24T15:51:46Z</time></trkpt><trkpt lat="31.099571630632433" lon="-6.443003820403136"><ele>1329.0</ele><time>2026-04-24T15:51:47Z</time></trkpt><trkpt lat="31.099701837103197" lon="-6.4426638259569735"><ele>1328.0</ele><time>2026-04-24T15:51:48Z</time></trkpt><trkpt lat="31.099828131268964" lon="-6.442323223729838"><ele>1327.0</ele><time>2026-04-24T15:51:49Z</time></trkpt><trkpt lat="31.099948169032942" lon="-6.441990867259178"><ele>1327.0</ele><time>2026-04-24T15:51:50Z</time></trkpt><trkpt lat="31.100065353714623" lon="-6.441663313559656"><ele>1327.0</ele><time>2026-04-24T15:51:51Z</time></trkpt><trkpt lat="31.100182781670096" lon="-6.441341027771394"><ele>1327.5</ele><time>2026-04-24T15:51:52Z</time></trkpt><trkpt lat="31.10030165160773" lon="-6.44102327632697"><ele>1328.0</ele><time>2026-04-24T15:51:53Z</time></trkpt><trkpt lat="31.10042115528146" lon="-6.44070959457669"><ele>1327.5</ele><time>2026-04-24T15:51:54Z</time></trkpt><trkpt lat="31.10053936424532" lon="-6.440400889466401"><ele>1327.0</ele><time>2026-04-24T15:51:55Z</time></trkpt><trkpt lat="31.10065433853129" lon="-6.440099538540959"><ele>1329.0</ele><time>2026-04-24T15:51:56Z</time></trkpt><trkpt lat="31.10076824766462" lon="-6.439798682826191"><ele>1331.0</ele><time>2026-04-24T15:51:57Z</time></trkpt><trkpt lat="31.100883110148605" lon="-6.439496563530499"><ele>1331.0</ele><time>2026-04-24T15:51:58Z</time></trkpt><trkpt lat="31.100999414751353" lon="-6.439191269270132"><ele>1331.0</ele><time>2026-04-24T15:51:59Z</time></trkpt><trkpt lat="31.10111806589337" lon="-6.438884175026931"><ele>1332.0</ele><time>2026-04-24T15:52:00Z</time></trkpt><trkpt lat="31.101237065733628" lon="-6.4385780689608545"><ele>1333.0</ele><time>2026-04-24T15:52:01Z</time></trkpt><trkpt lat="31.10135453793943" lon="-6.438273279469069"><ele>1333.0</ele><time>2026-04-24T15:52:02Z</time></trkpt><trkpt lat="31.101469938295093" lon="-6.437973796801456"><ele>1333.0</ele><time>2026-04-24T15:52:03Z</time></trkpt><trkpt lat="31.101583992207722" lon="-6.437679834021419"><ele>1334.5</ele><time>2026-04-24T15:52:04Z</time></trkpt><trkpt lat="31.101694289849583" lon="-6.437394434767211"><ele>1336.0</ele><time>2026-04-24T15:52:05Z</time></trkpt><trkpt lat="31.101801453820475" lon="-6.437116498613086"><ele>1337.0</ele><time>2026-04-24T15:52:06Z</time></trkpt><trkpt lat="31.101905224447005" lon="-6.436839660663479"><ele>1338.0</ele><time>2026-04-24T15:52:07Z</time></trkpt><trkpt lat="31.102006077976963" lon="-6.436565207317609"><ele>1337.5</ele><time>2026-04-24T15:52:08Z</time></trkpt><trkpt lat="31.102103573542173" lon="-6.436291407402381"><ele>1337.0</ele><time>2026-04-24T15:52:09Z</time></trkpt><trkpt lat="31.1021944968115" lon="-6.436015558385261"><ele>1337.0</ele><time>2026-04-24T15:52:10Z</time></trkpt><trkpt lat="31.10227748070162" lon="-6.435739342091194"><ele>1337.0</ele><time>2026-04-24T15:52:11Z</time></trkpt><trkpt lat="31.10234918803707" lon="-6.43546342973689"><ele>1338.5</ele><time>2026-04-24T15:52:12Z</time></trkpt><trkpt lat="31.102400855565506" lon="-6.43518418054885"><ele>1340.0</ele><time>2026-04-24T15:52:13Z</time></trkpt><trkpt lat="31.10243422897098" lon="-6.434901453696357"><ele>1340.5</ele><time>2026-04-24T15:52:14Z</time></trkpt><trkpt lat="31.102458078503364" lon="-6.434623885001561"><ele>1341.0</ele><time>2026-04-24T15:52:15Z</time></trkpt><trkpt lat="31.102477499936622" lon="-6.4343574509765356"><ele>1341.0</ele><time>2026-04-24T15:52:16Z</time></trkpt><trkpt lat="31.10249871340005" lon="-6.43410046850464"><ele>1341.0</ele><time>2026-04-24T15:52:17Z</time></trkpt><trkpt lat="31.10252024245644" lon="-6.433853734430666"><ele>1341.0</ele><time>2026-04-24T15:52:18Z</time></trkpt><trkpt lat="31.102543417558522" lon="-6.433620601094575"><ele>1341.0</ele><time>2026-04-24T15:52:19Z</time></trkpt><trkpt lat="31.102570014857022" lon="-6.433384652319795"><ele>1341.0</ele><time>2026-04-24T15:52:20Z</time></trkpt><trkpt lat="31.102603163422522" lon="-6.433146160126009"><ele>1341.0</ele><time>2026-04-24T15:52:21Z</time></trkpt><trkpt lat="31.102647763368754" lon="-6.4329072817580375"><ele>1341.0</ele><time>2026-04-24T15:52:22Z</time></trkpt><trkpt lat="31.102708281816724" lon="-6.43267175213366"><ele>1341.0</ele><time>2026-04-24T15:52:23Z</time></trkpt><trkpt lat="31.102786499975924" lon="-6.4324446343466075"><ele>1341.0</ele><time>2026-04-24T15:52:24Z</time></trkpt><trkpt lat="31.10287996584805" lon="-6.4322300636787535"><ele>1343.6666666666667</ele><time>2026-04-24T15:52:25Z</time></trkpt><trkpt lat="31.102987058935142" lon="-6.4320288279201705"><ele>1346.3333333333335</ele><time>2026-04-24T15:52:26Z</time></trkpt><trkpt lat="31.103106973416608" lon="-6.431839370104999"><ele>1349.0</ele><time>2026-04-24T15:52:27Z</time></trkpt><trkpt lat="31.103240025550615" lon="-6.431662604346789"><ele>1350.3333333333335</ele><time>2026-04-24T15:52:28Z</time></trkpt><trkpt lat="31.103381285836846" lon="-6.431496617714931"><ele>1351.6666666666667</ele><time>2026-04-24T15:52:29Z</time></trkpt><trkpt lat="31.103530012528033" lon="-6.4313444387069145"><ele>1353.0</ele><time>2026-04-24T15:52:30Z</time></trkpt><trkpt lat="31.10368349803343" lon="-6.431204252665569"><ele>1353.3333333333333</ele><time>2026-04-24T15:52:31Z</time></trkpt><trkpt lat="31.103841415184306" lon="-6.431074988918115"><ele>1353.6666666666665</ele><time>2026-04-24T15:52:32Z</time></trkpt><trkpt lat="31.104008217195947" lon="-6.430960136344046"><ele>1354.0</ele><time>2026-04-24T15:52:33Z</time></trkpt><trkpt lat="31.104183626502493" lon="-6.430859361317837"><ele>1354.0</ele><time>2026-04-24T15:52:34Z</time></trkpt><trkpt lat="31.10436578040435" lon="-6.430773999032751"><ele>1354.0</ele><time>2026-04-24T15:52:35Z</time></trkpt><trkpt lat="31.1045535776981" lon="-6.4307051750292175"><ele>1354.0</ele><time>2026-04-24T15:52:36Z</time></trkpt><trkpt lat="31.104728495962917" lon="-6.430594568033047"><ele>1356.0</ele><time>2026-04-24T15:52:37Z</time></trkpt><trkpt lat="31.104915261745422" lon="-6.43051359864345"><ele>1358.0</ele><time>2026-04-24T15:52:38Z</time></trkpt><trkpt lat="31.10510380401502" lon="-6.430426938345815"><ele>1360.0</ele><time>2026-04-24T15:52:39Z</time></trkpt><trkpt lat="31.105289720162343" lon="-6.430325631528288"><ele>1356.6666666666665</ele><time>2026-04-24T15:52:40Z</time></trkpt><trkpt lat="31.105469683448476" lon="-6.4302040150251205"><ele>1353.3333333333333</ele><time>2026-04-24T15:52:41Z</time></trkpt><trkpt lat="31.105644919789167" lon="-6.430066831782037"><ele>1350.0</ele><time>2026-04-24T15:52:42Z</time></trkpt><trkpt lat="31.105809694184504" lon="-6.42991472263063"><ele>1350.0</ele><time>2026-04-24T15:52:43Z</time></trkpt><trkpt lat="31.10596431219719" lon="-6.429747236933421"><ele>1350.0</ele><time>2026-04-24T15:52:44Z</time></trkpt><trkpt lat="31.106104834478007" lon="-6.4295698818361835"><ele>1350.0</ele><time>2026-04-24T15:52:45Z</time></trkpt><trkpt lat="31.106238363944957" lon="-6.429373713292538"><ele>1347.3333333333333</ele><time>2026-04-24T15:52:46Z</time></trkpt><trkpt lat="31.106359550995453" lon="-6.429169968987104"><ele>1344.6666666666665</ele><time>2026-04-24T15:52:47Z</time></trkpt><trkpt lat="31.10646008666024" lon="-6.4289502078098515"><ele>1342.0</ele><time>2026-04-24T15:52:48Z</time></trkpt><trkpt lat="31.106551604897156" lon="-6.428728055828631"><ele>1342.0</ele><time>2026-04-24T15:52:49Z</time></trkpt><trkpt lat="31.106623335222995" lon="-6.428495199117619"><ele>1342.0</ele><time>2026-04-24T15:52:50Z</time></trkpt><trkpt lat="31.106679516462936" lon="-6.4282499521151655"><ele>1342.0</ele><time>2026-04-24T15:52:51Z</time></trkpt><trkpt lat="31.106720042377574" lon="-6.428002828409251"><ele>1340.6666666666665</ele><time>2026-04-24T15:52:52Z</time></trkpt><trkpt lat="31.10674464826945" lon="-6.42774979483076"><ele>1339.3333333333333</ele><time>2026-04-24T15:52:53Z</time></trkpt><trkpt lat="31.106747580970545" lon="-6.427485253921279"><ele>1338.0</ele><time>2026-04-24T15:52:54Z</time></trkpt><trkpt lat="31.10675315724288" lon="-6.427213353475679"><ele>1337.5</ele><time>2026-04-24T15:52:55Z</time></trkpt><trkpt lat="31.10675769346065" lon="-6.426944165837308"><ele>1337.0</ele><time>2026-04-24T15:52:56Z</time></trkpt><trkpt lat="31.106757991111458" lon="-6.426675165359276"><ele>1337.0</ele><time>2026-04-24T15:52:57Z</time></trkpt><trkpt lat="31.106756403775325" lon="-6.4264113918865"><ele>1337.0</ele><time>2026-04-24T15:52:58Z</time></trkpt><trkpt lat="31.106755406181204" lon="-6.4261554235408065"><ele>1337.0</ele><time>2026-04-24T15:52:59Z</time></trkpt><trkpt lat="31.106754741945664" lon="-6.425899451850222"><ele>1336.0</ele><time>2026-04-24T15:53:00Z</time></trkpt><trkpt lat="31.106753762101615" lon="-6.4256465784889585"><ele>1335.0</ele><time>2026-04-24T15:53:01Z</time></trkpt><trkpt lat="31.106755581670463" lon="-6.425397910140275"><ele>1334.0</ele><time>2026-04-24T15:53:02Z</time></trkpt><trkpt lat="31.106758281803202" lon="-6.425154389347304"><ele>1334.0</ele><time>2026-04-24T15:53:03Z</time></trkpt><trkpt lat="31.106760417490225" lon="-6.424911836865498"><ele>1334.0</ele><time>2026-04-24T15:53:04Z</time></trkpt><trkpt lat="31.1067605789393" lon="-6.424669377546174"><ele>1334.0</ele><time>2026-04-24T15:53:05Z</time></trkpt><trkpt lat="31.106761723876833" lon="-6.424429009418875"><ele>1334.0</ele><time>2026-04-24T15:53:06Z</time></trkpt><trkpt lat="31.10676277367714" lon="-6.424187828992045"><ele>1334.0</ele><time>2026-04-24T15:53:07Z</time></trkpt><trkpt lat="31.106763821117738" lon="-6.42394719084757"><ele>1334.0</ele><time>2026-04-24T15:53:08Z</time></trkpt><trkpt lat="31.106760947795557" lon="-6.4237067686894385"><ele>1332.6666666666667</ele><time>2026-04-24T15:53:09Z</time></trkpt><trkpt lat="31.10675941579365" lon="-6.423468502273201"><ele>1331.3333333333333</ele><time>2026-04-24T15:53:10Z</time></trkpt><trkpt lat="31.106758499393532" lon="-6.423231330624819"><ele>1330.0</ele><time>2026-04-24T15:53:11Z</time></trkpt><trkpt lat="31.106756510615565" lon="-6.4229964160926425"><ele>1330.0</ele><time>2026-04-24T15:53:12Z</time></trkpt><trkpt lat="31.106750597736745" lon="-6.4227624709772835"><ele>1330.0</ele><time>2026-04-24T15:53:13Z</time></trkpt><trkpt lat="31.10675215455794" lon="-6.422525488270234"><ele>1330.0</ele><time>2026-04-24T15:53:14Z</time></trkpt><trkpt lat="31.106757726145666" lon="-6.4222937876604105"><ele>1331.0</ele><time>2026-04-24T15:53:15Z</time></trkpt><trkpt lat="31.106766638790607" lon="-6.422066515195142"><ele>1332.0</ele><time>2026-04-24T15:53:16Z</time></trkpt><trkpt lat="31.106777026968278" lon="-6.421833291306048"><ele>1333.0</ele><time>2026-04-24T15:53:17Z</time></trkpt><trkpt lat="31.10679531801037" lon="-6.421592214476184"><ele>1333.0</ele><time>2026-04-24T15:53:18Z</time></trkpt><trkpt lat="31.10683809646166" lon="-6.421348718775859"><ele>1333.0</ele><time>2026-04-24T15:53:19Z</time></trkpt><trkpt lat="31.106897121149473" lon="-6.421110022380367"><ele>1333.0</ele><time>2026-04-24T15:53:20Z</time></trkpt><trkpt lat="31.10695670890264" lon="-6.4208697481539785"><ele>1333.0</ele><time>2026-04-24T15:53:21Z</time></trkpt><trkpt lat="31.107019750378843" lon="-6.420633691814358"><ele>1333.0</ele><time>2026-04-24T15:53:22Z</time></trkpt><trkpt lat="31.107082953758972" lon="-6.420402599741647"><ele>1333.0</ele><time>2026-04-24T15:53:23Z</time></trkpt><trkpt lat="31.107145166054984" lon="-6.420170176055467"><ele>1333.6666666666665</ele><time>2026-04-24T15:53:24Z</time></trkpt><trkpt lat="31.107210090832037" lon="-6.419936380673899"><ele>1334.3333333333333</ele><time>2026-04-24T15:53:25Z</time></trkpt><trkpt lat="31.10727586371525" lon="-6.419705009933633"><ele>1335.0</ele><time>2026-04-24T15:53:26Z</time></trkpt><trkpt lat="31.107340522666494" lon="-6.419476447211076"><ele>1335.3333333333333</ele><time>2026-04-24T15:53:27Z</time></trkpt><trkpt lat="31.10740435344124" lon="-6.419250812054874"><ele>1335.6666666666665</ele><time>2026-04-24T15:53:28Z</time></trkpt><trkpt lat="31.10746492357999" lon="-6.419028951324289"><ele>1336.0</ele><time>2026-04-24T15:53:29Z</time></trkpt><trkpt lat="31.107524265440883" lon="-6.418809386949199"><ele>1337.3333333333333</ele><time>2026-04-24T15:53:30Z</time></trkpt><trkpt lat="31.10758272838182" lon="-6.41859202019746"><ele>1338.6666666666667</ele><time>2026-04-24T15:53:31Z</time></trkpt><trkpt lat="31.10764041702539" lon="-6.41837667360788"><ele>1340.0</ele><time>2026-04-24T15:53:32Z</time></trkpt><trkpt lat="31.1076960283597" lon="-6.418169081772961"><ele>1340.6666666666667</ele><time>2026-04-24T15:53:33Z</time></trkpt><trkpt lat="31.107749252076967" lon="-6.417972204783551"><ele>1341.3333333333333</ele><time>2026-04-24T15:53:34Z</time></trkpt><trkpt lat="31.10780227849452" lon="-6.4177774196002675"><ele>1342.0</ele><time>2026-04-24T15:53:35Z</time></trkpt><trkpt lat="31.107854281533786" lon="-6.417589734530307"><ele>1342.0</ele><time>2026-04-24T15:53:36Z</time></trkpt><trkpt lat="31.107906512893216" lon="-6.417414083995701"><ele>1342.0</ele><time>2026-04-24T15:53:37Z</time></trkpt><trkpt lat="31.107961805875103" lon="-6.41724382750553"><ele>1342.0</ele><time>2026-04-24T15:53:38Z</time></trkpt><trkpt lat="31.108021905610315" lon="-6.417081500789017"><ele>1343.3333333333333</ele><time>2026-04-24T15:53:39Z</time></trkpt><trkpt lat="31.108093047758565" lon="-6.4169237402436075"><ele>1344.6666666666667</ele><time>2026-04-24T15:53:40Z</time></trkpt><trkpt lat="31.108190356694692" lon="-6.416778977877913"><ele>1346.0</ele><time>2026-04-24T15:53:41Z</time></trkpt><trkpt lat="31.108305787436368" lon="-6.416652401916876"><ele>1347.0</ele><time>2026-04-24T15:53:42Z</time></trkpt><trkpt lat="31.10843887630445" lon="-6.41653753578865"><ele>1348.0</ele><time>2026-04-24T15:53:43Z</time></trkpt><trkpt lat="31.108609269164376" lon="-6.416427226030489"><ele>1349.0</ele><time>2026-04-24T15:53:44Z</time></trkpt><trkpt lat="31.10881121096666" lon="-6.416304643903514"><ele>1355.5</ele><time>2026-04-24T15:53:45Z</time></trkpt><trkpt lat="31.109043949726622" lon="-6.416178611602393"><ele>1362.0</ele><time>2026-04-24T15:53:46Z</time></trkpt><trkpt lat="31.109296761943025" lon="-6.416054114340508"><ele>1364.5</ele><time>2026-04-24T15:53:47Z</time></trkpt><trkpt lat="31.10956001134117" lon="-6.415942147892736"><ele>1367.0</ele><time>2026-04-24T15:53:48Z</time></trkpt><trkpt lat="31.109810939109327" lon="-6.41583542173996"><ele>1367.0</ele><time>2026-04-24T15:53:49Z</time></trkpt><trkpt lat="31.110051165487995" lon="-6.415739363470739"><ele>1367.0</ele><time>2026-04-24T15:53:50Z</time></trkpt><trkpt lat="31.110311704776382" lon="-6.415750872618129"><ele>1367.0</ele><time>2026-04-24T15:53:51.001Z</time></trkpt><trkpt lat="31.110516930682564" lon="-6.415645756876407"><ele>1367.0</ele><time>2026-04-24T15:53:52.001Z</time></trkpt><trkpt lat="31.110716912081386" lon="-6.415554651945379"><ele>1367.0</ele><time>2026-04-24T15:53:53.001Z</time></trkpt><trkpt lat="31.110921361943085" lon="-6.415518610822514"><ele>1366.6666666666667</ele><time>2026-04-24T15:53:54.001Z</time></trkpt><trkpt lat="31.111137367764506" lon="-6.4155412542366985"><ele>1366.3333333333333</ele><time>2026-04-24T15:53:55.001Z</time></trkpt><trkpt lat="31.111344393766963" lon="-6.415597591308313"><ele>1366.0</ele><time>2026-04-24T15:53:56.001Z</time></trkpt><trkpt lat="31.111525217248683" lon="-6.415640229363167"><ele>1369.0</ele><time>2026-04-24T15:53:57.001Z</time></trkpt><trkpt lat="31.11170012948604" lon="-6.41564641992753"><ele>1372.0</ele><time>2026-04-24T15:53:58.001Z</time></trkpt><trkpt lat="31.111850832800894" lon="-6.415629283391445"><ele>1375.0</ele><time>2026-04-24T15:53:59.001Z</time></trkpt><trkpt lat="31.111992408657912" lon="-6.415590943516862"><ele>1375.0</ele><time>2026-04-24T15:54:00.001Z</time></trkpt><trkpt lat="31.11212530996802" lon="-6.415534611043543"><ele>1375.0</ele><time>2026-04-24T15:54:01.001Z</time></trkpt><trkpt lat="31.112248142096345" lon="-6.415461519563664"><ele>1375.0</ele><time>2026-04-24T15:54:02.001Z</time></trkpt><trkpt lat="31.1123673171822" lon="-6.415383596939272"><ele>1375.0</ele><time>2026-04-24T15:54:03.001Z</time></trkpt><trkpt lat="31.112482197663216" lon="-6.4152924673391585"><ele>1379.0</ele><time>2026-04-24T15:54:04.001Z</time></trkpt><trkpt lat="31.112585600643737" lon="-6.415171865370515"><ele>1383.0</ele><time>2026-04-24T15:54:05.001Z</time></trkpt><trkpt lat="31.11267893683332" lon="-6.415019058092874"><ele>1387.0</ele><time>2026-04-24T15:54:06.001Z</time></trkpt><trkpt lat="31.11276683873569" lon="-6.4148505885432225"><ele>1387.0</ele><time>2026-04-24T15:54:07.001Z</time></trkpt><trkpt lat="31.112841987080756" lon="-6.414666782851035"><ele>1387.0</ele><time>2026-04-24T15:54:08.001Z</time></trkpt><trkpt lat="31.11289321353061" lon="-6.414461326962927"><ele>1387.0</ele><time>2026-04-24T15:54:09.001Z</time></trkpt><trkpt lat="31.112920140726892" lon="-6.414237152103354"><ele>1384.6666666666665</ele><time>2026-04-24T15:54:10.001Z</time></trkpt><trkpt lat="31.112937627197496" lon="-6.413994830631171"><ele>1382.3333333333333</ele><time>2026-04-24T15:54:11.001Z</time></trkpt><trkpt lat="31.112959488174063" lon="-6.413740437411251"><ele>1380.0</ele><time>2026-04-24T15:54:12.001Z</time></trkpt><trkpt lat="31.112988956193504" lon="-6.413480334275448"><ele>1380.0</ele><time>2026-04-24T15:54:13.001Z</time></trkpt><trkpt lat="31.113019387746753" lon="-6.413212702780741"><ele>1380.0</ele><time>2026-04-24T15:54:14.001Z</time></trkpt><trkpt lat="31.11304358244362" lon="-6.41292840543252"><ele>1380.5</ele><time>2026-04-24T15:54:15.001Z</time></trkpt><trkpt lat="31.11306708421722" lon="-6.412632410175176"><ele>1381.0</ele><time>2026-04-24T15:54:16.001Z</time></trkpt><trkpt lat="31.113092912169417" lon="-6.412326525889753"><ele>1379.0</ele><time>2026-04-24T15:54:17Z</time></trkpt><trkpt lat="31.11312381053709" lon="-6.4120159342880685"><ele>1377.0</ele><time>2026-04-24T15:54:18Z</time></trkpt><trkpt lat="31.11315511327123" lon="-6.411701041149748"><ele>1377.0</ele><time>2026-04-24T15:54:19Z</time></trkpt><trkpt lat="31.113185659688188" lon="-6.411371754606724"><ele>1377.0</ele><time>2026-04-24T15:54:20Z</time></trkpt><trkpt lat="31.11321500430471" lon="-6.411038665486145"><ele>1377.0</ele><time>2026-04-24T15:54:21Z</time></trkpt><trkpt lat="31.11324630416469" lon="-6.410699326028521"><ele>1377.0</ele><time>2026-04-24T15:54:22Z</time></trkpt><trkpt lat="31.113280581626857" lon="-6.410363128748221"><ele>1376.0</ele><time>2026-04-24T15:54:23Z</time></trkpt><trkpt lat="31.113315918264103" lon="-6.410031174450643"><ele>1375.0</ele><time>2026-04-24T15:54:24Z</time></trkpt><trkpt lat="31.113349959640658" lon="-6.409705982858919"><ele>1374.5</ele><time>2026-04-24T15:54:25Z</time></trkpt><trkpt lat="31.11337870970627" lon="-6.40938435624247"><ele>1374.0</ele><time>2026-04-24T15:54:26Z</time></trkpt><trkpt lat="31.11339947270728" lon="-6.409061219107812"><ele>1374.0</ele><time>2026-04-24T15:54:27Z</time></trkpt><trkpt lat="31.1134032458644" lon="-6.408735776060386"><ele>1374.0</ele><time>2026-04-24T15:54:28Z</time></trkpt><trkpt lat="31.113386118409757" lon="-6.4084169520366085"><ele>1374.0</ele><time>2026-04-24T15:54:29Z</time></trkpt><trkpt lat="31.11334886013405" lon="-6.408108847807444"><ele>1374.0</ele><time>2026-04-24T15:54:30Z</time></trkpt><trkpt lat="31.113296339229702" lon="-6.407805014643762"><ele>1373.5</ele><time>2026-04-24T15:54:31Z</time></trkpt><trkpt lat="31.113242577018063" lon="-6.407507053592569"><ele>1373.0</ele><time>2026-04-24T15:54:32Z</time></trkpt><trkpt lat="31.113190799864533" lon="-6.40721950518671"><ele>1372.5</ele><time>2026-04-24T15:54:33Z</time></trkpt><trkpt lat="31.113140705914198" lon="-6.406945558537606"><ele>1372.0</ele><time>2026-04-24T15:54:34Z</time></trkpt><trkpt lat="31.11309009597992" lon="-6.406679380438353"><ele>1372.0</ele><time>2026-04-24T15:54:35Z</time></trkpt><trkpt lat="31.113037737834837" lon="-6.406420249489109"><ele>1372.0</ele><time>2026-04-24T15:54:36Z</time></trkpt><trkpt lat="31.11297978874025" lon="-6.406168194766161"><ele>1370.0</ele><time>2026-04-24T15:54:37Z</time></trkpt><trkpt lat="31.112915581782715" lon="-6.405919677422816"><ele>1368.0</ele><time>2026-04-24T15:54:38Z</time></trkpt><trkpt lat="31.112849147987657" lon="-6.405676052627267"><ele>1366.0</ele><time>2026-04-24T15:54:39Z</time></trkpt><trkpt lat="31.112787442693254" lon="-6.405432478015006"><ele>1363.6666666666665</ele><time>2026-04-24T15:54:40Z</time></trkpt><trkpt lat="31.112694294423253" lon="-6.405198641712308"><ele>1361.3333333333333</ele><time>2026-04-24T15:54:41Z</time></trkpt><trkpt lat="31.112680427595354" lon="-6.40495913279332"><ele>1359.0</ele><time>2026-04-24T15:54:42Z</time></trkpt><trkpt lat="31.112673845755214" lon="-6.4047276712409085"><ele>1356.3333333333333</ele><time>2026-04-24T15:54:43Z</time></trkpt><trkpt lat="31.112656477368702" lon="-6.404501747242421"><ele>1353.6666666666665</ele><time>2026-04-24T15:54:44Z</time></trkpt><trkpt lat="31.112614857589104" lon="-6.4042892876272575"><ele>1351.0</ele><time>2026-04-24T15:54:45Z</time></trkpt><trkpt lat="31.11254374928172" lon="-6.404074199071249"><ele>1351.0</ele><time>2026-04-24T15:54:46Z</time></trkpt><trkpt lat="31.112443714978063" lon="-6.4038582150526455"><ele>1351.0</ele><time>2026-04-24T15:54:47Z</time></trkpt><trkpt lat="31.112329446313332" lon="-6.403636586546837"><ele>1351.0</ele><time>2026-04-24T15:54:48Z</time></trkpt><trkpt lat="31.112224158187633" lon="-6.40340430594493"><ele>1351.0</ele><time>2026-04-24T15:54:49Z</time></trkpt><trkpt lat="31.112144545107537" lon="-6.403141143102375"><ele>1351.0</ele><time>2026-04-24T15:54:50Z</time></trkpt><trkpt lat="31.11211540439218" lon="-6.402856755587504"><ele>1351.0</ele><time>2026-04-24T15:54:51Z</time></trkpt><trkpt lat="31.11209516444408" lon="-6.402574084108882"><ele>1351.0</ele><time>2026-04-24T15:54:52Z</time></trkpt><trkpt lat="31.11206793272563" lon="-6.402292441156775"><ele>1345.0</ele><time>2026-04-24T15:54:53Z</time></trkpt><trkpt lat="31.112037654466018" lon="-6.40201765802565"><ele>1339.0</ele><time>2026-04-24T15:54:54Z</time></trkpt><trkpt lat="31.112006971748663" lon="-6.4017453968647455"><ele>1339.0</ele><time>2026-04-24T15:54:55Z</time></trkpt><trkpt lat="31.111977922292677" lon="-6.401479370018031"><ele>1339.0</ele><time>2026-04-24T15:54:56Z</time></trkpt><trkpt lat="31.111951883948787" lon="-6.401224407862527"><ele>1339.0</ele><time>2026-04-24T15:54:57Z</time></trkpt><trkpt lat="31.1119296517951" lon="-6.400984896591073"><ele>1337.0</ele><time>2026-04-24T15:54:58Z</time></trkpt><trkpt lat="31.111903407688363" lon="-6.400776656325246"><ele>1335.0</ele><time>2026-04-24T15:54:59Z</time></trkpt><trkpt lat="31.111872084887366" lon="-6.400598967988589"><ele>1333.0</ele><time>2026-04-24T15:55:00Z</time></trkpt><trkpt lat="31.11183020880272" lon="-6.400433307339971"><ele>1330.0</ele><time>2026-04-24T15:55:01Z</time></trkpt><trkpt lat="31.11176523039271" lon="-6.400257373754931"><ele>1327.0</ele><time>2026-04-24T15:55:02Z</time></trkpt><trkpt lat="31.111674188176835" lon="-6.400087311762086"><ele>1324.0</ele><time>2026-04-24T15:55:03Z</time></trkpt><trkpt lat="31.111539572602414" lon="-6.39994070411459"><ele>1324.0</ele><time>2026-04-24T15:55:04Z</time></trkpt><trkpt lat="31.11139108312353" lon="-6.399795471338766"><ele>1324.0</ele><time>2026-04-24T15:55:05Z</time></trkpt><trkpt lat="31.111248335676105" lon="-6.399639265893533"><ele>1324.0</ele><time>2026-04-24T15:55:06Z</time></trkpt><trkpt lat="31.111102572961396" lon="-6.399494425036117"><ele>1319.3333333333333</ele><time>2026-04-24T15:55:07Z</time></trkpt><trkpt lat="31.110972526811988" lon="-6.3993473388966535"><ele>1314.6666666666667</ele><time>2026-04-24T15:55:08Z</time></trkpt><trkpt lat="31.110860978367388" lon="-6.399191328709864"><ele>1310.0</ele><time>2026-04-24T15:55:09Z</time></trkpt><trkpt lat="31.110773358085268" lon="-6.39900720962853"><ele>1313.0</ele><time>2026-04-24T15:55:10Z</time></trkpt><trkpt lat="31.110708317761233" lon="-6.39879134375794"><ele>1316.0</ele><time>2026-04-24T15:55:11Z</time></trkpt><trkpt lat="31.110654543829348" lon="-6.398546171947599"><ele>1319.0</ele><time>2026-04-24T15:55:12Z</time></trkpt><trkpt lat="31.110653431392755" lon="-6.398269116753993"><ele>1311.5</ele><time>2026-04-24T15:55:13Z</time></trkpt><trkpt lat="31.110670184284213" lon="-6.397979327806537"><ele>1304.0</ele><time>2026-04-24T15:55:14Z</time></trkpt><trkpt lat="31.110703663423436" lon="-6.397677035093268"><ele>1304.0</ele><time>2026-04-24T15:55:15Z</time></trkpt><trkpt lat="31.110740779072167" lon="-6.397364778070993"><ele>1304.0</ele><time>2026-04-24T15:55:16Z</time></trkpt><trkpt lat="31.11077952404322" lon="-6.397040558500467"><ele>1304.0</ele><time>2026-04-24T15:55:17Z</time></trkpt><trkpt lat="31.110821655842592" lon="-6.396693144461493"><ele>1304.0</ele><time>2026-04-24T15:55:18Z</time></trkpt><trkpt lat="31.110864078834314" lon="-6.396320837496117"><ele>1303.0</ele><time>2026-04-24T15:55:19Z</time></trkpt><trkpt lat="31.110904469090826" lon="-6.395932584520653"><ele>1302.0</ele><time>2026-04-24T15:55:20Z</time></trkpt><trkpt lat="31.11094364900412" lon="-6.3955353061613405"><ele>1303.5</ele><time>2026-04-24T15:55:21Z</time></trkpt><trkpt lat="31.110992885980515" lon="-6.395148701569719"><ele>1305.0</ele><time>2026-04-24T15:55:22Z</time></trkpt><trkpt lat="31.111040575816197" lon="-6.3947857916393565"><ele>1307.5</ele><time>2026-04-24T15:55:23Z</time></trkpt><trkpt lat="31.111083290798373" lon="-6.394437413914498"><ele>1310.0</ele><time>2026-04-24T15:55:24Z</time></trkpt><trkpt lat="31.11112225443967" lon="-6.394098019594576"><ele>1308.0</ele><time>2026-04-24T15:55:25Z</time></trkpt><trkpt lat="31.11116165560518" lon="-6.393764819680247"><ele>1306.0</ele><time>2026-04-24T15:55:26Z</time></trkpt><trkpt lat="31.111201597313883" lon="-6.393427047877062"><ele>1306.0</ele><time>2026-04-24T15:55:27Z</time></trkpt><trkpt lat="31.111244105187733" lon="-6.393084033050088"><ele>1306.0</ele><time>2026-04-24T15:55:28Z</time></trkpt><trkpt lat="31.111319871370387" lon="-6.392739769656427"><ele>1306.0</ele><time>2026-04-24T15:55:29Z</time></trkpt><trkpt lat="31.111359274954975" lon="-6.392386886057038"><ele>1306.0</ele><time>2026-04-24T15:55:30Z</time></trkpt><trkpt lat="31.111397348293423" lon="-6.392032169077352"><ele>1305.5</ele><time>2026-04-24T15:55:31Z</time></trkpt><trkpt lat="31.111435963180814" lon="-6.391680133273131"><ele>1305.0</ele><time>2026-04-24T15:55:32Z</time></trkpt><trkpt lat="31.11147539796315" lon="-6.391336471482621"><ele>1304.5</ele><time>2026-04-24T15:55:33Z</time></trkpt><trkpt lat="31.111509492774466" lon="-6.3910088817521995"><ele>1304.0</ele><time>2026-04-24T15:55:34Z</time></trkpt><trkpt lat="31.111537162970496" lon="-6.390699188107709"><ele>1304.5</ele><time>2026-04-24T15:55:35Z</time></trkpt><trkpt lat="31.11155446648056" lon="-6.39040013353216"><ele>1305.0</ele><time>2026-04-24T15:55:36Z</time></trkpt><trkpt lat="31.11154543847133" lon="-6.3901040527512265"><ele>1305.0</ele><time>2026-04-24T15:55:37Z</time></trkpt><trkpt lat="31.11150435693622" lon="-6.389803481358968"><ele>1305.0</ele><time>2026-04-24T15:55:38Z</time></trkpt><trkpt lat="31.11143402096569" lon="-6.389500575427"><ele>1306.0</ele><time>2026-04-24T15:55:39Z</time></trkpt><trkpt lat="31.111339506947676" lon="-6.38920048032863"><ele>1307.0</ele><time>2026-04-24T15:55:40Z</time></trkpt><trkpt lat="31.11122441411739" lon="-6.388896846881507"><ele>1307.5</ele><time>2026-04-24T15:55:41Z</time></trkpt><trkpt lat="31.111093380205894" lon="-6.388593856024228"><ele>1308.0</ele><time>2026-04-24T15:55:42Z</time></trkpt><trkpt lat="31.11095574180215" lon="-6.3882903290066055"><ele>1307.0</ele><time>2026-04-24T15:55:43Z</time></trkpt><trkpt lat="31.110821890929785" lon="-6.387984497531558"><ele>1306.0</ele><time>2026-04-24T15:55:44Z</time></trkpt><trkpt lat="31.110692360011978" lon="-6.387681070566644"><ele>1305.5</ele><time>2026-04-24T15:55:45Z</time></trkpt><trkpt lat="31.11056378026853" lon="-6.387388865677813"><ele>1305.0</ele><time>2026-04-24T15:55:46Z</time></trkpt><trkpt lat="31.11043824816176" lon="-6.387106704516823"><ele>1305.0</ele><time>2026-04-24T15:55:47Z</time></trkpt><trkpt lat="31.11031941236429" lon="-6.386829390080915"><ele>1305.0</ele><time>2026-04-24T15:55:48Z</time></trkpt><trkpt lat="31.110200439786475" lon="-6.386549298191679"><ele>1306.5</ele><time>2026-04-24T15:55:49Z</time></trkpt><trkpt lat="31.11007911047037" lon="-6.38627021495578"><ele>1308.0</ele><time>2026-04-24T15:55:50Z</time></trkpt><trkpt lat="31.109960884554184" lon="-6.385994456658103"><ele>1307.5</ele><time>2026-04-24T15:55:51Z</time></trkpt><trkpt lat="31.10984320529052" lon="-6.385719866329431"><ele>1307.0</ele><time>2026-04-24T15:55:52Z</time></trkpt><trkpt lat="31.109729370036803" lon="-6.385451743998897"><ele>1307.0</ele><time>2026-04-24T15:55:53Z</time></trkpt><trkpt lat="31.10961954125649" lon="-6.385189839689775"><ele>1307.0</ele><time>2026-04-24T15:55:54Z</time></trkpt><trkpt lat="31.10951141064175" lon="-6.384931256973141"><ele>1307.5</ele><time>2026-04-24T15:55:55Z</time></trkpt><trkpt lat="31.109402484128132" lon="-6.384673740239627"><ele>1308.0</ele><time>2026-04-24T15:55:56Z</time></trkpt><trkpt lat="31.10929000940448" lon="-6.384410241455411"><ele>1308.0</ele><time>2026-04-24T15:55:57Z</time></trkpt><trkpt lat="31.109176745973063" lon="-6.384148690209944"><ele>1308.0</ele><time>2026-04-24T15:55:58Z</time></trkpt><trkpt lat="31.109070090809865" lon="-6.3839061411892795"><ele>1306.3333333333333</ele><time>2026-04-24T15:55:59Z</time></trkpt><trkpt lat="31.108970611473843" lon="-6.383676182320564"><ele>1304.6666666666665</ele><time>2026-04-24T15:56:00Z</time></trkpt><trkpt lat="31.108876424597046" lon="-6.383454090029276"><ele>1303.0</ele><time>2026-04-24T15:56:01Z</time></trkpt><trkpt lat="31.108787940610014" lon="-6.383248436589696"><ele>1303.0</ele><time>2026-04-24T15:56:02Z</time></trkpt><trkpt lat="31.108709255410954" lon="-6.383061063761693"><ele>1303.0</ele><time>2026-04-24T15:56:03Z</time></trkpt><trkpt lat="31.108635334583134" lon="-6.382880050900233"><ele>1303.0</ele><time>2026-04-24T15:56:04Z</time></trkpt><trkpt lat="31.108555784403347" lon="-6.382688101755733"><ele>1303.3333333333333</ele><time>2026-04-24T15:56:05Z</time></trkpt><trkpt lat="31.108460934261522" lon="-6.382472114504445"><ele>1303.6666666666667</ele><time>2026-04-24T15:56:06Z</time></trkpt><trkpt lat="31.10835253509721" lon="-6.382231295104189"><ele>1304.0</ele><time>2026-04-24T15:56:07Z</time></trkpt><trkpt lat="31.108234468830247" lon="-6.381960828619216"><ele>1302.0</ele><time>2026-04-24T15:56:08Z</time></trkpt><trkpt lat="31.108113349602466" lon="-6.381681807831804"><ele>1300.0</ele><time>2026-04-24T15:56:09Z</time></trkpt><trkpt lat="31.10799503413764" lon="-6.381412110348976"><ele>1301.5</ele><time>2026-04-24T15:56:10Z</time></trkpt><trkpt lat="31.1078797324477" lon="-6.381146739925306"><ele>1303.0</ele><time>2026-04-24T15:56:11Z</time></trkpt><trkpt lat="31.10777116039196" lon="-6.380883900743061"><ele>1303.0</ele><time>2026-04-24T15:56:12Z</time></trkpt><trkpt lat="31.107672042955464" lon="-6.380613583284403"><ele>1303.0</ele><time>2026-04-24T15:56:13Z</time></trkpt><trkpt lat="31.10758538827789" lon="-6.380329372155752"><ele>1305.0</ele><time>2026-04-24T15:56:14Z</time></trkpt><trkpt lat="31.107527729276516" lon="-6.380050353251943"><ele>1307.0</ele><time>2026-04-24T15:56:15Z</time></trkpt><trkpt lat="31.107495841728507" lon="-6.379768244937779"><ele>1306.5</ele><time>2026-04-24T15:56:16Z</time></trkpt><trkpt lat="31.107481190225727" lon="-6.379478739096639"><ele>1306.0</ele><time>2026-04-24T15:56:17Z</time></trkpt><trkpt lat="31.107489618222175" lon="-6.379186513111474"><ele>1306.0</ele><time>2026-04-24T15:56:18Z</time></trkpt><trkpt lat="31.10752100801085" lon="-6.378893862814839"><ele>1306.0</ele><time>2026-04-24T15:56:19Z</time></trkpt><trkpt lat="31.107579972485127" lon="-6.378597944357338"><ele>1303.5</ele><time>2026-04-24T15:56:20Z</time></trkpt><trkpt lat="31.107652074111723" lon="-6.378297500746726"><ele>1301.0</ele><time>2026-04-24T15:56:21Z</time></trkpt><trkpt lat="31.107726597702776" lon="-6.377991257738557"><ele>1300.0</ele><time>2026-04-24T15:56:22Z</time></trkpt><trkpt lat="31.10780182834868" lon="-6.37768753167679"><ele>1299.0</ele><time>2026-04-24T15:56:23Z</time></trkpt><trkpt lat="31.10787903254487" lon="-6.377393435100294"><ele>1297.5</ele><time>2026-04-24T15:56:24Z</time></trkpt><trkpt lat="31.107963192267917" lon="-6.377113618125992"><ele>1296.0</ele><time>2026-04-24T15:56:25Z</time></trkpt><trkpt lat="31.108066962936146" lon="-6.376850209642464"><ele>1296.0</ele><time>2026-04-24T15:56:26Z</time></trkpt><trkpt lat="31.108193553071676" lon="-6.376599915014631"><ele>1296.0</ele><time>2026-04-24T15:56:27Z</time></trkpt><trkpt lat="31.108341731071274" lon="-6.3763616505107565"><ele>1296.5</ele><time>2026-04-24T15:56:28Z</time></trkpt><trkpt lat="31.108501643204278" lon="-6.376136264743861"><ele>1297.0</ele><time>2026-04-24T15:56:29Z</time></trkpt><trkpt lat="31.10867611692343" lon="-6.375930167541215"><ele>1297.0</ele><time>2026-04-24T15:56:30Z</time></trkpt><trkpt lat="31.1088681173256" lon="-6.375747493911816"><ele>1297.0</ele><time>2026-04-24T15:56:31Z</time></trkpt><trkpt lat="31.109074954405735" lon="-6.375593133488137"><ele>1298.5</ele><time>2026-04-24T15:56:32Z</time></trkpt><trkpt lat="31.109290882934843" lon="-6.375463016198818"><ele>1300.0</ele><time>2026-04-24T15:56:33Z</time></trkpt><trkpt lat="31.109507687442388" lon="-6.375340235081777"><ele>1300.0</ele><time>2026-04-24T15:56:34Z</time></trkpt><trkpt lat="31.109723737441975" lon="-6.375195805714559"><ele>1300.0</ele><time>2026-04-24T15:56:35Z</time></trkpt><trkpt lat="31.109949282695666" lon="-6.37507144445654"><ele>1300.0</ele><time>2026-04-24T15:56:36Z</time></trkpt><trkpt lat="31.11018046727999" lon="-6.374944177091527"><ele>1300.0</ele><time>2026-04-24T15:56:37Z</time></trkpt><trkpt lat="31.110416141450294" lon="-6.374814522980838"><ele>1298.5</ele><time>2026-04-24T15:56:38Z</time></trkpt><trkpt lat="31.11065671342995" lon="-6.374682174333284"><ele>1297.0</ele><time>2026-04-24T15:56:39Z</time></trkpt><trkpt lat="31.110907147628346" lon="-6.374545234013105"><ele>1296.0</ele><time>2026-04-24T15:56:40Z</time></trkpt><trkpt lat="31.11116894365144" lon="-6.374420550973501"><ele>1295.0</ele><time>2026-04-24T15:56:41Z</time></trkpt><trkpt lat="31.11142332952766" lon="-6.37427975953008"><ele>1295.5</ele><time>2026-04-24T15:56:42Z</time></trkpt><trkpt lat="31.111678759833506" lon="-6.374138576662698"><ele>1296.0</ele><time>2026-04-24T15:56:43Z</time></trkpt><trkpt lat="31.11193396177958" lon="-6.373994403846115"><ele>1296.5</ele><time>2026-04-24T15:56:44Z</time></trkpt><trkpt lat="31.11218833645951" lon="-6.373850457213991"><ele>1297.0</ele><time>2026-04-24T15:56:45Z</time></trkpt><trkpt lat="31.112442408267636" lon="-6.373709257977913"><ele>1295.0</ele><time>2026-04-24T15:56:46Z</time></trkpt><trkpt lat="31.112702534288477" lon="-6.373564831404462"><ele>1293.0</ele><time>2026-04-24T15:56:47Z</time></trkpt><trkpt lat="31.112945850998393" lon="-6.373409126332621"><ele>1293.0</ele><time>2026-04-24T15:56:48Z</time></trkpt><trkpt lat="31.113194612994068" lon="-6.373270830158657"><ele>1293.0</ele><time>2026-04-24T15:56:49Z</time></trkpt><trkpt lat="31.113439353816055" lon="-6.373134462066722"><ele>1291.5</ele><time>2026-04-24T15:56:50Z</time></trkpt><trkpt lat="31.113671858832934" lon="-6.37300438183947"><ele>1290.0</ele><time>2026-04-24T15:56:51Z</time></trkpt><trkpt lat="31.113900029587207" lon="-6.372875821375547"><ele>1291.5</ele><time>2026-04-24T15:56:52Z</time></trkpt><trkpt lat="31.114121139927835" lon="-6.372751606185432"><ele>1293.0</ele><time>2026-04-24T15:56:53Z</time></trkpt><trkpt lat="31.11433923734086" lon="-6.372627559297315"><ele>1293.0</ele><time>2026-04-24T15:56:54Z</time></trkpt><trkpt lat="31.114558594962553" lon="-6.372498880857741"><ele>1293.0</ele><time>2026-04-24T15:56:55Z</time></trkpt><trkpt lat="31.114779005624545" lon="-6.372357262800635"><ele>1293.0</ele><time>2026-04-24T15:56:56Z</time></trkpt><trkpt lat="31.114989063062705" lon="-6.372198534061682"><ele>1293.0</ele><time>2026-04-24T15:56:57Z</time></trkpt><trkpt lat="31.11518385683137" lon="-6.372029465526581"><ele>1291.5</ele><time>2026-04-24T15:56:58Z</time></trkpt><trkpt lat="31.115363557322713" lon="-6.371857597666677"><ele>1290.0</ele><time>2026-04-24T15:56:59Z</time></trkpt><trkpt lat="31.115529148919926" lon="-6.3716791675644"><ele>1290.0</ele><time>2026-04-24T15:57:00Z</time></trkpt><trkpt lat="31.115688230872838" lon="-6.371488451627705"><ele>1290.0</ele><time>2026-04-24T15:57:01Z</time></trkpt><trkpt lat="31.115849041286754" lon="-6.371295111892332"><ele>1288.5</ele><time>2026-04-24T15:57:02Z</time></trkpt><trkpt lat="31.11601145241649" lon="-6.371101215335756"><ele>1287.0</ele><time>2026-04-24T15:57:03Z</time></trkpt><trkpt lat="31.1161749340498" lon="-6.370905629193223"><ele>1287.0</ele><time>2026-04-24T15:57:04Z</time></trkpt><trkpt lat="31.116337856062408" lon="-6.370708982734238"><ele>1287.0</ele><time>2026-04-24T15:57:05Z</time></trkpt><trkpt lat="31.116497721567075" lon="-6.370515432673172"><ele>1286.6666666666667</ele><time>2026-04-24T15:57:06Z</time></trkpt><trkpt lat="31.11665575675186" lon="-6.370324098651029"><ele>1286.3333333333335</ele><time>2026-04-24T15:57:07Z</time></trkpt><trkpt lat="31.116807463613334" lon="-6.370140896750259"><ele>1286.0</ele><time>2026-04-24T15:57:08Z</time></trkpt><trkpt lat="31.11695535532793" lon="-6.369964056622566"><ele>1286.0</ele><time>2026-04-24T15:57:09Z</time></trkpt><trkpt lat="31.11709604421723" lon="-6.3697944274372285"><ele>1286.0</ele><time>2026-04-24T15:57:10Z</time></trkpt><trkpt lat="31.11722887909646" lon="-6.369633914745907"><ele>1286.0</ele><time>2026-04-24T15:57:11Z</time></trkpt><trkpt lat="31.11735680665449" lon="-6.369475389895141"><ele>1285.3333333333335</ele><time>2026-04-24T15:57:12Z</time></trkpt><trkpt lat="31.117479340072105" lon="-6.369324557523514"><ele>1284.6666666666667</ele><time>2026-04-24T15:57:13Z</time></trkpt><trkpt lat="31.11759736699513" lon="-6.369179658403516"><ele>1284.0</ele><time>2026-04-24T15:57:14Z</time></trkpt><trkpt lat="31.1177139479742" lon="-6.3690364727379345"><ele>1284.0</ele><time>2026-04-24T15:57:15Z</time></trkpt><trkpt lat="31.117830777120755" lon="-6.368892970801106"><ele>1284.0</ele><time>2026-04-24T15:57:16Z</time></trkpt><trkpt lat="31.117951289075265" lon="-6.368745065807238"><ele>1284.0</ele><time>2026-04-24T15:57:17Z</time></trkpt><trkpt lat="31.118043705411353" lon="-6.36863233064413"><ele>1284.3333333333333</ele><time>2026-04-24T15:57:18Z</time></trkpt><trkpt lat="31.118164747772934" lon="-6.368487849597681"><ele>1284.6666666666665</ele><time>2026-04-24T15:57:19Z</time></trkpt><trkpt lat="31.118289863708753" lon="-6.368339270157277"><ele>1285.0</ele><time>2026-04-24T15:57:20Z</time></trkpt><trkpt lat="31.11841429840819" lon="-6.368192059603039"><ele>1285.0</ele><time>2026-04-24T15:57:21Z</time></trkpt><trkpt lat="31.118547205665706" lon="-6.368057706207609"><ele>1285.0</ele><time>2026-04-24T15:57:22Z</time></trkpt><trkpt lat="31.118662619053836" lon="-6.367921334201883"><ele>1285.0</ele><time>2026-04-24T15:57:23Z</time></trkpt><trkpt lat="31.118763127314015" lon="-6.367773590844645"><ele>1284.75</ele><time>2026-04-24T15:57:24Z</time></trkpt><trkpt lat="31.118861294960244" lon="-6.3676536106111"><ele>1284.5</ele><time>2026-04-24T15:57:25Z</time></trkpt><trkpt lat="31.118943065616204" lon="-6.3675536783930555"><ele>1284.25</ele><time>2026-04-24T15:57:26Z</time></trkpt><trkpt lat="31.119017883970045" lon="-6.367462242598496"><ele>1284.0</ele><time>2026-04-24T15:57:27Z</time></trkpt><trkpt lat="31.119084154908084" lon="-6.36738125262424"><ele>1284.0</ele><time>2026-04-24T15:57:28Z</time></trkpt><trkpt lat="31.11914585024719" lon="-6.367305854508362"><ele>1284.0</ele><time>2026-04-24T15:57:29Z</time></trkpt><trkpt lat="31.11920083743189" lon="-6.36723865445801"><ele>1284.0</ele><time>2026-04-24T15:57:30Z</time></trkpt><trkpt lat="31.119255390941785" lon="-6.367171984400307"><ele>1284.0</ele><time>2026-04-24T15:57:31Z</time></trkpt><trkpt lat="31.119307038710133" lon="-6.367108865467425"><ele>1284.0</ele><time>2026-04-24T15:57:32Z</time></trkpt><trkpt lat="31.119363313498475" lon="-6.367040091827421"><ele>1284.0</ele><time>2026-04-24T15:57:33Z</time></trkpt><trkpt lat="31.119422439349666" lon="-6.3669678338856475"><ele>1283.8000000000002</ele><time>2026-04-24T15:57:34Z</time></trkpt><trkpt lat="31.119482430822355" lon="-6.366894518078214"><ele>1283.6000000000001</ele><time>2026-04-24T15:57:35Z</time></trkpt><trkpt lat="31.119550446841355" lon="-6.366811395436775"><ele>1283.4</ele><time>2026-04-24T15:57:36Z</time></trkpt><trkpt lat="31.119619661533378" lon="-6.366726807886201"><ele>1283.2</ele><time>2026-04-24T15:57:37Z</time></trkpt><trkpt lat="31.11969226338215" lon="-6.366638269101859"><ele>1283.0</ele><time>2026-04-24T15:57:38Z</time></trkpt><trkpt lat="31.119772196431583" lon="-6.366540814632897"><ele>1283.0</ele><time>2026-04-24T15:57:39Z</time></trkpt><trkpt lat="31.119857904967375" lon="-6.3664363186502175"><ele>1283.0</ele><time>2026-04-24T15:57:40Z</time></trkpt><trkpt lat="31.119929332433074" lon="-6.3663503385599505"><ele>1283.0</ele><time>2026-04-24T15:57:41Z</time></trkpt><trkpt lat="31.119997747072485" lon="-6.36626804451582"><ele>1283.0</ele><time>2026-04-24T15:57:42Z</time></trkpt><trkpt lat="31.120056431122855" lon="-6.366197410988945"><ele>1283.0</ele><time>2026-04-24T15:57:43Z</time></trkpt><trkpt lat="31.120162914481163" lon="-6.36606978586377"><ele>1284.0</ele><time>2026-04-24T15:57:44Z</time></trkpt><trkpt lat="31.120262857701768" lon="-6.365950330626378"><ele>1285.0</ele><time>2026-04-24T15:57:45Z</time></trkpt><trkpt lat="31.12037541500116" lon="-6.365815955870855"><ele>1286.0</ele><time>2026-04-24T15:57:46Z</time></trkpt><trkpt lat="31.120496016585804" lon="-6.365671977559898"><ele>1287.6666666666667</ele><time>2026-04-24T15:57:47Z</time></trkpt><trkpt lat="31.12062886000878" lon="-6.365513011125349"><ele>1289.3333333333333</ele><time>2026-04-24T15:57:48Z</time></trkpt><trkpt lat="31.120770832611786" lon="-6.365343406367702"><ele>1291.0</ele><time>2026-04-24T15:57:49Z</time></trkpt><trkpt lat="31.12092269365426" lon="-6.3651625162694945"><ele>1291.0</ele><time>2026-04-24T15:57:50Z</time></trkpt><trkpt lat="31.121076368434622" lon="-6.364978955343588"><ele>1291.0</ele><time>2026-04-24T15:57:51Z</time></trkpt><trkpt lat="31.12122954381885" lon="-6.364796389308407"><ele>1291.0</ele><time>2026-04-24T15:57:52Z</time></trkpt><trkpt lat="31.12138833853441" lon="-6.364606939680693"><ele>1291.6666666666665</ele><time>2026-04-24T15:57:53Z</time></trkpt><trkpt lat="31.12154488257803" lon="-6.364420175229355"><ele>1292.3333333333333</ele><time>2026-04-24T15:57:54Z</time></trkpt><trkpt lat="31.12170147658844" lon="-6.364233351170912"><ele>1293.0</ele><time>2026-04-24T15:57:55Z</time></trkpt><trkpt lat="31.12185255336899" lon="-6.364045033467403"><ele>1295.0</ele><time>2026-04-24T15:57:56Z</time></trkpt><trkpt lat="31.122010459580817" lon="-6.363849393368657"><ele>1297.0</ele><time>2026-04-24T15:57:57Z</time></trkpt><trkpt lat="31.122168634291857" lon="-6.363652204311134"><ele>1297.0</ele><time>2026-04-24T15:57:58Z</time></trkpt><trkpt lat="31.122334270816523" lon="-6.363447127578107"><ele>1297.0</ele><time>2026-04-24T15:57:59Z</time></trkpt><trkpt lat="31.122509354049193" lon="-6.363236939416456"><ele>1298.0</ele><time>2026-04-24T15:58:00Z</time></trkpt><trkpt lat="31.122696738729736" lon="-6.363046695847352"><ele>1299.0</ele><time>2026-04-24T15:58:01Z</time></trkpt><trkpt lat="31.122867568882118" lon="-6.3628485878567975"><ele>1299.0</ele><time>2026-04-24T15:58:02Z</time></trkpt><trkpt lat="31.123032082244336" lon="-6.362657263389856"><ele>1299.0</ele><time>2026-04-24T15:58:03Z</time></trkpt><trkpt lat="31.123179633973415" lon="-6.362451703236678"><ele>1299.0</ele><time>2026-04-24T15:58:04Z</time></trkpt><trkpt lat="31.12334215065172" lon="-6.362251837864185"><ele>1299.0</ele><time>2026-04-24T15:58:05Z</time></trkpt><trkpt lat="31.123519802721663" lon="-6.3620333240392135"><ele>1298.0</ele><time>2026-04-24T15:58:06Z</time></trkpt><trkpt lat="31.123701367454455" lon="-6.3618107975089195"><ele>1297.0</ele><time>2026-04-24T15:58:07Z</time></trkpt><trkpt lat="31.123884069195814" lon="-6.361585319847395"><ele>1296.0</ele><time>2026-04-24T15:58:08Z</time></trkpt><trkpt lat="31.124065744390276" lon="-6.361357041701958"><ele>1295.0</ele><time>2026-04-24T15:58:09Z</time></trkpt><trkpt lat="31.12424825395269" lon="-6.3611302540793515"><ele>1295.0</ele><time>2026-04-24T15:58:10Z</time></trkpt><trkpt lat="31.124425421125142" lon="-6.36090883241348"><ele>1295.0</ele><time>2026-04-24T15:58:11Z</time></trkpt><trkpt lat="31.124603135043806" lon="-6.360686447418771"><ele>1295.5</ele><time>2026-04-24T15:58:12Z</time></trkpt><trkpt lat="31.12477909189774" lon="-6.360466283728613"><ele>1296.0</ele><time>2026-04-24T15:58:13Z</time></trkpt><trkpt lat="31.124961253261944" lon="-6.360251269608747"><ele>1296.0</ele><time>2026-04-24T15:58:14Z</time></trkpt><trkpt lat="31.125142293170256" lon="-6.360042536567376"><ele>1296.0</ele><time>2026-04-24T15:58:15Z</time></trkpt><trkpt lat="31.125321774875587" lon="-6.359835102441351"><ele>1293.5</ele><time>2026-04-24T15:58:16Z</time></trkpt><trkpt lat="31.125498681889077" lon="-6.35963064398725"><ele>1291.0</ele><time>2026-04-24T15:58:17Z</time></trkpt><trkpt lat="31.125676931333036" lon="-6.359422173903819"><ele>1290.5</ele><time>2026-04-24T15:58:18Z</time></trkpt><trkpt lat="31.12586817631293" lon="-6.359216431505593"><ele>1290.0</ele><time>2026-04-24T15:58:19Z</time></trkpt><trkpt lat="31.126046904462573" lon="-6.358997126969196"><ele>1290.5</ele><time>2026-04-24T15:58:20Z</time></trkpt><trkpt lat="31.126226654282657" lon="-6.3587801981960625"><ele>1291.0</ele><time>2026-04-24T15:58:21Z</time></trkpt><trkpt lat="31.1264081467591" lon="-6.358566057788943"><ele>1291.0</ele><time>2026-04-24T15:58:22Z</time></trkpt><trkpt lat="31.12658925160755" lon="-6.358350726498208"><ele>1291.0</ele><time>2026-04-24T15:58:23Z</time></trkpt><trkpt lat="31.126754485225067" lon="-6.35812030634246"><ele>1292.5</ele><time>2026-04-24T15:58:24Z</time></trkpt><trkpt lat="31.12692676186966" lon="-6.35790302928011"><ele>1294.0</ele><time>2026-04-24T15:58:25Z</time></trkpt><trkpt lat="31.127111875660574" lon="-6.357693342131829"><ele>1294.0</ele><time>2026-04-24T15:58:26Z</time></trkpt><trkpt lat="31.12730914763013" lon="-6.357485740511198"><ele>1294.0</ele><time>2026-04-24T15:58:27Z</time></trkpt><trkpt lat="31.12752797507177" lon="-6.357300938160645"><ele>1296.5</ele><time>2026-04-24T15:58:28Z</time></trkpt><trkpt lat="31.12774835129395" lon="-6.3571063665589005"><ele>1299.0</ele><time>2026-04-24T15:58:29Z</time></trkpt><trkpt lat="31.127976123720074" lon="-6.35691353898967"><ele>1299.0</ele><time>2026-04-24T15:58:30Z</time></trkpt><trkpt lat="31.128202973081297" lon="-6.35672281506063"><ele>1299.0</ele><time>2026-04-24T15:58:31Z</time></trkpt><trkpt lat="31.12842143446641" lon="-6.356537726691399"><ele>1300.0</ele><time>2026-04-24T15:58:32Z</time></trkpt><trkpt lat="31.128627314261443" lon="-6.356358185040812"><ele>1301.0</ele><time>2026-04-24T15:58:33Z</time></trkpt><trkpt lat="31.128825945536594" lon="-6.3561849665809955"><ele>1301.0</ele><time>2026-04-24T15:58:34Z</time></trkpt><trkpt lat="31.12902955569728" lon="-6.356009238379781"><ele>1301.0</ele><time>2026-04-24T15:58:35Z</time></trkpt><trkpt lat="31.129223976613464" lon="-6.355816380392123"><ele>1301.0</ele><time>2026-04-24T15:58:36Z</time></trkpt><trkpt lat="31.129424993152604" lon="-6.355638952579717"><ele>1301.0</ele><time>2026-04-24T15:58:37Z</time></trkpt><trkpt lat="31.129629919501504" lon="-6.3554607110807915"><ele>1301.0</ele><time>2026-04-24T15:58:38Z</time></trkpt><trkpt lat="31.12983893952793" lon="-6.355282311898541"><ele>1301.0</ele><time>2026-04-24T15:58:39Z</time></trkpt><trkpt lat="31.130050259013835" lon="-6.355104098714849"><ele>1300.0</ele><time>2026-04-24T15:58:40Z</time></trkpt><trkpt lat="31.1302632528546" lon="-6.354921926337862"><ele>1299.0</ele><time>2026-04-24T15:58:41Z</time></trkpt><trkpt lat="31.13047001403559" lon="-6.3547304696075475"><ele>1298.5</ele><time>2026-04-24T15:58:42Z</time></trkpt><trkpt lat="31.130666567198073" lon="-6.354517337144742"><ele>1298.0</ele><time>2026-04-24T15:58:43Z</time></trkpt><trkpt lat="31.130866702446202" lon="-6.3542957672580584"><ele>1298.0</ele><time>2026-04-24T15:58:44Z</time></trkpt><trkpt lat="31.13107162356557" lon="-6.354072218407612"><ele>1298.0</ele><time>2026-04-24T15:58:45Z</time></trkpt><trkpt lat="31.13127565082819" lon="-6.353849895107798"><ele>1297.5</ele><time>2026-04-24T15:58:46Z</time></trkpt><trkpt lat="31.131479009725513" lon="-6.353629050295653"><ele>1297.0</ele><time>2026-04-24T15:58:47Z</time></trkpt><trkpt lat="31.131679607301173" lon="-6.353410952391082"><ele>1297.0</ele><time>2026-04-24T15:58:48Z</time></trkpt><trkpt lat="31.131874746036377" lon="-6.353198465763642"><ele>1297.0</ele><time>2026-04-24T15:58:49Z</time></trkpt><trkpt lat="31.132063404265587" lon="-6.3529955568667065"><ele>1296.5</ele><time>2026-04-24T15:58:50Z</time></trkpt><trkpt lat="31.132249613599413" lon="-6.35280092290789"><ele>1296.0</ele><time>2026-04-24T15:58:51Z</time></trkpt><trkpt lat="31.13243171315341" lon="-6.352609633877065"><ele>1297.5</ele><time>2026-04-24T15:58:52Z</time></trkpt><trkpt lat="31.132612405487468" lon="-6.352413442336575"><ele>1299.0</ele><time>2026-04-24T15:58:53Z</time></trkpt><trkpt lat="31.132790289630062" lon="-6.352221765324567"><ele>1299.5</ele><time>2026-04-24T15:58:54Z</time></trkpt><trkpt lat="31.132968818760766" lon="-6.352030197688518"><ele>1300.0</ele><time>2026-04-24T15:58:55Z</time></trkpt><trkpt lat="31.13314506187793" lon="-6.351841083062487"><ele>1300.3333333333333</ele><time>2026-04-24T15:58:56Z</time></trkpt><trkpt lat="31.133312755675224" lon="-6.351662911184436"><ele>1300.6666666666667</ele><time>2026-04-24T15:58:57Z</time></trkpt><trkpt lat="31.133484972841327" lon="-6.351514928930963"><ele>1301.0</ele><time>2026-04-24T15:58:58Z</time></trkpt><trkpt lat="31.133633335014807" lon="-6.351351801791294"><ele>1300.3333333333335</ele><time>2026-04-24T15:58:59Z</time></trkpt><trkpt lat="31.133775485382095" lon="-6.351200126855498"><ele>1299.6666666666667</ele><time>2026-04-24T15:59:00Z</time></trkpt><trkpt lat="31.133908049982065" lon="-6.351053067816505"><ele>1299.0</ele><time>2026-04-24T15:59:01Z</time></trkpt><trkpt lat="31.13403618538241" lon="-6.350915977103912"><ele>1298.6666666666667</ele><time>2026-04-24T15:59:02Z</time></trkpt><trkpt lat="31.13415804943161" lon="-6.3507792206619955"><ele>1298.3333333333335</ele><time>2026-04-24T15:59:03Z</time></trkpt><trkpt lat="31.134281225315842" lon="-6.350641810500671"><ele>1298.0</ele><time>2026-04-24T15:59:04Z</time></trkpt><trkpt lat="31.134399289573036" lon="-6.350507897827995"><ele>1298.0</ele><time>2026-04-24T15:59:05Z</time></trkpt><trkpt lat="31.13451107435168" lon="-6.350370694025534"><ele>1298.0</ele><time>2026-04-24T15:59:06Z</time></trkpt><trkpt lat="31.134615053756235" lon="-6.350226598969999"><ele>1298.0</ele><time>2026-04-24T15:59:07Z</time></trkpt><trkpt lat="31.134708274549038" lon="-6.350072535261976"><ele>1298.0</ele><time>2026-04-24T15:59:08Z</time></trkpt><trkpt lat="31.134796107528572" lon="-6.349914862117575"><ele>1298.0</ele><time>2026-04-24T15:59:09Z</time></trkpt><trkpt lat="31.134879497276373" lon="-6.349753405342791"><ele>1298.0</ele><time>2026-04-24T15:59:10Z</time></trkpt><trkpt lat="31.134948533038518" lon="-6.349584117285748"><ele>1296.6666666666667</ele><time>2026-04-24T15:59:11Z</time></trkpt><trkpt lat="31.135011691188694" lon="-6.3494141248304485"><ele>1295.3333333333333</ele><time>2026-04-24T15:59:12Z</time></trkpt><trkpt lat="31.135066687759778" lon="-6.349241811001021"><ele>1294.0</ele><time>2026-04-24T15:59:13Z</time></trkpt><trkpt lat="31.135112603629473" lon="-6.349067631286501"><ele>1294.0</ele><time>2026-04-24T15:59:14Z</time></trkpt><trkpt lat="31.135151791870857" lon="-6.348893783809369"><ele>1294.0</ele><time>2026-04-24T15:59:15Z</time></trkpt><trkpt lat="31.13517920251017" lon="-6.348720346515538"><ele>1294.0</ele><time>2026-04-24T15:59:16Z</time></trkpt><trkpt lat="31.13518951155025" lon="-6.348541552788599"><ele>1294.0</ele><time>2026-04-24T15:59:17Z</time></trkpt><trkpt lat="31.135194067744447" lon="-6.348359025317868"><ele>1294.0</ele><time>2026-04-24T15:59:18Z</time></trkpt><trkpt lat="31.135193595776308" lon="-6.348172284799799"><ele>1294.0</ele><time>2026-04-24T15:59:19Z</time></trkpt><trkpt lat="31.135179504492978" lon="-6.347979091016748"><ele>1294.0</ele><time>2026-04-24T15:59:20Z</time></trkpt><trkpt lat="31.135155931445585" lon="-6.347791929368737"><ele>1294.0</ele><time>2026-04-24T15:59:21Z</time></trkpt><trkpt lat="31.135119259967976" lon="-6.3476016497486745"><ele>1294.0</ele><time>2026-04-24T15:59:22Z</time></trkpt><trkpt lat="31.13507759637043" lon="-6.347410551086198"><ele>1294.0</ele><time>2026-04-24T15:59:23Z</time></trkpt><trkpt lat="31.135027111071537" lon="-6.347219068863372"><ele>1294.0</ele><time>2026-04-24T15:59:24Z</time></trkpt><trkpt lat="31.134971658053345" lon="-6.347035302679648"><ele>1294.0</ele><time>2026-04-24T15:59:25Z</time></trkpt><trkpt lat="31.134911929190586" lon="-6.346861621102309"><ele>1292.6666666666665</ele><time>2026-04-24T15:59:26Z</time></trkpt><trkpt lat="31.134850751393515" lon="-6.346687451097595"><ele>1291.3333333333333</ele><time>2026-04-24T15:59:27Z</time></trkpt><trkpt lat="31.134790699957378" lon="-6.346515274020274"><ele>1290.0</ele><time>2026-04-24T15:59:28Z</time></trkpt><trkpt lat="31.134731118210667" lon="-6.346345142743928"><ele>1289.3333333333333</ele><time>2026-04-24T15:59:29Z</time></trkpt><trkpt lat="31.13466564410289" lon="-6.346167301496513"><ele>1288.6666666666665</ele><time>2026-04-24T15:59:30Z</time></trkpt><trkpt lat="31.134599127772496" lon="-6.345976884667362"><ele>1288.0</ele><time>2026-04-24T15:59:31Z</time></trkpt><trkpt lat="31.134524527576687" lon="-6.345766641976904"><ele>1287.6666666666665</ele><time>2026-04-24T15:59:32Z</time></trkpt><trkpt lat="31.13444800227174" lon="-6.345541278294092"><ele>1287.3333333333333</ele><time>2026-04-24T15:59:33Z</time></trkpt><trkpt lat="31.134366151067965" lon="-6.345302389644977"><ele>1287.0</ele><time>2026-04-24T15:59:34Z</time></trkpt><trkpt lat="31.134280400365817" lon="-6.345060029614085"><ele>1287.0</ele><time>2026-04-24T15:59:35Z</time></trkpt><trkpt lat="31.13419294761541" lon="-6.3448153412286254"><ele>1287.0</ele><time>2026-04-24T15:59:36Z</time></trkpt><trkpt lat="31.13410093296003" lon="-6.344578511844599"><ele>1288.6666666666667</ele><time>2026-04-24T15:59:37Z</time></trkpt><trkpt lat="31.134008643183886" lon="-6.344346458848926"><ele>1290.3333333333335</ele><time>2026-04-24T15:59:38Z</time></trkpt><trkpt lat="31.13391086510999" lon="-6.34412248850153"><ele>1292.0</ele><time>2026-04-24T15:59:39Z</time></trkpt><trkpt lat="31.133807315047527" lon="-6.343909859392447"><ele>1293.0</ele><time>2026-04-24T15:59:40Z</time></trkpt><trkpt lat="31.13369868602571" lon="-6.34369966450754"><ele>1294.0</ele><time>2026-04-24T15:59:41Z</time></trkpt><trkpt lat="31.13358258113812" lon="-6.3434930636547975"><ele>1295.0</ele><time>2026-04-24T15:59:42Z</time></trkpt><trkpt lat="31.13345774168905" lon="-6.34329672738391"><ele>1295.0</ele><time>2026-04-24T15:59:43Z</time></trkpt><trkpt lat="31.133324042976348" lon="-6.343114900129329"><ele>1295.0</ele><time>2026-04-24T15:59:44Z</time></trkpt><trkpt lat="31.133190502371765" lon="-6.342939881095578"><ele>1295.0</ele><time>2026-04-24T15:59:45Z</time></trkpt><trkpt lat="31.13306401970033" lon="-6.34275832765687"><ele>1296.3333333333335</ele><time>2026-04-24T15:59:46Z</time></trkpt><trkpt lat="31.13294516710109" lon="-6.342571469022794"><ele>1297.6666666666667</ele><time>2026-04-24T15:59:47Z</time></trkpt><trkpt lat="31.132837025687152" lon="-6.342377213005231"><ele>1299.0</ele><time>2026-04-24T15:59:48Z</time></trkpt><trkpt lat="31.132739559192974" lon="-6.342169182646298"><ele>1300.3333333333333</ele><time>2026-04-24T15:59:49Z</time></trkpt><trkpt lat="31.1326568345716" lon="-6.341951313918723"><ele>1301.6666666666665</ele><time>2026-04-24T15:59:50Z</time></trkpt><trkpt lat="31.13258123062427" lon="-6.341724219332642"><ele>1303.0</ele><time>2026-04-24T15:59:51Z</time></trkpt><trkpt lat="31.132518408486288" lon="-6.341482413695134"><ele>1304.5</ele><time>2026-04-24T15:59:52Z</time></trkpt><trkpt lat="31.13247559146404" lon="-6.341225153264049"><ele>1306.0</ele><time>2026-04-24T15:59:53Z</time></trkpt><trkpt lat="31.13244438044426" lon="-6.340954573288506"><ele>1306.0</ele><time>2026-04-24T15:59:54Z</time></trkpt><trkpt lat="31.132411800344407" lon="-6.34068482137916"><ele>1306.0</ele><time>2026-04-24T15:59:55Z</time></trkpt><trkpt lat="31.132378009837595" lon="-6.340423551203904"><ele>1307.6666666666665</ele><time>2026-04-24T15:59:56Z</time></trkpt><trkpt lat="31.132345611030004" lon="-6.340173895615699"><ele>1309.3333333333333</ele><time>2026-04-24T15:59:57Z</time></trkpt><trkpt lat="31.13231582549106" lon="-6.3399299626305154"><ele>1311.0</ele><time>2026-04-24T15:59:58Z</time></trkpt><trkpt lat="31.132284265080564" lon="-6.339689506757244"><ele>1311.0</ele><time>2026-04-24T15:59:59Z</time></trkpt><trkpt lat="31.132253236900734" lon="-6.3394435032264145"><ele>1311.0</ele><time>2026-04-24T16:00:00Z</time></trkpt><trkpt lat="31.132220415351522" lon="-6.339187066020887"><ele>1311.0</ele><time>2026-04-24T16:00:01Z</time></trkpt><trkpt lat="31.13218811040887" lon="-6.338927169004396"><ele>1311.5</ele><time>2026-04-24T16:00:02Z</time></trkpt><trkpt lat="31.13211735841733" lon="-6.338677383166788"><ele>1312.0</ele><time>2026-04-24T16:00:03Z</time></trkpt><trkpt lat="31.13208343472918" lon="-6.3384122350954915"><ele>1312.0</ele><time>2026-04-24T16:00:04Z</time></trkpt><trkpt lat="31.132051589518955" lon="-6.338149356181619"><ele>1312.0</ele><time>2026-04-24T16:00:05Z</time></trkpt><trkpt lat="31.132020708193753" lon="-6.337893653731963"><ele>1312.0</ele><time>2026-04-24T16:00:06Z</time></trkpt><trkpt lat="31.131990747986823" lon="-6.337646408684351"><ele>1312.0</ele><time>2026-04-24T16:00:07Z</time></trkpt><trkpt lat="31.131961543171496" lon="-6.337410177445722"><ele>1312.0</ele><time>2026-04-24T16:00:08Z</time></trkpt><trkpt lat="31.131933788303538" lon="-6.337185674493337"><ele>1312.0</ele><time>2026-04-24T16:00:09Z</time></trkpt><trkpt lat="31.13190704045089" lon="-6.336975507144361"><ele>1311.6666666666665</ele><time>2026-04-24T16:00:10Z</time></trkpt><trkpt lat="31.131881822869644" lon="-6.336772324995523"><ele>1311.3333333333333</ele><time>2026-04-24T16:00:11Z</time></trkpt><trkpt lat="31.13185827907481" lon="-6.3365768837986565"><ele>1311.0</ele><time>2026-04-24T16:00:12Z</time></trkpt><trkpt lat="31.13183675159643" lon="-6.336390997783796"><ele>1311.3333333333333</ele><time>2026-04-24T16:00:13Z</time></trkpt><trkpt lat="31.1318175865369" lon="-6.33620828960633"><ele>1311.6666666666665</ele><time>2026-04-24T16:00:14Z</time></trkpt><trkpt lat="31.131799872369616" lon="-6.336024347977901"><ele>1312.0</ele><time>2026-04-24T16:00:15Z</time></trkpt><trkpt lat="31.131789536145323" lon="-6.33583453286886"><ele>1312.0</ele><time>2026-04-24T16:00:16Z</time></trkpt><trkpt lat="31.131780890771577" lon="-6.335647654999575"><ele>1312.0</ele><time>2026-04-24T16:00:17Z</time></trkpt><trkpt lat="31.131770845729303" lon="-6.335455177025009"><ele>1312.0</ele><time>2026-04-24T16:00:18Z</time></trkpt><trkpt lat="31.131776465666427" lon="-6.3352552665452615"><ele>1312.0</ele><time>2026-04-24T16:00:19Z</time></trkpt><trkpt lat="31.131788871459467" lon="-6.335058061454772"><ele>1312.0</ele><time>2026-04-24T16:00:20Z</time></trkpt><trkpt lat="31.131804361068788" lon="-6.334859983564892"><ele>1312.0</ele><time>2026-04-24T16:00:21Z</time></trkpt><trkpt lat="31.131824101906272" lon="-6.334659096893847"><ele>1311.0</ele><time>2026-04-24T16:00:22Z</time></trkpt><trkpt lat="31.131854789729726" lon="-6.334458898985674"><ele>1310.0</ele><time>2026-04-24T16:00:23Z</time></trkpt><trkpt lat="31.131891158643516" lon="-6.334257773724947"><ele>1309.0</ele><time>2026-04-24T16:00:24Z</time></trkpt><trkpt lat="31.131933860727514" lon="-6.334052738605357"><ele>1308.0</ele><time>2026-04-24T16:00:25Z</time></trkpt><trkpt lat="31.131981308053916" lon="-6.33384713438151"><ele>1307.0</ele><time>2026-04-24T16:00:26Z</time></trkpt><trkpt lat="31.13203949807767" lon="-6.333639361369258"><ele>1306.0</ele><time>2026-04-24T16:00:27Z</time></trkpt><trkpt lat="31.13211151042777" lon="-6.333431820403509"><ele>1306.0</ele><time>2026-04-24T16:00:28Z</time></trkpt><trkpt lat="31.132188214711366" lon="-6.33322729534391"><ele>1306.0</ele><time>2026-04-24T16:00:29Z</time></trkpt><trkpt lat="31.132275450440456" lon="-6.333017813114883"><ele>1306.0</ele><time>2026-04-24T16:00:30Z</time></trkpt><trkpt lat="31.132369825727498" lon="-6.3327962342240145"><ele>1305.5</ele><time>2026-04-24T16:00:31Z</time></trkpt><trkpt lat="31.132467962014086" lon="-6.3325645759565345"><ele>1305.0</ele><time>2026-04-24T16:00:32Z</time></trkpt><trkpt lat="31.13256884042093" lon="-6.332323414147606"><ele>1307.0</ele><time>2026-04-24T16:00:33Z</time></trkpt><trkpt lat="31.13267158632193" lon="-6.332062692572577"><ele>1309.0</ele><time>2026-04-24T16:00:34Z</time></trkpt><trkpt lat="31.132786570111413" lon="-6.331791617592931"><ele>1309.0</ele><time>2026-04-24T16:00:35Z</time></trkpt><trkpt lat="31.132902669313072" lon="-6.3315153415006735"><ele>1309.0</ele><time>2026-04-24T16:00:36Z</time></trkpt><trkpt lat="31.133018194174685" lon="-6.331237003987597"><ele>1310.0</ele><time>2026-04-24T16:00:37Z</time></trkpt><trkpt lat="31.13313518572043" lon="-6.3309615079083"><ele>1311.0</ele><time>2026-04-24T16:00:38Z</time></trkpt><trkpt lat="31.1332522876574" lon="-6.33068979659261"><ele>1311.5</ele><time>2026-04-24T16:00:39Z</time></trkpt><trkpt lat="31.13337196480805" lon="-6.3304170615024535"><ele>1312.0</ele><time>2026-04-24T16:00:40Z</time></trkpt><trkpt lat="31.133492509067775" lon="-6.330145841420763"><ele>1312.0</ele><time>2026-04-24T16:00:41Z</time></trkpt><trkpt lat="31.133609958150416" lon="-6.329875261251101"><ele>1312.0</ele><time>2026-04-24T16:00:42Z</time></trkpt><trkpt lat="31.133721482257943" lon="-6.329599747355688"><ele>1313.0</ele><time>2026-04-24T16:00:43Z</time></trkpt><trkpt lat="31.13383589717995" lon="-6.3293267396340935"><ele>1314.0</ele><time>2026-04-24T16:00:44Z</time></trkpt><trkpt lat="31.13394543089131" lon="-6.329054179886757"><ele>1314.5</ele><time>2026-04-24T16:00:45Z</time></trkpt><trkpt lat="31.13405338636671" lon="-6.328781865180436"><ele>1315.0</ele><time>2026-04-24T16:00:46Z</time></trkpt><trkpt lat="31.13416386181128" lon="-6.328514336111585"><ele>1315.0</ele><time>2026-04-24T16:00:47Z</time></trkpt><trkpt lat="31.13427516085054" lon="-6.328254354859523"><ele>1315.0</ele><time>2026-04-24T16:00:48Z</time></trkpt><trkpt lat="31.134385063362807" lon="-6.327996044382688"><ele>1316.0</ele><time>2026-04-24T16:00:49Z</time></trkpt><trkpt lat="31.134492474916243" lon="-6.327743087081672"><ele>1317.0</ele><time>2026-04-24T16:00:50Z</time></trkpt><trkpt lat="31.134595441332696" lon="-6.327497181690177"><ele>1317.0</ele><time>2026-04-24T16:00:51Z</time></trkpt><trkpt lat="31.134695770869936" lon="-6.327257776757242"><ele>1317.0</ele><time>2026-04-24T16:00:52Z</time></trkpt><trkpt lat="31.134796058602532" lon="-6.3270195301587755"><ele>1316.6666666666667</ele><time>2026-04-24T16:00:53Z</time></trkpt><trkpt lat="31.13489531810013" lon="-6.326783873535067"><ele>1316.3333333333335</ele><time>2026-04-24T16:00:54Z</time></trkpt><trkpt lat="31.13499289007442" lon="-6.326552442500482"><ele>1316.0</ele><time>2026-04-24T16:00:55Z</time></trkpt><trkpt lat="31.135088222550465" lon="-6.326327182973668"><ele>1317.3333333333335</ele><time>2026-04-24T16:00:56Z</time></trkpt><trkpt lat="31.13518214659814" lon="-6.326102695676235"><ele>1318.6666666666667</ele><time>2026-04-24T16:00:57Z</time></trkpt><trkpt lat="31.135274064128915" lon="-6.325883004230454"><ele>1320.0</ele><time>2026-04-24T16:00:58Z</time></trkpt><trkpt lat="31.13536473362001" lon="-6.325666295713383"><ele>1320.0</ele><time>2026-04-24T16:00:59Z</time></trkpt><trkpt lat="31.135478540005003" lon="-6.325465701907474"><ele>1320.0</ele><time>2026-04-24T16:01:00Z</time></trkpt><trkpt lat="31.135565746034047" lon="-6.3252564502235735"><ele>1320.0</ele><time>2026-04-24T16:01:01Z</time></trkpt><trkpt lat="31.135653286463143" lon="-6.325048296682548"><ele>1320.3333333333333</ele><time>2026-04-24T16:01:02Z</time></trkpt><trkpt lat="31.13573356214614" lon="-6.32485583855883"><ele>1320.6666666666665</ele><time>2026-04-24T16:01:03Z</time></trkpt><trkpt lat="31.135810445256606" lon="-6.324670493047645"><ele>1321.0</ele><time>2026-04-24T16:01:04Z</time></trkpt><trkpt lat="31.135889768960734" lon="-6.32448509436851"><ele>1319.6666666666665</ele><time>2026-04-24T16:01:05Z</time></trkpt><trkpt lat="31.135976387509796" lon="-6.324288739330418"><ele>1318.3333333333333</ele><time>2026-04-24T16:01:06Z</time></trkpt><trkpt lat="31.13607548145089" lon="-6.324067086137598"><ele>1317.0</ele><time>2026-04-24T16:01:07Z</time></trkpt><trkpt lat="31.136179268155335" lon="-6.323829612335917"><ele>1316.5</ele><time>2026-04-24T16:01:08Z</time></trkpt><trkpt lat="31.13629068087086" lon="-6.323570406286418"><ele>1316.0</ele><time>2026-04-24T16:01:09Z</time></trkpt><trkpt lat="31.13641044977335" lon="-6.323287443297912"><ele>1315.5</ele><time>2026-04-24T16:01:10Z</time></trkpt><trkpt lat="31.13654547122263" lon="-6.322966930289197"><ele>1315.0</ele><time>2026-04-24T16:01:11Z</time></trkpt><trkpt lat="31.13668386194262" lon="-6.322639324517542"><ele>1313.5</ele><time>2026-04-24T16:01:12Z</time></trkpt><trkpt lat="31.13682941591272" lon="-6.322294557636892"><ele>1312.0</ele><time>2026-04-24T16:01:13Z</time></trkpt><trkpt lat="31.136968526499818" lon="-6.32194357829132"><ele>1311.0</ele><time>2026-04-24T16:01:14Z</time></trkpt><trkpt lat="31.137097021197068" lon="-6.3216195150593055"><ele>1310.0</ele><time>2026-04-24T16:01:15Z</time></trkpt><trkpt lat="31.137220530044516" lon="-6.321314853809587"><ele>1309.5</ele><time>2026-04-24T16:01:16Z</time></trkpt><trkpt lat="31.13733602701966" lon="-6.321034708758815"><ele>1309.0</ele><time>2026-04-24T16:01:17Z</time></trkpt><trkpt lat="31.13744400623505" lon="-6.32077366911912"><ele>1310.5</ele><time>2026-04-24T16:01:18Z</time></trkpt><trkpt lat="31.137544276117183" lon="-6.320527634118173"><ele>1312.0</ele><time>2026-04-24T16:01:19Z</time></trkpt><trkpt lat="31.13764152939691" lon="-6.320290216585579"><ele>1312.0</ele><time>2026-04-24T16:01:20Z</time></trkpt><trkpt lat="31.13774225990057" lon="-6.320049095803813"><ele>1312.0</ele><time>2026-04-24T16:01:21Z</time></trkpt><trkpt lat="31.137846581862217" lon="-6.319803538122244"><ele>1311.5</ele><time>2026-04-24T16:01:22Z</time></trkpt><trkpt lat="31.137952540434156" lon="-6.319551069713858"><ele>1311.0</ele><time>2026-04-24T16:01:23Z</time></trkpt><trkpt lat="31.138061165095355" lon="-6.319290782929648"><ele>1311.0</ele><time>2026-04-24T16:01:24Z</time></trkpt><trkpt lat="31.138170261769154" lon="-6.319030036031675"><ele>1311.0</ele><time>2026-04-24T16:01:25Z</time></trkpt><trkpt lat="31.13828131912681" lon="-6.318764075939994"><ele>1309.0</ele><time>2026-04-24T16:01:26Z</time></trkpt><trkpt lat="31.13839473635201" lon="-6.318495381096473"><ele>1307.0</ele><time>2026-04-24T16:01:27Z</time></trkpt><trkpt lat="31.13850821541771" lon="-6.318227817672117"><ele>1305.5</ele><time>2026-04-24T16:01:28Z</time></trkpt><trkpt lat="31.138623519935628" lon="-6.317956301837738"><ele>1304.0</ele><time>2026-04-24T16:01:29Z</time></trkpt><trkpt lat="31.138739452150144" lon="-6.317681220205756"><ele>1304.0</ele><time>2026-04-24T16:01:30Z</time></trkpt><trkpt lat="31.138854392034816" lon="-6.317402747086349"><ele>1304.0</ele><time>2026-04-24T16:01:31Z</time></trkpt><trkpt lat="31.138968514795707" lon="-6.317127412500406"><ele>1304.0</ele><time>2026-04-24T16:01:32Z</time></trkpt><trkpt lat="31.139083244354747" lon="-6.316852201743209"><ele>1304.0</ele><time>2026-04-24T16:01:33Z</time></trkpt><trkpt lat="31.139195332636085" lon="-6.316578808115335"><ele>1305.0</ele><time>2026-04-24T16:01:34Z</time></trkpt><trkpt lat="31.139308040575617" lon="-6.316304904671511"><ele>1306.0</ele><time>2026-04-24T16:01:35Z</time></trkpt><trkpt lat="31.139423191635004" lon="-6.31603372866398"><ele>1306.0</ele><time>2026-04-24T16:01:36Z</time></trkpt><trkpt lat="31.139543402328044" lon="-6.315762868070195"><ele>1306.0</ele><time>2026-04-24T16:01:37Z</time></trkpt><trkpt lat="31.139669905170983" lon="-6.31549737811725"><ele>1306.0</ele><time>2026-04-24T16:01:38Z</time></trkpt><trkpt lat="31.139809909424052" lon="-6.315238113898036"><ele>1306.0</ele><time>2026-04-24T16:01:39Z</time></trkpt><trkpt lat="31.1399645845044" lon="-6.314987297258864"><ele>1306.0</ele><time>2026-04-24T16:01:40Z</time></trkpt><trkpt lat="31.14013414915279" lon="-6.314747554721715"><ele>1306.0</ele><time>2026-04-24T16:01:41Z</time></trkpt><trkpt lat="31.140314997664564" lon="-6.314519513431565"><ele>1307.0</ele><time>2026-04-24T16:01:42Z</time></trkpt><trkpt lat="31.140502280852218" lon="-6.314305149009508"><ele>1308.0</ele><time>2026-04-24T16:01:43Z</time></trkpt><trkpt lat="31.14069191519306" lon="-6.314103482471373"><ele>1307.5</ele><time>2026-04-24T16:01:44Z</time></trkpt><trkpt lat="31.14087686025189" lon="-6.3139098798636875"><ele>1307.0</ele><time>2026-04-24T16:01:45Z</time></trkpt><trkpt lat="31.141059212735698" lon="-6.313719907590794"><ele>1309.0</ele><time>2026-04-24T16:01:46Z</time></trkpt><trkpt lat="31.141236063328563" lon="-6.313535617364957"><ele>1311.0</ele><time>2026-04-24T16:01:47Z</time></trkpt><trkpt lat="31.14140825116375" lon="-6.313357443314925"><ele>1311.6666666666667</ele><time>2026-04-24T16:01:48Z</time></trkpt><trkpt lat="31.14157511141968" lon="-6.313184216636078"><ele>1312.3333333333335</ele><time>2026-04-24T16:01:49Z</time></trkpt><trkpt lat="31.141740418571818" lon="-6.313013436483876"><ele>1313.0</ele><time>2026-04-24T16:01:50Z</time></trkpt><trkpt lat="31.141904733735778" lon="-6.312841984509929"><ele>1314.3333333333335</ele><time>2026-04-24T16:01:51Z</time></trkpt><trkpt lat="31.142068105532815" lon="-6.312670876249904"><ele>1315.6666666666667</ele><time>2026-04-24T16:01:52Z</time></trkpt><trkpt lat="31.142231076330177" lon="-6.312499169279963"><ele>1317.0</ele><time>2026-04-24T16:01:53Z</time></trkpt><trkpt lat="31.142400520624935" lon="-6.312320072075607"><ele>1318.0</ele><time>2026-04-24T16:01:54Z</time></trkpt><trkpt lat="31.142572746502037" lon="-6.3121390568940345"><ele>1319.0</ele><time>2026-04-24T16:01:55Z</time></trkpt><trkpt lat="31.14274669731981" lon="-6.311956176590721"><ele>1319.0</ele><time>2026-04-24T16:01:56Z</time></trkpt><trkpt lat="31.14292315145076" lon="-6.311769584815146"><ele>1319.0</ele><time>2026-04-24T16:01:57Z</time></trkpt><trkpt lat="31.14309893162386" lon="-6.311584238916902"><ele>1320.0</ele><time>2026-04-24T16:01:58Z</time></trkpt><trkpt lat="31.143273570805835" lon="-6.311398305033099"><ele>1321.0</ele><time>2026-04-24T16:01:59Z</time></trkpt><trkpt lat="31.14344921680796" lon="-6.311210530866749"><ele>1321.0</ele><time>2026-04-24T16:02:00Z</time></trkpt><trkpt lat="31.14362668036678" lon="-6.311023822236003"><ele>1321.0</ele><time>2026-04-24T16:02:01Z</time></trkpt><trkpt lat="31.143806603438563" lon="-6.310838201810813"><ele>1321.0</ele><time>2026-04-24T16:02:02Z</time></trkpt><trkpt lat="31.14398517744696" lon="-6.310651954936286"><ele>1321.0</ele><time>2026-04-24T16:02:03Z</time></trkpt><trkpt lat="31.144143247531495" lon="-6.3104476910088225"><ele>1323.5</ele><time>2026-04-24T16:02:04Z</time></trkpt><trkpt lat="31.144314304084944" lon="-6.310267064751476"><ele>1326.0</ele><time>2026-04-24T16:02:05Z</time></trkpt><trkpt lat="31.1444834530558" lon="-6.310098163565763"><ele>1326.0</ele><time>2026-04-24T16:02:06Z</time></trkpt><trkpt lat="31.144661331826867" lon="-6.309942687055412"><ele>1326.0</ele><time>2026-04-24T16:02:07Z</time></trkpt><trkpt lat="31.14482401970268" lon="-6.309771871580239"><ele>1326.0</ele><time>2026-04-24T16:02:08Z</time></trkpt><trkpt lat="31.144973307007966" lon="-6.3095890344091785"><ele>1324.6666666666667</ele><time>2026-04-24T16:02:09Z</time></trkpt><trkpt lat="31.14513103929208" lon="-6.309418978059859"><ele>1323.3333333333335</ele><time>2026-04-24T16:02:10Z</time></trkpt><trkpt lat="31.14530116480259" lon="-6.309260758351042"><ele>1322.0</ele><time>2026-04-24T16:02:11Z</time></trkpt><trkpt lat="31.145447557273815" lon="-6.309077592149656"><ele>1322.0</ele><time>2026-04-24T16:02:12Z</time></trkpt><trkpt lat="31.145603460402626" lon="-6.3089094980962575"><ele>1322.0</ele><time>2026-04-24T16:02:13Z</time></trkpt><trkpt lat="31.145760813638063" lon="-6.308749589544703"><ele>1322.0</ele><time>2026-04-24T16:02:14Z</time></trkpt><trkpt lat="31.145913374828798" lon="-6.308589789734318"><ele>1322.3333333333335</ele><time>2026-04-24T16:02:15.001Z</time></trkpt><trkpt lat="31.14606475867677" lon="-6.30841904751575"><ele>1322.6666666666667</ele><time>2026-04-24T16:02:16.001Z</time></trkpt><trkpt lat="31.146214279536864" lon="-6.308242258673889"><ele>1323.0</ele><time>2026-04-24T16:02:17.001Z</time></trkpt><trkpt lat="31.14635482924187" lon="-6.308052165531501"><ele>1323.3333333333333</ele><time>2026-04-24T16:02:18.001Z</time></trkpt><trkpt lat="31.146485828858175" lon="-6.307848181538593"><ele>1323.6666666666665</ele><time>2026-04-24T16:02:19.001Z</time></trkpt><trkpt lat="31.14660391030206" lon="-6.307628539675631"><ele>1324.0</ele><time>2026-04-24T16:02:20.001Z</time></trkpt><trkpt lat="31.146722499768124" lon="-6.307397016880543"><ele>1321.5</ele><time>2026-04-24T16:02:21.001Z</time></trkpt><trkpt lat="31.146841982222284" lon="-6.307161393942401"><ele>1319.0</ele><time>2026-04-24T16:02:22.001Z</time></trkpt><trkpt lat="31.146969121510782" lon="-6.3069230853843505"><ele>1319.0</ele><time>2026-04-24T16:02:23.001Z</time></trkpt><trkpt lat="31.14709391657604" lon="-6.306688830128441"><ele>1319.0</ele><time>2026-04-24T16:02:24.001Z</time></trkpt><trkpt lat="31.147209443757838" lon="-6.306451859278755"><ele>1319.0</ele><time>2026-04-24T16:02:25.001Z</time></trkpt><trkpt lat="31.14732069053621" lon="-6.306215233093168"><ele>1319.0</ele><time>2026-04-24T16:02:26.001Z</time></trkpt><trkpt lat="31.147429166608344" lon="-6.305984375859987"><ele>1319.0</ele><time>2026-04-24T16:02:27.001Z</time></trkpt><trkpt lat="31.147537516300396" lon="-6.3057547254352455"><ele>1319.0</ele><time>2026-04-24T16:02:28.001Z</time></trkpt><trkpt lat="31.147647044018296" lon="-6.305522761291339"><ele>1320.0</ele><time>2026-04-24T16:02:29.001Z</time></trkpt><trkpt lat="31.1477594698993" lon="-6.30528750012016"><ele>1321.0</ele><time>2026-04-24T16:02:30.001Z</time></trkpt><trkpt lat="31.147879320558076" lon="-6.3050556436927145"><ele>1321.0</ele><time>2026-04-24T16:02:31Z</time></trkpt><trkpt lat="31.147996739249198" lon="-6.304822752661728"><ele>1321.0</ele><time>2026-04-24T16:02:32Z</time></trkpt><trkpt lat="31.148121536957063" lon="-6.304592893816281"><ele>1318.5</ele><time>2026-04-24T16:02:33Z</time></trkpt><trkpt lat="31.14824953918827" lon="-6.304369811151644"><ele>1316.0</ele><time>2026-04-24T16:02:34Z</time></trkpt><trkpt lat="31.14838722921003" lon="-6.304158889988933"><ele>1316.0</ele><time>2026-04-24T16:02:35Z</time></trkpt><trkpt lat="31.14852463234894" lon="-6.303959053769805"><ele>1316.0</ele><time>2026-04-24T16:02:36Z</time></trkpt><trkpt lat="31.148656422484216" lon="-6.3037699506957425"><ele>1316.0</ele><time>2026-04-24T16:02:37Z</time></trkpt><trkpt lat="31.148780104175177" lon="-6.303588819088033"><ele>1315.3333333333335</ele><time>2026-04-24T16:02:38Z</time></trkpt><trkpt lat="31.14889601418496" lon="-6.303416941368235"><ele>1314.6666666666667</ele><time>2026-04-24T16:02:39Z</time></trkpt><trkpt lat="31.149006998623058" lon="-6.303252995526125"><ele>1314.0</ele><time>2026-04-24T16:02:40Z</time></trkpt><trkpt lat="31.149115001194605" lon="-6.303093425381747"><ele>1315.0</ele><time>2026-04-24T16:02:41Z</time></trkpt><trkpt lat="31.149222077159948" lon="-6.302934644934335"><ele>1316.0</ele><time>2026-04-24T16:02:42Z</time></trkpt><trkpt lat="31.149328572464555" lon="-6.302776725608211"><ele>1317.0</ele><time>2026-04-24T16:02:43Z</time></trkpt><trkpt lat="31.14943914743726" lon="-6.3026135379185755"><ele>1317.0</ele><time>2026-04-24T16:02:44Z</time></trkpt><trkpt lat="31.149551125791824" lon="-6.302447752540388"><ele>1317.0</ele><time>2026-04-24T16:02:45Z</time></trkpt><trkpt lat="31.149665511821105" lon="-6.302278402574533"><ele>1317.0</ele><time>2026-04-24T16:02:46Z</time></trkpt><trkpt lat="31.149782232051095" lon="-6.302105596792856"><ele>1316.6666666666667</ele><time>2026-04-24T16:02:47Z</time></trkpt><trkpt lat="31.149901519202842" lon="-6.301928677585465"><ele>1316.3333333333335</ele><time>2026-04-24T16:02:48Z</time></trkpt><trkpt lat="31.15002281543294" lon="-6.301748935191418"><ele>1316.0</ele><time>2026-04-24T16:02:49Z</time></trkpt><trkpt lat="31.150143107013065" lon="-6.301569882179039"><ele>1314.6666666666667</ele><time>2026-04-24T16:02:50Z</time></trkpt><trkpt lat="31.150261330749412" lon="-6.301395294821635"><ele>1313.3333333333333</ele><time>2026-04-24T16:02:51Z</time></trkpt><trkpt lat="31.150376032221704" lon="-6.301225551062886"><ele>1312.0</ele><time>2026-04-24T16:02:52Z</time></trkpt><trkpt lat="31.15049200312164" lon="-6.301053957837704"><ele>1312.0</ele><time>2026-04-24T16:02:53Z</time></trkpt><trkpt lat="31.15060876472052" lon="-6.300881087449771"><ele>1312.0</ele><time>2026-04-24T16:02:54Z</time></trkpt><trkpt lat="31.150725329249703" lon="-6.300706528472088"><ele>1312.0</ele><time>2026-04-24T16:02:55Z</time></trkpt><trkpt lat="31.1508357352576" lon="-6.300524087626686"><ele>1313.0</ele><time>2026-04-24T16:02:56Z</time></trkpt><trkpt lat="31.150946404291297" lon="-6.3003376837158"><ele>1314.0</ele><time>2026-04-24T16:02:57Z</time></trkpt><trkpt lat="31.15105961294589" lon="-6.300158829427639"><ele>1315.0</ele><time>2026-04-24T16:02:58Z</time></trkpt><trkpt lat="31.151165565856033" lon="-6.299988057385547"><ele>1315.0</ele><time>2026-04-24T16:02:59Z</time></trkpt><trkpt lat="31.151264316771638" lon="-6.299820827607834"><ele>1315.0</ele><time>2026-04-24T16:03:00Z</time></trkpt><trkpt lat="31.15136302477207" lon="-6.2996592224835215"><ele>1315.0</ele><time>2026-04-24T16:03:01Z</time></trkpt><trkpt lat="31.1514608799707" lon="-6.299500862283314"><ele>1316.0</ele><time>2026-04-24T16:03:02Z</time></trkpt><trkpt lat="31.151552019039645" lon="-6.29933798844696"><ele>1317.0</ele><time>2026-04-24T16:03:03Z</time></trkpt><trkpt lat="31.151644719836504" lon="-6.299176022385392"><ele>1318.0</ele><time>2026-04-24T16:03:04Z</time></trkpt><trkpt lat="31.15174102347273" lon="-6.299016637157036"><ele>1318.6666666666665</ele><time>2026-04-24T16:03:05Z</time></trkpt><trkpt lat="31.151836167846586" lon="-6.298860176390476"><ele>1319.3333333333333</ele><time>2026-04-24T16:03:06Z</time></trkpt><trkpt lat="31.151929845951518" lon="-6.29870609756476"><ele>1320.0</ele><time>2026-04-24T16:03:07Z</time></trkpt><trkpt lat="31.152024088079276" lon="-6.298551091054059"><ele>1320.0</ele><time>2026-04-24T16:03:08Z</time></trkpt><trkpt lat="31.152118590450428" lon="-6.298395656498175"><ele>1320.0</ele><time>2026-04-24T16:03:09Z</time></trkpt><trkpt lat="31.152214712621166" lon="-6.298237557748417"><ele>1320.0</ele><time>2026-04-24T16:03:10Z</time></trkpt><trkpt lat="31.15231368516486" lon="-6.29807417652601"><ele>1320.3333333333333</ele><time>2026-04-24T16:03:11Z</time></trkpt><trkpt lat="31.15241659630399" lon="-6.297904532110861"><ele>1320.6666666666665</ele><time>2026-04-24T16:03:12Z</time></trkpt><trkpt lat="31.152522004129043" lon="-6.297731144467326"><ele>1321.0</ele><time>2026-04-24T16:03:13Z</time></trkpt><trkpt lat="31.15263244472895" lon="-6.2975493840163255"><ele>1321.0</ele><time>2026-04-24T16:03:14Z</time></trkpt><trkpt lat="31.152743850365354" lon="-6.297364648102715"><ele>1321.0</ele><time>2026-04-24T16:03:15Z</time></trkpt><trkpt lat="31.152856687518106" lon="-6.297177429097353"><ele>1321.0</ele><time>2026-04-24T16:03:16Z</time></trkpt><trkpt lat="31.152970354930638" lon="-6.296989119582112"><ele>1320.6666666666665</ele><time>2026-04-24T16:03:17Z</time></trkpt><trkpt lat="31.15308339088003" lon="-6.296802293850252"><ele>1320.3333333333333</ele><time>2026-04-24T16:03:18Z</time></trkpt><trkpt lat="31.153194962409223" lon="-6.296617888394133"><ele>1320.0</ele><time>2026-04-24T16:03:19Z</time></trkpt><trkpt lat="31.153306715481136" lon="-6.296433182848063"><ele>1320.3333333333333</ele><time>2026-04-24T16:03:20Z</time></trkpt><trkpt lat="31.153416894880216" lon="-6.2962521689615665"><ele>1320.6666666666665</ele><time>2026-04-24T16:03:21Z</time></trkpt><trkpt lat="31.153537301855472" lon="-6.2960849755983626"><ele>1321.0</ele><time>2026-04-24T16:03:22Z</time></trkpt><trkpt lat="31.15364246695045" lon="-6.295907135326401"><ele>1321.0</ele><time>2026-04-24T16:03:23Z</time></trkpt><trkpt lat="31.15374917272516" lon="-6.295729563188596"><ele>1321.0</ele><time>2026-04-24T16:03:24Z</time></trkpt><trkpt lat="31.153856145750204" lon="-6.295550374787211"><ele>1321.0</ele><time>2026-04-24T16:03:25Z</time></trkpt><trkpt lat="31.153963648692446" lon="-6.29536932485057"><ele>1321.3333333333333</ele><time>2026-04-24T16:03:26Z</time></trkpt><trkpt lat="31.154071969989204" lon="-6.295188641734649"><ele>1321.6666666666667</ele><time>2026-04-24T16:03:27Z</time></trkpt><trkpt lat="31.154179065191446" lon="-6.2950145023303055"><ele>1322.0</ele><time>2026-04-24T16:03:28Z</time></trkpt><trkpt lat="31.15428049332265" lon="-6.2948508490863775"><ele>1322.3333333333335</ele><time>2026-04-24T16:03:29Z</time></trkpt><trkpt lat="31.154382456585324" lon="-6.294685787844126"><ele>1322.6666666666667</ele><time>2026-04-24T16:03:30Z</time></trkpt><trkpt lat="31.154483600370106" lon="-6.294522417912126"><ele>1323.0</ele><time>2026-04-24T16:03:31Z</time></trkpt><trkpt lat="31.154583554311767" lon="-6.294355663768404"><ele>1323.0</ele><time>2026-04-24T16:03:32Z</time></trkpt><trkpt lat="31.154682677522615" lon="-6.294193627565485"><ele>1323.0</ele><time>2026-04-24T16:03:33Z</time></trkpt><trkpt lat="31.154779277834976" lon="-6.294035238767956"><ele>1323.0</ele><time>2026-04-24T16:03:34Z</time></trkpt><trkpt lat="31.154875617112904" lon="-6.29387660139362"><ele>1323.3333333333333</ele><time>2026-04-24T16:03:35Z</time></trkpt><trkpt lat="31.154975430849756" lon="-6.2937154738983825"><ele>1323.6666666666665</ele><time>2026-04-24T16:03:36Z</time></trkpt><trkpt lat="31.155073827133133" lon="-6.29354953977859"><ele>1324.0</ele><time>2026-04-24T16:03:37Z</time></trkpt><trkpt lat="31.155175231642705" lon="-6.293375765168066"><ele>1324.0</ele><time>2026-04-24T16:03:38Z</time></trkpt><trkpt lat="31.155277563823425" lon="-6.293205718825378"><ele>1324.0</ele><time>2026-04-24T16:03:39Z</time></trkpt><trkpt lat="31.15538091475733" lon="-6.293030588211639"><ele>1324.0</ele><time>2026-04-24T16:03:40Z</time></trkpt><trkpt lat="31.155485566568156" lon="-6.292853209327594"><ele>1323.6666666666665</ele><time>2026-04-24T16:03:41Z</time></trkpt><trkpt lat="31.155590767753402" lon="-6.2926772215413695"><ele>1323.3333333333333</ele><time>2026-04-24T16:03:42Z</time></trkpt><trkpt lat="31.155696667774947" lon="-6.292502553077528"><ele>1323.0</ele><time>2026-04-24T16:03:43Z</time></trkpt><trkpt lat="31.155802191464677" lon="-6.292327206322846"><ele>1322.6666666666667</ele><time>2026-04-24T16:03:44Z</time></trkpt><trkpt lat="31.15590546400733" lon="-6.292149694745665"><ele>1322.3333333333335</ele><time>2026-04-24T16:03:45Z</time></trkpt><trkpt lat="31.15601050302018" lon="-6.291969861105157"><ele>1322.0</ele><time>2026-04-24T16:03:46Z</time></trkpt><trkpt lat="31.15611972203471" lon="-6.291792165863474"><ele>1322.0</ele><time>2026-04-24T16:03:47Z</time></trkpt><trkpt lat="31.156228661522885" lon="-6.291612333875338"><ele>1322.0</ele><time>2026-04-24T16:03:48Z</time></trkpt><trkpt lat="31.15633517840861" lon="-6.291440230690373"><ele>1322.0</ele><time>2026-04-24T16:03:49Z</time></trkpt><trkpt lat="31.156437906925948" lon="-6.2912700997190125"><ele>1323.3333333333335</ele><time>2026-04-24T16:03:50Z</time></trkpt><trkpt lat="31.15653818730042" lon="-6.291103607175488"><ele>1324.6666666666667</ele><time>2026-04-24T16:03:51Z</time></trkpt><trkpt lat="31.156637640978833" lon="-6.290937738105322"><ele>1326.0</ele><time>2026-04-24T16:03:52Z</time></trkpt><trkpt lat="31.15673891927225" lon="-6.290769458833583"><ele>1326.0</ele><time>2026-04-24T16:03:53Z</time></trkpt><trkpt lat="31.156842600595343" lon="-6.290602338100399"><ele>1326.0</ele><time>2026-04-24T16:03:54Z</time></trkpt><trkpt lat="31.15694473377409" lon="-6.2904337737077745"><ele>1326.0</ele><time>2026-04-24T16:03:55Z</time></trkpt><trkpt lat="31.15704533271733" lon="-6.290261894352711"><ele>1325.6666666666667</ele><time>2026-04-24T16:03:56Z</time></trkpt><trkpt lat="31.157143962875885" lon="-6.290093149157766"><ele>1325.3333333333335</ele><time>2026-04-24T16:03:57Z</time></trkpt><trkpt lat="31.157242087007166" lon="-6.2899278576550754"><ele>1325.0</ele><time>2026-04-24T16:03:58Z</time></trkpt><trkpt lat="31.15734228656781" lon="-6.289756995840761"><ele>1325.0</ele><time>2026-04-24T16:03:59Z</time></trkpt><trkpt lat="31.157437778686813" lon="-6.2895818901730856"><ele>1325.0</ele><time>2026-04-24T16:04:00Z</time></trkpt><trkpt lat="31.157526729076586" lon="-6.289399774822657"><ele>1325.0</ele><time>2026-04-24T16:04:01Z</time></trkpt><trkpt lat="31.157614593661645" lon="-6.289211728290157"><ele>1325.0</ele><time>2026-04-24T16:04:02Z</time></trkpt><trkpt lat="31.157698724102886" lon="-6.2890179011089895"><ele>1325.0</ele><time>2026-04-24T16:04:03Z</time></trkpt><trkpt lat="31.1577756463309" lon="-6.288816894295919"><ele>1325.0</ele><time>2026-04-24T16:04:04Z</time></trkpt><trkpt lat="31.157852135509952" lon="-6.288614814611504"><ele>1325.0</ele><time>2026-04-24T16:04:05Z</time></trkpt><trkpt lat="31.15793065603253" lon="-6.288411795172291"><ele>1325.0</ele><time>2026-04-24T16:04:06Z</time></trkpt><trkpt lat="31.158009260270365" lon="-6.288205630370373"><ele>1325.0</ele><time>2026-04-24T16:04:07Z</time></trkpt><trkpt lat="31.15808895803128" lon="-6.288000505513162"><ele>1326.0</ele><time>2026-04-24T16:04:08Z</time></trkpt><trkpt lat="31.158166252719624" lon="-6.287800671259727"><ele>1327.0</ele><time>2026-04-24T16:04:09Z</time></trkpt><trkpt lat="31.158241178022255" lon="-6.287606531612465"><ele>1328.0</ele><time>2026-04-24T16:04:10Z</time></trkpt><trkpt lat="31.158312879119208" lon="-6.287419486782696"><ele>1328.3333333333335</ele><time>2026-04-24T16:04:11Z</time></trkpt><trkpt lat="31.15838207955339" lon="-6.2872384176346126"><ele>1328.6666666666667</ele><time>2026-04-24T16:04:12Z</time></trkpt><trkpt lat="31.158451702163664" lon="-6.287062641152465"><ele>1329.0</ele><time>2026-04-24T16:04:13Z</time></trkpt><trkpt lat="31.158521807866975" lon="-6.286886719172832"><ele>1329.0</ele><time>2026-04-24T16:04:14Z</time></trkpt><trkpt lat="31.158588625820116" lon="-6.286708400140359"><ele>1329.0</ele><time>2026-04-24T16:04:15Z</time></trkpt><trkpt lat="31.158652498248735" lon="-6.286529314316874"><ele>1329.0</ele><time>2026-04-24T16:04:16Z</time></trkpt><trkpt lat="31.158717906270844" lon="-6.286348124258112"><ele>1329.6666666666667</ele><time>2026-04-24T16:04:17Z</time></trkpt><trkpt lat="31.158786039041694" lon="-6.286169309832992"><ele>1330.3333333333335</ele><time>2026-04-24T16:04:18Z</time></trkpt><trkpt lat="31.15885775000913" lon="-6.285988545325309"><ele>1331.0</ele><time>2026-04-24T16:04:19Z</time></trkpt><trkpt lat="31.1589312868965" lon="-6.285805046076031"><ele>1331.0</ele><time>2026-04-24T16:04:20Z</time></trkpt><trkpt lat="31.159007454593226" lon="-6.285620738737398"><ele>1331.0</ele><time>2026-04-24T16:04:21Z</time></trkpt><trkpt lat="31.159090738000703" lon="-6.285430177944085"><ele>1331.0</ele><time>2026-04-24T16:04:22Z</time></trkpt><trkpt lat="31.159185353291274" lon="-6.285239158884423"><ele>1332.0</ele><time>2026-04-24T16:04:23Z</time></trkpt><trkpt lat="31.159292891379007" lon="-6.285046383396744"><ele>1333.0</ele><time>2026-04-24T16:04:24Z</time></trkpt><trkpt lat="31.159417032106568" lon="-6.2848514318512"><ele>1334.0</ele><time>2026-04-24T16:04:25Z</time></trkpt><trkpt lat="31.15956701156832" lon="-6.2846466555415175"><ele>1334.0</ele><time>2026-04-24T16:04:26Z</time></trkpt><trkpt lat="31.15972688670773" lon="-6.284436866545017"><ele>1334.0</ele><time>2026-04-24T16:04:27Z</time></trkpt><trkpt lat="31.159890434127885" lon="-6.284228713575384"><ele>1333.0</ele><time>2026-04-24T16:04:28Z</time></trkpt><trkpt lat="31.160054248958478" lon="-6.284016419931804"><ele>1332.0</ele><time>2026-04-24T16:04:29Z</time></trkpt><trkpt lat="31.16022604581078" lon="-6.2837948688340965"><ele>1332.0</ele><time>2026-04-24T16:04:30Z</time></trkpt><trkpt lat="31.160416773717888" lon="-6.283544961385861"><ele>1332.0</ele><time>2026-04-24T16:04:31Z</time></trkpt><trkpt lat="31.160631213388708" lon="-6.283257160316147"><ele>1332.5</ele><time>2026-04-24T16:04:32Z</time></trkpt><trkpt lat="31.160865012277952" lon="-6.282936758653696"><ele>1333.0</ele><time>2026-04-24T16:04:33Z</time></trkpt><trkpt lat="31.161104999176096" lon="-6.282603403783144"><ele>1333.0</ele><time>2026-04-24T16:04:34Z</time></trkpt><trkpt lat="31.161318850713652" lon="-6.282296154975368"><ele>1333.0</ele><time>2026-04-24T16:04:35Z</time></trkpt><trkpt lat="31.16152370579336" lon="-6.282012413639604"><ele>1333.5</ele><time>2026-04-24T16:04:36Z</time></trkpt><trkpt lat="31.161721311779573" lon="-6.281746016598285"><ele>1334.0</ele><time>2026-04-24T16:04:37Z</time></trkpt><trkpt lat="31.161911528998623" lon="-6.281493289269235"><ele>1334.5</ele><time>2026-04-24T16:04:38Z</time></trkpt><trkpt lat="31.16209204166813" lon="-6.281249508574328"><ele>1335.0</ele><time>2026-04-24T16:04:39Z</time></trkpt><trkpt lat="31.162269120235695" lon="-6.281011890437258"><ele>1335.5</ele><time>2026-04-24T16:04:40Z</time></trkpt><trkpt lat="31.16244233797349" lon="-6.280782546014535"><ele>1336.0</ele><time>2026-04-24T16:04:41Z</time></trkpt><trkpt lat="31.16260811369477" lon="-6.280565778257034"><ele>1336.0</ele><time>2026-04-24T16:04:42Z</time></trkpt><trkpt lat="31.162766446477058" lon="-6.280352185979781"><ele>1336.0</ele><time>2026-04-24T16:04:43Z</time></trkpt><trkpt lat="31.16291531283854" lon="-6.2801359008314375"><ele>1336.0</ele><time>2026-04-24T16:04:44Z</time></trkpt><trkpt lat="31.163061189506003" lon="-6.279909543189098"><ele>1336.0</ele><time>2026-04-24T16:04:45Z</time></trkpt><trkpt lat="31.1632028428511" lon="-6.279671887439486"><ele>1335.5</ele><time>2026-04-24T16:04:46Z</time></trkpt><trkpt lat="31.163337558180963" lon="-6.279421254332446"><ele>1335.0</ele><time>2026-04-24T16:04:47Z</time></trkpt><trkpt lat="31.163468946654913" lon="-6.279170470582434"><ele>1337.0</ele><time>2026-04-24T16:04:48Z</time></trkpt><trkpt lat="31.163598000749733" lon="-6.2789218587930895"><ele>1339.0</ele><time>2026-04-24T16:04:49Z</time></trkpt><trkpt lat="31.163726564705673" lon="-6.278676637045019"><ele>1339.0</ele><time>2026-04-24T16:04:50Z</time></trkpt><trkpt lat="31.16386188702901" lon="-6.2784221817428945"><ele>1339.0</ele><time>2026-04-24T16:04:51Z</time></trkpt><trkpt lat="31.164002833458767" lon="-6.278153646398719"><ele>1337.0</ele><time>2026-04-24T16:04:52Z</time></trkpt><trkpt lat="31.16414656412662" lon="-6.27787173741483"><ele>1335.0</ele><time>2026-04-24T16:04:53Z</time></trkpt><trkpt lat="31.164293047761706" lon="-6.277571114953574"><ele>1336.5</ele><time>2026-04-24T16:04:54Z</time></trkpt><trkpt lat="31.164444465861425" lon="-6.277257554700901"><ele>1338.0</ele><time>2026-04-24T16:04:55Z</time></trkpt><trkpt lat="31.16460054290613" lon="-6.276939702429393"><ele>1338.0</ele><time>2026-04-24T16:04:56Z</time></trkpt><trkpt lat="31.164755923324602" lon="-6.2766220423617956"><ele>1338.0</ele><time>2026-04-24T16:04:57Z</time></trkpt><trkpt lat="31.164915478812325" lon="-6.276302622256604"><ele>1339.5</ele><time>2026-04-24T16:04:58Z</time></trkpt><trkpt lat="31.16507809087146" lon="-6.275981137255995"><ele>1341.0</ele><time>2026-04-24T16:04:59Z</time></trkpt><trkpt lat="31.165243491991202" lon="-6.275657238347097"><ele>1341.0</ele><time>2026-04-24T16:05:00Z</time></trkpt><trkpt lat="31.165410406423472" lon="-6.27533072121618"><ele>1341.0</ele><time>2026-04-24T16:05:01Z</time></trkpt><trkpt lat="31.165574427457006" lon="-6.27500866527544"><ele>1341.0</ele><time>2026-04-24T16:05:02Z</time></trkpt><trkpt lat="31.165733326146167" lon="-6.274700541610303"><ele>1341.0</ele><time>2026-04-24T16:05:03Z</time></trkpt><trkpt lat="31.16588903009531" lon="-6.274395266008589"><ele>1341.0</ele><time>2026-04-24T16:05:04Z</time></trkpt><trkpt lat="31.166039562956048" lon="-6.274101489253164"><ele>1341.0</ele><time>2026-04-24T16:05:05Z</time></trkpt><trkpt lat="31.166183026092675" lon="-6.273816262915911"><ele>1342.0</ele><time>2026-04-24T16:05:06Z</time></trkpt><trkpt lat="31.166325027870474" lon="-6.273534420873147"><ele>1343.0</ele><time>2026-04-24T16:05:07Z</time></trkpt><trkpt lat="31.166468652193014" lon="-6.27325115376162"><ele>1341.0</ele><time>2026-04-24T16:05:08Z</time></trkpt><trkpt lat="31.166615529916765" lon="-6.2729619648990615"><ele>1339.0</ele><time>2026-04-24T16:05:09Z</time></trkpt><trkpt lat="31.16676569073414" lon="-6.272669361754151"><ele>1339.0</ele><time>2026-04-24T16:05:10Z</time></trkpt><trkpt lat="31.16691420355669" lon="-6.272378345374078"><ele>1339.0</ele><time>2026-04-24T16:05:11Z</time></trkpt><trkpt lat="31.167064073658366" lon="-6.272081434108394"><ele>1340.0</ele><time>2026-04-24T16:05:12Z</time></trkpt><trkpt lat="31.16721400578951" lon="-6.271785971703559"><ele>1341.0</ele><time>2026-04-24T16:05:13Z</time></trkpt><trkpt lat="31.167361918578692" lon="-6.2714955625114195"><ele>1343.0</ele><time>2026-04-24T16:05:14Z</time></trkpt><trkpt lat="31.16750832995284" lon="-6.271209030050443"><ele>1345.0</ele><time>2026-04-24T16:05:15Z</time></trkpt><trkpt lat="31.16765297639902" lon="-6.270925221035957"><ele>1345.0</ele><time>2026-04-24T16:05:16Z</time></trkpt><trkpt lat="31.167799045871753" lon="-6.270638775473671"><ele>1345.0</ele><time>2026-04-24T16:05:17Z</time></trkpt><trkpt lat="31.167947832035804" lon="-6.270347938222722"><ele>1345.5</ele><time>2026-04-24T16:05:18Z</time></trkpt><trkpt lat="31.168092430540348" lon="-6.270064652479125"><ele>1346.0</ele><time>2026-04-24T16:05:19Z</time></trkpt><trkpt lat="31.168235865091166" lon="-6.269783978883017"><ele>1346.0</ele><time>2026-04-24T16:05:20Z</time></trkpt><trkpt lat="31.16838018125903" lon="-6.269502488815061"><ele>1346.0</ele><time>2026-04-24T16:05:21Z</time></trkpt><trkpt lat="31.168527473949286" lon="-6.269213268666004"><ele>1345.5</ele><time>2026-04-24T16:05:22Z</time></trkpt><trkpt lat="31.168675717299237" lon="-6.268921976637178"><ele>1345.0</ele><time>2026-04-24T16:05:23Z</time></trkpt><trkpt lat="31.168823410760147" lon="-6.268630736732088"><ele>1345.0</ele><time>2026-04-24T16:05:24Z</time></trkpt><trkpt lat="31.168969525552345" lon="-6.2683405960497804"><ele>1345.0</ele><time>2026-04-24T16:05:25Z</time></trkpt><trkpt lat="31.16911458435499" lon="-6.268053849118597"><ele>1346.5</ele><time>2026-04-24T16:05:26Z</time></trkpt><trkpt lat="31.16925766661357" lon="-6.2677711920312404"><ele>1348.0</ele><time>2026-04-24T16:05:27Z</time></trkpt><trkpt lat="31.169395862024558" lon="-6.2674983811688865"><ele>1350.0</ele><time>2026-04-24T16:05:28Z</time></trkpt><trkpt lat="31.169516753349086" lon="-6.267254379676607"><ele>1352.0</ele><time>2026-04-24T16:05:29Z</time></trkpt><trkpt lat="31.169635866483762" lon="-6.267018610767185"><ele>1352.0</ele><time>2026-04-24T16:05:30Z</time></trkpt><trkpt lat="31.169756523731454" lon="-6.266785599397811"><ele>1352.0</ele><time>2026-04-24T16:05:31Z</time></trkpt><trkpt lat="31.169880321700738" lon="-6.2665483692549975"><ele>1351.0</ele><time>2026-04-24T16:05:32Z</time></trkpt><trkpt lat="31.170007503471766" lon="-6.266308448190536"><ele>1350.0</ele><time>2026-04-24T16:05:33Z</time></trkpt><trkpt lat="31.17013617762906" lon="-6.266066184320109"><ele>1350.0</ele><time>2026-04-24T16:05:34Z</time></trkpt><trkpt lat="31.170266272851762" lon="-6.265822997048979"><ele>1350.0</ele><time>2026-04-24T16:05:35Z</time></trkpt><trkpt lat="31.1704000635615" lon="-6.265576973880403"><ele>1351.5</ele><time>2026-04-24T16:05:36Z</time></trkpt><trkpt lat="31.170533914999332" lon="-6.265335901594931"><ele>1353.0</ele><time>2026-04-24T16:05:37Z</time></trkpt><trkpt lat="31.170667444351636" lon="-6.265100116961165"><ele>1353.5</ele><time>2026-04-24T16:05:38Z</time></trkpt><trkpt lat="31.1708006422704" lon="-6.264867510061448"><ele>1354.0</ele><time>2026-04-24T16:05:39Z</time></trkpt><trkpt lat="31.17093355934949" lon="-6.264635692573923"><ele>1354.0</ele><time>2026-04-24T16:05:40Z</time></trkpt><trkpt lat="31.17106569778513" lon="-6.264406642142165"><ele>1354.0</ele><time>2026-04-24T16:05:41Z</time></trkpt><trkpt lat="31.171183492923124" lon="-6.264205018732237"><ele>1354.0</ele><time>2026-04-24T16:05:42Z</time></trkpt><trkpt lat="31.17128115053698" lon="-6.264040825314976"><ele>1354.25</ele><time>2026-04-24T16:05:43Z</time></trkpt><trkpt lat="31.17135677453994" lon="-6.263915657744284"><ele>1354.5</ele><time>2026-04-24T16:05:44Z</time></trkpt><trkpt lat="31.171423910929636" lon="-6.263808150390273"><ele>1354.75</ele><time>2026-04-24T16:05:45Z</time></trkpt><trkpt lat="31.17149310588718" lon="-6.263694932445238"><ele>1355.0</ele><time>2026-04-24T16:05:46Z</time></trkpt><trkpt lat="31.17155742555861" lon="-6.263569783176928"><ele>1355.0</ele><time>2026-04-24T16:05:47Z</time></trkpt><trkpt lat="31.171629606969944" lon="-6.263429081097936"><ele>1355.0</ele><time>2026-04-24T16:05:48Z</time></trkpt><trkpt lat="31.17171467864846" lon="-6.263278791982943"><ele>1355.0</ele><time>2026-04-24T16:05:49Z</time></trkpt><trkpt lat="31.171801219854466" lon="-6.263127845007386"><ele>1355.0</ele><time>2026-04-24T16:05:50Z</time></trkpt><trkpt lat="31.171897047321618" lon="-6.2629647382823315"><ele>1355.0</ele><time>2026-04-24T16:05:51Z</time></trkpt><trkpt lat="31.17200102999513" lon="-6.262787870864648"><ele>1355.0</ele><time>2026-04-24T16:05:52Z</time></trkpt><trkpt lat="31.172111997189763" lon="-6.262595707167107"><ele>1355.0</ele><time>2026-04-24T16:05:53Z</time></trkpt><trkpt lat="31.17222858121975" lon="-6.262393927315702"><ele>1355.0</ele><time>2026-04-24T16:05:54Z</time></trkpt><trkpt lat="31.172349746063762" lon="-6.26218647615696"><ele>1355.0</ele><time>2026-04-24T16:05:55Z</time></trkpt><trkpt lat="31.172472548388356" lon="-6.261973808705246"><ele>1357.0</ele><time>2026-04-24T16:05:56Z</time></trkpt><trkpt lat="31.172600640361182" lon="-6.261751730388679"><ele>1359.0</ele><time>2026-04-24T16:05:57Z</time></trkpt><trkpt lat="31.172735266915776" lon="-6.2615175247939145"><ele>1358.0</ele><time>2026-04-24T16:05:58Z</time></trkpt><trkpt lat="31.172875021544762" lon="-6.2612726864777475"><ele>1357.0</ele><time>2026-04-24T16:05:59Z</time></trkpt><trkpt lat="31.173018154985918" lon="-6.261020004432711"><ele>1357.0</ele><time>2026-04-24T16:06:00Z</time></trkpt><trkpt lat="31.173167401299665" lon="-6.260761189180637"><ele>1357.0</ele><time>2026-04-24T16:06:01Z</time></trkpt><trkpt lat="31.173323960771665" lon="-6.260495124312946"><ele>1358.5</ele><time>2026-04-24T16:06:02Z</time></trkpt><trkpt lat="31.17348563431821" lon="-6.260219573500496"><ele>1360.0</ele><time>2026-04-24T16:06:03Z</time></trkpt><trkpt lat="31.173650402535575" lon="-6.259937201229391"><ele>1359.0</ele><time>2026-04-24T16:06:04Z</time></trkpt><trkpt lat="31.173818379670767" lon="-6.259648075023749"><ele>1358.0</ele><time>2026-04-24T16:06:05Z</time></trkpt><trkpt lat="31.17398838784079" lon="-6.259354747779261"><ele>1357.5</ele><time>2026-04-24T16:06:06Z</time></trkpt><trkpt lat="31.174155993396116" lon="-6.259064898422027"><ele>1357.0</ele><time>2026-04-24T16:06:07Z</time></trkpt><trkpt lat="31.17432321930541" lon="-6.258774311089181"><ele>1355.5</ele><time>2026-04-24T16:06:08Z</time></trkpt><trkpt lat="31.17449075650265" lon="-6.258489106060337"><ele>1354.0</ele><time>2026-04-24T16:06:09Z</time></trkpt><trkpt lat="31.174659726166148" lon="-6.258205758372446"><ele>1353.0</ele><time>2026-04-24T16:06:10Z</time></trkpt><trkpt lat="31.174825260518535" lon="-6.2579251516992045"><ele>1352.0</ele><time>2026-04-24T16:06:11Z</time></trkpt><trkpt lat="31.174987927328452" lon="-6.25764549891291"><ele>1352.0</ele><time>2026-04-24T16:06:12Z</time></trkpt><trkpt lat="31.175150391036727" lon="-6.257364872951785"><ele>1352.0</ele><time>2026-04-24T16:06:13Z</time></trkpt><trkpt lat="31.175312057859244" lon="-6.257084234687942"><ele>1352.0</ele><time>2026-04-24T16:06:14Z</time></trkpt><trkpt lat="31.175473469811063" lon="-6.25680346832785"><ele>1352.0</ele><time>2026-04-24T16:06:15Z</time></trkpt><trkpt lat="31.17563460582298" lon="-6.256525575335095"><ele>1352.0</ele><time>2026-04-24T16:06:16Z</time></trkpt><trkpt lat="31.1757947568983" lon="-6.256247927542774"><ele>1352.0</ele><time>2026-04-24T16:06:17Z</time></trkpt><trkpt lat="31.175954960208276" lon="-6.255972822614138"><ele>1352.0</ele><time>2026-04-24T16:06:18Z</time></trkpt><trkpt lat="31.176115683911085" lon="-6.255697982472181"><ele>1352.0</ele><time>2026-04-24T16:06:19Z</time></trkpt><trkpt lat="31.176273140977713" lon="-6.2554199822887595"><ele>1352.5</ele><time>2026-04-24T16:06:20Z</time></trkpt><trkpt lat="31.17643263395351" lon="-6.255144909473595"><ele>1353.0</ele><time>2026-04-24T16:06:21Z</time></trkpt><trkpt lat="31.176591021977792" lon="-6.254874276485953"><ele>1354.0</ele><time>2026-04-24T16:06:22Z</time></trkpt><trkpt lat="31.176750849672867" lon="-6.254601105021378"><ele>1355.0</ele><time>2026-04-24T16:06:23Z</time></trkpt><trkpt lat="31.176911979108354" lon="-6.254324260093537"><ele>1355.0</ele><time>2026-04-24T16:06:24Z</time></trkpt><trkpt lat="31.177071676082782" lon="-6.254048703280352"><ele>1355.0</ele><time>2026-04-24T16:06:25Z</time></trkpt><trkpt lat="31.177232628114727" lon="-6.253772343802816"><ele>1356.0</ele><time>2026-04-24T16:06:26Z</time></trkpt><trkpt lat="31.17739488783345" lon="-6.253490278634433"><ele>1357.0</ele><time>2026-04-24T16:06:27.001Z</time></trkpt><trkpt lat="31.177557828154086" lon="-6.2532090932109545"><ele>1357.0</ele><time>2026-04-24T16:06:28.001Z</time></trkpt><trkpt lat="31.1777216034037" lon="-6.252928228425719"><ele>1357.0</ele><time>2026-04-24T16:06:29.001Z</time></trkpt><trkpt lat="31.177886166515563" lon="-6.252646938182507"><ele>1357.0</ele><time>2026-04-24T16:06:30.001Z</time></trkpt><trkpt lat="31.178049951390093" lon="-6.252363539018218"><ele>1357.0</ele><time>2026-04-24T16:06:31.001Z</time></trkpt><trkpt lat="31.17821392308911" lon="-6.2520760897703"><ele>1357.0</ele><time>2026-04-24T16:06:32.001Z</time></trkpt><trkpt lat="31.178378126019766" lon="-6.251788813947883"><ele>1357.0</ele><time>2026-04-24T16:06:33.001Z</time></trkpt><trkpt lat="31.178544125964894" lon="-6.251504298631473"><ele>1358.5</ele><time>2026-04-24T16:06:34.001Z</time></trkpt><trkpt lat="31.178710425801544" lon="-6.251223511155676"><ele>1360.0</ele><time>2026-04-24T16:06:35.001Z</time></trkpt><trkpt lat="31.178874152569573" lon="-6.250946033460868"><ele>1361.0</ele><time>2026-04-24T16:06:36.001Z</time></trkpt><trkpt lat="31.17903623253244" lon="-6.250667362115368"><ele>1362.0</ele><time>2026-04-24T16:06:37.001Z</time></trkpt><trkpt lat="31.179199380293817" lon="-6.250384661002287"><ele>1362.0</ele><time>2026-04-24T16:06:38.001Z</time></trkpt><trkpt lat="31.17936432266663" lon="-6.250102532856044"><ele>1362.0</ele><time>2026-04-24T16:06:39.001Z</time></trkpt><trkpt lat="31.179527594489684" lon="-6.2498248840718995"><ele>1362.0</ele><time>2026-04-24T16:06:40.001Z</time></trkpt><trkpt lat="31.179689944306517" lon="-6.249547791494066"><ele>1362.0</ele><time>2026-04-24T16:06:41.001Z</time></trkpt><trkpt lat="31.17985086615122" lon="-6.249270794242614"><ele>1362.0</ele><time>2026-04-24T16:06:42.001Z</time></trkpt><trkpt lat="31.180010486061008" lon="-6.2489958413680196"><ele>1362.0</ele><time>2026-04-24T16:06:43.001Z</time></trkpt><trkpt lat="31.180170212148624" lon="-6.248722155677369"><ele>1361.5</ele><time>2026-04-24T16:06:44Z</time></trkpt><trkpt lat="31.18032783143866" lon="-6.248450079491167"><ele>1361.0</ele><time>2026-04-24T16:06:45Z</time></trkpt><trkpt lat="31.180486045575524" lon="-6.248177383482131"><ele>1361.0</ele><time>2026-04-24T16:06:46Z</time></trkpt><trkpt lat="31.18064240669922" lon="-6.2479045337863734"><ele>1361.0</ele><time>2026-04-24T16:06:47Z</time></trkpt><trkpt lat="31.180797271826236" lon="-6.247627305989349"><ele>1361.0</ele><time>2026-04-24T16:06:48Z</time></trkpt><trkpt lat="31.18095095336394" lon="-6.247340873342155"><ele>1361.0</ele><time>2026-04-24T16:06:49Z</time></trkpt><trkpt lat="31.181097672507914" lon="-6.24704405697884"><ele>1361.0</ele><time>2026-04-24T16:06:50Z</time></trkpt><trkpt lat="31.181235941810083" lon="-6.246732662492563"><ele>1361.0</ele><time>2026-04-24T16:06:51Z</time></trkpt><trkpt lat="31.18137062404648" lon="-6.246411211445612"><ele>1361.0</ele><time>2026-04-24T16:06:52Z</time></trkpt><trkpt lat="31.181498980409213" lon="-6.246084558487901"><ele>1361.0</ele><time>2026-04-24T16:06:53Z</time></trkpt><trkpt lat="31.181621538076946" lon="-6.245753945842892"><ele>1360.0</ele><time>2026-04-24T16:06:54Z</time></trkpt><trkpt lat="31.181738476779483" lon="-6.2454248667677055"><ele>1359.0</ele><time>2026-04-24T16:06:55Z</time></trkpt><trkpt lat="31.181851805988195" lon="-6.245098482317791"><ele>1359.0</ele><time>2026-04-24T16:06:56Z</time></trkpt><trkpt lat="31.18196098101775" lon="-6.244778118203161"><ele>1359.0</ele><time>2026-04-24T16:06:57Z</time></trkpt><trkpt lat="31.182063691402693" lon="-6.244474224401513"><ele>1359.0</ele><time>2026-04-24T16:06:58Z</time></trkpt><trkpt lat="31.182158862768137" lon="-6.24419016630223"><ele>1359.0</ele><time>2026-04-24T16:06:59Z</time></trkpt><trkpt lat="31.182248801683613" lon="-6.243923924270908"><ele>1360.0</ele><time>2026-04-24T16:07:00Z</time></trkpt><trkpt lat="31.182336543101957" lon="-6.243669454749664"><ele>1361.0</ele><time>2026-04-24T16:07:01Z</time></trkpt><trkpt lat="31.182416151593873" lon="-6.243440283374818"><ele>1362.0</ele><time>2026-04-24T16:07:02Z</time></trkpt><trkpt lat="31.182489614656728" lon="-6.24322502503881"><ele>1363.0</ele><time>2026-04-24T16:07:03Z</time></trkpt><trkpt lat="31.182562384718118" lon="-6.243013858454718"><ele>1364.0</ele><time>2026-04-24T16:07:04Z</time></trkpt><trkpt lat="31.182643462162737" lon="-6.242793558366288"><ele>1365.0</ele><time>2026-04-24T16:07:05Z</time></trkpt><trkpt lat="31.182729267600017" lon="-6.2425638651910855"><ele>1365.0</ele><time>2026-04-24T16:07:06Z</time></trkpt><trkpt lat="31.18279502968299" lon="-6.2423237012112756"><ele>1365.0</ele><time>2026-04-24T16:07:07Z</time></trkpt><trkpt lat="31.182868849681316" lon="-6.242106763921549"><ele>1365.0</ele><time>2026-04-24T16:07:08Z</time></trkpt><trkpt lat="31.182948438927898" lon="-6.241905164830697"><ele>1364.6666666666667</ele><time>2026-04-24T16:07:09Z</time></trkpt><trkpt lat="31.18301223187545" lon="-6.241687091141709"><ele>1364.3333333333335</ele><time>2026-04-24T16:07:10Z</time></trkpt><trkpt lat="31.18308531382955" lon="-6.241454844671086"><ele>1364.0</ele><time>2026-04-24T16:07:11Z</time></trkpt><trkpt lat="31.183166003777455" lon="-6.241216734768172"><ele>1365.3333333333335</ele><time>2026-04-24T16:07:12Z</time></trkpt><trkpt lat="31.183247641101307" lon="-6.2409775411442485"><ele>1366.6666666666667</ele><time>2026-04-24T16:07:13Z</time></trkpt><trkpt lat="31.183327099849585" lon="-6.24073761292015"><ele>1368.0</ele><time>2026-04-24T16:07:14Z</time></trkpt><trkpt lat="31.183408125556312" lon="-6.240497670355353"><ele>1368.0</ele><time>2026-04-24T16:07:15Z</time></trkpt><trkpt lat="31.18349025776527" lon="-6.240257442844676"><ele>1368.0</ele><time>2026-04-24T16:07:16Z</time></trkpt><trkpt lat="31.183572436673597" lon="-6.240017064020061"><ele>1368.0</ele><time>2026-04-24T16:07:17Z</time></trkpt><trkpt lat="31.18365362677088" lon="-6.239777375244107"><ele>1368.0</ele><time>2026-04-24T16:07:18Z</time></trkpt><trkpt lat="31.18373380635495" lon="-6.2395434194851545"><ele>1368.0</ele><time>2026-04-24T16:07:19Z</time></trkpt><trkpt lat="31.183801986573528" lon="-6.239338992756289"><ele>1368.0</ele><time>2026-04-24T16:07:20Z</time></trkpt><trkpt lat="31.1838692288074" lon="-6.239141751536009"><ele>1367.6666666666667</ele><time>2026-04-24T16:07:21Z</time></trkpt><trkpt lat="31.183935971245138" lon="-6.238957319084241"><ele>1367.3333333333335</ele><time>2026-04-24T16:07:22Z</time></trkpt><trkpt lat="31.183998424615126" lon="-6.238782667236771"><ele>1367.0</ele><time>2026-04-24T16:07:23Z</time></trkpt><trkpt lat="31.184053308590972" lon="-6.238609414106322"><ele>1367.75</ele><time>2026-04-24T16:07:24Z</time></trkpt><trkpt lat="31.184100951113457" lon="-6.23844166004173"><ele>1368.5</ele><time>2026-04-24T16:07:25Z</time></trkpt><trkpt lat="31.184140681956983" lon="-6.2382748621934345"><ele>1369.25</ele><time>2026-04-24T16:07:26Z</time></trkpt><trkpt lat="31.184173741613026" lon="-6.238119931153409"><ele>1370.0</ele><time>2026-04-24T16:07:27Z</time></trkpt><trkpt lat="31.18420281592798" lon="-6.237973804195082"><ele>1370.0</ele><time>2026-04-24T16:07:28Z</time></trkpt><trkpt lat="31.1842297911088" lon="-6.237834490383807"><ele>1370.0</ele><time>2026-04-24T16:07:29Z</time></trkpt><trkpt lat="31.184255915982504" lon="-6.237698734747556"><ele>1370.0</ele><time>2026-04-24T16:07:30Z</time></trkpt><trkpt lat="31.18427598976671" lon="-6.237562339292104"><ele>1370.0</ele><time>2026-04-24T16:07:31Z</time></trkpt><trkpt lat="31.18429336177814" lon="-6.237431891771131"><ele>1370.0</ele><time>2026-04-24T16:07:32Z</time></trkpt><trkpt lat="31.184305379040282" lon="-6.237308420515061"><ele>1370.0</ele><time>2026-04-24T16:07:33Z</time></trkpt><trkpt lat="31.184314266773228" lon="-6.237189306872629"><ele>1370.0</ele><time>2026-04-24T16:07:34Z</time></trkpt><trkpt lat="31.18431789551016" lon="-6.237080590966646"><ele>1370.0</ele><time>2026-04-24T16:07:35Z</time></trkpt><trkpt lat="31.184314698894518" lon="-6.236988976836274"><ele>1370.0</ele><time>2026-04-24T16:07:36Z</time></trkpt><trkpt lat="31.184305950852007" lon="-6.236900747110338"><ele>1370.1666666666667</ele><time>2026-04-24T16:07:37Z</time></trkpt><trkpt lat="31.184284860102707" lon="-6.236821367179567"><ele>1370.3333333333335</ele><time>2026-04-24T16:07:38Z</time></trkpt><trkpt lat="31.184259741389315" lon="-6.236742932465079"><ele>1370.5</ele><time>2026-04-24T16:07:39Z</time></trkpt><trkpt lat="31.184221726668746" lon="-6.2366589683815254"><ele>1370.6666666666667</ele><time>2026-04-24T16:07:40Z</time></trkpt><trkpt lat="31.184168804202113" lon="-6.2365694309651"><ele>1370.8333333333333</ele><time>2026-04-24T16:07:41Z</time></trkpt><trkpt lat="31.18410067302543" lon="-6.236477733487095"><ele>1371.0</ele><time>2026-04-24T16:07:42Z</time></trkpt><trkpt lat="31.18402126075772" lon="-6.2363807985370325"><ele>1370.75</ele><time>2026-04-24T16:07:43Z</time></trkpt><trkpt lat="31.18392907278714" lon="-6.236286064317578"><ele>1370.5</ele><time>2026-04-24T16:07:44Z</time></trkpt><trkpt lat="31.18382747617163" lon="-6.236194565605521"><ele>1370.25</ele><time>2026-04-24T16:07:45Z</time></trkpt><trkpt lat="31.183706069373194" lon="-6.236107636204377"><ele>1370.0</ele><time>2026-04-24T16:07:46Z</time></trkpt><trkpt lat="31.183569747671243" lon="-6.236027633452675"><ele>1370.0</ele><time>2026-04-24T16:07:47Z</time></trkpt><trkpt lat="31.18343501555462" lon="-6.235949964802134"><ele>1370.0</ele><time>2026-04-24T16:07:48Z</time></trkpt><trkpt lat="31.183295046806577" lon="-6.2358703014212695"><ele>1370.0</ele><time>2026-04-24T16:07:49Z</time></trkpt><trkpt lat="31.183146150233746" lon="-6.23578512071015"><ele>1370.3333333333335</ele><time>2026-04-24T16:07:50Z</time></trkpt><trkpt lat="31.182986534334347" lon="-6.235692608387518"><ele>1370.6666666666667</ele><time>2026-04-24T16:07:51Z</time></trkpt><trkpt lat="31.182819012954752" lon="-6.23559789163929"><ele>1371.0</ele><time>2026-04-24T16:07:52Z</time></trkpt><trkpt lat="31.182648290442295" lon="-6.235493649231341"><ele>1372.3333333333333</ele><time>2026-04-24T16:07:53Z</time></trkpt><trkpt lat="31.18248152508453" lon="-6.235391123075705"><ele>1373.6666666666665</ele><time>2026-04-24T16:07:54Z</time></trkpt><trkpt lat="31.182309882950296" lon="-6.235291715565772"><ele>1375.0</ele><time>2026-04-24T16:07:55Z</time></trkpt><trkpt lat="31.18213722180076" lon="-6.235192000651221"><ele>1375.0</ele><time>2026-04-24T16:07:56Z</time></trkpt><trkpt lat="31.18196793415047" lon="-6.235094573686239"><ele>1375.0</ele><time>2026-04-24T16:07:57Z</time></trkpt><trkpt lat="31.181798493238993" lon="-6.234992500347568"><ele>1375.0</ele><time>2026-04-24T16:07:58Z</time></trkpt><trkpt lat="31.18162485048386" lon="-6.234889967015512"><ele>1376.3333333333333</ele><time>2026-04-24T16:07:59Z</time></trkpt><trkpt lat="31.18145089153632" lon="-6.234790865420642"><ele>1377.6666666666667</ele><time>2026-04-24T16:08:00Z</time></trkpt><trkpt lat="31.18127658880237" lon="-6.234690175963752"><ele>1379.0</ele><time>2026-04-24T16:08:01Z</time></trkpt><trkpt lat="31.1811022395614" lon="-6.234589862385607"><ele>1379.0</ele><time>2026-04-24T16:08:02Z</time></trkpt><trkpt lat="31.180929309733397" lon="-6.234488381630159"><ele>1379.0</ele><time>2026-04-24T16:08:03Z</time></trkpt><trkpt lat="31.180752420967877" lon="-6.234387937607664"><ele>1379.0</ele><time>2026-04-24T16:08:04Z</time></trkpt><trkpt lat="31.18057179837393" lon="-6.234286047568321"><ele>1379.6666666666667</ele><time>2026-04-24T16:08:05Z</time></trkpt><trkpt lat="31.18038679078376" lon="-6.234179522671645"><ele>1380.3333333333333</ele><time>2026-04-24T16:08:06Z</time></trkpt><trkpt lat="31.1801969025162" lon="-6.2340713003549615"><ele>1381.0</ele><time>2026-04-24T16:08:07Z</time></trkpt><trkpt lat="31.180002890760925" lon="-6.233958253081511"><ele>1382.0</ele><time>2026-04-24T16:08:08Z</time></trkpt><trkpt lat="31.179805656789306" lon="-6.233840884887261"><ele>1383.0</ele><time>2026-04-24T16:08:09Z</time></trkpt><trkpt lat="31.179609000386538" lon="-6.23371286899651"><ele>1384.0</ele><time>2026-04-24T16:08:10Z</time></trkpt><trkpt lat="31.17941342570104" lon="-6.233575913610628"><ele>1384.0</ele><time>2026-04-24T16:08:11Z</time></trkpt><trkpt lat="31.17922363093991" lon="-6.233429637572711"><ele>1384.0</ele><time>2026-04-24T16:08:12Z</time></trkpt><trkpt lat="31.179038492048115" lon="-6.233273113906343"><ele>1383.0</ele><time>2026-04-24T16:08:13Z</time></trkpt><trkpt lat="31.178866274771487" lon="-6.233092014117925"><ele>1382.0</ele><time>2026-04-24T16:08:14Z</time></trkpt><trkpt lat="31.178704020093967" lon="-6.23289468499612"><ele>1382.0</ele><time>2026-04-24T16:08:15Z</time></trkpt><trkpt lat="31.17854979504086" lon="-6.232679437195871"><ele>1382.0</ele><time>2026-04-24T16:08:16Z</time></trkpt><trkpt lat="31.17840663895523" lon="-6.23244861377528"><ele>1382.5</ele><time>2026-04-24T16:08:17Z</time></trkpt><trkpt lat="31.178274174856973" lon="-6.232204914036908"><ele>1383.0</ele><time>2026-04-24T16:08:18Z</time></trkpt><trkpt lat="31.178154678445814" lon="-6.231952292171184"><ele>1383.0</ele><time>2026-04-24T16:08:19Z</time></trkpt><trkpt lat="31.178048148900853" lon="-6.231693056581767"><ele>1383.0</ele><time>2026-04-24T16:08:20Z</time></trkpt><trkpt lat="31.177958326612565" lon="-6.231426697597262"><ele>1383.0</ele><time>2026-04-24T16:08:21Z</time></trkpt><trkpt lat="31.177881541300998" lon="-6.231157828247808"><ele>1383.0</ele><time>2026-04-24T16:08:22Z</time></trkpt><trkpt lat="31.177816237866928" lon="-6.2308874593134425"><ele>1383.5</ele><time>2026-04-24T16:08:23Z</time></trkpt><trkpt lat="31.17776157317759" lon="-6.230614789917584"><ele>1384.0</ele><time>2026-04-24T16:08:24Z</time></trkpt><trkpt lat="31.177696355515103" lon="-6.230346448838032"><ele>1384.0</ele><time>2026-04-24T16:08:25Z</time></trkpt><trkpt lat="31.177643527099306" lon="-6.2300769838896315"><ele>1384.0</ele><time>2026-04-24T16:08:26Z</time></trkpt><trkpt lat="31.17759130534769" lon="-6.229811229374113"><ele>1385.0</ele><time>2026-04-24T16:08:27Z</time></trkpt><trkpt lat="31.177539368516864" lon="-6.229547195172015"><ele>1386.0</ele><time>2026-04-24T16:08:28Z</time></trkpt><trkpt lat="31.177487257760987" lon="-6.229285127653842"><ele>1386.0</ele><time>2026-04-24T16:08:29Z</time></trkpt><trkpt lat="31.177434746222396" lon="-6.229025119431905"><ele>1386.0</ele><time>2026-04-24T16:08:30Z</time></trkpt><trkpt lat="31.17738271979042" lon="-6.228768373603466"><ele>1386.3333333333333</ele><time>2026-04-24T16:08:31Z</time></trkpt><trkpt lat="31.17734521029693" lon="-6.228509041143114"><ele>1386.6666666666665</ele><time>2026-04-24T16:08:32.001Z</time></trkpt><trkpt lat="31.177290452169856" lon="-6.2282571093952726"><ele>1387.0</ele><time>2026-04-24T16:08:33.001Z</time></trkpt><trkpt lat="31.17723507960021" lon="-6.228007677316981"><ele>1388.6666666666665</ele><time>2026-04-24T16:08:34.001Z</time></trkpt><trkpt lat="31.17717804201411" lon="-6.227761172312946"><ele>1390.3333333333333</ele><time>2026-04-24T16:08:35.001Z</time></trkpt><trkpt lat="31.177096540290744" lon="-6.227523699808777"><ele>1392.0</ele><time>2026-04-24T16:08:36.001Z</time></trkpt><trkpt lat="31.177022102062764" lon="-6.2272848277040485"><ele>1393.0</ele><time>2026-04-24T16:08:37.001Z</time></trkpt><trkpt lat="31.17694382968391" lon="-6.227047868889435"><ele>1394.0</ele><time>2026-04-24T16:08:38.001Z</time></trkpt><trkpt lat="31.176860482388285" lon="-6.226810406737882"><ele>1395.0</ele><time>2026-04-24T16:08:39.001Z</time></trkpt><trkpt lat="31.176765701345026" lon="-6.22657565292095"><ele>1395.5</ele><time>2026-04-24T16:08:40.001Z</time></trkpt><trkpt lat="31.176668628377087" lon="-6.226335617951019"><ele>1396.0</ele><time>2026-04-24T16:08:41.001Z</time></trkpt><trkpt lat="31.176564429096985" lon="-6.226097396463727"><ele>1394.0</ele><time>2026-04-24T16:08:42.001Z</time></trkpt><trkpt lat="31.17645730006793" lon="-6.225857143446431"><ele>1392.0</ele><time>2026-04-24T16:08:43.001Z</time></trkpt><trkpt lat="31.17634344905142" lon="-6.225620195704421"><ele>1391.5</ele><time>2026-04-24T16:08:44.001Z</time></trkpt><trkpt lat="31.176226771850313" lon="-6.225378134994508"><ele>1391.0</ele><time>2026-04-24T16:08:45.001Z</time></trkpt><trkpt lat="31.176097701205887" lon="-6.2251456709277315"><ele>1391.0</ele><time>2026-04-24T16:08:46Z</time></trkpt><trkpt lat="31.175961527200794" lon="-6.224911500821663"><ele>1391.0</ele><time>2026-04-24T16:08:47Z</time></trkpt><trkpt lat="31.17582618810162" lon="-6.224677165655664"><ele>1391.0</ele><time>2026-04-24T16:08:48Z</time></trkpt><trkpt lat="31.175692045262387" lon="-6.224443809875349"><ele>1391.0</ele><time>2026-04-24T16:08:49Z</time></trkpt><trkpt lat="31.175557587857817" lon="-6.224209906876841"><ele>1391.5</ele><time>2026-04-24T16:08:50Z</time></trkpt><trkpt lat="31.175423803664874" lon="-6.223976236901681"><ele>1392.0</ele><time>2026-04-24T16:08:51Z</time></trkpt><trkpt lat="31.175290323320098" lon="-6.223742484138249"><ele>1392.0</ele><time>2026-04-24T16:08:52Z</time></trkpt><trkpt lat="31.175168416686756" lon="-6.223498483385099"><ele>1392.0</ele><time>2026-04-24T16:08:53Z</time></trkpt><trkpt lat="31.175030919687824" lon="-6.223267189824525"><ele>1391.5</ele><time>2026-04-24T16:08:54Z</time></trkpt><trkpt lat="31.1748929715426" lon="-6.223035201681089"><ele>1391.0</ele><time>2026-04-24T16:08:55Z</time></trkpt><trkpt lat="31.17475467280261" lon="-6.222802411584555"><ele>1393.0</ele><time>2026-04-24T16:08:56Z</time></trkpt><trkpt lat="31.174616487163966" lon="-6.222570793479667"><ele>1395.0</ele><time>2026-04-24T16:08:57Z</time></trkpt><trkpt lat="31.17447824844236" lon="-6.222340190017099"><ele>1393.5</ele><time>2026-04-24T16:08:58Z</time></trkpt><trkpt lat="31.17434099444446" lon="-6.222108496374573"><ele>1392.0</ele><time>2026-04-24T16:08:59Z</time></trkpt><trkpt lat="31.174206009783028" lon="-6.22187353299154"><ele>1392.0</ele><time>2026-04-24T16:09:00Z</time></trkpt><trkpt lat="31.174075015245577" lon="-6.221634656557345"><ele>1392.0</ele><time>2026-04-24T16:09:01Z</time></trkpt><trkpt lat="31.17395136532423" lon="-6.221393436694468"><ele>1393.0</ele><time>2026-04-24T16:09:02Z</time></trkpt><trkpt lat="31.173837204245242" lon="-6.221145195339226"><ele>1394.0</ele><time>2026-04-24T16:09:03Z</time></trkpt><trkpt lat="31.173737101510156" lon="-6.220889626297924"><ele>1394.0</ele><time>2026-04-24T16:09:04Z</time></trkpt><trkpt lat="31.173635272909525" lon="-6.220633474952686"><ele>1394.0</ele><time>2026-04-24T16:09:05Z</time></trkpt><trkpt lat="31.173563233610796" lon="-6.220365985460831"><ele>1394.0</ele><time>2026-04-24T16:09:06Z</time></trkpt><trkpt lat="31.17349742913391" lon="-6.2200907005597825"><ele>1394.0</ele><time>2026-04-24T16:09:07Z</time></trkpt><trkpt lat="31.173436701341682" lon="-6.2198174577990875"><ele>1393.5</ele><time>2026-04-24T16:09:08Z</time></trkpt><trkpt lat="31.173379159245155" lon="-6.219541320845578"><ele>1393.0</ele><time>2026-04-24T16:09:09Z</time></trkpt><trkpt lat="31.173326416668687" lon="-6.219260457210782"><ele>1392.5</ele><time>2026-04-24T16:09:10Z</time></trkpt><trkpt lat="31.173271410202585" lon="-6.21898244565802"><ele>1392.0</ele><time>2026-04-24T16:09:11Z</time></trkpt><trkpt lat="31.173206956554704" lon="-6.218710517158836"><ele>1390.0</ele><time>2026-04-24T16:09:12Z</time></trkpt><trkpt lat="31.17311853070326" lon="-6.218442078926581"><ele>1388.0</ele><time>2026-04-24T16:09:13Z</time></trkpt><trkpt lat="31.173014758391535" lon="-6.218188248948944"><ele>1386.5</ele><time>2026-04-24T16:09:14Z</time></trkpt><trkpt lat="31.1729165602794" lon="-6.217928953602554"><ele>1385.0</ele><time>2026-04-24T16:09:15Z</time></trkpt><trkpt lat="31.17276865418645" lon="-6.217706498941696"><ele>1385.0</ele><time>2026-04-24T16:09:16Z</time></trkpt><trkpt lat="31.17260279629163" lon="-6.217501001340955"><ele>1385.0</ele><time>2026-04-24T16:09:17Z</time></trkpt><trkpt lat="31.17242314663807" lon="-6.2173146997379565"><ele>1381.0</ele><time>2026-04-24T16:09:18Z</time></trkpt><trkpt lat="31.17222244518153" lon="-6.217156555284523"><ele>1377.0</ele><time>2026-04-24T16:09:19Z</time></trkpt><trkpt lat="31.172009774282184" lon="-6.217023112643655"><ele>1377.0</ele><time>2026-04-24T16:09:20Z</time></trkpt><trkpt lat="31.171793110720035" lon="-6.2169021352334966"><ele>1377.0</ele><time>2026-04-24T16:09:21Z</time></trkpt><trkpt lat="31.171571379028276" lon="-6.216787295647726"><ele>1375.0</ele><time>2026-04-24T16:09:22Z</time></trkpt><trkpt lat="31.171347420744386" lon="-6.216679614505445"><ele>1373.0</ele><time>2026-04-24T16:09:23Z</time></trkpt><trkpt lat="31.17112170905524" lon="-6.216576693277803"><ele>1374.0</ele><time>2026-04-24T16:09:24Z</time></trkpt><trkpt lat="31.170893512025234" lon="-6.216472648735468"><ele>1375.0</ele><time>2026-04-24T16:09:25Z</time></trkpt><trkpt lat="31.170667690035344" lon="-6.216365323615614"><ele>1372.5</ele><time>2026-04-24T16:09:26Z</time></trkpt><trkpt lat="31.170445905527632" lon="-6.216255391844435"><ele>1370.0</ele><time>2026-04-24T16:09:27Z</time></trkpt><trkpt lat="31.170227982132303" lon="-6.216131810611617"><ele>1370.0</ele><time>2026-04-24T16:09:28Z</time></trkpt><trkpt lat="31.17002053568434" lon="-6.215989218641148"><ele>1370.0</ele><time>2026-04-24T16:09:29Z</time></trkpt><trkpt lat="31.169820558975985" lon="-6.215830443035734"><ele>1368.5</ele><time>2026-04-24T16:09:30Z</time></trkpt><trkpt lat="31.16962568281138" lon="-6.215666303031139"><ele>1367.0</ele><time>2026-04-24T16:09:31Z</time></trkpt><trkpt lat="31.16942914292186" lon="-6.215499312184304"><ele>1365.5</ele><time>2026-04-24T16:09:32Z</time></trkpt><trkpt lat="31.169233418282637" lon="-6.215330716478424"><ele>1364.0</ele><time>2026-04-24T16:09:33Z</time></trkpt><trkpt lat="31.169043335911685" lon="-6.215166818915535"><ele>1364.0</ele><time>2026-04-24T16:09:34Z</time></trkpt><trkpt lat="31.1688634910493" lon="-6.215006769814805"><ele>1364.0</ele><time>2026-04-24T16:09:35Z</time></trkpt><trkpt lat="31.168686419692577" lon="-6.214847014157296"><ele>1363.0</ele><time>2026-04-24T16:09:36Z</time></trkpt><trkpt lat="31.168514947880517" lon="-6.214693957960555"><ele>1362.0</ele><time>2026-04-24T16:09:37Z</time></trkpt><trkpt lat="31.168362921942393" lon="-6.214559220132093"><ele>1361.0</ele><time>2026-04-24T16:09:38Z</time></trkpt><trkpt lat="31.168228524624954" lon="-6.214439485031163"><ele>1358.0</ele><time>2026-04-24T16:09:39Z</time></trkpt><trkpt lat="31.168098431085962" lon="-6.214340641268851"><ele>1355.0</ele><time>2026-04-24T16:09:40Z</time></trkpt><trkpt lat="31.167960798594848" lon="-6.214272506532647"><ele>1352.0</ele><time>2026-04-24T16:09:41Z</time></trkpt><trkpt lat="31.16781803721877" lon="-6.214241602260983"><ele>1352.0</ele><time>2026-04-24T16:09:42Z</time></trkpt><trkpt lat="31.16767058472215" lon="-6.214230858674643"><ele>1352.0</ele><time>2026-04-24T16:09:43Z</time></trkpt><trkpt lat="31.16753145976184" lon="-6.214216107883358"><ele>1352.0</ele><time>2026-04-24T16:09:44Z</time></trkpt><trkpt lat="31.167399098192153" lon="-6.214193469331568"><ele>1352.0</ele><time>2026-04-24T16:09:45Z</time></trkpt><trkpt lat="31.167268938169602" lon="-6.214149752826486"><ele>1350.0</ele><time>2026-04-24T16:09:46Z</time></trkpt><trkpt lat="31.16713459424428" lon="-6.214076392452818"><ele>1348.0</ele><time>2026-04-24T16:09:47Z</time></trkpt><trkpt lat="31.166999214437332" lon="-6.213976756294131"><ele>1346.0</ele><time>2026-04-24T16:09:48Z</time></trkpt><trkpt lat="31.166859877230745" lon="-6.213864112690549"><ele>1345.0</ele><time>2026-04-24T16:09:49Z</time></trkpt><trkpt lat="31.16672441616623" lon="-6.213741649859146"><ele>1344.0</ele><time>2026-04-24T16:09:50Z</time></trkpt><trkpt lat="31.16658633767322" lon="-6.213616957211251"><ele>1343.0</ele><time>2026-04-24T16:09:51Z</time></trkpt><trkpt lat="31.16644683877113" lon="-6.21349917332739"><ele>1343.0</ele><time>2026-04-24T16:09:52Z</time></trkpt><trkpt lat="31.166306859116222" lon="-6.213383371575384"><ele>1343.0</ele><time>2026-04-24T16:09:53Z</time></trkpt><trkpt lat="31.166168282233098" lon="-6.213263218424216"><ele>1343.0</ele><time>2026-04-24T16:09:54Z</time></trkpt><trkpt lat="31.166034987228418" lon="-6.213148410796379"><ele>1345.25</ele><time>2026-04-24T16:09:55Z</time></trkpt><trkpt lat="31.165910351591855" lon="-6.213042046244449"><ele>1347.5</ele><time>2026-04-24T16:09:56Z</time></trkpt><trkpt lat="31.165793757297635" lon="-6.212938925198683"><ele>1349.75</ele><time>2026-04-24T16:09:57Z</time></trkpt><trkpt lat="31.16569008466042" lon="-6.212833471320615"><ele>1352.0</ele><time>2026-04-24T16:09:58Z</time></trkpt><trkpt lat="31.165605036523843" lon="-6.212719940469434"><ele>1353.3333333333335</ele><time>2026-04-24T16:09:59Z</time></trkpt><trkpt lat="31.165534604992008" lon="-6.212576288246336"><ele>1354.6666666666667</ele><time>2026-04-24T16:10:00Z</time></trkpt><trkpt lat="31.165482314701425" lon="-6.212403686964569"><ele>1356.0</ele><time>2026-04-24T16:10:01Z</time></trkpt><trkpt lat="31.165441884434387" lon="-6.2122138281111265"><ele>1358.0</ele><time>2026-04-24T16:10:02Z</time></trkpt><trkpt lat="31.16540221377758" lon="-6.212011509321784"><ele>1360.0</ele><time>2026-04-24T16:10:03Z</time></trkpt><trkpt lat="31.165360003441684" lon="-6.211805180134996"><ele>1362.0</ele><time>2026-04-24T16:10:04Z</time></trkpt><trkpt lat="31.165311771845843" lon="-6.211595132175303"><ele>1362.3333333333333</ele><time>2026-04-24T16:10:05Z</time></trkpt><trkpt lat="31.165262275009137" lon="-6.211380382002084"><ele>1362.6666666666665</ele><time>2026-04-24T16:10:06Z</time></trkpt><trkpt lat="31.16521367536172" lon="-6.21116252878885"><ele>1363.0</ele><time>2026-04-24T16:10:07Z</time></trkpt><trkpt lat="31.16516360529055" lon="-6.210934578527845"><ele>1363.0</ele><time>2026-04-24T16:10:08Z</time></trkpt><trkpt lat="31.165113605301073" lon="-6.210700839271105"><ele>1363.0</ele><time>2026-04-24T16:10:09Z</time></trkpt><trkpt lat="31.16506818227754" lon="-6.210461285893319"><ele>1363.0</ele><time>2026-04-24T16:10:10Z</time></trkpt><trkpt lat="31.165035038238805" lon="-6.210217110349668"><ele>1363.0</ele><time>2026-04-24T16:10:11Z</time></trkpt><trkpt lat="31.16501596221774" lon="-6.209959389433238"><ele>1363.0</ele><time>2026-04-24T16:10:12Z</time></trkpt><trkpt lat="31.165013922516295" lon="-6.2096879733230255"><ele>1363.0</ele><time>2026-04-24T16:10:13Z</time></trkpt><trkpt lat="31.16502754550103" lon="-6.209408552602577"><ele>1363.0</ele><time>2026-04-24T16:10:14Z</time></trkpt><trkpt lat="31.165059489186593" lon="-6.209122501635183"><ele>1367.5</ele><time>2026-04-24T16:10:15Z</time></trkpt><trkpt lat="31.165112588375358" lon="-6.208837737566049"><ele>1372.0</ele><time>2026-04-24T16:10:16Z</time></trkpt><trkpt lat="31.16519431968249" lon="-6.208554204465609"><ele>1372.0</ele><time>2026-04-24T16:10:17Z</time></trkpt><trkpt lat="31.16531154141574" lon="-6.208271981385538"><ele>1372.0</ele><time>2026-04-24T16:10:18Z</time></trkpt><trkpt lat="31.165431703427547" lon="-6.20798462177897"><ele>1370.5</ele><time>2026-04-24T16:10:19Z</time></trkpt><trkpt lat="31.16556089855113" lon="-6.207694209174843"><ele>1369.0</ele><time>2026-04-24T16:10:20Z</time></trkpt><trkpt lat="31.16569675675683" lon="-6.207396214226469"><ele>1371.0</ele><time>2026-04-24T16:10:21Z</time></trkpt><trkpt lat="31.165834597183895" lon="-6.207090835425363"><ele>1373.0</ele><time>2026-04-24T16:10:22Z</time></trkpt><trkpt lat="31.165925911696174" lon="-6.20675333011257"><ele>1370.0</ele><time>2026-04-24T16:10:23Z</time></trkpt><trkpt lat="31.16607338741572" lon="-6.20644013835908"><ele>1367.0</ele><time>2026-04-24T16:10:24Z</time></trkpt><trkpt lat="31.16622432355071" lon="-6.206119250166482"><ele>1367.0</ele><time>2026-04-24T16:10:25Z</time></trkpt><trkpt lat="31.16637850193091" lon="-6.20579480758964"><ele>1367.0</ele><time>2026-04-24T16:10:26Z</time></trkpt><trkpt lat="31.16653050214215" lon="-6.205468051798938"><ele>1365.0</ele><time>2026-04-24T16:10:27Z</time></trkpt><trkpt lat="31.166677241586694" lon="-6.205152036806998"><ele>1363.0</ele><time>2026-04-24T16:10:28Z</time></trkpt><trkpt lat="31.1668211115445" lon="-6.204844841425123"><ele>1366.5</ele><time>2026-04-24T16:10:29Z</time></trkpt><trkpt lat="31.16696252218169" lon="-6.204541020568338"><ele>1370.0</ele><time>2026-04-24T16:10:30Z</time></trkpt><trkpt lat="31.167117474058312" lon="-6.204254557489104"><ele>1374.5</ele><time>2026-04-24T16:10:31Z</time></trkpt><trkpt lat="31.16724473130873" lon="-6.2039571972082435"><ele>1379.0</ele><time>2026-04-24T16:10:32Z</time></trkpt><trkpt lat="31.167405121638563" lon="-6.203685803435589"><ele>1379.0</ele><time>2026-04-24T16:10:33Z</time></trkpt><trkpt lat="31.16757968250647" lon="-6.20343966223475"><ele>1379.0</ele><time>2026-04-24T16:10:34Z</time></trkpt><trkpt lat="31.167768450382578" lon="-6.203211738078589"><ele>1382.0</ele><time>2026-04-24T16:10:35Z</time></trkpt><trkpt lat="31.167957317057304" lon="-6.203004540865676"><ele>1385.0</ele><time>2026-04-24T16:10:36Z</time></trkpt><trkpt lat="31.168131522353484" lon="-6.202784551453518"><ele>1379.5</ele><time>2026-04-24T16:10:37Z</time></trkpt><trkpt lat="31.168292992764087" lon="-6.202543587708127"><ele>1374.0</ele><time>2026-04-24T16:10:38Z</time></trkpt><trkpt lat="31.16843610042769" lon="-6.202289478064211"><ele>1374.0</ele><time>2026-04-24T16:10:39Z</time></trkpt><trkpt lat="31.16855759257839" lon="-6.202020103066258"><ele>1374.0</ele><time>2026-04-24T16:10:40Z</time></trkpt><trkpt lat="31.1686597461075" lon="-6.201739758498466"><ele>1376.5</ele><time>2026-04-24T16:10:41Z</time></trkpt><trkpt lat="31.168724457275548" lon="-6.201460698882148"><ele>1379.0</ele><time>2026-04-24T16:10:42Z</time></trkpt><trkpt lat="31.16877007768952" lon="-6.201174162466292"><ele>1379.0</ele><time>2026-04-24T16:10:43Z</time></trkpt><trkpt lat="31.168800497250423" lon="-6.200893932179363"><ele>1379.0</ele><time>2026-04-24T16:10:44Z</time></trkpt><trkpt lat="31.16882568591648" lon="-6.200607472980124"><ele>1378.0</ele><time>2026-04-24T16:10:45Z</time></trkpt><trkpt lat="31.168824027190073" lon="-6.200321919522729"><ele>1377.0</ele><time>2026-04-24T16:10:46Z</time></trkpt><trkpt lat="31.168798092616644" lon="-6.200027848301732"><ele>1375.5</ele><time>2026-04-24T16:10:47Z</time></trkpt><trkpt lat="31.168746099450438" lon="-6.199739741535613"><ele>1374.0</ele><time>2026-04-24T16:10:48Z</time></trkpt><trkpt lat="31.168678634832943" lon="-6.199465571843933"><ele>1374.0</ele><time>2026-04-24T16:10:49Z</time></trkpt><trkpt lat="31.16859668775992" lon="-6.199195186347939"><ele>1374.0</ele><time>2026-04-24T16:10:50Z</time></trkpt><trkpt lat="31.168492688148586" lon="-6.198932621917452"><ele>1375.0</ele><time>2026-04-24T16:10:51Z</time></trkpt><trkpt lat="31.16835893494716" lon="-6.198689210523073"><ele>1376.0</ele><time>2026-04-24T16:10:52Z</time></trkpt><trkpt lat="31.16820805128679" lon="-6.198448021959554"><ele>1376.5</ele><time>2026-04-24T16:10:53Z</time></trkpt><trkpt lat="31.168047101652345" lon="-6.198216682734081"><ele>1377.0</ele><time>2026-04-24T16:10:54Z</time></trkpt><trkpt lat="31.167882218220782" lon="-6.197986628823929"><ele>1379.0</ele><time>2026-04-24T16:10:55Z</time></trkpt><trkpt lat="31.1676795903059" lon="-6.1977942174900145"><ele>1381.0</ele><time>2026-04-24T16:10:56Z</time></trkpt><trkpt lat="31.167459133176965" lon="-6.197622522440676"><ele>1382.5</ele><time>2026-04-24T16:10:57Z</time></trkpt><trkpt lat="31.167219259689222" lon="-6.197476888879235"><ele>1384.0</ele><time>2026-04-24T16:10:58Z</time></trkpt><trkpt lat="31.16696090663364" lon="-6.197357681910792"><ele>1383.5</ele><time>2026-04-24T16:10:59Z</time></trkpt><trkpt lat="31.16669446575055" lon="-6.1972543540421015"><ele>1383.0</ele><time>2026-04-24T16:11:00Z</time></trkpt><trkpt lat="31.166416121135605" lon="-6.197199226448774"><ele>1385.0</ele><time>2026-04-24T16:11:01Z</time></trkpt><trkpt lat="31.166138705211555" lon="-6.197133624541694"><ele>1387.0</ele><time>2026-04-24T16:11:02Z</time></trkpt><trkpt lat="31.165865405723665" lon="-6.197054297065276"><ele>1388.5</ele><time>2026-04-24T16:11:03Z</time></trkpt><trkpt lat="31.165597551459204" lon="-6.196966596206925"><ele>1390.0</ele><time>2026-04-24T16:11:04Z</time></trkpt><trkpt lat="31.1653248689123" lon="-6.196906139566924"><ele>1390.0</ele><time>2026-04-24T16:11:05Z</time></trkpt><trkpt lat="31.1650559184454" lon="-6.196840810844411"><ele>1390.0</ele><time>2026-04-24T16:11:06Z</time></trkpt><trkpt lat="31.164794161624265" lon="-6.1967728490042076"><ele>1390.5</ele><time>2026-04-24T16:11:07Z</time></trkpt><trkpt lat="31.16453904148845" lon="-6.196695689865937"><ele>1391.0</ele><time>2026-04-24T16:11:08Z</time></trkpt><trkpt lat="31.164293697480836" lon="-6.196602474726331"><ele>1394.5</ele><time>2026-04-24T16:11:09Z</time></trkpt><trkpt lat="31.164061049996327" lon="-6.196488083164338"><ele>1398.0</ele><time>2026-04-24T16:11:10Z</time></trkpt><trkpt lat="31.16384289268937" lon="-6.196356117892253"><ele>1400.5</ele><time>2026-04-24T16:11:11Z</time></trkpt><trkpt lat="31.1636377160929" lon="-6.196204087304203"><ele>1403.0</ele><time>2026-04-24T16:11:12Z</time></trkpt><trkpt lat="31.16342934070495" lon="-6.196046662314553"><ele>1403.0</ele><time>2026-04-24T16:11:13Z</time></trkpt><trkpt lat="31.163247807574102" lon="-6.1958405691187926"><ele>1403.0</ele><time>2026-04-24T16:11:14Z</time></trkpt><trkpt lat="31.163060135409886" lon="-6.1956464071045625"><ele>1405.0</ele><time>2026-04-24T16:11:15Z</time></trkpt><trkpt lat="31.16289350898854" lon="-6.195423383004229"><ele>1407.0</ele><time>2026-04-24T16:11:16Z</time></trkpt><trkpt lat="31.162740283791535" lon="-6.195185801202541"><ele>1407.0</ele><time>2026-04-24T16:11:17Z</time></trkpt><trkpt lat="31.162611150338254" lon="-6.1949221044184"><ele>1407.0</ele><time>2026-04-24T16:11:18Z</time></trkpt><trkpt lat="31.16250924514302" lon="-6.194640283926457"><ele>1408.0</ele><time>2026-04-24T16:11:19Z</time></trkpt><trkpt lat="31.162385807648356" lon="-6.194367171954338"><ele>1409.0</ele><time>2026-04-24T16:11:20Z</time></trkpt><trkpt lat="31.162274982067174" lon="-6.194085457745549"><ele>1411.0</ele><time>2026-04-24T16:11:21Z</time></trkpt><trkpt lat="31.162163248147746" lon="-6.193799719279485"><ele>1413.0</ele><time>2026-04-24T16:11:22Z</time></trkpt><trkpt lat="31.162050861059463" lon="-6.193513257138905"><ele>1413.0</ele><time>2026-04-24T16:11:23Z</time></trkpt><trkpt lat="31.161936880319047" lon="-6.193222314725512"><ele>1413.0</ele><time>2026-04-24T16:11:24Z</time></trkpt><trkpt lat="31.161819964014956" lon="-6.192925701644852"><ele>1412.5</ele><time>2026-04-24T16:11:25Z</time></trkpt><trkpt lat="31.161700303151523" lon="-6.192625478191171"><ele>1412.0</ele><time>2026-04-24T16:11:26Z</time></trkpt><trkpt lat="31.161578776354883" lon="-6.192321345000146"><ele>1418.5</ele><time>2026-04-24T16:11:27Z</time></trkpt><trkpt lat="31.16145673156553" lon="-6.1920153352186125"><ele>1425.0</ele><time>2026-04-24T16:11:28Z</time></trkpt><trkpt lat="31.16133885630329" lon="-6.191721492387932"><ele>1423.0</ele><time>2026-04-24T16:11:29Z</time></trkpt><trkpt lat="31.16122422621976" lon="-6.191434086835782"><ele>1421.0</ele><time>2026-04-24T16:11:30Z</time></trkpt><trkpt lat="31.161113622742796" lon="-6.191158171626921"><ele>1421.0</ele><time>2026-04-24T16:11:31Z</time></trkpt><trkpt lat="31.161008893844134" lon="-6.190896131204887"><ele>1421.0</ele><time>2026-04-24T16:11:32Z</time></trkpt><trkpt lat="31.160911020676984" lon="-6.190640759741367"><ele>1422.0</ele><time>2026-04-24T16:11:33Z</time></trkpt><trkpt lat="31.1608170557209" lon="-6.19039302754084"><ele>1423.0</ele><time>2026-04-24T16:11:34Z</time></trkpt><trkpt lat="31.160726080119193" lon="-6.190153349013527"><ele>1425.6666666666665</ele><time>2026-04-24T16:11:35Z</time></trkpt><trkpt lat="31.160637632360054" lon="-6.189920713243255"><ele>1428.3333333333333</ele><time>2026-04-24T16:11:36Z</time></trkpt><trkpt lat="31.160551124764897" lon="-6.189694319878035"><ele>1431.0</ele><time>2026-04-24T16:11:37Z</time></trkpt><trkpt lat="31.160466039382296" lon="-6.1894649172421925"><ele>1431.0</ele><time>2026-04-24T16:11:38Z</time></trkpt><trkpt lat="31.160393576537302" lon="-6.189230527735829"><ele>1431.0</ele><time>2026-04-24T16:11:39Z</time></trkpt><trkpt lat="31.16032128575274" lon="-6.188990905513187"><ele>1431.0</ele><time>2026-04-24T16:11:40Z</time></trkpt><trkpt lat="31.160252040337085" lon="-6.188748020605889"><ele>1430.6666666666667</ele><time>2026-04-24T16:11:41Z</time></trkpt><trkpt lat="31.1601916538976" lon="-6.1884943657043765"><ele>1430.3333333333335</ele><time>2026-04-24T16:11:42Z</time></trkpt><trkpt lat="31.16013812030648" lon="-6.18824388638923"><ele>1430.0</ele><time>2026-04-24T16:11:43Z</time></trkpt><trkpt lat="31.16008833081091" lon="-6.18798000886552"><ele>1430.0</ele><time>2026-04-24T16:11:44Z</time></trkpt><trkpt lat="31.16004626372142" lon="-6.187701280805275"><ele>1430.0</ele><time>2026-04-24T16:11:45Z</time></trkpt><trkpt lat="31.160012542366545" lon="-6.187399214696973"><ele>1430.0</ele><time>2026-04-24T16:11:46Z</time></trkpt><trkpt lat="31.15998705753863" lon="-6.187087432027484"><ele>1430.0</ele><time>2026-04-24T16:11:47Z</time></trkpt><trkpt lat="31.159968801324748" lon="-6.1867753424055545"><ele>1434.0</ele><time>2026-04-24T16:11:48Z</time></trkpt><trkpt lat="31.159950322275215" lon="-6.186461075433003"><ele>1438.0</ele><time>2026-04-24T16:11:49Z</time></trkpt><trkpt lat="31.159931635500822" lon="-6.186147305238414"><ele>1438.0</ele><time>2026-04-24T16:11:50Z</time></trkpt><trkpt lat="31.15991189020082" lon="-6.185828065363211"><ele>1438.0</ele><time>2026-04-24T16:11:51Z</time></trkpt><trkpt lat="31.15989117740249" lon="-6.18549575301947"><ele>1439.0</ele><time>2026-04-24T16:11:52Z</time></trkpt><trkpt lat="31.15987109843091" lon="-6.1851533155419"><ele>1440.0</ele><time>2026-04-24T16:11:53Z</time></trkpt><trkpt lat="31.15985056434053" lon="-6.18479997950678"><ele>1441.0</ele><time>2026-04-24T16:11:54Z</time></trkpt><trkpt lat="31.15983335119641" lon="-6.184444033706414"><ele>1442.0</ele><time>2026-04-24T16:11:55Z</time></trkpt><trkpt lat="31.15988104048842" lon="-6.184080503436823"><ele>1450.0</ele><time>2026-04-24T16:11:56Z</time></trkpt><trkpt lat="31.1598620407244" lon="-6.183715300839303"><ele>1458.0</ele><time>2026-04-24T16:11:57Z</time></trkpt><trkpt lat="31.15984019533332" lon="-6.183344007736104"><ele>1456.5</ele><time>2026-04-24T16:11:58Z</time></trkpt><trkpt lat="31.159816603584236" lon="-6.182970074855213"><ele>1455.0</ele><time>2026-04-24T16:11:59Z</time></trkpt><trkpt lat="31.159788809427276" lon="-6.1825960740597115"><ele>1454.5</ele><time>2026-04-24T16:12:00Z</time></trkpt><trkpt lat="31.15975899821113" lon="-6.182229611654377"><ele>1454.0</ele><time>2026-04-24T16:12:01Z</time></trkpt><trkpt lat="31.15973267839714" lon="-6.181873647681094"><ele>1454.0</ele><time>2026-04-24T16:12:02Z</time></trkpt><trkpt lat="31.159709520130995" lon="-6.181522025772702"><ele>1454.0</ele><time>2026-04-24T16:12:03Z</time></trkpt><trkpt lat="31.159688800808095" lon="-6.181171301095712"><ele>1455.5</ele><time>2026-04-24T16:12:04Z</time></trkpt><trkpt lat="31.15967101348756" lon="-6.180821997531828"><ele>1457.0</ele><time>2026-04-24T16:12:05Z</time></trkpt><trkpt lat="31.15965247654547" lon="-6.180469526214472"><ele>1457.5</ele><time>2026-04-24T16:12:06Z</time></trkpt><trkpt lat="31.159638412431114" lon="-6.18011986344946"><ele>1458.0</ele><time>2026-04-24T16:12:07Z</time></trkpt><trkpt lat="31.15963648317795" lon="-6.179770453651975"><ele>1458.0</ele><time>2026-04-24T16:12:08Z</time></trkpt><trkpt lat="31.15964442518589" lon="-6.179419447803566"><ele>1458.0</ele><time>2026-04-24T16:12:09Z</time></trkpt><trkpt lat="31.159662851165553" lon="-6.179061338208702"><ele>1458.0</ele><time>2026-04-24T16:12:10Z</time></trkpt><trkpt lat="31.159690618929595" lon="-6.178699152695173"><ele>1458.0</ele><time>2026-04-24T16:12:11Z</time></trkpt><trkpt lat="31.159726340091513" lon="-6.1783346714893845"><ele>1460.0</ele><time>2026-04-24T16:12:12Z</time></trkpt><trkpt lat="31.15976484275144" lon="-6.177970335301593"><ele>1462.0</ele><time>2026-04-24T16:12:13Z</time></trkpt><trkpt lat="31.159800728157595" lon="-6.177613257665144"><ele>1463.0</ele><time>2026-04-24T16:12:14Z</time></trkpt><trkpt lat="31.159833531081404" lon="-6.177266694370088"><ele>1464.0</ele><time>2026-04-24T16:12:15Z</time></trkpt><trkpt lat="31.15986333175943" lon="-6.176927945238381"><ele>1464.0</ele><time>2026-04-24T16:12:16Z</time></trkpt><trkpt lat="31.159892546235426" lon="-6.176594534141501"><ele>1464.0</ele><time>2026-04-24T16:12:17Z</time></trkpt><trkpt lat="31.159922518416565" lon="-6.176257201503697"><ele>1464.0</ele><time>2026-04-24T16:12:18Z</time></trkpt><trkpt lat="31.1599514890621" lon="-6.175918951084454"><ele>1464.0</ele><time>2026-04-24T16:12:19Z</time></trkpt><trkpt lat="31.159984034041383" lon="-6.175581254937008"><ele>1465.5</ele><time>2026-04-24T16:12:20Z</time></trkpt><trkpt lat="31.160023998294562" lon="-6.1752475690268565"><ele>1467.0</ele><time>2026-04-24T16:12:21Z</time></trkpt><trkpt lat="31.16006977459802" lon="-6.1749049967183565"><ele>1467.0</ele><time>2026-04-24T16:12:22Z</time></trkpt><trkpt lat="31.160120628587244" lon="-6.17456020335715"><ele>1467.0</ele><time>2026-04-24T16:12:23Z</time></trkpt><trkpt lat="31.160174012855677" lon="-6.174221383281561"><ele>1465.0</ele><time>2026-04-24T16:12:24Z</time></trkpt><trkpt lat="31.16022858932758" lon="-6.173883468799001"><ele>1463.0</ele><time>2026-04-24T16:12:25Z</time></trkpt><trkpt lat="31.16028541388115" lon="-6.17354253043545"><ele>1463.0</ele><time>2026-04-24T16:12:26Z</time></trkpt><trkpt lat="31.16034356269683" lon="-6.173196929928025"><ele>1463.0</ele><time>2026-04-24T16:12:27Z</time></trkpt><trkpt lat="31.160402700455645" lon="-6.172851621454162"><ele>1462.5</ele><time>2026-04-24T16:12:28Z</time></trkpt><trkpt lat="31.16046314273498" lon="-6.172504670677781"><ele>1462.0</ele><time>2026-04-24T16:12:29Z</time></trkpt><trkpt lat="31.160523509183303" lon="-6.172158388709535"><ele>1462.0</ele><time>2026-04-24T16:12:30Z</time></trkpt><trkpt lat="31.160584603384578" lon="-6.171807659668984"><ele>1462.0</ele><time>2026-04-24T16:12:31Z</time></trkpt><trkpt lat="31.160650108888383" lon="-6.171462198372479"><ele>1462.5</ele><time>2026-04-24T16:12:32Z</time></trkpt><trkpt lat="31.160717203565905" lon="-6.171115424881498"><ele>1463.0</ele><time>2026-04-24T16:12:33Z</time></trkpt><trkpt lat="31.16078194879965" lon="-6.170767911269514"><ele>1463.0</ele><time>2026-04-24T16:12:34Z</time></trkpt><trkpt lat="31.16084661776098" lon="-6.170422038787641"><ele>1463.0</ele><time>2026-04-24T16:12:35Z</time></trkpt><trkpt lat="31.16091260779605" lon="-6.1700809079679955"><ele>1466.5</ele><time>2026-04-24T16:12:36Z</time></trkpt><trkpt lat="31.160977937113984" lon="-6.169739901540957"><ele>1470.0</ele><time>2026-04-24T16:12:37Z</time></trkpt><trkpt lat="31.161040910015558" lon="-6.16939865784423"><ele>1470.0</ele><time>2026-04-24T16:12:38Z</time></trkpt><trkpt lat="31.161103145525935" lon="-6.16906239521965"><ele>1470.0</ele><time>2026-04-24T16:12:39Z</time></trkpt><trkpt lat="31.161163305339365" lon="-6.168730694195028"><ele>1473.5</ele><time>2026-04-24T16:12:40Z</time></trkpt><trkpt lat="31.161220422387558" lon="-6.168402384306329"><ele>1477.0</ele><time>2026-04-24T16:12:41Z</time></trkpt><trkpt lat="31.161273208714675" lon="-6.168069539910804"><ele>1477.0</ele><time>2026-04-24T16:12:42Z</time></trkpt><trkpt lat="31.161320395784927" lon="-6.167728701876816"><ele>1477.0</ele><time>2026-04-24T16:12:43Z</time></trkpt><trkpt lat="31.161361818929" lon="-6.167385330661741"><ele>1473.5</ele><time>2026-04-24T16:12:44Z</time></trkpt><trkpt lat="31.16139947513769" lon="-6.167036127314714"><ele>1470.0</ele><time>2026-04-24T16:12:45Z</time></trkpt><trkpt lat="31.16143126023673" lon="-6.166681942029913"><ele>1467.0</ele><time>2026-04-24T16:12:46Z</time></trkpt><trkpt lat="31.16145770705943" lon="-6.1663240914418544"><ele>1464.0</ele><time>2026-04-24T16:12:47Z</time></trkpt><trkpt lat="31.161481715184657" lon="-6.165965334068685"><ele>1463.5</ele><time>2026-04-24T16:12:48Z</time></trkpt><trkpt lat="31.16150513766214" lon="-6.165607421954682"><ele>1463.0</ele><time>2026-04-24T16:12:49Z</time></trkpt><trkpt lat="31.161529620865263" lon="-6.165250630967637"><ele>1462.5</ele><time>2026-04-24T16:12:50Z</time></trkpt><trkpt lat="31.161553249378155" lon="-6.164895696296303"><ele>1462.0</ele><time>2026-04-24T16:12:51Z</time></trkpt><trkpt lat="31.161575946726288" lon="-6.164544047040249"><ele>1459.5</ele><time>2026-04-24T16:12:52Z</time></trkpt><trkpt lat="31.161596647626475" lon="-6.164194866295566"><ele>1457.0</ele><time>2026-04-24T16:12:53Z</time></trkpt><trkpt lat="31.161615000733164" lon="-6.1638516881378305"><ele>1456.5</ele><time>2026-04-24T16:12:54Z</time></trkpt><trkpt lat="31.161630052551228" lon="-6.163516125442646"><ele>1456.0</ele><time>2026-04-24T16:12:55Z</time></trkpt><trkpt lat="31.161644512824978" lon="-6.1631913406207826"><ele>1457.0</ele><time>2026-04-24T16:12:56Z</time></trkpt><trkpt lat="31.161665967899513" lon="-6.162880796015997"><ele>1458.0</ele><time>2026-04-24T16:12:57Z</time></trkpt><trkpt lat="31.16170020718513" lon="-6.162580996353919"><ele>1458.0</ele><time>2026-04-24T16:12:58Z</time></trkpt><trkpt lat="31.161751791889078" lon="-6.162283261931293"><ele>1458.0</ele><time>2026-04-24T16:12:59Z</time></trkpt><trkpt lat="31.16181914326788" lon="-6.161990917701999"><ele>1458.0</ele><time>2026-04-24T16:13:00Z</time></trkpt><trkpt lat="31.16190455517097" lon="-6.1617045179935666"><ele>1458.0</ele><time>2026-04-24T16:13:01Z</time></trkpt><trkpt lat="31.162009815178436" lon="-6.161419936129962"><ele>1456.5</ele><time>2026-04-24T16:13:02Z</time></trkpt><trkpt lat="31.16213420039498" lon="-6.161141620027321"><ele>1455.0</ele><time>2026-04-24T16:13:03Z</time></trkpt><trkpt lat="31.162274519182493" lon="-6.160881121156344"><ele>1454.0</ele><time>2026-04-24T16:13:04Z</time></trkpt><trkpt lat="31.162430124429015" lon="-6.160642053893837"><ele>1453.0</ele><time>2026-04-24T16:13:05Z</time></trkpt><trkpt lat="31.16260240630383" lon="-6.160414446875504"><ele>1453.0</ele><time>2026-04-24T16:13:06Z</time></trkpt><trkpt lat="31.162787670224915" lon="-6.160196362149921"><ele>1453.0</ele><time>2026-04-24T16:13:07Z</time></trkpt><trkpt lat="31.16298534264392" lon="-6.159992698087011"><ele>1453.5</ele><time>2026-04-24T16:13:08Z</time></trkpt><trkpt lat="31.163195163647465" lon="-6.159810587288165"><ele>1454.0</ele><time>2026-04-24T16:13:09Z</time></trkpt><trkpt lat="31.16341334366692" lon="-6.159648909877655"><ele>1451.0</ele><time>2026-04-24T16:13:10Z</time></trkpt><trkpt lat="31.163638828218733" lon="-6.159500671530801"><ele>1448.0</ele><time>2026-04-24T16:13:11Z</time></trkpt><trkpt lat="31.163870243631017" lon="-6.159365476332492"><ele>1448.5</ele><time>2026-04-24T16:13:12Z</time></trkpt><trkpt lat="31.164114047560894" lon="-6.159249744138211"><ele>1449.0</ele><time>2026-04-24T16:13:13Z</time></trkpt><trkpt lat="31.16436829795158" lon="-6.159164799239643"><ele>1449.0</ele><time>2026-04-24T16:13:14Z</time></trkpt><trkpt lat="31.1646340495858" lon="-6.1591099550392405"><ele>1449.0</ele><time>2026-04-24T16:13:15Z</time></trkpt><trkpt lat="31.164907722069213" lon="-6.159073758353986"><ele>1448.5</ele><time>2026-04-24T16:13:16Z</time></trkpt><trkpt lat="31.16518720644988" lon="-6.159055932757656"><ele>1448.0</ele><time>2026-04-24T16:13:17Z</time></trkpt><trkpt lat="31.16547179344168" lon="-6.159054653875088"><ele>1447.5</ele><time>2026-04-24T16:13:18Z</time></trkpt><trkpt lat="31.165758394097153" lon="-6.159070660350007"><ele>1447.0</ele><time>2026-04-24T16:13:19Z</time></trkpt><trkpt lat="31.166043438360436" lon="-6.159101416005563"><ele>1447.0</ele><time>2026-04-24T16:13:20Z</time></trkpt><trkpt lat="31.166324215561865" lon="-6.159142308258779"><ele>1447.0</ele><time>2026-04-24T16:13:21Z</time></trkpt><trkpt lat="31.16660138662221" lon="-6.159183352022503"><ele>1448.0</ele><time>2026-04-24T16:13:22Z</time></trkpt><trkpt lat="31.16687317352305" lon="-6.159220667561069"><ele>1449.0</ele><time>2026-04-24T16:13:23Z</time></trkpt><trkpt lat="31.167140446207405" lon="-6.159254320513047"><ele>1448.0</ele><time>2026-04-24T16:13:24Z</time></trkpt><trkpt lat="31.167400683716654" lon="-6.159285816118504"><ele>1447.0</ele><time>2026-04-24T16:13:25Z</time></trkpt><trkpt lat="31.167658199156776" lon="-6.159305887480526"><ele>1447.0</ele><time>2026-04-24T16:13:26Z</time></trkpt><trkpt lat="31.167915360463848" lon="-6.159308870385628"><ele>1447.0</ele><time>2026-04-24T16:13:27Z</time></trkpt><trkpt lat="31.168169790103942" lon="-6.159290618470108"><ele>1445.5</ele><time>2026-04-24T16:13:28Z</time></trkpt><trkpt lat="31.168426900281148" lon="-6.159247782155245"><ele>1444.0</ele><time>2026-04-24T16:13:29Z</time></trkpt><trkpt lat="31.168687063630973" lon="-6.159181263242128"><ele>1444.0</ele><time>2026-04-24T16:13:30Z</time></trkpt><trkpt lat="31.168950442157648" lon="-6.159097522743697"><ele>1444.0</ele><time>2026-04-24T16:13:31Z</time></trkpt><trkpt lat="31.169216418748643" lon="-6.159004604958119"><ele>1441.5</ele><time>2026-04-24T16:13:32Z</time></trkpt><trkpt lat="31.16948464132689" lon="-6.158904768765649"><ele>1439.0</ele><time>2026-04-24T16:13:33Z</time></trkpt><trkpt lat="31.1697530093896" lon="-6.15879980487419"><ele>1437.5</ele><time>2026-04-24T16:13:34Z</time></trkpt><trkpt lat="31.170024676012254" lon="-6.158688570020014"><ele>1436.0</ele><time>2026-04-24T16:13:35Z</time></trkpt><trkpt lat="31.170298664911982" lon="-6.158573515050329"><ele>1436.0</ele><time>2026-04-24T16:13:36Z</time></trkpt><trkpt lat="31.170576562835176" lon="-6.158454633215663"><ele>1436.0</ele><time>2026-04-24T16:13:37Z</time></trkpt><trkpt lat="31.170857144069764" lon="-6.158336019992317"><ele>1436.0</ele><time>2026-04-24T16:13:38Z</time></trkpt><trkpt lat="31.17114250379309" lon="-6.158221446601327"><ele>1436.0</ele><time>2026-04-24T16:13:39Z</time></trkpt><trkpt lat="31.171428226161655" lon="-6.158111331558147"><ele>1435.5</ele><time>2026-04-24T16:13:40Z</time></trkpt><trkpt lat="31.17171528938719" lon="-6.158002151704926"><ele>1435.0</ele><time>2026-04-24T16:13:41Z</time></trkpt><trkpt lat="31.172001394191028" lon="-6.157889260762494"><ele>1435.0</ele><time>2026-04-24T16:13:42Z</time></trkpt><trkpt lat="31.172283678923133" lon="-6.157775162206637"><ele>1435.0</ele><time>2026-04-24T16:13:43Z</time></trkpt><trkpt lat="31.172570606060276" lon="-6.1576564542505725"><ele>1434.5</ele><time>2026-04-24T16:13:44Z</time></trkpt><trkpt lat="31.172863300098857" lon="-6.157538292680208"><ele>1434.0</ele><time>2026-04-24T16:13:45Z</time></trkpt><trkpt lat="31.173164445923124" lon="-6.1574275484974645"><ele>1436.5</ele><time>2026-04-24T16:13:46Z</time></trkpt><trkpt lat="31.173471393811987" lon="-6.157325590005543"><ele>1439.0</ele><time>2026-04-24T16:13:47Z</time></trkpt><trkpt lat="31.173780413875683" lon="-6.157239744296847"><ele>1438.5</ele><time>2026-04-24T16:13:48Z</time></trkpt><trkpt lat="31.17409747599637" lon="-6.157169718493416"><ele>1438.0</ele><time>2026-04-24T16:13:49Z</time></trkpt><trkpt lat="31.174419249920742" lon="-6.157115032958921"><ele>1438.0</ele><time>2026-04-24T16:13:50Z</time></trkpt><trkpt lat="31.174743863464926" lon="-6.157071076269067"><ele>1438.0</ele><time>2026-04-24T16:13:51Z</time></trkpt><trkpt lat="31.175067353446618" lon="-6.157032352978127"><ele>1438.0</ele><time>2026-04-24T16:13:52Z</time></trkpt><trkpt lat="31.175393006701775" lon="-6.156997439266323"><ele>1438.0</ele><time>2026-04-24T16:13:53Z</time></trkpt><trkpt lat="31.175717042503177" lon="-6.1569660516438915"><ele>1439.0</ele><time>2026-04-24T16:13:54Z</time></trkpt><trkpt lat="31.17603485966271" lon="-6.156933835323545"><ele>1440.0</ele><time>2026-04-24T16:13:55Z</time></trkpt><trkpt lat="31.17635066618706" lon="-6.1569017435362365"><ele>1440.5</ele><time>2026-04-24T16:13:56Z</time></trkpt><trkpt lat="31.17666031596964" lon="-6.156868330348337"><ele>1441.0</ele><time>2026-04-24T16:13:57Z</time></trkpt><trkpt lat="31.176948007463242" lon="-6.156837443840383"><ele>1441.0</ele><time>2026-04-24T16:13:58Z</time></trkpt><trkpt lat="31.177206409734328" lon="-6.156809454624945"><ele>1441.0</ele><time>2026-04-24T16:13:59Z</time></trkpt><trkpt lat="31.17745744603629" lon="-6.156779089130172"><ele>1443.5</ele><time>2026-04-24T16:14:00Z</time></trkpt><trkpt lat="31.1776956744805" lon="-6.15674819927307"><ele>1446.0</ele><time>2026-04-24T16:14:01Z</time></trkpt><trkpt lat="31.177920156361687" lon="-6.156717774478754"><ele>1446.0</ele><time>2026-04-24T16:14:02Z</time></trkpt><trkpt lat="31.17813162530834" lon="-6.156683690777469"><ele>1446.0</ele><time>2026-04-24T16:14:03Z</time></trkpt><trkpt lat="31.178327192140962" lon="-6.156609818604963"><ele>1446.0</ele><time>2026-04-24T16:14:04Z</time></trkpt><trkpt lat="31.178521493184437" lon="-6.156564290692624"><ele>1443.3333333333333</ele><time>2026-04-24T16:14:05Z</time></trkpt><trkpt lat="31.17872013443737" lon="-6.156494627693492"><ele>1440.6666666666665</ele><time>2026-04-24T16:14:06Z</time></trkpt><trkpt lat="31.178921053035822" lon="-6.156399089818153"><ele>1438.0</ele><time>2026-04-24T16:14:07Z</time></trkpt><trkpt lat="31.17912929999177" lon="-6.156297546754414"><ele>1433.5</ele><time>2026-04-24T16:14:08Z</time></trkpt><trkpt lat="31.179333711576" lon="-6.156153648350435"><ele>1429.0</ele><time>2026-04-24T16:14:09Z</time></trkpt><trkpt lat="31.179531359106193" lon="-6.155980242539879"><ele>1429.0</ele><time>2026-04-24T16:14:10Z</time></trkpt><trkpt lat="31.17973275526281" lon="-6.1558105561724155"><ele>1429.0</ele><time>2026-04-24T16:14:11Z</time></trkpt><trkpt lat="31.179933307213854" lon="-6.155642164276996"><ele>1427.0</ele><time>2026-04-24T16:14:12Z</time></trkpt><trkpt lat="31.180138640221397" lon="-6.155470884135081"><ele>1425.0</ele><time>2026-04-24T16:14:13Z</time></trkpt><trkpt lat="31.180338939409108" lon="-6.155289492325803"><ele>1425.0</ele><time>2026-04-24T16:14:14Z</time></trkpt><trkpt lat="31.180534667483133" lon="-6.155098896271108"><ele>1425.0</ele><time>2026-04-24T16:14:15Z</time></trkpt><trkpt lat="31.180708646905032" lon="-6.154877254011172"><ele>1423.5</ele><time>2026-04-24T16:14:16Z</time></trkpt><trkpt lat="31.18085619463839" lon="-6.154629050306463"><ele>1422.0</ele><time>2026-04-24T16:14:17Z</time></trkpt><trkpt lat="31.18097812776537" lon="-6.154377232238648"><ele>1422.0</ele><time>2026-04-24T16:14:18Z</time></trkpt><trkpt lat="31.181071554934586" lon="-6.154117389547786"><ele>1422.0</ele><time>2026-04-24T16:14:19Z</time></trkpt><trkpt lat="31.18113201466283" lon="-6.1538575780280675"><ele>1421.5</ele><time>2026-04-24T16:14:20Z</time></trkpt><trkpt lat="31.18117774339854" lon="-6.15358588373572"><ele>1421.0</ele><time>2026-04-24T16:14:21Z</time></trkpt><trkpt lat="31.18120593742891" lon="-6.153300768198938"><ele>1418.0</ele><time>2026-04-24T16:14:22Z</time></trkpt><trkpt lat="31.18120393758654" lon="-6.152999403531667"><ele>1415.0</ele><time>2026-04-24T16:14:23Z</time></trkpt><trkpt lat="31.18116531793238" lon="-6.152687026151443"><ele>1413.0</ele><time>2026-04-24T16:14:24Z</time></trkpt><trkpt lat="31.181115309093283" lon="-6.1523585821832025"><ele>1411.0</ele><time>2026-04-24T16:14:25Z</time></trkpt><trkpt lat="31.18106600338948" lon="-6.152016645223806"><ele>1411.0</ele><time>2026-04-24T16:14:26Z</time></trkpt><trkpt lat="31.181017326124547" lon="-6.1516689187893006"><ele>1411.0</ele><time>2026-04-24T16:14:27Z</time></trkpt><trkpt lat="31.180968671608028" lon="-6.151317904826137"><ele>1408.5</ele><time>2026-04-24T16:14:28Z</time></trkpt><trkpt lat="31.180919095065548" lon="-6.150964320231901"><ele>1406.0</ele><time>2026-04-24T16:14:29Z</time></trkpt><trkpt lat="31.180867503537176" lon="-6.150612379597332"><ele>1403.0</ele><time>2026-04-24T16:14:30Z</time></trkpt><trkpt lat="31.180816510226947" lon="-6.150263110550994"><ele>1400.0</ele><time>2026-04-24T16:14:31Z</time></trkpt><trkpt lat="31.1807652563129" lon="-6.149917422199494"><ele>1398.5</ele><time>2026-04-24T16:14:32Z</time></trkpt><trkpt lat="31.180711146041464" lon="-6.149577664881406"><ele>1397.0</ele><time>2026-04-24T16:14:33Z</time></trkpt><trkpt lat="31.180657829710103" lon="-6.149249285523311"><ele>1399.0</ele><time>2026-04-24T16:14:34Z</time></trkpt><trkpt lat="31.180607372406005" lon="-6.148925647761458"><ele>1401.0</ele><time>2026-04-24T16:14:35Z</time></trkpt><trkpt lat="31.18057279179168" lon="-6.148606755830131"><ele>1401.0</ele><time>2026-04-24T16:14:36Z</time></trkpt><trkpt lat="31.180543594527105" lon="-6.1482899829967055"><ele>1401.0</ele><time>2026-04-24T16:14:37Z</time></trkpt><trkpt lat="31.180541341794882" lon="-6.14797253399812"><ele>1402.5</ele><time>2026-04-24T16:14:38Z</time></trkpt><trkpt lat="31.18055026167036" lon="-6.147678987381234"><ele>1404.0</ele><time>2026-04-24T16:14:39Z</time></trkpt><trkpt lat="31.18055904152321" lon="-6.1473900487889255"><ele>1404.0</ele><time>2026-04-24T16:14:40Z</time></trkpt><trkpt lat="31.180732095553143" lon="-6.1471023210803"><ele>1404.0</ele><time>2026-04-24T16:14:41Z</time></trkpt><trkpt lat="31.180844609973313" lon="-6.146816554445835"><ele>1405.5</ele><time>2026-04-24T16:14:42Z</time></trkpt><trkpt lat="31.18098638046204" lon="-6.146541440494378"><ele>1407.0</ele><time>2026-04-24T16:14:43Z</time></trkpt><trkpt lat="31.18115380260267" lon="-6.14628941755294"><ele>1407.0</ele><time>2026-04-24T16:14:44Z</time></trkpt><trkpt lat="31.181346631166576" lon="-6.146062213829258"><ele>1407.0</ele><time>2026-04-24T16:14:45Z</time></trkpt><trkpt lat="31.1815607985092" lon="-6.145854739272915"><ele>1410.5</ele><time>2026-04-24T16:14:46Z</time></trkpt><trkpt lat="31.181795042232523" lon="-6.145675152101704"><ele>1414.0</ele><time>2026-04-24T16:14:47Z</time></trkpt><trkpt lat="31.1820438987584" lon="-6.145518885679649"><ele>1414.0</ele><time>2026-04-24T16:14:48Z</time></trkpt><trkpt lat="31.182299877565647" lon="-6.145369805905961"><ele>1414.0</ele><time>2026-04-24T16:14:49Z</time></trkpt><trkpt lat="31.18255539722191" lon="-6.145216689655926"><ele>1417.5</ele><time>2026-04-24T16:14:50Z</time></trkpt><trkpt lat="31.182811561441437" lon="-6.145061199935285"><ele>1421.0</ele><time>2026-04-24T16:14:51Z</time></trkpt><trkpt lat="31.183073062827813" lon="-6.144904120008563"><ele>1423.5</ele><time>2026-04-24T16:14:52Z</time></trkpt><trkpt lat="31.183335078171666" lon="-6.144742924258486"><ele>1426.0</ele><time>2026-04-24T16:14:53Z</time></trkpt><trkpt lat="31.183581527529746" lon="-6.144574284862483"><ele>1426.0</ele><time>2026-04-24T16:14:54Z</time></trkpt><trkpt lat="31.183798786787552" lon="-6.144393512536703"><ele>1426.0</ele><time>2026-04-24T16:14:55Z</time></trkpt><trkpt lat="31.18399701586653" lon="-6.144190287933551"><ele>1426.5</ele><time>2026-04-24T16:14:56Z</time></trkpt><trkpt lat="31.184182550415393" lon="-6.1439593395044865"><ele>1427.0</ele><time>2026-04-24T16:14:57Z</time></trkpt><trkpt lat="31.184350351257322" lon="-6.143699608557945"><ele>1427.0</ele><time>2026-04-24T16:14:58Z</time></trkpt><trkpt lat="31.184506725116712" lon="-6.143424747483662"><ele>1427.0</ele><time>2026-04-24T16:14:59Z</time></trkpt><trkpt lat="31.184664514989482" lon="-6.143146529199094"><ele>1426.5</ele><time>2026-04-24T16:15:00Z</time></trkpt><trkpt lat="31.184819054624903" lon="-6.142871626837143"><ele>1426.0</ele><time>2026-04-24T16:15:01Z</time></trkpt><trkpt lat="31.18496940383203" lon="-6.142599410049518"><ele>1428.0</ele><time>2026-04-24T16:15:02Z</time></trkpt><trkpt lat="31.185120647119916" lon="-6.142324219237531"><ele>1430.0</ele><time>2026-04-24T16:15:03Z</time></trkpt><trkpt lat="31.185276826525076" lon="-6.142039767054485"><ele>1430.0</ele><time>2026-04-24T16:15:04Z</time></trkpt><trkpt lat="31.185437324237956" lon="-6.141748696389575"><ele>1430.0</ele><time>2026-04-24T16:15:05Z</time></trkpt><trkpt lat="31.185600428023463" lon="-6.141454270553366"><ele>1423.0</ele><time>2026-04-24T16:15:06Z</time></trkpt><trkpt lat="31.185767636715973" lon="-6.141156071006139"><ele>1416.0</ele><time>2026-04-24T16:15:07Z</time></trkpt><trkpt lat="31.18593799692789" lon="-6.140852382083601"><ele>1416.0</ele><time>2026-04-24T16:15:08Z</time></trkpt><trkpt lat="31.186111082811795" lon="-6.140540310351576"><ele>1416.0</ele><time>2026-04-24T16:15:09Z</time></trkpt><trkpt lat="31.186284841822275" lon="-6.140223609221918"><ele>1416.0</ele><time>2026-04-24T16:15:10Z</time></trkpt><trkpt lat="31.186458289090464" lon="-6.13990406224942"><ele>1416.0</ele><time>2026-04-24T16:15:11Z</time></trkpt><trkpt lat="31.186630653888788" lon="-6.139584974307874"><ele>1416.5</ele><time>2026-04-24T16:15:12Z</time></trkpt><trkpt lat="31.186803553746604" lon="-6.139268552879633"><ele>1417.0</ele><time>2026-04-24T16:15:13Z</time></trkpt><trkpt lat="31.186977632921597" lon="-6.138952577654156"><ele>1417.5</ele><time>2026-04-24T16:15:14Z</time></trkpt><trkpt lat="31.18715203069411" lon="-6.1386382876235865"><ele>1418.0</ele><time>2026-04-24T16:15:15Z</time></trkpt><trkpt lat="31.187323908372544" lon="-6.1383286292699895"><ele>1416.5</ele><time>2026-04-24T16:15:16Z</time></trkpt><trkpt lat="31.18749904800019" lon="-6.138027054610315"><ele>1415.0</ele><time>2026-04-24T16:15:17Z</time></trkpt><trkpt lat="31.18768144404524" lon="-6.13774129294631"><ele>1415.0</ele><time>2026-04-24T16:15:18Z</time></trkpt><trkpt lat="31.187881475499086" lon="-6.137479801867481"><ele>1415.0</ele><time>2026-04-24T16:15:19Z</time></trkpt><trkpt lat="31.188099184500818" lon="-6.137238373204213"><ele>1416.0</ele><time>2026-04-24T16:15:20Z</time></trkpt><trkpt lat="31.188330774110707" lon="-6.13701847806381"><ele>1417.0</ele><time>2026-04-24T16:15:21Z</time></trkpt><trkpt lat="31.188576236251848" lon="-6.1368190193456265"><ele>1417.0</ele><time>2026-04-24T16:15:22Z</time></trkpt><trkpt lat="31.18884551008061" lon="-6.136651477510138"><ele>1417.0</ele><time>2026-04-24T16:15:23Z</time></trkpt><trkpt lat="31.189128044563965" lon="-6.13650414636141"><ele>1415.0</ele><time>2026-04-24T16:15:24Z</time></trkpt><trkpt lat="31.189417676407963" lon="-6.136361754341857"><ele>1413.0</ele><time>2026-04-24T16:15:25Z</time></trkpt><trkpt lat="31.189704136072972" lon="-6.136225383234965"><ele>1414.0</ele><time>2026-04-24T16:15:26Z</time></trkpt><trkpt lat="31.189986235742097" lon="-6.136098821726637"><ele>1415.0</ele><time>2026-04-24T16:15:27Z</time></trkpt><trkpt lat="31.190261711666476" lon="-6.135978177340818"><ele>1415.0</ele><time>2026-04-24T16:15:28Z</time></trkpt><trkpt lat="31.190531328177958" lon="-6.135858272918019"><ele>1415.0</ele><time>2026-04-24T16:15:29Z</time></trkpt><trkpt lat="31.190798155453948" lon="-6.1357375249145765"><ele>1418.5</ele><time>2026-04-24T16:15:30Z</time></trkpt><trkpt lat="31.191057346586838" lon="-6.135614367233929"><ele>1422.0</ele><time>2026-04-24T16:15:31Z</time></trkpt><trkpt lat="31.191312149650138" lon="-6.1354905057652855"><ele>1420.5</ele><time>2026-04-24T16:15:32Z</time></trkpt><trkpt lat="31.191565397696284" lon="-6.13536781197469"><ele>1419.0</ele><time>2026-04-24T16:15:33Z</time></trkpt><trkpt lat="31.19181866522252" lon="-6.135248135712524"><ele>1419.0</ele><time>2026-04-24T16:15:34Z</time></trkpt><trkpt lat="31.192072504583034" lon="-6.13513232205692"><ele>1419.0</ele><time>2026-04-24T16:15:35Z</time></trkpt><trkpt lat="31.19231598995517" lon="-6.1350232741982875"><ele>1419.5</ele><time>2026-04-24T16:15:36Z</time></trkpt><trkpt lat="31.192553362329583" lon="-6.134915246352024"><ele>1420.0</ele><time>2026-04-24T16:15:37Z</time></trkpt><trkpt lat="31.192793309881285" lon="-6.134797445088434"><ele>1421.5</ele><time>2026-04-24T16:15:38Z</time></trkpt><trkpt lat="31.193031988860927" lon="-6.134664286210743"><ele>1423.0</ele><time>2026-04-24T16:15:39Z</time></trkpt><trkpt lat="31.19326465371666" lon="-6.134517895118134"><ele>1419.5</ele><time>2026-04-24T16:15:40Z</time></trkpt><trkpt lat="31.193486726619355" lon="-6.134358274076737"><ele>1416.0</ele><time>2026-04-24T16:15:41Z</time></trkpt><trkpt lat="31.193703831014354" lon="-6.134181476161839"><ele>1414.5</ele><time>2026-04-24T16:15:42Z</time></trkpt><trkpt lat="31.193910006388705" lon="-6.133979239978235"><ele>1413.0</ele><time>2026-04-24T16:15:43Z</time></trkpt><trkpt lat="31.194101807066286" lon="-6.133745947880357"><ele>1407.5</ele><time>2026-04-24T16:15:44Z</time></trkpt><trkpt lat="31.194274337816626" lon="-6.133491583677452"><ele>1402.0</ele><time>2026-04-24T16:15:45Z</time></trkpt><trkpt lat="31.194428144892488" lon="-6.133222911103875"><ele>1408.0</ele><time>2026-04-24T16:15:46Z</time></trkpt><trkpt lat="31.19454268389063" lon="-6.132928741177497"><ele>1414.0</ele><time>2026-04-24T16:15:47Z</time></trkpt><trkpt lat="31.194632299427116" lon="-6.132627351498173"><ele>1416.5</ele><time>2026-04-24T16:15:48Z</time></trkpt><trkpt lat="31.19472114462626" lon="-6.132313426807816"><ele>1419.0</ele><time>2026-04-24T16:15:49Z</time></trkpt><trkpt lat="31.194791143362924" lon="-6.131992791662893"><ele>1420.5</ele><time>2026-04-24T16:15:50Z</time></trkpt><trkpt lat="31.194843300814448" lon="-6.131662265316573"><ele>1422.0</ele><time>2026-04-24T16:15:51Z</time></trkpt><trkpt lat="31.194888483589942" lon="-6.131324468198346"><ele>1423.0</ele><time>2026-04-24T16:15:52Z</time></trkpt><trkpt lat="31.19493257432212" lon="-6.130994835437049"><ele>1424.0</ele><time>2026-04-24T16:15:53Z</time></trkpt><trkpt lat="31.19497369528068" lon="-6.130673902505857"><ele>1424.5</ele><time>2026-04-24T16:15:54Z</time></trkpt><trkpt lat="31.195014100497673" lon="-6.130360225577002"><ele>1425.0</ele><time>2026-04-24T16:15:55Z</time></trkpt><trkpt lat="31.195053135854494" lon="-6.130052768892035"><ele>1426.5</ele><time>2026-04-24T16:15:56Z</time></trkpt><trkpt lat="31.19509168707631" lon="-6.129752179664957"><ele>1428.0</ele><time>2026-04-24T16:15:57Z</time></trkpt><trkpt lat="31.195127670183833" lon="-6.12945370159922"><ele>1428.0</ele><time>2026-04-24T16:15:58Z</time></trkpt><trkpt lat="31.19516521644434" lon="-6.12915469318898"><ele>1428.0</ele><time>2026-04-24T16:15:59Z</time></trkpt><trkpt lat="31.1952013605923" lon="-6.128857613768187"><ele>1428.5</ele><time>2026-04-24T16:16:00Z</time></trkpt><trkpt lat="31.195238357116658" lon="-6.128556292382652"><ele>1429.0</ele><time>2026-04-24T16:16:01Z</time></trkpt><trkpt lat="31.19527611203206" lon="-6.128248542777564"><ele>1430.0</ele><time>2026-04-24T16:16:02Z</time></trkpt><trkpt lat="31.195314496382526" lon="-6.12793438163256"><ele>1431.0</ele><time>2026-04-24T16:16:03Z</time></trkpt><trkpt lat="31.195353264602577" lon="-6.1276166894996615"><ele>1431.5</ele><time>2026-04-24T16:16:04Z</time></trkpt><trkpt lat="31.19539231993401" lon="-6.127296172117264"><ele>1432.0</ele><time>2026-04-24T16:16:05Z</time></trkpt><trkpt lat="31.195432830073695" lon="-6.126968101831752"><ele>1432.0</ele><time>2026-04-24T16:16:06Z</time></trkpt><trkpt lat="31.195474436988036" lon="-6.126632152372023"><ele>1432.0</ele><time>2026-04-24T16:16:07Z</time></trkpt><trkpt lat="31.195516335358835" lon="-6.126290692194974"><ele>1433.5</ele><time>2026-04-24T16:16:08Z</time></trkpt><trkpt lat="31.195560394198317" lon="-6.125942750827002"><ele>1435.0</ele><time>2026-04-24T16:16:09Z</time></trkpt><trkpt lat="31.195604371369598" lon="-6.125591589510752"><ele>1435.0</ele><time>2026-04-24T16:16:10Z</time></trkpt><trkpt lat="31.195648771340952" lon="-6.125236819162149"><ele>1435.0</ele><time>2026-04-24T16:16:11Z</time></trkpt><trkpt lat="31.195694020459268" lon="-6.1248806921169825"><ele>1431.0</ele><time>2026-04-24T16:16:12Z</time></trkpt><trkpt lat="31.19573852407979" lon="-6.124525602045682"><ele>1427.0</ele><time>2026-04-24T16:16:13Z</time></trkpt><trkpt lat="31.195782444451286" lon="-6.124174788254934"><ele>1427.0</ele><time>2026-04-24T16:16:14Z</time></trkpt><trkpt lat="31.19582576034541" lon="-6.123831934855279"><ele>1427.0</ele><time>2026-04-24T16:16:15Z</time></trkpt><trkpt lat="31.195870138180975" lon="-6.123484826111346"><ele>1427.0</ele><time>2026-04-24T16:16:16Z</time></trkpt><trkpt lat="31.195914128413044" lon="-6.123134401079615"><ele>1427.0</ele><time>2026-04-24T16:16:17Z</time></trkpt><trkpt lat="31.195955908593433" lon="-6.122784579206024"><ele>1427.0</ele><time>2026-04-24T16:16:18Z</time></trkpt><trkpt lat="31.19599630337769" lon="-6.1224333423932515"><ele>1427.0</ele><time>2026-04-24T16:16:19Z</time></trkpt><trkpt lat="31.196035918960956" lon="-6.122087230855169"><ele>1428.0</ele><time>2026-04-24T16:16:20Z</time></trkpt><trkpt lat="31.1960751612077" lon="-6.1217483412535225"><ele>1429.0</ele><time>2026-04-24T16:16:21Z</time></trkpt><trkpt lat="31.196109797337552" lon="-6.121421857292716"><ele>1429.0</ele><time>2026-04-24T16:16:22Z</time></trkpt><trkpt lat="31.19614372664397" lon="-6.1210963241835366"><ele>1429.0</ele><time>2026-04-24T16:16:23Z</time></trkpt><trkpt lat="31.196185498021705" lon="-6.12077363546846"><ele>1430.5</ele><time>2026-04-24T16:16:24Z</time></trkpt><trkpt lat="31.196234532043828" lon="-6.120461531988794"><ele>1432.0</ele><time>2026-04-24T16:16:25Z</time></trkpt><trkpt lat="31.19629918259013" lon="-6.120156268728991"><ele>1431.5</ele><time>2026-04-24T16:16:26Z</time></trkpt><trkpt lat="31.19638038721802" lon="-6.119859869885131"><ele>1431.0</ele><time>2026-04-24T16:16:27Z</time></trkpt><trkpt lat="31.196482049681" lon="-6.119575361988571"><ele>1424.5</ele><time>2026-04-24T16:16:28Z</time></trkpt><trkpt lat="31.196602041292625" lon="-6.119319264555432"><ele>1418.0</ele><time>2026-04-24T16:16:29Z</time></trkpt><trkpt lat="31.19672027145444" lon="-6.119079124492689"><ele>1419.0</ele><time>2026-04-24T16:16:30Z</time></trkpt><trkpt lat="31.196833289904408" lon="-6.1188495700627605"><ele>1420.0</ele><time>2026-04-24T16:16:31Z</time></trkpt><trkpt lat="31.196950490185394" lon="-6.118630672307984"><ele>1421.0</ele><time>2026-04-24T16:16:32Z</time></trkpt><trkpt lat="31.19727784441514" lon="-6.118554011916763"><ele>1419.0</ele><time>2026-04-24T16:16:33Z</time></trkpt><trkpt lat="31.197480766678364" lon="-6.118410555666433"><ele>1417.0</ele><time>2026-04-24T16:16:34Z</time></trkpt><trkpt lat="31.19768126878227" lon="-6.118293978983028"><ele>1417.6666666666665</ele><time>2026-04-24T16:16:35Z</time></trkpt><trkpt lat="31.197885210198674" lon="-6.118192878779238"><ele>1418.3333333333333</ele><time>2026-04-24T16:16:36Z</time></trkpt><trkpt lat="31.19809583905542" lon="-6.118109691870623"><ele>1419.0</ele><time>2026-04-24T16:16:37Z</time></trkpt><trkpt lat="31.198309654549213" lon="-6.118050317989978"><ele>1422.5</ele><time>2026-04-24T16:16:38Z</time></trkpt><trkpt lat="31.19853005144263" lon="-6.1180265548712125"><ele>1426.0</ele><time>2026-04-24T16:16:39Z</time></trkpt><trkpt lat="31.19876756976663" lon="-6.118047668114522"><ele>1431.0</ele><time>2026-04-24T16:16:40Z</time></trkpt><trkpt lat="31.199020282675683" lon="-6.11810799756697"><ele>1436.0</ele><time>2026-04-24T16:16:41Z</time></trkpt><trkpt lat="31.199282887272684" lon="-6.118195340939077"><ele>1430.5</ele><time>2026-04-24T16:16:42Z</time></trkpt><trkpt lat="31.199555315837753" lon="-6.118288437605106"><ele>1425.0</ele><time>2026-04-24T16:16:43Z</time></trkpt><trkpt lat="31.199829726586366" lon="-6.1183873732951986"><ele>1426.0</ele><time>2026-04-24T16:16:44Z</time></trkpt><trkpt lat="31.200100059936503" lon="-6.118496879661771"><ele>1427.0</ele><time>2026-04-24T16:16:45Z</time></trkpt><trkpt lat="31.2003548846332" lon="-6.118608304106685"><ele>1427.0</ele><time>2026-04-24T16:16:46Z</time></trkpt><trkpt lat="31.200596291242395" lon="-6.1187117935386"><ele>1427.0</ele><time>2026-04-24T16:16:47Z</time></trkpt><trkpt lat="31.200831222551447" lon="-6.118801223675868"><ele>1430.0</ele><time>2026-04-24T16:16:48Z</time></trkpt><trkpt lat="31.201069823018784" lon="-6.1188718418434735"><ele>1433.0</ele><time>2026-04-24T16:16:49Z</time></trkpt><trkpt lat="31.20130899501014" lon="-6.118918127884356"><ele>1435.0</ele><time>2026-04-24T16:16:50Z</time></trkpt><trkpt lat="31.201549681175496" lon="-6.118937278949593"><ele>1437.0</ele><time>2026-04-24T16:16:51Z</time></trkpt><trkpt lat="31.201787313393137" lon="-6.118935471791753"><ele>1437.0</ele><time>2026-04-24T16:16:52Z</time></trkpt><trkpt lat="31.202016281806184" lon="-6.11890810136676"><ele>1437.0</ele><time>2026-04-24T16:16:53Z</time></trkpt><trkpt lat="31.20223917210511" lon="-6.118852959380674"><ele>1433.0</ele><time>2026-04-24T16:16:54Z</time></trkpt><trkpt lat="31.202456516409917" lon="-6.118762104157305"><ele>1429.0</ele><time>2026-04-24T16:16:55Z</time></trkpt><trkpt lat="31.202668237993773" lon="-6.118638034322821"><ele>1429.0</ele><time>2026-04-24T16:16:56Z</time></trkpt><trkpt lat="31.2028745148552" lon="-6.118492526962915"><ele>1429.0</ele><time>2026-04-24T16:16:57Z</time></trkpt><trkpt lat="31.203077475476757" lon="-6.1183374121393745"><ele>1428.5</ele><time>2026-04-24T16:16:58Z</time></trkpt><trkpt lat="31.203277561194568" lon="-6.1181723981945035"><ele>1428.0</ele><time>2026-04-24T16:16:59Z</time></trkpt><trkpt lat="31.203476268943415" lon="-6.118000503330627"><ele>1428.0</ele><time>2026-04-24T16:17:00Z</time></trkpt><trkpt lat="31.2036841811242" lon="-6.11782145645777"><ele>1428.0</ele><time>2026-04-24T16:17:01Z</time></trkpt><trkpt lat="31.203893516512302" lon="-6.11764466720392"><ele>1430.0</ele><time>2026-04-24T16:17:02Z</time></trkpt><trkpt lat="31.204110472800718" lon="-6.117461480244902"><ele>1432.0</ele><time>2026-04-24T16:17:03Z</time></trkpt><trkpt lat="31.204341708702486" lon="-6.117265307270938"><ele>1433.5</ele><time>2026-04-24T16:17:04Z</time></trkpt><trkpt lat="31.204577759483342" lon="-6.117058727863206"><ele>1435.0</ele><time>2026-04-24T16:17:05Z</time></trkpt><trkpt lat="31.20480796471296" lon="-6.116850278783381"><ele>1432.5</ele><time>2026-04-24T16:17:06Z</time></trkpt><trkpt lat="31.205027449636354" lon="-6.116641930906701"><ele>1430.0</ele><time>2026-04-24T16:17:07Z</time></trkpt><trkpt lat="31.205232618038714" lon="-6.116438873971941"><ele>1430.0</ele><time>2026-04-24T16:17:08Z</time></trkpt><trkpt lat="31.20542561943372" lon="-6.116245390462159"><ele>1430.0</ele><time>2026-04-24T16:17:09Z</time></trkpt><trkpt lat="31.20561188260202" lon="-6.116052575417087"><ele>1428.5</ele><time>2026-04-24T16:17:10Z</time></trkpt><trkpt lat="31.20578839197146" lon="-6.115855602627393"><ele>1427.0</ele><time>2026-04-24T16:17:11Z</time></trkpt><trkpt lat="31.205948043916024" lon="-6.115652885938201"><ele>1431.0</ele><time>2026-04-24T16:17:12Z</time></trkpt><trkpt lat="31.206094619285007" lon="-6.115438718186769"><ele>1435.0</ele><time>2026-04-24T16:17:13Z</time></trkpt><trkpt lat="31.206226447842702" lon="-6.115214071855156"><ele>1435.0</ele><time>2026-04-24T16:17:14Z</time></trkpt><trkpt lat="31.206348284255476" lon="-6.114981486433256"><ele>1435.0</ele><time>2026-04-24T16:17:15Z</time></trkpt><trkpt lat="31.206467726749885" lon="-6.114740032912414"><ele>1434.5</ele><time>2026-04-24T16:17:16Z</time></trkpt><trkpt lat="31.20658599834781" lon="-6.1144851918597745"><ele>1434.0</ele><time>2026-04-24T16:17:17Z</time></trkpt><trkpt lat="31.206699589376242" lon="-6.114217865369326"><ele>1436.0</ele><time>2026-04-24T16:17:18Z</time></trkpt><trkpt lat="31.206807272531815" lon="-6.113938132501149"><ele>1438.0</ele><time>2026-04-24T16:17:19Z</time></trkpt><trkpt lat="31.20690942971224" lon="-6.113646813338757"><ele>1438.0</ele><time>2026-04-24T16:17:20Z</time></trkpt><trkpt lat="31.207017619618117" lon="-6.113352473282206"><ele>1438.0</ele><time>2026-04-24T16:17:21Z</time></trkpt><trkpt lat="31.20713196820098" lon="-6.113055664897784"><ele>1438.5</ele><time>2026-04-24T16:17:22Z</time></trkpt><trkpt lat="31.20724613895145" lon="-6.112757803349598"><ele>1439.0</ele><time>2026-04-24T16:17:23Z</time></trkpt><trkpt lat="31.207360493739493" lon="-6.1124604466260655"><ele>1435.0</ele><time>2026-04-24T16:17:24Z</time></trkpt><trkpt lat="31.207474699843537" lon="-6.112162317254233"><ele>1431.0</ele><time>2026-04-24T16:17:25Z</time></trkpt><trkpt lat="31.207587361152175" lon="-6.111865656549909"><ele>1432.0</ele><time>2026-04-24T16:17:26Z</time></trkpt><trkpt lat="31.207700859240365" lon="-6.111570931291521"><ele>1433.0</ele><time>2026-04-24T16:17:27Z</time></trkpt><trkpt lat="31.207813200496936" lon="-6.111277033592532"><ele>1433.0</ele><time>2026-04-24T16:17:28Z</time></trkpt><trkpt lat="31.207925395876465" lon="-6.110984984261251"><ele>1433.0</ele><time>2026-04-24T16:17:29Z</time></trkpt><trkpt lat="31.20803751964055" lon="-6.1106937368739604"><ele>1433.0</ele><time>2026-04-24T16:17:30Z</time></trkpt><trkpt lat="31.208146171059038" lon="-6.11040536541758"><ele>1433.0</ele><time>2026-04-24T16:17:31Z</time></trkpt><trkpt lat="31.20825573086145" lon="-6.110114470839775"><ele>1436.5</ele><time>2026-04-24T16:17:32Z</time></trkpt><trkpt lat="31.208367938492927" lon="-6.109822275173228"><ele>1440.0</ele><time>2026-04-24T16:17:33Z</time></trkpt><trkpt lat="31.208478343808576" lon="-6.1095316841301965"><ele>1440.0</ele><time>2026-04-24T16:17:34Z</time></trkpt><trkpt lat="31.208588004381948" lon="-6.109241374378971"><ele>1440.0</ele><time>2026-04-24T16:17:35Z</time></trkpt><trkpt lat="31.208704181075653" lon="-6.108955008819766"><ele>1443.0</ele><time>2026-04-24T16:17:36Z</time></trkpt><trkpt lat="31.208829460347854" lon="-6.108673993916795"><ele>1446.0</ele><time>2026-04-24T16:17:37Z</time></trkpt><trkpt lat="31.208934903964607" lon="-6.108372747210804"><ele>1447.5</ele><time>2026-04-24T16:17:38Z</time></trkpt><trkpt lat="31.209076418770962" lon="-6.108091700109676"><ele>1449.0</ele><time>2026-04-24T16:17:39Z</time></trkpt><trkpt lat="31.209215812836355" lon="-6.107811803105455"><ele>1449.0</ele><time>2026-04-24T16:17:40Z</time></trkpt><trkpt lat="31.209355889657367" lon="-6.107526009759953"><ele>1449.0</ele><time>2026-04-24T16:17:41Z</time></trkpt><trkpt lat="31.209497417702675" lon="-6.107237821882705"><ele>1452.5</ele><time>2026-04-24T16:17:42Z</time></trkpt><trkpt lat="31.209643287114506" lon="-6.106943332648444"><ele>1456.0</ele><time>2026-04-24T16:17:43Z</time></trkpt><trkpt lat="31.209789663708527" lon="-6.106645228627298"><ele>1448.5</ele><time>2026-04-24T16:17:44Z</time></trkpt><trkpt lat="31.20994250603561" lon="-6.106347191999338"><ele>1441.0</ele><time>2026-04-24T16:17:45Z</time></trkpt><trkpt lat="31.210098109551314" lon="-6.106056708841581"><ele>1441.0</ele><time>2026-04-24T16:17:46Z</time></trkpt><trkpt lat="31.210237447575313" lon="-6.1057663326183365"><ele>1441.0</ele><time>2026-04-24T16:17:47Z</time></trkpt><trkpt lat="31.21036799236074" lon="-6.105476345780131"><ele>1443.5</ele><time>2026-04-24T16:17:48Z</time></trkpt><trkpt lat="31.210495534880295" lon="-6.105189903720428"><ele>1446.0</ele><time>2026-04-24T16:17:49Z</time></trkpt><trkpt lat="31.210621653083443" lon="-6.104905314970171"><ele>1447.0</ele><time>2026-04-24T16:17:50Z</time></trkpt><trkpt lat="31.210751415994263" lon="-6.104620088971161"><ele>1448.0</ele><time>2026-04-24T16:17:51Z</time></trkpt><trkpt lat="31.21087215593995" lon="-6.104331619734895"><ele>1444.5</ele><time>2026-04-24T16:17:52Z</time></trkpt><trkpt lat="31.210978898529987" lon="-6.10402777272807"><ele>1441.0</ele><time>2026-04-24T16:17:53Z</time></trkpt><trkpt lat="31.21107596835503" lon="-6.1037101638555695"><ele>1441.0</ele><time>2026-04-24T16:17:54Z</time></trkpt><trkpt lat="31.211168380356693" lon="-6.103385959715468"><ele>1441.0</ele><time>2026-04-24T16:17:55Z</time></trkpt><trkpt lat="31.211256749234316" lon="-6.10305531416329"><ele>1440.5</ele><time>2026-04-24T16:17:56Z</time></trkpt><trkpt lat="31.21133583318982" lon="-6.102720274723665"><ele>1440.0</ele><time>2026-04-24T16:17:57Z</time></trkpt><trkpt lat="31.21141408188398" lon="-6.102387360963175"><ele>1439.0</ele><time>2026-04-24T16:17:58Z</time></trkpt><trkpt lat="31.211495243850962" lon="-6.102060845545555"><ele>1438.0</ele><time>2026-04-24T16:17:59Z</time></trkpt><trkpt lat="31.211576305484652" lon="-6.101739816345062"><ele>1438.5</ele><time>2026-04-24T16:18:00Z</time></trkpt><trkpt lat="31.21165563800831" lon="-6.10142279820031"><ele>1439.0</ele><time>2026-04-24T16:18:01Z</time></trkpt><trkpt lat="31.211730894588513" lon="-6.101109061644667"><ele>1439.0</ele><time>2026-04-24T16:18:02Z</time></trkpt><trkpt lat="31.211799731775585" lon="-6.100805671389378"><ele>1439.0</ele><time>2026-04-24T16:18:03Z</time></trkpt><trkpt lat="31.211849137454124" lon="-6.100505388523472"><ele>1443.0</ele><time>2026-04-24T16:18:04Z</time></trkpt><trkpt lat="31.211889537652844" lon="-6.100204878136209"><ele>1447.0</ele><time>2026-04-24T16:18:05Z</time></trkpt><trkpt lat="31.21191732517945" lon="-6.0998893887157095"><ele>1450.5</ele><time>2026-04-24T16:18:06Z</time></trkpt><trkpt lat="31.21190403339771" lon="-6.099574626272399"><ele>1454.0</ele><time>2026-04-24T16:18:07Z</time></trkpt><trkpt lat="31.21185938304719" lon="-6.0992524237510235"><ele>1455.0</ele><time>2026-04-24T16:18:08Z</time></trkpt><trkpt lat="31.21178863752362" lon="-6.098942504572592"><ele>1456.0</ele><time>2026-04-24T16:18:09Z</time></trkpt><trkpt lat="31.211679177852066" lon="-6.098651615712182"><ele>1456.0</ele><time>2026-04-24T16:18:10Z</time></trkpt><trkpt lat="31.211538205712486" lon="-6.098367163082226"><ele>1456.0</ele><time>2026-04-24T16:18:11Z</time></trkpt><trkpt lat="31.21137976084928" lon="-6.0981039207499"><ele>1454.5</ele><time>2026-04-24T16:18:12Z</time></trkpt><trkpt lat="31.211185058051758" lon="-6.097875052440073"><ele>1453.0</ele><time>2026-04-24T16:18:13Z</time></trkpt><trkpt lat="31.210951727027428" lon="-6.097674523554059"><ele>1453.0</ele><time>2026-04-24T16:18:14Z</time></trkpt><trkpt lat="31.2107076661004" lon="-6.097500087999953"><ele>1453.0</ele><time>2026-04-24T16:18:15Z</time></trkpt><trkpt lat="31.210461668507527" lon="-6.09735105381978"><ele>1449.5</ele><time>2026-04-24T16:18:16Z</time></trkpt><trkpt lat="31.21020580672285" lon="-6.097226094066948"><ele>1446.0</ele><time>2026-04-24T16:18:17Z</time></trkpt><trkpt lat="31.20993932064741" lon="-6.097097937416838"><ele>1448.5</ele><time>2026-04-24T16:18:18Z</time></trkpt><trkpt lat="31.209662609146797" lon="-6.096985487671688"><ele>1451.0</ele><time>2026-04-24T16:18:19Z</time></trkpt><trkpt lat="31.209394473111153" lon="-6.096867718657267"><ele>1451.0</ele><time>2026-04-24T16:18:20Z</time></trkpt><trkpt lat="31.209133139777414" lon="-6.096750341803897"><ele>1451.0</ele><time>2026-04-24T16:18:21Z</time></trkpt><trkpt lat="31.20888011903695" lon="-6.096637387011079"><ele>1448.5</ele><time>2026-04-24T16:18:22Z</time></trkpt><trkpt lat="31.20863562667183" lon="-6.096527810799638"><ele>1446.0</ele><time>2026-04-24T16:18:23Z</time></trkpt><trkpt lat="31.208397918984563" lon="-6.096414057590862"><ele>1449.0</ele><time>2026-04-24T16:18:24Z</time></trkpt><trkpt lat="31.20815740482876" lon="-6.096302695179731"><ele>1452.0</ele><time>2026-04-24T16:18:25Z</time></trkpt><trkpt lat="31.20792969641506" lon="-6.096146557794484"><ele>1452.0</ele><time>2026-04-24T16:18:26Z</time></trkpt><trkpt lat="31.20771582326061" lon="-6.095968639761288"><ele>1452.0</ele><time>2026-04-24T16:18:27Z</time></trkpt><trkpt lat="31.20752319765688" lon="-6.095767150024472"><ele>1450.5</ele><time>2026-04-24T16:18:28Z</time></trkpt><trkpt lat="31.20735602076137" lon="-6.095533249586144"><ele>1449.0</ele><time>2026-04-24T16:18:29Z</time></trkpt><trkpt lat="31.20717952090463" lon="-6.095298825713064"><ele>1449.0</ele><time>2026-04-24T16:18:30Z</time></trkpt><trkpt lat="31.207038313427944" lon="-6.09501697208087"><ele>1449.0</ele><time>2026-04-24T16:18:31Z</time></trkpt><trkpt lat="31.206931869377122" lon="-6.094711597893471"><ele>1451.5</ele><time>2026-04-24T16:18:32Z</time></trkpt><trkpt lat="31.206840141671364" lon="-6.094417138813959"><ele>1454.0</ele><time>2026-04-24T16:18:33Z</time></trkpt><trkpt lat="31.206747386468347" lon="-6.094131347542266"><ele>1455.0</ele><time>2026-04-24T16:18:34Z</time></trkpt><trkpt lat="31.206657902431242" lon="-6.09384037303679"><ele>1456.0</ele><time>2026-04-24T16:18:35Z</time></trkpt><trkpt lat="31.20656842973946" lon="-6.093544060844502"><ele>1463.5</ele><time>2026-04-24T16:18:36Z</time></trkpt><trkpt lat="31.20647708463621" lon="-6.09324363377428"><ele>1471.0</ele><time>2026-04-24T16:18:37Z</time></trkpt><trkpt lat="31.206388017041693" lon="-6.092948433141927"><ele>1471.0</ele><time>2026-04-24T16:18:38Z</time></trkpt><trkpt lat="31.206314594129893" lon="-6.092649685515315"><ele>1471.0</ele><time>2026-04-24T16:18:39Z</time></trkpt><trkpt lat="31.206265971058507" lon="-6.092334748108264"><ele>1472.5</ele><time>2026-04-24T16:18:40Z</time></trkpt><trkpt lat="31.206255045107262" lon="-6.092007226157643"><ele>1474.0</ele><time>2026-04-24T16:18:41Z</time></trkpt><trkpt lat="31.206223570494018" lon="-6.091672521385093"><ele>1476.0</ele><time>2026-04-24T16:18:42Z</time></trkpt><trkpt lat="31.206208251595893" lon="-6.0913282716980435"><ele>1478.0</ele><time>2026-04-24T16:18:43Z</time></trkpt><trkpt lat="31.2061961975126" lon="-6.090989944190287"><ele>1479.0</ele><time>2026-04-24T16:18:44Z</time></trkpt><trkpt lat="31.206184032363787" lon="-6.09065207540548"><ele>1480.0</ele><time>2026-04-24T16:18:45Z</time></trkpt><trkpt lat="31.206171871331865" lon="-6.090309193066213"><ele>1480.0</ele><time>2026-04-24T16:18:46Z</time></trkpt><trkpt lat="31.206159577610602" lon="-6.089962912002211"><ele>1480.0</ele><time>2026-04-24T16:18:47Z</time></trkpt><trkpt lat="31.206146782569267" lon="-6.089609816039359"><ele>1482.5</ele><time>2026-04-24T16:18:48Z</time></trkpt><trkpt lat="31.20613392796536" lon="-6.089258366047787"><ele>1485.0</ele><time>2026-04-24T16:18:49Z</time></trkpt><trkpt lat="31.206120068713144" lon="-6.088912026606649"><ele>1485.5</ele><time>2026-04-24T16:18:50Z</time></trkpt><trkpt lat="31.20610750856423" lon="-6.0885780357366635"><ele>1486.0</ele><time>2026-04-24T16:18:51Z</time></trkpt><trkpt lat="31.20609669400324" lon="-6.088259274025634"><ele>1488.0</ele><time>2026-04-24T16:18:52Z</time></trkpt><trkpt lat="31.206092147150247" lon="-6.087950116688693"><ele>1490.0</ele><time>2026-04-24T16:18:53Z</time></trkpt><trkpt lat="31.2061092388394" lon="-6.087651268581961"><ele>1489.0</ele><time>2026-04-24T16:18:54Z</time></trkpt><trkpt lat="31.2061509501859" lon="-6.087357164380083"><ele>1488.0</ele><time>2026-04-24T16:18:55Z</time></trkpt><trkpt lat="31.20621630004289" lon="-6.0870703177026995"><ele>1488.0</ele><time>2026-04-24T16:18:56Z</time></trkpt><trkpt lat="31.20632060102827" lon="-6.086796381447122"><ele>1488.0</ele><time>2026-04-24T16:18:57Z</time></trkpt><trkpt lat="31.20645124871248" lon="-6.086561420887159"><ele>1488.5</ele><time>2026-04-24T16:18:58Z</time></trkpt><trkpt lat="31.206553280120115" lon="-6.08632441058028"><ele>1489.0</ele><time>2026-04-24T16:18:59Z</time></trkpt><trkpt lat="31.206652331515926" lon="-6.08609134542741"><ele>1489.0</ele><time>2026-04-24T16:19:00Z</time></trkpt><trkpt lat="31.206749204303353" lon="-6.085863406478285"><ele>1489.0</ele><time>2026-04-24T16:19:01Z</time></trkpt><trkpt lat="31.206853822107195" lon="-6.085648083410703"><ele>1489.0</ele><time>2026-04-24T16:19:02Z</time></trkpt><trkpt lat="31.20725562033423" lon="-6.085620751113396"><ele>1490.5</ele><time>2026-04-24T16:19:03Z</time></trkpt><trkpt lat="31.207462556172366" lon="-6.085494283018537"><ele>1492.0</ele><time>2026-04-24T16:19:04Z</time></trkpt><trkpt lat="31.207683603861497" lon="-6.085372273313867"><ele>1492.0</ele><time>2026-04-24T16:19:05Z</time></trkpt><trkpt lat="31.207921607835104" lon="-6.085263704353066"><ele>1492.0</ele><time>2026-04-24T16:19:06Z</time></trkpt><trkpt lat="31.2081663213206" lon="-6.085171484927007"><ele>1490.0</ele><time>2026-04-24T16:19:07Z</time></trkpt><trkpt lat="31.208413574160268" lon="-6.085078608003228"><ele>1488.0</ele><time>2026-04-24T16:19:08Z</time></trkpt><trkpt lat="31.20866310625148" lon="-6.084971980627869"><ele>1485.5</ele><time>2026-04-24T16:19:09Z</time></trkpt><trkpt lat="31.208913181870976" lon="-6.084857626392394"><ele>1483.0</ele><time>2026-04-24T16:19:10Z</time></trkpt><trkpt lat="31.20916225071733" lon="-6.084738988293882"><ele>1481.5</ele><time>2026-04-24T16:19:11Z</time></trkpt><trkpt lat="31.209408424355985" lon="-6.0846187025050185"><ele>1480.0</ele><time>2026-04-24T16:19:12Z</time></trkpt><trkpt lat="31.209649852448013" lon="-6.084493999659909"><ele>1479.5</ele><time>2026-04-24T16:19:13Z</time></trkpt><trkpt lat="31.209877205182885" lon="-6.084358916374399"><ele>1479.0</ele><time>2026-04-24T16:19:14Z</time></trkpt><trkpt lat="31.210083668854413" lon="-6.084209646412869"><ele>1480.5</ele><time>2026-04-24T16:19:15Z</time></trkpt><trkpt lat="31.210280571018874" lon="-6.084041811063529"><ele>1482.0</ele><time>2026-04-24T16:19:16Z</time></trkpt><trkpt lat="31.210477417512934" lon="-6.083852119758303"><ele>1477.0</ele><time>2026-04-24T16:19:17Z</time></trkpt><trkpt lat="31.210665901185507" lon="-6.083634794202435"><ele>1472.0</ele><time>2026-04-24T16:19:18Z</time></trkpt><trkpt lat="31.210843293419774" lon="-6.083397097240667"><ele>1473.5</ele><time>2026-04-24T16:19:19Z</time></trkpt><trkpt lat="31.21100701084606" lon="-6.08314142536496"><ele>1475.0</ele><time>2026-04-24T16:19:20Z</time></trkpt><trkpt lat="31.211160242245928" lon="-6.082869936120625"><ele>1475.0</ele><time>2026-04-24T16:19:21Z</time></trkpt><trkpt lat="31.211310448229472" lon="-6.082591596126723"><ele>1475.0</ele><time>2026-04-24T16:19:22Z</time></trkpt><trkpt lat="31.211461479725397" lon="-6.0823120690404195"><ele>1474.0</ele><time>2026-04-24T16:19:23Z</time></trkpt><trkpt lat="31.211611638976553" lon="-6.08203899663089"><ele>1473.0</ele><time>2026-04-24T16:19:24Z</time></trkpt><trkpt lat="31.211762613254916" lon="-6.081764084989361"><ele>1479.0</ele><time>2026-04-24T16:19:25Z</time></trkpt><trkpt lat="31.2119142938624" lon="-6.081483134756063"><ele>1485.0</ele><time>2026-04-24T16:19:26Z</time></trkpt><trkpt lat="31.21206731796442" lon="-6.081197674849315"><ele>1485.0</ele><time>2026-04-24T16:19:27Z</time></trkpt><trkpt lat="31.212221554641324" lon="-6.0809124688377585"><ele>1485.0</ele><time>2026-04-24T16:19:28Z</time></trkpt><trkpt lat="31.21237921670683" lon="-6.080628562384508"><ele>1482.5</ele><time>2026-04-24T16:19:29Z</time></trkpt><trkpt lat="31.212533358554435" lon="-6.080347333931085"><ele>1480.0</ele><time>2026-04-24T16:19:30Z</time></trkpt><trkpt lat="31.21268731645454" lon="-6.08006658904494"><ele>1482.5</ele><time>2026-04-24T16:19:31Z</time></trkpt><trkpt lat="31.212841127758047" lon="-6.07978810530536"><ele>1485.0</ele><time>2026-04-24T16:19:32Z</time></trkpt><trkpt lat="31.212997214339875" lon="-6.0795112403918745"><ele>1485.0</ele><time>2026-04-24T16:19:33Z</time></trkpt><trkpt lat="31.21315359539991" lon="-6.079232160503656"><ele>1485.0</ele><time>2026-04-24T16:19:34Z</time></trkpt><trkpt lat="31.213310486302397" lon="-6.0789492042215265"><ele>1484.0</ele><time>2026-04-24T16:19:35Z</time></trkpt><trkpt lat="31.213461494664667" lon="-6.078653740834841"><ele>1483.0</ele><time>2026-04-24T16:19:36Z</time></trkpt><trkpt lat="31.21360063505596" lon="-6.078346093773658"><ele>1485.5</ele><time>2026-04-24T16:19:37Z</time></trkpt><trkpt lat="31.213728445045763" lon="-6.078024310834424"><ele>1488.0</ele><time>2026-04-24T16:19:38Z</time></trkpt><trkpt lat="31.213845714710455" lon="-6.07770252237266"><ele>1489.0</ele><time>2026-04-24T16:19:39Z</time></trkpt><trkpt lat="31.213959600219468" lon="-6.077387642216713"><ele>1490.0</ele><time>2026-04-24T16:19:40Z</time></trkpt><trkpt lat="31.2140628967838" lon="-6.077081191068935"><ele>1484.5</ele><time>2026-04-24T16:19:41Z</time></trkpt><trkpt lat="31.21415036331042" lon="-6.076767757502103"><ele>1479.0</ele><time>2026-04-24T16:19:42Z</time></trkpt><trkpt lat="31.214211533866905" lon="-6.07645638279084"><ele>1476.0</ele><time>2026-04-24T16:19:43Z</time></trkpt><trkpt lat="31.21424431028211" lon="-6.076161868973012"><ele>1473.0</ele><time>2026-04-24T16:19:44Z</time></trkpt><trkpt lat="31.21425836592191" lon="-6.075875767957853"><ele>1474.5</ele><time>2026-04-24T16:19:45Z</time></trkpt><trkpt lat="31.214268806659327" lon="-6.075589695971665"><ele>1476.0</ele><time>2026-04-24T16:19:46Z</time></trkpt><trkpt lat="31.214285168648544" lon="-6.0752972853134075"><ele>1476.0</ele><time>2026-04-24T16:19:47Z</time></trkpt><trkpt lat="31.21430228459247" lon="-6.075001283367008"><ele>1476.0</ele><time>2026-04-24T16:19:48Z</time></trkpt><trkpt lat="31.21431821124313" lon="-6.074702073184135"><ele>1476.5</ele><time>2026-04-24T16:19:49Z</time></trkpt><trkpt lat="31.214332403386916" lon="-6.074399964634252"><ele>1477.0</ele><time>2026-04-24T16:19:50Z</time></trkpt><trkpt lat="31.214355661732643" lon="-6.074093530847202"><ele>1477.0</ele><time>2026-04-24T16:19:51Z</time></trkpt><trkpt lat="31.214394160493754" lon="-6.0737912360536574"><ele>1477.0</ele><time>2026-04-24T16:19:52Z</time></trkpt><trkpt lat="31.21445494779351" lon="-6.0735012100012575"><ele>1475.0</ele><time>2026-04-24T16:19:53Z</time></trkpt><trkpt lat="31.214543347330736" lon="-6.073236503438225"><ele>1473.0</ele><time>2026-04-24T16:19:54Z</time></trkpt><trkpt lat="31.214659886897653" lon="-6.072992695792275"><ele>1473.0</ele><time>2026-04-24T16:19:55Z</time></trkpt><trkpt lat="31.214794667328004" lon="-6.072766091202507"><ele>1473.0</ele><time>2026-04-24T16:19:56Z</time></trkpt><trkpt lat="31.21494902772218" lon="-6.072557044722068"><ele>1471.5</ele><time>2026-04-24T16:19:57Z</time></trkpt><trkpt lat="31.215125088340553" lon="-6.072377532330633"><ele>1470.0</ele><time>2026-04-24T16:19:58Z</time></trkpt><trkpt lat="31.215320010677477" lon="-6.072227076405134"><ele>1470.0</ele><time>2026-04-24T16:19:59Z</time></trkpt><trkpt lat="31.215524148097106" lon="-6.072101111741682"><ele>1470.0</ele><time>2026-04-24T16:20:00Z</time></trkpt><trkpt lat="31.215736242847356" lon="-6.072002838638334"><ele>1469.3333333333333</ele><time>2026-04-24T16:20:01Z</time></trkpt><trkpt lat="31.215949232223586" lon="-6.071929396661183"><ele>1468.6666666666665</ele><time>2026-04-24T16:20:02Z</time></trkpt><trkpt lat="31.21614546408384" lon="-6.071889652326734"><ele>1468.0</ele><time>2026-04-24T16:20:03Z</time></trkpt><trkpt lat="31.21634093998034" lon="-6.071878617164357"><ele>1466.0</ele><time>2026-04-24T16:20:04Z</time></trkpt><trkpt lat="31.216541204554566" lon="-6.071894822021264"><ele>1464.0</ele><time>2026-04-24T16:20:05Z</time></trkpt><trkpt lat="31.216753176468874" lon="-6.071923463037667"><ele>1462.0</ele><time>2026-04-24T16:20:06Z</time></trkpt><trkpt lat="31.216981796416803" lon="-6.07195890728548"><ele>1462.0</ele><time>2026-04-24T16:20:07Z</time></trkpt><trkpt lat="31.21721457832003" lon="-6.071994097489273"><ele>1462.0</ele><time>2026-04-24T16:20:08Z</time></trkpt><trkpt lat="31.217450958251742" lon="-6.072029615594298"><ele>1461.5</ele><time>2026-04-24T16:20:09Z</time></trkpt><trkpt lat="31.217686142218454" lon="-6.072067994026261"><ele>1461.0</ele><time>2026-04-24T16:20:10Z</time></trkpt><trkpt lat="31.21791642116528" lon="-6.072106264681213"><ele>1461.0</ele><time>2026-04-24T16:20:11Z</time></trkpt><trkpt lat="31.218140717532798" lon="-6.0721409923138285"><ele>1461.0</ele><time>2026-04-24T16:20:12Z</time></trkpt><trkpt lat="31.218362369250343" lon="-6.072175392901667"><ele>1459.0</ele><time>2026-04-24T16:20:13Z</time></trkpt><trkpt lat="31.218583021439024" lon="-6.072212856641848"><ele>1457.0</ele><time>2026-04-24T16:20:14Z</time></trkpt><trkpt lat="31.218806747124557" lon="-6.072250107357442"><ele>1455.0</ele><time>2026-04-24T16:20:15Z</time></trkpt><trkpt lat="31.21902843658702" lon="-6.072287101580235"><ele>1453.6666666666667</ele><time>2026-04-24T16:20:16Z</time></trkpt><trkpt lat="31.219253297987304" lon="-6.072320485077441"><ele>1452.3333333333335</ele><time>2026-04-24T16:20:17Z</time></trkpt><trkpt lat="31.219473571573157" lon="-6.072353898737375"><ele>1451.0</ele><time>2026-04-24T16:20:18Z</time></trkpt><trkpt lat="31.219689483931784" lon="-6.072384879735099"><ele>1449.6666666666667</ele><time>2026-04-24T16:20:19Z</time></trkpt><trkpt lat="31.219905733365056" lon="-6.072412239298005"><ele>1448.3333333333333</ele><time>2026-04-24T16:20:20Z</time></trkpt><trkpt lat="31.220118781641567" lon="-6.072433129650506"><ele>1447.0</ele><time>2026-04-24T16:20:21Z</time></trkpt><trkpt lat="31.220332052935035" lon="-6.072436622692614"><ele>1447.0</ele><time>2026-04-24T16:20:22Z</time></trkpt><trkpt lat="31.220532512044446" lon="-6.07241681483633"><ele>1447.0</ele><time>2026-04-24T16:20:23Z</time></trkpt><trkpt lat="31.22071051962844" lon="-6.072355574387927"><ele>1447.0</ele><time>2026-04-24T16:20:24Z</time></trkpt><trkpt lat="31.220893520119887" lon="-6.072302522146859"><ele>1446.0</ele><time>2026-04-24T16:20:25Z</time></trkpt><trkpt lat="31.221081708062542" lon="-6.072253158150699"><ele>1445.0</ele><time>2026-04-24T16:20:26Z</time></trkpt><trkpt lat="31.22126604177306" lon="-6.0721572000237956"><ele>1444.0</ele><time>2026-04-24T16:20:27Z</time></trkpt><trkpt lat="31.22144954262884" lon="-6.072029435892226"><ele>1443.5</ele><time>2026-04-24T16:20:28Z</time></trkpt><trkpt lat="31.221635653693806" lon="-6.071877754727982"><ele>1443.0</ele><time>2026-04-24T16:20:29Z</time></trkpt><trkpt lat="31.221827245892825" lon="-6.071718390877331"><ele>1444.5</ele><time>2026-04-24T16:20:30Z</time></trkpt><trkpt lat="31.22202878281662" lon="-6.071549004624727"><ele>1446.0</ele><time>2026-04-24T16:20:31Z</time></trkpt><trkpt lat="31.22223761959373" lon="-6.07137215079049"><ele>1445.0</ele><time>2026-04-24T16:20:32Z</time></trkpt><trkpt lat="31.22245398879876" lon="-6.071188722397161"><ele>1444.0</ele><time>2026-04-24T16:20:33Z</time></trkpt><trkpt lat="31.22267692568445" lon="-6.071003305845891"><ele>1444.0</ele><time>2026-04-24T16:20:34Z</time></trkpt><trkpt lat="31.222900002464307" lon="-6.070810854866437"><ele>1444.0</ele><time>2026-04-24T16:20:35Z</time></trkpt><trkpt lat="31.22312564032053" lon="-6.070616863720739"><ele>1444.5</ele><time>2026-04-24T16:20:36Z</time></trkpt><trkpt lat="31.223352141140982" lon="-6.070420363870864"><ele>1445.0</ele><time>2026-04-24T16:20:37Z</time></trkpt><trkpt lat="31.22356647735896" lon="-6.07020727779132"><ele>1445.0</ele><time>2026-04-24T16:20:38Z</time></trkpt><trkpt lat="31.22378500828595" lon="-6.0700057823410605"><ele>1445.0</ele><time>2026-04-24T16:20:39Z</time></trkpt><trkpt lat="31.224005407857412" lon="-6.069803501016094"><ele>1447.5</ele><time>2026-04-24T16:20:40Z</time></trkpt><trkpt lat="31.224227508144452" lon="-6.06960029943838"><ele>1450.0</ele><time>2026-04-24T16:20:41Z</time></trkpt><trkpt lat="31.22445343282497" lon="-6.069409631128286"><ele>1450.0</ele><time>2026-04-24T16:20:42Z</time></trkpt><trkpt lat="31.2246785997279" lon="-6.06922576250638"><ele>1450.0</ele><time>2026-04-24T16:20:43Z</time></trkpt><trkpt lat="31.22490277069995" lon="-6.069043814766415"><ele>1454.0</ele><time>2026-04-24T16:20:44Z</time></trkpt><trkpt lat="31.225125227318852" lon="-6.068861816064019"><ele>1458.0</ele><time>2026-04-24T16:20:45Z</time></trkpt><trkpt lat="31.22535544742818" lon="-6.06869592825109"><ele>1458.0</ele><time>2026-04-24T16:20:46Z</time></trkpt><trkpt lat="31.22558446110997" lon="-6.068543920779167"><ele>1458.0</ele><time>2026-04-24T16:20:47Z</time></trkpt><trkpt lat="31.22581175843757" lon="-6.068394900992909"><ele>1461.5</ele><time>2026-04-24T16:20:48Z</time></trkpt><trkpt lat="31.22604213282543" lon="-6.068252590754485"><ele>1465.0</ele><time>2026-04-24T16:20:49Z</time></trkpt><trkpt lat="31.226277619505087" lon="-6.06812216679417"><ele>1464.5</ele><time>2026-04-24T16:20:50Z</time></trkpt><trkpt lat="31.226507374034572" lon="-6.068005738125062"><ele>1464.0</ele><time>2026-04-24T16:20:51Z</time></trkpt><trkpt lat="31.22673787211217" lon="-6.067901392938875"><ele>1464.0</ele><time>2026-04-24T16:20:52Z</time></trkpt><trkpt lat="31.226967590387723" lon="-6.067801680704736"><ele>1464.0</ele><time>2026-04-24T16:20:53Z</time></trkpt><trkpt lat="31.22720492333132" lon="-6.067708907997054"><ele>1462.5</ele><time>2026-04-24T16:20:54Z</time></trkpt><trkpt lat="31.227442947844605" lon="-6.06763747368439"><ele>1461.0</ele><time>2026-04-24T16:20:55Z</time></trkpt><trkpt lat="31.227685493821486" lon="-6.067565856015158"><ele>1461.0</ele><time>2026-04-24T16:20:56Z</time></trkpt><trkpt lat="31.227926529410446" lon="-6.067494130462192"><ele>1461.0</ele><time>2026-04-24T16:20:57Z</time></trkpt><trkpt lat="31.228171793180362" lon="-6.067421337976008"><ele>1461.5</ele><time>2026-04-24T16:20:58Z</time></trkpt><trkpt lat="31.228418023906563" lon="-6.067349973435368"><ele>1462.0</ele><time>2026-04-24T16:20:59Z</time></trkpt><trkpt lat="31.228667192623433" lon="-6.067278398236847"><ele>1462.0</ele><time>2026-04-24T16:21:00Z</time></trkpt><trkpt lat="31.228915482890145" lon="-6.0672070754021385"><ele>1462.0</ele><time>2026-04-24T16:21:01Z</time></trkpt><trkpt lat="31.22916815614319" lon="-6.067134772046698"><ele>1462.0</ele><time>2026-04-24T16:21:02Z</time></trkpt><trkpt lat="31.229426726572687" lon="-6.067063856815711"><ele>1462.0</ele><time>2026-04-24T16:21:03Z</time></trkpt><trkpt lat="31.22968695785143" lon="-6.066993599070819"><ele>1462.5</ele><time>2026-04-24T16:21:04Z</time></trkpt><trkpt lat="31.229954087399243" lon="-6.0669212897417"><ele>1463.0</ele><time>2026-04-24T16:21:05Z</time></trkpt><trkpt lat="31.23022471935589" lon="-6.066847895042747"><ele>1463.0</ele><time>2026-04-24T16:21:06Z</time></trkpt><trkpt lat="31.23049955374277" lon="-6.066773085738126"><ele>1463.0</ele><time>2026-04-24T16:21:07Z</time></trkpt><trkpt lat="31.23077588379297" lon="-6.066698149420868"><ele>1462.0</ele><time>2026-04-24T16:21:08Z</time></trkpt><trkpt lat="31.231054231435458" lon="-6.066624353120435"><ele>1461.0</ele><time>2026-04-24T16:21:09Z</time></trkpt><trkpt lat="31.23133343960468" lon="-6.066550834994394"><ele>1463.5</ele><time>2026-04-24T16:21:10Z</time></trkpt><trkpt lat="31.23161242631397" lon="-6.066477225776055"><ele>1466.0</ele><time>2026-04-24T16:21:11Z</time></trkpt><trkpt lat="31.23189175791841" lon="-6.066403524082092"><ele>1466.0</ele><time>2026-04-24T16:21:12Z</time></trkpt><trkpt lat="31.232170262649547" lon="-6.066330044721186"><ele>1466.0</ele><time>2026-04-24T16:21:13Z</time></trkpt><trkpt lat="31.232448359488185" lon="-6.066260232121078"><ele>1466.0</ele><time>2026-04-24T16:21:14Z</time></trkpt><trkpt lat="31.23273386990491" lon="-6.066255339633917"><ele>1466.0</ele><time>2026-04-24T16:21:15Z</time></trkpt><trkpt lat="31.233005897300043" lon="-6.066181238843338"><ele>1464.0</ele><time>2026-04-24T16:21:16Z</time></trkpt><trkpt lat="31.233276732092005" lon="-6.0661033629660945"><ele>1462.0</ele><time>2026-04-24T16:21:17Z</time></trkpt><trkpt lat="31.233542881548477" lon="-6.066014282878765"><ele>1462.0</ele><time>2026-04-24T16:21:18Z</time></trkpt><trkpt lat="31.233804507184246" lon="-6.065909541044877"><ele>1462.0</ele><time>2026-04-24T16:21:19Z</time></trkpt><trkpt lat="31.234062607482613" lon="-6.065788765479318"><ele>1462.0</ele><time>2026-04-24T16:21:20Z</time></trkpt><trkpt lat="31.234315554342608" lon="-6.065658731468921"><ele>1462.0</ele><time>2026-04-24T16:21:21Z</time></trkpt><trkpt lat="31.234563156117343" lon="-6.065512553802703"><ele>1462.0</ele><time>2026-04-24T16:21:22Z</time></trkpt><trkpt lat="31.2348024891131" lon="-6.065349611936845"><ele>1462.0</ele><time>2026-04-24T16:21:23Z</time></trkpt><trkpt lat="31.235036663035984" lon="-6.065170791799572"><ele>1461.0</ele><time>2026-04-24T16:21:24Z</time></trkpt><trkpt lat="31.235267485541826" lon="-6.06498240351366"><ele>1460.0</ele><time>2026-04-24T16:21:25Z</time></trkpt><trkpt lat="31.235493533059344" lon="-6.064784509952205"><ele>1456.0</ele><time>2026-04-24T16:21:26Z</time></trkpt><trkpt lat="31.235712992865924" lon="-6.064573732015282"><ele>1452.0</ele><time>2026-04-24T16:21:27Z</time></trkpt><trkpt lat="31.235918967743295" lon="-6.06434597492217"><ele>1450.5</ele><time>2026-04-24T16:21:28Z</time></trkpt><trkpt lat="31.236114491635504" lon="-6.0640989438798725"><ele>1449.0</ele><time>2026-04-24T16:21:29Z</time></trkpt><trkpt lat="31.236305397404276" lon="-6.063833200772"><ele>1448.5</ele><time>2026-04-24T16:21:30Z</time></trkpt><trkpt lat="31.236497437605724" lon="-6.063558437713653"><ele>1448.0</ele><time>2026-04-24T16:21:31Z</time></trkpt><trkpt lat="31.23669240170295" lon="-6.063281301646125"><ele>1445.5</ele><time>2026-04-24T16:21:32Z</time></trkpt><trkpt lat="31.23689079127886" lon="-6.063005094980875"><ele>1443.0</ele><time>2026-04-24T16:21:33Z</time></trkpt><trkpt lat="31.237082255488694" lon="-6.06273660403501"><ele>1443.0</ele><time>2026-04-24T16:21:34Z</time></trkpt><trkpt lat="31.23726563594787" lon="-6.062479548105613"><ele>1443.0</ele><time>2026-04-24T16:21:35Z</time></trkpt><trkpt lat="31.23743844217722" lon="-6.062238548695322"><ele>1444.0</ele><time>2026-04-24T16:21:36Z</time></trkpt><trkpt lat="31.237606906406555" lon="-6.062003291489574"><ele>1445.0</ele><time>2026-04-24T16:21:37Z</time></trkpt><trkpt lat="31.2377767281443" lon="-6.061766983385959"><ele>1445.5</ele><time>2026-04-24T16:21:38Z</time></trkpt><trkpt lat="31.23795248372353" lon="-6.061523633834909"><ele>1446.0</ele><time>2026-04-24T16:21:39Z</time></trkpt><trkpt lat="31.23812979743459" lon="-6.061278584121466"><ele>1446.0</ele><time>2026-04-24T16:21:40Z</time></trkpt><trkpt lat="31.238310638842613" lon="-6.061028950320395"><ele>1446.0</ele><time>2026-04-24T16:21:41Z</time></trkpt><trkpt lat="31.238491541228523" lon="-6.060778327137309"><ele>1447.5</ele><time>2026-04-24T16:21:42Z</time></trkpt><trkpt lat="31.238672158661437" lon="-6.060526023154372"><ele>1449.0</ele><time>2026-04-24T16:21:43Z</time></trkpt><trkpt lat="31.238848592751914" lon="-6.060278379657188"><ele>1451.5</ele><time>2026-04-24T16:21:44Z</time></trkpt><trkpt lat="31.239027695157862" lon="-6.060026049714429"><ele>1454.0</ele><time>2026-04-24T16:21:45Z</time></trkpt><trkpt lat="31.23920835786159" lon="-6.05977127951822"><ele>1455.0</ele><time>2026-04-24T16:21:46Z</time></trkpt><trkpt lat="31.2393927447823" lon="-6.05951455810448"><ele>1456.0</ele><time>2026-04-24T16:21:47Z</time></trkpt><trkpt lat="31.23957946263029" lon="-6.059257046548279"><ele>1455.0</ele><time>2026-04-24T16:21:48Z</time></trkpt><trkpt lat="31.239766566986397" lon="-6.058998931702971"><ele>1454.0</ele><time>2026-04-24T16:21:49Z</time></trkpt><trkpt lat="31.239948768175136" lon="-6.058738362952325"><ele>1456.5</ele><time>2026-04-24T16:21:50Z</time></trkpt><trkpt lat="31.240128054131553" lon="-6.058478223575446"><ele>1459.0</ele><time>2026-04-24T16:21:51Z</time></trkpt><trkpt lat="31.240305743042644" lon="-6.058217656318867"><ele>1461.0</ele><time>2026-04-24T16:21:52Z</time></trkpt><trkpt lat="31.240479032137006" lon="-6.057958049279279"><ele>1463.0</ele><time>2026-04-24T16:21:53Z</time></trkpt><trkpt lat="31.240642845512845" lon="-6.057693268751309"><ele>1465.5</ele><time>2026-04-24T16:21:54Z</time></trkpt><trkpt lat="31.240795355668908" lon="-6.057419537991024"><ele>1468.0</ele><time>2026-04-24T16:21:55Z</time></trkpt><trkpt lat="31.24093729848951" lon="-6.0571394669998995"><ele>1468.0</ele><time>2026-04-24T16:21:56Z</time></trkpt><trkpt lat="31.241075135827725" lon="-6.056848647066246"><ele>1468.0</ele><time>2026-04-24T16:21:57Z</time></trkpt><trkpt lat="31.241204743481305" lon="-6.056551209099706"><ele>1469.0</ele><time>2026-04-24T16:21:58Z</time></trkpt><trkpt lat="31.241326313512324" lon="-6.056246707071487"><ele>1470.0</ele><time>2026-04-24T16:21:59Z</time></trkpt><trkpt lat="31.24144247137814" lon="-6.055932198691863"><ele>1470.0</ele><time>2026-04-24T16:22:00Z</time></trkpt><trkpt lat="31.241554462642636" lon="-6.055610939303642"><ele>1470.0</ele><time>2026-04-24T16:22:01Z</time></trkpt><trkpt lat="31.241662027900293" lon="-6.055282865359645"><ele>1470.0</ele><time>2026-04-24T16:22:02Z</time></trkpt><trkpt lat="31.24176705891644" lon="-6.054955203777667"><ele>1470.0</ele><time>2026-04-24T16:22:03Z</time></trkpt><trkpt lat="31.241876699690064" lon="-6.054628427992062"><ele>1472.0</ele><time>2026-04-24T16:22:04Z</time></trkpt><trkpt lat="31.241988130585472" lon="-6.054312823913546"><ele>1474.0</ele><time>2026-04-24T16:22:05Z</time></trkpt><trkpt lat="31.24209786164148" lon="-6.054001017851048"><ele>1473.5</ele><time>2026-04-24T16:22:06Z</time></trkpt><trkpt lat="31.242202870579273" lon="-6.053693111393739"><ele>1473.0</ele><time>2026-04-24T16:22:07Z</time></trkpt><trkpt lat="31.242303529626437" lon="-6.053390220321969"><ele>1474.5</ele><time>2026-04-24T16:22:08Z</time></trkpt><trkpt lat="31.242404484782835" lon="-6.053092016384231"><ele>1476.0</ele><time>2026-04-24T16:22:09Z</time></trkpt><trkpt lat="31.242504161000976" lon="-6.052800861692337"><ele>1476.0</ele><time>2026-04-24T16:22:10Z</time></trkpt><trkpt lat="31.24260257018471" lon="-6.05251418037678"><ele>1476.0</ele><time>2026-04-24T16:22:11Z</time></trkpt><trkpt lat="31.242703117355564" lon="-6.052228000671965"><ele>1476.0</ele><time>2026-04-24T16:22:12Z</time></trkpt><trkpt lat="31.24281059800888" lon="-6.051943647600644"><ele>1476.0</ele><time>2026-04-24T16:22:13Z</time></trkpt><trkpt lat="31.242930461887884" lon="-6.051654785863515"><ele>1476.0</ele><time>2026-04-24T16:22:14Z</time></trkpt><trkpt lat="31.243060498616554" lon="-6.051365071398405"><ele>1476.0</ele><time>2026-04-24T16:22:15Z</time></trkpt><trkpt lat="31.24320316417019" lon="-6.051075665132324"><ele>1475.5</ele><time>2026-04-24T16:22:16Z</time></trkpt><trkpt lat="31.2433518730647" lon="-6.0507982742189155"><ele>1475.0</ele><time>2026-04-24T16:22:17Z</time></trkpt><trkpt lat="31.24350028684538" lon="-6.05054334493407"><ele>1476.0</ele><time>2026-04-24T16:22:18Z</time></trkpt><trkpt lat="31.243648838175137" lon="-6.050306571875936"><ele>1477.0</ele><time>2026-04-24T16:22:19Z</time></trkpt><trkpt lat="31.243798857881107" lon="-6.050083051128627"><ele>1477.0</ele><time>2026-04-24T16:22:20Z</time></trkpt><trkpt lat="31.243908543868287" lon="-6.049804849993985"><ele>1477.0</ele><time>2026-04-24T16:22:21Z</time></trkpt><trkpt lat="31.244081879065728" lon="-6.049597855622373"><ele>1477.0</ele><time>2026-04-24T16:22:22Z</time></trkpt><trkpt lat="31.244255574237886" lon="-6.049390431242878"><ele>1477.0</ele><time>2026-04-24T16:22:23Z</time></trkpt><trkpt lat="31.24444873847828" lon="-6.049188240689024"><ele>1476.0</ele><time>2026-04-24T16:22:24Z</time></trkpt><trkpt lat="31.244647019394943" lon="-6.048991933947391"><ele>1475.0</ele><time>2026-04-24T16:22:25Z</time></trkpt><trkpt lat="31.244868331860737" lon="-6.048798975624405"><ele>1471.5</ele><time>2026-04-24T16:22:26Z</time></trkpt><trkpt lat="31.24509560588985" lon="-6.048621853290542"><ele>1468.0</ele><time>2026-04-24T16:22:27Z</time></trkpt><trkpt lat="31.245339957447655" lon="-6.04845138566457"><ele>1468.0</ele><time>2026-04-24T16:22:28Z</time></trkpt><trkpt lat="31.245595382719657" lon="-6.048295477667549"><ele>1468.0</ele><time>2026-04-24T16:22:29Z</time></trkpt><trkpt lat="31.24585550561132" lon="-6.0481500288460746"><ele>1468.5</ele><time>2026-04-24T16:22:30Z</time></trkpt><trkpt lat="31.246120740769" lon="-6.048001162213177"><ele>1469.0</ele><time>2026-04-24T16:22:31Z</time></trkpt><trkpt lat="31.246390435328347" lon="-6.047850091540217"><ele>1468.0</ele><time>2026-04-24T16:22:32Z</time></trkpt><trkpt lat="31.246662507099916" lon="-6.047697721688986"><ele>1467.0</ele><time>2026-04-24T16:22:33Z</time></trkpt><trkpt lat="31.246943805079432" lon="-6.0475605886589685"><ele>1467.0</ele><time>2026-04-24T16:22:34Z</time></trkpt><trkpt lat="31.247219739444414" lon="-6.047405786764876"><ele>1467.0</ele><time>2026-04-24T16:22:35Z</time></trkpt><trkpt lat="31.24749206868248" lon="-6.047253860945725"><ele>1467.0</ele><time>2026-04-24T16:22:36Z</time></trkpt><trkpt lat="31.247757900871697" lon="-6.047102282201027"><ele>1467.0</ele><time>2026-04-24T16:22:37Z</time></trkpt><trkpt lat="31.24801947049905" lon="-6.04695355658292"><ele>1469.5</ele><time>2026-04-24T16:22:38Z</time></trkpt><trkpt lat="31.248264572821412" lon="-6.04678892092538"><ele>1472.0</ele><time>2026-04-24T16:22:39Z</time></trkpt><trkpt lat="31.24851425611292" lon="-6.046640190143058"><ele>1473.5</ele><time>2026-04-24T16:22:40Z</time></trkpt><trkpt lat="31.248758253729324" lon="-6.046496597809918"><ele>1475.0</ele><time>2026-04-24T16:22:41Z</time></trkpt><trkpt lat="31.249004985116148" lon="-6.04636663476902"><ele>1475.0</ele><time>2026-04-24T16:22:42Z</time></trkpt><trkpt lat="31.249258260117525" lon="-6.046256104081417"><ele>1475.0</ele><time>2026-04-24T16:22:43Z</time></trkpt><trkpt lat="31.249500857582003" lon="-6.0461106063570895"><ele>1475.0</ele><time>2026-04-24T16:22:44Z</time></trkpt><trkpt lat="31.249741287775617" lon="-6.045958373038828"><ele>1475.0</ele><time>2026-04-24T16:22:45Z</time></trkpt><trkpt lat="31.249969052231737" lon="-6.045773876070271"><ele>1476.0</ele><time>2026-04-24T16:22:46Z</time></trkpt><trkpt lat="31.25019213597936" lon="-6.045600227062018"><ele>1477.0</ele><time>2026-04-24T16:22:47Z</time></trkpt><trkpt lat="31.25039774483765" lon="-6.045435874316292"><ele>1477.0</ele><time>2026-04-24T16:22:48Z</time></trkpt><trkpt lat="31.25060188952132" lon="-6.045280617008235"><ele>1477.0</ele><time>2026-04-24T16:22:49Z</time></trkpt><trkpt lat="31.250792623606436" lon="-6.0451021529132225"><ele>1474.5</ele><time>2026-04-24T16:22:50Z</time></trkpt><trkpt lat="31.250985989567262" lon="-6.044903341907736"><ele>1472.0</ele><time>2026-04-24T16:22:51Z</time></trkpt><trkpt lat="31.251175381553573" lon="-6.044681819709068"><ele>1472.0</ele><time>2026-04-24T16:22:52Z</time></trkpt><trkpt lat="31.25136269057094" lon="-6.0444426846424175"><ele>1472.0</ele><time>2026-04-24T16:22:53Z</time></trkpt><trkpt lat="31.251547472382196" lon="-6.044194836187606"><ele>1469.5</ele><time>2026-04-24T16:22:54Z</time></trkpt><trkpt lat="31.25171353450983" lon="-6.043924792571064"><ele>1467.0</ele><time>2026-04-24T16:22:55Z</time></trkpt><trkpt lat="31.251880447725913" lon="-6.043651891992395"><ele>1467.0</ele><time>2026-04-24T16:22:56Z</time></trkpt><trkpt lat="31.25204248579544" lon="-6.043372678090017"><ele>1467.0</ele><time>2026-04-24T16:22:57Z</time></trkpt><trkpt lat="31.252222610363617" lon="-6.043103493149669"><ele>1465.0</ele><time>2026-04-24T16:22:58Z</time></trkpt><trkpt lat="31.25237710137637" lon="-6.042817371959475"><ele>1463.0</ele><time>2026-04-24T16:22:59Z</time></trkpt><trkpt lat="31.2525362639306" lon="-6.042528108872137"><ele>1465.5</ele><time>2026-04-24T16:23:00Z</time></trkpt><trkpt lat="31.252697057402184" lon="-6.042240150945414"><ele>1468.0</ele><time>2026-04-24T16:23:01Z</time></trkpt><trkpt lat="31.25285741962963" lon="-6.041951409887313"><ele>1468.0</ele><time>2026-04-24T16:23:02Z</time></trkpt><trkpt lat="31.25301494984742" lon="-6.041663511271931"><ele>1468.0</ele><time>2026-04-24T16:23:03Z</time></trkpt><trkpt lat="31.253177864689768" lon="-6.041375236321826"><ele>1468.5</ele><time>2026-04-24T16:23:04Z</time></trkpt><trkpt lat="31.25332681498685" lon="-6.041077092518178"><ele>1469.0</ele><time>2026-04-24T16:23:05Z</time></trkpt><trkpt lat="31.253502053539066" lon="-6.040801758542415"><ele>1470.5</ele><time>2026-04-24T16:23:06Z</time></trkpt><trkpt lat="31.253660609998548" lon="-6.040517939667584"><ele>1472.0</ele><time>2026-04-24T16:23:07Z</time></trkpt><trkpt lat="31.253825045040784" lon="-6.040230840683653"><ele>1470.0</ele><time>2026-04-24T16:23:08Z</time></trkpt><trkpt lat="31.2539773259349" lon="-6.039928071299303"><ele>1468.0</ele><time>2026-04-24T16:23:09Z</time></trkpt><trkpt lat="31.254142939718665" lon="-6.03962545444097"><ele>1468.0</ele><time>2026-04-24T16:23:10Z</time></trkpt><trkpt lat="31.25431129261104" lon="-6.039319019326524"><ele>1468.0</ele><time>2026-04-24T16:23:11Z</time></trkpt><trkpt lat="31.25447777467746" lon="-6.0390153519852525"><ele>1468.0</ele><time>2026-04-24T16:23:12Z</time></trkpt><trkpt lat="31.254640312556916" lon="-6.038718450570106"><ele>1468.0</ele><time>2026-04-24T16:23:13Z</time></trkpt><trkpt lat="31.25480416861983" lon="-6.038419239032386"><ele>1466.0</ele><time>2026-04-24T16:23:14Z</time></trkpt><trkpt lat="31.254971252984394" lon="-6.038115024902446"><ele>1464.0</ele><time>2026-04-24T16:23:15Z</time></trkpt><trkpt lat="31.255139568914206" lon="-6.0378089266608725"><ele>1464.0</ele><time>2026-04-24T16:23:16Z</time></trkpt><trkpt lat="31.255309948229236" lon="-6.037500266088474"><ele>1464.0</ele><time>2026-04-24T16:23:17Z</time></trkpt><trkpt lat="31.255478460094924" lon="-6.037193720049478"><ele>1466.0</ele><time>2026-04-24T16:23:18Z</time></trkpt><trkpt lat="31.2556426267619" lon="-6.036896264484855"><ele>1468.0</ele><time>2026-04-24T16:23:19Z</time></trkpt><trkpt lat="31.255804985672448" lon="-6.03660333482657"><ele>1469.0</ele><time>2026-04-24T16:23:20Z</time></trkpt><trkpt lat="31.255966944969487" lon="-6.036312337863852"><ele>1470.0</ele><time>2026-04-24T16:23:21Z</time></trkpt><trkpt lat="31.256128780667" lon="-6.036022178308826"><ele>1470.5</ele><time>2026-04-24T16:23:22Z</time></trkpt><trkpt lat="31.256287129810122" lon="-6.035738285429491"><ele>1471.0</ele><time>2026-04-24T16:23:23Z</time></trkpt><trkpt lat="31.256440393081505" lon="-6.035464591324086"><ele>1471.5</ele><time>2026-04-24T16:23:24Z</time></trkpt><trkpt lat="31.256589829261053" lon="-6.035198029480084"><ele>1472.0</ele><time>2026-04-24T16:23:25Z</time></trkpt><trkpt lat="31.25673175279836" lon="-6.0349448405099055"><ele>1472.0</ele><time>2026-04-24T16:23:26Z</time></trkpt><trkpt lat="31.25687614796358" lon="-6.034687222645451"><ele>1472.0</ele><time>2026-04-24T16:23:27Z</time></trkpt><trkpt lat="31.25702119676674" lon="-6.034428435911331"><ele>1472.0</ele><time>2026-04-24T16:23:28Z</time></trkpt><trkpt lat="31.257163071236167" lon="-6.034176267857956"><ele>1472.0</ele><time>2026-04-24T16:23:29Z</time></trkpt><trkpt lat="31.257302055265264" lon="-6.03393168357864"><ele>1470.0</ele><time>2026-04-24T16:23:30Z</time></trkpt><trkpt lat="31.257439485346648" lon="-6.033692523509559"><ele>1468.0</ele><time>2026-04-24T16:23:31Z</time></trkpt><trkpt lat="31.257571319218354" lon="-6.033462341676236"><ele>1471.0</ele><time>2026-04-24T16:23:32Z</time></trkpt><trkpt lat="31.257706375557134" lon="-6.033239985439212"><ele>1474.0</ele><time>2026-04-24T16:23:33Z</time></trkpt><trkpt lat="31.25784095147836" lon="-6.033024430128972"><ele>1474.0</ele><time>2026-04-24T16:23:34Z</time></trkpt><trkpt lat="31.257974521674722" lon="-6.032808884714004"><ele>1474.0</ele><time>2026-04-24T16:23:35Z</time></trkpt><trkpt lat="31.258117571272333" lon="-6.0325954321984145"><ele>1472.5</ele><time>2026-04-24T16:23:36Z</time></trkpt><trkpt lat="31.258263823560185" lon="-6.032384101533237"><ele>1471.0</ele><time>2026-04-24T16:23:37Z</time></trkpt><trkpt lat="31.258416116554283" lon="-6.032177507276335"><ele>1471.0</ele><time>2026-04-24T16:23:38Z</time></trkpt><trkpt lat="31.258578248591625" lon="-6.031977305357494"><ele>1471.0</ele><time>2026-04-24T16:23:39Z</time></trkpt><trkpt lat="31.25875101266514" lon="-6.03178458434322"><ele>1471.0</ele><time>2026-04-24T16:23:40Z</time></trkpt><trkpt lat="31.258918353643985" lon="-6.03157400193775"><ele>1471.0</ele><time>2026-04-24T16:23:41Z</time></trkpt><trkpt lat="31.259092480024858" lon="-6.03136368787024"><ele>1470.5</ele><time>2026-04-24T16:23:42Z</time></trkpt><trkpt lat="31.259272222059177" lon="-6.031152249875103"><ele>1470.0</ele><time>2026-04-24T16:23:43Z</time></trkpt><trkpt lat="31.25945331955243" lon="-6.030941327608173"><ele>1472.0</ele><time>2026-04-24T16:23:44Z</time></trkpt><trkpt lat="31.259635567517858" lon="-6.030726389841381"><ele>1474.0</ele><time>2026-04-24T16:23:45Z</time></trkpt><trkpt lat="31.25982040163195" lon="-6.03050259227599"><ele>1474.0</ele><time>2026-04-24T16:23:46Z</time></trkpt><trkpt lat="31.26001088640698" lon="-6.030276068021001"><ele>1474.0</ele><time>2026-04-24T16:23:47Z</time></trkpt><trkpt lat="31.260202250390897" lon="-6.03004685083417"><ele>1474.0</ele><time>2026-04-24T16:23:48Z</time></trkpt><trkpt lat="31.260395652504673" lon="-6.029818172374871"><ele>1474.0</ele><time>2026-04-24T16:23:49Z</time></trkpt><trkpt lat="31.260591015711988" lon="-6.029589037688356"><ele>1474.0</ele><time>2026-04-24T16:23:50Z</time></trkpt><trkpt lat="31.26078728126805" lon="-6.029359705352449"><ele>1474.0</ele><time>2026-04-24T16:23:51Z</time></trkpt><trkpt lat="31.260982093895468" lon="-6.029130152957266"><ele>1474.0</ele><time>2026-04-24T16:23:52Z</time></trkpt><trkpt lat="31.261175041552146" lon="-6.028899076123238"><ele>1474.0</ele><time>2026-04-24T16:23:53Z</time></trkpt><trkpt lat="31.261368673936182" lon="-6.028667168110023"><ele>1474.5</ele><time>2026-04-24T16:23:54Z</time></trkpt><trkpt lat="31.26156370093649" lon="-6.028433319212235"><ele>1475.0</ele><time>2026-04-24T16:23:55Z</time></trkpt><trkpt lat="31.26175375146872" lon="-6.0282096564516054"><ele>1476.0</ele><time>2026-04-24T16:23:56Z</time></trkpt><trkpt lat="31.261942199834216" lon="-6.027986788708342"><ele>1477.0</ele><time>2026-04-24T16:23:57Z</time></trkpt><trkpt lat="31.262129541484082" lon="-6.027767216474209"><ele>1477.0</ele><time>2026-04-24T16:23:58Z</time></trkpt><trkpt lat="31.262313164970905" lon="-6.027551227922663"><ele>1477.0</ele><time>2026-04-24T16:23:59Z</time></trkpt><trkpt lat="31.26249355067153" lon="-6.027337999480747"><ele>1478.5</ele><time>2026-04-24T16:24:00Z</time></trkpt><trkpt lat="31.262674211003898" lon="-6.027124290237844"><ele>1480.0</ele><time>2026-04-24T16:24:01Z</time></trkpt><trkpt lat="31.262855083446013" lon="-6.026910556393486"><ele>1480.0</ele><time>2026-04-24T16:24:02Z</time></trkpt><trkpt lat="31.263032080319487" lon="-6.0266987962415755"><ele>1480.0</ele><time>2026-04-24T16:24:03Z</time></trkpt><trkpt lat="31.263208823566426" lon="-6.026488173521748"><ele>1480.0</ele><time>2026-04-24T16:24:04Z</time></trkpt><trkpt lat="31.263387788261145" lon="-6.026273852487051"><ele>1480.0</ele><time>2026-04-24T16:24:05Z</time></trkpt><trkpt lat="31.263569497158933" lon="-6.026055399426084"><ele>1480.0</ele><time>2026-04-24T16:24:06Z</time></trkpt><trkpt lat="31.26375170551506" lon="-6.025841203154798"><ele>1480.0</ele><time>2026-04-24T16:24:07Z</time></trkpt><trkpt lat="31.263934240246435" lon="-6.025624091625853"><ele>1478.5</ele><time>2026-04-24T16:24:08Z</time></trkpt><trkpt lat="31.264119187180622" lon="-6.025406779312147"><ele>1477.0</ele><time>2026-04-24T16:24:09Z</time></trkpt><trkpt lat="31.26430364695141" lon="-6.025190158257819"><ele>1477.0</ele><time>2026-04-24T16:24:10Z</time></trkpt><trkpt lat="31.264482384442076" lon="-6.024978165470035"><ele>1477.0</ele><time>2026-04-24T16:24:11Z</time></trkpt><trkpt lat="31.264657221018826" lon="-6.024772639229804"><ele>1474.0</ele><time>2026-04-24T16:24:12Z</time></trkpt><trkpt lat="31.26482902036913" lon="-6.024570272023517"><ele>1471.0</ele><time>2026-04-24T16:24:13Z</time></trkpt><trkpt lat="31.265001295003607" lon="-6.024365082930075"><ele>1471.0</ele><time>2026-04-24T16:24:14Z</time></trkpt><trkpt lat="31.265173043071783" lon="-6.0241623267721875"><ele>1471.0</ele><time>2026-04-24T16:24:15Z</time></trkpt><trkpt lat="31.265345140678757" lon="-6.023963701380788"><ele>1471.0</ele><time>2026-04-24T16:24:16Z</time></trkpt><trkpt lat="31.265523745905227" lon="-6.023765122976597"><ele>1471.0</ele><time>2026-04-24T16:24:17Z</time></trkpt><trkpt lat="31.265707806803263" lon="-6.023575317875973"><ele>1471.0</ele><time>2026-04-24T16:24:18Z</time></trkpt><trkpt lat="31.26589910611392" lon="-6.0233967212409265"><ele>1471.0</ele><time>2026-04-24T16:24:19Z</time></trkpt><trkpt lat="31.266096973049006" lon="-6.023230038293154"><ele>1472.0</ele><time>2026-04-24T16:24:20Z</time></trkpt><trkpt lat="31.26629665018779" lon="-6.023077042950467"><ele>1473.0</ele><time>2026-04-24T16:24:21Z</time></trkpt><trkpt lat="31.266496965540565" lon="-6.0229377387018035"><ele>1473.0</ele><time>2026-04-24T16:24:22Z</time></trkpt><trkpt lat="31.266705323711253" lon="-6.022799989952303"><ele>1473.0</ele><time>2026-04-24T16:24:23Z</time></trkpt><trkpt lat="31.266924323631592" lon="-6.022668189431369"><ele>1473.0</ele><time>2026-04-24T16:24:24Z</time></trkpt><trkpt lat="31.267149165167382" lon="-6.0225405374083865"><ele>1473.0</ele><time>2026-04-24T16:24:25Z</time></trkpt><trkpt lat="31.26737815984391" lon="-6.02243252198124"><ele>1473.5</ele><time>2026-04-24T16:24:26Z</time></trkpt><trkpt lat="31.26760877253416" lon="-6.022338900412866"><ele>1474.0</ele><time>2026-04-24T16:24:27Z</time></trkpt><trkpt lat="31.267839775868" lon="-6.0222584221920705"><ele>1474.0</ele><time>2026-04-24T16:24:28Z</time></trkpt><trkpt lat="31.268067452622628" lon="-6.0221884680270446"><ele>1474.0</ele><time>2026-04-24T16:24:29Z</time></trkpt><trkpt lat="31.2682965266842" lon="-6.022125285738962"><ele>1474.0</ele><time>2026-04-24T16:24:30Z</time></trkpt><trkpt lat="31.268539563200036" lon="-6.022067893437667"><ele>1474.0</ele><time>2026-04-24T16:24:31Z</time></trkpt><trkpt lat="31.268788634463554" lon="-6.022024964559675"><ele>1471.5</ele><time>2026-04-24T16:24:32Z</time></trkpt><trkpt lat="31.269033488135072" lon="-6.0220010013471"><ele>1469.0</ele><time>2026-04-24T16:24:33Z</time></trkpt><trkpt lat="31.269274694618144" lon="-6.021987390266054"><ele>1469.0</ele><time>2026-04-24T16:24:34Z</time></trkpt><trkpt lat="31.269523336918848" lon="-6.02198192157424"><ele>1469.0</ele><time>2026-04-24T16:24:35Z</time></trkpt><trkpt lat="31.269779615727003" lon="-6.021990003963297"><ele>1467.0</ele><time>2026-04-24T16:24:36Z</time></trkpt><trkpt lat="31.270042684746816" lon="-6.022012950903638"><ele>1465.0</ele><time>2026-04-24T16:24:37Z</time></trkpt><trkpt lat="31.270303782456914" lon="-6.022051894593182"><ele>1465.0</ele><time>2026-04-24T16:24:38Z</time></trkpt><trkpt lat="31.27055898278438" lon="-6.022104805043582"><ele>1465.0</ele><time>2026-04-24T16:24:39Z</time></trkpt><trkpt lat="31.27080690166944" lon="-6.022166651128763"><ele>1465.0</ele><time>2026-04-24T16:24:40Z</time></trkpt><trkpt lat="31.27105001287409" lon="-6.022238901976971"><ele>1465.0</ele><time>2026-04-24T16:24:41Z</time></trkpt><trkpt lat="31.271286983293933" lon="-6.022321407904276"><ele>1463.5</ele><time>2026-04-24T16:24:42Z</time></trkpt><trkpt lat="31.27152150611894" lon="-6.022415576295684"><ele>1462.0</ele><time>2026-04-24T16:24:43Z</time></trkpt><trkpt lat="31.2717539722768" lon="-6.0225188630073525"><ele>1461.5</ele><time>2026-04-24T16:24:44Z</time></trkpt><trkpt lat="31.271980418901837" lon="-6.022620409726884"><ele>1461.0</ele><time>2026-04-24T16:24:45Z</time></trkpt><trkpt lat="31.27220577167646" lon="-6.022717405028228"><ele>1461.3333333333333</ele><time>2026-04-24T16:24:46Z</time></trkpt><trkpt lat="31.272416048773124" lon="-6.022808087626047"><ele>1461.6666666666665</ele><time>2026-04-24T16:24:47Z</time></trkpt><trkpt lat="31.27261628675359" lon="-6.022897743270934"><ele>1462.0</ele><time>2026-04-24T16:24:48Z</time></trkpt><trkpt lat="31.272804069961403" lon="-6.022981813986555"><ele>1462.0</ele><time>2026-04-24T16:24:49Z</time></trkpt><trkpt lat="31.272980731219626" lon="-6.023058923395591"><ele>1462.0</ele><time>2026-04-24T16:24:50Z</time></trkpt><trkpt lat="31.27313629784978" lon="-6.0231242873810045"><ele>1462.0</ele><time>2026-04-24T16:24:51Z</time></trkpt><trkpt lat="31.27328345390301" lon="-6.023187089677027"><ele>1462.25</ele><time>2026-04-24T16:24:52Z</time></trkpt><trkpt lat="31.273416810840246" lon="-6.023245032411951"><ele>1462.5</ele><time>2026-04-24T16:24:53Z</time></trkpt><trkpt lat="31.273540761534765" lon="-6.02329667555673"><ele>1462.75</ele><time>2026-04-24T16:24:54Z</time></trkpt><trkpt lat="31.273660054773867" lon="-6.023347432723521"><ele>1463.0</ele><time>2026-04-24T16:24:55Z</time></trkpt><trkpt lat="31.273775704417513" lon="-6.023400102920193"><ele>1463.2</ele><time>2026-04-24T16:24:56Z</time></trkpt><trkpt lat="31.27388973347365" lon="-6.023448935115184"><ele>1463.4</ele><time>2026-04-24T16:24:57Z</time></trkpt><trkpt lat="31.273996758202628" lon="-6.023493166199483"><ele>1463.6000000000001</ele><time>2026-04-24T16:24:58Z</time></trkpt><trkpt lat="31.274085214666446" lon="-6.023528344245228"><ele>1463.8000000000002</ele><time>2026-04-24T16:24:59Z</time></trkpt><trkpt lat="31.27415745547519" lon="-6.023557024963732"><ele>1464.0</ele><time>2026-04-24T16:25:00Z</time></trkpt><trkpt lat="31.274222470068594" lon="-6.023583008593528"><ele>1464.0</ele><time>2026-04-24T16:25:01Z</time></trkpt><trkpt lat="31.274336829592336" lon="-6.0236185080078934"><ele>1464.0</ele><time>2026-04-24T16:25:03Z</time></trkpt><trkpt lat="31.274410015350053" lon="-6.023636525944773"><ele>1464.0</ele><time>2026-04-24T16:25:05Z</time></trkpt><trkpt lat="31.27447863699705" lon="-6.023648973082495"><ele>1464.0</ele><time>2026-04-24T16:25:24Z</time></trkpt><trkpt lat="31.274569752283547" lon="-6.023715375180627"><ele>1464.0</ele><time>2026-04-24T16:33:04Z</time></trkpt><trkpt lat="31.27464885666033" lon="-6.023748870213925"><ele>1464.0</ele><time>2026-04-24T16:33:05Z</time></trkpt><trkpt lat="31.27474551538497" lon="-6.023782506872412"><ele>1464.0</ele><time>2026-04-24T16:33:06Z</time></trkpt><trkpt lat="31.274857927038642" lon="-6.0238117770023045"><ele>1464.0</ele><time>2026-04-24T16:33:07Z</time></trkpt><trkpt lat="31.274967523352288" lon="-6.023826793133634"><ele>1464.0</ele><time>2026-04-24T16:33:08Z</time></trkpt><trkpt lat="31.275079505973608" lon="-6.023834473127268"><ele>1464.0</ele><time>2026-04-24T16:33:09Z</time></trkpt><trkpt lat="31.275194136405624" lon="-6.023833137560698"><ele>1465.0</ele><time>2026-04-24T16:33:10Z</time></trkpt><trkpt lat="31.275313508109733" lon="-6.023832019971029"><ele>1466.0</ele><time>2026-04-24T16:33:11Z</time></trkpt><trkpt lat="31.275436765561142" lon="-6.023828078838343"><ele>1467.0</ele><time>2026-04-24T16:33:12Z</time></trkpt><trkpt lat="31.275563750362213" lon="-6.023817084362646"><ele>1468.0</ele><time>2026-04-24T16:33:13Z</time></trkpt><trkpt lat="31.27569459854535" lon="-6.023800500074966"><ele>1469.75</ele><time>2026-04-24T16:33:14Z</time></trkpt><trkpt lat="31.275828604290076" lon="-6.023776887369252"><ele>1471.5</ele><time>2026-04-24T16:33:15Z</time></trkpt><trkpt lat="31.275969381218054" lon="-6.023742129372159"><ele>1473.25</ele><time>2026-04-24T16:33:16Z</time></trkpt><trkpt lat="31.276117288497876" lon="-6.023692324643139"><ele>1475.0</ele><time>2026-04-24T16:33:17Z</time></trkpt><trkpt lat="31.276263170824198" lon="-6.023632064724091"><ele>1475.0</ele><time>2026-04-24T16:33:18Z</time></trkpt><trkpt lat="31.276408005304685" lon="-6.023566464950387"><ele>1475.0</ele><time>2026-04-24T16:33:19Z</time></trkpt><trkpt lat="31.276552904400365" lon="-6.023479698044173"><ele>1475.0</ele><time>2026-04-24T16:33:20Z</time></trkpt><trkpt lat="31.276691228681095" lon="-6.023378449449206"><ele>1478.0</ele><time>2026-04-24T16:33:21Z</time></trkpt><trkpt lat="31.276825214746477" lon="-6.0232732618773115"><ele>1481.0</ele><time>2026-04-24T16:33:22Z</time></trkpt><trkpt lat="31.276952235502904" lon="-6.023163783360264"><ele>1484.0</ele><time>2026-04-24T16:33:23Z</time></trkpt><trkpt lat="31.277073318822058" lon="-6.023049526394866"><ele>1484.0</ele><time>2026-04-24T16:33:24Z</time></trkpt><trkpt lat="31.277190354500163" lon="-6.022927013813074"><ele>1484.0</ele><time>2026-04-24T16:33:25Z</time></trkpt><trkpt lat="31.277306666964044" lon="-6.022796815624607"><ele>1484.0</ele><time>2026-04-24T16:33:26Z</time></trkpt><trkpt lat="31.277424437250392" lon="-6.022655720254649"><ele>1484.0</ele><time>2026-04-24T16:33:27Z</time></trkpt><trkpt lat="31.27754640072564" lon="-6.02251223278195"><ele>1484.0</ele><time>2026-04-24T16:33:28Z</time></trkpt><trkpt lat="31.27767915878662" lon="-6.022358092101422"><ele>1484.0</ele><time>2026-04-24T16:33:29Z</time></trkpt><trkpt lat="31.277825442363156" lon="-6.022197545513455"><ele>1485.3333333333335</ele><time>2026-04-24T16:33:30Z</time></trkpt><trkpt lat="31.277986077312555" lon="-6.0220330720317765"><ele>1486.6666666666667</ele><time>2026-04-24T16:33:31Z</time></trkpt><trkpt lat="31.278163284936372" lon="-6.021868208289847"><ele>1488.0</ele><time>2026-04-24T16:33:31.999Z</time></trkpt><trkpt lat="31.278351896617895" lon="-6.021708504567679"><ele>1490.5</ele><time>2026-04-24T16:33:32.999Z</time></trkpt><trkpt lat="31.27854209741324" lon="-6.0215617761143765"><ele>1493.0</ele><time>2026-04-24T16:33:33.999Z</time></trkpt><trkpt lat="31.278738643189843" lon="-6.02141532196906"><ele>1493.0</ele><time>2026-04-24T16:33:34.999Z</time></trkpt><trkpt lat="31.278909311737475" lon="-6.021285800717213"><ele>1493.0</ele><time>2026-04-24T16:33:35.999Z</time></trkpt><trkpt lat="31.279140278304258" lon="-6.021141581135783"><ele>1491.5</ele><time>2026-04-24T16:33:36.999Z</time></trkpt><trkpt lat="31.279347003495722" lon="-6.021023348469885"><ele>1490.0</ele><time>2026-04-24T16:33:37.999Z</time></trkpt><trkpt lat="31.27956154486452" lon="-6.020913247443023"><ele>1494.0</ele><time>2026-04-24T16:33:38.999Z</time></trkpt><trkpt lat="31.279785094659257" lon="-6.020809483834758"><ele>1498.0</ele><time>2026-04-24T16:33:39.999Z</time></trkpt><trkpt lat="31.280019921248215" lon="-6.020715208850486"><ele>1498.0</ele><time>2026-04-24T16:33:40.999Z</time></trkpt><trkpt lat="31.280266073901934" lon="-6.020635186018907"><ele>1498.0</ele><time>2026-04-24T16:33:41.999Z</time></trkpt><trkpt lat="31.280518974104407" lon="-6.020563734503996"><ele>1499.0</ele><time>2026-04-24T16:33:42.999Z</time></trkpt><trkpt lat="31.280779629148753" lon="-6.0204993983161845"><ele>1500.0</ele><time>2026-04-24T16:33:43.999Z</time></trkpt><trkpt lat="31.281048768954108" lon="-6.0204366401325835"><ele>1500.0</ele><time>2026-04-24T16:33:44.999Z</time></trkpt><trkpt lat="31.28132087401145" lon="-6.020375060311324"><ele>1500.0</ele><time>2026-04-24T16:33:45.999Z</time></trkpt><trkpt lat="31.281596471777014" lon="-6.020309638599367"><ele>1500.5</ele><time>2026-04-24T16:33:46.999Z</time></trkpt><trkpt lat="31.28187713918445" lon="-6.0202429881237105"><ele>1501.0</ele><time>2026-04-24T16:33:47.999Z</time></trkpt><trkpt lat="31.282159523930122" lon="-6.020176774488624"><ele>1503.0</ele><time>2026-04-24T16:33:48.999Z</time></trkpt><trkpt lat="31.282441684793106" lon="-6.020108656797019"><ele>1505.0</ele><time>2026-04-24T16:33:49.999Z</time></trkpt><trkpt lat="31.28272448617467" lon="-6.020038364228716"><ele>1505.0</ele><time>2026-04-24T16:33:50.999Z</time></trkpt><trkpt lat="31.283007072853913" lon="-6.019968316682092"><ele>1505.0</ele><time>2026-04-24T16:33:51.999Z</time></trkpt><trkpt lat="31.283288234694318" lon="-6.01989787047964"><ele>1505.0</ele><time>2026-04-24T16:33:52.999Z</time></trkpt><trkpt lat="31.28356422512741" lon="-6.019828018243295"><ele>1505.0</ele><time>2026-04-24T16:33:53.999Z</time></trkpt><trkpt lat="31.283840216910285" lon="-6.019761061872622"><ele>1504.0</ele><time>2026-04-24T16:33:54.999Z</time></trkpt><trkpt lat="31.284125647393065" lon="-6.019690248052413"><ele>1503.0</ele><time>2026-04-24T16:33:55.999Z</time></trkpt><trkpt lat="31.28441926787013" lon="-6.0196178712583"><ele>1503.0</ele><time>2026-04-24T16:33:56.999Z</time></trkpt><trkpt lat="31.28471608470353" lon="-6.019543840968773"><ele>1503.0</ele><time>2026-04-24T16:33:57.999Z</time></trkpt><trkpt lat="31.28501462502038" lon="-6.019470359073534"><ele>1503.0</ele><time>2026-04-24T16:33:58.999Z</time></trkpt><trkpt lat="31.285317022749886" lon="-6.019396936805093"><ele>1503.0</ele><time>2026-04-24T16:33:59.999Z</time></trkpt><trkpt lat="31.2856229671646" lon="-6.019321812343038"><ele>1504.0</ele><time>2026-04-24T16:34:00.999Z</time></trkpt><trkpt lat="31.28593658064918" lon="-6.019244431519604"><ele>1505.0</ele><time>2026-04-24T16:34:01.999Z</time></trkpt><trkpt lat="31.286254115545795" lon="-6.019167744490146"><ele>1505.0</ele><time>2026-04-24T16:34:02.999Z</time></trkpt><trkpt lat="31.286576815253795" lon="-6.019091289853741"><ele>1505.0</ele><time>2026-04-24T16:34:03.999Z</time></trkpt><trkpt lat="31.286902928778314" lon="-6.019014274241009"><ele>1505.0</ele><time>2026-04-24T16:34:05Z</time></trkpt><trkpt lat="31.287229808667195" lon="-6.018935322508131"><ele>1505.0</ele><time>2026-04-24T16:34:06Z</time></trkpt><trkpt lat="31.28756093111302" lon="-6.0188544557183885"><ele>1505.5</ele><time>2026-04-24T16:34:07Z</time></trkpt><trkpt lat="31.28789032546269" lon="-6.018776765949117"><ele>1506.0</ele><time>2026-04-24T16:34:08Z</time></trkpt><trkpt lat="31.288219466164918" lon="-6.0186994343786795"><ele>1504.5</ele><time>2026-04-24T16:34:09Z</time></trkpt><trkpt lat="31.28854790415591" lon="-6.018619286960268"><ele>1503.0</ele><time>2026-04-24T16:34:10Z</time></trkpt><trkpt lat="31.288869097844568" lon="-6.018541559453075"><ele>1503.5</ele><time>2026-04-24T16:34:11Z</time></trkpt><trkpt lat="31.289185296171752" lon="-6.018462930719562"><ele>1504.0</ele><time>2026-04-24T16:34:12Z</time></trkpt><trkpt lat="31.289497739676236" lon="-6.018384256905117"><ele>1505.0</ele><time>2026-04-24T16:34:13Z</time></trkpt><trkpt lat="31.289802898504014" lon="-6.018309814467556"><ele>1506.0</ele><time>2026-04-24T16:34:14Z</time></trkpt><trkpt lat="31.290097601958372" lon="-6.018236280074344"><ele>1506.0</ele><time>2026-04-24T16:34:15Z</time></trkpt><trkpt lat="31.290383866993253" lon="-6.0181448816919225"><ele>1506.0</ele><time>2026-04-24T16:34:16Z</time></trkpt><trkpt lat="31.290677677159582" lon="-6.018069081184938"><ele>1506.5</ele><time>2026-04-24T16:34:17Z</time></trkpt><trkpt lat="31.290975240331612" lon="-6.017992312435759"><ele>1507.0</ele><time>2026-04-24T16:34:18Z</time></trkpt><trkpt lat="31.29126110939089" lon="-6.017918560671784"><ele>1508.0</ele><time>2026-04-24T16:34:19Z</time></trkpt><trkpt lat="31.291549073193003" lon="-6.017844265245235"><ele>1509.0</ele><time>2026-04-24T16:34:20Z</time></trkpt><trkpt lat="31.291829373594066" lon="-6.0177719275871135"><ele>1509.0</ele><time>2026-04-24T16:34:21Z</time></trkpt><trkpt lat="31.29211769182539" lon="-6.017697308698432"><ele>1509.0</ele><time>2026-04-24T16:34:22Z</time></trkpt><trkpt lat="31.292699997088462" lon="-6.01754631460984"><ele>1509.0</ele><time>2026-04-24T16:34:24Z</time></trkpt><trkpt lat="31.292996724849882" lon="-6.017473173424927"><ele>1509.0</ele><time>2026-04-24T16:34:25Z</time></trkpt><trkpt lat="31.29329219884408" lon="-6.017401584178249"><ele>1509.5</ele><time>2026-04-24T16:34:26Z</time></trkpt><trkpt lat="31.293587149347616" lon="-6.017330121810837"><ele>1510.0</ele><time>2026-04-24T16:34:27Z</time></trkpt><trkpt lat="31.29387723337385" lon="-6.017259838510007"><ele>1510.5</ele><time>2026-04-24T16:34:27.999Z</time></trkpt><trkpt lat="31.29417031571088" lon="-6.017188828772233"><ele>1511.0</ele><time>2026-04-24T16:34:28.999Z</time></trkpt><trkpt lat="31.294442051933252" lon="-6.017122990896343"><ele>1511.0</ele><time>2026-04-24T16:34:29.999Z</time></trkpt><trkpt lat="31.294705969922575" lon="-6.017059047275032"><ele>1511.0</ele><time>2026-04-24T16:34:30.999Z</time></trkpt><trkpt lat="31.29496151418993" lon="-6.0169964074115425"><ele>1511.0</ele><time>2026-04-24T16:34:31.999Z</time></trkpt><trkpt lat="31.295206259324605" lon="-6.016934255687177"><ele>1511.0</ele><time>2026-04-24T16:34:32.999Z</time></trkpt><trkpt lat="31.29543243458469" lon="-6.016876819683029"><ele>1511.0</ele><time>2026-04-24T16:34:33.999Z</time></trkpt><trkpt lat="31.295651612072835" lon="-6.01682116074046"><ele>1511.0</ele><time>2026-04-24T16:34:34.999Z</time></trkpt><trkpt lat="31.29586068367706" lon="-6.01676806811071"><ele>1511.0</ele><time>2026-04-24T16:34:35.999Z</time></trkpt><trkpt lat="31.296069560396454" lon="-6.016711481614764"><ele>1511.5</ele><time>2026-04-24T16:34:36.999Z</time></trkpt><trkpt lat="31.296291929793806" lon="-6.016646554849227"><ele>1512.0</ele><time>2026-04-24T16:34:37.999Z</time></trkpt><trkpt lat="31.29652408449288" lon="-6.016578771001743"><ele>1513.0</ele><time>2026-04-24T16:34:38.999Z</time></trkpt><trkpt lat="31.296757557859568" lon="-6.016503043998814"><ele>1514.0</ele><time>2026-04-24T16:34:39.999Z</time></trkpt><trkpt lat="31.29699479750901" lon="-6.016412427075606"><ele>1514.0</ele><time>2026-04-24T16:34:40.999Z</time></trkpt><trkpt lat="31.297241648383245" lon="-6.0163181390049765"><ele>1514.0</ele><time>2026-04-24T16:34:41.999Z</time></trkpt><trkpt lat="31.297497936507025" lon="-6.016220143499462"><ele>1513.0</ele><time>2026-04-24T16:34:42.999Z</time></trkpt><trkpt lat="31.29775075612572" lon="-6.016105843630558"><ele>1512.0</ele><time>2026-04-24T16:34:43.999Z</time></trkpt><trkpt lat="31.298007575785594" lon="-6.0159895052042005"><ele>1512.0</ele><time>2026-04-24T16:34:44.999Z</time></trkpt><trkpt lat="31.298260961011778" lon="-6.015870655288286"><ele>1512.0</ele><time>2026-04-24T16:34:45.999Z</time></trkpt><trkpt lat="31.298502711266014" lon="-6.0157415055210315"><ele>1512.0</ele><time>2026-04-24T16:34:46.999Z</time></trkpt><trkpt lat="31.298730159106842" lon="-6.015618356631845"><ele>1512.0</ele><time>2026-04-24T16:34:47.999Z</time></trkpt><trkpt lat="31.298951526362483" lon="-6.015482580030297"><ele>1513.5</ele><time>2026-04-24T16:34:48.999Z</time></trkpt><trkpt lat="31.299169724753405" lon="-6.0153417974825985"><ele>1515.0</ele><time>2026-04-24T16:34:49.999Z</time></trkpt><trkpt lat="31.299383695494065" lon="-6.015190617703436"><ele>1515.0</ele><time>2026-04-24T16:34:50.999Z</time></trkpt><trkpt lat="31.299594700563606" lon="-6.015041533323733"><ele>1515.0</ele><time>2026-04-24T16:34:51.999Z</time></trkpt><trkpt lat="31.29979719065556" lon="-6.014898465137635"><ele>1514.6666666666667</ele><time>2026-04-24T16:34:52.999Z</time></trkpt><trkpt lat="31.2999841229304" lon="-6.014759936171171"><ele>1514.3333333333335</ele><time>2026-04-24T16:34:53.999Z</time></trkpt><trkpt lat="31.30015970865898" lon="-6.014628880809942"><ele>1514.0</ele><time>2026-04-24T16:34:54.999Z</time></trkpt><trkpt lat="31.3003373337901" lon="-6.014496865691429"><ele>1514.0</ele><time>2026-04-24T16:34:55.999Z</time></trkpt><trkpt lat="31.30051389160765" lon="-6.014365627712047"><ele>1514.0</ele><time>2026-04-24T16:34:56.999Z</time></trkpt><trkpt lat="31.300692029101274" lon="-6.0142332155135"><ele>1514.0</ele><time>2026-04-24T16:34:57.999Z</time></trkpt><trkpt lat="31.300868236130672" lon="-6.0141024752527334"><ele>1514.3333333333335</ele><time>2026-04-24T16:34:58.999Z</time></trkpt><trkpt lat="31.30103555284994" lon="-6.013974537107172"><ele>1514.6666666666667</ele><time>2026-04-24T16:34:59.999Z</time></trkpt><trkpt lat="31.301190933150096" lon="-6.013851961479642"><ele>1515.0</ele><time>2026-04-24T16:35:00.999Z</time></trkpt><trkpt lat="31.30133240070232" lon="-6.013740361228457"><ele>1515.6666666666667</ele><time>2026-04-24T16:35:01.999Z</time></trkpt><trkpt lat="31.301463253986295" lon="-6.01363713436794"><ele>1516.3333333333335</ele><time>2026-04-24T16:35:02.999Z</time></trkpt><trkpt lat="31.3015954543405" lon="-6.013532844792588"><ele>1517.0</ele><time>2026-04-24T16:35:03.999Z</time></trkpt><trkpt lat="31.30173535419263" lon="-6.013422660403346"><ele>1517.0</ele><time>2026-04-24T16:35:04.999Z</time></trkpt><trkpt lat="31.30187415398702" lon="-6.013313575627677"><ele>1517.0</ele><time>2026-04-24T16:35:05.999Z</time></trkpt><trkpt lat="31.30200757000207" lon="-6.0132087051206025"><ele>1517.0</ele><time>2026-04-24T16:35:06.999Z</time></trkpt><trkpt lat="31.30213571119538" lon="-6.013107813698298"><ele>1517.0</ele><time>2026-04-24T16:35:07.999Z</time></trkpt><trkpt lat="31.30226615665122" lon="-6.0130051080128935"><ele>1517.0</ele><time>2026-04-24T16:35:08.999Z</time></trkpt><trkpt lat="31.302397618887923" lon="-6.012901601775016"><ele>1517.0</ele><time>2026-04-24T16:35:09.999Z</time></trkpt><trkpt lat="31.302510841416243" lon="-6.012812292644176"><ele>1517.0</ele><time>2026-04-24T16:35:10.999Z</time></trkpt><trkpt lat="31.30261143067008" lon="-6.012732880142875"><ele>1517.0</ele><time>2026-04-24T16:35:11.999Z</time></trkpt><trkpt lat="31.30270584870888" lon="-6.01265834080476"><ele>1517.0</ele><time>2026-04-24T16:35:12.999Z</time></trkpt><trkpt lat="31.302796417167002" lon="-6.012586840127165"><ele>1517.0</ele><time>2026-04-24T16:35:13.999Z</time></trkpt><trkpt lat="31.30287794949506" lon="-6.012522473200656"><ele>1517.0</ele><time>2026-04-24T16:35:14.999Z</time></trkpt><trkpt lat="31.30294376959025" lon="-6.012470510554667"><ele>1517.0</ele><time>2026-04-24T16:35:15.999Z</time></trkpt><trkpt lat="31.303024901562683" lon="-6.012406459651314"><ele>1517.0</ele><time>2026-04-24T16:35:17.999Z</time></trkpt><trkpt lat="31.30308290687805" lon="-6.012360666217554"><ele>1517.0</ele><time>2026-04-24T16:35:21.999Z</time></trkpt><trkpt lat="31.303143393074375" lon="-6.012317089554567"><ele>1517.0</ele><time>2026-04-24T16:35:25.999Z</time></trkpt><trkpt lat="31.3032049774622" lon="-6.012271711589117"><ele>1517.0</ele><time>2026-04-24T16:35:28.999Z</time></trkpt><trkpt lat="31.303321631048654" lon="-6.012185756331595"><ele>1517.0</ele><time>2026-04-24T16:35:30.999Z</time></trkpt><trkpt lat="31.303411063901425" lon="-6.012119858438026"><ele>1517.25</ele><time>2026-04-24T16:35:31.999Z</time></trkpt><trkpt lat="31.30351340839025" lon="-6.012044446683094"><ele>1517.5</ele><time>2026-04-24T16:35:32.999Z</time></trkpt><trkpt lat="31.30361529096275" lon="-6.011969375349841"><ele>1517.75</ele><time>2026-04-24T16:35:33.999Z</time></trkpt><trkpt lat="31.303716879103067" lon="-6.01189452087263"><ele>1518.0</ele><time>2026-04-24T16:35:34.999Z</time></trkpt><trkpt lat="31.303816102457436" lon="-6.0118214079177985"><ele>1518.0</ele><time>2026-04-24T16:35:35.999Z</time></trkpt><trkpt lat="31.303907979256255" lon="-6.0117537082741"><ele>1518.0</ele><time>2026-04-24T16:35:36.999Z</time></trkpt><trkpt lat="31.303990589175545" lon="-6.011692836966631"><ele>1518.0</ele><time>2026-04-24T16:35:37.999Z</time></trkpt><trkpt lat="31.304104376640574" lon="-6.011694504027455"><ele>1518.0</ele><time>2026-04-24T16:35:38.999Z</time></trkpt><trkpt lat="31.304190757492954" lon="-6.01162123646401"><ele>1518.0</ele><time>2026-04-24T16:35:39.999Z</time></trkpt><trkpt lat="31.304290468897342" lon="-6.011537908666155"><ele>1518.0</ele><time>2026-04-24T16:35:40.999Z</time></trkpt><trkpt lat="31.304402012556928" lon="-6.011449286947726"><ele>1518.0</ele><time>2026-04-24T16:35:41.999Z</time></trkpt><trkpt lat="31.304524277153778" lon="-6.011352737068001"><ele>1518.0</ele><time>2026-04-24T16:35:42.999Z</time></trkpt><trkpt lat="31.30465784478912" lon="-6.011249409691061"><ele>1518.0</ele><time>2026-04-24T16:35:43.999Z</time></trkpt><trkpt lat="31.30479687540702" lon="-6.011140316500625"><ele>1518.6666666666667</ele><time>2026-04-24T16:35:44.999Z</time></trkpt><trkpt lat="31.30494307144478" lon="-6.011023944283563"><ele>1519.3333333333335</ele><time>2026-04-24T16:35:45.999Z</time></trkpt><trkpt lat="31.30509595376122" lon="-6.010906091381072"><ele>1520.0</ele><time>2026-04-24T16:35:46.999Z</time></trkpt><trkpt lat="31.305257607967732" lon="-6.010782398098512"><ele>1520.0</ele><time>2026-04-24T16:35:47.999Z</time></trkpt><trkpt lat="31.305426388165852" lon="-6.01065123745972"><ele>1520.0</ele><time>2026-04-24T16:35:48.999Z</time></trkpt><trkpt lat="31.305600104457813" lon="-6.010512835810105"><ele>1520.0</ele><time>2026-04-24T16:35:49.999Z</time></trkpt><trkpt lat="31.305779771353826" lon="-6.010369193893892"><ele>1520.0</ele><time>2026-04-24T16:35:50.999Z</time></trkpt><trkpt lat="31.305960973761977" lon="-6.010227229815219"><ele>1520.0</ele><time>2026-04-24T16:35:51.999Z</time></trkpt><trkpt lat="31.306147149292617" lon="-6.010084746944045"><ele>1520.0</ele><time>2026-04-24T16:35:52.999Z</time></trkpt><trkpt lat="31.306336460624017" lon="-6.009944255622701"><ele>1519.5</ele><time>2026-04-24T16:35:53.999Z</time></trkpt><trkpt lat="31.30652854837229" lon="-6.009797150955686"><ele>1519.0</ele><time>2026-04-24T16:35:54.999Z</time></trkpt><trkpt lat="31.306723374281706" lon="-6.009646290522455"><ele>1519.0</ele><time>2026-04-24T16:35:55.999Z</time></trkpt><trkpt lat="31.30692105674088" lon="-6.009493975335489"><ele>1519.0</ele><time>2026-04-24T16:35:56.999Z</time></trkpt><trkpt lat="31.307122927819616" lon="-6.009337253532323"><ele>1521.0</ele><time>2026-04-24T16:35:57.999Z</time></trkpt><trkpt lat="31.307327011895964" lon="-6.009178201315432"><ele>1523.0</ele><time>2026-04-24T16:35:58.999Z</time></trkpt><trkpt lat="31.307531496742968" lon="-6.009017543717553"><ele>1523.0</ele><time>2026-04-24T16:35:59.999Z</time></trkpt><trkpt lat="31.30774207811258" lon="-6.00885298515402"><ele>1523.0</ele><time>2026-04-24T16:36:00.999Z</time></trkpt><trkpt lat="31.307955799869045" lon="-6.008687381940732"><ele>1523.0</ele><time>2026-04-24T16:36:01.999Z</time></trkpt><trkpt lat="31.308167430708128" lon="-6.008525143850488"><ele>1523.0</ele><time>2026-04-24T16:36:02.999Z</time></trkpt><trkpt lat="31.308384329729428" lon="-6.008357344165755"><ele>1522.5</ele><time>2026-04-24T16:36:03.999Z</time></trkpt><trkpt lat="31.30860660830048" lon="-6.008186100822191"><ele>1522.0</ele><time>2026-04-24T16:36:04.999Z</time></trkpt><trkpt lat="31.30883753763062" lon="-6.008013458043181"><ele>1522.0</ele><time>2026-04-24T16:36:05.999Z</time></trkpt><trkpt lat="31.309072933829373" lon="-6.007835531025286"><ele>1522.0</ele><time>2026-04-24T16:36:06.999Z</time></trkpt><trkpt lat="31.309307351382238" lon="-6.007652519748424"><ele>1522.5</ele><time>2026-04-24T16:36:07.999Z</time></trkpt><trkpt lat="31.309537960017774" lon="-6.007472196843228"><ele>1523.0</ele><time>2026-04-24T16:36:08.999Z</time></trkpt><trkpt lat="31.30976670949341" lon="-6.007286809275001"><ele>1523.5</ele><time>2026-04-24T16:36:09.999Z</time></trkpt><trkpt lat="31.309997156782753" lon="-6.007103161647683"><ele>1524.0</ele><time>2026-04-24T16:36:10.999Z</time></trkpt><trkpt lat="31.310225195113897" lon="-6.006920580274628"><ele>1524.0</ele><time>2026-04-24T16:36:11.999Z</time></trkpt><trkpt lat="31.310456905060892" lon="-6.006736660180276"><ele>1524.0</ele><time>2026-04-24T16:36:12.999Z</time></trkpt><trkpt lat="31.310694057545184" lon="-6.006547571308113"><ele>1524.0</ele><time>2026-04-24T16:36:13.999Z</time></trkpt><trkpt lat="31.31093244026444" lon="-6.006360294524026"><ele>1524.0</ele><time>2026-04-24T16:36:14.999Z</time></trkpt><trkpt lat="31.311179693900403" lon="-6.006172463573451"><ele>1525.0</ele><time>2026-04-24T16:36:15.999Z</time></trkpt><trkpt lat="31.311427062558245" lon="-6.005979306130955"><ele>1526.0</ele><time>2026-04-24T16:36:16.999Z</time></trkpt><trkpt lat="31.31167479901862" lon="-6.005789523854897"><ele>1526.0</ele><time>2026-04-24T16:36:17.999Z</time></trkpt><trkpt lat="31.311896665745657" lon="-6.005545936421601"><ele>1526.0</ele><time>2026-04-24T16:36:18.999Z</time></trkpt><trkpt lat="31.312146486718035" lon="-6.005352081784372"><ele>1526.0</ele><time>2026-04-24T16:36:19.999Z</time></trkpt><trkpt lat="31.312398066862592" lon="-6.005156851397128"><ele>1526.0</ele><time>2026-04-24T16:36:20.999Z</time></trkpt><trkpt lat="31.312649775795006" lon="-6.004961520995325"><ele>1526.0</ele><time>2026-04-24T16:36:21.999Z</time></trkpt><trkpt lat="31.312900934743848" lon="-6.004766209646287"><ele>1526.0</ele><time>2026-04-24T16:36:22.999Z</time></trkpt><trkpt lat="31.313155620870308" lon="-6.004568120404378"><ele>1526.5</ele><time>2026-04-24T16:36:23.999Z</time></trkpt><trkpt lat="31.31340761910064" lon="-6.004370142838233"><ele>1527.0</ele><time>2026-04-24T16:36:24.999Z</time></trkpt><trkpt lat="31.313659228527253" lon="-6.004171641603662"><ele>1526.5</ele><time>2026-04-24T16:36:25.999Z</time></trkpt><trkpt lat="31.313914529417918" lon="-6.003970074612001"><ele>1526.0</ele><time>2026-04-24T16:36:26.999Z</time></trkpt><trkpt lat="31.314171836131408" lon="-6.003766923616255"><ele>1526.0</ele><time>2026-04-24T16:36:27.999Z</time></trkpt><trkpt lat="31.314433929554312" lon="-6.003559993899239"><ele>1526.0</ele><time>2026-04-24T16:36:28.999Z</time></trkpt><trkpt lat="31.314696921276358" lon="-6.003352354519601"><ele>1528.0</ele><time>2026-04-24T16:36:29.999Z</time></trkpt><trkpt lat="31.314961516971902" lon="-6.003143449029306"><ele>1530.0</ele><time>2026-04-24T16:36:30.999Z</time></trkpt><trkpt lat="31.315224973238106" lon="-6.002935438726148"><ele>1530.0</ele><time>2026-04-24T16:36:31.999Z</time></trkpt><trkpt lat="31.31549035566236" lon="-6.002725805358447"><ele>1530.0</ele><time>2026-04-24T16:36:32.999Z</time></trkpt><trkpt lat="31.315751231882825" lon="-6.0025197314764505"><ele>1528.0</ele><time>2026-04-24T16:36:33.999Z</time></trkpt><trkpt lat="31.31600795051721" lon="-6.002316941831716"><ele>1526.0</ele><time>2026-04-24T16:36:34.999Z</time></trkpt><trkpt lat="31.316264066712176" lon="-6.002115891483766"><ele>1527.5</ele><time>2026-04-24T16:36:35.999Z</time></trkpt><trkpt lat="31.316520703366898" lon="-6.001921123634002"><ele>1529.0</ele><time>2026-04-24T16:36:36.999Z</time></trkpt><trkpt lat="31.316774719725206" lon="-6.001728344402603"><ele>1529.5</ele><time>2026-04-24T16:36:37.999Z</time></trkpt><trkpt lat="31.317028688365273" lon="-6.001535601444183"><ele>1530.0</ele><time>2026-04-24T16:36:38.999Z</time></trkpt><trkpt lat="31.317280038069992" lon="-6.001344846034604"><ele>1530.0</ele><time>2026-04-24T16:36:39.999Z</time></trkpt><trkpt lat="31.317532243730483" lon="-6.001153440948344"><ele>1530.0</ele><time>2026-04-24T16:36:40.999Z</time></trkpt><trkpt lat="31.317787754084044" lon="-6.000962126243823"><ele>1530.0</ele><time>2026-04-24T16:36:41.999Z</time></trkpt><trkpt lat="31.318049636482414" lon="-6.000777030936574"><ele>1530.0</ele><time>2026-04-24T16:36:42.999Z</time></trkpt><trkpt lat="31.31831357566278" lon="-6.0005906531459"><ele>1531.0</ele><time>2026-04-24T16:36:43.999Z</time></trkpt><trkpt lat="31.318585150081102" lon="-6.0003991675827315"><ele>1532.0</ele><time>2026-04-24T16:36:44.999Z</time></trkpt><trkpt lat="31.318872561976917" lon="-6.000216025907464"><ele>1532.0</ele><time>2026-04-24T16:36:45.999Z</time></trkpt><trkpt lat="31.319161976376268" lon="-6.000046278276887"><ele>1532.0</ele><time>2026-04-24T16:36:46.999Z</time></trkpt><trkpt lat="31.319452617301085" lon="-5.999875972414839"><ele>1533.0</ele><time>2026-04-24T16:36:47.999Z</time></trkpt><trkpt lat="31.319744114606525" lon="-5.9997051647381"><ele>1534.0</ele><time>2026-04-24T16:36:48.999Z</time></trkpt><trkpt lat="31.320037510833316" lon="-5.999536969158594"><ele>1534.0</ele><time>2026-04-24T16:36:49.999Z</time></trkpt><trkpt lat="31.32033043878067" lon="-5.99937168924655"><ele>1534.0</ele><time>2026-04-24T16:36:50.999Z</time></trkpt><trkpt lat="31.32062553943344" lon="-5.999205183168803"><ele>1534.0</ele><time>2026-04-24T16:36:51.999Z</time></trkpt><trkpt lat="31.320930908295544" lon="-5.999060336892967"><ele>1534.0</ele><time>2026-04-24T16:36:52.999Z</time></trkpt><trkpt lat="31.321232204503126" lon="-5.998921218354828"><ele>1534.5</ele><time>2026-04-24T16:36:53.999Z</time></trkpt><trkpt lat="31.32153114050658" lon="-5.998783190533748"><ele>1535.0</ele><time>2026-04-24T16:36:54.999Z</time></trkpt><trkpt lat="31.32182330752507" lon="-5.998648288196364"><ele>1535.0</ele><time>2026-04-24T16:36:55.999Z</time></trkpt><trkpt lat="31.322110962577852" lon="-5.99851546845827"><ele>1535.0</ele><time>2026-04-24T16:36:56.999Z</time></trkpt><trkpt lat="31.322391182145793" lon="-5.998386027876078"><ele>1535.0</ele><time>2026-04-24T16:36:57.999Z</time></trkpt><trkpt lat="31.322668342760075" lon="-5.998258000252161"><ele>1535.0</ele><time>2026-04-24T16:36:58.999Z</time></trkpt><trkpt lat="31.32294220559541" lon="-5.998131608874285"><ele>1535.0</ele><time>2026-04-24T16:36:59.999Z</time></trkpt><trkpt lat="31.323219638219395" lon="-5.998003848238881"><ele>1535.0</ele><time>2026-04-24T16:37:00.999Z</time></trkpt><trkpt lat="31.323501765102733" lon="-5.99787392601739"><ele>1535.0</ele><time>2026-04-24T16:37:01.999Z</time></trkpt><trkpt lat="31.32378287442806" lon="-5.997744472280085"><ele>1535.0</ele><time>2026-04-24T16:37:02.999Z</time></trkpt><trkpt lat="31.324065500986816" lon="-5.997614240298396"><ele>1535.5</ele><time>2026-04-24T16:37:03.999Z</time></trkpt><trkpt lat="31.32434540725567" lon="-5.99748495949901"><ele>1536.0</ele><time>2026-04-24T16:37:04.999Z</time></trkpt><trkpt lat="31.32462634588944" lon="-5.99735520201991"><ele>1536.0</ele><time>2026-04-24T16:37:05.999Z</time></trkpt><trkpt lat="31.324909211320293" lon="-5.997224554612754"><ele>1536.0</ele><time>2026-04-24T16:37:06.999Z</time></trkpt><trkpt lat="31.325193581417015" lon="-5.99709350672055"><ele>1536.0</ele><time>2026-04-24T16:37:07.999Z</time></trkpt><trkpt lat="31.325475437754097" lon="-5.996963491488708"><ele>1536.0</ele><time>2026-04-24T16:37:08.999Z</time></trkpt><trkpt lat="31.325758338434802" lon="-5.996838611413003"><ele>1536.0</ele><time>2026-04-24T16:37:09.999Z</time></trkpt><trkpt lat="31.326038339044057" lon="-5.996715011583373"><ele>1536.0</ele><time>2026-04-24T16:37:10.999Z</time></trkpt><trkpt lat="31.32632917237987" lon="-5.996613026312986"><ele>1538.5</ele><time>2026-04-24T16:37:11.999Z</time></trkpt><trkpt lat="31.32661323220533" lon="-5.996481783003205"><ele>1541.0</ele><time>2026-04-24T16:37:12.999Z</time></trkpt><trkpt lat="31.326899601292048" lon="-5.996349691921723"><ele>1541.0</ele><time>2026-04-24T16:37:13.999Z</time></trkpt><trkpt lat="31.327185085607397" lon="-5.996217825042296"><ele>1541.0</ele><time>2026-04-24T16:37:14.999Z</time></trkpt><trkpt lat="31.327473500945274" lon="-5.996085991540774"><ele>1541.0</ele><time>2026-04-24T16:37:15.999Z</time></trkpt><trkpt lat="31.32776422180264" lon="-5.995954654545608"><ele>1541.0</ele><time>2026-04-24T16:37:16.999Z</time></trkpt><trkpt lat="31.328056725312347" lon="-5.9958206155839635"><ele>1540.5</ele><time>2026-04-24T16:37:17.999Z</time></trkpt><trkpt lat="31.32835244824764" lon="-5.995678296087821"><ele>1540.0</ele><time>2026-04-24T16:37:18.999Z</time></trkpt><trkpt lat="31.32864804107266" lon="-5.995534902109423"><ele>1540.0</ele><time>2026-04-24T16:37:19.999Z</time></trkpt><trkpt lat="31.32894710317364" lon="-5.995392009389384"><ele>1540.0</ele><time>2026-04-24T16:37:20.999Z</time></trkpt><trkpt lat="31.32924734939477" lon="-5.995251578763401"><ele>1540.0</ele><time>2026-04-24T16:37:21.999Z</time></trkpt><trkpt lat="31.329547585184024" lon="-5.995113385684459"><ele>1540.0</ele><time>2026-04-24T16:37:22.999Z</time></trkpt><trkpt lat="31.3298516778933" lon="-5.994974577444041"><ele>1541.0</ele><time>2026-04-24T16:37:23.999Z</time></trkpt><trkpt lat="31.330163768952605" lon="-5.994831957560287"><ele>1542.0</ele><time>2026-04-24T16:37:24.999Z</time></trkpt><trkpt lat="31.330477316873562" lon="-5.994686291524573"><ele>1541.5</ele><time>2026-04-24T16:37:25.999Z</time></trkpt><trkpt lat="31.33079536615448" lon="-5.994538186088501"><ele>1541.0</ele><time>2026-04-24T16:37:26.999Z</time></trkpt><trkpt lat="31.33111309879564" lon="-5.994390189981378"><ele>1541.0</ele><time>2026-04-24T16:37:27.999Z</time></trkpt><trkpt lat="31.331430661010256" lon="-5.99424330412897"><ele>1541.0</ele><time>2026-04-24T16:37:28.999Z</time></trkpt><trkpt lat="31.331746309941938" lon="-5.994097770303791"><ele>1541.0</ele><time>2026-04-24T16:37:29.999Z</time></trkpt><trkpt lat="31.332061509919146" lon="-5.993952001777589"><ele>1541.0</ele><time>2026-04-24T16:37:30.999Z</time></trkpt><trkpt lat="31.332376071657812" lon="-5.993805324740511"><ele>1542.5</ele><time>2026-04-24T16:37:31.999Z</time></trkpt><trkpt lat="31.332688853985672" lon="-5.993659472425667"><ele>1544.0</ele><time>2026-04-24T16:37:32.999Z</time></trkpt><trkpt lat="31.333001540281213" lon="-5.993512278537168"><ele>1545.0</ele><time>2026-04-24T16:37:33.999Z</time></trkpt><trkpt lat="31.33331498038031" lon="-5.9933635108010215"><ele>1546.0</ele><time>2026-04-24T16:37:34.999Z</time></trkpt><trkpt lat="31.333624969626307" lon="-5.993218645975266"><ele>1548.0</ele><time>2026-04-24T16:37:35.999Z</time></trkpt><trkpt lat="31.333927033217005" lon="-5.99307772555265"><ele>1550.0</ele><time>2026-04-24T16:37:36.999Z</time></trkpt><trkpt lat="31.33421016432607" lon="-5.992948392806303"><ele>1550.0</ele><time>2026-04-24T16:37:37.999Z</time></trkpt><trkpt lat="31.334486236714653" lon="-5.992823250738679"><ele>1550.0</ele><time>2026-04-24T16:37:38.999Z</time></trkpt><trkpt lat="31.334753361179434" lon="-5.992701953924044"><ele>1549.0</ele><time>2026-04-24T16:37:39.999Z</time></trkpt><trkpt lat="31.33501957153521" lon="-5.992580481337975"><ele>1548.0</ele><time>2026-04-24T16:37:40.999Z</time></trkpt><trkpt lat="31.335289327328358" lon="-5.99245654924378"><ele>1547.5</ele><time>2026-04-24T16:37:41.999Z</time></trkpt><trkpt lat="31.335562897655013" lon="-5.992331878012722"><ele>1547.0</ele><time>2026-04-24T16:37:42.999Z</time></trkpt><trkpt lat="31.335839655100184" lon="-5.992204132394287"><ele>1547.0</ele><time>2026-04-24T16:37:43.999Z</time></trkpt><trkpt lat="31.336115460203196" lon="-5.992075380999017"><ele>1547.0</ele><time>2026-04-24T16:37:44.999Z</time></trkpt><trkpt lat="31.336396563955965" lon="-5.991942700076472"><ele>1548.0</ele><time>2026-04-24T16:37:45.999Z</time></trkpt><trkpt lat="31.33667833423711" lon="-5.991809917732476"><ele>1549.0</ele><time>2026-04-24T16:37:46.999Z</time></trkpt><trkpt lat="31.336957273607414" lon="-5.991680137524259"><ele>1548.0</ele><time>2026-04-24T16:37:47.999Z</time></trkpt><trkpt lat="31.337239382448523" lon="-5.991549797656333"><ele>1547.0</ele><time>2026-04-24T16:37:48.999Z</time></trkpt><trkpt lat="31.337521093194717" lon="-5.99142115606356"><ele>1547.0</ele><time>2026-04-24T16:37:49.999Z</time></trkpt><trkpt lat="31.337807330438974" lon="-5.9912898430664"><ele>1547.0</ele><time>2026-04-24T16:37:50.999Z</time></trkpt><trkpt lat="31.338091073089917" lon="-5.991161788748713"><ele>1548.0</ele><time>2026-04-24T16:37:51.999Z</time></trkpt><trkpt lat="31.338377739065507" lon="-5.991031760899958"><ele>1549.0</ele><time>2026-04-24T16:37:52.999Z</time></trkpt><trkpt lat="31.33866733716574" lon="-5.990900073560596"><ele>1550.5</ele><time>2026-04-24T16:37:53.999Z</time></trkpt><trkpt lat="31.338958804146873" lon="-5.9907700085511255"><ele>1552.0</ele><time>2026-04-24T16:37:54.999Z</time></trkpt><trkpt lat="31.3392545026381" lon="-5.9906420540971705"><ele>1552.0</ele><time>2026-04-24T16:37:55.999Z</time></trkpt><trkpt lat="31.33955811287445" lon="-5.99051552541283"><ele>1552.0</ele><time>2026-04-24T16:37:56.999Z</time></trkpt><trkpt lat="31.33986800012295" lon="-5.990391867235068"><ele>1552.0</ele><time>2026-04-24T16:37:57.999Z</time></trkpt><trkpt lat="31.34018588634507" lon="-5.9902687160129116"><ele>1552.0</ele><time>2026-04-24T16:37:58.999Z</time></trkpt><trkpt lat="31.340511750739832" lon="-5.99014714959762"><ele>1553.0</ele><time>2026-04-24T16:37:59.999Z</time></trkpt><trkpt lat="31.34084907911357" lon="-5.9900248826028095"><ele>1554.0</ele><time>2026-04-24T16:38:00.999Z</time></trkpt><trkpt lat="31.341187961697273" lon="-5.9899051748600245"><ele>1554.5</ele><time>2026-04-24T16:38:01.999Z</time></trkpt><trkpt lat="31.3415288852963" lon="-5.989783072204675"><ele>1555.0</ele><time>2026-04-24T16:38:02.999Z</time></trkpt><trkpt lat="31.341869317572712" lon="-5.989662573777986"><ele>1555.0</ele><time>2026-04-24T16:38:03.999Z</time></trkpt><trkpt lat="31.342208127701696" lon="-5.989545581903219"><ele>1555.0</ele><time>2026-04-24T16:38:04.999Z</time></trkpt><trkpt lat="31.342545525031102" lon="-5.98943084578076"><ele>1554.5</ele><time>2026-04-24T16:38:05.999Z</time></trkpt><trkpt lat="31.34288090172167" lon="-5.989315678849093"><ele>1554.0</ele><time>2026-04-24T16:38:06.999Z</time></trkpt><trkpt lat="31.343214553011325" lon="-5.989200033426295"><ele>1555.0</ele><time>2026-04-24T16:38:07.999Z</time></trkpt><trkpt lat="31.343550127373653" lon="-5.989082236833454"><ele>1556.0</ele><time>2026-04-24T16:38:08.999Z</time></trkpt><trkpt lat="31.343893528364962" lon="-5.988962451135257"><ele>1557.0</ele><time>2026-04-24T16:38:09.999Z</time></trkpt><trkpt lat="31.344242144862932" lon="-5.988841560931384"><ele>1558.0</ele><time>2026-04-24T16:38:10.999Z</time></trkpt><trkpt lat="31.344598093701613" lon="-5.988718128691854"><ele>1558.0</ele><time>2026-04-24T16:38:11.999Z</time></trkpt><trkpt lat="31.344947869373883" lon="-5.988596820140586"><ele>1558.0</ele><time>2026-04-24T16:38:12.999Z</time></trkpt><trkpt lat="31.345291202007747" lon="-5.988477864026589"><ele>1558.0</ele><time>2026-04-24T16:38:13.999Z</time></trkpt><trkpt lat="31.34562833338445" lon="-5.988362054666032"><ele>1558.0</ele><time>2026-04-24T16:38:14.999Z</time></trkpt><trkpt lat="31.34594974632141" lon="-5.988211861975696"><ele>1558.5</ele><time>2026-04-24T16:38:15.999Z</time></trkpt><trkpt lat="31.34627338929649" lon="-5.988100419242887"><ele>1559.0</ele><time>2026-04-24T16:38:16.999Z</time></trkpt><trkpt lat="31.346595405747255" lon="-5.987988619757115"><ele>1559.5</ele><time>2026-04-24T16:38:17.999Z</time></trkpt><trkpt lat="31.346910684907815" lon="-5.987879776315833"><ele>1560.0</ele><time>2026-04-24T16:38:18.999Z</time></trkpt><trkpt lat="31.347224846631416" lon="-5.9877714684104415"><ele>1560.0</ele><time>2026-04-24T16:38:19.999Z</time></trkpt><trkpt lat="31.347542609980984" lon="-5.9876617261366745"><ele>1560.0</ele><time>2026-04-24T16:38:20.999Z</time></trkpt><trkpt lat="31.347856697948092" lon="-5.987536383337922"><ele>1561.0</ele><time>2026-04-24T16:38:21.999Z</time></trkpt><trkpt lat="31.348176044179123" lon="-5.987404214652207"><ele>1562.0</ele><time>2026-04-24T16:38:22.999Z</time></trkpt><trkpt lat="31.348496883262495" lon="-5.987271442836183"><ele>1562.0</ele><time>2026-04-24T16:38:23.999Z</time></trkpt><trkpt lat="31.348820021988242" lon="-5.9871377193670705"><ele>1562.0</ele><time>2026-04-24T16:38:24.999Z</time></trkpt><trkpt lat="31.349144045352784" lon="-5.987002346857059"><ele>1562.5</ele><time>2026-04-24T16:38:25.999Z</time></trkpt><trkpt lat="31.34946214152664" lon="-5.9868760723411025"><ele>1563.0</ele><time>2026-04-24T16:38:26.999Z</time></trkpt><trkpt lat="31.349768631475882" lon="-5.9867572175085835"><ele>1563.5</ele><time>2026-04-24T16:38:27.999Z</time></trkpt><trkpt lat="31.350066443054377" lon="-5.986638309209081"><ele>1564.0</ele><time>2026-04-24T16:38:28.999Z</time></trkpt><trkpt lat="31.350355978862257" lon="-5.986519150085692"><ele>1563.5</ele><time>2026-04-24T16:38:29.999Z</time></trkpt><trkpt lat="31.3506385437258" lon="-5.9864025628226125"><ele>1563.0</ele><time>2026-04-24T16:38:30.999Z</time></trkpt><trkpt lat="31.35091444202337" lon="-5.986288248311635"><ele>1563.0</ele><time>2026-04-24T16:38:31.999Z</time></trkpt><trkpt lat="31.351182033491668" lon="-5.986177375610929"><ele>1563.0</ele><time>2026-04-24T16:38:32.999Z</time></trkpt><trkpt lat="31.35144581104114" lon="-5.9860683802585095"><ele>1564.5</ele><time>2026-04-24T16:38:33.999Z</time></trkpt><trkpt lat="31.35171043722185" lon="-5.985960140863571"><ele>1566.0</ele><time>2026-04-24T16:38:34.999Z</time></trkpt><trkpt lat="31.351970162079713" lon="-5.985853578761793"><ele>1566.0</ele><time>2026-04-24T16:38:35.999Z</time></trkpt><trkpt lat="31.35221329430302" lon="-5.985702841001135"><ele>1566.0</ele><time>2026-04-24T16:38:36.999Z</time></trkpt><trkpt lat="31.352468206621303" lon="-5.985501880961588"><ele>1566.0</ele><time>2026-04-24T16:38:37.999Z</time></trkpt><trkpt lat="31.352738099625093" lon="-5.985294074601911"><ele>1566.0</ele><time>2026-04-24T16:38:38.999Z</time></trkpt><trkpt lat="31.353021940943655" lon="-5.98508899436467"><ele>1565.5</ele><time>2026-04-24T16:38:39.999Z</time></trkpt><trkpt lat="31.353309108921522" lon="-5.984878748670185"><ele>1565.0</ele><time>2026-04-24T16:38:40.999Z</time></trkpt><trkpt lat="31.353600051045884" lon="-5.98466068346774"><ele>1565.5</ele><time>2026-04-24T16:38:41.999Z</time></trkpt><trkpt lat="31.353891928893162" lon="-5.984441164839231"><ele>1566.0</ele><time>2026-04-24T16:38:42.999Z</time></trkpt><trkpt lat="31.35417796048448" lon="-5.98422979342721"><ele>1565.0</ele><time>2026-04-24T16:38:43.999Z</time></trkpt><trkpt lat="31.354453673310744" lon="-5.984026702578816"><ele>1564.0</ele><time>2026-04-24T16:38:44.999Z</time></trkpt><trkpt lat="31.354718299749365" lon="-5.983829630259235"><ele>1564.0</ele><time>2026-04-24T16:38:45.999Z</time></trkpt><trkpt lat="31.35497286214463" lon="-5.983635133525827"><ele>1564.0</ele><time>2026-04-24T16:38:46.999Z</time></trkpt><trkpt lat="31.35521828657331" lon="-5.983447618618118"><ele>1564.5</ele><time>2026-04-24T16:38:47.999Z</time></trkpt><trkpt lat="31.355457175942114" lon="-5.983264695671228"><ele>1565.0</ele><time>2026-04-24T16:38:48.999Z</time></trkpt><trkpt lat="31.355694202386243" lon="-5.983083407681006"><ele>1565.0</ele><time>2026-04-24T16:38:49.999Z</time></trkpt><trkpt lat="31.355922472415674" lon="-5.982908637894365"><ele>1565.0</ele><time>2026-04-24T16:38:50.999Z</time></trkpt><trkpt lat="31.356141155068467" lon="-5.982741525572053"><ele>1565.0</ele><time>2026-04-24T16:38:51.999Z</time></trkpt><trkpt lat="31.35635235624681" lon="-5.982582642309838"><ele>1565.0</ele><time>2026-04-24T16:38:52.999Z</time></trkpt><trkpt lat="31.356544758111927" lon="-5.982437748917118"><ele>1565.6666666666665</ele><time>2026-04-24T16:38:53.999Z</time></trkpt><trkpt lat="31.356720579562328" lon="-5.982305341855506"><ele>1566.3333333333335</ele><time>2026-04-24T16:38:54.999Z</time></trkpt><trkpt lat="31.356909254921234" lon="-5.982189813693906"><ele>1567.0</ele><time>2026-04-24T16:38:55.999Z</time></trkpt><trkpt lat="31.35714017411965" lon="-5.982205276631604"><ele>1567.6666666666667</ele><time>2026-04-24T16:38:56.999Z</time></trkpt><trkpt lat="31.357357471669133" lon="-5.9822115149053365"><ele>1568.3333333333335</ele><time>2026-04-24T16:38:57.999Z</time></trkpt><trkpt lat="31.35758661643932" lon="-5.982249737559739"><ele>1569.0</ele><time>2026-04-24T16:38:58.999Z</time></trkpt><trkpt lat="31.357824684108635" lon="-5.982287743599302"><ele>1570.0</ele><time>2026-04-24T16:38:59.999Z</time></trkpt><trkpt lat="31.358070903306317" lon="-5.982311841190884"><ele>1571.0</ele><time>2026-04-24T16:39:00.999Z</time></trkpt><trkpt lat="31.35831825185182" lon="-5.982331815613381"><ele>1571.0</ele><time>2026-04-24T16:39:01.999Z</time></trkpt><trkpt lat="31.35856299705001" lon="-5.982352000052973"><ele>1571.0</ele><time>2026-04-24T16:39:02.999Z</time></trkpt><trkpt lat="31.358803504698034" lon="-5.9823725820434275"><ele>1571.0</ele><time>2026-04-24T16:39:03.999Z</time></trkpt><trkpt lat="31.359041028561432" lon="-5.9823936008670096"><ele>1571.0</ele><time>2026-04-24T16:39:04.999Z</time></trkpt><trkpt lat="31.359275155750005" lon="-5.982416292181314"><ele>1571.0</ele><time>2026-04-24T16:39:05.999Z</time></trkpt><trkpt lat="31.359506224839684" lon="-5.9824387159597165"><ele>1571.0</ele><time>2026-04-24T16:39:06.999Z</time></trkpt><trkpt lat="31.359732394772728" lon="-5.982461396168534"><ele>1571.3333333333333</ele><time>2026-04-24T16:39:07.999Z</time></trkpt><trkpt lat="31.359955709866245" lon="-5.9824822931303565"><ele>1571.6666666666665</ele><time>2026-04-24T16:39:08.999Z</time></trkpt><trkpt lat="31.360179180905515" lon="-5.982501343958528"><ele>1572.0</ele><time>2026-04-24T16:39:09.999Z</time></trkpt><trkpt lat="31.360411617561102" lon="-5.982519149973932"><ele>1573.0</ele><time>2026-04-24T16:39:10.999Z</time></trkpt><trkpt lat="31.360650528633304" lon="-5.982540851334428"><ele>1574.0</ele><time>2026-04-24T16:39:11.999Z</time></trkpt><trkpt lat="31.36089097835999" lon="-5.982565511245773"><ele>1574.0</ele><time>2026-04-24T16:39:12.999Z</time></trkpt><trkpt lat="31.36113444755323" lon="-5.98259082675733"><ele>1574.0</ele><time>2026-04-24T16:39:13.999Z</time></trkpt><trkpt lat="31.361377532261407" lon="-5.982614440563928"><ele>1575.0</ele><time>2026-04-24T16:39:14.999Z</time></trkpt><trkpt lat="31.361618370829166" lon="-5.98261752932866"><ele>1576.0</ele><time>2026-04-24T16:39:15.999Z</time></trkpt><trkpt lat="31.361849432794575" lon="-5.982656261625044"><ele>1576.0</ele><time>2026-04-24T16:39:16.999Z</time></trkpt><trkpt lat="31.36207569833553" lon="-5.982674899432559"><ele>1576.0</ele><time>2026-04-24T16:39:17.999Z</time></trkpt><trkpt lat="31.362297120779957" lon="-5.982696086014935"><ele>1576.0</ele><time>2026-04-24T16:39:18.999Z</time></trkpt><trkpt lat="31.36251375769353" lon="-5.982716013406844"><ele>1575.6666666666667</ele><time>2026-04-24T16:39:19.999Z</time></trkpt><trkpt lat="31.362730011946756" lon="-5.982733245920269"><ele>1575.3333333333335</ele><time>2026-04-24T16:39:20.999Z</time></trkpt><trkpt lat="31.362945304017213" lon="-5.982748401468622"><ele>1575.0</ele><time>2026-04-24T16:39:21.999Z</time></trkpt><trkpt lat="31.363157949039902" lon="-5.982763785430089"><ele>1575.0</ele><time>2026-04-24T16:39:22.999Z</time></trkpt><trkpt lat="31.363371400606567" lon="-5.982781318435429"><ele>1575.0</ele><time>2026-04-24T16:39:23.999Z</time></trkpt><trkpt lat="31.36358396531633" lon="-5.9827992613956225"><ele>1575.0</ele><time>2026-04-24T16:39:24.999Z</time></trkpt><trkpt lat="31.36379555381321" lon="-5.982818356874794"><ele>1574.3333333333335</ele><time>2026-04-24T16:39:25.999Z</time></trkpt><trkpt lat="31.364008404148603" lon="-5.982837433425435"><ele>1573.6666666666667</ele><time>2026-04-24T16:39:26.999Z</time></trkpt><trkpt lat="31.364226652969208" lon="-5.982857058169785"><ele>1573.0</ele><time>2026-04-24T16:39:27.999Z</time></trkpt><trkpt lat="31.364447896188135" lon="-5.9828774615675115"><ele>1573.0</ele><time>2026-04-24T16:39:28.999Z</time></trkpt><trkpt lat="31.36466830245684" lon="-5.982900682358772"><ele>1573.0</ele><time>2026-04-24T16:39:29.999Z</time></trkpt><trkpt lat="31.364883938533268" lon="-5.982922232970793"><ele>1573.0</ele><time>2026-04-24T16:39:30.999Z</time></trkpt><trkpt lat="31.36509928572576" lon="-5.98294327505392"><ele>1574.6666666666667</ele><time>2026-04-24T16:39:31.999Z</time></trkpt><trkpt lat="31.365312915178695" lon="-5.982964341232897"><ele>1576.3333333333335</ele><time>2026-04-24T16:39:32.999Z</time></trkpt><trkpt lat="31.365526760900394" lon="-5.9829850838831"><ele>1578.0</ele><time>2026-04-24T16:39:33.999Z</time></trkpt><trkpt lat="31.36573486498069" lon="-5.983003774791566"><ele>1578.3333333333335</ele><time>2026-04-24T16:39:34.999Z</time></trkpt><trkpt lat="31.3659348282136" lon="-5.983023564418039"><ele>1578.6666666666667</ele><time>2026-04-24T16:39:35.999Z</time></trkpt><trkpt lat="31.366126374763507" lon="-5.983044584736907"><ele>1579.0</ele><time>2026-04-24T16:39:36.999Z</time></trkpt><trkpt lat="31.36630774928617" lon="-5.983064103588342"><ele>1578.3333333333335</ele><time>2026-04-24T16:39:37.999Z</time></trkpt><trkpt lat="31.366477847497816" lon="-5.98308339734416"><ele>1577.6666666666665</ele><time>2026-04-24T16:39:38.999Z</time></trkpt><trkpt lat="31.36663778714778" lon="-5.983100901199247"><ele>1577.0</ele><time>2026-04-24T16:39:39.999Z</time></trkpt><trkpt lat="31.366787958244743" lon="-5.983113663388361"><ele>1577.0</ele><time>2026-04-24T16:39:40.999Z</time></trkpt><trkpt lat="31.366932493975632" lon="-5.983124941395116"><ele>1577.0</ele><time>2026-04-24T16:39:41.999Z</time></trkpt><trkpt lat="31.367063693629763" lon="-5.9831346666931715"><ele>1577.0</ele><time>2026-04-24T16:39:42.999Z</time></trkpt><trkpt lat="31.36717554008848" lon="-5.983135485098354"><ele>1577.0</ele><time>2026-04-24T16:39:43.999Z</time></trkpt><trkpt lat="31.36727145449972" lon="-5.983126450868435"><ele>1577.8333333333333</ele><time>2026-04-24T16:39:44.999Z</time></trkpt><trkpt lat="31.367358155936998" lon="-5.983105482484997"><ele>1578.6666666666665</ele><time>2026-04-24T16:39:45.999Z</time></trkpt><trkpt lat="31.367435004028764" lon="-5.983069706802794"><ele>1579.5</ele><time>2026-04-24T16:39:46.999Z</time></trkpt><trkpt lat="31.36749570970609" lon="-5.983015640824685"><ele>1580.3333333333335</ele><time>2026-04-24T16:39:47.999Z</time></trkpt><trkpt lat="31.367532868709645" lon="-5.98293159971189"><ele>1581.1666666666667</ele><time>2026-04-24T16:39:48.999Z</time></trkpt><trkpt lat="31.367546480446702" lon="-5.9828300156431355"><ele>1582.0</ele><time>2026-04-24T16:39:49.999Z</time></trkpt><trkpt lat="31.36754299063174" lon="-5.982710892954285"><ele>1582.0</ele><time>2026-04-24T16:39:50.999Z</time></trkpt><trkpt lat="31.36753603204476" lon="-5.9825843991983385"><ele>1582.0</ele><time>2026-04-24T16:39:51.999Z</time></trkpt><trkpt lat="31.367533184466986" lon="-5.982448109623437"><ele>1582.0</ele><time>2026-04-24T16:39:52.999Z</time></trkpt><trkpt lat="31.367531269422933" lon="-5.982306013147031"><ele>1582.0</ele><time>2026-04-24T16:39:53.999Z</time></trkpt><trkpt lat="31.36752850360023" lon="-5.982167897159523"><ele>1581.75</ele><time>2026-04-24T16:39:54.999Z</time></trkpt><trkpt lat="31.367526352277114" lon="-5.982026565369617"><ele>1581.5</ele><time>2026-04-24T16:39:55.999Z</time></trkpt><trkpt lat="31.36752703447281" lon="-5.981880701537381"><ele>1581.25</ele><time>2026-04-24T16:39:56.999Z</time></trkpt><trkpt lat="31.367529148813283" lon="-5.981731993182058"><ele>1581.0</ele><time>2026-04-24T16:39:57.999Z</time></trkpt><trkpt lat="31.367531050303842" lon="-5.981583559171954"><ele>1581.5</ele><time>2026-04-24T16:39:58.999Z</time></trkpt><trkpt lat="31.36753115699545" lon="-5.981441399789348"><ele>1582.0</ele><time>2026-04-24T16:39:59.999Z</time></trkpt><trkpt lat="31.367528881101098" lon="-5.981297113206196"><ele>1582.5</ele><time>2026-04-24T16:40:01Z</time></trkpt><trkpt lat="31.3675190037441" lon="-5.981149338846165"><ele>1583.0</ele><time>2026-04-24T16:40:02Z</time></trkpt><trkpt lat="31.367506360555076" lon="-5.980996186564466"><ele>1583.5</ele><time>2026-04-24T16:40:03Z</time></trkpt><trkpt lat="31.36749533458487" lon="-5.980837620655549"><ele>1584.0</ele><time>2026-04-24T16:40:04Z</time></trkpt><trkpt lat="31.367485126002077" lon="-5.980678577993426"><ele>1584.5</ele><time>2026-04-24T16:40:05Z</time></trkpt><trkpt lat="31.367473669640322" lon="-5.980513599680971"><ele>1585.0</ele><time>2026-04-24T16:40:06Z</time></trkpt><trkpt lat="31.367460206335466" lon="-5.98036091403155"><ele>1585.0</ele><time>2026-04-24T16:40:07Z</time></trkpt><trkpt lat="31.367443342498163" lon="-5.980219310370844"><ele>1585.0</ele><time>2026-04-24T16:40:08Z</time></trkpt><trkpt lat="31.367429911438368" lon="-5.980085393973882"><ele>1585.0</ele><time>2026-04-24T16:40:09Z</time></trkpt><trkpt lat="31.36742230366493" lon="-5.979960065678379"><ele>1585.0</ele><time>2026-04-24T16:40:10Z</time></trkpt><trkpt lat="31.36741557250561" lon="-5.979844835530791"><ele>1585.0</ele><time>2026-04-24T16:40:11Z</time></trkpt><trkpt lat="31.367404410678212" lon="-5.979748150132772"><ele>1584.1666666666667</ele><time>2026-04-24T16:40:12Z</time></trkpt><trkpt lat="31.36738881966247" lon="-5.97967199843093"><ele>1583.3333333333335</ele><time>2026-04-24T16:40:13Z</time></trkpt><trkpt lat="31.36738004079516" lon="-5.979587378196265"><ele>1582.5</ele><time>2026-04-24T16:40:15Z</time></trkpt><trkpt lat="31.36743329773193" lon="-5.979544433713487"><ele>1581.6666666666665</ele><time>2026-04-24T16:40:22Z</time></trkpt><trkpt lat="31.367495072035183" lon="-5.979595327578242"><ele>1580.8333333333333</ele><time>2026-04-24T16:40:24Z</time></trkpt><trkpt lat="31.367520643914567" lon="-5.979725998358602"><ele>1580.0</ele><time>2026-04-24T16:40:25Z</time></trkpt><trkpt lat="31.36751818959294" lon="-5.979845789394206"><ele>1580.0</ele><time>2026-04-24T16:40:26Z</time></trkpt><trkpt lat="31.367517021865517" lon="-5.979981429872743"><ele>1580.0</ele><time>2026-04-24T16:40:27Z</time></trkpt><trkpt lat="31.367525714311576" lon="-5.9801223315662595"><ele>1580.0</ele><time>2026-04-24T16:40:28Z</time></trkpt><trkpt lat="31.367537386850408" lon="-5.980280607513192"><ele>1580.0</ele><time>2026-04-24T16:40:29Z</time></trkpt><trkpt lat="31.36754714357997" lon="-5.980441527198033"><ele>1580.6</ele><time>2026-04-24T16:40:30Z</time></trkpt><trkpt lat="31.367557618728796" lon="-5.9805953797253935"><ele>1581.2</ele><time>2026-04-24T16:40:31Z</time></trkpt><trkpt lat="31.367568109032756" lon="-5.980734557138948"><ele>1581.8000000000002</ele><time>2026-04-24T16:40:32Z</time></trkpt><trkpt lat="31.36757838097654" lon="-5.980850545593887"><ele>1582.4</ele><time>2026-04-24T16:40:33Z</time></trkpt><trkpt lat="31.36759342636517" lon="-5.980936958212379"><ele>1583.0</ele><time>2026-04-24T16:40:34Z</time></trkpt><trkpt lat="31.367606169089274" lon="-5.9810156976615945"><ele>1582.9999999999998</ele><time>2026-04-24T16:40:35Z</time></trkpt><trkpt lat="31.36767178157134" lon="-5.981080844303571"><ele>1583.0</ele><time>2026-04-24T16:40:36Z</time></trkpt><trkpt lat="31.367710322043557" lon="-5.981148823004332"><ele>1583.0</ele><time>2026-04-24T16:40:37Z</time></trkpt><trkpt lat="31.36777888113728" lon="-5.981219583439253"><ele>1583.0</ele><time>2026-04-24T16:40:38Z</time></trkpt><trkpt lat="31.367745160866072" lon="-5.981289196482194"><ele>1582.9999999999998</ele><time>2026-04-24T16:40:39Z</time></trkpt><trkpt lat="31.36777170630824" lon="-5.981421156523048"><ele>1583.0</ele><time>2026-04-24T16:40:41Z</time></trkpt><trkpt lat="31.367790694865434" lon="-5.9815122936393"><ele>1582.9999999999998</ele><time>2026-04-24T16:40:43Z</time></trkpt><trkpt lat="31.367823426574137" lon="-5.981584988085294"><ele>1583.0</ele><time>2026-04-24T16:42:44Z</time></trkpt><trkpt lat="31.367755719242293" lon="-5.981527713337324"><ele>1583.0</ele><time>2026-04-24T17:24:42Z</time></trkpt><trkpt lat="31.36768520042615" lon="-5.981552085396437"><ele>1583.0</ele><time>2026-04-24T17:24:45Z</time></trkpt><trkpt lat="31.367621950528324" lon="-5.981532094738511"><ele>1582.9999999999998</ele><time>2026-04-24T17:25:01.999Z</time></trkpt><trkpt lat="31.367559829075677" lon="-5.981463403719394"><ele>1583.0</ele><time>2026-04-24T17:25:03.999Z</time></trkpt><trkpt lat="31.367508686077787" lon="-5.981284888689377"><ele>1583.0</ele><time>2026-04-24T17:25:05.999Z</time></trkpt><trkpt lat="31.36750182065398" lon="-5.9811837583347724"><ele>1583.0</ele><time>2026-04-24T17:25:06.999Z</time></trkpt><trkpt lat="31.36749264887336" lon="-5.981076944991876"><ele>1583.0</ele><time>2026-04-24T17:25:07.999Z</time></trkpt><trkpt lat="31.367481556566247" lon="-5.980966186418307"><ele>1583.0</ele><time>2026-04-24T17:25:08.999Z</time></trkpt><trkpt lat="31.36746930369452" lon="-5.9808587670421485"><ele>1583.0</ele><time>2026-04-24T17:25:09.999Z</time></trkpt><trkpt lat="31.36745533481612" lon="-5.980752908476508"><ele>1583.2857142857142</ele><time>2026-04-24T17:25:10.999Z</time></trkpt><trkpt lat="31.367448031856615" lon="-5.980659708710687"><ele>1583.5714285714287</ele><time>2026-04-24T17:25:11.999Z</time></trkpt><trkpt lat="31.367442736725526" lon="-5.980574973161818"><ele>1583.8571428571427</ele><time>2026-04-24T17:25:12.999Z</time></trkpt><trkpt lat="31.36744089316264" lon="-5.980490490589343"><ele>1584.142857142857</ele><time>2026-04-24T17:25:13.999Z</time></trkpt><trkpt lat="31.367440988789618" lon="-5.980406815134921"><ele>1584.4285714285713</ele><time>2026-04-24T17:25:14.999Z</time></trkpt><trkpt lat="31.367441284786977" lon="-5.98032224805121"><ele>1584.7142857142856</ele><time>2026-04-24T17:25:15.999Z</time></trkpt><trkpt lat="31.367437792931415" lon="-5.980237744317101"><ele>1585.0</ele><time>2026-04-24T17:25:16.999Z</time></trkpt><trkpt lat="31.36743088709026" lon="-5.980153396414548"><ele>1584.9999999999998</ele><time>2026-04-24T17:25:17.999Z</time></trkpt><trkpt lat="31.367422347772376" lon="-5.980069444601209"><ele>1585.0</ele><time>2026-04-24T17:25:18.999Z</time></trkpt><trkpt lat="31.367414092780887" lon="-5.979987555321287"><ele>1585.0</ele><time>2026-04-24T17:25:19.999Z</time></trkpt><trkpt lat="31.367408525742345" lon="-5.979904342112239"><ele>1585.0</ele><time>2026-04-24T17:25:20.999Z</time></trkpt><trkpt lat="31.36740508217879" lon="-5.9798179633040744"><ele>1585.0</ele><time>2026-04-24T17:25:21.999Z</time></trkpt><trkpt lat="31.367400704753425" lon="-5.979728571608214"><ele>1584.9999999999998</ele><time>2026-04-24T17:25:22.999Z</time></trkpt><trkpt lat="31.367396714733704" lon="-5.979638788128935"><ele>1585.0</ele><time>2026-04-24T17:25:23.999Z</time></trkpt><trkpt lat="31.367392931527025" lon="-5.9795499428509675"><ele>1584.1666666666667</ele><time>2026-04-24T17:25:24.999Z</time></trkpt><trkpt lat="31.367388378102685" lon="-5.979462970654245"><ele>1583.3333333333335</ele><time>2026-04-24T17:25:25.999Z</time></trkpt><trkpt lat="31.367383654162726" lon="-5.979376868502779"><ele>1582.5</ele><time>2026-04-24T17:25:26.999Z</time></trkpt><trkpt lat="31.367379947169756" lon="-5.979294783497427"><ele>1581.6666666666665</ele><time>2026-04-24T17:25:27.999Z</time></trkpt><trkpt lat="31.367375140425303" lon="-5.979218695863299"><ele>1580.8333333333333</ele><time>2026-04-24T17:25:28.999Z</time></trkpt><trkpt lat="31.36736606269314" lon="-5.979078878339885"><ele>1580.0</ele><time>2026-04-24T17:25:30.999Z</time></trkpt><trkpt lat="31.36735779668947" lon="-5.978948982745504"><ele>1579.8</ele><time>2026-04-24T17:25:32.999Z</time></trkpt><trkpt lat="31.367350007529684" lon="-5.9788198154613585"><ele>1579.6</ele><time>2026-04-24T17:25:34.999Z</time></trkpt><trkpt lat="31.367346961377258" lon="-5.978663749962951"><ele>1579.4</ele><time>2026-04-24T17:25:36.999Z</time></trkpt><trkpt lat="31.36734473730801" lon="-5.9785709332931205"><ele>1579.2</ele><time>2026-04-24T17:25:37.999Z</time></trkpt><trkpt lat="31.36733907032412" lon="-5.978470167207885"><ele>1579.0</ele><time>2026-04-24T17:25:38.999Z</time></trkpt><trkpt lat="31.367333728521192" lon="-5.978363441371541"><ele>1578.4</ele><time>2026-04-24T17:25:39.999Z</time></trkpt><trkpt lat="31.367328216006214" lon="-5.978251318607484"><ele>1577.8000000000002</ele><time>2026-04-24T17:25:40.999Z</time></trkpt><trkpt lat="31.367324441204" lon="-5.978133307962188"><ele>1577.1999999999998</ele><time>2026-04-24T17:25:41.999Z</time></trkpt><trkpt lat="31.36731978463504" lon="-5.978009222510005"><ele>1576.6</ele><time>2026-04-24T17:25:42.999Z</time></trkpt><trkpt lat="31.367312412226738" lon="-5.977874274031909"><ele>1576.0</ele><time>2026-04-24T17:25:43.999Z</time></trkpt><trkpt lat="31.36730437995367" lon="-5.977733150402815"><ele>1576.0</ele><time>2026-04-24T17:25:44.999Z</time></trkpt><trkpt lat="31.36729636681203" lon="-5.977586865506294"><ele>1576.0</ele><time>2026-04-24T17:25:45.999Z</time></trkpt><trkpt lat="31.367288457689384" lon="-5.977439023726813"><ele>1576.0</ele><time>2026-04-24T17:25:46.999Z</time></trkpt><trkpt lat="31.36728077495264" lon="-5.977285891840343"><ele>1576.0</ele><time>2026-04-24T17:25:47.999Z</time></trkpt><trkpt lat="31.36727267272871" lon="-5.9771258377938725"><ele>1575.5</ele><time>2026-04-24T17:25:48.999Z</time></trkpt><trkpt lat="31.3672665934534" lon="-5.976962140228945"><ele>1575.0</ele><time>2026-04-24T17:25:49.999Z</time></trkpt><trkpt lat="31.367260565879448" lon="-5.9767944305575424"><ele>1574.5</ele><time>2026-04-24T17:25:50.999Z</time></trkpt><trkpt lat="31.367253272081197" lon="-5.9766242004510515"><ele>1574.0</ele><time>2026-04-24T17:25:51.999Z</time></trkpt><trkpt lat="31.367244827700365" lon="-5.976451807483969"><ele>1574.0</ele><time>2026-04-24T17:25:52.999Z</time></trkpt><trkpt lat="31.36723686097216" lon="-5.976277491255356"><ele>1574.0</ele><time>2026-04-24T17:25:53.999Z</time></trkpt><trkpt lat="31.367228139685206" lon="-5.9761006901367235"><ele>1574.0</ele><time>2026-04-24T17:25:54.999Z</time></trkpt><trkpt lat="31.36721974739262" lon="-5.975921529353901"><ele>1574.0</ele><time>2026-04-24T17:25:55.999Z</time></trkpt><trkpt lat="31.367210209154205" lon="-5.975744244561461"><ele>1574.0</ele><time>2026-04-24T17:25:56.999Z</time></trkpt><trkpt lat="31.367201424821232" lon="-5.975566243456697"><ele>1574.0</ele><time>2026-04-24T17:25:57.999Z</time></trkpt><trkpt lat="31.367192986789817" lon="-5.975388294097125"><ele>1574.0</ele><time>2026-04-24T17:25:58.999Z</time></trkpt><trkpt lat="31.367183712028602" lon="-5.9752113914433345"><ele>1574.0</ele><time>2026-04-24T17:25:59.999Z</time></trkpt><trkpt lat="31.367173770750284" lon="-5.975034957482158"><ele>1574.0</ele><time>2026-04-24T17:26:00.999Z</time></trkpt><trkpt lat="31.367163775568788" lon="-5.974860307093023"><ele>1573.25</ele><time>2026-04-24T17:26:01.999Z</time></trkpt><trkpt lat="31.367154890049612" lon="-5.974688407973965"><ele>1572.5</ele><time>2026-04-24T17:26:02.999Z</time></trkpt><trkpt lat="31.367147332823958" lon="-5.9745207826182165"><ele>1571.75</ele><time>2026-04-24T17:26:03.999Z</time></trkpt><trkpt lat="31.367140530818702" lon="-5.974352862183488"><ele>1571.0</ele><time>2026-04-24T17:26:04.999Z</time></trkpt><trkpt lat="31.367133177001506" lon="-5.974188594757118"><ele>1570.25</ele><time>2026-04-24T17:26:05.999Z</time></trkpt><trkpt lat="31.367124495875693" lon="-5.974025858812932"><ele>1569.5</ele><time>2026-04-24T17:26:06.999Z</time></trkpt><trkpt lat="31.367115816749585" lon="-5.97386375879689"><ele>1568.75</ele><time>2026-04-24T17:26:07.999Z</time></trkpt><trkpt lat="31.367107650187855" lon="-5.973705427201703"><ele>1568.0</ele><time>2026-04-24T17:26:08.999Z</time></trkpt><trkpt lat="31.367099666706938" lon="-5.973549419246296"><ele>1568.0</ele><time>2026-04-24T17:26:09.999Z</time></trkpt><trkpt lat="31.36709253288728" lon="-5.973392757236687"><ele>1568.0</ele><time>2026-04-24T17:26:10.999Z</time></trkpt><trkpt lat="31.367086286200845" lon="-5.973234570632084"><ele>1568.0</ele><time>2026-04-24T17:26:11.999Z</time></trkpt><trkpt lat="31.367081521073846" lon="-5.973072557381965"><ele>1568.0</ele><time>2026-04-24T17:26:12.999Z</time></trkpt><trkpt lat="31.367079138261737" lon="-5.972904650196"><ele>1568.3333333333333</ele><time>2026-04-24T17:26:13.999Z</time></trkpt><trkpt lat="31.367078173525428" lon="-5.972730440875094"><ele>1568.6666666666665</ele><time>2026-04-24T17:26:14.999Z</time></trkpt><trkpt lat="31.367076965915608" lon="-5.972553139616157"><ele>1569.0</ele><time>2026-04-24T17:26:15.999Z</time></trkpt><trkpt lat="31.3670688905418" lon="-5.972375207162992"><ele>1569.0</ele><time>2026-04-24T17:26:16.999Z</time></trkpt><trkpt lat="31.367058497760965" lon="-5.972196863291229"><ele>1569.0</ele><time>2026-04-24T17:26:17.999Z</time></trkpt><trkpt lat="31.367047845071212" lon="-5.972017041847319"><ele>1569.0</ele><time>2026-04-24T17:26:18.999Z</time></trkpt><trkpt lat="31.36703770173446" lon="-5.971837264799606"><ele>1568.3333333333335</ele><time>2026-04-24T17:26:19.999Z</time></trkpt><trkpt lat="31.36702554844044" lon="-5.971657837156584"><ele>1567.6666666666667</ele><time>2026-04-24T17:26:20.999Z</time></trkpt><trkpt lat="31.36701082844204" lon="-5.971481558307494"><ele>1567.0</ele><time>2026-04-24T17:26:21.999Z</time></trkpt><trkpt lat="31.366994478962432" lon="-5.971308194151176"><ele>1567.0</ele><time>2026-04-24T17:26:22.999Z</time></trkpt><trkpt lat="31.366979084929618" lon="-5.971137485571037"><ele>1567.0</ele><time>2026-04-24T17:26:23.999Z</time></trkpt><trkpt lat="31.366968207507732" lon="-5.970969118731633"><ele>1567.0</ele><time>2026-04-24T17:26:24.999Z</time></trkpt><trkpt lat="31.366960835081162" lon="-5.970799502894481"><ele>1567.0</ele><time>2026-04-24T17:26:25.999Z</time></trkpt><trkpt lat="31.366961815812196" lon="-5.97062980368731"><ele>1566.6666666666667</ele><time>2026-04-24T17:26:26.999Z</time></trkpt><trkpt lat="31.366963119075205" lon="-5.970454538099165"><ele>1566.3333333333335</ele><time>2026-04-24T17:26:28Z</time></trkpt><trkpt lat="31.366958226040364" lon="-5.970275472326416"><ele>1566.0</ele><time>2026-04-24T17:26:29Z</time></trkpt><trkpt lat="31.366949599254482" lon="-5.9700932448906485"><ele>1566.3333333333335</ele><time>2026-04-24T17:26:30Z</time></trkpt><trkpt lat="31.366941322323772" lon="-5.96990990700425"><ele>1566.6666666666667</ele><time>2026-04-24T17:26:31Z</time></trkpt><trkpt lat="31.366932585630643" lon="-5.96972653602687"><ele>1567.0</ele><time>2026-04-24T17:26:32Z</time></trkpt><trkpt lat="31.366922580044626" lon="-5.969545446880695"><ele>1567.0</ele><time>2026-04-24T17:26:33Z</time></trkpt><trkpt lat="31.366913532597994" lon="-5.969362490132167"><ele>1567.0</ele><time>2026-04-24T17:26:34Z</time></trkpt><trkpt lat="31.366904663640334" lon="-5.969181116542198"><ele>1567.0</ele><time>2026-04-24T17:26:34.999Z</time></trkpt><trkpt lat="31.366893825947884" lon="-5.968999291137836"><ele>1567.3333333333335</ele><time>2026-04-24T17:26:35.999Z</time></trkpt><trkpt lat="31.366881696937057" lon="-5.968818420099718"><ele>1567.6666666666665</ele><time>2026-04-24T17:26:36.999Z</time></trkpt><trkpt lat="31.36686910764675" lon="-5.968639764865779"><ele>1568.0</ele><time>2026-04-24T17:26:37.999Z</time></trkpt><trkpt lat="31.366858662876965" lon="-5.968461389763045"><ele>1568.3333333333333</ele><time>2026-04-24T17:26:38.999Z</time></trkpt><trkpt lat="31.366846093705615" lon="-5.968280171959348"><ele>1568.6666666666665</ele><time>2026-04-24T17:26:39.999Z</time></trkpt><trkpt lat="31.36683343668162" lon="-5.968095844878532"><ele>1569.0</ele><time>2026-04-24T17:26:40.999Z</time></trkpt><trkpt lat="31.366816960531718" lon="-5.9679125182242005"><ele>1569.0</ele><time>2026-04-24T17:26:41.999Z</time></trkpt><trkpt lat="31.366803794459436" lon="-5.967730138816702"><ele>1569.0</ele><time>2026-04-24T17:26:42.999Z</time></trkpt><trkpt lat="31.366788666719657" lon="-5.967550433535359"><ele>1569.0</ele><time>2026-04-24T17:26:43.999Z</time></trkpt><trkpt lat="31.3667765797136" lon="-5.967371801480661"><ele>1568.6666666666665</ele><time>2026-04-24T17:26:44.999Z</time></trkpt><trkpt lat="31.366765145770337" lon="-5.9671898280195155"><ele>1568.3333333333333</ele><time>2026-04-24T17:26:45.999Z</time></trkpt><trkpt lat="31.36675778300111" lon="-5.96700401844628"><ele>1568.0</ele><time>2026-04-24T17:26:46.999Z</time></trkpt><trkpt lat="31.36675198333836" lon="-5.966814806844988"><ele>1568.0</ele><time>2026-04-24T17:26:47.999Z</time></trkpt><trkpt lat="31.366748413718405" lon="-5.966624555944804"><ele>1568.0</ele><time>2026-04-24T17:26:48.999Z</time></trkpt><trkpt lat="31.36674557898162" lon="-5.966430251404628"><ele>1568.0</ele><time>2026-04-24T17:26:49.999Z</time></trkpt><trkpt lat="31.36674355668726" lon="-5.96623082320625"><ele>1568.0</ele><time>2026-04-24T17:26:50.999Z</time></trkpt><trkpt lat="31.36674034408813" lon="-5.966025153399064"><ele>1568.0</ele><time>2026-04-24T17:26:51.999Z</time></trkpt><trkpt lat="31.366733680384865" lon="-5.965817039212701"><ele>1568.0</ele><time>2026-04-24T17:26:52.999Z</time></trkpt><trkpt lat="31.366733589896928" lon="-5.965605627899297"><ele>1568.0</ele><time>2026-04-24T17:26:53.999Z</time></trkpt><trkpt lat="31.36673216969509" lon="-5.965392786899548"><ele>1568.0</ele><time>2026-04-24T17:26:54.999Z</time></trkpt><trkpt lat="31.366726195851662" lon="-5.965176416128734"><ele>1568.0</ele><time>2026-04-24T17:26:55.999Z</time></trkpt><trkpt lat="31.366720103262875" lon="-5.964955216603658"><ele>1568.0</ele><time>2026-04-24T17:26:56.999Z</time></trkpt><trkpt lat="31.366711585758125" lon="-5.96472886984627"><ele>1568.0</ele><time>2026-04-24T17:26:57.999Z</time></trkpt><trkpt lat="31.36670284844944" lon="-5.964499322697716"><ele>1568.0</ele><time>2026-04-24T17:26:58.999Z</time></trkpt><trkpt lat="31.366691894749433" lon="-5.964264469825366"><ele>1567.6666666666665</ele><time>2026-04-24T17:26:59.999Z</time></trkpt><trkpt lat="31.3666783879987" lon="-5.964025455954341"><ele>1567.3333333333335</ele><time>2026-04-24T17:27:00.999Z</time></trkpt><trkpt lat="31.366664734931003" lon="-5.963782684749305"><ele>1567.0</ele><time>2026-04-24T17:27:01.999Z</time></trkpt><trkpt lat="31.366651257969203" lon="-5.963536987060208"><ele>1567.3333333333335</ele><time>2026-04-24T17:27:02.999Z</time></trkpt><trkpt lat="31.36663812739745" lon="-5.963286988040016"><ele>1567.6666666666665</ele><time>2026-04-24T17:27:03.999Z</time></trkpt><trkpt lat="31.366624001837145" lon="-5.963035324412111"><ele>1568.0</ele><time>2026-04-24T17:27:04.999Z</time></trkpt><trkpt lat="31.366612328030186" lon="-5.962779537691871"><ele>1568.0</ele><time>2026-04-24T17:27:05.999Z</time></trkpt><trkpt lat="31.36659887129694" lon="-5.9625268603112"><ele>1568.0</ele><time>2026-04-24T17:27:06.999Z</time></trkpt><trkpt lat="31.366587848201025" lon="-5.962269978449209"><ele>1568.0</ele><time>2026-04-24T17:27:07.999Z</time></trkpt><trkpt lat="31.36657243829823" lon="-5.962009505009313"><ele>1568.0</ele><time>2026-04-24T17:27:08.999Z</time></trkpt><trkpt lat="31.366560438163994" lon="-5.96174681598618"><ele>1568.0</ele><time>2026-04-24T17:27:09.999Z</time></trkpt><trkpt lat="31.366526684923528" lon="-5.961483964377597"><ele>1567.0</ele><time>2026-04-24T17:27:10.999Z</time></trkpt><trkpt lat="31.36650839589166" lon="-5.961217238669769"><ele>1566.0</ele><time>2026-04-24T17:27:11.999Z</time></trkpt><trkpt lat="31.366493369395453" lon="-5.960946398583616"><ele>1565.0</ele><time>2026-04-24T17:27:12.999Z</time></trkpt><trkpt lat="31.366482629122917" lon="-5.96067336931833"><ele>1564.0</ele><time>2026-04-24T17:27:13.999Z</time></trkpt><trkpt lat="31.36647174099929" lon="-5.9603965954509945"><ele>1564.0</ele><time>2026-04-24T17:27:14.999Z</time></trkpt><trkpt lat="31.366459105640804" lon="-5.960117176525326"><ele>1564.0</ele><time>2026-04-24T17:27:15.999Z</time></trkpt><trkpt lat="31.36644544964644" lon="-5.959831990504559"><ele>1563.5</ele><time>2026-04-24T17:27:16.999Z</time></trkpt><trkpt lat="31.366449425614526" lon="-5.959543074564426"><ele>1563.0</ele><time>2026-04-24T17:27:17.999Z</time></trkpt><trkpt lat="31.366437265173364" lon="-5.959252716767735"><ele>1564.0</ele><time>2026-04-24T17:27:18.999Z</time></trkpt><trkpt lat="31.366418565621473" lon="-5.958961139396917"><ele>1565.0</ele><time>2026-04-24T17:27:19.999Z</time></trkpt><trkpt lat="31.366398528475457" lon="-5.9586665728942725"><ele>1565.0</ele><time>2026-04-24T17:27:20.999Z</time></trkpt><trkpt lat="31.3663840698566" lon="-5.958371021020773"><ele>1565.0</ele><time>2026-04-24T17:27:21.999Z</time></trkpt><trkpt lat="31.366371030147324" lon="-5.958074869388105"><ele>1565.0</ele><time>2026-04-24T17:27:22.999Z</time></trkpt><trkpt lat="31.366357282659667" lon="-5.9577792645524745"><ele>1565.0</ele><time>2026-04-24T17:27:23.999Z</time></trkpt><trkpt lat="31.36634383014423" lon="-5.957483027876694"><ele>1565.0</ele><time>2026-04-24T17:27:24.999Z</time></trkpt><trkpt lat="31.366330608783052" lon="-5.957186983007117"><ele>1565.0</ele><time>2026-04-24T17:27:25.999Z</time></trkpt><trkpt lat="31.36631461674998" lon="-5.956889429183876"><ele>1564.5</ele><time>2026-04-24T17:27:26.999Z</time></trkpt><trkpt lat="31.36629833412421" lon="-5.956588942637124"><ele>1564.0</ele><time>2026-04-24T17:27:27.999Z</time></trkpt><trkpt lat="31.36628179707469" lon="-5.9562861819415565"><ele>1564.0</ele><time>2026-04-24T17:27:28.999Z</time></trkpt><trkpt lat="31.366265559928177" lon="-5.955984139940786"><ele>1564.0</ele><time>2026-04-24T17:27:29.999Z</time></trkpt><trkpt lat="31.366249279622274" lon="-5.955680448917906"><ele>1564.0</ele><time>2026-04-24T17:27:30.999Z</time></trkpt><trkpt lat="31.366232633074073" lon="-5.955374471060247"><ele>1564.0</ele><time>2026-04-24T17:27:31.999Z</time></trkpt><trkpt lat="31.36621682585603" lon="-5.95506615352188"><ele>1564.0</ele><time>2026-04-24T17:27:32.999Z</time></trkpt><trkpt lat="31.366202679825207" lon="-5.954757481796222"><ele>1564.0</ele><time>2026-04-24T17:27:33.999Z</time></trkpt><trkpt lat="31.36618853790395" lon="-5.954447596994217"><ele>1563.0</ele><time>2026-04-24T17:27:34.999Z</time></trkpt><trkpt lat="31.366174525962794" lon="-5.954139562770928"><ele>1562.0</ele><time>2026-04-24T17:27:35.999Z</time></trkpt><trkpt lat="31.36615728447236" lon="-5.953833466127312"><ele>1562.0</ele><time>2026-04-24T17:27:36.999Z</time></trkpt><trkpt lat="31.366142167925847" lon="-5.953528029354477"><ele>1562.0</ele><time>2026-04-24T17:27:37.999Z</time></trkpt><trkpt lat="31.366128177495042" lon="-5.953227254204008"><ele>1562.5</ele><time>2026-04-24T17:27:38.999Z</time></trkpt><trkpt lat="31.366111463678447" lon="-5.952930051564153"><ele>1563.0</ele><time>2026-04-24T17:27:39.999Z</time></trkpt><trkpt lat="31.36609805449041" lon="-5.952637026152588"><ele>1563.5</ele><time>2026-04-24T17:27:40.999Z</time></trkpt><trkpt lat="31.366084886646632" lon="-5.952346769123117"><ele>1564.0</ele><time>2026-04-24T17:27:41.999Z</time></trkpt><trkpt lat="31.366070568316506" lon="-5.952056958641719"><ele>1564.0</ele><time>2026-04-24T17:27:42.999Z</time></trkpt><trkpt lat="31.366057409801254" lon="-5.951767242645506"><ele>1564.0</ele><time>2026-04-24T17:27:43.999Z</time></trkpt><trkpt lat="31.3660445672231" lon="-5.951477085582188"><ele>1564.0</ele><time>2026-04-24T17:27:44.999Z</time></trkpt><trkpt lat="31.36602997682279" lon="-5.9511873950435445"><ele>1564.0</ele><time>2026-04-24T17:27:45.999Z</time></trkpt><trkpt lat="31.366014994330623" lon="-5.950899192855152"><ele>1564.0</ele><time>2026-04-24T17:27:46.999Z</time></trkpt><trkpt lat="31.365999386084468" lon="-5.950608902242327"><ele>1564.0</ele><time>2026-04-24T17:27:47.999Z</time></trkpt><trkpt lat="31.365987907948938" lon="-5.950315222101189"><ele>1564.5</ele><time>2026-04-24T17:27:48.999Z</time></trkpt><trkpt lat="31.365973779029208" lon="-5.950017214368444"><ele>1565.0</ele><time>2026-04-24T17:27:49.999Z</time></trkpt><trkpt lat="31.365958081321132" lon="-5.949720084037972"><ele>1565.0</ele><time>2026-04-24T17:27:50.999Z</time></trkpt><trkpt lat="31.3659428451957" lon="-5.949423876689511"><ele>1565.0</ele><time>2026-04-24T17:27:51.999Z</time></trkpt><trkpt lat="31.36592830056726" lon="-5.949129110295919"><ele>1564.0</ele><time>2026-04-24T17:27:52.999Z</time></trkpt><trkpt lat="31.365909319279837" lon="-5.948836249863735"><ele>1563.0</ele><time>2026-04-24T17:27:53.999Z</time></trkpt><trkpt lat="31.365893601594575" lon="-5.94854563919566"><ele>1563.5</ele><time>2026-04-24T17:27:54.999Z</time></trkpt><trkpt lat="31.365880684715254" lon="-5.9482582628213105"><ele>1564.0</ele><time>2026-04-24T17:27:55.999Z</time></trkpt><trkpt lat="31.365866249282618" lon="-5.947975982551657"><ele>1564.0</ele><time>2026-04-24T17:27:56.999Z</time></trkpt><trkpt lat="31.365852127440874" lon="-5.947694953969334"><ele>1564.0</ele><time>2026-04-24T17:27:57.999Z</time></trkpt><trkpt lat="31.36584060563043" lon="-5.947413257668484"><ele>1564.0</ele><time>2026-04-24T17:27:58.999Z</time></trkpt><trkpt lat="31.365827657692464" lon="-5.947131018315142"><ele>1564.0</ele><time>2026-04-24T17:27:59.999Z</time></trkpt><trkpt lat="31.365812806447426" lon="-5.946848178353097"><ele>1563.0</ele><time>2026-04-24T17:28:00.999Z</time></trkpt><trkpt lat="31.365798363849745" lon="-5.946566580082166"><ele>1562.0</ele><time>2026-04-24T17:28:01.999Z</time></trkpt><trkpt lat="31.365783835011314" lon="-5.94628789315759"><ele>1562.0</ele><time>2026-04-24T17:28:02.999Z</time></trkpt><trkpt lat="31.365769678418786" lon="-5.9460132436419135"><ele>1562.0</ele><time>2026-04-24T17:28:03.999Z</time></trkpt><trkpt lat="31.36575542105755" lon="-5.945741414688071"><ele>1562.5</ele><time>2026-04-24T17:28:04.999Z</time></trkpt><trkpt lat="31.365744058240796" lon="-5.945469227178407"><ele>1563.0</ele><time>2026-04-24T17:28:05.999Z</time></trkpt><trkpt lat="31.365730670231443" lon="-5.945190783980181"><ele>1561.0</ele><time>2026-04-24T17:28:06.999Z</time></trkpt><trkpt lat="31.365718504822706" lon="-5.944913976025182"><ele>1559.0</ele><time>2026-04-24T17:28:07.999Z</time></trkpt><trkpt lat="31.36570817627174" lon="-5.944634129901909"><ele>1559.0</ele><time>2026-04-24T17:28:08.999Z</time></trkpt><trkpt lat="31.365698070991602" lon="-5.944352482771446"><ele>1559.0</ele><time>2026-04-24T17:28:09.999Z</time></trkpt><trkpt lat="31.365686420360678" lon="-5.944067580617572"><ele>1559.5</ele><time>2026-04-24T17:28:10.999Z</time></trkpt><trkpt lat="31.36567444452867" lon="-5.943779014527863"><ele>1560.0</ele><time>2026-04-24T17:28:11.999Z</time></trkpt><trkpt lat="31.365661488269772" lon="-5.943495539037281"><ele>1559.5</ele><time>2026-04-24T17:28:12.999Z</time></trkpt><trkpt lat="31.365649999089523" lon="-5.943218284057957"><ele>1559.0</ele><time>2026-04-24T17:28:13.999Z</time></trkpt><trkpt lat="31.365639916419006" lon="-5.942946729248097"><ele>1559.0</ele><time>2026-04-24T17:28:14.999Z</time></trkpt><trkpt lat="31.365627660327128" lon="-5.942671235340627"><ele>1559.0</ele><time>2026-04-24T17:28:15.999Z</time></trkpt><trkpt lat="31.365614233166355" lon="-5.942386412374758"><ele>1559.5</ele><time>2026-04-24T17:28:16.999Z</time></trkpt><trkpt lat="31.365598882428085" lon="-5.942096794186357"><ele>1560.0</ele><time>2026-04-24T17:28:17.999Z</time></trkpt><trkpt lat="31.36558218812511" lon="-5.941798657815795"><ele>1560.0</ele><time>2026-04-24T17:28:18.999Z</time></trkpt><trkpt lat="31.36556365600735" lon="-5.941492696070888"><ele>1560.0</ele><time>2026-04-24T17:28:19.999Z</time></trkpt><trkpt lat="31.365545521749894" lon="-5.941188121065345"><ele>1559.0</ele><time>2026-04-24T17:28:20.999Z</time></trkpt><trkpt lat="31.36552626751003" lon="-5.940886457591868"><ele>1558.0</ele><time>2026-04-24T17:28:21.999Z</time></trkpt><trkpt lat="31.365505864904232" lon="-5.940586994625839"><ele>1558.0</ele><time>2026-04-24T17:28:22.999Z</time></trkpt><trkpt lat="31.365483613337474" lon="-5.940288347459396"><ele>1558.0</ele><time>2026-04-24T17:28:23.999Z</time></trkpt><trkpt lat="31.3654645312363" lon="-5.939990372504209"><ele>1558.0</ele><time>2026-04-24T17:28:24.999Z</time></trkpt><trkpt lat="31.365449142062072" lon="-5.939693401541608"><ele>1558.0</ele><time>2026-04-24T17:28:25.999Z</time></trkpt><trkpt lat="31.365434570442954" lon="-5.93939081194159"><ele>1557.0</ele><time>2026-04-24T17:28:26.999Z</time></trkpt><trkpt lat="31.365418214414632" lon="-5.939083965304257"><ele>1556.0</ele><time>2026-04-24T17:28:27.999Z</time></trkpt><trkpt lat="31.36540379640514" lon="-5.9387755974484735"><ele>1556.0</ele><time>2026-04-24T17:28:28.999Z</time></trkpt><trkpt lat="31.365387065730367" lon="-5.938465737069827"><ele>1556.0</ele><time>2026-04-24T17:28:29.999Z</time></trkpt><trkpt lat="31.365372268897822" lon="-5.938156950778118"><ele>1556.0</ele><time>2026-04-24T17:28:30.999Z</time></trkpt><trkpt lat="31.365356943956293" lon="-5.93784871350336"><ele>1556.0</ele><time>2026-04-24T17:28:31.999Z</time></trkpt><trkpt lat="31.365341061841715" lon="-5.937540933139394"><ele>1555.0</ele><time>2026-04-24T17:28:32.999Z</time></trkpt><trkpt lat="31.3653246078316" lon="-5.937233044239486"><ele>1554.0</ele><time>2026-04-24T17:28:34Z</time></trkpt><trkpt lat="31.36530814691931" lon="-5.93692479425085"><ele>1553.0</ele><time>2026-04-24T17:28:35Z</time></trkpt><trkpt lat="31.36529248374675" lon="-5.936617866865543"><ele>1552.0</ele><time>2026-04-24T17:28:36Z</time></trkpt><trkpt lat="31.365276214271177" lon="-5.936310364835308"><ele>1552.0</ele><time>2026-04-24T17:28:37Z</time></trkpt><trkpt lat="31.365261921217822" lon="-5.936002631312985"><ele>1552.0</ele><time>2026-04-24T17:28:38Z</time></trkpt><trkpt lat="31.36524670289754" lon="-5.9356950325230935"><ele>1553.5</ele><time>2026-04-24T17:28:39Z</time></trkpt><trkpt lat="31.365231390347052" lon="-5.935386488006262"><ele>1555.0</ele><time>2026-04-24T17:28:40Z</time></trkpt><trkpt lat="31.365215734948332" lon="-5.935075260640182"><ele>1555.5</ele><time>2026-04-24T17:28:41Z</time></trkpt><trkpt lat="31.365199084593613" lon="-5.934764026636579"><ele>1556.0</ele><time>2026-04-24T17:28:42Z</time></trkpt><trkpt lat="31.3651834148388" lon="-5.934451637040373"><ele>1555.5</ele><time>2026-04-24T17:28:43Z</time></trkpt><trkpt lat="31.36516772107313" lon="-5.934140227667786"><ele>1555.0</ele><time>2026-04-24T17:28:43.999Z</time></trkpt><trkpt lat="31.36515338306712" lon="-5.933827074038623"><ele>1555.0</ele><time>2026-04-24T17:28:44.999Z</time></trkpt><trkpt lat="31.36513853031219" lon="-5.93351315005355"><ele>1555.0</ele><time>2026-04-24T17:28:45.999Z</time></trkpt><trkpt lat="31.36510547534094" lon="-5.933195120438043"><ele>1555.5</ele><time>2026-04-24T17:28:46.999Z</time></trkpt><trkpt lat="31.36508846223003" lon="-5.932876051151122"><ele>1556.0</ele><time>2026-04-24T17:28:47.999Z</time></trkpt><trkpt lat="31.36507157587059" lon="-5.93255752729745"><ele>1557.0</ele><time>2026-04-24T17:28:48.999Z</time></trkpt><trkpt lat="31.36505562638078" lon="-5.9322428418425055"><ele>1558.0</ele><time>2026-04-24T17:28:49.999Z</time></trkpt><trkpt lat="31.36504031038298" lon="-5.931928362568314"><ele>1557.5</ele><time>2026-04-24T17:28:50.999Z</time></trkpt><trkpt lat="31.365040617911703" lon="-5.931613545025293"><ele>1557.0</ele><time>2026-04-24T17:28:51.999Z</time></trkpt><trkpt lat="31.365024143062904" lon="-5.93129754813121"><ele>1557.0</ele><time>2026-04-24T17:28:52.999Z</time></trkpt><trkpt lat="31.365006278823987" lon="-5.930982529212342"><ele>1557.0</ele><time>2026-04-24T17:28:53.999Z</time></trkpt><trkpt lat="31.364990578065388" lon="-5.930668140875107"><ele>1556.5</ele><time>2026-04-24T17:28:54.999Z</time></trkpt><trkpt lat="31.364975688400335" lon="-5.9303530984246615"><ele>1556.0</ele><time>2026-04-24T17:28:55.999Z</time></trkpt><trkpt lat="31.364959810003416" lon="-5.930035500649245"><ele>1555.5</ele><time>2026-04-24T17:28:56.999Z</time></trkpt><trkpt lat="31.364943210924366" lon="-5.929715054018456"><ele>1555.0</ele><time>2026-04-24T17:28:57.999Z</time></trkpt><trkpt lat="31.364925090794465" lon="-5.929390506038639"><ele>1554.5</ele><time>2026-04-24T17:28:58.999Z</time></trkpt><trkpt lat="31.36490978500313" lon="-5.929064154420998"><ele>1554.0</ele><time>2026-04-24T17:28:59.999Z</time></trkpt><trkpt lat="31.364892325791068" lon="-5.928736259145316"><ele>1554.0</ele><time>2026-04-24T17:29:00.999Z</time></trkpt><trkpt lat="31.364857300653473" lon="-5.928407427886312"><ele>1554.0</ele><time>2026-04-24T17:29:01.999Z</time></trkpt><trkpt lat="31.36483957382894" lon="-5.928076407543342"><ele>1555.0</ele><time>2026-04-24T17:29:02.999Z</time></trkpt><trkpt lat="31.364824212462466" lon="-5.927745054778218"><ele>1556.0</ele><time>2026-04-24T17:29:03.999Z</time></trkpt><trkpt lat="31.364808896478156" lon="-5.927414676690047"><ele>1556.5</ele><time>2026-04-24T17:29:04.999Z</time></trkpt><trkpt lat="31.36479358402126" lon="-5.927084374980472"><ele>1557.0</ele><time>2026-04-24T17:29:05.999Z</time></trkpt><trkpt lat="31.36479226231796" lon="-5.926751181005981"><ele>1556.0</ele><time>2026-04-24T17:29:06.999Z</time></trkpt><trkpt lat="31.364775605467" lon="-5.926418764602439"><ele>1555.0</ele><time>2026-04-24T17:29:07.999Z</time></trkpt><trkpt lat="31.36475839878413" lon="-5.926089596628718"><ele>1555.5</ele><time>2026-04-24T17:29:08.999Z</time></trkpt><trkpt lat="31.364739929915345" lon="-5.925760797498692"><ele>1556.0</ele><time>2026-04-24T17:29:09.999Z</time></trkpt><trkpt lat="31.364723849169888" lon="-5.925433510839754"><ele>1556.0</ele><time>2026-04-24T17:29:10.999Z</time></trkpt><trkpt lat="31.364707273290747" lon="-5.925108141127229"><ele>1556.0</ele><time>2026-04-24T17:29:11.999Z</time></trkpt><trkpt lat="31.36469185947341" lon="-5.924788679869481"><ele>1556.0</ele><time>2026-04-24T17:29:12.999Z</time></trkpt><trkpt lat="31.364674144305084" lon="-5.924472183683928"><ele>1556.0</ele><time>2026-04-24T17:29:13.999Z</time></trkpt><trkpt lat="31.364657708776715" lon="-5.924159421179776"><ele>1556.0</ele><time>2026-04-24T17:29:14.999Z</time></trkpt><trkpt lat="31.364642907822496" lon="-5.9238460766888155"><ele>1556.0</ele><time>2026-04-24T17:29:15.999Z</time></trkpt><trkpt lat="31.364625632969293" lon="-5.923531874525801"><ele>1555.5</ele><time>2026-04-24T17:29:16.999Z</time></trkpt><trkpt lat="31.36461049640536" lon="-5.9232179495186275"><ele>1555.0</ele><time>2026-04-24T17:29:17.999Z</time></trkpt><trkpt lat="31.364592804860045" lon="-5.922901814947455"><ele>1555.0</ele><time>2026-04-24T17:29:18.999Z</time></trkpt><trkpt lat="31.364575494298293" lon="-5.922584799744886"><ele>1555.0</ele><time>2026-04-24T17:29:19.999Z</time></trkpt><trkpt lat="31.364559464672908" lon="-5.92226993925547"><ele>1555.0</ele><time>2026-04-24T17:29:20.999Z</time></trkpt><trkpt lat="31.364547505732936" lon="-5.921956708735006"><ele>1555.0</ele><time>2026-04-24T17:29:21.999Z</time></trkpt><trkpt lat="31.364534483907715" lon="-5.921643424005648"><ele>1554.5</ele><time>2026-04-24T17:29:22.999Z</time></trkpt><trkpt lat="31.364520161123643" lon="-5.9213301751868945"><ele>1554.0</ele><time>2026-04-24T17:29:23.999Z</time></trkpt><trkpt lat="31.36450462098185" lon="-5.921016857668473"><ele>1552.5</ele><time>2026-04-24T17:29:24.999Z</time></trkpt><trkpt lat="31.364494002870607" lon="-5.920710854475719"><ele>1551.0</ele><time>2026-04-24T17:29:25.999Z</time></trkpt><trkpt lat="31.3644888051767" lon="-5.92040729377449"><ele>1551.0</ele><time>2026-04-24T17:29:26.999Z</time></trkpt><trkpt lat="31.36447618611139" lon="-5.920102115714718"><ele>1551.0</ele><time>2026-04-24T17:29:27.999Z</time></trkpt><trkpt lat="31.364458243164133" lon="-5.919796341689626"><ele>1552.0</ele><time>2026-04-24T17:29:28.999Z</time></trkpt><trkpt lat="31.364437313253795" lon="-5.919490944060782"><ele>1553.0</ele><time>2026-04-24T17:29:29.999Z</time></trkpt><trkpt lat="31.36441564101328" lon="-5.919188223267138"><ele>1553.5</ele><time>2026-04-24T17:29:30.999Z</time></trkpt><trkpt lat="31.3643959723563" lon="-5.918886467499467"><ele>1554.0</ele><time>2026-04-24T17:29:31.999Z</time></trkpt><trkpt lat="31.364379955157755" lon="-5.918584912729667"><ele>1552.5</ele><time>2026-04-24T17:29:32.999Z</time></trkpt><trkpt lat="31.364363092879902" lon="-5.9182850098721484"><ele>1551.0</ele><time>2026-04-24T17:29:33.999Z</time></trkpt><trkpt lat="31.364347018353634" lon="-5.9179871026488895"><ele>1551.0</ele><time>2026-04-24T17:29:34.999Z</time></trkpt><trkpt lat="31.364332242202508" lon="-5.917691649714927"><ele>1551.0</ele><time>2026-04-24T17:29:35.999Z</time></trkpt><trkpt lat="31.364316759505453" lon="-5.91739565393705"><ele>1550.5</ele><time>2026-04-24T17:29:36.999Z</time></trkpt><trkpt lat="31.364300709471856" lon="-5.917100865422239"><ele>1550.0</ele><time>2026-04-24T17:29:37.999Z</time></trkpt><trkpt lat="31.364286599418456" lon="-5.916807217713531"><ele>1551.5</ele><time>2026-04-24T17:29:38.999Z</time></trkpt><trkpt lat="31.3642699321682" lon="-5.916516541987754"><ele>1553.0</ele><time>2026-04-24T17:29:39.999Z</time></trkpt><trkpt lat="31.364255418235103" lon="-5.9162255227065215"><ele>1553.0</ele><time>2026-04-24T17:29:40.999Z</time></trkpt><trkpt lat="31.36424079665872" lon="-5.9159354167696145"><ele>1553.0</ele><time>2026-04-24T17:29:41.999Z</time></trkpt><trkpt lat="31.364226186194525" lon="-5.915645621365312"><ele>1553.0</ele><time>2026-04-24T17:29:42.999Z</time></trkpt><trkpt lat="31.36421187796429" lon="-5.915356827412071"><ele>1553.0</ele><time>2026-04-24T17:29:43.999Z</time></trkpt><trkpt lat="31.36419872704626" lon="-5.915068735851117"><ele>1551.5</ele><time>2026-04-24T17:29:44.999Z</time></trkpt><trkpt lat="31.364183997220074" lon="-5.9147797307415555"><ele>1550.0</ele><time>2026-04-24T17:29:45.999Z</time></trkpt><trkpt lat="31.36416845113907" lon="-5.914489939537011"><ele>1550.5</ele><time>2026-04-24T17:29:46.999Z</time></trkpt><trkpt lat="31.364152971437345" lon="-5.914201993664221"><ele>1551.0</ele><time>2026-04-24T17:29:47.999Z</time></trkpt><trkpt lat="31.36413760053165" lon="-5.913918739663317"><ele>1551.0</ele><time>2026-04-24T17:29:48.999Z</time></trkpt><trkpt lat="31.364121291739576" lon="-5.913636369438573"><ele>1551.0</ele><time>2026-04-24T17:29:49.999Z</time></trkpt><trkpt lat="31.364102985127985" lon="-5.913350845608522"><ele>1552.0</ele><time>2026-04-24T17:29:50.999Z</time></trkpt><trkpt lat="31.36408982891835" lon="-5.913067750391915"><ele>1553.0</ele><time>2026-04-24T17:29:51.999Z</time></trkpt><trkpt lat="31.36407735022752" lon="-5.912791171439372"><ele>1553.0</ele><time>2026-04-24T17:29:52.999Z</time></trkpt><trkpt lat="31.364063950572213" lon="-5.912522856279156"><ele>1553.0</ele><time>2026-04-24T17:29:53.999Z</time></trkpt><trkpt lat="31.364050431693926" lon="-5.912266720227107"><ele>1553.0</ele><time>2026-04-24T17:29:54.999Z</time></trkpt><trkpt lat="31.364035074688452" lon="-5.912018126731146"><ele>1553.0</ele><time>2026-04-24T17:29:55.999Z</time></trkpt><trkpt lat="31.36402501877536" lon="-5.911772936777564"><ele>1553.0</ele><time>2026-04-24T17:29:56.999Z</time></trkpt><trkpt lat="31.36402013088368" lon="-5.911526159673197"><ele>1553.0</ele><time>2026-04-24T17:29:57.999Z</time></trkpt><trkpt lat="31.364026089577585" lon="-5.911276019865844"><ele>1552.6666666666665</ele><time>2026-04-24T17:29:58.999Z</time></trkpt><trkpt lat="31.36403258747433" lon="-5.911027601194723"><ele>1552.3333333333335</ele><time>2026-04-24T17:29:59.999Z</time></trkpt><trkpt lat="31.364042784102445" lon="-5.910779458202505"><ele>1552.0</ele><time>2026-04-24T17:30:00.999Z</time></trkpt><trkpt lat="31.36406351460881" lon="-5.9105327847709175"><ele>1552.0</ele><time>2026-04-24T17:30:01.999Z</time></trkpt><trkpt lat="31.364090958893176" lon="-5.9102861290354065"><ele>1552.0</ele><time>2026-04-24T17:30:02.999Z</time></trkpt><trkpt lat="31.364124956480396" lon="-5.91004270836906"><ele>1552.0</ele><time>2026-04-24T17:30:03.999Z</time></trkpt><trkpt lat="31.3641697392267" lon="-5.9097959521476"><ele>1552.3333333333335</ele><time>2026-04-24T17:30:04.999Z</time></trkpt><trkpt lat="31.36422398645983" lon="-5.909550396448283"><ele>1552.6666666666665</ele><time>2026-04-24T17:30:05.999Z</time></trkpt><trkpt lat="31.364289955178737" lon="-5.909309812677607"><ele>1553.0</ele><time>2026-04-24T17:30:06.999Z</time></trkpt><trkpt lat="31.36436648439302" lon="-5.90907278741107"><ele>1552.3333333333333</ele><time>2026-04-24T17:30:07.999Z</time></trkpt><trkpt lat="31.364445519820208" lon="-5.908839365641461"><ele>1551.6666666666665</ele><time>2026-04-24T17:30:08.999Z</time></trkpt><trkpt lat="31.364532863488737" lon="-5.908606789447612"><ele>1551.0</ele><time>2026-04-24T17:30:09.999Z</time></trkpt><trkpt lat="31.36463034299147" lon="-5.908378743233054"><ele>1550.3333333333335</ele><time>2026-04-24T17:30:10.999Z</time></trkpt><trkpt lat="31.364735846528003" lon="-5.908149745960171"><ele>1549.6666666666667</ele><time>2026-04-24T17:30:11.999Z</time></trkpt><trkpt lat="31.3648474158987" lon="-5.907919256136895"><ele>1549.0</ele><time>2026-04-24T17:30:12.999Z</time></trkpt><trkpt lat="31.3649662280037" lon="-5.907682837063757"><ele>1547.5</ele><time>2026-04-24T17:30:13.999Z</time></trkpt><trkpt lat="31.36508649054101" lon="-5.907441971663912"><ele>1546.0</ele><time>2026-04-24T17:30:14.999Z</time></trkpt><trkpt lat="31.365206556534034" lon="-5.907193463829041"><ele>1546.0</ele><time>2026-04-24T17:30:15.999Z</time></trkpt><trkpt lat="31.365331150254377" lon="-5.906940604404007"><ele>1546.0</ele><time>2026-04-24T17:30:16.999Z</time></trkpt><trkpt lat="31.365460432677672" lon="-5.906681293262423"><ele>1544.0</ele><time>2026-04-24T17:30:17.999Z</time></trkpt><trkpt lat="31.365590300220266" lon="-5.9064132039204305"><ele>1542.0</ele><time>2026-04-24T17:30:18.999Z</time></trkpt><trkpt lat="31.365719845842438" lon="-5.906136494611178"><ele>1541.0</ele><time>2026-04-24T17:30:19.999Z</time></trkpt><trkpt lat="31.365850451059153" lon="-5.905855273603951"><ele>1540.0</ele><time>2026-04-24T17:30:20.999Z</time></trkpt><trkpt lat="31.365980427453575" lon="-5.905571755169183"><ele>1540.0</ele><time>2026-04-24T17:30:22Z</time></trkpt><trkpt lat="31.366111987165887" lon="-5.905286421352093"><ele>1540.0</ele><time>2026-04-24T17:30:23Z</time></trkpt><trkpt lat="31.366243947892137" lon="-5.905002944478964"><ele>1539.0</ele><time>2026-04-24T17:30:24Z</time></trkpt><trkpt lat="31.366375720733174" lon="-5.904720445962774"><ele>1538.0</ele><time>2026-04-24T17:30:25Z</time></trkpt><trkpt lat="31.36650572311718" lon="-5.904435115287648"><ele>1537.0</ele><time>2026-04-24T17:30:26Z</time></trkpt><trkpt lat="31.366636886832815" lon="-5.90415122715568"><ele>1536.0</ele><time>2026-04-24T17:30:27Z</time></trkpt><trkpt lat="31.366769348121586" lon="-5.903870752586726"><ele>1536.0</ele><time>2026-04-24T17:30:28Z</time></trkpt><trkpt lat="31.366902455154058" lon="-5.90359062442881"><ele>1536.0</ele><time>2026-04-24T17:30:29Z</time></trkpt><trkpt lat="31.36703656041446" lon="-5.903315014828639"><ele>1535.0</ele><time>2026-04-24T17:30:30Z</time></trkpt><trkpt lat="31.36716988311274" lon="-5.903042982990286"><ele>1534.0</ele><time>2026-04-24T17:30:31Z</time></trkpt><trkpt lat="31.36730024889912" lon="-5.902767422123193"><ele>1534.0</ele><time>2026-04-24T17:30:32Z</time></trkpt><trkpt lat="31.36742925684268" lon="-5.902489630282456"><ele>1534.0</ele><time>2026-04-24T17:30:33Z</time></trkpt><trkpt lat="31.367559066032786" lon="-5.902213970456956"><ele>1534.0</ele><time>2026-04-24T17:30:34Z</time></trkpt><trkpt lat="31.367687603787235" lon="-5.901936952472753"><ele>1534.0</ele><time>2026-04-24T17:30:35Z</time></trkpt><trkpt lat="31.367818671265727" lon="-5.901659214383721"><ele>1534.0</ele><time>2026-04-24T17:30:36Z</time></trkpt><trkpt lat="31.367947963389028" lon="-5.901380470174213"><ele>1534.0</ele><time>2026-04-24T17:30:37Z</time></trkpt><trkpt lat="31.368080090846455" lon="-5.901102688050645"><ele>1533.0</ele><time>2026-04-24T17:30:38Z</time></trkpt><trkpt lat="31.368211810595202" lon="-5.900824997965605"><ele>1532.0</ele><time>2026-04-24T17:30:39Z</time></trkpt><trkpt lat="31.36834473393734" lon="-5.9005480863519395"><ele>1532.0</ele><time>2026-04-24T17:30:40Z</time></trkpt><trkpt lat="31.368479585147305" lon="-5.900274105461374"><ele>1532.0</ele><time>2026-04-24T17:30:41Z</time></trkpt><trkpt lat="31.368612251861098" lon="-5.899996307910691"><ele>1532.5</ele><time>2026-04-24T17:30:42Z</time></trkpt><trkpt lat="31.368745132416894" lon="-5.89971571945264"><ele>1533.0</ele><time>2026-04-24T17:30:43Z</time></trkpt><trkpt lat="31.368878455187822" lon="-5.899433242409836"><ele>1533.0</ele><time>2026-04-24T17:30:44Z</time></trkpt><trkpt lat="31.369011929274183" lon="-5.899149537882183"><ele>1533.0</ele><time>2026-04-24T17:30:45Z</time></trkpt><trkpt lat="31.369147008791696" lon="-5.898865401384369"><ele>1533.0</ele><time>2026-04-24T17:30:46Z</time></trkpt><trkpt lat="31.369284916465624" lon="-5.898580789493163"><ele>1533.0</ele><time>2026-04-24T17:30:47Z</time></trkpt><trkpt lat="31.36942379541497" lon="-5.898295376062789"><ele>1532.5</ele><time>2026-04-24T17:30:48Z</time></trkpt><trkpt lat="31.369559662409912" lon="-5.898008937532463"><ele>1532.0</ele><time>2026-04-24T17:30:49Z</time></trkpt><trkpt lat="31.36969761321861" lon="-5.897722679117781"><ele>1532.0</ele><time>2026-04-24T17:30:50Z</time></trkpt><trkpt lat="31.36983211109843" lon="-5.897434574869634"><ele>1532.0</ele><time>2026-04-24T17:30:51Z</time></trkpt><trkpt lat="31.36996987584216" lon="-5.897147719931004"><ele>1532.0</ele><time>2026-04-24T17:30:52Z</time></trkpt><trkpt lat="31.370108119189325" lon="-5.896858528879745"><ele>1532.0</ele><time>2026-04-24T17:30:53Z</time></trkpt><trkpt lat="31.370250198157823" lon="-5.896570102659987"><ele>1532.5</ele><time>2026-04-24T17:30:54Z</time></trkpt><trkpt lat="31.370386811414377" lon="-5.896276652998049"><ele>1533.0</ele><time>2026-04-24T17:30:55Z</time></trkpt><trkpt lat="31.370527900757367" lon="-5.895984475549824"><ele>1533.5</ele><time>2026-04-24T17:30:56Z</time></trkpt><trkpt lat="31.370668591611405" lon="-5.895689898055855"><ele>1534.0</ele><time>2026-04-24T17:30:57Z</time></trkpt><trkpt lat="31.37080913794177" lon="-5.895395820427416"><ele>1534.0</ele><time>2026-04-24T17:30:58Z</time></trkpt><trkpt lat="31.370950400344846" lon="-5.895100536183453"><ele>1534.0</ele><time>2026-04-24T17:30:59Z</time></trkpt><trkpt lat="31.371092498451382" lon="-5.894807076246705"><ele>1534.0</ele><time>2026-04-24T17:31:00Z</time></trkpt><trkpt lat="31.3712326936163" lon="-5.894512292713751"><ele>1534.0</ele><time>2026-04-24T17:31:01Z</time></trkpt><trkpt lat="31.37137182698011" lon="-5.894215986385151"><ele>1534.0</ele><time>2026-04-24T17:31:02Z</time></trkpt><trkpt lat="31.37151174417534" lon="-5.893918263025367"><ele>1534.0</ele><time>2026-04-24T17:31:03Z</time></trkpt><trkpt lat="31.371654924665545" lon="-5.893619649252258"><ele>1532.5</ele><time>2026-04-24T17:31:04Z</time></trkpt><trkpt lat="31.37179440807759" lon="-5.893318844753528"><ele>1531.0</ele><time>2026-04-24T17:31:05Z</time></trkpt><trkpt lat="31.371937304883343" lon="-5.893019638718405"><ele>1531.0</ele><time>2026-04-24T17:31:06Z</time></trkpt><trkpt lat="31.372079515591917" lon="-5.892719853883037"><ele>1531.0</ele><time>2026-04-24T17:31:07Z</time></trkpt><trkpt lat="31.37222262471291" lon="-5.892420292269272"><ele>1531.5</ele><time>2026-04-24T17:31:08Z</time></trkpt><trkpt lat="31.372366344514628" lon="-5.892120394833389"><ele>1532.0</ele><time>2026-04-24T17:31:09Z</time></trkpt><trkpt lat="31.372508772636845" lon="-5.891819873051956"><ele>1531.0</ele><time>2026-04-24T17:31:10Z</time></trkpt><trkpt lat="31.37265068458186" lon="-5.891516821535048"><ele>1530.0</ele><time>2026-04-24T17:31:11Z</time></trkpt><trkpt lat="31.372794805789564" lon="-5.891214051468947"><ele>1529.5</ele><time>2026-04-24T17:31:12Z</time></trkpt><trkpt lat="31.37294092201684" lon="-5.890913030439867"><ele>1529.0</ele><time>2026-04-24T17:31:12.999Z</time></trkpt><trkpt lat="31.373081934027063" lon="-5.890606276846865"><ele>1529.5</ele><time>2026-04-24T17:31:13.999Z</time></trkpt><trkpt lat="31.37322727943092" lon="-5.890299842795855"><ele>1530.0</ele><time>2026-04-24T17:31:14.999Z</time></trkpt><trkpt lat="31.3733719888839" lon="-5.889994777905075"><ele>1530.0</ele><time>2026-04-24T17:31:15.999Z</time></trkpt><trkpt lat="31.37351328730491" lon="-5.889695136368351"><ele>1530.0</ele><time>2026-04-24T17:31:16.999Z</time></trkpt><trkpt lat="31.373650377880438" lon="-5.889402820857758"><ele>1529.5</ele><time>2026-04-24T17:31:17.999Z</time></trkpt><trkpt lat="31.373786439478536" lon="-5.889113843878429"><ele>1529.0</ele><time>2026-04-24T17:31:18.999Z</time></trkpt><trkpt lat="31.373924025874075" lon="-5.888828047624724"><ele>1528.5</ele><time>2026-04-24T17:31:19.999Z</time></trkpt><trkpt lat="31.374060455661574" lon="-5.888542020475116"><ele>1528.0</ele><time>2026-04-24T17:31:20.999Z</time></trkpt><trkpt lat="31.37419283783474" lon="-5.8882543547553805"><ele>1528.0</ele><time>2026-04-24T17:31:21.999Z</time></trkpt><trkpt lat="31.37432823521232" lon="-5.887970898712314"><ele>1528.0</ele><time>2026-04-24T17:31:22.999Z</time></trkpt><trkpt lat="31.37446211369792" lon="-5.887689205572986"><ele>1527.0</ele><time>2026-04-24T17:31:23.999Z</time></trkpt><trkpt lat="31.37459417742188" lon="-5.887409182819892"><ele>1526.0</ele><time>2026-04-24T17:31:24.999Z</time></trkpt><trkpt lat="31.37472867283268" lon="-5.887136378824503"><ele>1526.0</ele><time>2026-04-24T17:31:25.999Z</time></trkpt><trkpt lat="31.374859065801544" lon="-5.886867686647667"><ele>1526.0</ele><time>2026-04-24T17:31:26.999Z</time></trkpt><trkpt lat="31.374986112704352" lon="-5.886605235235274"><ele>1525.5</ele><time>2026-04-24T17:31:27.999Z</time></trkpt><trkpt lat="31.375109556543528" lon="-5.886348593802975"><ele>1525.0</ele><time>2026-04-24T17:31:28.999Z</time></trkpt><trkpt lat="31.375228635274883" lon="-5.88609559127184"><ele>1525.0</ele><time>2026-04-24T17:31:29.999Z</time></trkpt><trkpt lat="31.37534921012003" lon="-5.885831760473954"><ele>1525.0</ele><time>2026-04-24T17:31:30.999Z</time></trkpt><trkpt lat="31.375434812123704" lon="-5.885579254332924"><ele>1525.0</ele><time>2026-04-24T17:31:31.999Z</time></trkpt><trkpt lat="31.375499641895573" lon="-5.885302840530484"><ele>1525.0</ele><time>2026-04-24T17:31:32.999Z</time></trkpt><trkpt lat="31.37554323098216" lon="-5.8850182978909995"><ele>1524.5</ele><time>2026-04-24T17:31:33.999Z</time></trkpt><trkpt lat="31.375565469517372" lon="-5.884729347871726"><ele>1524.0</ele><time>2026-04-24T17:31:34.999Z</time></trkpt><trkpt lat="31.37556661949516" lon="-5.884432533721731"><ele>1524.0</ele><time>2026-04-24T17:31:35.999Z</time></trkpt><trkpt lat="31.375543965514836" lon="-5.884130859490294"><ele>1524.0</ele><time>2026-04-24T17:31:36.999Z</time></trkpt><trkpt lat="31.375494539867756" lon="-5.883823718420652"><ele>1524.0</ele><time>2026-04-24T17:31:37.999Z</time></trkpt><trkpt lat="31.375421876278946" lon="-5.883517978177265"><ele>1524.0</ele><time>2026-04-24T17:31:38.999Z</time></trkpt><trkpt lat="31.375341007227018" lon="-5.883212747861291"><ele>1524.0</ele><time>2026-04-24T17:31:39.999Z</time></trkpt><trkpt lat="31.375256039117904" lon="-5.882904600128297"><ele>1524.0</ele><time>2026-04-24T17:31:40.999Z</time></trkpt><trkpt lat="31.37517507246161" lon="-5.882591912833942"><ele>1522.5</ele><time>2026-04-24T17:31:41.999Z</time></trkpt><trkpt lat="31.375091991024" lon="-5.882275676902865"><ele>1521.0</ele><time>2026-04-24T17:31:42.999Z</time></trkpt><trkpt lat="31.375007373243275" lon="-5.881958427097743"><ele>1521.0</ele><time>2026-04-24T17:31:43.999Z</time></trkpt><trkpt lat="31.37492142330606" lon="-5.881639980799022"><ele>1521.0</ele><time>2026-04-24T17:31:44.999Z</time></trkpt><trkpt lat="31.374835746557878" lon="-5.881320598692074"><ele>1521.0</ele><time>2026-04-24T17:31:45.999Z</time></trkpt><trkpt lat="31.37475292215777" lon="-5.880998236968453"><ele>1521.0</ele><time>2026-04-24T17:31:46.999Z</time></trkpt><trkpt lat="31.37466913480873" lon="-5.880673106005856"><ele>1520.5</ele><time>2026-04-24T17:31:47.999Z</time></trkpt><trkpt lat="31.374584424489292" lon="-5.880348545597663"><ele>1520.0</ele><time>2026-04-24T17:31:48.999Z</time></trkpt><trkpt lat="31.374499590349345" lon="-5.880024424933129"><ele>1518.5</ele><time>2026-04-24T17:31:49.999Z</time></trkpt><trkpt lat="31.374414824701155" lon="-5.879698329116311"><ele>1517.0</ele><time>2026-04-24T17:31:50.999Z</time></trkpt><trkpt lat="31.37433186716944" lon="-5.879370252399017"><ele>1517.5</ele><time>2026-04-24T17:31:51.999Z</time></trkpt><trkpt lat="31.374246706736052" lon="-5.879040609057956"><ele>1518.0</ele><time>2026-04-24T17:31:52.999Z</time></trkpt><trkpt lat="31.374160010177157" lon="-5.87871180724698"><ele>1517.0</ele><time>2026-04-24T17:31:53.999Z</time></trkpt><trkpt lat="31.3740729755889" lon="-5.8783839321565825"><ele>1516.0</ele><time>2026-04-24T17:31:54.999Z</time></trkpt><trkpt lat="31.37398605615567" lon="-5.878055914304975"><ele>1516.0</ele><time>2026-04-24T17:31:55.999Z</time></trkpt><trkpt lat="31.37389874243365" lon="-5.877725561776832"><ele>1516.0</ele><time>2026-04-24T17:31:56.999Z</time></trkpt><trkpt lat="31.37381325619715" lon="-5.877396673927317"><ele>1515.5</ele><time>2026-04-24T17:31:57.999Z</time></trkpt><trkpt lat="31.373728428436806" lon="-5.8770688244662885"><ele>1515.0</ele><time>2026-04-24T17:31:58.999Z</time></trkpt><trkpt lat="31.373644000286774" lon="-5.876739277135963"><ele>1514.5</ele><time>2026-04-24T17:31:59.999Z</time></trkpt><trkpt lat="31.373561145075772" lon="-5.876412067606601"><ele>1514.0</ele><time>2026-04-24T17:32:00.999Z</time></trkpt><trkpt lat="31.373478704180496" lon="-5.876090272902354"><ele>1513.5</ele><time>2026-04-24T17:32:01.999Z</time></trkpt><trkpt lat="31.373396821622062" lon="-5.875774524069903"><ele>1513.0</ele><time>2026-04-24T17:32:02.999Z</time></trkpt><trkpt lat="31.373314384222056" lon="-5.875460336285989"><ele>1513.0</ele><time>2026-04-24T17:32:03.999Z</time></trkpt><trkpt lat="31.37323068075527" lon="-5.875142642905943"><ele>1513.0</ele><time>2026-04-24T17:32:04.999Z</time></trkpt><trkpt lat="31.37315136533199" lon="-5.874831260513299"><ele>1511.5</ele><time>2026-04-24T17:32:05.999Z</time></trkpt><trkpt lat="31.373075663595685" lon="-5.874526929038823"><ele>1510.0</ele><time>2026-04-24T17:32:06.999Z</time></trkpt><trkpt lat="31.373001654160092" lon="-5.874224821643291"><ele>1509.5</ele><time>2026-04-24T17:32:07.999Z</time></trkpt><trkpt lat="31.372927778256653" lon="-5.873919775984202"><ele>1509.0</ele><time>2026-04-24T17:32:08.999Z</time></trkpt><trkpt lat="31.37285477536412" lon="-5.87361675829166"><ele>1509.0</ele><time>2026-04-24T17:32:09.999Z</time></trkpt><trkpt lat="31.372776084939225" lon="-5.873309139622969"><ele>1509.0</ele><time>2026-04-24T17:32:10.999Z</time></trkpt><trkpt lat="31.372692958564574" lon="-5.872999009414892"><ele>1509.0</ele><time>2026-04-24T17:32:11.999Z</time></trkpt><trkpt lat="31.372605230192928" lon="-5.872686156356682"><ele>1509.0</ele><time>2026-04-24T17:32:12.999Z</time></trkpt><trkpt lat="31.372515927342366" lon="-5.872368774858452"><ele>1509.0</ele><time>2026-04-24T17:32:13.999Z</time></trkpt><trkpt lat="31.372428272351957" lon="-5.87205094936"><ele>1509.0</ele><time>2026-04-24T17:32:14.999Z</time></trkpt><trkpt lat="31.372343174256347" lon="-5.871728412699233"><ele>1508.0</ele><time>2026-04-24T17:32:15.999Z</time></trkpt><trkpt lat="31.37225809472702" lon="-5.871407955579841"><ele>1507.0</ele><time>2026-04-24T17:32:16.999Z</time></trkpt><trkpt lat="31.372175155132528" lon="-5.871088036875959"><ele>1507.0</ele><time>2026-04-24T17:32:17.999Z</time></trkpt><trkpt lat="31.37209161463636" lon="-5.8707663347550945"><ele>1507.0</ele><time>2026-04-24T17:32:18.999Z</time></trkpt><trkpt lat="31.372007592098026" lon="-5.8704457820443485"><ele>1507.0</ele><time>2026-04-24T17:32:19.999Z</time></trkpt><trkpt lat="31.371923972974148" lon="-5.870130592664972"><ele>1507.0</ele><time>2026-04-24T17:32:20.999Z</time></trkpt><trkpt lat="31.371842439711443" lon="-5.8698238005036485"><ele>1506.0</ele><time>2026-04-24T17:32:21.999Z</time></trkpt><trkpt lat="31.371763431870182" lon="-5.869519000217741"><ele>1505.0</ele><time>2026-04-24T17:32:22.999Z</time></trkpt><trkpt lat="31.371684791623128" lon="-5.869216601267441"><ele>1505.0</ele><time>2026-04-24T17:32:23.999Z</time></trkpt><trkpt lat="31.371605857864424" lon="-5.8689154819471145"><ele>1505.0</ele><time>2026-04-24T17:32:24.999Z</time></trkpt><trkpt lat="31.371528677583633" lon="-5.868618346079294"><ele>1504.5</ele><time>2026-04-24T17:32:25.999Z</time></trkpt><trkpt lat="31.37145220826004" lon="-5.868323686225824"><ele>1504.0</ele><time>2026-04-24T17:32:27Z</time></trkpt><trkpt lat="31.371377566493393" lon="-5.868032149755815"><ele>1504.5</ele><time>2026-04-24T17:32:28Z</time></trkpt><trkpt lat="31.371304359118533" lon="-5.867744119884635"><ele>1505.0</ele><time>2026-04-24T17:32:29Z</time></trkpt><trkpt lat="31.371229448086698" lon="-5.867457387801364"><ele>1504.0</ele><time>2026-04-24T17:32:30Z</time></trkpt><trkpt lat="31.371153583655918" lon="-5.867171008954"><ele>1503.0</ele><time>2026-04-24T17:32:31Z</time></trkpt><trkpt lat="31.37107904691775" lon="-5.866887582316795"><ele>1502.5</ele><time>2026-04-24T17:32:32Z</time></trkpt><trkpt lat="31.37100620883495" lon="-5.8666072603084745"><ele>1502.0</ele><time>2026-04-24T17:32:33Z</time></trkpt><trkpt lat="31.37093276319841" lon="-5.866326706781803"><ele>1502.0</ele><time>2026-04-24T17:32:34Z</time></trkpt><trkpt lat="31.370861128332223" lon="-5.866046193808764"><ele>1502.0</ele><time>2026-04-24T17:32:35Z</time></trkpt><trkpt lat="31.370789654742623" lon="-5.865766615943907"><ele>1501.5</ele><time>2026-04-24T17:32:36Z</time></trkpt><trkpt lat="31.370716385511237" lon="-5.865487265840616"><ele>1501.0</ele><time>2026-04-24T17:32:37Z</time></trkpt><trkpt lat="31.370643470049696" lon="-5.865207630386708"><ele>1499.5</ele><time>2026-04-24T17:32:38Z</time></trkpt><trkpt lat="31.370570833475757" lon="-5.864925852919025"><ele>1498.0</ele><time>2026-04-24T17:32:39Z</time></trkpt><trkpt lat="31.370497565705154" lon="-5.864646918938247"><ele>1497.5</ele><time>2026-04-24T17:32:40Z</time></trkpt><trkpt lat="31.37042474626589" lon="-5.864369340166118"><ele>1497.0</ele><time>2026-04-24T17:32:41Z</time></trkpt><trkpt lat="31.37035487279238" lon="-5.86409217023154"><ele>1497.0</ele><time>2026-04-24T17:32:42Z</time></trkpt><trkpt lat="31.37028736196257" lon="-5.863816642756504"><ele>1497.0</ele><time>2026-04-24T17:32:43Z</time></trkpt><trkpt lat="31.37021680393016" lon="-5.863543783913516"><ele>1496.5</ele><time>2026-04-24T17:32:44Z</time></trkpt><trkpt lat="31.370144492108466" lon="-5.863277000889624"><ele>1496.0</ele><time>2026-04-24T17:32:45Z</time></trkpt><trkpt lat="31.37007430143011" lon="-5.863015801259792"><ele>1496.0</ele><time>2026-04-24T17:32:46Z</time></trkpt><trkpt lat="31.370004859308644" lon="-5.862758441783099"><ele>1496.0</ele><time>2026-04-24T17:32:47Z</time></trkpt><trkpt lat="31.369937950760807" lon="-5.862504248105144"><ele>1495.6666666666667</ele><time>2026-04-24T17:32:48Z</time></trkpt><trkpt lat="31.369872721529056" lon="-5.862252020234233"><ele>1495.3333333333333</ele><time>2026-04-24T17:32:49Z</time></trkpt><trkpt lat="31.36980970724938" lon="-5.862001931489757"><ele>1495.0</ele><time>2026-04-24T17:32:50Z</time></trkpt><trkpt lat="31.369748840088626" lon="-5.861753032688028"><ele>1494.3333333333333</ele><time>2026-04-24T17:32:51Z</time></trkpt><trkpt lat="31.36968494303338" lon="-5.861506620231462"><ele>1493.6666666666667</ele><time>2026-04-24T17:32:52Z</time></trkpt><trkpt lat="31.369617255650958" lon="-5.861258317221271"><ele>1493.0</ele><time>2026-04-24T17:32:53Z</time></trkpt><trkpt lat="31.369553125954866" lon="-5.861009471327455"><ele>1493.5</ele><time>2026-04-24T17:32:54Z</time></trkpt><trkpt lat="31.369488938304322" lon="-5.86075777328171"><ele>1494.0</ele><time>2026-04-24T17:32:55Z</time></trkpt><trkpt lat="31.369423051345226" lon="-5.860503459698797"><ele>1494.0</ele><time>2026-04-24T17:32:56Z</time></trkpt><trkpt lat="31.36935462031651" lon="-5.860247230470071"><ele>1494.0</ele><time>2026-04-24T17:32:57Z</time></trkpt><trkpt lat="31.36928728147772" lon="-5.859990036363358"><ele>1494.0</ele><time>2026-04-24T17:32:58Z</time></trkpt><trkpt lat="31.36922009418051" lon="-5.8597315580316955"><ele>1494.0</ele><time>2026-04-24T17:32:59Z</time></trkpt><trkpt lat="31.369148731791835" lon="-5.8594703602761085"><ele>1493.0</ele><time>2026-04-24T17:33:00Z</time></trkpt><trkpt lat="31.369077818318093" lon="-5.859201938629496"><ele>1492.0</ele><time>2026-04-24T17:33:01Z</time></trkpt><trkpt lat="31.36900628313997" lon="-5.8589309710531685"><ele>1492.0</ele><time>2026-04-24T17:33:02Z</time></trkpt><trkpt lat="31.36893709622298" lon="-5.858658988455655"><ele>1492.0</ele><time>2026-04-24T17:33:03Z</time></trkpt><trkpt lat="31.36886779495646" lon="-5.858387011161404"><ele>1491.0</ele><time>2026-04-24T17:33:04Z</time></trkpt><trkpt lat="31.36879767301587" lon="-5.85811575956594"><ele>1490.0</ele><time>2026-04-24T17:33:05Z</time></trkpt><trkpt lat="31.368727364037245" lon="-5.857843684358776"><ele>1490.5</ele><time>2026-04-24T17:33:06Z</time></trkpt><trkpt lat="31.368657714093803" lon="-5.857569977756278"><ele>1491.0</ele><time>2026-04-24T17:33:07Z</time></trkpt><trkpt lat="31.368586029783238" lon="-5.857295159237595"><ele>1491.0</ele><time>2026-04-24T17:33:08Z</time></trkpt><trkpt lat="31.368514511924293" lon="-5.857020114588424"><ele>1491.0</ele><time>2026-04-24T17:33:09Z</time></trkpt><trkpt lat="31.368439551152825" lon="-5.856741419387356"><ele>1490.5</ele><time>2026-04-24T17:33:10Z</time></trkpt><trkpt lat="31.368366400332103" lon="-5.856463246258306"><ele>1490.0</ele><time>2026-04-24T17:33:11Z</time></trkpt><trkpt lat="31.368295320084837" lon="-5.856186348662134"><ele>1490.0</ele><time>2026-04-24T17:33:12Z</time></trkpt><trkpt lat="31.36822351656493" lon="-5.855909528612821"><ele>1490.0</ele><time>2026-04-24T17:33:13Z</time></trkpt><trkpt lat="31.3681535419616" lon="-5.855631739873458"><ele>1490.0</ele><time>2026-04-24T17:33:14Z</time></trkpt><trkpt lat="31.36806738049795" lon="-5.8553564347202895"><ele>1490.0</ele><time>2026-04-24T17:33:15Z</time></trkpt><trkpt lat="31.36799622812081" lon="-5.855083952847443"><ele>1489.0</ele><time>2026-04-24T17:33:16Z</time></trkpt><trkpt lat="31.36798478575847" lon="-5.854769332830844"><ele>1488.0</ele><time>2026-04-24T17:33:17Z</time></trkpt><trkpt lat="31.367951890414417" lon="-5.854471526904026"><ele>1488.0</ele><time>2026-04-24T17:33:18Z</time></trkpt><trkpt lat="31.36793488716451" lon="-5.854167134835622"><ele>1488.0</ele><time>2026-04-24T17:33:19Z</time></trkpt><trkpt lat="31.367930341125867" lon="-5.8538590604387535"><ele>1488.0</ele><time>2026-04-24T17:33:20Z</time></trkpt><trkpt lat="31.36793993558721" lon="-5.853543889352357"><ele>1488.0</ele><time>2026-04-24T17:33:21Z</time></trkpt><trkpt lat="31.367961070378257" lon="-5.853226244766947"><ele>1487.5</ele><time>2026-04-24T17:33:22Z</time></trkpt><trkpt lat="31.36799121059358" lon="-5.8529081357674535"><ele>1487.0</ele><time>2026-04-24T17:33:23Z</time></trkpt><trkpt lat="31.36803506341287" lon="-5.852596290901715"><ele>1486.0</ele><time>2026-04-24T17:33:24Z</time></trkpt><trkpt lat="31.36809002556241" lon="-5.852292612985477"><ele>1485.0</ele><time>2026-04-24T17:33:25Z</time></trkpt><trkpt lat="31.36814210158907" lon="-5.851995115639792"><ele>1484.5</ele><time>2026-04-24T17:33:26Z</time></trkpt><trkpt lat="31.36819252687283" lon="-5.851705617219144"><ele>1484.0</ele><time>2026-04-24T17:33:27Z</time></trkpt><trkpt lat="31.368242802298305" lon="-5.85142368644581"><ele>1484.0</ele><time>2026-04-24T17:33:28Z</time></trkpt><trkpt lat="31.368292052569128" lon="-5.851149481626039"><ele>1484.0</ele><time>2026-04-24T17:33:29Z</time></trkpt><trkpt lat="31.36834080561063" lon="-5.850879861726201"><ele>1483.5</ele><time>2026-04-24T17:33:30Z</time></trkpt><trkpt lat="31.368390482488056" lon="-5.850613544932195"><ele>1483.0</ele><time>2026-04-24T17:33:31Z</time></trkpt><trkpt lat="31.36843940814403" lon="-5.8503500509079664"><ele>1482.0</ele><time>2026-04-24T17:33:32Z</time></trkpt><trkpt lat="31.368486205158455" lon="-5.850080985870813"><ele>1481.0</ele><time>2026-04-24T17:33:32.999Z</time></trkpt><trkpt lat="31.36853086702902" lon="-5.849803402736519"><ele>1481.0</ele><time>2026-04-24T17:33:33.999Z</time></trkpt><trkpt lat="31.3685725424384" lon="-5.849520359416663"><ele>1481.0</ele><time>2026-04-24T17:33:34.999Z</time></trkpt><trkpt lat="31.36861314865733" lon="-5.849238564383116"><ele>1481.0</ele><time>2026-04-24T17:33:35.999Z</time></trkpt><trkpt lat="31.368654513237836" lon="-5.848956422679922"><ele>1481.0</ele><time>2026-04-24T17:33:36.999Z</time></trkpt><trkpt lat="31.36869894396062" lon="-5.848675536785885"><ele>1480.5</ele><time>2026-04-24T17:33:37.999Z</time></trkpt><trkpt lat="31.368742837187494" lon="-5.848391907853307"><ele>1480.0</ele><time>2026-04-24T17:33:38.999Z</time></trkpt><trkpt lat="31.368787273800958" lon="-5.848107711799467"><ele>1480.0</ele><time>2026-04-24T17:33:39.999Z</time></trkpt><trkpt lat="31.368834609893067" lon="-5.847824078177505"><ele>1480.0</ele><time>2026-04-24T17:33:40.999Z</time></trkpt><trkpt lat="31.368882197481025" lon="-5.847533345113662"><ele>1481.0</ele><time>2026-04-24T17:33:41.999Z</time></trkpt><trkpt lat="31.36892893666957" lon="-5.847237353836846"><ele>1482.0</ele><time>2026-04-24T17:33:42.999Z</time></trkpt><trkpt lat="31.368977860008318" lon="-5.846937008946694"><ele>1481.0</ele><time>2026-04-24T17:33:43.999Z</time></trkpt><trkpt lat="31.36902734405912" lon="-5.846633033305062"><ele>1480.0</ele><time>2026-04-24T17:33:44.999Z</time></trkpt><trkpt lat="31.36907783714971" lon="-5.84632638254189"><ele>1480.0</ele><time>2026-04-24T17:33:45.999Z</time></trkpt><trkpt lat="31.36913384164779" lon="-5.846018972257881"><ele>1480.0</ele><time>2026-04-24T17:33:46.999Z</time></trkpt><trkpt lat="31.36919839417285" lon="-5.84571076630521"><ele>1479.5</ele><time>2026-04-24T17:33:47.999Z</time></trkpt><trkpt lat="31.369270735327255" lon="-5.845401964910464"><ele>1479.0</ele><time>2026-04-24T17:33:48.999Z</time></trkpt><trkpt lat="31.36934849067747" lon="-5.84509291282971"><ele>1478.0</ele><time>2026-04-24T17:33:49.999Z</time></trkpt><trkpt lat="31.36942870288865" lon="-5.844780329982167"><ele>1477.0</ele><time>2026-04-24T17:33:50.999Z</time></trkpt><trkpt lat="31.369509828912435" lon="-5.844466649990276"><ele>1476.5</ele><time>2026-04-24T17:33:51.999Z</time></trkpt><trkpt lat="31.36959131660029" lon="-5.844153288664184"><ele>1476.0</ele><time>2026-04-24T17:33:52.999Z</time></trkpt><trkpt lat="31.36967217444818" lon="-5.8438387177056645"><ele>1476.0</ele><time>2026-04-24T17:33:53.999Z</time></trkpt><trkpt lat="31.369754114797946" lon="-5.843525483665863"><ele>1476.0</ele><time>2026-04-24T17:33:54.999Z</time></trkpt><trkpt lat="31.36983653158388" lon="-5.8432111397384"><ele>1476.0</ele><time>2026-04-24T17:33:55.999Z</time></trkpt><trkpt lat="31.369916603630102" lon="-5.842895670738706"><ele>1476.0</ele><time>2026-04-24T17:33:56.999Z</time></trkpt><trkpt lat="31.369999887667014" lon="-5.842582842914831"><ele>1475.0</ele><time>2026-04-24T17:33:57.999Z</time></trkpt><trkpt lat="31.370081294825443" lon="-5.842269806438806"><ele>1474.0</ele><time>2026-04-24T17:33:58.999Z</time></trkpt><trkpt lat="31.3701622396412" lon="-5.841957875904601"><ele>1473.5</ele><time>2026-04-24T17:33:59.999Z</time></trkpt><trkpt lat="31.370242626857404" lon="-5.841646156257192"><ele>1473.0</ele><time>2026-04-24T17:34:00.999Z</time></trkpt><trkpt lat="31.370319856454227" lon="-5.841334563770804"><ele>1473.0</ele><time>2026-04-24T17:34:01.999Z</time></trkpt><trkpt lat="31.370401109575454" lon="-5.841028158393312"><ele>1473.0</ele><time>2026-04-24T17:34:02.999Z</time></trkpt><trkpt lat="31.370480427541118" lon="-5.840721593858497"><ele>1472.5</ele><time>2026-04-24T17:34:03.999Z</time></trkpt><trkpt lat="31.37055882548512" lon="-5.840419611149051"><ele>1472.0</ele><time>2026-04-24T17:34:04.999Z</time></trkpt><trkpt lat="31.370640607893232" lon="-5.840116983233403"><ele>1471.5</ele><time>2026-04-24T17:34:05.999Z</time></trkpt><trkpt lat="31.37071942456156" lon="-5.8398142256613195"><ele>1471.0</ele><time>2026-04-24T17:34:06.999Z</time></trkpt><trkpt lat="31.37079818788421" lon="-5.839511014031713"><ele>1471.5</ele><time>2026-04-24T17:34:07.999Z</time></trkpt><trkpt lat="31.370876139752088" lon="-5.83920898086222"><ele>1472.0</ele><time>2026-04-24T17:34:08.999Z</time></trkpt><trkpt lat="31.370954422348028" lon="-5.838905830344046"><ele>1472.0</ele><time>2026-04-24T17:34:09.999Z</time></trkpt><trkpt lat="31.371030113426198" lon="-5.8386048915744"><ele>1472.0</ele><time>2026-04-24T17:34:10.999Z</time></trkpt><trkpt lat="31.371104607363915" lon="-5.838308930561159"><ele>1472.5</ele><time>2026-04-24T17:34:11.999Z</time></trkpt><trkpt lat="31.371178845550197" lon="-5.83801656649915"><ele>1473.0</ele><time>2026-04-24T17:34:12.999Z</time></trkpt><trkpt lat="31.371254092899687" lon="-5.837731271140314"><ele>1473.0</ele><time>2026-04-24T17:34:13.999Z</time></trkpt><trkpt lat="31.371324909414565" lon="-5.83745498427582"><ele>1473.0</ele><time>2026-04-24T17:34:14.999Z</time></trkpt><trkpt lat="31.371391557178583" lon="-5.837200479119043"><ele>1473.0</ele><time>2026-04-24T17:34:15.999Z</time></trkpt><trkpt lat="31.371452832261912" lon="-5.8369669530164225"><ele>1473.0</ele><time>2026-04-24T17:34:16.999Z</time></trkpt><trkpt lat="31.371509164003466" lon="-5.836750191985397"><ele>1473.0</ele><time>2026-04-24T17:34:17.999Z</time></trkpt><trkpt lat="31.37156403682302" lon="-5.836544444499003"><ele>1472.3333333333333</ele><time>2026-04-24T17:34:18.999Z</time></trkpt><trkpt lat="31.371614227303414" lon="-5.83634892878859"><ele>1471.6666666666665</ele><time>2026-04-24T17:34:19.999Z</time></trkpt><trkpt lat="31.371662031595918" lon="-5.83616076809532"><ele>1471.0</ele><time>2026-04-24T17:34:20.999Z</time></trkpt><trkpt lat="31.371710992164964" lon="-5.835972738654624"><ele>1470.3333333333333</ele><time>2026-04-24T17:34:21.999Z</time></trkpt><trkpt lat="31.371753481823667" lon="-5.835784197721377"><ele>1469.6666666666667</ele><time>2026-04-24T17:34:22.999Z</time></trkpt><trkpt lat="31.37180002569134" lon="-5.835596312836429"><ele>1469.0</ele><time>2026-04-24T17:34:23.999Z</time></trkpt><trkpt lat="31.371848565655238" lon="-5.835410371532257"><ele>1469.0</ele><time>2026-04-24T17:34:24.999Z</time></trkpt><trkpt lat="31.37190024767807" lon="-5.835221130647781"><ele>1469.0</ele><time>2026-04-24T17:34:25.999Z</time></trkpt><trkpt lat="31.371954356831505" lon="-5.835031095826405"><ele>1469.0</ele><time>2026-04-24T17:34:26.999Z</time></trkpt><trkpt lat="31.3720139159604" lon="-5.834844147678349"><ele>1469.0</ele><time>2026-04-24T17:34:27.999Z</time></trkpt><trkpt lat="31.372082724700245" lon="-5.834660573987502"><ele>1469.0</ele><time>2026-04-24T17:34:28.999Z</time></trkpt><trkpt lat="31.372162252791377" lon="-5.834476919669754"><ele>1469.0</ele><time>2026-04-24T17:34:29.999Z</time></trkpt><trkpt lat="31.372247416537203" lon="-5.834292270459823"><ele>1470.6666666666667</ele><time>2026-04-24T17:34:30.999Z</time></trkpt><trkpt lat="31.37234000008871" lon="-5.834103053296682"><ele>1472.3333333333333</ele><time>2026-04-24T17:34:31.999Z</time></trkpt><trkpt lat="31.372437081896855" lon="-5.833914283588272"><ele>1474.0</ele><time>2026-04-24T17:34:33Z</time></trkpt><trkpt lat="31.37253949410927" lon="-5.833729121881648"><ele>1474.0</ele><time>2026-04-24T17:34:34Z</time></trkpt><trkpt lat="31.372646287134053" lon="-5.83354566238467"><ele>1474.0</ele><time>2026-04-24T17:34:35Z</time></trkpt><trkpt lat="31.37275313529968" lon="-5.8333619181176575"><ele>1474.0</ele><time>2026-04-24T17:34:36Z</time></trkpt><trkpt lat="31.372857992426493" lon="-5.833181741075108"><ele>1474.0</ele><time>2026-04-24T17:34:37Z</time></trkpt><trkpt lat="31.372966563607914" lon="-5.833000383772518"><ele>1474.0</ele><time>2026-04-24T17:34:38Z</time></trkpt><trkpt lat="31.37307560180864" lon="-5.83281717775206"><ele>1474.0</ele><time>2026-04-24T17:34:39Z</time></trkpt><trkpt lat="31.373184757855586" lon="-5.832633225105233"><ele>1474.3333333333333</ele><time>2026-04-24T17:34:40Z</time></trkpt><trkpt lat="31.373292261345366" lon="-5.832451987058973"><ele>1474.6666666666667</ele><time>2026-04-24T17:34:41Z</time></trkpt><trkpt lat="31.37340149428028" lon="-5.83226659793697"><ele>1475.0</ele><time>2026-04-24T17:34:42Z</time></trkpt><trkpt lat="31.373512778114605" lon="-5.832073713404438"><ele>1475.0</ele><time>2026-04-24T17:34:43Z</time></trkpt><trkpt lat="31.373619811789865" lon="-5.831874430329599"><ele>1475.0</ele><time>2026-04-24T17:34:44Z</time></trkpt><trkpt lat="31.373693836791816" lon="-5.831654951785872"><ele>1475.0</ele><time>2026-04-24T17:34:45Z</time></trkpt><trkpt lat="31.37378078887474" lon="-5.831441785800044"><ele>1475.3333333333335</ele><time>2026-04-24T17:34:46Z</time></trkpt><trkpt lat="31.37386846460233" lon="-5.831227149788665"><ele>1475.6666666666667</ele><time>2026-04-24T17:34:47Z</time></trkpt><trkpt lat="31.373947157622606" lon="-5.831010129996175"><ele>1476.0</ele><time>2026-04-24T17:34:48Z</time></trkpt><trkpt lat="31.37401637381849" lon="-5.830789264818103"><ele>1476.0</ele><time>2026-04-24T17:34:49Z</time></trkpt><trkpt lat="31.374079161792267" lon="-5.830559855076504"><ele>1476.0</ele><time>2026-04-24T17:34:50Z</time></trkpt><trkpt lat="31.374135963152327" lon="-5.830320201811739"><ele>1476.0</ele><time>2026-04-24T17:34:51Z</time></trkpt><trkpt lat="31.37419287969779" lon="-5.830081245052084"><ele>1476.3333333333333</ele><time>2026-04-24T17:34:52Z</time></trkpt><trkpt lat="31.3742470414156" lon="-5.829843854859582"><ele>1476.6666666666665</ele><time>2026-04-24T17:34:53Z</time></trkpt><trkpt lat="31.37430171627334" lon="-5.829602881892806"><ele>1477.0</ele><time>2026-04-24T17:34:54Z</time></trkpt><trkpt lat="31.374369928682103" lon="-5.829363711422442"><ele>1477.0</ele><time>2026-04-24T17:34:55Z</time></trkpt><trkpt lat="31.374422068614436" lon="-5.829114195909125"><ele>1477.0</ele><time>2026-04-24T17:34:56Z</time></trkpt><trkpt lat="31.37447578352049" lon="-5.828864746211373"><ele>1477.0</ele><time>2026-04-24T17:34:57Z</time></trkpt><trkpt lat="31.374528595492848" lon="-5.828616441147441"><ele>1477.0</ele><time>2026-04-24T17:34:58Z</time></trkpt><trkpt lat="31.374579619390527" lon="-5.8283713012914005"><ele>1477.0</ele><time>2026-04-24T17:34:59Z</time></trkpt><trkpt lat="31.374631456699014" lon="-5.82812486303935"><ele>1477.0</ele><time>2026-04-24T17:35:00Z</time></trkpt><trkpt lat="31.374685280117973" lon="-5.827875999490154"><ele>1476.3333333333333</ele><time>2026-04-24T17:35:01Z</time></trkpt><trkpt lat="31.37473896094741" lon="-5.8276259387778895"><ele>1475.6666666666667</ele><time>2026-04-24T17:35:02Z</time></trkpt><trkpt lat="31.374791801602818" lon="-5.827376395521151"><ele>1475.0</ele><time>2026-04-24T17:35:03Z</time></trkpt><trkpt lat="31.374845280217134" lon="-5.827126715297214"><ele>1475.0</ele><time>2026-04-24T17:35:04Z</time></trkpt><trkpt lat="31.374899453957944" lon="-5.826878524889698"><ele>1475.0</ele><time>2026-04-24T17:35:05Z</time></trkpt><trkpt lat="31.374954030793308" lon="-5.82662815234999"><ele>1475.0</ele><time>2026-04-24T17:35:06Z</time></trkpt><trkpt lat="31.37500811442064" lon="-5.826377999049773"><ele>1475.0</ele><time>2026-04-24T17:35:07Z</time></trkpt><trkpt lat="31.375062648898528" lon="-5.826128439519435"><ele>1475.0</ele><time>2026-04-24T17:35:08Z</time></trkpt><trkpt lat="31.37511662906772" lon="-5.825881300949958"><ele>1475.0</ele><time>2026-04-24T17:35:09Z</time></trkpt><trkpt lat="31.375171121727814" lon="-5.825637263227788"><ele>1475.0</ele><time>2026-04-24T17:35:10Z</time></trkpt><trkpt lat="31.37522459114149" lon="-5.825394053435402"><ele>1475.0</ele><time>2026-04-24T17:35:11Z</time></trkpt><trkpt lat="31.375276214956635" lon="-5.825152419648363"><ele>1475.0</ele><time>2026-04-24T17:35:12Z</time></trkpt><trkpt lat="31.37532700450225" lon="-5.824906642833545"><ele>1475.0</ele><time>2026-04-24T17:35:13Z</time></trkpt><trkpt lat="31.37537251752067" lon="-5.824652245191529"><ele>1475.0</ele><time>2026-04-24T17:35:14Z</time></trkpt><trkpt lat="31.37541436661737" lon="-5.824396764916148"><ele>1475.0</ele><time>2026-04-24T17:35:15Z</time></trkpt><trkpt lat="31.375451919398817" lon="-5.824139640497053"><ele>1476.0</ele><time>2026-04-24T17:35:16Z</time></trkpt><trkpt lat="31.375486882572915" lon="-5.823882559470917"><ele>1477.0</ele><time>2026-04-24T17:35:17Z</time></trkpt><trkpt lat="31.375519002489796" lon="-5.8236311738099396"><ele>1478.0</ele><time>2026-04-24T17:35:18Z</time></trkpt><trkpt lat="31.37554991875478" lon="-5.823382469929855"><ele>1478.0</ele><time>2026-04-24T17:35:19Z</time></trkpt><trkpt lat="31.37558094820255" lon="-5.823138206631196"><ele>1478.0</ele><time>2026-04-24T17:35:20Z</time></trkpt><trkpt lat="31.375613493409652" lon="-5.8228936083001805"><ele>1478.0</ele><time>2026-04-24T17:35:21Z</time></trkpt><trkpt lat="31.375647876929786" lon="-5.822649436043704"><ele>1477.6666666666667</ele><time>2026-04-24T17:35:22Z</time></trkpt><trkpt lat="31.375682564909226" lon="-5.822402362988376"><ele>1477.3333333333333</ele><time>2026-04-24T17:35:23Z</time></trkpt><trkpt lat="31.37571789903149" lon="-5.822154892709492"><ele>1477.0</ele><time>2026-04-24T17:35:24Z</time></trkpt><trkpt lat="31.375755777193042" lon="-5.821901160241515"><ele>1477.6666666666665</ele><time>2026-04-24T17:35:25Z</time></trkpt><trkpt lat="31.375791289080578" lon="-5.821646002260299"><ele>1478.3333333333333</ele><time>2026-04-24T17:35:26Z</time></trkpt><trkpt lat="31.37582746797758" lon="-5.821392379977942"><ele>1479.0</ele><time>2026-04-24T17:35:27Z</time></trkpt><trkpt lat="31.37586312976954" lon="-5.821140272366093"><ele>1479.0</ele><time>2026-04-24T17:35:28Z</time></trkpt><trkpt lat="31.375897533346468" lon="-5.82089042768906"><ele>1479.0</ele><time>2026-04-24T17:35:29Z</time></trkpt><trkpt lat="31.37593074494715" lon="-5.820642636610746"><ele>1479.0</ele><time>2026-04-24T17:35:30Z</time></trkpt><trkpt lat="31.375960793156604" lon="-5.820385730704562"><ele>1477.5</ele><time>2026-04-24T17:35:31Z</time></trkpt><trkpt lat="31.37599990589747" lon="-5.82010584863973"><ele>1476.0</ele><time>2026-04-24T17:35:32Z</time></trkpt><trkpt lat="31.37604509879477" lon="-5.819818449341373"><ele>1476.0</ele><time>2026-04-24T17:35:33Z</time></trkpt><trkpt lat="31.376092369041043" lon="-5.819516681134054"><ele>1476.0</ele><time>2026-04-24T17:35:34Z</time></trkpt><trkpt lat="31.376144929363374" lon="-5.819175072909451"><ele>1475.0</ele><time>2026-04-24T17:35:35Z</time></trkpt><trkpt lat="31.376192848423248" lon="-5.818812826812285"><ele>1474.0</ele><time>2026-04-24T17:35:36Z</time></trkpt><trkpt lat="31.376229791852502" lon="-5.818458320505063"><ele>1474.0</ele><time>2026-04-24T17:35:37Z</time></trkpt><trkpt lat="31.376265132058116" lon="-5.81811651119522"><ele>1474.0</ele><time>2026-04-24T17:35:38Z</time></trkpt><trkpt lat="31.376306084037626" lon="-5.817791402575731"><ele>1473.0</ele><time>2026-04-24T17:35:39Z</time></trkpt><trkpt lat="31.376354996580154" lon="-5.817477230436424"><ele>1472.0</ele><time>2026-04-24T17:35:40Z</time></trkpt><trkpt lat="31.37641321019859" lon="-5.817167243430518"><ele>1472.0</ele><time>2026-04-24T17:35:41Z</time></trkpt><trkpt lat="31.376485659109555" lon="-5.816866136205335"><ele>1472.0</ele><time>2026-04-24T17:35:42Z</time></trkpt><trkpt lat="31.376574106895863" lon="-5.816569752844471"><ele>1472.0</ele><time>2026-04-24T17:35:43Z</time></trkpt><trkpt lat="31.3766884940125" lon="-5.8162760945608865"><ele>1472.0</ele><time>2026-04-24T17:35:44Z</time></trkpt><trkpt lat="31.376827048008366" lon="-5.815989184153594"><ele>1471.0</ele><time>2026-04-24T17:35:45Z</time></trkpt><trkpt lat="31.37697050582219" lon="-5.8157029938763065"><ele>1470.0</ele><time>2026-04-24T17:35:46Z</time></trkpt><trkpt lat="31.377119671246582" lon="-5.815419911756902"><ele>1468.0</ele><time>2026-04-24T17:35:46.999Z</time></trkpt><trkpt lat="31.377278408334266" lon="-5.815139241997681"><ele>1466.0</ele><time>2026-04-24T17:35:47.999Z</time></trkpt><trkpt lat="31.37744456931894" lon="-5.8148645934382"><ele>1466.0</ele><time>2026-04-24T17:35:48.999Z</time></trkpt><trkpt lat="31.37761747821338" lon="-5.814597628877201"><ele>1466.0</ele><time>2026-04-24T17:35:49.999Z</time></trkpt><trkpt lat="31.37779038087616" lon="-5.814337618142095"><ele>1466.0</ele><time>2026-04-24T17:35:50.999Z</time></trkpt><trkpt lat="31.377958925412045" lon="-5.814075521279621"><ele>1466.0</ele><time>2026-04-24T17:35:51.999Z</time></trkpt><trkpt lat="31.378125638660627" lon="-5.813811166471446"><ele>1465.5</ele><time>2026-04-24T17:35:52.999Z</time></trkpt><trkpt lat="31.37829373908778" lon="-5.813549600713572"><ele>1465.0</ele><time>2026-04-24T17:35:53.999Z</time></trkpt><trkpt lat="31.37846058173782" lon="-5.81328927182834"><ele>1464.0</ele><time>2026-04-24T17:35:54.999Z</time></trkpt><trkpt lat="31.37862428318155" lon="-5.81303135093354"><ele>1463.0</ele><time>2026-04-24T17:35:55.999Z</time></trkpt><trkpt lat="31.37878734301016" lon="-5.812774252415423"><ele>1462.0</ele><time>2026-04-24T17:35:56.999Z</time></trkpt><trkpt lat="31.378953761624246" lon="-5.812516754666696"><ele>1461.0</ele><time>2026-04-24T17:35:57.999Z</time></trkpt><trkpt lat="31.379122821071064" lon="-5.812257088138634"><ele>1461.0</ele><time>2026-04-24T17:35:58.999Z</time></trkpt><trkpt lat="31.379293468933774" lon="-5.811994465419424"><ele>1461.0</ele><time>2026-04-24T17:35:59.999Z</time></trkpt><trkpt lat="31.379461096731355" lon="-5.811732718728328"><ele>1461.0</ele><time>2026-04-24T17:36:00.999Z</time></trkpt><trkpt lat="31.379625740655094" lon="-5.81147014946913"><ele>1461.0</ele><time>2026-04-24T17:36:01.999Z</time></trkpt><trkpt lat="31.379788243918515" lon="-5.811213040771381"><ele>1463.0</ele><time>2026-04-24T17:36:02.999Z</time></trkpt><trkpt lat="31.379945261374893" lon="-5.81096716668805"><ele>1465.0</ele><time>2026-04-24T17:36:03.999Z</time></trkpt><trkpt lat="31.38007981279149" lon="-5.810749155160991"><ele>1465.0</ele><time>2026-04-24T17:36:04.999Z</time></trkpt><trkpt lat="31.380211623896056" lon="-5.810534363978423"><ele>1465.0</ele><time>2026-04-24T17:36:05.999Z</time></trkpt><trkpt lat="31.380338418088794" lon="-5.810329951308784"><ele>1465.0</ele><time>2026-04-24T17:36:06.999Z</time></trkpt><trkpt lat="31.38045385280818" lon="-5.810134983206029"><ele>1465.3333333333333</ele><time>2026-04-24T17:36:07.999Z</time></trkpt><trkpt lat="31.380569290889515" lon="-5.809929848332723"><ele>1465.6666666666667</ele><time>2026-04-24T17:36:08.999Z</time></trkpt><trkpt lat="31.380689348912945" lon="-5.80972062090251"><ele>1466.0</ele><time>2026-04-24T17:36:09.999Z</time></trkpt><trkpt lat="31.380816597339976" lon="-5.80950266877542"><ele>1465.5</ele><time>2026-04-24T17:36:10.999Z</time></trkpt><trkpt lat="31.380947013976563" lon="-5.809277746111304"><ele>1465.0</ele><time>2026-04-24T17:36:11.999Z</time></trkpt><trkpt lat="31.381082562333884" lon="-5.809046311276925"><ele>1465.0</ele><time>2026-04-24T17:36:12.999Z</time></trkpt><trkpt lat="31.3812208026434" lon="-5.808806675475871"><ele>1465.0</ele><time>2026-04-24T17:36:13.999Z</time></trkpt><trkpt lat="31.381361987061" lon="-5.808558342356126"><ele>1464.5</ele><time>2026-04-24T17:36:14.999Z</time></trkpt><trkpt lat="31.381506460237155" lon="-5.8083026241429065"><ele>1464.0</ele><time>2026-04-24T17:36:15.999Z</time></trkpt><trkpt lat="31.38165654446783" lon="-5.8080431676290285"><ele>1464.0</ele><time>2026-04-24T17:36:16.999Z</time></trkpt><trkpt lat="31.381807689810618" lon="-5.807785851565783"><ele>1464.0</ele><time>2026-04-24T17:36:17.999Z</time></trkpt><trkpt lat="31.38195581662289" lon="-5.807528059069032"><ele>1463.0</ele><time>2026-04-24T17:36:18.999Z</time></trkpt><trkpt lat="31.382097658571045" lon="-5.807275913026551"><ele>1462.0</ele><time>2026-04-24T17:36:19.999Z</time></trkpt><trkpt lat="31.382235192884078" lon="-5.807029997419763"><ele>1461.0</ele><time>2026-04-24T17:36:20.999Z</time></trkpt><trkpt lat="31.382365093064234" lon="-5.806799560940127"><ele>1460.0</ele><time>2026-04-24T17:36:21.999Z</time></trkpt><trkpt lat="31.382485754042225" lon="-5.806578395360234"><ele>1460.0</ele><time>2026-04-24T17:36:22.999Z</time></trkpt><trkpt lat="31.38259301792099" lon="-5.8063525586251385"><ele>1460.0</ele><time>2026-04-24T17:36:23.999Z</time></trkpt><trkpt lat="31.382677444549525" lon="-5.806121542628295"><ele>1460.0</ele><time>2026-04-24T17:36:24.999Z</time></trkpt><trkpt lat="31.382746741340302" lon="-5.805884881009239"><ele>1459.6666666666667</ele><time>2026-04-24T17:36:25.999Z</time></trkpt><trkpt lat="31.382798290614854" lon="-5.805648695392008"><ele>1459.3333333333333</ele><time>2026-04-24T17:36:26.999Z</time></trkpt><trkpt lat="31.382834873161517" lon="-5.80540962278886"><ele>1459.0</ele><time>2026-04-24T17:36:27.999Z</time></trkpt><trkpt lat="31.382851860942708" lon="-5.805163191332989"><ele>1457.3333333333333</ele><time>2026-04-24T17:36:28.999Z</time></trkpt><trkpt lat="31.382843585729688" lon="-5.804910863293395"><ele>1455.6666666666667</ele><time>2026-04-24T17:36:29.999Z</time></trkpt><trkpt lat="31.382813975653303" lon="-5.804655669312599"><ele>1454.0</ele><time>2026-04-24T17:36:30.999Z</time></trkpt><trkpt lat="31.382765367934205" lon="-5.804401024127357"><ele>1452.5</ele><time>2026-04-24T17:36:31.999Z</time></trkpt><trkpt lat="31.382700427696342" lon="-5.804147470905563"><ele>1451.0</ele><time>2026-04-24T17:36:32.999Z</time></trkpt><trkpt lat="31.382615021075235" lon="-5.8038971616422375"><ele>1451.0</ele><time>2026-04-24T17:36:33.999Z</time></trkpt><trkpt lat="31.382508029723677" lon="-5.803653793866602"><ele>1451.0</ele><time>2026-04-24T17:36:34.999Z</time></trkpt><trkpt lat="31.382379383746375" lon="-5.803420264701079"><ele>1449.5</ele><time>2026-04-24T17:36:35.999Z</time></trkpt><trkpt lat="31.38222475677695" lon="-5.803196963092965"><ele>1448.0</ele><time>2026-04-24T17:36:36.999Z</time></trkpt><trkpt lat="31.382049386754375" lon="-5.802987027372067"><ele>1448.5</ele><time>2026-04-24T17:36:37.999Z</time></trkpt><trkpt lat="31.381861408886742" lon="-5.8027864981304536"><ele>1449.0</ele><time>2026-04-24T17:36:39Z</time></trkpt><trkpt lat="31.38166657764331" lon="-5.80259408901946"><ele>1449.0</ele><time>2026-04-24T17:36:40Z</time></trkpt><trkpt lat="31.381466109051587" lon="-5.802408006182684"><ele>1449.0</ele><time>2026-04-24T17:36:41Z</time></trkpt><trkpt lat="31.381267109792937" lon="-5.802225423496642"><ele>1454.5</ele><time>2026-04-24T17:36:42Z</time></trkpt><trkpt lat="31.38106462509385" lon="-5.802042191500305"><ele>1460.0</ele><time>2026-04-24T17:36:43Z</time></trkpt><trkpt lat="31.38086075036102" lon="-5.8018599290122586"><ele>1461.0</ele><time>2026-04-24T17:36:44Z</time></trkpt><trkpt lat="31.380656791104162" lon="-5.801675707876302"><ele>1462.0</ele><time>2026-04-24T17:36:45Z</time></trkpt><trkpt lat="31.380455524781485" lon="-5.801491785647191"><ele>1462.0</ele><time>2026-04-24T17:36:46Z</time></trkpt><trkpt lat="31.38026349018745" lon="-5.8013114672018355"><ele>1462.0</ele><time>2026-04-24T17:36:47Z</time></trkpt><trkpt lat="31.380075061019113" lon="-5.801135674985637"><ele>1458.0</ele><time>2026-04-24T17:36:48Z</time></trkpt><trkpt lat="31.37989115574312" lon="-5.800964124080438"><ele>1454.0</ele><time>2026-04-24T17:36:49Z</time></trkpt><trkpt lat="31.379709994699795" lon="-5.800796632975474"><ele>1452.5</ele><time>2026-04-24T17:36:50Z</time></trkpt><trkpt lat="31.37952858079072" lon="-5.800631719539413"><ele>1451.0</ele><time>2026-04-24T17:36:51Z</time></trkpt><trkpt lat="31.379351273913198" lon="-5.80047357936386"><ele>1451.0</ele><time>2026-04-24T17:36:52Z</time></trkpt><trkpt lat="31.37918182237977" lon="-5.800323242437467"><ele>1451.0</ele><time>2026-04-24T17:36:53Z</time></trkpt><trkpt lat="31.37903330719028" lon="-5.80019341413996"><ele>1451.0</ele><time>2026-04-24T17:36:54Z</time></trkpt><trkpt lat="31.37889405471989" lon="-5.800075996301863"><ele>1448.6666666666667</ele><time>2026-04-24T17:36:55Z</time></trkpt><trkpt lat="31.378758436188992" lon="-5.799967150981535"><ele>1446.3333333333333</ele><time>2026-04-24T17:36:56Z</time></trkpt><trkpt lat="31.378618037554705" lon="-5.799864809972478"><ele>1444.0</ele><time>2026-04-24T17:36:57Z</time></trkpt><trkpt lat="31.37847574022425" lon="-5.7997615574459624"><ele>1444.0</ele><time>2026-04-24T17:36:58Z</time></trkpt><trkpt lat="31.378330872332132" lon="-5.799657180597199"><ele>1444.0</ele><time>2026-04-24T17:36:59Z</time></trkpt><trkpt lat="31.378181813449032" lon="-5.799555430197405"><ele>1444.0</ele><time>2026-04-24T17:37:00Z</time></trkpt><trkpt lat="31.378031469432596" lon="-5.799456334238446"><ele>1442.3333333333333</ele><time>2026-04-24T17:37:01Z</time></trkpt><trkpt lat="31.37787636239352" lon="-5.79936127134837"><ele>1440.6666666666667</ele><time>2026-04-24T17:37:02Z</time></trkpt><trkpt lat="31.377721873508303" lon="-5.799268946356013"><ele>1439.0</ele><time>2026-04-24T17:37:03Z</time></trkpt><trkpt lat="31.377567182932005" lon="-5.799183374554255"><ele>1439.0</ele><time>2026-04-24T17:37:04Z</time></trkpt><trkpt lat="31.37740913593552" lon="-5.79911072988673"><ele>1439.0</ele><time>2026-04-24T17:37:05Z</time></trkpt><trkpt lat="31.37725276568164" lon="-5.799042650229627"><ele>1439.0</ele><time>2026-04-24T17:37:06Z</time></trkpt><trkpt lat="31.377099073098044" lon="-5.798978672769029"><ele>1439.6666666666667</ele><time>2026-04-24T17:37:07Z</time></trkpt><trkpt lat="31.376948300874048" lon="-5.798916611559418"><ele>1440.3333333333333</ele><time>2026-04-24T17:37:08Z</time></trkpt><trkpt lat="31.37679750900308" lon="-5.798852901741033"><ele>1441.0</ele><time>2026-04-24T17:37:09Z</time></trkpt><trkpt lat="31.37664762111417" lon="-5.798786791994342"><ele>1441.0</ele><time>2026-04-24T17:37:10Z</time></trkpt><trkpt lat="31.376498656980022" lon="-5.798722204522363"><ele>1441.0</ele><time>2026-04-24T17:37:11Z</time></trkpt><trkpt lat="31.37634724448262" lon="-5.79865808192165"><ele>1441.0</ele><time>2026-04-24T17:37:12Z</time></trkpt><trkpt lat="31.376191914713072" lon="-5.798592871954401"><ele>1441.6666666666665</ele><time>2026-04-24T17:37:13Z</time></trkpt><trkpt lat="31.376027989489675" lon="-5.798525177178075"><ele>1442.3333333333333</ele><time>2026-04-24T17:37:14Z</time></trkpt><trkpt lat="31.375858687373917" lon="-5.798453020603302"><ele>1443.0</ele><time>2026-04-24T17:37:15Z</time></trkpt><trkpt lat="31.375693382302437" lon="-5.798379370169914"><ele>1442.0</ele><time>2026-04-24T17:37:16Z</time></trkpt><trkpt lat="31.37553139771357" lon="-5.798308696129248"><ele>1441.0</ele><time>2026-04-24T17:37:17Z</time></trkpt><trkpt lat="31.37537437104434" lon="-5.7982419061915085"><ele>1440.0</ele><time>2026-04-24T17:37:18Z</time></trkpt><trkpt lat="31.3752234856668" lon="-5.798180660819385"><ele>1440.0</ele><time>2026-04-24T17:37:19Z</time></trkpt><trkpt lat="31.375075070893384" lon="-5.798124395649585"><ele>1440.0</ele><time>2026-04-24T17:37:20Z</time></trkpt><trkpt lat="31.37492015094093" lon="-5.798066966629996"><ele>1440.0</ele><time>2026-04-24T17:37:21Z</time></trkpt><trkpt lat="31.3747616571472" lon="-5.798006101846651"><ele>1439.6666666666667</ele><time>2026-04-24T17:37:22Z</time></trkpt><trkpt lat="31.374606312939655" lon="-5.797944113540338"><ele>1439.3333333333335</ele><time>2026-04-24T17:37:23Z</time></trkpt><trkpt lat="31.37444766311207" lon="-5.797882674614759"><ele>1439.0</ele><time>2026-04-24T17:37:24Z</time></trkpt><trkpt lat="31.374286018025522" lon="-5.797825120335612"><ele>1439.0</ele><time>2026-04-24T17:37:25Z</time></trkpt><trkpt lat="31.374120292503868" lon="-5.79777040484862"><ele>1439.0</ele><time>2026-04-24T17:37:26Z</time></trkpt><trkpt lat="31.37395063978093" lon="-5.79772170341019"><ele>1439.0</ele><time>2026-04-24T17:37:27Z</time></trkpt><trkpt lat="31.373782346773847" lon="-5.797692682816393"><ele>1438.0</ele><time>2026-04-24T17:37:28Z</time></trkpt><trkpt lat="31.37362025499351" lon="-5.79767666280901"><ele>1437.0</ele><time>2026-04-24T17:37:29Z</time></trkpt><trkpt lat="31.373465045385142" lon="-5.797668102965755"><ele>1436.0</ele><time>2026-04-24T17:37:30Z</time></trkpt><trkpt lat="31.37331497693047" lon="-5.797659604493673"><ele>1435.75</ele><time>2026-04-24T17:37:31Z</time></trkpt><trkpt lat="31.37316891570084" lon="-5.797649574557671"><ele>1435.5</ele><time>2026-04-24T17:37:32Z</time></trkpt><trkpt lat="31.373028552774116" lon="-5.797632510598981"><ele>1435.25</ele><time>2026-04-24T17:37:33Z</time></trkpt><trkpt lat="31.372891351423707" lon="-5.797607322662131"><ele>1435.0</ele><time>2026-04-24T17:37:34Z</time></trkpt><trkpt lat="31.37275771886921" lon="-5.797561459688521"><ele>1434.5</ele><time>2026-04-24T17:37:35Z</time></trkpt><trkpt lat="31.37262823354442" lon="-5.797489660906731"><ele>1434.0</ele><time>2026-04-24T17:37:36Z</time></trkpt><trkpt lat="31.37250629546279" lon="-5.797393461870506"><ele>1433.5</ele><time>2026-04-24T17:37:37Z</time></trkpt><trkpt lat="31.37239328659018" lon="-5.79728157609581"><ele>1433.0</ele><time>2026-04-24T17:37:38Z</time></trkpt><trkpt lat="31.372289268185906" lon="-5.797161279600989"><ele>1433.0</ele><time>2026-04-24T17:37:39Z</time></trkpt><trkpt lat="31.372194655971082" lon="-5.7970311359906805"><ele>1433.0</ele><time>2026-04-24T17:37:40Z</time></trkpt><trkpt lat="31.37210692589067" lon="-5.79690056189168"><ele>1433.0</ele><time>2026-04-24T17:37:41Z</time></trkpt><trkpt lat="31.37202162449544" lon="-5.796763696737737"><ele>1433.0</ele><time>2026-04-24T17:37:42Z</time></trkpt><trkpt lat="31.371937416890113" lon="-5.796615271239493"><ele>1432.3333333333335</ele><time>2026-04-24T17:37:43Z</time></trkpt><trkpt lat="31.37185744109713" lon="-5.796463101842292"><ele>1431.6666666666667</ele><time>2026-04-24T17:37:44Z</time></trkpt><trkpt lat="31.371784954327474" lon="-5.796304229477859"><ele>1431.0</ele><time>2026-04-24T17:37:45Z</time></trkpt><trkpt lat="31.3717194368898" lon="-5.796139839766605"><ele>1431.0</ele><time>2026-04-24T17:37:46Z</time></trkpt><trkpt lat="31.37165604021183" lon="-5.795973602520425"><ele>1431.0</ele><time>2026-04-24T17:37:47Z</time></trkpt><trkpt lat="31.371588708153645" lon="-5.7958026938054426"><ele>1431.0</ele><time>2026-04-24T17:37:48Z</time></trkpt><trkpt lat="31.371519090048594" lon="-5.795627636382651"><ele>1431.0</ele><time>2026-04-24T17:37:49Z</time></trkpt><trkpt lat="31.371446644289904" lon="-5.795456344001367"><ele>1431.0</ele><time>2026-04-24T17:37:50Z</time></trkpt><trkpt lat="31.371373881028493" lon="-5.795278165312039"><ele>1431.0</ele><time>2026-04-24T17:37:51Z</time></trkpt><trkpt lat="31.371328562332597" lon="-5.795083917736254"><ele>1431.0</ele><time>2026-04-24T17:37:52Z</time></trkpt><trkpt lat="31.371272044514914" lon="-5.7948936753215605"><ele>1431.0</ele><time>2026-04-24T17:37:53Z</time></trkpt><trkpt lat="31.371213654711408" lon="-5.794699976416855"><ele>1431.0</ele><time>2026-04-24T17:37:54Z</time></trkpt><trkpt lat="31.37115614112617" lon="-5.794508765087681"><ele>1430.0</ele><time>2026-04-24T17:37:55Z</time></trkpt><trkpt lat="31.371098617539708" lon="-5.794314613122214"><ele>1429.0</ele><time>2026-04-24T17:37:56Z</time></trkpt><trkpt lat="31.371038821837512" lon="-5.794116860521971"><ele>1428.0</ele><time>2026-04-24T17:37:57Z</time></trkpt><trkpt lat="31.370980547824075" lon="-5.793922897673796"><ele>1428.0</ele><time>2026-04-24T17:37:58Z</time></trkpt><trkpt lat="31.370921846940085" lon="-5.793727519512374"><ele>1428.0</ele><time>2026-04-24T17:37:58.999Z</time></trkpt><trkpt lat="31.37086386425965" lon="-5.793534531779732"><ele>1428.0</ele><time>2026-04-24T17:37:59.999Z</time></trkpt><trkpt lat="31.37080604215611" lon="-5.793342078558543"><ele>1427.3333333333333</ele><time>2026-04-24T17:38:00.999Z</time></trkpt><trkpt lat="31.370747330957872" lon="-5.793146665926631"><ele>1426.6666666666665</ele><time>2026-04-24T17:38:01.999Z</time></trkpt><trkpt lat="31.37068712536012" lon="-5.792948243743779"><ele>1426.0</ele><time>2026-04-24T17:38:02.999Z</time></trkpt><trkpt lat="31.370627383890948" lon="-5.79275199387869"><ele>1426.0</ele><time>2026-04-24T17:38:03.999Z</time></trkpt><trkpt lat="31.370565964397446" lon="-5.79255023167675"><ele>1426.0</ele><time>2026-04-24T17:38:04.999Z</time></trkpt><trkpt lat="31.37050459929189" lon="-5.792348647994621"><ele>1426.0</ele><time>2026-04-24T17:38:05.999Z</time></trkpt><trkpt lat="31.37044252982261" lon="-5.792144750532017"><ele>1425.6666666666665</ele><time>2026-04-24T17:38:06.999Z</time></trkpt><trkpt lat="31.37038075869321" lon="-5.791941861356255"><ele>1425.3333333333333</ele><time>2026-04-24T17:38:07.999Z</time></trkpt><trkpt lat="31.37031927370256" lon="-5.791739983790699"><ele>1425.0</ele><time>2026-04-24T17:38:08.999Z</time></trkpt><trkpt lat="31.370257515901393" lon="-5.791537210773029"><ele>1424.6666666666667</ele><time>2026-04-24T17:38:09.999Z</time></trkpt><trkpt lat="31.3701948319042" lon="-5.791331396584911"><ele>1424.3333333333335</ele><time>2026-04-24T17:38:10.999Z</time></trkpt><trkpt lat="31.370134469786052" lon="-5.7911332059799285"><ele>1424.0</ele><time>2026-04-24T17:38:11.999Z</time></trkpt><trkpt lat="31.37007765175869" lon="-5.7909466511404"><ele>1424.0</ele><time>2026-04-24T17:38:12.999Z</time></trkpt><trkpt lat="31.37002473508587" lon="-5.790771739201662"><ele>1424.0</ele><time>2026-04-24T17:38:13.999Z</time></trkpt><trkpt lat="31.369974019525124" lon="-5.790606913613474"><ele>1424.0</ele><time>2026-04-24T17:38:14.999Z</time></trkpt><trkpt lat="31.369926689284576" lon="-5.790451138613845"><ele>1424.0</ele><time>2026-04-24T17:38:15.999Z</time></trkpt><trkpt lat="31.36988133988974" lon="-5.7903017005902635"><ele>1425.25</ele><time>2026-04-24T17:38:16.999Z</time></trkpt><trkpt lat="31.369838269409577" lon="-5.790159539126616"><ele>1426.5</ele><time>2026-04-24T17:38:17.999Z</time></trkpt><trkpt lat="31.369799485648837" lon="-5.790038532755103"><ele>1427.75</ele><time>2026-04-24T17:38:18.999Z</time></trkpt><trkpt lat="31.36976967874189" lon="-5.789903005849489"><ele>1429.0</ele><time>2026-04-24T17:38:19.999Z</time></trkpt><trkpt lat="31.36973379843157" lon="-5.789781018035953"><ele>1429.0</ele><time>2026-04-24T17:38:20.999Z</time></trkpt><trkpt lat="31.369765598473947" lon="-5.7896452033992185"><ele>1429.0</ele><time>2026-04-24T17:38:21.999Z</time></trkpt><trkpt lat="31.36978761704397" lon="-5.789512873211224"><ele>1429.0</ele><time>2026-04-24T17:38:22.999Z</time></trkpt><trkpt lat="31.369797544194267" lon="-5.789365634465392"><ele>1429.0</ele><time>2026-04-24T17:38:23.999Z</time></trkpt><trkpt lat="31.36981418688558" lon="-5.789205536773058"><ele>1429.3333333333333</ele><time>2026-04-24T17:38:24.999Z</time></trkpt><trkpt lat="31.369843784400633" lon="-5.789032339680991"><ele>1429.6666666666667</ele><time>2026-04-24T17:38:25.999Z</time></trkpt><trkpt lat="31.369891440820766" lon="-5.788854915054968"><ele>1430.0</ele><time>2026-04-24T17:38:26.999Z</time></trkpt><trkpt lat="31.369943851343066" lon="-5.788675443308512"><ele>1430.0</ele><time>2026-04-24T17:38:27.999Z</time></trkpt><trkpt lat="31.36999852978652" lon="-5.788488129578777"><ele>1430.0</ele><time>2026-04-24T17:38:28.999Z</time></trkpt><trkpt lat="31.370046068576364" lon="-5.788286869159485"><ele>1430.0</ele><time>2026-04-24T17:38:29.999Z</time></trkpt><trkpt lat="31.37009359468886" lon="-5.788080944272229"><ele>1430.0</ele><time>2026-04-24T17:38:30.999Z</time></trkpt><trkpt lat="31.370146694503326" lon="-5.787867219040692"><ele>1430.0</ele><time>2026-04-24T17:38:31.999Z</time></trkpt><trkpt lat="31.370200037918938" lon="-5.787658625949738"><ele>1430.0</ele><time>2026-04-24T17:38:32.999Z</time></trkpt><trkpt lat="31.370255333594333" lon="-5.787444699605065"><ele>1429.3333333333335</ele><time>2026-04-24T17:38:33.999Z</time></trkpt><trkpt lat="31.370312211923437" lon="-5.7872264951219465"><ele>1428.6666666666667</ele><time>2026-04-24T17:38:34.999Z</time></trkpt><trkpt lat="31.370366060665518" lon="-5.787013846282632"><ele>1428.0</ele><time>2026-04-24T17:38:35.999Z</time></trkpt><trkpt lat="31.37042079977161" lon="-5.786801823161211"><ele>1428.3333333333333</ele><time>2026-04-24T17:38:36.999Z</time></trkpt><trkpt lat="31.370475178920987" lon="-5.786591410529908"><ele>1428.6666666666665</ele><time>2026-04-24T17:38:37.999Z</time></trkpt><trkpt lat="31.3705309581196" lon="-5.786379428036817"><ele>1429.0</ele><time>2026-04-24T17:38:38.999Z</time></trkpt><trkpt lat="31.37058894272203" lon="-5.786163784145871"><ele>1427.6666666666665</ele><time>2026-04-24T17:38:39.999Z</time></trkpt><trkpt lat="31.370649144568798" lon="-5.78594240053165"><ele>1426.3333333333333</ele><time>2026-04-24T17:38:40.999Z</time></trkpt><trkpt lat="31.370707728182936" lon="-5.78571469242086"><ele>1425.0</ele><time>2026-04-24T17:38:41.999Z</time></trkpt><trkpt lat="31.370763684249454" lon="-5.785481403339384"><ele>1425.0</ele><time>2026-04-24T17:38:42.999Z</time></trkpt><trkpt lat="31.3708221627407" lon="-5.785246313796017"><ele>1425.0</ele><time>2026-04-24T17:38:43.999Z</time></trkpt><trkpt lat="31.370882364604448" lon="-5.785008668831726"><ele>1425.0</ele><time>2026-04-24T17:38:45Z</time></trkpt><trkpt lat="31.370941230784577" lon="-5.784775954450438"><ele>1424.0</ele><time>2026-04-24T17:38:46Z</time></trkpt><trkpt lat="31.370998764477378" lon="-5.784544653246588"><ele>1423.0</ele><time>2026-04-24T17:38:47Z</time></trkpt><trkpt lat="31.371055838378552" lon="-5.7843150017982845"><ele>1422.0</ele><time>2026-04-24T17:38:48Z</time></trkpt><trkpt lat="31.37110866963764" lon="-5.784087603348143"><ele>1421.6666666666667</ele><time>2026-04-24T17:38:49Z</time></trkpt><trkpt lat="31.371155959499045" lon="-5.783863894779505"><ele>1421.3333333333335</ele><time>2026-04-24T17:38:50Z</time></trkpt><trkpt lat="31.371199126964278" lon="-5.78364709359128"><ele>1421.0</ele><time>2026-04-24T17:38:51Z</time></trkpt><trkpt lat="31.37123551653652" lon="-5.783434778374137"><ele>1420.6666666666667</ele><time>2026-04-24T17:38:52Z</time></trkpt><trkpt lat="31.371262148716863" lon="-5.783226816583221"><ele>1420.3333333333333</ele><time>2026-04-24T17:38:53Z</time></trkpt><trkpt lat="31.371282104405672" lon="-5.783023298072415"><ele>1420.0</ele><time>2026-04-24T17:38:54Z</time></trkpt><trkpt lat="31.3712990668042" lon="-5.782833797072532"><ele>1420.25</ele><time>2026-04-24T17:38:55Z</time></trkpt><trkpt lat="31.371315413496966" lon="-5.782653105156554"><ele>1420.5</ele><time>2026-04-24T17:38:56Z</time></trkpt><trkpt lat="31.371331653506907" lon="-5.782482710908028"><ele>1420.75</ele><time>2026-04-24T17:38:57Z</time></trkpt><trkpt lat="31.371347651437983" lon="-5.782313093448544"><ele>1421.0</ele><time>2026-04-24T17:38:58Z</time></trkpt><trkpt lat="31.371364724251904" lon="-5.782143838536538"><ele>1421.0</ele><time>2026-04-24T17:38:59Z</time></trkpt><trkpt lat="31.371381683086486" lon="-5.781980787642617"><ele>1421.0</ele><time>2026-04-24T17:39:00Z</time></trkpt><trkpt lat="31.371397989141798" lon="-5.781825992417206"><ele>1421.0</ele><time>2026-04-24T17:39:01Z</time></trkpt><trkpt lat="31.37141267522494" lon="-5.781674338815279"><ele>1421.0</ele><time>2026-04-24T17:39:02Z</time></trkpt><trkpt lat="31.371428826790858" lon="-5.7815215249032095"><ele>1420.75</ele><time>2026-04-24T17:39:03Z</time></trkpt><trkpt lat="31.37144779679092" lon="-5.7813699175886235"><ele>1420.5</ele><time>2026-04-24T17:39:04Z</time></trkpt><trkpt lat="31.37147332045896" lon="-5.781219142861855"><ele>1420.25</ele><time>2026-04-24T17:39:05Z</time></trkpt><trkpt lat="31.371506377314777" lon="-5.781066250967763"><ele>1420.0</ele><time>2026-04-24T17:39:06Z</time></trkpt><trkpt lat="31.371544786668963" lon="-5.780912153064732"><ele>1419.25</ele><time>2026-04-24T17:39:07Z</time></trkpt><trkpt lat="31.371587307527626" lon="-5.780755898526696"><ele>1418.5</ele><time>2026-04-24T17:39:08Z</time></trkpt><trkpt lat="31.37163705242145" lon="-5.780594939934813"><ele>1417.75</ele><time>2026-04-24T17:39:09Z</time></trkpt><trkpt lat="31.371699514140094" lon="-5.780431092550963"><ele>1417.0</ele><time>2026-04-24T17:39:10Z</time></trkpt><trkpt lat="31.371776169309253" lon="-5.7802651903884"><ele>1416.6666666666665</ele><time>2026-04-24T17:39:11Z</time></trkpt><trkpt lat="31.371862343276927" lon="-5.780096678170076"><ele>1416.3333333333333</ele><time>2026-04-24T17:39:12Z</time></trkpt><trkpt lat="31.371935862572716" lon="-5.779910133296593"><ele>1416.0</ele><time>2026-04-24T17:39:13Z</time></trkpt><trkpt lat="31.372031580196108" lon="-5.779725900165422"><ele>1416.0</ele><time>2026-04-24T17:39:14Z</time></trkpt><trkpt lat="31.372131691143583" lon="-5.779533211032912"><ele>1416.0</ele><time>2026-04-24T17:39:15Z</time></trkpt><trkpt lat="31.372236411060143" lon="-5.779331475460418"><ele>1416.0</ele><time>2026-04-24T17:39:16Z</time></trkpt><trkpt lat="31.37234804057437" lon="-5.779127772534997"><ele>1416.0</ele><time>2026-04-24T17:39:17Z</time></trkpt><trkpt lat="31.372473752140067" lon="-5.778932911117102"><ele>1416.0</ele><time>2026-04-24T17:39:18Z</time></trkpt><trkpt lat="31.37258749447087" lon="-5.778730978333317"><ele>1416.0</ele><time>2026-04-24T17:39:19Z</time></trkpt><trkpt lat="31.372709805583302" lon="-5.778528545168401"><ele>1416.0</ele><time>2026-04-24T17:39:20Z</time></trkpt><trkpt lat="31.3728387726068" lon="-5.778323713884567"><ele>1416.0</ele><time>2026-04-24T17:39:21Z</time></trkpt><trkpt lat="31.372973344817733" lon="-5.778124892834424"><ele>1416.0</ele><time>2026-04-24T17:39:22Z</time></trkpt><trkpt lat="31.3731007653507" lon="-5.777911472536007"><ele>1416.0</ele><time>2026-04-24T17:39:23Z</time></trkpt><trkpt lat="31.373252355777044" lon="-5.777720234408773"><ele>1416.0</ele><time>2026-04-24T17:39:24Z</time></trkpt><trkpt lat="31.373408762012513" lon="-5.777529339753031"><ele>1416.0</ele><time>2026-04-24T17:39:25Z</time></trkpt><trkpt lat="31.3735800715777" lon="-5.777350920333228"><ele>1414.5</ele><time>2026-04-24T17:39:26Z</time></trkpt><trkpt lat="31.373740139504815" lon="-5.7771570725563235"><ele>1413.0</ele><time>2026-04-24T17:39:27Z</time></trkpt><trkpt lat="31.373903322711904" lon="-5.77696220004907"><ele>1412.5</ele><time>2026-04-24T17:39:28Z</time></trkpt><trkpt lat="31.37407079918528" lon="-5.776766803373684"><ele>1412.0</ele><time>2026-04-24T17:39:29Z</time></trkpt><trkpt lat="31.37424035771446" lon="-5.776568727100349"><ele>1412.0</ele><time>2026-04-24T17:39:30Z</time></trkpt><trkpt lat="31.37441129399475" lon="-5.776367265448752"><ele>1412.0</ele><time>2026-04-24T17:39:31Z</time></trkpt><trkpt lat="31.374586770992682" lon="-5.776161941266217"><ele>1411.5</ele><time>2026-04-24T17:39:32Z</time></trkpt><trkpt lat="31.374763659615464" lon="-5.77595602197881"><ele>1411.0</ele><time>2026-04-24T17:39:33Z</time></trkpt><trkpt lat="31.37494389937213" lon="-5.775746675008143"><ele>1411.0</ele><time>2026-04-24T17:39:34Z</time></trkpt><trkpt lat="31.37512501982728" lon="-5.775532862722551"><ele>1411.0</ele><time>2026-04-24T17:39:35Z</time></trkpt><trkpt lat="31.375307617402665" lon="-5.775315729849918"><ele>1411.5</ele><time>2026-04-24T17:39:36Z</time></trkpt><trkpt lat="31.375488497511427" lon="-5.775100469032499"><ele>1412.0</ele><time>2026-04-24T17:39:37Z</time></trkpt><trkpt lat="31.375667736514483" lon="-5.774887791391913"><ele>1412.0</ele><time>2026-04-24T17:39:38Z</time></trkpt><trkpt lat="31.375846388042078" lon="-5.774678496146527"><ele>1412.0</ele><time>2026-04-24T17:39:39Z</time></trkpt><trkpt lat="31.37601364599185" lon="-5.774454141215273"><ele>1411.0</ele><time>2026-04-24T17:39:40Z</time></trkpt><trkpt lat="31.376192692226976" lon="-5.774241520547701"><ele>1410.0</ele><time>2026-04-24T17:39:41Z</time></trkpt><trkpt lat="31.376372218318146" lon="-5.774023995824205"><ele>1410.0</ele><time>2026-04-24T17:39:42Z</time></trkpt><trkpt lat="31.37655384103499" lon="-5.773804294951293"><ele>1410.0</ele><time>2026-04-24T17:39:43Z</time></trkpt><trkpt lat="31.37673704879339" lon="-5.7735882843513044"><ele>1408.0</ele><time>2026-04-24T17:39:44Z</time></trkpt><trkpt lat="31.37691903870469" lon="-5.773374460499848"><ele>1406.0</ele><time>2026-04-24T17:39:45Z</time></trkpt><trkpt lat="31.37710148113283" lon="-5.773158931777782"><ele>1408.0</ele><time>2026-04-24T17:39:46Z</time></trkpt><trkpt lat="31.377284155302426" lon="-5.772940408887575"><ele>1410.0</ele><time>2026-04-24T17:39:47Z</time></trkpt><trkpt lat="31.37746699807144" lon="-5.772723786593134"><ele>1408.0</ele><time>2026-04-24T17:39:48Z</time></trkpt><trkpt lat="31.377653470407132" lon="-5.772506911847671"><ele>1406.0</ele><time>2026-04-24T17:39:49Z</time></trkpt><trkpt lat="31.377852949524836" lon="-5.772301484826003"><ele>1411.0</ele><time>2026-04-24T17:39:50Z</time></trkpt><trkpt lat="31.378039276021806" lon="-5.772081821993257"><ele>1416.0</ele><time>2026-04-24T17:39:51Z</time></trkpt><trkpt lat="31.3782252339047" lon="-5.771864658315836"><ele>1412.5</ele><time>2026-04-24T17:39:52Z</time></trkpt><trkpt lat="31.378411061701517" lon="-5.771646942754726"><ele>1409.0</ele><time>2026-04-24T17:39:53Z</time></trkpt><trkpt lat="31.378583220110755" lon="-5.771416285526222"><ele>1409.0</ele><time>2026-04-24T17:39:54Z</time></trkpt><trkpt lat="31.37876739266113" lon="-5.77119814082018"><ele>1409.0</ele><time>2026-04-24T17:39:55Z</time></trkpt><trkpt lat="31.378950255137486" lon="-5.770980928175332"><ele>1409.0</ele><time>2026-04-24T17:39:55.999Z</time></trkpt><trkpt lat="31.379128207893718" lon="-5.770768993128371"><ele>1409.0</ele><time>2026-04-24T17:39:56.999Z</time></trkpt><trkpt lat="31.379304595161244" lon="-5.770558959205221"><ele>1409.0</ele><time>2026-04-24T17:39:57.999Z</time></trkpt><trkpt lat="31.379477891057466" lon="-5.7703526057219845"><ele>1409.0</ele><time>2026-04-24T17:39:58.999Z</time></trkpt><trkpt lat="31.379649926520752" lon="-5.770149564972319"><ele>1409.0</ele><time>2026-04-24T17:39:59.999Z</time></trkpt><trkpt lat="31.379837077629368" lon="-5.769956377140662"><ele>1409.0</ele><time>2026-04-24T17:40:00.999Z</time></trkpt><trkpt lat="31.3800065131468" lon="-5.769740122675629"><ele>1409.0</ele><time>2026-04-24T17:40:01.999Z</time></trkpt><trkpt lat="31.38017067502791" lon="-5.769516671955636"><ele>1409.0</ele><time>2026-04-24T17:40:02.999Z</time></trkpt><trkpt lat="31.380333341361123" lon="-5.769289078882587"><ele>1409.0</ele><time>2026-04-24T17:40:03.999Z</time></trkpt><trkpt lat="31.380498793941054" lon="-5.769058615390068"><ele>1409.0</ele><time>2026-04-24T17:40:04.999Z</time></trkpt><trkpt lat="31.38066705991291" lon="-5.76882632578275"><ele>1409.0</ele><time>2026-04-24T17:40:05.999Z</time></trkpt><trkpt lat="31.380836667346507" lon="-5.7685932816867815"><ele>1409.0</ele><time>2026-04-24T17:40:06.999Z</time></trkpt><trkpt lat="31.381005312198297" lon="-5.768363095695928"><ele>1407.5</ele><time>2026-04-24T17:40:07.999Z</time></trkpt><trkpt lat="31.38117360498934" lon="-5.768133990119922"><ele>1406.0</ele><time>2026-04-24T17:40:08.999Z</time></trkpt><trkpt lat="31.381340475237735" lon="-5.767902856782744"><ele>1406.5</ele><time>2026-04-24T17:40:09.999Z</time></trkpt><trkpt lat="31.38150842748326" lon="-5.767669302674089"><ele>1407.0</ele><time>2026-04-24T17:40:10.999Z</time></trkpt><trkpt lat="31.381675546070255" lon="-5.767436622287516"><ele>1407.0</ele><time>2026-04-24T17:40:11.999Z</time></trkpt><trkpt lat="31.38184392080573" lon="-5.767200773912854"><ele>1407.0</ele><time>2026-04-24T17:40:12.999Z</time></trkpt><trkpt lat="31.382008651350986" lon="-5.766971508331661"><ele>1406.5</ele><time>2026-04-24T17:40:13.999Z</time></trkpt><trkpt lat="31.382169745647207" lon="-5.766749080932628"><ele>1406.0</ele><time>2026-04-24T17:40:14.999Z</time></trkpt><trkpt lat="31.382327747265595" lon="-5.766530781655357"><ele>1406.0</ele><time>2026-04-24T17:40:15.999Z</time></trkpt><trkpt lat="31.38248429339213" lon="-5.766304936760153"><ele>1406.0</ele><time>2026-04-24T17:40:16.999Z</time></trkpt><trkpt lat="31.382634863525993" lon="-5.766069010295383"><ele>1405.0</ele><time>2026-04-24T17:40:17.999Z</time></trkpt><trkpt lat="31.38277049607147" lon="-5.7658144118074"><ele>1404.0</ele><time>2026-04-24T17:40:18.999Z</time></trkpt><trkpt lat="31.382893855283708" lon="-5.765539199421017"><ele>1404.0</ele><time>2026-04-24T17:40:19.999Z</time></trkpt><trkpt lat="31.38301276709793" lon="-5.765255120536512"><ele>1404.0</ele><time>2026-04-24T17:40:20.999Z</time></trkpt><trkpt lat="31.38313261753912" lon="-5.764966250183682"><ele>1406.5</ele><time>2026-04-24T17:40:21.999Z</time></trkpt><trkpt lat="31.3832573560304" lon="-5.764675148905417"><ele>1409.0</ele><time>2026-04-24T17:40:22.999Z</time></trkpt><trkpt lat="31.383383944696295" lon="-5.7643823954289735"><ele>1406.0</ele><time>2026-04-24T17:40:23.999Z</time></trkpt><trkpt lat="31.38351451794463" lon="-5.764084910799106"><ele>1403.0</ele><time>2026-04-24T17:40:24.999Z</time></trkpt><trkpt lat="31.383650775542492" lon="-5.763775013081455"><ele>1402.0</ele><time>2026-04-24T17:40:25.999Z</time></trkpt><trkpt lat="31.383787230770405" lon="-5.763456636387804"><ele>1401.0</ele><time>2026-04-24T17:40:26.999Z</time></trkpt><trkpt lat="31.383923601149245" lon="-5.763136437685223"><ele>1400.5</ele><time>2026-04-24T17:40:27.999Z</time></trkpt><trkpt lat="31.38405999043287" lon="-5.762815566116724"><ele>1400.0</ele><time>2026-04-24T17:40:28.999Z</time></trkpt><trkpt lat="31.38419938747051" lon="-5.762494376655003"><ele>1400.0</ele><time>2026-04-24T17:40:29.999Z</time></trkpt><trkpt lat="31.38433943196587" lon="-5.7621737846873655"><ele>1400.0</ele><time>2026-04-24T17:40:30.999Z</time></trkpt><trkpt lat="31.384476955836433" lon="-5.761852562171902"><ele>1400.5</ele><time>2026-04-24T17:40:31.999Z</time></trkpt><trkpt lat="31.384616097689563" lon="-5.76152890854507"><ele>1401.0</ele><time>2026-04-24T17:40:32.999Z</time></trkpt><trkpt lat="31.384754607197564" lon="-5.7612054995848805"><ele>1401.0</ele><time>2026-04-24T17:40:33.999Z</time></trkpt><trkpt lat="31.384894050469907" lon="-5.760883113149858"><ele>1401.0</ele><time>2026-04-24T17:40:34.999Z</time></trkpt><trkpt lat="31.385034571668967" lon="-5.7605586053465565"><ele>1401.0</ele><time>2026-04-24T17:40:35.999Z</time></trkpt><trkpt lat="31.385173233773504" lon="-5.760236120836081"><ele>1401.0</ele><time>2026-04-24T17:40:36.999Z</time></trkpt><trkpt lat="31.385311497534463" lon="-5.759913417754472"><ele>1401.0</ele><time>2026-04-24T17:40:37.999Z</time></trkpt><trkpt lat="31.385448750295556" lon="-5.759590746098226"><ele>1401.0</ele><time>2026-04-24T17:40:38.999Z</time></trkpt><trkpt lat="31.385583333526352" lon="-5.75927218359386"><ele>1401.0</ele><time>2026-04-24T17:40:39.999Z</time></trkpt><trkpt lat="31.385714960854845" lon="-5.758962884318966"><ele>1401.0</ele><time>2026-04-24T17:40:40.999Z</time></trkpt><trkpt lat="31.385843142749426" lon="-5.758661450944715"><ele>1400.0</ele><time>2026-04-24T17:40:41.999Z</time></trkpt><trkpt lat="31.385969057380528" lon="-5.7583681986859565"><ele>1399.0</ele><time>2026-04-24T17:40:42.999Z</time></trkpt><trkpt lat="31.386092344922325" lon="-5.7580805138318585"><ele>1399.0</ele><time>2026-04-24T17:40:43.999Z</time></trkpt><trkpt lat="31.38621671573062" lon="-5.757787558349571"><ele>1399.0</ele><time>2026-04-24T17:40:44.999Z</time></trkpt><trkpt lat="31.386343556616882" lon="-5.757493219025058"><ele>1401.5</ele><time>2026-04-24T17:40:45.999Z</time></trkpt><trkpt lat="31.38647414177189" lon="-5.757192646053899"><ele>1404.0</ele><time>2026-04-24T17:40:46.999Z</time></trkpt><trkpt lat="31.38660653234171" lon="-5.756890090051595"><ele>1399.5</ele><time>2026-04-24T17:40:47.999Z</time></trkpt><trkpt lat="31.386738027297024" lon="-5.756582970452741"><ele>1395.0</ele><time>2026-04-24T17:40:48.999Z</time></trkpt><trkpt lat="31.386862276856704" lon="-5.756288598059479"><ele>1395.5</ele><time>2026-04-24T17:40:50Z</time></trkpt><trkpt lat="31.386978803776845" lon="-5.756013002943081"><ele>1396.0</ele><time>2026-04-24T17:40:51Z</time></trkpt><trkpt lat="31.38708923838334" lon="-5.755751706506502"><ele>1399.0</ele><time>2026-04-24T17:40:52Z</time></trkpt><trkpt lat="31.387198438344544" lon="-5.755496147264911"><ele>1402.0</ele><time>2026-04-24T17:40:53Z</time></trkpt><trkpt lat="31.387305961031466" lon="-5.755249012337024"><ele>1400.0</ele><time>2026-04-24T17:40:54Z</time></trkpt><trkpt lat="31.38741407395026" lon="-5.755003867053583"><ele>1398.0</ele><time>2026-04-24T17:40:55Z</time></trkpt><trkpt lat="31.3875226947376" lon="-5.754757703920055"><ele>1398.0</ele><time>2026-04-24T17:40:56Z</time></trkpt><trkpt lat="31.387631693004256" lon="-5.754507791168429"><ele>1398.0</ele><time>2026-04-24T17:40:57Z</time></trkpt><trkpt lat="31.3877365810847" lon="-5.754259404784578"><ele>1397.5</ele><time>2026-04-24T17:40:58Z</time></trkpt><trkpt lat="31.38783687439794" lon="-5.754007337577106"><ele>1397.0</ele><time>2026-04-24T17:40:59Z</time></trkpt><trkpt lat="31.387930708080276" lon="-5.753751378976348"><ele>1398.5</ele><time>2026-04-24T17:41:00Z</time></trkpt><trkpt lat="31.388014577208644" lon="-5.753496912005379"><ele>1400.0</ele><time>2026-04-24T17:41:01Z</time></trkpt><trkpt lat="31.388088209131812" lon="-5.753237869274228"><ele>1400.0</ele><time>2026-04-24T17:41:02Z</time></trkpt><trkpt lat="31.388151274222302" lon="-5.752968837960549"><ele>1400.0</ele><time>2026-04-24T17:41:03Z</time></trkpt><trkpt lat="31.388207892090193" lon="-5.7526888044297095"><ele>1398.5</ele><time>2026-04-24T17:41:04Z</time></trkpt><trkpt lat="31.388263683193962" lon="-5.752404676943131"><ele>1397.0</ele><time>2026-04-24T17:41:05Z</time></trkpt><trkpt lat="31.388318501904173" lon="-5.752110340881618"><ele>1396.0</ele><time>2026-04-24T17:41:06Z</time></trkpt><trkpt lat="31.38837560443158" lon="-5.751812323041106"><ele>1395.0</ele><time>2026-04-24T17:41:07Z</time></trkpt><trkpt lat="31.38843130607166" lon="-5.751515312982669"><ele>1395.0</ele><time>2026-04-24T17:41:08Z</time></trkpt><trkpt lat="31.38848820851012" lon="-5.751225333941953"><ele>1395.0</ele><time>2026-04-24T17:41:09Z</time></trkpt><trkpt lat="31.38854562709386" lon="-5.750937907616347"><ele>1395.0</ele><time>2026-04-24T17:41:10Z</time></trkpt><trkpt lat="31.38860463246094" lon="-5.750651980025537"><ele>1395.0</ele><time>2026-04-24T17:41:11Z</time></trkpt><trkpt lat="31.388662073788513" lon="-5.750371175490792"><ele>1394.5</ele><time>2026-04-24T17:41:12Z</time></trkpt><trkpt lat="31.3887175549043" lon="-5.75009493756752"><ele>1394.0</ele><time>2026-04-24T17:41:13Z</time></trkpt><trkpt lat="31.388772273537562" lon="-5.7498217441874715"><ele>1394.0</ele><time>2026-04-24T17:41:14Z</time></trkpt><trkpt lat="31.388822534039875" lon="-5.74955166295931"><ele>1394.0</ele><time>2026-04-24T17:41:15Z</time></trkpt><trkpt lat="31.38887192438371" lon="-5.7492863903155635"><ele>1394.5</ele><time>2026-04-24T17:41:16Z</time></trkpt><trkpt lat="31.388925196499088" lon="-5.749019733064986"><ele>1395.0</ele><time>2026-04-24T17:41:17Z</time></trkpt><trkpt lat="31.38897754926091" lon="-5.748755882867117"><ele>1394.5</ele><time>2026-04-24T17:41:18Z</time></trkpt><trkpt lat="31.389027704860347" lon="-5.748495071934381"><ele>1394.0</ele><time>2026-04-24T17:41:19Z</time></trkpt><trkpt lat="31.38907679155887" lon="-5.748238451921273"><ele>1394.0</ele><time>2026-04-24T17:41:20Z</time></trkpt><trkpt lat="31.389126575853865" lon="-5.74798768951712"><ele>1394.0</ele><time>2026-04-24T17:41:21Z</time></trkpt><trkpt lat="31.38917477052863" lon="-5.7477437914773"><ele>1394.0</ele><time>2026-04-24T17:41:22Z</time></trkpt><trkpt lat="31.38921998822436" lon="-5.747507726202862"><ele>1393.6666666666667</ele><time>2026-04-24T17:41:23Z</time></trkpt><trkpt lat="31.389263594864516" lon="-5.747284754195876"><ele>1393.3333333333333</ele><time>2026-04-24T17:41:24Z</time></trkpt><trkpt lat="31.38930472329909" lon="-5.747070880034351"><ele>1393.0</ele><time>2026-04-24T17:41:25Z</time></trkpt><trkpt lat="31.389345266277438" lon="-5.7468616299209225"><ele>1392.3333333333333</ele><time>2026-04-24T17:41:26Z</time></trkpt><trkpt lat="31.389384627289427" lon="-5.74665928603146"><ele>1391.6666666666667</ele><time>2026-04-24T17:41:27Z</time></trkpt><trkpt lat="31.389424183405897" lon="-5.746473145338446"><ele>1391.0</ele><time>2026-04-24T17:41:28Z</time></trkpt><trkpt lat="31.389467708576344" lon="-5.746294347860706"><ele>1391.0</ele><time>2026-04-24T17:41:29Z</time></trkpt><trkpt lat="31.389518116795625" lon="-5.746120568448212"><ele>1391.0</ele><time>2026-04-24T17:41:30Z</time></trkpt><trkpt lat="31.389572641296944" lon="-5.7459526890042385"><ele>1391.0</ele><time>2026-04-24T17:41:31Z</time></trkpt><trkpt lat="31.389634865170773" lon="-5.7457881348915665"><ele>1392.0</ele><time>2026-04-24T17:41:32Z</time></trkpt><trkpt lat="31.389707848257444" lon="-5.745623836811025"><ele>1393.0</ele><time>2026-04-24T17:41:33Z</time></trkpt><trkpt lat="31.389792522379935" lon="-5.745457991958794"><ele>1394.0</ele><time>2026-04-24T17:41:34Z</time></trkpt><trkpt lat="31.38988090271338" lon="-5.745263521379223"><ele>1392.0</ele><time>2026-04-24T17:41:35Z</time></trkpt><trkpt lat="31.390000188610056" lon="-5.745070780893326"><ele>1390.0</ele><time>2026-04-24T17:41:36Z</time></trkpt><trkpt lat="31.390138679237243" lon="-5.7448793879656925"><ele>1388.0</ele><time>2026-04-24T17:41:37Z</time></trkpt><trkpt lat="31.390294681687553" lon="-5.744691262135781"><ele>1388.0</ele><time>2026-04-24T17:41:38Z</time></trkpt><trkpt lat="31.390467767374098" lon="-5.74451142625904"><ele>1388.0</ele><time>2026-04-24T17:41:39Z</time></trkpt><trkpt lat="31.390649824875698" lon="-5.7443413424964245"><ele>1387.5</ele><time>2026-04-24T17:41:40Z</time></trkpt><trkpt lat="31.390838196884552" lon="-5.744174468005369"><ele>1387.0</ele><time>2026-04-24T17:41:41Z</time></trkpt><trkpt lat="31.39103186581383" lon="-5.7440092996226815"><ele>1387.0</ele><time>2026-04-24T17:41:42Z</time></trkpt><trkpt lat="31.391230268317937" lon="-5.743839733661328"><ele>1387.0</ele><time>2026-04-24T17:41:43Z</time></trkpt><trkpt lat="31.39143067862001" lon="-5.743668629544928"><ele>1386.5</ele><time>2026-04-24T17:41:44Z</time></trkpt><trkpt lat="31.391629968557535" lon="-5.743495586007189"><ele>1386.0</ele><time>2026-04-24T17:41:45Z</time></trkpt><trkpt lat="31.391828387946635" lon="-5.743323427319697"><ele>1386.0</ele><time>2026-04-24T17:41:46Z</time></trkpt><trkpt lat="31.39203045599754" lon="-5.743148369220701"><ele>1386.0</ele><time>2026-04-24T17:41:47Z</time></trkpt><trkpt lat="31.392237520807168" lon="-5.742971013051643"><ele>1386.5</ele><time>2026-04-24T17:41:48Z</time></trkpt><trkpt lat="31.39244865853435" lon="-5.742790052059853"><ele>1387.0</ele><time>2026-04-24T17:41:49Z</time></trkpt><trkpt lat="31.392662729072917" lon="-5.742606673053513"><ele>1387.0</ele><time>2026-04-24T17:41:50Z</time></trkpt><trkpt lat="31.392876318853" lon="-5.742423222583818"><ele>1387.0</ele><time>2026-04-24T17:41:51Z</time></trkpt><trkpt lat="31.39309115474601" lon="-5.742239454862067"><ele>1386.5</ele><time>2026-04-24T17:41:52Z</time></trkpt><trkpt lat="31.393304415338395" lon="-5.7420572247162935"><ele>1386.0</ele><time>2026-04-24T17:41:53Z</time></trkpt><trkpt lat="31.393515533032534" lon="-5.74187507160947"><ele>1386.0</ele><time>2026-04-24T17:41:54Z</time></trkpt><trkpt lat="31.39372728403123" lon="-5.7416938210231985"><ele>1386.0</ele><time>2026-04-24T17:41:54.999Z</time></trkpt><trkpt lat="31.393935505710335" lon="-5.7415134250632445"><ele>1386.0</ele><time>2026-04-24T17:41:55.999Z</time></trkpt><trkpt lat="31.394139071927988" lon="-5.74133392149142"><ele>1386.0</ele><time>2026-04-24T17:41:56.999Z</time></trkpt><trkpt lat="31.394338592444576" lon="-5.741158479661402"><ele>1385.0</ele><time>2026-04-24T17:41:57.999Z</time></trkpt><trkpt lat="31.394531048339598" lon="-5.740985335306478"><ele>1384.0</ele><time>2026-04-24T17:41:58.999Z</time></trkpt><trkpt lat="31.394710432168768" lon="-5.740815348916634"><ele>1384.0</ele><time>2026-04-24T17:41:59.999Z</time></trkpt><trkpt lat="31.394875910254267" lon="-5.740630772330381"><ele>1384.0</ele><time>2026-04-24T17:42:00.999Z</time></trkpt><trkpt lat="31.395035140216514" lon="-5.740431073582161"><ele>1384.0</ele><time>2026-04-24T17:42:01.999Z</time></trkpt><trkpt lat="31.395191229238947" lon="-5.740216732476557"><ele>1384.0</ele><time>2026-04-24T17:42:02.999Z</time></trkpt><trkpt lat="31.39531755933199" lon="-5.739968879284835"><ele>1383.5</ele><time>2026-04-24T17:42:03.999Z</time></trkpt><trkpt lat="31.395433844473203" lon="-5.73970657310481"><ele>1383.0</ele><time>2026-04-24T17:42:04.999Z</time></trkpt><trkpt lat="31.39554602264204" lon="-5.739437768951225"><ele>1383.5</ele><time>2026-04-24T17:42:05.999Z</time></trkpt><trkpt lat="31.39566103568118" lon="-5.7391722903049205"><ele>1384.0</ele><time>2026-04-24T17:42:06.999Z</time></trkpt><trkpt lat="31.395776527720518" lon="-5.738917035270418"><ele>1384.0</ele><time>2026-04-24T17:42:07.999Z</time></trkpt><trkpt lat="31.395889169311967" lon="-5.738670864582816"><ele>1384.0</ele><time>2026-04-24T17:42:08.999Z</time></trkpt><trkpt lat="31.395998565249574" lon="-5.73842723632539"><ele>1383.6666666666665</ele><time>2026-04-24T17:42:09.999Z</time></trkpt><trkpt lat="31.39610273510974" lon="-5.738192051818775"><ele>1383.3333333333333</ele><time>2026-04-24T17:42:10.999Z</time></trkpt><trkpt lat="31.39620138806049" lon="-5.737967493833694"><ele>1383.0</ele><time>2026-04-24T17:42:11.999Z</time></trkpt><trkpt lat="31.396296761215954" lon="-5.737754091614442"><ele>1384.6666666666667</ele><time>2026-04-24T17:42:12.999Z</time></trkpt><trkpt lat="31.39638962152216" lon="-5.737547079739553"><ele>1386.3333333333335</ele><time>2026-04-24T17:42:13.999Z</time></trkpt><trkpt lat="31.396478879736087" lon="-5.737347855901686"><ele>1388.0</ele><time>2026-04-24T17:42:14.999Z</time></trkpt><trkpt lat="31.396563147771946" lon="-5.737159361351323"><ele>1388.0</ele><time>2026-04-24T17:42:15.999Z</time></trkpt><trkpt lat="31.396644900509212" lon="-5.736975796759418"><ele>1388.0</ele><time>2026-04-24T17:42:16.999Z</time></trkpt><trkpt lat="31.39671881537672" lon="-5.736793451274627"><ele>1388.0</ele><time>2026-04-24T17:42:17.999Z</time></trkpt><trkpt lat="31.396786298467344" lon="-5.736604858273854"><ele>1386.0</ele><time>2026-04-24T17:42:18.999Z</time></trkpt><trkpt lat="31.396848429469287" lon="-5.736395739841937"><ele>1384.0</ele><time>2026-04-24T17:42:19.999Z</time></trkpt><trkpt lat="31.396900794661423" lon="-5.73616740569678"><ele>1382.0</ele><time>2026-04-24T17:42:20.999Z</time></trkpt><trkpt lat="31.39693685682396" lon="-5.735918683858077"><ele>1381.0</ele><time>2026-04-24T17:42:21.999Z</time></trkpt><trkpt lat="31.396960631331837" lon="-5.735657493501633"><ele>1380.0</ele><time>2026-04-24T17:42:22.999Z</time></trkpt><trkpt lat="31.39697732713178" lon="-5.735392930033379"><ele>1379.3333333333333</ele><time>2026-04-24T17:42:23.999Z</time></trkpt><trkpt lat="31.396994621187204" lon="-5.735130268392023"><ele>1378.6666666666665</ele><time>2026-04-24T17:42:24.999Z</time></trkpt><trkpt lat="31.3970142583208" lon="-5.734874965824524"><ele>1378.0</ele><time>2026-04-24T17:42:25.999Z</time></trkpt><trkpt lat="31.397045379822114" lon="-5.734626763889603"><ele>1377.3333333333333</ele><time>2026-04-24T17:42:26.999Z</time></trkpt><trkpt lat="31.39710020394344" lon="-5.734382277243201"><ele>1376.6666666666667</ele><time>2026-04-24T17:42:27.999Z</time></trkpt><trkpt lat="31.397173668513854" lon="-5.734137675507216"><ele>1376.0</ele><time>2026-04-24T17:42:28.999Z</time></trkpt><trkpt lat="31.39726907676117" lon="-5.733899330468778"><ele>1378.5</ele><time>2026-04-24T17:42:29.999Z</time></trkpt><trkpt lat="31.397381358802033" lon="-5.733669273498852"><ele>1381.0</ele><time>2026-04-24T17:42:30.999Z</time></trkpt><trkpt lat="31.397510816531693" lon="-5.733442580750443"><ele>1381.0</ele><time>2026-04-24T17:42:31.999Z</time></trkpt><trkpt lat="31.39765899618636" lon="-5.733219540540046"><ele>1381.0</ele><time>2026-04-24T17:42:32.999Z</time></trkpt><trkpt lat="31.39782558489426" lon="-5.7330048047734925"><ele>1381.0</ele><time>2026-04-24T17:42:33.999Z</time></trkpt><trkpt lat="31.398001046645838" lon="-5.732791393313888"><ele>1381.0</ele><time>2026-04-24T17:42:34.999Z</time></trkpt><trkpt lat="31.3981823347861" lon="-5.732575656134289"><ele>1379.0</ele><time>2026-04-24T17:42:35.999Z</time></trkpt><trkpt lat="31.398365136675206" lon="-5.732362248654782"><ele>1377.0</ele><time>2026-04-24T17:42:36.999Z</time></trkpt><trkpt lat="31.398546418084734" lon="-5.732149175461215"><ele>1377.0</ele><time>2026-04-24T17:42:37.999Z</time></trkpt><trkpt lat="31.398724555170634" lon="-5.731934612634915"><ele>1377.0</ele><time>2026-04-24T17:42:38.999Z</time></trkpt><trkpt lat="31.398902578884172" lon="-5.731718669255126"><ele>1377.5</ele><time>2026-04-24T17:42:39.999Z</time></trkpt><trkpt lat="31.399082595403986" lon="-5.731497373889738"><ele>1378.0</ele><time>2026-04-24T17:42:40.999Z</time></trkpt><trkpt lat="31.399264400258218" lon="-5.731278487908692"><ele>1378.0</ele><time>2026-04-24T17:42:41.999Z</time></trkpt><trkpt lat="31.399447595918524" lon="-5.731059474259707"><ele>1378.0</ele><time>2026-04-24T17:42:42.999Z</time></trkpt><trkpt lat="31.399633224961757" lon="-5.730838091481491"><ele>1378.5</ele><time>2026-04-24T17:42:43.999Z</time></trkpt><trkpt lat="31.39981868084344" lon="-5.730616848876545"><ele>1379.0</ele><time>2026-04-24T17:42:44.999Z</time></trkpt><trkpt lat="31.39999789820733" lon="-5.730396221744272"><ele>1377.5</ele><time>2026-04-24T17:42:45.999Z</time></trkpt><trkpt lat="31.400164986947896" lon="-5.730164539188124"><ele>1376.0</ele><time>2026-04-24T17:42:46.999Z</time></trkpt><trkpt lat="31.400325767361004" lon="-5.729920533609434"><ele>1376.0</ele><time>2026-04-24T17:42:47.999Z</time></trkpt><trkpt lat="31.40048105967076" lon="-5.729667368271951"><ele>1376.0</ele><time>2026-04-24T17:42:48.999Z</time></trkpt><trkpt lat="31.400637398707243" lon="-5.729410365894293"><ele>1378.0</ele><time>2026-04-24T17:42:49.999Z</time></trkpt><trkpt lat="31.400797265842428" lon="-5.729152415533634"><ele>1380.0</ele><time>2026-04-24T17:42:50.999Z</time></trkpt><trkpt lat="31.40095700514344" lon="-5.728892915743526"><ele>1380.0</ele><time>2026-04-24T17:42:51.999Z</time></trkpt><trkpt lat="31.40111767811044" lon="-5.728628659906424"><ele>1380.0</ele><time>2026-04-24T17:42:52.999Z</time></trkpt><trkpt lat="31.40127993769602" lon="-5.728365144611258"><ele>1380.5</ele><time>2026-04-24T17:42:53.999Z</time></trkpt><trkpt lat="31.401442275159525" lon="-5.72810499348487"><ele>1381.0</ele><time>2026-04-24T17:42:55Z</time></trkpt><trkpt lat="31.401602648971622" lon="-5.727847654680749"><ele>1379.5</ele><time>2026-04-24T17:42:56Z</time></trkpt><trkpt lat="31.40176056131896" lon="-5.727593771042224"><ele>1378.0</ele><time>2026-04-24T17:42:57Z</time></trkpt><trkpt lat="31.40191739909757" lon="-5.727342581680719"><ele>1378.0</ele><time>2026-04-24T17:42:58Z</time></trkpt><trkpt lat="31.402073727291913" lon="-5.727094206413543"><ele>1378.0</ele><time>2026-04-24T17:42:59Z</time></trkpt><trkpt lat="31.402225844244565" lon="-5.726840210820106"><ele>1378.5</ele><time>2026-04-24T17:43:00Z</time></trkpt><trkpt lat="31.402362988856716" lon="-5.726576434489523"><ele>1379.0</ele><time>2026-04-24T17:43:01Z</time></trkpt><trkpt lat="31.402479643188975" lon="-5.726296699355969"><ele>1379.5</ele><time>2026-04-24T17:43:02Z</time></trkpt><trkpt lat="31.402575795705737" lon="-5.726012629965305"><ele>1380.0</ele><time>2026-04-24T17:43:03Z</time></trkpt><trkpt lat="31.4026524389042" lon="-5.725726754731014"><ele>1380.0</ele><time>2026-04-24T17:43:04Z</time></trkpt><trkpt lat="31.40271771500075" lon="-5.725428317092585"><ele>1380.0</ele><time>2026-04-24T17:43:05Z</time></trkpt><trkpt lat="31.402775154446907" lon="-5.725121749401372"><ele>1379.5</ele><time>2026-04-24T17:43:06Z</time></trkpt><trkpt lat="31.402834342017623" lon="-5.724813050675315"><ele>1379.0</ele><time>2026-04-24T17:43:07Z</time></trkpt><trkpt lat="31.402897517288675" lon="-5.724504675768397"><ele>1379.5</ele><time>2026-04-24T17:43:08Z</time></trkpt><trkpt lat="31.402961980189943" lon="-5.724197739918055"><ele>1380.0</ele><time>2026-04-24T17:43:09Z</time></trkpt><trkpt lat="31.403024349798432" lon="-5.723891751935669"><ele>1379.0</ele><time>2026-04-24T17:43:10Z</time></trkpt><trkpt lat="31.403084615517017" lon="-5.723589035992327"><ele>1378.0</ele><time>2026-04-24T17:43:11Z</time></trkpt><trkpt lat="31.403144356458096" lon="-5.723289010153173"><ele>1377.5</ele><time>2026-04-24T17:43:12Z</time></trkpt><trkpt lat="31.40320093266169" lon="-5.723004096164673"><ele>1377.0</ele><time>2026-04-24T17:43:13Z</time></trkpt><trkpt lat="31.403257532065258" lon="-5.722728177968696"><ele>1376.0</ele><time>2026-04-24T17:43:14Z</time></trkpt><trkpt lat="31.403315269662137" lon="-5.722440860664572"><ele>1375.0</ele><time>2026-04-24T17:43:15Z</time></trkpt><trkpt lat="31.403373035884346" lon="-5.722148276537087"><ele>1373.0</ele><time>2026-04-24T17:43:16Z</time></trkpt><trkpt lat="31.40343126338386" lon="-5.721853942385075"><ele>1371.0</ele><time>2026-04-24T17:43:17Z</time></trkpt><trkpt lat="31.403489921551543" lon="-5.721557349394544"><ele>1371.0</ele><time>2026-04-24T17:43:18Z</time></trkpt><trkpt lat="31.40354980826636" lon="-5.721260848135145"><ele>1371.0</ele><time>2026-04-24T17:43:19Z</time></trkpt><trkpt lat="31.40360877730295" lon="-5.7209675555073325"><ele>1370.0</ele><time>2026-04-24T17:43:20Z</time></trkpt><trkpt lat="31.403665771356422" lon="-5.720685423450951"><ele>1369.0</ele><time>2026-04-24T17:43:21Z</time></trkpt><trkpt lat="31.403725328860627" lon="-5.720408281076763"><ele>1369.0</ele><time>2026-04-24T17:43:22Z</time></trkpt><trkpt lat="31.40379545024733" lon="-5.720134324344659"><ele>1369.0</ele><time>2026-04-24T17:43:23Z</time></trkpt><trkpt lat="31.403883288699937" lon="-5.7198611979609515"><ele>1368.5</ele><time>2026-04-24T17:43:24Z</time></trkpt><trkpt lat="31.403988022874987" lon="-5.719587216462346"><ele>1368.0</ele><time>2026-04-24T17:43:25Z</time></trkpt><trkpt lat="31.404111846823163" lon="-5.719314413636441"><ele>1368.0</ele><time>2026-04-24T17:43:26Z</time></trkpt><trkpt lat="31.40425391496837" lon="-5.71905036060423"><ele>1368.0</ele><time>2026-04-24T17:43:27Z</time></trkpt><trkpt lat="31.404410585420337" lon="-5.718793271701748"><ele>1368.0</ele><time>2026-04-24T17:43:28Z</time></trkpt><trkpt lat="31.404572444778754" lon="-5.718541626869973"><ele>1368.0</ele><time>2026-04-24T17:43:29Z</time></trkpt><trkpt lat="31.40473268253754" lon="-5.718293537411127"><ele>1369.0</ele><time>2026-04-24T17:43:30Z</time></trkpt><trkpt lat="31.404889940839276" lon="-5.718044619217133"><ele>1370.0</ele><time>2026-04-24T17:43:31Z</time></trkpt><trkpt lat="31.40504982332977" lon="-5.7177923368245285"><ele>1369.0</ele><time>2026-04-24T17:43:32Z</time></trkpt><trkpt lat="31.405211300800023" lon="-5.7175391602076715"><ele>1368.0</ele><time>2026-04-24T17:43:33Z</time></trkpt><trkpt lat="31.40537019032901" lon="-5.717288442538445"><ele>1369.0</ele><time>2026-04-24T17:43:34Z</time></trkpt><trkpt lat="31.405523202919237" lon="-5.71704620979901"><ele>1370.0</ele><time>2026-04-24T17:43:35Z</time></trkpt><trkpt lat="31.40567187348889" lon="-5.716808565945876"><ele>1370.0</ele><time>2026-04-24T17:43:36Z</time></trkpt><trkpt lat="31.40581944484379" lon="-5.716571937966766"><ele>1370.0</ele><time>2026-04-24T17:43:37Z</time></trkpt><trkpt lat="31.405968565676055" lon="-5.716336490348456"><ele>1370.0</ele><time>2026-04-24T17:43:38Z</time></trkpt><trkpt lat="31.40612046310862" lon="-5.716097235088368"><ele>1370.0</ele><time>2026-04-24T17:43:39Z</time></trkpt><trkpt lat="31.40627287608231" lon="-5.715853401536525"><ele>1370.5</ele><time>2026-04-24T17:43:40Z</time></trkpt><trkpt lat="31.40642422088895" lon="-5.715612672804475"><ele>1371.0</ele><time>2026-04-24T17:43:41Z</time></trkpt><trkpt lat="31.4065772345462" lon="-5.715371931945613"><ele>1368.0</ele><time>2026-04-24T17:43:42Z</time></trkpt><trkpt lat="31.406730388336733" lon="-5.7151294867822475"><ele>1365.0</ele><time>2026-04-24T17:43:43Z</time></trkpt><trkpt lat="31.406884067994802" lon="-5.714886513326493"><ele>1365.0</ele><time>2026-04-24T17:43:44Z</time></trkpt><trkpt lat="31.407035002369664" lon="-5.714645686093356"><ele>1365.0</ele><time>2026-04-24T17:43:45Z</time></trkpt><trkpt lat="31.4071843160908" lon="-5.714409458279502"><ele>1365.0</ele><time>2026-04-24T17:43:46Z</time></trkpt><trkpt lat="31.407331842207196" lon="-5.714176138736665"><ele>1365.0</ele><time>2026-04-24T17:43:47Z</time></trkpt><trkpt lat="31.407476444646647" lon="-5.713947080038228"><ele>1365.0</ele><time>2026-04-24T17:43:48Z</time></trkpt><trkpt lat="31.407617461942937" lon="-5.713724954759728"><ele>1365.0</ele><time>2026-04-24T17:43:49Z</time></trkpt><trkpt lat="31.407753650260602" lon="-5.713509272434469"><ele>1365.0</ele><time>2026-04-24T17:43:50Z</time></trkpt><trkpt lat="31.407887245727775" lon="-5.713297846191172"><ele>1365.0</ele><time>2026-04-24T17:43:51Z</time></trkpt><trkpt lat="31.408016942847617" lon="-5.713092683710253"><ele>1365.0</ele><time>2026-04-24T17:43:52Z</time></trkpt><trkpt lat="31.408143347665334" lon="-5.712894045231826"><ele>1365.0</ele><time>2026-04-24T17:43:53Z</time></trkpt><trkpt lat="31.408249576182325" lon="-5.712691680074457"><ele>1365.0</ele><time>2026-04-24T17:43:54Z</time></trkpt><trkpt lat="31.40836210980412" lon="-5.712509152675587"><ele>1365.0</ele><time>2026-04-24T17:43:55Z</time></trkpt><trkpt lat="31.40847066164157" lon="-5.7123338689954695"><ele>1365.0</ele><time>2026-04-24T17:43:56Z</time></trkpt><trkpt lat="31.408575551520414" lon="-5.712162546543945"><ele>1365.0</ele><time>2026-04-24T17:43:56.999Z</time></trkpt><trkpt lat="31.408672690931535" lon="-5.712003883362693"><ele>1365.0</ele><time>2026-04-24T17:43:57.999Z</time></trkpt><trkpt lat="31.408764600997802" lon="-5.711855350583083"><ele>1364.75</ele><time>2026-04-24T17:43:58.999Z</time></trkpt><trkpt lat="31.40885004817913" lon="-5.711715418078073"><ele>1364.5</ele><time>2026-04-24T17:43:59.999Z</time></trkpt><trkpt lat="31.408935360802367" lon="-5.711575501104181"><ele>1364.25</ele><time>2026-04-24T17:44:00.999Z</time></trkpt><trkpt lat="31.409018586925182" lon="-5.711444509299987"><ele>1364.0</ele><time>2026-04-24T17:44:01.999Z</time></trkpt><trkpt lat="31.40909598009196" lon="-5.7113222453511705"><ele>1364.0</ele><time>2026-04-24T17:44:02.999Z</time></trkpt><trkpt lat="31.409172100657354" lon="-5.711201601437842"><ele>1364.0</ele><time>2026-04-24T17:44:03.999Z</time></trkpt><trkpt lat="31.40924819613358" lon="-5.711081001240151"><ele>1364.0</ele><time>2026-04-24T17:44:04.999Z</time></trkpt><trkpt lat="31.409326521011558" lon="-5.710956869031605"><ele>1364.0</ele><time>2026-04-24T17:44:05.999Z</time></trkpt><trkpt lat="31.4094053262044" lon="-5.7108319756041315"><ele>1364.0</ele><time>2026-04-24T17:44:06.999Z</time></trkpt><trkpt lat="31.409485388284036" lon="-5.710705090213047"><ele>1364.0</ele><time>2026-04-24T17:44:07.999Z</time></trkpt><trkpt lat="31.409564207393878" lon="-5.710580174179708"><ele>1364.0</ele><time>2026-04-24T17:44:08.999Z</time></trkpt><trkpt lat="31.40963928259704" lon="-5.710461237345342"><ele>1364.0</ele><time>2026-04-24T17:44:09.999Z</time></trkpt><trkpt lat="31.40971424510431" lon="-5.710342535228453"><ele>1364.5</ele><time>2026-04-24T17:44:10.999Z</time></trkpt><trkpt lat="31.409791782923442" lon="-5.71021976359666"><ele>1365.0</ele><time>2026-04-24T17:44:11.999Z</time></trkpt><trkpt lat="31.409871146774446" lon="-5.710094100665403"><ele>1365.5</ele><time>2026-04-24T17:44:12.999Z</time></trkpt><trkpt lat="31.40995151658609" lon="-5.70996724832406"><ele>1366.0</ele><time>2026-04-24T17:44:13.999Z</time></trkpt><trkpt lat="31.41003278073848" lon="-5.709838753234973"><ele>1366.0</ele><time>2026-04-24T17:44:14.999Z</time></trkpt><trkpt lat="31.410113887210795" lon="-5.709709911659552"><ele>1366.0</ele><time>2026-04-24T17:44:15.999Z</time></trkpt><trkpt lat="31.41019648977245" lon="-5.709578093028054"><ele>1366.0</ele><time>2026-04-24T17:44:16.999Z</time></trkpt><trkpt lat="31.41027906478564" lon="-5.70944232493458"><ele>1366.0</ele><time>2026-04-24T17:44:17.999Z</time></trkpt><trkpt lat="31.41036147199533" lon="-5.70930664247457"><ele>1365.5</ele><time>2026-04-24T17:44:18.999Z</time></trkpt><trkpt lat="31.4104456609145" lon="-5.709170148495579"><ele>1365.0</ele><time>2026-04-24T17:44:19.999Z</time></trkpt><trkpt lat="31.410531069338752" lon="-5.709035517331138"><ele>1364.5</ele><time>2026-04-24T17:44:20.999Z</time></trkpt><trkpt lat="31.41061764978524" lon="-5.708900059006559"><ele>1364.0</ele><time>2026-04-24T17:44:21.999Z</time></trkpt><trkpt lat="31.410703705093592" lon="-5.708764473472131"><ele>1364.5</ele><time>2026-04-24T17:44:22.999Z</time></trkpt><trkpt lat="31.410789595290662" lon="-5.7086290241307305"><ele>1365.0</ele><time>2026-04-24T17:44:23.999Z</time></trkpt><trkpt lat="31.41087563600919" lon="-5.708493809790012"><ele>1365.5</ele><time>2026-04-24T17:44:24.999Z</time></trkpt><trkpt lat="31.410961855059544" lon="-5.708359102762162"><ele>1366.0</ele><time>2026-04-24T17:44:25.999Z</time></trkpt><trkpt lat="31.41104565530494" lon="-5.708227969575958"><ele>1366.0</ele><time>2026-04-24T17:44:26.999Z</time></trkpt><trkpt lat="31.411140896577802" lon="-5.708110136908165"><ele>1366.0</ele><time>2026-04-24T17:44:27.999Z</time></trkpt><trkpt lat="31.411222529512436" lon="-5.707981100527964"><ele>1366.0</ele><time>2026-04-24T17:44:28.999Z</time></trkpt><trkpt lat="31.411290735970454" lon="-5.70784245921698"><ele>1366.0</ele><time>2026-04-24T17:44:29.999Z</time></trkpt><trkpt lat="31.41138485923468" lon="-5.7077270745128885"><ele>1365.75</ele><time>2026-04-24T17:44:30.999Z</time></trkpt><trkpt lat="31.411460478585877" lon="-5.707600768276884"><ele>1365.5</ele><time>2026-04-24T17:44:31.999Z</time></trkpt><trkpt lat="31.411535190775414" lon="-5.70748170374173"><ele>1365.25</ele><time>2026-04-24T17:44:32.999Z</time></trkpt><trkpt lat="31.41160940640031" lon="-5.707364792769521"><ele>1365.0</ele><time>2026-04-24T17:44:33.999Z</time></trkpt><trkpt lat="31.41168356361392" lon="-5.707248280559998"><ele>1365.0</ele><time>2026-04-24T17:44:34.999Z</time></trkpt><trkpt lat="31.41175643013901" lon="-5.7071280602062995"><ele>1365.0</ele><time>2026-04-24T17:44:35.999Z</time></trkpt><trkpt lat="31.411820713676757" lon="-5.706993203119504"><ele>1365.0</ele><time>2026-04-24T17:44:36.999Z</time></trkpt><trkpt lat="31.41189547151156" lon="-5.706863989491547"><ele>1365.0</ele><time>2026-04-24T17:44:37.999Z</time></trkpt><trkpt lat="31.411985739468854" lon="-5.706742946641093"><ele>1365.0</ele><time>2026-04-24T17:44:38.999Z</time></trkpt><trkpt lat="31.412033654136977" lon="-5.706589330390946"><ele>1365.0</ele><time>2026-04-24T17:44:39.999Z</time></trkpt><trkpt lat="31.41210042616407" lon="-5.706445194919871"><ele>1365.0</ele><time>2026-04-24T17:44:40.999Z</time></trkpt><trkpt lat="31.41216210663904" lon="-5.706300244879448"><ele>1365.0</ele><time>2026-04-24T17:44:41.999Z</time></trkpt><trkpt lat="31.412223627278436" lon="-5.706155993069053"><ele>1364.5</ele><time>2026-04-24T17:44:42.999Z</time></trkpt><trkpt lat="31.412274191998616" lon="-5.70600468242846"><ele>1364.0</ele><time>2026-04-24T17:44:43.999Z</time></trkpt><trkpt lat="31.41232728658033" lon="-5.705847716896632"><ele>1363.5</ele><time>2026-04-24T17:44:44.999Z</time></trkpt><trkpt lat="31.412383918602846" lon="-5.705680888991087"><ele>1363.0</ele><time>2026-04-24T17:44:45.999Z</time></trkpt><trkpt lat="31.412444161566775" lon="-5.705504456903049"><ele>1363.0</ele><time>2026-04-24T17:44:46.999Z</time></trkpt><trkpt lat="31.412508505414596" lon="-5.705316444623828"><ele>1363.0</ele><time>2026-04-24T17:44:47.999Z</time></trkpt><trkpt lat="31.412578314542216" lon="-5.70511443192895"><ele>1363.0</ele><time>2026-04-24T17:44:48.999Z</time></trkpt><trkpt lat="31.412651276617332" lon="-5.704903029771812"><ele>1363.3333333333333</ele><time>2026-04-24T17:44:49.999Z</time></trkpt><trkpt lat="31.41272772009275" lon="-5.704684248553231"><ele>1363.6666666666667</ele><time>2026-04-24T17:44:50.999Z</time></trkpt><trkpt lat="31.41280555156238" lon="-5.704460618554982"><ele>1364.0</ele><time>2026-04-24T17:44:51.999Z</time></trkpt><trkpt lat="31.41288435667497" lon="-5.704234407187865"><ele>1363.3333333333335</ele><time>2026-04-24T17:44:52.999Z</time></trkpt><trkpt lat="31.412976744518176" lon="-5.704012312956294"><ele>1362.6666666666667</ele><time>2026-04-24T17:44:53.999Z</time></trkpt><trkpt lat="31.413055615329508" lon="-5.703784164731428"><ele>1362.0</ele><time>2026-04-24T17:44:54.999Z</time></trkpt><trkpt lat="31.413132476871127" lon="-5.703552262544374"><ele>1361.3333333333333</ele><time>2026-04-24T17:44:55.999Z</time></trkpt><trkpt lat="31.413213018867125" lon="-5.703319920861335"><ele>1360.6666666666665</ele><time>2026-04-24T17:44:56.999Z</time></trkpt><trkpt lat="31.413296267817522" lon="-5.703081412402804"><ele>1360.0</ele><time>2026-04-24T17:44:57.999Z</time></trkpt><trkpt lat="31.413381289338197" lon="-5.70284037376647"><ele>1359.6666666666665</ele><time>2026-04-24T17:44:58.999Z</time></trkpt><trkpt lat="31.41346852102426" lon="-5.702596470424445"><ele>1359.3333333333333</ele><time>2026-04-24T17:45:00Z</time></trkpt><trkpt lat="31.413552487524715" lon="-5.7023551470642495"><ele>1359.0</ele><time>2026-04-24T17:45:01Z</time></trkpt><trkpt lat="31.413638073287316" lon="-5.702117906314899"><ele>1359.3333333333333</ele><time>2026-04-24T17:45:02Z</time></trkpt><trkpt lat="31.413707263472805" lon="-5.701871209727911"><ele>1359.6666666666665</ele><time>2026-04-24T17:45:03Z</time></trkpt><trkpt lat="31.413793265312002" lon="-5.701625468300189"><ele>1360.0</ele><time>2026-04-24T17:45:04Z</time></trkpt><trkpt lat="31.413880233943804" lon="-5.701379310580763"><ele>1359.5</ele><time>2026-04-24T17:45:05Z</time></trkpt><trkpt lat="31.413966369831677" lon="-5.701133509411539"><ele>1359.0</ele><time>2026-04-24T17:45:06Z</time></trkpt><trkpt lat="31.414052244435045" lon="-5.700888453850507"><ele>1359.0</ele><time>2026-04-24T17:45:07Z</time></trkpt><trkpt lat="31.414137850813383" lon="-5.700644163703185"><ele>1359.0</ele><time>2026-04-24T17:45:08Z</time></trkpt><trkpt lat="31.414223494242226" lon="-5.700399765867319"><ele>1358.0</ele><time>2026-04-24T17:45:09Z</time></trkpt><trkpt lat="31.414308334843383" lon="-5.7001576225642046"><ele>1357.0</ele><time>2026-04-24T17:45:10Z</time></trkpt><trkpt lat="31.41439370622251" lon="-5.699913964375987"><ele>1356.0</ele><time>2026-04-24T17:45:11Z</time></trkpt><trkpt lat="31.414478415685657" lon="-5.699671859219703"><ele>1356.0</ele><time>2026-04-24T17:45:12Z</time></trkpt><trkpt lat="31.414563042037607" lon="-5.699429133921206"><ele>1356.0</ele><time>2026-04-24T17:45:13Z</time></trkpt><trkpt lat="31.414646447442674" lon="-5.699190488795735"><ele>1356.0</ele><time>2026-04-24T17:45:14Z</time></trkpt><trkpt lat="31.4147292173025" lon="-5.698954514924689"><ele>1356.3333333333333</ele><time>2026-04-24T17:45:15Z</time></trkpt><trkpt lat="31.414811402516847" lon="-5.698721941007212"><ele>1356.6666666666665</ele><time>2026-04-24T17:45:15.999Z</time></trkpt><trkpt lat="31.414891573285892" lon="-5.698492095119439"><ele>1357.0</ele><time>2026-04-24T17:45:16.999Z</time></trkpt><trkpt lat="31.41497099301313" lon="-5.698263621550923"><ele>1357.0</ele><time>2026-04-24T17:45:17.999Z</time></trkpt><trkpt lat="31.41505086358277" lon="-5.69803599005806"><ele>1357.0</ele><time>2026-04-24T17:45:18.999Z</time></trkpt><trkpt lat="31.415132109762958" lon="-5.697804490600002"><ele>1357.0</ele><time>2026-04-24T17:45:19.999Z</time></trkpt><trkpt lat="31.415214463697414" lon="-5.697569834478395"><ele>1357.3333333333333</ele><time>2026-04-24T17:45:20.998Z</time></trkpt><trkpt lat="31.415296952806987" lon="-5.697334793329068"><ele>1357.6666666666667</ele><time>2026-04-24T17:45:21.998Z</time></trkpt><trkpt lat="31.41537828100453" lon="-5.697102516199436"><ele>1358.0</ele><time>2026-04-24T17:45:22.998Z</time></trkpt><trkpt lat="31.415454274266633" lon="-5.696887053238683"><ele>1358.0</ele><time>2026-04-24T17:45:23.998Z</time></trkpt><trkpt lat="31.415523943898062" lon="-5.696688327036612"><ele>1358.0</ele><time>2026-04-24T17:45:24.998Z</time></trkpt><trkpt lat="31.415590944042325" lon="-5.696497174538502"><ele>1358.0</ele><time>2026-04-24T17:45:25.997Z</time></trkpt><trkpt lat="31.415658072834816" lon="-5.696308261332016"><ele>1358.0</ele><time>2026-04-24T17:45:26.997Z</time></trkpt><trkpt lat="31.41573806784704" lon="-5.696128836258715"><ele>1358.0</ele><time>2026-04-24T17:45:27.997Z</time></trkpt><trkpt lat="31.415799907772687" lon="-5.695950447464857"><ele>1358.0</ele><time>2026-04-24T17:45:28.997Z</time></trkpt><trkpt lat="31.415860288596523" lon="-5.69577911280903"><ele>1357.25</ele><time>2026-04-24T17:45:29.997Z</time></trkpt><trkpt lat="31.41592010177201" lon="-5.695615546657562"><ele>1356.5</ele><time>2026-04-24T17:45:30.997Z</time></trkpt><trkpt lat="31.415973749769538" lon="-5.695462456304881"><ele>1355.75</ele><time>2026-04-24T17:45:31.997Z</time></trkpt><trkpt lat="31.416022433620565" lon="-5.695329792904646"><ele>1355.0</ele><time>2026-04-24T17:45:32.997Z</time></trkpt><trkpt lat="31.416065146750768" lon="-5.695207292927104"><ele>1355.0</ele><time>2026-04-24T17:45:33.996Z</time></trkpt><trkpt lat="31.41610360012608" lon="-5.6950957574363255"><ele>1355.0</ele><time>2026-04-24T17:45:34.996Z</time></trkpt><trkpt lat="31.416139754029828" lon="-5.6949898037956554"><ele>1355.0</ele><time>2026-04-24T17:45:35.996Z</time></trkpt><trkpt lat="31.41617472181105" lon="-5.694889112042214"><ele>1355.0</ele><time>2026-04-24T17:45:36.996Z</time></trkpt><trkpt lat="31.41620523559159" lon="-5.694801062115461"><ele>1355.0</ele><time>2026-04-24T17:45:37.996Z</time></trkpt><trkpt lat="31.416232899210247" lon="-5.694724365480484"><ele>1355.0</ele><time>2026-04-24T17:45:38.996Z</time></trkpt><trkpt lat="31.416276028903138" lon="-5.694602168912257"><ele>1355.0</ele><time>2026-04-24T17:45:40.996Z</time></trkpt><trkpt lat="31.41630113891938" lon="-5.694532284975717"><ele>1355.0</ele><time>2026-04-24T17:45:42.996Z</time></trkpt><trkpt lat="31.41631728162539" lon="-5.69444729129583"><ele>1355.0</ele><time>2026-04-24T17:45:46.996Z</time></trkpt><trkpt lat="31.416357121628867" lon="-5.6943845913098"><ele>1355.0</ele><time>2026-04-24T17:45:49.995Z</time></trkpt><trkpt lat="31.416383144108174" lon="-5.6943048289033"><ele>1355.0</ele><time>2026-04-24T17:45:52.995Z</time></trkpt><trkpt lat="31.416413558462853" lon="-5.694200298065131"><ele>1355.0</ele><time>2026-04-24T17:45:55.995Z</time></trkpt><trkpt lat="31.41645888593051" lon="-5.694089625667859"><ele>1355.3333333333335</ele><time>2026-04-24T17:45:57.995Z</time></trkpt><trkpt lat="31.416483056504543" lon="-5.694012252622573"><ele>1355.6666666666667</ele><time>2026-04-24T17:45:58.995Z</time></trkpt><trkpt lat="31.416512019561292" lon="-5.69392929186762"><ele>1356.0</ele><time>2026-04-24T17:45:59.995Z</time></trkpt><trkpt lat="31.4165438962277" lon="-5.693836621748993"><ele>1356.3333333333333</ele><time>2026-04-24T17:46:00.995Z</time></trkpt><trkpt lat="31.41658107869443" lon="-5.693735449290425"><ele>1356.6666666666665</ele><time>2026-04-24T17:46:01.995Z</time></trkpt><trkpt lat="31.416619276382384" lon="-5.6936326496424075"><ele>1357.0</ele><time>2026-04-24T17:46:02.995Z</time></trkpt><trkpt lat="31.416660008681767" lon="-5.693519293811699"><ele>1357.0</ele><time>2026-04-24T17:46:03.995Z</time></trkpt><trkpt lat="31.41670024940591" lon="-5.693399529222"><ele>1357.0</ele><time>2026-04-24T17:46:04.995Z</time></trkpt><trkpt lat="31.41674511540755" lon="-5.693273078371687"><ele>1357.0</ele><time>2026-04-24T17:46:05.995Z</time></trkpt><trkpt lat="31.41679333676967" lon="-5.69314007612798"><ele>1357.0</ele><time>2026-04-24T17:46:06.995Z</time></trkpt><trkpt lat="31.416844258504987" lon="-5.692999359101225"><ele>1357.0</ele><time>2026-04-24T17:46:07.995Z</time></trkpt><trkpt lat="31.41689825677104" lon="-5.6928501232503566"><ele>1357.0</ele><time>2026-04-24T17:46:08.995Z</time></trkpt><trkpt lat="31.416951709166906" lon="-5.692694840921568"><ele>1357.0</ele><time>2026-04-24T17:46:09.995Z</time></trkpt><trkpt lat="31.417006441265027" lon="-5.692533387535145"><ele>1357.0</ele><time>2026-04-24T17:46:10.995Z</time></trkpt><trkpt lat="31.417064413268488" lon="-5.6923628177290135"><ele>1357.0</ele><time>2026-04-24T17:46:11.995Z</time></trkpt><trkpt lat="31.41712810183599" lon="-5.69218407341876"><ele>1357.0</ele><time>2026-04-24T17:46:12.995Z</time></trkpt><trkpt lat="31.41719239128067" lon="-5.6919989805767885"><ele>1357.0</ele><time>2026-04-24T17:46:13.995Z</time></trkpt><trkpt lat="31.417261577458767" lon="-5.691800682301001"><ele>1357.0</ele><time>2026-04-24T17:46:14.995Z</time></trkpt><trkpt lat="31.4173340845286" lon="-5.691595670764658"><ele>1357.0</ele><time>2026-04-24T17:46:15.995Z</time></trkpt><trkpt lat="31.41741040811427" lon="-5.691382754867998"><ele>1357.0</ele><time>2026-04-24T17:46:16.995Z</time></trkpt><trkpt lat="31.417485919797187" lon="-5.691170317286411"><ele>1357.0</ele><time>2026-04-24T17:46:17.995Z</time></trkpt><trkpt lat="31.417561742814684" lon="-5.6909543989761096"><ele>1357.0</ele><time>2026-04-24T17:46:18.995Z</time></trkpt><trkpt lat="31.417641219397304" lon="-5.69073086422057"><ele>1357.0</ele><time>2026-04-24T17:46:19.995Z</time></trkpt><trkpt lat="31.417720424614384" lon="-5.6904982296757565"><ele>1357.3333333333333</ele><time>2026-04-24T17:46:20.995Z</time></trkpt><trkpt lat="31.417803670321344" lon="-5.690257439256833"><ele>1357.6666666666667</ele><time>2026-04-24T17:46:21.995Z</time></trkpt><trkpt lat="31.417886861194322" lon="-5.690018443770203"><ele>1358.0</ele><time>2026-04-24T17:46:22.995Z</time></trkpt><trkpt lat="31.417968756462283" lon="-5.689780549829944"><ele>1357.6666666666667</ele><time>2026-04-24T17:46:23.995Z</time></trkpt><trkpt lat="31.418051026448833" lon="-5.68954618147678"><ele>1357.3333333333333</ele><time>2026-04-24T17:46:24.995Z</time></trkpt><trkpt lat="31.418132576925505" lon="-5.68931320160497"><ele>1357.0</ele><time>2026-04-24T17:46:25.995Z</time></trkpt><trkpt lat="31.418211790683735" lon="-5.689083631989796"><ele>1356.6666666666665</ele><time>2026-04-24T17:46:26.995Z</time></trkpt><trkpt lat="31.41829133007317" lon="-5.6888526701104105"><ele>1356.3333333333333</ele><time>2026-04-24T17:46:27.995Z</time></trkpt><trkpt lat="31.418376197903726" lon="-5.688622859123366"><ele>1356.0</ele><time>2026-04-24T17:46:28.995Z</time></trkpt><trkpt lat="31.41846169503014" lon="-5.688389829526255"><ele>1355.5</ele><time>2026-04-24T17:46:29.995Z</time></trkpt><trkpt lat="31.418553325057225" lon="-5.688152728824837"><ele>1355.0</ele><time>2026-04-24T17:46:30.995Z</time></trkpt><trkpt lat="31.418657100095192" lon="-5.687911379002648"><ele>1354.5</ele><time>2026-04-24T17:46:31.995Z</time></trkpt><trkpt lat="31.418775938241886" lon="-5.687662597857444"><ele>1354.0</ele><time>2026-04-24T17:46:32.995Z</time></trkpt><trkpt lat="31.418906712257026" lon="-5.687416235880904"><ele>1353.5</ele><time>2026-04-24T17:46:33.994Z</time></trkpt><trkpt lat="31.41902697581778" lon="-5.687186381104971"><ele>1353.0</ele><time>2026-04-24T17:46:34.994Z</time></trkpt><trkpt lat="31.419169236653918" lon="-5.686939756779725"><ele>1352.3333333333333</ele><time>2026-04-24T17:46:35.994Z</time></trkpt><trkpt lat="31.41929147062232" lon="-5.686728310472866"><ele>1351.6666666666665</ele><time>2026-04-24T17:46:36.994Z</time></trkpt><trkpt lat="31.419405308272438" lon="-5.686529584918723"><ele>1351.0</ele><time>2026-04-24T17:46:37.994Z</time></trkpt><trkpt lat="31.419511841930053" lon="-5.686338112030552"><ele>1351.0</ele><time>2026-04-24T17:46:38.994Z</time></trkpt><trkpt lat="31.419614460743382" lon="-5.686154909080731"><ele>1351.0</ele><time>2026-04-24T17:46:39.994Z</time></trkpt><trkpt lat="31.419715212921403" lon="-5.685972076203996"><ele>1351.0</ele><time>2026-04-24T17:46:40.994Z</time></trkpt><trkpt lat="31.419816453408544" lon="-5.685789423569058"><ele>1350.6666666666665</ele><time>2026-04-24T17:46:41.994Z</time></trkpt><trkpt lat="31.419917905494433" lon="-5.685607054993146"><ele>1350.3333333333333</ele><time>2026-04-24T17:46:42.994Z</time></trkpt><trkpt lat="31.420022057057686" lon="-5.685423659678733"><ele>1350.0</ele><time>2026-04-24T17:46:43.994Z</time></trkpt><trkpt lat="31.42012587492395" lon="-5.685241178756499"><ele>1349.0</ele><time>2026-04-24T17:46:44.994Z</time></trkpt><trkpt lat="31.42022893625962" lon="-5.685054880235682"><ele>1348.0</ele><time>2026-04-24T17:46:45.994Z</time></trkpt><trkpt lat="31.420334285681278" lon="-5.684865791924106"><ele>1347.0</ele><time>2026-04-24T17:46:46.994Z</time></trkpt><trkpt lat="31.420443048311157" lon="-5.6846747435014695"><ele>1347.3333333333333</ele><time>2026-04-24T17:46:47.994Z</time></trkpt><trkpt lat="31.420552980622112" lon="-5.684477294882001"><ele>1347.6666666666665</ele><time>2026-04-24T17:46:48.994Z</time></trkpt><trkpt lat="31.420664507371775" lon="-5.684273315687721"><ele>1348.0</ele><time>2026-04-24T17:46:49.994Z</time></trkpt><trkpt lat="31.420778826109636" lon="-5.684067785318388"><ele>1348.0</ele><time>2026-04-24T17:46:50.994Z</time></trkpt><trkpt lat="31.420894006111578" lon="-5.683862546740021"><ele>1348.0</ele><time>2026-04-24T17:46:51.994Z</time></trkpt><trkpt lat="31.42101062703784" lon="-5.683654114288899"><ele>1348.0</ele><time>2026-04-24T17:46:52.994Z</time></trkpt><trkpt lat="31.42112553759671" lon="-5.683446361621886"><ele>1348.3333333333333</ele><time>2026-04-24T17:46:53.994Z</time></trkpt><trkpt lat="31.421241155590874" lon="-5.683236057554152"><ele>1348.6666666666667</ele><time>2026-04-24T17:46:54.994Z</time></trkpt><trkpt lat="31.421362382301574" lon="-5.683021159061131"><ele>1349.0</ele><time>2026-04-24T17:46:55.994Z</time></trkpt><trkpt lat="31.42148713362371" lon="-5.682802140609327"><ele>1348.0</ele><time>2026-04-24T17:46:56.994Z</time></trkpt><trkpt lat="31.421615344515036" lon="-5.6825768731150275"><ele>1347.0</ele><time>2026-04-24T17:46:57.994Z</time></trkpt><trkpt lat="31.421750580481575" lon="-5.682343579942403"><ele>1347.0</ele><time>2026-04-24T17:46:58.994Z</time></trkpt><trkpt lat="31.42189833088696" lon="-5.682092212739845"><ele>1347.0</ele><time>2026-04-24T17:46:59.994Z</time></trkpt><trkpt lat="31.422057679847025" lon="-5.681822176834991"><ele>1347.0</ele><time>2026-04-24T17:47:00.994Z</time></trkpt><trkpt lat="31.42222482468659" lon="-5.681525055721141"><ele>1347.0</ele><time>2026-04-24T17:47:01.994Z</time></trkpt><trkpt lat="31.422392601121857" lon="-5.681214622238601"><ele>1346.5</ele><time>2026-04-24T17:47:02.994Z</time></trkpt><trkpt lat="31.422559926062064" lon="-5.680898953583655"><ele>1346.0</ele><time>2026-04-24T17:47:03.994Z</time></trkpt><trkpt lat="31.422727979927483" lon="-5.680589505043127"><ele>1346.0</ele><time>2026-04-24T17:47:04.994Z</time></trkpt><trkpt lat="31.422895839004806" lon="-5.680282592369835"><ele>1346.0</ele><time>2026-04-24T17:47:05.995Z</time></trkpt><trkpt lat="31.423061801823984" lon="-5.679984050847347"><ele>1346.0</ele><time>2026-04-24T17:47:06.995Z</time></trkpt><trkpt lat="31.423222535899065" lon="-5.679693015448807"><ele>1346.0</ele><time>2026-04-24T17:47:07.995Z</time></trkpt><trkpt lat="31.423381161667585" lon="-5.67940893456495"><ele>1346.0</ele><time>2026-04-24T17:47:08.996Z</time></trkpt><trkpt lat="31.42353203503193" lon="-5.67912824623945"><ele>1346.0</ele><time>2026-04-24T17:47:09.996Z</time></trkpt><trkpt lat="31.423687004782558" lon="-5.678855117062206"><ele>1346.5</ele><time>2026-04-24T17:47:10.996Z</time></trkpt><trkpt lat="31.42383857664785" lon="-5.678582715492914"><ele>1347.0</ele><time>2026-04-24T17:47:11.997Z</time></trkpt><trkpt lat="31.42399202518443" lon="-5.678309684426358"><ele>1347.0</ele><time>2026-04-24T17:47:12.997Z</time></trkpt><trkpt lat="31.42414462991533" lon="-5.678037784984362"><ele>1347.0</ele><time>2026-04-24T17:47:13.997Z</time></trkpt><trkpt lat="31.42429535778931" lon="-5.677765815060615"><ele>1346.5</ele><time>2026-04-24T17:47:14.997Z</time></trkpt><trkpt lat="31.4244449553383" lon="-5.677501753667238"><ele>1346.0</ele><time>2026-04-24T17:47:15.997Z</time></trkpt><trkpt lat="31.42459017635972" lon="-5.677242997523162"><ele>1346.5</ele><time>2026-04-24T17:47:16.998Z</time></trkpt><trkpt lat="31.424728083421932" lon="-5.676994431538386"><ele>1347.0</ele><time>2026-04-24T17:47:17.998Z</time></trkpt><trkpt lat="31.424864050693788" lon="-5.676750955189881"><ele>1347.0</ele><time>2026-04-24T17:47:18.998Z</time></trkpt><trkpt lat="31.42499976316889" lon="-5.676513249094473"><ele>1347.0</ele><time>2026-04-24T17:47:19.998Z</time></trkpt><trkpt lat="31.425131691537693" lon="-5.676280056460226"><ele>1346.5</ele><time>2026-04-24T17:47:20.998Z</time></trkpt><trkpt lat="31.425261415330098" lon="-5.6760540937674895"><ele>1346.0</ele><time>2026-04-24T17:47:21.998Z</time></trkpt><trkpt lat="31.425383021089626" lon="-5.675834303793405"><ele>1346.0</ele><time>2026-04-24T17:47:22.998Z</time></trkpt><trkpt lat="31.42550423030332" lon="-5.6756165922637125"><ele>1346.0</ele><time>2026-04-24T17:47:23.998Z</time></trkpt><trkpt lat="31.425626130967753" lon="-5.675396532907782"><ele>1346.0</ele><time>2026-04-24T17:47:24.998Z</time></trkpt><trkpt lat="31.425752473307448" lon="-5.675170208077561"><ele>1346.0</ele><time>2026-04-24T17:47:25.999Z</time></trkpt><trkpt lat="31.42587757306267" lon="-5.674944059560123"><ele>1346.0</ele><time>2026-04-24T17:47:26.999Z</time></trkpt><trkpt lat="31.426000875300208" lon="-5.6747249161219315"><ele>1346.0</ele><time>2026-04-24T17:47:27.999Z</time></trkpt><trkpt lat="31.42611683002731" lon="-5.674514918186274"><ele>1346.0</ele><time>2026-04-24T17:47:28.999Z</time></trkpt><trkpt lat="31.426231902129246" lon="-5.674308759794477"><ele>1346.0</ele><time>2026-04-24T17:47:29.999Z</time></trkpt><trkpt lat="31.426344470367685" lon="-5.674108141127928"><ele>1347.0</ele><time>2026-04-24T17:47:30.999Z</time></trkpt><trkpt lat="31.4264568942532" lon="-5.67390716672256"><ele>1348.0</ele><time>2026-04-24T17:47:31.999Z</time></trkpt><trkpt lat="31.42656905815658" lon="-5.673705776829463"><ele>1349.0</ele><time>2026-04-24T17:47:32.999Z</time></trkpt><trkpt lat="31.426680141154176" lon="-5.6735063225622895"><ele>1349.0</ele><time>2026-04-24T17:47:33.999Z</time></trkpt><trkpt lat="31.426789696969895" lon="-5.673309661664395"><ele>1349.0</ele><time>2026-04-24T17:47:34.999Z</time></trkpt><trkpt lat="31.426896980619812" lon="-5.673115021667963"><ele>1349.0</ele><time>2026-04-24T17:47:35.999Z</time></trkpt><trkpt lat="31.427005502862794" lon="-5.6729173404700814"><ele>1348.6666666666667</ele><time>2026-04-24T17:47:36.999Z</time></trkpt><trkpt lat="31.427120507654767" lon="-5.672718544533649"><ele>1348.3333333333333</ele><time>2026-04-24T17:47:37.999Z</time></trkpt><trkpt lat="31.42724486386803" lon="-5.672507288478761"><ele>1348.0</ele><time>2026-04-24T17:47:38.999Z</time></trkpt><trkpt lat="31.427312068919232" lon="-5.672218064994201"><ele>1349.5</ele><time>2026-04-24T17:47:39.999Z</time></trkpt><trkpt lat="31.42745397528375" lon="-5.6719639810255496"><ele>1351.0</ele><time>2026-04-24T17:47:40.999Z</time></trkpt><trkpt lat="31.427598874862454" lon="-5.671704702961413"><ele>1351.0</ele><time>2026-04-24T17:47:41.999Z</time></trkpt><trkpt lat="31.427738611228204" lon="-5.67145466365451"><ele>1351.0</ele><time>2026-04-24T17:47:42.999Z</time></trkpt><trkpt lat="31.427875914802634" lon="-5.671208977601995"><ele>1352.5</ele><time>2026-04-24T17:47:43.999Z</time></trkpt><trkpt lat="31.428013576274495" lon="-5.67096265110081"><ele>1354.0</ele><time>2026-04-24T17:47:44.999Z</time></trkpt><trkpt lat="31.428148093321713" lon="-5.670721951184832"><ele>1354.0</ele><time>2026-04-24T17:47:45.999Z</time></trkpt><trkpt lat="31.42828033765913" lon="-5.670484932889142"><ele>1354.0</ele><time>2026-04-24T17:47:46.999Z</time></trkpt><trkpt lat="31.428409469821258" lon="-5.6702509332502355"><ele>1354.0</ele><time>2026-04-24T17:47:47.999Z</time></trkpt><trkpt lat="31.428537225244487" lon="-5.670014000836648"><ele>1354.0</ele><time>2026-04-24T17:47:48.999Z</time></trkpt><trkpt lat="31.428663895905625" lon="-5.669777911753528"><ele>1354.0</ele><time>2026-04-24T17:47:49.999Z</time></trkpt><trkpt lat="31.42877888847876" lon="-5.669543286921331"><ele>1354.0</ele><time>2026-04-24T17:47:50.999Z</time></trkpt><trkpt lat="31.428895484335598" lon="-5.669303949262038"><ele>1354.0</ele><time>2026-04-24T17:47:51.999Z</time></trkpt><trkpt lat="31.428983923823118" lon="-5.669058832000353"><ele>1354.0</ele><time>2026-04-24T17:47:52.999Z</time></trkpt><trkpt lat="31.42907717264638" lon="-5.668807678360191"><ele>1354.0</ele><time>2026-04-24T17:47:53.999Z</time></trkpt><trkpt lat="31.42916733703371" lon="-5.668552547160951"><ele>1354.0</ele><time>2026-04-24T17:47:54.999Z</time></trkpt><trkpt lat="31.42925727311297" lon="-5.668295338445544"><ele>1354.0</ele><time>2026-04-24T17:47:55.999Z</time></trkpt><trkpt lat="31.429347248939305" lon="-5.6680380158836945"><ele>1354.0</ele><time>2026-04-24T17:47:56.999Z</time></trkpt><trkpt lat="31.429437816074625" lon="-5.6677790019606995"><ele>1353.5</ele><time>2026-04-24T17:47:57.999Z</time></trkpt><trkpt lat="31.42953034726331" lon="-5.667514527185779"><ele>1353.0</ele><time>2026-04-24T17:47:58.999Z</time></trkpt><trkpt lat="31.429625634427666" lon="-5.667242475746877"><ele>1353.0</ele><time>2026-04-24T17:47:59.999Z</time></trkpt><trkpt lat="31.42972394677917" lon="-5.666966401484501"><ele>1353.0</ele><time>2026-04-24T17:48:00.999Z</time></trkpt><trkpt lat="31.429823532899537" lon="-5.666687432317709"><ele>1353.0</ele><time>2026-04-24T17:48:01.999Z</time></trkpt><trkpt lat="31.42992340232027" lon="-5.666407669510757"><ele>1353.0</ele><time>2026-04-24T17:48:02.999Z</time></trkpt><trkpt lat="31.43002393313006" lon="-5.666126053849537"><ele>1352.0</ele><time>2026-04-24T17:48:03.999Z</time></trkpt><trkpt lat="31.430124943492643" lon="-5.6658430947349965"><ele>1351.0</ele><time>2026-04-24T17:48:04.999Z</time></trkpt><trkpt lat="31.430226292297927" lon="-5.665558104222718"><ele>1351.0</ele><time>2026-04-24T17:48:05.999Z</time></trkpt><trkpt lat="31.430328773888068" lon="-5.66527216457453"><ele>1351.0</ele><time>2026-04-24T17:48:06.999Z</time></trkpt><trkpt lat="31.43042921042069" lon="-5.664981848394981"><ele>1353.0</ele><time>2026-04-24T17:48:07.999Z</time></trkpt><trkpt lat="31.430529463643143" lon="-5.664689800873151"><ele>1355.0</ele><time>2026-04-24T17:48:08.999Z</time></trkpt><trkpt lat="31.4306301795638" lon="-5.66439584099251"><ele>1355.0</ele><time>2026-04-24T17:48:09.999Z</time></trkpt><trkpt lat="31.430732653881286" lon="-5.664096849890874"><ele>1355.0</ele><time>2026-04-24T17:48:10.999Z</time></trkpt><trkpt lat="31.430837252343313" lon="-5.663792615708253"><ele>1354.5</ele><time>2026-04-24T17:48:11.999Z</time></trkpt><trkpt lat="31.430944335442934" lon="-5.663489305359372"><ele>1354.0</ele><time>2026-04-24T17:48:12.999Z</time></trkpt><trkpt lat="31.431051826411927" lon="-5.663185434367045"><ele>1354.0</ele><time>2026-04-24T17:48:13.999Z</time></trkpt><trkpt lat="31.43115973004526" lon="-5.662881907198451"><ele>1354.0</ele><time>2026-04-24T17:48:14.999Z</time></trkpt><trkpt lat="31.431267264130298" lon="-5.662578970705021"><ele>1356.5</ele><time>2026-04-24T17:48:15.999Z</time></trkpt><trkpt lat="31.431373134318353" lon="-5.6622806425293986"><ele>1359.0</ele><time>2026-04-24T17:48:16.999Z</time></trkpt><trkpt lat="31.43147934623037" lon="-5.661981328192376"><ele>1358.5</ele><time>2026-04-24T17:48:17.999Z</time></trkpt><trkpt lat="31.431587110055442" lon="-5.661679470809699"><ele>1358.0</ele><time>2026-04-24T17:48:18.999Z</time></trkpt><trkpt lat="31.431695345750413" lon="-5.661376266632727"><ele>1356.0</ele><time>2026-04-24T17:48:19.999Z</time></trkpt><trkpt lat="31.431802397658004" lon="-5.6610763786357285"><ele>1354.0</ele><time>2026-04-24T17:48:20.999Z</time></trkpt><trkpt lat="31.431910555350836" lon="-5.660779716685378"><ele>1354.0</ele><time>2026-04-24T17:48:21.999Z</time></trkpt><trkpt lat="31.432019992303818" lon="-5.660485215552679"><ele>1354.0</ele><time>2026-04-24T17:48:22.999Z</time></trkpt><trkpt lat="31.432130149777233" lon="-5.660188230286854"><ele>1356.0</ele><time>2026-04-24T17:48:23.999Z</time></trkpt><trkpt lat="31.4322387781997" lon="-5.659893850073303"><ele>1358.0</ele><time>2026-04-24T17:48:24.999Z</time></trkpt><trkpt lat="31.432347950371888" lon="-5.659597245772202"><ele>1357.5</ele><time>2026-04-24T17:48:25.999Z</time></trkpt><trkpt lat="31.432462678212925" lon="-5.659305150039471"><ele>1357.0</ele><time>2026-04-24T17:48:26.999Z</time></trkpt><trkpt lat="31.432716255907703" lon="-5.65908079390329"><ele>1357.0</ele><time>2026-04-24T17:48:27.999Z</time></trkpt><trkpt lat="31.432853491493475" lon="-5.658799354024217"><ele>1357.0</ele><time>2026-04-24T17:48:28.999Z</time></trkpt><trkpt lat="31.43299340114963" lon="-5.658516123764057"><ele>1357.5</ele><time>2026-04-24T17:48:29.999Z</time></trkpt><trkpt lat="31.43313460916971" lon="-5.658231937598188"><ele>1358.0</ele><time>2026-04-24T17:48:30.999Z</time></trkpt><trkpt lat="31.43327695274335" lon="-5.657946485785609"><ele>1357.5</ele><time>2026-04-24T17:48:31.999Z</time></trkpt><trkpt lat="31.433418679123367" lon="-5.657662454292355"><ele>1357.0</ele><time>2026-04-24T17:48:32.999Z</time></trkpt><trkpt lat="31.433557858942706" lon="-5.657380724040026"><ele>1357.0</ele><time>2026-04-24T17:48:33.999Z</time></trkpt><trkpt lat="31.433695707196115" lon="-5.657099144706709"><ele>1357.0</ele><time>2026-04-24T17:48:34.999Z</time></trkpt><trkpt lat="31.433831124309595" lon="-5.656822722969741"><ele>1360.5</ele><time>2026-04-24T17:48:35.999Z</time></trkpt><trkpt lat="31.43396271910611" lon="-5.65655378238439"><ele>1364.0</ele><time>2026-04-24T17:48:36.999Z</time></trkpt><trkpt lat="31.434093765146528" lon="-5.656289992908592"><ele>1363.5</ele><time>2026-04-24T17:48:37.999Z</time></trkpt><trkpt lat="31.434232324138936" lon="-5.656025348114026"><ele>1363.0</ele><time>2026-04-24T17:48:38.999Z</time></trkpt><trkpt lat="31.43438153028633" lon="-5.655761378920827"><ele>1363.0</ele><time>2026-04-24T17:48:39.999Z</time></trkpt><trkpt lat="31.434540076034708" lon="-5.65550262175355"><ele>1363.0</ele><time>2026-04-24T17:48:40.999Z</time></trkpt><trkpt lat="31.434707208773844" lon="-5.655251071097904"><ele>1365.0</ele><time>2026-04-24T17:48:41.999Z</time></trkpt><trkpt lat="31.434877140124502" lon="-5.6550100619401995"><ele>1367.0</ele><time>2026-04-24T17:48:42.999Z</time></trkpt><trkpt lat="31.435045418457154" lon="-5.654783388679306"><ele>1367.0</ele><time>2026-04-24T17:48:43.999Z</time></trkpt><trkpt lat="31.43521087831816" lon="-5.654569695131904"><ele>1367.0</ele><time>2026-04-24T17:48:44.999Z</time></trkpt><trkpt lat="31.4353738717514" lon="-5.654366046836864"><ele>1368.0</ele><time>2026-04-24T17:48:45.999Z</time></trkpt><trkpt lat="31.435538103625863" lon="-5.654168385611362"><ele>1369.0</ele><time>2026-04-24T17:48:46.999Z</time></trkpt><trkpt lat="31.435714363448792" lon="-5.653969728166704"><ele>1369.0</ele><time>2026-04-24T17:48:47.999Z</time></trkpt><trkpt lat="31.43590639741016" lon="-5.653772222994761"><ele>1369.0</ele><time>2026-04-24T17:48:48.999Z</time></trkpt><trkpt lat="31.43610917357873" lon="-5.65358048687426"><ele>1367.0</ele><time>2026-04-24T17:48:49.999Z</time></trkpt><trkpt lat="31.436318536712573" lon="-5.653386829641975"><ele>1365.0</ele><time>2026-04-24T17:48:50.999Z</time></trkpt><trkpt lat="31.43653194146407" lon="-5.65318980968929"><ele>1365.0</ele><time>2026-04-24T17:48:51.999Z</time></trkpt><trkpt lat="31.43674924275434" lon="-5.652990938925848"><ele>1365.0</ele><time>2026-04-24T17:48:52.999Z</time></trkpt><trkpt lat="31.436968251014726" lon="-5.652787984947166"><ele>1363.0</ele><time>2026-04-24T17:48:53.999Z</time></trkpt><trkpt lat="31.43718670992989" lon="-5.65258326674649"><ele>1361.0</ele><time>2026-04-24T17:48:54.999Z</time></trkpt><trkpt lat="31.43740207911109" lon="-5.652381791983431"><ele>1361.0</ele><time>2026-04-24T17:48:55.999Z</time></trkpt><trkpt lat="31.43761644065786" lon="-5.652184444578825"><ele>1361.0</ele><time>2026-04-24T17:48:56.999Z</time></trkpt><trkpt lat="31.43782819976911" lon="-5.651990813220147"><ele>1360.0</ele><time>2026-04-24T17:48:57.999Z</time></trkpt><trkpt lat="31.438036846851798" lon="-5.651799212398394"><ele>1359.0</ele><time>2026-04-24T17:48:58.999Z</time></trkpt><trkpt lat="31.438234102911128" lon="-5.6516066658031"><ele>1359.0</ele><time>2026-04-24T17:48:59.999Z</time></trkpt><trkpt lat="31.438417493295493" lon="-5.651404797359093"><ele>1359.0</ele><time>2026-04-24T17:49:00.999Z</time></trkpt><trkpt lat="31.438581577236278" lon="-5.65119298863055"><ele>1359.5</ele><time>2026-04-24T17:49:01.999Z</time></trkpt><trkpt lat="31.438730118140853" lon="-5.650976364819937"><ele>1360.0</ele><time>2026-04-24T17:49:02.999Z</time></trkpt><trkpt lat="31.438869739708" lon="-5.650752849564979"><ele>1360.0</ele><time>2026-04-24T17:49:03.999Z</time></trkpt><trkpt lat="31.43899971015942" lon="-5.650515881347638"><ele>1360.0</ele><time>2026-04-24T17:49:04.999Z</time></trkpt><trkpt lat="31.439112155694467" lon="-5.650259643460817"><ele>1359.0</ele><time>2026-04-24T17:49:05.999Z</time></trkpt><trkpt lat="31.43921055351771" lon="-5.649991163084387"><ele>1358.0</ele><time>2026-04-24T17:49:06.999Z</time></trkpt><trkpt lat="31.439295184951483" lon="-5.649720944096735"><ele>1356.5</ele><time>2026-04-24T17:49:07.999Z</time></trkpt><trkpt lat="31.439366545703113" lon="-5.649435712512717"><ele>1355.0</ele><time>2026-04-24T17:49:08.999Z</time></trkpt><trkpt lat="31.43942209454517" lon="-5.649139982579059"><ele>1355.0</ele><time>2026-04-24T17:49:09.999Z</time></trkpt><trkpt lat="31.43945230908664" lon="-5.6488359203914"><ele>1355.0</ele><time>2026-04-24T17:49:11Z</time></trkpt><trkpt lat="31.43946265450969" lon="-5.648523863370326"><ele>1355.0</ele><time>2026-04-24T17:49:12Z</time></trkpt><trkpt lat="31.43945141866718" lon="-5.648203844134226"><ele>1355.0</ele><time>2026-04-24T17:49:13Z</time></trkpt><trkpt lat="31.439430227829604" lon="-5.64788120478477"><ele>1355.0</ele><time>2026-04-24T17:49:14Z</time></trkpt><trkpt lat="31.439400447625182" lon="-5.64755489008343"><ele>1355.0</ele><time>2026-04-24T17:49:15Z</time></trkpt><trkpt lat="31.439372160281007" lon="-5.647226862592652"><ele>1354.5</ele><time>2026-04-24T17:49:16Z</time></trkpt><trkpt lat="31.439345745065477" lon="-5.646897370372907"><ele>1354.0</ele><time>2026-04-24T17:49:17Z</time></trkpt><trkpt lat="31.439320435786282" lon="-5.646567440549427"><ele>1354.0</ele><time>2026-04-24T17:49:18Z</time></trkpt><trkpt lat="31.43929569732042" lon="-5.6462369068255"><ele>1354.0</ele><time>2026-04-24T17:49:19Z</time></trkpt><trkpt lat="31.43926849660747" lon="-5.64590631734959"><ele>1352.5</ele><time>2026-04-24T17:49:20Z</time></trkpt><trkpt lat="31.439240578707338" lon="-5.645578374860065"><ele>1351.0</ele><time>2026-04-24T17:49:21Z</time></trkpt><trkpt lat="31.439213561549177" lon="-5.645250110662394"><ele>1349.5</ele><time>2026-04-24T17:49:22Z</time></trkpt><trkpt lat="31.43918695854754" lon="-5.644925200429969"><ele>1348.0</ele><time>2026-04-24T17:49:23Z</time></trkpt><trkpt lat="31.439161455960644" lon="-5.644606225972091"><ele>1346.5</ele><time>2026-04-24T17:49:24Z</time></trkpt><trkpt lat="31.439136496440067" lon="-5.644293901507172"><ele>1345.0</ele><time>2026-04-24T17:49:25Z</time></trkpt><trkpt lat="31.4391138839275" lon="-5.643990833950294"><ele>1345.0</ele><time>2026-04-24T17:49:26Z</time></trkpt><trkpt lat="31.439098430308654" lon="-5.643695737131472"><ele>1345.0</ele><time>2026-04-24T17:49:27Z</time></trkpt><trkpt lat="31.439094397105066" lon="-5.643398584787418"><ele>1345.0</ele><time>2026-04-24T17:49:28Z</time></trkpt><trkpt lat="31.43910539510125" lon="-5.643100241573805"><ele>1345.0</ele><time>2026-04-24T17:49:29Z</time></trkpt><trkpt lat="31.4391289955909" lon="-5.642801170047784"><ele>1344.5</ele><time>2026-04-24T17:49:30Z</time></trkpt><trkpt lat="31.439164929995965" lon="-5.642506849003613"><ele>1344.0</ele><time>2026-04-24T17:49:31Z</time></trkpt><trkpt lat="31.43921498949264" lon="-5.642213306418017"><ele>1344.5</ele><time>2026-04-24T17:49:32Z</time></trkpt><trkpt lat="31.439269911550497" lon="-5.641924548666141"><ele>1345.0</ele><time>2026-04-24T17:49:33Z</time></trkpt><trkpt lat="31.43932350178709" lon="-5.641694376144249"><ele>1345.0</ele><time>2026-04-24T17:49:34Z</time></trkpt><trkpt lat="31.43933127060211" lon="-5.641456420028731"><ele>1345.0</ele><time>2026-04-24T17:49:35Z</time></trkpt><trkpt lat="31.439397688957992" lon="-5.641222100856655"><ele>1345.0</ele><time>2026-04-24T17:49:36Z</time></trkpt><trkpt lat="31.439469399736932" lon="-5.640970649696156"><ele>1344.0</ele><time>2026-04-24T17:49:37Z</time></trkpt><trkpt lat="31.439584108384654" lon="-5.640706062990789"><ele>1343.0</ele><time>2026-04-24T17:49:38Z</time></trkpt><trkpt lat="31.43969980592995" lon="-5.640448665361732"><ele>1342.5</ele><time>2026-04-24T17:49:39Z</time></trkpt><trkpt lat="31.43981820627788" lon="-5.640183694073657"><ele>1342.0</ele><time>2026-04-24T17:49:40Z</time></trkpt><trkpt lat="31.43993945311006" lon="-5.63991081458644"><ele>1342.0</ele><time>2026-04-24T17:49:41Z</time></trkpt><trkpt lat="31.44006197683748" lon="-5.639635061304306"><ele>1342.0</ele><time>2026-04-24T17:49:42Z</time></trkpt><trkpt lat="31.440186903355812" lon="-5.6393545124208275"><ele>1341.0</ele><time>2026-04-24T17:49:43Z</time></trkpt><trkpt lat="31.440316900220722" lon="-5.639062683659087"><ele>1340.0</ele><time>2026-04-24T17:49:44Z</time></trkpt><trkpt lat="31.440449093939918" lon="-5.638766745351463"><ele>1340.0</ele><time>2026-04-24T17:49:45Z</time></trkpt><trkpt lat="31.440582501087455" lon="-5.6384681028076775"><ele>1340.0</ele><time>2026-04-24T17:49:46Z</time></trkpt><trkpt lat="31.440716546808236" lon="-5.638166633194785"><ele>1340.0</ele><time>2026-04-24T17:49:47Z</time></trkpt><trkpt lat="31.44085156691969" lon="-5.637862972171903"><ele>1340.0</ele><time>2026-04-24T17:49:48Z</time></trkpt><trkpt lat="31.440987210469743" lon="-5.6375579090278345"><ele>1339.0</ele><time>2026-04-24T17:49:49Z</time></trkpt><trkpt lat="31.44112325400611" lon="-5.637251946312292"><ele>1338.0</ele><time>2026-04-24T17:49:50Z</time></trkpt><trkpt lat="31.441261475420436" lon="-5.636941085542015"><ele>1338.5</ele><time>2026-04-24T17:49:51Z</time></trkpt><trkpt lat="31.441398111745215" lon="-5.636633789642527"><ele>1339.0</ele><time>2026-04-24T17:49:52Z</time></trkpt><trkpt lat="31.441532168872687" lon="-5.636332294373247"><ele>1339.0</ele><time>2026-04-24T17:49:53Z</time></trkpt><trkpt lat="31.441664381977727" lon="-5.63603700973932"><ele>1339.0</ele><time>2026-04-24T17:49:54Z</time></trkpt><trkpt lat="31.441795629655406" lon="-5.635746526775449"><ele>1339.0</ele><time>2026-04-24T17:49:55Z</time></trkpt><trkpt lat="31.44192466373104" lon="-5.635461353836468"><ele>1339.0</ele><time>2026-04-24T17:49:56Z</time></trkpt><trkpt lat="31.442054681086358" lon="-5.635174007783448"><ele>1339.0</ele><time>2026-04-24T17:49:57Z</time></trkpt><trkpt lat="31.442188178999253" lon="-5.634878866356895"><ele>1339.0</ele><time>2026-04-24T17:49:58Z</time></trkpt><trkpt lat="31.442323051835242" lon="-5.634580547622359"><ele>1337.5</ele><time>2026-04-24T17:49:58.999Z</time></trkpt><trkpt lat="31.44246221412779" lon="-5.634273164054031"><ele>1336.0</ele><time>2026-04-24T17:49:59.999Z</time></trkpt><trkpt lat="31.44260047444542" lon="-5.633967775236779"><ele>1336.0</ele><time>2026-04-24T17:50:00.999Z</time></trkpt><trkpt lat="31.44273637377759" lon="-5.633667578556219"><ele>1336.0</ele><time>2026-04-24T17:50:01.999Z</time></trkpt><trkpt lat="31.442870197400005" lon="-5.63337196704793"><ele>1336.0</ele><time>2026-04-24T17:50:02.999Z</time></trkpt><trkpt lat="31.443000773892813" lon="-5.633078405256533"><ele>1336.0</ele><time>2026-04-24T17:50:03.999Z</time></trkpt><trkpt lat="31.443131150595175" lon="-5.632784353123548"><ele>1334.5</ele><time>2026-04-24T17:50:04.999Z</time></trkpt><trkpt lat="31.443259775251562" lon="-5.63249391545739"><ele>1333.0</ele><time>2026-04-24T17:50:05.999Z</time></trkpt><trkpt lat="31.44338761538172" lon="-5.632204077338596"><ele>1332.0</ele><time>2026-04-24T17:50:06.999Z</time></trkpt><trkpt lat="31.443520222225807" lon="-5.631912870813833"><ele>1331.0</ele><time>2026-04-24T17:50:07.999Z</time></trkpt><trkpt lat="31.443653745934714" lon="-5.6316171008580245"><ele>1331.0</ele><time>2026-04-24T17:50:08.999Z</time></trkpt><trkpt lat="31.443789178083552" lon="-5.6313179736024"><ele>1331.0</ele><time>2026-04-24T17:50:09.999Z</time></trkpt><trkpt lat="31.443926580342577" lon="-5.6310138772075415"><ele>1331.0</ele><time>2026-04-24T17:50:10.999Z</time></trkpt><trkpt lat="31.44406468032615" lon="-5.630709493660684"><ele>1331.0</ele><time>2026-04-24T17:50:11.999Z</time></trkpt><trkpt lat="31.444202675800092" lon="-5.6304030724827205"><ele>1329.5</ele><time>2026-04-24T17:50:12.999Z</time></trkpt><trkpt lat="31.44433961629949" lon="-5.630095898380786"><ele>1328.0</ele><time>2026-04-24T17:50:13.999Z</time></trkpt><trkpt lat="31.444476891095167" lon="-5.629787974447128"><ele>1328.0</ele><time>2026-04-24T17:50:14.999Z</time></trkpt><trkpt lat="31.444612383345167" lon="-5.629483871148405"><ele>1328.0</ele><time>2026-04-24T17:50:15.999Z</time></trkpt><trkpt lat="31.444747787137853" lon="-5.629179862756675"><ele>1327.5</ele><time>2026-04-24T17:50:16.999Z</time></trkpt><trkpt lat="31.444883997710026" lon="-5.628874351064012"><ele>1327.0</ele><time>2026-04-24T17:50:17.999Z</time></trkpt><trkpt lat="31.445020866667786" lon="-5.62856799438126"><ele>1326.0</ele><time>2026-04-24T17:50:18.999Z</time></trkpt><trkpt lat="31.44515747604523" lon="-5.628262218722142"><ele>1325.0</ele><time>2026-04-24T17:50:19.999Z</time></trkpt><trkpt lat="31.445294545946272" lon="-5.6279554122660524"><ele>1324.5</ele><time>2026-04-24T17:50:20.999Z</time></trkpt><trkpt lat="31.44543160684125" lon="-5.627648625971157"><ele>1324.0</ele><time>2026-04-24T17:50:21.999Z</time></trkpt><trkpt lat="31.445568965024492" lon="-5.627341645986178"><ele>1324.0</ele><time>2026-04-24T17:50:22.999Z</time></trkpt><trkpt lat="31.445707939063006" lon="-5.627032502949656"><ele>1324.0</ele><time>2026-04-24T17:50:23.999Z</time></trkpt><trkpt lat="31.445848129296028" lon="-5.626721297033341"><ele>1323.0</ele><time>2026-04-24T17:50:24.999Z</time></trkpt><trkpt lat="31.445990232802952" lon="-5.6264070905341175"><ele>1322.0</ele><time>2026-04-24T17:50:25.999Z</time></trkpt><trkpt lat="31.446132830304382" lon="-5.626093108992943"><ele>1322.0</ele><time>2026-04-24T17:50:26.999Z</time></trkpt><trkpt lat="31.44627518586228" lon="-5.625777800105974"><ele>1322.0</ele><time>2026-04-24T17:50:27.999Z</time></trkpt><trkpt lat="31.446416973565608" lon="-5.625463748999469"><ele>1321.0</ele><time>2026-04-24T17:50:28.999Z</time></trkpt><trkpt lat="31.446559833094447" lon="-5.6251481528687375"><ele>1320.0</ele><time>2026-04-24T17:50:29.999Z</time></trkpt><trkpt lat="31.44670338324169" lon="-5.6248316498682085"><ele>1320.0</ele><time>2026-04-24T17:50:30.999Z</time></trkpt><trkpt lat="31.446845909881233" lon="-5.624517403769777"><ele>1320.0</ele><time>2026-04-24T17:50:31.999Z</time></trkpt><trkpt lat="31.44699134328848" lon="-5.624203791703741"><ele>1319.5</ele><time>2026-04-24T17:50:32.999Z</time></trkpt><trkpt lat="31.447180932780007" lon="-5.6239172780718745"><ele>1319.0</ele><time>2026-04-24T17:50:33.999Z</time></trkpt><trkpt lat="31.44732207437613" lon="-5.623601650439675"><ele>1319.0</ele><time>2026-04-24T17:50:34.999Z</time></trkpt><trkpt lat="31.44746330724291" lon="-5.62328707645465"><ele>1319.0</ele><time>2026-04-24T17:50:35.999Z</time></trkpt><trkpt lat="31.447606570678246" lon="-5.622970337843045"><ele>1318.0</ele><time>2026-04-24T17:50:36.999Z</time></trkpt><trkpt lat="31.44775125336074" lon="-5.622651106892699"><ele>1317.0</ele><time>2026-04-24T17:50:37.999Z</time></trkpt><trkpt lat="31.447893450454178" lon="-5.622329416986848"><ele>1317.0</ele><time>2026-04-24T17:50:38.999Z</time></trkpt><trkpt lat="31.448035386053437" lon="-5.622008535505349"><ele>1317.0</ele><time>2026-04-24T17:50:39.999Z</time></trkpt><trkpt lat="31.448177742846013" lon="-5.621687625803971"><ele>1317.0</ele><time>2026-04-24T17:50:40.999Z</time></trkpt><trkpt lat="31.448322133120598" lon="-5.6213662338374135"><ele>1317.0</ele><time>2026-04-24T17:50:41.999Z</time></trkpt><trkpt lat="31.44846653210463" lon="-5.621043759217295"><ele>1317.0</ele><time>2026-04-24T17:50:42.999Z</time></trkpt><trkpt lat="31.4486108459371" lon="-5.620720997811371"><ele>1317.0</ele><time>2026-04-24T17:50:43.999Z</time></trkpt><trkpt lat="31.448757440944593" lon="-5.620399430849825"><ele>1316.5</ele><time>2026-04-24T17:50:44.999Z</time></trkpt><trkpt lat="31.448901592301585" lon="-5.620081259514811"><ele>1316.0</ele><time>2026-04-24T17:50:45.999Z</time></trkpt><trkpt lat="31.44904617044143" lon="-5.619761481428425"><ele>1315.5</ele><time>2026-04-24T17:50:46.999Z</time></trkpt><trkpt lat="31.449191569680213" lon="-5.619441074656009"><ele>1315.0</ele><time>2026-04-24T17:50:47.999Z</time></trkpt><trkpt lat="31.449332847242207" lon="-5.619121169592514"><ele>1315.0</ele><time>2026-04-24T17:50:48.999Z</time></trkpt><trkpt lat="31.449472797285463" lon="-5.618802492413007"><ele>1315.0</ele><time>2026-04-24T17:50:49.999Z</time></trkpt><trkpt lat="31.449613044999843" lon="-5.618484562534201"><ele>1315.0</ele><time>2026-04-24T17:50:50.999Z</time></trkpt><trkpt lat="31.44975531647036" lon="-5.6181656323770275"><ele>1315.0</ele><time>2026-04-24T17:50:51.999Z</time></trkpt><trkpt lat="31.449897549760102" lon="-5.617848578153967"><ele>1315.5</ele><time>2026-04-24T17:50:52.999Z</time></trkpt><trkpt lat="31.45004030297458" lon="-5.617532185633341"><ele>1316.0</ele><time>2026-04-24T17:50:53.999Z</time></trkpt><trkpt lat="31.450183475100403" lon="-5.617213285258635"><ele>1316.0</ele><time>2026-04-24T17:50:54.999Z</time></trkpt><trkpt lat="31.450327039976987" lon="-5.616891840420175"><ele>1316.0</ele><time>2026-04-24T17:50:55.999Z</time></trkpt><trkpt lat="31.450470230712764" lon="-5.616570765030184"><ele>1316.0</ele><time>2026-04-24T17:50:56.999Z</time></trkpt><trkpt lat="31.450612413078304" lon="-5.616249312092341"><ele>1316.0</ele><time>2026-04-24T17:50:57.999Z</time></trkpt><trkpt lat="31.450754929506846" lon="-5.615934085791642"><ele>1315.0</ele><time>2026-04-24T17:50:58.999Z</time></trkpt><trkpt lat="31.450896884247168" lon="-5.615619033220117"><ele>1314.0</ele><time>2026-04-24T17:50:59.999Z</time></trkpt><trkpt lat="31.45103956836109" lon="-5.615302142205803"><ele>1314.0</ele><time>2026-04-24T17:51:00.999Z</time></trkpt><trkpt lat="31.4511780695495" lon="-5.614987625894392"><ele>1314.0</ele><time>2026-04-24T17:51:01.999Z</time></trkpt><trkpt lat="31.451317256227476" lon="-5.614675154178888"><ele>1313.0</ele><time>2026-04-24T17:51:02.999Z</time></trkpt><trkpt lat="31.451457670456442" lon="-5.614366208552271"><ele>1312.0</ele><time>2026-04-24T17:51:03.999Z</time></trkpt><trkpt lat="31.451597496228654" lon="-5.61405470787139"><ele>1312.0</ele><time>2026-04-24T17:51:04.999Z</time></trkpt><trkpt lat="31.451733641725536" lon="-5.613744566681781"><ele>1312.0</ele><time>2026-04-24T17:51:05.999Z</time></trkpt><trkpt lat="31.451871348912654" lon="-5.613435937356298"><ele>1312.0</ele><time>2026-04-24T17:51:06.999Z</time></trkpt><trkpt lat="31.45200858053899" lon="-5.613130951147841"><ele>1312.0</ele><time>2026-04-24T17:51:07.999Z</time></trkpt><trkpt lat="31.452143273835265" lon="-5.6128297001498"><ele>1311.5</ele><time>2026-04-24T17:51:08.999Z</time></trkpt><trkpt lat="31.452275449396254" lon="-5.612533279813329"><ele>1311.0</ele><time>2026-04-24T17:51:09.999Z</time></trkpt><trkpt lat="31.452408930085397" lon="-5.612239169556489"><ele>1310.0</ele><time>2026-04-24T17:51:10.999Z</time></trkpt><trkpt lat="31.45253744838904" lon="-5.611949174123292"><ele>1309.0</ele><time>2026-04-24T17:51:11.999Z</time></trkpt><trkpt lat="31.45266140674191" lon="-5.611667822044562"><ele>1309.0</ele><time>2026-04-24T17:51:12.999Z</time></trkpt><trkpt lat="31.452789992592717" lon="-5.611383149120925"><ele>1309.0</ele><time>2026-04-24T17:51:13.999Z</time></trkpt><trkpt lat="31.452920515713675" lon="-5.611099227053687"><ele>1309.5</ele><time>2026-04-24T17:51:14.999Z</time></trkpt><trkpt lat="31.453049134909655" lon="-5.61081288060087"><ele>1310.0</ele><time>2026-04-24T17:51:15.999Z</time></trkpt><trkpt lat="31.453177845133965" lon="-5.61052357416451"><ele>1309.0</ele><time>2026-04-24T17:51:17Z</time></trkpt><trkpt lat="31.45330756824087" lon="-5.610234080716596"><ele>1308.0</ele><time>2026-04-24T17:51:18Z</time></trkpt><trkpt lat="31.45343769305513" lon="-5.609941486652148"><ele>1308.0</ele><time>2026-04-24T17:51:19Z</time></trkpt><trkpt lat="31.45356884871971" lon="-5.609649263458899"><ele>1308.0</ele><time>2026-04-24T17:51:20Z</time></trkpt><trkpt lat="31.45370100988325" lon="-5.609360700809984"><ele>1308.5</ele><time>2026-04-24T17:51:21Z</time></trkpt><trkpt lat="31.45383465154752" lon="-5.609073904751192"><ele>1309.0</ele><time>2026-04-24T17:51:22Z</time></trkpt><trkpt lat="31.453972016762435" lon="-5.608784009759197"><ele>1307.0</ele><time>2026-04-24T17:51:23Z</time></trkpt><trkpt lat="31.45411525458439" lon="-5.608495965658679"><ele>1305.0</ele><time>2026-04-24T17:51:24Z</time></trkpt><trkpt lat="31.45426534190383" lon="-5.608213659942751"><ele>1305.0</ele><time>2026-04-24T17:51:25Z</time></trkpt><trkpt lat="31.454413149606413" lon="-5.607936923445374"><ele>1305.0</ele><time>2026-04-24T17:51:26Z</time></trkpt><trkpt lat="31.454558722638446" lon="-5.607663032011941"><ele>1306.0</ele><time>2026-04-24T17:51:27Z</time></trkpt><trkpt lat="31.45470630060586" lon="-5.60739102014303"><ele>1307.0</ele><time>2026-04-24T17:51:28Z</time></trkpt><trkpt lat="31.454855305873703" lon="-5.607118315256332"><ele>1306.5</ele><time>2026-04-24T17:51:29Z</time></trkpt><trkpt lat="31.455004201302508" lon="-5.60684363174988"><ele>1306.0</ele><time>2026-04-24T17:51:30Z</time></trkpt><trkpt lat="31.4551523678139" lon="-5.606568806528023"><ele>1306.0</ele><time>2026-04-24T17:51:31Z</time></trkpt><trkpt lat="31.455299502381255" lon="-5.6062960957046934"><ele>1306.0</ele><time>2026-04-24T17:51:32Z</time></trkpt><trkpt lat="31.455445715661227" lon="-5.60602584681151"><ele>1305.0</ele><time>2026-04-24T17:51:33Z</time></trkpt><trkpt lat="31.45559089901397" lon="-5.60575855746618"><ele>1304.0</ele><time>2026-04-24T17:51:34Z</time></trkpt><trkpt lat="31.45573378087457" lon="-5.605493763062833"><ele>1303.5</ele><time>2026-04-24T17:51:35Z</time></trkpt><trkpt lat="31.455876100772503" lon="-5.605231805946608"><ele>1303.0</ele><time>2026-04-24T17:51:36Z</time></trkpt><trkpt lat="31.456016367258382" lon="-5.604973139855776"><ele>1303.0</ele><time>2026-04-24T17:51:37Z</time></trkpt><trkpt lat="31.456155014713566" lon="-5.604716419916306"><ele>1303.0</ele><time>2026-04-24T17:51:38Z</time></trkpt><trkpt lat="31.456221028773143" lon="-5.604407179372417"><ele>1302.5</ele><time>2026-04-24T17:51:39Z</time></trkpt><trkpt lat="31.456358396814654" lon="-5.604150982941879"><ele>1302.0</ele><time>2026-04-24T17:51:40Z</time></trkpt><trkpt lat="31.45649477969511" lon="-5.603896471817243"><ele>1301.0</ele><time>2026-04-24T17:51:41Z</time></trkpt><trkpt lat="31.456630301388945" lon="-5.603644992641878"><ele>1300.0</ele><time>2026-04-24T17:51:42Z</time></trkpt><trkpt lat="31.4567625457486" lon="-5.603400618844963"><ele>1300.0</ele><time>2026-04-24T17:51:43Z</time></trkpt><trkpt lat="31.456891829913552" lon="-5.603161611182617"><ele>1300.0</ele><time>2026-04-24T17:51:44Z</time></trkpt><trkpt lat="31.457018105702474" lon="-5.602927379304222"><ele>1300.0</ele><time>2026-04-24T17:51:45Z</time></trkpt><trkpt lat="31.457145626303394" lon="-5.602692351958074"><ele>1300.0</ele><time>2026-04-24T17:51:46Z</time></trkpt><trkpt lat="31.457272142708266" lon="-5.602458779816644"><ele>1300.0</ele><time>2026-04-24T17:51:47Z</time></trkpt><trkpt lat="31.45739540338971" lon="-5.602231218500799"><ele>1300.0</ele><time>2026-04-24T17:51:48Z</time></trkpt><trkpt lat="31.45751473697277" lon="-5.602010869662765"><ele>1299.3333333333333</ele><time>2026-04-24T17:51:49Z</time></trkpt><trkpt lat="31.457626404760312" lon="-5.601804661423931"><ele>1298.6666666666667</ele><time>2026-04-24T17:51:50Z</time></trkpt><trkpt lat="31.45773249094826" lon="-5.601608760406254"><ele>1298.0</ele><time>2026-04-24T17:51:51Z</time></trkpt><trkpt lat="31.45783325809959" lon="-5.601421891489157"><ele>1298.0</ele><time>2026-04-24T17:51:52Z</time></trkpt><trkpt lat="31.457929233172585" lon="-5.601243830992167"><ele>1298.0</ele><time>2026-04-24T17:51:53Z</time></trkpt><trkpt lat="31.45802451870111" lon="-5.601067049875377"><ele>1298.0</ele><time>2026-04-24T17:51:54Z</time></trkpt><trkpt lat="31.45811818640464" lon="-5.600893270195231"><ele>1298.0</ele><time>2026-04-24T17:51:55Z</time></trkpt><trkpt lat="31.458211138746695" lon="-5.600720817663664"><ele>1298.0</ele><time>2026-04-24T17:51:56Z</time></trkpt><trkpt lat="31.458302975574902" lon="-5.600550434920728"><ele>1298.0</ele><time>2026-04-24T17:51:57Z</time></trkpt><trkpt lat="31.458394893282332" lon="-5.600379901873708"><ele>1297.0</ele><time>2026-04-24T17:51:58Z</time></trkpt><trkpt lat="31.45848837474453" lon="-5.600206467784759"><ele>1296.0</ele><time>2026-04-24T17:51:59Z</time></trkpt><trkpt lat="31.45858236999703" lon="-5.60003264932016"><ele>1295.0</ele><time>2026-04-24T17:52:00Z</time></trkpt><trkpt lat="31.458676130955837" lon="-5.59985902896037"><ele>1295.0</ele><time>2026-04-24T17:52:01Z</time></trkpt><trkpt lat="31.458769360253978" lon="-5.599685609423408"><ele>1295.0</ele><time>2026-04-24T17:52:01.999Z</time></trkpt><trkpt lat="31.45886315422472" lon="-5.599511909378963"><ele>1295.0</ele><time>2026-04-24T17:52:02.999Z</time></trkpt><trkpt lat="31.458955527666806" lon="-5.599341302270209"><ele>1295.0</ele><time>2026-04-24T17:52:03.999Z</time></trkpt><trkpt lat="31.459045809846014" lon="-5.599173506845869"><ele>1295.0</ele><time>2026-04-24T17:52:04.999Z</time></trkpt><trkpt lat="31.459134040578196" lon="-5.599008639448193"><ele>1295.0</ele><time>2026-04-24T17:52:05.999Z</time></trkpt><trkpt lat="31.459222213667346" lon="-5.5988436277212505"><ele>1295.0</ele><time>2026-04-24T17:52:06.999Z</time></trkpt><trkpt lat="31.459312261091046" lon="-5.59867532115909"><ele>1295.0</ele><time>2026-04-24T17:52:07.999Z</time></trkpt><trkpt lat="31.45940278358158" lon="-5.598506126678547"><ele>1295.0</ele><time>2026-04-24T17:52:08.999Z</time></trkpt><trkpt lat="31.45949431972899" lon="-5.598335901681871"><ele>1295.0</ele><time>2026-04-24T17:52:09.999Z</time></trkpt><trkpt lat="31.459586934743005" lon="-5.598165433093424"><ele>1295.0</ele><time>2026-04-24T17:52:10.999Z</time></trkpt><trkpt lat="31.459677209092423" lon="-5.597999324444134"><ele>1295.0</ele><time>2026-04-24T17:52:11.999Z</time></trkpt><trkpt lat="31.459768812722285" lon="-5.5978320533765835"><ele>1294.6666666666667</ele><time>2026-04-24T17:52:12.999Z</time></trkpt><trkpt lat="31.45986063234741" lon="-5.59766188258982"><ele>1294.3333333333333</ele><time>2026-04-24T17:52:13.999Z</time></trkpt><trkpt lat="31.45995218940614" lon="-5.597493588473019"><ele>1294.0</ele><time>2026-04-24T17:52:14.999Z</time></trkpt><trkpt lat="31.460044327248205" lon="-5.597324226868515"><ele>1294.0</ele><time>2026-04-24T17:52:15.999Z</time></trkpt><trkpt lat="31.460135727467122" lon="-5.5971560897516115"><ele>1294.0</ele><time>2026-04-24T17:52:16.999Z</time></trkpt><trkpt lat="31.46022716868627" lon="-5.5969874574381"><ele>1294.0</ele><time>2026-04-24T17:52:17.999Z</time></trkpt><trkpt lat="31.46032068957433" lon="-5.596815874033136"><ele>1294.0</ele><time>2026-04-24T17:52:18.999Z</time></trkpt><trkpt lat="31.460412461038434" lon="-5.596646997410139"><ele>1294.0</ele><time>2026-04-24T17:52:19.999Z</time></trkpt><trkpt lat="31.460504137812645" lon="-5.59647764630931"><ele>1294.0</ele><time>2026-04-24T17:52:20.999Z</time></trkpt><trkpt lat="31.460594817480203" lon="-5.596310137117011"><ele>1293.6666666666665</ele><time>2026-04-24T17:52:21.999Z</time></trkpt><trkpt lat="31.46068361100626" lon="-5.596146112080469"><ele>1293.3333333333333</ele><time>2026-04-24T17:52:22.999Z</time></trkpt><trkpt lat="31.46077204909905" lon="-5.595983398659192"><ele>1293.0</ele><time>2026-04-24T17:52:23.999Z</time></trkpt><trkpt lat="31.46086032315438" lon="-5.595821300174172"><ele>1293.0</ele><time>2026-04-24T17:52:24.999Z</time></trkpt><trkpt lat="31.46094804455777" lon="-5.595660216530572"><ele>1293.0</ele><time>2026-04-24T17:52:25.999Z</time></trkpt><trkpt lat="31.461035264214264" lon="-5.595500456633748"><ele>1293.0</ele><time>2026-04-24T17:52:26.999Z</time></trkpt><trkpt lat="31.461122853674514" lon="-5.595340265126584"><ele>1293.3333333333333</ele><time>2026-04-24T17:52:27.999Z</time></trkpt><trkpt lat="31.461209960194253" lon="-5.595179791519213"><ele>1293.6666666666665</ele><time>2026-04-24T17:52:28.999Z</time></trkpt><trkpt lat="31.461295734271634" lon="-5.595021442420971"><ele>1294.0</ele><time>2026-04-24T17:52:29.999Z</time></trkpt><trkpt lat="31.461381874519937" lon="-5.594862652242268"><ele>1294.0</ele><time>2026-04-24T17:52:30.999Z</time></trkpt><trkpt lat="31.461469695579318" lon="-5.594701367276932"><ele>1294.0</ele><time>2026-04-24T17:52:31.999Z</time></trkpt><trkpt lat="31.46155700785853" lon="-5.594541016710208"><ele>1294.0</ele><time>2026-04-24T17:52:32.999Z</time></trkpt><trkpt lat="31.461644713373882" lon="-5.59437998591615"><ele>1293.3333333333333</ele><time>2026-04-24T17:52:33.999Z</time></trkpt><trkpt lat="31.461733760439714" lon="-5.5942172471335905"><ele>1292.6666666666667</ele><time>2026-04-24T17:52:34.999Z</time></trkpt><trkpt lat="31.46182435276805" lon="-5.594050015966432"><ele>1292.0</ele><time>2026-04-24T17:52:35.999Z</time></trkpt><trkpt lat="31.461913801306995" lon="-5.5938839411747585"><ele>1292.0</ele><time>2026-04-24T17:52:36.999Z</time></trkpt><trkpt lat="31.46200372284923" lon="-5.593716837243125"><ele>1292.0</ele><time>2026-04-24T17:52:37.999Z</time></trkpt><trkpt lat="31.46209500764412" lon="-5.593546936459149"><ele>1292.0</ele><time>2026-04-24T17:52:38.999Z</time></trkpt><trkpt lat="31.462185086548775" lon="-5.5933786239735355"><ele>1292.3333333333335</ele><time>2026-04-24T17:52:39.999Z</time></trkpt><trkpt lat="31.46227429938513" lon="-5.5932115459397"><ele>1292.6666666666667</ele><time>2026-04-24T17:52:40.999Z</time></trkpt><trkpt lat="31.46236103830632" lon="-5.593045589542336"><ele>1293.0</ele><time>2026-04-24T17:52:41.999Z</time></trkpt><trkpt lat="31.46244723304652" lon="-5.592876459663253"><ele>1293.3333333333333</ele><time>2026-04-24T17:52:42.999Z</time></trkpt><trkpt lat="31.462523313339144" lon="-5.592711603668632"><ele>1293.6666666666665</ele><time>2026-04-24T17:52:43.999Z</time></trkpt><trkpt lat="31.46259739937008" lon="-5.592537866333525"><ele>1294.0</ele><time>2026-04-24T17:52:44.999Z</time></trkpt><trkpt lat="31.46266749455455" lon="-5.592366021559885"><ele>1294.0</ele><time>2026-04-24T17:52:45.999Z</time></trkpt><trkpt lat="31.46273533596336" lon="-5.592191082917242"><ele>1294.0</ele><time>2026-04-24T17:52:46.999Z</time></trkpt><trkpt lat="31.46278504568787" lon="-5.592021718348767"><ele>1294.0</ele><time>2026-04-24T17:52:47.999Z</time></trkpt><trkpt lat="31.462834651626867" lon="-5.591847519736966"><ele>1293.3333333333333</ele><time>2026-04-24T17:52:48.999Z</time></trkpt><trkpt lat="31.46288281701693" lon="-5.5916754825096255"><ele>1292.6666666666667</ele><time>2026-04-24T17:52:49.999Z</time></trkpt><trkpt lat="31.462930443721522" lon="-5.591504387756647"><ele>1292.0</ele><time>2026-04-24T17:52:50.999Z</time></trkpt><trkpt lat="31.462978299660335" lon="-5.591332410772452"><ele>1292.0</ele><time>2026-04-24T17:52:51.999Z</time></trkpt><trkpt lat="31.46302648486849" lon="-5.591159622002488"><ele>1292.0</ele><time>2026-04-24T17:52:52.999Z</time></trkpt><trkpt lat="31.463074106585932" lon="-5.5909900810256525"><ele>1292.0</ele><time>2026-04-24T17:52:53.999Z</time></trkpt><trkpt lat="31.463120791281554" lon="-5.590826241623915"><ele>1292.0</ele><time>2026-04-24T17:52:54.999Z</time></trkpt><trkpt lat="31.46316493507983" lon="-5.5906713194780435"><ele>1292.0</ele><time>2026-04-24T17:52:55.999Z</time></trkpt><trkpt lat="31.463208466211167" lon="-5.5905185475043115"><ele>1292.0</ele><time>2026-04-24T17:52:56.999Z</time></trkpt><trkpt lat="31.46325104102055" lon="-5.590369165950681"><ele>1292.0</ele><time>2026-04-24T17:52:57.999Z</time></trkpt><trkpt lat="31.463293919076275" lon="-5.590218074562437"><ele>1292.25</ele><time>2026-04-24T17:52:58.999Z</time></trkpt><trkpt lat="31.463337255686547" lon="-5.590065360356845"><ele>1292.5</ele><time>2026-04-24T17:52:59.999Z</time></trkpt><trkpt lat="31.463382297264147" lon="-5.589906637995463"><ele>1292.75</ele><time>2026-04-24T17:53:00.999Z</time></trkpt><trkpt lat="31.463429876372746" lon="-5.589738973626978"><ele>1293.0</ele><time>2026-04-24T17:53:01.999Z</time></trkpt><trkpt lat="31.463478946908015" lon="-5.589563866659894"><ele>1292.0</ele><time>2026-04-24T17:53:02.999Z</time></trkpt><trkpt lat="31.46353205261605" lon="-5.589378158278276"><ele>1291.0</ele><time>2026-04-24T17:53:03.999Z</time></trkpt><trkpt lat="31.463587510147292" lon="-5.589182904127967"><ele>1290.0</ele><time>2026-04-24T17:53:04.999Z</time></trkpt><trkpt lat="31.463645281465613" lon="-5.588979285764526"><ele>1290.0</ele><time>2026-04-24T17:53:05.999Z</time></trkpt><trkpt lat="31.463704260404736" lon="-5.588771411084755"><ele>1290.0</ele><time>2026-04-24T17:53:06.999Z</time></trkpt><trkpt lat="31.46376516810199" lon="-5.588556739448605"><ele>1290.0</ele><time>2026-04-24T17:53:07.999Z</time></trkpt><trkpt lat="31.46382933431823" lon="-5.588330639188646"><ele>1290.3333333333333</ele><time>2026-04-24T17:53:08.999Z</time></trkpt><trkpt lat="31.463896208614205" lon="-5.588094996561886"><ele>1290.6666666666665</ele><time>2026-04-24T17:53:09.999Z</time></trkpt><trkpt lat="31.463964593666255" lon="-5.587854169058702"><ele>1291.0</ele><time>2026-04-24T17:53:10.999Z</time></trkpt><trkpt lat="31.464033126047298" lon="-5.587612948562102"><ele>1290.3333333333333</ele><time>2026-04-24T17:53:11.999Z</time></trkpt><trkpt lat="31.46410184996108" lon="-5.587372020070135"><ele>1289.6666666666667</ele><time>2026-04-24T17:53:12.999Z</time></trkpt><trkpt lat="31.46417069323374" lon="-5.587127642376635"><ele>1289.0</ele><time>2026-04-24T17:53:13.999Z</time></trkpt><trkpt lat="31.4642396183775" lon="-5.586882714280862"><ele>1288.0</ele><time>2026-04-24T17:53:14.999Z</time></trkpt><trkpt lat="31.46431760151148" lon="-5.586636386685457"><ele>1287.0</ele><time>2026-04-24T17:53:15.999Z</time></trkpt><trkpt lat="31.464402746360552" lon="-5.586388767393137"><ele>1287.0</ele><time>2026-04-24T17:53:16.999Z</time></trkpt><trkpt lat="31.46450227676353" lon="-5.5861483417145825"><ele>1287.0</ele><time>2026-04-24T17:53:17.999Z</time></trkpt><trkpt lat="31.464619889587922" lon="-5.5859105317821784"><ele>1287.0</ele><time>2026-04-24T17:53:18.999Z</time></trkpt><trkpt lat="31.464739306020906" lon="-5.585675978361159"><ele>1287.0</ele><time>2026-04-24T17:53:19.999Z</time></trkpt><trkpt lat="31.464867437027646" lon="-5.585442076861202"><ele>1286.5</ele><time>2026-04-24T17:53:20.999Z</time></trkpt><trkpt lat="31.46499516258538" lon="-5.585208915221682"><ele>1286.0</ele><time>2026-04-24T17:53:21.999Z</time></trkpt><trkpt lat="31.465126257507603" lon="-5.584973372333434"><ele>1286.0</ele><time>2026-04-24T17:53:23Z</time></trkpt><trkpt lat="31.46525846490146" lon="-5.584736969426317"><ele>1286.0</ele><time>2026-04-24T17:53:24Z</time></trkpt><trkpt lat="31.465391505132935" lon="-5.584499077352396"><ele>1286.0</ele><time>2026-04-24T17:53:25Z</time></trkpt><trkpt lat="31.465524429377282" lon="-5.584261212562007"><ele>1286.0</ele><time>2026-04-24T17:53:26Z</time></trkpt><trkpt lat="31.46565872265229" lon="-5.5840210753633555"><ele>1286.0</ele><time>2026-04-24T17:53:27Z</time></trkpt><trkpt lat="31.465794500724073" lon="-5.583778566445872"><ele>1286.0</ele><time>2026-04-24T17:53:28Z</time></trkpt><trkpt lat="31.465929935972532" lon="-5.583536670164472"><ele>1286.0</ele><time>2026-04-24T17:53:29Z</time></trkpt><trkpt lat="31.466066319701664" lon="-5.58329307955104"><ele>1286.0</ele><time>2026-04-24T17:53:30Z</time></trkpt><trkpt lat="31.466204922005897" lon="-5.583046499962521"><ele>1285.0</ele><time>2026-04-24T17:53:31Z</time></trkpt><trkpt lat="31.466343502394178" lon="-5.582802708858282"><ele>1284.0</ele><time>2026-04-24T17:53:32Z</time></trkpt><trkpt lat="31.466481466477852" lon="-5.582560319238103"><ele>1284.0</ele><time>2026-04-24T17:53:33Z</time></trkpt><trkpt lat="31.46662130216629" lon="-5.582314399500727"><ele>1284.0</ele><time>2026-04-24T17:53:34Z</time></trkpt><trkpt lat="31.46676141257047" lon="-5.582067996634589"><ele>1284.0</ele><time>2026-04-24T17:53:35Z</time></trkpt><trkpt lat="31.46689694564743" lon="-5.58182964357006"><ele>1284.0</ele><time>2026-04-24T17:53:36Z</time></trkpt><trkpt lat="31.467321274313655" lon="-5.58108207076814"><ele>1284.0</ele><time>2026-04-24T17:53:39Z</time></trkpt><trkpt lat="31.467460718256078" lon="-5.580836753514792"><ele>1284.0</ele><time>2026-04-24T17:53:40Z</time></trkpt><trkpt lat="31.467599699605486" lon="-5.580590838279314"><ele>1284.0</ele><time>2026-04-24T17:53:41Z</time></trkpt><trkpt lat="31.467740008535856" lon="-5.580342741848567"><ele>1284.0</ele><time>2026-04-24T17:53:42Z</time></trkpt><trkpt lat="31.467879688000515" lon="-5.580096154230721"><ele>1283.5</ele><time>2026-04-24T17:53:43Z</time></trkpt><trkpt lat="31.46801898441021" lon="-5.579850527400277"><ele>1283.0</ele><time>2026-04-24T17:53:44Z</time></trkpt><trkpt lat="31.46815681669504" lon="-5.579607482655262"><ele>1283.5</ele><time>2026-04-24T17:53:45Z</time></trkpt><trkpt lat="31.46829493183363" lon="-5.579362631485847"><ele>1284.0</ele><time>2026-04-24T17:53:46Z</time></trkpt><trkpt lat="31.46843409642079" lon="-5.579115362773816"><ele>1284.0</ele><time>2026-04-24T17:53:47Z</time></trkpt><trkpt lat="31.468573318435546" lon="-5.578867718350223"><ele>1284.0</ele><time>2026-04-24T17:53:48Z</time></trkpt><trkpt lat="31.46871234414063" lon="-5.578620035427524"><ele>1283.5</ele><time>2026-04-24T17:53:49Z</time></trkpt><trkpt lat="31.468852541401127" lon="-5.578370498767925"><ele>1283.0</ele><time>2026-04-24T17:53:50Z</time></trkpt><trkpt lat="31.46899192764216" lon="-5.578122405504305"><ele>1283.0</ele><time>2026-04-24T17:53:51Z</time></trkpt><trkpt lat="31.469131632767432" lon="-5.577875544995054"><ele>1283.0</ele><time>2026-04-24T17:53:52Z</time></trkpt><trkpt lat="31.469272377531816" lon="-5.577628019043775"><ele>1282.0</ele><time>2026-04-24T17:53:53Z</time></trkpt><trkpt lat="31.469411846876724" lon="-5.577382245731609"><ele>1281.0</ele><time>2026-04-24T17:53:54Z</time></trkpt><trkpt lat="31.46955031195215" lon="-5.577138908395038"><ele>1280.5</ele><time>2026-04-24T17:53:55Z</time></trkpt><trkpt lat="31.46968838318654" lon="-5.576896912219546"><ele>1280.0</ele><time>2026-04-24T17:53:56Z</time></trkpt><trkpt lat="31.46982627316843" lon="-5.576655230285531"><ele>1280.0</ele><time>2026-04-24T17:53:57Z</time></trkpt><trkpt lat="31.46996333856414" lon="-5.576414591440825"><ele>1280.0</ele><time>2026-04-24T17:53:58Z</time></trkpt><trkpt lat="31.47010075051457" lon="-5.576172015283998"><ele>1281.0</ele><time>2026-04-24T17:53:59Z</time></trkpt><trkpt lat="31.47023804249918" lon="-5.575932136674724"><ele>1282.0</ele><time>2026-04-24T17:54:00Z</time></trkpt><trkpt lat="31.470373370594615" lon="-5.575693522022057"><ele>1282.0</ele><time>2026-04-24T17:54:01Z</time></trkpt><trkpt lat="31.470508705041485" lon="-5.575454541040101"><ele>1282.0</ele><time>2026-04-24T17:54:02Z</time></trkpt><trkpt lat="31.470646200074512" lon="-5.575215206387929"><ele>1281.5</ele><time>2026-04-24T17:54:03Z</time></trkpt><trkpt lat="31.470782468115267" lon="-5.5749755814328905"><ele>1281.0</ele><time>2026-04-24T17:54:03.999Z</time></trkpt><trkpt lat="31.470918773111993" lon="-5.574735731862974"><ele>1280.0</ele><time>2026-04-24T17:54:04.999Z</time></trkpt><trkpt lat="31.47105515972556" lon="-5.5744952927545866"><ele>1279.0</ele><time>2026-04-24T17:54:05.999Z</time></trkpt><trkpt lat="31.471201054947084" lon="-5.57425994698564"><ele>1280.0</ele><time>2026-04-24T17:54:06.999Z</time></trkpt><trkpt lat="31.471344256506402" lon="-5.574034914688118"><ele>1281.0</ele><time>2026-04-24T17:54:07.999Z</time></trkpt><trkpt lat="31.47149739031536" lon="-5.573806477720289"><ele>1282.5</ele><time>2026-04-24T17:54:08.999Z</time></trkpt><trkpt lat="31.471654021927105" lon="-5.573578961110855"><ele>1284.0</ele><time>2026-04-24T17:54:09.999Z</time></trkpt><trkpt lat="31.471825781302197" lon="-5.573353581530034"><ele>1284.0</ele><time>2026-04-24T17:54:10.999Z</time></trkpt><trkpt lat="31.471999086548614" lon="-5.573135911061762"><ele>1284.0</ele><time>2026-04-24T17:54:11.999Z</time></trkpt><trkpt lat="31.472172733720516" lon="-5.572918024249632"><ele>1283.5</ele><time>2026-04-24T17:54:12.999Z</time></trkpt><trkpt lat="31.472344314280416" lon="-5.572702676998605"><ele>1283.0</ele><time>2026-04-24T17:54:13.999Z</time></trkpt><trkpt lat="31.47251474078647" lon="-5.572488641307847"><ele>1283.0</ele><time>2026-04-24T17:54:14.999Z</time></trkpt><trkpt lat="31.472685621412452" lon="-5.572274518261323"><ele>1283.0</ele><time>2026-04-24T17:54:15.999Z</time></trkpt><trkpt lat="31.472856857174403" lon="-5.572059950251341"><ele>1283.5</ele><time>2026-04-24T17:54:16.999Z</time></trkpt><trkpt lat="31.473028390827963" lon="-5.571844409446138"><ele>1284.0</ele><time>2026-04-24T17:54:17.999Z</time></trkpt><trkpt lat="31.47319950975663" lon="-5.571629143990229"><ele>1284.0</ele><time>2026-04-24T17:54:18.999Z</time></trkpt><trkpt lat="31.47336695135646" lon="-5.571418954859602"><ele>1284.0</ele><time>2026-04-24T17:54:19.999Z</time></trkpt><trkpt lat="31.473527390642978" lon="-5.571216774878878"><ele>1284.3333333333333</ele><time>2026-04-24T17:54:20.999Z</time></trkpt><trkpt lat="31.473678590329722" lon="-5.57102663517251"><ele>1284.6666666666665</ele><time>2026-04-24T17:54:21.999Z</time></trkpt><trkpt lat="31.473819391664847" lon="-5.570850177473504"><ele>1285.0</ele><time>2026-04-24T17:54:22.999Z</time></trkpt><trkpt lat="31.473952944983107" lon="-5.57068280315191"><ele>1285.0</ele><time>2026-04-24T17:54:23.999Z</time></trkpt><trkpt lat="31.474079723574857" lon="-5.570523766472547"><ele>1285.0</ele><time>2026-04-24T17:54:24.999Z</time></trkpt><trkpt lat="31.474203687765584" lon="-5.570367923065849"><ele>1285.0</ele><time>2026-04-24T17:54:25.999Z</time></trkpt><trkpt lat="31.474325763717587" lon="-5.570214453708835"><ele>1285.0</ele><time>2026-04-24T17:54:26.999Z</time></trkpt><trkpt lat="31.474444826059106" lon="-5.570064773046206"><ele>1285.0</ele><time>2026-04-24T17:54:27.999Z</time></trkpt><trkpt lat="31.474564481119085" lon="-5.569914342499404"><ele>1285.0</ele><time>2026-04-24T17:54:28.999Z</time></trkpt><trkpt lat="31.47468452194213" lon="-5.569763426847449"><ele>1285.0</ele><time>2026-04-24T17:54:29.999Z</time></trkpt><trkpt lat="31.474804343788342" lon="-5.56961278649316"><ele>1285.0</ele><time>2026-04-24T17:54:30.999Z</time></trkpt><trkpt lat="31.47497333161581" lon="-5.569511792817271"><ele>1285.0</ele><time>2026-04-24T17:54:31.999Z</time></trkpt><trkpt lat="31.47509575769844" lon="-5.569361719072238"><ele>1284.6666666666665</ele><time>2026-04-24T17:54:32.999Z</time></trkpt><trkpt lat="31.475218327281727" lon="-5.569209295382311"><ele>1284.3333333333333</ele><time>2026-04-24T17:54:33.999Z</time></trkpt><trkpt lat="31.475339251192857" lon="-5.569050239434856"><ele>1284.0</ele><time>2026-04-24T17:54:34.999Z</time></trkpt><trkpt lat="31.47546007834279" lon="-5.568889017096042"><ele>1283.3333333333333</ele><time>2026-04-24T17:54:35.999Z</time></trkpt><trkpt lat="31.4755861934842" lon="-5.568728599656177"><ele>1282.6666666666665</ele><time>2026-04-24T17:54:36.999Z</time></trkpt><trkpt lat="31.47571515086427" lon="-5.568566743524082"><ele>1282.0</ele><time>2026-04-24T17:54:37.999Z</time></trkpt><trkpt lat="31.475845433683315" lon="-5.568405092285235"><ele>1281.3333333333333</ele><time>2026-04-24T17:54:38.999Z</time></trkpt><trkpt lat="31.475976771302264" lon="-5.568240296111193"><ele>1280.6666666666667</ele><time>2026-04-24T17:54:39.999Z</time></trkpt><trkpt lat="31.476108161806017" lon="-5.568074556437714"><ele>1280.0</ele><time>2026-04-24T17:54:40.999Z</time></trkpt><trkpt lat="31.47623880025959" lon="-5.567909333397514"><ele>1280.3333333333335</ele><time>2026-04-24T17:54:41.999Z</time></trkpt><trkpt lat="31.4763678057672" lon="-5.567744498325347"><ele>1280.6666666666667</ele><time>2026-04-24T17:54:42.999Z</time></trkpt><trkpt lat="31.47649710167058" lon="-5.567581271392691"><ele>1281.0</ele><time>2026-04-24T17:54:43.999Z</time></trkpt><trkpt lat="31.476626301550684" lon="-5.56741993167829"><ele>1281.0</ele><time>2026-04-24T17:54:44.999Z</time></trkpt><trkpt lat="31.47675214397643" lon="-5.567260686290886"><ele>1281.0</ele><time>2026-04-24T17:54:45.999Z</time></trkpt><trkpt lat="31.476870555877262" lon="-5.567109684510631"><ele>1281.0</ele><time>2026-04-24T17:54:46.999Z</time></trkpt><trkpt lat="31.47697917426019" lon="-5.566970280439245"><ele>1280.75</ele><time>2026-04-24T17:54:47.999Z</time></trkpt><trkpt lat="31.47708051249635" lon="-5.5668395932673445"><ele>1280.5</ele><time>2026-04-24T17:54:48.999Z</time></trkpt><trkpt lat="31.477177044690684" lon="-5.56671973038376"><ele>1280.25</ele><time>2026-04-24T17:54:49.999Z</time></trkpt><trkpt lat="31.47726567988133" lon="-5.566607361322699"><ele>1280.0</ele><time>2026-04-24T17:54:50.999Z</time></trkpt><trkpt lat="31.477351743394486" lon="-5.566499122540389"><ele>1280.0</ele><time>2026-04-24T17:54:51.999Z</time></trkpt><trkpt lat="31.477434054817504" lon="-5.566398139623717"><ele>1280.0</ele><time>2026-04-24T17:54:52.999Z</time></trkpt><trkpt lat="31.477517103846914" lon="-5.566296588193857"><ele>1280.0</ele><time>2026-04-24T17:54:53.999Z</time></trkpt><trkpt lat="31.477601157399818" lon="-5.5661915254037835"><ele>1280.0</ele><time>2026-04-24T17:54:54.999Z</time></trkpt><trkpt lat="31.47768660625688" lon="-5.566086716946563"><ele>1280.5</ele><time>2026-04-24T17:54:55.999Z</time></trkpt><trkpt lat="31.477771303955922" lon="-5.565982165560685"><ele>1281.0</ele><time>2026-04-24T17:54:56.999Z</time></trkpt><trkpt lat="31.47785536084261" lon="-5.565880582188528"><ele>1281.5</ele><time>2026-04-24T17:54:57.999Z</time></trkpt><trkpt lat="31.47793768370911" lon="-5.565779292637257"><ele>1282.0</ele><time>2026-04-24T17:54:58.999Z</time></trkpt><trkpt lat="31.478011158209103" lon="-5.565680004812598"><ele>1282.0</ele><time>2026-04-24T17:54:59.999Z</time></trkpt><trkpt lat="31.47807839578562" lon="-5.565585463322219"><ele>1282.0</ele><time>2026-04-24T17:55:00.999Z</time></trkpt><trkpt lat="31.478138195768178" lon="-5.56549567809289"><ele>1282.0</ele><time>2026-04-24T17:55:01.999Z</time></trkpt><trkpt lat="31.478191049051443" lon="-5.565415904034522"><ele>1282.0</ele><time>2026-04-24T17:55:02.999Z</time></trkpt><trkpt lat="31.478245292083315" lon="-5.565343234671429"><ele>1282.0</ele><time>2026-04-24T17:55:03.999Z</time></trkpt><trkpt lat="31.478297857660937" lon="-5.565276763322045"><ele>1282.0</ele><time>2026-04-24T17:55:04.999Z</time></trkpt><trkpt lat="31.478350289103336" lon="-5.565214041711153"><ele>1282.3333333333333</ele><time>2026-04-24T17:55:05.999Z</time></trkpt><trkpt lat="31.47840574270435" lon="-5.565153376558565"><ele>1282.6666666666665</ele><time>2026-04-24T17:55:06.999Z</time></trkpt><trkpt lat="31.478464067615967" lon="-5.565097429753994"><ele>1283.0</ele><time>2026-04-24T17:55:07.999Z</time></trkpt><trkpt lat="31.47851763604881" lon="-5.565043676035433"><ele>1283.3333333333333</ele><time>2026-04-24T17:55:08.999Z</time></trkpt><trkpt lat="31.478602880419494" lon="-5.564943535598837"><ele>1283.6666666666667</ele><time>2026-04-24T17:55:10.999Z</time></trkpt><trkpt lat="31.47864740014727" lon="-5.564883996730206"><ele>1284.0</ele><time>2026-04-24T17:55:11.999Z</time></trkpt><trkpt lat="31.47869968109914" lon="-5.564812842615148"><ele>1284.0</ele><time>2026-04-24T17:55:12.999Z</time></trkpt><trkpt lat="31.478759022541663" lon="-5.564730315851887"><ele>1284.0</ele><time>2026-04-24T17:55:13.999Z</time></trkpt><trkpt lat="31.478827044202013" lon="-5.564639584323064"><ele>1284.0</ele><time>2026-04-24T17:55:14.999Z</time></trkpt><trkpt lat="31.478900538852816" lon="-5.564538615435594"><ele>1284.0</ele><time>2026-04-24T17:55:15.999Z</time></trkpt><trkpt lat="31.478982251342565" lon="-5.5644309567184544"><ele>1284.0</ele><time>2026-04-24T17:55:16.999Z</time></trkpt><trkpt lat="31.479072405799883" lon="-5.564317941380232"><ele>1284.25</ele><time>2026-04-24T17:55:17.999Z</time></trkpt><trkpt lat="31.479163107533928" lon="-5.5641989336973205"><ele>1284.5</ele><time>2026-04-24T17:55:18.999Z</time></trkpt><trkpt lat="31.47925372767698" lon="-5.564077709530746"><ele>1284.75</ele><time>2026-04-24T17:55:19.999Z</time></trkpt><trkpt lat="31.479346982507007" lon="-5.563958347386738"><ele>1285.0</ele><time>2026-04-24T17:55:20.999Z</time></trkpt><trkpt lat="31.479440409539812" lon="-5.563842412005453"><ele>1285.0</ele><time>2026-04-24T17:55:21.999Z</time></trkpt><trkpt lat="31.479532311236163" lon="-5.563727074856475"><ele>1285.0</ele><time>2026-04-24T17:55:22.999Z</time></trkpt><trkpt lat="31.47962101851947" lon="-5.563615524161702"><ele>1285.0</ele><time>2026-04-24T17:55:23.999Z</time></trkpt><trkpt lat="31.479703331564764" lon="-5.563510438381579"><ele>1285.0</ele><time>2026-04-24T17:55:24.999Z</time></trkpt><trkpt lat="31.47977732608822" lon="-5.563409095323356"><ele>1284.5</ele><time>2026-04-24T17:55:25.999Z</time></trkpt><trkpt lat="31.479847677551458" lon="-5.563305100288189"><ele>1284.0</ele><time>2026-04-24T17:55:26.998Z</time></trkpt><trkpt lat="31.479919067819928" lon="-5.563198697302998"><ele>1283.5</ele><time>2026-04-24T17:55:27.998Z</time></trkpt><trkpt lat="31.47999879179487" lon="-5.563092671978246"><ele>1283.0</ele><time>2026-04-24T17:55:29Z</time></trkpt><trkpt lat="31.480087493997253" lon="-5.562986853709924"><ele>1283.0</ele><time>2026-04-24T17:55:30Z</time></trkpt><trkpt lat="31.48018038531992" lon="-5.562880858104745"><ele>1283.0</ele><time>2026-04-24T17:55:31Z</time></trkpt><trkpt lat="31.48027752026363" lon="-5.56276913898801"><ele>1283.0</ele><time>2026-04-24T17:55:32Z</time></trkpt><trkpt lat="31.480376439095224" lon="-5.562657000640834"><ele>1283.0</ele><time>2026-04-24T17:55:33Z</time></trkpt><trkpt lat="31.480480425189096" lon="-5.5625383368813255"><ele>1283.3333333333335</ele><time>2026-04-24T17:55:34Z</time></trkpt><trkpt lat="31.48058668503157" lon="-5.562410477795373"><ele>1283.6666666666667</ele><time>2026-04-24T17:55:35Z</time></trkpt><trkpt lat="31.480693008483353" lon="-5.562272534770279"><ele>1284.0</ele><time>2026-04-24T17:55:36Z</time></trkpt><trkpt lat="31.480798862313907" lon="-5.5621240282931685"><ele>1282.6666666666667</ele><time>2026-04-24T17:55:37Z</time></trkpt><trkpt lat="31.48090955387596" lon="-5.561970303856111"><ele>1281.3333333333335</ele><time>2026-04-24T17:55:38Z</time></trkpt><trkpt lat="31.48102611077844" lon="-5.561815052544157"><ele>1280.0</ele><time>2026-04-24T17:55:39Z</time></trkpt><trkpt lat="31.481148247289156" lon="-5.561655555495756"><ele>1280.3333333333335</ele><time>2026-04-24T17:55:40Z</time></trkpt><trkpt lat="31.481274507717643" lon="-5.561490284681409"><ele>1280.6666666666667</ele><time>2026-04-24T17:55:41Z</time></trkpt><trkpt lat="31.481402101222784" lon="-5.561325433248761"><ele>1281.0</ele><time>2026-04-24T17:55:42Z</time></trkpt><trkpt lat="31.4815292934971" lon="-5.561160958011183"><ele>1281.0</ele><time>2026-04-24T17:55:43Z</time></trkpt><trkpt lat="31.481656668039637" lon="-5.560994479693579"><ele>1281.0</ele><time>2026-04-24T17:55:44Z</time></trkpt><trkpt lat="31.481782868318607" lon="-5.5608318746666106"><ele>1281.0</ele><time>2026-04-24T17:55:45Z</time></trkpt><trkpt lat="31.481905720559244" lon="-5.560676190571651"><ele>1281.0</ele><time>2026-04-24T17:55:46Z</time></trkpt><trkpt lat="31.482023671164075" lon="-5.5605257898688665"><ele>1281.0</ele><time>2026-04-24T17:55:47Z</time></trkpt><trkpt lat="31.482135162285704" lon="-5.56038368792475"><ele>1281.0</ele><time>2026-04-24T17:55:48Z</time></trkpt><trkpt lat="31.48223991472652" lon="-5.560246101874976"><ele>1281.25</ele><time>2026-04-24T17:55:49Z</time></trkpt><trkpt lat="31.482340393276658" lon="-5.560117557817496"><ele>1281.5</ele><time>2026-04-24T17:55:50Z</time></trkpt><trkpt lat="31.482436772182943" lon="-5.559999467174795"><ele>1281.75</ele><time>2026-04-24T17:55:51Z</time></trkpt><trkpt lat="31.482524053342914" lon="-5.55988998386615"><ele>1282.0</ele><time>2026-04-24T17:55:52Z</time></trkpt><trkpt lat="31.48260555706355" lon="-5.5597886522233955"><ele>1282.0</ele><time>2026-04-24T17:55:53Z</time></trkpt><trkpt lat="31.482679077450534" lon="-5.5596958174465"><ele>1282.0</ele><time>2026-04-24T17:55:54Z</time></trkpt><trkpt lat="31.482741320722248" lon="-5.559613137549183"><ele>1282.0</ele><time>2026-04-24T17:55:55Z</time></trkpt><trkpt lat="31.48279309925171" lon="-5.559537974129953"><ele>1282.0</ele><time>2026-04-24T17:55:56Z</time></trkpt><trkpt lat="31.482839937682428" lon="-5.559459326897279"><ele>1282.0</ele><time>2026-04-24T17:55:57Z</time></trkpt><trkpt lat="31.48288882202985" lon="-5.559379570333008"><ele>1281.3999999999999</ele><time>2026-04-24T17:55:58Z</time></trkpt><trkpt lat="31.48294545049208" lon="-5.559299659436964"><ele>1280.8</ele><time>2026-04-24T17:55:59Z</time></trkpt><trkpt lat="31.48301022039957" lon="-5.559221791645174"><ele>1280.2</ele><time>2026-04-24T17:56:00Z</time></trkpt><trkpt lat="31.483088701672987" lon="-5.55914677597831"><ele>1279.6</ele><time>2026-04-24T17:56:00.999Z</time></trkpt><trkpt lat="31.483176042355424" lon="-5.559063992712285"><ele>1279.0</ele><time>2026-04-24T17:56:01.999Z</time></trkpt><trkpt lat="31.483250395336885" lon="-5.558947783615652"><ele>1279.0</ele><time>2026-04-24T17:56:02.999Z</time></trkpt><trkpt lat="31.48333820225321" lon="-5.558834579723158"><ele>1279.0</ele><time>2026-04-24T17:56:03.999Z</time></trkpt><trkpt lat="31.483431034737006" lon="-5.55871484615821"><ele>1279.0</ele><time>2026-04-24T17:56:04.999Z</time></trkpt><trkpt lat="31.483531126791434" lon="-5.558585689447483"><ele>1279.0</ele><time>2026-04-24T17:56:05.999Z</time></trkpt><trkpt lat="31.483636621118816" lon="-5.558449561763701"><ele>1279.0</ele><time>2026-04-24T17:56:06.999Z</time></trkpt><trkpt lat="31.48374670706535" lon="-5.558307419396576"><ele>1279.0</ele><time>2026-04-24T17:56:07.999Z</time></trkpt><trkpt lat="31.483872542205404" lon="-5.558171099320376"><ele>1279.0</ele><time>2026-04-24T17:56:08.999Z</time></trkpt><trkpt lat="31.483987721699798" lon="-5.558015309980022"><ele>1279.6666666666665</ele><time>2026-04-24T17:56:09.999Z</time></trkpt><trkpt lat="31.484106860786866" lon="-5.557855841985984"><ele>1280.3333333333333</ele><time>2026-04-24T17:56:10.999Z</time></trkpt><trkpt lat="31.484230655551826" lon="-5.557695221219579"><ele>1281.0</ele><time>2026-04-24T17:56:11.999Z</time></trkpt><trkpt lat="31.48435403810376" lon="-5.557534126806803"><ele>1281.0</ele><time>2026-04-24T17:56:12.999Z</time></trkpt><trkpt lat="31.48447575884915" lon="-5.557375139422091"><ele>1281.0</ele><time>2026-04-24T17:56:13.999Z</time></trkpt><trkpt lat="31.48459772368906" lon="-5.557218883859299"><ele>1281.0</ele><time>2026-04-24T17:56:14.999Z</time></trkpt><trkpt lat="31.48472009600598" lon="-5.557062470183026"><ele>1280.3333333333333</ele><time>2026-04-24T17:56:15.999Z</time></trkpt><trkpt lat="31.484841448308554" lon="-5.556906033312864"><ele>1279.6666666666665</ele><time>2026-04-24T17:56:16.999Z</time></trkpt><trkpt lat="31.48496351561718" lon="-5.556750626889403"><ele>1279.0</ele><time>2026-04-24T17:56:17.999Z</time></trkpt><trkpt lat="31.48508851588647" lon="-5.5565924428894995"><ele>1279.0</ele><time>2026-04-24T17:56:18.999Z</time></trkpt><trkpt lat="31.485201182415874" lon="-5.556420828135076"><ele>1279.0</ele><time>2026-04-24T17:56:19.999Z</time></trkpt><trkpt lat="31.485325636578597" lon="-5.556258084550772"><ele>1279.0</ele><time>2026-04-24T17:56:20.999Z</time></trkpt><trkpt lat="31.48545700152609" lon="-5.556096113228194"><ele>1279.6666666666665</ele><time>2026-04-24T17:56:21.999Z</time></trkpt><trkpt lat="31.485598226948472" lon="-5.55594615908072"><ele>1280.3333333333333</ele><time>2026-04-24T17:56:22.999Z</time></trkpt><trkpt lat="31.485727974023554" lon="-5.5557818267300165"><ele>1281.0</ele><time>2026-04-24T17:56:23.999Z</time></trkpt><trkpt lat="31.48585623523443" lon="-5.55561659328925"><ele>1281.0</ele><time>2026-04-24T17:56:24.999Z</time></trkpt><trkpt lat="31.485982967871216" lon="-5.555451730948668"><ele>1281.0</ele><time>2026-04-24T17:56:25.999Z</time></trkpt><trkpt lat="31.486109089323758" lon="-5.55528663590265"><ele>1281.0</ele><time>2026-04-24T17:56:26.999Z</time></trkpt><trkpt lat="31.486235080027143" lon="-5.5551248266971625"><ele>1280.3333333333333</ele><time>2026-04-24T17:56:27.999Z</time></trkpt><trkpt lat="31.48635762681405" lon="-5.5549677001842985"><ele>1279.6666666666665</ele><time>2026-04-24T17:56:28.999Z</time></trkpt><trkpt lat="31.486469100937622" lon="-5.55482315785322"><ele>1279.0</ele><time>2026-04-24T17:56:29.999Z</time></trkpt><trkpt lat="31.48656519840211" lon="-5.554687642953644"><ele>1279.0</ele><time>2026-04-24T17:56:30.999Z</time></trkpt><trkpt lat="31.48665476419322" lon="-5.554565932861476"><ele>1279.0</ele><time>2026-04-24T17:56:31.999Z</time></trkpt><trkpt lat="31.48673275034086" lon="-5.554457390806886"><ele>1279.0</ele><time>2026-04-24T17:56:32.999Z</time></trkpt><trkpt lat="31.486802660835693" lon="-5.5543541285504"><ele>1279.0</ele><time>2026-04-24T17:56:33.999Z</time></trkpt><trkpt lat="31.486876830965553" lon="-5.554249249111945"><ele>1279.0</ele><time>2026-04-24T17:56:34.999Z</time></trkpt><trkpt lat="31.486919158207055" lon="-5.55411638306363"><ele>1279.0</ele><time>2026-04-24T17:56:35.999Z</time></trkpt><trkpt lat="31.487049448291884" lon="-5.554027644886271"><ele>1279.0</ele><time>2026-04-24T17:56:36.999Z</time></trkpt><trkpt lat="31.487147864501782" lon="-5.553910381161697"><ele>1279.0</ele><time>2026-04-24T17:56:37.999Z</time></trkpt><trkpt lat="31.487248221256433" lon="-5.553784911628468"><ele>1279.3333333333333</ele><time>2026-04-24T17:56:38.999Z</time></trkpt><trkpt lat="31.48734953210346" lon="-5.5536564321138595"><ele>1279.6666666666667</ele><time>2026-04-24T17:56:39.999Z</time></trkpt><trkpt lat="31.48745636932793" lon="-5.553520236564575"><ele>1280.0</ele><time>2026-04-24T17:56:40.999Z</time></trkpt><trkpt lat="31.487563863591358" lon="-5.553381467101204"><ele>1280.0</ele><time>2026-04-24T17:56:41.999Z</time></trkpt><trkpt lat="31.487673990234498" lon="-5.5532406022931164"><ele>1280.0</ele><time>2026-04-24T17:56:42.999Z</time></trkpt><trkpt lat="31.487786304747626" lon="-5.553096435750639"><ele>1280.0</ele><time>2026-04-24T17:56:43.999Z</time></trkpt><trkpt lat="31.487902277328782" lon="-5.55294790940497"><ele>1280.6666666666667</ele><time>2026-04-24T17:56:44.999Z</time></trkpt><trkpt lat="31.48802153609403" lon="-5.552797623593212"><ele>1281.3333333333333</ele><time>2026-04-24T17:56:45.999Z</time></trkpt><trkpt lat="31.488141941284635" lon="-5.552643739231256"><ele>1282.0</ele><time>2026-04-24T17:56:46.999Z</time></trkpt><trkpt lat="31.488265846229687" lon="-5.5524933099093365"><ele>1282.0</ele><time>2026-04-24T17:56:47.999Z</time></trkpt><trkpt lat="31.488390851520073" lon="-5.5523441182150135"><ele>1282.0</ele><time>2026-04-24T17:56:48.999Z</time></trkpt><trkpt lat="31.488519126784222" lon="-5.552199385643406"><ele>1282.0</ele><time>2026-04-24T17:56:49.999Z</time></trkpt><trkpt lat="31.488650943012026" lon="-5.552058667873138"><ele>1281.0</ele><time>2026-04-24T17:56:50.999Z</time></trkpt><trkpt lat="31.48878406214802" lon="-5.551917897095663"><ele>1280.0</ele><time>2026-04-24T17:56:51.999Z</time></trkpt><trkpt lat="31.488919465663834" lon="-5.551780648321027"><ele>1279.0</ele><time>2026-04-24T17:56:52.999Z</time></trkpt><trkpt lat="31.48905649770416" lon="-5.551644946400314"><ele>1279.0</ele><time>2026-04-24T17:56:53.999Z</time></trkpt><trkpt lat="31.489194963800266" lon="-5.551510573341095"><ele>1279.0</ele><time>2026-04-24T17:56:54.999Z</time></trkpt><trkpt lat="31.489334042730512" lon="-5.551374348657314"><ele>1279.0</ele><time>2026-04-24T17:56:55.999Z</time></trkpt><trkpt lat="31.489469750625315" lon="-5.551239450564173"><ele>1277.3333333333333</ele><time>2026-04-24T17:56:56.999Z</time></trkpt><trkpt lat="31.489603010611063" lon="-5.551104594072787"><ele>1275.6666666666667</ele><time>2026-04-24T17:56:57.999Z</time></trkpt><trkpt lat="31.489734073340824" lon="-5.550969424336906"><ele>1274.0</ele><time>2026-04-24T17:56:58.999Z</time></trkpt><trkpt lat="31.489861602290475" lon="-5.550836929447915"><ele>1274.0</ele><time>2026-04-24T17:56:59.999Z</time></trkpt><trkpt lat="31.489978734768826" lon="-5.550709287411346"><ele>1274.0</ele><time>2026-04-24T17:57:00.999Z</time></trkpt><trkpt lat="31.490090541673457" lon="-5.5505910713637165"><ele>1274.0</ele><time>2026-04-24T17:57:01.999Z</time></trkpt><trkpt lat="31.490195190423098" lon="-5.550479286772731"><ele>1274.0</ele><time>2026-04-24T17:57:02.999Z</time></trkpt><trkpt lat="31.490284886108032" lon="-5.550350573079067"><ele>1274.0</ele><time>2026-04-24T17:57:03.999Z</time></trkpt><trkpt lat="31.490394270815013" lon="-5.550250880898149"><ele>1274.0</ele><time>2026-04-24T17:57:04.999Z</time></trkpt><trkpt lat="31.490483359272353" lon="-5.550138323904901"><ele>1274.0</ele><time>2026-04-24T17:57:05.999Z</time></trkpt><trkpt lat="31.490568956118363" lon="-5.55001776624631"><ele>1274.0</ele><time>2026-04-24T17:57:06.999Z</time></trkpt><trkpt lat="31.490625563647047" lon="-5.5498677070276"><ele>1274.0</ele><time>2026-04-24T17:57:07.999Z</time></trkpt><trkpt lat="31.49071337198533" lon="-5.549743421115549"><ele>1274.0</ele><time>2026-04-24T17:57:08.999Z</time></trkpt><trkpt lat="31.490841279074054" lon="-5.549648487275857"><ele>1274.0</ele><time>2026-04-24T17:57:09.999Z</time></trkpt><trkpt lat="31.490944696214424" lon="-5.549522891586696"><ele>1274.3333333333335</ele><time>2026-04-24T17:57:10.999Z</time></trkpt><trkpt lat="31.491054503998292" lon="-5.5493941874072235"><ele>1274.6666666666667</ele><time>2026-04-24T17:57:11.999Z</time></trkpt><trkpt lat="31.491165820123683" lon="-5.549260565079793"><ele>1275.0</ele><time>2026-04-24T17:57:12.999Z</time></trkpt><trkpt lat="31.491277795259716" lon="-5.549120524973832"><ele>1275.0</ele><time>2026-04-24T17:57:13.999Z</time></trkpt><trkpt lat="31.491394479638977" lon="-5.548979413987383"><ele>1275.0</ele><time>2026-04-24T17:57:14.999Z</time></trkpt><trkpt lat="31.491511143779444" lon="-5.5488340852972176"><ele>1275.0</ele><time>2026-04-24T17:57:15.999Z</time></trkpt><trkpt lat="31.491627201117822" lon="-5.54869069852748"><ele>1274.3333333333333</ele><time>2026-04-24T17:57:16.999Z</time></trkpt><trkpt lat="31.49174558193083" lon="-5.5485431969371595"><ele>1273.6666666666665</ele><time>2026-04-24T17:57:17.999Z</time></trkpt><trkpt lat="31.491866353609552" lon="-5.548392723055255"><ele>1273.0</ele><time>2026-04-24T17:57:18.999Z</time></trkpt><trkpt lat="31.491988922061815" lon="-5.54824105372999"><ele>1273.3333333333333</ele><time>2026-04-24T17:57:19.999Z</time></trkpt><trkpt lat="31.492112119549212" lon="-5.5480943422391436"><ele>1273.6666666666667</ele><time>2026-04-24T17:57:20.999Z</time></trkpt><trkpt lat="31.492239348171548" lon="-5.547949621223572"><ele>1274.0</ele><time>2026-04-24T17:57:21.999Z</time></trkpt><trkpt lat="31.49236776126888" lon="-5.547808570248647"><ele>1273.0</ele><time>2026-04-24T17:57:22.998Z</time></trkpt><trkpt lat="31.492500574323643" lon="-5.5476748288753575"><ele>1272.0</ele><time>2026-04-24T17:57:23.998Z</time></trkpt><trkpt lat="31.49263114991925" lon="-5.547547399363582"><ele>1271.0</ele><time>2026-04-24T17:57:24.998Z</time></trkpt><trkpt lat="31.49276510409112" lon="-5.547438070124177"><ele>1271.0</ele><time>2026-04-24T17:57:25.998Z</time></trkpt><trkpt lat="31.492899738197472" lon="-5.54733941806321"><ele>1271.0</ele><time>2026-04-24T17:57:26.998Z</time></trkpt><trkpt lat="31.493033545548606" lon="-5.547247157953573"><ele>1271.0</ele><time>2026-04-24T17:57:27.998Z</time></trkpt><trkpt lat="31.49317206327849" lon="-5.547157290142345"><ele>1271.3333333333335</ele><time>2026-04-24T17:57:28.998Z</time></trkpt><trkpt lat="31.493310786261677" lon="-5.547069685059882"><ele>1271.6666666666667</ele><time>2026-04-24T17:57:29.998Z</time></trkpt><trkpt lat="31.49344829301725" lon="-5.546982203458946"><ele>1272.0</ele><time>2026-04-24T17:57:30.998Z</time></trkpt><trkpt lat="31.49358235295129" lon="-5.546894956146789"><ele>1271.75</ele><time>2026-04-24T17:57:31.998Z</time></trkpt><trkpt lat="31.49371153328563" lon="-5.546811569926614"><ele>1271.5</ele><time>2026-04-24T17:57:32.998Z</time></trkpt><trkpt lat="31.493837296894164" lon="-5.546730306751111"><ele>1271.25</ele><time>2026-04-24T17:57:33.998Z</time></trkpt><trkpt lat="31.493959753214106" lon="-5.546648234847338"><ele>1271.0</ele><time>2026-04-24T17:57:35Z</time></trkpt><trkpt lat="31.494079966496113" lon="-5.546568383638088"><ele>1271.0</ele><time>2026-04-24T17:57:36Z</time></trkpt><trkpt lat="31.494192402505657" lon="-5.546495894817398"><ele>1271.0</ele><time>2026-04-24T17:57:37Z</time></trkpt><trkpt lat="31.49430082839172" lon="-5.546426457926002"><ele>1271.0</ele><time>2026-04-24T17:57:38Z</time></trkpt><trkpt lat="31.494403492148262" lon="-5.546358738694883"><ele>1271.0</ele><time>2026-04-24T17:57:39Z</time></trkpt><trkpt lat="31.494496679289348" lon="-5.546289773924466"><ele>1271.0</ele><time>2026-04-24T17:57:40Z</time></trkpt><trkpt lat="31.494576873230383" lon="-5.546212345249748"><ele>1271.0</ele><time>2026-04-24T17:57:41Z</time></trkpt><trkpt lat="31.49464403141407" lon="-5.546126732085537"><ele>1271.0</ele><time>2026-04-24T17:57:42Z</time></trkpt><trkpt lat="31.494692580387223" lon="-5.546033423707219"><ele>1271.0</ele><time>2026-04-24T17:57:43Z</time></trkpt><trkpt lat="31.494744492401622" lon="-5.5459773258243885"><ele>1271.0</ele><time>2026-04-24T17:57:44Z</time></trkpt><trkpt lat="31.494831160977867" lon="-5.545972210812471"><ele>1270.6666666666667</ele><time>2026-04-24T17:57:45Z</time></trkpt><trkpt lat="31.49490883235823" lon="-5.545962972773208"><ele>1270.3333333333335</ele><time>2026-04-24T17:57:46Z</time></trkpt><trkpt lat="31.494994400676447" lon="-5.545961621352827"><ele>1270.0</ele><time>2026-04-24T17:57:47Z</time></trkpt><trkpt lat="31.49508251125933" lon="-5.545942968069185"><ele>1269.6666666666667</ele><time>2026-04-24T17:57:48Z</time></trkpt><trkpt lat="31.495170981000182" lon="-5.545905698320688"><ele>1269.3333333333333</ele><time>2026-04-24T17:57:49Z</time></trkpt><trkpt lat="31.49526206549078" lon="-5.545856319523969"><ele>1269.0</ele><time>2026-04-24T17:57:50Z</time></trkpt><trkpt lat="31.495355702908135" lon="-5.545799449598609"><ele>1269.6000000000001</ele><time>2026-04-24T17:57:51Z</time></trkpt><trkpt lat="31.49543197063866" lon="-5.545692987986913"><ele>1270.2</ele><time>2026-04-24T17:57:52Z</time></trkpt><trkpt lat="31.495531330571797" lon="-5.545628480298861"><ele>1270.8000000000002</ele><time>2026-04-24T17:57:53Z</time></trkpt><trkpt lat="31.495621272711414" lon="-5.5455700869474915"><ele>1271.4</ele><time>2026-04-24T17:57:54Z</time></trkpt><trkpt lat="31.495702323887834" lon="-5.545517465906669"><ele>1272.0</ele><time>2026-04-24T17:57:55Z</time></trkpt><trkpt lat="31.495773450214138" lon="-5.54547128791269"><ele>1272.0</ele><time>2026-04-24T17:57:56Z</time></trkpt><trkpt lat="31.495845387342573" lon="-5.545424168872105"><ele>1272.0</ele><time>2026-04-24T17:57:57Z</time></trkpt><trkpt lat="31.495927540701686" lon="-5.545370292430545"><ele>1272.0</ele><time>2026-04-24T17:57:58Z</time></trkpt><trkpt lat="31.496019591029395" lon="-5.545309925558242"><ele>1272.0</ele><time>2026-04-24T17:57:59Z</time></trkpt><trkpt lat="31.496118982305003" lon="-5.545244728983929"><ele>1272.0</ele><time>2026-04-24T17:58:00Z</time></trkpt><trkpt lat="31.496223943309896" lon="-5.545175833736621"><ele>1271.5</ele><time>2026-04-24T17:58:01Z</time></trkpt><trkpt lat="31.496332943534938" lon="-5.545104287196431"><ele>1271.0</ele><time>2026-04-24T17:58:02Z</time></trkpt><trkpt lat="31.49644306309857" lon="-5.545032009924979"><ele>1270.5</ele><time>2026-04-24T17:58:03Z</time></trkpt><trkpt lat="31.496555391321316" lon="-5.544958291482055"><ele>1270.0</ele><time>2026-04-24T17:58:03.999Z</time></trkpt><trkpt lat="31.496668159703205" lon="-5.544884283735906"><ele>1270.0</ele><time>2026-04-24T17:58:04.999Z</time></trkpt><trkpt lat="31.49678322862389" lon="-5.544809250311836"><ele>1270.0</ele><time>2026-04-24T17:58:05.999Z</time></trkpt><trkpt lat="31.496896645854875" lon="-5.544735019491313"><ele>1270.0</ele><time>2026-04-24T17:58:06.999Z</time></trkpt><trkpt lat="31.497009860125083" lon="-5.544660921478462"><ele>1270.0</ele><time>2026-04-24T17:58:07.999Z</time></trkpt><trkpt lat="31.497120788794277" lon="-5.544588319384079"><ele>1270.5</ele><time>2026-04-24T17:58:08.999Z</time></trkpt><trkpt lat="31.49722969702803" lon="-5.544517039659884"><ele>1271.0</ele><time>2026-04-24T17:58:09.999Z</time></trkpt><trkpt lat="31.497335899831015" lon="-5.544447530619192"><ele>1271.5</ele><time>2026-04-24T17:58:10.999Z</time></trkpt><trkpt lat="31.497435496596154" lon="-5.5443823451999"><ele>1272.0</ele><time>2026-04-24T17:58:11.999Z</time></trkpt><trkpt lat="31.497519579764848" lon="-5.544327313283818"><ele>1272.0</ele><time>2026-04-24T17:58:12.999Z</time></trkpt><trkpt lat="31.497594880860262" lon="-5.544278029199066"><ele>1272.0</ele><time>2026-04-24T17:58:13.999Z</time></trkpt><trkpt lat="31.497664075210174" lon="-5.5442327419709985"><ele>1272.0</ele><time>2026-04-24T17:58:14.999Z</time></trkpt><trkpt lat="31.497734628555794" lon="-5.54418669683946"><ele>1272.0</ele><time>2026-04-24T17:58:15.999Z</time></trkpt><trkpt lat="31.49781062423886" lon="-5.544137286339043"><ele>1272.0</ele><time>2026-04-24T17:58:16.999Z</time></trkpt><trkpt lat="31.497892215440494" lon="-5.544084237789467"><ele>1272.0</ele><time>2026-04-24T17:58:17.999Z</time></trkpt><trkpt lat="31.49797870183895" lon="-5.544027834123987"><ele>1272.0</ele><time>2026-04-24T17:58:18.999Z</time></trkpt><trkpt lat="31.49806922757553" lon="-5.54396833260046"><ele>1272.0</ele><time>2026-04-24T17:58:19.999Z</time></trkpt><trkpt lat="31.498163655938406" lon="-5.543906631140157"><ele>1272.0</ele><time>2026-04-24T17:58:20.999Z</time></trkpt><trkpt lat="31.498261620264017" lon="-5.543842619203447"><ele>1272.0</ele><time>2026-04-24T17:58:21.999Z</time></trkpt><trkpt lat="31.498362160861873" lon="-5.543776786866973"><ele>1272.0</ele><time>2026-04-24T17:58:22.999Z</time></trkpt><trkpt lat="31.498459419114543" lon="-5.5437129161684755"><ele>1272.1666666666667</ele><time>2026-04-24T17:58:23.999Z</time></trkpt><trkpt lat="31.498549366889847" lon="-5.543653846374804"><ele>1272.3333333333333</ele><time>2026-04-24T17:58:24.999Z</time></trkpt><trkpt lat="31.498633704314763" lon="-5.543598460927472"><ele>1272.5</ele><time>2026-04-24T17:58:25.999Z</time></trkpt><trkpt lat="31.49869969205804" lon="-5.543555147914603"><ele>1272.6666666666665</ele><time>2026-04-24T17:58:26.999Z</time></trkpt><trkpt lat="31.49876607841772" lon="-5.5435117469947786"><ele>1272.8333333333333</ele><time>2026-04-24T17:58:27.999Z</time></trkpt><trkpt lat="31.498831825848733" lon="-5.543468763766206"><ele>1273.0</ele><time>2026-04-24T17:58:28.999Z</time></trkpt><trkpt lat="31.49889441735764" lon="-5.543427843752706"><ele>1273.0</ele><time>2026-04-24T17:58:29.999Z</time></trkpt><trkpt lat="31.498958446628645" lon="-5.543385983777448"><ele>1273.0</ele><time>2026-04-24T17:58:30.999Z</time></trkpt><trkpt lat="31.49902396830166" lon="-5.543343148150262"><ele>1273.0</ele><time>2026-04-24T17:58:31.999Z</time></trkpt><trkpt lat="31.49908945284332" lon="-5.543300336759142"><ele>1273.0</ele><time>2026-04-24T17:58:32.999Z</time></trkpt><trkpt lat="31.499155966462798" lon="-5.543256852613333"><ele>1273.0</ele><time>2026-04-24T17:58:33.999Z</time></trkpt><trkpt lat="31.499225675894763" lon="-5.543211288628195"><ele>1273.0</ele><time>2026-04-24T17:58:34.999Z</time></trkpt><trkpt lat="31.499294241344586" lon="-5.543166489570357"><ele>1273.0</ele><time>2026-04-24T17:58:35.999Z</time></trkpt><trkpt lat="31.499382733493274" lon="-5.543164659574493"><ele>1273.0</ele><time>2026-04-24T17:58:36.999Z</time></trkpt><trkpt lat="31.49944804640391" lon="-5.543118305815522"><ele>1273.0</ele><time>2026-04-24T17:58:37.999Z</time></trkpt><trkpt lat="31.49950666774025" lon="-5.543069871628729"><ele>1273.0</ele><time>2026-04-24T17:58:38.999Z</time></trkpt><trkpt lat="31.49955965309539" lon="-5.543018128306254"><ele>1273.0</ele><time>2026-04-24T17:58:39.999Z</time></trkpt><trkpt lat="31.499646497689405" lon="-5.5429258298039406"><ele>1273.0</ele><time>2026-04-24T17:58:41.999Z</time></trkpt><trkpt lat="31.499738444677426" lon="-5.5428367924457564"><ele>1273.5</ele><time>2026-04-24T17:58:43.999Z</time></trkpt><trkpt lat="31.4998122384166" lon="-5.542825048525622"><ele>1274.0</ele><time>2026-04-24T17:58:44.999Z</time></trkpt><trkpt lat="31.4998793813418" lon="-5.542800422047654"><ele>1274.5</ele><time>2026-04-24T17:58:45.999Z</time></trkpt><trkpt lat="31.49994392077756" lon="-5.542773378407956"><ele>1275.0</ele><time>2026-04-24T17:58:46.999Z</time></trkpt><trkpt lat="31.50000590963054" lon="-5.542741417210317"><ele>1275.5</ele><time>2026-04-24T17:58:47.999Z</time></trkpt><trkpt lat="31.50006533066189" lon="-5.5427119892942285"><ele>1276.0</ele><time>2026-04-24T17:58:48.999Z</time></trkpt><trkpt lat="31.500155172769606" lon="-5.542605163754552"><ele>1276.0</ele><time>2026-04-24T17:58:50.999Z</time></trkpt><trkpt lat="31.50021361627422" lon="-5.542566741428063"><ele>1276.0</ele><time>2026-04-24T17:58:51.999Z</time></trkpt><trkpt lat="31.500275685666683" lon="-5.542525936200178"><ele>1276.0</ele><time>2026-04-24T17:58:52.999Z</time></trkpt><trkpt lat="31.500342134841503" lon="-5.542482284531973"><ele>1276.0</ele><time>2026-04-24T17:58:53.999Z</time></trkpt><trkpt lat="31.500411189408442" lon="-5.542436932560858"><ele>1276.0</ele><time>2026-04-24T17:58:54.999Z</time></trkpt><trkpt lat="31.50048311207922" lon="-5.542389696947708"><ele>1276.0</ele><time>2026-04-24T17:58:55.999Z</time></trkpt><trkpt lat="31.500558195006466" lon="-5.542340385388054"><ele>1276.3999999999999</ele><time>2026-04-24T17:58:56.999Z</time></trkpt><trkpt lat="31.50063563843964" lon="-5.54229002968715"><ele>1276.8</ele><time>2026-04-24T17:58:57.999Z</time></trkpt><trkpt lat="31.5007122772852" lon="-5.542240034086943"><ele>1277.1999999999998</ele><time>2026-04-24T17:58:58.999Z</time></trkpt><trkpt lat="31.50078023302409" lon="-5.542195221153542"><ele>1277.6</ele><time>2026-04-24T17:58:59.999Z</time></trkpt><trkpt lat="31.500864116766017" lon="-5.542207293862568"><ele>1278.0</ele><time>2026-04-24T17:59:00.999Z</time></trkpt><trkpt lat="31.500961464826435" lon="-5.542135866955187"><ele>1278.0</ele><time>2026-04-24T17:59:02.999Z</time></trkpt><trkpt lat="31.50107822451247" lon="-5.542059828615957"><ele>1278.0</ele><time>2026-04-24T17:59:04.999Z</time></trkpt><trkpt lat="31.501150279132652" lon="-5.5420079705610465"><ele>1278.0</ele><time>2026-04-24T17:59:05.999Z</time></trkpt><trkpt lat="31.501230437726043" lon="-5.541953721631417"><ele>1278.0</ele><time>2026-04-24T17:59:06.999Z</time></trkpt><trkpt lat="31.50131672326339" lon="-5.541891993612228"><ele>1278.0</ele><time>2026-04-24T17:59:07.999Z</time></trkpt><trkpt lat="31.501413247194442" lon="-5.541823146473583"><ele>1277.75</ele><time>2026-04-24T17:59:08.999Z</time></trkpt><trkpt lat="31.501509766998325" lon="-5.541723310186125"><ele>1277.5</ele><time>2026-04-24T17:59:09.999Z</time></trkpt><trkpt lat="31.501627897009172" lon="-5.541646867484263"><ele>1277.25</ele><time>2026-04-24T17:59:10.999Z</time></trkpt><trkpt lat="31.501750688087114" lon="-5.541567377533598"><ele>1277.0</ele><time>2026-04-24T17:59:11.999Z</time></trkpt><trkpt lat="31.501872592749265" lon="-5.541488461386792"><ele>1277.0</ele><time>2026-04-24T17:59:12.999Z</time></trkpt><trkpt lat="31.501983706139658" lon="-5.541418779148493"><ele>1277.0</ele><time>2026-04-24T17:59:13.999Z</time></trkpt><trkpt lat="31.502084137106603" lon="-5.54135574950313"><ele>1277.0</ele><time>2026-04-24T17:59:14.999Z</time></trkpt><trkpt lat="31.502175079557563" lon="-5.541298674803055"><ele>1277.0</ele><time>2026-04-24T17:59:15.999Z</time></trkpt><trkpt lat="31.502261818157407" lon="-5.54124423832445"><ele>1277.0</ele><time>2026-04-24T17:59:16.999Z</time></trkpt><trkpt lat="31.50234770503382" lon="-5.5411866383525235"><ele>1276.75</ele><time>2026-04-24T17:59:17.999Z</time></trkpt><trkpt lat="31.502443478590184" lon="-5.541119844481396"><ele>1276.5</ele><time>2026-04-24T17:59:18.999Z</time></trkpt><trkpt lat="31.50254043800267" lon="-5.541053954705751"><ele>1276.25</ele><time>2026-04-24T17:59:19.999Z</time></trkpt><trkpt lat="31.50264815342375" lon="-5.540991834731052"><ele>1276.0</ele><time>2026-04-24T17:59:20.999Z</time></trkpt><trkpt lat="31.50275551432407" lon="-5.540928847259177"><ele>1276.0</ele><time>2026-04-24T17:59:21.999Z</time></trkpt><trkpt lat="31.502862810968495" lon="-5.54086670104733"><ele>1276.0</ele><time>2026-04-24T17:59:22.999Z</time></trkpt><trkpt lat="31.50296601004143" lon="-5.540805369777605"><ele>1276.0</ele><time>2026-04-24T17:59:23.999Z</time></trkpt><trkpt lat="31.503062748844382" lon="-5.540747639319252"><ele>1276.0</ele><time>2026-04-24T17:59:24.999Z</time></trkpt><trkpt lat="31.503155677712606" lon="-5.540692728275572"><ele>1276.0</ele><time>2026-04-24T17:59:25.999Z</time></trkpt><trkpt lat="31.50325101488382" lon="-5.540658060440917"><ele>1276.1666666666665</ele><time>2026-04-24T17:59:26.998Z</time></trkpt><trkpt lat="31.503328355297764" lon="-5.540602195210774"><ele>1276.3333333333333</ele><time>2026-04-24T17:59:27.998Z</time></trkpt><trkpt lat="31.503395610464306" lon="-5.5405427089119845"><ele>1276.5</ele><time>2026-04-24T17:59:28.998Z</time></trkpt><trkpt lat="31.503453468632955" lon="-5.540479643899427"><ele>1276.6666666666667</ele><time>2026-04-24T17:59:29.998Z</time></trkpt><trkpt lat="31.503507950598987" lon="-5.5404106211436615"><ele>1276.8333333333335</ele><time>2026-04-24T17:59:30.998Z</time></trkpt><trkpt lat="31.503563369145187" lon="-5.5403470852345995"><ele>1277.0</ele><time>2026-04-24T17:59:31.998Z</time></trkpt><trkpt lat="31.50362633855406" lon="-5.540289641968872"><ele>1277.3333333333335</ele><time>2026-04-24T17:59:32.998Z</time></trkpt><trkpt lat="31.503696035622482" lon="-5.5402464809182295"><ele>1277.6666666666667</ele><time>2026-04-24T17:59:33.998Z</time></trkpt><trkpt lat="31.503774105760403" lon="-5.540222594588441"><ele>1278.0</ele><time>2026-04-24T17:59:34.998Z</time></trkpt><trkpt lat="31.50385247962097" lon="-5.540201372884422"><ele>1278.3333333333333</ele><time>2026-04-24T17:59:35.998Z</time></trkpt><trkpt lat="31.50392827240988" lon="-5.540175462169861"><ele>1278.6666666666665</ele><time>2026-04-24T17:59:36.998Z</time></trkpt><trkpt lat="31.50400154251751" lon="-5.540150435201612"><ele>1279.0</ele><time>2026-04-24T17:59:37.998Z</time></trkpt><trkpt lat="31.504071484334837" lon="-5.540121734417837"><ele>1279.0</ele><time>2026-04-24T17:59:38.998Z</time></trkpt><trkpt lat="31.50414130166677" lon="-5.540089343255991"><ele>1279.0</ele><time>2026-04-24T17:59:40Z</time></trkpt><trkpt lat="31.50421370108692" lon="-5.540057074143187"><ele>1279.0</ele><time>2026-04-24T17:59:41Z</time></trkpt><trkpt lat="31.5042878693031" lon="-5.540018179003728"><ele>1279.0</ele><time>2026-04-24T17:59:42Z</time></trkpt><trkpt lat="31.504369571820856" lon="-5.539979081665039"><ele>1279.0</ele><time>2026-04-24T17:59:43Z</time></trkpt><trkpt lat="31.50445495854318" lon="-5.539936309712535"><ele>1279.0</ele><time>2026-04-24T17:59:44Z</time></trkpt><trkpt lat="31.50454411086667" lon="-5.539897764290125"><ele>1279.5</ele><time>2026-04-24T17:59:45Z</time></trkpt><trkpt lat="31.50462743488157" lon="-5.539839522124791"><ele>1280.0</ele><time>2026-04-24T17:59:46Z</time></trkpt><trkpt lat="31.504718040432092" lon="-5.53979511742732"><ele>1280.5</ele><time>2026-04-24T17:59:47Z</time></trkpt><trkpt lat="31.50480772913928" lon="-5.53976410282768"><ele>1281.0</ele><time>2026-04-24T17:59:48Z</time></trkpt><trkpt lat="31.504886442338883" lon="-5.539736883554524"><ele>1281.5</ele><time>2026-04-24T17:59:49Z</time></trkpt><trkpt lat="31.50495514263309" lon="-5.539713127108423"><ele>1282.0</ele><time>2026-04-24T17:59:50Z</time></trkpt><trkpt lat="31.50502635900939" lon="-5.5396884215866695"><ele>1282.0</ele><time>2026-04-24T17:59:51Z</time></trkpt><trkpt lat="31.505104541199646" lon="-5.539675146568737"><ele>1282.0</ele><time>2026-04-24T17:59:52Z</time></trkpt><trkpt lat="31.505180485678434" lon="-5.539674773832669"><ele>1282.0</ele><time>2026-04-24T17:59:53Z</time></trkpt><trkpt lat="31.505256026739904" lon="-5.539655684027307"><ele>1282.0</ele><time>2026-04-24T17:59:54Z</time></trkpt><trkpt lat="31.5053313070766" lon="-5.539634967166524"><ele>1282.0</ele><time>2026-04-24T17:59:55Z</time></trkpt><trkpt lat="31.505409276737144" lon="-5.539617992444068"><ele>1282.0</ele><time>2026-04-24T17:59:56Z</time></trkpt><trkpt lat="31.505484980700878" lon="-5.539578784045276"><ele>1282.1666666666665</ele><time>2026-04-24T17:59:57Z</time></trkpt><trkpt lat="31.50556358384809" lon="-5.539552686361183"><ele>1282.3333333333333</ele><time>2026-04-24T17:59:58Z</time></trkpt><trkpt lat="31.505639899802738" lon="-5.539527348049965"><ele>1282.5</ele><time>2026-04-24T17:59:59Z</time></trkpt><trkpt lat="31.50571346159501" lon="-5.539502924182637"><ele>1282.6666666666667</ele><time>2026-04-24T17:59:59.999Z</time></trkpt><trkpt lat="31.505786050030995" lon="-5.5394788919918385"><ele>1282.8333333333335</ele><time>2026-04-24T18:00:00.999Z</time></trkpt><trkpt lat="31.50585690128683" lon="-5.539455482810066"><ele>1283.0</ele><time>2026-04-24T18:00:01.999Z</time></trkpt><trkpt lat="31.505934266863417" lon="-5.539432013280167"><ele>1283.0</ele><time>2026-04-24T18:00:02.999Z</time></trkpt><trkpt lat="31.50600858439203" lon="-5.539415469217653"><ele>1283.0</ele><time>2026-04-24T18:00:03.999Z</time></trkpt><trkpt lat="31.506085445173746" lon="-5.539398359005509"><ele>1283.0</ele><time>2026-04-24T18:00:04.999Z</time></trkpt><trkpt lat="31.506163069304677" lon="-5.539381400405997"><ele>1283.0</ele><time>2026-04-24T18:00:05.999Z</time></trkpt><trkpt lat="31.506237841478814" lon="-5.539365251388474"><ele>1283.0</ele><time>2026-04-24T18:00:06.999Z</time></trkpt><trkpt lat="31.50630668607025" lon="-5.539350382577636"><ele>1283.0</ele><time>2026-04-24T18:00:07.999Z</time></trkpt><trkpt lat="31.506369794588" lon="-5.5393367526357515"><ele>1283.0</ele><time>2026-04-24T18:00:08.999Z</time></trkpt><trkpt lat="31.50646753215008" lon="-5.539315423356455"><ele>1283.0</ele><time>2026-04-24T18:00:10.999Z</time></trkpt><trkpt lat="31.506537618248878" lon="-5.539299969385273"><ele>1283.0</ele><time>2026-04-24T18:00:13.999Z</time></trkpt><trkpt lat="31.506614332092234" lon="-5.539283054009658"><ele>1283.0</ele><time>2026-04-24T18:00:39.999Z</time></trkpt><trkpt lat="31.50671379140692" lon="-5.539261123257331"><ele>1283.0</ele><time>2026-04-24T18:00:41.999Z</time></trkpt><trkpt lat="31.506778804617667" lon="-5.539246787844781"><ele>1283.0</ele><time>2026-04-24T18:00:42.999Z</time></trkpt><trkpt lat="31.50684728440258" lon="-5.539231688080395"><ele>1283.0</ele><time>2026-04-24T18:00:43.999Z</time></trkpt><trkpt lat="31.506916308637496" lon="-5.539216342904995"><ele>1283.0</ele><time>2026-04-24T18:00:44.999Z</time></trkpt><trkpt lat="31.506982673373678" lon="-5.539201582135808"><ele>1283.0</ele><time>2026-04-24T18:00:45.999Z</time></trkpt><trkpt lat="31.507046832110696" lon="-5.539187312031937"><ele>1283.0</ele><time>2026-04-24T18:00:46.999Z</time></trkpt><trkpt lat="31.507110731653817" lon="-5.539173099586081"><ele>1283.0</ele><time>2026-04-24T18:00:47.999Z</time></trkpt><trkpt lat="31.507176964595068" lon="-5.539158368134611"><ele>1283.0</ele><time>2026-04-24T18:00:48.999Z</time></trkpt><trkpt lat="31.50724491865657" lon="-5.539143253876617"><ele>1283.0</ele><time>2026-04-24T18:00:49.999Z</time></trkpt><trkpt lat="31.50731566176343" lon="-5.53912751928333"><ele>1283.0</ele><time>2026-04-24T18:00:50.999Z</time></trkpt><trkpt lat="31.50738933026152" lon="-5.5391111340284125"><ele>1283.3333333333335</ele><time>2026-04-24T18:00:51.999Z</time></trkpt><trkpt lat="31.50746761710842" lon="-5.539093721571651"><ele>1283.6666666666667</ele><time>2026-04-24T18:00:52.999Z</time></trkpt><trkpt lat="31.507544878061623" lon="-5.539076537279368"><ele>1284.0</ele><time>2026-04-24T18:00:53.999Z</time></trkpt><trkpt lat="31.50762339977904" lon="-5.539059072582561"><ele>1284.3333333333333</ele><time>2026-04-24T18:00:54.999Z</time></trkpt><trkpt lat="31.5077051227549" lon="-5.539040895859588"><ele>1284.6666666666665</ele><time>2026-04-24T18:00:55.999Z</time></trkpt><trkpt lat="31.507786786424973" lon="-5.5390227016916285"><ele>1285.0</ele><time>2026-04-24T18:00:56.999Z</time></trkpt><trkpt lat="31.507868224177695" lon="-5.53900450847892"><ele>1284.6666666666665</ele><time>2026-04-24T18:00:57.999Z</time></trkpt><trkpt lat="31.507948681750975" lon="-5.538986534238226"><ele>1284.3333333333333</ele><time>2026-04-24T18:00:58.999Z</time></trkpt><trkpt lat="31.508027658971262" lon="-5.538968904127554"><ele>1284.0</ele><time>2026-04-24T18:00:59.999Z</time></trkpt><trkpt lat="31.508105761293194" lon="-5.538951587250856"><ele>1283.6666666666667</ele><time>2026-04-24T18:01:00.999Z</time></trkpt><trkpt lat="31.508183802004044" lon="-5.538933008743436"><ele>1283.3333333333335</ele><time>2026-04-24T18:01:01.999Z</time></trkpt><trkpt lat="31.508265493137763" lon="-5.538913831985421"><ele>1283.0</ele><time>2026-04-24T18:01:02.999Z</time></trkpt><trkpt lat="31.508351757732903" lon="-5.538893581629161"><ele>1283.0</ele><time>2026-04-24T18:01:03.999Z</time></trkpt><trkpt lat="31.508437811803425" lon="-5.538872456564589"><ele>1283.0</ele><time>2026-04-24T18:01:04.999Z</time></trkpt><trkpt lat="31.50852638034848" lon="-5.538851161545109"><ele>1283.0</ele><time>2026-04-24T18:01:05.999Z</time></trkpt><trkpt lat="31.5086173742621" lon="-5.538829548477234"><ele>1283.0</ele><time>2026-04-24T18:01:06.999Z</time></trkpt><trkpt lat="31.508709303613756" lon="-5.53880771322457"><ele>1283.0</ele><time>2026-04-24T18:01:07.999Z</time></trkpt><trkpt lat="31.50880440821243" lon="-5.538785274660808"><ele>1283.2</ele><time>2026-04-24T18:01:08.999Z</time></trkpt><trkpt lat="31.508901161508412" lon="-5.538762790613397"><ele>1283.4</ele><time>2026-04-24T18:01:09.999Z</time></trkpt><trkpt lat="31.5089972196847" lon="-5.53874047843579"><ele>1283.6000000000001</ele><time>2026-04-24T18:01:10.999Z</time></trkpt><trkpt lat="31.50909583225517" lon="-5.538721208259439"><ele>1283.8000000000002</ele><time>2026-04-24T18:01:11.999Z</time></trkpt><trkpt lat="31.509189153228796" lon="-5.538701477109002"><ele>1284.0</ele><time>2026-04-24T18:01:12.999Z</time></trkpt><trkpt lat="31.509283024489662" lon="-5.538681469335702"><ele>1284.2</ele><time>2026-04-24T18:01:13.999Z</time></trkpt><trkpt lat="31.50937880681058" lon="-5.538661054244242"><ele>1284.4</ele><time>2026-04-24T18:01:14.999Z</time></trkpt><trkpt lat="31.509474854392085" lon="-5.538640582606102"><ele>1284.6</ele><time>2026-04-24T18:01:15.999Z</time></trkpt><trkpt lat="31.509571263730873" lon="-5.538620033866295"><ele>1284.8</ele><time>2026-04-24T18:01:16.999Z</time></trkpt><trkpt lat="31.509665944735605" lon="-5.538599853498678"><ele>1285.0</ele><time>2026-04-24T18:01:17.999Z</time></trkpt><trkpt lat="31.50975902978862" lon="-5.53858001329536"><ele>1285.0</ele><time>2026-04-24T18:01:18.999Z</time></trkpt><trkpt lat="31.509852702190457" lon="-5.538560048049581"><ele>1285.0</ele><time>2026-04-24T18:01:19.999Z</time></trkpt><trkpt lat="31.50995549710203" lon="-5.538552972259647"><ele>1285.0</ele><time>2026-04-24T18:01:20.999Z</time></trkpt><trkpt lat="31.510052548380074" lon="-5.538544751638776"><ele>1285.0</ele><time>2026-04-24T18:01:21.999Z</time></trkpt><trkpt lat="31.510151159536075" lon="-5.538536398883415"><ele>1285.0</ele><time>2026-04-24T18:01:22.999Z</time></trkpt><trkpt lat="31.510247849641814" lon="-5.538528352233341"><ele>1285.0</ele><time>2026-04-24T18:01:23.999Z</time></trkpt><trkpt lat="31.510346118885813" lon="-5.538530359711012"><ele>1285.0</ele><time>2026-04-24T18:01:24.999Z</time></trkpt><trkpt lat="31.510440171833512" lon="-5.538533115088086"><ele>1285.0</ele><time>2026-04-24T18:01:25.999Z</time></trkpt><trkpt lat="31.510533308739973" lon="-5.538535843663592"><ele>1285.0</ele><time>2026-04-24T18:01:26.998Z</time></trkpt><trkpt lat="31.51062173244593" lon="-5.538569935880229"><ele>1285.0</ele><time>2026-04-24T18:01:27.998Z</time></trkpt><trkpt lat="31.510707972300303" lon="-5.538581634445427"><ele>1285.0</ele><time>2026-04-24T18:01:28.998Z</time></trkpt><trkpt lat="31.51078778747365" lon="-5.5386009203757425"><ele>1285.0</ele><time>2026-04-24T18:01:29.998Z</time></trkpt><trkpt lat="31.51086592891932" lon="-5.538624809642244"><ele>1285.0</ele><time>2026-04-24T18:01:30.998Z</time></trkpt><trkpt lat="31.510946515183367" lon="-5.538651300287861"><ele>1285.0</ele><time>2026-04-24T18:01:31.998Z</time></trkpt><trkpt lat="31.511027219242436" lon="-5.5386782757933455"><ele>1285.0</ele><time>2026-04-24T18:01:32.998Z</time></trkpt><trkpt lat="31.511110532085016" lon="-5.53870501955901"><ele>1285.0</ele><time>2026-04-24T18:01:33.998Z</time></trkpt><trkpt lat="31.511192723085696" lon="-5.5387329682006365"><ele>1285.3333333333333</ele><time>2026-04-24T18:01:34.998Z</time></trkpt><trkpt lat="31.511269747066113" lon="-5.538765998913677"><ele>1285.6666666666665</ele><time>2026-04-24T18:01:35.998Z</time></trkpt><trkpt lat="31.511346762692092" lon="-5.538799477552338"><ele>1286.0</ele><time>2026-04-24T18:01:36.998Z</time></trkpt><trkpt lat="31.51142130121599" lon="-5.538833513401623"><ele>1286.3333333333333</ele><time>2026-04-24T18:01:37.998Z</time></trkpt><trkpt lat="31.511503819490265" lon="-5.538848346353984"><ele>1286.6666666666667</ele><time>2026-04-24T18:01:38.998Z</time></trkpt><trkpt lat="31.51158652469899" lon="-5.538879519510387"><ele>1287.0</ele><time>2026-04-24T18:01:39.998Z</time></trkpt><trkpt lat="31.511670520329826" lon="-5.538936022946436"><ele>1287.0</ele><time>2026-04-24T18:01:40.998Z</time></trkpt><trkpt lat="31.51176598962898" lon="-5.538975749849513"><ele>1287.0</ele><time>2026-04-24T18:01:41.998Z</time></trkpt><trkpt lat="31.511862764942123" lon="-5.5390139743820725"><ele>1287.0</ele><time>2026-04-24T18:01:42.998Z</time></trkpt><trkpt lat="31.51196354443167" lon="-5.539053729034586"><ele>1287.0</ele><time>2026-04-24T18:01:43.998Z</time></trkpt><trkpt lat="31.512073095166553" lon="-5.539071658111272"><ele>1287.0</ele><time>2026-04-24T18:01:44.998Z</time></trkpt><trkpt lat="31.51218102078323" lon="-5.539107780988181"><ele>1287.6</ele><time>2026-04-24T18:01:46Z</time></trkpt><trkpt lat="31.512289504183396" lon="-5.539144090559195"><ele>1288.1999999999998</ele><time>2026-04-24T18:01:47Z</time></trkpt><trkpt lat="31.51239445365176" lon="-5.53917865366874"><ele>1288.8</ele><time>2026-04-24T18:01:48Z</time></trkpt><trkpt lat="31.512482913215518" lon="-5.539207672601068"><ele>1289.4</ele><time>2026-04-24T18:01:49Z</time></trkpt><trkpt lat="31.512571029664223" lon="-5.539235755576202"><ele>1290.0</ele><time>2026-04-24T18:01:50Z</time></trkpt><trkpt lat="31.512664907822003" lon="-5.539264654971819"><ele>1290.0</ele><time>2026-04-24T18:01:51Z</time></trkpt><trkpt lat="31.512758036409668" lon="-5.539291340743564"><ele>1290.0</ele><time>2026-04-24T18:01:52Z</time></trkpt><trkpt lat="31.512856110945915" lon="-5.539325185658932"><ele>1290.0</ele><time>2026-04-24T18:01:53Z</time></trkpt><trkpt lat="31.512960473232052" lon="-5.539331213552368"><ele>1290.0</ele><time>2026-04-24T18:01:54Z</time></trkpt><trkpt lat="31.51306866467805" lon="-5.539333738146449"><ele>1290.0</ele><time>2026-04-24T18:01:55Z</time></trkpt><trkpt lat="31.513174159176153" lon="-5.539306288697892"><ele>1290.8</ele><time>2026-04-24T18:01:56Z</time></trkpt><trkpt lat="31.513281317713297" lon="-5.539291594998198"><ele>1291.6</ele><time>2026-04-24T18:01:57Z</time></trkpt><trkpt lat="31.51338956334324" lon="-5.539289593340546"><ele>1292.4</ele><time>2026-04-24T18:01:58Z</time></trkpt><trkpt lat="31.51348618848468" lon="-5.539219630797762"><ele>1293.2</ele><time>2026-04-24T18:01:59Z</time></trkpt><trkpt lat="31.513594064320426" lon="-5.5391827555317565"><ele>1294.0</ele><time>2026-04-24T18:02:00Z</time></trkpt><trkpt lat="31.51370268497127" lon="-5.539156636776133"><ele>1294.5</ele><time>2026-04-24T18:02:01Z</time></trkpt><trkpt lat="31.513795524" lon="-5.539080760473273"><ele>1295.0</ele><time>2026-04-24T18:02:02Z</time></trkpt><trkpt lat="31.513900148820742" lon="-5.539037156443589"><ele>1295.5</ele><time>2026-04-24T18:02:03Z</time></trkpt><trkpt lat="31.51399586905026" lon="-5.5389650704012725"><ele>1296.0</ele><time>2026-04-24T18:02:04Z</time></trkpt><trkpt lat="31.514086874011948" lon="-5.538887894511919"><ele>1296.0</ele><time>2026-04-24T18:02:04.999Z</time></trkpt><trkpt lat="31.51417803695005" lon="-5.538810518923676"><ele>1296.0</ele><time>2026-04-24T18:02:05.999Z</time></trkpt><trkpt lat="31.514265408039453" lon="-5.53873493439114"><ele>1296.0</ele><time>2026-04-24T18:02:06.999Z</time></trkpt><trkpt lat="31.514351251799198" lon="-5.538660020070856"><ele>1296.0</ele><time>2026-04-24T18:02:07.999Z</time></trkpt><trkpt lat="31.514431695760422" lon="-5.538589101884508"><ele>1296.0</ele><time>2026-04-24T18:02:08.999Z</time></trkpt><trkpt lat="31.514506349633876" lon="-5.538528845573704"><ele>1295.8</ele><time>2026-04-24T18:02:09.999Z</time></trkpt><trkpt lat="31.514569323640796" lon="-5.538474376422046"><ele>1295.6</ele><time>2026-04-24T18:02:10.999Z</time></trkpt><trkpt lat="31.514621535952223" lon="-5.538429507230199"><ele>1295.4</ele><time>2026-04-24T18:02:11.999Z</time></trkpt><trkpt lat="31.514710466210726" lon="-5.538349444806205"><ele>1295.2</ele><time>2026-04-24T18:02:13.999Z</time></trkpt><trkpt lat="31.51481218490809" lon="-5.538257571270501"><ele>1295.0</ele><time>2026-04-24T18:02:15.999Z</time></trkpt><trkpt lat="31.51487077163165" lon="-5.538208468724934"><ele>1295.0</ele><time>2026-04-24T18:02:16.999Z</time></trkpt><trkpt lat="31.51493450603413" lon="-5.538156223512958"><ele>1295.0</ele><time>2026-04-24T18:02:17.999Z</time></trkpt><trkpt lat="31.515000370474507" lon="-5.5380994572501665"><ele>1295.0</ele><time>2026-04-24T18:02:18.999Z</time></trkpt><trkpt lat="31.515071524406498" lon="-5.538038863313272"><ele>1295.0</ele><time>2026-04-24T18:02:19.999Z</time></trkpt><trkpt lat="31.515144598163523" lon="-5.537971804400815"><ele>1295.0</ele><time>2026-04-24T18:02:20.999Z</time></trkpt><trkpt lat="31.515223637522457" lon="-5.537902457340075"><ele>1295.0</ele><time>2026-04-24T18:02:21.999Z</time></trkpt><trkpt lat="31.515305433358936" lon="-5.537831320606831"><ele>1294.8</ele><time>2026-04-24T18:02:22.999Z</time></trkpt><trkpt lat="31.51539034318265" lon="-5.537757336625685"><ele>1294.6</ele><time>2026-04-24T18:02:23.999Z</time></trkpt><trkpt lat="31.51547744955511" lon="-5.537680319062604"><ele>1294.4</ele><time>2026-04-24T18:02:24.999Z</time></trkpt><trkpt lat="31.515566659810215" lon="-5.537603908234908"><ele>1294.2</ele><time>2026-04-24T18:02:25.999Z</time></trkpt><trkpt lat="31.515657983193318" lon="-5.537526667711947"><ele>1294.0</ele><time>2026-04-24T18:02:26.999Z</time></trkpt><trkpt lat="31.515752513857375" lon="-5.537446507407453"><ele>1294.5</ele><time>2026-04-24T18:02:27.999Z</time></trkpt><trkpt lat="31.51584784116229" lon="-5.537361922774614"><ele>1295.0</ele><time>2026-04-24T18:02:28.999Z</time></trkpt><trkpt lat="31.515944441956684" lon="-5.537279450183538"><ele>1295.5</ele><time>2026-04-24T18:02:29.999Z</time></trkpt><trkpt lat="31.516039098325244" lon="-5.537197900580955"><ele>1296.0</ele><time>2026-04-24T18:02:30.999Z</time></trkpt><trkpt lat="31.51613375741773" lon="-5.53711503196536"><ele>1296.0</ele><time>2026-04-24T18:02:31.999Z</time></trkpt><trkpt lat="31.516229667278264" lon="-5.537031897850457"><ele>1296.0</ele><time>2026-04-24T18:02:32.999Z</time></trkpt><trkpt lat="31.516326144789534" lon="-5.536947514833642"><ele>1296.0</ele><time>2026-04-24T18:02:33.999Z</time></trkpt><trkpt lat="31.516421618104875" lon="-5.536863471438384"><ele>1296.0</ele><time>2026-04-24T18:02:34.999Z</time></trkpt><trkpt lat="31.51651675982017" lon="-5.536781900526466"><ele>1296.6</ele><time>2026-04-24T18:02:35.999Z</time></trkpt><trkpt lat="31.51660865550816" lon="-5.536702467254262"><ele>1297.1999999999998</ele><time>2026-04-24T18:02:36.999Z</time></trkpt><trkpt lat="31.516694573440407" lon="-5.536626110212214"><ele>1297.8000000000002</ele><time>2026-04-24T18:02:37.999Z</time></trkpt><trkpt lat="31.516782118318634" lon="-5.536552460903313"><ele>1298.4</ele><time>2026-04-24T18:02:38.999Z</time></trkpt><trkpt lat="31.516869098663648" lon="-5.5364798637177985"><ele>1299.0</ele><time>2026-04-24T18:02:39.999Z</time></trkpt><trkpt lat="31.516956978245588" lon="-5.536403824072335"><ele>1299.0</ele><time>2026-04-24T18:02:40.999Z</time></trkpt><trkpt lat="31.51703868684093" lon="-5.5363116077436265"><ele>1299.0</ele><time>2026-04-24T18:02:41.999Z</time></trkpt><trkpt lat="31.51712373804911" lon="-5.536236567359604"><ele>1299.0</ele><time>2026-04-24T18:02:42.999Z</time></trkpt><trkpt lat="31.517203458357294" lon="-5.536165880939012"><ele>1299.0</ele><time>2026-04-24T18:02:43.999Z</time></trkpt><trkpt lat="31.517281186302046" lon="-5.5360970366998155"><ele>1299.0</ele><time>2026-04-24T18:02:44.999Z</time></trkpt><trkpt lat="31.517359486487475" lon="-5.536028385338814"><ele>1299.0</ele><time>2026-04-24T18:02:45.999Z</time></trkpt><trkpt lat="31.517436476517407" lon="-5.535961787006976"><ele>1299.0</ele><time>2026-04-24T18:02:46.999Z</time></trkpt><trkpt lat="31.517514496086573" lon="-5.535893570991821"><ele>1299.0</ele><time>2026-04-24T18:02:47.999Z</time></trkpt><trkpt lat="31.51759352899404" lon="-5.535824124916642"><ele>1299.0</ele><time>2026-04-24T18:02:48.999Z</time></trkpt><trkpt lat="31.517675042489934" lon="-5.535752499149615"><ele>1299.0</ele><time>2026-04-24T18:02:49.999Z</time></trkpt><trkpt lat="31.51775746193988" lon="-5.535680076811085"><ele>1299.0</ele><time>2026-04-24T18:02:50.999Z</time></trkpt><trkpt lat="31.51785223576353" lon="-5.535627652953963"><ele>1299.0</ele><time>2026-04-24T18:02:51.999Z</time></trkpt><trkpt lat="31.51792944621579" lon="-5.5355612643054215"><ele>1299.0</ele><time>2026-04-24T18:02:52.999Z</time></trkpt><trkpt lat="31.518003027502964" lon="-5.535500994041036"><ele>1299.0</ele><time>2026-04-24T18:02:53.999Z</time></trkpt><trkpt lat="31.51807408879749" lon="-5.535441326764962"><ele>1299.0</ele><time>2026-04-24T18:02:54.999Z</time></trkpt><trkpt lat="31.518147122727523" lon="-5.5353785220166705"><ele>1298.8333333333333</ele><time>2026-04-24T18:02:55.999Z</time></trkpt><trkpt lat="31.518218717584414" lon="-5.535316276079419"><ele>1298.6666666666667</ele><time>2026-04-24T18:02:56.999Z</time></trkpt><trkpt lat="31.518282620369455" lon="-5.535261049011863"><ele>1298.5</ele><time>2026-04-24T18:02:57.999Z</time></trkpt><trkpt lat="31.518342315231628" lon="-5.5352141153546075"><ele>1298.3333333333335</ele><time>2026-04-24T18:02:58.999Z</time></trkpt><trkpt lat="31.518396345823376" lon="-5.535170557107167"><ele>1298.1666666666667</ele><time>2026-04-24T18:02:59.999Z</time></trkpt><trkpt lat="31.518487665184107" lon="-5.535093839535697"><ele>1298.0</ele><time>2026-04-24T18:03:01.999Z</time></trkpt><trkpt lat="31.518547531039886" lon="-5.535027208780426"><ele>1298.0</ele><time>2026-04-24T18:03:03.999Z</time></trkpt><trkpt lat="31.51859126234556" lon="-5.534953345049872"><ele>1298.0</ele><time>2026-04-24T18:03:05.999Z</time></trkpt><trkpt lat="31.51865006880588" lon="-5.534895840183093"><ele>1298.0</ele><time>2026-04-24T18:03:07.999Z</time></trkpt><trkpt lat="31.518719557558928" lon="-5.5348468565332505"><ele>1298.0</ele><time>2026-04-24T18:03:12.999Z</time></trkpt><trkpt lat="31.51881296052214" lon="-5.534763209115457"><ele>1298.0</ele><time>2026-04-24T18:03:14.999Z</time></trkpt><trkpt lat="31.51888174200192" lon="-5.534710540850544"><ele>1298.0</ele><time>2026-04-24T18:03:15.999Z</time></trkpt><trkpt lat="31.518960815177234" lon="-5.534651797686457"><ele>1298.0</ele><time>2026-04-24T18:03:16.999Z</time></trkpt><trkpt lat="31.519043177462432" lon="-5.53458167935632"><ele>1298.0</ele><time>2026-04-24T18:03:17.999Z</time></trkpt><trkpt lat="31.519124335758494" lon="-5.534512298616948"><ele>1298.0</ele><time>2026-04-24T18:03:18.999Z</time></trkpt><trkpt lat="31.519209272405668" lon="-5.534439644607513"><ele>1298.0</ele><time>2026-04-24T18:03:19.999Z</time></trkpt><trkpt lat="31.519297982874033" lon="-5.534363820396881"><ele>1298.0</ele><time>2026-04-24T18:03:20.999Z</time></trkpt><trkpt lat="31.51938860506444" lon="-5.534288443392108"><ele>1298.2</ele><time>2026-04-24T18:03:21.999Z</time></trkpt><trkpt lat="31.51947946952774" lon="-5.534213295818961"><ele>1298.4</ele><time>2026-04-24T18:03:22.999Z</time></trkpt><trkpt lat="31.519562776892307" lon="-5.534144278211063"><ele>1298.6000000000001</ele><time>2026-04-24T18:03:23.999Z</time></trkpt><trkpt lat="31.519647249252642" lon="-5.5340734546267365"><ele>1298.8000000000002</ele><time>2026-04-24T18:03:24.999Z</time></trkpt><trkpt lat="31.51973333467665" lon="-5.534004069226508"><ele>1299.0</ele><time>2026-04-24T18:03:25.999Z</time></trkpt><trkpt lat="31.519818845223284" lon="-5.53393312147973"><ele>1299.0</ele><time>2026-04-24T18:03:26.999Z</time></trkpt><trkpt lat="31.51990143122458" lon="-5.533863286801611"><ele>1299.0</ele><time>2026-04-24T18:03:27.999Z</time></trkpt><trkpt lat="31.519981038741623" lon="-5.533793037202045"><ele>1299.0</ele><time>2026-04-24T18:03:28.999Z</time></trkpt><trkpt lat="31.520054334924573" lon="-5.5337260809692514"><ele>1299.0</ele><time>2026-04-24T18:03:29.999Z</time></trkpt><trkpt lat="31.520121133428944" lon="-5.533662857409793"><ele>1299.0</ele><time>2026-04-24T18:03:30.999Z</time></trkpt><trkpt lat="31.520181225174642" lon="-5.533600928411102"><ele>1299.5</ele><time>2026-04-24T18:03:31.999Z</time></trkpt><trkpt lat="31.52023621882578" lon="-5.533539678284217"><ele>1300.0</ele><time>2026-04-24T18:03:32.998Z</time></trkpt><trkpt lat="31.520284050779765" lon="-5.533469744540252"><ele>1300.5</ele><time>2026-04-24T18:03:33.998Z</time></trkpt><trkpt lat="31.520324301235902" lon="-5.533389954130148"><ele>1301.0</ele><time>2026-04-24T18:03:34.998Z</time></trkpt><trkpt lat="31.52036371333125" lon="-5.533304590329694"><ele>1301.5</ele><time>2026-04-24T18:03:35.998Z</time></trkpt><trkpt lat="31.52041496330111" lon="-5.533225869169096"><ele>1302.0</ele><time>2026-04-24T18:03:36.998Z</time></trkpt><trkpt lat="31.52047600387579" lon="-5.533150187524084"><ele>1302.0</ele><time>2026-04-24T18:03:37.998Z</time></trkpt><trkpt lat="31.52053868626472" lon="-5.533077393306221"><ele>1302.0</ele><time>2026-04-24T18:03:38.998Z</time></trkpt><trkpt lat="31.52059826364059" lon="-5.532996559847334"><ele>1302.0</ele><time>2026-04-24T18:03:39.998Z</time></trkpt><trkpt lat="31.52065222483581" lon="-5.532913675449331"><ele>1302.0</ele><time>2026-04-24T18:03:40.998Z</time></trkpt><trkpt lat="31.520703050021613" lon="-5.5328245529079645"><ele>1302.0</ele><time>2026-04-24T18:03:41.998Z</time></trkpt><trkpt lat="31.520755528814796" lon="-5.532734572160203"><ele>1301.1999999999998</ele><time>2026-04-24T18:03:42.998Z</time></trkpt><trkpt lat="31.520810640874625" lon="-5.532639763287141"><ele>1300.4</ele><time>2026-04-24T18:03:43.998Z</time></trkpt><trkpt lat="31.520868724266972" lon="-5.532543384329516"><ele>1299.6</ele><time>2026-04-24T18:03:44.998Z</time></trkpt><trkpt lat="31.520926375510143" lon="-5.532446308211592"><ele>1298.8000000000002</ele><time>2026-04-24T18:03:45.998Z</time></trkpt><trkpt lat="31.520983877595082" lon="-5.53234716988229"><ele>1298.0</ele><time>2026-04-24T18:03:46.998Z</time></trkpt><trkpt lat="31.521040355516025" lon="-5.53224534123897"><ele>1298.0</ele><time>2026-04-24T18:03:47.998Z</time></trkpt><trkpt lat="31.521095025925977" lon="-5.532147297100364"><ele>1298.0</ele><time>2026-04-24T18:03:48.998Z</time></trkpt><trkpt lat="31.521147894970582" lon="-5.532054135326119"><ele>1298.0</ele><time>2026-04-24T18:03:49.998Z</time></trkpt><trkpt lat="31.52119698091132" lon="-5.531968984765659"><ele>1298.0</ele><time>2026-04-24T18:03:50.998Z</time></trkpt><trkpt lat="31.5212429690711" lon="-5.531887951891325"><ele>1298.0</ele><time>2026-04-24T18:03:52Z</time></trkpt><trkpt lat="31.521287937330644" lon="-5.5318115304546325"><ele>1298.0</ele><time>2026-04-24T18:03:53Z</time></trkpt><trkpt lat="31.52133615781115" lon="-5.531731011453939"><ele>1298.4</ele><time>2026-04-24T18:03:54Z</time></trkpt><trkpt lat="31.52138726467937" lon="-5.531642052945958"><ele>1298.8000000000002</ele><time>2026-04-24T18:03:55Z</time></trkpt><trkpt lat="31.52143579988511" lon="-5.53154838211605"><ele>1299.2</ele><time>2026-04-24T18:03:56Z</time></trkpt><trkpt lat="31.521484815817995" lon="-5.531453285049912"><ele>1299.6</ele><time>2026-04-24T18:03:57Z</time></trkpt><trkpt lat="31.521538175385572" lon="-5.53135785595994"><ele>1300.0</ele><time>2026-04-24T18:03:58Z</time></trkpt><trkpt lat="31.521594057565856" lon="-5.531261130721759"><ele>1299.5</ele><time>2026-04-24T18:03:59Z</time></trkpt><trkpt lat="31.52164876197038" lon="-5.531168071957114"><ele>1299.0</ele><time>2026-04-24T18:04:00Z</time></trkpt><trkpt lat="31.521697411548317" lon="-5.531087074306338"><ele>1298.5</ele><time>2026-04-24T18:04:01Z</time></trkpt><trkpt lat="31.521747143298644" lon="-5.531007696568512"><ele>1298.0</ele><time>2026-04-24T18:04:02Z</time></trkpt><trkpt lat="31.52178782650597" lon="-5.530941521263167"><ele>1297.5</ele><time>2026-04-24T18:04:03Z</time></trkpt><trkpt lat="31.521827102270883" lon="-5.5308818126978565"><ele>1297.0</ele><time>2026-04-24T18:04:04Z</time></trkpt><trkpt lat="31.52186907792563" lon="-5.5308156183581625"><ele>1297.0</ele><time>2026-04-24T18:04:05Z</time></trkpt><trkpt lat="31.521919179709073" lon="-5.530743649502911"><ele>1297.0</ele><time>2026-04-24T18:04:06Z</time></trkpt><trkpt lat="31.521982041954548" lon="-5.5306728197055275"><ele>1297.0</ele><time>2026-04-24T18:04:07Z</time></trkpt><trkpt lat="31.522056168606515" lon="-5.53059137019109"><ele>1297.0</ele><time>2026-04-24T18:04:08Z</time></trkpt><trkpt lat="31.52213605309257" lon="-5.530505056550681"><ele>1297.0</ele><time>2026-04-24T18:04:09Z</time></trkpt><trkpt lat="31.522221738747717" lon="-5.530412438720681"><ele>1297.1999999999998</ele><time>2026-04-24T18:04:10Z</time></trkpt><trkpt lat="31.522309512352532" lon="-5.5303160818492305"><ele>1297.4</ele><time>2026-04-24T18:04:11Z</time></trkpt><trkpt lat="31.522395503972486" lon="-5.530227660132436"><ele>1297.6</ele><time>2026-04-24T18:04:12Z</time></trkpt><trkpt lat="31.522473112391825" lon="-5.530145165366465"><ele>1297.8000000000002</ele><time>2026-04-24T18:04:12.999Z</time></trkpt><trkpt lat="31.522540498268715" lon="-5.530069711706512"><ele>1298.0</ele><time>2026-04-24T18:04:13.999Z</time></trkpt><trkpt lat="31.522593559179796" lon="-5.5300008228187965"><ele>1298.0</ele><time>2026-04-24T18:04:14.999Z</time></trkpt><trkpt lat="31.522637115241896" lon="-5.529940042750891"><ele>1298.0</ele><time>2026-04-24T18:04:15.999Z</time></trkpt><trkpt lat="31.52268446915118" lon="-5.529874284559186"><ele>1298.0</ele><time>2026-04-24T18:04:17.999Z</time></trkpt><trkpt lat="31.52274406498605" lon="-5.529810328348188"><ele>1298.0</ele><time>2026-04-24T18:04:38.999Z</time></trkpt><trkpt lat="31.522847894912204" lon="-5.529710996700785"><ele>1298.0</ele><time>2026-04-24T18:04:40.999Z</time></trkpt><trkpt lat="31.52291109355051" lon="-5.529647652105701"><ele>1298.0</ele><time>2026-04-24T18:04:41.999Z</time></trkpt><trkpt lat="31.52297652087289" lon="-5.529580015024408"><ele>1296.8333333333335</ele><time>2026-04-24T18:04:42.999Z</time></trkpt><trkpt lat="31.52304488459675" lon="-5.529508634748428"><ele>1295.6666666666667</ele><time>2026-04-24T18:04:43.999Z</time></trkpt><trkpt lat="31.523114222203475" lon="-5.529437793694593"><ele>1294.5</ele><time>2026-04-24T18:04:44.999Z</time></trkpt><trkpt lat="31.523176124855027" lon="-5.529374663867046"><ele>1293.3333333333333</ele><time>2026-04-24T18:04:45.999Z</time></trkpt><trkpt lat="31.52323892824964" lon="-5.529311510060027"><ele>1292.1666666666665</ele><time>2026-04-24T18:04:46.999Z</time></trkpt><trkpt lat="31.52331074964892" lon="-5.52924849970753"><ele>1291.0</ele><time>2026-04-24T18:04:47.999Z</time></trkpt><trkpt lat="31.523394927915604" lon="-5.529204021047297"><ele>1291.0</ele><time>2026-04-24T18:04:48.999Z</time></trkpt><trkpt lat="31.52349036035957" lon="-5.529188257080517"><ele>1291.0</ele><time>2026-04-24T18:04:49.999Z</time></trkpt><trkpt lat="31.52359067643448" lon="-5.529161759884449"><ele>1291.0</ele><time>2026-04-24T18:04:50.999Z</time></trkpt><trkpt lat="31.52370641994984" lon="-5.529176406229522"><ele>1291.0</ele><time>2026-04-24T18:04:51.999Z</time></trkpt><trkpt lat="31.52382419966351" lon="-5.5291960545302485"><ele>1291.0</ele><time>2026-04-24T18:04:52.999Z</time></trkpt><trkpt lat="31.523943277532243" lon="-5.529217449217787"><ele>1290.0</ele><time>2026-04-24T18:04:53.999Z</time></trkpt><trkpt lat="31.524057041354517" lon="-5.529256087518703"><ele>1289.0</ele><time>2026-04-24T18:04:54.999Z</time></trkpt><trkpt lat="31.524170265825123" lon="-5.529270169951347"><ele>1288.0</ele><time>2026-04-24T18:04:55.999Z</time></trkpt><trkpt lat="31.524286812408306" lon="-5.529284058870801"><ele>1287.0</ele><time>2026-04-24T18:04:56.999Z</time></trkpt><trkpt lat="31.52439967887911" lon="-5.529252635938112"><ele>1287.0</ele><time>2026-04-24T18:04:57.999Z</time></trkpt><trkpt lat="31.524509609764298" lon="-5.529227405976108"><ele>1287.0</ele><time>2026-04-24T18:04:58.999Z</time></trkpt><trkpt lat="31.52461467644711" lon="-5.529196914242882"><ele>1287.0</ele><time>2026-04-24T18:04:59.999Z</time></trkpt><trkpt lat="31.524715432476874" lon="-5.529168343859731"><ele>1287.0</ele><time>2026-04-24T18:05:00.999Z</time></trkpt><trkpt lat="31.524820252228864" lon="-5.529189776201499"><ele>1287.0</ele><time>2026-04-24T18:05:01.999Z</time></trkpt><trkpt lat="31.524917750290065" lon="-5.529202898782834"><ele>1286.6</ele><time>2026-04-24T18:05:02.999Z</time></trkpt><trkpt lat="31.525009310027304" lon="-5.5292443776314775"><ele>1286.1999999999998</ele><time>2026-04-24T18:05:03.999Z</time></trkpt><trkpt lat="31.525095872539357" lon="-5.529298900258084"><ele>1285.8</ele><time>2026-04-24T18:05:04.999Z</time></trkpt><trkpt lat="31.52517857033409" lon="-5.529355824730337"><ele>1285.4</ele><time>2026-04-24T18:05:05.999Z</time></trkpt><trkpt lat="31.525260107153525" lon="-5.529415040578377"><ele>1285.0</ele><time>2026-04-24T18:05:06.999Z</time></trkpt><trkpt lat="31.525340887144853" lon="-5.529473448204536"><ele>1284.8333333333333</ele><time>2026-04-24T18:05:07.999Z</time></trkpt><trkpt lat="31.525419877723856" lon="-5.529533865049259"><ele>1284.6666666666665</ele><time>2026-04-24T18:05:08.999Z</time></trkpt><trkpt lat="31.52549570840234" lon="-5.529592965204323"><ele>1284.5</ele><time>2026-04-24T18:05:09.999Z</time></trkpt><trkpt lat="31.52556295672815" lon="-5.529645207834802"><ele>1284.3333333333333</ele><time>2026-04-24T18:05:10.999Z</time></trkpt><trkpt lat="31.52561679085843" lon="-5.529688374838536"><ele>1284.1666666666667</ele><time>2026-04-24T18:05:11.999Z</time></trkpt><trkpt lat="31.525678374325466" lon="-5.529741096237693"><ele>1284.0</ele><time>2026-04-24T18:05:13.999Z</time></trkpt><trkpt lat="31.525746938907385" lon="-5.529797284072434"><ele>1284.0</ele><time>2026-04-24T18:05:37.999Z</time></trkpt><trkpt lat="31.525817243435924" lon="-5.529877108177753"><ele>1284.0</ele><time>2026-04-24T18:05:39.999Z</time></trkpt><trkpt lat="31.525866834962486" lon="-5.529929977786492"><ele>1284.0</ele><time>2026-04-24T18:05:40.998Z</time></trkpt><trkpt lat="31.525915281153104" lon="-5.529995098965477"><ele>1284.0</ele><time>2026-04-24T18:05:41.998Z</time></trkpt><trkpt lat="31.525969549000113" lon="-5.530072113879561"><ele>1284.0</ele><time>2026-04-24T18:05:42.998Z</time></trkpt><trkpt lat="31.52601979232078" lon="-5.530161184334264"><ele>1284.0</ele><time>2026-04-24T18:05:43.998Z</time></trkpt><trkpt lat="31.526054796897306" lon="-5.5302668887492725"><ele>1284.0</ele><time>2026-04-24T18:05:44.998Z</time></trkpt><trkpt lat="31.52611547157076" lon="-5.530367275328657"><ele>1284.0</ele><time>2026-04-24T18:05:45.998Z</time></trkpt><trkpt lat="31.526154867059148" lon="-5.530490392076019"><ele>1284.0</ele><time>2026-04-24T18:05:46.998Z</time></trkpt><trkpt lat="31.526198405226154" lon="-5.530616500799625"><ele>1284.0</ele><time>2026-04-24T18:05:47.998Z</time></trkpt><trkpt lat="31.526243637411753" lon="-5.530748649695955"><ele>1283.75</ele><time>2026-04-24T18:05:48.998Z</time></trkpt><trkpt lat="31.52628768850626" lon="-5.530886418152787"><ele>1283.5</ele><time>2026-04-24T18:05:49.998Z</time></trkpt><trkpt lat="31.526325748882474" lon="-5.531027146601532"><ele>1283.25</ele><time>2026-04-24T18:05:50.998Z</time></trkpt><trkpt lat="31.526350371400156" lon="-5.531175926593318"><ele>1283.0</ele><time>2026-04-24T18:05:51.998Z</time></trkpt><trkpt lat="31.526361971357236" lon="-5.531332234288386"><ele>1283.5</ele><time>2026-04-24T18:05:52.998Z</time></trkpt><trkpt lat="31.52635935756679" lon="-5.531494983313095"><ele>1284.0</ele><time>2026-04-24T18:05:53.998Z</time></trkpt><trkpt lat="31.526352669252596" lon="-5.531660198007468"><ele>1284.5</ele><time>2026-04-24T18:05:54.998Z</time></trkpt><trkpt lat="31.52634484995044" lon="-5.531825971329244"><ele>1285.0</ele><time>2026-04-24T18:05:55.998Z</time></trkpt><trkpt lat="31.526326893960082" lon="-5.531993825551466"><ele>1285.0</ele><time>2026-04-24T18:05:56.998Z</time></trkpt><trkpt lat="31.52629247962422" lon="-5.532159382035238"><ele>1285.0</ele><time>2026-04-24T18:05:58Z</time></trkpt><trkpt lat="31.52624202893047" lon="-5.532314057879928"><ele>1285.0</ele><time>2026-04-24T18:05:59Z</time></trkpt><trkpt lat="31.52617823738991" lon="-5.532454817055093"><ele>1285.0</ele><time>2026-04-24T18:06:00Z</time></trkpt><trkpt lat="31.526107701591197" lon="-5.532585104427907"><ele>1285.75</ele><time>2026-04-24T18:06:01Z</time></trkpt><trkpt lat="31.526017723257638" lon="-5.532688008150894"><ele>1286.5</ele><time>2026-04-24T18:06:02Z</time></trkpt><trkpt lat="31.525919508678378" lon="-5.532793622232658"><ele>1287.25</ele><time>2026-04-24T18:06:03Z</time></trkpt><trkpt lat="31.52586255890735" lon="-5.532915017676216"><ele>1288.0</ele><time>2026-04-24T18:06:04Z</time></trkpt><trkpt lat="31.525804208234792" lon="-5.53303939920015"><ele>1288.0</ele><time>2026-04-24T18:06:05Z</time></trkpt><trkpt lat="31.52575107942202" lon="-5.533177450714483"><ele>1288.0</ele><time>2026-04-24T18:06:06Z</time></trkpt><trkpt lat="31.525717466735212" lon="-5.533324641441792"><ele>1288.0</ele><time>2026-04-24T18:06:07Z</time></trkpt><trkpt lat="31.52566098822863" lon="-5.5334690712072625"><ele>1288.0</ele><time>2026-04-24T18:06:08Z</time></trkpt><trkpt lat="31.525619470929353" lon="-5.533624902322274"><ele>1287.5</ele><time>2026-04-24T18:06:09Z</time></trkpt><trkpt lat="31.525592257689702" lon="-5.533779159816387"><ele>1287.0</ele><time>2026-04-24T18:06:10Z</time></trkpt><trkpt lat="31.5255472327748" lon="-5.533949249701098"><ele>1286.5</ele><time>2026-04-24T18:06:11Z</time></trkpt><trkpt lat="31.525503464134758" lon="-5.53411125791726"><ele>1286.0</ele><time>2026-04-24T18:06:12Z</time></trkpt><trkpt lat="31.525453585683344" lon="-5.534274495875403"><ele>1286.0</ele><time>2026-04-24T18:06:13Z</time></trkpt><trkpt lat="31.5253964087574" lon="-5.534436261065643"><ele>1286.0</ele><time>2026-04-24T18:06:14Z</time></trkpt><trkpt lat="31.525333673017613" lon="-5.5345966953196255"><ele>1286.0</ele><time>2026-04-24T18:06:15Z</time></trkpt><trkpt lat="31.525266148391477" lon="-5.53475325291505"><ele>1286.0</ele><time>2026-04-24T18:06:16Z</time></trkpt><trkpt lat="31.52519776005038" lon="-5.534905833030813"><ele>1286.25</ele><time>2026-04-24T18:06:17Z</time></trkpt><trkpt lat="31.52513300450034" lon="-5.535052615829408"><ele>1286.5</ele><time>2026-04-24T18:06:18Z</time></trkpt><trkpt lat="31.525085862482925" lon="-5.5352018342227405"><ele>1286.75</ele><time>2026-04-24T18:06:19Z</time></trkpt><trkpt lat="31.52507139156623" lon="-5.535355857347445"><ele>1287.0</ele><time>2026-04-24T18:06:20Z</time></trkpt><trkpt lat="31.5250966659258" lon="-5.535512804614731"><ele>1287.0</ele><time>2026-04-24T18:06:21Z</time></trkpt><trkpt lat="31.525148590573146" lon="-5.535665638412121"><ele>1287.0</ele><time>2026-04-24T18:06:22Z</time></trkpt><trkpt lat="31.525204609052096" lon="-5.535822945890247"><ele>1287.0</ele><time>2026-04-24T18:06:22.999Z</time></trkpt><trkpt lat="31.52525923967705" lon="-5.535990367582375"><ele>1287.0</ele><time>2026-04-24T18:06:23.999Z</time></trkpt><trkpt lat="31.525315848201796" lon="-5.5361610756024"><ele>1287.0</ele><time>2026-04-24T18:06:24.999Z</time></trkpt><trkpt lat="31.525373998976466" lon="-5.53633217818379"><ele>1287.0</ele><time>2026-04-24T18:06:25.999Z</time></trkpt><trkpt lat="31.52543351850714" lon="-5.536504224703999"><ele>1287.0</ele><time>2026-04-24T18:06:26.999Z</time></trkpt><trkpt lat="31.525491867289247" lon="-5.53667550605549"><ele>1287.0</ele><time>2026-04-24T18:06:27.999Z</time></trkpt><trkpt lat="31.52554771256949" lon="-5.536841950005235"><ele>1287.0</ele><time>2026-04-24T18:06:28.999Z</time></trkpt><trkpt lat="31.5256031180322" lon="-5.537010393413782"><ele>1287.0</ele><time>2026-04-24T18:06:29.999Z</time></trkpt><trkpt lat="31.525658391527635" lon="-5.537177759345709"><ele>1288.3333333333333</ele><time>2026-04-24T18:06:30.999Z</time></trkpt><trkpt lat="31.52571391627912" lon="-5.537349032274606"><ele>1289.6666666666665</ele><time>2026-04-24T18:06:31.999Z</time></trkpt><trkpt lat="31.525766608018724" lon="-5.537519651233657"><ele>1291.0</ele><time>2026-04-24T18:06:32.999Z</time></trkpt><trkpt lat="31.525810977528266" lon="-5.537686892140094"><ele>1291.0</ele><time>2026-04-24T18:06:33.999Z</time></trkpt><trkpt lat="31.525838613712324" lon="-5.537853731050016"><ele>1291.0</ele><time>2026-04-24T18:06:34.999Z</time></trkpt><trkpt lat="31.525833398682348" lon="-5.538024497093176"><ele>1291.0</ele><time>2026-04-24T18:06:35.999Z</time></trkpt><trkpt lat="31.52581324234999" lon="-5.538198548206626"><ele>1291.0</ele><time>2026-04-24T18:06:36.999Z</time></trkpt><trkpt lat="31.525791840138332" lon="-5.5383754785811"><ele>1292.6666666666665</ele><time>2026-04-24T18:06:37.999Z</time></trkpt><trkpt lat="31.525773651547773" lon="-5.5385570275611595"><ele>1294.3333333333333</ele><time>2026-04-24T18:06:38.999Z</time></trkpt><trkpt lat="31.52575918084891" lon="-5.538738541407036"><ele>1296.0</ele><time>2026-04-24T18:06:39.999Z</time></trkpt><trkpt lat="31.52575778800746" lon="-5.53890787259685"><ele>1296.75</ele><time>2026-04-24T18:06:40.999Z</time></trkpt><trkpt lat="31.52576433852537" lon="-5.539053713782468"><ele>1297.5</ele><time>2026-04-24T18:06:41.999Z</time></trkpt><trkpt lat="31.525783038503608" lon="-5.539194698964669"><ele>1298.25</ele><time>2026-04-24T18:06:42.999Z</time></trkpt><trkpt lat="31.525813422444994" lon="-5.539338269487122"><ele>1299.0</ele><time>2026-04-24T18:06:43.999Z</time></trkpt><trkpt lat="31.525849229097552" lon="-5.539479877023116"><ele>1299.0</ele><time>2026-04-24T18:06:44.999Z</time></trkpt><trkpt lat="31.525893586854497" lon="-5.539624318696406"><ele>1299.0</ele><time>2026-04-24T18:06:45.999Z</time></trkpt><trkpt lat="31.525953052999938" lon="-5.539769994401397"><ele>1299.0</ele><time>2026-04-24T18:06:46.999Z</time></trkpt><trkpt lat="31.526023339541002" lon="-5.539915477670264"><ele>1299.0</ele><time>2026-04-24T18:06:47.999Z</time></trkpt><trkpt lat="31.526097299565993" lon="-5.540067099335571"><ele>1299.0</ele><time>2026-04-24T18:06:48.999Z</time></trkpt><trkpt lat="31.526170273500853" lon="-5.54022633296054"><ele>1299.0</ele><time>2026-04-24T18:06:49.999Z</time></trkpt><trkpt lat="31.526243305175765" lon="-5.5403902881508875"><ele>1299.0</ele><time>2026-04-24T18:06:50.999Z</time></trkpt><trkpt lat="31.526315044137473" lon="-5.5405548919760745"><ele>1301.6666666666667</ele><time>2026-04-24T18:06:51.999Z</time></trkpt><trkpt lat="31.52638767015745" lon="-5.540723921144186"><ele>1304.3333333333335</ele><time>2026-04-24T18:06:52.999Z</time></trkpt><trkpt lat="31.52645655451056" lon="-5.540894320771619"><ele>1307.0</ele><time>2026-04-24T18:06:53.999Z</time></trkpt><trkpt lat="31.526520549187715" lon="-5.541067913360159"><ele>1308.0</ele><time>2026-04-24T18:06:54.999Z</time></trkpt><trkpt lat="31.526576187242966" lon="-5.541241966638487"><ele>1309.0</ele><time>2026-04-24T18:06:55.999Z</time></trkpt><trkpt lat="31.526622818066645" lon="-5.54141739871805"><ele>1310.0</ele><time>2026-04-24T18:06:56.999Z</time></trkpt><trkpt lat="31.52666197285796" lon="-5.541596485388031"><ele>1310.0</ele><time>2026-04-24T18:06:57.999Z</time></trkpt><trkpt lat="31.52669551432577" lon="-5.541783974430987"><ele>1310.0</ele><time>2026-04-24T18:06:58.999Z</time></trkpt><trkpt lat="31.526727433880904" lon="-5.541972034181111"><ele>1310.0</ele><time>2026-04-24T18:06:59.999Z</time></trkpt><trkpt lat="31.52676082129086" lon="-5.542159695925321"><ele>1311.0</ele><time>2026-04-24T18:07:00.999Z</time></trkpt><trkpt lat="31.526793443416498" lon="-5.542346284625084"><ele>1312.0</ele><time>2026-04-24T18:07:01.999Z</time></trkpt><trkpt lat="31.52682771149876" lon="-5.54253009416683"><ele>1313.0</ele><time>2026-04-24T18:07:02.999Z</time></trkpt><trkpt lat="31.526863610746137" lon="-5.542713907421005"><ele>1313.3333333333335</ele><time>2026-04-24T18:07:03.999Z</time></trkpt><trkpt lat="31.526900181835344" lon="-5.542896795994446"><ele>1313.6666666666667</ele><time>2026-04-24T18:07:04.999Z</time></trkpt><trkpt lat="31.52693670511891" lon="-5.54308120125587"><ele>1314.0</ele><time>2026-04-24T18:07:05.999Z</time></trkpt><trkpt lat="31.526975363619815" lon="-5.54326990237717"><ele>1314.0</ele><time>2026-04-24T18:07:06.999Z</time></trkpt><trkpt lat="31.52702325598757" lon="-5.5434575549430845"><ele>1314.0</ele><time>2026-04-24T18:07:07.999Z</time></trkpt><trkpt lat="31.52707589135259" lon="-5.543641037657943"><ele>1314.0</ele><time>2026-04-24T18:07:08.999Z</time></trkpt><trkpt lat="31.527132910925662" lon="-5.543816280893011"><ele>1315.25</ele><time>2026-04-24T18:07:09.999Z</time></trkpt><trkpt lat="31.527191595507762" lon="-5.543978928772457"><ele>1316.5</ele><time>2026-04-24T18:07:10.999Z</time></trkpt><trkpt lat="31.527251491899204" lon="-5.544136689362302"><ele>1317.75</ele><time>2026-04-24T18:07:11.999Z</time></trkpt><trkpt lat="31.527311981570925" lon="-5.544283328146719"><ele>1319.0</ele><time>2026-04-24T18:07:12.999Z</time></trkpt><trkpt lat="31.52738575675864" lon="-5.544396512847728"><ele>1319.0</ele><time>2026-04-24T18:07:13.999Z</time></trkpt><trkpt lat="31.527424412610085" lon="-5.544510680917228"><ele>1319.0</ele><time>2026-04-24T18:07:14.999Z</time></trkpt><trkpt lat="31.52747675775249" lon="-5.544598153800348"><ele>1319.0</ele><time>2026-04-24T18:07:15.999Z</time></trkpt><trkpt lat="31.527530280782052" lon="-5.544693848047142"><ele>1319.0</ele><time>2026-04-24T18:07:16.999Z</time></trkpt><trkpt lat="31.52759349754678" lon="-5.54479245281482"><ele>1319.0</ele><time>2026-04-24T18:07:17.999Z</time></trkpt><trkpt lat="31.52766458747374" lon="-5.544893292853986"><ele>1318.75</ele><time>2026-04-24T18:07:18.999Z</time></trkpt><trkpt lat="31.527741398283464" lon="-5.544995201540115"><ele>1318.5</ele><time>2026-04-24T18:07:19.999Z</time></trkpt><trkpt lat="31.52782302495683" lon="-5.545095444085966"><ele>1318.25</ele><time>2026-04-24T18:07:20.999Z</time></trkpt><trkpt lat="31.527911746781378" lon="-5.545194545302839"><ele>1318.0</ele><time>2026-04-24T18:07:21.999Z</time></trkpt><trkpt lat="31.528004377949856" lon="-5.54529135249755"><ele>1318.25</ele><time>2026-04-24T18:07:22.999Z</time></trkpt><trkpt lat="31.52810110728709" lon="-5.54538878503942"><ele>1318.5</ele><time>2026-04-24T18:07:23.999Z</time></trkpt><trkpt lat="31.52820034000992" lon="-5.54548390776281"><ele>1318.75</ele><time>2026-04-24T18:07:24.999Z</time></trkpt><trkpt lat="31.528305752038744" lon="-5.545578146049296"><ele>1319.0</ele><time>2026-04-24T18:07:25.999Z</time></trkpt><trkpt lat="31.528420303546042" lon="-5.545672099765616"><ele>1319.0</ele><time>2026-04-24T18:07:26.999Z</time></trkpt><trkpt lat="31.528542745216654" lon="-5.545765653162047"><ele>1319.0</ele><time>2026-04-24T18:07:27.999Z</time></trkpt><trkpt lat="31.528673621608473" lon="-5.545856571228145"><ele>1319.0</ele><time>2026-04-24T18:07:28.999Z</time></trkpt><trkpt lat="31.52880625336177" lon="-5.545950527835797"><ele>1319.0</ele><time>2026-04-24T18:07:29.999Z</time></trkpt><trkpt lat="31.528942778589247" lon="-5.5460499376366865"><ele>1319.0</ele><time>2026-04-24T18:07:30.999Z</time></trkpt><trkpt lat="31.529080723581437" lon="-5.5461523484744095"><ele>1319.0</ele><time>2026-04-24T18:07:31.999Z</time></trkpt><trkpt lat="31.529220979818398" lon="-5.546252058779206"><ele>1318.6666666666667</ele><time>2026-04-24T18:07:32.999Z</time></trkpt><trkpt lat="31.529362117411264" lon="-5.546352056294078"><ele>1318.3333333333333</ele><time>2026-04-24T18:07:33.999Z</time></trkpt><trkpt lat="31.52950143599248" lon="-5.546452769356199"><ele>1318.0</ele><time>2026-04-24T18:07:34.999Z</time></trkpt><trkpt lat="31.529639220490633" lon="-5.546555611986085"><ele>1319.3333333333333</ele><time>2026-04-24T18:07:35.999Z</time></trkpt><trkpt lat="31.529777611042586" lon="-5.54666092834598"><ele>1320.6666666666667</ele><time>2026-04-24T18:07:36.999Z</time></trkpt><trkpt lat="31.529909239717995" lon="-5.546769085073036"><ele>1322.0</ele><time>2026-04-24T18:07:37.999Z</time></trkpt><trkpt lat="31.530044933417155" lon="-5.546866254491565"><ele>1322.0</ele><time>2026-04-24T18:07:38.999Z</time></trkpt><trkpt lat="31.530168768395797" lon="-5.546985121023971"><ele>1322.0</ele><time>2026-04-24T18:07:39.999Z</time></trkpt><trkpt lat="31.53028144787102" lon="-5.547125328592881"><ele>1322.0</ele><time>2026-04-24T18:07:40.999Z</time></trkpt><trkpt lat="31.530365948292108" lon="-5.547285411330475"><ele>1319.3333333333335</ele><time>2026-04-24T18:07:41.999Z</time></trkpt><trkpt lat="31.53045180108972" lon="-5.547436160487985"><ele>1316.6666666666667</ele><time>2026-04-24T18:07:42.999Z</time></trkpt><trkpt lat="31.530525649221353" lon="-5.547593843392047"><ele>1314.0</ele><time>2026-04-24T18:07:43.999Z</time></trkpt><trkpt lat="31.530589705157716" lon="-5.547752842859873"><ele>1315.0</ele><time>2026-04-24T18:07:44.999Z</time></trkpt><trkpt lat="31.530644915034763" lon="-5.547911841647013"><ele>1316.0</ele><time>2026-04-24T18:07:45.999Z</time></trkpt><trkpt lat="31.530675662649116" lon="-5.54807746313542"><ele>1317.0</ele><time>2026-04-24T18:07:46.999Z</time></trkpt><trkpt lat="31.53070303022138" lon="-5.548240762265847"><ele>1318.0</ele><time>2026-04-24T18:07:47.999Z</time></trkpt><trkpt lat="31.53072022104172" lon="-5.548404169250845"><ele>1318.0</ele><time>2026-04-24T18:07:48.998Z</time></trkpt><trkpt lat="31.530725681372374" lon="-5.5485655486203935"><ele>1318.0</ele><time>2026-04-24T18:07:49.998Z</time></trkpt><trkpt lat="31.53072391015378" lon="-5.5487271059935495"><ele>1318.0</ele><time>2026-04-24T18:07:50.998Z</time></trkpt><trkpt lat="31.530704763784975" lon="-5.548894038416839"><ele>1318.0</ele><time>2026-04-24T18:07:51.998Z</time></trkpt><trkpt lat="31.53067325535836" lon="-5.5490688408641216"><ele>1317.6666666666665</ele><time>2026-04-24T18:07:52.998Z</time></trkpt><trkpt lat="31.53064147958686" lon="-5.5492470613681295"><ele>1317.3333333333333</ele><time>2026-04-24T18:07:53.998Z</time></trkpt><trkpt lat="31.53061043855601" lon="-5.549424688226497"><ele>1317.0</ele><time>2026-04-24T18:07:54.998Z</time></trkpt><trkpt lat="31.53057982387148" lon="-5.549601938215135"><ele>1317.0</ele><time>2026-04-24T18:07:55.998Z</time></trkpt><trkpt lat="31.530552934467913" lon="-5.549775299370234"><ele>1317.0</ele><time>2026-04-24T18:07:56.998Z</time></trkpt><trkpt lat="31.53053094260522" lon="-5.5499479060868815"><ele>1317.0</ele><time>2026-04-24T18:07:57.998Z</time></trkpt><trkpt lat="31.530516941726322" lon="-5.550118068534346"><ele>1317.0</ele><time>2026-04-24T18:07:58.998Z</time></trkpt><trkpt lat="31.53050854301225" lon="-5.550288772137666"><ele>1317.6666666666667</ele><time>2026-04-24T18:07:59.998Z</time></trkpt><trkpt lat="31.530515717277133" lon="-5.550462170630925"><ele>1318.3333333333335</ele><time>2026-04-24T18:08:00.998Z</time></trkpt><trkpt lat="31.530540341878957" lon="-5.550637019507681"><ele>1319.0</ele><time>2026-04-24T18:08:01.998Z</time></trkpt><trkpt lat="31.530575629918747" lon="-5.550812172067741"><ele>1319.0</ele><time>2026-04-24T18:08:02.998Z</time></trkpt><trkpt lat="31.530619357299546" lon="-5.55098750880767"><ele>1319.0</ele><time>2026-04-24T18:08:04Z</time></trkpt><trkpt lat="31.53066975750261" lon="-5.551160721627562"><ele>1319.0</ele><time>2026-04-24T18:08:05Z</time></trkpt><trkpt lat="31.530730077282715" lon="-5.5513278813355385"><ele>1319.0</ele><time>2026-04-24T18:08:06Z</time></trkpt><trkpt lat="31.530794361878048" lon="-5.551491622116271"><ele>1319.0</ele><time>2026-04-24T18:08:07Z</time></trkpt><trkpt lat="31.530856423000376" lon="-5.551653643070292"><ele>1319.0</ele><time>2026-04-24T18:08:08Z</time></trkpt><trkpt lat="31.530917803465464" lon="-5.551816563419102"><ele>1319.0</ele><time>2026-04-24T18:08:09Z</time></trkpt><trkpt lat="31.530974718913026" lon="-5.551980630569412"><ele>1319.0</ele><time>2026-04-24T18:08:10Z</time></trkpt><trkpt lat="31.53103347664139" lon="-5.552150269867041"><ele>1319.0</ele><time>2026-04-24T18:08:11Z</time></trkpt><trkpt lat="31.531095867351066" lon="-5.552325534752132"><ele>1319.3333333333335</ele><time>2026-04-24T18:08:12Z</time></trkpt><trkpt lat="31.531159886182742" lon="-5.552495657621371"><ele>1319.6666666666667</ele><time>2026-04-24T18:08:13Z</time></trkpt><trkpt lat="31.531219684239066" lon="-5.552660215456432"><ele>1320.0</ele><time>2026-04-24T18:08:14Z</time></trkpt><trkpt lat="31.531276161813302" lon="-5.55282109115905"><ele>1321.0</ele><time>2026-04-24T18:08:15Z</time></trkpt><trkpt lat="31.53133207596109" lon="-5.552975532196401"><ele>1322.0</ele><time>2026-04-24T18:08:16Z</time></trkpt><trkpt lat="31.531388446869176" lon="-5.553129541364885"><ele>1323.0</ele><time>2026-04-24T18:08:17Z</time></trkpt><trkpt lat="31.531443009564974" lon="-5.553280816783724"><ele>1324.0</ele><time>2026-04-24T18:08:18Z</time></trkpt><trkpt lat="31.531494990169108" lon="-5.5534261552446464"><ele>1324.0</ele><time>2026-04-24T18:08:19Z</time></trkpt><trkpt lat="31.531547142865033" lon="-5.553567670155597"><ele>1324.0</ele><time>2026-04-24T18:08:20Z</time></trkpt><trkpt lat="31.53159574479956" lon="-5.553706438292144"><ele>1324.0</ele><time>2026-04-24T18:08:21Z</time></trkpt><trkpt lat="31.53164196989969" lon="-5.553841045170631"><ele>1324.0</ele><time>2026-04-24T18:08:22Z</time></trkpt><trkpt lat="31.531686834867067" lon="-5.553969000703625"><ele>1324.0</ele><time>2026-04-24T18:08:23Z</time></trkpt><trkpt lat="31.531729501286392" lon="-5.554086558885228"><ele>1324.0</ele><time>2026-04-24T18:08:23.999Z</time></trkpt><trkpt lat="31.531768516533706" lon="-5.5541928117890675"><ele>1324.0</ele><time>2026-04-24T18:08:24.999Z</time></trkpt><trkpt lat="31.531804877320095" lon="-5.5542922617521615"><ele>1324.0</ele><time>2026-04-24T18:08:25.999Z</time></trkpt><trkpt lat="31.531837931844372" lon="-5.554384072412878"><ele>1324.0</ele><time>2026-04-24T18:08:26.999Z</time></trkpt><trkpt lat="31.53186749466655" lon="-5.554472428074063"><ele>1324.2</ele><time>2026-04-24T18:08:27.999Z</time></trkpt><trkpt lat="31.53189840393444" lon="-5.55455822199437"><ele>1324.4</ele><time>2026-04-24T18:08:28.999Z</time></trkpt><trkpt lat="31.53193145169212" lon="-5.55464679240208"><ele>1324.6</ele><time>2026-04-24T18:08:29.999Z</time></trkpt><trkpt lat="31.531974165632754" lon="-5.554757231454491"><ele>1324.8</ele><time>2026-04-24T18:08:30.999Z</time></trkpt><trkpt lat="31.532022161297306" lon="-5.554883475336336"><ele>1325.0</ele><time>2026-04-24T18:08:31.999Z</time></trkpt><trkpt lat="31.532073195584516" lon="-5.5550271266327735"><ele>1325.0</ele><time>2026-04-24T18:08:32.999Z</time></trkpt><trkpt lat="31.532129112346606" lon="-5.555182268812259"><ele>1325.0</ele><time>2026-04-24T18:08:33.999Z</time></trkpt><trkpt lat="31.53218885140861" lon="-5.555337206212041"><ele>1325.0</ele><time>2026-04-24T18:08:34.999Z</time></trkpt><trkpt lat="31.532252250020232" lon="-5.555499512308419"><ele>1325.0</ele><time>2026-04-24T18:08:35.999Z</time></trkpt><trkpt lat="31.532320856931637" lon="-5.555663790228639"><ele>1325.6666666666667</ele><time>2026-04-24T18:08:36.999Z</time></trkpt><trkpt lat="31.532393781783135" lon="-5.555826670688552"><ele>1326.3333333333333</ele><time>2026-04-24T18:08:37.999Z</time></trkpt><trkpt lat="31.532470300675307" lon="-5.555985230230116"><ele>1327.0</ele><time>2026-04-24T18:08:38.999Z</time></trkpt><trkpt lat="31.532547820367395" lon="-5.556133160041508"><ele>1327.5</ele><time>2026-04-24T18:08:39.999Z</time></trkpt><trkpt lat="31.532625357235744" lon="-5.556271878201284"><ele>1328.0</ele><time>2026-04-24T18:08:40.999Z</time></trkpt><trkpt lat="31.53270435902681" lon="-5.556402613626412"><ele>1328.5</ele><time>2026-04-24T18:08:41.999Z</time></trkpt><trkpt lat="31.532781774569656" lon="-5.556520864571869"><ele>1329.0</ele><time>2026-04-24T18:08:42.999Z</time></trkpt><trkpt lat="31.532850487184287" lon="-5.556620355395086"><ele>1328.5</ele><time>2026-04-24T18:08:43.999Z</time></trkpt><trkpt lat="31.53290932721098" lon="-5.556699923229139"><ele>1328.0</ele><time>2026-04-24T18:08:44.999Z</time></trkpt><trkpt lat="31.532951242742275" lon="-5.5567564289695"><ele>1327.5</ele><time>2026-04-24T18:08:45.999Z</time></trkpt><trkpt lat="31.533017449406294" lon="-5.556829477254905"><ele>1327.0</ele><time>2026-04-24T18:08:47.999Z</time></trkpt><trkpt lat="31.53310933185511" lon="-5.556836724647623"><ele>1326.5</ele><time>2026-04-24T18:08:50.999Z</time></trkpt><trkpt lat="31.5331466090188" lon="-5.556731654885107"><ele>1326.0</ele><time>2026-04-24T18:08:52.999Z</time></trkpt><trkpt lat="31.53323655571167" lon="-5.556646965963874"><ele>1326.0</ele><time>2026-04-24T18:08:54.999Z</time></trkpt><trkpt lat="31.53332617752449" lon="-5.55656319627542"><ele>1326.0</ele><time>2026-04-24T18:08:56.999Z</time></trkpt><trkpt lat="31.53341239413205" lon="-5.556482310229438"><ele>1326.0</ele><time>2026-04-24T18:08:58.999Z</time></trkpt><trkpt lat="31.533497089830266" lon="-5.556402536083683"><ele>1326.0</ele><time>2026-04-24T18:09:00.999Z</time></trkpt><trkpt lat="31.533577988533434" lon="-5.556326465057222"><ele>1326.0</ele><time>2026-04-24T18:09:02.999Z</time></trkpt><trkpt lat="31.53365161434546" lon="-5.55625715571286"><ele>1326.0</ele><time>2026-04-24T18:09:04.999Z</time></trkpt><trkpt lat="31.533714354757677" lon="-5.55619803254291"><ele>1326.0</ele><time>2026-04-24T18:09:06.999Z</time></trkpt><trkpt lat="31.533677142840048" lon="-5.556093797345252"><ele>1326.0</ele><time>2026-04-24T18:09:11.999Z</time></trkpt><trkpt lat="31.533622421571625" lon="-5.556038772072044"><ele>1326.0</ele><time>2026-04-24T18:09:13.999Z</time></trkpt><trkpt lat="31.533573822936567" lon="-5.555981376998714"><ele>1326.0</ele><time>2026-04-24T18:09:17.999Z</time></trkpt><trkpt lat="31.533621583020164" lon="-5.555797044907462"><ele>1326.0</ele><time>2026-04-24T18:09:21.999Z</time></trkpt><trkpt lat="31.533687333428254" lon="-5.5557256722461075"><ele>1326.0</ele><time>2026-04-24T18:09:24.999Z</time></trkpt><trkpt lat="31.533738410841714" lon="-5.555670226530173"><ele>1326.0</ele><time>2026-04-24T18:09:27.999Z</time></trkpt><trkpt lat="31.53378547547237" lon="-5.555619512685178"><ele>1326.0</ele><time>2026-04-24T18:09:29.999Z</time></trkpt><trkpt lat="31.533862723489705" lon="-5.555544979576954"><ele>1326.0</ele><time>2026-04-24T18:09:31.999Z</time></trkpt><trkpt lat="31.53395082183418" lon="-5.555477799235911"><ele>1326.0</ele><time>2026-04-24T18:09:33.999Z</time></trkpt><trkpt lat="31.53402353824584" lon="-5.555422692013233"><ele>1325.8333333333333</ele><time>2026-04-24T18:09:35.999Z</time></trkpt><trkpt lat="31.534077700626295" lon="-5.555381618683421"><ele>1325.6666666666667</ele><time>2026-04-24T18:09:37.999Z</time></trkpt><trkpt lat="31.53415359934974" lon="-5.555324061850433"><ele>1325.5</ele><time>2026-04-24T18:09:40.999Z</time></trkpt><trkpt lat="31.534225249013467" lon="-5.555269829818059"><ele>1325.3333333333335</ele><time>2026-04-24T18:09:43.999Z</time></trkpt><trkpt lat="31.534278265570666" lon="-5.5552298160961895"><ele>1325.1666666666667</ele><time>2026-04-24T18:09:45.999Z</time></trkpt><trkpt lat="31.53434321639325" lon="-5.555180795109235"><ele>1325.0</ele><time>2026-04-24T18:09:50.998Z</time></trkpt><trkpt lat="31.534229736228998" lon="-5.555050088117328"><ele>1319.0</ele><time>2026-04-24T18:16:26.001Z</time></trkpt><trkpt lat="31.534174092654013" lon="-5.555006123096789"><ele>1319.0</ele><time>2026-04-24T18:19:22Z</time></trkpt><trkpt lat="31.53420267908655" lon="-5.555073155388055"><ele>1319.0</ele><time>2026-04-24T18:19:32Z</time></trkpt><trkpt lat="31.534207349430474" lon="-5.5549981648854265"><ele>1319.0</ele><time>2026-04-24T18:19:46Z</time></trkpt></trkseg></trk></gpx>